<?xml version="1.0" encoding="UTF-8"?>
<gpx version="1.1" creator="https://www.youtrack.es" xsi:schemaLocation="http://www.topografix.com/GPX/1/1 http://www.topografix.com/GPX/1/1/gpx.xsd http://www.garmin.com/xmlschemas/GpxExtensions/v3 http://www.garmin.com/xmlschemas/GpxExtensionsv3.xsd http://www.garmin.com/xmlschemas/TrackPointExtension/v1 http://www.garmin.com/xmlschemas/TrackPointExtensionv1.xsd" xmlns:gpxtpx="http://www.garmin.com/xmlschemas/TrackPointExtension/v1" xmlns:gpxx="http://www.garmin.com/xmlschemas/GpxExtensions/v3" xmlns:xsi="http://www.w3.org/2001/XMLSchema-instance">
  <metadata>
    <link href="https://www.youtrack.es">
      <text>YouTrack.es</text>
    </link>
    <time>2026-05-08T20:56:35Z</time>
  </metadata>
  <trk>
    <src>https://www.youtrack.es</src>
    <link href="https://www.youtrack.es/ruta/18301-e1">
      <text>YouTrack.es</text>
    </link>
    <trkseg>
      <trkpt lat="42.702076" lon="0.794444">
        <ele>1001.2</ele>
        <time>1970-01-01T00:00:00.000Z</time>
      </trkpt>
      <trkpt lat="42.702078" lon="0.794444">
        <ele>1000.6</ele>
        <time>1970-01-01T00:00:01.000Z</time>
      </trkpt>
      <trkpt lat="42.70213" lon="0.794617">
        <ele>999.6</ele>
        <time>1970-01-01T00:00:29.000Z</time>
      </trkpt>
      <trkpt lat="42.702092" lon="0.795054">
        <ele>998.4</ele>
        <time>1970-01-01T00:00:41.000Z</time>
      </trkpt>
      <trkpt lat="42.702174" lon="0.795209">
        <ele>997.6</ele>
        <time>1970-01-01T00:00:46.000Z</time>
      </trkpt>
      <trkpt lat="42.701786" lon="0.795761">
        <ele>998.4</ele>
        <time>1970-01-01T00:01:05.000Z</time>
      </trkpt>
      <trkpt lat="42.701624" lon="0.796091">
        <ele>999.2</ele>
        <time>1970-01-01T00:01:14.000Z</time>
      </trkpt>
      <trkpt lat="42.701253" lon="0.796632">
        <ele>999.8</ele>
        <time>1970-01-01T00:01:29.000Z</time>
      </trkpt>
      <trkpt lat="42.701055" lon="0.79694">
        <ele>1000.2</ele>
        <time>1970-01-01T00:01:36.000Z</time>
      </trkpt>
      <trkpt lat="42.700996" lon="0.797037">
        <ele>1000.2</ele>
        <time>1970-01-01T00:01:38.000Z</time>
      </trkpt>
      <trkpt lat="42.700906" lon="0.797261">
        <ele>999.6</ele>
        <time>1970-01-01T00:01:42.000Z</time>
      </trkpt>
      <trkpt lat="42.700856" lon="0.79738">
        <ele>999.2</ele>
        <time>1970-01-01T00:01:44.000Z</time>
      </trkpt>
      <trkpt lat="42.700593" lon="0.798061">
        <ele>998.4</ele>
        <time>1970-01-01T00:01:55.000Z</time>
      </trkpt>
      <trkpt lat="42.700516" lon="0.798287">
        <ele>998</ele>
        <time>1970-01-01T00:01:59.000Z</time>
      </trkpt>
      <trkpt lat="42.700199" lon="0.798915">
        <ele>997.4</ele>
        <time>1970-01-01T00:02:10.000Z</time>
      </trkpt>
      <trkpt lat="42.69991" lon="0.799555">
        <ele>997.4</ele>
        <time>1970-01-01T00:02:21.000Z</time>
      </trkpt>
      <trkpt lat="42.699651" lon="0.800227">
        <ele>997.8</ele>
        <time>1970-01-01T00:02:33.000Z</time>
      </trkpt>
      <trkpt lat="42.699395" lon="0.800888">
        <ele>998.8</ele>
        <time>1970-01-01T00:02:45.000Z</time>
      </trkpt>
      <trkpt lat="42.699227" lon="0.801281">
        <ele>999.8</ele>
        <time>1970-01-01T00:02:53.000Z</time>
      </trkpt>
      <trkpt lat="42.699082" lon="0.801798">
        <ele>1001</ele>
        <time>1970-01-01T00:03:03.000Z</time>
      </trkpt>
      <trkpt lat="42.699017" lon="0.802034">
        <ele>1002.4</ele>
        <time>1970-01-01T00:03:08.000Z</time>
      </trkpt>
      <trkpt lat="42.698947" lon="0.802257">
        <ele>1003.4</ele>
        <time>1970-01-01T00:03:13.000Z</time>
      </trkpt>
      <trkpt lat="42.6989" lon="0.802486">
        <ele>1004.6</ele>
        <time>1970-01-01T00:03:18.000Z</time>
      </trkpt>
      <trkpt lat="42.698875" lon="0.802713">
        <ele>1005.6</ele>
        <time>1970-01-01T00:03:23.000Z</time>
      </trkpt>
      <trkpt lat="42.698849" lon="0.802892">
        <ele>1006.6</ele>
        <time>1970-01-01T00:03:27.000Z</time>
      </trkpt>
      <trkpt lat="42.698801" lon="0.80316">
        <ele>1008</ele>
        <time>1970-01-01T00:03:33.000Z</time>
      </trkpt>
      <trkpt lat="42.698765" lon="0.803375">
        <ele>1008.8</ele>
        <time>1970-01-01T00:03:38.000Z</time>
      </trkpt>
      <trkpt lat="42.69872" lon="0.803587">
        <ele>1010</ele>
        <time>1970-01-01T00:03:43.000Z</time>
      </trkpt>
      <trkpt lat="42.69867" lon="0.803834">
        <ele>1011.2</ele>
        <time>1970-01-01T00:03:49.000Z</time>
      </trkpt>
      <trkpt lat="42.698626" lon="0.803988">
        <ele>1012.2</ele>
        <time>1970-01-01T00:03:53.000Z</time>
      </trkpt>
      <trkpt lat="42.698581" lon="0.80413">
        <ele>1013.4</ele>
        <time>1970-01-01T00:03:57.000Z</time>
      </trkpt>
      <trkpt lat="42.698505" lon="0.80429">
        <ele>1014.6</ele>
        <time>1970-01-01T00:04:02.000Z</time>
      </trkpt>
      <trkpt lat="42.698417" lon="0.804428">
        <ele>1015.8</ele>
        <time>1970-01-01T00:04:07.000Z</time>
      </trkpt>
      <trkpt lat="42.698383" lon="0.804484">
        <ele>1016.4</ele>
        <time>1970-01-01T00:04:09.000Z</time>
      </trkpt>
      <trkpt lat="42.698328" lon="0.804562">
        <ele>1017</ele>
        <time>1970-01-01T00:04:12.000Z</time>
      </trkpt>
      <trkpt lat="42.698232" lon="0.804696">
        <ele>1018.4</ele>
        <time>1970-01-01T00:04:17.000Z</time>
      </trkpt>
      <trkpt lat="42.698152" lon="0.804832">
        <ele>1019.4</ele>
        <time>1970-01-01T00:04:22.000Z</time>
      </trkpt>
      <trkpt lat="42.698069" lon="0.804963">
        <ele>1020.6</ele>
        <time>1970-01-01T00:04:27.000Z</time>
      </trkpt>
      <trkpt lat="42.697992" lon="0.805088">
        <ele>1021.6</ele>
        <time>1970-01-01T00:04:32.000Z</time>
      </trkpt>
      <trkpt lat="42.69792" lon="0.805182">
        <ele>1022.6</ele>
        <time>1970-01-01T00:04:36.000Z</time>
      </trkpt>
      <trkpt lat="42.697834" lon="0.805326">
        <ele>1023.8</ele>
        <time>1970-01-01T00:04:41.000Z</time>
      </trkpt>
      <trkpt lat="42.697748" lon="0.80543">
        <ele>1024.8</ele>
        <time>1970-01-01T00:04:45.000Z</time>
      </trkpt>
      <trkpt lat="42.69763" lon="0.805584">
        <ele>1026</ele>
        <time>1970-01-01T00:04:51.000Z</time>
      </trkpt>
      <trkpt lat="42.697542" lon="0.805666">
        <ele>1027</ele>
        <time>1970-01-01T00:04:55.000Z</time>
      </trkpt>
      <trkpt lat="42.697408" lon="0.805738">
        <ele>1028</ele>
        <time>1970-01-01T00:05:00.000Z</time>
      </trkpt>
      <trkpt lat="42.697377" lon="0.806305">
        <ele>1029</ele>
        <time>1970-01-01T00:05:13.000Z</time>
      </trkpt>
      <trkpt lat="42.697309" lon="0.807043">
        <ele>1029.6</ele>
        <time>1970-01-01T00:05:28.000Z</time>
      </trkpt>
      <trkpt lat="42.697205" lon="0.807783">
        <ele>1029</ele>
        <time>1970-01-01T00:05:42.000Z</time>
      </trkpt>
      <trkpt lat="42.697156" lon="0.80801">
        <ele>1029</ele>
        <time>1970-01-01T00:05:47.000Z</time>
      </trkpt>
      <trkpt lat="42.697086" lon="0.80804">
        <ele>1028.8</ele>
        <time>1970-01-01T00:05:52.000Z</time>
      </trkpt>
      <trkpt lat="42.697049" lon="0.808018">
        <ele>1029</ele>
        <time>1970-01-01T00:06:30.000Z</time>
      </trkpt>
      <trkpt lat="42.696613" lon="0.807944">
        <ele>1030.2</ele>
        <time>1970-01-01T00:06:46.000Z</time>
      </trkpt>
      <trkpt lat="42.696452" lon="0.807897">
        <ele>1031.2</ele>
        <time>1970-01-01T00:06:52.000Z</time>
      </trkpt>
      <trkpt lat="42.696321" lon="0.807879">
        <ele>1032.6</ele>
        <time>1970-01-01T00:06:57.000Z</time>
      </trkpt>
      <trkpt lat="42.6962" lon="0.80787">
        <ele>1033.6</ele>
        <time>1970-01-01T00:07:02.000Z</time>
      </trkpt>
      <trkpt lat="42.696111" lon="0.807855">
        <ele>1034.8</ele>
        <time>1970-01-01T00:07:06.000Z</time>
      </trkpt>
      <trkpt lat="42.696031" lon="0.807809">
        <ele>1036</ele>
        <time>1970-01-01T00:07:10.000Z</time>
      </trkpt>
      <trkpt lat="42.695974" lon="0.80771">
        <ele>1037.2</ele>
        <time>1970-01-01T00:07:14.000Z</time>
      </trkpt>
      <trkpt lat="42.695952" lon="0.8076">
        <ele>1038.2</ele>
        <time>1970-01-01T00:07:18.000Z</time>
      </trkpt>
      <trkpt lat="42.695925" lon="0.807461">
        <ele>1039.4</ele>
        <time>1970-01-01T00:07:23.000Z</time>
      </trkpt>
      <trkpt lat="42.695919" lon="0.807341">
        <ele>1040.4</ele>
        <time>1970-01-01T00:07:27.000Z</time>
      </trkpt>
      <trkpt lat="42.695909" lon="0.807232">
        <ele>1041.2</ele>
        <time>1970-01-01T00:07:31.000Z</time>
      </trkpt>
      <trkpt lat="42.695876" lon="0.807073">
        <ele>1042.4</ele>
        <time>1970-01-01T00:07:36.000Z</time>
      </trkpt>
      <trkpt lat="42.695871" lon="0.806888">
        <ele>1043.6</ele>
        <time>1970-01-01T00:07:41.000Z</time>
      </trkpt>
      <trkpt lat="42.695882" lon="0.806682">
        <ele>1044.6</ele>
        <time>1970-01-01T00:07:47.000Z</time>
      </trkpt>
      <trkpt lat="42.695921" lon="0.80653">
        <ele>1045.6</ele>
        <time>1970-01-01T00:07:52.000Z</time>
      </trkpt>
      <trkpt lat="42.695972" lon="0.806396">
        <ele>1046.6</ele>
        <time>1970-01-01T00:07:57.000Z</time>
      </trkpt>
      <trkpt lat="42.696014" lon="0.806241">
        <ele>1047.8</ele>
        <time>1970-01-01T00:08:02.000Z</time>
      </trkpt>
      <trkpt lat="42.696003" lon="0.806053">
        <ele>1049</ele>
        <time>1970-01-01T00:08:08.000Z</time>
      </trkpt>
      <trkpt lat="42.695986" lon="0.805902">
        <ele>1050</ele>
        <time>1970-01-01T00:08:13.000Z</time>
      </trkpt>
      <trkpt lat="42.695954" lon="0.805652">
        <ele>1051.2</ele>
        <time>1970-01-01T00:08:21.000Z</time>
      </trkpt>
      <trkpt lat="42.69594" lon="0.805493">
        <ele>1052.2</ele>
        <time>1970-01-01T00:08:26.000Z</time>
      </trkpt>
      <trkpt lat="42.69594" lon="0.805281">
        <ele>1053.4</ele>
        <time>1970-01-01T00:08:33.000Z</time>
      </trkpt>
      <trkpt lat="42.69593" lon="0.805081">
        <ele>1054.6</ele>
        <time>1970-01-01T00:08:40.000Z</time>
      </trkpt>
      <trkpt lat="42.695912" lon="0.804997">
        <ele>1055.4</ele>
        <time>1970-01-01T00:08:43.000Z</time>
      </trkpt>
      <trkpt lat="42.695893" lon="0.804946">
        <ele>1055.8</ele>
        <time>1970-01-01T00:08:45.000Z</time>
      </trkpt>
      <trkpt lat="42.695838" lon="0.804795">
        <ele>1056.8</ele>
        <time>1970-01-01T00:08:51.000Z</time>
      </trkpt>
      <trkpt lat="42.695824" lon="0.804642">
        <ele>1057.8</ele>
        <time>1970-01-01T00:08:57.000Z</time>
      </trkpt>
      <trkpt lat="42.695846" lon="0.804349">
        <ele>1059</ele>
        <time>1970-01-01T00:09:06.000Z</time>
      </trkpt>
      <trkpt lat="42.695955" lon="0.804119">
        <ele>1060</ele>
        <time>1970-01-01T00:09:14.000Z</time>
      </trkpt>
      <trkpt lat="42.69612" lon="0.803928">
        <ele>1060.8</ele>
        <time>1970-01-01T00:09:25.000Z</time>
      </trkpt>
      <trkpt lat="42.696239" lon="0.803743">
        <ele>1062</ele>
        <time>1970-01-01T00:09:33.000Z</time>
      </trkpt>
      <trkpt lat="42.696241" lon="0.803715">
        <ele>1061.8</ele>
        <time>1970-01-01T00:09:34.000Z</time>
      </trkpt>
      <trkpt lat="42.696197" lon="0.803383">
        <ele>1063</ele>
        <time>1970-01-01T00:09:45.000Z</time>
      </trkpt>
      <trkpt lat="42.69618" lon="0.803155">
        <ele>1064</ele>
        <time>1970-01-01T00:09:52.000Z</time>
      </trkpt>
      <trkpt lat="42.69616" lon="0.80294">
        <ele>1065</ele>
        <time>1970-01-01T00:09:59.000Z</time>
      </trkpt>
      <trkpt lat="42.696167" lon="0.802766">
        <ele>1066.2</ele>
        <time>1970-01-01T00:10:05.000Z</time>
      </trkpt>
      <trkpt lat="42.696176" lon="0.802565">
        <ele>1067.2</ele>
        <time>1970-01-01T00:10:12.000Z</time>
      </trkpt>
      <trkpt lat="42.696213" lon="0.802365">
        <ele>1068.2</ele>
        <time>1970-01-01T00:10:19.000Z</time>
      </trkpt>
      <trkpt lat="42.696209" lon="0.802187">
        <ele>1069.4</ele>
        <time>1970-01-01T00:10:25.000Z</time>
      </trkpt>
      <trkpt lat="42.696207" lon="0.802102">
        <ele>1069.8</ele>
        <time>1970-01-01T00:10:28.000Z</time>
      </trkpt>
      <trkpt lat="42.696186" lon="0.801933">
        <ele>1070.6</ele>
        <time>1970-01-01T00:10:34.000Z</time>
      </trkpt>
      <trkpt lat="42.696154" lon="0.801716">
        <ele>1071.6</ele>
        <time>1970-01-01T00:10:42.000Z</time>
      </trkpt>
      <trkpt lat="42.69612" lon="0.801531">
        <ele>1072.6</ele>
        <time>1970-01-01T00:10:49.000Z</time>
      </trkpt>
      <trkpt lat="42.696075" lon="0.801383">
        <ele>1073.6</ele>
        <time>1970-01-01T00:10:55.000Z</time>
      </trkpt>
      <trkpt lat="42.696027" lon="0.801177">
        <ele>1074.6</ele>
        <time>1970-01-01T00:11:03.000Z</time>
      </trkpt>
      <trkpt lat="42.695997" lon="0.800999">
        <ele>1075.8</ele>
        <time>1970-01-01T00:11:10.000Z</time>
      </trkpt>
      <trkpt lat="42.695963" lon="0.800883">
        <ele>1077</ele>
        <time>1970-01-01T00:11:15.000Z</time>
      </trkpt>
      <trkpt lat="42.695935" lon="0.800779">
        <ele>1077.8</ele>
        <time>1970-01-01T00:11:20.000Z</time>
      </trkpt>
      <trkpt lat="42.695933" lon="0.800732">
        <ele>1078.2</ele>
        <time>1970-01-01T00:11:22.000Z</time>
      </trkpt>
      <trkpt lat="42.695921" lon="0.800606">
        <ele>1079.2</ele>
        <time>1970-01-01T00:11:27.000Z</time>
      </trkpt>
      <trkpt lat="42.695905" lon="0.800455">
        <ele>1080.2</ele>
        <time>1970-01-01T00:11:33.000Z</time>
      </trkpt>
      <trkpt lat="42.695882" lon="0.800338">
        <ele>1081.2</ele>
        <time>1970-01-01T00:11:38.000Z</time>
      </trkpt>
      <trkpt lat="42.69585" lon="0.800217">
        <ele>1082.2</ele>
        <time>1970-01-01T00:11:43.000Z</time>
      </trkpt>
      <trkpt lat="42.695808" lon="0.800104">
        <ele>1083.4</ele>
        <time>1970-01-01T00:11:49.000Z</time>
      </trkpt>
      <trkpt lat="42.695748" lon="0.799995">
        <ele>1084.6</ele>
        <time>1970-01-01T00:11:55.000Z</time>
      </trkpt>
      <trkpt lat="42.695738" lon="0.799918">
        <ele>1085.6</ele>
        <time>1970-01-01T00:12:00.000Z</time>
      </trkpt>
      <trkpt lat="42.695708" lon="0.799756">
        <ele>1086.8</ele>
        <time>1970-01-01T00:12:08.000Z</time>
      </trkpt>
      <trkpt lat="42.695672" lon="0.799618">
        <ele>1087.8</ele>
        <time>1970-01-01T00:12:14.000Z</time>
      </trkpt>
      <trkpt lat="42.695661" lon="0.799485">
        <ele>1088.8</ele>
        <time>1970-01-01T00:12:20.000Z</time>
      </trkpt>
      <trkpt lat="42.695637" lon="0.799344">
        <ele>1090</ele>
        <time>1970-01-01T00:12:26.000Z</time>
      </trkpt>
      <trkpt lat="42.695622" lon="0.799311">
        <ele>1090.4</ele>
        <time>1970-01-01T00:12:28.000Z</time>
      </trkpt>
      <trkpt lat="42.695604" lon="0.799227">
        <ele>1091</ele>
        <time>1970-01-01T00:12:32.000Z</time>
      </trkpt>
      <trkpt lat="42.695603" lon="0.799207">
        <ele>1091.2</ele>
        <time>1970-01-01T00:12:33.000Z</time>
      </trkpt>
      <trkpt lat="42.695582" lon="0.79913">
        <ele>1092.2</ele>
        <time>1970-01-01T00:12:37.000Z</time>
      </trkpt>
      <trkpt lat="42.69558" lon="0.799107">
        <ele>1092.4</ele>
        <time>1970-01-01T00:12:38.000Z</time>
      </trkpt>
      <trkpt lat="42.695566" lon="0.799048">
        <ele>1093.2</ele>
        <time>1970-01-01T00:12:41.000Z</time>
      </trkpt>
      <trkpt lat="42.695518" lon="0.799016">
        <ele>1094.4</ele>
        <time>1970-01-01T00:12:45.000Z</time>
      </trkpt>
      <trkpt lat="42.69546" lon="0.799056">
        <ele>1095.6</ele>
        <time>1970-01-01T00:12:51.000Z</time>
      </trkpt>
      <trkpt lat="42.695418" lon="0.799148">
        <ele>1096.6</ele>
        <time>1970-01-01T00:12:57.000Z</time>
      </trkpt>
      <trkpt lat="42.695399" lon="0.799301">
        <ele>1097.6</ele>
        <time>1970-01-01T00:13:05.000Z</time>
      </trkpt>
      <trkpt lat="42.695383" lon="0.799629">
        <ele>1098.6</ele>
        <time>1970-01-01T00:13:18.000Z</time>
      </trkpt>
      <trkpt lat="42.695365" lon="0.79974">
        <ele>1099</ele>
        <time>1970-01-01T00:13:22.000Z</time>
      </trkpt>
      <trkpt lat="42.695348" lon="0.799938">
        <ele>1099.6</ele>
        <time>1970-01-01T00:13:29.000Z</time>
      </trkpt>
      <trkpt lat="42.695398" lon="0.800139">
        <ele>1100.8</ele>
        <time>1970-01-01T00:13:37.000Z</time>
      </trkpt>
      <trkpt lat="42.695422" lon="0.800305">
        <ele>1102</ele>
        <time>1970-01-01T00:13:44.000Z</time>
      </trkpt>
      <trkpt lat="42.695394" lon="0.800627">
        <ele>1103</ele>
        <time>1970-01-01T00:13:56.000Z</time>
      </trkpt>
      <trkpt lat="42.695381" lon="0.800874">
        <ele>1104</ele>
        <time>1970-01-01T00:14:05.000Z</time>
      </trkpt>
      <trkpt lat="42.695368" lon="0.801097">
        <ele>1105</ele>
        <time>1970-01-01T00:14:14.000Z</time>
      </trkpt>
      <trkpt lat="42.695315" lon="0.801266">
        <ele>1105.8</ele>
        <time>1970-01-01T00:14:21.000Z</time>
      </trkpt>
      <trkpt lat="42.695213" lon="0.801427">
        <ele>1107</ele>
        <time>1970-01-01T00:14:29.000Z</time>
      </trkpt>
      <trkpt lat="42.695121" lon="0.801546">
        <ele>1108</ele>
        <time>1970-01-01T00:14:36.000Z</time>
      </trkpt>
      <trkpt lat="42.695008" lon="0.8017">
        <ele>1109.2</ele>
        <time>1970-01-01T00:14:45.000Z</time>
      </trkpt>
      <trkpt lat="42.694914" lon="0.801844">
        <ele>1110.2</ele>
        <time>1970-01-01T00:14:54.000Z</time>
      </trkpt>
      <trkpt lat="42.694831" lon="0.801999">
        <ele>1111.4</ele>
        <time>1970-01-01T00:15:03.000Z</time>
      </trkpt>
      <trkpt lat="42.694784" lon="0.802123">
        <ele>1112.6</ele>
        <time>1970-01-01T00:15:09.000Z</time>
      </trkpt>
      <trkpt lat="42.694716" lon="0.802273">
        <ele>1113.8</ele>
        <time>1970-01-01T00:15:16.000Z</time>
      </trkpt>
      <trkpt lat="42.694685" lon="0.802352">
        <ele>1114.8</ele>
        <time>1970-01-01T00:15:20.000Z</time>
      </trkpt>
      <trkpt lat="42.694661" lon="0.802466">
        <ele>1116</ele>
        <time>1970-01-01T00:15:25.000Z</time>
      </trkpt>
      <trkpt lat="42.694661" lon="0.8026">
        <ele>1117</ele>
        <time>1970-01-01T00:15:31.000Z</time>
      </trkpt>
      <trkpt lat="42.694629" lon="0.802737">
        <ele>1118</ele>
        <time>1970-01-01T00:15:37.000Z</time>
      </trkpt>
      <trkpt lat="42.694585" lon="0.802879">
        <ele>1119.2</ele>
        <time>1970-01-01T00:15:44.000Z</time>
      </trkpt>
      <trkpt lat="42.694544" lon="0.802971">
        <ele>1120.2</ele>
        <time>1970-01-01T00:15:49.000Z</time>
      </trkpt>
      <trkpt lat="42.694482" lon="0.803116">
        <ele>1121.4</ele>
        <time>1970-01-01T00:15:56.000Z</time>
      </trkpt>
      <trkpt lat="42.694426" lon="0.803206">
        <ele>1122.4</ele>
        <time>1970-01-01T00:16:01.000Z</time>
      </trkpt>
      <trkpt lat="42.694339" lon="0.803342">
        <ele>1123.6</ele>
        <time>1970-01-01T00:16:09.000Z</time>
      </trkpt>
      <trkpt lat="42.694273" lon="0.803452">
        <ele>1124.6</ele>
        <time>1970-01-01T00:16:15.000Z</time>
      </trkpt>
      <trkpt lat="42.694206" lon="0.803585">
        <ele>1125.6</ele>
        <time>1970-01-01T00:16:23.000Z</time>
      </trkpt>
      <trkpt lat="42.694156" lon="0.803712">
        <ele>1126.6</ele>
        <time>1970-01-01T00:16:30.000Z</time>
      </trkpt>
      <trkpt lat="42.694133" lon="0.803898">
        <ele>1127.8</ele>
        <time>1970-01-01T00:16:38.000Z</time>
      </trkpt>
      <trkpt lat="42.694124" lon="0.803938">
        <ele>1128.2</ele>
        <time>1970-01-01T00:16:40.000Z</time>
      </trkpt>
      <trkpt lat="42.694118" lon="0.80401">
        <ele>1129</ele>
        <time>1970-01-01T00:16:43.000Z</time>
      </trkpt>
      <trkpt lat="42.694106" lon="0.804078">
        <ele>1129.4</ele>
        <time>1970-01-01T00:16:46.000Z</time>
      </trkpt>
      <trkpt lat="42.694082" lon="0.80417">
        <ele>1130.2</ele>
        <time>1970-01-01T00:16:50.000Z</time>
      </trkpt>
      <trkpt lat="42.694011" lon="0.804339">
        <ele>1131.4</ele>
        <time>1970-01-01T00:16:57.000Z</time>
      </trkpt>
      <trkpt lat="42.693954" lon="0.804464">
        <ele>1132.4</ele>
        <time>1970-01-01T00:17:03.000Z</time>
      </trkpt>
      <trkpt lat="42.693906" lon="0.804555">
        <ele>1133.4</ele>
        <time>1970-01-01T00:17:08.000Z</time>
      </trkpt>
      <trkpt lat="42.693852" lon="0.804645">
        <ele>1134.6</ele>
        <time>1970-01-01T00:17:14.000Z</time>
      </trkpt>
      <trkpt lat="42.693814" lon="0.804696">
        <ele>1135.6</ele>
        <time>1970-01-01T00:17:18.000Z</time>
      </trkpt>
      <trkpt lat="42.693771" lon="0.804776">
        <ele>1136.6</ele>
        <time>1970-01-01T00:17:23.000Z</time>
      </trkpt>
      <trkpt lat="42.693762" lon="0.804888">
        <ele>1137.8</ele>
        <time>1970-01-01T00:17:29.000Z</time>
      </trkpt>
      <trkpt lat="42.693776" lon="0.804999">
        <ele>1139</ele>
        <time>1970-01-01T00:17:34.000Z</time>
      </trkpt>
      <trkpt lat="42.693749" lon="0.805179">
        <ele>1139.8</ele>
        <time>1970-01-01T00:17:42.000Z</time>
      </trkpt>
      <trkpt lat="42.693711" lon="0.805273">
        <ele>1140.2</ele>
        <time>1970-01-01T00:17:46.000Z</time>
      </trkpt>
      <trkpt lat="42.693658" lon="0.805411">
        <ele>1140.2</ele>
        <time>1970-01-01T00:17:52.000Z</time>
      </trkpt>
      <trkpt lat="42.693633" lon="0.805561">
        <ele>1140.8</ele>
        <time>1970-01-01T00:17:58.000Z</time>
      </trkpt>
      <trkpt lat="42.693637" lon="0.805702">
        <ele>1141.6</ele>
        <time>1970-01-01T00:18:06.000Z</time>
      </trkpt>
      <trkpt lat="42.693639" lon="0.805717">
        <ele>1141.8</ele>
        <time>1970-01-01T00:18:07.000Z</time>
      </trkpt>
      <trkpt lat="42.693661" lon="0.80582">
        <ele>1143</ele>
        <time>1970-01-01T00:18:13.000Z</time>
      </trkpt>
      <trkpt lat="42.693691" lon="0.805949">
        <ele>1144</ele>
        <time>1970-01-01T00:18:19.000Z</time>
      </trkpt>
      <trkpt lat="42.693732" lon="0.806108">
        <ele>1145</ele>
        <time>1970-01-01T00:18:26.000Z</time>
      </trkpt>
      <trkpt lat="42.693758" lon="0.806211">
        <ele>1146.2</ele>
        <time>1970-01-01T00:18:31.000Z</time>
      </trkpt>
      <trkpt lat="42.69379" lon="0.806585">
        <ele>1147</ele>
        <time>1970-01-01T00:18:45.000Z</time>
      </trkpt>
      <trkpt lat="42.693845" lon="0.806821">
        <ele>1148.2</ele>
        <time>1970-01-01T00:18:53.000Z</time>
      </trkpt>
      <trkpt lat="42.693891" lon="0.806942">
        <ele>1149.2</ele>
        <time>1970-01-01T00:18:58.000Z</time>
      </trkpt>
      <trkpt lat="42.693927" lon="0.807092">
        <ele>1150.2</ele>
        <time>1970-01-01T00:19:04.000Z</time>
      </trkpt>
      <trkpt lat="42.693933" lon="0.80723">
        <ele>1151.4</ele>
        <time>1970-01-01T00:19:09.000Z</time>
      </trkpt>
      <trkpt lat="42.693895" lon="0.807372">
        <ele>1152.6</ele>
        <time>1970-01-01T00:19:14.000Z</time>
      </trkpt>
      <trkpt lat="42.693828" lon="0.807542">
        <ele>1153.8</ele>
        <time>1970-01-01T00:19:22.000Z</time>
      </trkpt>
      <trkpt lat="42.693732" lon="0.80764">
        <ele>1154.8</ele>
        <time>1970-01-01T00:19:29.000Z</time>
      </trkpt>
      <trkpt lat="42.693542" lon="0.807677">
        <ele>1155.6</ele>
        <time>1970-01-01T00:19:38.000Z</time>
      </trkpt>
      <trkpt lat="42.69334" lon="0.807962">
        <ele>1156.8</ele>
        <time>1970-01-01T00:19:52.000Z</time>
      </trkpt>
      <trkpt lat="42.69316" lon="0.808373">
        <ele>1157.8</ele>
        <time>1970-01-01T00:20:06.000Z</time>
      </trkpt>
      <trkpt lat="42.692981" lon="0.808773">
        <ele>1158.8</ele>
        <time>1970-01-01T00:20:21.000Z</time>
      </trkpt>
      <trkpt lat="42.692892" lon="0.808987">
        <ele>1160</ele>
        <time>1970-01-01T00:20:31.000Z</time>
      </trkpt>
      <trkpt lat="42.692816" lon="0.809172">
        <ele>1161.2</ele>
        <time>1970-01-01T00:20:39.000Z</time>
      </trkpt>
      <trkpt lat="42.692775" lon="0.8093">
        <ele>1162.4</ele>
        <time>1970-01-01T00:20:45.000Z</time>
      </trkpt>
      <trkpt lat="42.692731" lon="0.809408">
        <ele>1163.6</ele>
        <time>1970-01-01T00:20:51.000Z</time>
      </trkpt>
      <trkpt lat="42.692687" lon="0.809511">
        <ele>1164.8</ele>
        <time>1970-01-01T00:20:57.000Z</time>
      </trkpt>
      <trkpt lat="42.692652" lon="0.809604">
        <ele>1165.8</ele>
        <time>1970-01-01T00:21:01.000Z</time>
      </trkpt>
      <trkpt lat="42.692641" lon="0.809716">
        <ele>1167</ele>
        <time>1970-01-01T00:21:06.000Z</time>
      </trkpt>
      <trkpt lat="42.692636" lon="0.809838">
        <ele>1168</ele>
        <time>1970-01-01T00:21:11.000Z</time>
      </trkpt>
      <trkpt lat="42.692653" lon="0.809935">
        <ele>1168.8</ele>
        <time>1970-01-01T00:21:15.000Z</time>
      </trkpt>
      <trkpt lat="42.692648" lon="0.809957">
        <ele>1169</ele>
        <time>1970-01-01T00:21:16.000Z</time>
      </trkpt>
      <trkpt lat="42.692627" lon="0.810021">
        <ele>1170</ele>
        <time>1970-01-01T00:21:19.000Z</time>
      </trkpt>
      <trkpt lat="42.692577" lon="0.81011">
        <ele>1171</ele>
        <time>1970-01-01T00:21:24.000Z</time>
      </trkpt>
      <trkpt lat="42.692519" lon="0.810123">
        <ele>1172.2</ele>
        <time>1970-01-01T00:21:28.000Z</time>
      </trkpt>
      <trkpt lat="42.692429" lon="0.810102">
        <ele>1173.2</ele>
        <time>1970-01-01T00:21:34.000Z</time>
      </trkpt>
      <trkpt lat="42.69237" lon="0.810063">
        <ele>1174</ele>
        <time>1970-01-01T00:21:39.000Z</time>
      </trkpt>
      <trkpt lat="42.692365" lon="0.81005">
        <ele>1174.2</ele>
        <time>1970-01-01T00:21:40.000Z</time>
      </trkpt>
      <trkpt lat="42.692339" lon="0.809968">
        <ele>1175.2</ele>
        <time>1970-01-01T00:21:45.000Z</time>
      </trkpt>
      <trkpt lat="42.692322" lon="0.809892">
        <ele>1176.2</ele>
        <time>1970-01-01T00:21:50.000Z</time>
      </trkpt>
      <trkpt lat="42.692302" lon="0.809751">
        <ele>1177.2</ele>
        <time>1970-01-01T00:21:57.000Z</time>
      </trkpt>
      <trkpt lat="42.69229" lon="0.809576">
        <ele>1178.4</ele>
        <time>1970-01-01T00:22:05.000Z</time>
      </trkpt>
      <trkpt lat="42.692282" lon="0.809452">
        <ele>1179.2</ele>
        <time>1970-01-01T00:22:11.000Z</time>
      </trkpt>
      <trkpt lat="42.692277" lon="0.809431">
        <ele>1179.4</ele>
        <time>1970-01-01T00:22:12.000Z</time>
      </trkpt>
      <trkpt lat="42.692247" lon="0.809262">
        <ele>1180.4</ele>
        <time>1970-01-01T00:22:21.000Z</time>
      </trkpt>
      <trkpt lat="42.692156" lon="0.809046">
        <ele>1181.6</ele>
        <time>1970-01-01T00:22:32.000Z</time>
      </trkpt>
      <trkpt lat="42.692133" lon="0.808963">
        <ele>1182.6</ele>
        <time>1970-01-01T00:22:37.000Z</time>
      </trkpt>
      <trkpt lat="42.692118" lon="0.808922">
        <ele>1182.6</ele>
        <time>1970-01-01T00:22:39.000Z</time>
      </trkpt>
      <trkpt lat="42.692095" lon="0.808806">
        <ele>1183.8</ele>
        <time>1970-01-01T00:22:46.000Z</time>
      </trkpt>
      <trkpt lat="42.692055" lon="0.808635">
        <ele>1185</ele>
        <time>1970-01-01T00:22:54.000Z</time>
      </trkpt>
      <trkpt lat="42.692008" lon="0.808456">
        <ele>1186</ele>
        <time>1970-01-01T00:23:02.000Z</time>
      </trkpt>
      <trkpt lat="42.691978" lon="0.8083">
        <ele>1187</ele>
        <time>1970-01-01T00:23:09.000Z</time>
      </trkpt>
      <trkpt lat="42.691943" lon="0.808207">
        <ele>1188</ele>
        <time>1970-01-01T00:23:14.000Z</time>
      </trkpt>
      <trkpt lat="42.691903" lon="0.808048">
        <ele>1189.2</ele>
        <time>1970-01-01T00:23:22.000Z</time>
      </trkpt>
      <trkpt lat="42.691881" lon="0.807914">
        <ele>1190.2</ele>
        <time>1970-01-01T00:23:28.000Z</time>
      </trkpt>
      <trkpt lat="42.691862" lon="0.807765">
        <ele>1191.4</ele>
        <time>1970-01-01T00:23:35.000Z</time>
      </trkpt>
      <trkpt lat="42.691845" lon="0.80763">
        <ele>1192.6</ele>
        <time>1970-01-01T00:23:41.000Z</time>
      </trkpt>
      <trkpt lat="42.691813" lon="0.807484">
        <ele>1193.6</ele>
        <time>1970-01-01T00:23:48.000Z</time>
      </trkpt>
      <trkpt lat="42.691788" lon="0.807323">
        <ele>1194.8</ele>
        <time>1970-01-01T00:23:56.000Z</time>
      </trkpt>
      <trkpt lat="42.69177" lon="0.807204">
        <ele>1195.8</ele>
        <time>1970-01-01T00:24:02.000Z</time>
      </trkpt>
      <trkpt lat="42.691752" lon="0.807053">
        <ele>1196.8</ele>
        <time>1970-01-01T00:24:10.000Z</time>
      </trkpt>
      <trkpt lat="42.691748" lon="0.806963">
        <ele>1197.8</ele>
        <time>1970-01-01T00:24:15.000Z</time>
      </trkpt>
      <trkpt lat="42.691736" lon="0.806849">
        <ele>1199</ele>
        <time>1970-01-01T00:24:22.000Z</time>
      </trkpt>
      <trkpt lat="42.691707" lon="0.806695">
        <ele>1200.2</ele>
        <time>1970-01-01T00:24:29.000Z</time>
      </trkpt>
      <trkpt lat="42.691692" lon="0.806574">
        <ele>1201.2</ele>
        <time>1970-01-01T00:24:35.000Z</time>
      </trkpt>
      <trkpt lat="42.691685" lon="0.806457">
        <ele>1202.4</ele>
        <time>1970-01-01T00:24:41.000Z</time>
      </trkpt>
      <trkpt lat="42.69167" lon="0.806362">
        <ele>1203.4</ele>
        <time>1970-01-01T00:24:46.000Z</time>
      </trkpt>
      <trkpt lat="42.691646" lon="0.806245">
        <ele>1204.4</ele>
        <time>1970-01-01T00:24:52.000Z</time>
      </trkpt>
      <trkpt lat="42.691605" lon="0.806032">
        <ele>1205.4</ele>
        <time>1970-01-01T00:25:02.000Z</time>
      </trkpt>
      <trkpt lat="42.691573" lon="0.805896">
        <ele>1206.6</ele>
        <time>1970-01-01T00:25:09.000Z</time>
      </trkpt>
      <trkpt lat="42.691558" lon="0.805753">
        <ele>1207.6</ele>
        <time>1970-01-01T00:25:16.000Z</time>
      </trkpt>
      <trkpt lat="42.691511" lon="0.805608">
        <ele>1208.6</ele>
        <time>1970-01-01T00:25:22.000Z</time>
      </trkpt>
      <trkpt lat="42.691471" lon="0.805441">
        <ele>1209.8</ele>
        <time>1970-01-01T00:25:30.000Z</time>
      </trkpt>
      <trkpt lat="42.691462" lon="0.805409">
        <ele>1210.4</ele>
        <time>1970-01-01T00:25:32.000Z</time>
      </trkpt>
      <trkpt lat="42.691443" lon="0.805339">
        <ele>1211</ele>
        <time>1970-01-01T00:25:36.000Z</time>
      </trkpt>
      <trkpt lat="42.691437" lon="0.80528">
        <ele>1211.4</ele>
        <time>1970-01-01T00:25:39.000Z</time>
      </trkpt>
      <trkpt lat="42.691424" lon="0.805221">
        <ele>1212</ele>
        <time>1970-01-01T00:25:42.000Z</time>
      </trkpt>
      <trkpt lat="42.691405" lon="0.805146">
        <ele>1212.4</ele>
        <time>1970-01-01T00:25:46.000Z</time>
      </trkpt>
      <trkpt lat="42.6914" lon="0.805105">
        <ele>1213</ele>
        <time>1970-01-01T00:25:48.000Z</time>
      </trkpt>
      <trkpt lat="42.691394" lon="0.805047">
        <ele>1213.4</ele>
        <time>1970-01-01T00:25:51.000Z</time>
      </trkpt>
      <trkpt lat="42.691389" lon="0.805009">
        <ele>1214</ele>
        <time>1970-01-01T00:25:53.000Z</time>
      </trkpt>
      <trkpt lat="42.691381" lon="0.804884">
        <ele>1215</ele>
        <time>1970-01-01T00:25:59.000Z</time>
      </trkpt>
      <trkpt lat="42.691381" lon="0.804741">
        <ele>1215.8</ele>
        <time>1970-01-01T00:26:05.000Z</time>
      </trkpt>
      <trkpt lat="42.691382" lon="0.804601">
        <ele>1217</ele>
        <time>1970-01-01T00:26:11.000Z</time>
      </trkpt>
      <trkpt lat="42.69138" lon="0.804579">
        <ele>1217</ele>
        <time>1970-01-01T00:26:12.000Z</time>
      </trkpt>
      <trkpt lat="42.691352" lon="0.804444">
        <ele>1218</ele>
        <time>1970-01-01T00:26:18.000Z</time>
      </trkpt>
      <trkpt lat="42.691349" lon="0.804422">
        <ele>1218</ele>
        <time>1970-01-01T00:26:19.000Z</time>
      </trkpt>
      <trkpt lat="42.691294" lon="0.80423">
        <ele>1219</ele>
        <time>1970-01-01T00:26:28.000Z</time>
      </trkpt>
      <trkpt lat="42.691288" lon="0.804006">
        <ele>1220.2</ele>
        <time>1970-01-01T00:26:37.000Z</time>
      </trkpt>
      <trkpt lat="42.69131" lon="0.803837">
        <ele>1221.4</ele>
        <time>1970-01-01T00:26:44.000Z</time>
      </trkpt>
      <trkpt lat="42.691315" lon="0.803729">
        <ele>1222.4</ele>
        <time>1970-01-01T00:26:49.000Z</time>
      </trkpt>
      <trkpt lat="42.691324" lon="0.803619">
        <ele>1223.4</ele>
        <time>1970-01-01T00:26:55.000Z</time>
      </trkpt>
      <trkpt lat="42.691325" lon="0.803602">
        <ele>1223.6</ele>
        <time>1970-01-01T00:26:56.000Z</time>
      </trkpt>
      <trkpt lat="42.691325" lon="0.803557">
        <ele>1223.8</ele>
        <time>1970-01-01T00:26:58.000Z</time>
      </trkpt>
      <trkpt lat="42.691341" lon="0.803469">
        <ele>1224.6</ele>
        <time>1970-01-01T00:27:02.000Z</time>
      </trkpt>
      <trkpt lat="42.69137" lon="0.803353">
        <ele>1225.6</ele>
        <time>1970-01-01T00:27:07.000Z</time>
      </trkpt>
      <trkpt lat="42.691401" lon="0.803251">
        <ele>1226.6</ele>
        <time>1970-01-01T00:27:12.000Z</time>
      </trkpt>
      <trkpt lat="42.691446" lon="0.803158">
        <ele>1227.6</ele>
        <time>1970-01-01T00:27:17.000Z</time>
      </trkpt>
      <trkpt lat="42.691493" lon="0.803045">
        <ele>1228.6</ele>
        <time>1970-01-01T00:27:23.000Z</time>
      </trkpt>
      <trkpt lat="42.69151" lon="0.802956">
        <ele>1229.6</ele>
        <time>1970-01-01T00:27:27.000Z</time>
      </trkpt>
      <trkpt lat="42.691504" lon="0.802836">
        <ele>1230.8</ele>
        <time>1970-01-01T00:27:33.000Z</time>
      </trkpt>
      <trkpt lat="42.691445" lon="0.80271">
        <ele>1231.6</ele>
        <time>1970-01-01T00:27:40.000Z</time>
      </trkpt>
      <trkpt lat="42.691382" lon="0.802625">
        <ele>1232.6</ele>
        <time>1970-01-01T00:27:46.000Z</time>
      </trkpt>
      <trkpt lat="42.691369" lon="0.802612">
        <ele>1232.8</ele>
        <time>1970-01-01T00:27:47.000Z</time>
      </trkpt>
      <trkpt lat="42.69131" lon="0.802483">
        <ele>1233.8</ele>
        <time>1970-01-01T00:27:54.000Z</time>
      </trkpt>
      <trkpt lat="42.69131" lon="0.80246">
        <ele>1234</ele>
        <time>1970-01-01T00:27:55.000Z</time>
      </trkpt>
      <trkpt lat="42.691303" lon="0.802352">
        <ele>1235</ele>
        <time>1970-01-01T00:28:00.000Z</time>
      </trkpt>
      <trkpt lat="42.691318" lon="0.802293">
        <ele>1235.6</ele>
        <time>1970-01-01T00:28:03.000Z</time>
      </trkpt>
      <trkpt lat="42.691342" lon="0.802229">
        <ele>1236.2</ele>
        <time>1970-01-01T00:28:06.000Z</time>
      </trkpt>
      <trkpt lat="42.691382" lon="0.802152">
        <ele>1237.2</ele>
        <time>1970-01-01T00:28:10.000Z</time>
      </trkpt>
      <trkpt lat="42.691404" lon="0.802049">
        <ele>1238.2</ele>
        <time>1970-01-01T00:28:15.000Z</time>
      </trkpt>
      <trkpt lat="42.691395" lon="0.801866">
        <ele>1239.2</ele>
        <time>1970-01-01T00:28:23.000Z</time>
      </trkpt>
      <trkpt lat="42.691389" lon="0.801588">
        <ele>1240.4</ele>
        <time>1970-01-01T00:28:34.000Z</time>
      </trkpt>
      <trkpt lat="42.691439" lon="0.801349">
        <ele>1241.4</ele>
        <time>1970-01-01T00:28:44.000Z</time>
      </trkpt>
      <trkpt lat="42.691467" lon="0.80112">
        <ele>1242.4</ele>
        <time>1970-01-01T00:28:53.000Z</time>
      </trkpt>
      <trkpt lat="42.691583" lon="0.800943">
        <ele>1243.4</ele>
        <time>1970-01-01T00:29:04.000Z</time>
      </trkpt>
      <trkpt lat="42.691686" lon="0.800778">
        <ele>1244.4</ele>
        <time>1970-01-01T00:29:13.000Z</time>
      </trkpt>
      <trkpt lat="42.691754" lon="0.800563">
        <ele>1245.6</ele>
        <time>1970-01-01T00:29:24.000Z</time>
      </trkpt>
      <trkpt lat="42.691838" lon="0.800431">
        <ele>1246.4</ele>
        <time>1970-01-01T00:29:33.000Z</time>
      </trkpt>
      <trkpt lat="42.691878" lon="0.800378">
        <ele>1247</ele>
        <time>1970-01-01T00:29:40.000Z</time>
      </trkpt>
      <trkpt lat="42.691886" lon="0.800314">
        <ele>1226.4</ele>
        <time>1970-01-01T00:30:34.000Z</time>
      </trkpt>
      <trkpt lat="42.691964" lon="0.800206">
        <ele>1249</ele>
        <time>1970-01-01T00:30:39.000Z</time>
      </trkpt>
      <trkpt lat="42.692025" lon="0.800125">
        <ele>1250</ele>
        <time>1970-01-01T00:30:43.000Z</time>
      </trkpt>
      <trkpt lat="42.692093" lon="0.799878">
        <ele>1251.2</ele>
        <time>1970-01-01T00:30:51.000Z</time>
      </trkpt>
      <trkpt lat="42.692143" lon="0.799736">
        <ele>1252</ele>
        <time>1970-01-01T00:30:56.000Z</time>
      </trkpt>
      <trkpt lat="42.692227" lon="0.799489">
        <ele>1253.2</ele>
        <time>1970-01-01T00:31:04.000Z</time>
      </trkpt>
      <trkpt lat="42.692311" lon="0.799316">
        <ele>1254.4</ele>
        <time>1970-01-01T00:31:10.000Z</time>
      </trkpt>
      <trkpt lat="42.692387" lon="0.79916">
        <ele>1255.4</ele>
        <time>1970-01-01T00:31:16.000Z</time>
      </trkpt>
      <trkpt lat="42.692477" lon="0.798978">
        <ele>1256.6</ele>
        <time>1970-01-01T00:31:24.000Z</time>
      </trkpt>
      <trkpt lat="42.692545" lon="0.798803">
        <ele>1257.6</ele>
        <time>1970-01-01T00:31:31.000Z</time>
      </trkpt>
      <trkpt lat="42.692609" lon="0.798658">
        <ele>1258.6</ele>
        <time>1970-01-01T00:31:37.000Z</time>
      </trkpt>
      <trkpt lat="42.692689" lon="0.798451">
        <ele>1259.6</ele>
        <time>1970-01-01T00:31:45.000Z</time>
      </trkpt>
      <trkpt lat="42.692729" lon="0.798347">
        <ele>1260.6</ele>
        <time>1970-01-01T00:31:49.000Z</time>
      </trkpt>
      <trkpt lat="42.692819" lon="0.798188">
        <ele>1261.8</ele>
        <time>1970-01-01T00:31:57.000Z</time>
      </trkpt>
      <trkpt lat="42.692873" lon="0.79806">
        <ele>1262.8</ele>
        <time>1970-01-01T00:32:03.000Z</time>
      </trkpt>
      <trkpt lat="42.692956" lon="0.797909">
        <ele>1264</ele>
        <time>1970-01-01T00:32:10.000Z</time>
      </trkpt>
      <trkpt lat="42.692994" lon="0.797812">
        <ele>1265.2</ele>
        <time>1970-01-01T00:32:14.000Z</time>
      </trkpt>
      <trkpt lat="42.693065" lon="0.797672">
        <ele>1266.2</ele>
        <time>1970-01-01T00:32:21.000Z</time>
      </trkpt>
      <trkpt lat="42.693171" lon="0.797506">
        <ele>1267.2</ele>
        <time>1970-01-01T00:32:30.000Z</time>
      </trkpt>
      <trkpt lat="42.693231" lon="0.797387">
        <ele>1268.4</ele>
        <time>1970-01-01T00:32:36.000Z</time>
      </trkpt>
      <trkpt lat="42.693267" lon="0.797275">
        <ele>1269.4</ele>
        <time>1970-01-01T00:32:41.000Z</time>
      </trkpt>
      <trkpt lat="42.693289" lon="0.797225">
        <ele>1269.8</ele>
        <time>1970-01-01T00:32:43.000Z</time>
      </trkpt>
      <trkpt lat="42.693338" lon="0.797141">
        <ele>1270.4</ele>
        <time>1970-01-01T00:32:47.000Z</time>
      </trkpt>
      <trkpt lat="42.693427" lon="0.796987">
        <ele>1271.2</ele>
        <time>1970-01-01T00:32:54.000Z</time>
      </trkpt>
      <trkpt lat="42.693539" lon="0.796775">
        <ele>1272.4</ele>
        <time>1970-01-01T00:33:03.000Z</time>
      </trkpt>
      <trkpt lat="42.693643" lon="0.796551">
        <ele>1273.2</ele>
        <time>1970-01-01T00:33:12.000Z</time>
      </trkpt>
      <trkpt lat="42.693698" lon="0.796394">
        <ele>1274.2</ele>
        <time>1970-01-01T00:33:18.000Z</time>
      </trkpt>
      <trkpt lat="42.693702" lon="0.796345">
        <ele>1274.6</ele>
        <time>1970-01-01T00:33:22.000Z</time>
      </trkpt>
      <trkpt lat="42.693711" lon="0.796245">
        <ele>1275.4</ele>
        <time>1970-01-01T00:33:34.000Z</time>
      </trkpt>
      <trkpt lat="42.693772" lon="0.796015">
        <ele>1276.6</ele>
        <time>1970-01-01T00:33:42.000Z</time>
      </trkpt>
      <trkpt lat="42.693807" lon="0.795837">
        <ele>1277.4</ele>
        <time>1970-01-01T00:33:48.000Z</time>
      </trkpt>
      <trkpt lat="42.693848" lon="0.795666">
        <ele>1278.6</ele>
        <time>1970-01-01T00:33:54.000Z</time>
      </trkpt>
      <trkpt lat="42.693863" lon="0.795461">
        <ele>1280</ele>
        <time>1970-01-01T00:34:01.000Z</time>
      </trkpt>
      <trkpt lat="42.693853" lon="0.795305">
        <ele>1281.2</ele>
        <time>1970-01-01T00:34:07.000Z</time>
      </trkpt>
      <trkpt lat="42.693813" lon="0.795159">
        <ele>1282.2</ele>
        <time>1970-01-01T00:34:13.000Z</time>
      </trkpt>
      <trkpt lat="42.693803" lon="0.795035">
        <ele>1283.2</ele>
        <time>1970-01-01T00:34:18.000Z</time>
      </trkpt>
      <trkpt lat="42.693787" lon="0.794932">
        <ele>1284.4</ele>
        <time>1970-01-01T00:34:22.000Z</time>
      </trkpt>
      <trkpt lat="42.693734" lon="0.794791">
        <ele>1285.4</ele>
        <time>1970-01-01T00:34:28.000Z</time>
      </trkpt>
      <trkpt lat="42.693563" lon="0.794668">
        <ele>1286.6</ele>
        <time>1970-01-01T00:34:37.000Z</time>
      </trkpt>
      <trkpt lat="42.693471" lon="0.794504">
        <ele>1287.4</ele>
        <time>1970-01-01T00:34:45.000Z</time>
      </trkpt>
      <trkpt lat="42.693419" lon="0.794374">
        <ele>1288.4</ele>
        <time>1970-01-01T00:34:50.000Z</time>
      </trkpt>
      <trkpt lat="42.69325" lon="0.794214">
        <ele>1289.6</ele>
        <time>1970-01-01T00:34:59.000Z</time>
      </trkpt>
      <trkpt lat="42.69311" lon="0.794123">
        <ele>1290.6</ele>
        <time>1970-01-01T00:35:06.000Z</time>
      </trkpt>
      <trkpt lat="42.692995" lon="0.794045">
        <ele>1291.6</ele>
        <time>1970-01-01T00:35:12.000Z</time>
      </trkpt>
      <trkpt lat="42.692918" lon="0.794025">
        <ele>1292.6</ele>
        <time>1970-01-01T00:35:16.000Z</time>
      </trkpt>
      <trkpt lat="42.692792" lon="0.79399">
        <ele>1293.6</ele>
        <time>1970-01-01T00:35:22.000Z</time>
      </trkpt>
      <trkpt lat="42.692691" lon="0.793952">
        <ele>1294.8</ele>
        <time>1970-01-01T00:35:27.000Z</time>
      </trkpt>
      <trkpt lat="42.69262" lon="0.793923">
        <ele>1296</ele>
        <time>1970-01-01T00:35:31.000Z</time>
      </trkpt>
      <trkpt lat="42.692524" lon="0.793902">
        <ele>1297.2</ele>
        <time>1970-01-01T00:35:36.000Z</time>
      </trkpt>
      <trkpt lat="42.692448" lon="0.793885">
        <ele>1298.2</ele>
        <time>1970-01-01T00:35:40.000Z</time>
      </trkpt>
      <trkpt lat="42.692366" lon="0.793868">
        <ele>1299.2</ele>
        <time>1970-01-01T00:35:44.000Z</time>
      </trkpt>
      <trkpt lat="42.692271" lon="0.793858">
        <ele>1300.4</ele>
        <time>1970-01-01T00:35:49.000Z</time>
      </trkpt>
      <trkpt lat="42.692168" lon="0.793824">
        <ele>1301.4</ele>
        <time>1970-01-01T00:35:55.000Z</time>
      </trkpt>
      <trkpt lat="42.692079" lon="0.793787">
        <ele>1302.4</ele>
        <time>1970-01-01T00:36:00.000Z</time>
      </trkpt>
      <trkpt lat="42.692063" lon="0.793787">
        <ele>1302.6</ele>
        <time>1970-01-01T00:36:01.000Z</time>
      </trkpt>
      <trkpt lat="42.691963" lon="0.793822">
        <ele>1303.6</ele>
        <time>1970-01-01T00:36:07.000Z</time>
      </trkpt>
      <trkpt lat="42.691919" lon="0.793856">
        <ele>1304</ele>
        <time>1970-01-01T00:36:10.000Z</time>
      </trkpt>
      <trkpt lat="42.691832" lon="0.79382">
        <ele>1304.6</ele>
        <time>1970-01-01T00:36:15.000Z</time>
      </trkpt>
      <trkpt lat="42.691794" lon="0.793816">
        <ele>1305.4</ele>
        <time>1970-01-01T00:36:17.000Z</time>
      </trkpt>
      <trkpt lat="42.691778" lon="0.793817">
        <ele>1305.8</ele>
        <time>1970-01-01T00:36:18.000Z</time>
      </trkpt>
      <trkpt lat="42.691692" lon="0.793847">
        <ele>1306.8</ele>
        <time>1970-01-01T00:36:24.000Z</time>
      </trkpt>
      <trkpt lat="42.691593" lon="0.793868">
        <ele>1308</ele>
        <time>1970-01-01T00:36:31.000Z</time>
      </trkpt>
      <trkpt lat="42.691517" lon="0.793861">
        <ele>1309</ele>
        <time>1970-01-01T00:36:36.000Z</time>
      </trkpt>
      <trkpt lat="42.691446" lon="0.793867">
        <ele>1310</ele>
        <time>1970-01-01T00:36:41.000Z</time>
      </trkpt>
      <trkpt lat="42.691358" lon="0.793885">
        <ele>1311</ele>
        <time>1970-01-01T00:36:47.000Z</time>
      </trkpt>
      <trkpt lat="42.691242" lon="0.793914">
        <ele>1312</ele>
        <time>1970-01-01T00:36:55.000Z</time>
      </trkpt>
      <trkpt lat="42.691133" lon="0.793947">
        <ele>1313.2</ele>
        <time>1970-01-01T00:37:02.000Z</time>
      </trkpt>
      <trkpt lat="42.691048" lon="0.793972">
        <ele>1314.2</ele>
        <time>1970-01-01T00:37:07.000Z</time>
      </trkpt>
      <trkpt lat="42.690926" lon="0.794039">
        <ele>1315</ele>
        <time>1970-01-01T00:37:15.000Z</time>
      </trkpt>
      <trkpt lat="42.690844" lon="0.79404">
        <ele>1316</ele>
        <time>1970-01-01T00:37:20.000Z</time>
      </trkpt>
      <trkpt lat="42.69073" lon="0.794037">
        <ele>1317.2</ele>
        <time>1970-01-01T00:37:26.000Z</time>
      </trkpt>
      <trkpt lat="42.690606" lon="0.79406">
        <ele>1318</ele>
        <time>1970-01-01T00:37:33.000Z</time>
      </trkpt>
      <trkpt lat="42.69048" lon="0.794089">
        <ele>1319</ele>
        <time>1970-01-01T00:37:40.000Z</time>
      </trkpt>
      <trkpt lat="42.690399" lon="0.794113">
        <ele>1320</ele>
        <time>1970-01-01T00:37:45.000Z</time>
      </trkpt>
      <trkpt lat="42.690384" lon="0.79411">
        <ele>1320.2</ele>
        <time>1970-01-01T00:37:46.000Z</time>
      </trkpt>
      <trkpt lat="42.690287" lon="0.794116">
        <ele>1321</ele>
        <time>1970-01-01T00:37:52.000Z</time>
      </trkpt>
      <trkpt lat="42.690165" lon="0.794153">
        <ele>1322</ele>
        <time>1970-01-01T00:37:59.000Z</time>
      </trkpt>
      <trkpt lat="42.690035" lon="0.794164">
        <ele>1323.2</ele>
        <time>1970-01-01T00:38:06.000Z</time>
      </trkpt>
      <trkpt lat="42.689908" lon="0.794149">
        <ele>1324.2</ele>
        <time>1970-01-01T00:38:13.000Z</time>
      </trkpt>
      <trkpt lat="42.689751" lon="0.794098">
        <ele>1325.2</ele>
        <time>1970-01-01T00:38:21.000Z</time>
      </trkpt>
      <trkpt lat="42.689662" lon="0.794039">
        <ele>1326</ele>
        <time>1970-01-01T00:38:27.000Z</time>
      </trkpt>
      <trkpt lat="42.68955" lon="0.793935">
        <ele>1327</ele>
        <time>1970-01-01T00:38:35.000Z</time>
      </trkpt>
      <trkpt lat="42.689426" lon="0.793878">
        <ele>1328.2</ele>
        <time>1970-01-01T00:38:43.000Z</time>
      </trkpt>
      <trkpt lat="42.68934" lon="0.793832">
        <ele>1329</ele>
        <time>1970-01-01T00:38:49.000Z</time>
      </trkpt>
      <trkpt lat="42.689239" lon="0.793782">
        <ele>1330.2</ele>
        <time>1970-01-01T00:38:55.000Z</time>
      </trkpt>
      <trkpt lat="42.68909" lon="0.793711">
        <ele>1331</ele>
        <time>1970-01-01T00:39:03.000Z</time>
      </trkpt>
      <trkpt lat="42.688925" lon="0.7937">
        <ele>1332</ele>
        <time>1970-01-01T00:39:12.000Z</time>
      </trkpt>
      <trkpt lat="42.688796" lon="0.793699">
        <ele>1333.2</ele>
        <time>1970-01-01T00:39:19.000Z</time>
      </trkpt>
      <trkpt lat="42.688675" lon="0.793717">
        <ele>1334.2</ele>
        <time>1970-01-01T00:39:26.000Z</time>
      </trkpt>
      <trkpt lat="42.688569" lon="0.793747">
        <ele>1335.4</ele>
        <time>1970-01-01T00:39:33.000Z</time>
      </trkpt>
      <trkpt lat="42.688474" lon="0.793781">
        <ele>1336.4</ele>
        <time>1970-01-01T00:39:40.000Z</time>
      </trkpt>
      <trkpt lat="42.688407" lon="0.793805">
        <ele>1337.4</ele>
        <time>1970-01-01T00:39:46.000Z</time>
      </trkpt>
      <trkpt lat="42.688396" lon="0.793807">
        <ele>1337.6</ele>
        <time>1970-01-01T00:39:47.000Z</time>
      </trkpt>
      <trkpt lat="42.688321" lon="0.793837">
        <ele>1338.2</ele>
        <time>1970-01-01T00:39:52.000Z</time>
      </trkpt>
      <trkpt lat="42.68829" lon="0.793852">
        <ele>1338.6</ele>
        <time>1970-01-01T00:39:54.000Z</time>
      </trkpt>
      <trkpt lat="42.688182" lon="0.793893">
        <ele>1339.8</ele>
        <time>1970-01-01T00:40:00.000Z</time>
      </trkpt>
      <trkpt lat="42.688024" lon="0.794076">
        <ele>1340.8</ele>
        <time>1970-01-01T00:40:09.000Z</time>
      </trkpt>
      <trkpt lat="42.687951" lon="0.794206">
        <ele>1341.8</ele>
        <time>1970-01-01T00:40:15.000Z</time>
      </trkpt>
      <trkpt lat="42.687894" lon="0.794319">
        <ele>1343</ele>
        <time>1970-01-01T00:40:21.000Z</time>
      </trkpt>
      <trkpt lat="42.687847" lon="0.794521">
        <ele>1343.8</ele>
        <time>1970-01-01T00:40:30.000Z</time>
      </trkpt>
      <trkpt lat="42.687782" lon="0.794744">
        <ele>1344.8</ele>
        <time>1970-01-01T00:40:40.000Z</time>
      </trkpt>
      <trkpt lat="42.687725" lon="0.794904">
        <ele>1346</ele>
        <time>1970-01-01T00:40:47.000Z</time>
      </trkpt>
      <trkpt lat="42.687626" lon="0.795115">
        <ele>1347</ele>
        <time>1970-01-01T00:40:56.000Z</time>
      </trkpt>
      <trkpt lat="42.687542" lon="0.795273">
        <ele>1348.2</ele>
        <time>1970-01-01T00:41:04.000Z</time>
      </trkpt>
      <trkpt lat="42.687471" lon="0.795396">
        <ele>1349.2</ele>
        <time>1970-01-01T00:41:11.000Z</time>
      </trkpt>
      <trkpt lat="42.687395" lon="0.795511">
        <ele>1350.4</ele>
        <time>1970-01-01T00:41:18.000Z</time>
      </trkpt>
      <trkpt lat="42.687279" lon="0.795585">
        <ele>1351.4</ele>
        <time>1970-01-01T00:41:26.000Z</time>
      </trkpt>
      <trkpt lat="42.687161" lon="0.795634">
        <ele>1352.2</ele>
        <time>1970-01-01T00:41:34.000Z</time>
      </trkpt>
      <trkpt lat="42.687063" lon="0.79568">
        <ele>1353.2</ele>
        <time>1970-01-01T00:41:40.000Z</time>
      </trkpt>
      <trkpt lat="42.6869" lon="0.795813">
        <ele>1354.2</ele>
        <time>1970-01-01T00:41:50.000Z</time>
      </trkpt>
      <trkpt lat="42.686803" lon="0.795893">
        <ele>1354.8</ele>
        <time>1970-01-01T00:41:56.000Z</time>
      </trkpt>
      <trkpt lat="42.686746" lon="0.795882">
        <ele>1355</ele>
        <time>1970-01-01T00:41:59.000Z</time>
      </trkpt>
      <trkpt lat="42.686688" lon="0.79588">
        <ele>1355.4</ele>
        <time>1970-01-01T00:42:02.000Z</time>
      </trkpt>
      <trkpt lat="42.686624" lon="0.795846">
        <ele>1356</ele>
        <time>1970-01-01T00:42:06.000Z</time>
      </trkpt>
      <trkpt lat="42.686513" lon="0.795775">
        <ele>1356.8</ele>
        <time>1970-01-01T00:42:13.000Z</time>
      </trkpt>
      <trkpt lat="42.686386" lon="0.795678">
        <ele>1357.8</ele>
        <time>1970-01-01T00:42:20.000Z</time>
      </trkpt>
      <trkpt lat="42.686243" lon="0.795728">
        <ele>1358.8</ele>
        <time>1970-01-01T00:42:27.000Z</time>
      </trkpt>
      <trkpt lat="42.686169" lon="0.795916">
        <ele>1359.8</ele>
        <time>1970-01-01T00:42:35.000Z</time>
      </trkpt>
      <trkpt lat="42.686074" lon="0.796017">
        <ele>1360.8</ele>
        <time>1970-01-01T00:42:42.000Z</time>
      </trkpt>
      <trkpt lat="42.686007" lon="0.7961">
        <ele>1361.8</ele>
        <time>1970-01-01T00:42:48.000Z</time>
      </trkpt>
      <trkpt lat="42.685923" lon="0.79625">
        <ele>1363</ele>
        <time>1970-01-01T00:42:59.000Z</time>
      </trkpt>
      <trkpt lat="42.68586" lon="0.796349">
        <ele>1364</ele>
        <time>1970-01-01T00:43:05.000Z</time>
      </trkpt>
      <trkpt lat="42.685796" lon="0.796412">
        <ele>1365</ele>
        <time>1970-01-01T00:43:10.000Z</time>
      </trkpt>
      <trkpt lat="42.685693" lon="0.796499">
        <ele>1366</ele>
        <time>1970-01-01T00:43:17.000Z</time>
      </trkpt>
      <trkpt lat="42.685606" lon="0.796563">
        <ele>1367.2</ele>
        <time>1970-01-01T00:43:22.000Z</time>
      </trkpt>
      <trkpt lat="42.685535" lon="0.796648">
        <ele>1368.4</ele>
        <time>1970-01-01T00:43:27.000Z</time>
      </trkpt>
      <trkpt lat="42.685388" lon="0.796799">
        <ele>1369.4</ele>
        <time>1970-01-01T00:43:37.000Z</time>
      </trkpt>
      <trkpt lat="42.685151" lon="0.796942">
        <ele>1370.2</ele>
        <time>1970-01-01T00:43:48.000Z</time>
      </trkpt>
      <trkpt lat="42.684971" lon="0.797039">
        <ele>1371.2</ele>
        <time>1970-01-01T00:43:58.000Z</time>
      </trkpt>
      <trkpt lat="42.684928" lon="0.797041">
        <ele>1371.4</ele>
        <time>1970-01-01T00:44:01.000Z</time>
      </trkpt>
      <trkpt lat="42.684895" lon="0.796882">
        <ele>1372.2</ele>
        <time>1970-01-01T00:44:09.000Z</time>
      </trkpt>
      <trkpt lat="42.684917" lon="0.796714">
        <ele>1373.2</ele>
        <time>1970-01-01T00:44:16.000Z</time>
      </trkpt>
      <trkpt lat="42.684947" lon="0.796588">
        <ele>1374.4</ele>
        <time>1970-01-01T00:44:21.000Z</time>
      </trkpt>
      <trkpt lat="42.684951" lon="0.79656">
        <ele>1374.6</ele>
        <time>1970-01-01T00:44:22.000Z</time>
      </trkpt>
      <trkpt lat="42.684964" lon="0.796483">
        <ele>1375.4</ele>
        <time>1970-01-01T00:44:25.000Z</time>
      </trkpt>
      <trkpt lat="42.684964" lon="0.796356">
        <ele>1376.4</ele>
        <time>1970-01-01T00:44:30.000Z</time>
      </trkpt>
      <trkpt lat="42.684948" lon="0.796202">
        <ele>1377.6</ele>
        <time>1970-01-01T00:44:37.000Z</time>
      </trkpt>
      <trkpt lat="42.684955" lon="0.79596">
        <ele>1378.4</ele>
        <time>1970-01-01T00:44:45.000Z</time>
      </trkpt>
      <trkpt lat="42.68495" lon="0.79574">
        <ele>1379.6</ele>
        <time>1970-01-01T00:44:52.000Z</time>
      </trkpt>
      <trkpt lat="42.684888" lon="0.795593">
        <ele>1380.8</ele>
        <time>1970-01-01T00:44:58.000Z</time>
      </trkpt>
      <trkpt lat="42.68482" lon="0.795499">
        <ele>1381.8</ele>
        <time>1970-01-01T00:45:04.000Z</time>
      </trkpt>
      <trkpt lat="42.684736" lon="0.795378">
        <ele>1383</ele>
        <time>1970-01-01T00:45:11.000Z</time>
      </trkpt>
      <trkpt lat="42.684658" lon="0.795312">
        <ele>1384</ele>
        <time>1970-01-01T00:45:17.000Z</time>
      </trkpt>
      <trkpt lat="42.684579" lon="0.795188">
        <ele>1385</ele>
        <time>1970-01-01T00:45:24.000Z</time>
      </trkpt>
      <trkpt lat="42.684538" lon="0.79509">
        <ele>1386.2</ele>
        <time>1970-01-01T00:45:30.000Z</time>
      </trkpt>
      <trkpt lat="42.684513" lon="0.795009">
        <ele>1387.4</ele>
        <time>1970-01-01T00:45:35.000Z</time>
      </trkpt>
      <trkpt lat="42.684446" lon="0.794927">
        <ele>1388.6</ele>
        <time>1970-01-01T00:45:41.000Z</time>
      </trkpt>
      <trkpt lat="42.684353" lon="0.794845">
        <ele>1389.6</ele>
        <time>1970-01-01T00:45:48.000Z</time>
      </trkpt>
      <trkpt lat="42.684293" lon="0.794789">
        <ele>1390.8</ele>
        <time>1970-01-01T00:45:53.000Z</time>
      </trkpt>
      <trkpt lat="42.684242" lon="0.79473">
        <ele>1391.8</ele>
        <time>1970-01-01T00:45:58.000Z</time>
      </trkpt>
      <trkpt lat="42.684204" lon="0.794701">
        <ele>1392.4</ele>
        <time>1970-01-01T00:46:01.000Z</time>
      </trkpt>
      <trkpt lat="42.68415" lon="0.794715">
        <ele>1393</ele>
        <time>1970-01-01T00:46:05.000Z</time>
      </trkpt>
      <trkpt lat="42.684132" lon="0.79474">
        <ele>1393.4</ele>
        <time>1970-01-01T00:46:07.000Z</time>
      </trkpt>
      <trkpt lat="42.684127" lon="0.794806">
        <ele>1394.2</ele>
        <time>1970-01-01T00:46:11.000Z</time>
      </trkpt>
      <trkpt lat="42.684136" lon="0.794844">
        <ele>1394.4</ele>
        <time>1970-01-01T00:46:13.000Z</time>
      </trkpt>
      <trkpt lat="42.684195" lon="0.794931">
        <ele>1395</ele>
        <time>1970-01-01T00:46:19.000Z</time>
      </trkpt>
      <trkpt lat="42.684297" lon="0.795031">
        <ele>1396.2</ele>
        <time>1970-01-01T00:46:28.000Z</time>
      </trkpt>
      <trkpt lat="42.684344" lon="0.795165">
        <ele>1397.2</ele>
        <time>1970-01-01T00:46:35.000Z</time>
      </trkpt>
      <trkpt lat="42.684357" lon="0.795271">
        <ele>1398</ele>
        <time>1970-01-01T00:46:41.000Z</time>
      </trkpt>
      <trkpt lat="42.684357" lon="0.795288">
        <ele>1398.4</ele>
        <time>1970-01-01T00:46:42.000Z</time>
      </trkpt>
      <trkpt lat="42.684377" lon="0.795411">
        <ele>1399.4</ele>
        <time>1970-01-01T00:46:48.000Z</time>
      </trkpt>
      <trkpt lat="42.684383" lon="0.795432">
        <ele>1399.6</ele>
        <time>1970-01-01T00:46:49.000Z</time>
      </trkpt>
      <trkpt lat="42.684422" lon="0.795528">
        <ele>1400.2</ele>
        <time>1970-01-01T00:46:54.000Z</time>
      </trkpt>
      <trkpt lat="42.684437" lon="0.795567">
        <ele>1400.6</ele>
        <time>1970-01-01T00:46:56.000Z</time>
      </trkpt>
      <trkpt lat="42.684499" lon="0.795683">
        <ele>1401.4</ele>
        <time>1970-01-01T00:47:02.000Z</time>
      </trkpt>
      <trkpt lat="42.68455" lon="0.795779">
        <ele>1402.6</ele>
        <time>1970-01-01T00:47:08.000Z</time>
      </trkpt>
      <trkpt lat="42.684581" lon="0.795901">
        <ele>1403.6</ele>
        <time>1970-01-01T00:47:14.000Z</time>
      </trkpt>
      <trkpt lat="42.684569" lon="0.795982">
        <ele>1404.6</ele>
        <time>1970-01-01T00:47:18.000Z</time>
      </trkpt>
      <trkpt lat="42.684506" lon="0.79612">
        <ele>1405.4</ele>
        <time>1970-01-01T00:47:25.000Z</time>
      </trkpt>
      <trkpt lat="42.684436" lon="0.796254">
        <ele>1406.6</ele>
        <time>1970-01-01T00:47:32.000Z</time>
      </trkpt>
      <trkpt lat="42.684394" lon="0.79636">
        <ele>1407.4</ele>
        <time>1970-01-01T00:47:37.000Z</time>
      </trkpt>
      <trkpt lat="42.684351" lon="0.796521">
        <ele>1408.6</ele>
        <time>1970-01-01T00:47:44.000Z</time>
      </trkpt>
      <trkpt lat="42.68435" lon="0.796541">
        <ele>1408.8</ele>
        <time>1970-01-01T00:47:45.000Z</time>
      </trkpt>
      <trkpt lat="42.684355" lon="0.796657">
        <ele>1409.8</ele>
        <time>1970-01-01T00:47:51.000Z</time>
      </trkpt>
      <trkpt lat="42.684346" lon="0.796787">
        <ele>1410.8</ele>
        <time>1970-01-01T00:47:57.000Z</time>
      </trkpt>
      <trkpt lat="42.684326" lon="0.796907">
        <ele>1411.8</ele>
        <time>1970-01-01T00:48:03.000Z</time>
      </trkpt>
      <trkpt lat="42.684259" lon="0.797066">
        <ele>1412.8</ele>
        <time>1970-01-01T00:48:11.000Z</time>
      </trkpt>
      <trkpt lat="42.684207" lon="0.797207">
        <ele>1414</ele>
        <time>1970-01-01T00:48:18.000Z</time>
      </trkpt>
      <trkpt lat="42.684166" lon="0.797313">
        <ele>1415</ele>
        <time>1970-01-01T00:48:24.000Z</time>
      </trkpt>
      <trkpt lat="42.684122" lon="0.79743">
        <ele>1416</ele>
        <time>1970-01-01T00:48:30.000Z</time>
      </trkpt>
      <trkpt lat="42.684059" lon="0.797579">
        <ele>1417.2</ele>
        <time>1970-01-01T00:48:38.000Z</time>
      </trkpt>
      <trkpt lat="42.684017" lon="0.797724">
        <ele>1418.2</ele>
        <time>1970-01-01T00:48:45.000Z</time>
      </trkpt>
      <trkpt lat="42.683974" lon="0.797875">
        <ele>1419.2</ele>
        <time>1970-01-01T00:48:53.000Z</time>
      </trkpt>
      <trkpt lat="42.68396" lon="0.79788">
        <ele>1419.4</ele>
        <time>1970-01-01T00:48:54.000Z</time>
      </trkpt>
      <trkpt lat="42.683893" lon="0.797801">
        <ele>1420.2</ele>
        <time>1970-01-01T00:49:01.000Z</time>
      </trkpt>
      <trkpt lat="42.683889" lon="0.797782">
        <ele>1420.4</ele>
        <time>1970-01-01T00:49:02.000Z</time>
      </trkpt>
      <trkpt lat="42.68389" lon="0.797764">
        <ele>1420.6</ele>
        <time>1970-01-01T00:49:03.000Z</time>
      </trkpt>
      <trkpt lat="42.683918" lon="0.797691">
        <ele>1421.2</ele>
        <time>1970-01-01T00:49:07.000Z</time>
      </trkpt>
      <trkpt lat="42.683954" lon="0.797557">
        <ele>1422.2</ele>
        <time>1970-01-01T00:49:13.000Z</time>
      </trkpt>
      <trkpt lat="42.68399" lon="0.797416">
        <ele>1423.4</ele>
        <time>1970-01-01T00:49:20.000Z</time>
      </trkpt>
      <trkpt lat="42.684011" lon="0.797313">
        <ele>1424.4</ele>
        <time>1970-01-01T00:49:25.000Z</time>
      </trkpt>
      <trkpt lat="42.684021" lon="0.797229">
        <ele>1424.8</ele>
        <time>1970-01-01T00:49:29.000Z</time>
      </trkpt>
      <trkpt lat="42.684028" lon="0.797189">
        <ele>1425.4</ele>
        <time>1970-01-01T00:49:31.000Z</time>
      </trkpt>
      <trkpt lat="42.684036" lon="0.797031">
        <ele>1426.4</ele>
        <time>1970-01-01T00:49:38.000Z</time>
      </trkpt>
      <trkpt lat="42.684065" lon="0.796861">
        <ele>1427.4</ele>
        <time>1970-01-01T00:49:47.000Z</time>
      </trkpt>
      <trkpt lat="42.684081" lon="0.796692">
        <ele>1428.4</ele>
        <time>1970-01-01T00:49:55.000Z</time>
      </trkpt>
      <trkpt lat="42.684061" lon="0.796527">
        <ele>1429.6</ele>
        <time>1970-01-01T00:50:03.000Z</time>
      </trkpt>
      <trkpt lat="42.684014" lon="0.796407">
        <ele>1430.8</ele>
        <time>1970-01-01T00:50:09.000Z</time>
      </trkpt>
      <trkpt lat="42.683933" lon="0.796308">
        <ele>1431.6</ele>
        <time>1970-01-01T00:50:16.000Z</time>
      </trkpt>
      <trkpt lat="42.683855" lon="0.796253">
        <ele>1432.6</ele>
        <time>1970-01-01T00:50:22.000Z</time>
      </trkpt>
      <trkpt lat="42.683776" lon="0.796208">
        <ele>1433.4</ele>
        <time>1970-01-01T00:50:28.000Z</time>
      </trkpt>
      <trkpt lat="42.683685" lon="0.796135">
        <ele>1434.6</ele>
        <time>1970-01-01T00:50:35.000Z</time>
      </trkpt>
      <trkpt lat="42.683612" lon="0.796071">
        <ele>1435.6</ele>
        <time>1970-01-01T00:50:41.000Z</time>
      </trkpt>
      <trkpt lat="42.683506" lon="0.795978">
        <ele>1436.4</ele>
        <time>1970-01-01T00:50:49.000Z</time>
      </trkpt>
      <trkpt lat="42.683413" lon="0.795905">
        <ele>1437.4</ele>
        <time>1970-01-01T00:50:56.000Z</time>
      </trkpt>
      <trkpt lat="42.683351" lon="0.795826">
        <ele>1438.4</ele>
        <time>1970-01-01T00:51:02.000Z</time>
      </trkpt>
      <trkpt lat="42.683276" lon="0.795747">
        <ele>1439.4</ele>
        <time>1970-01-01T00:51:09.000Z</time>
      </trkpt>
      <trkpt lat="42.683224" lon="0.795693">
        <ele>1440.2</ele>
        <time>1970-01-01T00:51:14.000Z</time>
      </trkpt>
      <trkpt lat="42.68316" lon="0.795617">
        <ele>1441.4</ele>
        <time>1970-01-01T00:51:19.000Z</time>
      </trkpt>
      <trkpt lat="42.683107" lon="0.795566">
        <ele>1442.4</ele>
        <time>1970-01-01T00:51:24.000Z</time>
      </trkpt>
      <trkpt lat="42.683025" lon="0.795506">
        <ele>1443.4</ele>
        <time>1970-01-01T00:51:30.000Z</time>
      </trkpt>
      <trkpt lat="42.682915" lon="0.795437">
        <ele>1444.4</ele>
        <time>1970-01-01T00:51:38.000Z</time>
      </trkpt>
      <trkpt lat="42.682813" lon="0.795382">
        <ele>1445.6</ele>
        <time>1970-01-01T00:51:45.000Z</time>
      </trkpt>
      <trkpt lat="42.682731" lon="0.79534">
        <ele>1446.6</ele>
        <time>1970-01-01T00:51:51.000Z</time>
      </trkpt>
      <trkpt lat="42.682644" lon="0.795312">
        <ele>1447.8</ele>
        <time>1970-01-01T00:51:57.000Z</time>
      </trkpt>
      <trkpt lat="42.68252" lon="0.79527">
        <ele>1448.8</ele>
        <time>1970-01-01T00:52:06.000Z</time>
      </trkpt>
      <trkpt lat="42.68241" lon="0.795228">
        <ele>1449.6</ele>
        <time>1970-01-01T00:52:13.000Z</time>
      </trkpt>
      <trkpt lat="42.682317" lon="0.795194">
        <ele>1450.8</ele>
        <time>1970-01-01T00:52:20.000Z</time>
      </trkpt>
      <trkpt lat="42.682211" lon="0.795156">
        <ele>1451.8</ele>
        <time>1970-01-01T00:52:27.000Z</time>
      </trkpt>
      <trkpt lat="42.682119" lon="0.795136">
        <ele>1452.6</ele>
        <time>1970-01-01T00:52:33.000Z</time>
      </trkpt>
      <trkpt lat="42.682032" lon="0.795109">
        <ele>1453.6</ele>
        <time>1970-01-01T00:52:39.000Z</time>
      </trkpt>
      <trkpt lat="42.681962" lon="0.795077">
        <ele>1454.8</ele>
        <time>1970-01-01T00:52:44.000Z</time>
      </trkpt>
      <trkpt lat="42.681885" lon="0.795026">
        <ele>1456</ele>
        <time>1970-01-01T00:52:50.000Z</time>
      </trkpt>
      <trkpt lat="42.6818" lon="0.794996">
        <ele>1457</ele>
        <time>1970-01-01T00:52:57.000Z</time>
      </trkpt>
      <trkpt lat="42.681722" lon="0.794963">
        <ele>1458</ele>
        <time>1970-01-01T00:53:03.000Z</time>
      </trkpt>
      <trkpt lat="42.681638" lon="0.794947">
        <ele>1459</ele>
        <time>1970-01-01T00:53:10.000Z</time>
      </trkpt>
      <trkpt lat="42.681553" lon="0.79491">
        <ele>1460</ele>
        <time>1970-01-01T00:53:16.000Z</time>
      </trkpt>
      <trkpt lat="42.681483" lon="0.794881">
        <ele>1461</ele>
        <time>1970-01-01T00:53:21.000Z</time>
      </trkpt>
      <trkpt lat="42.681396" lon="0.794855">
        <ele>1462</ele>
        <time>1970-01-01T00:53:27.000Z</time>
      </trkpt>
      <trkpt lat="42.681326" lon="0.79485">
        <ele>1463</ele>
        <time>1970-01-01T00:53:32.000Z</time>
      </trkpt>
      <trkpt lat="42.68123" lon="0.794829">
        <ele>1464</ele>
        <time>1970-01-01T00:53:39.000Z</time>
      </trkpt>
      <trkpt lat="42.681124" lon="0.79482">
        <ele>1465.2</ele>
        <time>1970-01-01T00:53:47.000Z</time>
      </trkpt>
      <trkpt lat="42.681012" lon="0.794801">
        <ele>1466.4</ele>
        <time>1970-01-01T00:53:55.000Z</time>
      </trkpt>
      <trkpt lat="42.680926" lon="0.794781">
        <ele>1467.6</ele>
        <time>1970-01-01T00:54:02.000Z</time>
      </trkpt>
      <trkpt lat="42.680829" lon="0.794759">
        <ele>1468.6</ele>
        <time>1970-01-01T00:54:09.000Z</time>
      </trkpt>
      <trkpt lat="42.680733" lon="0.794769">
        <ele>1469.8</ele>
        <time>1970-01-01T00:54:16.000Z</time>
      </trkpt>
      <trkpt lat="42.680613" lon="0.79475">
        <ele>1470.8</ele>
        <time>1970-01-01T00:54:25.000Z</time>
      </trkpt>
      <trkpt lat="42.680505" lon="0.794721">
        <ele>1471.8</ele>
        <time>1970-01-01T00:54:33.000Z</time>
      </trkpt>
      <trkpt lat="42.680425" lon="0.794689">
        <ele>1472.8</ele>
        <time>1970-01-01T00:54:39.000Z</time>
      </trkpt>
      <trkpt lat="42.680302" lon="0.794653">
        <ele>1473.8</ele>
        <time>1970-01-01T00:54:47.000Z</time>
      </trkpt>
      <trkpt lat="42.680167" lon="0.794622">
        <ele>1475</ele>
        <time>1970-01-01T00:54:56.000Z</time>
      </trkpt>
      <trkpt lat="42.680033" lon="0.794602">
        <ele>1476</ele>
        <time>1970-01-01T00:55:04.000Z</time>
      </trkpt>
      <trkpt lat="42.679863" lon="0.794555">
        <ele>1477.2</ele>
        <time>1970-01-01T00:55:14.000Z</time>
      </trkpt>
      <trkpt lat="42.679716" lon="0.794517">
        <ele>1478.2</ele>
        <time>1970-01-01T00:55:24.000Z</time>
      </trkpt>
      <trkpt lat="42.679608" lon="0.794492">
        <ele>1479.2</ele>
        <time>1970-01-01T00:55:32.000Z</time>
      </trkpt>
      <trkpt lat="42.679506" lon="0.794457">
        <ele>1480.2</ele>
        <time>1970-01-01T00:55:40.000Z</time>
      </trkpt>
      <trkpt lat="42.679414" lon="0.794412">
        <ele>1481.2</ele>
        <time>1970-01-01T00:55:47.000Z</time>
      </trkpt>
      <trkpt lat="42.679321" lon="0.794381">
        <ele>1482.2</ele>
        <time>1970-01-01T00:55:54.000Z</time>
      </trkpt>
      <trkpt lat="42.679224" lon="0.794345">
        <ele>1483.4</ele>
        <time>1970-01-01T00:56:01.000Z</time>
      </trkpt>
      <trkpt lat="42.679129" lon="0.794294">
        <ele>1484.4</ele>
        <time>1970-01-01T00:56:08.000Z</time>
      </trkpt>
      <trkpt lat="42.679073" lon="0.794234">
        <ele>1485.6</ele>
        <time>1970-01-01T00:56:13.000Z</time>
      </trkpt>
      <trkpt lat="42.679014" lon="0.794197">
        <ele>1486.6</ele>
        <time>1970-01-01T00:56:18.000Z</time>
      </trkpt>
      <trkpt lat="42.678937" lon="0.794177">
        <ele>1487.6</ele>
        <time>1970-01-01T00:56:24.000Z</time>
      </trkpt>
      <trkpt lat="42.678858" lon="0.794181">
        <ele>1488.8</ele>
        <time>1970-01-01T00:56:30.000Z</time>
      </trkpt>
      <trkpt lat="42.678781" lon="0.794202">
        <ele>1490</ele>
        <time>1970-01-01T00:56:36.000Z</time>
      </trkpt>
      <trkpt lat="42.678715" lon="0.794223">
        <ele>1490.8</ele>
        <time>1970-01-01T00:56:41.000Z</time>
      </trkpt>
      <trkpt lat="42.678703" lon="0.794221">
        <ele>1491.2</ele>
        <time>1970-01-01T00:56:42.000Z</time>
      </trkpt>
      <trkpt lat="42.678658" lon="0.794233">
        <ele>1491.8</ele>
        <time>1970-01-01T00:56:46.000Z</time>
      </trkpt>
      <trkpt lat="42.678623" lon="0.794239">
        <ele>1492.2</ele>
        <time>1970-01-01T00:56:49.000Z</time>
      </trkpt>
      <trkpt lat="42.678598" lon="0.794234">
        <ele>1492.6</ele>
        <time>1970-01-01T00:56:51.000Z</time>
      </trkpt>
      <trkpt lat="42.678546" lon="0.794216">
        <ele>1493.2</ele>
        <time>1970-01-01T00:56:55.000Z</time>
      </trkpt>
      <trkpt lat="42.67853" lon="0.79421">
        <ele>1493.4</ele>
        <time>1970-01-01T00:56:56.000Z</time>
      </trkpt>
      <trkpt lat="42.678455" lon="0.794169">
        <ele>1494.2</ele>
        <time>1970-01-01T00:57:01.000Z</time>
      </trkpt>
      <trkpt lat="42.678428" lon="0.794148">
        <ele>1494.4</ele>
        <time>1970-01-01T00:57:03.000Z</time>
      </trkpt>
      <trkpt lat="42.678344" lon="0.794083">
        <ele>1495.6</ele>
        <time>1970-01-01T00:57:09.000Z</time>
      </trkpt>
      <trkpt lat="42.678254" lon="0.794032">
        <ele>1496.6</ele>
        <time>1970-01-01T00:57:16.000Z</time>
      </trkpt>
      <trkpt lat="42.678178" lon="0.794004">
        <ele>1497.8</ele>
        <time>1970-01-01T00:57:22.000Z</time>
      </trkpt>
      <trkpt lat="42.678095" lon="0.793965">
        <ele>1498.6</ele>
        <time>1970-01-01T00:57:29.000Z</time>
      </trkpt>
      <trkpt lat="42.678011" lon="0.793937">
        <ele>1499.8</ele>
        <time>1970-01-01T00:57:35.000Z</time>
      </trkpt>
      <trkpt lat="42.677912" lon="0.793924">
        <ele>1500.8</ele>
        <time>1970-01-01T00:57:43.000Z</time>
      </trkpt>
      <trkpt lat="42.677833" lon="0.793883">
        <ele>1502</ele>
        <time>1970-01-01T00:57:49.000Z</time>
      </trkpt>
      <trkpt lat="42.677744" lon="0.793827">
        <ele>1503</ele>
        <time>1970-01-01T00:57:57.000Z</time>
      </trkpt>
      <trkpt lat="42.677618" lon="0.793779">
        <ele>1504</ele>
        <time>1970-01-01T00:58:05.000Z</time>
      </trkpt>
      <trkpt lat="42.677508" lon="0.793774">
        <ele>1505</ele>
        <time>1970-01-01T00:58:13.000Z</time>
      </trkpt>
      <trkpt lat="42.677391" lon="0.793797">
        <ele>1505.8</ele>
        <time>1970-01-01T00:58:21.000Z</time>
      </trkpt>
      <trkpt lat="42.677261" lon="0.793821">
        <ele>1506.8</ele>
        <time>1970-01-01T00:58:29.000Z</time>
      </trkpt>
      <trkpt lat="42.677132" lon="0.793831">
        <ele>1508</ele>
        <time>1970-01-01T00:58:38.000Z</time>
      </trkpt>
      <trkpt lat="42.676977" lon="0.793834">
        <ele>1508.8</ele>
        <time>1970-01-01T00:58:48.000Z</time>
      </trkpt>
      <trkpt lat="42.676839" lon="0.793822">
        <ele>1509.8</ele>
        <time>1970-01-01T00:58:56.000Z</time>
      </trkpt>
      <trkpt lat="42.676714" lon="0.793795">
        <ele>1511</ele>
        <time>1970-01-01T00:59:04.000Z</time>
      </trkpt>
      <trkpt lat="42.676569" lon="0.793754">
        <ele>1512</ele>
        <time>1970-01-01T00:59:13.000Z</time>
      </trkpt>
      <trkpt lat="42.676316" lon="0.793694">
        <ele>1513</ele>
        <time>1970-01-01T00:59:30.000Z</time>
      </trkpt>
      <trkpt lat="42.676089" lon="0.793572">
        <ele>1513.4</ele>
        <time>1970-01-01T00:59:43.000Z</time>
      </trkpt>
      <trkpt lat="42.675954" lon="0.793519">
        <ele>1513.8</ele>
        <time>1970-01-01T00:59:51.000Z</time>
      </trkpt>
      <trkpt lat="42.675885" lon="0.793493">
        <ele>1513.8</ele>
        <time>1970-01-01T00:59:55.000Z</time>
      </trkpt>
      <trkpt lat="42.675649" lon="0.793437">
        <ele>1515</ele>
        <time>1970-01-01T01:00:07.000Z</time>
      </trkpt>
      <trkpt lat="42.675411" lon="0.793383">
        <ele>1516.2</ele>
        <time>1970-01-01T01:00:18.000Z</time>
      </trkpt>
      <trkpt lat="42.675302" lon="0.793342">
        <ele>1517.2</ele>
        <time>1970-01-01T01:00:25.000Z</time>
      </trkpt>
      <trkpt lat="42.67507" lon="0.79336">
        <ele>1518.4</ele>
        <time>1970-01-01T01:00:37.000Z</time>
      </trkpt>
      <trkpt lat="42.675055" lon="0.793373">
        <ele>1518.4</ele>
        <time>1970-01-01T01:00:38.000Z</time>
      </trkpt>
      <trkpt lat="42.674988" lon="0.793426">
        <ele>1518.6</ele>
        <time>1970-01-01T01:00:42.000Z</time>
      </trkpt>
      <trkpt lat="42.674451" lon="0.793649">
        <ele>1519.4</ele>
        <time>1970-01-01T01:01:10.000Z</time>
      </trkpt>
      <trkpt lat="42.674397" lon="0.793673">
        <ele>1519.6</ele>
        <time>1970-01-01T01:01:12.000Z</time>
      </trkpt>
      <trkpt lat="42.673897" lon="0.793954">
        <ele>1519.4</ele>
        <time>1970-01-01T01:01:34.000Z</time>
      </trkpt>
      <trkpt lat="42.673745" lon="0.794038">
        <ele>1519</ele>
        <time>1970-01-01T01:01:38.000Z</time>
      </trkpt>
      <trkpt lat="42.67364" lon="0.794044">
        <ele>1518.2</ele>
        <time>1970-01-01T01:01:40.000Z</time>
      </trkpt>
      <trkpt lat="42.673491" lon="0.793985">
        <ele>1517</ele>
        <time>1970-01-01T01:01:43.000Z</time>
      </trkpt>
      <trkpt lat="42.673348" lon="0.793925">
        <ele>1516</ele>
        <time>1970-01-01T01:01:47.000Z</time>
      </trkpt>
      <trkpt lat="42.673266" lon="0.793921">
        <ele>1515.6</ele>
        <time>1970-01-01T01:01:49.000Z</time>
      </trkpt>
      <trkpt lat="42.673176" lon="0.793946">
        <ele>1515.2</ele>
        <time>1970-01-01T01:01:51.000Z</time>
      </trkpt>
      <trkpt lat="42.673085" lon="0.793983">
        <ele>1515</ele>
        <time>1970-01-01T01:01:53.000Z</time>
      </trkpt>
      <trkpt lat="42.672994" lon="0.794042">
        <ele>1514.6</ele>
        <time>1970-01-01T01:01:55.000Z</time>
      </trkpt>
      <trkpt lat="42.672835" lon="0.794141">
        <ele>1513.8</ele>
        <time>1970-01-01T01:01:58.000Z</time>
      </trkpt>
      <trkpt lat="42.672588" lon="0.794261">
        <ele>1512.6</ele>
        <time>1970-01-01T01:02:02.000Z</time>
      </trkpt>
      <trkpt lat="42.672485" lon="0.79432">
        <ele>1511.4</ele>
        <time>1970-01-01T01:02:04.000Z</time>
      </trkpt>
      <trkpt lat="42.672345" lon="0.794431">
        <ele>1510.4</ele>
        <time>1970-01-01T01:02:07.000Z</time>
      </trkpt>
      <trkpt lat="42.672269" lon="0.794546">
        <ele>1509.2</ele>
        <time>1970-01-01T01:02:09.000Z</time>
      </trkpt>
      <trkpt lat="42.672197" lon="0.794642">
        <ele>1508.4</ele>
        <time>1970-01-01T01:02:11.000Z</time>
      </trkpt>
      <trkpt lat="42.672165" lon="0.794684">
        <ele>1508</ele>
        <time>1970-01-01T01:02:12.000Z</time>
      </trkpt>
      <trkpt lat="42.672074" lon="0.794814">
        <ele>1506.4</ele>
        <time>1970-01-01T01:02:15.000Z</time>
      </trkpt>
      <trkpt lat="42.671983" lon="0.794937">
        <ele>1505.4</ele>
        <time>1970-01-01T01:02:18.000Z</time>
      </trkpt>
      <trkpt lat="42.671677" lon="0.794841">
        <ele>1505</ele>
        <time>1970-01-01T01:02:36.000Z</time>
      </trkpt>
      <trkpt lat="42.671615" lon="0.794827">
        <ele>1505.2</ele>
        <time>1970-01-01T01:20:52.000Z</time>
      </trkpt>
      <trkpt lat="42.671597" lon="0.794842">
        <ele>1505</ele>
        <time>1970-01-01T01:20:53.000Z</time>
      </trkpt>
      <trkpt lat="42.671484" lon="0.794958">
        <ele>1504.4</ele>
        <time>1970-01-01T01:20:57.000Z</time>
      </trkpt>
      <trkpt lat="42.671395" lon="0.795021">
        <ele>1503.6</ele>
        <time>1970-01-01T01:20:59.000Z</time>
      </trkpt>
      <trkpt lat="42.671294" lon="0.795068">
        <ele>1502.8</ele>
        <time>1970-01-01T01:21:01.000Z</time>
      </trkpt>
      <trkpt lat="42.671203" lon="0.795094">
        <ele>1502.2</ele>
        <time>1970-01-01T01:21:03.000Z</time>
      </trkpt>
      <trkpt lat="42.671027" lon="0.795152">
        <ele>1501.2</ele>
        <time>1970-01-01T01:21:06.000Z</time>
      </trkpt>
      <trkpt lat="42.670773" lon="0.795335">
        <ele>1500</ele>
        <time>1970-01-01T01:21:10.000Z</time>
      </trkpt>
      <trkpt lat="42.670724" lon="0.795418">
        <ele>1499.6</ele>
        <time>1970-01-01T01:21:11.000Z</time>
      </trkpt>
      <trkpt lat="42.670598" lon="0.795613">
        <ele>1498.4</ele>
        <time>1970-01-01T01:21:14.000Z</time>
      </trkpt>
      <trkpt lat="42.670406" lon="0.795621">
        <ele>1497.4</ele>
        <time>1970-01-01T01:21:19.000Z</time>
      </trkpt>
      <trkpt lat="42.670432" lon="0.795336">
        <ele>1496.4</ele>
        <time>1970-01-01T01:21:25.000Z</time>
      </trkpt>
      <trkpt lat="42.67046" lon="0.795224">
        <ele>1496</ele>
        <time>1970-01-01T01:21:27.000Z</time>
      </trkpt>
      <trkpt lat="42.670478" lon="0.795161">
        <ele>1495.8</ele>
        <time>1970-01-01T01:21:28.000Z</time>
      </trkpt>
      <trkpt lat="42.670494" lon="0.795035">
        <ele>1495.2</ele>
        <time>1970-01-01T01:21:30.000Z</time>
      </trkpt>
      <trkpt lat="42.670502" lon="0.794886">
        <ele>1493.8</ele>
        <time>1970-01-01T01:21:33.000Z</time>
      </trkpt>
      <trkpt lat="42.670492" lon="0.794776">
        <ele>1493.4</ele>
        <time>1970-01-01T01:21:35.000Z</time>
      </trkpt>
      <trkpt lat="42.670489" lon="0.794587">
        <ele>1492.4</ele>
        <time>1970-01-01T01:21:38.000Z</time>
      </trkpt>
      <trkpt lat="42.670492" lon="0.794457">
        <ele>1491.8</ele>
        <time>1970-01-01T01:21:40.000Z</time>
      </trkpt>
      <trkpt lat="42.670512" lon="0.794316">
        <ele>1491.2</ele>
        <time>1970-01-01T01:21:42.000Z</time>
      </trkpt>
      <trkpt lat="42.670526" lon="0.794249">
        <ele>1491</ele>
        <time>1970-01-01T01:21:43.000Z</time>
      </trkpt>
      <trkpt lat="42.670593" lon="0.793977">
        <ele>1490.2</ele>
        <time>1970-01-01T01:21:48.000Z</time>
      </trkpt>
      <trkpt lat="42.670647" lon="0.793773">
        <ele>1489.4</ele>
        <time>1970-01-01T01:21:52.000Z</time>
      </trkpt>
      <trkpt lat="42.670696" lon="0.793593">
        <ele>1489</ele>
        <time>1970-01-01T01:21:55.000Z</time>
      </trkpt>
      <trkpt lat="42.67071" lon="0.79353">
        <ele>1488.8</ele>
        <time>1970-01-01T01:21:56.000Z</time>
      </trkpt>
      <trkpt lat="42.670756" lon="0.793261">
        <ele>1487.8</ele>
        <time>1970-01-01T01:22:00.000Z</time>
      </trkpt>
      <trkpt lat="42.670771" lon="0.793123">
        <ele>1487.6</ele>
        <time>1970-01-01T01:22:02.000Z</time>
      </trkpt>
      <trkpt lat="42.670722" lon="0.79272">
        <ele>1486.8</ele>
        <time>1970-01-01T01:22:08.000Z</time>
      </trkpt>
      <trkpt lat="42.670793" lon="0.792068">
        <ele>1485.4</ele>
        <time>1970-01-01T01:22:21.000Z</time>
      </trkpt>
      <trkpt lat="42.670811" lon="0.79189">
        <ele>1484.8</ele>
        <time>1970-01-01T01:22:24.000Z</time>
      </trkpt>
      <trkpt lat="42.670847" lon="0.791618">
        <ele>1483.8</ele>
        <time>1970-01-01T01:22:28.000Z</time>
      </trkpt>
      <trkpt lat="42.67089" lon="0.791266">
        <ele>1482.8</ele>
        <time>1970-01-01T01:22:32.000Z</time>
      </trkpt>
      <trkpt lat="42.670945" lon="0.790991">
        <ele>1481.4</ele>
        <time>1970-01-01T01:22:35.000Z</time>
      </trkpt>
      <trkpt lat="42.67097" lon="0.790815">
        <ele>1480.6</ele>
        <time>1970-01-01T01:22:37.000Z</time>
      </trkpt>
      <trkpt lat="42.670972" lon="0.790723">
        <ele>1480.2</ele>
        <time>1970-01-01T01:22:38.000Z</time>
      </trkpt>
      <trkpt lat="42.670966" lon="0.79032">
        <ele>1478.8</ele>
        <time>1970-01-01T01:22:42.000Z</time>
      </trkpt>
      <trkpt lat="42.670974" lon="0.790218">
        <ele>1478.2</ele>
        <time>1970-01-01T01:22:43.000Z</time>
      </trkpt>
      <trkpt lat="42.670982" lon="0.790123">
        <ele>1477.8</ele>
        <time>1970-01-01T01:22:44.000Z</time>
      </trkpt>
      <trkpt lat="42.670986" lon="0.789937">
        <ele>1476.8</ele>
        <time>1970-01-01T01:22:46.000Z</time>
      </trkpt>
      <trkpt lat="42.670984" lon="0.789841">
        <ele>1476.4</ele>
        <time>1970-01-01T01:22:47.000Z</time>
      </trkpt>
      <trkpt lat="42.671011" lon="0.789557">
        <ele>1475.2</ele>
        <time>1970-01-01T01:22:50.000Z</time>
      </trkpt>
      <trkpt lat="42.67105" lon="0.789282">
        <ele>1474.2</ele>
        <time>1970-01-01T01:22:53.000Z</time>
      </trkpt>
      <trkpt lat="42.671072" lon="0.789127">
        <ele>1473.2</ele>
        <time>1970-01-01T01:22:56.000Z</time>
      </trkpt>
      <trkpt lat="42.67107" lon="0.789121">
        <ele>1472.4</ele>
        <time>1970-01-01T01:22:59.000Z</time>
      </trkpt>
      <trkpt lat="42.671069" lon="0.789079">
        <ele>1472.2</ele>
        <time>1970-01-01T01:23:41.000Z</time>
      </trkpt>
      <trkpt lat="42.671066" lon="0.788864">
        <ele>1471.6</ele>
        <time>1970-01-01T01:23:48.000Z</time>
      </trkpt>
      <trkpt lat="42.671049" lon="0.788486">
        <ele>1470.2</ele>
        <time>1970-01-01T01:23:56.000Z</time>
      </trkpt>
      <trkpt lat="42.671041" lon="0.788431">
        <ele>1470</ele>
        <time>1970-01-01T01:23:57.000Z</time>
      </trkpt>
      <trkpt lat="42.671017" lon="0.788313">
        <ele>1469.2</ele>
        <time>1970-01-01T01:23:59.000Z</time>
      </trkpt>
      <trkpt lat="42.670961" lon="0.788056">
        <ele>1468.8</ele>
        <time>1970-01-01T01:24:03.000Z</time>
      </trkpt>
      <trkpt lat="42.670913" lon="0.787933">
        <ele>1468.6</ele>
        <time>1970-01-01T01:24:05.000Z</time>
      </trkpt>
      <trkpt lat="42.670853" lon="0.787823">
        <ele>1468</ele>
        <time>1970-01-01T01:24:07.000Z</time>
      </trkpt>
      <trkpt lat="42.670788" lon="0.787722">
        <ele>1467.6</ele>
        <time>1970-01-01T01:24:09.000Z</time>
      </trkpt>
      <trkpt lat="42.670641" lon="0.787523">
        <ele>1467.2</ele>
        <time>1970-01-01T01:24:13.000Z</time>
      </trkpt>
      <trkpt lat="42.670559" lon="0.787434">
        <ele>1466.4</ele>
        <time>1970-01-01T01:24:15.000Z</time>
      </trkpt>
      <trkpt lat="42.670506" lon="0.787371">
        <ele>1465</ele>
        <time>1970-01-01T01:24:17.000Z</time>
      </trkpt>
      <trkpt lat="42.670465" lon="0.787299">
        <ele>1464.8</ele>
        <time>1970-01-01T01:24:25.000Z</time>
      </trkpt>
      <trkpt lat="42.67044" lon="0.787235">
        <ele>1464.6</ele>
        <time>1970-01-01T01:24:33.000Z</time>
      </trkpt>
      <trkpt lat="42.670254" lon="0.78703">
        <ele>1464</ele>
        <time>1970-01-01T01:24:41.000Z</time>
      </trkpt>
      <trkpt lat="42.670222" lon="0.787011">
        <ele>1463.6</ele>
        <time>1970-01-01T01:24:42.000Z</time>
      </trkpt>
      <trkpt lat="42.670076" lon="0.786951">
        <ele>1462.4</ele>
        <time>1970-01-01T01:24:46.000Z</time>
      </trkpt>
      <trkpt lat="42.669977" lon="0.786931">
        <ele>1461.8</ele>
        <time>1970-01-01T01:24:48.000Z</time>
      </trkpt>
      <trkpt lat="42.669924" lon="0.786932">
        <ele>1461.4</ele>
        <time>1970-01-01T01:24:49.000Z</time>
      </trkpt>
      <trkpt lat="42.66976" lon="0.786934">
        <ele>1460.4</ele>
        <time>1970-01-01T01:24:52.000Z</time>
      </trkpt>
      <trkpt lat="42.669709" lon="0.78694">
        <ele>1460.4</ele>
        <time>1970-01-01T01:24:53.000Z</time>
      </trkpt>
      <trkpt lat="42.669576" lon="0.786943">
        <ele>1459</ele>
        <time>1970-01-01T01:24:56.000Z</time>
      </trkpt>
      <trkpt lat="42.669549" lon="0.786944">
        <ele>1458.6</ele>
        <time>1970-01-01T01:24:59.000Z</time>
      </trkpt>
      <trkpt lat="42.66949" lon="0.786944">
        <ele>1459</ele>
        <time>1970-01-01T01:25:25.000Z</time>
      </trkpt>
      <trkpt lat="42.669255" lon="0.786952">
        <ele>1458.2</ele>
        <time>1970-01-01T01:25:38.000Z</time>
      </trkpt>
      <trkpt lat="42.669217" lon="0.786931">
        <ele>1458.2</ele>
        <time>1970-01-01T01:26:48.000Z</time>
      </trkpt>
      <trkpt lat="42.669171" lon="0.786781">
        <ele>1458</ele>
        <time>1970-01-01T01:26:53.000Z</time>
      </trkpt>
      <trkpt lat="42.669156" lon="0.786427">
        <ele>1457</ele>
        <time>1970-01-01T01:27:03.000Z</time>
      </trkpt>
      <trkpt lat="42.669137" lon="0.786392">
        <ele>1456.8</ele>
        <time>1970-01-01T01:27:04.000Z</time>
      </trkpt>
      <trkpt lat="42.669011" lon="0.78629">
        <ele>1456</ele>
        <time>1970-01-01T01:27:08.000Z</time>
      </trkpt>
      <trkpt lat="42.668936" lon="0.786259">
        <ele>1455.8</ele>
        <time>1970-01-01T01:27:10.000Z</time>
      </trkpt>
      <trkpt lat="42.668612" lon="0.786114">
        <ele>1454.8</ele>
        <time>1970-01-01T01:27:23.000Z</time>
      </trkpt>
      <trkpt lat="42.668429" lon="0.785959">
        <ele>1453.6</ele>
        <time>1970-01-01T01:27:29.000Z</time>
      </trkpt>
      <trkpt lat="42.668294" lon="0.78588">
        <ele>1452.6</ele>
        <time>1970-01-01T01:27:33.000Z</time>
      </trkpt>
      <trkpt lat="42.668164" lon="0.785807">
        <ele>1451.6</ele>
        <time>1970-01-01T01:27:37.000Z</time>
      </trkpt>
      <trkpt lat="42.668127" lon="0.785781">
        <ele>1451.4</ele>
        <time>1970-01-01T01:27:38.000Z</time>
      </trkpt>
      <trkpt lat="42.668" lon="0.785674">
        <ele>1450.2</ele>
        <time>1970-01-01T01:27:43.000Z</time>
      </trkpt>
      <trkpt lat="42.66799" lon="0.785643">
        <ele>1450.2</ele>
        <time>1970-01-01T01:27:45.000Z</time>
      </trkpt>
      <trkpt lat="42.668024" lon="0.785586">
        <ele>1450</ele>
        <time>1970-01-01T01:27:52.000Z</time>
      </trkpt>
      <trkpt lat="42.668117" lon="0.785619">
        <ele>1450.4</ele>
        <time>1970-01-01T01:30:46.000Z</time>
      </trkpt>
      <trkpt lat="42.668437" lon="0.785576">
        <ele>1449</ele>
        <time>1970-01-01T01:30:57.000Z</time>
      </trkpt>
      <trkpt lat="42.668581" lon="0.785489">
        <ele>1448.6</ele>
        <time>1970-01-01T01:31:01.000Z</time>
      </trkpt>
      <trkpt lat="42.669015" lon="0.78519">
        <ele>1447.6</ele>
        <time>1970-01-01T01:31:11.000Z</time>
      </trkpt>
      <trkpt lat="42.669209" lon="0.78512">
        <ele>1447.4</ele>
        <time>1970-01-01T01:31:15.000Z</time>
      </trkpt>
      <trkpt lat="42.669342" lon="0.785054">
        <ele>1447.2</ele>
        <time>1970-01-01T01:31:18.000Z</time>
      </trkpt>
      <trkpt lat="42.669483" lon="0.784927">
        <ele>1447</ele>
        <time>1970-01-01T01:31:21.000Z</time>
      </trkpt>
      <trkpt lat="42.669579" lon="0.784848">
        <ele>1446.8</ele>
        <time>1970-01-01T01:31:23.000Z</time>
      </trkpt>
      <trkpt lat="42.669738" lon="0.784674">
        <ele>1447</ele>
        <time>1970-01-01T01:31:27.000Z</time>
      </trkpt>
      <trkpt lat="42.669826" lon="0.78451">
        <ele>1447</ele>
        <time>1970-01-01T01:31:30.000Z</time>
      </trkpt>
      <trkpt lat="42.670085" lon="0.784336">
        <ele>1447.8</ele>
        <time>1970-01-01T01:31:37.000Z</time>
      </trkpt>
      <trkpt lat="42.670479" lon="0.783741">
        <ele>1446.4</ele>
        <time>1970-01-01T01:31:50.000Z</time>
      </trkpt>
      <trkpt lat="42.670554" lon="0.783521">
        <ele>1445.6</ele>
        <time>1970-01-01T01:31:53.000Z</time>
      </trkpt>
      <trkpt lat="42.670566" lon="0.783441">
        <ele>1445.4</ele>
        <time>1970-01-01T01:31:54.000Z</time>
      </trkpt>
      <trkpt lat="42.670835" lon="0.78296">
        <ele>1445.4</ele>
        <time>1970-01-01T01:32:05.000Z</time>
      </trkpt>
      <trkpt lat="42.670995" lon="0.782287">
        <ele>1445.8</ele>
        <time>1970-01-01T01:32:19.000Z</time>
      </trkpt>
      <trkpt lat="42.671007" lon="0.782054">
        <ele>1445.6</ele>
        <time>1970-01-01T01:32:23.000Z</time>
      </trkpt>
      <trkpt lat="42.670964" lon="0.781303">
        <ele>1445.6</ele>
        <time>1970-01-01T01:32:40.000Z</time>
      </trkpt>
      <trkpt lat="42.670901" lon="0.780778">
        <ele>1444.8</ele>
        <time>1970-01-01T01:32:50.000Z</time>
      </trkpt>
      <trkpt lat="42.670691" lon="0.780348">
        <ele>1444.8</ele>
        <time>1970-01-01T01:32:59.000Z</time>
      </trkpt>
      <trkpt lat="42.670405" lon="0.779701">
        <ele>1446</ele>
        <time>1970-01-01T01:33:15.000Z</time>
      </trkpt>
      <trkpt lat="42.670375" lon="0.779657">
        <ele>1446</ele>
        <time>1970-01-01T01:33:16.000Z</time>
      </trkpt>
      <trkpt lat="42.670247" lon="0.779478">
        <ele>1445.8</ele>
        <time>1970-01-01T01:33:20.000Z</time>
      </trkpt>
      <trkpt lat="42.670088" lon="0.779336">
        <ele>1445.2</ele>
        <time>1970-01-01T01:33:24.000Z</time>
      </trkpt>
      <trkpt lat="42.669766" lon="0.779158">
        <ele>1446.2</ele>
        <time>1970-01-01T01:33:35.000Z</time>
      </trkpt>
      <trkpt lat="42.669526" lon="0.778966">
        <ele>1447</ele>
        <time>1970-01-01T01:33:45.000Z</time>
      </trkpt>
      <trkpt lat="42.669173" lon="0.77875">
        <ele>1448</ele>
        <time>1970-01-01T01:33:58.000Z</time>
      </trkpt>
      <trkpt lat="42.668839" lon="0.778422">
        <ele>1448</ele>
        <time>1970-01-01T01:34:10.000Z</time>
      </trkpt>
      <trkpt lat="42.668578" lon="0.778184">
        <ele>1448.2</ele>
        <time>1970-01-01T01:34:20.000Z</time>
      </trkpt>
      <trkpt lat="42.668706" lon="0.777889">
        <ele>1447.2</ele>
        <time>1970-01-01T01:34:32.000Z</time>
      </trkpt>
      <trkpt lat="42.668797" lon="0.777867">
        <ele>1446.6</ele>
        <time>1970-01-01T01:34:35.000Z</time>
      </trkpt>
      <trkpt lat="42.669045" lon="0.777759">
        <ele>1445.4</ele>
        <time>1970-01-01T01:34:43.000Z</time>
      </trkpt>
      <trkpt lat="42.669128" lon="0.777723">
        <ele>1444.8</ele>
        <time>1970-01-01T01:34:45.000Z</time>
      </trkpt>
      <trkpt lat="42.669257" lon="0.777642">
        <ele>1444.2</ele>
        <time>1970-01-01T01:34:48.000Z</time>
      </trkpt>
      <trkpt lat="42.669304" lon="0.777625">
        <ele>1444</ele>
        <time>1970-01-01T01:34:49.000Z</time>
      </trkpt>
      <trkpt lat="42.669391" lon="0.777604">
        <ele>1443.4</ele>
        <time>1970-01-01T01:34:51.000Z</time>
      </trkpt>
      <trkpt lat="42.669472" lon="0.777607">
        <ele>1443.2</ele>
        <time>1970-01-01T01:34:53.000Z</time>
      </trkpt>
      <trkpt lat="42.669513" lon="0.777619">
        <ele>1443.2</ele>
        <time>1970-01-01T01:34:54.000Z</time>
      </trkpt>
      <trkpt lat="42.669621" lon="0.777678">
        <ele>1443</ele>
        <time>1970-01-01T01:34:57.000Z</time>
      </trkpt>
      <trkpt lat="42.669663" lon="0.777696">
        <ele>1442.8</ele>
        <time>1970-01-01T01:34:58.000Z</time>
      </trkpt>
      <trkpt lat="42.669922" lon="0.777645">
        <ele>1441.6</ele>
        <time>1970-01-01T01:35:04.000Z</time>
      </trkpt>
      <trkpt lat="42.670037" lon="0.777546">
        <ele>1441.4</ele>
        <time>1970-01-01T01:35:07.000Z</time>
      </trkpt>
      <trkpt lat="42.670199" lon="0.777335">
        <ele>1440.4</ele>
        <time>1970-01-01T01:35:11.000Z</time>
      </trkpt>
      <trkpt lat="42.670363" lon="0.777295">
        <ele>1439.2</ele>
        <time>1970-01-01T01:35:14.000Z</time>
      </trkpt>
      <trkpt lat="42.670491" lon="0.777315">
        <ele>1438.2</ele>
        <time>1970-01-01T01:35:16.000Z</time>
      </trkpt>
      <trkpt lat="42.670614" lon="0.777329">
        <ele>1437.4</ele>
        <time>1970-01-01T01:35:18.000Z</time>
      </trkpt>
      <trkpt lat="42.670669" lon="0.777318">
        <ele>1437</ele>
        <time>1970-01-01T01:35:19.000Z</time>
      </trkpt>
      <trkpt lat="42.670807" lon="0.777203">
        <ele>1435.4</ele>
        <time>1970-01-01T01:35:22.000Z</time>
      </trkpt>
      <trkpt lat="42.670845" lon="0.777171">
        <ele>1435</ele>
        <time>1970-01-01T01:35:23.000Z</time>
      </trkpt>
      <trkpt lat="42.670886" lon="0.777142">
        <ele>1434.6</ele>
        <time>1970-01-01T01:35:24.000Z</time>
      </trkpt>
      <trkpt lat="42.670931" lon="0.77712">
        <ele>1434.4</ele>
        <time>1970-01-01T01:35:25.000Z</time>
      </trkpt>
      <trkpt lat="42.671089" lon="0.777089">
        <ele>1433</ele>
        <time>1970-01-01T01:35:28.000Z</time>
      </trkpt>
      <trkpt lat="42.671262" lon="0.777064">
        <ele>1432.4</ele>
        <time>1970-01-01T01:35:31.000Z</time>
      </trkpt>
      <trkpt lat="42.671418" lon="0.776942">
        <ele>1431.6</ele>
        <time>1970-01-01T01:35:34.000Z</time>
      </trkpt>
      <trkpt lat="42.671613" lon="0.776738">
        <ele>1430.4</ele>
        <time>1970-01-01T01:35:38.000Z</time>
      </trkpt>
      <trkpt lat="42.671724" lon="0.776611">
        <ele>1429.4</ele>
        <time>1970-01-01T01:35:41.000Z</time>
      </trkpt>
      <trkpt lat="42.671766" lon="0.776581">
        <ele>1429.2</ele>
        <time>1970-01-01T01:35:42.000Z</time>
      </trkpt>
      <trkpt lat="42.672053" lon="0.776432">
        <ele>1428.2</ele>
        <time>1970-01-01T01:35:48.000Z</time>
      </trkpt>
      <trkpt lat="42.672193" lon="0.776335">
        <ele>1427.6</ele>
        <time>1970-01-01T01:35:51.000Z</time>
      </trkpt>
      <trkpt lat="42.67241" lon="0.776264">
        <ele>1427</ele>
        <time>1970-01-01T01:35:55.000Z</time>
      </trkpt>
      <trkpt lat="42.672507" lon="0.776225">
        <ele>1426.2</ele>
        <time>1970-01-01T01:35:57.000Z</time>
      </trkpt>
      <trkpt lat="42.672552" lon="0.776197">
        <ele>1425.8</ele>
        <time>1970-01-01T01:35:58.000Z</time>
      </trkpt>
      <trkpt lat="42.672597" lon="0.776095">
        <ele>1424.4</ele>
        <time>1970-01-01T01:36:00.000Z</time>
      </trkpt>
      <trkpt lat="42.672585" lon="0.775955">
        <ele>1423.6</ele>
        <time>1970-01-01T01:36:02.000Z</time>
      </trkpt>
      <trkpt lat="42.672575" lon="0.775877">
        <ele>1423</ele>
        <time>1970-01-01T01:36:03.000Z</time>
      </trkpt>
      <trkpt lat="42.672569" lon="0.775795">
        <ele>1422.8</ele>
        <time>1970-01-01T01:36:04.000Z</time>
      </trkpt>
      <trkpt lat="42.672562" lon="0.775619">
        <ele>1421.8</ele>
        <time>1970-01-01T01:36:06.000Z</time>
      </trkpt>
      <trkpt lat="42.672554" lon="0.775466">
        <ele>1420.6</ele>
        <time>1970-01-01T01:36:08.000Z</time>
      </trkpt>
      <trkpt lat="42.672557" lon="0.775334">
        <ele>1419.4</ele>
        <time>1970-01-01T01:36:10.000Z</time>
      </trkpt>
      <trkpt lat="42.672634" lon="0.775158">
        <ele>1418.2</ele>
        <time>1970-01-01T01:36:13.000Z</time>
      </trkpt>
      <trkpt lat="42.67277" lon="0.775074">
        <ele>1417.2</ele>
        <time>1970-01-01T01:36:16.000Z</time>
      </trkpt>
      <trkpt lat="42.67289" lon="0.775012">
        <ele>1416.6</ele>
        <time>1970-01-01T01:36:18.000Z</time>
      </trkpt>
      <trkpt lat="42.673004" lon="0.774911">
        <ele>1415.6</ele>
        <time>1970-01-01T01:36:20.000Z</time>
      </trkpt>
      <trkpt lat="42.673092" lon="0.774779">
        <ele>1414.6</ele>
        <time>1970-01-01T01:36:22.000Z</time>
      </trkpt>
      <trkpt lat="42.673129" lon="0.774713">
        <ele>1414</ele>
        <time>1970-01-01T01:36:23.000Z</time>
      </trkpt>
      <trkpt lat="42.673169" lon="0.774654">
        <ele>1413.2</ele>
        <time>1970-01-01T01:36:24.000Z</time>
      </trkpt>
      <trkpt lat="42.673263" lon="0.774554">
        <ele>1411.8</ele>
        <time>1970-01-01T01:36:26.000Z</time>
      </trkpt>
      <trkpt lat="42.67337" lon="0.77446">
        <ele>1410.6</ele>
        <time>1970-01-01T01:36:28.000Z</time>
      </trkpt>
      <trkpt lat="42.673463" lon="0.774359">
        <ele>1409.6</ele>
        <time>1970-01-01T01:36:30.000Z</time>
      </trkpt>
      <trkpt lat="42.67352" lon="0.774245">
        <ele>1408.4</ele>
        <time>1970-01-01T01:36:32.000Z</time>
      </trkpt>
      <trkpt lat="42.673573" lon="0.774087">
        <ele>1407.4</ele>
        <time>1970-01-01T01:36:35.000Z</time>
      </trkpt>
      <trkpt lat="42.673629" lon="0.773962">
        <ele>1406.4</ele>
        <time>1970-01-01T01:36:38.000Z</time>
      </trkpt>
      <trkpt lat="42.673657" lon="0.773937">
        <ele>1406</ele>
        <time>1970-01-01T01:36:39.000Z</time>
      </trkpt>
      <trkpt lat="42.67372" lon="0.77397">
        <ele>1405.4</ele>
        <time>1970-01-01T01:36:41.000Z</time>
      </trkpt>
      <trkpt lat="42.673753" lon="0.774226">
        <ele>1404.2</ele>
        <time>1970-01-01T01:36:46.000Z</time>
      </trkpt>
      <trkpt lat="42.673763" lon="0.774301">
        <ele>1403.6</ele>
        <time>1970-01-01T01:36:47.000Z</time>
      </trkpt>
      <trkpt lat="42.673773" lon="0.774378">
        <ele>1403</ele>
        <time>1970-01-01T01:36:48.000Z</time>
      </trkpt>
      <trkpt lat="42.673789" lon="0.774536">
        <ele>1401.4</ele>
        <time>1970-01-01T01:36:50.000Z</time>
      </trkpt>
      <trkpt lat="42.673775" lon="0.774682">
        <ele>1399.4</ele>
        <time>1970-01-01T01:36:52.000Z</time>
      </trkpt>
      <trkpt lat="42.673742" lon="0.774825">
        <ele>1397.2</ele>
        <time>1970-01-01T01:36:54.000Z</time>
      </trkpt>
      <trkpt lat="42.673692" lon="0.774957">
        <ele>1395.4</ele>
        <time>1970-01-01T01:36:56.000Z</time>
      </trkpt>
      <trkpt lat="42.673639" lon="0.775074">
        <ele>1394</ele>
        <time>1970-01-01T01:36:58.000Z</time>
      </trkpt>
      <trkpt lat="42.673556" lon="0.775276">
        <ele>1392.6</ele>
        <time>1970-01-01T01:37:01.000Z</time>
      </trkpt>
      <trkpt lat="42.673537" lon="0.77534">
        <ele>1392.2</ele>
        <time>1970-01-01T01:37:02.000Z</time>
      </trkpt>
      <trkpt lat="42.673523" lon="0.775403">
        <ele>1391.4</ele>
        <time>1970-01-01T01:37:03.000Z</time>
      </trkpt>
      <trkpt lat="42.673512" lon="0.775534">
        <ele>1390.4</ele>
        <time>1970-01-01T01:37:05.000Z</time>
      </trkpt>
      <trkpt lat="42.673562" lon="0.775659">
        <ele>1389.2</ele>
        <time>1970-01-01T01:37:08.000Z</time>
      </trkpt>
      <trkpt lat="42.673571" lon="0.775678">
        <ele>1389.2</ele>
        <time>1970-01-01T01:37:09.000Z</time>
      </trkpt>
      <trkpt lat="42.673433" lon="0.775881">
        <ele>1389.2</ele>
        <time>1970-01-01T01:37:17.000Z</time>
      </trkpt>
      <trkpt lat="42.673244" lon="0.776305">
        <ele>1389.2</ele>
        <time>1970-01-01T01:37:32.000Z</time>
      </trkpt>
      <trkpt lat="42.673229" lon="0.776273">
        <ele>1388.8</ele>
        <time>1970-01-01T01:37:41.000Z</time>
      </trkpt>
      <trkpt lat="42.673229" lon="0.776243">
        <ele>1388.6</ele>
        <time>1970-01-01T01:37:45.000Z</time>
      </trkpt>
      <trkpt lat="42.673205" lon="0.776288">
        <ele>1389.8</ele>
        <time>1970-01-01T01:45:47.000Z</time>
      </trkpt>
      <trkpt lat="42.673158" lon="0.77641">
        <ele>1389.8</ele>
        <time>1970-01-01T01:45:52.000Z</time>
      </trkpt>
      <trkpt lat="42.673018" lon="0.776713">
        <ele>1390</ele>
        <time>1970-01-01T01:46:05.000Z</time>
      </trkpt>
      <trkpt lat="42.672714" lon="0.777315">
        <ele>1391.2</ele>
        <time>1970-01-01T01:46:30.000Z</time>
      </trkpt>
      <trkpt lat="42.67236" lon="0.777651">
        <ele>1391.2</ele>
        <time>1970-01-01T01:46:45.000Z</time>
      </trkpt>
      <trkpt lat="42.672286" lon="0.777704">
        <ele>1391.4</ele>
        <time>1970-01-01T01:46:48.000Z</time>
      </trkpt>
      <trkpt lat="42.672135" lon="0.777849">
        <ele>1391.8</ele>
        <time>1970-01-01T01:46:58.000Z</time>
      </trkpt>
      <trkpt lat="42.672115" lon="0.777865">
        <ele>1391.6</ele>
        <time>1970-01-01T01:47:14.000Z</time>
      </trkpt>
      <trkpt lat="42.672026" lon="0.777928">
        <ele>1392.4</ele>
        <time>1970-01-01T01:47:19.000Z</time>
      </trkpt>
      <trkpt lat="42.671938" lon="0.778011">
        <ele>1393.4</ele>
        <time>1970-01-01T01:47:24.000Z</time>
      </trkpt>
      <trkpt lat="42.671925" lon="0.778028">
        <ele>1394</ele>
        <time>1970-01-01T01:47:27.000Z</time>
      </trkpt>
      <trkpt lat="42.671906" lon="0.778048">
        <ele>1393.8</ele>
        <time>1970-01-01T01:48:00.000Z</time>
      </trkpt>
      <trkpt lat="42.671744" lon="0.778156">
        <ele>1394.6</ele>
        <time>1970-01-01T01:48:07.000Z</time>
      </trkpt>
      <trkpt lat="42.671613" lon="0.77822">
        <ele>1395.6</ele>
        <time>1970-01-01T01:48:12.000Z</time>
      </trkpt>
      <trkpt lat="42.67148" lon="0.778278">
        <ele>1396.8</ele>
        <time>1970-01-01T01:48:17.000Z</time>
      </trkpt>
      <trkpt lat="42.671282" lon="0.778341">
        <ele>1397.8</ele>
        <time>1970-01-01T01:48:24.000Z</time>
      </trkpt>
      <trkpt lat="42.671053" lon="0.778392">
        <ele>1399</ele>
        <time>1970-01-01T01:48:32.000Z</time>
      </trkpt>
      <trkpt lat="42.670911" lon="0.778416">
        <ele>1400</ele>
        <time>1970-01-01T01:48:37.000Z</time>
      </trkpt>
      <trkpt lat="42.670823" lon="0.778421">
        <ele>1401.2</ele>
        <time>1970-01-01T01:48:40.000Z</time>
      </trkpt>
      <trkpt lat="42.670618" lon="0.778442">
        <ele>1402.4</ele>
        <time>1970-01-01T01:48:47.000Z</time>
      </trkpt>
      <trkpt lat="42.670408" lon="0.778467">
        <ele>1403.4</ele>
        <time>1970-01-01T01:48:54.000Z</time>
      </trkpt>
      <trkpt lat="42.670197" lon="0.778511">
        <ele>1404.8</ele>
        <time>1970-01-01T01:49:02.000Z</time>
      </trkpt>
      <trkpt lat="42.670048" lon="0.778529">
        <ele>1406</ele>
        <time>1970-01-01T01:49:08.000Z</time>
      </trkpt>
      <trkpt lat="42.669874" lon="0.778477">
        <ele>1407</ele>
        <time>1970-01-01T01:49:14.000Z</time>
      </trkpt>
      <trkpt lat="42.669699" lon="0.778425">
        <ele>1408.2</ele>
        <time>1970-01-01T01:49:21.000Z</time>
      </trkpt>
      <trkpt lat="42.669525" lon="0.778373">
        <ele>1409.2</ele>
        <time>1970-01-01T01:49:28.000Z</time>
      </trkpt>
      <trkpt lat="42.66935" lon="0.778322">
        <ele>1410.4</ele>
        <time>1970-01-01T01:49:36.000Z</time>
      </trkpt>
      <trkpt lat="42.669176" lon="0.77827">
        <ele>1411.4</ele>
        <time>1970-01-01T01:49:45.000Z</time>
      </trkpt>
      <trkpt lat="42.669002" lon="0.778218">
        <ele>1412.4</ele>
        <time>1970-01-01T01:49:50.000Z</time>
      </trkpt>
      <trkpt lat="42.668827" lon="0.778166">
        <ele>1413.6</ele>
        <time>1970-01-01T01:49:58.000Z</time>
      </trkpt>
      <trkpt lat="42.668653" lon="0.778114">
        <ele>1414.6</ele>
        <time>1970-01-01T01:50:06.000Z</time>
      </trkpt>
      <trkpt lat="42.668478" lon="0.778062">
        <ele>1415.8</ele>
        <time>1970-01-01T01:50:15.000Z</time>
      </trkpt>
      <trkpt lat="42.668304" lon="0.77801">
        <ele>1416</ele>
        <time>1970-01-01T01:50:16.000Z</time>
      </trkpt>
      <trkpt lat="42.66813" lon="0.777959">
        <ele>1417</ele>
        <time>1970-01-01T01:50:22.000Z</time>
      </trkpt>
      <trkpt lat="42.667955" lon="0.777907">
        <ele>1418</ele>
        <time>1970-01-01T01:50:27.000Z</time>
      </trkpt>
      <trkpt lat="42.667781" lon="0.777855">
        <ele>1419.2</ele>
        <time>1970-01-01T01:50:34.000Z</time>
      </trkpt>
      <trkpt lat="42.667606" lon="0.777803">
        <ele>1420.2</ele>
        <time>1970-01-01T01:50:41.000Z</time>
      </trkpt>
      <trkpt lat="42.667432" lon="0.777751">
        <ele>1420.4</ele>
        <time>1970-01-01T01:50:46.000Z</time>
      </trkpt>
      <trkpt lat="42.667258" lon="0.777699">
        <ele>1421.2</ele>
        <time>1970-01-01T01:50:50.000Z</time>
      </trkpt>
      <trkpt lat="42.667083" lon="0.777647">
        <ele>1422.2</ele>
        <time>1970-01-01T01:50:58.000Z</time>
      </trkpt>
      <trkpt lat="42.666909" lon="0.777596">
        <ele>1423.2</ele>
        <time>1970-01-01T01:51:03.000Z</time>
      </trkpt>
      <trkpt lat="42.666734" lon="0.777544">
        <ele>1424.4</ele>
        <time>1970-01-01T01:51:12.000Z</time>
      </trkpt>
      <trkpt lat="42.66656" lon="0.777492">
        <ele>1425</ele>
        <time>1970-01-01T01:51:17.000Z</time>
      </trkpt>
      <trkpt lat="42.666385" lon="0.77744">
        <ele>1425.4</ele>
        <time>1970-01-01T01:51:20.000Z</time>
      </trkpt>
      <trkpt lat="42.666211" lon="0.777388">
        <ele>1426.6</ele>
        <time>1970-01-01T01:51:26.000Z</time>
      </trkpt>
      <trkpt lat="42.666037" lon="0.777336">
        <ele>1427.6</ele>
        <time>1970-01-01T01:51:34.000Z</time>
      </trkpt>
      <trkpt lat="42.665862" lon="0.777284">
        <ele>1428.6</ele>
        <time>1970-01-01T01:51:39.000Z</time>
      </trkpt>
      <trkpt lat="42.665688" lon="0.777232">
        <ele>1429.6</ele>
        <time>1970-01-01T01:51:47.000Z</time>
      </trkpt>
      <trkpt lat="42.665513" lon="0.777181">
        <ele>1430</ele>
        <time>1970-01-01T01:51:50.000Z</time>
      </trkpt>
      <trkpt lat="42.665339" lon="0.777129">
        <ele>1430.8</ele>
        <time>1970-01-01T01:51:53.000Z</time>
      </trkpt>
      <trkpt lat="42.665165" lon="0.777077">
        <ele>1431.8</ele>
        <time>1970-01-01T01:51:59.000Z</time>
      </trkpt>
      <trkpt lat="42.66499" lon="0.777025">
        <ele>1432.8</ele>
        <time>1970-01-01T01:52:04.000Z</time>
      </trkpt>
      <trkpt lat="42.664816" lon="0.776973">
        <ele>1434</ele>
        <time>1970-01-01T01:52:12.000Z</time>
      </trkpt>
      <trkpt lat="42.664641" lon="0.776921">
        <ele>1435</ele>
        <time>1970-01-01T01:52:26.000Z</time>
      </trkpt>
      <trkpt lat="42.664467" lon="0.77687">
        <ele>1435</ele>
        <time>1970-01-01T01:52:27.000Z</time>
      </trkpt>
      <trkpt lat="42.664293" lon="0.776818">
        <ele>1436.2</ele>
        <time>1970-01-01T01:52:36.000Z</time>
      </trkpt>
      <trkpt lat="42.664118" lon="0.776766">
        <ele>1437.2</ele>
        <time>1970-01-01T01:52:41.000Z</time>
      </trkpt>
      <trkpt lat="42.663944" lon="0.776714">
        <ele>1438.4</ele>
        <time>1970-01-01T01:52:47.000Z</time>
      </trkpt>
      <trkpt lat="42.663769" lon="0.776662">
        <ele>1439.4</ele>
        <time>1970-01-01T01:52:56.000Z</time>
      </trkpt>
      <trkpt lat="42.663595" lon="0.77661">
        <ele>1439.6</ele>
        <time>1970-01-01T01:53:08.000Z</time>
      </trkpt>
      <trkpt lat="42.663421" lon="0.776558">
        <ele>1440.6</ele>
        <time>1970-01-01T01:53:11.000Z</time>
      </trkpt>
      <trkpt lat="42.663246" lon="0.776507">
        <ele>1441.6</ele>
        <time>1970-01-01T01:53:17.000Z</time>
      </trkpt>
      <trkpt lat="42.663072" lon="0.776455">
        <ele>1442.8</ele>
        <time>1970-01-01T01:53:30.000Z</time>
      </trkpt>
      <trkpt lat="42.662897" lon="0.776403">
        <ele>1444</ele>
        <time>1970-01-01T01:53:40.000Z</time>
      </trkpt>
      <trkpt lat="42.662723" lon="0.776351">
        <ele>1445</ele>
        <time>1970-01-01T01:53:49.000Z</time>
      </trkpt>
      <trkpt lat="42.662549" lon="0.776299">
        <ele>1445.8</ele>
        <time>1970-01-01T01:53:54.000Z</time>
      </trkpt>
      <trkpt lat="42.662374" lon="0.776247">
        <ele>1446.2</ele>
        <time>1970-01-01T01:53:58.000Z</time>
      </trkpt>
      <trkpt lat="42.6622" lon="0.776195">
        <ele>1447.4</ele>
        <time>1970-01-01T01:54:03.000Z</time>
      </trkpt>
      <trkpt lat="42.662025" lon="0.776144">
        <ele>1448.6</ele>
        <time>1970-01-01T01:54:08.000Z</time>
      </trkpt>
      <trkpt lat="42.661851" lon="0.776092">
        <ele>1449.8</ele>
        <time>1970-01-01T01:54:14.000Z</time>
      </trkpt>
      <trkpt lat="42.661677" lon="0.77604">
        <ele>1451</ele>
        <time>1970-01-01T01:54:20.000Z</time>
      </trkpt>
      <trkpt lat="42.661502" lon="0.775988">
        <ele>1452.2</ele>
        <time>1970-01-01T01:54:25.000Z</time>
      </trkpt>
      <trkpt lat="42.661328" lon="0.775936">
        <ele>1453.2</ele>
        <time>1970-01-01T01:54:31.000Z</time>
      </trkpt>
      <trkpt lat="42.661153" lon="0.775884">
        <ele>1454.6</ele>
        <time>1970-01-01T01:54:38.000Z</time>
      </trkpt>
      <trkpt lat="42.660979" lon="0.775832">
        <ele>1455.6</ele>
        <time>1970-01-01T01:54:51.000Z</time>
      </trkpt>
      <trkpt lat="42.660804" lon="0.775781">
        <ele>1455.6</ele>
        <time>1970-01-01T01:54:52.000Z</time>
      </trkpt>
      <trkpt lat="42.66063" lon="0.775729">
        <ele>1457</ele>
        <time>1970-01-01T01:55:01.000Z</time>
      </trkpt>
      <trkpt lat="42.660456" lon="0.775677">
        <ele>1458.2</ele>
        <time>1970-01-01T01:55:05.000Z</time>
      </trkpt>
      <trkpt lat="42.660281" lon="0.775625">
        <ele>1459.4</ele>
        <time>1970-01-01T01:55:13.000Z</time>
      </trkpt>
      <trkpt lat="42.660107" lon="0.775573">
        <ele>1460.4</ele>
        <time>1970-01-01T01:55:20.000Z</time>
      </trkpt>
      <trkpt lat="42.659932" lon="0.775521">
        <ele>1461.6</ele>
        <time>1970-01-01T01:55:27.000Z</time>
      </trkpt>
      <trkpt lat="42.659758" lon="0.77547">
        <ele>1462.6</ele>
        <time>1970-01-01T01:55:37.000Z</time>
      </trkpt>
      <trkpt lat="42.659584" lon="0.775418">
        <ele>1463.6</ele>
        <time>1970-01-01T01:55:49.000Z</time>
      </trkpt>
      <trkpt lat="42.659409" lon="0.775366">
        <ele>1465</ele>
        <time>1970-01-01T01:55:54.000Z</time>
      </trkpt>
      <trkpt lat="42.659235" lon="0.775314">
        <ele>1465.6</ele>
        <time>1970-01-01T01:56:04.000Z</time>
      </trkpt>
      <trkpt lat="42.65906" lon="0.775262">
        <ele>1466.4</ele>
        <time>1970-01-01T01:56:11.000Z</time>
      </trkpt>
      <trkpt lat="42.658886" lon="0.77521">
        <ele>1467.2</ele>
        <time>1970-01-01T01:56:21.000Z</time>
      </trkpt>
      <trkpt lat="42.658712" lon="0.775158">
        <ele>1468.4</ele>
        <time>1970-01-01T01:56:25.000Z</time>
      </trkpt>
      <trkpt lat="42.658537" lon="0.775107">
        <ele>1469.6</ele>
        <time>1970-01-01T01:56:31.000Z</time>
      </trkpt>
      <trkpt lat="42.658363" lon="0.775055">
        <ele>1470.6</ele>
        <time>1970-01-01T01:56:42.000Z</time>
      </trkpt>
      <trkpt lat="42.658188" lon="0.775003">
        <ele>1471.6</ele>
        <time>1970-01-01T01:56:52.000Z</time>
      </trkpt>
      <trkpt lat="42.658014" lon="0.774951">
        <ele>1472.8</ele>
        <time>1970-01-01T01:56:58.000Z</time>
      </trkpt>
      <trkpt lat="42.65784" lon="0.774899">
        <ele>1473.8</ele>
        <time>1970-01-01T01:57:03.000Z</time>
      </trkpt>
      <trkpt lat="42.657665" lon="0.774847">
        <ele>1474.8</ele>
        <time>1970-01-01T01:57:12.000Z</time>
      </trkpt>
      <trkpt lat="42.657491" lon="0.774796">
        <ele>1475.8</ele>
        <time>1970-01-01T01:57:18.000Z</time>
      </trkpt>
      <trkpt lat="42.657316" lon="0.774744">
        <ele>1477</ele>
        <time>1970-01-01T01:57:27.000Z</time>
      </trkpt>
      <trkpt lat="42.657142" lon="0.774692">
        <ele>1478</ele>
        <time>1970-01-01T01:57:32.000Z</time>
      </trkpt>
      <trkpt lat="42.656968" lon="0.77464">
        <ele>1478.4</ele>
        <time>1970-01-01T01:57:35.000Z</time>
      </trkpt>
      <trkpt lat="42.656793" lon="0.774588">
        <ele>1479</ele>
        <time>1970-01-01T01:57:43.000Z</time>
      </trkpt>
      <trkpt lat="42.656619" lon="0.774536">
        <ele>1480</ele>
        <time>1970-01-01T01:57:47.000Z</time>
      </trkpt>
      <trkpt lat="42.656444" lon="0.774485">
        <ele>1481.2</ele>
        <time>1970-01-01T01:57:50.000Z</time>
      </trkpt>
      <trkpt lat="42.65627" lon="0.774433">
        <ele>1482.6</ele>
        <time>1970-01-01T01:57:55.000Z</time>
      </trkpt>
      <trkpt lat="42.656095" lon="0.774381">
        <ele>1483.6</ele>
        <time>1970-01-01T01:58:01.000Z</time>
      </trkpt>
      <trkpt lat="42.655921" lon="0.774329">
        <ele>1484.8</ele>
        <time>1970-01-01T01:58:06.000Z</time>
      </trkpt>
      <trkpt lat="42.655747" lon="0.774277">
        <ele>1485.8</ele>
        <time>1970-01-01T01:58:12.000Z</time>
      </trkpt>
      <trkpt lat="42.655572" lon="0.774225">
        <ele>1486.8</ele>
        <time>1970-01-01T01:58:25.000Z</time>
      </trkpt>
      <trkpt lat="42.655398" lon="0.774173">
        <ele>1488</ele>
        <time>1970-01-01T01:58:29.000Z</time>
      </trkpt>
      <trkpt lat="42.655223" lon="0.774122">
        <ele>1489</ele>
        <time>1970-01-01T01:58:33.000Z</time>
      </trkpt>
      <trkpt lat="42.655049" lon="0.77407">
        <ele>1490.2</ele>
        <time>1970-01-01T01:58:39.000Z</time>
      </trkpt>
      <trkpt lat="42.654875" lon="0.774018">
        <ele>1491.4</ele>
        <time>1970-01-01T01:58:58.000Z</time>
      </trkpt>
      <trkpt lat="42.6547" lon="0.773966">
        <ele>1492.6</ele>
        <time>1970-01-01T01:59:03.000Z</time>
      </trkpt>
      <trkpt lat="42.654526" lon="0.773914">
        <ele>1493.6</ele>
        <time>1970-01-01T01:59:07.000Z</time>
      </trkpt>
      <trkpt lat="42.654351" lon="0.773862">
        <ele>1494.6</ele>
        <time>1970-01-01T01:59:12.000Z</time>
      </trkpt>
      <trkpt lat="42.654177" lon="0.773811">
        <ele>1495.8</ele>
        <time>1970-01-01T01:59:33.000Z</time>
      </trkpt>
      <trkpt lat="42.654003" lon="0.773759">
        <ele>1496.8</ele>
        <time>1970-01-01T01:59:37.000Z</time>
      </trkpt>
      <trkpt lat="42.653828" lon="0.773707">
        <ele>1497.8</ele>
        <time>1970-01-01T01:59:42.000Z</time>
      </trkpt>
      <trkpt lat="42.653654" lon="0.773655">
        <ele>1499</ele>
        <time>1970-01-01T01:59:48.000Z</time>
      </trkpt>
      <trkpt lat="42.653479" lon="0.773603">
        <ele>1499.6</ele>
        <time>1970-01-01T02:00:01.000Z</time>
      </trkpt>
      <trkpt lat="42.653305" lon="0.773551">
        <ele>1500</ele>
        <time>1970-01-01T02:00:03.000Z</time>
      </trkpt>
      <trkpt lat="42.653131" lon="0.7735">
        <ele>1501</ele>
        <time>1970-01-01T02:00:09.000Z</time>
      </trkpt>
      <trkpt lat="42.652956" lon="0.773448">
        <ele>1502.2</ele>
        <time>1970-01-01T02:00:13.000Z</time>
      </trkpt>
      <trkpt lat="42.652782" lon="0.773396">
        <ele>1503.4</ele>
        <time>1970-01-01T02:00:18.000Z</time>
      </trkpt>
      <trkpt lat="42.652607" lon="0.773344">
        <ele>1504.4</ele>
        <time>1970-01-01T02:00:26.000Z</time>
      </trkpt>
      <trkpt lat="42.652433" lon="0.773292">
        <ele>1505.4</ele>
        <time>1970-01-01T02:00:36.000Z</time>
      </trkpt>
      <trkpt lat="42.652259" lon="0.77324">
        <ele>1506.6</ele>
        <time>1970-01-01T02:00:43.000Z</time>
      </trkpt>
      <trkpt lat="42.652084" lon="0.773189">
        <ele>1507.6</ele>
        <time>1970-01-01T02:00:47.000Z</time>
      </trkpt>
      <trkpt lat="42.65191" lon="0.773137">
        <ele>1508.6</ele>
        <time>1970-01-01T02:01:07.000Z</time>
      </trkpt>
      <trkpt lat="42.651735" lon="0.773085">
        <ele>1509.8</ele>
        <time>1970-01-01T02:01:13.000Z</time>
      </trkpt>
      <trkpt lat="42.651561" lon="0.773033">
        <ele>1511.2</ele>
        <time>1970-01-01T02:01:17.000Z</time>
      </trkpt>
      <trkpt lat="42.651386" lon="0.772981">
        <ele>1512.4</ele>
        <time>1970-01-01T02:01:22.000Z</time>
      </trkpt>
      <trkpt lat="42.651212" lon="0.772929">
        <ele>1513.6</ele>
        <time>1970-01-01T02:01:45.000Z</time>
      </trkpt>
      <trkpt lat="42.651038" lon="0.772878">
        <ele>1514.6</ele>
        <time>1970-01-01T02:01:50.000Z</time>
      </trkpt>
      <trkpt lat="42.650863" lon="0.772826">
        <ele>1515.6</ele>
        <time>1970-01-01T02:01:54.000Z</time>
      </trkpt>
      <trkpt lat="42.650689" lon="0.772774">
        <ele>1517.2</ele>
        <time>1970-01-01T02:01:57.000Z</time>
      </trkpt>
      <trkpt lat="42.650514" lon="0.772722">
        <ele>1518.2</ele>
        <time>1970-01-01T02:02:01.000Z</time>
      </trkpt>
      <trkpt lat="42.65034" lon="0.77267">
        <ele>1519.4</ele>
        <time>1970-01-01T02:02:07.000Z</time>
      </trkpt>
      <trkpt lat="42.650166" lon="0.772618">
        <ele>1520.6</ele>
        <time>1970-01-01T02:02:22.000Z</time>
      </trkpt>
      <trkpt lat="42.649991" lon="0.772567">
        <ele>1521.6</ele>
        <time>1970-01-01T02:02:26.000Z</time>
      </trkpt>
      <trkpt lat="42.649817" lon="0.772515">
        <ele>1522.8</ele>
        <time>1970-01-01T02:02:31.000Z</time>
      </trkpt>
      <trkpt lat="42.649642" lon="0.772463">
        <ele>1523.8</ele>
        <time>1970-01-01T02:02:38.000Z</time>
      </trkpt>
      <trkpt lat="42.649468" lon="0.772411">
        <ele>1525.4</ele>
        <time>1970-01-01T02:02:48.000Z</time>
      </trkpt>
      <trkpt lat="42.649294" lon="0.772359">
        <ele>1526.6</ele>
        <time>1970-01-01T02:02:54.000Z</time>
      </trkpt>
      <trkpt lat="42.649119" lon="0.772307">
        <ele>1527.6</ele>
        <time>1970-01-01T02:03:01.000Z</time>
      </trkpt>
      <trkpt lat="42.648945" lon="0.772256">
        <ele>1528.6</ele>
        <time>1970-01-01T02:03:08.000Z</time>
      </trkpt>
      <trkpt lat="42.64877" lon="0.772204">
        <ele>1529.6</ele>
        <time>1970-01-01T02:03:17.000Z</time>
      </trkpt>
      <trkpt lat="42.648596" lon="0.772152">
        <ele>1530.6</ele>
        <time>1970-01-01T02:03:30.000Z</time>
      </trkpt>
      <trkpt lat="42.648422" lon="0.7721">
        <ele>1531.8</ele>
        <time>1970-01-01T02:03:36.000Z</time>
      </trkpt>
      <trkpt lat="42.648247" lon="0.772048">
        <ele>1532.8</ele>
        <time>1970-01-01T02:03:39.000Z</time>
      </trkpt>
      <trkpt lat="42.648073" lon="0.771996">
        <ele>1534</ele>
        <time>1970-01-01T02:03:42.000Z</time>
      </trkpt>
      <trkpt lat="42.647898" lon="0.771945">
        <ele>1535</ele>
        <time>1970-01-01T02:03:52.000Z</time>
      </trkpt>
      <trkpt lat="42.647724" lon="0.771893">
        <ele>1536</ele>
        <time>1970-01-01T02:04:02.000Z</time>
      </trkpt>
      <trkpt lat="42.64755" lon="0.771841">
        <ele>1537.2</ele>
        <time>1970-01-01T02:04:06.000Z</time>
      </trkpt>
      <trkpt lat="42.647375" lon="0.771789">
        <ele>1538.4</ele>
        <time>1970-01-01T02:04:11.000Z</time>
      </trkpt>
      <trkpt lat="42.647201" lon="0.771737">
        <ele>1539.4</ele>
        <time>1970-01-01T02:04:26.000Z</time>
      </trkpt>
      <trkpt lat="42.647026" lon="0.771686">
        <ele>1540.4</ele>
        <time>1970-01-01T02:04:35.000Z</time>
      </trkpt>
      <trkpt lat="42.646852" lon="0.771634">
        <ele>1541.8</ele>
        <time>1970-01-01T02:04:40.000Z</time>
      </trkpt>
      <trkpt lat="42.646677" lon="0.771582">
        <ele>1542.8</ele>
        <time>1970-01-01T02:04:57.000Z</time>
      </trkpt>
      <trkpt lat="42.646503" lon="0.77153">
        <ele>1543.8</ele>
        <time>1970-01-01T02:05:01.000Z</time>
      </trkpt>
      <trkpt lat="42.646329" lon="0.771478">
        <ele>1545</ele>
        <time>1970-01-01T02:05:07.000Z</time>
      </trkpt>
      <trkpt lat="42.646154" lon="0.771426">
        <ele>1546.4</ele>
        <time>1970-01-01T02:05:10.000Z</time>
      </trkpt>
      <trkpt lat="42.64598" lon="0.771375">
        <ele>1547.4</ele>
        <time>1970-01-01T02:05:13.000Z</time>
      </trkpt>
      <trkpt lat="42.645805" lon="0.771323">
        <ele>1548.8</ele>
        <time>1970-01-01T02:05:15.000Z</time>
      </trkpt>
      <trkpt lat="42.645631" lon="0.771271">
        <ele>1550</ele>
        <time>1970-01-01T02:05:18.000Z</time>
      </trkpt>
      <trkpt lat="42.645457" lon="0.771219">
        <ele>1551</ele>
        <time>1970-01-01T02:05:37.000Z</time>
      </trkpt>
      <trkpt lat="42.645282" lon="0.771167">
        <ele>1552.2</ele>
        <time>1970-01-01T02:05:42.000Z</time>
      </trkpt>
      <trkpt lat="42.645108" lon="0.771115">
        <ele>1553.4</ele>
        <time>1970-01-01T02:05:48.000Z</time>
      </trkpt>
      <trkpt lat="42.644933" lon="0.771064">
        <ele>1554.4</ele>
        <time>1970-01-01T02:05:57.000Z</time>
      </trkpt>
      <trkpt lat="42.644759" lon="0.771012">
        <ele>1555.6</ele>
        <time>1970-01-01T02:06:10.000Z</time>
      </trkpt>
      <trkpt lat="42.644585" lon="0.77096">
        <ele>1556.8</ele>
        <time>1970-01-01T02:06:13.000Z</time>
      </trkpt>
      <trkpt lat="42.64441" lon="0.770908">
        <ele>1557.8</ele>
        <time>1970-01-01T02:06:17.000Z</time>
      </trkpt>
      <trkpt lat="42.644236" lon="0.770856">
        <ele>1559</ele>
        <time>1970-01-01T02:06:25.000Z</time>
      </trkpt>
      <trkpt lat="42.644061" lon="0.770805">
        <ele>1560</ele>
        <time>1970-01-01T02:06:45.000Z</time>
      </trkpt>
      <trkpt lat="42.643887" lon="0.770753">
        <ele>1561.6</ele>
        <time>1970-01-01T02:06:49.000Z</time>
      </trkpt>
      <trkpt lat="42.643713" lon="0.770701">
        <ele>1563.2</ele>
        <time>1970-01-01T02:06:52.000Z</time>
      </trkpt>
      <trkpt lat="42.643538" lon="0.770649">
        <ele>1564.2</ele>
        <time>1970-01-01T02:07:00.000Z</time>
      </trkpt>
      <trkpt lat="42.643364" lon="0.770597">
        <ele>1565.4</ele>
        <time>1970-01-01T02:07:18.000Z</time>
      </trkpt>
      <trkpt lat="42.643189" lon="0.770545">
        <ele>1566.4</ele>
        <time>1970-01-01T02:07:21.000Z</time>
      </trkpt>
      <trkpt lat="42.643015" lon="0.770494">
        <ele>1567.6</ele>
        <time>1970-01-01T02:07:25.000Z</time>
      </trkpt>
      <trkpt lat="42.64284" lon="0.770442">
        <ele>1568.8</ele>
        <time>1970-01-01T02:07:33.000Z</time>
      </trkpt>
      <trkpt lat="42.642666" lon="0.77039">
        <ele>1569.8</ele>
        <time>1970-01-01T02:07:46.000Z</time>
      </trkpt>
      <trkpt lat="42.642492" lon="0.770338">
        <ele>1570.8</ele>
        <time>1970-01-01T02:07:53.000Z</time>
      </trkpt>
      <trkpt lat="42.642317" lon="0.770286">
        <ele>1572.4</ele>
        <time>1970-01-01T02:07:57.000Z</time>
      </trkpt>
      <trkpt lat="42.642143" lon="0.770235">
        <ele>1573.6</ele>
        <time>1970-01-01T02:08:01.000Z</time>
      </trkpt>
      <trkpt lat="42.641968" lon="0.770183">
        <ele>1574.6</ele>
        <time>1970-01-01T02:08:11.000Z</time>
      </trkpt>
      <trkpt lat="42.641794" lon="0.770131">
        <ele>1575.6</ele>
        <time>1970-01-01T02:08:26.000Z</time>
      </trkpt>
      <trkpt lat="42.64162" lon="0.770079">
        <ele>1576.6</ele>
        <time>1970-01-01T02:08:31.000Z</time>
      </trkpt>
      <trkpt lat="42.641445" lon="0.770027">
        <ele>1577.8</ele>
        <time>1970-01-01T02:08:35.000Z</time>
      </trkpt>
      <trkpt lat="42.641271" lon="0.769975">
        <ele>1578.8</ele>
        <time>1970-01-01T02:08:47.000Z</time>
      </trkpt>
      <trkpt lat="42.641096" lon="0.769924">
        <ele>1580</ele>
        <time>1970-01-01T02:08:51.000Z</time>
      </trkpt>
      <trkpt lat="42.640922" lon="0.769872">
        <ele>1581.2</ele>
        <time>1970-01-01T02:08:57.000Z</time>
      </trkpt>
      <trkpt lat="42.640748" lon="0.76982">
        <ele>1582.2</ele>
        <time>1970-01-01T02:09:02.000Z</time>
      </trkpt>
      <trkpt lat="42.640573" lon="0.769768">
        <ele>1583.4</ele>
        <time>1970-01-01T02:09:09.000Z</time>
      </trkpt>
      <trkpt lat="42.640399" lon="0.769716">
        <ele>1584.4</ele>
        <time>1970-01-01T02:09:21.000Z</time>
      </trkpt>
      <trkpt lat="42.640224" lon="0.769665">
        <ele>1585.6</ele>
        <time>1970-01-01T02:09:31.000Z</time>
      </trkpt>
      <trkpt lat="42.64005" lon="0.769613">
        <ele>1586.6</ele>
        <time>1970-01-01T02:09:40.000Z</time>
      </trkpt>
      <trkpt lat="42.639876" lon="0.769561">
        <ele>1587.6</ele>
        <time>1970-01-01T02:09:49.000Z</time>
      </trkpt>
      <trkpt lat="42.639701" lon="0.769509">
        <ele>1588.8</ele>
        <time>1970-01-01T02:10:08.000Z</time>
      </trkpt>
      <trkpt lat="42.639527" lon="0.769457">
        <ele>1589.8</ele>
        <time>1970-01-01T02:10:16.000Z</time>
      </trkpt>
      <trkpt lat="42.639352" lon="0.769405">
        <ele>1588.4</ele>
        <time>1970-01-01T02:11:15.000Z</time>
      </trkpt>
      <trkpt lat="42.639178" lon="0.769354">
        <ele>1587.2</ele>
        <time>1970-01-01T02:11:26.000Z</time>
      </trkpt>
      <trkpt lat="42.639003" lon="0.769302">
        <ele>1586.2</ele>
        <time>1970-01-01T02:11:32.000Z</time>
      </trkpt>
      <trkpt lat="42.638829" lon="0.76925">
        <ele>1585.2</ele>
        <time>1970-01-01T02:11:38.000Z</time>
      </trkpt>
      <trkpt lat="42.638655" lon="0.769198">
        <ele>1584.2</ele>
        <time>1970-01-01T02:11:47.000Z</time>
      </trkpt>
      <trkpt lat="42.63848" lon="0.769146">
        <ele>1583.4</ele>
        <time>1970-01-01T02:12:00.000Z</time>
      </trkpt>
      <trkpt lat="42.638306" lon="0.769095">
        <ele>1583</ele>
        <time>1970-01-01T02:12:03.000Z</time>
      </trkpt>
      <trkpt lat="42.638131" lon="0.769043">
        <ele>1582</ele>
        <time>1970-01-01T02:12:13.000Z</time>
      </trkpt>
      <trkpt lat="42.637957" lon="0.768991">
        <ele>1581.6</ele>
        <time>1970-01-01T02:12:22.000Z</time>
      </trkpt>
      <trkpt lat="42.623694" lon="0.764755">
        <ele>1581.2</ele>
        <time>1970-01-01T02:12:26.000Z</time>
      </trkpt>
      <trkpt lat="42.623487" lon="0.764804">
        <ele>1580.8</ele>
        <time>1970-01-01T02:12:30.000Z</time>
      </trkpt>
      <trkpt lat="42.623014" lon="0.764942">
        <ele>1579.6</ele>
        <time>1970-01-01T02:12:38.000Z</time>
      </trkpt>
      <trkpt lat="42.622743" lon="0.76502">
        <ele>1578.6</ele>
        <time>1970-01-01T02:12:42.000Z</time>
      </trkpt>
      <trkpt lat="42.622522" lon="0.765083">
        <ele>1577.2</ele>
        <time>1970-01-01T02:12:45.000Z</time>
      </trkpt>
      <trkpt lat="42.622283" lon="0.765126">
        <ele>1576</ele>
        <time>1970-01-01T02:12:48.000Z</time>
      </trkpt>
      <trkpt lat="42.622115" lon="0.765144">
        <ele>1575</ele>
        <time>1970-01-01T02:12:50.000Z</time>
      </trkpt>
      <trkpt lat="42.621939" lon="0.765151">
        <ele>1573.8</ele>
        <time>1970-01-01T02:12:52.000Z</time>
      </trkpt>
      <trkpt lat="42.621667" lon="0.765145">
        <ele>1572.8</ele>
        <time>1970-01-01T02:12:55.000Z</time>
      </trkpt>
      <trkpt lat="42.621425" lon="0.765144">
        <ele>1571.6</ele>
        <time>1970-01-01T02:12:58.000Z</time>
      </trkpt>
      <trkpt lat="42.621257" lon="0.765133">
        <ele>1570.6</ele>
        <time>1970-01-01T02:13:00.000Z</time>
      </trkpt>
      <trkpt lat="42.620996" lon="0.765085">
        <ele>1569</ele>
        <time>1970-01-01T02:13:03.000Z</time>
      </trkpt>
      <trkpt lat="42.620756" lon="0.76504">
        <ele>1567.6</ele>
        <time>1970-01-01T02:13:06.000Z</time>
      </trkpt>
      <trkpt lat="42.62069" lon="0.765018">
        <ele>1567.2</ele>
        <time>1970-01-01T02:13:07.000Z</time>
      </trkpt>
      <trkpt lat="42.620585" lon="0.764974">
        <ele>1566.2</ele>
        <time>1970-01-01T02:13:09.000Z</time>
      </trkpt>
      <trkpt lat="42.620487" lon="0.764953">
        <ele>1565</ele>
        <time>1970-01-01T02:13:12.000Z</time>
      </trkpt>
      <trkpt lat="42.620468" lon="0.764953">
        <ele>1564.6</ele>
        <time>1970-01-01T02:13:15.000Z</time>
      </trkpt>
      <trkpt lat="42.620434" lon="0.764954">
        <ele>1565</ele>
        <time>1970-01-01T02:15:01.000Z</time>
      </trkpt>
      <trkpt lat="42.620012" lon="0.764898">
        <ele>1563.2</ele>
        <time>1970-01-01T02:15:12.000Z</time>
      </trkpt>
      <trkpt lat="42.619774" lon="0.764872">
        <ele>1562</ele>
        <time>1970-01-01T02:15:16.000Z</time>
      </trkpt>
      <trkpt lat="42.619508" lon="0.764841">
        <ele>1560.6</ele>
        <time>1970-01-01T02:15:20.000Z</time>
      </trkpt>
      <trkpt lat="42.619285" lon="0.764821">
        <ele>1559.4</ele>
        <time>1970-01-01T02:15:23.000Z</time>
      </trkpt>
      <trkpt lat="42.619044" lon="0.764796">
        <ele>1558</ele>
        <time>1970-01-01T02:15:26.000Z</time>
      </trkpt>
      <trkpt lat="42.618715" lon="0.764761">
        <ele>1556.8</ele>
        <time>1970-01-01T02:15:30.000Z</time>
      </trkpt>
      <trkpt lat="42.6184" lon="0.76473">
        <ele>1555.8</ele>
        <time>1970-01-01T02:15:34.000Z</time>
      </trkpt>
      <trkpt lat="42.618037" lon="0.764689">
        <ele>1554.6</ele>
        <time>1970-01-01T02:15:39.000Z</time>
      </trkpt>
      <trkpt lat="42.617768" lon="0.76466">
        <ele>1553.4</ele>
        <time>1970-01-01T02:15:43.000Z</time>
      </trkpt>
      <trkpt lat="42.617247" lon="0.764634">
        <ele>1552.2</ele>
        <time>1970-01-01T02:15:51.000Z</time>
      </trkpt>
      <trkpt lat="42.616942" lon="0.764592">
        <ele>1551</ele>
        <time>1970-01-01T02:15:56.000Z</time>
      </trkpt>
      <trkpt lat="42.616855" lon="0.764602">
        <ele>1550.6</ele>
        <time>1970-01-01T02:15:59.000Z</time>
      </trkpt>
      <trkpt lat="42.61684" lon="0.764627">
        <ele>1550.4</ele>
        <time>1970-01-01T02:16:02.000Z</time>
      </trkpt>
      <trkpt lat="42.616802" lon="0.764649">
        <ele>1550.2</ele>
        <time>1970-01-01T02:16:07.000Z</time>
      </trkpt>
      <trkpt lat="42.616659" lon="0.764646">
        <ele>1550</ele>
        <time>1970-01-01T02:16:12.000Z</time>
      </trkpt>
      <trkpt lat="42.616167" lon="0.764972">
        <ele>1549</ele>
        <time>1970-01-01T02:16:25.000Z</time>
      </trkpt>
      <trkpt lat="42.616135" lon="0.76501">
        <ele>1548.6</ele>
        <time>1970-01-01T02:16:26.000Z</time>
      </trkpt>
      <trkpt lat="42.616089" lon="0.765082">
        <ele>1548</ele>
        <time>1970-01-01T02:16:30.000Z</time>
      </trkpt>
      <trkpt lat="42.616069" lon="0.765131">
        <ele>1547.8</ele>
        <time>1970-01-01T02:16:34.000Z</time>
      </trkpt>
      <trkpt lat="42.615992" lon="0.76528">
        <ele>1547.8</ele>
        <time>1970-01-01T02:16:38.000Z</time>
      </trkpt>
      <trkpt lat="42.615964" lon="0.765323">
        <ele>1547.8</ele>
        <time>1970-01-01T02:16:39.000Z</time>
      </trkpt>
      <trkpt lat="42.615903" lon="0.765412">
        <ele>1547.8</ele>
        <time>1970-01-01T02:16:41.000Z</time>
      </trkpt>
      <trkpt lat="42.615774" lon="0.765564">
        <ele>1547.6</ele>
        <time>1970-01-01T02:16:45.000Z</time>
      </trkpt>
      <trkpt lat="42.615552" lon="0.765878">
        <ele>1546.6</ele>
        <time>1970-01-01T02:16:53.000Z</time>
      </trkpt>
      <trkpt lat="42.615394" lon="0.766173">
        <ele>1546</ele>
        <time>1970-01-01T02:17:00.000Z</time>
      </trkpt>
      <trkpt lat="42.615292" lon="0.766366">
        <ele>1545.4</ele>
        <time>1970-01-01T02:17:04.000Z</time>
      </trkpt>
      <trkpt lat="42.615257" lon="0.766406">
        <ele>1545.2</ele>
        <time>1970-01-01T02:17:05.000Z</time>
      </trkpt>
      <trkpt lat="42.615137" lon="0.766643">
        <ele>1544.2</ele>
        <time>1970-01-01T02:17:14.000Z</time>
      </trkpt>
      <trkpt lat="42.615137" lon="0.766656">
        <ele>1544.2</ele>
        <time>1970-01-01T02:17:16.000Z</time>
      </trkpt>
      <trkpt lat="42.615111" lon="0.766743">
        <ele>1544.6</ele>
        <time>1970-01-01T02:23:05.000Z</time>
      </trkpt>
      <trkpt lat="42.614716" lon="0.767279">
        <ele>1543.6</ele>
        <time>1970-01-01T02:23:24.000Z</time>
      </trkpt>
      <trkpt lat="42.614677" lon="0.767324">
        <ele>1543.4</ele>
        <time>1970-01-01T02:23:25.000Z</time>
      </trkpt>
      <trkpt lat="42.614562" lon="0.767469">
        <ele>1542.2</ele>
        <time>1970-01-01T02:23:28.000Z</time>
      </trkpt>
      <trkpt lat="42.614374" lon="0.767683">
        <ele>1541</ele>
        <time>1970-01-01T02:23:34.000Z</time>
      </trkpt>
      <trkpt lat="42.614179" lon="0.767846">
        <ele>1539.8</ele>
        <time>1970-01-01T02:23:43.000Z</time>
      </trkpt>
      <trkpt lat="42.613807" lon="0.768296">
        <ele>1541</ele>
        <time>1970-01-01T02:23:59.000Z</time>
      </trkpt>
      <trkpt lat="42.613716" lon="0.768463">
        <ele>1542</ele>
        <time>1970-01-01T02:24:05.000Z</time>
      </trkpt>
      <trkpt lat="42.61346" lon="0.768586">
        <ele>1542.8</ele>
        <time>1970-01-01T02:24:17.000Z</time>
      </trkpt>
      <trkpt lat="42.613052" lon="0.768437">
        <ele>1542</ele>
        <time>1970-01-01T02:24:28.000Z</time>
      </trkpt>
      <trkpt lat="42.612895" lon="0.768399">
        <ele>1541</ele>
        <time>1970-01-01T02:24:31.000Z</time>
      </trkpt>
      <trkpt lat="42.61284" lon="0.768385">
        <ele>1540.6</ele>
        <time>1970-01-01T02:24:32.000Z</time>
      </trkpt>
      <trkpt lat="42.612785" lon="0.768382">
        <ele>1540</ele>
        <time>1970-01-01T02:24:33.000Z</time>
      </trkpt>
      <trkpt lat="42.612727" lon="0.768382">
        <ele>1539.8</ele>
        <time>1970-01-01T02:24:34.000Z</time>
      </trkpt>
      <trkpt lat="42.612503" lon="0.768352">
        <ele>1538.8</ele>
        <time>1970-01-01T02:24:38.000Z</time>
      </trkpt>
      <trkpt lat="42.612444" lon="0.768343">
        <ele>1538.4</ele>
        <time>1970-01-01T02:24:39.000Z</time>
      </trkpt>
      <trkpt lat="42.612254" lon="0.768289">
        <ele>1537.2</ele>
        <time>1970-01-01T02:24:42.000Z</time>
      </trkpt>
      <trkpt lat="42.612086" lon="0.768274">
        <ele>1536.4</ele>
        <time>1970-01-01T02:24:45.000Z</time>
      </trkpt>
      <trkpt lat="42.611784" lon="0.768383">
        <ele>1536.6</ele>
        <time>1970-01-01T02:24:57.000Z</time>
      </trkpt>
      <trkpt lat="42.611682" lon="0.768431">
        <ele>1534.8</ele>
        <time>1970-01-01T02:25:46.000Z</time>
      </trkpt>
      <trkpt lat="42.611478" lon="0.768401">
        <ele>1533.4</ele>
        <time>1970-01-01T02:25:50.000Z</time>
      </trkpt>
      <trkpt lat="42.611428" lon="0.768404">
        <ele>1533</ele>
        <time>1970-01-01T02:25:51.000Z</time>
      </trkpt>
      <trkpt lat="42.611319" lon="0.768399">
        <ele>1532.4</ele>
        <time>1970-01-01T02:25:53.000Z</time>
      </trkpt>
      <trkpt lat="42.611213" lon="0.768417">
        <ele>1531.6</ele>
        <time>1970-01-01T02:25:55.000Z</time>
      </trkpt>
      <trkpt lat="42.611167" lon="0.768433">
        <ele>1531</ele>
        <time>1970-01-01T02:25:56.000Z</time>
      </trkpt>
      <trkpt lat="42.611068" lon="0.768474">
        <ele>1530.2</ele>
        <time>1970-01-01T02:25:58.000Z</time>
      </trkpt>
      <trkpt lat="42.611024" lon="0.768491">
        <ele>1529.8</ele>
        <time>1970-01-01T02:25:59.000Z</time>
      </trkpt>
      <trkpt lat="42.610863" lon="0.768583">
        <ele>1528.8</ele>
        <time>1970-01-01T02:26:03.000Z</time>
      </trkpt>
      <trkpt lat="42.610702" lon="0.768725">
        <ele>1527.4</ele>
        <time>1970-01-01T02:26:08.000Z</time>
      </trkpt>
      <trkpt lat="42.610662" lon="0.768745">
        <ele>1527</ele>
        <time>1970-01-01T02:26:09.000Z</time>
      </trkpt>
      <trkpt lat="42.61058" lon="0.768752">
        <ele>1526.2</ele>
        <time>1970-01-01T02:26:11.000Z</time>
      </trkpt>
      <trkpt lat="42.610453" lon="0.768731">
        <ele>1525</ele>
        <time>1970-01-01T02:26:14.000Z</time>
      </trkpt>
      <trkpt lat="42.610358" lon="0.768702">
        <ele>1523.8</ele>
        <time>1970-01-01T02:26:16.000Z</time>
      </trkpt>
      <trkpt lat="42.610259" lon="0.768674">
        <ele>1523</ele>
        <time>1970-01-01T02:26:18.000Z</time>
      </trkpt>
      <trkpt lat="42.610213" lon="0.76867">
        <ele>1522.4</ele>
        <time>1970-01-01T02:26:19.000Z</time>
      </trkpt>
      <trkpt lat="42.610092" lon="0.768668">
        <ele>1521</ele>
        <time>1970-01-01T02:26:22.000Z</time>
      </trkpt>
      <trkpt lat="42.610033" lon="0.76865">
        <ele>1520.4</ele>
        <time>1970-01-01T02:26:23.000Z</time>
      </trkpt>
      <trkpt lat="42.609924" lon="0.768604">
        <ele>1519.8</ele>
        <time>1970-01-01T02:26:25.000Z</time>
      </trkpt>
      <trkpt lat="42.609873" lon="0.768573">
        <ele>1519.6</ele>
        <time>1970-01-01T02:26:26.000Z</time>
      </trkpt>
      <trkpt lat="42.609736" lon="0.7685">
        <ele>1519</ele>
        <time>1970-01-01T02:26:29.000Z</time>
      </trkpt>
      <trkpt lat="42.609648" lon="0.768492">
        <ele>1518.6</ele>
        <time>1970-01-01T02:26:31.000Z</time>
      </trkpt>
      <trkpt lat="42.609464" lon="0.768485">
        <ele>1517.2</ele>
        <time>1970-01-01T02:26:35.000Z</time>
      </trkpt>
      <trkpt lat="42.609416" lon="0.768488">
        <ele>1516.6</ele>
        <time>1970-01-01T02:26:36.000Z</time>
      </trkpt>
      <trkpt lat="42.609319" lon="0.768485">
        <ele>1516</ele>
        <time>1970-01-01T02:26:38.000Z</time>
      </trkpt>
      <trkpt lat="42.609051" lon="0.768472">
        <ele>1514.8</ele>
        <time>1970-01-01T02:26:43.000Z</time>
      </trkpt>
      <trkpt lat="42.608998" lon="0.768463">
        <ele>1514.4</ele>
        <time>1970-01-01T02:26:44.000Z</time>
      </trkpt>
      <trkpt lat="42.608903" lon="0.768462">
        <ele>1513.8</ele>
        <time>1970-01-01T02:26:46.000Z</time>
      </trkpt>
      <trkpt lat="42.608703" lon="0.768436">
        <ele>1512.6</ele>
        <time>1970-01-01T02:26:50.000Z</time>
      </trkpt>
      <trkpt lat="42.608595" lon="0.768423">
        <ele>1511.4</ele>
        <time>1970-01-01T02:26:52.000Z</time>
      </trkpt>
      <trkpt lat="42.608317" lon="0.768372">
        <ele>1510.6</ele>
        <time>1970-01-01T02:26:57.000Z</time>
      </trkpt>
      <trkpt lat="42.608225" lon="0.768341">
        <ele>1510</ele>
        <time>1970-01-01T02:26:59.000Z</time>
      </trkpt>
      <trkpt lat="42.608113" lon="0.768279">
        <ele>1508.8</ele>
        <time>1970-01-01T02:27:04.000Z</time>
      </trkpt>
      <trkpt lat="42.608015" lon="0.768233">
        <ele>1507.4</ele>
        <time>1970-01-01T02:27:08.000Z</time>
      </trkpt>
      <trkpt lat="42.607902" lon="0.768158">
        <ele>1506</ele>
        <time>1970-01-01T02:27:13.000Z</time>
      </trkpt>
      <trkpt lat="42.607809" lon="0.768137">
        <ele>1504.8</ele>
        <time>1970-01-01T02:27:17.000Z</time>
      </trkpt>
      <trkpt lat="42.607714" lon="0.768152">
        <ele>1504</ele>
        <time>1970-01-01T02:27:23.000Z</time>
      </trkpt>
      <trkpt lat="42.607818" lon="0.76814">
        <ele>1504.4</ele>
        <time>1970-01-01T02:27:37.000Z</time>
      </trkpt>
      <trkpt lat="42.60779" lon="0.768047">
        <ele>1503</ele>
        <time>1970-01-01T02:27:46.000Z</time>
      </trkpt>
      <trkpt lat="42.607729" lon="0.768054">
        <ele>1502</ele>
        <time>1970-01-01T02:28:18.000Z</time>
      </trkpt>
      <trkpt lat="42.607615" lon="0.767977">
        <ele>1500.8</ele>
        <time>1970-01-01T02:28:23.000Z</time>
      </trkpt>
      <trkpt lat="42.607398" lon="0.767864">
        <ele>1499.2</ele>
        <time>1970-01-01T02:28:29.000Z</time>
      </trkpt>
      <trkpt lat="42.607333" lon="0.76772">
        <ele>1498.8</ele>
        <time>1970-01-01T02:28:32.000Z</time>
      </trkpt>
      <trkpt lat="42.60724" lon="0.76755">
        <ele>1498</ele>
        <time>1970-01-01T02:28:36.000Z</time>
      </trkpt>
      <trkpt lat="42.607207" lon="0.767514">
        <ele>1497.6</ele>
        <time>1970-01-01T02:28:37.000Z</time>
      </trkpt>
      <trkpt lat="42.607133" lon="0.767465">
        <ele>1496.8</ele>
        <time>1970-01-01T02:28:39.000Z</time>
      </trkpt>
      <trkpt lat="42.606991" lon="0.767376">
        <ele>1495.6</ele>
        <time>1970-01-01T02:28:43.000Z</time>
      </trkpt>
      <trkpt lat="42.60684" lon="0.76728">
        <ele>1494.4</ele>
        <time>1970-01-01T02:28:48.000Z</time>
      </trkpt>
      <trkpt lat="42.60676" lon="0.767198">
        <ele>1493.4</ele>
        <time>1970-01-01T02:28:52.000Z</time>
      </trkpt>
      <trkpt lat="42.606684" lon="0.767129">
        <ele>1492.4</ele>
        <time>1970-01-01T02:28:57.000Z</time>
      </trkpt>
      <trkpt lat="42.606661" lon="0.767139">
        <ele>1491.8</ele>
        <time>1970-01-01T02:29:00.000Z</time>
      </trkpt>
      <trkpt lat="42.606619" lon="0.767087">
        <ele>1491.4</ele>
        <time>1970-01-01T02:29:04.000Z</time>
      </trkpt>
      <trkpt lat="42.606585" lon="0.76707">
        <ele>1491</ele>
        <time>1970-01-01T02:29:06.000Z</time>
      </trkpt>
      <trkpt lat="42.60611" lon="0.767323">
        <ele>1492.4</ele>
        <time>1970-01-01T02:29:30.000Z</time>
      </trkpt>
      <trkpt lat="42.606069" lon="0.76752">
        <ele>1493.4</ele>
        <time>1970-01-01T02:29:37.000Z</time>
      </trkpt>
      <trkpt lat="42.606022" lon="0.767639">
        <ele>1494.4</ele>
        <time>1970-01-01T02:29:42.000Z</time>
      </trkpt>
      <trkpt lat="42.605929" lon="0.767761">
        <ele>1495.6</ele>
        <time>1970-01-01T02:29:50.000Z</time>
      </trkpt>
      <trkpt lat="42.605816" lon="0.767856">
        <ele>1496.6</ele>
        <time>1970-01-01T02:29:57.000Z</time>
      </trkpt>
      <trkpt lat="42.605729" lon="0.767911">
        <ele>1497.8</ele>
        <time>1970-01-01T02:30:02.000Z</time>
      </trkpt>
      <trkpt lat="42.605611" lon="0.767987">
        <ele>1498.8</ele>
        <time>1970-01-01T02:30:09.000Z</time>
      </trkpt>
      <trkpt lat="42.605541" lon="0.768025">
        <ele>1499.8</ele>
        <time>1970-01-01T02:30:13.000Z</time>
      </trkpt>
      <trkpt lat="42.605328" lon="0.767878">
        <ele>1499</ele>
        <time>1970-01-01T02:30:25.000Z</time>
      </trkpt>
      <trkpt lat="42.605392" lon="0.767671">
        <ele>1498.6</ele>
        <time>1970-01-01T02:30:33.000Z</time>
      </trkpt>
      <trkpt lat="42.605404" lon="0.767585">
        <ele>1497.6</ele>
        <time>1970-01-01T02:30:37.000Z</time>
      </trkpt>
      <trkpt lat="42.605402" lon="0.767557">
        <ele>1497.4</ele>
        <time>1970-01-01T02:30:38.000Z</time>
      </trkpt>
      <trkpt lat="42.605394" lon="0.767528">
        <ele>1497.2</ele>
        <time>1970-01-01T02:30:39.000Z</time>
      </trkpt>
      <trkpt lat="42.605355" lon="0.767446">
        <ele>1496.6</ele>
        <time>1970-01-01T02:30:42.000Z</time>
      </trkpt>
      <trkpt lat="42.605343" lon="0.767417">
        <ele>1496.2</ele>
        <time>1970-01-01T02:30:43.000Z</time>
      </trkpt>
      <trkpt lat="42.605322" lon="0.767355">
        <ele>1495.4</ele>
        <time>1970-01-01T02:30:46.000Z</time>
      </trkpt>
      <trkpt lat="42.605323" lon="0.767353">
        <ele>1495.2</ele>
        <time>1970-01-01T02:30:47.000Z</time>
      </trkpt>
      <trkpt lat="42.605255" lon="0.767224">
        <ele>1493</ele>
        <time>1970-01-01T02:31:06.000Z</time>
      </trkpt>
      <trkpt lat="42.605191" lon="0.767181">
        <ele>1492</ele>
        <time>1970-01-01T02:31:10.000Z</time>
      </trkpt>
      <trkpt lat="42.605175" lon="0.767164">
        <ele>1491.8</ele>
        <time>1970-01-01T02:31:11.000Z</time>
      </trkpt>
      <trkpt lat="42.605163" lon="0.767143">
        <ele>1491.4</ele>
        <time>1970-01-01T02:31:12.000Z</time>
      </trkpt>
      <trkpt lat="42.605144" lon="0.767093">
        <ele>1491</ele>
        <time>1970-01-01T02:31:14.000Z</time>
      </trkpt>
      <trkpt lat="42.605073" lon="0.766964">
        <ele>1489.8</ele>
        <time>1970-01-01T02:31:19.000Z</time>
      </trkpt>
      <trkpt lat="42.604989" lon="0.766864">
        <ele>1489.2</ele>
        <time>1970-01-01T02:31:26.000Z</time>
      </trkpt>
      <trkpt lat="42.604959" lon="0.766844">
        <ele>1488.8</ele>
        <time>1970-01-01T02:31:28.000Z</time>
      </trkpt>
      <trkpt lat="42.604882" lon="0.766782">
        <ele>1487.6</ele>
        <time>1970-01-01T02:31:33.000Z</time>
      </trkpt>
      <trkpt lat="42.604802" lon="0.766763">
        <ele>1486.4</ele>
        <time>1970-01-01T02:31:38.000Z</time>
      </trkpt>
      <trkpt lat="42.604622" lon="0.766739">
        <ele>1485.4</ele>
        <time>1970-01-01T02:31:44.000Z</time>
      </trkpt>
      <trkpt lat="42.604479" lon="0.766683">
        <ele>1484.4</ele>
        <time>1970-01-01T02:31:52.000Z</time>
      </trkpt>
      <trkpt lat="42.604451" lon="0.766677">
        <ele>1484</ele>
        <time>1970-01-01T02:31:55.000Z</time>
      </trkpt>
      <trkpt lat="42.603765" lon="0.766453">
        <ele>1481.6</ele>
        <time>1970-01-01T02:36:02.000Z</time>
      </trkpt>
      <trkpt lat="42.603689" lon="0.766403">
        <ele>1481.4</ele>
        <time>1970-01-01T02:36:06.000Z</time>
      </trkpt>
      <trkpt lat="42.603622" lon="0.766368">
        <ele>1481.2</ele>
        <time>1970-01-01T02:36:10.000Z</time>
      </trkpt>
      <trkpt lat="42.603591" lon="0.766355">
        <ele>1481</ele>
        <time>1970-01-01T02:36:12.000Z</time>
      </trkpt>
      <trkpt lat="42.603516" lon="0.766332">
        <ele>1480.8</ele>
        <time>1970-01-01T02:36:16.000Z</time>
      </trkpt>
      <trkpt lat="42.60334" lon="0.766298">
        <ele>1482</ele>
        <time>1970-01-01T02:36:32.000Z</time>
      </trkpt>
      <trkpt lat="42.602878" lon="0.765983">
        <ele>1480.8</ele>
        <time>1970-01-01T02:36:52.000Z</time>
      </trkpt>
      <trkpt lat="42.602696" lon="0.765853">
        <ele>1479.8</ele>
        <time>1970-01-01T02:36:59.000Z</time>
      </trkpt>
      <trkpt lat="42.602493" lon="0.765728">
        <ele>1478.6</ele>
        <time>1970-01-01T02:37:04.000Z</time>
      </trkpt>
      <trkpt lat="42.602297" lon="0.765611">
        <ele>1477.4</ele>
        <time>1970-01-01T02:37:08.000Z</time>
      </trkpt>
      <trkpt lat="42.60217" lon="0.765565">
        <ele>1476.2</ele>
        <time>1970-01-01T02:37:13.000Z</time>
      </trkpt>
      <trkpt lat="42.602155" lon="0.765543">
        <ele>1476.2</ele>
        <time>1970-01-01T02:37:15.000Z</time>
      </trkpt>
      <trkpt lat="42.602065" lon="0.765464">
        <ele>1475.8</ele>
        <time>1970-01-01T02:37:21.000Z</time>
      </trkpt>
      <trkpt lat="42.601922" lon="0.765401">
        <ele>1476.4</ele>
        <time>1970-01-01T02:37:29.000Z</time>
      </trkpt>
      <trkpt lat="42.60181" lon="0.765337">
        <ele>1476</ele>
        <time>1970-01-01T02:37:37.000Z</time>
      </trkpt>
      <trkpt lat="42.60175" lon="0.765311">
        <ele>1475.4</ele>
        <time>1970-01-01T02:38:22.000Z</time>
      </trkpt>
      <trkpt lat="42.601606" lon="0.765221">
        <ele>1474.2</ele>
        <time>1970-01-01T02:38:27.000Z</time>
      </trkpt>
      <trkpt lat="42.601502" lon="0.765122">
        <ele>1473</ele>
        <time>1970-01-01T02:38:30.000Z</time>
      </trkpt>
      <trkpt lat="42.601459" lon="0.765091">
        <ele>1472.4</ele>
        <time>1970-01-01T02:38:31.000Z</time>
      </trkpt>
      <trkpt lat="42.60141" lon="0.765068">
        <ele>1472</ele>
        <time>1970-01-01T02:38:32.000Z</time>
      </trkpt>
      <trkpt lat="42.601286" lon="0.765063">
        <ele>1470.6</ele>
        <time>1970-01-01T02:38:35.000Z</time>
      </trkpt>
      <trkpt lat="42.601231" lon="0.765078">
        <ele>1470.4</ele>
        <time>1970-01-01T02:38:37.000Z</time>
      </trkpt>
      <trkpt lat="42.60087" lon="0.765041">
        <ele>1469.4</ele>
        <time>1970-01-01T02:38:54.000Z</time>
      </trkpt>
      <trkpt lat="42.60083" lon="0.765038">
        <ele>1469.2</ele>
        <time>1970-01-01T02:38:56.000Z</time>
      </trkpt>
      <trkpt lat="42.60077" lon="0.765023">
        <ele>1469</ele>
        <time>1970-01-01T02:39:03.000Z</time>
      </trkpt>
      <trkpt lat="42.600544" lon="0.76501">
        <ele>1468</ele>
        <time>1970-01-01T02:39:31.000Z</time>
      </trkpt>
      <trkpt lat="42.600363" lon="0.765063">
        <ele>1467.2</ele>
        <time>1970-01-01T02:39:41.000Z</time>
      </trkpt>
      <trkpt lat="42.60033" lon="0.765082">
        <ele>1467</ele>
        <time>1970-01-01T02:39:43.000Z</time>
      </trkpt>
      <trkpt lat="42.600293" lon="0.765082">
        <ele>1467</ele>
        <time>1970-01-01T02:39:45.000Z</time>
      </trkpt>
      <trkpt lat="42.60012" lon="0.765058">
        <ele>1466.4</ele>
        <time>1970-01-01T02:39:55.000Z</time>
      </trkpt>
      <trkpt lat="42.600066" lon="0.765039">
        <ele>1466.8</ele>
        <time>1970-01-01T02:40:00.000Z</time>
      </trkpt>
      <trkpt lat="42.59996" lon="0.764992">
        <ele>1468</ele>
        <time>1970-01-01T02:40:08.000Z</time>
      </trkpt>
      <trkpt lat="42.599943" lon="0.765001">
        <ele>1468.4</ele>
        <time>1970-01-01T02:40:11.000Z</time>
      </trkpt>
      <trkpt lat="42.599691" lon="0.764821">
        <ele>1472.2</ele>
        <time>1970-01-01T02:40:54.000Z</time>
      </trkpt>
      <trkpt lat="42.599602" lon="0.764762">
        <ele>1473.4</ele>
        <time>1970-01-01T02:41:00.000Z</time>
      </trkpt>
      <trkpt lat="42.599368" lon="0.764684">
        <ele>1474.4</ele>
        <time>1970-01-01T02:41:14.000Z</time>
      </trkpt>
      <trkpt lat="42.599349" lon="0.764685">
        <ele>1474.4</ele>
        <time>1970-01-01T02:41:15.000Z</time>
      </trkpt>
      <trkpt lat="42.59914" lon="0.764548">
        <ele>1473.4</ele>
        <time>1970-01-01T02:41:25.000Z</time>
      </trkpt>
      <trkpt lat="42.598957" lon="0.764437">
        <ele>1472.4</ele>
        <time>1970-01-01T02:41:32.000Z</time>
      </trkpt>
      <trkpt lat="42.598831" lon="0.764401">
        <ele>1471.4</ele>
        <time>1970-01-01T02:41:37.000Z</time>
      </trkpt>
      <trkpt lat="42.598789" lon="0.764324">
        <ele>1470.2</ele>
        <time>1970-01-01T02:41:40.000Z</time>
      </trkpt>
      <trkpt lat="42.598761" lon="0.764261">
        <ele>1469</ele>
        <time>1970-01-01T02:41:43.000Z</time>
      </trkpt>
      <trkpt lat="42.598726" lon="0.764206">
        <ele>1468</ele>
        <time>1970-01-01T02:41:46.000Z</time>
      </trkpt>
      <trkpt lat="42.598701" lon="0.764167">
        <ele>1467</ele>
        <time>1970-01-01T02:41:48.000Z</time>
      </trkpt>
      <trkpt lat="42.598662" lon="0.764089">
        <ele>1465.6</ele>
        <time>1970-01-01T02:41:51.000Z</time>
      </trkpt>
      <trkpt lat="42.598618" lon="0.764027">
        <ele>1464.6</ele>
        <time>1970-01-01T02:41:53.000Z</time>
      </trkpt>
      <trkpt lat="42.598584" lon="0.763961">
        <ele>1463.4</ele>
        <time>1970-01-01T02:41:55.000Z</time>
      </trkpt>
      <trkpt lat="42.598508" lon="0.763876">
        <ele>1462.4</ele>
        <time>1970-01-01T02:42:00.000Z</time>
      </trkpt>
      <trkpt lat="42.598485" lon="0.763867">
        <ele>1462.4</ele>
        <time>1970-01-01T02:42:01.000Z</time>
      </trkpt>
      <trkpt lat="42.598373" lon="0.76384">
        <ele>1462.2</ele>
        <time>1970-01-01T02:42:06.000Z</time>
      </trkpt>
      <trkpt lat="42.598153" lon="0.763854">
        <ele>1463.4</ele>
        <time>1970-01-01T02:42:17.000Z</time>
      </trkpt>
      <trkpt lat="42.59807" lon="0.763878">
        <ele>1464.4</ele>
        <time>1970-01-01T02:42:21.000Z</time>
      </trkpt>
      <trkpt lat="42.597929" lon="0.763941">
        <ele>1465.6</ele>
        <time>1970-01-01T02:42:27.000Z</time>
      </trkpt>
      <trkpt lat="42.597887" lon="0.763954">
        <ele>1466.2</ele>
        <time>1970-01-01T02:42:29.000Z</time>
      </trkpt>
      <trkpt lat="42.597843" lon="0.763956">
        <ele>1466.6</ele>
        <time>1970-01-01T02:42:31.000Z</time>
      </trkpt>
      <trkpt lat="42.597776" lon="0.763962">
        <ele>1468</ele>
        <time>1970-01-01T02:42:35.000Z</time>
      </trkpt>
      <trkpt lat="42.597293" lon="0.763705">
        <ele>1466.6</ele>
        <time>1970-01-01T02:42:51.000Z</time>
      </trkpt>
      <trkpt lat="42.597233" lon="0.763679">
        <ele>1465.6</ele>
        <time>1970-01-01T02:42:53.000Z</time>
      </trkpt>
      <trkpt lat="42.597139" lon="0.763648">
        <ele>1464</ele>
        <time>1970-01-01T02:42:56.000Z</time>
      </trkpt>
      <trkpt lat="42.597071" lon="0.763637">
        <ele>1462.6</ele>
        <time>1970-01-01T02:42:58.000Z</time>
      </trkpt>
      <trkpt lat="42.597008" lon="0.763626">
        <ele>1460.8</ele>
        <time>1970-01-01T02:43:00.000Z</time>
      </trkpt>
      <trkpt lat="42.59692" lon="0.763598">
        <ele>1459.8</ele>
        <time>1970-01-01T02:43:02.000Z</time>
      </trkpt>
      <trkpt lat="42.596792" lon="0.763519">
        <ele>1458.2</ele>
        <time>1970-01-01T02:43:05.000Z</time>
      </trkpt>
      <trkpt lat="42.596697" lon="0.763452">
        <ele>1456.8</ele>
        <time>1970-01-01T02:43:07.000Z</time>
      </trkpt>
      <trkpt lat="42.596643" lon="0.763432">
        <ele>1456</ele>
        <time>1970-01-01T02:43:08.000Z</time>
      </trkpt>
      <trkpt lat="42.596585" lon="0.763424">
        <ele>1455.4</ele>
        <time>1970-01-01T02:43:09.000Z</time>
      </trkpt>
      <trkpt lat="42.596469" lon="0.763412">
        <ele>1454</ele>
        <time>1970-01-01T02:43:11.000Z</time>
      </trkpt>
      <trkpt lat="42.59636" lon="0.763412">
        <ele>1452.6</ele>
        <time>1970-01-01T02:43:13.000Z</time>
      </trkpt>
      <trkpt lat="42.596184" lon="0.76341">
        <ele>1451.4</ele>
        <time>1970-01-01T02:43:16.000Z</time>
      </trkpt>
      <trkpt lat="42.595976" lon="0.763389">
        <ele>1450.4</ele>
        <time>1970-01-01T02:43:20.000Z</time>
      </trkpt>
      <trkpt lat="42.59575" lon="0.763392">
        <ele>1449</ele>
        <time>1970-01-01T02:43:24.000Z</time>
      </trkpt>
      <trkpt lat="42.595436" lon="0.763465">
        <ele>1448</ele>
        <time>1970-01-01T02:43:30.000Z</time>
      </trkpt>
      <trkpt lat="42.595341" lon="0.763507">
        <ele>1447.8</ele>
        <time>1970-01-01T02:43:32.000Z</time>
      </trkpt>
      <trkpt lat="42.594926" lon="0.763632">
        <ele>1448.2</ele>
        <time>1970-01-01T02:43:43.000Z</time>
      </trkpt>
      <trkpt lat="42.594794" lon="0.763661">
        <ele>1448.4</ele>
        <time>1970-01-01T02:43:47.000Z</time>
      </trkpt>
      <trkpt lat="42.594553" lon="0.763677">
        <ele>1449.4</ele>
        <time>1970-01-01T02:43:55.000Z</time>
      </trkpt>
      <trkpt lat="42.593992" lon="0.763679">
        <ele>1449.6</ele>
        <time>1970-01-01T02:44:11.000Z</time>
      </trkpt>
      <trkpt lat="42.593835" lon="0.763606">
        <ele>1450.4</ele>
        <time>1970-01-01T02:44:16.000Z</time>
      </trkpt>
      <trkpt lat="42.593663" lon="0.763484">
        <ele>1451.4</ele>
        <time>1970-01-01T02:44:22.000Z</time>
      </trkpt>
      <trkpt lat="42.593516" lon="0.763378">
        <ele>1451.6</ele>
        <time>1970-01-01T02:44:27.000Z</time>
      </trkpt>
      <trkpt lat="42.59343" lon="0.763324">
        <ele>1452.2</ele>
        <time>1970-01-01T02:44:30.000Z</time>
      </trkpt>
      <trkpt lat="42.59311" lon="0.763269">
        <ele>1452.2</ele>
        <time>1970-01-01T02:44:39.000Z</time>
      </trkpt>
      <trkpt lat="42.593018" lon="0.763311">
        <ele>1451.8</ele>
        <time>1970-01-01T02:44:41.000Z</time>
      </trkpt>
      <trkpt lat="42.592875" lon="0.763466">
        <ele>1451</ele>
        <time>1970-01-01T02:44:45.000Z</time>
      </trkpt>
      <trkpt lat="42.592835" lon="0.763515">
        <ele>1450.6</ele>
        <time>1970-01-01T02:44:46.000Z</time>
      </trkpt>
      <trkpt lat="42.592692" lon="0.76363">
        <ele>1449.4</ele>
        <time>1970-01-01T02:44:50.000Z</time>
      </trkpt>
      <trkpt lat="42.592205" lon="0.763916">
        <ele>1450</ele>
        <time>1970-01-01T02:45:11.000Z</time>
      </trkpt>
      <trkpt lat="42.59173" lon="0.763986">
        <ele>1449</ele>
        <time>1970-01-01T02:45:21.000Z</time>
      </trkpt>
      <trkpt lat="42.591539" lon="0.764001">
        <ele>1447.8</ele>
        <time>1970-01-01T02:45:24.000Z</time>
      </trkpt>
      <trkpt lat="42.591367" lon="0.764002">
        <ele>1447.6</ele>
        <time>1970-01-01T02:45:27.000Z</time>
      </trkpt>
      <trkpt lat="42.591011" lon="0.763969">
        <ele>1447.6</ele>
        <time>1970-01-01T02:45:34.000Z</time>
      </trkpt>
      <trkpt lat="42.59046" lon="0.763884">
        <ele>1448.6</ele>
        <time>1970-01-01T02:45:49.000Z</time>
      </trkpt>
      <trkpt lat="42.590394" lon="0.763851">
        <ele>1448.8</ele>
        <time>1970-01-01T02:45:51.000Z</time>
      </trkpt>
      <trkpt lat="42.59019" lon="0.763832">
        <ele>1449</ele>
        <time>1970-01-01T02:45:56.000Z</time>
      </trkpt>
      <trkpt lat="42.589649" lon="0.763959">
        <ele>1449.4</ele>
        <time>1970-01-01T02:46:10.000Z</time>
      </trkpt>
      <trkpt lat="42.589353" lon="0.763994">
        <ele>1449.8</ele>
        <time>1970-01-01T02:46:18.000Z</time>
      </trkpt>
      <trkpt lat="42.589148" lon="0.763974">
        <ele>1451.2</ele>
        <time>1970-01-01T02:46:25.000Z</time>
      </trkpt>
      <trkpt lat="42.588701" lon="0.763972">
        <ele>1450.2</ele>
        <time>1970-01-01T02:46:37.000Z</time>
      </trkpt>
      <trkpt lat="42.588485" lon="0.763954">
        <ele>1448.8</ele>
        <time>1970-01-01T02:46:41.000Z</time>
      </trkpt>
      <trkpt lat="42.588315" lon="0.763864">
        <ele>1447.6</ele>
        <time>1970-01-01T02:46:44.000Z</time>
      </trkpt>
      <trkpt lat="42.588227" lon="0.76379">
        <ele>1447</ele>
        <time>1970-01-01T02:46:46.000Z</time>
      </trkpt>
      <trkpt lat="42.587755" lon="0.763507">
        <ele>1446.6</ele>
        <time>1970-01-01T02:46:57.000Z</time>
      </trkpt>
      <trkpt lat="42.587715" lon="0.763474">
        <ele>1446.6</ele>
        <time>1970-01-01T02:46:58.000Z</time>
      </trkpt>
      <trkpt lat="42.587486" lon="0.763278">
        <ele>1447.2</ele>
        <time>1970-01-01T02:47:07.000Z</time>
      </trkpt>
      <trkpt lat="42.587431" lon="0.763226">
        <ele>1447.2</ele>
        <time>1970-01-01T02:47:12.000Z</time>
      </trkpt>
      <trkpt lat="42.587418" lon="0.76321">
        <ele>1447.2</ele>
        <time>1970-01-01T02:49:22.000Z</time>
      </trkpt>
      <trkpt lat="42.587266" lon="0.763127">
        <ele>1447</ele>
        <time>1970-01-01T02:49:30.000Z</time>
      </trkpt>
      <trkpt lat="42.587061" lon="0.76315">
        <ele>1446</ele>
        <time>1970-01-01T02:49:35.000Z</time>
      </trkpt>
      <trkpt lat="42.586758" lon="0.763057">
        <ele>1447.2</ele>
        <time>1970-01-01T02:49:46.000Z</time>
      </trkpt>
      <trkpt lat="42.586699" lon="0.763035">
        <ele>1448.6</ele>
        <time>1970-01-01T02:49:49.000Z</time>
      </trkpt>
      <trkpt lat="42.586228" lon="0.763026">
        <ele>1447.4</ele>
        <time>1970-01-01T02:50:04.000Z</time>
      </trkpt>
      <trkpt lat="42.585782" lon="0.763086">
        <ele>1446.4</ele>
        <time>1970-01-01T02:50:16.000Z</time>
      </trkpt>
      <trkpt lat="42.585301" lon="0.763408">
        <ele>1447.6</ele>
        <time>1970-01-01T02:50:35.000Z</time>
      </trkpt>
      <trkpt lat="42.584767" lon="0.763599">
        <ele>1447.8</ele>
        <time>1970-01-01T02:50:52.000Z</time>
      </trkpt>
      <trkpt lat="42.584385" lon="0.763559">
        <ele>1447.8</ele>
        <time>1970-01-01T02:51:06.000Z</time>
      </trkpt>
      <trkpt lat="42.584293" lon="0.763495">
        <ele>1447.4</ele>
        <time>1970-01-01T02:51:11.000Z</time>
      </trkpt>
      <trkpt lat="42.584191" lon="0.763476">
        <ele>1446.8</ele>
        <time>1970-01-01T02:51:15.000Z</time>
      </trkpt>
      <trkpt lat="42.583992" lon="0.763581">
        <ele>1447.8</ele>
        <time>1970-01-01T02:51:25.000Z</time>
      </trkpt>
      <trkpt lat="42.583779" lon="0.763714">
        <ele>1449</ele>
        <time>1970-01-01T02:51:35.000Z</time>
      </trkpt>
      <trkpt lat="42.583631" lon="0.763749">
        <ele>1450.2</ele>
        <time>1970-01-01T02:51:42.000Z</time>
      </trkpt>
      <trkpt lat="42.583492" lon="0.763812">
        <ele>1451.6</ele>
        <time>1970-01-01T02:51:48.000Z</time>
      </trkpt>
      <trkpt lat="42.583374" lon="0.763904">
        <ele>1452.8</ele>
        <time>1970-01-01T02:51:54.000Z</time>
      </trkpt>
      <trkpt lat="42.583264" lon="0.763928">
        <ele>1453.8</ele>
        <time>1970-01-01T02:52:00.000Z</time>
      </trkpt>
      <trkpt lat="42.583231" lon="0.763921">
        <ele>1454.2</ele>
        <time>1970-01-01T02:52:02.000Z</time>
      </trkpt>
      <trkpt lat="42.583209" lon="0.763892">
        <ele>1454.6</ele>
        <time>1970-01-01T02:52:04.000Z</time>
      </trkpt>
      <trkpt lat="42.583186" lon="0.763815">
        <ele>1455</ele>
        <time>1970-01-01T02:52:07.000Z</time>
      </trkpt>
      <trkpt lat="42.583136" lon="0.76377">
        <ele>1455.2</ele>
        <time>1970-01-01T02:52:09.000Z</time>
      </trkpt>
      <trkpt lat="42.582883" lon="0.763655">
        <ele>1454.6</ele>
        <time>1970-01-01T02:52:16.000Z</time>
      </trkpt>
      <trkpt lat="42.582787" lon="0.763625">
        <ele>1454</ele>
        <time>1970-01-01T02:52:18.000Z</time>
      </trkpt>
      <trkpt lat="42.582683" lon="0.763599">
        <ele>1453.2</ele>
        <time>1970-01-01T02:52:20.000Z</time>
      </trkpt>
      <trkpt lat="42.582632" lon="0.763595">
        <ele>1453</ele>
        <time>1970-01-01T02:52:21.000Z</time>
      </trkpt>
      <trkpt lat="42.582377" lon="0.763576">
        <ele>1452</ele>
        <time>1970-01-01T02:52:28.000Z</time>
      </trkpt>
      <trkpt lat="42.582056" lon="0.763614">
        <ele>1453.2</ele>
        <time>1970-01-01T02:52:39.000Z</time>
      </trkpt>
      <trkpt lat="42.581927" lon="0.763646">
        <ele>1454.4</ele>
        <time>1970-01-01T02:52:44.000Z</time>
      </trkpt>
      <trkpt lat="42.581846" lon="0.763682">
        <ele>1455.6</ele>
        <time>1970-01-01T02:52:48.000Z</time>
      </trkpt>
      <trkpt lat="42.581768" lon="0.763747">
        <ele>1456.8</ele>
        <time>1970-01-01T02:52:53.000Z</time>
      </trkpt>
      <trkpt lat="42.581695" lon="0.763789">
        <ele>1458.2</ele>
        <time>1970-01-01T02:52:57.000Z</time>
      </trkpt>
      <trkpt lat="42.581606" lon="0.763819">
        <ele>1459.2</ele>
        <time>1970-01-01T02:53:02.000Z</time>
      </trkpt>
      <trkpt lat="42.581441" lon="0.763822">
        <ele>1460.4</ele>
        <time>1970-01-01T02:53:10.000Z</time>
      </trkpt>
      <trkpt lat="42.581297" lon="0.763845">
        <ele>1461.4</ele>
        <time>1970-01-01T02:53:18.000Z</time>
      </trkpt>
      <trkpt lat="42.581178" lon="0.763853">
        <ele>1462.8</ele>
        <time>1970-01-01T02:53:25.000Z</time>
      </trkpt>
      <trkpt lat="42.581084" lon="0.763841">
        <ele>1464</ele>
        <time>1970-01-01T02:53:31.000Z</time>
      </trkpt>
      <trkpt lat="42.580978" lon="0.763812">
        <ele>1465</ele>
        <time>1970-01-01T02:53:37.000Z</time>
      </trkpt>
      <trkpt lat="42.58091" lon="0.76379">
        <ele>1466</ele>
        <time>1970-01-01T02:53:41.000Z</time>
      </trkpt>
      <trkpt lat="42.580781" lon="0.763757">
        <ele>1467</ele>
        <time>1970-01-01T02:53:49.000Z</time>
      </trkpt>
      <trkpt lat="42.580716" lon="0.763715">
        <ele>1467.4</ele>
        <time>1970-01-01T02:53:53.000Z</time>
      </trkpt>
      <trkpt lat="42.580613" lon="0.763657">
        <ele>1468.2</ele>
        <time>1970-01-01T02:53:59.000Z</time>
      </trkpt>
      <trkpt lat="42.580543" lon="0.763644">
        <ele>1469.2</ele>
        <time>1970-01-01T02:54:03.000Z</time>
      </trkpt>
      <trkpt lat="42.580525" lon="0.763637">
        <ele>1469.2</ele>
        <time>1970-01-01T02:54:04.000Z</time>
      </trkpt>
      <trkpt lat="42.58045" lon="0.763582">
        <ele>1470.4</ele>
        <time>1970-01-01T02:54:09.000Z</time>
      </trkpt>
      <trkpt lat="42.580424" lon="0.763564">
        <ele>1471.4</ele>
        <time>1970-01-01T02:54:12.000Z</time>
      </trkpt>
      <trkpt lat="42.580369" lon="0.763528">
        <ele>1472.6</ele>
        <time>1970-01-01T02:54:17.000Z</time>
      </trkpt>
      <trkpt lat="42.580284" lon="0.763487">
        <ele>1473.8</ele>
        <time>1970-01-01T02:54:24.000Z</time>
      </trkpt>
      <trkpt lat="42.580192" lon="0.763437">
        <ele>1474.8</ele>
        <time>1970-01-01T02:54:30.000Z</time>
      </trkpt>
      <trkpt lat="42.580089" lon="0.763422">
        <ele>1475.8</ele>
        <time>1970-01-01T02:54:36.000Z</time>
      </trkpt>
      <trkpt lat="42.579944" lon="0.763401">
        <ele>1476.8</ele>
        <time>1970-01-01T02:54:44.000Z</time>
      </trkpt>
      <trkpt lat="42.579928" lon="0.763391">
        <ele>1477</ele>
        <time>1970-01-01T02:54:45.000Z</time>
      </trkpt>
      <trkpt lat="42.579866" lon="0.763348">
        <ele>1477.8</ele>
        <time>1970-01-01T02:54:50.000Z</time>
      </trkpt>
      <trkpt lat="42.579802" lon="0.763286">
        <ele>1478.8</ele>
        <time>1970-01-01T02:54:56.000Z</time>
      </trkpt>
      <trkpt lat="42.579795" lon="0.763267">
        <ele>1479</ele>
        <time>1970-01-01T02:54:57.000Z</time>
      </trkpt>
      <trkpt lat="42.579748" lon="0.763212">
        <ele>1480</ele>
        <time>1970-01-01T02:55:01.000Z</time>
      </trkpt>
      <trkpt lat="42.579679" lon="0.763163">
        <ele>1480.6</ele>
        <time>1970-01-01T02:55:06.000Z</time>
      </trkpt>
      <trkpt lat="42.57965" lon="0.763152">
        <ele>1481</ele>
        <time>1970-01-01T02:55:08.000Z</time>
      </trkpt>
      <trkpt lat="42.579572" lon="0.763142">
        <ele>1482.2</ele>
        <time>1970-01-01T02:55:14.000Z</time>
      </trkpt>
      <trkpt lat="42.579472" lon="0.763122">
        <ele>1483.2</ele>
        <time>1970-01-01T02:55:21.000Z</time>
      </trkpt>
      <trkpt lat="42.579391" lon="0.763079">
        <ele>1484.2</ele>
        <time>1970-01-01T02:55:27.000Z</time>
      </trkpt>
      <trkpt lat="42.579305" lon="0.763013">
        <ele>1485.2</ele>
        <time>1970-01-01T02:55:34.000Z</time>
      </trkpt>
      <trkpt lat="42.579239" lon="0.762987">
        <ele>1486.2</ele>
        <time>1970-01-01T02:55:39.000Z</time>
      </trkpt>
      <trkpt lat="42.579135" lon="0.76295">
        <ele>1487.4</ele>
        <time>1970-01-01T02:55:46.000Z</time>
      </trkpt>
      <trkpt lat="42.579096" lon="0.762909">
        <ele>1488.4</ele>
        <time>1970-01-01T02:55:50.000Z</time>
      </trkpt>
      <trkpt lat="42.579062" lon="0.762845">
        <ele>1489.4</ele>
        <time>1970-01-01T02:55:55.000Z</time>
      </trkpt>
      <trkpt lat="42.579051" lon="0.76283">
        <ele>1489.6</ele>
        <time>1970-01-01T02:55:56.000Z</time>
      </trkpt>
      <trkpt lat="42.578991" lon="0.762674">
        <ele>1490.4</ele>
        <time>1970-01-01T02:56:04.000Z</time>
      </trkpt>
      <trkpt lat="42.57893" lon="0.762558">
        <ele>1491.6</ele>
        <time>1970-01-01T02:56:11.000Z</time>
      </trkpt>
      <trkpt lat="42.578913" lon="0.762521">
        <ele>1492</ele>
        <time>1970-01-01T02:56:13.000Z</time>
      </trkpt>
      <trkpt lat="42.578893" lon="0.762466">
        <ele>1492.6</ele>
        <time>1970-01-01T02:56:16.000Z</time>
      </trkpt>
      <trkpt lat="42.578882" lon="0.762455">
        <ele>1492.8</ele>
        <time>1970-01-01T02:56:17.000Z</time>
      </trkpt>
      <trkpt lat="42.578815" lon="0.762402">
        <ele>1493.8</ele>
        <time>1970-01-01T02:56:23.000Z</time>
      </trkpt>
      <trkpt lat="42.578747" lon="0.762326">
        <ele>1495</ele>
        <time>1970-01-01T02:56:29.000Z</time>
      </trkpt>
      <trkpt lat="42.57867" lon="0.762277">
        <ele>1496</ele>
        <time>1970-01-01T02:56:35.000Z</time>
      </trkpt>
      <trkpt lat="42.578606" lon="0.76226">
        <ele>1497.2</ele>
        <time>1970-01-01T02:56:40.000Z</time>
      </trkpt>
      <trkpt lat="42.578535" lon="0.762265">
        <ele>1498.4</ele>
        <time>1970-01-01T02:56:45.000Z</time>
      </trkpt>
      <trkpt lat="42.578493" lon="0.762277">
        <ele>1499.4</ele>
        <time>1970-01-01T02:56:49.000Z</time>
      </trkpt>
      <trkpt lat="42.578434" lon="0.762319">
        <ele>1500.8</ele>
        <time>1970-01-01T02:56:55.000Z</time>
      </trkpt>
      <trkpt lat="42.578425" lon="0.762327">
        <ele>1501</ele>
        <time>1970-01-01T02:56:56.000Z</time>
      </trkpt>
      <trkpt lat="42.578388" lon="0.762394">
        <ele>1502</ele>
        <time>1970-01-01T02:57:01.000Z</time>
      </trkpt>
      <trkpt lat="42.578363" lon="0.762513">
        <ele>1503</ele>
        <time>1970-01-01T02:57:09.000Z</time>
      </trkpt>
      <trkpt lat="42.578354" lon="0.762549">
        <ele>1503.2</ele>
        <time>1970-01-01T02:57:11.000Z</time>
      </trkpt>
      <trkpt lat="42.578295" lon="0.762702">
        <ele>1504</ele>
        <time>1970-01-01T02:57:19.000Z</time>
      </trkpt>
      <trkpt lat="42.578256" lon="0.762848">
        <ele>1505.4</ele>
        <time>1970-01-01T02:57:26.000Z</time>
      </trkpt>
      <trkpt lat="42.578206" lon="0.762904">
        <ele>1506.2</ele>
        <time>1970-01-01T02:57:31.000Z</time>
      </trkpt>
      <trkpt lat="42.578165" lon="0.762915">
        <ele>1506.4</ele>
        <time>1970-01-01T02:57:34.000Z</time>
      </trkpt>
      <trkpt lat="42.578119" lon="0.762921">
        <ele>1506.6</ele>
        <time>1970-01-01T02:57:37.000Z</time>
      </trkpt>
      <trkpt lat="42.57805" lon="0.762866">
        <ele>1507.4</ele>
        <time>1970-01-01T02:57:45.000Z</time>
      </trkpt>
      <trkpt lat="42.578014" lon="0.762824">
        <ele>1507.6</ele>
        <time>1970-01-01T02:57:48.000Z</time>
      </trkpt>
      <trkpt lat="42.577938" lon="0.762759">
        <ele>1508.4</ele>
        <time>1970-01-01T02:57:54.000Z</time>
      </trkpt>
      <trkpt lat="42.577929" lon="0.762733">
        <ele>1508.8</ele>
        <time>1970-01-01T02:57:56.000Z</time>
      </trkpt>
      <trkpt lat="42.57787" lon="0.762647">
        <ele>1510</ele>
        <time>1970-01-01T02:58:03.000Z</time>
      </trkpt>
      <trkpt lat="42.577845" lon="0.762612">
        <ele>1510.4</ele>
        <time>1970-01-01T02:58:06.000Z</time>
      </trkpt>
      <trkpt lat="42.577803" lon="0.76256">
        <ele>1511</ele>
        <time>1970-01-01T02:58:10.000Z</time>
      </trkpt>
      <trkpt lat="42.577759" lon="0.762449">
        <ele>1512.2</ele>
        <time>1970-01-01T02:58:17.000Z</time>
      </trkpt>
      <trkpt lat="42.577589" lon="0.762091">
        <ele>1512.6</ele>
        <time>1970-01-01T02:58:32.000Z</time>
      </trkpt>
      <trkpt lat="42.577326" lon="0.761667">
        <ele>1513.4</ele>
        <time>1970-01-01T02:58:49.000Z</time>
      </trkpt>
      <trkpt lat="42.577217" lon="0.760977">
        <ele>1512.8</ele>
        <time>1970-01-01T02:59:06.000Z</time>
      </trkpt>
      <trkpt lat="42.577143" lon="0.760857">
        <ele>1512.4</ele>
        <time>1970-01-01T02:59:09.000Z</time>
      </trkpt>
      <trkpt lat="42.57712" lon="0.760799">
        <ele>1512</ele>
        <time>1970-01-01T02:59:10.000Z</time>
      </trkpt>
      <trkpt lat="42.57706" lon="0.76069">
        <ele>1511.2</ele>
        <time>1970-01-01T02:59:12.000Z</time>
      </trkpt>
      <trkpt lat="42.576887" lon="0.760598">
        <ele>1509.8</ele>
        <time>1970-01-01T02:59:16.000Z</time>
      </trkpt>
      <trkpt lat="42.576657" lon="0.760697">
        <ele>1509</ele>
        <time>1970-01-01T02:59:22.000Z</time>
      </trkpt>
      <trkpt lat="42.57652" lon="0.760827">
        <ele>1509.6</ele>
        <time>1970-01-01T02:59:27.000Z</time>
      </trkpt>
      <trkpt lat="42.576342" lon="0.761123">
        <ele>1507.8</ele>
        <time>1970-01-01T02:59:38.000Z</time>
      </trkpt>
      <trkpt lat="42.576342" lon="0.761121">
        <ele>1507.8</ele>
        <time>1970-01-01T02:59:39.000Z</time>
      </trkpt>
      <trkpt lat="42.576338" lon="0.76115">
        <ele>1507.4</ele>
        <time>1970-01-01T02:59:51.000Z</time>
      </trkpt>
      <trkpt lat="42.576325" lon="0.761184">
        <ele>1507.4</ele>
        <time>1970-01-01T02:59:54.000Z</time>
      </trkpt>
      <trkpt lat="42.576311" lon="0.761213">
        <ele>1506.8</ele>
        <time>1970-01-01T03:00:02.000Z</time>
      </trkpt>
      <trkpt lat="42.576255" lon="0.76145">
        <ele>1506</ele>
        <time>1970-01-01T03:00:07.000Z</time>
      </trkpt>
      <trkpt lat="42.576241" lon="0.761562">
        <ele>1505.2</ele>
        <time>1970-01-01T03:00:09.000Z</time>
      </trkpt>
      <trkpt lat="42.57623" lon="0.761612">
        <ele>1504.6</ele>
        <time>1970-01-01T03:00:10.000Z</time>
      </trkpt>
      <trkpt lat="42.576207" lon="0.76168">
        <ele>1502.8</ele>
        <time>1970-01-01T03:00:12.000Z</time>
      </trkpt>
      <trkpt lat="42.576187" lon="0.761734">
        <ele>1501.2</ele>
        <time>1970-01-01T03:00:14.000Z</time>
      </trkpt>
      <trkpt lat="42.576165" lon="0.761782">
        <ele>1500</ele>
        <time>1970-01-01T03:00:16.000Z</time>
      </trkpt>
      <trkpt lat="42.576148" lon="0.761846">
        <ele>1498.8</ele>
        <time>1970-01-01T03:00:18.000Z</time>
      </trkpt>
      <trkpt lat="42.576115" lon="0.761908">
        <ele>1497.4</ele>
        <time>1970-01-01T03:00:20.000Z</time>
      </trkpt>
      <trkpt lat="42.576013" lon="0.761999">
        <ele>1495.8</ele>
        <time>1970-01-01T03:00:23.000Z</time>
      </trkpt>
      <trkpt lat="42.57595" lon="0.762063">
        <ele>1494.2</ele>
        <time>1970-01-01T03:00:25.000Z</time>
      </trkpt>
      <trkpt lat="42.575903" lon="0.762151">
        <ele>1493.4</ele>
        <time>1970-01-01T03:00:27.000Z</time>
      </trkpt>
      <trkpt lat="42.575894" lon="0.7622">
        <ele>1493</ele>
        <time>1970-01-01T03:00:28.000Z</time>
      </trkpt>
      <trkpt lat="42.575865" lon="0.762365">
        <ele>1491.6</ele>
        <time>1970-01-01T03:00:31.000Z</time>
      </trkpt>
      <trkpt lat="42.575835" lon="0.762481">
        <ele>1490.4</ele>
        <time>1970-01-01T03:00:33.000Z</time>
      </trkpt>
      <trkpt lat="42.575808" lon="0.762591">
        <ele>1488.8</ele>
        <time>1970-01-01T03:00:35.000Z</time>
      </trkpt>
      <trkpt lat="42.575776" lon="0.762675">
        <ele>1487</ele>
        <time>1970-01-01T03:00:37.000Z</time>
      </trkpt>
      <trkpt lat="42.575748" lon="0.762701">
        <ele>1486.2</ele>
        <time>1970-01-01T03:00:38.000Z</time>
      </trkpt>
      <trkpt lat="42.575714" lon="0.762711">
        <ele>1485.8</ele>
        <time>1970-01-01T03:00:39.000Z</time>
      </trkpt>
      <trkpt lat="42.575607" lon="0.762679">
        <ele>1484.4</ele>
        <time>1970-01-01T03:00:42.000Z</time>
      </trkpt>
      <trkpt lat="42.575563" lon="0.762664">
        <ele>1483.6</ele>
        <time>1970-01-01T03:00:43.000Z</time>
      </trkpt>
      <trkpt lat="42.57552" lon="0.762652">
        <ele>1482.6</ele>
        <time>1970-01-01T03:00:44.000Z</time>
      </trkpt>
      <trkpt lat="42.575436" lon="0.762635">
        <ele>1480.4</ele>
        <time>1970-01-01T03:00:46.000Z</time>
      </trkpt>
      <trkpt lat="42.575394" lon="0.762624">
        <ele>1479.2</ele>
        <time>1970-01-01T03:00:47.000Z</time>
      </trkpt>
      <trkpt lat="42.575354" lon="0.762621">
        <ele>1478.2</ele>
        <time>1970-01-01T03:00:48.000Z</time>
      </trkpt>
      <trkpt lat="42.575309" lon="0.762599">
        <ele>1477</ele>
        <time>1970-01-01T03:00:49.000Z</time>
      </trkpt>
      <trkpt lat="42.575267" lon="0.762581">
        <ele>1476</ele>
        <time>1970-01-01T03:00:50.000Z</time>
      </trkpt>
      <trkpt lat="42.575171" lon="0.762559">
        <ele>1474.4</ele>
        <time>1970-01-01T03:00:52.000Z</time>
      </trkpt>
      <trkpt lat="42.575084" lon="0.762553">
        <ele>1473.2</ele>
        <time>1970-01-01T03:00:54.000Z</time>
      </trkpt>
      <trkpt lat="42.575012" lon="0.762544">
        <ele>1472</ele>
        <time>1970-01-01T03:00:56.000Z</time>
      </trkpt>
      <trkpt lat="42.574977" lon="0.762535">
        <ele>1471.6</ele>
        <time>1970-01-01T03:00:57.000Z</time>
      </trkpt>
      <trkpt lat="42.574906" lon="0.762514">
        <ele>1471</ele>
        <time>1970-01-01T03:00:59.000Z</time>
      </trkpt>
      <trkpt lat="42.57484" lon="0.762466">
        <ele>1470</ele>
        <time>1970-01-01T03:01:01.000Z</time>
      </trkpt>
      <trkpt lat="42.574834" lon="0.762401">
        <ele>1468.8</ele>
        <time>1970-01-01T03:01:03.000Z</time>
      </trkpt>
      <trkpt lat="42.574882" lon="0.762369">
        <ele>1467.4</ele>
        <time>1970-01-01T03:01:06.000Z</time>
      </trkpt>
      <trkpt lat="42.574905" lon="0.762371">
        <ele>1467</ele>
        <time>1970-01-01T03:01:07.000Z</time>
      </trkpt>
      <trkpt lat="42.574927" lon="0.762371">
        <ele>1466.2</ele>
        <time>1970-01-01T03:01:08.000Z</time>
      </trkpt>
      <trkpt lat="42.575006" lon="0.762359">
        <ele>1464.8</ele>
        <time>1970-01-01T03:01:11.000Z</time>
      </trkpt>
      <trkpt lat="42.575031" lon="0.762348">
        <ele>1463.6</ele>
        <time>1970-01-01T03:01:12.000Z</time>
      </trkpt>
      <trkpt lat="42.575057" lon="0.762335">
        <ele>1462.6</ele>
        <time>1970-01-01T03:01:13.000Z</time>
      </trkpt>
      <trkpt lat="42.575117" lon="0.76231">
        <ele>1461.2</ele>
        <time>1970-01-01T03:01:15.000Z</time>
      </trkpt>
      <trkpt lat="42.575168" lon="0.762287">
        <ele>1460</ele>
        <time>1970-01-01T03:01:17.000Z</time>
      </trkpt>
      <trkpt lat="42.575184" lon="0.762268">
        <ele>1459.6</ele>
        <time>1970-01-01T03:01:18.000Z</time>
      </trkpt>
      <trkpt lat="42.575178" lon="0.762226">
        <ele>1458.8</ele>
        <time>1970-01-01T03:01:20.000Z</time>
      </trkpt>
      <trkpt lat="42.575139" lon="0.762193">
        <ele>1457.8</ele>
        <time>1970-01-01T03:01:23.000Z</time>
      </trkpt>
      <trkpt lat="42.575085" lon="0.76216">
        <ele>1456.6</ele>
        <time>1970-01-01T03:01:27.000Z</time>
      </trkpt>
      <trkpt lat="42.575028" lon="0.762135">
        <ele>1455</ele>
        <time>1970-01-01T03:01:30.000Z</time>
      </trkpt>
      <trkpt lat="42.574983" lon="0.762116">
        <ele>1453.8</ele>
        <time>1970-01-01T03:01:32.000Z</time>
      </trkpt>
      <trkpt lat="42.574931" lon="0.762104">
        <ele>1452</ele>
        <time>1970-01-01T03:01:34.000Z</time>
      </trkpt>
      <trkpt lat="42.574868" lon="0.762095">
        <ele>1451</ele>
        <time>1970-01-01T03:01:36.000Z</time>
      </trkpt>
      <trkpt lat="42.574803" lon="0.762081">
        <ele>1450</ele>
        <time>1970-01-01T03:01:38.000Z</time>
      </trkpt>
      <trkpt lat="42.574769" lon="0.762066">
        <ele>1448.6</ele>
        <time>1970-01-01T03:01:40.000Z</time>
      </trkpt>
      <trkpt lat="42.574763" lon="0.762069">
        <ele>1448.6</ele>
        <time>1970-01-01T03:01:41.000Z</time>
      </trkpt>
      <trkpt lat="42.574681" lon="0.76211">
        <ele>1447.6</ele>
        <time>1970-01-01T03:01:48.000Z</time>
      </trkpt>
      <trkpt lat="42.574589" lon="0.762136">
        <ele>1446.2</ele>
        <time>1970-01-01T03:01:51.000Z</time>
      </trkpt>
      <trkpt lat="42.574524" lon="0.762123">
        <ele>1444.2</ele>
        <time>1970-01-01T03:01:53.000Z</time>
      </trkpt>
      <trkpt lat="42.574485" lon="0.762118">
        <ele>1443.2</ele>
        <time>1970-01-01T03:01:54.000Z</time>
      </trkpt>
      <trkpt lat="42.574403" lon="0.762111">
        <ele>1441</ele>
        <time>1970-01-01T03:01:56.000Z</time>
      </trkpt>
      <trkpt lat="42.574356" lon="0.762102">
        <ele>1439.8</ele>
        <time>1970-01-01T03:01:57.000Z</time>
      </trkpt>
      <trkpt lat="42.574309" lon="0.762096">
        <ele>1438.8</ele>
        <time>1970-01-01T03:01:58.000Z</time>
      </trkpt>
      <trkpt lat="42.574263" lon="0.762092">
        <ele>1437.6</ele>
        <time>1970-01-01T03:01:59.000Z</time>
      </trkpt>
      <trkpt lat="42.574176" lon="0.762092">
        <ele>1436.2</ele>
        <time>1970-01-01T03:02:01.000Z</time>
      </trkpt>
      <trkpt lat="42.574088" lon="0.762091">
        <ele>1434.4</ele>
        <time>1970-01-01T03:02:03.000Z</time>
      </trkpt>
      <trkpt lat="42.573997" lon="0.762065">
        <ele>1432.6</ele>
        <time>1970-01-01T03:02:05.000Z</time>
      </trkpt>
      <trkpt lat="42.573896" lon="0.762049">
        <ele>1430.8</ele>
        <time>1970-01-01T03:02:07.000Z</time>
      </trkpt>
      <trkpt lat="42.5738" lon="0.762034">
        <ele>1429.2</ele>
        <time>1970-01-01T03:02:09.000Z</time>
      </trkpt>
      <trkpt lat="42.573756" lon="0.762027">
        <ele>1428</ele>
        <time>1970-01-01T03:02:10.000Z</time>
      </trkpt>
      <trkpt lat="42.573659" lon="0.761991">
        <ele>1426.4</ele>
        <time>1970-01-01T03:02:12.000Z</time>
      </trkpt>
      <trkpt lat="42.573601" lon="0.761959">
        <ele>1425</ele>
        <time>1970-01-01T03:02:13.000Z</time>
      </trkpt>
      <trkpt lat="42.573484" lon="0.761907">
        <ele>1423</ele>
        <time>1970-01-01T03:02:15.000Z</time>
      </trkpt>
      <trkpt lat="42.57335" lon="0.761884">
        <ele>1421.6</ele>
        <time>1970-01-01T03:02:17.000Z</time>
      </trkpt>
      <trkpt lat="42.573197" lon="0.761868">
        <ele>1420</ele>
        <time>1970-01-01T03:02:20.000Z</time>
      </trkpt>
      <trkpt lat="42.573099" lon="0.761863">
        <ele>1418</ele>
        <time>1970-01-01T03:02:22.000Z</time>
      </trkpt>
      <trkpt lat="42.572978" lon="0.761825">
        <ele>1416.2</ele>
        <time>1970-01-01T03:02:24.000Z</time>
      </trkpt>
      <trkpt lat="42.572918" lon="0.761802">
        <ele>1415</ele>
        <time>1970-01-01T03:02:25.000Z</time>
      </trkpt>
      <trkpt lat="42.572805" lon="0.76177">
        <ele>1412.8</ele>
        <time>1970-01-01T03:02:27.000Z</time>
      </trkpt>
      <trkpt lat="42.572756" lon="0.761747">
        <ele>1412</ele>
        <time>1970-01-01T03:02:28.000Z</time>
      </trkpt>
      <trkpt lat="42.572714" lon="0.761723">
        <ele>1410.8</ele>
        <time>1970-01-01T03:02:29.000Z</time>
      </trkpt>
      <trkpt lat="42.57267" lon="0.761692">
        <ele>1409.4</ele>
        <time>1970-01-01T03:02:30.000Z</time>
      </trkpt>
      <trkpt lat="42.572629" lon="0.761658">
        <ele>1407.8</ele>
        <time>1970-01-01T03:02:31.000Z</time>
      </trkpt>
      <trkpt lat="42.572596" lon="0.761639">
        <ele>1406.6</ele>
        <time>1970-01-01T03:02:32.000Z</time>
      </trkpt>
      <trkpt lat="42.572546" lon="0.761617">
        <ele>1404.8</ele>
        <time>1970-01-01T03:02:34.000Z</time>
      </trkpt>
      <trkpt lat="42.572426" lon="0.761596">
        <ele>1403.6</ele>
        <time>1970-01-01T03:02:38.000Z</time>
      </trkpt>
      <trkpt lat="42.57238" lon="0.761599">
        <ele>1403.2</ele>
        <time>1970-01-01T03:02:39.000Z</time>
      </trkpt>
      <trkpt lat="42.572201" lon="0.761599">
        <ele>1402.4</ele>
        <time>1970-01-01T03:02:42.000Z</time>
      </trkpt>
      <trkpt lat="42.571926" lon="0.761554">
        <ele>1401</ele>
        <time>1970-01-01T03:02:46.000Z</time>
      </trkpt>
      <trkpt lat="42.571709" lon="0.76146">
        <ele>1399.4</ele>
        <time>1970-01-01T03:02:49.000Z</time>
      </trkpt>
      <trkpt lat="42.571553" lon="0.761383">
        <ele>1398.2</ele>
        <time>1970-01-01T03:02:51.000Z</time>
      </trkpt>
      <trkpt lat="42.571382" lon="0.761325">
        <ele>1397</ele>
        <time>1970-01-01T03:02:53.000Z</time>
      </trkpt>
      <trkpt lat="42.571202" lon="0.761277">
        <ele>1395.8</ele>
        <time>1970-01-01T03:02:55.000Z</time>
      </trkpt>
      <trkpt lat="42.571113" lon="0.761237">
        <ele>1395.2</ele>
        <time>1970-01-01T03:02:56.000Z</time>
      </trkpt>
      <trkpt lat="42.571034" lon="0.76119">
        <ele>1394.6</ele>
        <time>1970-01-01T03:02:57.000Z</time>
      </trkpt>
      <trkpt lat="42.570917" lon="0.761078">
        <ele>1393.4</ele>
        <time>1970-01-01T03:02:59.000Z</time>
      </trkpt>
      <trkpt lat="42.570872" lon="0.760947">
        <ele>1392.2</ele>
        <time>1970-01-01T03:03:01.000Z</time>
      </trkpt>
      <trkpt lat="42.570964" lon="0.760833">
        <ele>1391.2</ele>
        <time>1970-01-01T03:03:04.000Z</time>
      </trkpt>
      <trkpt lat="42.571145" lon="0.760927">
        <ele>1390</ele>
        <time>1970-01-01T03:03:07.000Z</time>
      </trkpt>
      <trkpt lat="42.571207" lon="0.760969">
        <ele>1389.8</ele>
        <time>1970-01-01T03:03:08.000Z</time>
      </trkpt>
      <trkpt lat="42.571273" lon="0.761007">
        <ele>1389.8</ele>
        <time>1970-01-01T03:03:09.000Z</time>
      </trkpt>
      <trkpt lat="42.571416" lon="0.761054">
        <ele>1388.8</ele>
        <time>1970-01-01T03:03:11.000Z</time>
      </trkpt>
      <trkpt lat="42.571654" lon="0.761044">
        <ele>1387.2</ele>
        <time>1970-01-01T03:03:14.000Z</time>
      </trkpt>
      <trkpt lat="42.571813" lon="0.761023">
        <ele>1385.6</ele>
        <time>1970-01-01T03:03:16.000Z</time>
      </trkpt>
      <trkpt lat="42.571977" lon="0.761002">
        <ele>1384.6</ele>
        <time>1970-01-01T03:03:18.000Z</time>
      </trkpt>
      <trkpt lat="42.572218" lon="0.760986">
        <ele>1383.2</ele>
        <time>1970-01-01T03:03:21.000Z</time>
      </trkpt>
      <trkpt lat="42.572369" lon="0.760975">
        <ele>1381.6</ele>
        <time>1970-01-01T03:03:23.000Z</time>
      </trkpt>
      <trkpt lat="42.572443" lon="0.760959">
        <ele>1381</ele>
        <time>1970-01-01T03:03:24.000Z</time>
      </trkpt>
      <trkpt lat="42.572589" lon="0.760907">
        <ele>1380</ele>
        <time>1970-01-01T03:03:26.000Z</time>
      </trkpt>
      <trkpt lat="42.572736" lon="0.76085">
        <ele>1378.6</ele>
        <time>1970-01-01T03:03:28.000Z</time>
      </trkpt>
      <trkpt lat="42.572872" lon="0.760798">
        <ele>1377.6</ele>
        <time>1970-01-01T03:03:30.000Z</time>
      </trkpt>
      <trkpt lat="42.573012" lon="0.76077">
        <ele>1376</ele>
        <time>1970-01-01T03:03:32.000Z</time>
      </trkpt>
      <trkpt lat="42.573167" lon="0.760773">
        <ele>1375</ele>
        <time>1970-01-01T03:03:34.000Z</time>
      </trkpt>
      <trkpt lat="42.573396" lon="0.760757">
        <ele>1373.4</ele>
        <time>1970-01-01T03:03:37.000Z</time>
      </trkpt>
      <trkpt lat="42.573543" lon="0.760726">
        <ele>1372.8</ele>
        <time>1970-01-01T03:03:39.000Z</time>
      </trkpt>
      <trkpt lat="42.573617" lon="0.760695">
        <ele>1372.4</ele>
        <time>1970-01-01T03:03:40.000Z</time>
      </trkpt>
      <trkpt lat="42.573843" lon="0.76053">
        <ele>1371.2</ele>
        <time>1970-01-01T03:03:43.000Z</time>
      </trkpt>
      <trkpt lat="42.574003" lon="0.76041">
        <ele>1370.2</ele>
        <time>1970-01-01T03:03:45.000Z</time>
      </trkpt>
      <trkpt lat="42.574167" lon="0.760271">
        <ele>1369</ele>
        <time>1970-01-01T03:03:47.000Z</time>
      </trkpt>
      <trkpt lat="42.57441" lon="0.760035">
        <ele>1367</ele>
        <time>1970-01-01T03:03:50.000Z</time>
      </trkpt>
      <trkpt lat="42.574587" lon="0.75988">
        <ele>1365.4</ele>
        <time>1970-01-01T03:03:52.000Z</time>
      </trkpt>
      <trkpt lat="42.574783" lon="0.759753">
        <ele>1364.2</ele>
        <time>1970-01-01T03:03:54.000Z</time>
      </trkpt>
      <trkpt lat="42.57497" lon="0.759668">
        <ele>1362.8</ele>
        <time>1970-01-01T03:03:56.000Z</time>
      </trkpt>
      <trkpt lat="42.575046" lon="0.759638">
        <ele>1361.8</ele>
        <time>1970-01-01T03:03:57.000Z</time>
      </trkpt>
      <trkpt lat="42.575102" lon="0.759601">
        <ele>1360.6</ele>
        <time>1970-01-01T03:03:58.000Z</time>
      </trkpt>
      <trkpt lat="42.575154" lon="0.759494">
        <ele>1359.4</ele>
        <time>1970-01-01T03:04:00.000Z</time>
      </trkpt>
      <trkpt lat="42.575095" lon="0.759342">
        <ele>1358.2</ele>
        <time>1970-01-01T03:04:03.000Z</time>
      </trkpt>
      <trkpt lat="42.574902" lon="0.759413">
        <ele>1356.8</ele>
        <time>1970-01-01T03:04:07.000Z</time>
      </trkpt>
      <trkpt lat="42.574665" lon="0.759531">
        <ele>1355.8</ele>
        <time>1970-01-01T03:04:11.000Z</time>
      </trkpt>
      <trkpt lat="42.574378" lon="0.759615">
        <ele>1354.6</ele>
        <time>1970-01-01T03:04:15.000Z</time>
      </trkpt>
      <trkpt lat="42.574224" lon="0.759643">
        <ele>1354</ele>
        <time>1970-01-01T03:04:17.000Z</time>
      </trkpt>
      <trkpt lat="42.574071" lon="0.759684">
        <ele>1353.4</ele>
        <time>1970-01-01T03:04:19.000Z</time>
      </trkpt>
      <trkpt lat="42.573918" lon="0.759713">
        <ele>1352.4</ele>
        <time>1970-01-01T03:04:21.000Z</time>
      </trkpt>
      <trkpt lat="42.57376" lon="0.759724">
        <ele>1351.2</ele>
        <time>1970-01-01T03:04:23.000Z</time>
      </trkpt>
      <trkpt lat="42.573511" lon="0.759695">
        <ele>1350.2</ele>
        <time>1970-01-01T03:04:26.000Z</time>
      </trkpt>
      <trkpt lat="42.573426" lon="0.759673">
        <ele>1349.8</ele>
        <time>1970-01-01T03:04:27.000Z</time>
      </trkpt>
      <trkpt lat="42.573161" lon="0.759599">
        <ele>1348.8</ele>
        <time>1970-01-01T03:04:30.000Z</time>
      </trkpt>
      <trkpt lat="42.572981" lon="0.759543">
        <ele>1347.6</ele>
        <time>1970-01-01T03:04:32.000Z</time>
      </trkpt>
      <trkpt lat="42.572798" lon="0.759482">
        <ele>1346</ele>
        <time>1970-01-01T03:04:34.000Z</time>
      </trkpt>
      <trkpt lat="42.572608" lon="0.759417">
        <ele>1344.6</ele>
        <time>1970-01-01T03:04:36.000Z</time>
      </trkpt>
      <trkpt lat="42.572417" lon="0.759356">
        <ele>1343.4</ele>
        <time>1970-01-01T03:04:38.000Z</time>
      </trkpt>
      <trkpt lat="42.572223" lon="0.759309">
        <ele>1342</ele>
        <time>1970-01-01T03:04:40.000Z</time>
      </trkpt>
      <trkpt lat="42.572026" lon="0.759259">
        <ele>1340.8</ele>
        <time>1970-01-01T03:04:42.000Z</time>
      </trkpt>
      <trkpt lat="42.571827" lon="0.759197">
        <ele>1339.6</ele>
        <time>1970-01-01T03:04:44.000Z</time>
      </trkpt>
      <trkpt lat="42.571626" lon="0.759136">
        <ele>1338.6</ele>
        <time>1970-01-01T03:04:46.000Z</time>
      </trkpt>
      <trkpt lat="42.571326" lon="0.759039">
        <ele>1337</ele>
        <time>1970-01-01T03:04:49.000Z</time>
      </trkpt>
      <trkpt lat="42.571227" lon="0.758996">
        <ele>1336.4</ele>
        <time>1970-01-01T03:04:50.000Z</time>
      </trkpt>
      <trkpt lat="42.571131" lon="0.75894">
        <ele>1335.6</ele>
        <time>1970-01-01T03:04:51.000Z</time>
      </trkpt>
      <trkpt lat="42.570868" lon="0.758706">
        <ele>1334</ele>
        <time>1970-01-01T03:04:54.000Z</time>
      </trkpt>
      <trkpt lat="42.570788" lon="0.758614">
        <ele>1333</ele>
        <time>1970-01-01T03:04:55.000Z</time>
      </trkpt>
      <trkpt lat="42.570648" lon="0.758429">
        <ele>1331.2</ele>
        <time>1970-01-01T03:04:57.000Z</time>
      </trkpt>
      <trkpt lat="42.570482" lon="0.758115">
        <ele>1329.8</ele>
        <time>1970-01-01T03:05:00.000Z</time>
      </trkpt>
      <trkpt lat="42.570394" lon="0.75793">
        <ele>1328.8</ele>
        <time>1970-01-01T03:05:02.000Z</time>
      </trkpt>
      <trkpt lat="42.570355" lon="0.757857">
        <ele>1327.8</ele>
        <time>1970-01-01T03:05:04.000Z</time>
      </trkpt>
      <trkpt lat="42.570345" lon="0.757863">
        <ele>1327.4</ele>
        <time>1970-01-01T03:05:05.000Z</time>
      </trkpt>
      <trkpt lat="42.570345" lon="0.757874">
        <ele>1327.2</ele>
        <time>1970-01-01T03:05:07.000Z</time>
      </trkpt>
      <trkpt lat="42.570406" lon="0.757937">
        <ele>1327.6</ele>
        <time>1970-01-01T03:05:17.000Z</time>
      </trkpt>
      <trkpt lat="42.570621" lon="0.758398">
        <ele>1328.8</ele>
        <time>1970-01-01T03:05:35.000Z</time>
      </trkpt>
      <trkpt lat="42.570768" lon="0.758603">
        <ele>1329.8</ele>
        <time>1970-01-01T03:05:44.000Z</time>
      </trkpt>
      <trkpt lat="42.570787" lon="0.758646">
        <ele>1330.2</ele>
        <time>1970-01-01T03:05:46.000Z</time>
      </trkpt>
      <trkpt lat="42.570737" lon="0.758712">
        <ele>1331.2</ele>
        <time>1970-01-01T03:05:51.000Z</time>
      </trkpt>
      <trkpt lat="42.570673" lon="0.758731">
        <ele>1332.2</ele>
        <time>1970-01-01T03:05:55.000Z</time>
      </trkpt>
      <trkpt lat="42.570628" lon="0.758743">
        <ele>1333.4</ele>
        <time>1970-01-01T03:05:58.000Z</time>
      </trkpt>
      <trkpt lat="42.570569" lon="0.758756">
        <ele>1334.8</ele>
        <time>1970-01-01T03:06:02.000Z</time>
      </trkpt>
      <trkpt lat="42.570462" lon="0.758752">
        <ele>1336</ele>
        <time>1970-01-01T03:06:08.000Z</time>
      </trkpt>
      <trkpt lat="42.570439" lon="0.758754">
        <ele>1336.2</ele>
        <time>1970-01-01T03:06:11.000Z</time>
      </trkpt>
      <trkpt lat="42.570411" lon="0.758738">
        <ele>1336.2</ele>
        <time>1970-01-01T03:06:39.000Z</time>
      </trkpt>
      <trkpt lat="42.570389" lon="0.758731">
        <ele>1336</ele>
        <time>1970-01-01T03:06:40.000Z</time>
      </trkpt>
      <trkpt lat="42.570295" lon="0.758683">
        <ele>1335.6</ele>
        <time>1970-01-01T03:06:43.000Z</time>
      </trkpt>
      <trkpt lat="42.570225" lon="0.758641">
        <ele>1335.2</ele>
        <time>1970-01-01T03:06:45.000Z</time>
      </trkpt>
      <trkpt lat="42.57012" lon="0.758598">
        <ele>1334.4</ele>
        <time>1970-01-01T03:06:48.000Z</time>
      </trkpt>
      <trkpt lat="42.569956" lon="0.758531">
        <ele>1333.4</ele>
        <time>1970-01-01T03:06:52.000Z</time>
      </trkpt>
      <trkpt lat="42.569844" lon="0.758405">
        <ele>1332.2</ele>
        <time>1970-01-01T03:06:55.000Z</time>
      </trkpt>
      <trkpt lat="42.569807" lon="0.758361">
        <ele>1332</ele>
        <time>1970-01-01T03:06:56.000Z</time>
      </trkpt>
      <trkpt lat="42.569631" lon="0.758188">
        <ele>1331.2</ele>
        <time>1970-01-01T03:07:01.000Z</time>
      </trkpt>
      <trkpt lat="42.569566" lon="0.758123">
        <ele>1330</ele>
        <time>1970-01-01T03:07:03.000Z</time>
      </trkpt>
      <trkpt lat="42.569498" lon="0.758089">
        <ele>1329</ele>
        <time>1970-01-01T03:07:05.000Z</time>
      </trkpt>
      <trkpt lat="42.5694" lon="0.758052">
        <ele>1327.8</ele>
        <time>1970-01-01T03:07:08.000Z</time>
      </trkpt>
      <trkpt lat="42.569282" lon="0.758016">
        <ele>1326.4</ele>
        <time>1970-01-01T03:07:11.000Z</time>
      </trkpt>
      <trkpt lat="42.569197" lon="0.757984">
        <ele>1325</ele>
        <time>1970-01-01T03:07:13.000Z</time>
      </trkpt>
      <trkpt lat="42.569101" lon="0.757908">
        <ele>1323.8</ele>
        <time>1970-01-01T03:07:16.000Z</time>
      </trkpt>
      <trkpt lat="42.569016" lon="0.757824">
        <ele>1322.8</ele>
        <time>1970-01-01T03:07:19.000Z</time>
      </trkpt>
      <trkpt lat="42.568946" lon="0.757789">
        <ele>1322</ele>
        <time>1970-01-01T03:07:21.000Z</time>
      </trkpt>
      <trkpt lat="42.568829" lon="0.757737">
        <ele>1320.6</ele>
        <time>1970-01-01T03:07:24.000Z</time>
      </trkpt>
      <trkpt lat="42.568751" lon="0.757699">
        <ele>1319.4</ele>
        <time>1970-01-01T03:07:26.000Z</time>
      </trkpt>
      <trkpt lat="42.568674" lon="0.757661">
        <ele>1318.4</ele>
        <time>1970-01-01T03:07:28.000Z</time>
      </trkpt>
      <trkpt lat="42.568637" lon="0.757631">
        <ele>1317.8</ele>
        <time>1970-01-01T03:07:29.000Z</time>
      </trkpt>
      <trkpt lat="42.568539" lon="0.757538">
        <ele>1316.8</ele>
        <time>1970-01-01T03:07:32.000Z</time>
      </trkpt>
      <trkpt lat="42.568466" lon="0.757481">
        <ele>1315.8</ele>
        <time>1970-01-01T03:07:34.000Z</time>
      </trkpt>
      <trkpt lat="42.568425" lon="0.757465">
        <ele>1315.6</ele>
        <time>1970-01-01T03:07:35.000Z</time>
      </trkpt>
      <trkpt lat="42.568306" lon="0.757436">
        <ele>1314.8</ele>
        <time>1970-01-01T03:07:38.000Z</time>
      </trkpt>
      <trkpt lat="42.56804" lon="0.757275">
        <ele>1314.6</ele>
        <time>1970-01-01T03:07:45.000Z</time>
      </trkpt>
      <trkpt lat="42.567916" lon="0.757174">
        <ele>1313.6</ele>
        <time>1970-01-01T03:07:49.000Z</time>
      </trkpt>
      <trkpt lat="42.567884" lon="0.757143">
        <ele>1313.4</ele>
        <time>1970-01-01T03:07:50.000Z</time>
      </trkpt>
      <trkpt lat="42.567742" lon="0.757004">
        <ele>1312.6</ele>
        <time>1970-01-01T03:07:54.000Z</time>
      </trkpt>
      <trkpt lat="42.567669" lon="0.756953">
        <ele>1311.4</ele>
        <time>1970-01-01T03:07:57.000Z</time>
      </trkpt>
      <trkpt lat="42.56748" lon="0.756819">
        <ele>1310.6</ele>
        <time>1970-01-01T03:08:05.000Z</time>
      </trkpt>
      <trkpt lat="42.567222" lon="0.756661">
        <ele>1309.4</ele>
        <time>1970-01-01T03:08:13.000Z</time>
      </trkpt>
      <trkpt lat="42.567073" lon="0.756588">
        <ele>1308.2</ele>
        <time>1970-01-01T03:08:19.000Z</time>
      </trkpt>
      <trkpt lat="42.566904" lon="0.756509">
        <ele>1307.2</ele>
        <time>1970-01-01T03:08:25.000Z</time>
      </trkpt>
      <trkpt lat="42.566595" lon="0.756269">
        <ele>1307</ele>
        <time>1970-01-01T03:08:36.000Z</time>
      </trkpt>
      <trkpt lat="42.566521" lon="0.75619">
        <ele>1306.2</ele>
        <time>1970-01-01T03:08:38.000Z</time>
      </trkpt>
      <trkpt lat="42.566439" lon="0.756097">
        <ele>1305.2</ele>
        <time>1970-01-01T03:08:40.000Z</time>
      </trkpt>
      <trkpt lat="42.566396" lon="0.756053">
        <ele>1304.8</ele>
        <time>1970-01-01T03:08:41.000Z</time>
      </trkpt>
      <trkpt lat="42.566204" lon="0.75602">
        <ele>1304</ele>
        <time>1970-01-01T03:08:45.000Z</time>
      </trkpt>
      <trkpt lat="42.565951" lon="0.756052">
        <ele>1302.8</ele>
        <time>1970-01-01T03:08:50.000Z</time>
      </trkpt>
      <trkpt lat="42.56579" lon="0.756016">
        <ele>1302.6</ele>
        <time>1970-01-01T03:08:53.000Z</time>
      </trkpt>
      <trkpt lat="42.56563" lon="0.755957">
        <ele>1301.6</ele>
        <time>1970-01-01T03:08:56.000Z</time>
      </trkpt>
      <trkpt lat="42.565526" lon="0.755885">
        <ele>1300.6</ele>
        <time>1970-01-01T03:08:58.000Z</time>
      </trkpt>
      <trkpt lat="42.565473" lon="0.755842">
        <ele>1300.4</ele>
        <time>1970-01-01T03:08:59.000Z</time>
      </trkpt>
      <trkpt lat="42.565218" lon="0.755655">
        <ele>1299.6</ele>
        <time>1970-01-01T03:09:04.000Z</time>
      </trkpt>
      <trkpt lat="42.565057" lon="0.755566">
        <ele>1298.4</ele>
        <time>1970-01-01T03:09:07.000Z</time>
      </trkpt>
      <trkpt lat="42.564739" lon="0.755427">
        <ele>1297.4</ele>
        <time>1970-01-01T03:09:13.000Z</time>
      </trkpt>
      <trkpt lat="42.564528" lon="0.755388">
        <ele>1296.6</ele>
        <time>1970-01-01T03:09:18.000Z</time>
      </trkpt>
      <trkpt lat="42.564483" lon="0.755356">
        <ele>1296.2</ele>
        <time>1970-01-01T03:09:19.000Z</time>
      </trkpt>
      <trkpt lat="42.564389" lon="0.755284">
        <ele>1296</ele>
        <time>1970-01-01T03:09:21.000Z</time>
      </trkpt>
      <trkpt lat="42.564111" lon="0.75513">
        <ele>1295.8</ele>
        <time>1970-01-01T03:09:28.000Z</time>
      </trkpt>
      <trkpt lat="42.564081" lon="0.755091">
        <ele>1295.6</ele>
        <time>1970-01-01T03:09:29.000Z</time>
      </trkpt>
      <trkpt lat="42.56393" lon="0.754883">
        <ele>1295.4</ele>
        <time>1970-01-01T03:09:34.000Z</time>
      </trkpt>
      <trkpt lat="42.56385" lon="0.754751">
        <ele>1295.4</ele>
        <time>1970-01-01T03:09:37.000Z</time>
      </trkpt>
      <trkpt lat="42.563715" lon="0.754533">
        <ele>1295.2</ele>
        <time>1970-01-01T03:09:42.000Z</time>
      </trkpt>
      <trkpt lat="42.563432" lon="0.753864">
        <ele>1296.2</ele>
        <time>1970-01-01T03:09:57.000Z</time>
      </trkpt>
      <trkpt lat="42.563375" lon="0.753707">
        <ele>1296.2</ele>
        <time>1970-01-01T03:10:00.000Z</time>
      </trkpt>
      <trkpt lat="42.563233" lon="0.753553">
        <ele>1296</ele>
        <time>1970-01-01T03:10:04.000Z</time>
      </trkpt>
      <trkpt lat="42.563145" lon="0.753505">
        <ele>1296</ele>
        <time>1970-01-01T03:10:06.000Z</time>
      </trkpt>
      <trkpt lat="42.563016" lon="0.753432">
        <ele>1296</ele>
        <time>1970-01-01T03:10:09.000Z</time>
      </trkpt>
      <trkpt lat="42.562535" lon="0.753009">
        <ele>1297.4</ele>
        <time>1970-01-01T03:10:22.000Z</time>
      </trkpt>
      <trkpt lat="42.562357" lon="0.752894">
        <ele>1298.6</ele>
        <time>1970-01-01T03:10:27.000Z</time>
      </trkpt>
      <trkpt lat="42.561959" lon="0.752696">
        <ele>1297.8</ele>
        <time>1970-01-01T03:10:37.000Z</time>
      </trkpt>
      <trkpt lat="42.561763" lon="0.752619">
        <ele>1297.4</ele>
        <time>1970-01-01T03:10:42.000Z</time>
      </trkpt>
      <trkpt lat="42.561232" lon="0.752482">
        <ele>1298.4</ele>
        <time>1970-01-01T03:10:58.000Z</time>
      </trkpt>
      <trkpt lat="42.56112" lon="0.752422">
        <ele>1299</ele>
        <time>1970-01-01T03:11:02.000Z</time>
      </trkpt>
      <trkpt lat="42.560925" lon="0.752283">
        <ele>1300.4</ele>
        <time>1970-01-01T03:11:10.000Z</time>
      </trkpt>
      <trkpt lat="42.560813" lon="0.75218">
        <ele>1301.4</ele>
        <time>1970-01-01T03:11:15.000Z</time>
      </trkpt>
      <trkpt lat="42.560734" lon="0.752107">
        <ele>1302.6</ele>
        <time>1970-01-01T03:11:19.000Z</time>
      </trkpt>
      <trkpt lat="42.560603" lon="0.751978">
        <ele>1303.6</ele>
        <time>1970-01-01T03:11:25.000Z</time>
      </trkpt>
      <trkpt lat="42.560412" lon="0.751668">
        <ele>1303.8</ele>
        <time>1970-01-01T03:11:36.000Z</time>
      </trkpt>
      <trkpt lat="42.560414" lon="0.751581">
        <ele>1303.6</ele>
        <time>1970-01-01T03:11:41.000Z</time>
      </trkpt>
      <trkpt lat="42.560415" lon="0.751675">
        <ele>1304.4</ele>
        <time>1970-01-01T03:21:57.000Z</time>
      </trkpt>
      <trkpt lat="42.560404" lon="0.751743">
        <ele>1304.8</ele>
        <time>1970-01-01T03:22:01.000Z</time>
      </trkpt>
      <trkpt lat="42.560385" lon="0.751816">
        <ele>1305.4</ele>
        <time>1970-01-01T03:22:05.000Z</time>
      </trkpt>
      <trkpt lat="42.560373" lon="0.751823">
        <ele>1305.6</ele>
        <time>1970-01-01T03:22:06.000Z</time>
      </trkpt>
      <trkpt lat="42.560359" lon="0.75183">
        <ele>1305.8</ele>
        <time>1970-01-01T03:22:09.000Z</time>
      </trkpt>
      <trkpt lat="42.560328" lon="0.751818">
        <ele>1306.2</ele>
        <time>1970-01-01T03:22:20.000Z</time>
      </trkpt>
      <trkpt lat="42.559942" lon="0.751634">
        <ele>1306.8</ele>
        <time>1970-01-01T03:22:38.000Z</time>
      </trkpt>
      <trkpt lat="42.559613" lon="0.751541">
        <ele>1307.4</ele>
        <time>1970-01-01T03:22:50.000Z</time>
      </trkpt>
      <trkpt lat="42.55967" lon="0.751585">
        <ele>1307.4</ele>
        <time>1970-01-01T03:22:55.000Z</time>
      </trkpt>
      <trkpt lat="42.55996" lon="0.75159">
        <ele>1307</ele>
        <time>1970-01-01T03:23:08.000Z</time>
      </trkpt>
      <trkpt lat="42.5599" lon="0.751587">
        <ele>1307</ele>
        <time>1970-01-01T03:23:32.000Z</time>
      </trkpt>
      <trkpt lat="42.559566" lon="0.751537">
        <ele>1307.6</ele>
        <time>1970-01-01T03:23:44.000Z</time>
      </trkpt>
      <trkpt lat="42.55958" lon="0.751572">
        <ele>1307.8</ele>
        <time>1970-01-01T03:24:23.000Z</time>
      </trkpt>
      <trkpt lat="42.559672" lon="0.751531">
        <ele>1307.6</ele>
        <time>1970-01-01T03:24:29.000Z</time>
      </trkpt>
      <trkpt lat="42.5598" lon="0.751568">
        <ele>1307.4</ele>
        <time>1970-01-01T03:24:36.000Z</time>
      </trkpt>
      <trkpt lat="42.559841" lon="0.751575">
        <ele>1307.2</ele>
        <time>1970-01-01T03:24:50.000Z</time>
      </trkpt>
      <trkpt lat="42.559572" lon="0.751511">
        <ele>1307.6</ele>
        <time>1970-01-01T03:25:01.000Z</time>
      </trkpt>
      <trkpt lat="42.559621" lon="0.751569">
        <ele>1307.8</ele>
        <time>1970-01-01T03:25:06.000Z</time>
      </trkpt>
      <trkpt lat="42.559976" lon="0.751611">
        <ele>1307.2</ele>
        <time>1970-01-01T03:25:16.000Z</time>
      </trkpt>
      <trkpt lat="42.560007" lon="0.751527">
        <ele>1306.8</ele>
        <time>1970-01-01T03:25:18.000Z</time>
      </trkpt>
      <trkpt lat="42.560022" lon="0.751402">
        <ele>1305.8</ele>
        <time>1970-01-01T03:25:20.000Z</time>
      </trkpt>
      <trkpt lat="42.56002" lon="0.751327">
        <ele>1305.4</ele>
        <time>1970-01-01T03:25:21.000Z</time>
      </trkpt>
      <trkpt lat="42.560015" lon="0.751241">
        <ele>1305.2</ele>
        <time>1970-01-01T03:25:22.000Z</time>
      </trkpt>
      <trkpt lat="42.560007" lon="0.751145">
        <ele>1304.4</ele>
        <time>1970-01-01T03:25:23.000Z</time>
      </trkpt>
      <trkpt lat="42.559999" lon="0.750929">
        <ele>1302.8</ele>
        <time>1970-01-01T03:25:25.000Z</time>
      </trkpt>
      <trkpt lat="42.559985" lon="0.750698">
        <ele>1300.8</ele>
        <time>1970-01-01T03:25:27.000Z</time>
      </trkpt>
      <trkpt lat="42.559969" lon="0.750589">
        <ele>1299.8</ele>
        <time>1970-01-01T03:25:28.000Z</time>
      </trkpt>
      <trkpt lat="42.559933" lon="0.750488">
        <ele>1299</ele>
        <time>1970-01-01T03:25:29.000Z</time>
      </trkpt>
      <trkpt lat="42.559804" lon="0.750334">
        <ele>1297.4</ele>
        <time>1970-01-01T03:25:31.000Z</time>
      </trkpt>
      <trkpt lat="42.559648" lon="0.750217">
        <ele>1295.6</ele>
        <time>1970-01-01T03:25:33.000Z</time>
      </trkpt>
      <trkpt lat="42.559587" lon="0.750152">
        <ele>1294.4</ele>
        <time>1970-01-01T03:25:34.000Z</time>
      </trkpt>
      <trkpt lat="42.559534" lon="0.75009">
        <ele>1293.4</ele>
        <time>1970-01-01T03:25:35.000Z</time>
      </trkpt>
      <trkpt lat="42.559479" lon="0.75004">
        <ele>1292.4</ele>
        <time>1970-01-01T03:25:36.000Z</time>
      </trkpt>
      <trkpt lat="42.559417" lon="0.75">
        <ele>1291.2</ele>
        <time>1970-01-01T03:25:37.000Z</time>
      </trkpt>
      <trkpt lat="42.559348" lon="0.749972">
        <ele>1290</ele>
        <time>1970-01-01T03:25:38.000Z</time>
      </trkpt>
      <trkpt lat="42.559194" lon="0.749949">
        <ele>1288.2</ele>
        <time>1970-01-01T03:25:40.000Z</time>
      </trkpt>
      <trkpt lat="42.559114" lon="0.749946">
        <ele>1287.4</ele>
        <time>1970-01-01T03:25:41.000Z</time>
      </trkpt>
      <trkpt lat="42.55903" lon="0.749949">
        <ele>1286</ele>
        <time>1970-01-01T03:25:42.000Z</time>
      </trkpt>
      <trkpt lat="42.558944" lon="0.749958">
        <ele>1284.8</ele>
        <time>1970-01-01T03:25:43.000Z</time>
      </trkpt>
      <trkpt lat="42.558769" lon="0.749994">
        <ele>1283.2</ele>
        <time>1970-01-01T03:25:45.000Z</time>
      </trkpt>
      <trkpt lat="42.55862" lon="0.750013">
        <ele>1282.4</ele>
        <time>1970-01-01T03:25:47.000Z</time>
      </trkpt>
      <trkpt lat="42.558555" lon="0.750005">
        <ele>1282</ele>
        <time>1970-01-01T03:25:48.000Z</time>
      </trkpt>
      <trkpt lat="42.558419" lon="0.749976">
        <ele>1280.4</ele>
        <time>1970-01-01T03:25:50.000Z</time>
      </trkpt>
      <trkpt lat="42.558282" lon="0.749949">
        <ele>1279.4</ele>
        <time>1970-01-01T03:25:52.000Z</time>
      </trkpt>
      <trkpt lat="42.558217" lon="0.749927">
        <ele>1279.2</ele>
        <time>1970-01-01T03:25:53.000Z</time>
      </trkpt>
      <trkpt lat="42.557965" lon="0.749673">
        <ele>1278.8</ele>
        <time>1970-01-01T03:25:59.000Z</time>
      </trkpt>
      <trkpt lat="42.557861" lon="0.749528">
        <ele>1279.4</ele>
        <time>1970-01-01T03:26:03.000Z</time>
      </trkpt>
      <trkpt lat="42.55762" lon="0.749353">
        <ele>1279.4</ele>
        <time>1970-01-01T03:26:09.000Z</time>
      </trkpt>
      <trkpt lat="42.557573" lon="0.749335">
        <ele>1279.4</ele>
        <time>1970-01-01T03:26:10.000Z</time>
      </trkpt>
      <trkpt lat="42.557079" lon="0.749181">
        <ele>1278.6</ele>
        <time>1970-01-01T03:26:20.000Z</time>
      </trkpt>
      <trkpt lat="42.556986" lon="0.749146">
        <ele>1278.6</ele>
        <time>1970-01-01T03:26:22.000Z</time>
      </trkpt>
      <trkpt lat="42.556769" lon="0.749064">
        <ele>1277.4</ele>
        <time>1970-01-01T03:26:26.000Z</time>
      </trkpt>
      <trkpt lat="42.556702" lon="0.749051">
        <ele>1276.8</ele>
        <time>1970-01-01T03:26:27.000Z</time>
      </trkpt>
      <trkpt lat="42.556633" lon="0.749046">
        <ele>1276.2</ele>
        <time>1970-01-01T03:26:28.000Z</time>
      </trkpt>
      <trkpt lat="42.556491" lon="0.749046">
        <ele>1275.4</ele>
        <time>1970-01-01T03:26:30.000Z</time>
      </trkpt>
      <trkpt lat="42.556414" lon="0.749039">
        <ele>1274.4</ele>
        <time>1970-01-01T03:26:31.000Z</time>
      </trkpt>
      <trkpt lat="42.556242" lon="0.749018">
        <ele>1272.4</ele>
        <time>1970-01-01T03:26:33.000Z</time>
      </trkpt>
      <trkpt lat="42.556151" lon="0.749008">
        <ele>1271.4</ele>
        <time>1970-01-01T03:26:34.000Z</time>
      </trkpt>
      <trkpt lat="42.555964" lon="0.748986">
        <ele>1270</ele>
        <time>1970-01-01T03:26:36.000Z</time>
      </trkpt>
      <trkpt lat="42.555775" lon="0.748968">
        <ele>1269</ele>
        <time>1970-01-01T03:26:38.000Z</time>
      </trkpt>
      <trkpt lat="42.555585" lon="0.748978">
        <ele>1267.4</ele>
        <time>1970-01-01T03:26:40.000Z</time>
      </trkpt>
      <trkpt lat="42.555404" lon="0.74904">
        <ele>1266</ele>
        <time>1970-01-01T03:26:42.000Z</time>
      </trkpt>
      <trkpt lat="42.555156" lon="0.749189">
        <ele>1265.2</ele>
        <time>1970-01-01T03:26:45.000Z</time>
      </trkpt>
      <trkpt lat="42.555084" lon="0.749258">
        <ele>1264.8</ele>
        <time>1970-01-01T03:26:46.000Z</time>
      </trkpt>
      <trkpt lat="42.55496" lon="0.74942">
        <ele>1263.4</ele>
        <time>1970-01-01T03:26:48.000Z</time>
      </trkpt>
      <trkpt lat="42.554738" lon="0.749744">
        <ele>1262.4</ele>
        <time>1970-01-01T03:26:52.000Z</time>
      </trkpt>
      <trkpt lat="42.554547" lon="0.749973">
        <ele>1261.2</ele>
        <time>1970-01-01T03:26:55.000Z</time>
      </trkpt>
      <trkpt lat="42.554408" lon="0.750067">
        <ele>1259.2</ele>
        <time>1970-01-01T03:26:57.000Z</time>
      </trkpt>
      <trkpt lat="42.554233" lon="0.750226">
        <ele>1258.2</ele>
        <time>1970-01-01T03:27:00.000Z</time>
      </trkpt>
      <trkpt lat="42.554198" lon="0.750306">
        <ele>1257.8</ele>
        <time>1970-01-01T03:27:01.000Z</time>
      </trkpt>
      <trkpt lat="42.55412" lon="0.750451">
        <ele>1257.6</ele>
        <time>1970-01-01T03:27:03.000Z</time>
      </trkpt>
      <trkpt lat="42.553933" lon="0.750532">
        <ele>1258.4</ele>
        <time>1970-01-01T03:27:09.000Z</time>
      </trkpt>
      <trkpt lat="42.553875" lon="0.750537">
        <ele>1259.4</ele>
        <time>1970-01-01T03:27:12.000Z</time>
      </trkpt>
      <trkpt lat="42.553753" lon="0.750538">
        <ele>1260.6</ele>
        <time>1970-01-01T03:27:18.000Z</time>
      </trkpt>
      <trkpt lat="42.553652" lon="0.750559">
        <ele>1261.8</ele>
        <time>1970-01-01T03:27:23.000Z</time>
      </trkpt>
      <trkpt lat="42.553526" lon="0.750547">
        <ele>1263</ele>
        <time>1970-01-01T03:27:30.000Z</time>
      </trkpt>
      <trkpt lat="42.55349" lon="0.750551">
        <ele>1263.4</ele>
        <time>1970-01-01T03:27:32.000Z</time>
      </trkpt>
      <trkpt lat="42.553387" lon="0.75057">
        <ele>1264.2</ele>
        <time>1970-01-01T03:27:37.000Z</time>
      </trkpt>
      <trkpt lat="42.553201" lon="0.750567">
        <ele>1265.2</ele>
        <time>1970-01-01T03:27:44.000Z</time>
      </trkpt>
      <trkpt lat="42.552717" lon="0.750736">
        <ele>1266.4</ele>
        <time>1970-01-01T03:28:05.000Z</time>
      </trkpt>
      <trkpt lat="42.552563" lon="0.750749">
        <ele>1267.4</ele>
        <time>1970-01-01T03:28:12.000Z</time>
      </trkpt>
      <trkpt lat="42.552538" lon="0.75074">
        <ele>1267.4</ele>
        <time>1970-01-01T03:28:13.000Z</time>
      </trkpt>
      <trkpt lat="42.552461" lon="0.750723">
        <ele>1268</ele>
        <time>1970-01-01T03:28:16.000Z</time>
      </trkpt>
      <trkpt lat="42.552406" lon="0.750692">
        <ele>1268.6</ele>
        <time>1970-01-01T03:28:19.000Z</time>
      </trkpt>
      <trkpt lat="42.552299" lon="0.750592">
        <ele>1269.8</ele>
        <time>1970-01-01T03:28:26.000Z</time>
      </trkpt>
      <trkpt lat="42.552178" lon="0.750558">
        <ele>1271</ele>
        <time>1970-01-01T03:28:32.000Z</time>
      </trkpt>
      <trkpt lat="42.552089" lon="0.75049">
        <ele>1272</ele>
        <time>1970-01-01T03:28:38.000Z</time>
      </trkpt>
      <trkpt lat="42.551861" lon="0.750151">
        <ele>1273.4</ele>
        <time>1970-01-01T03:28:52.000Z</time>
      </trkpt>
      <trkpt lat="42.55181" lon="0.750027">
        <ele>1273.2</ele>
        <time>1970-01-01T03:28:55.000Z</time>
      </trkpt>
      <trkpt lat="42.551701" lon="0.749774">
        <ele>1272.4</ele>
        <time>1970-01-01T03:29:00.000Z</time>
      </trkpt>
      <trkpt lat="42.551469" lon="0.749423">
        <ele>1271.6</ele>
        <time>1970-01-01T03:29:10.000Z</time>
      </trkpt>
      <trkpt lat="42.551443" lon="0.749414">
        <ele>1271.6</ele>
        <time>1970-01-01T03:29:11.000Z</time>
      </trkpt>
      <trkpt lat="42.551375" lon="0.749418">
        <ele>1271.2</ele>
        <time>1970-01-01T03:29:14.000Z</time>
      </trkpt>
      <trkpt lat="42.551284" lon="0.749373">
        <ele>1271</ele>
        <time>1970-01-01T03:29:20.000Z</time>
      </trkpt>
      <trkpt lat="42.551224" lon="0.749339">
        <ele>1270.2</ele>
        <time>1970-01-01T03:29:23.000Z</time>
      </trkpt>
      <trkpt lat="42.551122" lon="0.749288">
        <ele>1268.8</ele>
        <time>1970-01-01T03:29:27.000Z</time>
      </trkpt>
      <trkpt lat="42.551103" lon="0.749263">
        <ele>1268.6</ele>
        <time>1970-01-01T03:29:28.000Z</time>
      </trkpt>
      <trkpt lat="42.551065" lon="0.749211">
        <ele>1267.8</ele>
        <time>1970-01-01T03:29:30.000Z</time>
      </trkpt>
      <trkpt lat="42.551002" lon="0.749078">
        <ele>1266.4</ele>
        <time>1970-01-01T03:29:34.000Z</time>
      </trkpt>
      <trkpt lat="42.550964" lon="0.749016">
        <ele>1265.4</ele>
        <time>1970-01-01T03:29:36.000Z</time>
      </trkpt>
      <trkpt lat="42.550905" lon="0.748907">
        <ele>1263.8</ele>
        <time>1970-01-01T03:29:39.000Z</time>
      </trkpt>
      <trkpt lat="42.550865" lon="0.748811">
        <ele>1263</ele>
        <time>1970-01-01T03:29:41.000Z</time>
      </trkpt>
      <trkpt lat="42.550842" lon="0.74878">
        <ele>1262.6</ele>
        <time>1970-01-01T03:29:42.000Z</time>
      </trkpt>
      <trkpt lat="42.550643" lon="0.748695">
        <ele>1261.2</ele>
        <time>1970-01-01T03:29:49.000Z</time>
      </trkpt>
      <trkpt lat="42.550471" lon="0.748613">
        <ele>1259.8</ele>
        <time>1970-01-01T03:29:53.000Z</time>
      </trkpt>
      <trkpt lat="42.550436" lon="0.748487">
        <ele>1258.8</ele>
        <time>1970-01-01T03:29:55.000Z</time>
      </trkpt>
      <trkpt lat="42.550405" lon="0.748425">
        <ele>1258.2</ele>
        <time>1970-01-01T03:29:56.000Z</time>
      </trkpt>
      <trkpt lat="42.55036" lon="0.748372">
        <ele>1257.6</ele>
        <time>1970-01-01T03:29:57.000Z</time>
      </trkpt>
      <trkpt lat="42.55025" lon="0.748278">
        <ele>1256.6</ele>
        <time>1970-01-01T03:29:59.000Z</time>
      </trkpt>
      <trkpt lat="42.550094" lon="0.748164">
        <ele>1255.6</ele>
        <time>1970-01-01T03:30:02.000Z</time>
      </trkpt>
      <trkpt lat="42.550004" lon="0.748106">
        <ele>1254.6</ele>
        <time>1970-01-01T03:30:04.000Z</time>
      </trkpt>
      <trkpt lat="42.549911" lon="0.748064">
        <ele>1253.4</ele>
        <time>1970-01-01T03:30:06.000Z</time>
      </trkpt>
      <trkpt lat="42.549873" lon="0.748035">
        <ele>1251.8</ele>
        <time>1970-01-01T03:30:07.000Z</time>
      </trkpt>
      <trkpt lat="42.549836" lon="0.748003">
        <ele>1250.8</ele>
        <time>1970-01-01T03:30:08.000Z</time>
      </trkpt>
      <trkpt lat="42.549759" lon="0.747928">
        <ele>1249.4</ele>
        <time>1970-01-01T03:30:10.000Z</time>
      </trkpt>
      <trkpt lat="42.549712" lon="0.747811">
        <ele>1248</ele>
        <time>1970-01-01T03:30:12.000Z</time>
      </trkpt>
      <trkpt lat="42.549677" lon="0.747679">
        <ele>1246.6</ele>
        <time>1970-01-01T03:30:14.000Z</time>
      </trkpt>
      <trkpt lat="42.549626" lon="0.747537">
        <ele>1245.4</ele>
        <time>1970-01-01T03:30:16.000Z</time>
      </trkpt>
      <trkpt lat="42.549585" lon="0.74737">
        <ele>1243.8</ele>
        <time>1970-01-01T03:30:18.000Z</time>
      </trkpt>
      <trkpt lat="42.549559" lon="0.747291">
        <ele>1242.8</ele>
        <time>1970-01-01T03:30:19.000Z</time>
      </trkpt>
      <trkpt lat="42.549492" lon="0.747143">
        <ele>1241.2</ele>
        <time>1970-01-01T03:30:21.000Z</time>
      </trkpt>
      <trkpt lat="42.549441" lon="0.746968">
        <ele>1240.2</ele>
        <time>1970-01-01T03:30:23.000Z</time>
      </trkpt>
      <trkpt lat="42.54942" lon="0.746771">
        <ele>1238.6</ele>
        <time>1970-01-01T03:30:25.000Z</time>
      </trkpt>
      <trkpt lat="42.549389" lon="0.746582">
        <ele>1237.2</ele>
        <time>1970-01-01T03:30:27.000Z</time>
      </trkpt>
      <trkpt lat="42.549312" lon="0.746345">
        <ele>1235.8</ele>
        <time>1970-01-01T03:30:30.000Z</time>
      </trkpt>
      <trkpt lat="42.549238" lon="0.746093">
        <ele>1234.4</ele>
        <time>1970-01-01T03:30:33.000Z</time>
      </trkpt>
      <trkpt lat="42.549172" lon="0.74592">
        <ele>1233.4</ele>
        <time>1970-01-01T03:30:35.000Z</time>
      </trkpt>
      <trkpt lat="42.549128" lon="0.745838">
        <ele>1233</ele>
        <time>1970-01-01T03:30:36.000Z</time>
      </trkpt>
      <trkpt lat="42.549027" lon="0.745693">
        <ele>1231.8</ele>
        <time>1970-01-01T03:30:38.000Z</time>
      </trkpt>
      <trkpt lat="42.548841" lon="0.745559">
        <ele>1230.6</ele>
        <time>1970-01-01T03:30:41.000Z</time>
      </trkpt>
      <trkpt lat="42.548769" lon="0.74553">
        <ele>1230.2</ele>
        <time>1970-01-01T03:30:42.000Z</time>
      </trkpt>
      <trkpt lat="42.548601" lon="0.745485">
        <ele>1229.4</ele>
        <time>1970-01-01T03:30:44.000Z</time>
      </trkpt>
      <trkpt lat="42.548349" lon="0.745411">
        <ele>1227.6</ele>
        <time>1970-01-01T03:30:47.000Z</time>
      </trkpt>
      <trkpt lat="42.548269" lon="0.745371">
        <ele>1226.8</ele>
        <time>1970-01-01T03:30:48.000Z</time>
      </trkpt>
      <trkpt lat="42.548199" lon="0.745312">
        <ele>1226.2</ele>
        <time>1970-01-01T03:30:49.000Z</time>
      </trkpt>
      <trkpt lat="42.54809" lon="0.745049">
        <ele>1224.8</ele>
        <time>1970-01-01T03:30:52.000Z</time>
      </trkpt>
      <trkpt lat="42.548071" lon="0.744945">
        <ele>1224.6</ele>
        <time>1970-01-01T03:30:53.000Z</time>
      </trkpt>
      <trkpt lat="42.548038" lon="0.744735">
        <ele>1223.6</ele>
        <time>1970-01-01T03:30:55.000Z</time>
      </trkpt>
      <trkpt lat="42.548016" lon="0.744508">
        <ele>1222</ele>
        <time>1970-01-01T03:30:57.000Z</time>
      </trkpt>
      <trkpt lat="42.548012" lon="0.744266">
        <ele>1220.6</ele>
        <time>1970-01-01T03:30:59.000Z</time>
      </trkpt>
      <trkpt lat="42.548025" lon="0.744002">
        <ele>1218.8</ele>
        <time>1970-01-01T03:31:01.000Z</time>
      </trkpt>
      <trkpt lat="42.548048" lon="0.743743">
        <ele>1217.2</ele>
        <time>1970-01-01T03:31:03.000Z</time>
      </trkpt>
      <trkpt lat="42.548052" lon="0.743627">
        <ele>1216</ele>
        <time>1970-01-01T03:31:04.000Z</time>
      </trkpt>
      <trkpt lat="42.548051" lon="0.743523">
        <ele>1214.4</ele>
        <time>1970-01-01T03:31:05.000Z</time>
      </trkpt>
      <trkpt lat="42.548043" lon="0.74343">
        <ele>1213.4</ele>
        <time>1970-01-01T03:31:06.000Z</time>
      </trkpt>
      <trkpt lat="42.548027" lon="0.743349">
        <ele>1212.4</ele>
        <time>1970-01-01T03:31:07.000Z</time>
      </trkpt>
      <trkpt lat="42.547963" lon="0.7432">
        <ele>1210.8</ele>
        <time>1970-01-01T03:31:09.000Z</time>
      </trkpt>
      <trkpt lat="42.547852" lon="0.742942">
        <ele>1209.4</ele>
        <time>1970-01-01T03:31:12.000Z</time>
      </trkpt>
      <trkpt lat="42.547799" lon="0.742884">
        <ele>1208.8</ele>
        <time>1970-01-01T03:31:13.000Z</time>
      </trkpt>
      <trkpt lat="42.54773" lon="0.742854">
        <ele>1207.8</ele>
        <time>1970-01-01T03:31:14.000Z</time>
      </trkpt>
      <trkpt lat="42.547671" lon="0.742834">
        <ele>1207</ele>
        <time>1970-01-01T03:31:15.000Z</time>
      </trkpt>
      <trkpt lat="42.547626" lon="0.742818">
        <ele>1206.2</ele>
        <time>1970-01-01T03:31:16.000Z</time>
      </trkpt>
      <trkpt lat="42.547537" lon="0.742795">
        <ele>1204.8</ele>
        <time>1970-01-01T03:31:18.000Z</time>
      </trkpt>
      <trkpt lat="42.547443" lon="0.742778">
        <ele>1204</ele>
        <time>1970-01-01T03:31:20.000Z</time>
      </trkpt>
      <trkpt lat="42.547344" lon="0.74275">
        <ele>1202.8</ele>
        <time>1970-01-01T03:31:22.000Z</time>
      </trkpt>
      <trkpt lat="42.547217" lon="0.742722">
        <ele>1201.2</ele>
        <time>1970-01-01T03:31:25.000Z</time>
      </trkpt>
      <trkpt lat="42.546698" lon="0.742715">
        <ele>1202</ele>
        <time>1970-01-01T03:31:47.000Z</time>
      </trkpt>
      <trkpt lat="42.546639" lon="0.742648">
        <ele>1200.2</ele>
        <time>1970-01-01T03:31:50.000Z</time>
      </trkpt>
      <trkpt lat="42.546638" lon="0.742598">
        <ele>1198.8</ele>
        <time>1970-01-01T03:31:52.000Z</time>
      </trkpt>
      <trkpt lat="42.546645" lon="0.742571">
        <ele>1198.4</ele>
        <time>1970-01-01T03:31:53.000Z</time>
      </trkpt>
      <trkpt lat="42.54665" lon="0.742542">
        <ele>1197.8</ele>
        <time>1970-01-01T03:31:54.000Z</time>
      </trkpt>
      <trkpt lat="42.546669" lon="0.742439">
        <ele>1196.2</ele>
        <time>1970-01-01T03:31:57.000Z</time>
      </trkpt>
      <trkpt lat="42.546674" lon="0.742373">
        <ele>1195.2</ele>
        <time>1970-01-01T03:31:59.000Z</time>
      </trkpt>
      <trkpt lat="42.546669" lon="0.742343">
        <ele>1194.6</ele>
        <time>1970-01-01T03:32:00.000Z</time>
      </trkpt>
      <trkpt lat="42.546657" lon="0.742323">
        <ele>1194</ele>
        <time>1970-01-01T03:32:01.000Z</time>
      </trkpt>
      <trkpt lat="42.546608" lon="0.742314">
        <ele>1192.6</ele>
        <time>1970-01-01T03:32:04.000Z</time>
      </trkpt>
      <trkpt lat="42.546561" lon="0.74237">
        <ele>1191.6</ele>
        <time>1970-01-01T03:32:08.000Z</time>
      </trkpt>
      <trkpt lat="42.546556" lon="0.742408">
        <ele>1190.4</ele>
        <time>1970-01-01T03:32:10.000Z</time>
      </trkpt>
      <trkpt lat="42.546549" lon="0.742482">
        <ele>1189.4</ele>
        <time>1970-01-01T03:32:13.000Z</time>
      </trkpt>
      <trkpt lat="42.546529" lon="0.742525">
        <ele>1188.2</ele>
        <time>1970-01-01T03:32:15.000Z</time>
      </trkpt>
      <trkpt lat="42.546505" lon="0.742547">
        <ele>1187</ele>
        <time>1970-01-01T03:32:17.000Z</time>
      </trkpt>
      <trkpt lat="42.546469" lon="0.74257">
        <ele>1185.6</ele>
        <time>1970-01-01T03:32:20.000Z</time>
      </trkpt>
      <trkpt lat="42.546433" lon="0.742595">
        <ele>1184.2</ele>
        <time>1970-01-01T03:32:22.000Z</time>
      </trkpt>
      <trkpt lat="42.546401" lon="0.742632">
        <ele>1182.4</ele>
        <time>1970-01-01T03:32:24.000Z</time>
      </trkpt>
      <trkpt lat="42.54631" lon="0.742653">
        <ele>1181.2</ele>
        <time>1970-01-01T03:32:27.000Z</time>
      </trkpt>
      <trkpt lat="42.546264" lon="0.742641">
        <ele>1180.4</ele>
        <time>1970-01-01T03:32:32.000Z</time>
      </trkpt>
      <trkpt lat="42.546217" lon="0.742628">
        <ele>1180.2</ele>
        <time>1970-01-01T03:32:35.000Z</time>
      </trkpt>
      <trkpt lat="42.546171" lon="0.742616">
        <ele>1180</ele>
        <time>1970-01-01T03:33:13.000Z</time>
      </trkpt>
      <trkpt lat="42.546124" lon="0.742604">
        <ele>1179.6</ele>
        <time>1970-01-01T03:33:14.000Z</time>
      </trkpt>
      <trkpt lat="42.545969" lon="0.742581">
        <ele>1178.2</ele>
        <time>1970-01-01T03:33:17.000Z</time>
      </trkpt>
      <trkpt lat="42.545917" lon="0.742588">
        <ele>1177.8</ele>
        <time>1970-01-01T03:33:18.000Z</time>
      </trkpt>
      <trkpt lat="42.545803" lon="0.742585">
        <ele>1176.8</ele>
        <time>1970-01-01T03:33:20.000Z</time>
      </trkpt>
      <trkpt lat="42.545619" lon="0.742463">
        <ele>1175.8</ele>
        <time>1970-01-01T03:33:23.000Z</time>
      </trkpt>
      <trkpt lat="42.545527" lon="0.742352">
        <ele>1175.6</ele>
        <time>1970-01-01T03:33:25.000Z</time>
      </trkpt>
      <trkpt lat="42.545427" lon="0.74226">
        <ele>1174.6</ele>
        <time>1970-01-01T03:33:27.000Z</time>
      </trkpt>
      <trkpt lat="42.545333" lon="0.742181">
        <ele>1173.4</ele>
        <time>1970-01-01T03:33:30.000Z</time>
      </trkpt>
      <trkpt lat="42.545264" lon="0.742108">
        <ele>1172.2</ele>
        <time>1970-01-01T03:33:33.000Z</time>
      </trkpt>
      <trkpt lat="42.545221" lon="0.742052">
        <ele>1171</ele>
        <time>1970-01-01T03:33:35.000Z</time>
      </trkpt>
      <trkpt lat="42.54519" lon="0.741949">
        <ele>1169.8</ele>
        <time>1970-01-01T03:33:38.000Z</time>
      </trkpt>
      <trkpt lat="42.545172" lon="0.741859">
        <ele>1168.4</ele>
        <time>1970-01-01T03:33:41.000Z</time>
      </trkpt>
      <trkpt lat="42.545134" lon="0.741807">
        <ele>1167.6</ele>
        <time>1970-01-01T03:33:44.000Z</time>
      </trkpt>
      <trkpt lat="42.545059" lon="0.741722">
        <ele>1166.4</ele>
        <time>1970-01-01T03:33:47.000Z</time>
      </trkpt>
      <trkpt lat="42.544993" lon="0.741585">
        <ele>1165.2</ele>
        <time>1970-01-01T03:33:50.000Z</time>
      </trkpt>
      <trkpt lat="42.544976" lon="0.741473">
        <ele>1163.8</ele>
        <time>1970-01-01T03:33:53.000Z</time>
      </trkpt>
      <trkpt lat="42.544919" lon="0.741314">
        <ele>1162.4</ele>
        <time>1970-01-01T03:33:58.000Z</time>
      </trkpt>
      <trkpt lat="42.544898" lon="0.741227">
        <ele>1161.2</ele>
        <time>1970-01-01T03:34:01.000Z</time>
      </trkpt>
      <trkpt lat="42.544878" lon="0.741171">
        <ele>1160.2</ele>
        <time>1970-01-01T03:34:03.000Z</time>
      </trkpt>
      <trkpt lat="42.544857" lon="0.741103">
        <ele>1159.2</ele>
        <time>1970-01-01T03:34:06.000Z</time>
      </trkpt>
      <trkpt lat="42.544816" lon="0.740963">
        <ele>1157.8</ele>
        <time>1970-01-01T03:34:10.000Z</time>
      </trkpt>
      <trkpt lat="42.544786" lon="0.740843">
        <ele>1156.6</ele>
        <time>1970-01-01T03:34:13.000Z</time>
      </trkpt>
      <trkpt lat="42.544755" lon="0.740688">
        <ele>1155</ele>
        <time>1970-01-01T03:34:16.000Z</time>
      </trkpt>
      <trkpt lat="42.544749" lon="0.740638">
        <ele>1154.6</ele>
        <time>1970-01-01T03:34:17.000Z</time>
      </trkpt>
      <trkpt lat="42.544743" lon="0.740583">
        <ele>1154</ele>
        <time>1970-01-01T03:34:18.000Z</time>
      </trkpt>
      <trkpt lat="42.544723" lon="0.740502">
        <ele>1153</ele>
        <time>1970-01-01T03:34:22.000Z</time>
      </trkpt>
      <trkpt lat="42.544707" lon="0.740463">
        <ele>1152.8</ele>
        <time>1970-01-01T03:34:24.000Z</time>
      </trkpt>
      <trkpt lat="42.544614" lon="0.740377">
        <ele>1151.4</ele>
        <time>1970-01-01T03:34:28.000Z</time>
      </trkpt>
      <trkpt lat="42.544534" lon="0.740334">
        <ele>1150.6</ele>
        <time>1970-01-01T03:34:30.000Z</time>
      </trkpt>
      <trkpt lat="42.544489" lon="0.74032">
        <ele>1150.2</ele>
        <time>1970-01-01T03:34:31.000Z</time>
      </trkpt>
      <trkpt lat="42.544329" lon="0.740275">
        <ele>1148.2</ele>
        <time>1970-01-01T03:34:34.000Z</time>
      </trkpt>
      <trkpt lat="42.544209" lon="0.740248">
        <ele>1146.6</ele>
        <time>1970-01-01T03:34:36.000Z</time>
      </trkpt>
      <trkpt lat="42.544083" lon="0.740224">
        <ele>1145.2</ele>
        <time>1970-01-01T03:34:38.000Z</time>
      </trkpt>
      <trkpt lat="42.54396" lon="0.740189">
        <ele>1143.6</ele>
        <time>1970-01-01T03:34:40.000Z</time>
      </trkpt>
      <trkpt lat="42.543899" lon="0.74016">
        <ele>1143</ele>
        <time>1970-01-01T03:34:41.000Z</time>
      </trkpt>
      <trkpt lat="42.543777" lon="0.740096">
        <ele>1142.2</ele>
        <time>1970-01-01T03:34:43.000Z</time>
      </trkpt>
      <trkpt lat="42.543648" lon="0.740025">
        <ele>1141.4</ele>
        <time>1970-01-01T03:34:45.000Z</time>
      </trkpt>
      <trkpt lat="42.543514" lon="0.739942">
        <ele>1140.4</ele>
        <time>1970-01-01T03:34:47.000Z</time>
      </trkpt>
      <trkpt lat="42.543297" lon="0.739822">
        <ele>1139.2</ele>
        <time>1970-01-01T03:34:50.000Z</time>
      </trkpt>
      <trkpt lat="42.543021" lon="0.739616">
        <ele>1138</ele>
        <time>1970-01-01T03:34:55.000Z</time>
      </trkpt>
      <trkpt lat="42.54288" lon="0.73952">
        <ele>1136.8</ele>
        <time>1970-01-01T03:34:59.000Z</time>
      </trkpt>
      <trkpt lat="42.542772" lon="0.739457">
        <ele>1135.8</ele>
        <time>1970-01-01T03:35:03.000Z</time>
      </trkpt>
      <trkpt lat="42.542627" lon="0.739383">
        <ele>1134.6</ele>
        <time>1970-01-01T03:35:13.000Z</time>
      </trkpt>
      <trkpt lat="42.542579" lon="0.739352">
        <ele>1134.2</ele>
        <time>1970-01-01T03:35:17.000Z</time>
      </trkpt>
      <trkpt lat="42.54251" lon="0.73928">
        <ele>1133.8</ele>
        <time>1970-01-01T03:35:24.000Z</time>
      </trkpt>
      <trkpt lat="42.542123" lon="0.738811">
        <ele>1134</ele>
        <time>1970-01-01T03:35:43.000Z</time>
      </trkpt>
      <trkpt lat="42.542086" lon="0.738797">
        <ele>1133.8</ele>
        <time>1970-01-01T03:35:44.000Z</time>
      </trkpt>
      <trkpt lat="42.541668" lon="0.738589">
        <ele>1134.4</ele>
        <time>1970-01-01T03:35:57.000Z</time>
      </trkpt>
      <trkpt lat="42.541531" lon="0.738563">
        <ele>1132.8</ele>
        <time>1970-01-01T03:36:01.000Z</time>
      </trkpt>
      <trkpt lat="42.541471" lon="0.738546">
        <ele>1131.8</ele>
        <time>1970-01-01T03:36:03.000Z</time>
      </trkpt>
      <trkpt lat="42.541353" lon="0.738483">
        <ele>1130.6</ele>
        <time>1970-01-01T03:36:08.000Z</time>
      </trkpt>
      <trkpt lat="42.541165" lon="0.738297">
        <ele>1130</ele>
        <time>1970-01-01T03:36:14.000Z</time>
      </trkpt>
      <trkpt lat="42.541128" lon="0.738254">
        <ele>1129.8</ele>
        <time>1970-01-01T03:36:15.000Z</time>
      </trkpt>
      <trkpt lat="42.541024" lon="0.738126">
        <ele>1128.8</ele>
        <time>1970-01-01T03:36:18.000Z</time>
      </trkpt>
      <trkpt lat="42.541001" lon="0.738065">
        <ele>1128.4</ele>
        <time>1970-01-01T03:36:19.000Z</time>
      </trkpt>
      <trkpt lat="42.540972" lon="0.737856">
        <ele>1127.8</ele>
        <time>1970-01-01T03:36:22.000Z</time>
      </trkpt>
      <trkpt lat="42.540949" lon="0.737699">
        <ele>1127.8</ele>
        <time>1970-01-01T03:36:24.000Z</time>
      </trkpt>
      <trkpt lat="42.540905" lon="0.737537">
        <ele>1127.2</ele>
        <time>1970-01-01T03:36:26.000Z</time>
      </trkpt>
      <trkpt lat="42.540829" lon="0.737338">
        <ele>1126.2</ele>
        <time>1970-01-01T03:36:29.000Z</time>
      </trkpt>
      <trkpt lat="42.5407" lon="0.737177">
        <ele>1124.8</ele>
        <time>1970-01-01T03:36:32.000Z</time>
      </trkpt>
      <trkpt lat="42.540597" lon="0.737031">
        <ele>1123.2</ele>
        <time>1970-01-01T03:36:34.000Z</time>
      </trkpt>
      <trkpt lat="42.540547" lon="0.736943">
        <ele>1122.2</ele>
        <time>1970-01-01T03:36:35.000Z</time>
      </trkpt>
      <trkpt lat="42.54046" lon="0.736746">
        <ele>1121</ele>
        <time>1970-01-01T03:36:37.000Z</time>
      </trkpt>
      <trkpt lat="42.540425" lon="0.736557">
        <ele>1120</ele>
        <time>1970-01-01T03:36:39.000Z</time>
      </trkpt>
      <trkpt lat="42.540385" lon="0.736391">
        <ele>1118.4</ele>
        <time>1970-01-01T03:36:41.000Z</time>
      </trkpt>
      <trkpt lat="42.540355" lon="0.736208">
        <ele>1117.4</ele>
        <time>1970-01-01T03:36:43.000Z</time>
      </trkpt>
      <trkpt lat="42.540358" lon="0.735935">
        <ele>1116.2</ele>
        <time>1970-01-01T03:36:46.000Z</time>
      </trkpt>
      <trkpt lat="42.540364" lon="0.735768">
        <ele>1115.6</ele>
        <time>1970-01-01T03:36:48.000Z</time>
      </trkpt>
      <trkpt lat="42.540359" lon="0.735512">
        <ele>1117.2</ele>
        <time>1970-01-01T03:36:54.000Z</time>
      </trkpt>
      <trkpt lat="42.54025" lon="0.735347">
        <ele>1117.2</ele>
        <time>1970-01-01T03:37:04.000Z</time>
      </trkpt>
      <trkpt lat="42.540262" lon="0.735261">
        <ele>1117</ele>
        <time>1970-01-01T03:37:15.000Z</time>
      </trkpt>
      <trkpt lat="42.540197" lon="0.735176">
        <ele>1116.4</ele>
        <time>1970-01-01T03:37:20.000Z</time>
      </trkpt>
      <trkpt lat="42.54015" lon="0.735156">
        <ele>1115.4</ele>
        <time>1970-01-01T03:37:24.000Z</time>
      </trkpt>
      <trkpt lat="42.540141" lon="0.735151">
        <ele>1115.2</ele>
        <time>1970-01-01T03:37:25.000Z</time>
      </trkpt>
      <trkpt lat="42.540116" lon="0.735141">
        <ele>1115</ele>
        <time>1970-01-01T03:37:27.000Z</time>
      </trkpt>
      <trkpt lat="42.54007" lon="0.735097">
        <ele>1114</ele>
        <time>1970-01-01T03:37:31.000Z</time>
      </trkpt>
      <trkpt lat="42.540062" lon="0.735082">
        <ele>1113.8</ele>
        <time>1970-01-01T03:37:32.000Z</time>
      </trkpt>
      <trkpt lat="42.540045" lon="0.73502">
        <ele>1113</ele>
        <time>1970-01-01T03:37:37.000Z</time>
      </trkpt>
      <trkpt lat="42.540038" lon="0.734933">
        <ele>1112</ele>
        <time>1970-01-01T03:37:46.000Z</time>
      </trkpt>
      <trkpt lat="42.54001" lon="0.734831">
        <ele>1110.8</ele>
        <time>1970-01-01T03:37:50.000Z</time>
      </trkpt>
      <trkpt lat="42.539976" lon="0.734747">
        <ele>1109.8</ele>
        <time>1970-01-01T03:37:53.000Z</time>
      </trkpt>
      <trkpt lat="42.539949" lon="0.734656">
        <ele>1108.8</ele>
        <time>1970-01-01T03:37:56.000Z</time>
      </trkpt>
      <trkpt lat="42.539912" lon="0.734564">
        <ele>1107.8</ele>
        <time>1970-01-01T03:38:00.000Z</time>
      </trkpt>
      <trkpt lat="42.53988" lon="0.734501">
        <ele>1106.8</ele>
        <time>1970-01-01T03:38:03.000Z</time>
      </trkpt>
      <trkpt lat="42.539797" lon="0.734406">
        <ele>1105.6</ele>
        <time>1970-01-01T03:38:07.000Z</time>
      </trkpt>
      <trkpt lat="42.539689" lon="0.734331">
        <ele>1105.2</ele>
        <time>1970-01-01T03:38:11.000Z</time>
      </trkpt>
      <trkpt lat="42.539609" lon="0.734139">
        <ele>1104.6</ele>
        <time>1970-01-01T03:38:17.000Z</time>
      </trkpt>
      <trkpt lat="42.539329" lon="0.733903">
        <ele>1103.8</ele>
        <time>1970-01-01T03:38:29.000Z</time>
      </trkpt>
      <trkpt lat="42.538999" lon="0.733412">
        <ele>1102.8</ele>
        <time>1970-01-01T03:38:48.000Z</time>
      </trkpt>
      <trkpt lat="42.538791" lon="0.732728">
        <ele>1102</ele>
        <time>1970-01-01T03:39:03.000Z</time>
      </trkpt>
      <trkpt lat="42.538754" lon="0.732633">
        <ele>1102</ele>
        <time>1970-01-01T03:39:05.000Z</time>
      </trkpt>
      <trkpt lat="42.538737" lon="0.732581">
        <ele>1101.8</ele>
        <time>1970-01-01T03:39:06.000Z</time>
      </trkpt>
      <trkpt lat="42.538645" lon="0.73224">
        <ele>1100.8</ele>
        <time>1970-01-01T03:39:12.000Z</time>
      </trkpt>
      <trkpt lat="42.53861" lon="0.732115">
        <ele>1100.4</ele>
        <time>1970-01-01T03:39:14.000Z</time>
      </trkpt>
      <trkpt lat="42.538516" lon="0.731956">
        <ele>1099.6</ele>
        <time>1970-01-01T03:39:17.000Z</time>
      </trkpt>
      <trkpt lat="42.538476" lon="0.731913">
        <ele>1099.4</ele>
        <time>1970-01-01T03:39:18.000Z</time>
      </trkpt>
      <trkpt lat="42.538189" lon="0.731642">
        <ele>1098.8</ele>
        <time>1970-01-01T03:39:25.000Z</time>
      </trkpt>
      <trkpt lat="42.538102" lon="0.731594">
        <ele>1098.8</ele>
        <time>1970-01-01T03:39:27.000Z</time>
      </trkpt>
      <trkpt lat="42.537866" lon="0.731527">
        <ele>1097.6</ele>
        <time>1970-01-01T03:39:32.000Z</time>
      </trkpt>
      <trkpt lat="42.537697" lon="0.731432">
        <ele>1096.2</ele>
        <time>1970-01-01T03:39:35.000Z</time>
      </trkpt>
      <trkpt lat="42.537581" lon="0.731349">
        <ele>1095.6</ele>
        <time>1970-01-01T03:39:37.000Z</time>
      </trkpt>
      <trkpt lat="42.537523" lon="0.731304">
        <ele>1095.2</ele>
        <time>1970-01-01T03:39:38.000Z</time>
      </trkpt>
      <trkpt lat="42.537238" lon="0.731092">
        <ele>1094.2</ele>
        <time>1970-01-01T03:39:43.000Z</time>
      </trkpt>
      <trkpt lat="42.536979" lon="0.730928">
        <ele>1093.4</ele>
        <time>1970-01-01T03:39:48.000Z</time>
      </trkpt>
      <trkpt lat="42.536878" lon="0.730899">
        <ele>1093</ele>
        <time>1970-01-01T03:39:50.000Z</time>
      </trkpt>
      <trkpt lat="42.536734" lon="0.730845">
        <ele>1092.6</ele>
        <time>1970-01-01T03:39:56.000Z</time>
      </trkpt>
      <trkpt lat="42.536719" lon="0.730855">
        <ele>1093</ele>
        <time>1970-01-01T03:40:11.000Z</time>
      </trkpt>
      <trkpt lat="42.536644" lon="0.730826">
        <ele>1093</ele>
        <time>1970-01-01T03:40:15.000Z</time>
      </trkpt>
      <trkpt lat="42.536489" lon="0.730712">
        <ele>1093.6</ele>
        <time>1970-01-01T03:40:25.000Z</time>
      </trkpt>
      <trkpt lat="42.536475" lon="0.730698">
        <ele>1093.6</ele>
        <time>1970-01-01T03:40:47.000Z</time>
      </trkpt>
      <trkpt lat="42.536064" lon="0.730385">
        <ele>1092.8</ele>
        <time>1970-01-01T03:41:00.000Z</time>
      </trkpt>
      <trkpt lat="42.535869" lon="0.730294">
        <ele>1092.4</ele>
        <time>1970-01-01T03:41:05.000Z</time>
      </trkpt>
      <trkpt lat="42.535795" lon="0.730225">
        <ele>1092</ele>
        <time>1970-01-01T03:41:07.000Z</time>
      </trkpt>
      <trkpt lat="42.535672" lon="0.730097">
        <ele>1090.8</ele>
        <time>1970-01-01T03:41:10.000Z</time>
      </trkpt>
      <trkpt lat="42.535535" lon="0.729949">
        <ele>1090.2</ele>
        <time>1970-01-01T03:41:13.000Z</time>
      </trkpt>
      <trkpt lat="42.535437" lon="0.729727">
        <ele>1089.8</ele>
        <time>1970-01-01T03:41:17.000Z</time>
      </trkpt>
      <trkpt lat="42.535287" lon="0.729505">
        <ele>1089.8</ele>
        <time>1970-01-01T03:41:23.000Z</time>
      </trkpt>
      <trkpt lat="42.535136" lon="0.729229">
        <ele>1088.8</ele>
        <time>1970-01-01T03:41:30.000Z</time>
      </trkpt>
      <trkpt lat="42.535029" lon="0.728995">
        <ele>1088.4</ele>
        <time>1970-01-01T03:41:35.000Z</time>
      </trkpt>
      <trkpt lat="42.534954" lon="0.728407">
        <ele>1088.8</ele>
        <time>1970-01-01T03:41:46.000Z</time>
      </trkpt>
      <trkpt lat="42.534933" lon="0.728325">
        <ele>1088.4</ele>
        <time>1970-01-01T03:41:50.000Z</time>
      </trkpt>
      <trkpt lat="42.534979" lon="0.728395">
        <ele>1089</ele>
        <time>1970-01-01T03:44:17.000Z</time>
      </trkpt>
      <trkpt lat="42.535007" lon="0.728551">
        <ele>1089.6</ele>
        <time>1970-01-01T03:44:23.000Z</time>
      </trkpt>
      <trkpt lat="42.535026" lon="0.728814">
        <ele>1089.4</ele>
        <time>1970-01-01T03:44:33.000Z</time>
      </trkpt>
      <trkpt lat="42.535026" lon="0.728844">
        <ele>1089.4</ele>
        <time>1970-01-01T03:44:44.000Z</time>
      </trkpt>
      <trkpt lat="42.535263" lon="0.7295">
        <ele>1090</ele>
        <time>1970-01-01T03:45:07.000Z</time>
      </trkpt>
      <trkpt lat="42.535277" lon="0.729518">
        <ele>1090</ele>
        <time>1970-01-01T03:45:11.000Z</time>
      </trkpt>
      <trkpt lat="42.53523" lon="0.729571">
        <ele>1090</ele>
        <time>1970-01-01T03:45:17.000Z</time>
      </trkpt>
      <trkpt lat="42.535192" lon="0.729625">
        <ele>1090.2</ele>
        <time>1970-01-01T03:45:20.000Z</time>
      </trkpt>
      <trkpt lat="42.534904" lon="0.730144">
        <ele>1090</ele>
        <time>1970-01-01T03:45:36.000Z</time>
      </trkpt>
      <trkpt lat="42.534631" lon="0.730003">
        <ele>1089</ele>
        <time>1970-01-01T03:45:44.000Z</time>
      </trkpt>
      <trkpt lat="42.534117" lon="0.729728">
        <ele>1089.6</ele>
        <time>1970-01-01T03:46:01.000Z</time>
      </trkpt>
      <trkpt lat="42.533628" lon="0.729406">
        <ele>1089.4</ele>
        <time>1970-01-01T03:46:17.000Z</time>
      </trkpt>
      <trkpt lat="42.533563" lon="0.729339">
        <ele>1089.4</ele>
        <time>1970-01-01T03:46:19.000Z</time>
      </trkpt>
      <trkpt lat="42.533486" lon="0.729278">
        <ele>1089.4</ele>
        <time>1970-01-01T03:46:21.000Z</time>
      </trkpt>
      <trkpt lat="42.533413" lon="0.7292">
        <ele>1089.2</ele>
        <time>1970-01-01T03:46:23.000Z</time>
      </trkpt>
      <trkpt lat="42.533154" lon="0.728947">
        <ele>1088.4</ele>
        <time>1970-01-01T03:46:30.000Z</time>
      </trkpt>
      <trkpt lat="42.532915" lon="0.728831">
        <ele>1087</ele>
        <time>1970-01-01T03:46:35.000Z</time>
      </trkpt>
      <trkpt lat="42.532859" lon="0.728821">
        <ele>1086.8</ele>
        <time>1970-01-01T03:46:36.000Z</time>
      </trkpt>
      <trkpt lat="42.532749" lon="0.728812">
        <ele>1086.2</ele>
        <time>1970-01-01T03:46:38.000Z</time>
      </trkpt>
      <trkpt lat="42.532589" lon="0.728813">
        <ele>1085.8</ele>
        <time>1970-01-01T03:46:41.000Z</time>
      </trkpt>
      <trkpt lat="42.532436" lon="0.728792">
        <ele>1085.4</ele>
        <time>1970-01-01T03:46:44.000Z</time>
      </trkpt>
      <trkpt lat="42.532341" lon="0.728758">
        <ele>1085</ele>
        <time>1970-01-01T03:46:46.000Z</time>
      </trkpt>
      <trkpt lat="42.532299" lon="0.728736">
        <ele>1084.8</ele>
        <time>1970-01-01T03:46:47.000Z</time>
      </trkpt>
      <trkpt lat="42.532132" lon="0.728629">
        <ele>1084.4</ele>
        <time>1970-01-01T03:46:51.000Z</time>
      </trkpt>
      <trkpt lat="42.53201" lon="0.728547">
        <ele>1084.2</ele>
        <time>1970-01-01T03:46:54.000Z</time>
      </trkpt>
      <trkpt lat="42.53187" lon="0.72847">
        <ele>1084.2</ele>
        <time>1970-01-01T03:46:57.000Z</time>
      </trkpt>
      <trkpt lat="42.531823" lon="0.728434">
        <ele>1084</ele>
        <time>1970-01-01T03:46:58.000Z</time>
      </trkpt>
      <trkpt lat="42.53147" lon="0.728111">
        <ele>1083.2</ele>
        <time>1970-01-01T03:47:06.000Z</time>
      </trkpt>
      <trkpt lat="42.531162" lon="0.727967">
        <ele>1082.8</ele>
        <time>1970-01-01T03:47:12.000Z</time>
      </trkpt>
      <trkpt lat="42.531019" lon="0.727765">
        <ele>1082.2</ele>
        <time>1970-01-01T03:47:16.000Z</time>
      </trkpt>
      <trkpt lat="42.530902" lon="0.727639">
        <ele>1081.2</ele>
        <time>1970-01-01T03:47:19.000Z</time>
      </trkpt>
      <trkpt lat="42.530845" lon="0.727536">
        <ele>1081</ele>
        <time>1970-01-01T03:47:21.000Z</time>
      </trkpt>
      <trkpt lat="42.530598" lon="0.727186">
        <ele>1080.4</ele>
        <time>1970-01-01T03:47:28.000Z</time>
      </trkpt>
      <trkpt lat="42.530406" lon="0.726972">
        <ele>1080</ele>
        <time>1970-01-01T03:47:33.000Z</time>
      </trkpt>
      <trkpt lat="42.529992" lon="0.726778">
        <ele>1080.2</ele>
        <time>1970-01-01T03:47:44.000Z</time>
      </trkpt>
      <trkpt lat="42.529767" lon="0.726439">
        <ele>1079.6</ele>
        <time>1970-01-01T03:47:53.000Z</time>
      </trkpt>
      <trkpt lat="42.529544" lon="0.726255">
        <ele>1079.6</ele>
        <time>1970-01-01T03:48:00.000Z</time>
      </trkpt>
      <trkpt lat="42.529179" lon="0.725705">
        <ele>1079</ele>
        <time>1970-01-01T03:48:11.000Z</time>
      </trkpt>
      <trkpt lat="42.529064" lon="0.725541">
        <ele>1078.6</ele>
        <time>1970-01-01T03:48:14.000Z</time>
      </trkpt>
      <trkpt lat="42.529022" lon="0.725485">
        <ele>1078.4</ele>
        <time>1970-01-01T03:48:15.000Z</time>
      </trkpt>
      <trkpt lat="42.528844" lon="0.725266">
        <ele>1077.6</ele>
        <time>1970-01-01T03:48:19.000Z</time>
      </trkpt>
      <trkpt lat="42.528726" lon="0.725107">
        <ele>1077</ele>
        <time>1970-01-01T03:48:22.000Z</time>
      </trkpt>
      <trkpt lat="42.528664" lon="0.725">
        <ele>1076.8</ele>
        <time>1970-01-01T03:48:24.000Z</time>
      </trkpt>
      <trkpt lat="42.528517" lon="0.724741">
        <ele>1076.4</ele>
        <time>1970-01-01T03:48:29.000Z</time>
      </trkpt>
      <trkpt lat="42.528409" lon="0.724538">
        <ele>1076</ele>
        <time>1970-01-01T03:48:33.000Z</time>
      </trkpt>
      <trkpt lat="42.528227" lon="0.724471">
        <ele>1076.8</ele>
        <time>1970-01-01T03:48:38.000Z</time>
      </trkpt>
      <trkpt lat="42.527694" lon="0.724421">
        <ele>1076.8</ele>
        <time>1970-01-01T03:48:52.000Z</time>
      </trkpt>
      <trkpt lat="42.527271" lon="0.724478">
        <ele>1075.6</ele>
        <time>1970-01-01T03:49:01.000Z</time>
      </trkpt>
      <trkpt lat="42.527046" lon="0.724478">
        <ele>1075.2</ele>
        <time>1970-01-01T03:49:05.000Z</time>
      </trkpt>
      <trkpt lat="42.526934" lon="0.724526">
        <ele>1074.8</ele>
        <time>1970-01-01T03:49:07.000Z</time>
      </trkpt>
      <trkpt lat="42.526715" lon="0.725117">
        <ele>1076</ele>
        <time>1970-01-01T03:49:19.000Z</time>
      </trkpt>
      <trkpt lat="42.526728" lon="0.725184">
        <ele>1076.6</ele>
        <time>1970-01-01T03:49:21.000Z</time>
      </trkpt>
      <trkpt lat="42.526741" lon="0.725242">
        <ele>1077.2</ele>
        <time>1970-01-01T03:49:23.000Z</time>
      </trkpt>
      <trkpt lat="42.526751" lon="0.725383">
        <ele>1078.4</ele>
        <time>1970-01-01T03:49:28.000Z</time>
      </trkpt>
      <trkpt lat="42.526333" lon="0.725571">
        <ele>1077.6</ele>
        <time>1970-01-01T03:49:42.000Z</time>
      </trkpt>
      <trkpt lat="42.526236" lon="0.725566">
        <ele>1077.6</ele>
        <time>1970-01-01T03:49:44.000Z</time>
      </trkpt>
      <trkpt lat="42.526" lon="0.725508">
        <ele>1076.8</ele>
        <time>1970-01-01T03:49:49.000Z</time>
      </trkpt>
      <trkpt lat="42.525763" lon="0.725429">
        <ele>1076.4</ele>
        <time>1970-01-01T03:49:54.000Z</time>
      </trkpt>
      <trkpt lat="42.525567" lon="0.725413">
        <ele>1076</ele>
        <time>1970-01-01T03:49:58.000Z</time>
      </trkpt>
      <trkpt lat="42.525013" lon="0.725363">
        <ele>1077.6</ele>
        <time>1970-01-01T03:50:17.000Z</time>
      </trkpt>
      <trkpt lat="42.524767" lon="0.725334">
        <ele>1077.2</ele>
        <time>1970-01-01T03:50:24.000Z</time>
      </trkpt>
      <trkpt lat="42.524573" lon="0.725327">
        <ele>1076</ele>
        <time>1970-01-01T03:50:28.000Z</time>
      </trkpt>
      <trkpt lat="42.52452" lon="0.725331">
        <ele>1075.8</ele>
        <time>1970-01-01T03:50:29.000Z</time>
      </trkpt>
      <trkpt lat="42.524227" lon="0.725349">
        <ele>1074.6</ele>
        <time>1970-01-01T03:50:34.000Z</time>
      </trkpt>
      <trkpt lat="42.524088" lon="0.725354">
        <ele>1073.4</ele>
        <time>1970-01-01T03:50:36.000Z</time>
      </trkpt>
      <trkpt lat="42.524012" lon="0.725353">
        <ele>1072.6</ele>
        <time>1970-01-01T03:50:37.000Z</time>
      </trkpt>
      <trkpt lat="42.523935" lon="0.725355">
        <ele>1072</ele>
        <time>1970-01-01T03:50:38.000Z</time>
      </trkpt>
      <trkpt lat="42.523775" lon="0.725359">
        <ele>1070.8</ele>
        <time>1970-01-01T03:50:40.000Z</time>
      </trkpt>
      <trkpt lat="42.523623" lon="0.725382">
        <ele>1070</ele>
        <time>1970-01-01T03:50:42.000Z</time>
      </trkpt>
      <trkpt lat="42.52355" lon="0.725393">
        <ele>1069.8</ele>
        <time>1970-01-01T03:50:43.000Z</time>
      </trkpt>
      <trkpt lat="42.523039" lon="0.72546">
        <ele>1069</ele>
        <time>1970-01-01T03:50:51.000Z</time>
      </trkpt>
      <trkpt lat="42.522982" lon="0.725474">
        <ele>1068.8</ele>
        <time>1970-01-01T03:50:52.000Z</time>
      </trkpt>
      <trkpt lat="42.522754" lon="0.725562">
        <ele>1067.8</ele>
        <time>1970-01-01T03:50:56.000Z</time>
      </trkpt>
      <trkpt lat="42.522643" lon="0.725567">
        <ele>1067.6</ele>
        <time>1970-01-01T03:50:58.000Z</time>
      </trkpt>
      <trkpt lat="42.522389" lon="0.725562">
        <ele>1067.2</ele>
        <time>1970-01-01T03:51:03.000Z</time>
      </trkpt>
      <trkpt lat="42.522252" lon="0.725576">
        <ele>1066.8</ele>
        <time>1970-01-01T03:51:06.000Z</time>
      </trkpt>
      <trkpt lat="42.522207" lon="0.725586">
        <ele>1066.8</ele>
        <time>1970-01-01T03:51:07.000Z</time>
      </trkpt>
      <trkpt lat="42.52212" lon="0.725622">
        <ele>1067</ele>
        <time>1970-01-01T03:51:09.000Z</time>
      </trkpt>
      <trkpt lat="42.521905" lon="0.725951">
        <ele>1067</ele>
        <time>1970-01-01T03:51:16.000Z</time>
      </trkpt>
      <trkpt lat="42.521744" lon="0.726331">
        <ele>1067</ele>
        <time>1970-01-01T03:51:23.000Z</time>
      </trkpt>
      <trkpt lat="42.521531" lon="0.726422">
        <ele>1067</ele>
        <time>1970-01-01T03:51:28.000Z</time>
      </trkpt>
      <trkpt lat="42.520958" lon="0.726516">
        <ele>1066.8</ele>
        <time>1970-01-01T03:51:40.000Z</time>
      </trkpt>
      <trkpt lat="42.520412" lon="0.726575">
        <ele>1066.6</ele>
        <time>1970-01-01T03:51:52.000Z</time>
      </trkpt>
      <trkpt lat="42.520273" lon="0.726556">
        <ele>1066.4</ele>
        <time>1970-01-01T03:51:55.000Z</time>
      </trkpt>
      <trkpt lat="42.520226" lon="0.726557">
        <ele>1066.4</ele>
        <time>1970-01-01T03:51:56.000Z</time>
      </trkpt>
      <trkpt lat="42.52013" lon="0.726558">
        <ele>1066.2</ele>
        <time>1970-01-01T03:51:58.000Z</time>
      </trkpt>
      <trkpt lat="42.519915" lon="0.726417">
        <ele>1065.8</ele>
        <time>1970-01-01T03:52:03.000Z</time>
      </trkpt>
      <trkpt lat="42.519746" lon="0.726223">
        <ele>1066</ele>
        <time>1970-01-01T03:52:08.000Z</time>
      </trkpt>
      <trkpt lat="42.519655" lon="0.726088">
        <ele>1066.4</ele>
        <time>1970-01-01T03:52:11.000Z</time>
      </trkpt>
      <trkpt lat="42.519431" lon="0.725708">
        <ele>1065.4</ele>
        <time>1970-01-01T03:52:18.000Z</time>
      </trkpt>
      <trkpt lat="42.519026" lon="0.725234">
        <ele>1064.6</ele>
        <time>1970-01-01T03:52:28.000Z</time>
      </trkpt>
      <trkpt lat="42.518674" lon="0.724745">
        <ele>1064</ele>
        <time>1970-01-01T03:52:37.000Z</time>
      </trkpt>
      <trkpt lat="42.518606" lon="0.724655">
        <ele>1064</ele>
        <time>1970-01-01T03:52:39.000Z</time>
      </trkpt>
      <trkpt lat="42.51822" lon="0.724119">
        <ele>1065.4</ele>
        <time>1970-01-01T03:52:53.000Z</time>
      </trkpt>
      <trkpt lat="42.517892" lon="0.723781">
        <ele>1065.6</ele>
        <time>1970-01-01T03:53:03.000Z</time>
      </trkpt>
      <trkpt lat="42.517528" lon="0.723246">
        <ele>1065</ele>
        <time>1970-01-01T03:53:15.000Z</time>
      </trkpt>
      <trkpt lat="42.517451" lon="0.723022">
        <ele>1065.2</ele>
        <time>1970-01-01T03:53:19.000Z</time>
      </trkpt>
      <trkpt lat="42.517047" lon="0.722849">
        <ele>1066.2</ele>
        <time>1970-01-01T03:53:33.000Z</time>
      </trkpt>
      <trkpt lat="42.516931" lon="0.722923">
        <ele>1067.6</ele>
        <time>1970-01-01T03:53:41.000Z</time>
      </trkpt>
      <trkpt lat="42.516918" lon="0.722934">
        <ele>1067.8</ele>
        <time>1970-01-01T03:53:44.000Z</time>
      </trkpt>
      <trkpt lat="42.516997" lon="0.722895">
        <ele>1067.2</ele>
        <time>1970-01-01T03:53:59.000Z</time>
      </trkpt>
      <trkpt lat="42.517112" lon="0.722862">
        <ele>1066.6</ele>
        <time>1970-01-01T03:54:02.000Z</time>
      </trkpt>
      <trkpt lat="42.517221" lon="0.722824">
        <ele>1066.2</ele>
        <time>1970-01-01T03:54:05.000Z</time>
      </trkpt>
      <trkpt lat="42.517218" lon="0.722734">
        <ele>1065.6</ele>
        <time>1970-01-01T03:54:08.000Z</time>
      </trkpt>
      <trkpt lat="42.517115" lon="0.722653">
        <ele>1064</ele>
        <time>1970-01-01T03:54:11.000Z</time>
      </trkpt>
      <trkpt lat="42.517014" lon="0.722588">
        <ele>1062.8</ele>
        <time>1970-01-01T03:54:13.000Z</time>
      </trkpt>
      <trkpt lat="42.516916" lon="0.722541">
        <ele>1062.2</ele>
        <time>1970-01-01T03:54:17.000Z</time>
      </trkpt>
      <trkpt lat="42.51687" lon="0.722532">
        <ele>1062.4</ele>
        <time>1970-01-01T03:54:22.000Z</time>
      </trkpt>
      <trkpt lat="42.516509" lon="0.722498">
        <ele>1061.8</ele>
        <time>1970-01-01T03:54:33.000Z</time>
      </trkpt>
      <trkpt lat="42.51616" lon="0.722366">
        <ele>1063</ele>
        <time>1970-01-01T03:54:44.000Z</time>
      </trkpt>
      <trkpt lat="42.515866" lon="0.722245">
        <ele>1064.4</ele>
        <time>1970-01-01T03:54:55.000Z</time>
      </trkpt>
      <trkpt lat="42.515589" lon="0.722105">
        <ele>1065.4</ele>
        <time>1970-01-01T03:55:06.000Z</time>
      </trkpt>
      <trkpt lat="42.515357" lon="0.722075">
        <ele>1066.6</ele>
        <time>1970-01-01T03:55:15.000Z</time>
      </trkpt>
      <trkpt lat="42.515172" lon="0.722099">
        <ele>1065.8</ele>
        <time>1970-01-01T03:55:25.000Z</time>
      </trkpt>
      <trkpt lat="42.515175" lon="0.721677">
        <ele>1065.8</ele>
        <time>1970-01-01T03:58:33.000Z</time>
      </trkpt>
      <trkpt lat="42.515089" lon="0.721637">
        <ele>1065.2</ele>
        <time>1970-01-01T03:58:38.000Z</time>
      </trkpt>
      <trkpt lat="42.514812" lon="0.721533">
        <ele>1065.2</ele>
        <time>1970-01-01T03:58:53.000Z</time>
      </trkpt>
      <trkpt lat="42.514738" lon="0.721491">
        <ele>1064.8</ele>
        <time>1970-01-01T03:58:56.000Z</time>
      </trkpt>
      <trkpt lat="42.514578" lon="0.721405">
        <ele>1064.4</ele>
        <time>1970-01-01T03:59:04.000Z</time>
      </trkpt>
      <trkpt lat="42.514518" lon="0.721378">
        <ele>1064.4</ele>
        <time>1970-01-01T03:59:08.000Z</time>
      </trkpt>
      <trkpt lat="42.514195" lon="0.721114">
        <ele>1064</ele>
        <time>1970-01-01T03:59:24.000Z</time>
      </trkpt>
      <trkpt lat="42.514001" lon="0.720907">
        <ele>1063.2</ele>
        <time>1970-01-01T03:59:33.000Z</time>
      </trkpt>
      <trkpt lat="42.513879" lon="0.720824">
        <ele>1063</ele>
        <time>1970-01-01T03:59:39.000Z</time>
      </trkpt>
      <trkpt lat="42.513699" lon="0.720827">
        <ele>1062.2</ele>
        <time>1970-01-01T03:59:49.000Z</time>
      </trkpt>
      <trkpt lat="42.513615" lon="0.720821">
        <ele>1062.2</ele>
        <time>1970-01-01T03:59:58.000Z</time>
      </trkpt>
      <trkpt lat="42.513106" lon="0.720974">
        <ele>1063</ele>
        <time>1970-01-01T04:00:19.000Z</time>
      </trkpt>
      <trkpt lat="42.513014" lon="0.721068">
        <ele>1063</ele>
        <time>1970-01-01T04:00:26.000Z</time>
      </trkpt>
      <trkpt lat="42.512904" lon="0.721021">
        <ele>1063</ele>
        <time>1970-01-01T04:00:46.000Z</time>
      </trkpt>
      <trkpt lat="42.512642" lon="0.72089">
        <ele>1062.8</ele>
        <time>1970-01-01T04:00:57.000Z</time>
      </trkpt>
      <trkpt lat="42.512292" lon="0.720705">
        <ele>1062.2</ele>
        <time>1970-01-01T04:01:13.000Z</time>
      </trkpt>
      <trkpt lat="42.512205" lon="0.720658">
        <ele>1062</ele>
        <time>1970-01-01T04:01:16.000Z</time>
      </trkpt>
      <trkpt lat="42.512107" lon="0.720584">
        <ele>1060.8</ele>
        <time>1970-01-01T04:01:20.000Z</time>
      </trkpt>
      <trkpt lat="42.512024" lon="0.720424">
        <ele>1059.6</ele>
        <time>1970-01-01T04:01:24.000Z</time>
      </trkpt>
      <trkpt lat="42.511948" lon="0.720301">
        <ele>1058.4</ele>
        <time>1970-01-01T04:01:27.000Z</time>
      </trkpt>
      <trkpt lat="42.511909" lon="0.720205">
        <ele>1057.8</ele>
        <time>1970-01-01T04:01:29.000Z</time>
      </trkpt>
      <trkpt lat="42.511884" lon="0.72011">
        <ele>1057.6</ele>
        <time>1970-01-01T04:01:31.000Z</time>
      </trkpt>
      <trkpt lat="42.511852" lon="0.719994">
        <ele>1056.4</ele>
        <time>1970-01-01T04:01:34.000Z</time>
      </trkpt>
      <trkpt lat="42.511834" lon="0.719925">
        <ele>1055.2</ele>
        <time>1970-01-01T04:01:38.000Z</time>
      </trkpt>
      <trkpt lat="42.511833" lon="0.719911">
        <ele>1055</ele>
        <time>1970-01-01T04:01:39.000Z</time>
      </trkpt>
      <trkpt lat="42.5118" lon="0.71982">
        <ele>1054</ele>
        <time>1970-01-01T04:01:44.000Z</time>
      </trkpt>
      <trkpt lat="42.511765" lon="0.719756">
        <ele>1052.6</ele>
        <time>1970-01-01T04:01:47.000Z</time>
      </trkpt>
      <trkpt lat="42.511708" lon="0.719702">
        <ele>1051.4</ele>
        <time>1970-01-01T04:01:50.000Z</time>
      </trkpt>
      <trkpt lat="42.51145" lon="0.719551">
        <ele>1050.8</ele>
        <time>1970-01-01T04:01:59.000Z</time>
      </trkpt>
      <trkpt lat="42.511311" lon="0.719479">
        <ele>1050.6</ele>
        <time>1970-01-01T04:02:03.000Z</time>
      </trkpt>
      <trkpt lat="42.511291" lon="0.719467">
        <ele>1050.4</ele>
        <time>1970-01-01T04:02:04.000Z</time>
      </trkpt>
      <trkpt lat="42.511211" lon="0.719443">
        <ele>1050.2</ele>
        <time>1970-01-01T04:02:08.000Z</time>
      </trkpt>
      <trkpt lat="42.510875" lon="0.719223">
        <ele>1051.8</ele>
        <time>1970-01-01T04:02:29.000Z</time>
      </trkpt>
      <trkpt lat="42.510884" lon="0.719119">
        <ele>1052.2</ele>
        <time>1970-01-01T04:02:33.000Z</time>
      </trkpt>
      <trkpt lat="42.511314" lon="0.718921">
        <ele>1051.2</ele>
        <time>1970-01-01T04:02:52.000Z</time>
      </trkpt>
      <trkpt lat="42.51165" lon="0.718862">
        <ele>1052</ele>
        <time>1970-01-01T04:03:05.000Z</time>
      </trkpt>
      <trkpt lat="42.511975" lon="0.718752">
        <ele>1052.8</ele>
        <time>1970-01-01T04:03:17.000Z</time>
      </trkpt>
      <trkpt lat="42.512025" lon="0.718764">
        <ele>1053.2</ele>
        <time>1970-01-01T04:03:19.000Z</time>
      </trkpt>
      <trkpt lat="42.512121" lon="0.718845">
        <ele>1054</ele>
        <time>1970-01-01T04:03:23.000Z</time>
      </trkpt>
      <trkpt lat="42.512554" lon="0.719332">
        <ele>1054.4</ele>
        <time>1970-01-01T04:03:40.000Z</time>
      </trkpt>
      <trkpt lat="42.512612" lon="0.719373">
        <ele>1054.6</ele>
        <time>1970-01-01T04:03:42.000Z</time>
      </trkpt>
      <trkpt lat="42.512642" lon="0.719383">
        <ele>1054.8</ele>
        <time>1970-01-01T04:03:43.000Z</time>
      </trkpt>
      <trkpt lat="42.512832" lon="0.71941">
        <ele>1055.8</ele>
        <time>1970-01-01T04:03:49.000Z</time>
      </trkpt>
      <trkpt lat="42.512953" lon="0.719462">
        <ele>1056.8</ele>
        <time>1970-01-01T04:03:55.000Z</time>
      </trkpt>
      <trkpt lat="42.51298" lon="0.719465">
        <ele>1057</ele>
        <time>1970-01-01T04:03:57.000Z</time>
      </trkpt>
      <trkpt lat="42.512995" lon="0.719443">
        <ele>1057.6</ele>
        <time>1970-01-01T04:04:01.000Z</time>
      </trkpt>
      <trkpt lat="42.513006" lon="0.71941">
        <ele>1058</ele>
        <time>1970-01-01T04:04:17.000Z</time>
      </trkpt>
      <trkpt lat="42.512915" lon="0.719259">
        <ele>1057.8</ele>
        <time>1970-01-01T04:04:22.000Z</time>
      </trkpt>
      <trkpt lat="42.512493" lon="0.71872">
        <ele>1057.8</ele>
        <time>1970-01-01T04:04:35.000Z</time>
      </trkpt>
      <trkpt lat="42.512393" lon="0.718593">
        <ele>1058.2</ele>
        <time>1970-01-01T04:04:38.000Z</time>
      </trkpt>
      <trkpt lat="42.512203" lon="0.718377">
        <ele>1059.6</ele>
        <time>1970-01-01T04:04:44.000Z</time>
      </trkpt>
      <trkpt lat="42.512044" lon="0.71824">
        <ele>1060.6</ele>
        <time>1970-01-01T04:04:49.000Z</time>
      </trkpt>
      <trkpt lat="42.511869" lon="0.718143">
        <ele>1061.8</ele>
        <time>1970-01-01T04:04:54.000Z</time>
      </trkpt>
      <trkpt lat="42.511641" lon="0.718091">
        <ele>1062.8</ele>
        <time>1970-01-01T04:05:00.000Z</time>
      </trkpt>
      <trkpt lat="42.511411" lon="0.718089">
        <ele>1064.2</ele>
        <time>1970-01-01T04:05:06.000Z</time>
      </trkpt>
      <trkpt lat="42.511218" lon="0.718131">
        <ele>1065.2</ele>
        <time>1970-01-01T04:05:11.000Z</time>
      </trkpt>
      <trkpt lat="42.510659" lon="0.718296">
        <ele>1066</ele>
        <time>1970-01-01T04:05:25.000Z</time>
      </trkpt>
      <trkpt lat="42.510066" lon="0.718448">
        <ele>1065</ele>
        <time>1970-01-01T04:05:36.000Z</time>
      </trkpt>
      <trkpt lat="42.509925" lon="0.718472">
        <ele>1064.2</ele>
        <time>1970-01-01T04:05:38.000Z</time>
      </trkpt>
      <trkpt lat="42.509695" lon="0.718482">
        <ele>1063.2</ele>
        <time>1970-01-01T04:05:41.000Z</time>
      </trkpt>
      <trkpt lat="42.509447" lon="0.718462">
        <ele>1061.8</ele>
        <time>1970-01-01T04:05:44.000Z</time>
      </trkpt>
      <trkpt lat="42.509273" lon="0.718441">
        <ele>1060.6</ele>
        <time>1970-01-01T04:05:46.000Z</time>
      </trkpt>
      <trkpt lat="42.508997" lon="0.718406">
        <ele>1059.2</ele>
        <time>1970-01-01T04:05:49.000Z</time>
      </trkpt>
      <trkpt lat="42.50871" lon="0.718375">
        <ele>1058</ele>
        <time>1970-01-01T04:05:52.000Z</time>
      </trkpt>
      <trkpt lat="42.508407" lon="0.718344">
        <ele>1056.2</ele>
        <time>1970-01-01T04:05:55.000Z</time>
      </trkpt>
      <trkpt lat="42.508198" lon="0.71832">
        <ele>1055</ele>
        <time>1970-01-01T04:05:57.000Z</time>
      </trkpt>
      <trkpt lat="42.507774" lon="0.718275">
        <ele>1053.8</ele>
        <time>1970-01-01T04:06:01.000Z</time>
      </trkpt>
      <trkpt lat="42.507558" lon="0.718249">
        <ele>1052</ele>
        <time>1970-01-01T04:06:03.000Z</time>
      </trkpt>
      <trkpt lat="42.507234" lon="0.718209">
        <ele>1050.6</ele>
        <time>1970-01-01T04:06:06.000Z</time>
      </trkpt>
      <trkpt lat="42.507021" lon="0.718184">
        <ele>1049.2</ele>
        <time>1970-01-01T04:06:08.000Z</time>
      </trkpt>
      <trkpt lat="42.506707" lon="0.718142">
        <ele>1048.2</ele>
        <time>1970-01-01T04:06:11.000Z</time>
      </trkpt>
      <trkpt lat="42.506368" lon="0.718015">
        <ele>1046.8</ele>
        <time>1970-01-01T04:06:15.000Z</time>
      </trkpt>
      <trkpt lat="42.506225" lon="0.717849">
        <ele>1046</ele>
        <time>1970-01-01T04:06:18.000Z</time>
      </trkpt>
      <trkpt lat="42.506081" lon="0.717663">
        <ele>1046</ele>
        <time>1970-01-01T04:06:25.000Z</time>
      </trkpt>
      <trkpt lat="42.506026" lon="0.717602">
        <ele>1047.2</ele>
        <time>1970-01-01T04:06:48.000Z</time>
      </trkpt>
      <trkpt lat="42.505945" lon="0.717502">
        <ele>1048.4</ele>
        <time>1970-01-01T04:06:54.000Z</time>
      </trkpt>
      <trkpt lat="42.505901" lon="0.717442">
        <ele>1049.8</ele>
        <time>1970-01-01T04:06:57.000Z</time>
      </trkpt>
      <trkpt lat="42.505881" lon="0.717344">
        <ele>1050.8</ele>
        <time>1970-01-01T04:07:01.000Z</time>
      </trkpt>
      <trkpt lat="42.505927" lon="0.717313">
        <ele>1051.4</ele>
        <time>1970-01-01T04:07:05.000Z</time>
      </trkpt>
      <trkpt lat="42.505946" lon="0.71733">
        <ele>1051.8</ele>
        <time>1970-01-01T04:07:07.000Z</time>
      </trkpt>
      <trkpt lat="42.506037" lon="0.717385">
        <ele>1053</ele>
        <time>1970-01-01T04:07:14.000Z</time>
      </trkpt>
      <trkpt lat="42.506124" lon="0.717474">
        <ele>1054.4</ele>
        <time>1970-01-01T04:07:20.000Z</time>
      </trkpt>
      <trkpt lat="42.506175" lon="0.717541">
        <ele>1055.6</ele>
        <time>1970-01-01T04:07:24.000Z</time>
      </trkpt>
      <trkpt lat="42.506228" lon="0.71762">
        <ele>1056.8</ele>
        <time>1970-01-01T04:07:29.000Z</time>
      </trkpt>
      <trkpt lat="42.506266" lon="0.717664">
        <ele>1057.8</ele>
        <time>1970-01-01T04:07:32.000Z</time>
      </trkpt>
      <trkpt lat="42.506282" lon="0.717665">
        <ele>1058.4</ele>
        <time>1970-01-01T04:07:33.000Z</time>
      </trkpt>
      <trkpt lat="42.506306" lon="0.717567">
        <ele>1059.2</ele>
        <time>1970-01-01T04:07:40.000Z</time>
      </trkpt>
      <trkpt lat="42.5063" lon="0.717549">
        <ele>1059.4</ele>
        <time>1970-01-01T04:07:41.000Z</time>
      </trkpt>
      <trkpt lat="42.506257" lon="0.717443">
        <ele>1060.4</ele>
        <time>1970-01-01T04:07:48.000Z</time>
      </trkpt>
      <trkpt lat="42.506245" lon="0.717418">
        <ele>1060.6</ele>
        <time>1970-01-01T04:07:50.000Z</time>
      </trkpt>
      <trkpt lat="42.506163" lon="0.71732">
        <ele>1061.8</ele>
        <time>1970-01-01T04:07:59.000Z</time>
      </trkpt>
      <trkpt lat="42.506154" lon="0.717307">
        <ele>1061.8</ele>
        <time>1970-01-01T04:08:00.000Z</time>
      </trkpt>
      <trkpt lat="42.506089" lon="0.717225">
        <ele>1063</ele>
        <time>1970-01-01T04:08:08.000Z</time>
      </trkpt>
      <trkpt lat="42.506037" lon="0.717175">
        <ele>1064</ele>
        <time>1970-01-01T04:08:14.000Z</time>
      </trkpt>
      <trkpt lat="42.506014" lon="0.717163">
        <ele>1064.2</ele>
        <time>1970-01-01T04:08:16.000Z</time>
      </trkpt>
      <trkpt lat="42.50594" lon="0.717092">
        <ele>1065.2</ele>
        <time>1970-01-01T04:08:24.000Z</time>
      </trkpt>
      <trkpt lat="42.50593" lon="0.717084">
        <ele>1065.4</ele>
        <time>1970-01-01T04:08:25.000Z</time>
      </trkpt>
      <trkpt lat="42.505829" lon="0.716976">
        <ele>1066.4</ele>
        <time>1970-01-01T04:08:35.000Z</time>
      </trkpt>
      <trkpt lat="42.505726" lon="0.716747">
        <ele>1067.6</ele>
        <time>1970-01-01T04:08:50.000Z</time>
      </trkpt>
      <trkpt lat="42.505608" lon="0.716481">
        <ele>1068.6</ele>
        <time>1970-01-01T04:09:02.000Z</time>
      </trkpt>
      <trkpt lat="42.505452" lon="0.716215">
        <ele>1069.8</ele>
        <time>1970-01-01T04:09:13.000Z</time>
      </trkpt>
      <trkpt lat="42.505343" lon="0.71601">
        <ele>1071</ele>
        <time>1970-01-01T04:09:22.000Z</time>
      </trkpt>
      <trkpt lat="42.505268" lon="0.71585">
        <ele>1072</ele>
        <time>1970-01-01T04:09:29.000Z</time>
      </trkpt>
      <trkpt lat="42.505222" lon="0.715751">
        <ele>1073</ele>
        <time>1970-01-01T04:09:34.000Z</time>
      </trkpt>
      <trkpt lat="42.505187" lon="0.715696">
        <ele>1073.2</ele>
        <time>1970-01-01T04:09:37.000Z</time>
      </trkpt>
      <trkpt lat="42.505131" lon="0.715516">
        <ele>1074.4</ele>
        <time>1970-01-01T04:09:45.000Z</time>
      </trkpt>
      <trkpt lat="42.505148" lon="0.715243">
        <ele>1075.4</ele>
        <time>1970-01-01T04:09:55.000Z</time>
      </trkpt>
      <trkpt lat="42.505202" lon="0.714915">
        <ele>1076.4</ele>
        <time>1970-01-01T04:10:06.000Z</time>
      </trkpt>
      <trkpt lat="42.505189" lon="0.714756">
        <ele>1077.6</ele>
        <time>1970-01-01T04:10:12.000Z</time>
      </trkpt>
      <trkpt lat="42.505176" lon="0.714535">
        <ele>1078.8</ele>
        <time>1970-01-01T04:10:20.000Z</time>
      </trkpt>
      <trkpt lat="42.505232" lon="0.713964">
        <ele>1079.2</ele>
        <time>1970-01-01T04:10:35.000Z</time>
      </trkpt>
      <trkpt lat="42.504891" lon="0.713957">
        <ele>1077.8</ele>
        <time>1970-01-01T04:10:41.000Z</time>
      </trkpt>
      <trkpt lat="42.50472" lon="0.713896">
        <ele>1077.2</ele>
        <time>1970-01-01T04:10:44.000Z</time>
      </trkpt>
      <trkpt lat="42.504673" lon="0.713864">
        <ele>1077</ele>
        <time>1970-01-01T04:10:45.000Z</time>
      </trkpt>
      <trkpt lat="42.50461" lon="0.713757">
        <ele>1076.8</ele>
        <time>1970-01-01T04:10:47.000Z</time>
      </trkpt>
      <trkpt lat="42.504586" lon="0.713616">
        <ele>1076.2</ele>
        <time>1970-01-01T04:10:51.000Z</time>
      </trkpt>
      <trkpt lat="42.50462" lon="0.713538">
        <ele>1076.6</ele>
        <time>1970-01-01T04:10:56.000Z</time>
      </trkpt>
      <trkpt lat="42.504632" lon="0.713435">
        <ele>1077.6</ele>
        <time>1970-01-01T04:11:02.000Z</time>
      </trkpt>
      <trkpt lat="42.504638" lon="0.713528">
        <ele>1077.4</ele>
        <time>1970-01-01T04:11:09.000Z</time>
      </trkpt>
      <trkpt lat="42.504618" lon="0.7136">
        <ele>1076.6</ele>
        <time>1970-01-01T04:11:13.000Z</time>
      </trkpt>
      <trkpt lat="42.504595" lon="0.713633">
        <ele>1076.4</ele>
        <time>1970-01-01T04:11:23.000Z</time>
      </trkpt>
      <trkpt lat="42.504576" lon="0.713602">
        <ele>1076.2</ele>
        <time>1970-01-01T04:11:27.000Z</time>
      </trkpt>
      <trkpt lat="42.504592" lon="0.713562">
        <ele>1076.4</ele>
        <time>1970-01-01T04:11:33.000Z</time>
      </trkpt>
      <trkpt lat="42.504596" lon="0.713447">
        <ele>1075.6</ele>
        <time>1970-01-01T04:11:37.000Z</time>
      </trkpt>
      <trkpt lat="42.504533" lon="0.71335">
        <ele>1074.6</ele>
        <time>1970-01-01T04:11:41.000Z</time>
      </trkpt>
      <trkpt lat="42.504451" lon="0.713203">
        <ele>1074</ele>
        <time>1970-01-01T04:11:44.000Z</time>
      </trkpt>
      <trkpt lat="42.504421" lon="0.713144">
        <ele>1073.4</ele>
        <time>1970-01-01T04:11:45.000Z</time>
      </trkpt>
      <trkpt lat="42.504327" lon="0.712948">
        <ele>1072.6</ele>
        <time>1970-01-01T04:11:48.000Z</time>
      </trkpt>
      <trkpt lat="42.504245" lon="0.712779">
        <ele>1071.6</ele>
        <time>1970-01-01T04:11:51.000Z</time>
      </trkpt>
      <trkpt lat="42.504231" lon="0.712722">
        <ele>1071.2</ele>
        <time>1970-01-01T04:11:52.000Z</time>
      </trkpt>
      <trkpt lat="42.504233" lon="0.712595">
        <ele>1070.2</ele>
        <time>1970-01-01T04:11:54.000Z</time>
      </trkpt>
      <trkpt lat="42.504229" lon="0.712485">
        <ele>1069</ele>
        <time>1970-01-01T04:11:56.000Z</time>
      </trkpt>
      <trkpt lat="42.504144" lon="0.712416">
        <ele>1067.8</ele>
        <time>1970-01-01T04:11:59.000Z</time>
      </trkpt>
      <trkpt lat="42.504003" lon="0.712495">
        <ele>1067.4</ele>
        <time>1970-01-01T04:12:04.000Z</time>
      </trkpt>
      <trkpt lat="42.503836" lon="0.712613">
        <ele>1067.4</ele>
        <time>1970-01-01T04:12:09.000Z</time>
      </trkpt>
      <trkpt lat="42.503699" lon="0.712625">
        <ele>1066.8</ele>
        <time>1970-01-01T04:12:12.000Z</time>
      </trkpt>
      <trkpt lat="42.50356" lon="0.712588">
        <ele>1066.6</ele>
        <time>1970-01-01T04:12:15.000Z</time>
      </trkpt>
      <trkpt lat="42.503334" lon="0.712552">
        <ele>1065.8</ele>
        <time>1970-01-01T04:12:19.000Z</time>
      </trkpt>
      <trkpt lat="42.503215" lon="0.712523">
        <ele>1065</ele>
        <time>1970-01-01T04:12:21.000Z</time>
      </trkpt>
      <trkpt lat="42.503166" lon="0.712481">
        <ele>1064.6</ele>
        <time>1970-01-01T04:12:22.000Z</time>
      </trkpt>
      <trkpt lat="42.503028" lon="0.712327">
        <ele>1063.2</ele>
        <time>1970-01-01T04:12:25.000Z</time>
      </trkpt>
      <trkpt lat="42.502799" lon="0.712295">
        <ele>1062.4</ele>
        <time>1970-01-01T04:12:29.000Z</time>
      </trkpt>
      <trkpt lat="42.502738" lon="0.712284">
        <ele>1062.2</ele>
        <time>1970-01-01T04:12:30.000Z</time>
      </trkpt>
      <trkpt lat="42.50237" lon="0.71216">
        <ele>1061.6</ele>
        <time>1970-01-01T04:12:37.000Z</time>
      </trkpt>
      <trkpt lat="42.502202" lon="0.712134">
        <ele>1061.2</ele>
        <time>1970-01-01T04:12:40.000Z</time>
      </trkpt>
      <trkpt lat="42.502138" lon="0.712111">
        <ele>1060.8</ele>
        <time>1970-01-01T04:12:41.000Z</time>
      </trkpt>
      <trkpt lat="42.502003" lon="0.712042">
        <ele>1059.8</ele>
        <time>1970-01-01T04:12:43.000Z</time>
      </trkpt>
      <trkpt lat="42.501801" lon="0.711918">
        <ele>1058.8</ele>
        <time>1970-01-01T04:12:46.000Z</time>
      </trkpt>
      <trkpt lat="42.501569" lon="0.711783">
        <ele>1058.8</ele>
        <time>1970-01-01T04:12:50.000Z</time>
      </trkpt>
      <trkpt lat="42.50148" lon="0.711756">
        <ele>1059</ele>
        <time>1970-01-01T04:12:52.000Z</time>
      </trkpt>
      <trkpt lat="42.501342" lon="0.711773">
        <ele>1059</ele>
        <time>1970-01-01T04:12:55.000Z</time>
      </trkpt>
      <trkpt lat="42.501135" lon="0.711817">
        <ele>1058.4</ele>
        <time>1970-01-01T04:12:59.000Z</time>
      </trkpt>
      <trkpt lat="42.501038" lon="0.711757">
        <ele>1057.4</ele>
        <time>1970-01-01T04:13:01.000Z</time>
      </trkpt>
      <trkpt lat="42.500894" lon="0.711534">
        <ele>1056.4</ele>
        <time>1970-01-01T04:13:05.000Z</time>
      </trkpt>
      <trkpt lat="42.500695" lon="0.711347">
        <ele>1055.2</ele>
        <time>1970-01-01T04:13:09.000Z</time>
      </trkpt>
      <trkpt lat="42.500657" lon="0.711291">
        <ele>1055.2</ele>
        <time>1970-01-01T04:13:10.000Z</time>
      </trkpt>
      <trkpt lat="42.500385" lon="0.711049">
        <ele>1054.8</ele>
        <time>1970-01-01T04:13:18.000Z</time>
      </trkpt>
      <trkpt lat="42.500183" lon="0.711016">
        <ele>1054.2</ele>
        <time>1970-01-01T04:13:22.000Z</time>
      </trkpt>
      <trkpt lat="42.500089" lon="0.710987">
        <ele>1054</ele>
        <time>1970-01-01T04:13:24.000Z</time>
      </trkpt>
      <trkpt lat="42.499572" lon="0.711103">
        <ele>1054.8</ele>
        <time>1970-01-01T04:13:39.000Z</time>
      </trkpt>
      <trkpt lat="42.499381" lon="0.711188">
        <ele>1054.8</ele>
        <time>1970-01-01T04:13:44.000Z</time>
      </trkpt>
      <trkpt lat="42.499103" lon="0.711178">
        <ele>1054.8</ele>
        <time>1970-01-01T04:13:50.000Z</time>
      </trkpt>
      <trkpt lat="42.498902" lon="0.711178">
        <ele>1053.2</ele>
        <time>1970-01-01T04:13:53.000Z</time>
      </trkpt>
      <trkpt lat="42.498839" lon="0.711189">
        <ele>1053</ele>
        <time>1970-01-01T04:13:54.000Z</time>
      </trkpt>
      <trkpt lat="42.498683" lon="0.711266">
        <ele>1052.8</ele>
        <time>1970-01-01T04:13:57.000Z</time>
      </trkpt>
      <trkpt lat="42.498565" lon="0.711404">
        <ele>1053</ele>
        <time>1970-01-01T04:14:00.000Z</time>
      </trkpt>
      <trkpt lat="42.498455" lon="0.711568">
        <ele>1052</ele>
        <time>1970-01-01T04:14:03.000Z</time>
      </trkpt>
      <trkpt lat="42.498383" lon="0.711671">
        <ele>1050.6</ele>
        <time>1970-01-01T04:14:05.000Z</time>
      </trkpt>
      <trkpt lat="42.498345" lon="0.711729">
        <ele>1050</ele>
        <time>1970-01-01T04:14:06.000Z</time>
      </trkpt>
      <trkpt lat="42.498312" lon="0.711797">
        <ele>1049.2</ele>
        <time>1970-01-01T04:14:07.000Z</time>
      </trkpt>
      <trkpt lat="42.498284" lon="0.711969">
        <ele>1047.4</ele>
        <time>1970-01-01T04:14:09.000Z</time>
      </trkpt>
      <trkpt lat="42.49832" lon="0.712135">
        <ele>1046.2</ele>
        <time>1970-01-01T04:14:11.000Z</time>
      </trkpt>
      <trkpt lat="42.498351" lon="0.712215">
        <ele>1045.6</ele>
        <time>1970-01-01T04:14:12.000Z</time>
      </trkpt>
      <trkpt lat="42.498377" lon="0.712295">
        <ele>1045.2</ele>
        <time>1970-01-01T04:14:13.000Z</time>
      </trkpt>
      <trkpt lat="42.4984" lon="0.712381">
        <ele>1044.8</ele>
        <time>1970-01-01T04:14:14.000Z</time>
      </trkpt>
      <trkpt lat="42.498397" lon="0.712601">
        <ele>1043.4</ele>
        <time>1970-01-01T04:14:17.000Z</time>
      </trkpt>
      <trkpt lat="42.498214" lon="0.712679">
        <ele>1042.2</ele>
        <time>1970-01-01T04:14:21.000Z</time>
      </trkpt>
      <trkpt lat="42.498164" lon="0.71268">
        <ele>1042</ele>
        <time>1970-01-01T04:14:22.000Z</time>
      </trkpt>
      <trkpt lat="42.497971" lon="0.712676">
        <ele>1042</ele>
        <time>1970-01-01T04:14:26.000Z</time>
      </trkpt>
      <trkpt lat="42.497722" lon="0.712698">
        <ele>1041.6</ele>
        <time>1970-01-01T04:14:31.000Z</time>
      </trkpt>
      <trkpt lat="42.497553" lon="0.71276">
        <ele>1041.6</ele>
        <time>1970-01-01T04:14:35.000Z</time>
      </trkpt>
      <trkpt lat="42.497433" lon="0.71279">
        <ele>1042.2</ele>
        <time>1970-01-01T04:14:38.000Z</time>
      </trkpt>
      <trkpt lat="42.496883" lon="0.712906">
        <ele>1041.4</ele>
        <time>1970-01-01T04:14:49.000Z</time>
      </trkpt>
      <trkpt lat="42.496541" lon="0.713019">
        <ele>1041.6</ele>
        <time>1970-01-01T04:14:56.000Z</time>
      </trkpt>
      <trkpt lat="42.496115" lon="0.713217">
        <ele>1040.8</ele>
        <time>1970-01-01T04:15:04.000Z</time>
      </trkpt>
      <trkpt lat="42.496068" lon="0.713257">
        <ele>1040.6</ele>
        <time>1970-01-01T04:15:05.000Z</time>
      </trkpt>
      <trkpt lat="42.495921" lon="0.7134">
        <ele>1040</ele>
        <time>1970-01-01T04:15:08.000Z</time>
      </trkpt>
      <trkpt lat="42.495805" lon="0.713483">
        <ele>1039.6</ele>
        <time>1970-01-01T04:15:10.000Z</time>
      </trkpt>
      <trkpt lat="42.495518" lon="0.71366">
        <ele>1039</ele>
        <time>1970-01-01T04:15:15.000Z</time>
      </trkpt>
      <trkpt lat="42.495415" lon="0.713696">
        <ele>1039</ele>
        <time>1970-01-01T04:15:17.000Z</time>
      </trkpt>
      <trkpt lat="42.495133" lon="0.71359">
        <ele>1040.6</ele>
        <time>1970-01-01T04:15:25.000Z</time>
      </trkpt>
      <trkpt lat="42.495113" lon="0.713574">
        <ele>1041</ele>
        <time>1970-01-01T04:15:26.000Z</time>
      </trkpt>
      <trkpt lat="42.494882" lon="0.713409">
        <ele>1041.4</ele>
        <time>1970-01-01T04:15:35.000Z</time>
      </trkpt>
      <trkpt lat="42.49474" lon="0.713322">
        <ele>1040.4</ele>
        <time>1970-01-01T04:15:38.000Z</time>
      </trkpt>
      <trkpt lat="42.494633" lon="0.713284">
        <ele>1039.8</ele>
        <time>1970-01-01T04:15:40.000Z</time>
      </trkpt>
      <trkpt lat="42.494582" lon="0.713258">
        <ele>1039.6</ele>
        <time>1970-01-01T04:15:41.000Z</time>
      </trkpt>
      <trkpt lat="42.494442" lon="0.712988">
        <ele>1038.8</ele>
        <time>1970-01-01T04:15:46.000Z</time>
      </trkpt>
      <trkpt lat="42.494216" lon="0.713009">
        <ele>1037.6</ele>
        <time>1970-01-01T04:15:51.000Z</time>
      </trkpt>
      <trkpt lat="42.494043" lon="0.713147">
        <ele>1036.4</ele>
        <time>1970-01-01T04:15:54.000Z</time>
      </trkpt>
      <trkpt lat="42.493856" lon="0.713224">
        <ele>1035.6</ele>
        <time>1970-01-01T04:15:57.000Z</time>
      </trkpt>
      <trkpt lat="42.493794" lon="0.713254">
        <ele>1035</ele>
        <time>1970-01-01T04:15:58.000Z</time>
      </trkpt>
      <trkpt lat="42.49367" lon="0.713305">
        <ele>1034.6</ele>
        <time>1970-01-01T04:16:00.000Z</time>
      </trkpt>
      <trkpt lat="42.493466" lon="0.713306">
        <ele>1034</ele>
        <time>1970-01-01T04:16:03.000Z</time>
      </trkpt>
      <trkpt lat="42.493398" lon="0.71329">
        <ele>1034</ele>
        <time>1970-01-01T04:16:04.000Z</time>
      </trkpt>
      <trkpt lat="42.492923" lon="0.713141">
        <ele>1033.6</ele>
        <time>1970-01-01T04:16:12.000Z</time>
      </trkpt>
      <trkpt lat="42.492623" lon="0.713053">
        <ele>1033.2</ele>
        <time>1970-01-01T04:16:18.000Z</time>
      </trkpt>
      <trkpt lat="42.492566" lon="0.713046">
        <ele>1032.8</ele>
        <time>1970-01-01T04:16:19.000Z</time>
      </trkpt>
      <trkpt lat="42.492388" lon="0.713007">
        <ele>1031.6</ele>
        <time>1970-01-01T04:16:22.000Z</time>
      </trkpt>
      <trkpt lat="42.492226" lon="0.712974">
        <ele>1030.8</ele>
        <time>1970-01-01T04:16:25.000Z</time>
      </trkpt>
      <trkpt lat="42.492034" lon="0.712975">
        <ele>1030.6</ele>
        <time>1970-01-01T04:16:29.000Z</time>
      </trkpt>
      <trkpt lat="42.491808" lon="0.713154">
        <ele>1030.4</ele>
        <time>1970-01-01T04:16:35.000Z</time>
      </trkpt>
      <trkpt lat="42.491468" lon="0.713444">
        <ele>1030.8</ele>
        <time>1970-01-01T04:16:50.000Z</time>
      </trkpt>
      <trkpt lat="42.49136" lon="0.713455">
        <ele>1032.8</ele>
        <time>1970-01-01T04:18:09.000Z</time>
      </trkpt>
      <trkpt lat="42.491107" lon="0.713482">
        <ele>1034</ele>
        <time>1970-01-01T04:18:20.000Z</time>
      </trkpt>
      <trkpt lat="42.49097" lon="0.71352">
        <ele>1035</ele>
        <time>1970-01-01T04:18:26.000Z</time>
      </trkpt>
      <trkpt lat="42.490804" lon="0.713594">
        <ele>1036</ele>
        <time>1970-01-01T04:18:33.000Z</time>
      </trkpt>
      <trkpt lat="42.49029" lon="0.713833">
        <ele>1035.2</ele>
        <time>1970-01-01T04:18:48.000Z</time>
      </trkpt>
      <trkpt lat="42.490243" lon="0.713848">
        <ele>1035</ele>
        <time>1970-01-01T04:18:49.000Z</time>
      </trkpt>
      <trkpt lat="42.490149" lon="0.71386">
        <ele>1034.6</ele>
        <time>1970-01-01T04:18:51.000Z</time>
      </trkpt>
      <trkpt lat="42.490077" lon="0.713884">
        <ele>1033.6</ele>
        <time>1970-01-01T04:18:53.000Z</time>
      </trkpt>
      <trkpt lat="42.489944" lon="0.713894">
        <ele>1032</ele>
        <time>1970-01-01T04:18:56.000Z</time>
      </trkpt>
      <trkpt lat="42.489891" lon="0.713896">
        <ele>1031.2</ele>
        <time>1970-01-01T04:18:57.000Z</time>
      </trkpt>
      <trkpt lat="42.489841" lon="0.713903">
        <ele>1030.8</ele>
        <time>1970-01-01T04:18:58.000Z</time>
      </trkpt>
      <trkpt lat="42.489728" lon="0.713911">
        <ele>1028.8</ele>
        <time>1970-01-01T04:19:00.000Z</time>
      </trkpt>
      <trkpt lat="42.489615" lon="0.713928">
        <ele>1027</ele>
        <time>1970-01-01T04:19:02.000Z</time>
      </trkpt>
      <trkpt lat="42.489518" lon="0.7139">
        <ele>1025.8</ele>
        <time>1970-01-01T04:19:04.000Z</time>
      </trkpt>
      <trkpt lat="42.489465" lon="0.713873">
        <ele>1025.4</ele>
        <time>1970-01-01T04:19:05.000Z</time>
      </trkpt>
      <trkpt lat="42.489405" lon="0.71385">
        <ele>1025</ele>
        <time>1970-01-01T04:19:06.000Z</time>
      </trkpt>
      <trkpt lat="42.489342" lon="0.713837">
        <ele>1024.6</ele>
        <time>1970-01-01T04:19:07.000Z</time>
      </trkpt>
      <trkpt lat="42.48928" lon="0.71383">
        <ele>1024.2</ele>
        <time>1970-01-01T04:19:08.000Z</time>
      </trkpt>
      <trkpt lat="42.489219" lon="0.713831">
        <ele>1023.4</ele>
        <time>1970-01-01T04:19:09.000Z</time>
      </trkpt>
      <trkpt lat="42.489099" lon="0.713864">
        <ele>1022.4</ele>
        <time>1970-01-01T04:19:11.000Z</time>
      </trkpt>
      <trkpt lat="42.48897" lon="0.713942">
        <ele>1021.8</ele>
        <time>1970-01-01T04:19:13.000Z</time>
      </trkpt>
      <trkpt lat="42.4889" lon="0.713983">
        <ele>1021.4</ele>
        <time>1970-01-01T04:19:14.000Z</time>
      </trkpt>
      <trkpt lat="42.488766" lon="0.714057">
        <ele>1020.2</ele>
        <time>1970-01-01T04:19:16.000Z</time>
      </trkpt>
      <trkpt lat="42.488699" lon="0.714074">
        <ele>1020</ele>
        <time>1970-01-01T04:19:17.000Z</time>
      </trkpt>
      <trkpt lat="42.488448" lon="0.714044">
        <ele>1019.2</ele>
        <time>1970-01-01T04:19:21.000Z</time>
      </trkpt>
      <trkpt lat="42.488184" lon="0.714008">
        <ele>1018.6</ele>
        <time>1970-01-01T04:19:26.000Z</time>
      </trkpt>
      <trkpt lat="42.488057" lon="0.713952">
        <ele>1018.2</ele>
        <time>1970-01-01T04:19:29.000Z</time>
      </trkpt>
      <trkpt lat="42.487976" lon="0.713915">
        <ele>1017.8</ele>
        <time>1970-01-01T04:19:31.000Z</time>
      </trkpt>
      <trkpt lat="42.48762" lon="0.713804">
        <ele>1018.2</ele>
        <time>1970-01-01T04:19:39.000Z</time>
      </trkpt>
      <trkpt lat="42.487464" lon="0.713721">
        <ele>1017.8</ele>
        <time>1970-01-01T04:19:43.000Z</time>
      </trkpt>
      <trkpt lat="42.487285" lon="0.71361">
        <ele>1019.6</ele>
        <time>1970-01-01T04:19:51.000Z</time>
      </trkpt>
      <trkpt lat="42.487268" lon="0.713612">
        <ele>1020</ele>
        <time>1970-01-01T04:19:52.000Z</time>
      </trkpt>
      <trkpt lat="42.487204" lon="0.713616">
        <ele>1020.8</ele>
        <time>1970-01-01T04:19:55.000Z</time>
      </trkpt>
      <trkpt lat="42.487129" lon="0.713622">
        <ele>1021.8</ele>
        <time>1970-01-01T04:19:59.000Z</time>
      </trkpt>
      <trkpt lat="42.48699" lon="0.713697">
        <ele>1023</ele>
        <time>1970-01-01T04:20:05.000Z</time>
      </trkpt>
      <trkpt lat="42.486838" lon="0.713821">
        <ele>1023.8</ele>
        <time>1970-01-01T04:20:16.000Z</time>
      </trkpt>
      <trkpt lat="42.48681" lon="0.713832">
        <ele>1023.8</ele>
        <time>1970-01-01T04:20:40.000Z</time>
      </trkpt>
      <trkpt lat="42.486591" lon="0.713823">
        <ele>1022</ele>
        <time>1970-01-01T04:20:48.000Z</time>
      </trkpt>
      <trkpt lat="42.486389" lon="0.71386">
        <ele>1021.2</ele>
        <time>1970-01-01T04:20:53.000Z</time>
      </trkpt>
      <trkpt lat="42.486224" lon="0.713894">
        <ele>1021</ele>
        <time>1970-01-01T04:20:57.000Z</time>
      </trkpt>
      <trkpt lat="42.48608" lon="0.71391">
        <ele>1020.6</ele>
        <time>1970-01-01T04:21:00.000Z</time>
      </trkpt>
      <trkpt lat="42.486005" lon="0.713968">
        <ele>1020.2</ele>
        <time>1970-01-01T04:21:02.000Z</time>
      </trkpt>
      <trkpt lat="42.485967" lon="0.714068">
        <ele>1020</ele>
        <time>1970-01-01T04:21:04.000Z</time>
      </trkpt>
      <trkpt lat="42.485931" lon="0.714192">
        <ele>1019.4</ele>
        <time>1970-01-01T04:21:06.000Z</time>
      </trkpt>
      <trkpt lat="42.485871" lon="0.714264">
        <ele>1018.4</ele>
        <time>1970-01-01T04:21:08.000Z</time>
      </trkpt>
      <trkpt lat="42.485817" lon="0.714294">
        <ele>1017.6</ele>
        <time>1970-01-01T04:21:11.000Z</time>
      </trkpt>
      <trkpt lat="42.485777" lon="0.714323">
        <ele>1017.6</ele>
        <time>1970-01-01T04:21:14.000Z</time>
      </trkpt>
      <trkpt lat="42.485254" lon="0.714585">
        <ele>1016.8</ele>
        <time>1970-01-01T04:21:30.000Z</time>
      </trkpt>
      <trkpt lat="42.485214" lon="0.714616">
        <ele>1016.6</ele>
        <time>1970-01-01T04:21:31.000Z</time>
      </trkpt>
      <trkpt lat="42.485134" lon="0.714668">
        <ele>1016.4</ele>
        <time>1970-01-01T04:21:33.000Z</time>
      </trkpt>
      <trkpt lat="42.484879" lon="0.714879">
        <ele>1016</ele>
        <time>1970-01-01T04:21:40.000Z</time>
      </trkpt>
      <trkpt lat="42.484653" lon="0.715053">
        <ele>1015.6</ele>
        <time>1970-01-01T04:21:46.000Z</time>
      </trkpt>
      <trkpt lat="42.484218" lon="0.715519">
        <ele>1016.2</ele>
        <time>1970-01-01T04:22:03.000Z</time>
      </trkpt>
      <trkpt lat="42.483712" lon="0.715748">
        <ele>1015</ele>
        <time>1970-01-01T04:22:19.000Z</time>
      </trkpt>
      <trkpt lat="42.483444" lon="0.715654">
        <ele>1014.6</ele>
        <time>1970-01-01T04:22:26.000Z</time>
      </trkpt>
      <trkpt lat="42.482937" lon="0.715611">
        <ele>1014</ele>
        <time>1970-01-01T04:22:37.000Z</time>
      </trkpt>
      <trkpt lat="42.482829" lon="0.71559">
        <ele>1013.8</ele>
        <time>1970-01-01T04:22:39.000Z</time>
      </trkpt>
      <trkpt lat="42.482775" lon="0.715572">
        <ele>1013.8</ele>
        <time>1970-01-01T04:22:40.000Z</time>
      </trkpt>
      <trkpt lat="42.482625" lon="0.715495">
        <ele>1013.6</ele>
        <time>1970-01-01T04:22:43.000Z</time>
      </trkpt>
      <trkpt lat="42.482433" lon="0.715357">
        <ele>1013</ele>
        <time>1970-01-01T04:22:47.000Z</time>
      </trkpt>
      <trkpt lat="42.482376" lon="0.715317">
        <ele>1012.8</ele>
        <time>1970-01-01T04:22:49.000Z</time>
      </trkpt>
      <trkpt lat="42.482351" lon="0.715378">
        <ele>1012.8</ele>
        <time>1970-01-01T04:22:51.000Z</time>
      </trkpt>
      <trkpt lat="42.482491" lon="0.715641">
        <ele>1012.8</ele>
        <time>1970-01-01T04:23:02.000Z</time>
      </trkpt>
      <trkpt lat="42.482521" lon="0.715665">
        <ele>1013</ele>
        <time>1970-01-01T04:23:04.000Z</time>
      </trkpt>
      <trkpt lat="42.482542" lon="0.715691">
        <ele>1013.2</ele>
        <time>1970-01-01T04:23:07.000Z</time>
      </trkpt>
      <trkpt lat="42.482556" lon="0.715664">
        <ele>1013.4</ele>
        <time>1970-01-01T04:23:23.000Z</time>
      </trkpt>
      <trkpt lat="42.482564" lon="0.715588">
        <ele>1013.2</ele>
        <time>1970-01-01T04:23:26.000Z</time>
      </trkpt>
      <trkpt lat="42.482483" lon="0.715506">
        <ele>1012.8</ele>
        <time>1970-01-01T04:23:30.000Z</time>
      </trkpt>
      <trkpt lat="42.482325" lon="0.715352">
        <ele>1012.8</ele>
        <time>1970-01-01T04:23:37.000Z</time>
      </trkpt>
      <trkpt lat="42.482239" lon="0.715213">
        <ele>1012.6</ele>
        <time>1970-01-01T04:23:43.000Z</time>
      </trkpt>
      <trkpt lat="42.48184" lon="0.714883">
        <ele>1012.4</ele>
        <time>1970-01-01T04:23:57.000Z</time>
      </trkpt>
      <trkpt lat="42.481407" lon="0.71438">
        <ele>1012.4</ele>
        <time>1970-01-01T04:24:10.000Z</time>
      </trkpt>
      <trkpt lat="42.481291" lon="0.714303">
        <ele>1012.4</ele>
        <time>1970-01-01T04:24:13.000Z</time>
      </trkpt>
      <trkpt lat="42.480928" lon="0.714122">
        <ele>1012</ele>
        <time>1970-01-01T04:24:25.000Z</time>
      </trkpt>
      <trkpt lat="42.480411" lon="0.713831">
        <ele>1011.2</ele>
        <time>1970-01-01T04:24:37.000Z</time>
      </trkpt>
      <trkpt lat="42.480123" lon="0.713666">
        <ele>1011.2</ele>
        <time>1970-01-01T04:24:43.000Z</time>
      </trkpt>
      <trkpt lat="42.479845" lon="0.71356">
        <ele>1011.2</ele>
        <time>1970-01-01T04:24:49.000Z</time>
      </trkpt>
      <trkpt lat="42.479501" lon="0.713753">
        <ele>1011.2</ele>
        <time>1970-01-01T04:24:58.000Z</time>
      </trkpt>
      <trkpt lat="42.479468" lon="0.713793">
        <ele>1011.2</ele>
        <time>1970-01-01T04:24:59.000Z</time>
      </trkpt>
      <trkpt lat="42.479039" lon="0.714254">
        <ele>1012.2</ele>
        <time>1970-01-01T04:25:12.000Z</time>
      </trkpt>
      <trkpt lat="42.478584" lon="0.714687">
        <ele>1012.8</ele>
        <time>1970-01-01T04:25:27.000Z</time>
      </trkpt>
      <trkpt lat="42.478498" lon="0.714743">
        <ele>1012.6</ele>
        <time>1970-01-01T04:25:29.000Z</time>
      </trkpt>
      <trkpt lat="42.478357" lon="0.714844">
        <ele>1011.8</ele>
        <time>1970-01-01T04:25:32.000Z</time>
      </trkpt>
      <trkpt lat="42.478255" lon="0.714853">
        <ele>1011</ele>
        <time>1970-01-01T04:25:34.000Z</time>
      </trkpt>
      <trkpt lat="42.478157" lon="0.714819">
        <ele>1010.2</ele>
        <time>1970-01-01T04:25:36.000Z</time>
      </trkpt>
      <trkpt lat="42.478112" lon="0.714808">
        <ele>1010.2</ele>
        <time>1970-01-01T04:25:37.000Z</time>
      </trkpt>
      <trkpt lat="42.477919" lon="0.714758">
        <ele>1010</ele>
        <time>1970-01-01T04:25:42.000Z</time>
      </trkpt>
      <trkpt lat="42.477858" lon="0.714926">
        <ele>1010</ele>
        <time>1970-01-01T04:25:46.000Z</time>
      </trkpt>
      <trkpt lat="42.47785" lon="0.714969">
        <ele>1009.8</ele>
        <time>1970-01-01T04:25:47.000Z</time>
      </trkpt>
      <trkpt lat="42.477691" lon="0.715683">
        <ele>1010</ele>
        <time>1970-01-01T04:26:03.000Z</time>
      </trkpt>
      <trkpt lat="42.477559" lon="0.715995">
        <ele>1011</ele>
        <time>1970-01-01T04:26:11.000Z</time>
      </trkpt>
      <trkpt lat="42.477548" lon="0.716051">
        <ele>1011.4</ele>
        <time>1970-01-01T04:26:13.000Z</time>
      </trkpt>
      <trkpt lat="42.477526" lon="0.715864">
        <ele>1010.4</ele>
        <time>1970-01-01T04:26:23.000Z</time>
      </trkpt>
      <trkpt lat="42.477519" lon="0.715869">
        <ele>1010.2</ele>
        <time>1970-01-01T04:26:25.000Z</time>
      </trkpt>
      <trkpt lat="42.477513" lon="0.715798">
        <ele>1011.4</ele>
        <time>1970-01-01T04:31:27.000Z</time>
      </trkpt>
      <trkpt lat="42.477609" lon="0.715883">
        <ele>1011.6</ele>
        <time>1970-01-01T04:31:36.000Z</time>
      </trkpt>
      <trkpt lat="42.477554" lon="0.716011">
        <ele>1012.6</ele>
        <time>1970-01-01T04:31:41.000Z</time>
      </trkpt>
      <trkpt lat="42.477488" lon="0.716194">
        <ele>1013.6</ele>
        <time>1970-01-01T04:31:47.000Z</time>
      </trkpt>
      <trkpt lat="42.477396" lon="0.716405">
        <ele>1014.8</ele>
        <time>1970-01-01T04:31:54.000Z</time>
      </trkpt>
      <trkpt lat="42.477314" lon="0.716547">
        <ele>1015.8</ele>
        <time>1970-01-01T04:31:59.000Z</time>
      </trkpt>
      <trkpt lat="42.477246" lon="0.716709">
        <ele>1016.8</ele>
        <time>1970-01-01T04:32:04.000Z</time>
      </trkpt>
      <trkpt lat="42.477179" lon="0.716879">
        <ele>1018</ele>
        <time>1970-01-01T04:32:09.000Z</time>
      </trkpt>
      <trkpt lat="42.477108" lon="0.717037">
        <ele>1019</ele>
        <time>1970-01-01T04:32:14.000Z</time>
      </trkpt>
      <trkpt lat="42.477047" lon="0.717193">
        <ele>1020.2</ele>
        <time>1970-01-01T04:32:19.000Z</time>
      </trkpt>
      <trkpt lat="42.477" lon="0.717324">
        <ele>1021.4</ele>
        <time>1970-01-01T04:32:24.000Z</time>
      </trkpt>
      <trkpt lat="42.476956" lon="0.717502">
        <ele>1022.4</ele>
        <time>1970-01-01T04:32:31.000Z</time>
      </trkpt>
      <trkpt lat="42.476868" lon="0.71762">
        <ele>1023.2</ele>
        <time>1970-01-01T04:32:39.000Z</time>
      </trkpt>
      <trkpt lat="42.47634" lon="0.717289">
        <ele>1022.4</ele>
        <time>1970-01-01T04:32:56.000Z</time>
      </trkpt>
      <trkpt lat="42.476296" lon="0.717268">
        <ele>1022.2</ele>
        <time>1970-01-01T04:32:57.000Z</time>
      </trkpt>
      <trkpt lat="42.476177" lon="0.717212">
        <ele>1021.6</ele>
        <time>1970-01-01T04:33:00.000Z</time>
      </trkpt>
      <trkpt lat="42.475981" lon="0.717116">
        <ele>1020.4</ele>
        <time>1970-01-01T04:33:08.000Z</time>
      </trkpt>
      <trkpt lat="42.475979" lon="0.717112">
        <ele>1020.2</ele>
        <time>1970-01-01T04:33:09.000Z</time>
      </trkpt>
      <trkpt lat="42.47618" lon="0.717195">
        <ele>1020.6</ele>
        <time>1970-01-01T04:33:31.000Z</time>
      </trkpt>
      <trkpt lat="42.476323" lon="0.71723">
        <ele>1020.8</ele>
        <time>1970-01-01T04:33:37.000Z</time>
      </trkpt>
      <trkpt lat="42.476367" lon="0.717118">
        <ele>1021.4</ele>
        <time>1970-01-01T04:33:41.000Z</time>
      </trkpt>
      <trkpt lat="42.476447" lon="0.716757">
        <ele>1022</ele>
        <time>1970-01-01T04:33:53.000Z</time>
      </trkpt>
      <trkpt lat="42.476476" lon="0.716704">
        <ele>1022.2</ele>
        <time>1970-01-01T04:33:57.000Z</time>
      </trkpt>
      <trkpt lat="42.476474" lon="0.716688">
        <ele>1022.2</ele>
        <time>1970-01-01T04:34:00.000Z</time>
      </trkpt>
      <trkpt lat="42.476564" lon="0.716713">
        <ele>1024.8</ele>
        <time>1970-01-01T05:10:36.000Z</time>
      </trkpt>
      <trkpt lat="42.476505" lon="0.716704">
        <ele>1025</ele>
        <time>1970-01-01T05:10:43.000Z</time>
      </trkpt>
      <trkpt lat="42.476445" lon="0.716633">
        <ele>1024.6</ele>
        <time>1970-01-01T05:10:51.000Z</time>
      </trkpt>
      <trkpt lat="42.476429" lon="0.716595">
        <ele>1025.2</ele>
        <time>1970-01-01T05:10:56.000Z</time>
      </trkpt>
      <trkpt lat="42.47644" lon="0.716572">
        <ele>1025.8</ele>
        <time>1970-01-01T05:11:00.000Z</time>
      </trkpt>
      <trkpt lat="42.476443" lon="0.716574">
        <ele>1025.8</ele>
        <time>1970-01-01T05:11:01.000Z</time>
      </trkpt>
      <trkpt lat="42.476555" lon="0.716665">
        <ele>1027.2</ele>
        <time>1970-01-01T05:15:28.000Z</time>
      </trkpt>
      <trkpt lat="42.476612" lon="0.716436">
        <ele>1027.2</ele>
        <time>1970-01-01T05:15:58.000Z</time>
      </trkpt>
      <trkpt lat="42.476542" lon="0.716508">
        <ele>1027</ele>
        <time>1970-01-01T05:17:04.000Z</time>
      </trkpt>
      <trkpt lat="42.476514" lon="0.716719">
        <ele>1027</ele>
        <time>1970-01-01T05:17:45.000Z</time>
      </trkpt>
      <trkpt lat="42.476531" lon="0.716735">
        <ele>1027.8</ele>
        <time>1970-01-01T05:17:53.000Z</time>
      </trkpt>
      <trkpt lat="42.476502" lon="0.71682">
        <ele>1028.6</ele>
        <time>1970-01-01T05:19:46.000Z</time>
      </trkpt>
      <trkpt lat="42.476549" lon="0.715198">
        <ele>1028.6</ele>
        <time>1970-01-01T05:20:04.000Z</time>
      </trkpt>
      <trkpt lat="42.476549" lon="0.715123"/>
      <trkpt lat="42.476548" lon="0.715049">
        <ele>1028.6</ele>
        <time>1970-01-01T05:20:05.000Z</time>
      </trkpt>
      <trkpt lat="42.476499" lon="0.713341">
        <ele>1028.2</ele>
        <time>1970-01-01T05:20:15.000Z</time>
      </trkpt>
      <trkpt lat="42.476416" lon="0.711551">
        <ele>1028.6</ele>
        <time>1970-01-01T05:20:23.000Z</time>
      </trkpt>
      <trkpt lat="42.477775" lon="0.707579">
        <ele>1028</ele>
        <time>1970-01-01T05:20:38.000Z</time>
      </trkpt>
      <trkpt lat="42.486305" lon="0.696537">
        <ele>1028</ele>
        <time>1970-01-01T05:21:24.000Z</time>
      </trkpt>
      <trkpt lat="42.486305" lon="0.696537">
        <ele>1028</ele>
        <time>1970-01-01T05:21:24.000Z</time>
      </trkpt>
      <trkpt lat="42.486305" lon="0.696537">
        <ele>1028</ele>
        <time>1970-01-01T05:21:24.000Z</time>
      </trkpt>
      <trkpt lat="42.486305" lon="0.696537">
        <ele>1028</ele>
        <time>1970-01-01T05:21:24.000Z</time>
      </trkpt>
      <trkpt lat="42.486305" lon="0.696537">
        <ele>1028</ele>
        <time>1970-01-01T05:21:24.000Z</time>
      </trkpt>
      <trkpt lat="42.486305" lon="0.696537">
        <ele>1028</ele>
        <time>1970-01-01T05:21:24.000Z</time>
      </trkpt>
      <trkpt lat="42.486305" lon="0.696537">
        <ele>1028</ele>
        <time>1970-01-01T05:21:24.000Z</time>
      </trkpt>
      <trkpt lat="42.474302" lon="0.747099">
        <ele>1027.2</ele>
        <time>1970-01-01T05:24:25.000Z</time>
      </trkpt>
      <trkpt lat="42.474306" lon="0.747146"/>
      <trkpt lat="42.474311" lon="0.747194"/>
      <trkpt lat="42.474319" lon="0.747288"/>
      <trkpt lat="42.474328" lon="0.747383"/>
      <trkpt lat="42.474337" lon="0.747477"/>
      <trkpt lat="42.474354" lon="0.747666"/>
      <trkpt lat="42.474371" lon="0.747855">
        <ele>1027.2</ele>
        <time>1970-01-01T05:24:27.000Z</time>
      </trkpt>
      <trkpt lat="42.472812" lon="0.75491">
        <ele>1027.2</ele>
        <time>1970-01-01T05:24:53.000Z</time>
      </trkpt>
      <trkpt lat="42.472702" lon="0.755687">
        <ele>1027.2</ele>
        <time>1970-01-01T05:24:56.000Z</time>
      </trkpt>
      <trkpt lat="42.472702" lon="0.755687">
        <ele>1027.2</ele>
        <time>1970-01-01T05:24:56.000Z</time>
      </trkpt>
      <trkpt lat="42.472702" lon="0.755687">
        <ele>1027.2</ele>
        <time>1970-01-01T05:24:56.000Z</time>
      </trkpt>
      <trkpt lat="42.472702" lon="0.755687">
        <ele>1027.2</ele>
        <time>1970-01-01T05:24:56.000Z</time>
      </trkpt>
      <trkpt lat="42.472702" lon="0.755687">
        <ele>1027.2</ele>
        <time>1970-01-01T05:24:56.000Z</time>
      </trkpt>
      <trkpt lat="42.472702" lon="0.755687">
        <ele>1027.2</ele>
        <time>1970-01-01T05:24:56.000Z</time>
      </trkpt>
      <trkpt lat="42.472702" lon="0.755687">
        <ele>1027.2</ele>
        <time>1970-01-01T05:24:56.000Z</time>
      </trkpt>
      <trkpt lat="42.472702" lon="0.755687">
        <ele>1027.2</ele>
        <time>1970-01-01T05:24:56.000Z</time>
      </trkpt>
      <trkpt lat="42.472702" lon="0.755687">
        <ele>1027.2</ele>
        <time>1970-01-01T05:24:56.000Z</time>
      </trkpt>
      <trkpt lat="42.472702" lon="0.755687">
        <ele>1027.2</ele>
        <time>1970-01-01T05:24:56.000Z</time>
      </trkpt>
      <trkpt lat="42.4764" lon="0.717068">
        <ele>1025.4</ele>
        <time>1970-01-01T05:40:20.000Z</time>
      </trkpt>
      <trkpt lat="42.476473" lon="0.716754">
        <ele>1025</ele>
        <time>1970-01-01T05:40:22.000Z</time>
      </trkpt>
      <trkpt lat="42.476513" lon="0.716779">
        <ele>1024.8</ele>
        <time>1970-01-01T05:40:30.000Z</time>
      </trkpt>
      <trkpt lat="42.476424" lon="0.716909">
        <ele>1024.8</ele>
        <time>1970-01-01T05:40:56.000Z</time>
      </trkpt>
      <trkpt lat="42.476267" lon="0.716706">
        <ele>1012.4</ele>
        <time>1970-01-01T06:12:50.000Z</time>
      </trkpt>
      <trkpt lat="42.476203" lon="0.717228">
        <ele>1011.4</ele>
        <time>1970-01-01T06:13:02.000Z</time>
      </trkpt>
      <trkpt lat="42.476211" lon="0.717255">
        <ele>1011.2</ele>
        <time>1970-01-01T06:13:03.000Z</time>
      </trkpt>
      <trkpt lat="42.476227" lon="0.717345">
        <ele>1011</ele>
        <time>1970-01-01T06:13:26.000Z</time>
      </trkpt>
      <trkpt lat="42.476122" lon="0.71731">
        <ele>1010.6</ele>
        <time>1970-01-01T06:13:31.000Z</time>
      </trkpt>
      <trkpt lat="42.475639" lon="0.71714">
        <ele>1009.8</ele>
        <time>1970-01-01T06:13:49.000Z</time>
      </trkpt>
      <trkpt lat="42.475593" lon="0.717163">
        <ele>1009.2</ele>
        <time>1970-01-01T06:13:54.000Z</time>
      </trkpt>
      <trkpt lat="42.475611" lon="0.717207">
        <ele>1009.2</ele>
        <time>1970-01-01T06:13:57.000Z</time>
      </trkpt>
      <trkpt lat="42.475837" lon="0.7173">
        <ele>1010.2</ele>
        <time>1970-01-01T06:14:10.000Z</time>
      </trkpt>
      <trkpt lat="42.47595" lon="0.717339">
        <ele>1010.6</ele>
        <time>1970-01-01T06:14:15.000Z</time>
      </trkpt>
      <trkpt lat="42.475974" lon="0.717345">
        <ele>1010.6</ele>
        <time>1970-01-01T06:14:16.000Z</time>
      </trkpt>
      <trkpt lat="42.476134" lon="0.717372">
        <ele>1011.2</ele>
        <time>1970-01-01T06:14:24.000Z</time>
      </trkpt>
      <trkpt lat="42.476096" lon="0.717369">
        <ele>1011</ele>
        <time>1970-01-01T06:14:38.000Z</time>
      </trkpt>
      <trkpt lat="42.476019" lon="0.717343">
        <ele>1011</ele>
        <time>1970-01-01T06:14:42.000Z</time>
      </trkpt>
      <trkpt lat="42.476009" lon="0.717449">
        <ele>1011.4</ele>
        <time>1970-01-01T06:14:47.000Z</time>
      </trkpt>
      <trkpt lat="42.476003" lon="0.717478">
        <ele>1011.6</ele>
        <time>1970-01-01T06:14:48.000Z</time>
      </trkpt>
      <trkpt lat="42.475981" lon="0.717605">
        <ele>1012.6</ele>
        <time>1970-01-01T06:14:52.000Z</time>
      </trkpt>
      <trkpt lat="42.475932" lon="0.717798">
        <ele>1013.8</ele>
        <time>1970-01-01T06:15:00.000Z</time>
      </trkpt>
      <trkpt lat="42.47587" lon="0.717984">
        <ele>1014.8</ele>
        <time>1970-01-01T06:15:07.000Z</time>
      </trkpt>
      <trkpt lat="42.475825" lon="0.718128">
        <ele>1015.8</ele>
        <time>1970-01-01T06:15:13.000Z</time>
      </trkpt>
      <trkpt lat="42.475746" lon="0.718316">
        <ele>1017</ele>
        <time>1970-01-01T06:15:21.000Z</time>
      </trkpt>
      <trkpt lat="42.475669" lon="0.718603">
        <ele>1018.2</ele>
        <time>1970-01-01T06:15:31.000Z</time>
      </trkpt>
      <trkpt lat="42.475664" lon="0.718791">
        <ele>1019.4</ele>
        <time>1970-01-01T06:15:37.000Z</time>
      </trkpt>
      <trkpt lat="42.475663" lon="0.718979">
        <ele>1020.6</ele>
        <time>1970-01-01T06:15:43.000Z</time>
      </trkpt>
      <trkpt lat="42.475719" lon="0.719135">
        <ele>1021.6</ele>
        <time>1970-01-01T06:15:49.000Z</time>
      </trkpt>
      <trkpt lat="42.475825" lon="0.719274">
        <ele>1022.8</ele>
        <time>1970-01-01T06:15:57.000Z</time>
      </trkpt>
      <trkpt lat="42.475886" lon="0.719392">
        <ele>1024</ele>
        <time>1970-01-01T06:16:03.000Z</time>
      </trkpt>
      <trkpt lat="42.475895" lon="0.719412">
        <ele>1024.2</ele>
        <time>1970-01-01T06:16:04.000Z</time>
      </trkpt>
      <trkpt lat="42.475911" lon="0.719453">
        <ele>1024.6</ele>
        <time>1970-01-01T06:16:06.000Z</time>
      </trkpt>
      <trkpt lat="42.47594" lon="0.719547">
        <ele>1025.2</ele>
        <time>1970-01-01T06:16:10.000Z</time>
      </trkpt>
      <trkpt lat="42.476012" lon="0.719707">
        <ele>1026.4</ele>
        <time>1970-01-01T06:16:17.000Z</time>
      </trkpt>
      <trkpt lat="42.476025" lon="0.719728">
        <ele>1026.6</ele>
        <time>1970-01-01T06:16:18.000Z</time>
      </trkpt>
      <trkpt lat="42.476078" lon="0.719865">
        <ele>1028</ele>
        <time>1970-01-01T06:16:24.000Z</time>
      </trkpt>
      <trkpt lat="42.476153" lon="0.719978">
        <ele>1029.2</ele>
        <time>1970-01-01T06:16:30.000Z</time>
      </trkpt>
      <trkpt lat="42.476244" lon="0.72006">
        <ele>1030.4</ele>
        <time>1970-01-01T06:16:36.000Z</time>
      </trkpt>
      <trkpt lat="42.476333" lon="0.720148">
        <ele>1031.8</ele>
        <time>1970-01-01T06:16:42.000Z</time>
      </trkpt>
      <trkpt lat="42.476449" lon="0.720274">
        <ele>1033</ele>
        <time>1970-01-01T06:16:50.000Z</time>
      </trkpt>
      <trkpt lat="42.476452" lon="0.720298">
        <ele>1033</ele>
        <time>1970-01-01T06:16:51.000Z</time>
      </trkpt>
      <trkpt lat="42.476349" lon="0.720321">
        <ele>1034</ele>
        <time>1970-01-01T06:16:58.000Z</time>
      </trkpt>
      <trkpt lat="42.476315" lon="0.720294">
        <ele>1034.2</ele>
        <time>1970-01-01T06:17:00.000Z</time>
      </trkpt>
      <trkpt lat="42.475813" lon="0.720001">
        <ele>1033.8</ele>
        <time>1970-01-01T06:17:18.000Z</time>
      </trkpt>
      <trkpt lat="42.475559" lon="0.719987">
        <ele>1033.8</ele>
        <time>1970-01-01T06:17:25.000Z</time>
      </trkpt>
      <trkpt lat="42.475282" lon="0.720048">
        <ele>1033.2</ele>
        <time>1970-01-01T06:17:33.000Z</time>
      </trkpt>
      <trkpt lat="42.475186" lon="0.719971">
        <ele>1033.6</ele>
        <time>1970-01-01T06:17:37.000Z</time>
      </trkpt>
      <trkpt lat="42.474991" lon="0.719623">
        <ele>1035.2</ele>
        <time>1970-01-01T06:17:51.000Z</time>
      </trkpt>
      <trkpt lat="42.474835" lon="0.719467">
        <ele>1036.4</ele>
        <time>1970-01-01T06:17:59.000Z</time>
      </trkpt>
      <trkpt lat="42.474658" lon="0.719272">
        <ele>1037.6</ele>
        <time>1970-01-01T06:18:10.000Z</time>
      </trkpt>
      <trkpt lat="42.474511" lon="0.719194">
        <ele>1039</ele>
        <time>1970-01-01T06:18:19.000Z</time>
      </trkpt>
      <trkpt lat="42.474468" lon="0.719175">
        <ele>1039.4</ele>
        <time>1970-01-01T06:18:21.000Z</time>
      </trkpt>
      <trkpt lat="42.474301" lon="0.719109">
        <ele>1040.2</ele>
        <time>1970-01-01T06:18:29.000Z</time>
      </trkpt>
      <trkpt lat="42.474196" lon="0.719062">
        <ele>1040.8</ele>
        <time>1970-01-01T06:18:40.000Z</time>
      </trkpt>
      <trkpt lat="42.474117" lon="0.719017">
        <ele>1041</ele>
        <time>1970-01-01T06:19:52.000Z</time>
      </trkpt>
      <trkpt lat="42.473678" lon="0.718563">
        <ele>1042.2</ele>
        <time>1970-01-01T06:20:11.000Z</time>
      </trkpt>
      <trkpt lat="42.47357" lon="0.718393">
        <ele>1043.2</ele>
        <time>1970-01-01T06:20:17.000Z</time>
      </trkpt>
      <trkpt lat="42.473338" lon="0.718186">
        <ele>1044.6</ele>
        <time>1970-01-01T06:20:27.000Z</time>
      </trkpt>
      <trkpt lat="42.473156" lon="0.71803">
        <ele>1045.8</ele>
        <time>1970-01-01T06:20:35.000Z</time>
      </trkpt>
      <trkpt lat="42.472893" lon="0.717725">
        <ele>1047.2</ele>
        <time>1970-01-01T06:20:47.000Z</time>
      </trkpt>
      <trkpt lat="42.472679" lon="0.717484">
        <ele>1048.4</ele>
        <time>1970-01-01T06:20:57.000Z</time>
      </trkpt>
      <trkpt lat="42.472531" lon="0.717361">
        <ele>1049.8</ele>
        <time>1970-01-01T06:21:04.000Z</time>
      </trkpt>
      <trkpt lat="42.47241" lon="0.7173">
        <ele>1050.8</ele>
        <time>1970-01-01T06:21:11.000Z</time>
      </trkpt>
      <trkpt lat="42.472305" lon="0.717255">
        <ele>1052.2</ele>
        <time>1970-01-01T06:21:17.000Z</time>
      </trkpt>
      <trkpt lat="42.472193" lon="0.717197">
        <ele>1053.2</ele>
        <time>1970-01-01T06:21:24.000Z</time>
      </trkpt>
      <trkpt lat="42.472082" lon="0.717149">
        <ele>1054.6</ele>
        <time>1970-01-01T06:21:31.000Z</time>
      </trkpt>
      <trkpt lat="42.471942" lon="0.717103">
        <ele>1055.6</ele>
        <time>1970-01-01T06:21:39.000Z</time>
      </trkpt>
      <trkpt lat="42.471813" lon="0.717083">
        <ele>1057</ele>
        <time>1970-01-01T06:21:46.000Z</time>
      </trkpt>
      <trkpt lat="42.471668" lon="0.717051">
        <ele>1058.2</ele>
        <time>1970-01-01T06:21:54.000Z</time>
      </trkpt>
      <trkpt lat="42.471509" lon="0.717035">
        <ele>1059.4</ele>
        <time>1970-01-01T06:22:03.000Z</time>
      </trkpt>
      <trkpt lat="42.471368" lon="0.717051">
        <ele>1060.6</ele>
        <time>1970-01-01T06:22:11.000Z</time>
      </trkpt>
      <trkpt lat="42.471252" lon="0.717163">
        <ele>1062</ele>
        <time>1970-01-01T06:22:20.000Z</time>
      </trkpt>
      <trkpt lat="42.471196" lon="0.717235">
        <ele>1063</ele>
        <time>1970-01-01T06:22:25.000Z</time>
      </trkpt>
      <trkpt lat="42.471159" lon="0.717308">
        <ele>1064</ele>
        <time>1970-01-01T06:22:29.000Z</time>
      </trkpt>
      <trkpt lat="42.471142" lon="0.717385">
        <ele>1065.2</ele>
        <time>1970-01-01T06:22:33.000Z</time>
      </trkpt>
      <trkpt lat="42.47114" lon="0.71748">
        <ele>1066.4</ele>
        <time>1970-01-01T06:22:38.000Z</time>
      </trkpt>
      <trkpt lat="42.471142" lon="0.71756">
        <ele>1067.4</ele>
        <time>1970-01-01T06:22:42.000Z</time>
      </trkpt>
      <trkpt lat="42.471153" lon="0.717574">
        <ele>1067.8</ele>
        <time>1970-01-01T06:22:43.000Z</time>
      </trkpt>
      <trkpt lat="42.471226" lon="0.717602">
        <ele>1068.8</ele>
        <time>1970-01-01T06:22:49.000Z</time>
      </trkpt>
      <trkpt lat="42.471279" lon="0.717582">
        <ele>1069.2</ele>
        <time>1970-01-01T06:22:53.000Z</time>
      </trkpt>
      <trkpt lat="42.471338" lon="0.717525">
        <ele>1070.2</ele>
        <time>1970-01-01T06:22:58.000Z</time>
      </trkpt>
      <trkpt lat="42.471388" lon="0.717478">
        <ele>1071.4</ele>
        <time>1970-01-01T06:23:03.000Z</time>
      </trkpt>
      <trkpt lat="42.471421" lon="0.717433">
        <ele>1072.2</ele>
        <time>1970-01-01T06:23:07.000Z</time>
      </trkpt>
      <trkpt lat="42.471461" lon="0.717395">
        <ele>1072.6</ele>
        <time>1970-01-01T06:23:11.000Z</time>
      </trkpt>
      <trkpt lat="42.471521" lon="0.717404">
        <ele>1073.4</ele>
        <time>1970-01-01T06:23:16.000Z</time>
      </trkpt>
      <trkpt lat="42.471533" lon="0.717416">
        <ele>1073.8</ele>
        <time>1970-01-01T06:23:17.000Z</time>
      </trkpt>
      <trkpt lat="42.47157" lon="0.717479">
        <ele>1075</ele>
        <time>1970-01-01T06:23:22.000Z</time>
      </trkpt>
      <trkpt lat="42.471564" lon="0.717517">
        <ele>1075.6</ele>
        <time>1970-01-01T06:23:24.000Z</time>
      </trkpt>
      <trkpt lat="42.471528" lon="0.717564">
        <ele>1076.2</ele>
        <time>1970-01-01T06:23:27.000Z</time>
      </trkpt>
      <trkpt lat="42.471519" lon="0.717574">
        <ele>1076.4</ele>
        <time>1970-01-01T06:23:28.000Z</time>
      </trkpt>
      <trkpt lat="42.471468" lon="0.717654">
        <ele>1077.4</ele>
        <time>1970-01-01T06:23:34.000Z</time>
      </trkpt>
      <trkpt lat="42.471418" lon="0.717747">
        <ele>1078.8</ele>
        <time>1970-01-01T06:23:40.000Z</time>
      </trkpt>
      <trkpt lat="42.471407" lon="0.71782">
        <ele>1079.6</ele>
        <time>1970-01-01T06:23:44.000Z</time>
      </trkpt>
      <trkpt lat="42.471405" lon="0.717859">
        <ele>1080</ele>
        <time>1970-01-01T06:23:46.000Z</time>
      </trkpt>
      <trkpt lat="42.471407" lon="0.717985">
        <ele>1081</ele>
        <time>1970-01-01T06:23:53.000Z</time>
      </trkpt>
      <trkpt lat="42.47141" lon="0.718073">
        <ele>1082</ele>
        <time>1970-01-01T06:23:58.000Z</time>
      </trkpt>
      <trkpt lat="42.47141" lon="0.718113">
        <ele>1082.4</ele>
        <time>1970-01-01T06:24:00.000Z</time>
      </trkpt>
      <trkpt lat="42.471399" lon="0.718222">
        <ele>1083.4</ele>
        <time>1970-01-01T06:24:06.000Z</time>
      </trkpt>
      <trkpt lat="42.471355" lon="0.718328">
        <ele>1084.8</ele>
        <time>1970-01-01T06:24:12.000Z</time>
      </trkpt>
      <trkpt lat="42.471299" lon="0.71841">
        <ele>1085.8</ele>
        <time>1970-01-01T06:24:18.000Z</time>
      </trkpt>
      <trkpt lat="42.471224" lon="0.718476">
        <ele>1086.8</ele>
        <time>1970-01-01T06:24:25.000Z</time>
      </trkpt>
      <trkpt lat="42.471153" lon="0.718507">
        <ele>1088</ele>
        <time>1970-01-01T06:24:31.000Z</time>
      </trkpt>
      <trkpt lat="42.471049" lon="0.718533">
        <ele>1089.2</ele>
        <time>1970-01-01T06:24:38.000Z</time>
      </trkpt>
      <trkpt lat="42.47094" lon="0.718548">
        <ele>1090.6</ele>
        <time>1970-01-01T06:24:46.000Z</time>
      </trkpt>
      <trkpt lat="42.470877" lon="0.718582">
        <ele>1091.6</ele>
        <time>1970-01-01T06:24:51.000Z</time>
      </trkpt>
      <trkpt lat="42.470804" lon="0.718639">
        <ele>1092.8</ele>
        <time>1970-01-01T06:24:58.000Z</time>
      </trkpt>
      <trkpt lat="42.470785" lon="0.718721">
        <ele>1093.8</ele>
        <time>1970-01-01T06:25:04.000Z</time>
      </trkpt>
      <trkpt lat="42.47078" lon="0.718737">
        <ele>1094</ele>
        <time>1970-01-01T06:25:05.000Z</time>
      </trkpt>
      <trkpt lat="42.470757" lon="0.718798">
        <ele>1094.6</ele>
        <time>1970-01-01T06:25:09.000Z</time>
      </trkpt>
      <trkpt lat="42.470756" lon="0.718833">
        <ele>1095</ele>
        <time>1970-01-01T06:25:11.000Z</time>
      </trkpt>
      <trkpt lat="42.470772" lon="0.718899">
        <ele>1096</ele>
        <time>1970-01-01T06:25:15.000Z</time>
      </trkpt>
      <trkpt lat="42.470789" lon="0.718928">
        <ele>1096.4</ele>
        <time>1970-01-01T06:25:17.000Z</time>
      </trkpt>
      <trkpt lat="42.470857" lon="0.718995">
        <ele>1097.4</ele>
        <time>1970-01-01T06:25:23.000Z</time>
      </trkpt>
      <trkpt lat="42.470929" lon="0.719004">
        <ele>1098.4</ele>
        <time>1970-01-01T06:25:28.000Z</time>
      </trkpt>
      <trkpt lat="42.471005" lon="0.718999">
        <ele>1099.8</ele>
        <time>1970-01-01T06:25:34.000Z</time>
      </trkpt>
      <trkpt lat="42.47108" lon="0.719">
        <ele>1100.8</ele>
        <time>1970-01-01T06:25:40.000Z</time>
      </trkpt>
      <trkpt lat="42.471172" lon="0.719014">
        <ele>1102.2</ele>
        <time>1970-01-01T06:25:47.000Z</time>
      </trkpt>
      <trkpt lat="42.471273" lon="0.719056">
        <ele>1103.4</ele>
        <time>1970-01-01T06:25:55.000Z</time>
      </trkpt>
      <trkpt lat="42.471307" lon="0.719082">
        <ele>1103.8</ele>
        <time>1970-01-01T06:25:58.000Z</time>
      </trkpt>
      <trkpt lat="42.471367" lon="0.719107">
        <ele>1104.6</ele>
        <time>1970-01-01T06:26:03.000Z</time>
      </trkpt>
      <trkpt lat="42.47142" lon="0.719169">
        <ele>1105.4</ele>
        <time>1970-01-01T06:26:08.000Z</time>
      </trkpt>
      <trkpt lat="42.471448" lon="0.719187">
        <ele>1105.6</ele>
        <time>1970-01-01T06:26:10.000Z</time>
      </trkpt>
      <trkpt lat="42.471467" lon="0.719192">
        <ele>1105.6</ele>
        <time>1970-01-01T06:26:11.000Z</time>
      </trkpt>
      <trkpt lat="42.471558" lon="0.719252">
        <ele>1106.6</ele>
        <time>1970-01-01T06:26:17.000Z</time>
      </trkpt>
      <trkpt lat="42.471585" lon="0.719273">
        <ele>1107</ele>
        <time>1970-01-01T06:26:19.000Z</time>
      </trkpt>
      <trkpt lat="42.47161" lon="0.719297">
        <ele>1107.2</ele>
        <time>1970-01-01T06:26:21.000Z</time>
      </trkpt>
      <trkpt lat="42.471657" lon="0.719368">
        <ele>1108</ele>
        <time>1970-01-01T06:26:26.000Z</time>
      </trkpt>
      <trkpt lat="42.471729" lon="0.719444">
        <ele>1109</ele>
        <time>1970-01-01T06:26:32.000Z</time>
      </trkpt>
      <trkpt lat="42.471808" lon="0.719525">
        <ele>1110.4</ele>
        <time>1970-01-01T06:26:39.000Z</time>
      </trkpt>
      <trkpt lat="42.471844" lon="0.719552">
        <ele>1110.8</ele>
        <time>1970-01-01T06:26:42.000Z</time>
      </trkpt>
      <trkpt lat="42.471884" lon="0.719567">
        <ele>1111.4</ele>
        <time>1970-01-01T06:26:45.000Z</time>
      </trkpt>
      <trkpt lat="42.471896" lon="0.719574">
        <ele>1111.6</ele>
        <time>1970-01-01T06:26:46.000Z</time>
      </trkpt>
      <trkpt lat="42.471954" lon="0.719655">
        <ele>1112.8</ele>
        <time>1970-01-01T06:26:53.000Z</time>
      </trkpt>
      <trkpt lat="42.471898" lon="0.719727">
        <ele>1113.8</ele>
        <time>1970-01-01T06:26:59.000Z</time>
      </trkpt>
      <trkpt lat="42.471845" lon="0.719724">
        <ele>1114.6</ele>
        <time>1970-01-01T06:27:03.000Z</time>
      </trkpt>
      <trkpt lat="42.471805" lon="0.719706">
        <ele>1115</ele>
        <time>1970-01-01T06:27:06.000Z</time>
      </trkpt>
      <trkpt lat="42.471707" lon="0.719697">
        <ele>1116.4</ele>
        <time>1970-01-01T06:27:13.000Z</time>
      </trkpt>
      <trkpt lat="42.471586" lon="0.719684">
        <ele>1117.6</ele>
        <time>1970-01-01T06:27:21.000Z</time>
      </trkpt>
      <trkpt lat="42.471457" lon="0.719676">
        <ele>1118.8</ele>
        <time>1970-01-01T06:27:29.000Z</time>
      </trkpt>
      <trkpt lat="42.471375" lon="0.71967">
        <ele>1119.4</ele>
        <time>1970-01-01T06:27:34.000Z</time>
      </trkpt>
      <trkpt lat="42.471308" lon="0.719688">
        <ele>1120</ele>
        <time>1970-01-01T06:27:38.000Z</time>
      </trkpt>
      <trkpt lat="42.47128" lon="0.719711">
        <ele>1120.4</ele>
        <time>1970-01-01T06:27:40.000Z</time>
      </trkpt>
      <trkpt lat="42.471268" lon="0.719752">
        <ele>1120.8</ele>
        <time>1970-01-01T06:27:42.000Z</time>
      </trkpt>
      <trkpt lat="42.471264" lon="0.719797">
        <ele>1121.2</ele>
        <time>1970-01-01T06:27:44.000Z</time>
      </trkpt>
      <trkpt lat="42.471307" lon="0.719894">
        <ele>1122.2</ele>
        <time>1970-01-01T06:27:49.000Z</time>
      </trkpt>
      <trkpt lat="42.47132" lon="0.719909">
        <ele>1122.4</ele>
        <time>1970-01-01T06:27:50.000Z</time>
      </trkpt>
      <trkpt lat="42.471336" lon="0.719922">
        <ele>1122.6</ele>
        <time>1970-01-01T06:27:51.000Z</time>
      </trkpt>
      <trkpt lat="42.471407" lon="0.719963">
        <ele>1123.6</ele>
        <time>1970-01-01T06:27:56.000Z</time>
      </trkpt>
      <trkpt lat="42.47147" lon="0.720005">
        <ele>1124.8</ele>
        <time>1970-01-01T06:28:01.000Z</time>
      </trkpt>
      <trkpt lat="42.471566" lon="0.720057">
        <ele>1126</ele>
        <time>1970-01-01T06:28:08.000Z</time>
      </trkpt>
      <trkpt lat="42.471631" lon="0.720103">
        <ele>1127.2</ele>
        <time>1970-01-01T06:28:13.000Z</time>
      </trkpt>
      <trkpt lat="42.471711" lon="0.720163">
        <ele>1128.2</ele>
        <time>1970-01-01T06:28:19.000Z</time>
      </trkpt>
      <trkpt lat="42.471791" lon="0.720224">
        <ele>1129.2</ele>
        <time>1970-01-01T06:28:25.000Z</time>
      </trkpt>
      <trkpt lat="42.471871" lon="0.720287">
        <ele>1130.4</ele>
        <time>1970-01-01T06:28:31.000Z</time>
      </trkpt>
      <trkpt lat="42.471888" lon="0.720297">
        <ele>1130.6</ele>
        <time>1970-01-01T06:28:32.000Z</time>
      </trkpt>
      <trkpt lat="42.471984" lon="0.720368">
        <ele>1131.6</ele>
        <time>1970-01-01T06:28:39.000Z</time>
      </trkpt>
      <trkpt lat="42.472021" lon="0.720404">
        <ele>1132.2</ele>
        <time>1970-01-01T06:28:43.000Z</time>
      </trkpt>
      <trkpt lat="42.472074" lon="0.720437">
        <ele>1132.8</ele>
        <time>1970-01-01T06:28:47.000Z</time>
      </trkpt>
      <trkpt lat="42.472089" lon="0.720444">
        <ele>1133</ele>
        <time>1970-01-01T06:28:48.000Z</time>
      </trkpt>
      <trkpt lat="42.472102" lon="0.720454">
        <ele>1133</ele>
        <time>1970-01-01T06:28:49.000Z</time>
      </trkpt>
      <trkpt lat="42.472173" lon="0.720499">
        <ele>1133.8</ele>
        <time>1970-01-01T06:28:54.000Z</time>
      </trkpt>
      <trkpt lat="42.472221" lon="0.720524">
        <ele>1134.4</ele>
        <time>1970-01-01T06:28:57.000Z</time>
      </trkpt>
      <trkpt lat="42.472246" lon="0.720547">
        <ele>1134.6</ele>
        <time>1970-01-01T06:28:59.000Z</time>
      </trkpt>
      <trkpt lat="42.472286" lon="0.720567">
        <ele>1134.8</ele>
        <time>1970-01-01T06:29:02.000Z</time>
      </trkpt>
      <trkpt lat="42.4723" lon="0.720573">
        <ele>1135</ele>
        <time>1970-01-01T06:29:03.000Z</time>
      </trkpt>
      <trkpt lat="42.472419" lon="0.720656">
        <ele>1136.2</ele>
        <time>1970-01-01T06:29:11.000Z</time>
      </trkpt>
      <trkpt lat="42.472521" lon="0.720754">
        <ele>1137.2</ele>
        <time>1970-01-01T06:29:18.000Z</time>
      </trkpt>
      <trkpt lat="42.472694" lon="0.72095">
        <ele>1138.4</ele>
        <time>1970-01-01T06:29:30.000Z</time>
      </trkpt>
      <trkpt lat="42.472794" lon="0.721162">
        <ele>1139.4</ele>
        <time>1970-01-01T06:29:40.000Z</time>
      </trkpt>
      <trkpt lat="42.472832" lon="0.721362">
        <ele>1140.6</ele>
        <time>1970-01-01T06:29:49.000Z</time>
      </trkpt>
      <trkpt lat="42.47283" lon="0.721534">
        <ele>1141.8</ele>
        <time>1970-01-01T06:29:57.000Z</time>
      </trkpt>
      <trkpt lat="42.472828" lon="0.721693">
        <ele>1143</ele>
        <time>1970-01-01T06:30:04.000Z</time>
      </trkpt>
      <trkpt lat="42.472824" lon="0.721715">
        <ele>1143.2</ele>
        <time>1970-01-01T06:30:05.000Z</time>
      </trkpt>
      <trkpt lat="42.472809" lon="0.721784">
        <ele>1143.8</ele>
        <time>1970-01-01T06:30:08.000Z</time>
      </trkpt>
      <trkpt lat="42.472786" lon="0.721872">
        <ele>1144.4</ele>
        <time>1970-01-01T06:30:12.000Z</time>
      </trkpt>
      <trkpt lat="42.472732" lon="0.722012">
        <ele>1145.4</ele>
        <time>1970-01-01T06:30:18.000Z</time>
      </trkpt>
      <trkpt lat="42.472727" lon="0.722033">
        <ele>1145.6</ele>
        <time>1970-01-01T06:30:19.000Z</time>
      </trkpt>
      <trkpt lat="42.472681" lon="0.722165">
        <ele>1146.6</ele>
        <time>1970-01-01T06:30:25.000Z</time>
      </trkpt>
      <trkpt lat="42.472641" lon="0.722266">
        <ele>1147.6</ele>
        <time>1970-01-01T06:30:30.000Z</time>
      </trkpt>
      <trkpt lat="42.47259" lon="0.722393">
        <ele>1148.8</ele>
        <time>1970-01-01T06:30:37.000Z</time>
      </trkpt>
      <trkpt lat="42.472558" lon="0.722429">
        <ele>1149.2</ele>
        <time>1970-01-01T06:30:40.000Z</time>
      </trkpt>
      <trkpt lat="42.472505" lon="0.722371">
        <ele>1150</ele>
        <time>1970-01-01T06:30:46.000Z</time>
      </trkpt>
      <trkpt lat="42.472511" lon="0.722278">
        <ele>1151</ele>
        <time>1970-01-01T06:30:51.000Z</time>
      </trkpt>
      <trkpt lat="42.472512" lon="0.722224">
        <ele>1151.6</ele>
        <time>1970-01-01T06:30:54.000Z</time>
      </trkpt>
      <trkpt lat="42.472516" lon="0.722187">
        <ele>1152.2</ele>
        <time>1970-01-01T06:30:56.000Z</time>
      </trkpt>
      <trkpt lat="42.47253" lon="0.722116">
        <ele>1152.8</ele>
        <time>1970-01-01T06:31:00.000Z</time>
      </trkpt>
      <trkpt lat="42.472533" lon="0.722076">
        <ele>1153.2</ele>
        <time>1970-01-01T06:31:02.000Z</time>
      </trkpt>
      <trkpt lat="42.472532" lon="0.721936">
        <ele>1154.6</ele>
        <time>1970-01-01T06:31:09.000Z</time>
      </trkpt>
      <trkpt lat="42.472529" lon="0.721775">
        <ele>1155.6</ele>
        <time>1970-01-01T06:31:17.000Z</time>
      </trkpt>
      <trkpt lat="42.472503" lon="0.721663">
        <ele>1157</ele>
        <time>1970-01-01T06:31:23.000Z</time>
      </trkpt>
      <trkpt lat="42.472427" lon="0.721537">
        <ele>1158</ele>
        <time>1970-01-01T06:31:31.000Z</time>
      </trkpt>
      <trkpt lat="42.472258" lon="0.721479">
        <ele>1159</ele>
        <time>1970-01-01T06:31:41.000Z</time>
      </trkpt>
      <trkpt lat="42.472042" lon="0.721516">
        <ele>1160.4</ele>
        <time>1970-01-01T06:31:53.000Z</time>
      </trkpt>
      <trkpt lat="42.471901" lon="0.721531">
        <ele>1161.8</ele>
        <time>1970-01-01T06:32:01.000Z</time>
      </trkpt>
      <trkpt lat="42.471813" lon="0.72154">
        <ele>1162.8</ele>
        <time>1970-01-01T06:32:07.000Z</time>
      </trkpt>
      <trkpt lat="42.471747" lon="0.721533">
        <ele>1163.6</ele>
        <time>1970-01-01T06:32:11.000Z</time>
      </trkpt>
      <trkpt lat="42.471715" lon="0.721537">
        <ele>1164</ele>
        <time>1970-01-01T06:32:13.000Z</time>
      </trkpt>
      <trkpt lat="42.471612" lon="0.721532">
        <ele>1165</ele>
        <time>1970-01-01T06:32:19.000Z</time>
      </trkpt>
      <trkpt lat="42.471579" lon="0.721544">
        <ele>1165.4</ele>
        <time>1970-01-01T06:32:21.000Z</time>
      </trkpt>
      <trkpt lat="42.471574" lon="0.721669">
        <ele>1166.2</ele>
        <time>1970-01-01T06:32:27.000Z</time>
      </trkpt>
      <trkpt lat="42.47162" lon="0.721711">
        <ele>1166.4</ele>
        <time>1970-01-01T06:32:30.000Z</time>
      </trkpt>
      <trkpt lat="42.471684" lon="0.721752">
        <ele>1167.4</ele>
        <time>1970-01-01T06:32:34.000Z</time>
      </trkpt>
      <trkpt lat="42.471776" lon="0.721792">
        <ele>1168.6</ele>
        <time>1970-01-01T06:32:40.000Z</time>
      </trkpt>
      <trkpt lat="42.471902" lon="0.721842">
        <ele>1169.6</ele>
        <time>1970-01-01T06:32:48.000Z</time>
      </trkpt>
      <trkpt lat="42.472003" lon="0.7219">
        <ele>1170.6</ele>
        <time>1970-01-01T06:32:55.000Z</time>
      </trkpt>
      <trkpt lat="42.472111" lon="0.721998">
        <ele>1171.8</ele>
        <time>1970-01-01T06:33:03.000Z</time>
      </trkpt>
      <trkpt lat="42.472142" lon="0.722064">
        <ele>1172.4</ele>
        <time>1970-01-01T06:33:07.000Z</time>
      </trkpt>
      <trkpt lat="42.472154" lon="0.722192">
        <ele>1173</ele>
        <time>1970-01-01T06:33:13.000Z</time>
      </trkpt>
      <trkpt lat="42.47215" lon="0.722212">
        <ele>1173.2</ele>
        <time>1970-01-01T06:33:14.000Z</time>
      </trkpt>
      <trkpt lat="42.472094" lon="0.722339">
        <ele>1173.6</ele>
        <time>1970-01-01T06:33:20.000Z</time>
      </trkpt>
      <trkpt lat="42.47197" lon="0.722541">
        <ele>1174</ele>
        <time>1970-01-01T06:33:29.000Z</time>
      </trkpt>
      <trkpt lat="42.471863" lon="0.722781">
        <ele>1175</ele>
        <time>1970-01-01T06:33:39.000Z</time>
      </trkpt>
      <trkpt lat="42.471811" lon="0.72301">
        <ele>1176</ele>
        <time>1970-01-01T06:33:48.000Z</time>
      </trkpt>
      <trkpt lat="42.471812" lon="0.723227">
        <ele>1177.2</ele>
        <time>1970-01-01T06:33:59.000Z</time>
      </trkpt>
      <trkpt lat="42.471832" lon="0.723388">
        <ele>1178.4</ele>
        <time>1970-01-01T06:34:06.000Z</time>
      </trkpt>
      <trkpt lat="42.471894" lon="0.723588">
        <ele>1179.6</ele>
        <time>1970-01-01T06:34:15.000Z</time>
      </trkpt>
      <trkpt lat="42.471946" lon="0.723747">
        <ele>1180.6</ele>
        <time>1970-01-01T06:34:22.000Z</time>
      </trkpt>
      <trkpt lat="42.472009" lon="0.724003">
        <ele>1181.6</ele>
        <time>1970-01-01T06:34:32.000Z</time>
      </trkpt>
      <trkpt lat="42.47199" lon="0.724199">
        <ele>1183</ele>
        <time>1970-01-01T06:34:40.000Z</time>
      </trkpt>
      <trkpt lat="42.471975" lon="0.724362">
        <ele>1184</ele>
        <time>1970-01-01T06:34:47.000Z</time>
      </trkpt>
      <trkpt lat="42.471977" lon="0.724523">
        <ele>1185.4</ele>
        <time>1970-01-01T06:34:54.000Z</time>
      </trkpt>
      <trkpt lat="42.47197" lon="0.724656">
        <ele>1186.4</ele>
        <time>1970-01-01T06:35:00.000Z</time>
      </trkpt>
      <trkpt lat="42.471978" lon="0.724861">
        <ele>1188</ele>
        <time>1970-01-01T06:35:08.000Z</time>
      </trkpt>
      <trkpt lat="42.471978" lon="0.725063">
        <ele>1189</ele>
        <time>1970-01-01T06:35:16.000Z</time>
      </trkpt>
      <trkpt lat="42.471959" lon="0.725283">
        <ele>1190.4</ele>
        <time>1970-01-01T06:35:24.000Z</time>
      </trkpt>
      <trkpt lat="42.47196" lon="0.725541">
        <ele>1191.4</ele>
        <time>1970-01-01T06:35:34.000Z</time>
      </trkpt>
      <trkpt lat="42.47203" lon="0.72569">
        <ele>1192.4</ele>
        <time>1970-01-01T06:35:41.000Z</time>
      </trkpt>
      <trkpt lat="42.472102" lon="0.72588">
        <ele>1193.8</ele>
        <time>1970-01-01T06:35:49.000Z</time>
      </trkpt>
      <trkpt lat="42.472144" lon="0.726085">
        <ele>1195.2</ele>
        <time>1970-01-01T06:35:57.000Z</time>
      </trkpt>
      <trkpt lat="42.472143" lon="0.726291">
        <ele>1196.2</ele>
        <time>1970-01-01T06:36:05.000Z</time>
      </trkpt>
      <trkpt lat="42.47211" lon="0.726468">
        <ele>1197.2</ele>
        <time>1970-01-01T06:36:12.000Z</time>
      </trkpt>
      <trkpt lat="42.472046" lon="0.726713">
        <ele>1198.4</ele>
        <time>1970-01-01T06:36:21.000Z</time>
      </trkpt>
      <trkpt lat="42.472007" lon="0.726862">
        <ele>1199.6</ele>
        <time>1970-01-01T06:36:27.000Z</time>
      </trkpt>
      <trkpt lat="42.471965" lon="0.727063">
        <ele>1201</ele>
        <time>1970-01-01T06:36:36.000Z</time>
      </trkpt>
      <trkpt lat="42.471924" lon="0.727325">
        <ele>1202.2</ele>
        <time>1970-01-01T06:36:46.000Z</time>
      </trkpt>
      <trkpt lat="42.471902" lon="0.727505">
        <ele>1203.4</ele>
        <time>1970-01-01T06:36:54.000Z</time>
      </trkpt>
      <trkpt lat="42.471894" lon="0.727715">
        <ele>1204.4</ele>
        <time>1970-01-01T06:37:02.000Z</time>
      </trkpt>
      <trkpt lat="42.47191" lon="0.727925">
        <ele>1205.8</ele>
        <time>1970-01-01T06:37:10.000Z</time>
      </trkpt>
      <trkpt lat="42.471914" lon="0.72808">
        <ele>1206.8</ele>
        <time>1970-01-01T06:37:16.000Z</time>
      </trkpt>
      <trkpt lat="42.471927" lon="0.728199">
        <ele>1208</ele>
        <time>1970-01-01T06:37:21.000Z</time>
      </trkpt>
      <trkpt lat="42.471964" lon="0.728333">
        <ele>1209.2</ele>
        <time>1970-01-01T06:37:27.000Z</time>
      </trkpt>
      <trkpt lat="42.472015" lon="0.728432">
        <ele>1210.4</ele>
        <time>1970-01-01T06:37:32.000Z</time>
      </trkpt>
      <trkpt lat="42.472065" lon="0.728574">
        <ele>1211.8</ele>
        <time>1970-01-01T06:37:39.000Z</time>
      </trkpt>
      <trkpt lat="42.472111" lon="0.728755">
        <ele>1212.8</ele>
        <time>1970-01-01T06:37:48.000Z</time>
      </trkpt>
      <trkpt lat="42.472085" lon="0.728963">
        <ele>1213.8</ele>
        <time>1970-01-01T06:37:58.000Z</time>
      </trkpt>
      <trkpt lat="42.472081" lon="0.729156">
        <ele>1214.8</ele>
        <time>1970-01-01T06:38:06.000Z</time>
      </trkpt>
      <trkpt lat="42.472271" lon="0.729304">
        <ele>1216.2</ele>
        <time>1970-01-01T06:38:17.000Z</time>
      </trkpt>
      <trkpt lat="42.472347" lon="0.72951">
        <ele>1217.2</ele>
        <time>1970-01-01T06:38:27.000Z</time>
      </trkpt>
      <trkpt lat="42.472286" lon="0.729691">
        <ele>1218.4</ele>
        <time>1970-01-01T06:38:35.000Z</time>
      </trkpt>
      <trkpt lat="42.472282" lon="0.729829">
        <ele>1219</ele>
        <time>1970-01-01T06:38:41.000Z</time>
      </trkpt>
      <trkpt lat="42.472325" lon="0.729923">
        <ele>1219.4</ele>
        <time>1970-01-01T06:38:45.000Z</time>
      </trkpt>
      <trkpt lat="42.472415" lon="0.730021">
        <ele>1220.6</ele>
        <time>1970-01-01T06:38:51.000Z</time>
      </trkpt>
      <trkpt lat="42.472528" lon="0.730112">
        <ele>1221.8</ele>
        <time>1970-01-01T06:38:58.000Z</time>
      </trkpt>
      <trkpt lat="42.472568" lon="0.730214">
        <ele>1222.8</ele>
        <time>1970-01-01T06:39:04.000Z</time>
      </trkpt>
      <trkpt lat="42.472573" lon="0.730228">
        <ele>1223</ele>
        <time>1970-01-01T06:39:05.000Z</time>
      </trkpt>
      <trkpt lat="42.472596" lon="0.730294">
        <ele>1223.4</ele>
        <time>1970-01-01T06:39:09.000Z</time>
      </trkpt>
      <trkpt lat="42.472596" lon="0.730386">
        <ele>1224</ele>
        <time>1970-01-01T06:39:13.000Z</time>
      </trkpt>
      <trkpt lat="42.472575" lon="0.730423">
        <ele>1224.4</ele>
        <time>1970-01-01T06:39:15.000Z</time>
      </trkpt>
      <trkpt lat="42.472541" lon="0.73044">
        <ele>1225</ele>
        <time>1970-01-01T06:39:17.000Z</time>
      </trkpt>
      <trkpt lat="42.47246" lon="0.730394">
        <ele>1226.2</ele>
        <time>1970-01-01T06:39:23.000Z</time>
      </trkpt>
      <trkpt lat="42.47238" lon="0.730305">
        <ele>1227.2</ele>
        <time>1970-01-01T06:39:30.000Z</time>
      </trkpt>
      <trkpt lat="42.472313" lon="0.730253">
        <ele>1228.4</ele>
        <time>1970-01-01T06:39:36.000Z</time>
      </trkpt>
      <trkpt lat="42.472232" lon="0.730224">
        <ele>1229.4</ele>
        <time>1970-01-01T06:39:42.000Z</time>
      </trkpt>
      <trkpt lat="42.472218" lon="0.730215">
        <ele>1229.4</ele>
        <time>1970-01-01T06:39:43.000Z</time>
      </trkpt>
      <trkpt lat="42.472137" lon="0.730173">
        <ele>1230.6</ele>
        <time>1970-01-01T06:39:49.000Z</time>
      </trkpt>
      <trkpt lat="42.472048" lon="0.730095">
        <ele>1231.8</ele>
        <time>1970-01-01T06:39:55.000Z</time>
      </trkpt>
      <trkpt lat="42.471987" lon="0.730054">
        <ele>1232.6</ele>
        <time>1970-01-01T06:39:59.000Z</time>
      </trkpt>
      <trkpt lat="42.47197" lon="0.730049">
        <ele>1232.8</ele>
        <time>1970-01-01T06:40:00.000Z</time>
      </trkpt>
      <trkpt lat="42.471928" lon="0.730034">
        <ele>1233.2</ele>
        <time>1970-01-01T06:40:03.000Z</time>
      </trkpt>
      <trkpt lat="42.47186" lon="0.73002">
        <ele>1233.8</ele>
        <time>1970-01-01T06:40:07.000Z</time>
      </trkpt>
      <trkpt lat="42.471742" lon="0.730023">
        <ele>1234.8</ele>
        <time>1970-01-01T06:40:15.000Z</time>
      </trkpt>
      <trkpt lat="42.471742" lon="0.730022">
        <ele>1235</ele>
        <time>1970-01-01T06:40:16.000Z</time>
      </trkpt>
      <trkpt lat="42.47171" lon="0.729967">
        <ele>1235</ele>
        <time>1970-01-01T06:40:49.000Z</time>
      </trkpt>
      <trkpt lat="42.471641" lon="0.729893">
        <ele>1235.6</ele>
        <time>1970-01-01T06:40:53.000Z</time>
      </trkpt>
      <trkpt lat="42.471609" lon="0.729852">
        <ele>1236</ele>
        <time>1970-01-01T06:40:55.000Z</time>
      </trkpt>
      <trkpt lat="42.471538" lon="0.729721">
        <ele>1237</ele>
        <time>1970-01-01T06:41:01.000Z</time>
      </trkpt>
      <trkpt lat="42.471505" lon="0.72952">
        <ele>1238.2</ele>
        <time>1970-01-01T06:41:08.000Z</time>
      </trkpt>
      <trkpt lat="42.47151" lon="0.729345">
        <ele>1239.6</ele>
        <time>1970-01-01T06:41:14.000Z</time>
      </trkpt>
      <trkpt lat="42.471509" lon="0.729173">
        <ele>1240.6</ele>
        <time>1970-01-01T06:41:20.000Z</time>
      </trkpt>
      <trkpt lat="42.471501" lon="0.728984">
        <ele>1241.8</ele>
        <time>1970-01-01T06:41:27.000Z</time>
      </trkpt>
      <trkpt lat="42.471478" lon="0.728856">
        <ele>1242.8</ele>
        <time>1970-01-01T06:41:32.000Z</time>
      </trkpt>
      <trkpt lat="42.47143" lon="0.728684">
        <ele>1244</ele>
        <time>1970-01-01T06:41:39.000Z</time>
      </trkpt>
      <trkpt lat="42.47138" lon="0.728505">
        <ele>1245.2</ele>
        <time>1970-01-01T06:41:46.000Z</time>
      </trkpt>
      <trkpt lat="42.471335" lon="0.728369">
        <ele>1246.4</ele>
        <time>1970-01-01T06:41:52.000Z</time>
      </trkpt>
      <trkpt lat="42.471296" lon="0.72823">
        <ele>1247.4</ele>
        <time>1970-01-01T06:41:58.000Z</time>
      </trkpt>
      <trkpt lat="42.471237" lon="0.72807">
        <ele>1248.4</ele>
        <time>1970-01-01T06:42:05.000Z</time>
      </trkpt>
      <trkpt lat="42.471192" lon="0.727929">
        <ele>1249.6</ele>
        <time>1970-01-01T06:42:11.000Z</time>
      </trkpt>
      <trkpt lat="42.471152" lon="0.727772">
        <ele>1250.6</ele>
        <time>1970-01-01T06:42:18.000Z</time>
      </trkpt>
      <trkpt lat="42.471076" lon="0.727571">
        <ele>1251.8</ele>
        <time>1970-01-01T06:42:27.000Z</time>
      </trkpt>
      <trkpt lat="42.471026" lon="0.727441">
        <ele>1253</ele>
        <time>1970-01-01T06:42:33.000Z</time>
      </trkpt>
      <trkpt lat="42.470955" lon="0.727284">
        <ele>1254</ele>
        <time>1970-01-01T06:42:41.000Z</time>
      </trkpt>
      <trkpt lat="42.470917" lon="0.727132">
        <ele>1255</ele>
        <time>1970-01-01T06:42:48.000Z</time>
      </trkpt>
      <trkpt lat="42.470911" lon="0.727112">
        <ele>1255.2</ele>
        <time>1970-01-01T06:42:49.000Z</time>
      </trkpt>
      <trkpt lat="42.470855" lon="0.72698">
        <ele>1256.6</ele>
        <time>1970-01-01T06:42:55.000Z</time>
      </trkpt>
      <trkpt lat="42.470808" lon="0.726806">
        <ele>1257.6</ele>
        <time>1970-01-01T06:43:02.000Z</time>
      </trkpt>
      <trkpt lat="42.47077" lon="0.726673">
        <ele>1258.6</ele>
        <time>1970-01-01T06:43:08.000Z</time>
      </trkpt>
      <trkpt lat="42.470737" lon="0.726512">
        <ele>1259.8</ele>
        <time>1970-01-01T06:43:15.000Z</time>
      </trkpt>
      <trkpt lat="42.470714" lon="0.726355">
        <ele>1261</ele>
        <time>1970-01-01T06:43:21.000Z</time>
      </trkpt>
      <trkpt lat="42.470669" lon="0.726176">
        <ele>1262.2</ele>
        <time>1970-01-01T06:43:27.000Z</time>
      </trkpt>
      <trkpt lat="42.470586" lon="0.725995">
        <ele>1263.4</ele>
        <time>1970-01-01T06:43:34.000Z</time>
      </trkpt>
      <trkpt lat="42.47049" lon="0.725916">
        <ele>1264.4</ele>
        <time>1970-01-01T06:43:39.000Z</time>
      </trkpt>
      <trkpt lat="42.470388" lon="0.725836">
        <ele>1265.8</ele>
        <time>1970-01-01T06:43:45.000Z</time>
      </trkpt>
      <trkpt lat="42.470304" lon="0.725811">
        <ele>1266.8</ele>
        <time>1970-01-01T06:43:49.000Z</time>
      </trkpt>
      <trkpt lat="42.470223" lon="0.725846">
        <ele>1268</ele>
        <time>1970-01-01T06:43:53.000Z</time>
      </trkpt>
      <trkpt lat="42.470206" lon="0.72589">
        <ele>1268.2</ele>
        <time>1970-01-01T06:43:55.000Z</time>
      </trkpt>
      <trkpt lat="42.470223" lon="0.72597">
        <ele>1269</ele>
        <time>1970-01-01T06:43:58.000Z</time>
      </trkpt>
      <trkpt lat="42.470289" lon="0.726093">
        <ele>1270.4</ele>
        <time>1970-01-01T06:44:03.000Z</time>
      </trkpt>
      <trkpt lat="42.470325" lon="0.726202">
        <ele>1271.2</ele>
        <time>1970-01-01T06:44:07.000Z</time>
      </trkpt>
      <trkpt lat="42.47033" lon="0.72623">
        <ele>1271.4</ele>
        <time>1970-01-01T06:44:08.000Z</time>
      </trkpt>
      <trkpt lat="42.470336" lon="0.72636">
        <ele>1272.4</ele>
        <time>1970-01-01T06:44:13.000Z</time>
      </trkpt>
      <trkpt lat="42.470322" lon="0.726497">
        <ele>1273.6</ele>
        <time>1970-01-01T06:44:19.000Z</time>
      </trkpt>
      <trkpt lat="42.470312" lon="0.726712">
        <ele>1274.8</ele>
        <time>1970-01-01T06:44:28.000Z</time>
      </trkpt>
      <trkpt lat="42.470318" lon="0.72678">
        <ele>1275.2</ele>
        <time>1970-01-01T06:44:31.000Z</time>
      </trkpt>
      <trkpt lat="42.470328" lon="0.726872">
        <ele>1276</ele>
        <time>1970-01-01T06:44:35.000Z</time>
      </trkpt>
      <trkpt lat="42.470369" lon="0.727055">
        <ele>1277</ele>
        <time>1970-01-01T06:44:43.000Z</time>
      </trkpt>
      <trkpt lat="42.470407" lon="0.727187">
        <ele>1278</ele>
        <time>1970-01-01T06:44:49.000Z</time>
      </trkpt>
      <trkpt lat="42.470452" lon="0.727349">
        <ele>1279.4</ele>
        <time>1970-01-01T06:44:57.000Z</time>
      </trkpt>
      <trkpt lat="42.470483" lon="0.72747">
        <ele>1280.4</ele>
        <time>1970-01-01T06:45:03.000Z</time>
      </trkpt>
      <trkpt lat="42.470519" lon="0.727596">
        <ele>1281.8</ele>
        <time>1970-01-01T06:45:09.000Z</time>
      </trkpt>
      <trkpt lat="42.470564" lon="0.72774">
        <ele>1282.8</ele>
        <time>1970-01-01T06:45:16.000Z</time>
      </trkpt>
      <trkpt lat="42.470596" lon="0.727889">
        <ele>1284</ele>
        <time>1970-01-01T06:45:23.000Z</time>
      </trkpt>
      <trkpt lat="42.470638" lon="0.728025">
        <ele>1285.2</ele>
        <time>1970-01-01T06:45:30.000Z</time>
      </trkpt>
      <trkpt lat="42.470658" lon="0.728168">
        <ele>1286.4</ele>
        <time>1970-01-01T06:45:37.000Z</time>
      </trkpt>
      <trkpt lat="42.470661" lon="0.728386">
        <ele>1287.4</ele>
        <time>1970-01-01T06:45:47.000Z</time>
      </trkpt>
      <trkpt lat="42.470617" lon="0.728575">
        <ele>1288.8</ele>
        <time>1970-01-01T06:45:55.000Z</time>
      </trkpt>
      <trkpt lat="42.470576" lon="0.728742">
        <ele>1289.8</ele>
        <time>1970-01-01T06:46:02.000Z</time>
      </trkpt>
      <trkpt lat="42.47051" lon="0.728952">
        <ele>1291</ele>
        <time>1970-01-01T06:46:11.000Z</time>
      </trkpt>
      <trkpt lat="42.470461" lon="0.729138">
        <ele>1292</ele>
        <time>1970-01-01T06:46:19.000Z</time>
      </trkpt>
      <trkpt lat="42.47043" lon="0.729292">
        <ele>1293.2</ele>
        <time>1970-01-01T06:46:26.000Z</time>
      </trkpt>
      <trkpt lat="42.470395" lon="0.729469">
        <ele>1294.2</ele>
        <time>1970-01-01T06:46:34.000Z</time>
      </trkpt>
      <trkpt lat="42.470382" lon="0.729628">
        <ele>1295.4</ele>
        <time>1970-01-01T06:46:41.000Z</time>
      </trkpt>
      <trkpt lat="42.470339" lon="0.729799">
        <ele>1296.6</ele>
        <time>1970-01-01T06:46:49.000Z</time>
      </trkpt>
      <trkpt lat="42.470299" lon="0.729976">
        <ele>1297.6</ele>
        <time>1970-01-01T06:46:57.000Z</time>
      </trkpt>
      <trkpt lat="42.470198" lon="0.730138">
        <ele>1298.8</ele>
        <time>1970-01-01T06:47:06.000Z</time>
      </trkpt>
      <trkpt lat="42.470077" lon="0.73018">
        <ele>1299.8</ele>
        <time>1970-01-01T06:47:14.000Z</time>
      </trkpt>
      <trkpt lat="42.46991" lon="0.730188">
        <ele>1301</ele>
        <time>1970-01-01T06:47:23.000Z</time>
      </trkpt>
      <trkpt lat="42.469791" lon="0.730246">
        <ele>1302.2</ele>
        <time>1970-01-01T06:47:30.000Z</time>
      </trkpt>
      <trkpt lat="42.469734" lon="0.730444">
        <ele>1303.6</ele>
        <time>1970-01-01T06:47:39.000Z</time>
      </trkpt>
      <trkpt lat="42.469749" lon="0.730587">
        <ele>1304.6</ele>
        <time>1970-01-01T06:47:45.000Z</time>
      </trkpt>
      <trkpt lat="42.469812" lon="0.730731">
        <ele>1305.6</ele>
        <time>1970-01-01T06:47:52.000Z</time>
      </trkpt>
      <trkpt lat="42.469844" lon="0.730887">
        <ele>1306.8</ele>
        <time>1970-01-01T06:48:00.000Z</time>
      </trkpt>
      <trkpt lat="42.469789" lon="0.731024">
        <ele>1308.2</ele>
        <time>1970-01-01T06:48:07.000Z</time>
      </trkpt>
      <trkpt lat="42.469703" lon="0.73117">
        <ele>1309.4</ele>
        <time>1970-01-01T06:48:15.000Z</time>
      </trkpt>
      <trkpt lat="42.469661" lon="0.731322">
        <ele>1310.4</ele>
        <time>1970-01-01T06:48:22.000Z</time>
      </trkpt>
      <trkpt lat="42.469671" lon="0.731455">
        <ele>1311.6</ele>
        <time>1970-01-01T06:48:28.000Z</time>
      </trkpt>
      <trkpt lat="42.469722" lon="0.731603">
        <ele>1312.8</ele>
        <time>1970-01-01T06:48:35.000Z</time>
      </trkpt>
      <trkpt lat="42.469787" lon="0.731725">
        <ele>1314</ele>
        <time>1970-01-01T06:48:42.000Z</time>
      </trkpt>
      <trkpt lat="42.469848" lon="0.73188">
        <ele>1315</ele>
        <time>1970-01-01T06:48:50.000Z</time>
      </trkpt>
      <trkpt lat="42.469879" lon="0.732003">
        <ele>1316.2</ele>
        <time>1970-01-01T06:48:56.000Z</time>
      </trkpt>
      <trkpt lat="42.469913" lon="0.732147">
        <ele>1317.2</ele>
        <time>1970-01-01T06:49:03.000Z</time>
      </trkpt>
      <trkpt lat="42.469943" lon="0.732274">
        <ele>1318.2</ele>
        <time>1970-01-01T06:49:09.000Z</time>
      </trkpt>
      <trkpt lat="42.46997" lon="0.732395">
        <ele>1319.6</ele>
        <time>1970-01-01T06:49:15.000Z</time>
      </trkpt>
      <trkpt lat="42.470011" lon="0.732527">
        <ele>1320.6</ele>
        <time>1970-01-01T06:49:22.000Z</time>
      </trkpt>
      <trkpt lat="42.470034" lon="0.732649">
        <ele>1321.4</ele>
        <time>1970-01-01T06:49:30.000Z</time>
      </trkpt>
      <trkpt lat="42.470008" lon="0.732686">
        <ele>1321.6</ele>
        <time>1970-01-01T06:49:33.000Z</time>
      </trkpt>
      <trkpt lat="42.469937" lon="0.732629">
        <ele>1322.8</ele>
        <time>1970-01-01T06:49:39.000Z</time>
      </trkpt>
      <trkpt lat="42.469879" lon="0.732528">
        <ele>1323.8</ele>
        <time>1970-01-01T06:49:45.000Z</time>
      </trkpt>
      <trkpt lat="42.469848" lon="0.732492">
        <ele>1324.4</ele>
        <time>1970-01-01T06:49:48.000Z</time>
      </trkpt>
      <trkpt lat="42.469807" lon="0.732395">
        <ele>1325.2</ele>
        <time>1970-01-01T06:49:53.000Z</time>
      </trkpt>
      <trkpt lat="42.469724" lon="0.732228">
        <ele>1326.2</ele>
        <time>1970-01-01T06:50:02.000Z</time>
      </trkpt>
      <trkpt lat="42.469661" lon="0.732106">
        <ele>1327.4</ele>
        <time>1970-01-01T06:50:09.000Z</time>
      </trkpt>
      <trkpt lat="42.469574" lon="0.731957">
        <ele>1328.4</ele>
        <time>1970-01-01T06:50:18.000Z</time>
      </trkpt>
      <trkpt lat="42.46949" lon="0.731816">
        <ele>1329.4</ele>
        <time>1970-01-01T06:50:26.000Z</time>
      </trkpt>
      <trkpt lat="42.46943" lon="0.731717">
        <ele>1330.2</ele>
        <time>1970-01-01T06:50:32.000Z</time>
      </trkpt>
      <trkpt lat="42.469415" lon="0.73168">
        <ele>1330.6</ele>
        <time>1970-01-01T06:50:34.000Z</time>
      </trkpt>
      <trkpt lat="42.469364" lon="0.731518">
        <ele>1331.4</ele>
        <time>1970-01-01T06:50:42.000Z</time>
      </trkpt>
      <trkpt lat="42.469322" lon="0.731397">
        <ele>1332.6</ele>
        <time>1970-01-01T06:50:48.000Z</time>
      </trkpt>
      <trkpt lat="42.469257" lon="0.73127">
        <ele>1333.6</ele>
        <time>1970-01-01T06:50:55.000Z</time>
      </trkpt>
      <trkpt lat="42.469206" lon="0.73116">
        <ele>1334.6</ele>
        <time>1970-01-01T06:51:01.000Z</time>
      </trkpt>
      <trkpt lat="42.469126" lon="0.731042">
        <ele>1335.6</ele>
        <time>1970-01-01T06:51:08.000Z</time>
      </trkpt>
      <trkpt lat="42.469059" lon="0.73087">
        <ele>1336.8</ele>
        <time>1970-01-01T06:51:17.000Z</time>
      </trkpt>
      <trkpt lat="42.469046" lon="0.730749">
        <ele>1338</ele>
        <time>1970-01-01T06:51:23.000Z</time>
      </trkpt>
      <trkpt lat="42.469053" lon="0.730619">
        <ele>1339</ele>
        <time>1970-01-01T06:51:30.000Z</time>
      </trkpt>
      <trkpt lat="42.469058" lon="0.730458">
        <ele>1340.2</ele>
        <time>1970-01-01T06:51:37.000Z</time>
      </trkpt>
      <trkpt lat="42.469049" lon="0.730277">
        <ele>1341.6</ele>
        <time>1970-01-01T06:51:45.000Z</time>
      </trkpt>
      <trkpt lat="42.469045" lon="0.730129">
        <ele>1342.4</ele>
        <time>1970-01-01T06:51:52.000Z</time>
      </trkpt>
      <trkpt lat="42.469046" lon="0.72996">
        <ele>1343.6</ele>
        <time>1970-01-01T06:52:00.000Z</time>
      </trkpt>
      <trkpt lat="42.469056" lon="0.729796">
        <ele>1344.4</ele>
        <time>1970-01-01T06:52:07.000Z</time>
      </trkpt>
      <trkpt lat="42.469041" lon="0.729757">
        <ele>1344.6</ele>
        <time>1970-01-01T06:52:09.000Z</time>
      </trkpt>
      <trkpt lat="42.468931" lon="0.729753">
        <ele>1345.6</ele>
        <time>1970-01-01T06:52:15.000Z</time>
      </trkpt>
      <trkpt lat="42.468917" lon="0.729771">
        <ele>1345.8</ele>
        <time>1970-01-01T06:52:16.000Z</time>
      </trkpt>
      <trkpt lat="42.468889" lon="0.729913">
        <ele>1346.8</ele>
        <time>1970-01-01T06:52:22.000Z</time>
      </trkpt>
      <trkpt lat="42.468893" lon="0.730047">
        <ele>1347.8</ele>
        <time>1970-01-01T06:52:28.000Z</time>
      </trkpt>
      <trkpt lat="42.468889" lon="0.730174">
        <ele>1349</ele>
        <time>1970-01-01T06:52:34.000Z</time>
      </trkpt>
      <trkpt lat="42.468875" lon="0.730312">
        <ele>1350</ele>
        <time>1970-01-01T06:52:41.000Z</time>
      </trkpt>
      <trkpt lat="42.468859" lon="0.730452">
        <ele>1351.2</ele>
        <time>1970-01-01T06:52:48.000Z</time>
      </trkpt>
      <trkpt lat="42.468824" lon="0.730636">
        <ele>1352.4</ele>
        <time>1970-01-01T06:52:57.000Z</time>
      </trkpt>
      <trkpt lat="42.468794" lon="0.730832">
        <ele>1353.8</ele>
        <time>1970-01-01T06:53:06.000Z</time>
      </trkpt>
      <trkpt lat="42.4688" lon="0.730958">
        <ele>1354.2</ele>
        <time>1970-01-01T06:53:11.000Z</time>
      </trkpt>
      <trkpt lat="42.468807" lon="0.731033">
        <ele>1354.4</ele>
        <time>1970-01-01T06:53:14.000Z</time>
      </trkpt>
      <trkpt lat="42.468844" lon="0.731135">
        <ele>1354.8</ele>
        <time>1970-01-01T06:53:18.000Z</time>
      </trkpt>
      <trkpt lat="42.468927" lon="0.73138">
        <ele>1355.8</ele>
        <time>1970-01-01T06:53:28.000Z</time>
      </trkpt>
      <trkpt lat="42.468955" lon="0.731614">
        <ele>1356.8</ele>
        <time>1970-01-01T06:53:37.000Z</time>
      </trkpt>
      <trkpt lat="42.468952" lon="0.731876">
        <ele>1357.8</ele>
        <time>1970-01-01T06:53:47.000Z</time>
      </trkpt>
      <trkpt lat="42.46898" lon="0.732088">
        <ele>1359</ele>
        <time>1970-01-01T06:53:55.000Z</time>
      </trkpt>
      <trkpt lat="42.469018" lon="0.732249">
        <ele>1360</ele>
        <time>1970-01-01T06:54:02.000Z</time>
      </trkpt>
      <trkpt lat="42.469067" lon="0.732437">
        <ele>1361.4</ele>
        <time>1970-01-01T06:54:11.000Z</time>
      </trkpt>
      <trkpt lat="42.469118" lon="0.732605">
        <ele>1362.4</ele>
        <time>1970-01-01T06:54:19.000Z</time>
      </trkpt>
      <trkpt lat="42.469158" lon="0.732758">
        <ele>1363.6</ele>
        <time>1970-01-01T06:54:26.000Z</time>
      </trkpt>
      <trkpt lat="42.469218" lon="0.732948">
        <ele>1364.8</ele>
        <time>1970-01-01T06:54:35.000Z</time>
      </trkpt>
      <trkpt lat="42.469281" lon="0.733105">
        <ele>1365.8</ele>
        <time>1970-01-01T06:54:43.000Z</time>
      </trkpt>
      <trkpt lat="42.469333" lon="0.733267">
        <ele>1367</ele>
        <time>1970-01-01T06:54:51.000Z</time>
      </trkpt>
      <trkpt lat="42.469396" lon="0.733486">
        <ele>1368</ele>
        <time>1970-01-01T06:55:01.000Z</time>
      </trkpt>
      <trkpt lat="42.469454" lon="0.733718">
        <ele>1369.2</ele>
        <time>1970-01-01T06:55:11.000Z</time>
      </trkpt>
      <trkpt lat="42.469422" lon="0.734062">
        <ele>1370.2</ele>
        <time>1970-01-01T06:55:24.000Z</time>
      </trkpt>
      <trkpt lat="42.469372" lon="0.734317">
        <ele>1371.2</ele>
        <time>1970-01-01T06:55:34.000Z</time>
      </trkpt>
      <trkpt lat="42.469348" lon="0.73438">
        <ele>1371.4</ele>
        <time>1970-01-01T06:55:37.000Z</time>
      </trkpt>
      <trkpt lat="42.46927" lon="0.734412">
        <ele>1372</ele>
        <time>1970-01-01T06:55:42.000Z</time>
      </trkpt>
      <trkpt lat="42.469196" lon="0.734384">
        <ele>1372.2</ele>
        <time>1970-01-01T06:55:46.000Z</time>
      </trkpt>
      <trkpt lat="42.468692" lon="0.734069">
        <ele>1372.4</ele>
        <time>1970-01-01T06:56:06.000Z</time>
      </trkpt>
      <trkpt lat="42.468154" lon="0.733991">
        <ele>1372.4</ele>
        <time>1970-01-01T06:56:23.000Z</time>
      </trkpt>
      <trkpt lat="42.468151" lon="0.733997">
        <ele>1372.4</ele>
        <time>1970-01-01T06:56:25.000Z</time>
      </trkpt>
      <trkpt lat="42.468129" lon="0.734006">
        <ele>1372</ele>
        <time>1970-01-01T06:57:57.000Z</time>
      </trkpt>
      <trkpt lat="42.467757" lon="0.73423">
        <ele>1371</ele>
        <time>1970-01-01T06:58:10.000Z</time>
      </trkpt>
      <trkpt lat="42.467577" lon="0.734391">
        <ele>1369.8</ele>
        <time>1970-01-01T06:58:14.000Z</time>
      </trkpt>
      <trkpt lat="42.46753" lon="0.734439">
        <ele>1369.4</ele>
        <time>1970-01-01T06:58:15.000Z</time>
      </trkpt>
      <trkpt lat="42.46733" lon="0.734654">
        <ele>1368.6</ele>
        <time>1970-01-01T06:58:19.000Z</time>
      </trkpt>
      <trkpt lat="42.467115" lon="0.734843">
        <ele>1367.4</ele>
        <time>1970-01-01T06:58:23.000Z</time>
      </trkpt>
      <trkpt lat="42.466997" lon="0.734916">
        <ele>1367.2</ele>
        <time>1970-01-01T06:58:25.000Z</time>
      </trkpt>
      <trkpt lat="42.466687" lon="0.735013">
        <ele>1366.2</ele>
        <time>1970-01-01T06:58:30.000Z</time>
      </trkpt>
      <trkpt lat="42.466625" lon="0.735016">
        <ele>1366</ele>
        <time>1970-01-01T06:58:31.000Z</time>
      </trkpt>
      <trkpt lat="42.466381" lon="0.73493">
        <ele>1365.4</ele>
        <time>1970-01-01T06:58:35.000Z</time>
      </trkpt>
      <trkpt lat="42.466258" lon="0.734892">
        <ele>1365.2</ele>
        <time>1970-01-01T06:58:37.000Z</time>
      </trkpt>
      <trkpt lat="42.4657" lon="0.734823">
        <ele>1365</ele>
        <time>1970-01-01T06:58:47.000Z</time>
      </trkpt>
      <trkpt lat="42.465318" lon="0.734793">
        <ele>1364</ele>
        <time>1970-01-01T06:58:55.000Z</time>
      </trkpt>
      <trkpt lat="42.4653" lon="0.734858">
        <ele>1364</ele>
        <time>1970-01-01T06:58:56.000Z</time>
      </trkpt>
      <trkpt lat="42.465278" lon="0.734917">
        <ele>1363.8</ele>
        <time>1970-01-01T06:58:57.000Z</time>
      </trkpt>
      <trkpt lat="42.465092" lon="0.735033">
        <ele>1363.6</ele>
        <time>1970-01-01T06:59:01.000Z</time>
      </trkpt>
      <trkpt lat="42.464942" lon="0.735103">
        <ele>1363.2</ele>
        <time>1970-01-01T06:59:04.000Z</time>
      </trkpt>
      <trkpt lat="42.464537" lon="0.735413">
        <ele>1363</ele>
        <time>1970-01-01T06:59:14.000Z</time>
      </trkpt>
      <trkpt lat="42.46447" lon="0.735421">
        <ele>1362.4</ele>
        <time>1970-01-01T06:59:15.000Z</time>
      </trkpt>
      <trkpt lat="42.464404" lon="0.735448">
        <ele>1361.8</ele>
        <time>1970-01-01T06:59:16.000Z</time>
      </trkpt>
      <trkpt lat="42.464304" lon="0.735654">
        <ele>1360.6</ele>
        <time>1970-01-01T06:59:19.000Z</time>
      </trkpt>
      <trkpt lat="42.464279" lon="0.735725">
        <ele>1360.4</ele>
        <time>1970-01-01T06:59:20.000Z</time>
      </trkpt>
      <trkpt lat="42.464139" lon="0.736013">
        <ele>1359.4</ele>
        <time>1970-01-01T06:59:24.000Z</time>
      </trkpt>
      <trkpt lat="42.464093" lon="0.736092">
        <ele>1358.8</ele>
        <time>1970-01-01T06:59:25.000Z</time>
      </trkpt>
      <trkpt lat="42.464034" lon="0.736162">
        <ele>1358</ele>
        <time>1970-01-01T06:59:26.000Z</time>
      </trkpt>
      <trkpt lat="42.463966" lon="0.736229">
        <ele>1357</ele>
        <time>1970-01-01T06:59:27.000Z</time>
      </trkpt>
      <trkpt lat="42.463806" lon="0.736312">
        <ele>1355.8</ele>
        <time>1970-01-01T06:59:29.000Z</time>
      </trkpt>
      <trkpt lat="42.463656" lon="0.736401">
        <ele>1354.4</ele>
        <time>1970-01-01T06:59:31.000Z</time>
      </trkpt>
      <trkpt lat="42.463308" lon="0.736762">
        <ele>1353.8</ele>
        <time>1970-01-01T06:59:37.000Z</time>
      </trkpt>
      <trkpt lat="42.462908" lon="0.736921">
        <ele>1353.6</ele>
        <time>1970-01-01T06:59:45.000Z</time>
      </trkpt>
      <trkpt lat="42.462749" lon="0.736932">
        <ele>1354</ele>
        <time>1970-01-01T06:59:50.000Z</time>
      </trkpt>
      <trkpt lat="42.462378" lon="0.737061">
        <ele>1355.6</ele>
        <time>1970-01-01T07:00:01.000Z</time>
      </trkpt>
      <trkpt lat="42.462218" lon="0.737288">
        <ele>1357</ele>
        <time>1970-01-01T07:00:06.000Z</time>
      </trkpt>
      <trkpt lat="42.462182" lon="0.737304">
        <ele>1357</ele>
        <time>1970-01-01T07:00:07.000Z</time>
      </trkpt>
      <trkpt lat="42.461647" lon="0.737013">
        <ele>1357</ele>
        <time>1970-01-01T07:00:22.000Z</time>
      </trkpt>
      <trkpt lat="42.461527" lon="0.736822">
        <ele>1355.8</ele>
        <time>1970-01-01T07:00:25.000Z</time>
      </trkpt>
      <trkpt lat="42.461429" lon="0.736704">
        <ele>1354</ele>
        <time>1970-01-01T07:00:27.000Z</time>
      </trkpt>
      <trkpt lat="42.461365" lon="0.736679">
        <ele>1353.4</ele>
        <time>1970-01-01T07:00:28.000Z</time>
      </trkpt>
      <trkpt lat="42.461294" lon="0.736673">
        <ele>1352.6</ele>
        <time>1970-01-01T07:00:29.000Z</time>
      </trkpt>
      <trkpt lat="42.4611" lon="0.736772">
        <ele>1351.6</ele>
        <time>1970-01-01T07:00:32.000Z</time>
      </trkpt>
      <trkpt lat="42.461047" lon="0.736816">
        <ele>1351.4</ele>
        <time>1970-01-01T07:00:33.000Z</time>
      </trkpt>
      <trkpt lat="42.460566" lon="0.737237">
        <ele>1351</ele>
        <time>1970-01-01T07:00:44.000Z</time>
      </trkpt>
      <trkpt lat="42.460378" lon="0.737414">
        <ele>1350.8</ele>
        <time>1970-01-01T07:00:48.000Z</time>
      </trkpt>
      <trkpt lat="42.46014" lon="0.737665">
        <ele>1352.8</ele>
        <time>1970-01-01T07:00:57.000Z</time>
      </trkpt>
      <trkpt lat="42.460046" lon="0.737739">
        <ele>1353.8</ele>
        <time>1970-01-01T07:01:01.000Z</time>
      </trkpt>
      <trkpt lat="42.459881" lon="0.737875">
        <ele>1354.8</ele>
        <time>1970-01-01T07:01:10.000Z</time>
      </trkpt>
      <trkpt lat="42.45987" lon="0.737889">
        <ele>1355</ele>
        <time>1970-01-01T07:01:12.000Z</time>
      </trkpt>
      <trkpt lat="42.459818" lon="0.737896">
        <ele>1355.6</ele>
        <time>1970-01-01T07:02:47.000Z</time>
      </trkpt>
      <trkpt lat="42.459722" lon="0.737937">
        <ele>1355.8</ele>
        <time>1970-01-01T07:02:51.000Z</time>
      </trkpt>
      <trkpt lat="42.459655" lon="0.737962">
        <ele>1355.8</ele>
        <time>1970-01-01T07:02:53.000Z</time>
      </trkpt>
      <trkpt lat="42.45937" lon="0.738029">
        <ele>1355.2</ele>
        <time>1970-01-01T07:03:00.000Z</time>
      </trkpt>
      <trkpt lat="42.459237" lon="0.73803">
        <ele>1354.8</ele>
        <time>1970-01-01T07:03:03.000Z</time>
      </trkpt>
      <trkpt lat="42.458904" lon="0.738085">
        <ele>1353.8</ele>
        <time>1970-01-01T07:03:10.000Z</time>
      </trkpt>
      <trkpt lat="42.45885" lon="0.738097">
        <ele>1353.8</ele>
        <time>1970-01-01T07:03:11.000Z</time>
      </trkpt>
      <trkpt lat="42.458669" lon="0.738128">
        <ele>1352.6</ele>
        <time>1970-01-01T07:03:14.000Z</time>
      </trkpt>
      <trkpt lat="42.458397" lon="0.738143">
        <ele>1351.6</ele>
        <time>1970-01-01T07:03:18.000Z</time>
      </trkpt>
      <trkpt lat="42.458335" lon="0.738132">
        <ele>1351.4</ele>
        <time>1970-01-01T07:03:19.000Z</time>
      </trkpt>
      <trkpt lat="42.458104" lon="0.738082">
        <ele>1350.6</ele>
        <time>1970-01-01T07:03:23.000Z</time>
      </trkpt>
      <trkpt lat="42.457539" lon="0.737943">
        <ele>1349.6</ele>
        <time>1970-01-01T07:03:33.000Z</time>
      </trkpt>
      <trkpt lat="42.457243" lon="0.737784">
        <ele>1350.2</ele>
        <time>1970-01-01T07:03:42.000Z</time>
      </trkpt>
      <trkpt lat="42.457223" lon="0.737769">
        <ele>1350.2</ele>
        <time>1970-01-01T07:04:08.000Z</time>
      </trkpt>
      <trkpt lat="42.457024" lon="0.737617">
        <ele>1349.4</ele>
        <time>1970-01-01T07:04:15.000Z</time>
      </trkpt>
      <trkpt lat="42.456925" lon="0.737546">
        <ele>1348.6</ele>
        <time>1970-01-01T07:04:17.000Z</time>
      </trkpt>
      <trkpt lat="42.456871" lon="0.737511">
        <ele>1348.4</ele>
        <time>1970-01-01T07:04:18.000Z</time>
      </trkpt>
      <trkpt lat="42.456814" lon="0.737482">
        <ele>1348.2</ele>
        <time>1970-01-01T07:04:19.000Z</time>
      </trkpt>
      <trkpt lat="42.456627" lon="0.737421">
        <ele>1347.4</ele>
        <time>1970-01-01T07:04:22.000Z</time>
      </trkpt>
      <trkpt lat="42.456363" lon="0.737346">
        <ele>1347</ele>
        <time>1970-01-01T07:04:27.000Z</time>
      </trkpt>
      <trkpt lat="42.45624" lon="0.737344">
        <ele>1346.2</ele>
        <time>1970-01-01T07:04:31.000Z</time>
      </trkpt>
      <trkpt lat="42.455667" lon="0.73743">
        <ele>1345.2</ele>
        <time>1970-01-01T07:04:43.000Z</time>
      </trkpt>
      <trkpt lat="42.455473" lon="0.737481">
        <ele>1344.2</ele>
        <time>1970-01-01T07:04:46.000Z</time>
      </trkpt>
      <trkpt lat="42.45534" lon="0.737562">
        <ele>1342.8</ele>
        <time>1970-01-01T07:04:48.000Z</time>
      </trkpt>
      <trkpt lat="42.4552" lon="0.737649">
        <ele>1341</ele>
        <time>1970-01-01T07:04:50.000Z</time>
      </trkpt>
      <trkpt lat="42.455135" lon="0.737695">
        <ele>1340</ele>
        <time>1970-01-01T07:04:51.000Z</time>
      </trkpt>
      <trkpt lat="42.45502" lon="0.737772">
        <ele>1338.6</ele>
        <time>1970-01-01T07:04:53.000Z</time>
      </trkpt>
      <trkpt lat="42.454969" lon="0.737799">
        <ele>1338.2</ele>
        <time>1970-01-01T07:04:54.000Z</time>
      </trkpt>
      <trkpt lat="42.454807" lon="0.737836">
        <ele>1337.4</ele>
        <time>1970-01-01T07:04:57.000Z</time>
      </trkpt>
      <trkpt lat="42.45463" lon="0.737754">
        <ele>1336.2</ele>
        <time>1970-01-01T07:05:00.000Z</time>
      </trkpt>
      <trkpt lat="42.454477" lon="0.737622">
        <ele>1335.8</ele>
        <time>1970-01-01T07:05:03.000Z</time>
      </trkpt>
      <trkpt lat="42.45433" lon="0.737483">
        <ele>1335</ele>
        <time>1970-01-01T07:05:06.000Z</time>
      </trkpt>
      <trkpt lat="42.454286" lon="0.737426">
        <ele>1334.6</ele>
        <time>1970-01-01T07:05:07.000Z</time>
      </trkpt>
      <trkpt lat="42.454253" lon="0.737373">
        <ele>1334</ele>
        <time>1970-01-01T07:05:08.000Z</time>
      </trkpt>
      <trkpt lat="42.454146" lon="0.737164">
        <ele>1332.8</ele>
        <time>1970-01-01T07:05:12.000Z</time>
      </trkpt>
      <trkpt lat="42.454039" lon="0.736896">
        <ele>1331.8</ele>
        <time>1970-01-01T07:05:16.000Z</time>
      </trkpt>
      <trkpt lat="42.453982" lon="0.736755">
        <ele>1330.4</ele>
        <time>1970-01-01T07:05:18.000Z</time>
      </trkpt>
      <trkpt lat="42.453835" lon="0.736615">
        <ele>1329.4</ele>
        <time>1970-01-01T07:05:21.000Z</time>
      </trkpt>
      <trkpt lat="42.453779" lon="0.736579">
        <ele>1329.2</ele>
        <time>1970-01-01T07:05:22.000Z</time>
      </trkpt>
      <trkpt lat="42.453677" lon="0.736486">
        <ele>1328.8</ele>
        <time>1970-01-01T07:05:24.000Z</time>
      </trkpt>
      <trkpt lat="42.453547" lon="0.736352">
        <ele>1328.2</ele>
        <time>1970-01-01T07:05:27.000Z</time>
      </trkpt>
      <trkpt lat="42.453405" lon="0.736357">
        <ele>1327.2</ele>
        <time>1970-01-01T07:05:31.000Z</time>
      </trkpt>
      <trkpt lat="42.453361" lon="0.736363">
        <ele>1327</ele>
        <time>1970-01-01T07:05:32.000Z</time>
      </trkpt>
      <trkpt lat="42.453166" lon="0.736304">
        <ele>1326.4</ele>
        <time>1970-01-01T07:05:36.000Z</time>
      </trkpt>
      <trkpt lat="42.453053" lon="0.736262">
        <ele>1325.8</ele>
        <time>1970-01-01T07:05:38.000Z</time>
      </trkpt>
      <trkpt lat="42.452551" lon="0.735986">
        <ele>1325.4</ele>
        <time>1970-01-01T07:05:48.000Z</time>
      </trkpt>
      <trkpt lat="42.452265" lon="0.735841">
        <ele>1327.4</ele>
        <time>1970-01-01T07:05:56.000Z</time>
      </trkpt>
      <trkpt lat="42.452088" lon="0.735763">
        <ele>1328.4</ele>
        <time>1970-01-01T07:06:01.000Z</time>
      </trkpt>
      <trkpt lat="42.452009" lon="0.735724">
        <ele>1328.6</ele>
        <time>1970-01-01T07:06:03.000Z</time>
      </trkpt>
      <trkpt lat="42.451636" lon="0.735575">
        <ele>1327</ele>
        <time>1970-01-01T07:06:10.000Z</time>
      </trkpt>
      <trkpt lat="42.451368" lon="0.735444">
        <ele>1326</ele>
        <time>1970-01-01T07:06:14.000Z</time>
      </trkpt>
      <trkpt lat="42.451303" lon="0.735432">
        <ele>1325.8</ele>
        <time>1970-01-01T07:06:15.000Z</time>
      </trkpt>
      <trkpt lat="42.45124" lon="0.735411">
        <ele>1325.8</ele>
        <time>1970-01-01T07:06:16.000Z</time>
      </trkpt>
      <trkpt lat="42.451043" lon="0.735301">
        <ele>1324.8</ele>
        <time>1970-01-01T07:06:19.000Z</time>
      </trkpt>
      <trkpt lat="42.450978" lon="0.73527">
        <ele>1324</ele>
        <time>1970-01-01T07:06:20.000Z</time>
      </trkpt>
      <trkpt lat="42.450913" lon="0.735247">
        <ele>1323.8</ele>
        <time>1970-01-01T07:06:21.000Z</time>
      </trkpt>
      <trkpt lat="42.450663" lon="0.735239">
        <ele>1322.4</ele>
        <time>1970-01-01T07:06:25.000Z</time>
      </trkpt>
      <trkpt lat="42.450563" lon="0.735249">
        <ele>1321</ele>
        <time>1970-01-01T07:06:27.000Z</time>
      </trkpt>
      <trkpt lat="42.450456" lon="0.735241">
        <ele>1319.8</ele>
        <time>1970-01-01T07:06:29.000Z</time>
      </trkpt>
      <trkpt lat="42.450402" lon="0.735246">
        <ele>1319.2</ele>
        <time>1970-01-01T07:06:30.000Z</time>
      </trkpt>
      <trkpt lat="42.450349" lon="0.735257">
        <ele>1318.8</ele>
        <time>1970-01-01T07:06:31.000Z</time>
      </trkpt>
      <trkpt lat="42.450297" lon="0.735285">
        <ele>1318</ele>
        <time>1970-01-01T07:06:32.000Z</time>
      </trkpt>
      <trkpt lat="42.450192" lon="0.735357">
        <ele>1316.6</ele>
        <time>1970-01-01T07:06:34.000Z</time>
      </trkpt>
      <trkpt lat="42.450133" lon="0.73539">
        <ele>1316</ele>
        <time>1970-01-01T07:06:35.000Z</time>
      </trkpt>
      <trkpt lat="42.450071" lon="0.735416">
        <ele>1315.4</ele>
        <time>1970-01-01T07:06:36.000Z</time>
      </trkpt>
      <trkpt lat="42.449964" lon="0.735448">
        <ele>1314.2</ele>
        <time>1970-01-01T07:06:38.000Z</time>
      </trkpt>
      <trkpt lat="42.449873" lon="0.735472">
        <ele>1312.4</ele>
        <time>1970-01-01T07:06:40.000Z</time>
      </trkpt>
      <trkpt lat="42.449821" lon="0.735479">
        <ele>1311.4</ele>
        <time>1970-01-01T07:06:41.000Z</time>
      </trkpt>
      <trkpt lat="42.449654" lon="0.735506">
        <ele>1310.2</ele>
        <time>1970-01-01T07:06:44.000Z</time>
      </trkpt>
      <trkpt lat="42.449481" lon="0.735544">
        <ele>1308.8</ele>
        <time>1970-01-01T07:06:47.000Z</time>
      </trkpt>
      <trkpt lat="42.449339" lon="0.735556">
        <ele>1307.4</ele>
        <time>1970-01-01T07:06:49.000Z</time>
      </trkpt>
      <trkpt lat="42.449196" lon="0.735543">
        <ele>1306.2</ele>
        <time>1970-01-01T07:06:51.000Z</time>
      </trkpt>
      <trkpt lat="42.448973" lon="0.735527">
        <ele>1305</ele>
        <time>1970-01-01T07:06:54.000Z</time>
      </trkpt>
      <trkpt lat="42.448815" lon="0.735522">
        <ele>1304</ele>
        <time>1970-01-01T07:06:56.000Z</time>
      </trkpt>
      <trkpt lat="42.448736" lon="0.735516">
        <ele>1303.4</ele>
        <time>1970-01-01T07:06:57.000Z</time>
      </trkpt>
      <trkpt lat="42.448664" lon="0.735504">
        <ele>1302.8</ele>
        <time>1970-01-01T07:06:58.000Z</time>
      </trkpt>
      <trkpt lat="42.448601" lon="0.735486">
        <ele>1302.2</ele>
        <time>1970-01-01T07:06:59.000Z</time>
      </trkpt>
      <trkpt lat="42.448487" lon="0.735432">
        <ele>1301.4</ele>
        <time>1970-01-01T07:07:01.000Z</time>
      </trkpt>
      <trkpt lat="42.448375" lon="0.735402">
        <ele>1300.6</ele>
        <time>1970-01-01T07:07:03.000Z</time>
      </trkpt>
      <trkpt lat="42.448263" lon="0.735365">
        <ele>1300.2</ele>
        <time>1970-01-01T07:07:05.000Z</time>
      </trkpt>
      <trkpt lat="42.448086" lon="0.735337">
        <ele>1299.4</ele>
        <time>1970-01-01T07:07:08.000Z</time>
      </trkpt>
      <trkpt lat="42.448024" lon="0.735348">
        <ele>1299.2</ele>
        <time>1970-01-01T07:07:09.000Z</time>
      </trkpt>
      <trkpt lat="42.44787" lon="0.735385">
        <ele>1298.2</ele>
        <time>1970-01-01T07:07:12.000Z</time>
      </trkpt>
      <trkpt lat="42.447831" lon="0.735365">
        <ele>1298</ele>
        <time>1970-01-01T07:07:13.000Z</time>
      </trkpt>
      <trkpt lat="42.44775" lon="0.735201">
        <ele>1296.6</ele>
        <time>1970-01-01T07:07:16.000Z</time>
      </trkpt>
      <trkpt lat="42.447714" lon="0.735035">
        <ele>1296</ele>
        <time>1970-01-01T07:07:18.000Z</time>
      </trkpt>
      <trkpt lat="42.447692" lon="0.734945">
        <ele>1295.4</ele>
        <time>1970-01-01T07:07:19.000Z</time>
      </trkpt>
      <trkpt lat="42.447614" lon="0.734674">
        <ele>1294.2</ele>
        <time>1970-01-01T07:07:22.000Z</time>
      </trkpt>
      <trkpt lat="42.447521" lon="0.734411">
        <ele>1293</ele>
        <time>1970-01-01T07:07:25.000Z</time>
      </trkpt>
      <trkpt lat="42.44734" lon="0.734161">
        <ele>1292</ele>
        <time>1970-01-01T07:07:29.000Z</time>
      </trkpt>
      <trkpt lat="42.44729" lon="0.734115">
        <ele>1292</ele>
        <time>1970-01-01T07:07:30.000Z</time>
      </trkpt>
      <trkpt lat="42.447242" lon="0.734065">
        <ele>1291.8</ele>
        <time>1970-01-01T07:07:31.000Z</time>
      </trkpt>
      <trkpt lat="42.447095" lon="0.733921">
        <ele>1291.2</ele>
        <time>1970-01-01T07:07:34.000Z</time>
      </trkpt>
      <trkpt lat="42.447037" lon="0.733883">
        <ele>1291</ele>
        <time>1970-01-01T07:07:35.000Z</time>
      </trkpt>
      <trkpt lat="42.446859" lon="0.733835">
        <ele>1290.6</ele>
        <time>1970-01-01T07:07:38.000Z</time>
      </trkpt>
      <trkpt lat="42.446748" lon="0.733816">
        <ele>1290.4</ele>
        <time>1970-01-01T07:07:40.000Z</time>
      </trkpt>
      <trkpt lat="42.446631" lon="0.733798">
        <ele>1290.2</ele>
        <time>1970-01-01T07:07:42.000Z</time>
      </trkpt>
      <trkpt lat="42.446438" lon="0.733977">
        <ele>1288.6</ele>
        <time>1970-01-01T07:07:46.000Z</time>
      </trkpt>
      <trkpt lat="42.446399" lon="0.734021">
        <ele>1288</ele>
        <time>1970-01-01T07:07:47.000Z</time>
      </trkpt>
      <trkpt lat="42.446371" lon="0.734047">
        <ele>1287.4</ele>
        <time>1970-01-01T07:07:48.000Z</time>
      </trkpt>
      <trkpt lat="42.446354" lon="0.734067">
        <ele>1286.4</ele>
        <time>1970-01-01T07:07:51.000Z</time>
      </trkpt>
      <trkpt lat="42.446312" lon="0.734082">
        <ele>1286.8</ele>
        <time>1970-01-01T07:09:07.000Z</time>
      </trkpt>
      <trkpt lat="42.446149" lon="0.73419">
        <ele>1285.6</ele>
        <time>1970-01-01T07:09:13.000Z</time>
      </trkpt>
      <trkpt lat="42.44603" lon="0.734286">
        <ele>1284.6</ele>
        <time>1970-01-01T07:09:16.000Z</time>
      </trkpt>
      <trkpt lat="42.445975" lon="0.734312">
        <ele>1284.2</ele>
        <time>1970-01-01T07:09:17.000Z</time>
      </trkpt>
      <trkpt lat="42.445861" lon="0.734321">
        <ele>1282.8</ele>
        <time>1970-01-01T07:09:19.000Z</time>
      </trkpt>
      <trkpt lat="42.445797" lon="0.734308">
        <ele>1282</ele>
        <time>1970-01-01T07:09:20.000Z</time>
      </trkpt>
      <trkpt lat="42.445728" lon="0.734291">
        <ele>1281.6</ele>
        <time>1970-01-01T07:09:21.000Z</time>
      </trkpt>
      <trkpt lat="42.44566" lon="0.734263">
        <ele>1281</ele>
        <time>1970-01-01T07:09:22.000Z</time>
      </trkpt>
      <trkpt lat="42.445598" lon="0.734228">
        <ele>1280.4</ele>
        <time>1970-01-01T07:09:23.000Z</time>
      </trkpt>
      <trkpt lat="42.445479" lon="0.734204">
        <ele>1279.2</ele>
        <time>1970-01-01T07:09:25.000Z</time>
      </trkpt>
      <trkpt lat="42.445314" lon="0.73434">
        <ele>1278</ele>
        <time>1970-01-01T07:09:29.000Z</time>
      </trkpt>
      <trkpt lat="42.445216" lon="0.734434">
        <ele>1276.8</ele>
        <time>1970-01-01T07:09:32.000Z</time>
      </trkpt>
      <trkpt lat="42.445096" lon="0.734504">
        <ele>1275.8</ele>
        <time>1970-01-01T07:09:36.000Z</time>
      </trkpt>
      <trkpt lat="42.444911" lon="0.734631">
        <ele>1274.8</ele>
        <time>1970-01-01T07:09:41.000Z</time>
      </trkpt>
      <trkpt lat="42.444759" lon="0.734679">
        <ele>1273.8</ele>
        <time>1970-01-01T07:09:44.000Z</time>
      </trkpt>
      <trkpt lat="42.444575" lon="0.734589">
        <ele>1272.6</ele>
        <time>1970-01-01T07:09:48.000Z</time>
      </trkpt>
      <trkpt lat="42.444474" lon="0.734424">
        <ele>1271.8</ele>
        <time>1970-01-01T07:09:51.000Z</time>
      </trkpt>
      <trkpt lat="42.444442" lon="0.734364">
        <ele>1271.4</ele>
        <time>1970-01-01T07:09:52.000Z</time>
      </trkpt>
      <trkpt lat="42.444357" lon="0.73415">
        <ele>1269.6</ele>
        <time>1970-01-01T07:09:55.000Z</time>
      </trkpt>
      <trkpt lat="42.444291" lon="0.733884">
        <ele>1268.2</ele>
        <time>1970-01-01T07:09:58.000Z</time>
      </trkpt>
      <trkpt lat="42.444218" lon="0.733607">
        <ele>1267</ele>
        <time>1970-01-01T07:10:01.000Z</time>
      </trkpt>
      <trkpt lat="42.444189" lon="0.733423">
        <ele>1266.4</ele>
        <time>1970-01-01T07:10:03.000Z</time>
      </trkpt>
      <trkpt lat="42.444187" lon="0.733329">
        <ele>1266</ele>
        <time>1970-01-01T07:10:04.000Z</time>
      </trkpt>
      <trkpt lat="42.444181" lon="0.733238">
        <ele>1265.6</ele>
        <time>1970-01-01T07:10:05.000Z</time>
      </trkpt>
      <trkpt lat="42.444163" lon="0.733161">
        <ele>1265</ele>
        <time>1970-01-01T07:10:06.000Z</time>
      </trkpt>
      <trkpt lat="42.444088" lon="0.732974">
        <ele>1263.4</ele>
        <time>1970-01-01T07:10:09.000Z</time>
      </trkpt>
      <trkpt lat="42.444058" lon="0.732921">
        <ele>1262.2</ele>
        <time>1970-01-01T07:10:10.000Z</time>
      </trkpt>
      <trkpt lat="42.443982" lon="0.732822">
        <ele>1260.6</ele>
        <time>1970-01-01T07:10:12.000Z</time>
      </trkpt>
      <trkpt lat="42.443939" lon="0.732778">
        <ele>1259.6</ele>
        <time>1970-01-01T07:10:13.000Z</time>
      </trkpt>
      <trkpt lat="42.443893" lon="0.73274">
        <ele>1259</ele>
        <time>1970-01-01T07:10:14.000Z</time>
      </trkpt>
      <trkpt lat="42.443843" lon="0.732708">
        <ele>1258.4</ele>
        <time>1970-01-01T07:10:15.000Z</time>
      </trkpt>
      <trkpt lat="42.44374" lon="0.732633">
        <ele>1257</ele>
        <time>1970-01-01T07:10:17.000Z</time>
      </trkpt>
      <trkpt lat="42.44365" lon="0.732506">
        <ele>1255.4</ele>
        <time>1970-01-01T07:10:19.000Z</time>
      </trkpt>
      <trkpt lat="42.443602" lon="0.73235">
        <ele>1254</ele>
        <time>1970-01-01T07:10:21.000Z</time>
      </trkpt>
      <trkpt lat="42.443587" lon="0.732248">
        <ele>1253.2</ele>
        <time>1970-01-01T07:10:23.000Z</time>
      </trkpt>
      <trkpt lat="42.443579" lon="0.732201">
        <ele>1252.8</ele>
        <time>1970-01-01T07:10:24.000Z</time>
      </trkpt>
      <trkpt lat="42.443579" lon="0.732049">
        <ele>1252</ele>
        <time>1970-01-01T07:10:27.000Z</time>
      </trkpt>
      <trkpt lat="42.443629" lon="0.731954">
        <ele>1251.8</ele>
        <time>1970-01-01T07:10:29.000Z</time>
      </trkpt>
      <trkpt lat="42.443696" lon="0.731849">
        <ele>1250.8</ele>
        <time>1970-01-01T07:10:31.000Z</time>
      </trkpt>
      <trkpt lat="42.443733" lon="0.731791">
        <ele>1250.4</ele>
        <time>1970-01-01T07:10:32.000Z</time>
      </trkpt>
      <trkpt lat="42.443765" lon="0.731727">
        <ele>1250</ele>
        <time>1970-01-01T07:10:33.000Z</time>
      </trkpt>
      <trkpt lat="42.443797" lon="0.731571">
        <ele>1249</ele>
        <time>1970-01-01T07:10:35.000Z</time>
      </trkpt>
      <trkpt lat="42.443796" lon="0.731402">
        <ele>1247.8</ele>
        <time>1970-01-01T07:10:37.000Z</time>
      </trkpt>
      <trkpt lat="42.443791" lon="0.731324">
        <ele>1247</ele>
        <time>1970-01-01T07:10:38.000Z</time>
      </trkpt>
      <trkpt lat="42.443782" lon="0.73125">
        <ele>1246</ele>
        <time>1970-01-01T07:10:39.000Z</time>
      </trkpt>
      <trkpt lat="42.44375" lon="0.73111">
        <ele>1245.2</ele>
        <time>1970-01-01T07:10:41.000Z</time>
      </trkpt>
      <trkpt lat="42.443681" lon="0.730974">
        <ele>1243.8</ele>
        <time>1970-01-01T07:10:43.000Z</time>
      </trkpt>
      <trkpt lat="42.443635" lon="0.73091">
        <ele>1243.2</ele>
        <time>1970-01-01T07:10:44.000Z</time>
      </trkpt>
      <trkpt lat="42.443585" lon="0.730855">
        <ele>1242.4</ele>
        <time>1970-01-01T07:10:45.000Z</time>
      </trkpt>
      <trkpt lat="42.443539" lon="0.730797">
        <ele>1241.4</ele>
        <time>1970-01-01T07:10:46.000Z</time>
      </trkpt>
      <trkpt lat="42.443499" lon="0.730735">
        <ele>1240.6</ele>
        <time>1970-01-01T07:10:47.000Z</time>
      </trkpt>
      <trkpt lat="42.443469" lon="0.730669">
        <ele>1239.6</ele>
        <time>1970-01-01T07:10:48.000Z</time>
      </trkpt>
      <trkpt lat="42.443429" lon="0.730517">
        <ele>1238.2</ele>
        <time>1970-01-01T07:10:50.000Z</time>
      </trkpt>
      <trkpt lat="42.443425" lon="0.730324">
        <ele>1236.4</ele>
        <time>1970-01-01T07:10:52.000Z</time>
      </trkpt>
      <trkpt lat="42.443446" lon="0.730134">
        <ele>1235.2</ele>
        <time>1970-01-01T07:10:54.000Z</time>
      </trkpt>
      <trkpt lat="42.443482" lon="0.730011">
        <ele>1233.6</ele>
        <time>1970-01-01T07:10:56.000Z</time>
      </trkpt>
      <trkpt lat="42.443498" lon="0.729951">
        <ele>1233.2</ele>
        <time>1970-01-01T07:10:57.000Z</time>
      </trkpt>
      <trkpt lat="42.443515" lon="0.729808">
        <ele>1232.4</ele>
        <time>1970-01-01T07:10:59.000Z</time>
      </trkpt>
      <trkpt lat="42.443512" lon="0.729649">
        <ele>1231.4</ele>
        <time>1970-01-01T07:11:01.000Z</time>
      </trkpt>
      <trkpt lat="42.443506" lon="0.729572">
        <ele>1230.8</ele>
        <time>1970-01-01T07:11:02.000Z</time>
      </trkpt>
      <trkpt lat="42.443493" lon="0.729436">
        <ele>1229.4</ele>
        <time>1970-01-01T07:11:04.000Z</time>
      </trkpt>
      <trkpt lat="42.443489" lon="0.729311">
        <ele>1227.4</ele>
        <time>1970-01-01T07:11:06.000Z</time>
      </trkpt>
      <trkpt lat="42.443472" lon="0.729178">
        <ele>1226.4</ele>
        <time>1970-01-01T07:11:08.000Z</time>
      </trkpt>
      <trkpt lat="42.443416" lon="0.729064">
        <ele>1224.8</ele>
        <time>1970-01-01T07:11:10.000Z</time>
      </trkpt>
      <trkpt lat="42.443342" lon="0.728986">
        <ele>1223.2</ele>
        <time>1970-01-01T07:11:12.000Z</time>
      </trkpt>
      <trkpt lat="42.443231" lon="0.729034">
        <ele>1222</ele>
        <time>1970-01-01T07:11:15.000Z</time>
      </trkpt>
      <trkpt lat="42.443157" lon="0.72936">
        <ele>1221</ele>
        <time>1970-01-01T07:11:20.000Z</time>
      </trkpt>
      <trkpt lat="42.443114" lon="0.72955">
        <ele>1220.8</ele>
        <time>1970-01-01T07:11:23.000Z</time>
      </trkpt>
      <trkpt lat="42.443037" lon="0.7299">
        <ele>1221</ele>
        <time>1970-01-01T07:11:29.000Z</time>
      </trkpt>
      <trkpt lat="42.442878" lon="0.730197">
        <ele>1221.2</ele>
        <time>1970-01-01T07:11:35.000Z</time>
      </trkpt>
      <trkpt lat="42.442792" lon="0.730461">
        <ele>1221.8</ele>
        <time>1970-01-01T07:11:41.000Z</time>
      </trkpt>
      <trkpt lat="42.442849" lon="0.731056">
        <ele>1220.8</ele>
        <time>1970-01-01T07:11:50.000Z</time>
      </trkpt>
      <trkpt lat="42.4428" lon="0.731333">
        <ele>1220.8</ele>
        <time>1970-01-01T07:11:55.000Z</time>
      </trkpt>
      <trkpt lat="42.442729" lon="0.731577">
        <ele>1220.2</ele>
        <time>1970-01-01T07:11:59.000Z</time>
      </trkpt>
      <trkpt lat="42.442705" lon="0.731639">
        <ele>1220.2</ele>
        <time>1970-01-01T07:12:00.000Z</time>
      </trkpt>
      <trkpt lat="42.442683" lon="0.731703">
        <ele>1220</ele>
        <time>1970-01-01T07:12:01.000Z</time>
      </trkpt>
      <trkpt lat="42.442601" lon="0.732457">
        <ele>1220.4</ele>
        <time>1970-01-01T07:12:17.000Z</time>
      </trkpt>
      <trkpt lat="42.442413" lon="0.732615">
        <ele>1220.4</ele>
        <time>1970-01-01T07:12:23.000Z</time>
      </trkpt>
      <trkpt lat="42.442252" lon="0.732779">
        <ele>1219.8</ele>
        <time>1970-01-01T07:12:27.000Z</time>
      </trkpt>
      <trkpt lat="42.442161" lon="0.732836">
        <ele>1219.4</ele>
        <time>1970-01-01T07:12:29.000Z</time>
      </trkpt>
      <trkpt lat="42.442118" lon="0.732851">
        <ele>1219.2</ele>
        <time>1970-01-01T07:12:30.000Z</time>
      </trkpt>
      <trkpt lat="42.442035" lon="0.732918">
        <ele>1217.6</ele>
        <time>1970-01-01T07:12:33.000Z</time>
      </trkpt>
      <trkpt lat="42.442083" lon="0.733075">
        <ele>1216.6</ele>
        <time>1970-01-01T07:12:37.000Z</time>
      </trkpt>
      <trkpt lat="42.442204" lon="0.733177">
        <ele>1215.6</ele>
        <time>1970-01-01T07:12:40.000Z</time>
      </trkpt>
      <trkpt lat="42.442255" lon="0.733206">
        <ele>1215.2</ele>
        <time>1970-01-01T07:12:41.000Z</time>
      </trkpt>
      <trkpt lat="42.442306" lon="0.733237">
        <ele>1214.6</ele>
        <time>1970-01-01T07:12:42.000Z</time>
      </trkpt>
      <trkpt lat="42.442391" lon="0.733325">
        <ele>1214</ele>
        <time>1970-01-01T07:12:44.000Z</time>
      </trkpt>
      <trkpt lat="42.442696" lon="0.73373">
        <ele>1213</ele>
        <time>1970-01-01T07:12:52.000Z</time>
      </trkpt>
      <trkpt lat="42.442719" lon="0.733797">
        <ele>1212.8</ele>
        <time>1970-01-01T07:12:53.000Z</time>
      </trkpt>
      <trkpt lat="42.442711" lon="0.73411">
        <ele>1211.8</ele>
        <time>1970-01-01T07:12:57.000Z</time>
      </trkpt>
      <trkpt lat="42.442693" lon="0.734188">
        <ele>1211.4</ele>
        <time>1970-01-01T07:12:58.000Z</time>
      </trkpt>
      <trkpt lat="42.442681" lon="0.734251">
        <ele>1211</ele>
        <time>1970-01-01T07:12:59.000Z</time>
      </trkpt>
      <trkpt lat="42.442674" lon="0.734296">
        <ele>1210.6</ele>
        <time>1970-01-01T07:13:00.000Z</time>
      </trkpt>
      <trkpt lat="42.44267" lon="0.734319">
        <ele>1210.2</ele>
        <time>1970-01-01T07:13:02.000Z</time>
      </trkpt>
      <trkpt lat="42.442661" lon="0.734346">
        <ele>1210.4</ele>
        <time>1970-01-01T07:13:27.000Z</time>
      </trkpt>
      <trkpt lat="42.442472" lon="0.734582">
        <ele>1209.6</ele>
        <time>1970-01-01T07:13:35.000Z</time>
      </trkpt>
      <trkpt lat="42.442444" lon="0.73463">
        <ele>1209.4</ele>
        <time>1970-01-01T07:13:36.000Z</time>
      </trkpt>
      <trkpt lat="42.442334" lon="0.734872">
        <ele>1208.4</ele>
        <time>1970-01-01T07:13:40.000Z</time>
      </trkpt>
      <trkpt lat="42.442249" lon="0.7351">
        <ele>1207</ele>
        <time>1970-01-01T07:13:43.000Z</time>
      </trkpt>
      <trkpt lat="42.44219" lon="0.735257">
        <ele>1206.4</ele>
        <time>1970-01-01T07:13:45.000Z</time>
      </trkpt>
      <trkpt lat="42.442154" lon="0.735328">
        <ele>1206</ele>
        <time>1970-01-01T07:13:46.000Z</time>
      </trkpt>
      <trkpt lat="42.44204" lon="0.735501">
        <ele>1205</ele>
        <time>1970-01-01T07:13:49.000Z</time>
      </trkpt>
      <trkpt lat="42.442004" lon="0.735552">
        <ele>1204.6</ele>
        <time>1970-01-01T07:13:50.000Z</time>
      </trkpt>
      <trkpt lat="42.441972" lon="0.735606">
        <ele>1204.4</ele>
        <time>1970-01-01T07:13:51.000Z</time>
      </trkpt>
      <trkpt lat="42.441919" lon="0.735732">
        <ele>1203.6</ele>
        <time>1970-01-01T07:13:53.000Z</time>
      </trkpt>
      <trkpt lat="42.441876" lon="0.735867">
        <ele>1202.8</ele>
        <time>1970-01-01T07:13:55.000Z</time>
      </trkpt>
      <trkpt lat="42.441863" lon="0.735939">
        <ele>1202.4</ele>
        <time>1970-01-01T07:13:56.000Z</time>
      </trkpt>
      <trkpt lat="42.441839" lon="0.736088">
        <ele>1202.2</ele>
        <time>1970-01-01T07:13:58.000Z</time>
      </trkpt>
      <trkpt lat="42.441782" lon="0.73632">
        <ele>1201.6</ele>
        <time>1970-01-01T07:14:01.000Z</time>
      </trkpt>
      <trkpt lat="42.441711" lon="0.736548">
        <ele>1201</ele>
        <time>1970-01-01T07:14:04.000Z</time>
      </trkpt>
      <trkpt lat="42.441562" lon="0.736891">
        <ele>1200.8</ele>
        <time>1970-01-01T07:14:10.000Z</time>
      </trkpt>
      <trkpt lat="42.441556" lon="0.736958">
        <ele>1200.8</ele>
        <time>1970-01-01T07:14:11.000Z</time>
      </trkpt>
      <trkpt lat="42.441473" lon="0.737265">
        <ele>1201</ele>
        <time>1970-01-01T07:14:16.000Z</time>
      </trkpt>
      <trkpt lat="42.441742" lon="0.737494">
        <ele>1200.6</ele>
        <time>1970-01-01T07:14:24.000Z</time>
      </trkpt>
      <trkpt lat="42.441795" lon="0.737485">
        <ele>1200.6</ele>
        <time>1970-01-01T07:14:25.000Z</time>
      </trkpt>
      <trkpt lat="42.441846" lon="0.737483">
        <ele>1200.4</ele>
        <time>1970-01-01T07:14:26.000Z</time>
      </trkpt>
      <trkpt lat="42.441988" lon="0.737509">
        <ele>1199.6</ele>
        <time>1970-01-01T07:14:29.000Z</time>
      </trkpt>
      <trkpt lat="42.442146" lon="0.737556">
        <ele>1198.4</ele>
        <time>1970-01-01T07:14:32.000Z</time>
      </trkpt>
      <trkpt lat="42.442355" lon="0.737692">
        <ele>1197.6</ele>
        <time>1970-01-01T07:14:36.000Z</time>
      </trkpt>
      <trkpt lat="42.442399" lon="0.73774">
        <ele>1197.4</ele>
        <time>1970-01-01T07:14:37.000Z</time>
      </trkpt>
      <trkpt lat="42.442501" lon="0.737923">
        <ele>1196.4</ele>
        <time>1970-01-01T07:14:40.000Z</time>
      </trkpt>
      <trkpt lat="42.442563" lon="0.73806">
        <ele>1195.6</ele>
        <time>1970-01-01T07:14:42.000Z</time>
      </trkpt>
      <trkpt lat="42.442601" lon="0.738122">
        <ele>1195.2</ele>
        <time>1970-01-01T07:14:43.000Z</time>
      </trkpt>
      <trkpt lat="42.442761" lon="0.738256">
        <ele>1193.6</ele>
        <time>1970-01-01T07:14:46.000Z</time>
      </trkpt>
      <trkpt lat="42.442823" lon="0.738293">
        <ele>1193.2</ele>
        <time>1970-01-01T07:14:47.000Z</time>
      </trkpt>
      <trkpt lat="42.442956" lon="0.738362">
        <ele>1192.4</ele>
        <time>1970-01-01T07:14:49.000Z</time>
      </trkpt>
      <trkpt lat="42.443095" lon="0.738422">
        <ele>1191.2</ele>
        <time>1970-01-01T07:14:51.000Z</time>
      </trkpt>
      <trkpt lat="42.443157" lon="0.738439">
        <ele>1190.4</ele>
        <time>1970-01-01T07:14:52.000Z</time>
      </trkpt>
      <trkpt lat="42.443209" lon="0.738453">
        <ele>1189.4</ele>
        <time>1970-01-01T07:14:53.000Z</time>
      </trkpt>
      <trkpt lat="42.443317" lon="0.73847">
        <ele>1188.2</ele>
        <time>1970-01-01T07:14:55.000Z</time>
      </trkpt>
      <trkpt lat="42.443436" lon="0.738469">
        <ele>1187.2</ele>
        <time>1970-01-01T07:14:57.000Z</time>
      </trkpt>
      <trkpt lat="42.443488" lon="0.738476">
        <ele>1186.4</ele>
        <time>1970-01-01T07:14:58.000Z</time>
      </trkpt>
      <trkpt lat="42.443527" lon="0.738492">
        <ele>1186.2</ele>
        <time>1970-01-01T07:14:59.000Z</time>
      </trkpt>
      <trkpt lat="42.443517" lon="0.738634">
        <ele>1185.2</ele>
        <time>1970-01-01T07:15:02.000Z</time>
      </trkpt>
      <trkpt lat="42.443493" lon="0.738685">
        <ele>1185</ele>
        <time>1970-01-01T07:15:03.000Z</time>
      </trkpt>
      <trkpt lat="42.443475" lon="0.738741">
        <ele>1184.8</ele>
        <time>1970-01-01T07:15:04.000Z</time>
      </trkpt>
      <trkpt lat="42.443554" lon="0.739048">
        <ele>1184</ele>
        <time>1970-01-01T07:15:09.000Z</time>
      </trkpt>
      <trkpt lat="42.443643" lon="0.739171">
        <ele>1183.6</ele>
        <time>1970-01-01T07:15:11.000Z</time>
      </trkpt>
      <trkpt lat="42.443692" lon="0.73923">
        <ele>1183</ele>
        <time>1970-01-01T07:15:12.000Z</time>
      </trkpt>
      <trkpt lat="42.443786" lon="0.739335">
        <ele>1182</ele>
        <time>1970-01-01T07:15:14.000Z</time>
      </trkpt>
      <trkpt lat="42.443865" lon="0.739434">
        <ele>1180.6</ele>
        <time>1970-01-01T07:15:16.000Z</time>
      </trkpt>
      <trkpt lat="42.443944" lon="0.739526">
        <ele>1179.4</ele>
        <time>1970-01-01T07:15:18.000Z</time>
      </trkpt>
      <trkpt lat="42.443989" lon="0.739577">
        <ele>1178.8</ele>
        <time>1970-01-01T07:15:19.000Z</time>
      </trkpt>
      <trkpt lat="42.444035" lon="0.739639">
        <ele>1178</ele>
        <time>1970-01-01T07:15:20.000Z</time>
      </trkpt>
      <trkpt lat="42.44408" lon="0.739709">
        <ele>1176.8</ele>
        <time>1970-01-01T07:15:21.000Z</time>
      </trkpt>
      <trkpt lat="42.444136" lon="0.739865">
        <ele>1175.4</ele>
        <time>1970-01-01T07:15:23.000Z</time>
      </trkpt>
      <trkpt lat="42.444119" lon="0.740117">
        <ele>1174.4</ele>
        <time>1970-01-01T07:15:26.000Z</time>
      </trkpt>
      <trkpt lat="42.444072" lon="0.74026">
        <ele>1173.4</ele>
        <time>1970-01-01T07:15:28.000Z</time>
      </trkpt>
      <trkpt lat="42.444022" lon="0.740403">
        <ele>1171.8</ele>
        <time>1970-01-01T07:15:30.000Z</time>
      </trkpt>
      <trkpt lat="42.44399" lon="0.740531">
        <ele>1170</ele>
        <time>1970-01-01T07:15:32.000Z</time>
      </trkpt>
      <trkpt lat="42.444029" lon="0.740625">
        <ele>1169</ele>
        <time>1970-01-01T07:15:34.000Z</time>
      </trkpt>
      <trkpt lat="42.444152" lon="0.740652">
        <ele>1167.8</ele>
        <time>1970-01-01T07:15:37.000Z</time>
      </trkpt>
      <trkpt lat="42.444251" lon="0.740633">
        <ele>1166.8</ele>
        <time>1970-01-01T07:15:39.000Z</time>
      </trkpt>
      <trkpt lat="42.444306" lon="0.740628">
        <ele>1166.2</ele>
        <time>1970-01-01T07:15:40.000Z</time>
      </trkpt>
      <trkpt lat="42.44436" lon="0.740624">
        <ele>1165.6</ele>
        <time>1970-01-01T07:15:41.000Z</time>
      </trkpt>
      <trkpt lat="42.444484" lon="0.74059">
        <ele>1164.2</ele>
        <time>1970-01-01T07:15:44.000Z</time>
      </trkpt>
      <trkpt lat="42.44455" lon="0.740544">
        <ele>1162.8</ele>
        <time>1970-01-01T07:15:46.000Z</time>
      </trkpt>
      <trkpt lat="42.444587" lon="0.74052">
        <ele>1162</ele>
        <time>1970-01-01T07:15:47.000Z</time>
      </trkpt>
      <trkpt lat="42.444623" lon="0.740494">
        <ele>1161.2</ele>
        <time>1970-01-01T07:15:48.000Z</time>
      </trkpt>
      <trkpt lat="42.444702" lon="0.740434">
        <ele>1159.6</ele>
        <time>1970-01-01T07:15:51.000Z</time>
      </trkpt>
      <trkpt lat="42.444736" lon="0.740498">
        <ele>1158.2</ele>
        <time>1970-01-01T07:15:54.000Z</time>
      </trkpt>
      <trkpt lat="42.444665" lon="0.740606">
        <ele>1157</ele>
        <time>1970-01-01T07:15:57.000Z</time>
      </trkpt>
      <trkpt lat="42.444594" lon="0.740679">
        <ele>1156.2</ele>
        <time>1970-01-01T07:15:59.000Z</time>
      </trkpt>
      <trkpt lat="42.444528" lon="0.740784">
        <ele>1154.8</ele>
        <time>1970-01-01T07:16:01.000Z</time>
      </trkpt>
      <trkpt lat="42.444458" lon="0.740874">
        <ele>1153.6</ele>
        <time>1970-01-01T07:16:03.000Z</time>
      </trkpt>
      <trkpt lat="42.444387" lon="0.740959">
        <ele>1152.2</ele>
        <time>1970-01-01T07:16:05.000Z</time>
      </trkpt>
      <trkpt lat="42.444319" lon="0.741037">
        <ele>1151.6</ele>
        <time>1970-01-01T07:16:07.000Z</time>
      </trkpt>
      <trkpt lat="42.444281" lon="0.741071">
        <ele>1151</ele>
        <time>1970-01-01T07:16:08.000Z</time>
      </trkpt>
      <trkpt lat="42.444209" lon="0.74115">
        <ele>1149.6</ele>
        <time>1970-01-01T07:16:10.000Z</time>
      </trkpt>
      <trkpt lat="42.444161" lon="0.741226">
        <ele>1148.2</ele>
        <time>1970-01-01T07:16:12.000Z</time>
      </trkpt>
      <trkpt lat="42.444152" lon="0.741267">
        <ele>1147.4</ele>
        <time>1970-01-01T07:16:13.000Z</time>
      </trkpt>
      <trkpt lat="42.444161" lon="0.741306">
        <ele>1146.8</ele>
        <time>1970-01-01T07:16:14.000Z</time>
      </trkpt>
      <trkpt lat="42.444278" lon="0.741285">
        <ele>1145.8</ele>
        <time>1970-01-01T07:16:18.000Z</time>
      </trkpt>
      <trkpt lat="42.44439" lon="0.74122">
        <ele>1145</ele>
        <time>1970-01-01T07:16:21.000Z</time>
      </trkpt>
      <trkpt lat="42.444466" lon="0.741176">
        <ele>1144.6</ele>
        <time>1970-01-01T07:16:23.000Z</time>
      </trkpt>
      <trkpt lat="42.444569" lon="0.741105">
        <ele>1143.4</ele>
        <time>1970-01-01T07:16:26.000Z</time>
      </trkpt>
      <trkpt lat="42.444681" lon="0.741038">
        <ele>1142.2</ele>
        <time>1970-01-01T07:16:29.000Z</time>
      </trkpt>
      <trkpt lat="42.444756" lon="0.741002">
        <ele>1141.2</ele>
        <time>1970-01-01T07:16:31.000Z</time>
      </trkpt>
      <trkpt lat="42.44484" lon="0.740958">
        <ele>1140</ele>
        <time>1970-01-01T07:16:33.000Z</time>
      </trkpt>
      <trkpt lat="42.444932" lon="0.740903">
        <ele>1138.8</ele>
        <time>1970-01-01T07:16:35.000Z</time>
      </trkpt>
      <trkpt lat="42.445032" lon="0.740834">
        <ele>1137.6</ele>
        <time>1970-01-01T07:16:37.000Z</time>
      </trkpt>
      <trkpt lat="42.445144" lon="0.740746">
        <ele>1136.6</ele>
        <time>1970-01-01T07:16:39.000Z</time>
      </trkpt>
      <trkpt lat="42.445202" lon="0.7407">
        <ele>1135.4</ele>
        <time>1970-01-01T07:16:40.000Z</time>
      </trkpt>
      <trkpt lat="42.445297" lon="0.740614">
        <ele>1134.4</ele>
        <time>1970-01-01T07:16:42.000Z</time>
      </trkpt>
      <trkpt lat="42.445377" lon="0.740546">
        <ele>1133.2</ele>
        <time>1970-01-01T07:16:44.000Z</time>
      </trkpt>
      <trkpt lat="42.445463" lon="0.740479">
        <ele>1132.2</ele>
        <time>1970-01-01T07:16:46.000Z</time>
      </trkpt>
      <trkpt lat="42.445509" lon="0.740454">
        <ele>1131.4</ele>
        <time>1970-01-01T07:16:47.000Z</time>
      </trkpt>
      <trkpt lat="42.445551" lon="0.740444">
        <ele>1130.4</ele>
        <time>1970-01-01T07:16:48.000Z</time>
      </trkpt>
      <trkpt lat="42.445615" lon="0.740444">
        <ele>1129</ele>
        <time>1970-01-01T07:16:50.000Z</time>
      </trkpt>
      <trkpt lat="42.445699" lon="0.740502">
        <ele>1127.8</ele>
        <time>1970-01-01T07:16:53.000Z</time>
      </trkpt>
      <trkpt lat="42.445804" lon="0.740586">
        <ele>1126.4</ele>
        <time>1970-01-01T07:16:56.000Z</time>
      </trkpt>
      <trkpt lat="42.445847" lon="0.740629">
        <ele>1125.4</ele>
        <time>1970-01-01T07:16:57.000Z</time>
      </trkpt>
      <trkpt lat="42.445915" lon="0.740745">
        <ele>1124</ele>
        <time>1970-01-01T07:16:59.000Z</time>
      </trkpt>
      <trkpt lat="42.445963" lon="0.740875">
        <ele>1123</ele>
        <time>1970-01-01T07:17:01.000Z</time>
      </trkpt>
      <trkpt lat="42.445979" lon="0.740938">
        <ele>1122.8</ele>
        <time>1970-01-01T07:17:02.000Z</time>
      </trkpt>
      <trkpt lat="42.446014" lon="0.741114">
        <ele>1122.8</ele>
        <time>1970-01-01T07:17:05.000Z</time>
      </trkpt>
      <trkpt lat="42.446107" lon="0.741385">
        <ele>1122.8</ele>
        <time>1970-01-01T07:17:10.000Z</time>
      </trkpt>
      <trkpt lat="42.446225" lon="0.741594">
        <ele>1121.4</ele>
        <time>1970-01-01T07:17:14.000Z</time>
      </trkpt>
      <trkpt lat="42.44628" lon="0.74168">
        <ele>1120.6</ele>
        <time>1970-01-01T07:17:16.000Z</time>
      </trkpt>
      <trkpt lat="42.446309" lon="0.741736">
        <ele>1120.2</ele>
        <time>1970-01-01T07:17:17.000Z</time>
      </trkpt>
      <trkpt lat="42.446346" lon="0.741791">
        <ele>1119.8</ele>
        <time>1970-01-01T07:17:18.000Z</time>
      </trkpt>
      <trkpt lat="42.446445" lon="0.74189">
        <ele>1119.2</ele>
        <time>1970-01-01T07:17:20.000Z</time>
      </trkpt>
      <trkpt lat="42.446554" lon="0.74193">
        <ele>1118</ele>
        <time>1970-01-01T07:17:22.000Z</time>
      </trkpt>
      <trkpt lat="42.446727" lon="0.741596">
        <ele>1117</ele>
        <time>1970-01-01T07:17:29.000Z</time>
      </trkpt>
      <trkpt lat="42.446881" lon="0.74144">
        <ele>1117</ele>
        <time>1970-01-01T07:17:35.000Z</time>
      </trkpt>
      <trkpt lat="42.447051" lon="0.741492">
        <ele>1118.2</ele>
        <time>1970-01-01T07:17:42.000Z</time>
      </trkpt>
      <trkpt lat="42.447434" lon="0.741699">
        <ele>1117.6</ele>
        <time>1970-01-01T07:17:54.000Z</time>
      </trkpt>
      <trkpt lat="42.447508" lon="0.74174">
        <ele>1117.4</ele>
        <time>1970-01-01T07:17:56.000Z</time>
      </trkpt>
      <trkpt lat="42.44766" lon="0.741761">
        <ele>1117</ele>
        <time>1970-01-01T07:18:00.000Z</time>
      </trkpt>
      <trkpt lat="42.447703" lon="0.741773">
        <ele>1116.8</ele>
        <time>1970-01-01T07:18:01.000Z</time>
      </trkpt>
      <trkpt lat="42.447846" lon="0.741878">
        <ele>1116.4</ele>
        <time>1970-01-01T07:18:05.000Z</time>
      </trkpt>
      <trkpt lat="42.448057" lon="0.742001">
        <ele>1116.6</ele>
        <time>1970-01-01T07:18:11.000Z</time>
      </trkpt>
      <trkpt lat="42.448573" lon="0.741822">
        <ele>1117.2</ele>
        <time>1970-01-01T07:18:25.000Z</time>
      </trkpt>
      <trkpt lat="42.448836" lon="0.741689">
        <ele>1118.8</ele>
        <time>1970-01-01T07:18:35.000Z</time>
      </trkpt>
      <trkpt lat="42.449172" lon="0.741663">
        <ele>1117.6</ele>
        <time>1970-01-01T07:18:45.000Z</time>
      </trkpt>
      <trkpt lat="42.449435" lon="0.742232">
        <ele>1116.4</ele>
        <time>1970-01-01T07:19:03.000Z</time>
      </trkpt>
      <trkpt lat="42.449337" lon="0.742439">
        <ele>1115.2</ele>
        <time>1970-01-01T07:19:07.000Z</time>
      </trkpt>
      <trkpt lat="42.449315" lon="0.742504">
        <ele>1115</ele>
        <time>1970-01-01T07:19:08.000Z</time>
      </trkpt>
      <trkpt lat="42.449288" lon="0.742651">
        <ele>1114</ele>
        <time>1970-01-01T07:19:10.000Z</time>
      </trkpt>
      <trkpt lat="42.449252" lon="0.742808">
        <ele>1112.8</ele>
        <time>1970-01-01T07:19:12.000Z</time>
      </trkpt>
      <trkpt lat="42.44921" lon="0.742948">
        <ele>1112.2</ele>
        <time>1970-01-01T07:19:14.000Z</time>
      </trkpt>
      <trkpt lat="42.449148" lon="0.743114">
        <ele>1111.6</ele>
        <time>1970-01-01T07:19:16.000Z</time>
      </trkpt>
      <trkpt lat="42.449056" lon="0.743273">
        <ele>1111</ele>
        <time>1970-01-01T07:19:18.000Z</time>
      </trkpt>
      <trkpt lat="42.449017" lon="0.743349">
        <ele>1110</ele>
        <time>1970-01-01T07:19:19.000Z</time>
      </trkpt>
      <trkpt lat="42.449001" lon="0.743515">
        <ele>1108.6</ele>
        <time>1970-01-01T07:19:21.000Z</time>
      </trkpt>
      <trkpt lat="42.449049" lon="0.743665">
        <ele>1107.8</ele>
        <time>1970-01-01T07:19:23.000Z</time>
      </trkpt>
      <trkpt lat="42.449071" lon="0.743739">
        <ele>1107.6</ele>
        <time>1970-01-01T07:19:24.000Z</time>
      </trkpt>
      <trkpt lat="42.449082" lon="0.743817">
        <ele>1107.4</ele>
        <time>1970-01-01T07:19:25.000Z</time>
      </trkpt>
      <trkpt lat="42.449041" lon="0.744046">
        <ele>1106.4</ele>
        <time>1970-01-01T07:19:28.000Z</time>
      </trkpt>
      <trkpt lat="42.448973" lon="0.744187">
        <ele>1105.4</ele>
        <time>1970-01-01T07:19:30.000Z</time>
      </trkpt>
      <trkpt lat="42.448899" lon="0.744349">
        <ele>1104.2</ele>
        <time>1970-01-01T07:19:32.000Z</time>
      </trkpt>
      <trkpt lat="42.448864" lon="0.744435">
        <ele>1103.4</ele>
        <time>1970-01-01T07:19:33.000Z</time>
      </trkpt>
      <trkpt lat="42.448843" lon="0.744528">
        <ele>1102.4</ele>
        <time>1970-01-01T07:19:34.000Z</time>
      </trkpt>
      <trkpt lat="42.448833" lon="0.744624">
        <ele>1101.2</ele>
        <time>1970-01-01T07:19:35.000Z</time>
      </trkpt>
      <trkpt lat="42.448834" lon="0.744711">
        <ele>1100</ele>
        <time>1970-01-01T07:19:36.000Z</time>
      </trkpt>
      <trkpt lat="42.448861" lon="0.744886">
        <ele>1098.4</ele>
        <time>1970-01-01T07:19:38.000Z</time>
      </trkpt>
      <trkpt lat="42.448865" lon="0.744972">
        <ele>1097.2</ele>
        <time>1970-01-01T07:19:39.000Z</time>
      </trkpt>
      <trkpt lat="42.448858" lon="0.745059">
        <ele>1096.2</ele>
        <time>1970-01-01T07:19:40.000Z</time>
      </trkpt>
      <trkpt lat="42.448853" lon="0.745145">
        <ele>1094.8</ele>
        <time>1970-01-01T07:19:41.000Z</time>
      </trkpt>
      <trkpt lat="42.448855" lon="0.745222">
        <ele>1093.8</ele>
        <time>1970-01-01T07:19:42.000Z</time>
      </trkpt>
      <trkpt lat="42.448866" lon="0.745295">
        <ele>1092.6</ele>
        <time>1970-01-01T07:19:43.000Z</time>
      </trkpt>
      <trkpt lat="42.44888" lon="0.745363">
        <ele>1091.8</ele>
        <time>1970-01-01T07:19:44.000Z</time>
      </trkpt>
      <trkpt lat="42.4489" lon="0.745427">
        <ele>1090.8</ele>
        <time>1970-01-01T07:19:45.000Z</time>
      </trkpt>
      <trkpt lat="42.448924" lon="0.74553">
        <ele>1089.6</ele>
        <time>1970-01-01T07:19:47.000Z</time>
      </trkpt>
      <trkpt lat="42.448903" lon="0.745601">
        <ele>1088.2</ele>
        <time>1970-01-01T07:19:49.000Z</time>
      </trkpt>
      <trkpt lat="42.448837" lon="0.745588">
        <ele>1086.8</ele>
        <time>1970-01-01T07:19:52.000Z</time>
      </trkpt>
      <trkpt lat="42.448797" lon="0.745518">
        <ele>1085.6</ele>
        <time>1970-01-01T07:19:54.000Z</time>
      </trkpt>
      <trkpt lat="42.448774" lon="0.74547">
        <ele>1085.2</ele>
        <time>1970-01-01T07:19:55.000Z</time>
      </trkpt>
      <trkpt lat="42.448745" lon="0.74542">
        <ele>1084.8</ele>
        <time>1970-01-01T07:19:56.000Z</time>
      </trkpt>
      <trkpt lat="42.448716" lon="0.745372">
        <ele>1084</ele>
        <time>1970-01-01T07:19:57.000Z</time>
      </trkpt>
      <trkpt lat="42.448662" lon="0.74527">
        <ele>1082.8</ele>
        <time>1970-01-01T07:19:59.000Z</time>
      </trkpt>
      <trkpt lat="42.448612" lon="0.745172">
        <ele>1081.4</ele>
        <time>1970-01-01T07:20:01.000Z</time>
      </trkpt>
      <trkpt lat="42.448532" lon="0.745106">
        <ele>1079.8</ele>
        <time>1970-01-01T07:20:03.000Z</time>
      </trkpt>
      <trkpt lat="42.44846" lon="0.745103">
        <ele>1078.4</ele>
        <time>1970-01-01T07:20:05.000Z</time>
      </trkpt>
      <trkpt lat="42.448421" lon="0.745155">
        <ele>1077.4</ele>
        <time>1970-01-01T07:20:07.000Z</time>
      </trkpt>
      <trkpt lat="42.448424" lon="0.745242">
        <ele>1076.4</ele>
        <time>1970-01-01T07:20:09.000Z</time>
      </trkpt>
      <trkpt lat="42.448433" lon="0.745299">
        <ele>1075.8</ele>
        <time>1970-01-01T07:20:10.000Z</time>
      </trkpt>
      <trkpt lat="42.448447" lon="0.745358">
        <ele>1075.6</ele>
        <time>1970-01-01T07:20:11.000Z</time>
      </trkpt>
      <trkpt lat="42.448462" lon="0.745421">
        <ele>1075</ele>
        <time>1970-01-01T07:20:12.000Z</time>
      </trkpt>
      <trkpt lat="42.448489" lon="0.745564">
        <ele>1073.2</ele>
        <time>1970-01-01T07:20:14.000Z</time>
      </trkpt>
      <trkpt lat="42.448505" lon="0.745642">
        <ele>1072.4</ele>
        <time>1970-01-01T07:20:15.000Z</time>
      </trkpt>
      <trkpt lat="42.44853" lon="0.745726">
        <ele>1071.8</ele>
        <time>1970-01-01T07:20:16.000Z</time>
      </trkpt>
      <trkpt lat="42.448588" lon="0.745895">
        <ele>1070.2</ele>
        <time>1970-01-01T07:20:18.000Z</time>
      </trkpt>
      <trkpt lat="42.448636" lon="0.746065">
        <ele>1068.6</ele>
        <time>1970-01-01T07:20:20.000Z</time>
      </trkpt>
      <trkpt lat="42.448664" lon="0.746148">
        <ele>1068</ele>
        <time>1970-01-01T07:20:21.000Z</time>
      </trkpt>
      <trkpt lat="42.448703" lon="0.746231">
        <ele>1067.2</ele>
        <time>1970-01-01T07:20:22.000Z</time>
      </trkpt>
      <trkpt lat="42.448781" lon="0.746411">
        <ele>1065.6</ele>
        <time>1970-01-01T07:20:24.000Z</time>
      </trkpt>
      <trkpt lat="42.44882" lon="0.746585">
        <ele>1064</ele>
        <time>1970-01-01T07:20:26.000Z</time>
      </trkpt>
      <trkpt lat="42.44886" lon="0.746781">
        <ele>1062.8</ele>
        <time>1970-01-01T07:20:29.000Z</time>
      </trkpt>
      <trkpt lat="42.448918" lon="0.746947">
        <ele>1062.6</ele>
        <time>1970-01-01T07:20:32.000Z</time>
      </trkpt>
      <trkpt lat="42.449086" lon="0.747311">
        <ele>1064</ele>
        <time>1970-01-01T07:20:41.000Z</time>
      </trkpt>
      <trkpt lat="42.449393" lon="0.747619">
        <ele>1065.4</ele>
        <time>1970-01-01T07:20:55.000Z</time>
      </trkpt>
      <trkpt lat="42.44969" lon="0.747885">
        <ele>1066.4</ele>
        <time>1970-01-01T07:21:06.000Z</time>
      </trkpt>
      <trkpt lat="42.449984" lon="0.748186">
        <ele>1067.6</ele>
        <time>1970-01-01T07:21:17.000Z</time>
      </trkpt>
      <trkpt lat="42.450125" lon="0.7482">
        <ele>1067.6</ele>
        <time>1970-01-01T07:21:21.000Z</time>
      </trkpt>
      <trkpt lat="42.450265" lon="0.748051">
        <ele>1066.8</ele>
        <time>1970-01-01T07:21:25.000Z</time>
      </trkpt>
      <trkpt lat="42.4503" lon="0.748007">
        <ele>1066.6</ele>
        <time>1970-01-01T07:21:26.000Z</time>
      </trkpt>
      <trkpt lat="42.450412" lon="0.74788">
        <ele>1066</ele>
        <time>1970-01-01T07:21:29.000Z</time>
      </trkpt>
      <trkpt lat="42.450509" lon="0.747734">
        <ele>1065.6</ele>
        <time>1970-01-01T07:21:32.000Z</time>
      </trkpt>
      <trkpt lat="42.450543" lon="0.747689">
        <ele>1065.4</ele>
        <time>1970-01-01T07:21:33.000Z</time>
      </trkpt>
      <trkpt lat="42.4507" lon="0.747608">
        <ele>1064.8</ele>
        <time>1970-01-01T07:21:37.000Z</time>
      </trkpt>
      <trkpt lat="42.450794" lon="0.747616">
        <ele>1064.6</ele>
        <time>1970-01-01T07:21:39.000Z</time>
      </trkpt>
      <trkpt lat="42.450922" lon="0.747648">
        <ele>1064.4</ele>
        <time>1970-01-01T07:21:42.000Z</time>
      </trkpt>
      <trkpt lat="42.451465" lon="0.7478">
        <ele>1065.2</ele>
        <time>1970-01-01T07:21:55.000Z</time>
      </trkpt>
      <trkpt lat="42.451836" lon="0.747933">
        <ele>1065.6</ele>
        <time>1970-01-01T07:22:04.000Z</time>
      </trkpt>
      <trkpt lat="42.451935" lon="0.748177">
        <ele>1065.2</ele>
        <time>1970-01-01T07:22:10.000Z</time>
      </trkpt>
      <trkpt lat="42.452013" lon="0.748387">
        <ele>1066.2</ele>
        <time>1970-01-01T07:22:15.000Z</time>
      </trkpt>
      <trkpt lat="42.452521" lon="0.748669">
        <ele>1065</ele>
        <time>1970-01-01T07:22:32.000Z</time>
      </trkpt>
      <trkpt lat="42.4528" lon="0.748391">
        <ele>1064.4</ele>
        <time>1970-01-01T07:22:42.000Z</time>
      </trkpt>
      <trkpt lat="42.452914" lon="0.748505">
        <ele>1064.4</ele>
        <time>1970-01-01T07:22:47.000Z</time>
      </trkpt>
      <trkpt lat="42.453022" lon="0.748773">
        <ele>1064</ele>
        <time>1970-01-01T07:22:52.000Z</time>
      </trkpt>
      <trkpt lat="42.453104" lon="0.749025">
        <ele>1063.4</ele>
        <time>1970-01-01T07:22:56.000Z</time>
      </trkpt>
      <trkpt lat="42.453179" lon="0.749127">
        <ele>1063</ele>
        <time>1970-01-01T07:22:58.000Z</time>
      </trkpt>
      <trkpt lat="42.453267" lon="0.749211">
        <ele>1062.6</ele>
        <time>1970-01-01T07:23:00.000Z</time>
      </trkpt>
      <trkpt lat="42.453524" lon="0.749288">
        <ele>1062</ele>
        <time>1970-01-01T07:23:05.000Z</time>
      </trkpt>
      <trkpt lat="42.453677" lon="0.749321">
        <ele>1061.6</ele>
        <time>1970-01-01T07:23:08.000Z</time>
      </trkpt>
      <trkpt lat="42.453849" lon="0.749428">
        <ele>1061.6</ele>
        <time>1970-01-01T07:23:12.000Z</time>
      </trkpt>
      <trkpt lat="42.453973" lon="0.749533">
        <ele>1061.4</ele>
        <time>1970-01-01T07:23:15.000Z</time>
      </trkpt>
      <trkpt lat="42.45422" lon="0.749745">
        <ele>1061.4</ele>
        <time>1970-01-01T07:23:21.000Z</time>
      </trkpt>
      <trkpt lat="42.454303" lon="0.749796">
        <ele>1061.8</ele>
        <time>1970-01-01T07:23:23.000Z</time>
      </trkpt>
      <trkpt lat="42.454462" lon="0.749853">
        <ele>1062</ele>
        <time>1970-01-01T07:23:27.000Z</time>
      </trkpt>
      <trkpt lat="42.454708" lon="0.74959">
        <ele>1061.6</ele>
        <time>1970-01-01T07:23:34.000Z</time>
      </trkpt>
      <trkpt lat="42.454804" lon="0.74942">
        <ele>1061.4</ele>
        <time>1970-01-01T07:23:37.000Z</time>
      </trkpt>
      <trkpt lat="42.45484" lon="0.749375">
        <ele>1061.2</ele>
        <time>1970-01-01T07:23:38.000Z</time>
      </trkpt>
      <trkpt lat="42.454877" lon="0.749339">
        <ele>1061</ele>
        <time>1970-01-01T07:23:39.000Z</time>
      </trkpt>
      <trkpt lat="42.455022" lon="0.749281">
        <ele>1059.8</ele>
        <time>1970-01-01T07:23:42.000Z</time>
      </trkpt>
      <trkpt lat="42.455144" lon="0.749312">
        <ele>1058.8</ele>
        <time>1970-01-01T07:23:44.000Z</time>
      </trkpt>
      <trkpt lat="42.455307" lon="0.749488">
        <ele>1058</ele>
        <time>1970-01-01T07:23:47.000Z</time>
      </trkpt>
      <trkpt lat="42.455363" lon="0.74954">
        <ele>1057.6</ele>
        <time>1970-01-01T07:23:48.000Z</time>
      </trkpt>
      <trkpt lat="42.455608" lon="0.749522">
        <ele>1057</ele>
        <time>1970-01-01T07:23:52.000Z</time>
      </trkpt>
      <trkpt lat="42.455662" lon="0.749491">
        <ele>1056.6</ele>
        <time>1970-01-01T07:23:53.000Z</time>
      </trkpt>
      <trkpt lat="42.455923" lon="0.749288">
        <ele>1055.8</ele>
        <time>1970-01-01T07:23:58.000Z</time>
      </trkpt>
      <trkpt lat="42.456138" lon="0.749116">
        <ele>1054.6</ele>
        <time>1970-01-01T07:24:02.000Z</time>
      </trkpt>
      <trkpt lat="42.456236" lon="0.749034">
        <ele>1054.4</ele>
        <time>1970-01-01T07:24:04.000Z</time>
      </trkpt>
      <trkpt lat="42.456383" lon="0.748877">
        <ele>1053.6</ele>
        <time>1970-01-01T07:24:08.000Z</time>
      </trkpt>
      <trkpt lat="42.456422" lon="0.748875">
        <ele>1053</ele>
        <time>1970-01-01T07:24:09.000Z</time>
      </trkpt>
      <trkpt lat="42.456505" lon="0.748917">
        <ele>1052.6</ele>
        <time>1970-01-01T07:24:11.000Z</time>
      </trkpt>
      <trkpt lat="42.456662" lon="0.749107">
        <ele>1052.4</ele>
        <time>1970-01-01T07:24:16.000Z</time>
      </trkpt>
      <trkpt lat="42.456702" lon="0.74925">
        <ele>1052.2</ele>
        <time>1970-01-01T07:24:22.000Z</time>
      </trkpt>
      <trkpt lat="42.456658" lon="0.74933">
        <ele>1052.4</ele>
        <time>1970-01-01T07:24:32.000Z</time>
      </trkpt>
      <trkpt lat="42.456493" lon="0.749526">
        <ele>1054</ele>
        <time>1970-01-01T07:24:42.000Z</time>
      </trkpt>
      <trkpt lat="42.456464" lon="0.749659">
        <ele>1055.2</ele>
        <time>1970-01-01T07:24:48.000Z</time>
      </trkpt>
      <trkpt lat="42.456462" lon="0.749704">
        <ele>1055.6</ele>
        <time>1970-01-01T07:24:50.000Z</time>
      </trkpt>
      <trkpt lat="42.456475" lon="0.749801">
        <ele>1056.4</ele>
        <time>1970-01-01T07:24:54.000Z</time>
      </trkpt>
      <trkpt lat="42.456496" lon="0.74996">
        <ele>1057.4</ele>
        <time>1970-01-01T07:25:01.000Z</time>
      </trkpt>
      <trkpt lat="42.456539" lon="0.750172">
        <ele>1058.8</ele>
        <time>1970-01-01T07:25:10.000Z</time>
      </trkpt>
      <trkpt lat="42.456546" lon="0.750246">
        <ele>1058.8</ele>
        <time>1970-01-01T07:25:15.000Z</time>
      </trkpt>
      <trkpt lat="42.456532" lon="0.750141">
        <ele>1058.6</ele>
        <time>1970-01-01T07:25:55.000Z</time>
      </trkpt>
      <trkpt lat="42.456506" lon="0.750004">
        <ele>1058</ele>
        <time>1970-01-01T07:25:59.000Z</time>
      </trkpt>
      <trkpt lat="42.456475" lon="0.749733">
        <ele>1057</ele>
        <time>1970-01-01T07:26:05.000Z</time>
      </trkpt>
      <trkpt lat="42.456482" lon="0.749576">
        <ele>1055.6</ele>
        <time>1970-01-01T07:26:08.000Z</time>
      </trkpt>
      <trkpt lat="42.456547" lon="0.749471">
        <ele>1054.6</ele>
        <time>1970-01-01T07:26:11.000Z</time>
      </trkpt>
      <trkpt lat="42.456646" lon="0.749378">
        <ele>1053.4</ele>
        <time>1970-01-01T07:26:15.000Z</time>
      </trkpt>
      <trkpt lat="42.456714" lon="0.749285">
        <ele>1052.2</ele>
        <time>1970-01-01T07:26:21.000Z</time>
      </trkpt>
      <trkpt lat="42.456735" lon="0.749278">
        <ele>1052.4</ele>
        <time>1970-01-01T07:27:46.000Z</time>
      </trkpt>
      <trkpt lat="42.456661" lon="0.749413">
        <ele>1053</ele>
        <time>1970-01-01T07:27:55.000Z</time>
      </trkpt>
      <trkpt lat="42.456494" lon="0.7496">
        <ele>1054.4</ele>
        <time>1970-01-01T07:28:09.000Z</time>
      </trkpt>
      <trkpt lat="42.456492" lon="0.749779">
        <ele>1055.8</ele>
        <time>1970-01-01T07:28:17.000Z</time>
      </trkpt>
      <trkpt lat="42.456501" lon="0.749906">
        <ele>1056.8</ele>
        <time>1970-01-01T07:28:22.000Z</time>
      </trkpt>
      <trkpt lat="42.456547" lon="0.750098">
        <ele>1058.2</ele>
        <time>1970-01-01T07:28:30.000Z</time>
      </trkpt>
      <trkpt lat="42.456551" lon="0.750393">
        <ele>1059.2</ele>
        <time>1970-01-01T07:28:40.000Z</time>
      </trkpt>
      <trkpt lat="42.456318" lon="0.751033">
        <ele>1059</ele>
        <time>1970-01-01T07:28:57.000Z</time>
      </trkpt>
      <trkpt lat="42.456189" lon="0.751126">
        <ele>1058.2</ele>
        <time>1970-01-01T07:29:00.000Z</time>
      </trkpt>
      <trkpt lat="42.456121" lon="0.751243">
        <ele>1057.2</ele>
        <time>1970-01-01T07:29:02.000Z</time>
      </trkpt>
      <trkpt lat="42.45602" lon="0.751444">
        <ele>1055.6</ele>
        <time>1970-01-01T07:29:05.000Z</time>
      </trkpt>
      <trkpt lat="42.455962" lon="0.751606">
        <ele>1054.8</ele>
        <time>1970-01-01T07:29:07.000Z</time>
      </trkpt>
      <trkpt lat="42.455941" lon="0.751695">
        <ele>1054.6</ele>
        <time>1970-01-01T07:29:08.000Z</time>
      </trkpt>
      <trkpt lat="42.455909" lon="0.751966">
        <ele>1053.4</ele>
        <time>1970-01-01T07:29:11.000Z</time>
      </trkpt>
      <trkpt lat="42.455906" lon="0.752146">
        <ele>1052.6</ele>
        <time>1970-01-01T07:29:13.000Z</time>
      </trkpt>
      <trkpt lat="42.455911" lon="0.752233">
        <ele>1052</ele>
        <time>1970-01-01T07:29:14.000Z</time>
      </trkpt>
      <trkpt lat="42.4559" lon="0.752498">
        <ele>1051.2</ele>
        <time>1970-01-01T07:29:17.000Z</time>
      </trkpt>
      <trkpt lat="42.45589" lon="0.752585">
        <ele>1051</ele>
        <time>1970-01-01T07:29:18.000Z</time>
      </trkpt>
      <trkpt lat="42.455871" lon="0.752665">
        <ele>1051</ele>
        <time>1970-01-01T07:29:19.000Z</time>
      </trkpt>
      <trkpt lat="42.455701" lon="0.752884">
        <ele>1049.8</ele>
        <time>1970-01-01T07:29:24.000Z</time>
      </trkpt>
      <trkpt lat="42.455636" lon="0.752946">
        <ele>1049.4</ele>
        <time>1970-01-01T07:29:26.000Z</time>
      </trkpt>
      <trkpt lat="42.455534" lon="0.753102">
        <ele>1048.8</ele>
        <time>1970-01-01T07:29:29.000Z</time>
      </trkpt>
      <trkpt lat="42.45553" lon="0.753409">
        <ele>1047.6</ele>
        <time>1970-01-01T07:29:33.000Z</time>
      </trkpt>
      <trkpt lat="42.455599" lon="0.753547">
        <ele>1047</ele>
        <time>1970-01-01T07:29:35.000Z</time>
      </trkpt>
      <trkpt lat="42.455674" lon="0.753667">
        <ele>1046.6</ele>
        <time>1970-01-01T07:29:37.000Z</time>
      </trkpt>
      <trkpt lat="42.455712" lon="0.753715">
        <ele>1046.4</ele>
        <time>1970-01-01T07:29:38.000Z</time>
      </trkpt>
      <trkpt lat="42.455782" lon="0.753779">
        <ele>1045.6</ele>
        <time>1970-01-01T07:29:40.000Z</time>
      </trkpt>
      <trkpt lat="42.455895" lon="0.753884">
        <ele>1044.6</ele>
        <time>1970-01-01T07:29:43.000Z</time>
      </trkpt>
      <trkpt lat="42.455935" lon="0.753919">
        <ele>1044.4</ele>
        <time>1970-01-01T07:29:44.000Z</time>
      </trkpt>
      <trkpt lat="42.456013" lon="0.754003">
        <ele>1043.8</ele>
        <time>1970-01-01T07:29:46.000Z</time>
      </trkpt>
      <trkpt lat="42.456101" lon="0.754167">
        <ele>1043</ele>
        <time>1970-01-01T07:29:49.000Z</time>
      </trkpt>
      <trkpt lat="42.456122" lon="0.754403">
        <ele>1041.8</ele>
        <time>1970-01-01T07:29:52.000Z</time>
      </trkpt>
      <trkpt lat="42.456119" lon="0.754497">
        <ele>1041.6</ele>
        <time>1970-01-01T07:29:53.000Z</time>
      </trkpt>
      <trkpt lat="42.456121" lon="0.754704">
        <ele>1040.8</ele>
        <time>1970-01-01T07:29:55.000Z</time>
      </trkpt>
      <trkpt lat="42.456146" lon="0.75503">
        <ele>1039.4</ele>
        <time>1970-01-01T07:29:58.000Z</time>
      </trkpt>
      <trkpt lat="42.456114" lon="0.755227">
        <ele>1038.2</ele>
        <time>1970-01-01T07:30:00.000Z</time>
      </trkpt>
      <trkpt lat="42.456055" lon="0.75549">
        <ele>1037.8</ele>
        <time>1970-01-01T07:30:03.000Z</time>
      </trkpt>
      <trkpt lat="42.456026" lon="0.755659">
        <ele>1037.8</ele>
        <time>1970-01-01T07:30:05.000Z</time>
      </trkpt>
      <trkpt lat="42.455957" lon="0.755858">
        <ele>1037.8</ele>
        <time>1970-01-01T07:30:08.000Z</time>
      </trkpt>
      <trkpt lat="42.455915" lon="0.75659">
        <ele>1039</ele>
        <time>1970-01-01T07:30:21.000Z</time>
      </trkpt>
      <trkpt lat="42.455998" lon="0.756817">
        <ele>1039.4</ele>
        <time>1970-01-01T07:30:26.000Z</time>
      </trkpt>
      <trkpt lat="42.456216" lon="0.757469">
        <ele>1039.2</ele>
        <time>1970-01-01T07:30:41.000Z</time>
      </trkpt>
      <trkpt lat="42.456207" lon="0.757496">
        <ele>1039</ele>
        <time>1970-01-01T07:30:42.000Z</time>
      </trkpt>
      <trkpt lat="42.456196" lon="0.757514">
        <ele>1038.8</ele>
        <time>1970-01-01T07:30:44.000Z</time>
      </trkpt>
      <trkpt lat="42.456234" lon="0.757462">
        <ele>1032.2</ele>
        <time>1970-01-01T07:40:42.000Z</time>
      </trkpt>
      <trkpt lat="42.456392" lon="0.757579">
        <ele>1031</ele>
        <time>1970-01-01T07:40:47.000Z</time>
      </trkpt>
      <trkpt lat="42.456444" lon="0.757616">
        <ele>1030.6</ele>
        <time>1970-01-01T07:40:48.000Z</time>
      </trkpt>
      <trkpt lat="42.456496" lon="0.757663">
        <ele>1029.6</ele>
        <time>1970-01-01T07:40:49.000Z</time>
      </trkpt>
      <trkpt lat="42.456596" lon="0.757768">
        <ele>1028.2</ele>
        <time>1970-01-01T07:40:51.000Z</time>
      </trkpt>
      <trkpt lat="42.456695" lon="0.757869">
        <ele>1027.2</ele>
        <time>1970-01-01T07:40:53.000Z</time>
      </trkpt>
      <trkpt lat="42.456739" lon="0.757922">
        <ele>1026.4</ele>
        <time>1970-01-01T07:40:54.000Z</time>
      </trkpt>
      <trkpt lat="42.456772" lon="0.757973">
        <ele>1026</ele>
        <time>1970-01-01T07:40:55.000Z</time>
      </trkpt>
      <trkpt lat="42.456817" lon="0.75806">
        <ele>1024.8</ele>
        <time>1970-01-01T07:40:57.000Z</time>
      </trkpt>
      <trkpt lat="42.456855" lon="0.758155">
        <ele>1023.6</ele>
        <time>1970-01-01T07:41:01.000Z</time>
      </trkpt>
      <trkpt lat="42.456855" lon="0.758377">
        <ele>1022.2</ele>
        <time>1970-01-01T07:41:06.000Z</time>
      </trkpt>
      <trkpt lat="42.456843" lon="0.758527">
        <ele>1021</ele>
        <time>1970-01-01T07:41:09.000Z</time>
      </trkpt>
      <trkpt lat="42.45683" lon="0.758552">
        <ele>1020.6</ele>
        <time>1970-01-01T07:41:10.000Z</time>
      </trkpt>
      <trkpt lat="42.456826" lon="0.758632">
        <ele>1019.8</ele>
        <time>1970-01-01T07:41:14.000Z</time>
      </trkpt>
      <trkpt lat="42.456845" lon="0.758713">
        <ele>1019.6</ele>
        <time>1970-01-01T07:41:16.000Z</time>
      </trkpt>
      <trkpt lat="42.456881" lon="0.758855">
        <ele>1019</ele>
        <time>1970-01-01T07:41:21.000Z</time>
      </trkpt>
      <trkpt lat="42.456879" lon="0.758864">
        <ele>1018.8</ele>
        <time>1970-01-01T07:41:23.000Z</time>
      </trkpt>
      <trkpt lat="42.456905" lon="0.758964">
        <ele>1018.6</ele>
        <time>1970-01-01T07:41:33.000Z</time>
      </trkpt>
      <trkpt lat="42.456973" lon="0.759261">
        <ele>1018</ele>
        <time>1970-01-01T07:41:42.000Z</time>
      </trkpt>
      <trkpt lat="42.456973" lon="0.759261">
        <ele>1018</ele>
        <time>1970-01-01T07:41:42.000Z</time>
      </trkpt>
      <trkpt lat="42.456957" lon="0.759179">
        <ele>1017.8</ele>
        <time>1970-01-01T07:41:53.000Z</time>
      </trkpt>
      <trkpt lat="42.456936" lon="0.75907">
        <ele>1018.2</ele>
        <time>1970-01-01T07:41:58.000Z</time>
      </trkpt>
      <trkpt lat="42.456932" lon="0.758998">
        <ele>1018.6</ele>
        <time>1970-01-01T07:42:03.000Z</time>
      </trkpt>
      <trkpt lat="42.456935" lon="0.759123">
        <ele>1018.2</ele>
        <time>1970-01-01T07:43:18.000Z</time>
      </trkpt>
      <trkpt lat="42.456929" lon="0.759157">
        <ele>1018</ele>
        <time>1970-01-01T07:43:22.000Z</time>
      </trkpt>
      <trkpt lat="42.45687" lon="0.759185">
        <ele>1017.6</ele>
        <time>1970-01-01T07:44:29.000Z</time>
      </trkpt>
      <trkpt lat="42.456847" lon="0.759201">
        <ele>1017</ele>
        <time>1970-01-01T07:44:31.000Z</time>
      </trkpt>
      <trkpt lat="42.456805" lon="0.759247">
        <ele>1016</ele>
        <time>1970-01-01T07:44:36.000Z</time>
      </trkpt>
      <trkpt lat="42.456766" lon="0.759297">
        <ele>1014.8</ele>
        <time>1970-01-01T07:44:40.000Z</time>
      </trkpt>
      <trkpt lat="42.456699" lon="0.759311">
        <ele>1013.6</ele>
        <time>1970-01-01T07:44:45.000Z</time>
      </trkpt>
      <trkpt lat="42.456693" lon="0.75938">
        <ele>1012.6</ele>
        <time>1970-01-01T07:44:50.000Z</time>
      </trkpt>
      <trkpt lat="42.456721" lon="0.759465">
        <ele>1011.6</ele>
        <time>1970-01-01T07:44:55.000Z</time>
      </trkpt>
      <trkpt lat="42.456747" lon="0.759545">
        <ele>1010.2</ele>
        <time>1970-01-01T07:44:59.000Z</time>
      </trkpt>
      <trkpt lat="42.456764" lon="0.759604">
        <ele>1009.2</ele>
        <time>1970-01-01T07:45:02.000Z</time>
      </trkpt>
      <trkpt lat="42.456786" lon="0.759644">
        <ele>1008</ele>
        <time>1970-01-01T07:45:05.000Z</time>
      </trkpt>
      <trkpt lat="42.45681" lon="0.759687">
        <ele>1007</ele>
        <time>1970-01-01T07:45:07.000Z</time>
      </trkpt>
      <trkpt lat="42.456838" lon="0.759773">
        <ele>1005.6</ele>
        <time>1970-01-01T07:45:09.000Z</time>
      </trkpt>
      <trkpt lat="42.456883" lon="0.759889">
        <ele>1003.8</ele>
        <time>1970-01-01T07:45:11.000Z</time>
      </trkpt>
      <trkpt lat="42.456933" lon="0.760007">
        <ele>1002.4</ele>
        <time>1970-01-01T07:45:13.000Z</time>
      </trkpt>
      <trkpt lat="42.457003" lon="0.760102">
        <ele>1000.6</ele>
        <time>1970-01-01T07:45:15.000Z</time>
      </trkpt>
      <trkpt lat="42.457071" lon="0.760174">
        <ele>999.2</ele>
        <time>1970-01-01T07:45:17.000Z</time>
      </trkpt>
      <trkpt lat="42.457136" lon="0.760232">
        <ele>997.8</ele>
        <time>1970-01-01T07:45:19.000Z</time>
      </trkpt>
      <trkpt lat="42.457187" lon="0.760278">
        <ele>995.8</ele>
        <time>1970-01-01T07:45:21.000Z</time>
      </trkpt>
      <trkpt lat="42.457205" lon="0.760342">
        <ele>993.8</ele>
        <time>1970-01-01T07:45:23.000Z</time>
      </trkpt>
      <trkpt lat="42.457189" lon="0.760413">
        <ele>992.2</ele>
        <time>1970-01-01T07:45:25.000Z</time>
      </trkpt>
      <trkpt lat="42.457182" lon="0.760483">
        <ele>990.8</ele>
        <time>1970-01-01T07:45:27.000Z</time>
      </trkpt>
      <trkpt lat="42.457204" lon="0.760535">
        <ele>989.4</ele>
        <time>1970-01-01T07:45:29.000Z</time>
      </trkpt>
      <trkpt lat="42.457228" lon="0.760573">
        <ele>988.4</ele>
        <time>1970-01-01T07:45:31.000Z</time>
      </trkpt>
      <trkpt lat="42.457241" lon="0.760575">
        <ele>988.2</ele>
        <time>1970-01-01T07:45:33.000Z</time>
      </trkpt>
      <trkpt lat="42.457216" lon="0.760584">
        <ele>988</ele>
        <time>1970-01-01T07:46:53.000Z</time>
      </trkpt>
      <trkpt lat="42.457089" lon="0.760523">
        <ele>988.6</ele>
        <time>1970-01-01T07:47:00.000Z</time>
      </trkpt>
      <trkpt lat="42.456976" lon="0.760487">
        <ele>989.2</ele>
        <time>1970-01-01T07:47:04.000Z</time>
      </trkpt>
      <trkpt lat="42.456684" lon="0.760425">
        <ele>990.2</ele>
        <time>1970-01-01T07:47:13.000Z</time>
      </trkpt>
      <trkpt lat="42.45627" lon="0.760249">
        <ele>991.2</ele>
        <time>1970-01-01T07:47:25.000Z</time>
      </trkpt>
      <trkpt lat="42.455839" lon="0.759777">
        <ele>991.6</ele>
        <time>1970-01-01T07:47:38.000Z</time>
      </trkpt>
      <trkpt lat="42.45541" lon="0.759278">
        <ele>990</ele>
        <time>1970-01-01T07:47:49.000Z</time>
      </trkpt>
      <trkpt lat="42.455109" lon="0.758871">
        <ele>988.8</ele>
        <time>1970-01-01T07:47:56.000Z</time>
      </trkpt>
      <trkpt lat="42.454902" lon="0.75853">
        <ele>987.8</ele>
        <time>1970-01-01T07:48:01.000Z</time>
      </trkpt>
      <trkpt lat="42.454692" lon="0.758053">
        <ele>986.6</ele>
        <time>1970-01-01T07:48:07.000Z</time>
      </trkpt>
      <trkpt lat="42.454515" lon="0.757628">
        <ele>985.4</ele>
        <time>1970-01-01T07:48:12.000Z</time>
      </trkpt>
      <trkpt lat="42.454324" lon="0.757233">
        <ele>984.4</ele>
        <time>1970-01-01T07:48:17.000Z</time>
      </trkpt>
      <trkpt lat="42.45423" lon="0.75726">
        <ele>983.4</ele>
        <time>1970-01-01T07:48:24.000Z</time>
      </trkpt>
      <trkpt lat="42.454243" lon="0.757301">
        <ele>983.2</ele>
        <time>1970-01-01T07:49:09.000Z</time>
      </trkpt>
      <trkpt lat="42.454306" lon="0.757443">
        <ele>982.4</ele>
        <time>1970-01-01T07:49:12.000Z</time>
      </trkpt>
      <trkpt lat="42.454328" lon="0.757505">
        <ele>981.8</ele>
        <time>1970-01-01T07:49:13.000Z</time>
      </trkpt>
      <trkpt lat="42.454375" lon="0.757652">
        <ele>980.6</ele>
        <time>1970-01-01T07:49:15.000Z</time>
      </trkpt>
      <trkpt lat="42.45442" lon="0.757821">
        <ele>979</ele>
        <time>1970-01-01T07:49:17.000Z</time>
      </trkpt>
      <trkpt lat="42.454471" lon="0.757997">
        <ele>977.6</ele>
        <time>1970-01-01T07:49:19.000Z</time>
      </trkpt>
      <trkpt lat="42.454536" lon="0.758174">
        <ele>976.4</ele>
        <time>1970-01-01T07:49:21.000Z</time>
      </trkpt>
      <trkpt lat="42.454571" lon="0.75826">
        <ele>975</ele>
        <time>1970-01-01T07:49:22.000Z</time>
      </trkpt>
      <trkpt lat="42.454602" lon="0.758354">
        <ele>974</ele>
        <time>1970-01-01T07:49:23.000Z</time>
      </trkpt>
      <trkpt lat="42.454634" lon="0.758451">
        <ele>973.2</ele>
        <time>1970-01-01T07:49:24.000Z</time>
      </trkpt>
      <trkpt lat="42.454695" lon="0.758626">
        <ele>971.6</ele>
        <time>1970-01-01T07:49:26.000Z</time>
      </trkpt>
      <trkpt lat="42.454712" lon="0.7587">
        <ele>970.8</ele>
        <time>1970-01-01T07:49:27.000Z</time>
      </trkpt>
      <trkpt lat="42.454717" lon="0.758764">
        <ele>970</ele>
        <time>1970-01-01T07:49:28.000Z</time>
      </trkpt>
      <trkpt lat="42.45464" lon="0.758931">
        <ele>969</ele>
        <time>1970-01-01T07:49:32.000Z</time>
      </trkpt>
      <trkpt lat="42.454606" lon="0.758972">
        <ele>968.8</ele>
        <time>1970-01-01T07:49:33.000Z</time>
      </trkpt>
      <trkpt lat="42.454316" lon="0.759322">
        <ele>968</ele>
        <time>1970-01-01T07:49:41.000Z</time>
      </trkpt>
      <trkpt lat="42.454282" lon="0.759363">
        <ele>967.6</ele>
        <time>1970-01-01T07:49:42.000Z</time>
      </trkpt>
      <trkpt lat="42.454264" lon="0.759515">
        <ele>967.8</ele>
        <time>1970-01-01T07:49:46.000Z</time>
      </trkpt>
      <trkpt lat="42.454519" lon="0.760186">
        <ele>968.6</ele>
        <time>1970-01-01T07:50:02.000Z</time>
      </trkpt>
      <trkpt lat="42.45483" lon="0.760795">
        <ele>968.8</ele>
        <time>1970-01-01T07:50:16.000Z</time>
      </trkpt>
      <trkpt lat="42.454912" lon="0.760938">
        <ele>969.2</ele>
        <time>1970-01-01T07:50:20.000Z</time>
      </trkpt>
      <trkpt lat="42.455113" lon="0.761222">
        <ele>970.2</ele>
        <time>1970-01-01T07:50:29.000Z</time>
      </trkpt>
      <trkpt lat="42.455334" lon="0.761614">
        <ele>971.4</ele>
        <time>1970-01-01T07:50:41.000Z</time>
      </trkpt>
      <trkpt lat="42.455734" lon="0.762137">
        <ele>971.6</ele>
        <time>1970-01-01T07:50:58.000Z</time>
      </trkpt>
      <trkpt lat="42.455844" lon="0.762323">
        <ele>972.6</ele>
        <time>1970-01-01T07:51:05.000Z</time>
      </trkpt>
      <trkpt lat="42.456295" lon="0.762768">
        <ele>972.2</ele>
        <time>1970-01-01T07:51:24.000Z</time>
      </trkpt>
      <trkpt lat="42.456778" lon="0.763137">
        <ele>972.8</ele>
        <time>1970-01-01T07:51:43.000Z</time>
      </trkpt>
      <trkpt lat="42.457293" lon="0.763392">
        <ele>973.4</ele>
        <time>1970-01-01T07:52:04.000Z</time>
      </trkpt>
      <trkpt lat="42.457363" lon="0.763422">
        <ele>974</ele>
        <time>1970-01-01T07:52:07.000Z</time>
      </trkpt>
      <trkpt lat="42.457415" lon="0.763461">
        <ele>975.2</ele>
        <time>1970-01-01T07:52:11.000Z</time>
      </trkpt>
      <trkpt lat="42.457449" lon="0.763472">
        <ele>976.4</ele>
        <time>1970-01-01T07:52:15.000Z</time>
      </trkpt>
      <trkpt lat="42.457452" lon="0.763474">
        <ele>976.6</ele>
        <time>1970-01-01T07:52:16.000Z</time>
      </trkpt>
      <trkpt lat="42.457783" lon="0.763716">
        <ele>982.8</ele>
        <time>1970-01-01T07:53:03.000Z</time>
      </trkpt>
      <trkpt lat="42.457887" lon="0.763802">
        <ele>983.6</ele>
        <time>1970-01-01T07:53:09.000Z</time>
      </trkpt>
      <trkpt lat="42.45791" lon="0.763813">
        <ele>984</ele>
        <time>1970-01-01T07:53:10.000Z</time>
      </trkpt>
      <trkpt lat="42.457946" lon="0.763829">
        <ele>984.4</ele>
        <time>1970-01-01T07:53:14.000Z</time>
      </trkpt>
      <trkpt lat="42.458077" lon="0.763851">
        <ele>985.8</ele>
        <time>1970-01-01T07:54:26.000Z</time>
      </trkpt>
      <trkpt lat="42.458142" lon="0.763885">
        <ele>986.8</ele>
        <time>1970-01-01T07:54:31.000Z</time>
      </trkpt>
      <trkpt lat="42.458274" lon="0.763911">
        <ele>985.6</ele>
        <time>1970-01-01T07:54:36.000Z</time>
      </trkpt>
      <trkpt lat="42.458341" lon="0.763936">
        <ele>984.6</ele>
        <time>1970-01-01T07:54:38.000Z</time>
      </trkpt>
      <trkpt lat="42.458444" lon="0.763951">
        <ele>983.4</ele>
        <time>1970-01-01T07:54:41.000Z</time>
      </trkpt>
      <trkpt lat="42.458527" lon="0.763948">
        <ele>982.4</ele>
        <time>1970-01-01T07:54:44.000Z</time>
      </trkpt>
      <trkpt lat="42.458635" lon="0.763952">
        <ele>981.2</ele>
        <time>1970-01-01T07:54:48.000Z</time>
      </trkpt>
      <trkpt lat="42.458728" lon="0.763961">
        <ele>980</ele>
        <time>1970-01-01T07:54:52.000Z</time>
      </trkpt>
      <trkpt lat="42.458798" lon="0.763963">
        <ele>978.6</ele>
        <time>1970-01-01T07:54:55.000Z</time>
      </trkpt>
      <trkpt lat="42.458847" lon="0.763973">
        <ele>977.4</ele>
        <time>1970-01-01T07:54:57.000Z</time>
      </trkpt>
      <trkpt lat="42.458879" lon="0.763976">
        <ele>976.2</ele>
        <time>1970-01-01T07:54:59.000Z</time>
      </trkpt>
      <trkpt lat="42.45888" lon="0.763952">
        <ele>975.2</ele>
        <time>1970-01-01T07:55:01.000Z</time>
      </trkpt>
      <trkpt lat="42.458871" lon="0.763939">
        <ele>974.8</ele>
        <time>1970-01-01T07:55:02.000Z</time>
      </trkpt>
      <trkpt lat="42.458844" lon="0.763906">
        <ele>974</ele>
        <time>1970-01-01T07:55:04.000Z</time>
      </trkpt>
      <trkpt lat="42.458819" lon="0.763863">
        <ele>973.2</ele>
        <time>1970-01-01T07:55:06.000Z</time>
      </trkpt>
      <trkpt lat="42.458813" lon="0.763851">
        <ele>972.8</ele>
        <time>1970-01-01T07:55:07.000Z</time>
      </trkpt>
      <trkpt lat="42.458815" lon="0.763851">
        <ele>972.4</ele>
        <time>1970-01-01T07:55:09.000Z</time>
      </trkpt>
      <trkpt lat="42.458922" lon="0.763808">
        <ele>972.8</ele>
        <time>1970-01-01T07:55:45.000Z</time>
      </trkpt>
      <trkpt lat="42.459172" lon="0.763743">
        <ele>973.6</ele>
        <time>1970-01-01T07:55:56.000Z</time>
      </trkpt>
      <trkpt lat="42.459442" lon="0.763669">
        <ele>974.4</ele>
        <time>1970-01-01T07:56:09.000Z</time>
      </trkpt>
      <trkpt lat="42.459487" lon="0.763691">
        <ele>974.8</ele>
        <time>1970-01-01T07:56:13.000Z</time>
      </trkpt>
      <trkpt lat="42.4596" lon="0.763714">
        <ele>975.2</ele>
        <time>1970-01-01T07:56:22.000Z</time>
      </trkpt>
      <trkpt lat="42.459661" lon="0.763768">
        <ele>975.2</ele>
        <time>1970-01-01T07:56:29.000Z</time>
      </trkpt>
      <trkpt lat="42.459848" lon="0.764163">
        <ele>975.2</ele>
        <time>1970-01-01T07:56:50.000Z</time>
      </trkpt>
      <trkpt lat="42.45984" lon="0.764291">
        <ele>975.8</ele>
        <time>1970-01-01T07:57:37.000Z</time>
      </trkpt>
      <trkpt lat="42.459874" lon="0.764402">
        <ele>976.2</ele>
        <time>1970-01-01T07:57:43.000Z</time>
      </trkpt>
      <trkpt lat="42.459907" lon="0.764523">
        <ele>975.8</ele>
        <time>1970-01-01T07:57:56.000Z</time>
      </trkpt>
      <trkpt lat="42.459912" lon="0.764709">
        <ele>976.4</ele>
        <time>1970-01-01T07:58:04.000Z</time>
      </trkpt>
      <trkpt lat="42.459895" lon="0.764743">
        <ele>976.8</ele>
        <time>1970-01-01T07:58:06.000Z</time>
      </trkpt>
      <trkpt lat="42.459903" lon="0.764801">
        <ele>977.4</ele>
        <time>1970-01-01T07:58:11.000Z</time>
      </trkpt>
      <trkpt lat="42.459885" lon="0.765103">
        <ele>981.2</ele>
        <time>1970-01-01T07:58:42.000Z</time>
      </trkpt>
      <trkpt lat="42.459872" lon="0.765208">
        <ele>982.6</ele>
        <time>1970-01-01T07:58:47.000Z</time>
      </trkpt>
      <trkpt lat="42.459875" lon="0.7653">
        <ele>983.8</ele>
        <time>1970-01-01T07:58:51.000Z</time>
      </trkpt>
      <trkpt lat="42.459928" lon="0.765653">
        <ele>982.4</ele>
        <time>1970-01-01T07:59:04.000Z</time>
      </trkpt>
      <trkpt lat="42.459939" lon="0.76617">
        <ele>983.6</ele>
        <time>1970-01-01T07:59:29.000Z</time>
      </trkpt>
      <trkpt lat="42.459906" lon="0.766253">
        <ele>984.8</ele>
        <time>1970-01-01T07:59:33.000Z</time>
      </trkpt>
      <trkpt lat="42.459888" lon="0.76646">
        <ele>985.8</ele>
        <time>1970-01-01T07:59:42.000Z</time>
      </trkpt>
      <trkpt lat="42.459992" lon="0.767061">
        <ele>984.8</ele>
        <time>1970-01-01T08:00:07.000Z</time>
      </trkpt>
      <trkpt lat="42.460021" lon="0.767217">
        <ele>985.6</ele>
        <time>1970-01-01T08:02:15.000Z</time>
      </trkpt>
      <trkpt lat="42.460036" lon="0.767264">
        <ele>986.2</ele>
        <time>1970-01-01T08:02:18.000Z</time>
      </trkpt>
      <trkpt lat="42.46008" lon="0.767427">
        <ele>987.2</ele>
        <time>1970-01-01T08:02:26.000Z</time>
      </trkpt>
      <trkpt lat="42.460294" lon="0.7681">
        <ele>987.2</ele>
        <time>1970-01-01T08:02:54.000Z</time>
      </trkpt>
      <trkpt lat="42.460356" lon="0.768467">
        <ele>987.8</ele>
        <time>1970-01-01T08:03:09.000Z</time>
      </trkpt>
      <trkpt lat="42.460473" lon="0.768902">
        <ele>988.2</ele>
        <time>1970-01-01T08:03:30.000Z</time>
      </trkpt>
      <trkpt lat="42.46066" lon="0.76945">
        <ele>996.4</ele>
        <time>1970-01-01T08:04:25.000Z</time>
      </trkpt>
      <trkpt lat="42.46072" lon="0.769607">
        <ele>997.6</ele>
        <time>1970-01-01T08:04:34.000Z</time>
      </trkpt>
      <trkpt lat="42.460732" lon="0.769703">
        <ele>998.8</ele>
        <time>1970-01-01T08:04:39.000Z</time>
      </trkpt>
      <trkpt lat="42.460733" lon="0.769729">
        <ele>999.4</ele>
        <time>1970-01-01T08:04:42.000Z</time>
      </trkpt>
      <trkpt lat="42.460794" lon="0.770091">
        <ele>1003.4</ele>
        <time>1970-01-01T08:05:17.000Z</time>
      </trkpt>
      <trkpt lat="42.460911" lon="0.770484">
        <ele>1004.2</ele>
        <time>1970-01-01T08:05:35.000Z</time>
      </trkpt>
      <trkpt lat="42.460978" lon="0.770636">
        <ele>1005.2</ele>
        <time>1970-01-01T08:05:42.000Z</time>
      </trkpt>
      <trkpt lat="42.461027" lon="0.770743">
        <ele>1006.4</ele>
        <time>1970-01-01T08:05:48.000Z</time>
      </trkpt>
      <trkpt lat="42.461095" lon="0.770963">
        <ele>1007.8</ele>
        <time>1970-01-01T08:05:58.000Z</time>
      </trkpt>
      <trkpt lat="42.461174" lon="0.771136">
        <ele>1008.4</ele>
        <time>1970-01-01T08:06:09.000Z</time>
      </trkpt>
      <trkpt lat="42.461918" lon="0.771954">
        <ele>1025.8</ele>
        <time>1970-01-01T08:09:56.000Z</time>
      </trkpt>
      <trkpt lat="42.461931" lon="0.772062">
        <ele>1026.8</ele>
        <time>1970-01-01T08:10:04.000Z</time>
      </trkpt>
      <trkpt lat="42.461939" lon="0.772134">
        <ele>1027.8</ele>
        <time>1970-01-01T08:10:10.000Z</time>
      </trkpt>
      <trkpt lat="42.461975" lon="0.772207">
        <ele>1029</ele>
        <time>1970-01-01T08:10:17.000Z</time>
      </trkpt>
      <trkpt lat="42.462019" lon="0.772275">
        <ele>1030</ele>
        <time>1970-01-01T08:10:23.000Z</time>
      </trkpt>
      <trkpt lat="42.462065" lon="0.772286">
        <ele>1030.8</ele>
        <time>1970-01-01T08:10:29.000Z</time>
      </trkpt>
      <trkpt lat="42.462134" lon="0.77225">
        <ele>1031.4</ele>
        <time>1970-01-01T08:12:04.000Z</time>
      </trkpt>
      <trkpt lat="42.462171" lon="0.772191">
        <ele>1030.8</ele>
        <time>1970-01-01T08:12:12.000Z</time>
      </trkpt>
      <trkpt lat="42.462251" lon="0.772089">
        <ele>1028.6</ele>
        <time>1970-01-01T08:12:40.000Z</time>
      </trkpt>
      <trkpt lat="42.462276" lon="0.772057">
        <ele>1028.2</ele>
        <time>1970-01-01T08:12:43.000Z</time>
      </trkpt>
      <trkpt lat="42.462296" lon="0.772066">
        <ele>1027.6</ele>
        <time>1970-01-01T08:12:45.000Z</time>
      </trkpt>
      <trkpt lat="42.462335" lon="0.772097">
        <ele>1026.6</ele>
        <time>1970-01-01T08:12:49.000Z</time>
      </trkpt>
      <trkpt lat="42.462343" lon="0.772091">
        <ele>1026.4</ele>
        <time>1970-01-01T08:12:50.000Z</time>
      </trkpt>
      <trkpt lat="42.462383" lon="0.772047">
        <ele>1025.4</ele>
        <time>1970-01-01T08:12:54.000Z</time>
      </trkpt>
      <trkpt lat="42.46241" lon="0.772029">
        <ele>1024.4</ele>
        <time>1970-01-01T08:12:57.000Z</time>
      </trkpt>
      <trkpt lat="42.462415" lon="0.772012">
        <ele>1024.2</ele>
        <time>1970-01-01T08:12:58.000Z</time>
      </trkpt>
      <trkpt lat="42.462459" lon="0.77197">
        <ele>1022.8</ele>
        <time>1970-01-01T08:13:03.000Z</time>
      </trkpt>
      <trkpt lat="42.462522" lon="0.772008">
        <ele>1021.8</ele>
        <time>1970-01-01T08:13:09.000Z</time>
      </trkpt>
      <trkpt lat="42.462549" lon="0.771973">
        <ele>1020.4</ele>
        <time>1970-01-01T08:13:13.000Z</time>
      </trkpt>
      <trkpt lat="42.46258" lon="0.771936">
        <ele>1019.4</ele>
        <time>1970-01-01T08:13:18.000Z</time>
      </trkpt>
      <trkpt lat="42.462592" lon="0.771934">
        <ele>1018.8</ele>
        <time>1970-01-01T08:13:22.000Z</time>
      </trkpt>
      <trkpt lat="42.462828" lon="0.771844">
        <ele>1015</ele>
        <time>1970-01-01T08:13:53.000Z</time>
      </trkpt>
      <trkpt lat="42.462887" lon="0.771812">
        <ele>1013.4</ele>
        <time>1970-01-01T08:13:56.000Z</time>
      </trkpt>
      <trkpt lat="42.462914" lon="0.771803">
        <ele>1013</ele>
        <time>1970-01-01T08:13:57.000Z</time>
      </trkpt>
      <trkpt lat="42.462974" lon="0.771791">
        <ele>1012.2</ele>
        <time>1970-01-01T08:13:59.000Z</time>
      </trkpt>
      <trkpt lat="42.463057" lon="0.771803">
        <ele>1011</ele>
        <time>1970-01-01T08:14:03.000Z</time>
      </trkpt>
      <trkpt lat="42.463115" lon="0.771826">
        <ele>1009.8</ele>
        <time>1970-01-01T08:14:06.000Z</time>
      </trkpt>
      <trkpt lat="42.463152" lon="0.771847">
        <ele>1008.8</ele>
        <time>1970-01-01T08:14:08.000Z</time>
      </trkpt>
      <trkpt lat="42.463189" lon="0.77186">
        <ele>1007.6</ele>
        <time>1970-01-01T08:14:10.000Z</time>
      </trkpt>
      <trkpt lat="42.463412" lon="0.771985">
        <ele>1008.8</ele>
        <time>1970-01-01T08:14:22.000Z</time>
      </trkpt>
      <trkpt lat="42.463471" lon="0.772041">
        <ele>1010</ele>
        <time>1970-01-01T08:14:26.000Z</time>
      </trkpt>
      <trkpt lat="42.463546" lon="0.772092">
        <ele>1011.4</ele>
        <time>1970-01-01T08:14:31.000Z</time>
      </trkpt>
      <trkpt lat="42.463655" lon="0.772148">
        <ele>1012.4</ele>
        <time>1970-01-01T08:14:37.000Z</time>
      </trkpt>
      <trkpt lat="42.463708" lon="0.772181">
        <ele>1013.4</ele>
        <time>1970-01-01T08:14:41.000Z</time>
      </trkpt>
      <trkpt lat="42.463747" lon="0.772196">
        <ele>1014.6</ele>
        <time>1970-01-01T08:14:44.000Z</time>
      </trkpt>
      <trkpt lat="42.463764" lon="0.772205">
        <ele>1015</ele>
        <time>1970-01-01T08:14:47.000Z</time>
      </trkpt>
      <trkpt lat="42.463638" lon="0.772177">
        <ele>1012.4</ele>
        <time>1970-01-01T08:16:06.000Z</time>
      </trkpt>
      <trkpt lat="42.463596" lon="0.772148">
        <ele>1011.6</ele>
        <time>1970-01-01T08:16:14.000Z</time>
      </trkpt>
      <trkpt lat="42.463629" lon="0.772162">
        <ele>1013</ele>
        <time>1970-01-01T08:16:44.000Z</time>
      </trkpt>
      <trkpt lat="42.463589" lon="0.77214">
        <ele>1011.8</ele>
        <time>1970-01-01T08:16:50.000Z</time>
      </trkpt>
      <trkpt lat="42.464252" lon="0.772684">
        <ele>1032.6</ele>
        <time>1970-01-01T08:20:55.000Z</time>
      </trkpt>
      <trkpt lat="42.464289" lon="0.772737">
        <ele>1032.4</ele>
        <time>1970-01-01T08:20:59.000Z</time>
      </trkpt>
      <trkpt lat="42.464383" lon="0.77289">
        <ele>1032.2</ele>
        <time>1970-01-01T08:21:09.000Z</time>
      </trkpt>
      <trkpt lat="42.464409" lon="0.772975">
        <ele>1031.6</ele>
        <time>1970-01-01T08:21:14.000Z</time>
      </trkpt>
      <trkpt lat="42.464422" lon="0.773029">
        <ele>1031.4</ele>
        <time>1970-01-01T08:21:17.000Z</time>
      </trkpt>
      <trkpt lat="42.464466" lon="0.773144">
        <ele>1031</ele>
        <time>1970-01-01T08:21:23.000Z</time>
      </trkpt>
      <trkpt lat="42.464501" lon="0.773257">
        <ele>1030.6</ele>
        <time>1970-01-01T08:21:29.000Z</time>
      </trkpt>
      <trkpt lat="42.464509" lon="0.77329">
        <ele>1030.4</ele>
        <time>1970-01-01T08:21:31.000Z</time>
      </trkpt>
      <trkpt lat="42.46455" lon="0.773359">
        <ele>1029.6</ele>
        <time>1970-01-01T08:21:35.000Z</time>
      </trkpt>
      <trkpt lat="42.464614" lon="0.773497">
        <ele>1028.4</ele>
        <time>1970-01-01T08:21:43.000Z</time>
      </trkpt>
      <trkpt lat="42.464648" lon="0.773695">
        <ele>1028</ele>
        <time>1970-01-01T08:21:53.000Z</time>
      </trkpt>
      <trkpt lat="42.464616" lon="0.773815">
        <ele>1029.4</ele>
        <time>1970-01-01T08:22:00.000Z</time>
      </trkpt>
      <trkpt lat="42.464604" lon="0.773894">
        <ele>1030.6</ele>
        <time>1970-01-01T08:22:05.000Z</time>
      </trkpt>
      <trkpt lat="42.464601" lon="0.774003">
        <ele>1031.8</ele>
        <time>1970-01-01T08:22:11.000Z</time>
      </trkpt>
      <trkpt lat="42.464602" lon="0.77404">
        <ele>1032</ele>
        <time>1970-01-01T08:22:13.000Z</time>
      </trkpt>
      <trkpt lat="42.464619" lon="0.774117">
        <ele>1032.6</ele>
        <time>1970-01-01T08:22:18.000Z</time>
      </trkpt>
      <trkpt lat="42.464622" lon="0.774149">
        <ele>1033</ele>
        <time>1970-01-01T08:22:20.000Z</time>
      </trkpt>
      <trkpt lat="42.464613" lon="0.774233">
        <ele>1034</ele>
        <time>1970-01-01T08:22:25.000Z</time>
      </trkpt>
      <trkpt lat="42.464605" lon="0.774258">
        <ele>1034</ele>
        <time>1970-01-01T08:22:26.000Z</time>
      </trkpt>
      <trkpt lat="42.464627" lon="0.774497">
        <ele>1035</ele>
        <time>1970-01-01T08:22:38.000Z</time>
      </trkpt>
      <trkpt lat="42.464624" lon="0.774536">
        <ele>1035.6</ele>
        <time>1970-01-01T08:22:40.000Z</time>
      </trkpt>
      <trkpt lat="42.46464" lon="0.774647">
        <ele>1035.2</ele>
        <time>1970-01-01T08:22:46.000Z</time>
      </trkpt>
      <trkpt lat="42.464636" lon="0.774999">
        <ele>1035.4</ele>
        <time>1970-01-01T08:23:03.000Z</time>
      </trkpt>
      <trkpt lat="42.464714" lon="0.775312">
        <ele>1035.6</ele>
        <time>1970-01-01T08:23:21.000Z</time>
      </trkpt>
      <trkpt lat="42.464726" lon="0.775325">
        <ele>1035.6</ele>
        <time>1970-01-01T08:23:24.000Z</time>
      </trkpt>
      <trkpt lat="42.464782" lon="0.775513">
        <ele>1036.6</ele>
        <time>1970-01-01T08:23:37.000Z</time>
      </trkpt>
      <trkpt lat="42.464819" lon="0.775671">
        <ele>1038</ele>
        <time>1970-01-01T08:23:46.000Z</time>
      </trkpt>
      <trkpt lat="42.464843" lon="0.775767">
        <ele>1039.2</ele>
        <time>1970-01-01T08:23:52.000Z</time>
      </trkpt>
      <trkpt lat="42.464853" lon="0.775866">
        <ele>1040.2</ele>
        <time>1970-01-01T08:23:58.000Z</time>
      </trkpt>
      <trkpt lat="42.464871" lon="0.775943">
        <ele>1041.4</ele>
        <time>1970-01-01T08:24:03.000Z</time>
      </trkpt>
      <trkpt lat="42.464917" lon="0.776024">
        <ele>1042.4</ele>
        <time>1970-01-01T08:24:09.000Z</time>
      </trkpt>
      <trkpt lat="42.464953" lon="0.776116">
        <ele>1043.6</ele>
        <time>1970-01-01T08:24:15.000Z</time>
      </trkpt>
      <trkpt lat="42.464984" lon="0.776199">
        <ele>1044.8</ele>
        <time>1970-01-01T08:24:21.000Z</time>
      </trkpt>
      <trkpt lat="42.465007" lon="0.776273">
        <ele>1045.8</ele>
        <time>1970-01-01T08:24:26.000Z</time>
      </trkpt>
      <trkpt lat="42.46509" lon="0.776434">
        <ele>1047</ele>
        <time>1970-01-01T08:24:37.000Z</time>
      </trkpt>
      <trkpt lat="42.465175" lon="0.776532">
        <ele>1048</ele>
        <time>1970-01-01T08:24:44.000Z</time>
      </trkpt>
      <trkpt lat="42.46523" lon="0.776647">
        <ele>1049.2</ele>
        <time>1970-01-01T08:24:52.000Z</time>
      </trkpt>
      <trkpt lat="42.465239" lon="0.776682">
        <ele>1049.6</ele>
        <time>1970-01-01T08:24:54.000Z</time>
      </trkpt>
      <trkpt lat="42.465228" lon="0.77673">
        <ele>1050.2</ele>
        <time>1970-01-01T08:24:57.000Z</time>
      </trkpt>
      <trkpt lat="42.465222" lon="0.776743">
        <ele>1050.4</ele>
        <time>1970-01-01T08:24:58.000Z</time>
      </trkpt>
      <trkpt lat="42.465217" lon="0.776791">
        <ele>1051.4</ele>
        <time>1970-01-01T08:25:02.000Z</time>
      </trkpt>
      <trkpt lat="42.465215" lon="0.776815">
        <ele>1051.8</ele>
        <time>1970-01-01T08:25:04.000Z</time>
      </trkpt>
      <trkpt lat="42.465207" lon="0.776846">
        <ele>1052.6</ele>
        <time>1970-01-01T08:25:07.000Z</time>
      </trkpt>
      <trkpt lat="42.465166" lon="0.776905">
        <ele>1053.6</ele>
        <time>1970-01-01T08:25:14.000Z</time>
      </trkpt>
      <trkpt lat="42.465145" lon="0.77694">
        <ele>1054.6</ele>
        <time>1970-01-01T08:25:19.000Z</time>
      </trkpt>
      <trkpt lat="42.465123" lon="0.776984">
        <ele>1055.8</ele>
        <time>1970-01-01T08:25:24.000Z</time>
      </trkpt>
      <trkpt lat="42.465091" lon="0.777023">
        <ele>1056.8</ele>
        <time>1970-01-01T08:25:31.000Z</time>
      </trkpt>
      <trkpt lat="42.465066" lon="0.777047">
        <ele>1058</ele>
        <time>1970-01-01T08:25:37.000Z</time>
      </trkpt>
      <trkpt lat="42.465034" lon="0.777032">
        <ele>1059</ele>
        <time>1970-01-01T08:25:42.000Z</time>
      </trkpt>
      <trkpt lat="42.465005" lon="0.777059">
        <ele>1060</ele>
        <time>1970-01-01T08:25:47.000Z</time>
      </trkpt>
      <trkpt lat="42.464994" lon="0.777095">
        <ele>1061</ele>
        <time>1970-01-01T08:25:52.000Z</time>
      </trkpt>
      <trkpt lat="42.464966" lon="0.777114">
        <ele>1062</ele>
        <time>1970-01-01T08:25:58.000Z</time>
      </trkpt>
      <trkpt lat="42.464929" lon="0.77715">
        <ele>1063.4</ele>
        <time>1970-01-01T08:26:05.000Z</time>
      </trkpt>
      <trkpt lat="42.464921" lon="0.777156">
        <ele>1063.8</ele>
        <time>1970-01-01T08:26:07.000Z</time>
      </trkpt>
      <trkpt lat="42.464609" lon="0.777337">
        <ele>1072.6</ele>
        <time>1970-01-01T08:38:07.000Z</time>
      </trkpt>
      <trkpt lat="42.464572" lon="0.777427">
        <ele>1073.8</ele>
        <time>1970-01-01T08:38:14.000Z</time>
      </trkpt>
      <trkpt lat="42.464592" lon="0.777474">
        <ele>1074</ele>
        <time>1970-01-01T08:38:17.000Z</time>
      </trkpt>
      <trkpt lat="42.464604" lon="0.777536">
        <ele>1074.2</ele>
        <time>1970-01-01T08:38:24.000Z</time>
      </trkpt>
      <trkpt lat="42.464591" lon="0.777618">
        <ele>1074.2</ele>
        <time>1970-01-01T08:39:58.000Z</time>
      </trkpt>
      <trkpt lat="42.464583" lon="0.777709">
        <ele>1074.8</ele>
        <time>1970-01-01T08:40:02.000Z</time>
      </trkpt>
      <trkpt lat="42.464636" lon="0.77784">
        <ele>1075.8</ele>
        <time>1970-01-01T08:40:08.000Z</time>
      </trkpt>
      <trkpt lat="42.464698" lon="0.77798">
        <ele>1077.2</ele>
        <time>1970-01-01T08:40:15.000Z</time>
      </trkpt>
      <trkpt lat="42.464715" lon="0.778076">
        <ele>1078.2</ele>
        <time>1970-01-01T08:40:19.000Z</time>
      </trkpt>
      <trkpt lat="42.464729" lon="0.77822">
        <ele>1079.4</ele>
        <time>1970-01-01T08:40:25.000Z</time>
      </trkpt>
      <trkpt lat="42.464748" lon="0.778382">
        <ele>1080.4</ele>
        <time>1970-01-01T08:40:32.000Z</time>
      </trkpt>
      <trkpt lat="42.464779" lon="0.778516">
        <ele>1081.6</ele>
        <time>1970-01-01T08:40:38.000Z</time>
      </trkpt>
      <trkpt lat="42.464816" lon="0.77865">
        <ele>1082.6</ele>
        <time>1970-01-01T08:40:44.000Z</time>
      </trkpt>
      <trkpt lat="42.464828" lon="0.77879">
        <ele>1083.6</ele>
        <time>1970-01-01T08:40:50.000Z</time>
      </trkpt>
      <trkpt lat="42.464823" lon="0.778937">
        <ele>1084.8</ele>
        <time>1970-01-01T08:40:56.000Z</time>
      </trkpt>
      <trkpt lat="42.464834" lon="0.779059">
        <ele>1085.8</ele>
        <time>1970-01-01T08:41:01.000Z</time>
      </trkpt>
      <trkpt lat="42.464901" lon="0.779233">
        <ele>1086.8</ele>
        <time>1970-01-01T08:41:09.000Z</time>
      </trkpt>
      <trkpt lat="42.464961" lon="0.779313">
        <ele>1088</ele>
        <time>1970-01-01T08:41:14.000Z</time>
      </trkpt>
      <trkpt lat="42.465049" lon="0.779391">
        <ele>1089.2</ele>
        <time>1970-01-01T08:41:20.000Z</time>
      </trkpt>
      <trkpt lat="42.465133" lon="0.779429">
        <ele>1090.4</ele>
        <time>1970-01-01T08:41:25.000Z</time>
      </trkpt>
      <trkpt lat="42.465222" lon="0.779477">
        <ele>1091.4</ele>
        <time>1970-01-01T08:41:31.000Z</time>
      </trkpt>
      <trkpt lat="42.465312" lon="0.779533">
        <ele>1092.4</ele>
        <time>1970-01-01T08:41:37.000Z</time>
      </trkpt>
      <trkpt lat="42.465383" lon="0.779589">
        <ele>1093.6</ele>
        <time>1970-01-01T08:41:42.000Z</time>
      </trkpt>
      <trkpt lat="42.46546" lon="0.779665">
        <ele>1094.6</ele>
        <time>1970-01-01T08:41:48.000Z</time>
      </trkpt>
      <trkpt lat="42.46553" lon="0.779758">
        <ele>1095.8</ele>
        <time>1970-01-01T08:41:54.000Z</time>
      </trkpt>
      <trkpt lat="42.465588" lon="0.779843">
        <ele>1096.8</ele>
        <time>1970-01-01T08:41:59.000Z</time>
      </trkpt>
      <trkpt lat="42.465664" lon="0.779955">
        <ele>1097.8</ele>
        <time>1970-01-01T08:42:05.000Z</time>
      </trkpt>
      <trkpt lat="42.465686" lon="0.780021">
        <ele>1098.4</ele>
        <time>1970-01-01T08:42:08.000Z</time>
      </trkpt>
      <trkpt lat="42.46568" lon="0.780089">
        <ele>1099.2</ele>
        <time>1970-01-01T08:42:11.000Z</time>
      </trkpt>
      <trkpt lat="42.465679" lon="0.780104">
        <ele>1099.4</ele>
        <time>1970-01-01T08:42:12.000Z</time>
      </trkpt>
      <trkpt lat="42.46567" lon="0.780124">
        <ele>1099.6</ele>
        <time>1970-01-01T08:42:13.000Z</time>
      </trkpt>
      <trkpt lat="42.465644" lon="0.780144">
        <ele>1100.4</ele>
        <time>1970-01-01T08:42:15.000Z</time>
      </trkpt>
      <trkpt lat="42.465592" lon="0.780098">
        <ele>1101.4</ele>
        <time>1970-01-01T08:42:19.000Z</time>
      </trkpt>
      <trkpt lat="42.465538" lon="0.779994">
        <ele>1102.4</ele>
        <time>1970-01-01T08:42:24.000Z</time>
      </trkpt>
      <trkpt lat="42.465524" lon="0.779975">
        <ele>1102.6</ele>
        <time>1970-01-01T08:42:25.000Z</time>
      </trkpt>
      <trkpt lat="42.465439" lon="0.779876">
        <ele>1103.6</ele>
        <time>1970-01-01T08:42:31.000Z</time>
      </trkpt>
      <trkpt lat="42.4653" lon="0.779834">
        <ele>1104.6</ele>
        <time>1970-01-01T08:42:38.000Z</time>
      </trkpt>
      <trkpt lat="42.465158" lon="0.779807">
        <ele>1105.8</ele>
        <time>1970-01-01T08:42:46.000Z</time>
      </trkpt>
      <trkpt lat="42.465016" lon="0.779773">
        <ele>1107</ele>
        <time>1970-01-01T08:42:54.000Z</time>
      </trkpt>
      <trkpt lat="42.46492" lon="0.779719">
        <ele>1108</ele>
        <time>1970-01-01T08:43:00.000Z</time>
      </trkpt>
      <trkpt lat="42.464856" lon="0.779668">
        <ele>1109</ele>
        <time>1970-01-01T08:43:04.000Z</time>
      </trkpt>
      <trkpt lat="42.464748" lon="0.77958">
        <ele>1110</ele>
        <time>1970-01-01T08:43:11.000Z</time>
      </trkpt>
      <trkpt lat="42.464615" lon="0.779498">
        <ele>1111.2</ele>
        <time>1970-01-01T08:43:19.000Z</time>
      </trkpt>
      <trkpt lat="42.464516" lon="0.779438">
        <ele>1112.2</ele>
        <time>1970-01-01T08:43:25.000Z</time>
      </trkpt>
      <trkpt lat="42.464412" lon="0.779396">
        <ele>1113.2</ele>
        <time>1970-01-01T08:43:31.000Z</time>
      </trkpt>
      <trkpt lat="42.464293" lon="0.779309">
        <ele>1114.4</ele>
        <time>1970-01-01T08:43:38.000Z</time>
      </trkpt>
      <trkpt lat="42.464232" lon="0.779222">
        <ele>1115.6</ele>
        <time>1970-01-01T08:43:43.000Z</time>
      </trkpt>
      <trkpt lat="42.464132" lon="0.779119">
        <ele>1116.6</ele>
        <time>1970-01-01T08:43:50.000Z</time>
      </trkpt>
      <trkpt lat="42.463982" lon="0.778989">
        <ele>1117.8</ele>
        <time>1970-01-01T08:44:00.000Z</time>
      </trkpt>
      <trkpt lat="42.463858" lon="0.778872">
        <ele>1118.8</ele>
        <time>1970-01-01T08:44:08.000Z</time>
      </trkpt>
      <trkpt lat="42.463711" lon="0.77876">
        <ele>1120</ele>
        <time>1970-01-01T08:44:16.000Z</time>
      </trkpt>
      <trkpt lat="42.463561" lon="0.778634">
        <ele>1121.2</ele>
        <time>1970-01-01T08:44:24.000Z</time>
      </trkpt>
      <trkpt lat="42.463462" lon="0.778528">
        <ele>1122.2</ele>
        <time>1970-01-01T08:44:30.000Z</time>
      </trkpt>
      <trkpt lat="42.463347" lon="0.77836">
        <ele>1123.2</ele>
        <time>1970-01-01T08:44:38.000Z</time>
      </trkpt>
      <trkpt lat="42.463279" lon="0.77817">
        <ele>1124.4</ele>
        <time>1970-01-01T08:44:46.000Z</time>
      </trkpt>
      <trkpt lat="42.463246" lon="0.778042">
        <ele>1125.4</ele>
        <time>1970-01-01T08:44:51.000Z</time>
      </trkpt>
      <trkpt lat="42.463169" lon="0.777975">
        <ele>1126.6</ele>
        <time>1970-01-01T08:44:56.000Z</time>
      </trkpt>
      <trkpt lat="42.463084" lon="0.778024">
        <ele>1127.6</ele>
        <time>1970-01-01T08:45:01.000Z</time>
      </trkpt>
      <trkpt lat="42.463047" lon="0.778172">
        <ele>1128.8</ele>
        <time>1970-01-01T08:45:07.000Z</time>
      </trkpt>
      <trkpt lat="42.463058" lon="0.7783">
        <ele>1129.8</ele>
        <time>1970-01-01T08:45:12.000Z</time>
      </trkpt>
      <trkpt lat="42.463106" lon="0.778458">
        <ele>1131</ele>
        <time>1970-01-01T08:45:19.000Z</time>
      </trkpt>
      <trkpt lat="42.463162" lon="0.778582">
        <ele>1132.2</ele>
        <time>1970-01-01T08:45:25.000Z</time>
      </trkpt>
      <trkpt lat="42.46322" lon="0.778668">
        <ele>1133.2</ele>
        <time>1970-01-01T08:45:30.000Z</time>
      </trkpt>
      <trkpt lat="42.463288" lon="0.778789">
        <ele>1134.4</ele>
        <time>1970-01-01T08:45:36.000Z</time>
      </trkpt>
      <trkpt lat="42.463385" lon="0.778916">
        <ele>1135.4</ele>
        <time>1970-01-01T08:45:43.000Z</time>
      </trkpt>
      <trkpt lat="42.463441" lon="0.779011">
        <ele>1136.4</ele>
        <time>1970-01-01T08:45:48.000Z</time>
      </trkpt>
      <trkpt lat="42.463511" lon="0.779121">
        <ele>1137.4</ele>
        <time>1970-01-01T08:45:54.000Z</time>
      </trkpt>
      <trkpt lat="42.463563" lon="0.779205">
        <ele>1138.4</ele>
        <time>1970-01-01T08:45:59.000Z</time>
      </trkpt>
      <trkpt lat="42.463595" lon="0.779255">
        <ele>1139.2</ele>
        <time>1970-01-01T08:46:02.000Z</time>
      </trkpt>
      <trkpt lat="42.463618" lon="0.77929">
        <ele>1139.6</ele>
        <time>1970-01-01T08:46:04.000Z</time>
      </trkpt>
      <trkpt lat="42.463661" lon="0.779389">
        <ele>1140.6</ele>
        <time>1970-01-01T08:46:09.000Z</time>
      </trkpt>
      <trkpt lat="42.463712" lon="0.779483">
        <ele>1141.6</ele>
        <time>1970-01-01T08:46:14.000Z</time>
      </trkpt>
      <trkpt lat="42.463795" lon="0.779604">
        <ele>1142.6</ele>
        <time>1970-01-01T08:46:21.000Z</time>
      </trkpt>
      <trkpt lat="42.463855" lon="0.779726">
        <ele>1143.8</ele>
        <time>1970-01-01T08:46:27.000Z</time>
      </trkpt>
      <trkpt lat="42.463909" lon="0.779825">
        <ele>1144.8</ele>
        <time>1970-01-01T08:46:32.000Z</time>
      </trkpt>
      <trkpt lat="42.463976" lon="0.77989">
        <ele>1145.8</ele>
        <time>1970-01-01T08:46:37.000Z</time>
      </trkpt>
      <trkpt lat="42.46407" lon="0.77996">
        <ele>1146.8</ele>
        <time>1970-01-01T08:46:43.000Z</time>
      </trkpt>
      <trkpt lat="42.464138" lon="0.780032">
        <ele>1148</ele>
        <time>1970-01-01T08:46:48.000Z</time>
      </trkpt>
      <trkpt lat="42.464234" lon="0.780134">
        <ele>1149</ele>
        <time>1970-01-01T08:46:55.000Z</time>
      </trkpt>
      <trkpt lat="42.464327" lon="0.780197">
        <ele>1150</ele>
        <time>1970-01-01T08:47:01.000Z</time>
      </trkpt>
      <trkpt lat="42.464444" lon="0.780258">
        <ele>1151.2</ele>
        <time>1970-01-01T08:47:08.000Z</time>
      </trkpt>
      <trkpt lat="42.464518" lon="0.780313">
        <ele>1152</ele>
        <time>1970-01-01T08:47:13.000Z</time>
      </trkpt>
      <trkpt lat="42.464609" lon="0.780397">
        <ele>1153</ele>
        <time>1970-01-01T08:47:19.000Z</time>
      </trkpt>
      <trkpt lat="42.464711" lon="0.780498">
        <ele>1154.2</ele>
        <time>1970-01-01T08:47:26.000Z</time>
      </trkpt>
      <trkpt lat="42.464784" lon="0.780576">
        <ele>1155.2</ele>
        <time>1970-01-01T08:47:31.000Z</time>
      </trkpt>
      <trkpt lat="42.464858" lon="0.780646">
        <ele>1156.4</ele>
        <time>1970-01-01T08:47:36.000Z</time>
      </trkpt>
      <trkpt lat="42.464926" lon="0.780731">
        <ele>1157.6</ele>
        <time>1970-01-01T08:47:41.000Z</time>
      </trkpt>
      <trkpt lat="42.464999" lon="0.780841">
        <ele>1158.4</ele>
        <time>1970-01-01T08:47:47.000Z</time>
      </trkpt>
      <trkpt lat="42.465059" lon="0.780941">
        <ele>1159.6</ele>
        <time>1970-01-01T08:47:52.000Z</time>
      </trkpt>
      <trkpt lat="42.465126" lon="0.781066">
        <ele>1160.6</ele>
        <time>1970-01-01T08:47:58.000Z</time>
      </trkpt>
      <trkpt lat="42.465185" lon="0.781163">
        <ele>1161.8</ele>
        <time>1970-01-01T08:48:03.000Z</time>
      </trkpt>
      <trkpt lat="42.465248" lon="0.78125">
        <ele>1162.6</ele>
        <time>1970-01-01T08:48:08.000Z</time>
      </trkpt>
      <trkpt lat="42.465311" lon="0.781333">
        <ele>1163.8</ele>
        <time>1970-01-01T08:48:13.000Z</time>
      </trkpt>
      <trkpt lat="42.465364" lon="0.78142">
        <ele>1165</ele>
        <time>1970-01-01T08:48:18.000Z</time>
      </trkpt>
      <trkpt lat="42.465385" lon="0.781506">
        <ele>1166</ele>
        <time>1970-01-01T08:48:22.000Z</time>
      </trkpt>
      <trkpt lat="42.465378" lon="0.781546">
        <ele>1166.4</ele>
        <time>1970-01-01T08:48:24.000Z</time>
      </trkpt>
      <trkpt lat="42.465353" lon="0.781569">
        <ele>1167</ele>
        <time>1970-01-01T08:48:26.000Z</time>
      </trkpt>
      <trkpt lat="42.46526" lon="0.781468">
        <ele>1168</ele>
        <time>1970-01-01T08:48:33.000Z</time>
      </trkpt>
      <trkpt lat="42.465234" lon="0.781434">
        <ele>1168.4</ele>
        <time>1970-01-01T08:48:35.000Z</time>
      </trkpt>
      <trkpt lat="42.465183" lon="0.781367">
        <ele>1169</ele>
        <time>1970-01-01T08:48:39.000Z</time>
      </trkpt>
      <trkpt lat="42.46508" lon="0.781234">
        <ele>1170</ele>
        <time>1970-01-01T08:48:47.000Z</time>
      </trkpt>
      <trkpt lat="42.464996" lon="0.781142">
        <ele>1171.2</ele>
        <time>1970-01-01T08:48:53.000Z</time>
      </trkpt>
      <trkpt lat="42.464907" lon="0.781061">
        <ele>1172.2</ele>
        <time>1970-01-01T08:48:59.000Z</time>
      </trkpt>
      <trkpt lat="42.464837" lon="0.780993">
        <ele>1173</ele>
        <time>1970-01-01T08:49:04.000Z</time>
      </trkpt>
      <trkpt lat="42.464747" lon="0.780923">
        <ele>1174.2</ele>
        <time>1970-01-01T08:49:10.000Z</time>
      </trkpt>
      <trkpt lat="42.464626" lon="0.780842">
        <ele>1175.4</ele>
        <time>1970-01-01T08:49:18.000Z</time>
      </trkpt>
      <trkpt lat="42.464514" lon="0.780786">
        <ele>1176.4</ele>
        <time>1970-01-01T08:49:25.000Z</time>
      </trkpt>
      <trkpt lat="42.464427" lon="0.780734">
        <ele>1177.6</ele>
        <time>1970-01-01T08:49:31.000Z</time>
      </trkpt>
      <trkpt lat="42.464325" lon="0.780716">
        <ele>1178.6</ele>
        <time>1970-01-01T08:49:37.000Z</time>
      </trkpt>
      <trkpt lat="42.46422" lon="0.780715">
        <ele>1179.6</ele>
        <time>1970-01-01T08:49:43.000Z</time>
      </trkpt>
      <trkpt lat="42.464106" lon="0.780712">
        <ele>1180.8</ele>
        <time>1970-01-01T08:49:49.000Z</time>
      </trkpt>
      <trkpt lat="42.46398" lon="0.780686">
        <ele>1181.8</ele>
        <time>1970-01-01T08:49:57.000Z</time>
      </trkpt>
      <trkpt lat="42.463889" lon="0.780633">
        <ele>1183</ele>
        <time>1970-01-01T08:50:03.000Z</time>
      </trkpt>
      <trkpt lat="42.463779" lon="0.780589">
        <ele>1184</ele>
        <time>1970-01-01T08:50:09.000Z</time>
      </trkpt>
      <trkpt lat="42.46364" lon="0.780583">
        <ele>1185</ele>
        <time>1970-01-01T08:50:16.000Z</time>
      </trkpt>
      <trkpt lat="42.463535" lon="0.780561">
        <ele>1186.2</ele>
        <time>1970-01-01T08:50:22.000Z</time>
      </trkpt>
      <trkpt lat="42.463465" lon="0.780494">
        <ele>1187.2</ele>
        <time>1970-01-01T08:50:27.000Z</time>
      </trkpt>
      <trkpt lat="42.463415" lon="0.78043">
        <ele>1188.4</ele>
        <time>1970-01-01T08:50:31.000Z</time>
      </trkpt>
      <trkpt lat="42.463358" lon="0.780324">
        <ele>1189.2</ele>
        <time>1970-01-01T08:50:37.000Z</time>
      </trkpt>
      <trkpt lat="42.463282" lon="0.780235">
        <ele>1190.2</ele>
        <time>1970-01-01T08:50:43.000Z</time>
      </trkpt>
      <trkpt lat="42.463196" lon="0.780168">
        <ele>1191.4</ele>
        <time>1970-01-01T08:50:49.000Z</time>
      </trkpt>
      <trkpt lat="42.463099" lon="0.780122">
        <ele>1192.6</ele>
        <time>1970-01-01T08:50:55.000Z</time>
      </trkpt>
      <trkpt lat="42.463012" lon="0.780083">
        <ele>1193.6</ele>
        <time>1970-01-01T08:51:00.000Z</time>
      </trkpt>
      <trkpt lat="42.462928" lon="0.780019">
        <ele>1194.6</ele>
        <time>1970-01-01T08:51:06.000Z</time>
      </trkpt>
      <trkpt lat="42.462825" lon="0.779922">
        <ele>1195.8</ele>
        <time>1970-01-01T08:51:13.000Z</time>
      </trkpt>
      <trkpt lat="42.462757" lon="0.779827">
        <ele>1196.8</ele>
        <time>1970-01-01T08:51:19.000Z</time>
      </trkpt>
      <trkpt lat="42.462647" lon="0.779707">
        <ele>1198</ele>
        <time>1970-01-01T08:51:27.000Z</time>
      </trkpt>
      <trkpt lat="42.462538" lon="0.779615">
        <ele>1199.2</ele>
        <time>1970-01-01T08:51:34.000Z</time>
      </trkpt>
      <trkpt lat="42.462435" lon="0.779509">
        <ele>1200.2</ele>
        <time>1970-01-01T08:51:41.000Z</time>
      </trkpt>
      <trkpt lat="42.462313" lon="0.779445">
        <ele>1201.2</ele>
        <time>1970-01-01T08:51:48.000Z</time>
      </trkpt>
      <trkpt lat="42.46222" lon="0.779392">
        <ele>1202.2</ele>
        <time>1970-01-01T08:51:54.000Z</time>
      </trkpt>
      <trkpt lat="42.462105" lon="0.779336">
        <ele>1203.4</ele>
        <time>1970-01-01T08:52:01.000Z</time>
      </trkpt>
      <trkpt lat="42.462016" lon="0.77927">
        <ele>1204.4</ele>
        <time>1970-01-01T08:52:07.000Z</time>
      </trkpt>
      <trkpt lat="42.461912" lon="0.779175">
        <ele>1205.2</ele>
        <time>1970-01-01T08:52:14.000Z</time>
      </trkpt>
      <trkpt lat="42.461741" lon="0.779052">
        <ele>1206.4</ele>
        <time>1970-01-01T08:52:24.000Z</time>
      </trkpt>
      <trkpt lat="42.461519" lon="0.778928">
        <ele>1207.4</ele>
        <time>1970-01-01T08:52:36.000Z</time>
      </trkpt>
      <trkpt lat="42.461351" lon="0.778862">
        <ele>1208.4</ele>
        <time>1970-01-01T08:52:45.000Z</time>
      </trkpt>
      <trkpt lat="42.461214" lon="0.778778">
        <ele>1209.4</ele>
        <time>1970-01-01T08:52:53.000Z</time>
      </trkpt>
      <trkpt lat="42.461099" lon="0.778707">
        <ele>1210.4</ele>
        <time>1970-01-01T08:53:00.000Z</time>
      </trkpt>
      <trkpt lat="42.461082" lon="0.778817">
        <ele>1211.4</ele>
        <time>1970-01-01T08:53:07.000Z</time>
      </trkpt>
      <trkpt lat="42.46111" lon="0.778848">
        <ele>1211.8</ele>
        <time>1970-01-01T08:53:09.000Z</time>
      </trkpt>
      <trkpt lat="42.461166" lon="0.778898">
        <ele>1212.4</ele>
        <time>1970-01-01T08:53:13.000Z</time>
      </trkpt>
      <trkpt lat="42.461281" lon="0.778965">
        <ele>1213.4</ele>
        <time>1970-01-01T08:53:20.000Z</time>
      </trkpt>
      <trkpt lat="42.46142" lon="0.77905">
        <ele>1214.4</ele>
        <time>1970-01-01T08:53:29.000Z</time>
      </trkpt>
      <trkpt lat="42.461545" lon="0.779125">
        <ele>1215.6</ele>
        <time>1970-01-01T08:53:37.000Z</time>
      </trkpt>
      <trkpt lat="42.461651" lon="0.779203">
        <ele>1216.8</ele>
        <time>1970-01-01T08:53:44.000Z</time>
      </trkpt>
      <trkpt lat="42.461769" lon="0.779309">
        <ele>1217.8</ele>
        <time>1970-01-01T08:53:52.000Z</time>
      </trkpt>
      <trkpt lat="42.461879" lon="0.77944">
        <ele>1218.8</ele>
        <time>1970-01-01T08:54:00.000Z</time>
      </trkpt>
      <trkpt lat="42.461953" lon="0.779537">
        <ele>1220</ele>
        <time>1970-01-01T08:54:06.000Z</time>
      </trkpt>
      <trkpt lat="42.462021" lon="0.779607">
        <ele>1221</ele>
        <time>1970-01-01T08:54:11.000Z</time>
      </trkpt>
      <trkpt lat="42.462136" lon="0.779706">
        <ele>1222</ele>
        <time>1970-01-01T08:54:19.000Z</time>
      </trkpt>
      <trkpt lat="42.462219" lon="0.779799">
        <ele>1223</ele>
        <time>1970-01-01T08:54:25.000Z</time>
      </trkpt>
      <trkpt lat="42.462294" lon="0.779935">
        <ele>1224.2</ele>
        <time>1970-01-01T08:54:32.000Z</time>
      </trkpt>
      <trkpt lat="42.462364" lon="0.780033">
        <ele>1225.4</ele>
        <time>1970-01-01T08:54:38.000Z</time>
      </trkpt>
      <trkpt lat="42.462422" lon="0.780135">
        <ele>1226.2</ele>
        <time>1970-01-01T08:54:44.000Z</time>
      </trkpt>
      <trkpt lat="42.46248" lon="0.780265">
        <ele>1227.2</ele>
        <time>1970-01-01T08:54:51.000Z</time>
      </trkpt>
      <trkpt lat="42.462525" lon="0.780359">
        <ele>1227.8</ele>
        <time>1970-01-01T08:54:56.000Z</time>
      </trkpt>
      <trkpt lat="42.462544" lon="0.780388">
        <ele>1228.4</ele>
        <time>1970-01-01T08:54:58.000Z</time>
      </trkpt>
      <trkpt lat="42.462633" lon="0.780477">
        <ele>1229.2</ele>
        <time>1970-01-01T08:55:05.000Z</time>
      </trkpt>
      <trkpt lat="42.46271" lon="0.780566">
        <ele>1230.4</ele>
        <time>1970-01-01T08:55:11.000Z</time>
      </trkpt>
      <trkpt lat="42.462808" lon="0.780672">
        <ele>1231.4</ele>
        <time>1970-01-01T08:55:18.000Z</time>
      </trkpt>
      <trkpt lat="42.462893" lon="0.780757">
        <ele>1232.6</ele>
        <time>1970-01-01T08:55:24.000Z</time>
      </trkpt>
      <trkpt lat="42.462927" lon="0.780805">
        <ele>1232.8</ele>
        <time>1970-01-01T08:55:27.000Z</time>
      </trkpt>
      <trkpt lat="42.462979" lon="0.780868">
        <ele>1233.4</ele>
        <time>1970-01-01T08:55:31.000Z</time>
      </trkpt>
      <trkpt lat="42.463032" lon="0.780958">
        <ele>1234.4</ele>
        <time>1970-01-01T08:55:36.000Z</time>
      </trkpt>
      <trkpt lat="42.463052" lon="0.781069">
        <ele>1235.6</ele>
        <time>1970-01-01T08:55:41.000Z</time>
      </trkpt>
      <trkpt lat="42.462966" lon="0.781102">
        <ele>1236.6</ele>
        <time>1970-01-01T08:55:47.000Z</time>
      </trkpt>
      <trkpt lat="42.462894" lon="0.781018">
        <ele>1237.2</ele>
        <time>1970-01-01T08:55:52.000Z</time>
      </trkpt>
      <trkpt lat="42.462842" lon="0.78095">
        <ele>1237.8</ele>
        <time>1970-01-01T08:55:56.000Z</time>
      </trkpt>
      <trkpt lat="42.462738" lon="0.780854">
        <ele>1239</ele>
        <time>1970-01-01T08:56:03.000Z</time>
      </trkpt>
      <trkpt lat="42.462602" lon="0.780724">
        <ele>1240.2</ele>
        <time>1970-01-01T08:56:12.000Z</time>
      </trkpt>
      <trkpt lat="42.46248" lon="0.780614">
        <ele>1241</ele>
        <time>1970-01-01T08:56:20.000Z</time>
      </trkpt>
      <trkpt lat="42.462354" lon="0.780485">
        <ele>1242.2</ele>
        <time>1970-01-01T08:56:28.000Z</time>
      </trkpt>
      <trkpt lat="42.462247" lon="0.780381">
        <ele>1243.2</ele>
        <time>1970-01-01T08:56:35.000Z</time>
      </trkpt>
      <trkpt lat="42.462153" lon="0.780262">
        <ele>1244</ele>
        <time>1970-01-01T08:56:42.000Z</time>
      </trkpt>
      <trkpt lat="42.462044" lon="0.780146">
        <ele>1245.2</ele>
        <time>1970-01-01T08:56:49.000Z</time>
      </trkpt>
      <trkpt lat="42.461906" lon="0.780017">
        <ele>1246.2</ele>
        <time>1970-01-01T08:56:58.000Z</time>
      </trkpt>
      <trkpt lat="42.461779" lon="0.779957">
        <ele>1247.4</ele>
        <time>1970-01-01T08:57:05.000Z</time>
      </trkpt>
      <trkpt lat="42.461678" lon="0.779884">
        <ele>1248.4</ele>
        <time>1970-01-01T08:57:11.000Z</time>
      </trkpt>
      <trkpt lat="42.46154" lon="0.779814">
        <ele>1249.6</ele>
        <time>1970-01-01T08:57:19.000Z</time>
      </trkpt>
      <trkpt lat="42.461447" lon="0.779786">
        <ele>1250.6</ele>
        <time>1970-01-01T08:57:24.000Z</time>
      </trkpt>
      <trkpt lat="42.461344" lon="0.779749">
        <ele>1251.8</ele>
        <time>1970-01-01T08:57:30.000Z</time>
      </trkpt>
      <trkpt lat="42.461244" lon="0.779713">
        <ele>1253</ele>
        <time>1970-01-01T08:57:36.000Z</time>
      </trkpt>
      <trkpt lat="42.46113" lon="0.779686">
        <ele>1254</ele>
        <time>1970-01-01T08:57:43.000Z</time>
      </trkpt>
      <trkpt lat="42.461023" lon="0.779672">
        <ele>1255</ele>
        <time>1970-01-01T08:57:49.000Z</time>
      </trkpt>
      <trkpt lat="42.460893" lon="0.779632">
        <ele>1256.2</ele>
        <time>1970-01-01T08:57:56.000Z</time>
      </trkpt>
      <trkpt lat="42.460763" lon="0.779602">
        <ele>1257.2</ele>
        <time>1970-01-01T08:58:03.000Z</time>
      </trkpt>
      <trkpt lat="42.460648" lon="0.779561">
        <ele>1258.4</ele>
        <time>1970-01-01T08:58:09.000Z</time>
      </trkpt>
      <trkpt lat="42.46055" lon="0.779515">
        <ele>1259.6</ele>
        <time>1970-01-01T08:58:15.000Z</time>
      </trkpt>
      <trkpt lat="42.460464" lon="0.779489">
        <ele>1260.8</ele>
        <time>1970-01-01T08:58:20.000Z</time>
      </trkpt>
      <trkpt lat="42.460376" lon="0.779469">
        <ele>1261.2</ele>
        <time>1970-01-01T08:58:25.000Z</time>
      </trkpt>
      <trkpt lat="42.460303" lon="0.779459">
        <ele>1261.8</ele>
        <time>1970-01-01T08:58:29.000Z</time>
      </trkpt>
      <trkpt lat="42.460182" lon="0.779415">
        <ele>1263</ele>
        <time>1970-01-01T08:58:36.000Z</time>
      </trkpt>
      <trkpt lat="42.460067" lon="0.779356">
        <ele>1264</ele>
        <time>1970-01-01T08:58:43.000Z</time>
      </trkpt>
      <trkpt lat="42.459971" lon="0.779314">
        <ele>1265</ele>
        <time>1970-01-01T08:58:49.000Z</time>
      </trkpt>
      <trkpt lat="42.459866" lon="0.779292">
        <ele>1266</ele>
        <time>1970-01-01T08:58:55.000Z</time>
      </trkpt>
      <trkpt lat="42.459734" lon="0.779274">
        <ele>1267.2</ele>
        <time>1970-01-01T08:59:02.000Z</time>
      </trkpt>
      <trkpt lat="42.459604" lon="0.779239">
        <ele>1268.2</ele>
        <time>1970-01-01T08:59:09.000Z</time>
      </trkpt>
      <trkpt lat="42.459523" lon="0.779206">
        <ele>1269.4</ele>
        <time>1970-01-01T08:59:14.000Z</time>
      </trkpt>
      <trkpt lat="42.459425" lon="0.779173">
        <ele>1270.6</ele>
        <time>1970-01-01T08:59:20.000Z</time>
      </trkpt>
      <trkpt lat="42.459353" lon="0.779164">
        <ele>1271.6</ele>
        <time>1970-01-01T08:59:25.000Z</time>
      </trkpt>
      <trkpt lat="42.459254" lon="0.77916">
        <ele>1272.4</ele>
        <time>1970-01-01T08:59:31.000Z</time>
      </trkpt>
      <trkpt lat="42.4591" lon="0.779236">
        <ele>1273.6</ele>
        <time>1970-01-01T08:59:40.000Z</time>
      </trkpt>
      <trkpt lat="42.459027" lon="0.779315">
        <ele>1274.6</ele>
        <time>1970-01-01T08:59:45.000Z</time>
      </trkpt>
      <trkpt lat="42.458965" lon="0.779471">
        <ele>1275.6</ele>
        <time>1970-01-01T08:59:52.000Z</time>
      </trkpt>
      <trkpt lat="42.45894" lon="0.779623">
        <ele>1276.8</ele>
        <time>1970-01-01T08:59:58.000Z</time>
      </trkpt>
      <trkpt lat="42.458909" lon="0.779765">
        <ele>1277.8</ele>
        <time>1970-01-01T09:00:04.000Z</time>
      </trkpt>
      <trkpt lat="42.45889" lon="0.779875">
        <ele>1278.8</ele>
        <time>1970-01-01T09:00:09.000Z</time>
      </trkpt>
      <trkpt lat="42.458875" lon="0.77996">
        <ele>1279.8</ele>
        <time>1970-01-01T09:00:13.000Z</time>
      </trkpt>
      <trkpt lat="42.458862" lon="0.780102">
        <ele>1281</ele>
        <time>1970-01-01T09:00:19.000Z</time>
      </trkpt>
      <trkpt lat="42.458851" lon="0.780333">
        <ele>1282</ele>
        <time>1970-01-01T09:00:28.000Z</time>
      </trkpt>
      <trkpt lat="42.458855" lon="0.780491">
        <ele>1283.2</ele>
        <time>1970-01-01T09:00:35.000Z</time>
      </trkpt>
      <trkpt lat="42.458855" lon="0.780704">
        <ele>1284.2</ele>
        <time>1970-01-01T09:00:43.000Z</time>
      </trkpt>
      <trkpt lat="42.458855" lon="0.780887">
        <ele>1285.4</ele>
        <time>1970-01-01T09:00:50.000Z</time>
      </trkpt>
      <trkpt lat="42.458847" lon="0.781031">
        <ele>1286.4</ele>
        <time>1970-01-01T09:00:56.000Z</time>
      </trkpt>
      <trkpt lat="42.458856" lon="0.781118">
        <ele>1287.6</ele>
        <time>1970-01-01T09:01:00.000Z</time>
      </trkpt>
      <trkpt lat="42.458861" lon="0.78121">
        <ele>1288.6</ele>
        <time>1970-01-01T09:01:05.000Z</time>
      </trkpt>
      <trkpt lat="42.458848" lon="0.781338">
        <ele>1289.6</ele>
        <time>1970-01-01T09:01:11.000Z</time>
      </trkpt>
      <trkpt lat="42.458826" lon="0.781438">
        <ele>1290.8</ele>
        <time>1970-01-01T09:01:16.000Z</time>
      </trkpt>
      <trkpt lat="42.458782" lon="0.781552">
        <ele>1292</ele>
        <time>1970-01-01T09:01:22.000Z</time>
      </trkpt>
      <trkpt lat="42.458739" lon="0.781653">
        <ele>1293.2</ele>
        <time>1970-01-01T09:01:27.000Z</time>
      </trkpt>
      <trkpt lat="42.4587" lon="0.781734">
        <ele>1294.2</ele>
        <time>1970-01-01T09:01:33.000Z</time>
      </trkpt>
      <trkpt lat="42.458611" lon="0.781851">
        <ele>1295.2</ele>
        <time>1970-01-01T09:01:43.000Z</time>
      </trkpt>
      <trkpt lat="42.458612" lon="0.781851">
        <ele>1295.2</ele>
        <time>1970-01-01T09:01:44.000Z</time>
      </trkpt>
      <trkpt lat="42.458603" lon="0.781897">
        <ele>1296</ele>
        <time>1970-01-01T09:02:24.000Z</time>
      </trkpt>
      <trkpt lat="42.458548" lon="0.782049">
        <ele>1295.4</ele>
        <time>1970-01-01T09:02:28.000Z</time>
      </trkpt>
      <trkpt lat="42.458338" lon="0.782264">
        <ele>1293.8</ele>
        <time>1970-01-01T09:02:33.000Z</time>
      </trkpt>
      <trkpt lat="42.458214" lon="0.782314">
        <ele>1293.4</ele>
        <time>1970-01-01T09:02:35.000Z</time>
      </trkpt>
      <trkpt lat="42.458084" lon="0.782373">
        <ele>1292.8</ele>
        <time>1970-01-01T09:02:37.000Z</time>
      </trkpt>
      <trkpt lat="42.457846" lon="0.782607">
        <ele>1291.8</ele>
        <time>1970-01-01T09:02:41.000Z</time>
      </trkpt>
      <trkpt lat="42.457784" lon="0.78267">
        <ele>1291.4</ele>
        <time>1970-01-01T09:02:42.000Z</time>
      </trkpt>
      <trkpt lat="42.457714" lon="0.782697">
        <ele>1290.4</ele>
        <time>1970-01-01T09:02:43.000Z</time>
      </trkpt>
      <trkpt lat="42.457582" lon="0.782646">
        <ele>1289.4</ele>
        <time>1970-01-01T09:02:45.000Z</time>
      </trkpt>
      <trkpt lat="42.457403" lon="0.782187">
        <ele>1288.8</ele>
        <time>1970-01-01T09:02:52.000Z</time>
      </trkpt>
      <trkpt lat="42.457308" lon="0.781435">
        <ele>1289.2</ele>
        <time>1970-01-01T09:03:03.000Z</time>
      </trkpt>
      <trkpt lat="42.457279" lon="0.781159">
        <ele>1288.2</ele>
        <time>1970-01-01T09:03:06.000Z</time>
      </trkpt>
      <trkpt lat="42.457268" lon="0.780782">
        <ele>1287.2</ele>
        <time>1970-01-01T09:03:10.000Z</time>
      </trkpt>
      <trkpt lat="42.457207" lon="0.78001">
        <ele>1287</ele>
        <time>1970-01-01T09:03:19.000Z</time>
      </trkpt>
      <trkpt lat="42.457112" lon="0.779629">
        <ele>1288.6</ele>
        <time>1970-01-01T09:03:26.000Z</time>
      </trkpt>
      <trkpt lat="42.456926" lon="0.779424">
        <ele>1289.6</ele>
        <time>1970-01-01T09:03:34.000Z</time>
      </trkpt>
      <trkpt lat="42.456497" lon="0.778976">
        <ele>1290.6</ele>
        <time>1970-01-01T09:03:49.000Z</time>
      </trkpt>
      <trkpt lat="42.456344" lon="0.778893">
        <ele>1291.6</ele>
        <time>1970-01-01T09:03:54.000Z</time>
      </trkpt>
      <trkpt lat="42.456155" lon="0.778908">
        <ele>1292.8</ele>
        <time>1970-01-01T09:04:00.000Z</time>
      </trkpt>
      <trkpt lat="42.455821" lon="0.778915">
        <ele>1293.8</ele>
        <time>1970-01-01T09:04:10.000Z</time>
      </trkpt>
      <trkpt lat="42.455686" lon="0.778871">
        <ele>1293.8</ele>
        <time>1970-01-01T09:04:14.000Z</time>
      </trkpt>
      <trkpt lat="42.455852" lon="0.778646">
        <ele>1293.4</ele>
        <time>1970-01-01T09:04:20.000Z</time>
      </trkpt>
      <trkpt lat="42.456318" lon="0.778205">
        <ele>1294.2</ele>
        <time>1970-01-01T09:04:35.000Z</time>
      </trkpt>
      <trkpt lat="42.456417" lon="0.778119">
        <ele>1294.4</ele>
        <time>1970-01-01T09:04:38.000Z</time>
      </trkpt>
      <trkpt lat="42.456491" lon="0.778074">
        <ele>1294.6</ele>
        <time>1970-01-01T09:04:40.000Z</time>
      </trkpt>
      <trkpt lat="42.456674" lon="0.778017">
        <ele>1294.6</ele>
        <time>1970-01-01T09:04:45.000Z</time>
      </trkpt>
      <trkpt lat="42.456914" lon="0.777968">
        <ele>1295.6</ele>
        <time>1970-01-01T09:04:52.000Z</time>
      </trkpt>
      <trkpt lat="42.457084" lon="0.777896">
        <ele>1296.8</ele>
        <time>1970-01-01T09:04:58.000Z</time>
      </trkpt>
      <trkpt lat="42.457197" lon="0.777819">
        <ele>1297.8</ele>
        <time>1970-01-01T09:05:03.000Z</time>
      </trkpt>
      <trkpt lat="42.457267" lon="0.777746">
        <ele>1299</ele>
        <time>1970-01-01T09:05:07.000Z</time>
      </trkpt>
      <trkpt lat="42.457329" lon="0.777661">
        <ele>1299.8</ele>
        <time>1970-01-01T09:05:11.000Z</time>
      </trkpt>
      <trkpt lat="42.457418" lon="0.777452">
        <ele>1301</ele>
        <time>1970-01-01T09:05:18.000Z</time>
      </trkpt>
      <trkpt lat="42.457464" lon="0.77696">
        <ele>1301.8</ele>
        <time>1970-01-01T09:05:31.000Z</time>
      </trkpt>
      <trkpt lat="42.45744" lon="0.776726">
        <ele>1303</ele>
        <time>1970-01-01T09:05:38.000Z</time>
      </trkpt>
      <trkpt lat="42.457402" lon="0.776412">
        <ele>1304</ele>
        <time>1970-01-01T09:05:47.000Z</time>
      </trkpt>
      <trkpt lat="42.457353" lon="0.775889">
        <ele>1305</ele>
        <time>1970-01-01T09:06:02.000Z</time>
      </trkpt>
      <trkpt lat="42.45746" lon="0.775174">
        <ele>1305.2</ele>
        <time>1970-01-01T09:06:16.000Z</time>
      </trkpt>
      <trkpt lat="42.45746" lon="0.7751">
        <ele>1305</ele>
        <time>1970-01-01T09:06:17.000Z</time>
      </trkpt>
      <trkpt lat="42.457275" lon="0.774371">
        <ele>1304.8</ele>
        <time>1970-01-01T09:06:28.000Z</time>
      </trkpt>
      <trkpt lat="42.457175" lon="0.774174">
        <ele>1306.2</ele>
        <time>1970-01-01T09:06:33.000Z</time>
      </trkpt>
      <trkpt lat="42.457058" lon="0.773962">
        <ele>1307.2</ele>
        <time>1970-01-01T09:06:40.000Z</time>
      </trkpt>
      <trkpt lat="42.456932" lon="0.773754">
        <ele>1308.4</ele>
        <time>1970-01-01T09:06:48.000Z</time>
      </trkpt>
      <trkpt lat="42.456818" lon="0.773602">
        <ele>1309.4</ele>
        <time>1970-01-01T09:06:55.000Z</time>
      </trkpt>
      <trkpt lat="42.456724" lon="0.773487">
        <ele>1310.6</ele>
        <time>1970-01-01T09:07:01.000Z</time>
      </trkpt>
      <trkpt lat="42.45662" lon="0.773336">
        <ele>1311.6</ele>
        <time>1970-01-01T09:07:09.000Z</time>
      </trkpt>
      <trkpt lat="42.456517" lon="0.773215">
        <ele>1312.6</ele>
        <time>1970-01-01T09:07:17.000Z</time>
      </trkpt>
      <trkpt lat="42.456439" lon="0.773103">
        <ele>1313.8</ele>
        <time>1970-01-01T09:07:24.000Z</time>
      </trkpt>
      <trkpt lat="42.456371" lon="0.772991">
        <ele>1314.8</ele>
        <time>1970-01-01T09:07:31.000Z</time>
      </trkpt>
      <trkpt lat="42.456309" lon="0.772886">
        <ele>1316</ele>
        <time>1970-01-01T09:07:38.000Z</time>
      </trkpt>
      <trkpt lat="42.456277" lon="0.772799">
        <ele>1317.2</ele>
        <time>1970-01-01T09:07:43.000Z</time>
      </trkpt>
      <trkpt lat="42.456241" lon="0.772723">
        <ele>1318.2</ele>
        <time>1970-01-01T09:07:48.000Z</time>
      </trkpt>
      <trkpt lat="42.456193" lon="0.772639">
        <ele>1319.4</ele>
        <time>1970-01-01T09:07:54.000Z</time>
      </trkpt>
      <trkpt lat="42.456141" lon="0.772553">
        <ele>1320.6</ele>
        <time>1970-01-01T09:08:00.000Z</time>
      </trkpt>
      <trkpt lat="42.456088" lon="0.77246">
        <ele>1321.8</ele>
        <time>1970-01-01T09:08:07.000Z</time>
      </trkpt>
      <trkpt lat="42.456041" lon="0.772394">
        <ele>1322.8</ele>
        <time>1970-01-01T09:08:12.000Z</time>
      </trkpt>
      <trkpt lat="42.455964" lon="0.772301">
        <ele>1324</ele>
        <time>1970-01-01T09:08:21.000Z</time>
      </trkpt>
      <trkpt lat="42.455907" lon="0.77223">
        <ele>1324.8</ele>
        <time>1970-01-01T09:08:28.000Z</time>
      </trkpt>
      <trkpt lat="42.455834" lon="0.772154">
        <ele>1326</ele>
        <time>1970-01-01T09:08:36.000Z</time>
      </trkpt>
      <trkpt lat="42.455762" lon="0.772077">
        <ele>1327</ele>
        <time>1970-01-01T09:08:44.000Z</time>
      </trkpt>
      <trkpt lat="42.455693" lon="0.771999">
        <ele>1328</ele>
        <time>1970-01-01T09:08:52.000Z</time>
      </trkpt>
      <trkpt lat="42.455607" lon="0.771881">
        <ele>1329.2</ele>
        <time>1970-01-01T09:09:01.000Z</time>
      </trkpt>
      <trkpt lat="42.455543" lon="0.771778">
        <ele>1330.4</ele>
        <time>1970-01-01T09:09:08.000Z</time>
      </trkpt>
      <trkpt lat="42.45547" lon="0.771705">
        <ele>1331</ele>
        <time>1970-01-01T09:09:14.000Z</time>
      </trkpt>
      <trkpt lat="42.45545" lon="0.771676">
        <ele>1331.4</ele>
        <time>1970-01-01T09:09:16.000Z</time>
      </trkpt>
      <trkpt lat="42.455356" lon="0.77158">
        <ele>1332.4</ele>
        <time>1970-01-01T09:09:24.000Z</time>
      </trkpt>
      <trkpt lat="42.455282" lon="0.771479">
        <ele>1333.6</ele>
        <time>1970-01-01T09:09:31.000Z</time>
      </trkpt>
      <trkpt lat="42.455208" lon="0.771375">
        <ele>1334.6</ele>
        <time>1970-01-01T09:09:38.000Z</time>
      </trkpt>
      <trkpt lat="42.455128" lon="0.771298">
        <ele>1335.8</ele>
        <time>1970-01-01T09:09:44.000Z</time>
      </trkpt>
      <trkpt lat="42.455068" lon="0.771237">
        <ele>1336.8</ele>
        <time>1970-01-01T09:09:49.000Z</time>
      </trkpt>
      <trkpt lat="42.454998" lon="0.771155">
        <ele>1338.2</ele>
        <time>1970-01-01T09:09:55.000Z</time>
      </trkpt>
      <trkpt lat="42.454912" lon="0.771067">
        <ele>1339.2</ele>
        <time>1970-01-01T09:10:02.000Z</time>
      </trkpt>
      <trkpt lat="42.454842" lon="0.770988">
        <ele>1340.2</ele>
        <time>1970-01-01T09:10:08.000Z</time>
      </trkpt>
      <trkpt lat="42.454773" lon="0.770907">
        <ele>1341.4</ele>
        <time>1970-01-01T09:10:14.000Z</time>
      </trkpt>
      <trkpt lat="42.454701" lon="0.770827">
        <ele>1342.4</ele>
        <time>1970-01-01T09:10:20.000Z</time>
      </trkpt>
      <trkpt lat="42.454632" lon="0.770774">
        <ele>1343.4</ele>
        <time>1970-01-01T09:10:25.000Z</time>
      </trkpt>
      <trkpt lat="42.454564" lon="0.770692">
        <ele>1344.6</ele>
        <time>1970-01-01T09:10:31.000Z</time>
      </trkpt>
      <trkpt lat="42.454458" lon="0.770582">
        <ele>1345.8</ele>
        <time>1970-01-01T09:10:40.000Z</time>
      </trkpt>
      <trkpt lat="42.454383" lon="0.770513">
        <ele>1346.6</ele>
        <time>1970-01-01T09:10:46.000Z</time>
      </trkpt>
      <trkpt lat="42.454293" lon="0.770431">
        <ele>1347.8</ele>
        <time>1970-01-01T09:10:53.000Z</time>
      </trkpt>
      <trkpt lat="42.454047" lon="0.770339">
        <ele>1348.8</ele>
        <time>1970-01-01T09:11:08.000Z</time>
      </trkpt>
      <trkpt lat="42.453884" lon="0.770321">
        <ele>1350</ele>
        <time>1970-01-01T09:11:17.000Z</time>
      </trkpt>
      <trkpt lat="42.453754" lon="0.770314">
        <ele>1351</ele>
        <time>1970-01-01T09:11:23.000Z</time>
      </trkpt>
      <trkpt lat="42.4536" lon="0.770286">
        <ele>1352.2</ele>
        <time>1970-01-01T09:11:30.000Z</time>
      </trkpt>
      <trkpt lat="42.45346" lon="0.770266">
        <ele>1353.2</ele>
        <time>1970-01-01T09:11:37.000Z</time>
      </trkpt>
      <trkpt lat="42.453338" lon="0.770248">
        <ele>1354.2</ele>
        <time>1970-01-01T09:11:43.000Z</time>
      </trkpt>
      <trkpt lat="42.453167" lon="0.770252">
        <ele>1355.4</ele>
        <time>1970-01-01T09:11:51.000Z</time>
      </trkpt>
      <trkpt lat="42.453001" lon="0.770259">
        <ele>1356.6</ele>
        <time>1970-01-01T09:11:59.000Z</time>
      </trkpt>
      <trkpt lat="42.452828" lon="0.770288">
        <ele>1357.8</ele>
        <time>1970-01-01T09:12:08.000Z</time>
      </trkpt>
      <trkpt lat="42.452696" lon="0.770341">
        <ele>1358.8</ele>
        <time>1970-01-01T09:12:15.000Z</time>
      </trkpt>
      <trkpt lat="42.452573" lon="0.770426">
        <ele>1359.8</ele>
        <time>1970-01-01T09:12:22.000Z</time>
      </trkpt>
      <trkpt lat="42.45244" lon="0.770649">
        <ele>1360.8</ele>
        <time>1970-01-01T09:12:32.000Z</time>
      </trkpt>
      <trkpt lat="42.452202" lon="0.770966">
        <ele>1361.6</ele>
        <time>1970-01-01T09:12:47.000Z</time>
      </trkpt>
      <trkpt lat="42.452197" lon="0.770968">
        <ele>1361.8</ele>
        <time>1970-01-01T09:12:49.000Z</time>
      </trkpt>
      <trkpt lat="42.452099" lon="0.770999">
        <ele>1359.6</ele>
        <time>1970-01-01T09:16:06.000Z</time>
      </trkpt>
      <trkpt lat="42.451559" lon="0.771189">
        <ele>1359.8</ele>
        <time>1970-01-01T09:16:26.000Z</time>
      </trkpt>
      <trkpt lat="42.450999" lon="0.771024">
        <ele>1360</ele>
        <time>1970-01-01T09:16:42.000Z</time>
      </trkpt>
      <trkpt lat="42.450475" lon="0.770853">
        <ele>1359.8</ele>
        <time>1970-01-01T09:16:56.000Z</time>
      </trkpt>
      <trkpt lat="42.450162" lon="0.770851">
        <ele>1359.6</ele>
        <time>1970-01-01T09:17:03.000Z</time>
      </trkpt>
      <trkpt lat="42.449634" lon="0.771088">
        <ele>1360.4</ele>
        <time>1970-01-01T09:17:18.000Z</time>
      </trkpt>
      <trkpt lat="42.449515" lon="0.771156">
        <ele>1361.6</ele>
        <time>1970-01-01T09:17:24.000Z</time>
      </trkpt>
      <trkpt lat="42.449466" lon="0.77118">
        <ele>1362.4</ele>
        <time>1970-01-01T09:17:29.000Z</time>
      </trkpt>
      <trkpt lat="42.449321" lon="0.77121">
        <ele>1365</ele>
        <time>1970-01-01T09:17:58.000Z</time>
      </trkpt>
      <trkpt lat="42.449247" lon="0.771212">
        <ele>1366.2</ele>
        <time>1970-01-01T09:18:02.000Z</time>
      </trkpt>
      <trkpt lat="42.449172" lon="0.771171">
        <ele>1367.2</ele>
        <time>1970-01-01T09:18:07.000Z</time>
      </trkpt>
      <trkpt lat="42.449097" lon="0.771148">
        <ele>1368.4</ele>
        <time>1970-01-01T09:18:12.000Z</time>
      </trkpt>
      <trkpt lat="42.448933" lon="0.771152">
        <ele>1369.6</ele>
        <time>1970-01-01T09:18:20.000Z</time>
      </trkpt>
      <trkpt lat="42.448729" lon="0.771127">
        <ele>1370.4</ele>
        <time>1970-01-01T09:18:29.000Z</time>
      </trkpt>
      <trkpt lat="42.44854" lon="0.770877">
        <ele>1371.6</ele>
        <time>1970-01-01T09:18:38.000Z</time>
      </trkpt>
      <trkpt lat="42.448395" lon="0.770327">
        <ele>1372.6</ele>
        <time>1970-01-01T09:18:52.000Z</time>
      </trkpt>
      <trkpt lat="42.448308" lon="0.770257">
        <ele>1373.6</ele>
        <time>1970-01-01T09:18:56.000Z</time>
      </trkpt>
      <trkpt lat="42.448218" lon="0.770219">
        <ele>1374.8</ele>
        <time>1970-01-01T09:19:00.000Z</time>
      </trkpt>
      <trkpt lat="42.448129" lon="0.770249">
        <ele>1376</ele>
        <time>1970-01-01T09:19:04.000Z</time>
      </trkpt>
      <trkpt lat="42.448101" lon="0.770378">
        <ele>1377.2</ele>
        <time>1970-01-01T09:19:09.000Z</time>
      </trkpt>
      <trkpt lat="42.448132" lon="0.770489">
        <ele>1378.4</ele>
        <time>1970-01-01T09:19:13.000Z</time>
      </trkpt>
      <trkpt lat="42.448172" lon="0.770628">
        <ele>1379.6</ele>
        <time>1970-01-01T09:19:18.000Z</time>
      </trkpt>
      <trkpt lat="42.448203" lon="0.770765">
        <ele>1380.6</ele>
        <time>1970-01-01T09:19:23.000Z</time>
      </trkpt>
      <trkpt lat="42.448194" lon="0.770896">
        <ele>1381.6</ele>
        <time>1970-01-01T09:19:29.000Z</time>
      </trkpt>
      <trkpt lat="42.448164" lon="0.770964">
        <ele>1382.8</ele>
        <time>1970-01-01T09:19:33.000Z</time>
      </trkpt>
      <trkpt lat="42.44812" lon="0.771013">
        <ele>1384</ele>
        <time>1970-01-01T09:19:37.000Z</time>
      </trkpt>
      <trkpt lat="42.448051" lon="0.771038">
        <ele>1385.2</ele>
        <time>1970-01-01T09:19:42.000Z</time>
      </trkpt>
      <trkpt lat="42.447982" lon="0.771051">
        <ele>1386.2</ele>
        <time>1970-01-01T09:19:47.000Z</time>
      </trkpt>
      <trkpt lat="42.447901" lon="0.771078">
        <ele>1387.4</ele>
        <time>1970-01-01T09:19:53.000Z</time>
      </trkpt>
      <trkpt lat="42.447814" lon="0.771111">
        <ele>1388.4</ele>
        <time>1970-01-01T09:20:00.000Z</time>
      </trkpt>
      <trkpt lat="42.447745" lon="0.771142">
        <ele>1389.4</ele>
        <time>1970-01-01T09:20:06.000Z</time>
      </trkpt>
      <trkpt lat="42.447657" lon="0.771178">
        <ele>1390.6</ele>
        <time>1970-01-01T09:20:13.000Z</time>
      </trkpt>
      <trkpt lat="42.447504" lon="0.771229">
        <ele>1391.6</ele>
        <time>1970-01-01T09:20:23.000Z</time>
      </trkpt>
      <trkpt lat="42.447411" lon="0.771275">
        <ele>1392.6</ele>
        <time>1970-01-01T09:20:29.000Z</time>
      </trkpt>
      <trkpt lat="42.447266" lon="0.771357">
        <ele>1393.8</ele>
        <time>1970-01-01T09:20:38.000Z</time>
      </trkpt>
      <trkpt lat="42.447078" lon="0.771482">
        <ele>1394.6</ele>
        <time>1970-01-01T09:20:49.000Z</time>
      </trkpt>
      <trkpt lat="42.446585" lon="0.77186">
        <ele>1395.2</ele>
        <time>1970-01-01T09:21:11.000Z</time>
      </trkpt>
      <trkpt lat="42.446276" lon="0.772168">
        <ele>1395.6</ele>
        <time>1970-01-01T09:21:23.000Z</time>
      </trkpt>
      <trkpt lat="42.446092" lon="0.772273">
        <ele>1396.8</ele>
        <time>1970-01-01T09:21:31.000Z</time>
      </trkpt>
      <trkpt lat="42.446028" lon="0.77224">
        <ele>1397.8</ele>
        <time>1970-01-01T09:21:34.000Z</time>
      </trkpt>
      <trkpt lat="42.445928" lon="0.772159">
        <ele>1399</ele>
        <time>1970-01-01T09:21:39.000Z</time>
      </trkpt>
      <trkpt lat="42.445711" lon="0.772111">
        <ele>1400</ele>
        <time>1970-01-01T09:21:48.000Z</time>
      </trkpt>
      <trkpt lat="42.445567" lon="0.771989">
        <ele>1400.8</ele>
        <time>1970-01-01T09:21:55.000Z</time>
      </trkpt>
      <trkpt lat="42.445477" lon="0.771859">
        <ele>1402</ele>
        <time>1970-01-01T09:22:01.000Z</time>
      </trkpt>
      <trkpt lat="42.444919" lon="0.771813">
        <ele>1402.2</ele>
        <time>1970-01-01T09:22:20.000Z</time>
      </trkpt>
      <trkpt lat="42.444582" lon="0.771957">
        <ele>1402.8</ele>
        <time>1970-01-01T09:22:31.000Z</time>
      </trkpt>
      <trkpt lat="42.444353" lon="0.77202">
        <ele>1403.8</ele>
        <time>1970-01-01T09:22:39.000Z</time>
      </trkpt>
      <trkpt lat="42.443827" lon="0.77214">
        <ele>1403.2</ele>
        <time>1970-01-01T09:22:54.000Z</time>
      </trkpt>
      <trkpt lat="42.443432" lon="0.77243">
        <ele>1403.8</ele>
        <time>1970-01-01T09:23:08.000Z</time>
      </trkpt>
      <trkpt lat="42.443414" lon="0.772438">
        <ele>1404</ele>
        <time>1970-01-01T09:23:10.000Z</time>
      </trkpt>
      <trkpt lat="42.443373" lon="0.77247">
        <ele>1404.4</ele>
        <time>1970-01-01T09:25:58.000Z</time>
      </trkpt>
      <trkpt lat="42.443055" lon="0.772681">
        <ele>1403.2</ele>
        <time>1970-01-01T09:26:08.000Z</time>
      </trkpt>
      <trkpt lat="42.442824" lon="0.772809">
        <ele>1401.8</ele>
        <time>1970-01-01T09:26:12.000Z</time>
      </trkpt>
      <trkpt lat="42.442616" lon="0.77293">
        <ele>1400.6</ele>
        <time>1970-01-01T09:26:15.000Z</time>
      </trkpt>
      <trkpt lat="42.442489" lon="0.77302">
        <ele>1399</ele>
        <time>1970-01-01T09:26:17.000Z</time>
      </trkpt>
      <trkpt lat="42.442365" lon="0.773122">
        <ele>1397.8</ele>
        <time>1970-01-01T09:26:19.000Z</time>
      </trkpt>
      <trkpt lat="42.442302" lon="0.773164">
        <ele>1396.6</ele>
        <time>1970-01-01T09:26:20.000Z</time>
      </trkpt>
      <trkpt lat="42.442175" lon="0.77317">
        <ele>1395.2</ele>
        <time>1970-01-01T09:26:22.000Z</time>
      </trkpt>
      <trkpt lat="42.44208" lon="0.773075">
        <ele>1394</ele>
        <time>1970-01-01T09:26:24.000Z</time>
      </trkpt>
      <trkpt lat="42.442052" lon="0.772814">
        <ele>1393.6</ele>
        <time>1970-01-01T09:26:28.000Z</time>
      </trkpt>
      <trkpt lat="42.441903" lon="0.77222">
        <ele>1395</ele>
        <time>1970-01-01T09:26:40.000Z</time>
      </trkpt>
      <trkpt lat="42.441762" lon="0.772014">
        <ele>1396</ele>
        <time>1970-01-01T09:26:46.000Z</time>
      </trkpt>
      <trkpt lat="42.44162" lon="0.771852">
        <ele>1397</ele>
        <time>1970-01-01T09:26:52.000Z</time>
      </trkpt>
      <trkpt lat="42.441529" lon="0.771768">
        <ele>1398</ele>
        <time>1970-01-01T09:26:56.000Z</time>
      </trkpt>
      <trkpt lat="42.441376" lon="0.771647">
        <ele>1399.2</ele>
        <time>1970-01-01T09:27:02.000Z</time>
      </trkpt>
      <trkpt lat="42.441198" lon="0.771493">
        <ele>1400.2</ele>
        <time>1970-01-01T09:27:09.000Z</time>
      </trkpt>
      <trkpt lat="42.441016" lon="0.771338">
        <ele>1401.2</ele>
        <time>1970-01-01T09:27:16.000Z</time>
      </trkpt>
      <trkpt lat="42.440848" lon="0.7712">
        <ele>1402.4</ele>
        <time>1970-01-01T09:27:23.000Z</time>
      </trkpt>
      <trkpt lat="42.440637" lon="0.771083">
        <ele>1402.8</ele>
        <time>1970-01-01T09:27:30.000Z</time>
      </trkpt>
      <trkpt lat="42.440392" lon="0.771216">
        <ele>1401.4</ele>
        <time>1970-01-01T09:27:35.000Z</time>
      </trkpt>
      <trkpt lat="42.440339" lon="0.771269">
        <ele>1401.2</ele>
        <time>1970-01-01T09:27:36.000Z</time>
      </trkpt>
      <trkpt lat="42.440119" lon="0.771496">
        <ele>1400.2</ele>
        <time>1970-01-01T09:27:40.000Z</time>
      </trkpt>
      <trkpt lat="42.439853" lon="0.771772">
        <ele>1399.2</ele>
        <time>1970-01-01T09:27:45.000Z</time>
      </trkpt>
      <trkpt lat="42.439811" lon="0.771836">
        <ele>1399.2</ele>
        <time>1970-01-01T09:27:46.000Z</time>
      </trkpt>
      <trkpt lat="42.439744" lon="0.772082">
        <ele>1398.2</ele>
        <time>1970-01-01T09:27:49.000Z</time>
      </trkpt>
      <trkpt lat="42.439729" lon="0.772171">
        <ele>1398</ele>
        <time>1970-01-01T09:27:50.000Z</time>
      </trkpt>
      <trkpt lat="42.43971" lon="0.772246">
        <ele>1397.8</ele>
        <time>1970-01-01T09:27:51.000Z</time>
      </trkpt>
      <trkpt lat="42.43949" lon="0.772216">
        <ele>1397.6</ele>
        <time>1970-01-01T09:27:57.000Z</time>
      </trkpt>
      <trkpt lat="42.439349" lon="0.772025">
        <ele>1399.6</ele>
        <time>1970-01-01T09:28:03.000Z</time>
      </trkpt>
      <trkpt lat="42.439256" lon="0.771902">
        <ele>1400.6</ele>
        <time>1970-01-01T09:28:08.000Z</time>
      </trkpt>
      <trkpt lat="42.439152" lon="0.771782">
        <ele>1401.8</ele>
        <time>1970-01-01T09:28:13.000Z</time>
      </trkpt>
      <trkpt lat="42.438694" lon="0.771661">
        <ele>1402.2</ele>
        <time>1970-01-01T09:28:28.000Z</time>
      </trkpt>
      <trkpt lat="42.438713" lon="0.771553">
        <ele>1402.6</ele>
        <time>1970-01-01T09:28:31.000Z</time>
      </trkpt>
      <trkpt lat="42.438739" lon="0.771348">
        <ele>1403.6</ele>
        <time>1970-01-01T09:28:36.000Z</time>
      </trkpt>
      <trkpt lat="42.438677" lon="0.771074">
        <ele>1404.8</ele>
        <time>1970-01-01T09:28:43.000Z</time>
      </trkpt>
      <trkpt lat="42.438612" lon="0.770935">
        <ele>1405.8</ele>
        <time>1970-01-01T09:28:47.000Z</time>
      </trkpt>
      <trkpt lat="42.438492" lon="0.770724">
        <ele>1407</ele>
        <time>1970-01-01T09:28:54.000Z</time>
      </trkpt>
      <trkpt lat="42.438453" lon="0.770588">
        <ele>1408.2</ele>
        <time>1970-01-01T09:28:58.000Z</time>
      </trkpt>
      <trkpt lat="42.438415" lon="0.770409">
        <ele>1409</ele>
        <time>1970-01-01T09:29:03.000Z</time>
      </trkpt>
      <trkpt lat="42.438373" lon="0.77023">
        <ele>1410.2</ele>
        <time>1970-01-01T09:29:08.000Z</time>
      </trkpt>
      <trkpt lat="42.438314" lon="0.770043">
        <ele>1411.4</ele>
        <time>1970-01-01T09:29:14.000Z</time>
      </trkpt>
      <trkpt lat="42.438239" lon="0.769841">
        <ele>1412.6</ele>
        <time>1970-01-01T09:29:21.000Z</time>
      </trkpt>
      <trkpt lat="42.438087" lon="0.769694">
        <ele>1413.8</ele>
        <time>1970-01-01T09:29:29.000Z</time>
      </trkpt>
      <trkpt lat="42.437893" lon="0.769647">
        <ele>1414.8</ele>
        <time>1970-01-01T09:29:37.000Z</time>
      </trkpt>
      <trkpt lat="42.437472" lon="0.769483">
        <ele>1415.2</ele>
        <time>1970-01-01T09:29:55.000Z</time>
      </trkpt>
      <trkpt lat="42.437648" lon="0.769043">
        <ele>1415.4</ele>
        <time>1970-01-01T09:30:10.000Z</time>
      </trkpt>
      <trkpt lat="42.437595" lon="0.76898">
        <ele>1415.2</ele>
        <time>1970-01-01T09:30:14.000Z</time>
      </trkpt>
      <trkpt lat="42.437591" lon="0.768966">
        <ele>1415.2</ele>
        <time>1970-01-01T09:30:16.000Z</time>
      </trkpt>
      <trkpt lat="42.437612" lon="0.768974">
        <ele>1415.6</ele>
        <time>1970-01-01T09:31:21.000Z</time>
      </trkpt>
      <trkpt lat="42.437617" lon="0.769116">
        <ele>1415.2</ele>
        <time>1970-01-01T09:31:27.000Z</time>
      </trkpt>
      <trkpt lat="42.437593" lon="0.769159">
        <ele>1415.4</ele>
        <time>1970-01-01T09:31:29.000Z</time>
      </trkpt>
      <trkpt lat="42.437551" lon="0.76919">
        <ele>1415.8</ele>
        <time>1970-01-01T09:31:32.000Z</time>
      </trkpt>
      <trkpt lat="42.437571" lon="0.769219">
        <ele>1416.4</ele>
        <time>1970-01-01T09:31:37.000Z</time>
      </trkpt>
      <trkpt lat="42.437596" lon="0.769178">
        <ele>1416</ele>
        <time>1970-01-01T09:32:08.000Z</time>
      </trkpt>
      <trkpt lat="42.437581" lon="0.76913">
        <ele>1415.6</ele>
        <time>1970-01-01T09:32:13.000Z</time>
      </trkpt>
      <trkpt lat="42.437563" lon="0.769164">
        <ele>1415.4</ele>
        <time>1970-01-01T09:34:01.000Z</time>
      </trkpt>
      <trkpt lat="42.437453" lon="0.769506">
        <ele>1416.2</ele>
        <time>1970-01-01T09:34:13.000Z</time>
      </trkpt>
      <trkpt lat="42.437418" lon="0.769573">
        <ele>1415.4</ele>
        <time>1970-01-01T09:34:15.000Z</time>
      </trkpt>
      <trkpt lat="42.437289" lon="0.769604">
        <ele>1414.6</ele>
        <time>1970-01-01T09:34:18.000Z</time>
      </trkpt>
      <trkpt lat="42.437233" lon="0.769603">
        <ele>1414.4</ele>
        <time>1970-01-01T09:34:19.000Z</time>
      </trkpt>
      <trkpt lat="42.437174" lon="0.769598">
        <ele>1414</ele>
        <time>1970-01-01T09:34:20.000Z</time>
      </trkpt>
      <trkpt lat="42.43706" lon="0.769557">
        <ele>1413.4</ele>
        <time>1970-01-01T09:34:22.000Z</time>
      </trkpt>
      <trkpt lat="42.436956" lon="0.769476">
        <ele>1413</ele>
        <time>1970-01-01T09:34:24.000Z</time>
      </trkpt>
      <trkpt lat="42.436807" lon="0.769352">
        <ele>1412.2</ele>
        <time>1970-01-01T09:34:27.000Z</time>
      </trkpt>
      <trkpt lat="42.436762" lon="0.769313">
        <ele>1411.6</ele>
        <time>1970-01-01T09:34:28.000Z</time>
      </trkpt>
      <trkpt lat="42.436672" lon="0.769229">
        <ele>1410.8</ele>
        <time>1970-01-01T09:34:30.000Z</time>
      </trkpt>
      <trkpt lat="42.43663" lon="0.76918">
        <ele>1410.4</ele>
        <time>1970-01-01T09:34:31.000Z</time>
      </trkpt>
      <trkpt lat="42.436557" lon="0.768957">
        <ele>1409.4</ele>
        <time>1970-01-01T09:34:34.000Z</time>
      </trkpt>
      <trkpt lat="42.436527" lon="0.768776">
        <ele>1408.2</ele>
        <time>1970-01-01T09:34:36.000Z</time>
      </trkpt>
      <trkpt lat="42.436438" lon="0.76862">
        <ele>1406.8</ele>
        <time>1970-01-01T09:34:38.000Z</time>
      </trkpt>
      <trkpt lat="42.436336" lon="0.768509">
        <ele>1405.4</ele>
        <time>1970-01-01T09:34:40.000Z</time>
      </trkpt>
      <trkpt lat="42.436205" lon="0.768443">
        <ele>1404</ele>
        <time>1970-01-01T09:34:43.000Z</time>
      </trkpt>
      <trkpt lat="42.436105" lon="0.768449">
        <ele>1403.2</ele>
        <time>1970-01-01T09:34:47.000Z</time>
      </trkpt>
      <trkpt lat="42.436076" lon="0.768458">
        <ele>1402.8</ele>
        <time>1970-01-01T09:34:49.000Z</time>
      </trkpt>
      <trkpt lat="42.436064" lon="0.768457">
        <ele>1402.6</ele>
        <time>1970-01-01T09:34:50.000Z</time>
      </trkpt>
      <trkpt lat="42.436056" lon="0.768454">
        <ele>1402.4</ele>
        <time>1970-01-01T09:34:52.000Z</time>
      </trkpt>
      <trkpt lat="42.436" lon="0.768439">
        <ele>1401.8</ele>
        <time>1970-01-01T09:36:26.000Z</time>
      </trkpt>
      <trkpt lat="42.435919" lon="0.768399">
        <ele>1401.2</ele>
        <time>1970-01-01T09:36:28.000Z</time>
      </trkpt>
      <trkpt lat="42.435815" lon="0.768328">
        <ele>1400.6</ele>
        <time>1970-01-01T09:36:30.000Z</time>
      </trkpt>
      <trkpt lat="42.435621" lon="0.768197">
        <ele>1399.4</ele>
        <time>1970-01-01T09:36:33.000Z</time>
      </trkpt>
      <trkpt lat="42.43546" lon="0.768132">
        <ele>1398.4</ele>
        <time>1970-01-01T09:36:35.000Z</time>
      </trkpt>
      <trkpt lat="42.435374" lon="0.768119">
        <ele>1396.8</ele>
        <time>1970-01-01T09:36:36.000Z</time>
      </trkpt>
      <trkpt lat="42.435298" lon="0.768107">
        <ele>1395.6</ele>
        <time>1970-01-01T09:36:37.000Z</time>
      </trkpt>
      <trkpt lat="42.435233" lon="0.768088">
        <ele>1394.2</ele>
        <time>1970-01-01T09:36:38.000Z</time>
      </trkpt>
      <trkpt lat="42.435182" lon="0.768058">
        <ele>1393.2</ele>
        <time>1970-01-01T09:36:39.000Z</time>
      </trkpt>
      <trkpt lat="42.435131" lon="0.767929">
        <ele>1391.6</ele>
        <time>1970-01-01T09:36:41.000Z</time>
      </trkpt>
      <trkpt lat="42.435107" lon="0.767749">
        <ele>1390</ele>
        <time>1970-01-01T09:36:43.000Z</time>
      </trkpt>
      <trkpt lat="42.435139" lon="0.767524">
        <ele>1388</ele>
        <time>1970-01-01T09:36:45.000Z</time>
      </trkpt>
      <trkpt lat="42.435156" lon="0.767416">
        <ele>1386.8</ele>
        <time>1970-01-01T09:36:46.000Z</time>
      </trkpt>
      <trkpt lat="42.435159" lon="0.767238">
        <ele>1385.2</ele>
        <time>1970-01-01T09:36:48.000Z</time>
      </trkpt>
      <trkpt lat="42.435098" lon="0.767112">
        <ele>1384.2</ele>
        <time>1970-01-01T09:36:50.000Z</time>
      </trkpt>
      <trkpt lat="42.434915" lon="0.767058">
        <ele>1382.6</ele>
        <time>1970-01-01T09:36:53.000Z</time>
      </trkpt>
      <trkpt lat="42.434852" lon="0.767038">
        <ele>1382.2</ele>
        <time>1970-01-01T09:36:54.000Z</time>
      </trkpt>
      <trkpt lat="42.434725" lon="0.766981">
        <ele>1381.2</ele>
        <time>1970-01-01T09:36:56.000Z</time>
      </trkpt>
      <trkpt lat="42.434639" lon="0.766876">
        <ele>1379.6</ele>
        <time>1970-01-01T09:36:58.000Z</time>
      </trkpt>
      <trkpt lat="42.434653" lon="0.766728">
        <ele>1377.8</ele>
        <time>1970-01-01T09:37:00.000Z</time>
      </trkpt>
      <trkpt lat="42.434689" lon="0.766678">
        <ele>1376.4</ele>
        <time>1970-01-01T09:37:01.000Z</time>
      </trkpt>
      <trkpt lat="42.43474" lon="0.76665">
        <ele>1375.4</ele>
        <time>1970-01-01T09:37:02.000Z</time>
      </trkpt>
      <trkpt lat="42.434873" lon="0.766673">
        <ele>1374</ele>
        <time>1970-01-01T09:37:04.000Z</time>
      </trkpt>
      <trkpt lat="42.434937" lon="0.766706">
        <ele>1373.4</ele>
        <time>1970-01-01T09:37:05.000Z</time>
      </trkpt>
      <trkpt lat="42.435006" lon="0.766737">
        <ele>1372.6</ele>
        <time>1970-01-01T09:37:06.000Z</time>
      </trkpt>
      <trkpt lat="42.435148" lon="0.766775">
        <ele>1371.2</ele>
        <time>1970-01-01T09:37:08.000Z</time>
      </trkpt>
      <trkpt lat="42.43526" lon="0.766746">
        <ele>1369.2</ele>
        <time>1970-01-01T09:37:10.000Z</time>
      </trkpt>
      <trkpt lat="42.435351" lon="0.766725">
        <ele>1368</ele>
        <time>1970-01-01T09:37:12.000Z</time>
      </trkpt>
      <trkpt lat="42.435431" lon="0.766751">
        <ele>1367</ele>
        <time>1970-01-01T09:37:14.000Z</time>
      </trkpt>
      <trkpt lat="42.435529" lon="0.766862">
        <ele>1365.6</ele>
        <time>1970-01-01T09:37:17.000Z</time>
      </trkpt>
      <trkpt lat="42.4356" lon="0.766882">
        <ele>1364</ele>
        <time>1970-01-01T09:37:19.000Z</time>
      </trkpt>
      <trkpt lat="42.435623" lon="0.766773">
        <ele>1362.8</ele>
        <time>1970-01-01T09:37:21.000Z</time>
      </trkpt>
      <trkpt lat="42.435576" lon="0.766675">
        <ele>1361.4</ele>
        <time>1970-01-01T09:37:23.000Z</time>
      </trkpt>
      <trkpt lat="42.435499" lon="0.766605">
        <ele>1360</ele>
        <time>1970-01-01T09:37:25.000Z</time>
      </trkpt>
      <trkpt lat="42.435419" lon="0.766517">
        <ele>1359.4</ele>
        <time>1970-01-01T09:37:27.000Z</time>
      </trkpt>
      <trkpt lat="42.435382" lon="0.76647">
        <ele>1358.8</ele>
        <time>1970-01-01T09:37:28.000Z</time>
      </trkpt>
      <trkpt lat="42.435307" lon="0.766363">
        <ele>1357.6</ele>
        <time>1970-01-01T09:37:30.000Z</time>
      </trkpt>
      <trkpt lat="42.43523" lon="0.766217">
        <ele>1355.6</ele>
        <time>1970-01-01T09:37:32.000Z</time>
      </trkpt>
      <trkpt lat="42.435191" lon="0.766143">
        <ele>1354.6</ele>
        <time>1970-01-01T09:37:33.000Z</time>
      </trkpt>
      <trkpt lat="42.435106" lon="0.765976">
        <ele>1352.8</ele>
        <time>1970-01-01T09:37:35.000Z</time>
      </trkpt>
      <trkpt lat="42.435029" lon="0.765759">
        <ele>1350.8</ele>
        <time>1970-01-01T09:37:37.000Z</time>
      </trkpt>
      <trkpt lat="42.434982" lon="0.765493">
        <ele>1349</ele>
        <time>1970-01-01T09:37:39.000Z</time>
      </trkpt>
      <trkpt lat="42.434971" lon="0.765348">
        <ele>1348</ele>
        <time>1970-01-01T09:37:40.000Z</time>
      </trkpt>
      <trkpt lat="42.43496" lon="0.765196">
        <ele>1347.2</ele>
        <time>1970-01-01T09:37:41.000Z</time>
      </trkpt>
      <trkpt lat="42.434942" lon="0.765047">
        <ele>1346.6</ele>
        <time>1970-01-01T09:37:42.000Z</time>
      </trkpt>
      <trkpt lat="42.434905" lon="0.764897">
        <ele>1345.8</ele>
        <time>1970-01-01T09:37:43.000Z</time>
      </trkpt>
      <trkpt lat="42.434854" lon="0.76475">
        <ele>1344.6</ele>
        <time>1970-01-01T09:37:44.000Z</time>
      </trkpt>
      <trkpt lat="42.434784" lon="0.764618">
        <ele>1342.8</ele>
        <time>1970-01-01T09:37:45.000Z</time>
      </trkpt>
      <trkpt lat="42.434735" lon="0.764486">
        <ele>1341.6</ele>
        <time>1970-01-01T09:37:46.000Z</time>
      </trkpt>
      <trkpt lat="42.434699" lon="0.764363">
        <ele>1340.4</ele>
        <time>1970-01-01T09:37:47.000Z</time>
      </trkpt>
      <trkpt lat="42.434675" lon="0.764244">
        <ele>1339</ele>
        <time>1970-01-01T09:37:48.000Z</time>
      </trkpt>
      <trkpt lat="42.43466" lon="0.764117">
        <ele>1337.8</ele>
        <time>1970-01-01T09:37:49.000Z</time>
      </trkpt>
      <trkpt lat="42.434653" lon="0.76384">
        <ele>1335.6</ele>
        <time>1970-01-01T09:37:51.000Z</time>
      </trkpt>
      <trkpt lat="42.434665" lon="0.763692">
        <ele>1334.2</ele>
        <time>1970-01-01T09:37:52.000Z</time>
      </trkpt>
      <trkpt lat="42.434685" lon="0.76354">
        <ele>1333.2</ele>
        <time>1970-01-01T09:37:53.000Z</time>
      </trkpt>
      <trkpt lat="42.434707" lon="0.763385">
        <ele>1331.8</ele>
        <time>1970-01-01T09:37:54.000Z</time>
      </trkpt>
      <trkpt lat="42.434754" lon="0.763074">
        <ele>1330.6</ele>
        <time>1970-01-01T09:37:56.000Z</time>
      </trkpt>
      <trkpt lat="42.434801" lon="0.76278">
        <ele>1329.4</ele>
        <time>1970-01-01T09:37:58.000Z</time>
      </trkpt>
      <trkpt lat="42.434978" lon="0.762045">
        <ele>1328.4</ele>
        <time>1970-01-01T09:38:04.000Z</time>
      </trkpt>
      <trkpt lat="42.435091" lon="0.761562">
        <ele>1328.2</ele>
        <time>1970-01-01T09:38:14.000Z</time>
      </trkpt>
      <trkpt lat="42.434972" lon="0.761572">
        <ele>1327.6</ele>
        <time>1970-01-01T09:43:55.000Z</time>
      </trkpt>
      <trkpt lat="42.434571" lon="0.761396">
        <ele>1327.6</ele>
        <time>1970-01-01T09:44:15.000Z</time>
      </trkpt>
      <trkpt lat="42.434389" lon="0.76132">
        <ele>1326.6</ele>
        <time>1970-01-01T09:44:20.000Z</time>
      </trkpt>
      <trkpt lat="42.434224" lon="0.761266">
        <ele>1325.2</ele>
        <time>1970-01-01T09:44:24.000Z</time>
      </trkpt>
      <trkpt lat="42.434126" lon="0.76123">
        <ele>1324.2</ele>
        <time>1970-01-01T09:44:26.000Z</time>
      </trkpt>
      <trkpt lat="42.434026" lon="0.761209">
        <ele>1323.2</ele>
        <time>1970-01-01T09:44:28.000Z</time>
      </trkpt>
      <trkpt lat="42.433907" lon="0.761193">
        <ele>1322</ele>
        <time>1970-01-01T09:44:30.000Z</time>
      </trkpt>
      <trkpt lat="42.433843" lon="0.761192">
        <ele>1321.4</ele>
        <time>1970-01-01T09:44:31.000Z</time>
      </trkpt>
      <trkpt lat="42.433779" lon="0.761202">
        <ele>1320.8</ele>
        <time>1970-01-01T09:44:32.000Z</time>
      </trkpt>
      <trkpt lat="42.433649" lon="0.761264">
        <ele>1319.2</ele>
        <time>1970-01-01T09:44:34.000Z</time>
      </trkpt>
      <trkpt lat="42.433449" lon="0.761433">
        <ele>1317.6</ele>
        <time>1970-01-01T09:44:37.000Z</time>
      </trkpt>
      <trkpt lat="42.433383" lon="0.761491">
        <ele>1317</ele>
        <time>1970-01-01T09:44:38.000Z</time>
      </trkpt>
      <trkpt lat="42.433311" lon="0.761537">
        <ele>1316.4</ele>
        <time>1970-01-01T09:44:39.000Z</time>
      </trkpt>
      <trkpt lat="42.433159" lon="0.761623">
        <ele>1315.4</ele>
        <time>1970-01-01T09:44:41.000Z</time>
      </trkpt>
      <trkpt lat="42.433009" lon="0.761709">
        <ele>1313.8</ele>
        <time>1970-01-01T09:44:43.000Z</time>
      </trkpt>
      <trkpt lat="42.432837" lon="0.761777">
        <ele>1312.2</ele>
        <time>1970-01-01T09:44:45.000Z</time>
      </trkpt>
      <trkpt lat="42.432656" lon="0.761855">
        <ele>1310.6</ele>
        <time>1970-01-01T09:44:47.000Z</time>
      </trkpt>
      <trkpt lat="42.432495" lon="0.761981">
        <ele>1309.2</ele>
        <time>1970-01-01T09:44:49.000Z</time>
      </trkpt>
      <trkpt lat="42.432328" lon="0.762248">
        <ele>1308.2</ele>
        <time>1970-01-01T09:44:52.000Z</time>
      </trkpt>
      <trkpt lat="42.432286" lon="0.762338">
        <ele>1308.2</ele>
        <time>1970-01-01T09:44:53.000Z</time>
      </trkpt>
      <trkpt lat="42.432168" lon="0.762598">
        <ele>1307.6</ele>
        <time>1970-01-01T09:44:56.000Z</time>
      </trkpt>
      <trkpt lat="42.432082" lon="0.762705">
        <ele>1307.2</ele>
        <time>1970-01-01T09:44:58.000Z</time>
      </trkpt>
      <trkpt lat="42.431968" lon="0.762712">
        <ele>1306</ele>
        <time>1970-01-01T09:45:00.000Z</time>
      </trkpt>
      <trkpt lat="42.431839" lon="0.762641">
        <ele>1305</ele>
        <time>1970-01-01T09:45:02.000Z</time>
      </trkpt>
      <trkpt lat="42.431693" lon="0.762564">
        <ele>1303.4</ele>
        <time>1970-01-01T09:45:04.000Z</time>
      </trkpt>
      <trkpt lat="42.431535" lon="0.762486">
        <ele>1302</ele>
        <time>1970-01-01T09:45:06.000Z</time>
      </trkpt>
      <trkpt lat="42.43145" lon="0.762456">
        <ele>1301.2</ele>
        <time>1970-01-01T09:45:07.000Z</time>
      </trkpt>
      <trkpt lat="42.431359" lon="0.762433">
        <ele>1300.2</ele>
        <time>1970-01-01T09:45:08.000Z</time>
      </trkpt>
      <trkpt lat="42.431175" lon="0.76241">
        <ele>1298.8</ele>
        <time>1970-01-01T09:45:10.000Z</time>
      </trkpt>
      <trkpt lat="42.430996" lon="0.762446">
        <ele>1297</ele>
        <time>1970-01-01T09:45:12.000Z</time>
      </trkpt>
      <trkpt lat="42.430822" lon="0.762527">
        <ele>1295.8</ele>
        <time>1970-01-01T09:45:14.000Z</time>
      </trkpt>
      <trkpt lat="42.430648" lon="0.762613">
        <ele>1294.2</ele>
        <time>1970-01-01T09:45:16.000Z</time>
      </trkpt>
      <trkpt lat="42.430562" lon="0.762653">
        <ele>1293.2</ele>
        <time>1970-01-01T09:45:17.000Z</time>
      </trkpt>
      <trkpt lat="42.430479" lon="0.7627">
        <ele>1292.2</ele>
        <time>1970-01-01T09:45:18.000Z</time>
      </trkpt>
      <trkpt lat="42.4304" lon="0.762754">
        <ele>1291.2</ele>
        <time>1970-01-01T09:45:19.000Z</time>
      </trkpt>
      <trkpt lat="42.430329" lon="0.762822">
        <ele>1290.4</ele>
        <time>1970-01-01T09:45:20.000Z</time>
      </trkpt>
      <trkpt lat="42.430207" lon="0.762976">
        <ele>1288.6</ele>
        <time>1970-01-01T09:45:22.000Z</time>
      </trkpt>
      <trkpt lat="42.430144" lon="0.763046">
        <ele>1287.8</ele>
        <time>1970-01-01T09:45:23.000Z</time>
      </trkpt>
      <trkpt lat="42.430074" lon="0.763103">
        <ele>1287</ele>
        <time>1970-01-01T09:45:24.000Z</time>
      </trkpt>
      <trkpt lat="42.429995" lon="0.763137">
        <ele>1285.4</ele>
        <time>1970-01-01T09:45:25.000Z</time>
      </trkpt>
      <trkpt lat="42.429912" lon="0.763151">
        <ele>1284.2</ele>
        <time>1970-01-01T09:45:26.000Z</time>
      </trkpt>
      <trkpt lat="42.429743" lon="0.763147">
        <ele>1282.8</ele>
        <time>1970-01-01T09:45:28.000Z</time>
      </trkpt>
      <trkpt lat="42.429577" lon="0.76314">
        <ele>1281.6</ele>
        <time>1970-01-01T09:45:30.000Z</time>
      </trkpt>
      <trkpt lat="42.429356" lon="0.763256">
        <ele>1280.6</ele>
        <time>1970-01-01T09:45:33.000Z</time>
      </trkpt>
      <trkpt lat="42.429239" lon="0.763365">
        <ele>1280</ele>
        <time>1970-01-01T09:45:35.000Z</time>
      </trkpt>
      <trkpt lat="42.42884" lon="0.76367">
        <ele>1279.2</ele>
        <time>1970-01-01T09:45:42.000Z</time>
      </trkpt>
      <trkpt lat="42.428698" lon="0.763768">
        <ele>1277.8</ele>
        <time>1970-01-01T09:45:44.000Z</time>
      </trkpt>
      <trkpt lat="42.428545" lon="0.76388">
        <ele>1276.6</ele>
        <time>1970-01-01T09:45:46.000Z</time>
      </trkpt>
      <trkpt lat="42.428381" lon="0.763996">
        <ele>1275.4</ele>
        <time>1970-01-01T09:45:48.000Z</time>
      </trkpt>
      <trkpt lat="42.42822" lon="0.764128">
        <ele>1274</ele>
        <time>1970-01-01T09:45:50.000Z</time>
      </trkpt>
      <trkpt lat="42.428145" lon="0.764206">
        <ele>1273.4</ele>
        <time>1970-01-01T09:45:51.000Z</time>
      </trkpt>
      <trkpt lat="42.428077" lon="0.764293">
        <ele>1272.2</ele>
        <time>1970-01-01T09:45:52.000Z</time>
      </trkpt>
      <trkpt lat="42.427897" lon="0.764583">
        <ele>1270.6</ele>
        <time>1970-01-01T09:45:55.000Z</time>
      </trkpt>
      <trkpt lat="42.427751" lon="0.764907">
        <ele>1269</ele>
        <time>1970-01-01T09:45:58.000Z</time>
      </trkpt>
      <trkpt lat="42.427657" lon="0.765118">
        <ele>1267.6</ele>
        <time>1970-01-01T09:46:00.000Z</time>
      </trkpt>
      <trkpt lat="42.42753" lon="0.765292">
        <ele>1266.2</ele>
        <time>1970-01-01T09:46:02.000Z</time>
      </trkpt>
      <trkpt lat="42.427408" lon="0.765428">
        <ele>1264.6</ele>
        <time>1970-01-01T09:46:04.000Z</time>
      </trkpt>
      <trkpt lat="42.42735" lon="0.765494">
        <ele>1264.2</ele>
        <time>1970-01-01T09:46:05.000Z</time>
      </trkpt>
      <trkpt lat="42.427233" lon="0.765638">
        <ele>1263.4</ele>
        <time>1970-01-01T09:46:07.000Z</time>
      </trkpt>
      <trkpt lat="42.42711" lon="0.765782">
        <ele>1262.2</ele>
        <time>1970-01-01T09:46:09.000Z</time>
      </trkpt>
      <trkpt lat="42.426903" lon="0.765976">
        <ele>1261.2</ele>
        <time>1970-01-01T09:46:12.000Z</time>
      </trkpt>
      <trkpt lat="42.426701" lon="0.766203">
        <ele>1259.8</ele>
        <time>1970-01-01T09:46:15.000Z</time>
      </trkpt>
      <trkpt lat="42.426528" lon="0.766453">
        <ele>1258.2</ele>
        <time>1970-01-01T09:46:18.000Z</time>
      </trkpt>
      <trkpt lat="42.426483" lon="0.766509">
        <ele>1257.8</ele>
        <time>1970-01-01T09:46:19.000Z</time>
      </trkpt>
      <trkpt lat="42.426444" lon="0.766541">
        <ele>1257.2</ele>
        <time>1970-01-01T09:46:20.000Z</time>
      </trkpt>
      <trkpt lat="42.426361" lon="0.766534">
        <ele>1255.8</ele>
        <time>1970-01-01T09:46:22.000Z</time>
      </trkpt>
      <trkpt lat="42.426307" lon="0.766438">
        <ele>1254.6</ele>
        <time>1970-01-01T09:46:24.000Z</time>
      </trkpt>
      <trkpt lat="42.426354" lon="0.766182">
        <ele>1252.8</ele>
        <time>1970-01-01T09:46:27.000Z</time>
      </trkpt>
      <trkpt lat="42.426389" lon="0.766088">
        <ele>1252.2</ele>
        <time>1970-01-01T09:46:28.000Z</time>
      </trkpt>
      <trkpt lat="42.42643" lon="0.765993">
        <ele>1251.4</ele>
        <time>1970-01-01T09:46:29.000Z</time>
      </trkpt>
      <trkpt lat="42.426525" lon="0.765801">
        <ele>1250.4</ele>
        <time>1970-01-01T09:46:31.000Z</time>
      </trkpt>
      <trkpt lat="42.42664" lon="0.765625">
        <ele>1249.6</ele>
        <time>1970-01-01T09:46:33.000Z</time>
      </trkpt>
      <trkpt lat="42.426704" lon="0.765543">
        <ele>1249.2</ele>
        <time>1970-01-01T09:46:34.000Z</time>
      </trkpt>
      <trkpt lat="42.426828" lon="0.76538">
        <ele>1248</ele>
        <time>1970-01-01T09:46:36.000Z</time>
      </trkpt>
      <trkpt lat="42.426915" lon="0.765246">
        <ele>1247</ele>
        <time>1970-01-01T09:46:38.000Z</time>
      </trkpt>
      <trkpt lat="42.426916" lon="0.765179">
        <ele>1246.4</ele>
        <time>1970-01-01T09:46:39.000Z</time>
      </trkpt>
      <trkpt lat="42.42678" lon="0.76518">
        <ele>1245.4</ele>
        <time>1970-01-01T09:46:43.000Z</time>
      </trkpt>
      <trkpt lat="42.426706" lon="0.765284">
        <ele>1244.4</ele>
        <time>1970-01-01T09:46:45.000Z</time>
      </trkpt>
      <trkpt lat="42.426664" lon="0.765336">
        <ele>1244.2</ele>
        <time>1970-01-01T09:46:46.000Z</time>
      </trkpt>
      <trkpt lat="42.426413" lon="0.765475">
        <ele>1243</ele>
        <time>1970-01-01T09:46:50.000Z</time>
      </trkpt>
      <trkpt lat="42.426178" lon="0.765565">
        <ele>1242</ele>
        <time>1970-01-01T09:46:53.000Z</time>
      </trkpt>
      <trkpt lat="42.426016" lon="0.765614">
        <ele>1240.6</ele>
        <time>1970-01-01T09:46:55.000Z</time>
      </trkpt>
      <trkpt lat="42.425937" lon="0.765619">
        <ele>1240.2</ele>
        <time>1970-01-01T09:46:56.000Z</time>
      </trkpt>
      <trkpt lat="42.425858" lon="0.765605">
        <ele>1239.4</ele>
        <time>1970-01-01T09:46:57.000Z</time>
      </trkpt>
      <trkpt lat="42.425727" lon="0.765511">
        <ele>1238.2</ele>
        <time>1970-01-01T09:46:59.000Z</time>
      </trkpt>
      <trkpt lat="42.425622" lon="0.765228">
        <ele>1236.6</ele>
        <time>1970-01-01T09:47:02.000Z</time>
      </trkpt>
      <trkpt lat="42.425615" lon="0.765115">
        <ele>1235.8</ele>
        <time>1970-01-01T09:47:03.000Z</time>
      </trkpt>
      <trkpt lat="42.425603" lon="0.765004">
        <ele>1235.6</ele>
        <time>1970-01-01T09:47:04.000Z</time>
      </trkpt>
      <trkpt lat="42.425581" lon="0.764897">
        <ele>1235.4</ele>
        <time>1970-01-01T09:47:05.000Z</time>
      </trkpt>
      <trkpt lat="42.425486" lon="0.764578">
        <ele>1234.2</ele>
        <time>1970-01-01T09:47:08.000Z</time>
      </trkpt>
      <trkpt lat="42.425369" lon="0.764252">
        <ele>1232.6</ele>
        <time>1970-01-01T09:47:11.000Z</time>
      </trkpt>
      <trkpt lat="42.42525" lon="0.7639">
        <ele>1231.2</ele>
        <time>1970-01-01T09:47:14.000Z</time>
      </trkpt>
      <trkpt lat="42.425167" lon="0.763666">
        <ele>1229.4</ele>
        <time>1970-01-01T09:47:16.000Z</time>
      </trkpt>
      <trkpt lat="42.425065" lon="0.763453">
        <ele>1228</ele>
        <time>1970-01-01T09:47:18.000Z</time>
      </trkpt>
      <trkpt lat="42.424915" lon="0.763277">
        <ele>1226.2</ele>
        <time>1970-01-01T09:47:20.000Z</time>
      </trkpt>
      <trkpt lat="42.424823" lon="0.763207">
        <ele>1225</ele>
        <time>1970-01-01T09:47:21.000Z</time>
      </trkpt>
      <trkpt lat="42.424629" lon="0.7631">
        <ele>1223.4</ele>
        <time>1970-01-01T09:47:23.000Z</time>
      </trkpt>
      <trkpt lat="42.424537" lon="0.763058">
        <ele>1222.4</ele>
        <time>1970-01-01T09:47:24.000Z</time>
      </trkpt>
      <trkpt lat="42.424358" lon="0.762987">
        <ele>1221</ele>
        <time>1970-01-01T09:47:26.000Z</time>
      </trkpt>
      <trkpt lat="42.424176" lon="0.762917">
        <ele>1220</ele>
        <time>1970-01-01T09:47:28.000Z</time>
      </trkpt>
      <trkpt lat="42.423996" lon="0.762862">
        <ele>1218.8</ele>
        <time>1970-01-01T09:47:30.000Z</time>
      </trkpt>
      <trkpt lat="42.42391" lon="0.76285">
        <ele>1218.2</ele>
        <time>1970-01-01T09:47:31.000Z</time>
      </trkpt>
      <trkpt lat="42.423824" lon="0.762852">
        <ele>1217.4</ele>
        <time>1970-01-01T09:47:32.000Z</time>
      </trkpt>
      <trkpt lat="42.423667" lon="0.762885">
        <ele>1216.2</ele>
        <time>1970-01-01T09:47:34.000Z</time>
      </trkpt>
      <trkpt lat="42.423523" lon="0.762933">
        <ele>1214.8</ele>
        <time>1970-01-01T09:47:36.000Z</time>
      </trkpt>
      <trkpt lat="42.423377" lon="0.762986">
        <ele>1213.8</ele>
        <time>1970-01-01T09:47:38.000Z</time>
      </trkpt>
      <trkpt lat="42.422826" lon="0.763217">
        <ele>1213.4</ele>
        <time>1970-01-01T09:47:47.000Z</time>
      </trkpt>
      <trkpt lat="42.422557" lon="0.763299">
        <ele>1212.8</ele>
        <time>1970-01-01T09:47:53.000Z</time>
      </trkpt>
      <trkpt lat="42.422469" lon="0.763332">
        <ele>1212</ele>
        <time>1970-01-01T09:47:55.000Z</time>
      </trkpt>
      <trkpt lat="42.42242" lon="0.763345">
        <ele>1211.8</ele>
        <time>1970-01-01T09:47:56.000Z</time>
      </trkpt>
      <trkpt lat="42.422192" lon="0.763368">
        <ele>1210.8</ele>
        <time>1970-01-01T09:48:00.000Z</time>
      </trkpt>
      <trkpt lat="42.422025" lon="0.763363">
        <ele>1209.4</ele>
        <time>1970-01-01T09:48:03.000Z</time>
      </trkpt>
      <trkpt lat="42.421934" lon="0.763365">
        <ele>1208.4</ele>
        <time>1970-01-01T09:48:05.000Z</time>
      </trkpt>
      <trkpt lat="42.421762" lon="0.76338">
        <ele>1207.2</ele>
        <time>1970-01-01T09:48:09.000Z</time>
      </trkpt>
      <trkpt lat="42.421717" lon="0.76338">
        <ele>1206.8</ele>
        <time>1970-01-01T09:48:10.000Z</time>
      </trkpt>
      <trkpt lat="42.421566" lon="0.76338">
        <ele>1205.8</ele>
        <time>1970-01-01T09:48:13.000Z</time>
      </trkpt>
      <trkpt lat="42.421378" lon="0.763363">
        <ele>1204.6</ele>
        <time>1970-01-01T09:48:16.000Z</time>
      </trkpt>
      <trkpt lat="42.421186" lon="0.763336">
        <ele>1203.4</ele>
        <time>1970-01-01T09:48:19.000Z</time>
      </trkpt>
      <trkpt lat="42.42113" lon="0.763316">
        <ele>1203</ele>
        <time>1970-01-01T09:48:20.000Z</time>
      </trkpt>
      <trkpt lat="42.421079" lon="0.76329">
        <ele>1202.2</ele>
        <time>1970-01-01T09:48:21.000Z</time>
      </trkpt>
      <trkpt lat="42.420977" lon="0.763214">
        <ele>1201</ele>
        <time>1970-01-01T09:48:23.000Z</time>
      </trkpt>
      <trkpt lat="42.420835" lon="0.76303">
        <ele>1199.8</ele>
        <time>1970-01-01T09:48:26.000Z</time>
      </trkpt>
      <trkpt lat="42.420743" lon="0.762905">
        <ele>1198.6</ele>
        <time>1970-01-01T09:48:28.000Z</time>
      </trkpt>
      <trkpt lat="42.420655" lon="0.762792">
        <ele>1197.4</ele>
        <time>1970-01-01T09:48:30.000Z</time>
      </trkpt>
      <trkpt lat="42.420538" lon="0.762621">
        <ele>1196.4</ele>
        <time>1970-01-01T09:48:33.000Z</time>
      </trkpt>
      <trkpt lat="42.42034" lon="0.762319">
        <ele>1195.4</ele>
        <time>1970-01-01T09:48:38.000Z</time>
      </trkpt>
      <trkpt lat="42.420243" lon="0.762096">
        <ele>1194</ele>
        <time>1970-01-01T09:48:41.000Z</time>
      </trkpt>
      <trkpt lat="42.420167" lon="0.76193">
        <ele>1193</ele>
        <time>1970-01-01T09:48:43.000Z</time>
      </trkpt>
      <trkpt lat="42.42009" lon="0.761758">
        <ele>1191.8</ele>
        <time>1970-01-01T09:48:45.000Z</time>
      </trkpt>
      <trkpt lat="42.420049" lon="0.761675">
        <ele>1191</ele>
        <time>1970-01-01T09:48:46.000Z</time>
      </trkpt>
      <trkpt lat="42.420002" lon="0.761606">
        <ele>1190.4</ele>
        <time>1970-01-01T09:48:47.000Z</time>
      </trkpt>
      <trkpt lat="42.419815" lon="0.761494">
        <ele>1189.4</ele>
        <time>1970-01-01T09:48:50.000Z</time>
      </trkpt>
      <trkpt lat="42.419597" lon="0.761434">
        <ele>1188.2</ele>
        <time>1970-01-01T09:48:53.000Z</time>
      </trkpt>
      <trkpt lat="42.419433" lon="0.761397">
        <ele>1187.2</ele>
        <time>1970-01-01T09:48:55.000Z</time>
      </trkpt>
      <trkpt lat="42.419344" lon="0.761389">
        <ele>1186.8</ele>
        <time>1970-01-01T09:48:56.000Z</time>
      </trkpt>
      <trkpt lat="42.419252" lon="0.761386">
        <ele>1185.8</ele>
        <time>1970-01-01T09:48:57.000Z</time>
      </trkpt>
      <trkpt lat="42.418981" lon="0.761378">
        <ele>1184.6</ele>
        <time>1970-01-01T09:49:00.000Z</time>
      </trkpt>
      <trkpt lat="42.418816" lon="0.761346">
        <ele>1183.8</ele>
        <time>1970-01-01T09:49:02.000Z</time>
      </trkpt>
      <trkpt lat="42.41874" lon="0.761309">
        <ele>1183.4</ele>
        <time>1970-01-01T09:49:03.000Z</time>
      </trkpt>
      <trkpt lat="42.418554" lon="0.761081">
        <ele>1181.6</ele>
        <time>1970-01-01T09:49:06.000Z</time>
      </trkpt>
      <trkpt lat="42.418458" lon="0.760885">
        <ele>1181</ele>
        <time>1970-01-01T09:49:08.000Z</time>
      </trkpt>
      <trkpt lat="42.41841" lon="0.76079">
        <ele>1180.6</ele>
        <time>1970-01-01T09:49:09.000Z</time>
      </trkpt>
      <trkpt lat="42.418285" lon="0.760614">
        <ele>1179.4</ele>
        <time>1970-01-01T09:49:11.000Z</time>
      </trkpt>
      <trkpt lat="42.418046" lon="0.76038">
        <ele>1177.4</ele>
        <time>1970-01-01T09:49:14.000Z</time>
      </trkpt>
      <trkpt lat="42.417962" lon="0.760298">
        <ele>1176.4</ele>
        <time>1970-01-01T09:49:15.000Z</time>
      </trkpt>
      <trkpt lat="42.417879" lon="0.760217">
        <ele>1175.2</ele>
        <time>1970-01-01T09:49:16.000Z</time>
      </trkpt>
      <trkpt lat="42.417794" lon="0.760136">
        <ele>1174.2</ele>
        <time>1970-01-01T09:49:17.000Z</time>
      </trkpt>
      <trkpt lat="42.41763" lon="0.759995">
        <ele>1172.6</ele>
        <time>1970-01-01T09:49:19.000Z</time>
      </trkpt>
      <trkpt lat="42.417478" lon="0.759845">
        <ele>1170.6</ele>
        <time>1970-01-01T09:49:21.000Z</time>
      </trkpt>
      <trkpt lat="42.41733" lon="0.759685">
        <ele>1168.8</ele>
        <time>1970-01-01T09:49:23.000Z</time>
      </trkpt>
      <trkpt lat="42.417254" lon="0.759606">
        <ele>1167.6</ele>
        <time>1970-01-01T09:49:24.000Z</time>
      </trkpt>
      <trkpt lat="42.417075" lon="0.759489">
        <ele>1166</ele>
        <time>1970-01-01T09:49:26.000Z</time>
      </trkpt>
      <trkpt lat="42.416884" lon="0.759386">
        <ele>1164.6</ele>
        <time>1970-01-01T09:49:28.000Z</time>
      </trkpt>
      <trkpt lat="42.416722" lon="0.759225">
        <ele>1163</ele>
        <time>1970-01-01T09:49:30.000Z</time>
      </trkpt>
      <trkpt lat="42.416608" lon="0.759008">
        <ele>1161.2</ele>
        <time>1970-01-01T09:49:32.000Z</time>
      </trkpt>
      <trkpt lat="42.416569" lon="0.75874">
        <ele>1159.8</ele>
        <time>1970-01-01T09:49:34.000Z</time>
      </trkpt>
      <trkpt lat="42.416593" lon="0.758452">
        <ele>1158.6</ele>
        <time>1970-01-01T09:49:36.000Z</time>
      </trkpt>
      <trkpt lat="42.416612" lon="0.758325">
        <ele>1157.6</ele>
        <time>1970-01-01T09:49:37.000Z</time>
      </trkpt>
      <trkpt lat="42.416628" lon="0.758234">
        <ele>1156.4</ele>
        <time>1970-01-01T09:49:38.000Z</time>
      </trkpt>
      <trkpt lat="42.41664" lon="0.758162">
        <ele>1155</ele>
        <time>1970-01-01T09:49:40.000Z</time>
      </trkpt>
      <trkpt lat="42.41664" lon="0.758164">
        <ele>1154.6</ele>
        <time>1970-01-01T09:49:41.000Z</time>
      </trkpt>
      <trkpt lat="42.416625" lon="0.758254">
        <ele>1154.6</ele>
        <time>1970-01-01T09:49:59.000Z</time>
      </trkpt>
      <trkpt lat="42.416613" lon="0.758324">
        <ele>1155</ele>
        <time>1970-01-01T09:50:05.000Z</time>
      </trkpt>
      <trkpt lat="42.416602" lon="0.758412">
        <ele>1155</ele>
        <time>1970-01-01T09:50:10.000Z</time>
      </trkpt>
      <trkpt lat="42.416586" lon="0.758546">
        <ele>1155.6</ele>
        <time>1970-01-01T09:50:16.000Z</time>
      </trkpt>
      <trkpt lat="42.416588" lon="0.758633">
        <ele>1156.2</ele>
        <time>1970-01-01T09:50:20.000Z</time>
      </trkpt>
      <trkpt lat="42.416587" lon="0.758777">
        <ele>1157.2</ele>
        <time>1970-01-01T09:50:26.000Z</time>
      </trkpt>
      <trkpt lat="42.416624" lon="0.759005">
        <ele>1158.6</ele>
        <time>1970-01-01T09:50:34.000Z</time>
      </trkpt>
      <trkpt lat="42.41669" lon="0.759186">
        <ele>1159.6</ele>
        <time>1970-01-01T09:50:41.000Z</time>
      </trkpt>
      <trkpt lat="42.416811" lon="0.759348">
        <ele>1161</ele>
        <time>1970-01-01T09:50:49.000Z</time>
      </trkpt>
      <trkpt lat="42.416962" lon="0.759453">
        <ele>1162</ele>
        <time>1970-01-01T09:50:57.000Z</time>
      </trkpt>
      <trkpt lat="42.417097" lon="0.759529">
        <ele>1163.4</ele>
        <time>1970-01-01T09:51:04.000Z</time>
      </trkpt>
      <trkpt lat="42.417273" lon="0.759623">
        <ele>1164.6</ele>
        <time>1970-01-01T09:51:13.000Z</time>
      </trkpt>
      <trkpt lat="42.417363" lon="0.759724">
        <ele>1165.6</ele>
        <time>1970-01-01T09:51:19.000Z</time>
      </trkpt>
      <trkpt lat="42.417495" lon="0.759855">
        <ele>1166.8</ele>
        <time>1970-01-01T09:51:27.000Z</time>
      </trkpt>
      <trkpt lat="42.417597" lon="0.759956">
        <ele>1167.8</ele>
        <time>1970-01-01T09:51:33.000Z</time>
      </trkpt>
      <trkpt lat="42.417696" lon="0.760052">
        <ele>1169</ele>
        <time>1970-01-01T09:51:39.000Z</time>
      </trkpt>
      <trkpt lat="42.417813" lon="0.760159">
        <ele>1170.2</ele>
        <time>1970-01-01T09:51:46.000Z</time>
      </trkpt>
      <trkpt lat="42.417905" lon="0.760245">
        <ele>1171.2</ele>
        <time>1970-01-01T09:51:52.000Z</time>
      </trkpt>
      <trkpt lat="42.418026" lon="0.760371">
        <ele>1172.4</ele>
        <time>1970-01-01T09:52:00.000Z</time>
      </trkpt>
      <trkpt lat="42.41814" lon="0.760471">
        <ele>1173.6</ele>
        <time>1970-01-01T09:52:07.000Z</time>
      </trkpt>
      <trkpt lat="42.418262" lon="0.760577">
        <ele>1175</ele>
        <time>1970-01-01T09:52:15.000Z</time>
      </trkpt>
      <trkpt lat="42.418365" lon="0.760676">
        <ele>1176</ele>
        <time>1970-01-01T09:52:22.000Z</time>
      </trkpt>
      <trkpt lat="42.418464" lon="0.76082">
        <ele>1177.2</ele>
        <time>1970-01-01T09:52:30.000Z</time>
      </trkpt>
      <trkpt lat="42.41852" lon="0.760939">
        <ele>1178.2</ele>
        <time>1970-01-01T09:52:36.000Z</time>
      </trkpt>
      <trkpt lat="42.418574" lon="0.761086">
        <ele>1179.2</ele>
        <time>1970-01-01T09:52:42.000Z</time>
      </trkpt>
      <trkpt lat="42.418743" lon="0.761308">
        <ele>1180.4</ele>
        <time>1970-01-01T09:52:53.000Z</time>
      </trkpt>
      <trkpt lat="42.418881" lon="0.76139">
        <ele>1181.4</ele>
        <time>1970-01-01T09:53:00.000Z</time>
      </trkpt>
      <trkpt lat="42.419058" lon="0.761428">
        <ele>1182.8</ele>
        <time>1970-01-01T09:53:08.000Z</time>
      </trkpt>
      <trkpt lat="42.419212" lon="0.761422">
        <ele>1183.8</ele>
        <time>1970-01-01T09:53:15.000Z</time>
      </trkpt>
      <trkpt lat="42.419431" lon="0.761424">
        <ele>1184.8</ele>
        <time>1970-01-01T09:53:25.000Z</time>
      </trkpt>
      <trkpt lat="42.419599" lon="0.761447">
        <ele>1186</ele>
        <time>1970-01-01T09:53:33.000Z</time>
      </trkpt>
      <trkpt lat="42.419736" lon="0.761484">
        <ele>1187</ele>
        <time>1970-01-01T09:53:40.000Z</time>
      </trkpt>
      <trkpt lat="42.419874" lon="0.761525">
        <ele>1188.2</ele>
        <time>1970-01-01T09:53:47.000Z</time>
      </trkpt>
      <trkpt lat="42.420057" lon="0.761648">
        <ele>1189.4</ele>
        <time>1970-01-01T09:53:56.000Z</time>
      </trkpt>
      <trkpt lat="42.420171" lon="0.761875">
        <ele>1190.4</ele>
        <time>1970-01-01T09:54:05.000Z</time>
      </trkpt>
      <trkpt lat="42.420263" lon="0.762103">
        <ele>1191.4</ele>
        <time>1970-01-01T09:54:14.000Z</time>
      </trkpt>
      <trkpt lat="42.420347" lon="0.762271">
        <ele>1192.8</ele>
        <time>1970-01-01T09:54:21.000Z</time>
      </trkpt>
      <trkpt lat="42.420419" lon="0.762408">
        <ele>1193.8</ele>
        <time>1970-01-01T09:54:27.000Z</time>
      </trkpt>
      <trkpt lat="42.420571" lon="0.762624">
        <ele>1194.8</ele>
        <time>1970-01-01T09:54:37.000Z</time>
      </trkpt>
      <trkpt lat="42.420711" lon="0.762824">
        <ele>1196</ele>
        <time>1970-01-01T09:54:46.000Z</time>
      </trkpt>
      <trkpt lat="42.420824" lon="0.762997">
        <ele>1197</ele>
        <time>1970-01-01T09:54:54.000Z</time>
      </trkpt>
      <trkpt lat="42.420897" lon="0.763093">
        <ele>1198</ele>
        <time>1970-01-01T09:54:59.000Z</time>
      </trkpt>
      <trkpt lat="42.421001" lon="0.763234">
        <ele>1199.2</ele>
        <time>1970-01-01T09:55:06.000Z</time>
      </trkpt>
      <trkpt lat="42.421022" lon="0.763346">
        <ele>1200.4</ele>
        <time>1970-01-01T09:55:11.000Z</time>
      </trkpt>
      <trkpt lat="42.42102" lon="0.763484">
        <ele>1201.6</ele>
        <time>1970-01-01T09:55:17.000Z</time>
      </trkpt>
      <trkpt lat="42.421002" lon="0.763616">
        <ele>1202.8</ele>
        <time>1970-01-01T09:55:23.000Z</time>
      </trkpt>
      <trkpt lat="42.420969" lon="0.763745">
        <ele>1204</ele>
        <time>1970-01-01T09:55:29.000Z</time>
      </trkpt>
      <trkpt lat="42.421047" lon="0.764027">
        <ele>1205.2</ele>
        <time>1970-01-01T09:55:41.000Z</time>
      </trkpt>
      <trkpt lat="42.421136" lon="0.764151">
        <ele>1206.4</ele>
        <time>1970-01-01T09:55:48.000Z</time>
      </trkpt>
      <trkpt lat="42.421201" lon="0.764262">
        <ele>1207.6</ele>
        <time>1970-01-01T09:55:54.000Z</time>
      </trkpt>
      <trkpt lat="42.421321" lon="0.764425">
        <ele>1208.8</ele>
        <time>1970-01-01T09:56:03.000Z</time>
      </trkpt>
      <trkpt lat="42.421397" lon="0.764455">
        <ele>1210</ele>
        <time>1970-01-01T09:56:08.000Z</time>
      </trkpt>
      <trkpt lat="42.421415" lon="0.764464">
        <ele>1210.6</ele>
        <time>1970-01-01T09:56:13.000Z</time>
      </trkpt>
      <trkpt lat="42.421437" lon="0.764517">
        <ele>1210.4</ele>
        <time>1970-01-01T09:57:36.000Z</time>
      </trkpt>
      <trkpt lat="42.421529" lon="0.764827">
        <ele>1208.6</ele>
        <time>1970-01-01T09:57:42.000Z</time>
      </trkpt>
      <trkpt lat="42.421567" lon="0.764976">
        <ele>1207.6</ele>
        <time>1970-01-01T09:57:44.000Z</time>
      </trkpt>
      <trkpt lat="42.4216" lon="0.765134">
        <ele>1206.2</ele>
        <time>1970-01-01T09:57:46.000Z</time>
      </trkpt>
      <trkpt lat="42.421624" lon="0.765216">
        <ele>1205.8</ele>
        <time>1970-01-01T09:57:47.000Z</time>
      </trkpt>
      <trkpt lat="42.421654" lon="0.765295">
        <ele>1205</ele>
        <time>1970-01-01T09:57:48.000Z</time>
      </trkpt>
      <trkpt lat="42.421729" lon="0.765533">
        <ele>1204.2</ele>
        <time>1970-01-01T09:57:51.000Z</time>
      </trkpt>
      <trkpt lat="42.42173" lon="0.765604">
        <ele>1204</ele>
        <time>1970-01-01T09:57:52.000Z</time>
      </trkpt>
      <trkpt lat="42.421658" lon="0.765798">
        <ele>1203.4</ele>
        <time>1970-01-01T09:57:56.000Z</time>
      </trkpt>
      <trkpt lat="42.421635" lon="0.765858">
        <ele>1203</ele>
        <time>1970-01-01T09:57:57.000Z</time>
      </trkpt>
      <trkpt lat="42.421585" lon="0.766071">
        <ele>1201.6</ele>
        <time>1970-01-01T09:58:00.000Z</time>
      </trkpt>
      <trkpt lat="42.421547" lon="0.766232">
        <ele>1200.6</ele>
        <time>1970-01-01T09:58:02.000Z</time>
      </trkpt>
      <trkpt lat="42.421509" lon="0.766399">
        <ele>1199.4</ele>
        <time>1970-01-01T09:58:04.000Z</time>
      </trkpt>
      <trkpt lat="42.421446" lon="0.766655">
        <ele>1198.2</ele>
        <time>1970-01-01T09:58:07.000Z</time>
      </trkpt>
      <trkpt lat="42.42139" lon="0.767004">
        <ele>1197.2</ele>
        <time>1970-01-01T09:58:11.000Z</time>
      </trkpt>
      <trkpt lat="42.421384" lon="0.767222">
        <ele>1196.6</ele>
        <time>1970-01-01T09:58:14.000Z</time>
      </trkpt>
      <trkpt lat="42.421417" lon="0.767342">
        <ele>1196</ele>
        <time>1970-01-01T09:58:16.000Z</time>
      </trkpt>
      <trkpt lat="42.421508" lon="0.767515">
        <ele>1194.8</ele>
        <time>1970-01-01T09:58:20.000Z</time>
      </trkpt>
      <trkpt lat="42.42156" lon="0.767642">
        <ele>1193.6</ele>
        <time>1970-01-01T09:58:23.000Z</time>
      </trkpt>
      <trkpt lat="42.421587" lon="0.767743">
        <ele>1192.4</ele>
        <time>1970-01-01T09:58:25.000Z</time>
      </trkpt>
      <trkpt lat="42.421578" lon="0.767868">
        <ele>1191.2</ele>
        <time>1970-01-01T09:58:27.000Z</time>
      </trkpt>
      <trkpt lat="42.42156" lon="0.767934">
        <ele>1190.6</ele>
        <time>1970-01-01T09:58:28.000Z</time>
      </trkpt>
      <trkpt lat="42.421544" lon="0.768001">
        <ele>1190.2</ele>
        <time>1970-01-01T09:58:29.000Z</time>
      </trkpt>
      <trkpt lat="42.421544" lon="0.768067">
        <ele>1189.4</ele>
        <time>1970-01-01T09:58:30.000Z</time>
      </trkpt>
      <trkpt lat="42.421556" lon="0.768135">
        <ele>1188.2</ele>
        <time>1970-01-01T09:58:31.000Z</time>
      </trkpt>
      <trkpt lat="42.421624" lon="0.768247">
        <ele>1186.6</ele>
        <time>1970-01-01T09:58:33.000Z</time>
      </trkpt>
      <trkpt lat="42.421696" lon="0.768343">
        <ele>1185.6</ele>
        <time>1970-01-01T09:58:35.000Z</time>
      </trkpt>
      <trkpt lat="42.421704" lon="0.76846">
        <ele>1184.4</ele>
        <time>1970-01-01T09:58:37.000Z</time>
      </trkpt>
      <trkpt lat="42.421641" lon="0.768556">
        <ele>1182.6</ele>
        <time>1970-01-01T09:58:39.000Z</time>
      </trkpt>
      <trkpt lat="42.421564" lon="0.768664">
        <ele>1181</ele>
        <time>1970-01-01T09:58:41.000Z</time>
      </trkpt>
      <trkpt lat="42.421537" lon="0.768786">
        <ele>1179.6</ele>
        <time>1970-01-01T09:58:43.000Z</time>
      </trkpt>
      <trkpt lat="42.421535" lon="0.768849">
        <ele>1178.6</ele>
        <time>1970-01-01T09:58:44.000Z</time>
      </trkpt>
      <trkpt lat="42.421541" lon="0.768913">
        <ele>1177.8</ele>
        <time>1970-01-01T09:58:45.000Z</time>
      </trkpt>
      <trkpt lat="42.421559" lon="0.768978">
        <ele>1176.4</ele>
        <time>1970-01-01T09:58:46.000Z</time>
      </trkpt>
      <trkpt lat="42.421584" lon="0.769038">
        <ele>1175.4</ele>
        <time>1970-01-01T09:58:47.000Z</time>
      </trkpt>
      <trkpt lat="42.421611" lon="0.769088">
        <ele>1174.2</ele>
        <time>1970-01-01T09:58:48.000Z</time>
      </trkpt>
      <trkpt lat="42.421628" lon="0.769136">
        <ele>1173.2</ele>
        <time>1970-01-01T09:58:49.000Z</time>
      </trkpt>
      <trkpt lat="42.421636" lon="0.769232">
        <ele>1172</ele>
        <time>1970-01-01T09:58:51.000Z</time>
      </trkpt>
      <trkpt lat="42.421636" lon="0.769287">
        <ele>1171.6</ele>
        <time>1970-01-01T09:58:52.000Z</time>
      </trkpt>
      <trkpt lat="42.421635" lon="0.769407">
        <ele>1170.8</ele>
        <time>1970-01-01T09:58:54.000Z</time>
      </trkpt>
      <trkpt lat="42.421619" lon="0.769779">
        <ele>1169.6</ele>
        <time>1970-01-01T09:58:59.000Z</time>
      </trkpt>
      <trkpt lat="42.421624" lon="0.77003">
        <ele>1168.6</ele>
        <time>1970-01-01T09:59:02.000Z</time>
      </trkpt>
      <trkpt lat="42.421639" lon="0.770341">
        <ele>1167.4</ele>
        <time>1970-01-01T09:59:06.000Z</time>
      </trkpt>
      <trkpt lat="42.421646" lon="0.770443">
        <ele>1166.2</ele>
        <time>1970-01-01T09:59:08.000Z</time>
      </trkpt>
      <trkpt lat="42.421672" lon="0.770572">
        <ele>1165</ele>
        <time>1970-01-01T09:59:11.000Z</time>
      </trkpt>
      <trkpt lat="42.421733" lon="0.770695">
        <ele>1163.6</ele>
        <time>1970-01-01T09:59:14.000Z</time>
      </trkpt>
      <trkpt lat="42.421767" lon="0.770731">
        <ele>1163</ele>
        <time>1970-01-01T09:59:15.000Z</time>
      </trkpt>
      <trkpt lat="42.421858" lon="0.770787">
        <ele>1162.2</ele>
        <time>1970-01-01T09:59:17.000Z</time>
      </trkpt>
      <trkpt lat="42.421944" lon="0.770847">
        <ele>1161.6</ele>
        <time>1970-01-01T09:59:19.000Z</time>
      </trkpt>
      <trkpt lat="42.421987" lon="0.770923">
        <ele>1161</ele>
        <time>1970-01-01T09:59:21.000Z</time>
      </trkpt>
      <trkpt lat="42.421946" lon="0.771089">
        <ele>1160.6</ele>
        <time>1970-01-01T09:59:25.000Z</time>
      </trkpt>
      <trkpt lat="42.421913" lon="0.771182">
        <ele>1160.8</ele>
        <time>1970-01-01T09:59:28.000Z</time>
      </trkpt>
      <trkpt lat="42.421915" lon="0.771413">
        <ele>1162.2</ele>
        <time>1970-01-01T09:59:35.000Z</time>
      </trkpt>
      <trkpt lat="42.42192" lon="0.771515">
        <ele>1163.2</ele>
        <time>1970-01-01T09:59:39.000Z</time>
      </trkpt>
      <trkpt lat="42.421954" lon="0.771641">
        <ele>1164.2</ele>
        <time>1970-01-01T09:59:44.000Z</time>
      </trkpt>
      <trkpt lat="42.422174" lon="0.77221">
        <ele>1163</ele>
        <time>1970-01-01T09:59:57.000Z</time>
      </trkpt>
      <trkpt lat="42.422207" lon="0.772272">
        <ele>1162.6</ele>
        <time>1970-01-01T09:59:58.000Z</time>
      </trkpt>
      <trkpt lat="42.422271" lon="0.772391">
        <ele>1162</ele>
        <time>1970-01-01T10:00:00.000Z</time>
      </trkpt>
      <trkpt lat="42.422343" lon="0.772508">
        <ele>1161.6</ele>
        <time>1970-01-01T10:00:02.000Z</time>
      </trkpt>
      <trkpt lat="42.422445" lon="0.772693">
        <ele>1160.8</ele>
        <time>1970-01-01T10:00:05.000Z</time>
      </trkpt>
      <trkpt lat="42.422498" lon="0.772826">
        <ele>1160.6</ele>
        <time>1970-01-01T10:00:07.000Z</time>
      </trkpt>
      <trkpt lat="42.422652" lon="0.773136">
        <ele>1162</ele>
        <time>1970-01-01T10:00:16.000Z</time>
      </trkpt>
      <trkpt lat="42.422716" lon="0.773252">
        <ele>1163</ele>
        <time>1970-01-01T10:00:21.000Z</time>
      </trkpt>
      <trkpt lat="42.422726" lon="0.773273">
        <ele>1163.2</ele>
        <time>1970-01-01T10:00:22.000Z</time>
      </trkpt>
      <trkpt lat="42.422783" lon="0.773446">
        <ele>1164</ele>
        <time>1970-01-01T10:00:29.000Z</time>
      </trkpt>
      <trkpt lat="42.422897" lon="0.773851">
        <ele>1164.8</ele>
        <time>1970-01-01T10:00:42.000Z</time>
      </trkpt>
      <trkpt lat="42.42326" lon="0.773906">
        <ele>1164.4</ele>
        <time>1970-01-01T10:00:54.000Z</time>
      </trkpt>
      <trkpt lat="42.423417" lon="0.773859">
        <ele>1165.2</ele>
        <time>1970-01-01T10:01:01.000Z</time>
      </trkpt>
      <trkpt lat="42.423625" lon="0.774192">
        <ele>1164.8</ele>
        <time>1970-01-01T10:01:10.000Z</time>
      </trkpt>
      <trkpt lat="42.423623" lon="0.774448">
        <ele>1164.6</ele>
        <time>1970-01-01T10:01:15.000Z</time>
      </trkpt>
      <trkpt lat="42.423671" lon="0.774815">
        <ele>1165.8</ele>
        <time>1970-01-01T10:01:25.000Z</time>
      </trkpt>
      <trkpt lat="42.423804" lon="0.774835">
        <ele>1166.4</ele>
        <time>1970-01-01T10:01:30.000Z</time>
      </trkpt>
      <trkpt lat="42.423882" lon="0.774815">
        <ele>1166.6</ele>
        <time>1970-01-01T10:01:33.000Z</time>
      </trkpt>
      <trkpt lat="42.424028" lon="0.774731">
        <ele>1167.4</ele>
        <time>1970-01-01T10:01:39.000Z</time>
      </trkpt>
      <trkpt lat="42.424246" lon="0.774612">
        <ele>1168.2</ele>
        <time>1970-01-01T10:01:49.000Z</time>
      </trkpt>
      <trkpt lat="42.424278" lon="0.774659">
        <ele>1168.6</ele>
        <time>1970-01-01T10:01:51.000Z</time>
      </trkpt>
      <trkpt lat="42.424272" lon="0.774822">
        <ele>1169.8</ele>
        <time>1970-01-01T10:01:57.000Z</time>
      </trkpt>
      <trkpt lat="42.424249" lon="0.774906">
        <ele>1170</ele>
        <time>1970-01-01T10:02:01.000Z</time>
      </trkpt>
      <trkpt lat="42.424208" lon="0.775023">
        <ele>1170.8</ele>
        <time>1970-01-01T10:02:07.000Z</time>
      </trkpt>
      <trkpt lat="42.424183" lon="0.775146">
        <ele>1171.8</ele>
        <time>1970-01-01T10:02:13.000Z</time>
      </trkpt>
      <trkpt lat="42.424176" lon="0.775252">
        <ele>1172.8</ele>
        <time>1970-01-01T10:02:18.000Z</time>
      </trkpt>
      <trkpt lat="42.424177" lon="0.775273">
        <ele>1173</ele>
        <time>1970-01-01T10:02:19.000Z</time>
      </trkpt>
      <trkpt lat="42.424186" lon="0.775381">
        <ele>1174</ele>
        <time>1970-01-01T10:02:24.000Z</time>
      </trkpt>
      <trkpt lat="42.424203" lon="0.775482">
        <ele>1175.2</ele>
        <time>1970-01-01T10:02:29.000Z</time>
      </trkpt>
      <trkpt lat="42.424225" lon="0.775556">
        <ele>1176.2</ele>
        <time>1970-01-01T10:02:33.000Z</time>
      </trkpt>
      <trkpt lat="42.424239" lon="0.775571">
        <ele>1176.6</ele>
        <time>1970-01-01T10:02:34.000Z</time>
      </trkpt>
      <trkpt lat="42.424269" lon="0.775658">
        <ele>1177.8</ele>
        <time>1970-01-01T10:02:39.000Z</time>
      </trkpt>
      <trkpt lat="42.424298" lon="0.775743">
        <ele>1178.6</ele>
        <time>1970-01-01T10:02:44.000Z</time>
      </trkpt>
      <trkpt lat="42.424344" lon="0.775916">
        <ele>1179.4</ele>
        <time>1970-01-01T10:02:52.000Z</time>
      </trkpt>
      <trkpt lat="42.424476" lon="0.775925">
        <ele>1178.4</ele>
        <time>1970-01-01T10:02:56.000Z</time>
      </trkpt>
      <trkpt lat="42.424558" lon="0.775952">
        <ele>1177.8</ele>
        <time>1970-01-01T10:02:58.000Z</time>
      </trkpt>
      <trkpt lat="42.424592" lon="0.775977">
        <ele>1177.4</ele>
        <time>1970-01-01T10:02:59.000Z</time>
      </trkpt>
      <trkpt lat="42.42451" lon="0.77616">
        <ele>1176.8</ele>
        <time>1970-01-01T10:03:04.000Z</time>
      </trkpt>
      <trkpt lat="42.424424" lon="0.776221">
        <ele>1176.2</ele>
        <time>1970-01-01T10:03:06.000Z</time>
      </trkpt>
      <trkpt lat="42.424277" lon="0.776283">
        <ele>1175.4</ele>
        <time>1970-01-01T10:03:09.000Z</time>
      </trkpt>
      <trkpt lat="42.424102" lon="0.776288">
        <ele>1174.2</ele>
        <time>1970-01-01T10:03:12.000Z</time>
      </trkpt>
      <trkpt lat="42.424049" lon="0.776289">
        <ele>1174</ele>
        <time>1970-01-01T10:03:13.000Z</time>
      </trkpt>
      <trkpt lat="42.423889" lon="0.776382">
        <ele>1172.8</ele>
        <time>1970-01-01T10:03:17.000Z</time>
      </trkpt>
      <trkpt lat="42.423853" lon="0.776422">
        <ele>1172.6</ele>
        <time>1970-01-01T10:03:18.000Z</time>
      </trkpt>
      <trkpt lat="42.423675" lon="0.776621">
        <ele>1171.8</ele>
        <time>1970-01-01T10:03:23.000Z</time>
      </trkpt>
      <trkpt lat="42.423474" lon="0.776847">
        <ele>1170.4</ele>
        <time>1970-01-01T10:03:28.000Z</time>
      </trkpt>
      <trkpt lat="42.423237" lon="0.776837">
        <ele>1170</ele>
        <time>1970-01-01T10:03:33.000Z</time>
      </trkpt>
      <trkpt lat="42.423025" lon="0.776844">
        <ele>1171.6</ele>
        <time>1970-01-01T10:03:42.000Z</time>
      </trkpt>
      <trkpt lat="42.422929" lon="0.776898">
        <ele>1172.2</ele>
        <time>1970-01-01T10:03:52.000Z</time>
      </trkpt>
      <trkpt lat="42.422878" lon="0.776916">
        <ele>1172.2</ele>
        <time>1970-01-01T10:04:01.000Z</time>
      </trkpt>
      <trkpt lat="42.422682" lon="0.777027">
        <ele>1170.2</ele>
        <time>1970-01-01T10:04:06.000Z</time>
      </trkpt>
      <trkpt lat="42.42258" lon="0.777081">
        <ele>1169</ele>
        <time>1970-01-01T10:04:08.000Z</time>
      </trkpt>
      <trkpt lat="42.422488" lon="0.777138">
        <ele>1167.6</ele>
        <time>1970-01-01T10:04:10.000Z</time>
      </trkpt>
      <trkpt lat="42.422448" lon="0.777152">
        <ele>1167</ele>
        <time>1970-01-01T10:04:11.000Z</time>
      </trkpt>
      <trkpt lat="42.42241" lon="0.777134">
        <ele>1166.4</ele>
        <time>1970-01-01T10:04:12.000Z</time>
      </trkpt>
      <trkpt lat="42.422356" lon="0.77704">
        <ele>1165.2</ele>
        <time>1970-01-01T10:04:14.000Z</time>
      </trkpt>
      <trkpt lat="42.422344" lon="0.776953">
        <ele>1164.2</ele>
        <time>1970-01-01T10:04:16.000Z</time>
      </trkpt>
      <trkpt lat="42.422343" lon="0.776909">
        <ele>1163.8</ele>
        <time>1970-01-01T10:04:17.000Z</time>
      </trkpt>
      <trkpt lat="42.422351" lon="0.776799">
        <ele>1163</ele>
        <time>1970-01-01T10:04:19.000Z</time>
      </trkpt>
      <trkpt lat="42.422365" lon="0.776731">
        <ele>1162.4</ele>
        <time>1970-01-01T10:04:20.000Z</time>
      </trkpt>
      <trkpt lat="42.422457" lon="0.776518">
        <ele>1161</ele>
        <time>1970-01-01T10:04:23.000Z</time>
      </trkpt>
      <trkpt lat="42.422531" lon="0.776428">
        <ele>1160</ele>
        <time>1970-01-01T10:04:25.000Z</time>
      </trkpt>
      <trkpt lat="42.422551" lon="0.776397">
        <ele>1159</ele>
        <time>1970-01-01T10:04:26.000Z</time>
      </trkpt>
      <trkpt lat="42.422557" lon="0.776367">
        <ele>1158.2</ele>
        <time>1970-01-01T10:04:27.000Z</time>
      </trkpt>
      <trkpt lat="42.422538" lon="0.776277">
        <ele>1156.6</ele>
        <time>1970-01-01T10:04:30.000Z</time>
      </trkpt>
      <trkpt lat="42.422475" lon="0.776259">
        <ele>1155.4</ele>
        <time>1970-01-01T10:04:33.000Z</time>
      </trkpt>
      <trkpt lat="42.422384" lon="0.77633">
        <ele>1154.4</ele>
        <time>1970-01-01T10:04:36.000Z</time>
      </trkpt>
      <trkpt lat="42.422308" lon="0.7764">
        <ele>1153.4</ele>
        <time>1970-01-01T10:04:38.000Z</time>
      </trkpt>
      <trkpt lat="42.42227" lon="0.776433">
        <ele>1153</ele>
        <time>1970-01-01T10:04:39.000Z</time>
      </trkpt>
      <trkpt lat="42.422188" lon="0.77649">
        <ele>1151.8</ele>
        <time>1970-01-01T10:04:42.000Z</time>
      </trkpt>
      <trkpt lat="42.422035" lon="0.776565">
        <ele>1150.6</ele>
        <time>1970-01-01T10:04:46.000Z</time>
      </trkpt>
      <trkpt lat="42.421986" lon="0.776591">
        <ele>1150.2</ele>
        <time>1970-01-01T10:04:47.000Z</time>
      </trkpt>
      <trkpt lat="42.421876" lon="0.776685">
        <ele>1149</ele>
        <time>1970-01-01T10:04:49.000Z</time>
      </trkpt>
      <trkpt lat="42.42178" lon="0.776804">
        <ele>1147.6</ele>
        <time>1970-01-01T10:04:51.000Z</time>
      </trkpt>
      <trkpt lat="42.421709" lon="0.776941">
        <ele>1145.8</ele>
        <time>1970-01-01T10:04:53.000Z</time>
      </trkpt>
      <trkpt lat="42.421685" lon="0.777">
        <ele>1145</ele>
        <time>1970-01-01T10:04:54.000Z</time>
      </trkpt>
      <trkpt lat="42.421664" lon="0.777058">
        <ele>1144.4</ele>
        <time>1970-01-01T10:04:55.000Z</time>
      </trkpt>
      <trkpt lat="42.42164" lon="0.77712">
        <ele>1143.6</ele>
        <time>1970-01-01T10:04:56.000Z</time>
      </trkpt>
      <trkpt lat="42.421611" lon="0.777186">
        <ele>1142.8</ele>
        <time>1970-01-01T10:04:57.000Z</time>
      </trkpt>
      <trkpt lat="42.421577" lon="0.777253">
        <ele>1142</ele>
        <time>1970-01-01T10:04:58.000Z</time>
      </trkpt>
      <trkpt lat="42.42154" lon="0.777322">
        <ele>1141.4</ele>
        <time>1970-01-01T10:04:59.000Z</time>
      </trkpt>
      <trkpt lat="42.421511" lon="0.777393">
        <ele>1141</ele>
        <time>1970-01-01T10:05:00.000Z</time>
      </trkpt>
      <trkpt lat="42.421485" lon="0.77756">
        <ele>1140.4</ele>
        <time>1970-01-01T10:05:02.000Z</time>
      </trkpt>
      <trkpt lat="42.421509" lon="0.777716">
        <ele>1139.2</ele>
        <time>1970-01-01T10:05:04.000Z</time>
      </trkpt>
      <trkpt lat="42.421536" lon="0.777856">
        <ele>1138.4</ele>
        <time>1970-01-01T10:05:06.000Z</time>
      </trkpt>
      <trkpt lat="42.421563" lon="0.777916">
        <ele>1137.6</ele>
        <time>1970-01-01T10:05:07.000Z</time>
      </trkpt>
      <trkpt lat="42.421658" lon="0.778117">
        <ele>1136.6</ele>
        <time>1970-01-01T10:05:10.000Z</time>
      </trkpt>
      <trkpt lat="42.421692" lon="0.77836">
        <ele>1135.8</ele>
        <time>1970-01-01T10:05:13.000Z</time>
      </trkpt>
      <trkpt lat="42.421703" lon="0.778602">
        <ele>1135.4</ele>
        <time>1970-01-01T10:05:16.000Z</time>
      </trkpt>
      <trkpt lat="42.421701" lon="0.778674">
        <ele>1135.8</ele>
        <time>1970-01-01T10:05:17.000Z</time>
      </trkpt>
      <trkpt lat="42.421662" lon="0.779304">
        <ele>1136.8</ele>
        <time>1970-01-01T10:05:29.000Z</time>
      </trkpt>
      <trkpt lat="42.421643" lon="0.779528">
        <ele>1137.8</ele>
        <time>1970-01-01T10:05:35.000Z</time>
      </trkpt>
      <trkpt lat="42.421538" lon="0.779716">
        <ele>1139</ele>
        <time>1970-01-01T10:05:42.000Z</time>
      </trkpt>
      <trkpt lat="42.421471" lon="0.780038">
        <ele>1140.2</ele>
        <time>1970-01-01T10:05:51.000Z</time>
      </trkpt>
      <trkpt lat="42.421503" lon="0.780204">
        <ele>1141.4</ele>
        <time>1970-01-01T10:05:57.000Z</time>
      </trkpt>
      <trkpt lat="42.421536" lon="0.780329">
        <ele>1142.6</ele>
        <time>1970-01-01T10:06:02.000Z</time>
      </trkpt>
      <trkpt lat="42.421572" lon="0.780449">
        <ele>1143.6</ele>
        <time>1970-01-01T10:06:07.000Z</time>
      </trkpt>
      <trkpt lat="42.421598" lon="0.780569">
        <ele>1144.6</ele>
        <time>1970-01-01T10:06:12.000Z</time>
      </trkpt>
      <trkpt lat="42.421662" lon="0.780861">
        <ele>1145.8</ele>
        <time>1970-01-01T10:06:23.000Z</time>
      </trkpt>
      <trkpt lat="42.421744" lon="0.78161">
        <ele>1145</ele>
        <time>1970-01-01T10:06:41.000Z</time>
      </trkpt>
      <trkpt lat="42.421758" lon="0.781697">
        <ele>1144.8</ele>
        <time>1970-01-01T10:06:43.000Z</time>
      </trkpt>
      <trkpt lat="42.421797" lon="0.781972">
        <ele>1143.6</ele>
        <time>1970-01-01T10:06:48.000Z</time>
      </trkpt>
      <trkpt lat="42.42182" lon="0.782116">
        <ele>1142.8</ele>
        <time>1970-01-01T10:06:50.000Z</time>
      </trkpt>
      <trkpt lat="42.421835" lon="0.782181">
        <ele>1142.4</ele>
        <time>1970-01-01T10:06:51.000Z</time>
      </trkpt>
      <trkpt lat="42.422157" lon="0.782528">
        <ele>1142</ele>
        <time>1970-01-01T10:07:07.000Z</time>
      </trkpt>
      <trkpt lat="42.4223" lon="0.782518">
        <ele>1141.4</ele>
        <time>1970-01-01T10:07:10.000Z</time>
      </trkpt>
      <trkpt lat="42.422476" lon="0.782523">
        <ele>1140.4</ele>
        <time>1970-01-01T10:07:13.000Z</time>
      </trkpt>
      <trkpt lat="42.422533" lon="0.782538">
        <ele>1140</ele>
        <time>1970-01-01T10:07:14.000Z</time>
      </trkpt>
      <trkpt lat="42.422732" lon="0.782624">
        <ele>1139.2</ele>
        <time>1970-01-01T10:07:18.000Z</time>
      </trkpt>
      <trkpt lat="42.422814" lon="0.782652">
        <ele>1139.2</ele>
        <time>1970-01-01T10:07:20.000Z</time>
      </trkpt>
      <trkpt lat="42.422945" lon="0.782713">
        <ele>1139</ele>
        <time>1970-01-01T10:07:23.000Z</time>
      </trkpt>
      <trkpt lat="42.423102" lon="0.782816">
        <ele>1139</ele>
        <time>1970-01-01T10:07:27.000Z</time>
      </trkpt>
      <trkpt lat="42.423109" lon="0.783025">
        <ele>1138.2</ele>
        <time>1970-01-01T10:07:31.000Z</time>
      </trkpt>
      <trkpt lat="42.422999" lon="0.783098">
        <ele>1138.4</ele>
        <time>1970-01-01T10:07:36.000Z</time>
      </trkpt>
      <trkpt lat="42.422942" lon="0.783099">
        <ele>1139.2</ele>
        <time>1970-01-01T10:07:39.000Z</time>
      </trkpt>
      <trkpt lat="42.422823" lon="0.783108">
        <ele>1140.2</ele>
        <time>1970-01-01T10:07:44.000Z</time>
      </trkpt>
      <trkpt lat="42.422642" lon="0.783201">
        <ele>1141.2</ele>
        <time>1970-01-01T10:07:52.000Z</time>
      </trkpt>
      <trkpt lat="42.422397" lon="0.783411">
        <ele>1142.4</ele>
        <time>1970-01-01T10:08:03.000Z</time>
      </trkpt>
      <trkpt lat="42.422307" lon="0.783514">
        <ele>1143.6</ele>
        <time>1970-01-01T10:08:08.000Z</time>
      </trkpt>
      <trkpt lat="42.422054" lon="0.7836">
        <ele>1142.6</ele>
        <time>1970-01-01T10:08:15.000Z</time>
      </trkpt>
      <trkpt lat="42.422024" lon="0.78364">
        <ele>1142.2</ele>
        <time>1970-01-01T10:08:16.000Z</time>
      </trkpt>
      <trkpt lat="42.421939" lon="0.783816">
        <ele>1141.4</ele>
        <time>1970-01-01T10:08:19.000Z</time>
      </trkpt>
      <trkpt lat="42.421909" lon="0.783873">
        <ele>1141</ele>
        <time>1970-01-01T10:08:20.000Z</time>
      </trkpt>
      <trkpt lat="42.421676" lon="0.783961">
        <ele>1139.6</ele>
        <time>1970-01-01T10:08:25.000Z</time>
      </trkpt>
      <trkpt lat="42.421547" lon="0.784063">
        <ele>1138.4</ele>
        <time>1970-01-01T10:08:28.000Z</time>
      </trkpt>
      <trkpt lat="42.421462" lon="0.784195">
        <ele>1138.8</ele>
        <time>1970-01-01T10:08:32.000Z</time>
      </trkpt>
      <trkpt lat="42.421421" lon="0.784632">
        <ele>1137.2</ele>
        <time>1970-01-01T10:08:45.000Z</time>
      </trkpt>
      <trkpt lat="42.42144" lon="0.784743">
        <ele>1136</ele>
        <time>1970-01-01T10:08:47.000Z</time>
      </trkpt>
      <trkpt lat="42.421457" lon="0.784872">
        <ele>1135</ele>
        <time>1970-01-01T10:08:49.000Z</time>
      </trkpt>
      <trkpt lat="42.421464" lon="0.785015">
        <ele>1134.2</ele>
        <time>1970-01-01T10:08:51.000Z</time>
      </trkpt>
      <trkpt lat="42.421454" lon="0.78509">
        <ele>1133.6</ele>
        <time>1970-01-01T10:08:52.000Z</time>
      </trkpt>
      <trkpt lat="42.42139" lon="0.785317">
        <ele>1132.6</ele>
        <time>1970-01-01T10:08:55.000Z</time>
      </trkpt>
      <trkpt lat="42.421316" lon="0.785442">
        <ele>1131.4</ele>
        <time>1970-01-01T10:08:57.000Z</time>
      </trkpt>
      <trkpt lat="42.421181" lon="0.785479">
        <ele>1130.2</ele>
        <time>1970-01-01T10:09:00.000Z</time>
      </trkpt>
      <trkpt lat="42.421061" lon="0.785276">
        <ele>1129.6</ele>
        <time>1970-01-01T10:09:05.000Z</time>
      </trkpt>
      <trkpt lat="42.420605" lon="0.784846">
        <ele>1129.8</ele>
        <time>1970-01-01T10:09:20.000Z</time>
      </trkpt>
      <trkpt lat="42.420079" lon="0.784632">
        <ele>1131</ele>
        <time>1970-01-01T10:09:35.000Z</time>
      </trkpt>
      <trkpt lat="42.41984" lon="0.784564">
        <ele>1131.4</ele>
        <time>1970-01-01T10:09:42.000Z</time>
      </trkpt>
      <trkpt lat="42.419619" lon="0.784404">
        <ele>1132.4</ele>
        <time>1970-01-01T10:09:50.000Z</time>
      </trkpt>
      <trkpt lat="42.419063" lon="0.784286">
        <ele>1132.6</ele>
        <time>1970-01-01T10:10:05.000Z</time>
      </trkpt>
      <trkpt lat="42.418905" lon="0.784215">
        <ele>1133.8</ele>
        <time>1970-01-01T10:10:11.000Z</time>
      </trkpt>
      <trkpt lat="42.418825" lon="0.784158">
        <ele>1134.6</ele>
        <time>1970-01-01T10:10:15.000Z</time>
      </trkpt>
      <trkpt lat="42.418727" lon="0.784125">
        <ele>1135.8</ele>
        <time>1970-01-01T10:10:20.000Z</time>
      </trkpt>
      <trkpt lat="42.41863" lon="0.784151">
        <ele>1137</ele>
        <time>1970-01-01T10:10:25.000Z</time>
      </trkpt>
      <trkpt lat="42.41852" lon="0.78423">
        <ele>1138</ele>
        <time>1970-01-01T10:10:31.000Z</time>
      </trkpt>
      <trkpt lat="42.418485" lon="0.784258">
        <ele>1138.2</ele>
        <time>1970-01-01T10:10:33.000Z</time>
      </trkpt>
      <trkpt lat="42.418359" lon="0.78438">
        <ele>1139</ele>
        <time>1970-01-01T10:10:40.000Z</time>
      </trkpt>
      <trkpt lat="42.418011" lon="0.784928">
        <ele>1139.6</ele>
        <time>1970-01-01T10:11:00.000Z</time>
      </trkpt>
      <trkpt lat="42.417468" lon="0.785065">
        <ele>1139</ele>
        <time>1970-01-01T10:11:20.000Z</time>
      </trkpt>
      <trkpt lat="42.417227" lon="0.785422">
        <ele>1140</ele>
        <time>1970-01-01T10:11:33.000Z</time>
      </trkpt>
      <trkpt lat="42.41712" lon="0.785892">
        <ele>1141</ele>
        <time>1970-01-01T10:11:45.000Z</time>
      </trkpt>
      <trkpt lat="42.41718" lon="0.78639">
        <ele>1140.8</ele>
        <time>1970-01-01T10:11:56.000Z</time>
      </trkpt>
      <trkpt lat="42.41674" lon="0.786374">
        <ele>1141.6</ele>
        <time>1970-01-01T10:12:11.000Z</time>
      </trkpt>
      <trkpt lat="42.416513" lon="0.786188">
        <ele>1139.8</ele>
        <time>1970-01-01T10:12:17.000Z</time>
      </trkpt>
      <trkpt lat="42.4164" lon="0.786077">
        <ele>1139.4</ele>
        <time>1970-01-01T10:12:20.000Z</time>
      </trkpt>
      <trkpt lat="42.416236" lon="0.785991">
        <ele>1139.2</ele>
        <time>1970-01-01T10:12:24.000Z</time>
      </trkpt>
      <trkpt lat="42.416" lon="0.785508">
        <ele>1138.8</ele>
        <time>1970-01-01T10:12:33.000Z</time>
      </trkpt>
      <trkpt lat="42.415898" lon="0.785419">
        <ele>1138.2</ele>
        <time>1970-01-01T10:12:35.000Z</time>
      </trkpt>
      <trkpt lat="42.415841" lon="0.785378">
        <ele>1137.8</ele>
        <time>1970-01-01T10:12:36.000Z</time>
      </trkpt>
      <trkpt lat="42.415658" lon="0.785279">
        <ele>1136.8</ele>
        <time>1970-01-01T10:12:39.000Z</time>
      </trkpt>
      <trkpt lat="42.415596" lon="0.785256">
        <ele>1136.6</ele>
        <time>1970-01-01T10:12:40.000Z</time>
      </trkpt>
      <trkpt lat="42.415474" lon="0.78522">
        <ele>1136.2</ele>
        <time>1970-01-01T10:12:42.000Z</time>
      </trkpt>
      <trkpt lat="42.415279" lon="0.785216">
        <ele>1135.4</ele>
        <time>1970-01-01T10:12:45.000Z</time>
      </trkpt>
      <trkpt lat="42.415143" lon="0.785238">
        <ele>1134</ele>
        <time>1970-01-01T10:12:47.000Z</time>
      </trkpt>
      <trkpt lat="42.415014" lon="0.785258">
        <ele>1133</ele>
        <time>1970-01-01T10:12:49.000Z</time>
      </trkpt>
      <trkpt lat="42.414953" lon="0.785277">
        <ele>1132.4</ele>
        <time>1970-01-01T10:12:50.000Z</time>
      </trkpt>
      <trkpt lat="42.414893" lon="0.785311">
        <ele>1131.6</ele>
        <time>1970-01-01T10:12:51.000Z</time>
      </trkpt>
      <trkpt lat="42.41478" lon="0.785416">
        <ele>1130.2</ele>
        <time>1970-01-01T10:12:53.000Z</time>
      </trkpt>
      <trkpt lat="42.414718" lon="0.78547">
        <ele>1129.6</ele>
        <time>1970-01-01T10:12:54.000Z</time>
      </trkpt>
      <trkpt lat="42.41465" lon="0.785518">
        <ele>1129</ele>
        <time>1970-01-01T10:12:55.000Z</time>
      </trkpt>
      <trkpt lat="42.414516" lon="0.785622">
        <ele>1128.2</ele>
        <time>1970-01-01T10:12:57.000Z</time>
      </trkpt>
      <trkpt lat="42.41446" lon="0.785695">
        <ele>1127.8</ele>
        <time>1970-01-01T10:12:58.000Z</time>
      </trkpt>
      <trkpt lat="42.414129" lon="0.786248">
        <ele>1127.4</ele>
        <time>1970-01-01T10:13:06.000Z</time>
      </trkpt>
      <trkpt lat="42.413976" lon="0.78635">
        <ele>1128</ele>
        <time>1970-01-01T10:13:10.000Z</time>
      </trkpt>
      <trkpt lat="42.413805" lon="0.786492">
        <ele>1128.8</ele>
        <time>1970-01-01T10:13:16.000Z</time>
      </trkpt>
      <trkpt lat="42.413503" lon="0.786826">
        <ele>1129.8</ele>
        <time>1970-01-01T10:13:27.000Z</time>
      </trkpt>
      <trkpt lat="42.413401" lon="0.786958">
        <ele>1131.2</ele>
        <time>1970-01-01T10:13:32.000Z</time>
      </trkpt>
      <trkpt lat="42.413329" lon="0.787213">
        <ele>1132.4</ele>
        <time>1970-01-01T10:13:39.000Z</time>
      </trkpt>
      <trkpt lat="42.413193" lon="0.787856">
        <ele>1132.6</ele>
        <time>1970-01-01T10:13:52.000Z</time>
      </trkpt>
      <trkpt lat="42.413199" lon="0.788058">
        <ele>1131.6</ele>
        <time>1970-01-01T10:13:55.000Z</time>
      </trkpt>
      <trkpt lat="42.413205" lon="0.788128">
        <ele>1131.4</ele>
        <time>1970-01-01T10:13:56.000Z</time>
      </trkpt>
      <trkpt lat="42.413204" lon="0.788194">
        <ele>1131</ele>
        <time>1970-01-01T10:13:57.000Z</time>
      </trkpt>
      <trkpt lat="42.413102" lon="0.788279">
        <ele>1130.4</ele>
        <time>1970-01-01T10:14:00.000Z</time>
      </trkpt>
      <trkpt lat="42.413059" lon="0.788288">
        <ele>1130.2</ele>
        <time>1970-01-01T10:14:01.000Z</time>
      </trkpt>
      <trkpt lat="42.412705" lon="0.788428">
        <ele>1129.8</ele>
        <time>1970-01-01T10:14:09.000Z</time>
      </trkpt>
      <trkpt lat="42.41251" lon="0.788582">
        <ele>1129.4</ele>
        <time>1970-01-01T10:14:14.000Z</time>
      </trkpt>
      <trkpt lat="42.412331" lon="0.788826">
        <ele>1129.2</ele>
        <time>1970-01-01T10:14:19.000Z</time>
      </trkpt>
      <trkpt lat="42.412259" lon="0.788957">
        <ele>1128.4</ele>
        <time>1970-01-01T10:14:21.000Z</time>
      </trkpt>
      <trkpt lat="42.412227" lon="0.789025">
        <ele>1127.8</ele>
        <time>1970-01-01T10:14:22.000Z</time>
      </trkpt>
      <trkpt lat="42.412197" lon="0.789096">
        <ele>1127.2</ele>
        <time>1970-01-01T10:14:23.000Z</time>
      </trkpt>
      <trkpt lat="42.412161" lon="0.789262">
        <ele>1126.6</ele>
        <time>1970-01-01T10:14:25.000Z</time>
      </trkpt>
      <trkpt lat="42.412152" lon="0.789422">
        <ele>1125.8</ele>
        <time>1970-01-01T10:14:27.000Z</time>
      </trkpt>
      <trkpt lat="42.412153" lon="0.7895">
        <ele>1125.4</ele>
        <time>1970-01-01T10:14:28.000Z</time>
      </trkpt>
      <trkpt lat="42.412182" lon="0.789717">
        <ele>1124.2</ele>
        <time>1970-01-01T10:14:31.000Z</time>
      </trkpt>
      <trkpt lat="42.412222" lon="0.789838">
        <ele>1123</ele>
        <time>1970-01-01T10:14:33.000Z</time>
      </trkpt>
      <trkpt lat="42.412217" lon="0.789961">
        <ele>1121.8</ele>
        <time>1970-01-01T10:14:35.000Z</time>
      </trkpt>
      <trkpt lat="42.412218" lon="0.790146">
        <ele>1121</ele>
        <time>1970-01-01T10:14:38.000Z</time>
      </trkpt>
      <trkpt lat="42.412284" lon="0.790286">
        <ele>1119.4</ele>
        <time>1970-01-01T10:14:40.000Z</time>
      </trkpt>
      <trkpt lat="42.412352" lon="0.790426">
        <ele>1118</ele>
        <time>1970-01-01T10:14:42.000Z</time>
      </trkpt>
      <trkpt lat="42.412387" lon="0.790557">
        <ele>1117</ele>
        <time>1970-01-01T10:14:44.000Z</time>
      </trkpt>
      <trkpt lat="42.412378" lon="0.790608">
        <ele>1116.6</ele>
        <time>1970-01-01T10:14:45.000Z</time>
      </trkpt>
      <trkpt lat="42.41231" lon="0.79066">
        <ele>1116</ele>
        <time>1970-01-01T10:14:48.000Z</time>
      </trkpt>
      <trkpt lat="42.41218" lon="0.790525">
        <ele>1117.2</ele>
        <time>1970-01-01T10:14:56.000Z</time>
      </trkpt>
      <trkpt lat="42.412152" lon="0.790476">
        <ele>1117.4</ele>
        <time>1970-01-01T10:14:58.000Z</time>
      </trkpt>
      <trkpt lat="42.412048" lon="0.790322">
        <ele>1118.2</ele>
        <time>1970-01-01T10:15:04.000Z</time>
      </trkpt>
      <trkpt lat="42.411598" lon="0.790245">
        <ele>1117.8</ele>
        <time>1970-01-01T10:15:18.000Z</time>
      </trkpt>
      <trkpt lat="42.411216" lon="0.79047">
        <ele>1119.2</ele>
        <time>1970-01-01T10:15:31.000Z</time>
      </trkpt>
      <trkpt lat="42.41074" lon="0.790515">
        <ele>1119</ele>
        <time>1970-01-01T10:15:44.000Z</time>
      </trkpt>
      <trkpt lat="42.410538" lon="0.790867">
        <ele>1118.2</ele>
        <time>1970-01-01T10:15:52.000Z</time>
      </trkpt>
      <trkpt lat="42.410414" lon="0.791483">
        <ele>1119.2</ele>
        <time>1970-01-01T10:16:05.000Z</time>
      </trkpt>
      <trkpt lat="42.410322" lon="0.791771">
        <ele>1119.4</ele>
        <time>1970-01-01T10:16:11.000Z</time>
      </trkpt>
      <trkpt lat="42.410321" lon="0.791947">
        <ele>1118.2</ele>
        <time>1970-01-01T10:16:15.000Z</time>
      </trkpt>
      <trkpt lat="42.410376" lon="0.79211">
        <ele>1117</ele>
        <time>1970-01-01T10:16:19.000Z</time>
      </trkpt>
      <trkpt lat="42.410405" lon="0.792169">
        <ele>1116.4</ele>
        <time>1970-01-01T10:16:21.000Z</time>
      </trkpt>
      <trkpt lat="42.410403" lon="0.792198">
        <ele>1116</ele>
        <time>1970-01-01T10:16:22.000Z</time>
      </trkpt>
      <trkpt lat="42.410331" lon="0.792319">
        <ele>1114.6</ele>
        <time>1970-01-01T10:16:26.000Z</time>
      </trkpt>
      <trkpt lat="42.410306" lon="0.792355">
        <ele>1114.2</ele>
        <time>1970-01-01T10:16:27.000Z</time>
      </trkpt>
      <trkpt lat="42.410253" lon="0.792418">
        <ele>1113.4</ele>
        <time>1970-01-01T10:16:29.000Z</time>
      </trkpt>
      <trkpt lat="42.410184" lon="0.792518">
        <ele>1112.4</ele>
        <time>1970-01-01T10:16:32.000Z</time>
      </trkpt>
      <trkpt lat="42.410104" lon="0.792598">
        <ele>1111.2</ele>
        <time>1970-01-01T10:16:35.000Z</time>
      </trkpt>
      <trkpt lat="42.40965" lon="0.792696">
        <ele>1112.2</ele>
        <time>1970-01-01T10:16:57.000Z</time>
      </trkpt>
      <trkpt lat="42.409407" lon="0.792769">
        <ele>1113.4</ele>
        <time>1970-01-01T10:17:07.000Z</time>
      </trkpt>
      <trkpt lat="42.409214" lon="0.792829">
        <ele>1114.6</ele>
        <time>1970-01-01T10:17:15.000Z</time>
      </trkpt>
      <trkpt lat="42.409039" lon="0.79287">
        <ele>1115.4</ele>
        <time>1970-01-01T10:17:22.000Z</time>
      </trkpt>
      <trkpt lat="42.408869" lon="0.792895">
        <ele>1116.6</ele>
        <time>1970-01-01T10:17:30.000Z</time>
      </trkpt>
      <trkpt lat="42.408436" lon="0.792808">
        <ele>1117.8</ele>
        <time>1970-01-01T10:17:53.000Z</time>
      </trkpt>
      <trkpt lat="42.408308" lon="0.792882">
        <ele>1117.8</ele>
        <time>1970-01-01T10:18:01.000Z</time>
      </trkpt>
      <trkpt lat="42.408354" lon="0.792963">
        <ele>1117.6</ele>
        <time>1970-01-01T10:18:06.000Z</time>
      </trkpt>
      <trkpt lat="42.408363" lon="0.792961">
        <ele>1117.6</ele>
        <time>1970-01-01T10:18:08.000Z</time>
      </trkpt>
      <trkpt lat="42.408415" lon="0.792898">
        <ele>1117.2</ele>
        <time>1970-01-01T10:19:38.000Z</time>
      </trkpt>
      <trkpt lat="42.408426" lon="0.792884">
        <ele>1117.4</ele>
        <time>1970-01-01T10:19:41.000Z</time>
      </trkpt>
      <trkpt lat="42.408544" lon="0.79278">
        <ele>1117</ele>
        <time>1970-01-01T10:20:43.000Z</time>
      </trkpt>
      <trkpt lat="42.408562" lon="0.792779">
        <ele>1117</ele>
        <time>1970-01-01T10:20:44.000Z</time>
      </trkpt>
      <trkpt lat="42.408645" lon="0.792823">
        <ele>1117</ele>
        <time>1970-01-01T10:20:48.000Z</time>
      </trkpt>
      <trkpt lat="42.408932" lon="0.792884">
        <ele>1116.8</ele>
        <time>1970-01-01T10:20:58.000Z</time>
      </trkpt>
      <trkpt lat="42.409094" lon="0.792855">
        <ele>1115.6</ele>
        <time>1970-01-01T10:21:02.000Z</time>
      </trkpt>
      <trkpt lat="42.409165" lon="0.792832">
        <ele>1114.8</ele>
        <time>1970-01-01T10:21:06.000Z</time>
      </trkpt>
      <trkpt lat="42.409213" lon="0.79281">
        <ele>1114.2</ele>
        <time>1970-01-01T10:21:14.000Z</time>
      </trkpt>
      <trkpt lat="42.409397" lon="0.792766">
        <ele>1113.2</ele>
        <time>1970-01-01T10:21:19.000Z</time>
      </trkpt>
      <trkpt lat="42.409444" lon="0.792751">
        <ele>1113</ele>
        <time>1970-01-01T10:21:20.000Z</time>
      </trkpt>
      <trkpt lat="42.409493" lon="0.792743">
        <ele>1112.6</ele>
        <time>1970-01-01T10:21:21.000Z</time>
      </trkpt>
      <trkpt lat="42.409656" lon="0.79272">
        <ele>1111.8</ele>
        <time>1970-01-01T10:21:24.000Z</time>
      </trkpt>
      <trkpt lat="42.409836" lon="0.792681">
        <ele>1111</ele>
        <time>1970-01-01T10:21:27.000Z</time>
      </trkpt>
      <trkpt lat="42.4099" lon="0.792672">
        <ele>1110.6</ele>
        <time>1970-01-01T10:21:28.000Z</time>
      </trkpt>
      <trkpt lat="42.410098" lon="0.792639">
        <ele>1109.8</ele>
        <time>1970-01-01T10:21:31.000Z</time>
      </trkpt>
      <trkpt lat="42.410167" lon="0.792646">
        <ele>1109.4</ele>
        <time>1970-01-01T10:21:32.000Z</time>
      </trkpt>
      <trkpt lat="42.410338" lon="0.792814">
        <ele>1108.4</ele>
        <time>1970-01-01T10:21:35.000Z</time>
      </trkpt>
      <trkpt lat="42.410349" lon="0.793243">
        <ele>1107.2</ele>
        <time>1970-01-01T10:21:40.000Z</time>
      </trkpt>
      <trkpt lat="42.410323" lon="0.793307">
        <ele>1107</ele>
        <time>1970-01-01T10:21:42.000Z</time>
      </trkpt>
      <trkpt lat="42.410322" lon="0.793311">
        <ele>1106.8</ele>
        <time>1970-01-01T10:21:44.000Z</time>
      </trkpt>
      <trkpt lat="42.410304" lon="0.793328">
        <ele>1106.6</ele>
        <time>1970-01-01T10:22:16.000Z</time>
      </trkpt>
      <trkpt lat="42.410218" lon="0.793434">
        <ele>1106.2</ele>
        <time>1970-01-01T10:22:20.000Z</time>
      </trkpt>
      <trkpt lat="42.409911" lon="0.793958">
        <ele>1105.4</ele>
        <time>1970-01-01T10:22:29.000Z</time>
      </trkpt>
      <trkpt lat="42.409777" lon="0.794208">
        <ele>1104</ele>
        <time>1970-01-01T10:22:32.000Z</time>
      </trkpt>
      <trkpt lat="42.40973" lon="0.794308">
        <ele>1103.6</ele>
        <time>1970-01-01T10:22:33.000Z</time>
      </trkpt>
      <trkpt lat="42.409676" lon="0.794549">
        <ele>1102.8</ele>
        <time>1970-01-01T10:22:35.000Z</time>
      </trkpt>
      <trkpt lat="42.409644" lon="0.794822">
        <ele>1101.4</ele>
        <time>1970-01-01T10:22:37.000Z</time>
      </trkpt>
      <trkpt lat="42.409566" lon="0.795095">
        <ele>1100</ele>
        <time>1970-01-01T10:22:39.000Z</time>
      </trkpt>
      <trkpt lat="42.409463" lon="0.795364">
        <ele>1098.8</ele>
        <time>1970-01-01T10:22:41.000Z</time>
      </trkpt>
      <trkpt lat="42.409405" lon="0.79567">
        <ele>1097.4</ele>
        <time>1970-01-01T10:22:43.000Z</time>
      </trkpt>
      <trkpt lat="42.409405" lon="0.795994">
        <ele>1095.8</ele>
        <time>1970-01-01T10:22:45.000Z</time>
      </trkpt>
      <trkpt lat="42.409489" lon="0.79649">
        <ele>1094</ele>
        <time>1970-01-01T10:22:48.000Z</time>
      </trkpt>
      <trkpt lat="42.409524" lon="0.796657">
        <ele>1093</ele>
        <time>1970-01-01T10:22:49.000Z</time>
      </trkpt>
      <trkpt lat="42.409564" lon="0.79682">
        <ele>1092</ele>
        <time>1970-01-01T10:22:50.000Z</time>
      </trkpt>
      <trkpt lat="42.409657" lon="0.797111">
        <ele>1090.2</ele>
        <time>1970-01-01T10:22:52.000Z</time>
      </trkpt>
      <trkpt lat="42.409726" lon="0.797207">
        <ele>1089</ele>
        <time>1970-01-01T10:22:53.000Z</time>
      </trkpt>
      <trkpt lat="42.409824" lon="0.797343">
        <ele>1087.2</ele>
        <time>1970-01-01T10:22:55.000Z</time>
      </trkpt>
      <trkpt lat="42.409841" lon="0.797415">
        <ele>1086</ele>
        <time>1970-01-01T10:22:57.000Z</time>
      </trkpt>
      <trkpt lat="42.409789" lon="0.797463">
        <ele>1085</ele>
        <time>1970-01-01T10:23:00.000Z</time>
      </trkpt>
      <trkpt lat="42.409706" lon="0.797417">
        <ele>1084</ele>
        <time>1970-01-01T10:23:03.000Z</time>
      </trkpt>
      <trkpt lat="42.409654" lon="0.79732">
        <ele>1083.4</ele>
        <time>1970-01-01T10:23:05.000Z</time>
      </trkpt>
      <trkpt lat="42.40959" lon="0.797204">
        <ele>1082.8</ele>
        <time>1970-01-01T10:23:07.000Z</time>
      </trkpt>
      <trkpt lat="42.409483" lon="0.796997">
        <ele>1081.6</ele>
        <time>1970-01-01T10:23:10.000Z</time>
      </trkpt>
      <trkpt lat="42.409379" lon="0.796736">
        <ele>1080.2</ele>
        <time>1970-01-01T10:23:13.000Z</time>
      </trkpt>
      <trkpt lat="42.409262" lon="0.79643">
        <ele>1078.8</ele>
        <time>1970-01-01T10:23:16.000Z</time>
      </trkpt>
      <trkpt lat="42.409181" lon="0.796202">
        <ele>1077.6</ele>
        <time>1970-01-01T10:23:18.000Z</time>
      </trkpt>
      <trkpt lat="42.409105" lon="0.795956">
        <ele>1075.8</ele>
        <time>1970-01-01T10:23:20.000Z</time>
      </trkpt>
      <trkpt lat="42.409046" lon="0.795687">
        <ele>1074.6</ele>
        <time>1970-01-01T10:23:22.000Z</time>
      </trkpt>
      <trkpt lat="42.409006" lon="0.795404">
        <ele>1073.2</ele>
        <time>1970-01-01T10:23:24.000Z</time>
      </trkpt>
      <trkpt lat="42.408934" lon="0.795121">
        <ele>1071.8</ele>
        <time>1970-01-01T10:23:26.000Z</time>
      </trkpt>
      <trkpt lat="42.408854" lon="0.794845">
        <ele>1070</ele>
        <time>1970-01-01T10:23:28.000Z</time>
      </trkpt>
      <trkpt lat="42.408812" lon="0.794717">
        <ele>1069</ele>
        <time>1970-01-01T10:23:29.000Z</time>
      </trkpt>
      <trkpt lat="42.408758" lon="0.794609">
        <ele>1068</ele>
        <time>1970-01-01T10:23:30.000Z</time>
      </trkpt>
      <trkpt lat="42.408589" lon="0.794486">
        <ele>1066.6</ele>
        <time>1970-01-01T10:23:32.000Z</time>
      </trkpt>
      <trkpt lat="42.408389" lon="0.794483">
        <ele>1065</ele>
        <time>1970-01-01T10:23:34.000Z</time>
      </trkpt>
      <trkpt lat="42.408304" lon="0.794493">
        <ele>1064.4</ele>
        <time>1970-01-01T10:23:35.000Z</time>
      </trkpt>
      <trkpt lat="42.408235" lon="0.794511">
        <ele>1063.2</ele>
        <time>1970-01-01T10:23:36.000Z</time>
      </trkpt>
      <trkpt lat="42.40819" lon="0.794554">
        <ele>1062.2</ele>
        <time>1970-01-01T10:23:37.000Z</time>
      </trkpt>
      <trkpt lat="42.408193" lon="0.794672">
        <ele>1061</ele>
        <time>1970-01-01T10:23:39.000Z</time>
      </trkpt>
      <trkpt lat="42.408307" lon="0.794731">
        <ele>1059.8</ele>
        <time>1970-01-01T10:23:41.000Z</time>
      </trkpt>
      <trkpt lat="42.408377" lon="0.794747">
        <ele>1059.4</ele>
        <time>1970-01-01T10:23:42.000Z</time>
      </trkpt>
      <trkpt lat="42.408447" lon="0.794785">
        <ele>1059</ele>
        <time>1970-01-01T10:23:43.000Z</time>
      </trkpt>
      <trkpt lat="42.408513" lon="0.794837">
        <ele>1058.4</ele>
        <time>1970-01-01T10:23:44.000Z</time>
      </trkpt>
      <trkpt lat="42.408623" lon="0.795117">
        <ele>1057</ele>
        <time>1970-01-01T10:23:47.000Z</time>
      </trkpt>
      <trkpt lat="42.408648" lon="0.795229">
        <ele>1056.4</ele>
        <time>1970-01-01T10:23:48.000Z</time>
      </trkpt>
      <trkpt lat="42.408702" lon="0.795465">
        <ele>1055.6</ele>
        <time>1970-01-01T10:23:50.000Z</time>
      </trkpt>
      <trkpt lat="42.408738" lon="0.795723">
        <ele>1054.6</ele>
        <time>1970-01-01T10:23:52.000Z</time>
      </trkpt>
      <trkpt lat="42.408761" lon="0.795996">
        <ele>1053.4</ele>
        <time>1970-01-01T10:23:54.000Z</time>
      </trkpt>
      <trkpt lat="42.408784" lon="0.796259">
        <ele>1052</ele>
        <time>1970-01-01T10:23:56.000Z</time>
      </trkpt>
      <trkpt lat="42.408832" lon="0.796522">
        <ele>1051</ele>
        <time>1970-01-01T10:23:58.000Z</time>
      </trkpt>
      <trkpt lat="42.408882" lon="0.79679">
        <ele>1049.8</ele>
        <time>1970-01-01T10:24:00.000Z</time>
      </trkpt>
      <trkpt lat="42.40893" lon="0.797069">
        <ele>1048.2</ele>
        <time>1970-01-01T10:24:02.000Z</time>
      </trkpt>
      <trkpt lat="42.408961" lon="0.797337">
        <ele>1046.6</ele>
        <time>1970-01-01T10:24:04.000Z</time>
      </trkpt>
      <trkpt lat="42.408943" lon="0.797551">
        <ele>1045</ele>
        <time>1970-01-01T10:24:06.000Z</time>
      </trkpt>
      <trkpt lat="42.408917" lon="0.797724">
        <ele>1043.8</ele>
        <time>1970-01-01T10:24:08.000Z</time>
      </trkpt>
      <trkpt lat="42.408902" lon="0.797868">
        <ele>1043.2</ele>
        <time>1970-01-01T10:24:10.000Z</time>
      </trkpt>
      <trkpt lat="42.408958" lon="0.797943">
        <ele>1042.8</ele>
        <time>1970-01-01T10:24:12.000Z</time>
      </trkpt>
      <trkpt lat="42.409099" lon="0.798002">
        <ele>1042.6</ele>
        <time>1970-01-01T10:24:17.000Z</time>
      </trkpt>
      <trkpt lat="42.409473" lon="0.798055">
        <ele>1043.8</ele>
        <time>1970-01-01T10:24:33.000Z</time>
      </trkpt>
      <trkpt lat="42.409712" lon="0.79811">
        <ele>1044.8</ele>
        <time>1970-01-01T10:24:42.000Z</time>
      </trkpt>
      <trkpt lat="42.409934" lon="0.798219">
        <ele>1046</ele>
        <time>1970-01-01T10:24:51.000Z</time>
      </trkpt>
      <trkpt lat="42.410117" lon="0.79839">
        <ele>1047</ele>
        <time>1970-01-01T10:24:59.000Z</time>
      </trkpt>
      <trkpt lat="42.410373" lon="0.79866">
        <ele>1048</ele>
        <time>1970-01-01T10:25:10.000Z</time>
      </trkpt>
      <trkpt lat="42.410553" lon="0.798865">
        <ele>1049.4</ele>
        <time>1970-01-01T10:25:18.000Z</time>
      </trkpt>
      <trkpt lat="42.410772" lon="0.799059">
        <ele>1050.4</ele>
        <time>1970-01-01T10:25:27.000Z</time>
      </trkpt>
      <trkpt lat="42.411042" lon="0.799261">
        <ele>1051.4</ele>
        <time>1970-01-01T10:25:37.000Z</time>
      </trkpt>
      <trkpt lat="42.411221" lon="0.799412">
        <ele>1052.4</ele>
        <time>1970-01-01T10:25:44.000Z</time>
      </trkpt>
      <trkpt lat="42.411421" lon="0.799622">
        <ele>1053.6</ele>
        <time>1970-01-01T10:25:52.000Z</time>
      </trkpt>
      <trkpt lat="42.41164" lon="0.799849">
        <ele>1054.6</ele>
        <time>1970-01-01T10:26:01.000Z</time>
      </trkpt>
      <trkpt lat="42.411929" lon="0.800001">
        <ele>1055.8</ele>
        <time>1970-01-01T10:26:11.000Z</time>
      </trkpt>
      <trkpt lat="42.412133" lon="0.800131">
        <ele>1057</ele>
        <time>1970-01-01T10:26:18.000Z</time>
      </trkpt>
      <trkpt lat="42.41238" lon="0.800424">
        <ele>1058</ele>
        <time>1970-01-01T10:26:29.000Z</time>
      </trkpt>
      <trkpt lat="42.412525" lon="0.800645">
        <ele>1059.2</ele>
        <time>1970-01-01T10:26:37.000Z</time>
      </trkpt>
      <trkpt lat="42.412651" lon="0.800804">
        <ele>1060.2</ele>
        <time>1970-01-01T10:26:44.000Z</time>
      </trkpt>
      <trkpt lat="42.412796" lon="0.800954">
        <ele>1061.4</ele>
        <time>1970-01-01T10:26:51.000Z</time>
      </trkpt>
      <trkpt lat="42.412918" lon="0.801066">
        <ele>1062.6</ele>
        <time>1970-01-01T10:26:57.000Z</time>
      </trkpt>
      <trkpt lat="42.413053" lon="0.801189">
        <ele>1063.6</ele>
        <time>1970-01-01T10:27:04.000Z</time>
      </trkpt>
      <trkpt lat="42.413178" lon="0.80131">
        <ele>1064.6</ele>
        <time>1970-01-01T10:27:11.000Z</time>
      </trkpt>
      <trkpt lat="42.41328" lon="0.801437">
        <ele>1065.8</ele>
        <time>1970-01-01T10:27:17.000Z</time>
      </trkpt>
      <trkpt lat="42.413412" lon="0.801624">
        <ele>1066.8</ele>
        <time>1970-01-01T10:27:25.000Z</time>
      </trkpt>
      <trkpt lat="42.413548" lon="0.801755">
        <ele>1067.8</ele>
        <time>1970-01-01T10:27:32.000Z</time>
      </trkpt>
      <trkpt lat="42.413788" lon="0.801791">
        <ele>1069</ele>
        <time>1970-01-01T10:27:42.000Z</time>
      </trkpt>
      <trkpt lat="42.413938" lon="0.801856">
        <ele>1070</ele>
        <time>1970-01-01T10:27:49.000Z</time>
      </trkpt>
      <trkpt lat="42.414071" lon="0.801969">
        <ele>1071.2</ele>
        <time>1970-01-01T10:27:56.000Z</time>
      </trkpt>
      <trkpt lat="42.414178" lon="0.802139">
        <ele>1072.4</ele>
        <time>1970-01-01T10:28:03.000Z</time>
      </trkpt>
      <trkpt lat="42.414178" lon="0.802654">
        <ele>1073.4</ele>
        <time>1970-01-01T10:28:18.000Z</time>
      </trkpt>
      <trkpt lat="42.414024" lon="0.803026">
        <ele>1074.4</ele>
        <time>1970-01-01T10:28:30.000Z</time>
      </trkpt>
      <trkpt lat="42.413944" lon="0.80322">
        <ele>1074.6</ele>
        <time>1970-01-01T10:28:41.000Z</time>
      </trkpt>
      <trkpt lat="42.413977" lon="0.803306">
        <ele>1074.6</ele>
        <time>1970-01-01T10:28:51.000Z</time>
      </trkpt>
      <trkpt lat="42.414134" lon="0.803616">
        <ele>1075.6</ele>
        <time>1970-01-01T10:29:01.000Z</time>
      </trkpt>
      <trkpt lat="42.414276" lon="0.80401">
        <ele>1076.8</ele>
        <time>1970-01-01T10:29:12.000Z</time>
      </trkpt>
      <trkpt lat="42.414459" lon="0.804419">
        <ele>1078</ele>
        <time>1970-01-01T10:29:24.000Z</time>
      </trkpt>
      <trkpt lat="42.41458" lon="0.804685">
        <ele>1079</ele>
        <time>1970-01-01T10:29:33.000Z</time>
      </trkpt>
      <trkpt lat="42.414441" lon="0.804893">
        <ele>1079.2</ele>
        <time>1970-01-01T10:29:43.000Z</time>
      </trkpt>
      <trkpt lat="42.414332" lon="0.804729">
        <ele>1079.4</ele>
        <time>1970-01-01T10:29:49.000Z</time>
      </trkpt>
      <trkpt lat="42.414122" lon="0.804408">
        <ele>1080.2</ele>
        <time>1970-01-01T10:29:59.000Z</time>
      </trkpt>
      <trkpt lat="42.413863" lon="0.804148">
        <ele>1081.2</ele>
        <time>1970-01-01T10:30:10.000Z</time>
      </trkpt>
      <trkpt lat="42.413807" lon="0.804082">
        <ele>1082</ele>
        <time>1970-01-01T10:30:15.000Z</time>
      </trkpt>
      <trkpt lat="42.413767" lon="0.804046">
        <ele>1082</ele>
        <time>1970-01-01T10:30:37.000Z</time>
      </trkpt>
      <trkpt lat="42.413729" lon="0.803989">
        <ele>1082.6</ele>
        <time>1970-01-01T10:30:40.000Z</time>
      </trkpt>
      <trkpt lat="42.413637" lon="0.803858">
        <ele>1083.6</ele>
        <time>1970-01-01T10:30:46.000Z</time>
      </trkpt>
      <trkpt lat="42.413571" lon="0.803745">
        <ele>1084.6</ele>
        <time>1970-01-01T10:30:51.000Z</time>
      </trkpt>
      <trkpt lat="42.413486" lon="0.803653">
        <ele>1085.6</ele>
        <time>1970-01-01T10:30:56.000Z</time>
      </trkpt>
      <trkpt lat="42.413284" lon="0.803558">
        <ele>1086.6</ele>
        <time>1970-01-01T10:31:05.000Z</time>
      </trkpt>
      <trkpt lat="42.413172" lon="0.803337">
        <ele>1087.8</ele>
        <time>1970-01-01T10:31:14.000Z</time>
      </trkpt>
      <trkpt lat="42.413143" lon="0.803134">
        <ele>1088.8</ele>
        <time>1970-01-01T10:31:21.000Z</time>
      </trkpt>
      <trkpt lat="42.413064" lon="0.802954">
        <ele>1089.8</ele>
        <time>1970-01-01T10:31:28.000Z</time>
      </trkpt>
      <trkpt lat="42.412869" lon="0.802829">
        <ele>1091</ele>
        <time>1970-01-01T10:31:37.000Z</time>
      </trkpt>
      <trkpt lat="42.412713" lon="0.802815">
        <ele>1092</ele>
        <time>1970-01-01T10:31:44.000Z</time>
      </trkpt>
      <trkpt lat="42.412545" lon="0.802817">
        <ele>1093.2</ele>
        <time>1970-01-01T10:31:52.000Z</time>
      </trkpt>
      <trkpt lat="42.412379" lon="0.80279">
        <ele>1094.2</ele>
        <time>1970-01-01T10:32:00.000Z</time>
      </trkpt>
      <trkpt lat="42.412254" lon="0.802789">
        <ele>1095.4</ele>
        <time>1970-01-01T10:32:06.000Z</time>
      </trkpt>
      <trkpt lat="42.412203" lon="0.802797">
        <ele>1095.8</ele>
        <time>1970-01-01T10:32:09.000Z</time>
      </trkpt>
      <trkpt lat="42.412243" lon="0.802827">
        <ele>1096.2</ele>
        <time>1970-01-01T10:32:14.000Z</time>
      </trkpt>
      <trkpt lat="42.412444" lon="0.802824">
        <ele>1095</ele>
        <time>1970-01-01T10:32:19.000Z</time>
      </trkpt>
      <trkpt lat="42.412557" lon="0.802834">
        <ele>1094.2</ele>
        <time>1970-01-01T10:32:21.000Z</time>
      </trkpt>
      <trkpt lat="42.412824" lon="0.802853">
        <ele>1093</ele>
        <time>1970-01-01T10:32:25.000Z</time>
      </trkpt>
      <trkpt lat="42.412898" lon="0.802873">
        <ele>1092.6</ele>
        <time>1970-01-01T10:32:26.000Z</time>
      </trkpt>
      <trkpt lat="42.413033" lon="0.802967">
        <ele>1091.6</ele>
        <time>1970-01-01T10:32:28.000Z</time>
      </trkpt>
      <trkpt lat="42.413133" lon="0.803135">
        <ele>1090.6</ele>
        <time>1970-01-01T10:32:30.000Z</time>
      </trkpt>
      <trkpt lat="42.413217" lon="0.803428">
        <ele>1089.4</ele>
        <time>1970-01-01T10:32:33.000Z</time>
      </trkpt>
      <trkpt lat="42.41335" lon="0.80361">
        <ele>1087.8</ele>
        <time>1970-01-01T10:32:36.000Z</time>
      </trkpt>
      <trkpt lat="42.413545" lon="0.803717">
        <ele>1086.8</ele>
        <time>1970-01-01T10:32:39.000Z</time>
      </trkpt>
      <trkpt lat="42.413719" lon="0.803955">
        <ele>1085.4</ele>
        <time>1970-01-01T10:32:42.000Z</time>
      </trkpt>
      <trkpt lat="42.413854" lon="0.804124">
        <ele>1084.4</ele>
        <time>1970-01-01T10:32:44.000Z</time>
      </trkpt>
      <trkpt lat="42.41393" lon="0.804201">
        <ele>1083.6</ele>
        <time>1970-01-01T10:32:45.000Z</time>
      </trkpt>
      <trkpt lat="42.41408" lon="0.80436">
        <ele>1082.2</ele>
        <time>1970-01-01T10:32:47.000Z</time>
      </trkpt>
      <trkpt lat="42.414277" lon="0.804633">
        <ele>1080.8</ele>
        <time>1970-01-01T10:32:50.000Z</time>
      </trkpt>
      <trkpt lat="42.414425" lon="0.804889">
        <ele>1080.2</ele>
        <time>1970-01-01T10:32:53.000Z</time>
      </trkpt>
      <trkpt lat="42.414507" lon="0.804919">
        <ele>1079.8</ele>
        <time>1970-01-01T10:32:55.000Z</time>
      </trkpt>
      <trkpt lat="42.414569" lon="0.804845">
        <ele>1079.6</ele>
        <time>1970-01-01T10:32:57.000Z</time>
      </trkpt>
      <trkpt lat="42.41464" lon="0.804777">
        <ele>1079.4</ele>
        <time>1970-01-01T10:33:00.000Z</time>
      </trkpt>
      <trkpt lat="42.414755" lon="0.804906">
        <ele>1079.6</ele>
        <time>1970-01-01T10:33:06.000Z</time>
      </trkpt>
      <trkpt lat="42.415008" lon="0.805261">
        <ele>1080.8</ele>
        <time>1970-01-01T10:33:19.000Z</time>
      </trkpt>
      <trkpt lat="42.415105" lon="0.8054">
        <ele>1081.8</ele>
        <time>1970-01-01T10:33:25.000Z</time>
      </trkpt>
      <trkpt lat="42.415224" lon="0.805499">
        <ele>1082.8</ele>
        <time>1970-01-01T10:33:33.000Z</time>
      </trkpt>
      <trkpt lat="42.415392" lon="0.805662">
        <ele>1083.8</ele>
        <time>1970-01-01T10:33:43.000Z</time>
      </trkpt>
      <trkpt lat="42.415505" lon="0.805754">
        <ele>1085</ele>
        <time>1970-01-01T10:33:49.000Z</time>
      </trkpt>
      <trkpt lat="42.415676" lon="0.805851">
        <ele>1086</ele>
        <time>1970-01-01T10:33:58.000Z</time>
      </trkpt>
      <trkpt lat="42.415781" lon="0.805924">
        <ele>1087.2</ele>
        <time>1970-01-01T10:34:04.000Z</time>
      </trkpt>
      <trkpt lat="42.415871" lon="0.806008">
        <ele>1088.2</ele>
        <time>1970-01-01T10:34:10.000Z</time>
      </trkpt>
      <trkpt lat="42.415956" lon="0.806138">
        <ele>1089.2</ele>
        <time>1970-01-01T10:34:17.000Z</time>
      </trkpt>
      <trkpt lat="42.416064" lon="0.806267">
        <ele>1090.4</ele>
        <time>1970-01-01T10:34:24.000Z</time>
      </trkpt>
      <trkpt lat="42.416128" lon="0.80636">
        <ele>1091.2</ele>
        <time>1970-01-01T10:34:32.000Z</time>
      </trkpt>
      <trkpt lat="42.416075" lon="0.806289">
        <ele>1091</ele>
        <time>1970-01-01T10:35:26.000Z</time>
      </trkpt>
      <trkpt lat="42.41591" lon="0.806094">
        <ele>1089.2</ele>
        <time>1970-01-01T10:35:37.000Z</time>
      </trkpt>
      <trkpt lat="42.415833" lon="0.805999">
        <ele>1088.6</ele>
        <time>1970-01-01T10:35:41.000Z</time>
      </trkpt>
      <trkpt lat="42.41578" lon="0.805962">
        <ele>1088</ele>
        <time>1970-01-01T10:35:43.000Z</time>
      </trkpt>
      <trkpt lat="42.415684" lon="0.805911">
        <ele>1087</ele>
        <time>1970-01-01T10:35:47.000Z</time>
      </trkpt>
      <trkpt lat="42.41554" lon="0.805834">
        <ele>1086</ele>
        <time>1970-01-01T10:35:53.000Z</time>
      </trkpt>
      <trkpt lat="42.415367" lon="0.805692">
        <ele>1084.8</ele>
        <time>1970-01-01T10:35:59.000Z</time>
      </trkpt>
      <trkpt lat="42.415244" lon="0.805571">
        <ele>1083.8</ele>
        <time>1970-01-01T10:36:04.000Z</time>
      </trkpt>
      <trkpt lat="42.415111" lon="0.805433">
        <ele>1082.8</ele>
        <time>1970-01-01T10:36:08.000Z</time>
      </trkpt>
      <trkpt lat="42.41508" lon="0.805387">
        <ele>1082.6</ele>
        <time>1970-01-01T10:36:09.000Z</time>
      </trkpt>
      <trkpt lat="42.41505" lon="0.805341">
        <ele>1082</ele>
        <time>1970-01-01T10:36:12.000Z</time>
      </trkpt>
      <trkpt lat="42.415073" lon="0.805375">
        <ele>1082.4</ele>
        <time>1970-01-01T10:36:56.000Z</time>
      </trkpt>
      <trkpt lat="42.414944" lon="0.805219">
        <ele>1081.6</ele>
        <time>1970-01-01T10:37:01.000Z</time>
      </trkpt>
      <trkpt lat="42.414911" lon="0.805181">
        <ele>1081.4</ele>
        <time>1970-01-01T10:37:02.000Z</time>
      </trkpt>
      <trkpt lat="42.414745" lon="0.804953">
        <ele>1080.4</ele>
        <time>1970-01-01T10:37:07.000Z</time>
      </trkpt>
      <trkpt lat="42.414677" lon="0.804862">
        <ele>1080.2</ele>
        <time>1970-01-01T10:37:09.000Z</time>
      </trkpt>
      <trkpt lat="42.414582" lon="0.80467">
        <ele>1079.8</ele>
        <time>1970-01-01T10:37:13.000Z</time>
      </trkpt>
      <trkpt lat="42.414477" lon="0.80447">
        <ele>1079.4</ele>
        <time>1970-01-01T10:37:17.000Z</time>
      </trkpt>
      <trkpt lat="42.414331" lon="0.804139">
        <ele>1078.2</ele>
        <time>1970-01-01T10:37:22.000Z</time>
      </trkpt>
      <trkpt lat="42.414161" lon="0.803677">
        <ele>1077.2</ele>
        <time>1970-01-01T10:37:28.000Z</time>
      </trkpt>
      <trkpt lat="42.414027" lon="0.803338">
        <ele>1076</ele>
        <time>1970-01-01T10:37:33.000Z</time>
      </trkpt>
      <trkpt lat="42.413955" lon="0.803194">
        <ele>1075.4</ele>
        <time>1970-01-01T10:37:39.000Z</time>
      </trkpt>
      <trkpt lat="42.414057" lon="0.803474">
        <ele>1058.4</ele>
        <time>1970-01-01T00:00:00.000Z</time>
      </trkpt>
      <trkpt lat="42.414261" lon="0.804077">
        <ele>1059.8</ele>
        <time>1970-01-01T00:00:18.000Z</time>
      </trkpt>
      <trkpt lat="42.414395" lon="0.804401">
        <ele>1061</ele>
        <time>1970-01-01T00:00:28.000Z</time>
      </trkpt>
      <trkpt lat="42.414544" lon="0.804731">
        <ele>1062</ele>
        <time>1970-01-01T00:00:39.000Z</time>
      </trkpt>
      <trkpt lat="42.414207" lon="0.804614">
        <ele>1062.8</ele>
        <time>1970-01-01T00:00:59.000Z</time>
      </trkpt>
      <trkpt lat="42.414147" lon="0.804538">
        <ele>1063</ele>
        <time>1970-01-01T00:01:02.000Z</time>
      </trkpt>
      <trkpt lat="42.413825" lon="0.804156">
        <ele>1064.2</ele>
        <time>1970-01-01T00:01:19.000Z</time>
      </trkpt>
      <trkpt lat="42.413719" lon="0.804054">
        <ele>1065.4</ele>
        <time>1970-01-01T00:01:25.000Z</time>
      </trkpt>
      <trkpt lat="42.413587" lon="0.803895">
        <ele>1066.4</ele>
        <time>1970-01-01T00:01:34.000Z</time>
      </trkpt>
      <trkpt lat="42.413495" lon="0.803757">
        <ele>1067.8</ele>
        <time>1970-01-01T00:01:41.000Z</time>
      </trkpt>
      <trkpt lat="42.413386" lon="0.803637">
        <ele>1069</ele>
        <time>1970-01-01T00:01:48.000Z</time>
      </trkpt>
      <trkpt lat="42.413269" lon="0.803593">
        <ele>1070</ele>
        <time>1970-01-01T00:01:54.000Z</time>
      </trkpt>
      <trkpt lat="42.413139" lon="0.803396">
        <ele>1071</ele>
        <time>1970-01-01T00:02:03.000Z</time>
      </trkpt>
      <trkpt lat="42.413103" lon="0.803191">
        <ele>1072.2</ele>
        <time>1970-01-01T00:02:10.000Z</time>
      </trkpt>
      <trkpt lat="42.413058" lon="0.803027">
        <ele>1073.2</ele>
        <time>1970-01-01T00:02:16.000Z</time>
      </trkpt>
      <trkpt lat="42.41292" lon="0.802878">
        <ele>1074.4</ele>
        <time>1970-01-01T00:02:24.000Z</time>
      </trkpt>
      <trkpt lat="42.412716" lon="0.802828">
        <ele>1075.6</ele>
        <time>1970-01-01T00:02:34.000Z</time>
      </trkpt>
      <trkpt lat="42.412528" lon="0.802816">
        <ele>1076.8</ele>
        <time>1970-01-01T00:02:43.000Z</time>
      </trkpt>
      <trkpt lat="42.412377" lon="0.8028">
        <ele>1078</ele>
        <time>1970-01-01T00:02:50.000Z</time>
      </trkpt>
      <trkpt lat="42.412246" lon="0.802791">
        <ele>1079</ele>
        <time>1970-01-01T00:02:56.000Z</time>
      </trkpt>
      <trkpt lat="42.412132" lon="0.802821">
        <ele>1080</ele>
        <time>1970-01-01T00:03:02.000Z</time>
      </trkpt>
      <trkpt lat="42.412052" lon="0.802882">
        <ele>1081.2</ele>
        <time>1970-01-01T00:03:08.000Z</time>
      </trkpt>
      <trkpt lat="42.411964" lon="0.802989">
        <ele>1082.4</ele>
        <time>1970-01-01T00:03:15.000Z</time>
      </trkpt>
      <trkpt lat="42.411896" lon="0.8031">
        <ele>1083.6</ele>
        <time>1970-01-01T00:03:21.000Z</time>
      </trkpt>
      <trkpt lat="42.411852" lon="0.803173">
        <ele>1084.6</ele>
        <time>1970-01-01T00:03:25.000Z</time>
      </trkpt>
      <trkpt lat="42.411774" lon="0.803223">
        <ele>1085.6</ele>
        <time>1970-01-01T00:03:30.000Z</time>
      </trkpt>
      <trkpt lat="42.411678" lon="0.803259">
        <ele>1087</ele>
        <time>1970-01-01T00:03:36.000Z</time>
      </trkpt>
      <trkpt lat="42.411588" lon="0.803198">
        <ele>1088</ele>
        <time>1970-01-01T00:03:42.000Z</time>
      </trkpt>
      <trkpt lat="42.411529" lon="0.803156">
        <ele>1089</ele>
        <time>1970-01-01T00:03:46.000Z</time>
      </trkpt>
      <trkpt lat="42.411467" lon="0.803091">
        <ele>1090.2</ele>
        <time>1970-01-01T00:03:51.000Z</time>
      </trkpt>
      <trkpt lat="42.411409" lon="0.803017">
        <ele>1091.6</ele>
        <time>1970-01-01T00:03:56.000Z</time>
      </trkpt>
      <trkpt lat="42.411344" lon="0.802948">
        <ele>1092.6</ele>
        <time>1970-01-01T00:04:02.000Z</time>
      </trkpt>
      <trkpt lat="42.411294" lon="0.802881">
        <ele>1093.6</ele>
        <time>1970-01-01T00:04:07.000Z</time>
      </trkpt>
      <trkpt lat="42.411245" lon="0.802807">
        <ele>1094.8</ele>
        <time>1970-01-01T00:04:12.000Z</time>
      </trkpt>
      <trkpt lat="42.411233" lon="0.802795">
        <ele>1095</ele>
        <time>1970-01-01T00:04:13.000Z</time>
      </trkpt>
      <trkpt lat="42.411134" lon="0.802731">
        <ele>1096.2</ele>
        <time>1970-01-01T00:04:20.000Z</time>
      </trkpt>
      <trkpt lat="42.411061" lon="0.802673">
        <ele>1097.4</ele>
        <time>1970-01-01T00:04:25.000Z</time>
      </trkpt>
      <trkpt lat="42.41094" lon="0.802612">
        <ele>1098.4</ele>
        <time>1970-01-01T00:04:33.000Z</time>
      </trkpt>
      <trkpt lat="42.410831" lon="0.80255">
        <ele>1099.6</ele>
        <time>1970-01-01T00:04:40.000Z</time>
      </trkpt>
      <trkpt lat="42.410725" lon="0.802491">
        <ele>1100.8</ele>
        <time>1970-01-01T00:04:47.000Z</time>
      </trkpt>
      <trkpt lat="42.410619" lon="0.802514">
        <ele>1101.8</ele>
        <time>1970-01-01T00:04:55.000Z</time>
      </trkpt>
      <trkpt lat="42.410504" lon="0.802565">
        <ele>1103</ele>
        <time>1970-01-01T00:05:04.000Z</time>
      </trkpt>
      <trkpt lat="42.410467" lon="0.802615">
        <ele>1104.2</ele>
        <time>1970-01-01T00:05:08.000Z</time>
      </trkpt>
      <trkpt lat="42.410459" lon="0.802629">
        <ele>1104.4</ele>
        <time>1970-01-01T00:05:09.000Z</time>
      </trkpt>
      <trkpt lat="42.410419" lon="0.80271">
        <ele>1105.4</ele>
        <time>1970-01-01T00:05:14.000Z</time>
      </trkpt>
      <trkpt lat="42.410382" lon="0.802804">
        <ele>1106.6</ele>
        <time>1970-01-01T00:05:20.000Z</time>
      </trkpt>
      <trkpt lat="42.410371" lon="0.802893">
        <ele>1107.8</ele>
        <time>1970-01-01T00:05:25.000Z</time>
      </trkpt>
      <trkpt lat="42.410343" lon="0.802953">
        <ele>1108.8</ele>
        <time>1970-01-01T00:05:29.000Z</time>
      </trkpt>
      <trkpt lat="42.410298" lon="0.803013">
        <ele>1109.8</ele>
        <time>1970-01-01T00:05:34.000Z</time>
      </trkpt>
      <trkpt lat="42.410266" lon="0.803068">
        <ele>1111</ele>
        <time>1970-01-01T00:05:38.000Z</time>
      </trkpt>
      <trkpt lat="42.41022" lon="0.803129">
        <ele>1112.2</ele>
        <time>1970-01-01T00:05:43.000Z</time>
      </trkpt>
      <trkpt lat="42.410203" lon="0.803237">
        <ele>1113.4</ele>
        <time>1970-01-01T00:05:49.000Z</time>
      </trkpt>
      <trkpt lat="42.410215" lon="0.803272">
        <ele>1113.8</ele>
        <time>1970-01-01T00:05:51.000Z</time>
      </trkpt>
      <trkpt lat="42.410274" lon="0.803286">
        <ele>1114.6</ele>
        <time>1970-01-01T00:05:55.000Z</time>
      </trkpt>
      <trkpt lat="42.410287" lon="0.80328">
        <ele>1114.6</ele>
        <time>1970-01-01T00:05:56.000Z</time>
      </trkpt>
      <trkpt lat="42.410381" lon="0.803236">
        <ele>1115.6</ele>
        <time>1970-01-01T00:06:03.000Z</time>
      </trkpt>
      <trkpt lat="42.410479" lon="0.803201">
        <ele>1116.8</ele>
        <time>1970-01-01T00:06:10.000Z</time>
      </trkpt>
      <trkpt lat="42.410563" lon="0.803173">
        <ele>1118</ele>
        <time>1970-01-01T00:06:16.000Z</time>
      </trkpt>
      <trkpt lat="42.410667" lon="0.80319">
        <ele>1119.2</ele>
        <time>1970-01-01T00:06:24.000Z</time>
      </trkpt>
      <trkpt lat="42.410735" lon="0.803281">
        <ele>1120.4</ele>
        <time>1970-01-01T00:06:31.000Z</time>
      </trkpt>
      <trkpt lat="42.410758" lon="0.803369">
        <ele>1121.4</ele>
        <time>1970-01-01T00:06:37.000Z</time>
      </trkpt>
      <trkpt lat="42.410814" lon="0.803516">
        <ele>1122.4</ele>
        <time>1970-01-01T00:06:49.000Z</time>
      </trkpt>
      <trkpt lat="42.410852" lon="0.80361">
        <ele>1123.8</ele>
        <time>1970-01-01T00:06:56.000Z</time>
      </trkpt>
      <trkpt lat="42.410874" lon="0.803727">
        <ele>1125</ele>
        <time>1970-01-01T00:07:04.000Z</time>
      </trkpt>
      <trkpt lat="42.410879" lon="0.803824">
        <ele>1126</ele>
        <time>1970-01-01T00:07:10.000Z</time>
      </trkpt>
      <trkpt lat="42.410838" lon="0.803888">
        <ele>1127</ele>
        <time>1970-01-01T00:07:15.000Z</time>
      </trkpt>
      <trkpt lat="42.410824" lon="0.803895">
        <ele>1127.2</ele>
        <time>1970-01-01T00:07:16.000Z</time>
      </trkpt>
      <trkpt lat="42.410687" lon="0.803817">
        <ele>1128.4</ele>
        <time>1970-01-01T00:07:26.000Z</time>
      </trkpt>
      <trkpt lat="42.410651" lon="0.803789">
        <ele>1128.6</ele>
        <time>1970-01-01T00:07:29.000Z</time>
      </trkpt>
      <trkpt lat="42.410525" lon="0.803718">
        <ele>1129.6</ele>
        <time>1970-01-01T00:07:38.000Z</time>
      </trkpt>
      <trkpt lat="42.410319" lon="0.803728">
        <ele>1130.6</ele>
        <time>1970-01-01T00:07:52.000Z</time>
      </trkpt>
      <trkpt lat="42.410184" lon="0.803746">
        <ele>1131.6</ele>
        <time>1970-01-01T00:08:01.000Z</time>
      </trkpt>
      <trkpt lat="42.410084" lon="0.803769">
        <ele>1132.8</ele>
        <time>1970-01-01T00:08:08.000Z</time>
      </trkpt>
      <trkpt lat="42.410009" lon="0.8038">
        <ele>1134</ele>
        <time>1970-01-01T00:08:14.000Z</time>
      </trkpt>
      <trkpt lat="42.409956" lon="0.803868">
        <ele>1135.4</ele>
        <time>1970-01-01T00:08:19.000Z</time>
      </trkpt>
      <trkpt lat="42.409951" lon="0.803888">
        <ele>1135.6</ele>
        <time>1970-01-01T00:08:20.000Z</time>
      </trkpt>
      <trkpt lat="42.40998" lon="0.803968">
        <ele>1136.6</ele>
        <time>1970-01-01T00:08:24.000Z</time>
      </trkpt>
      <trkpt lat="42.410097" lon="0.804028">
        <ele>1137.8</ele>
        <time>1970-01-01T00:08:31.000Z</time>
      </trkpt>
      <trkpt lat="42.410219" lon="0.804075">
        <ele>1138.8</ele>
        <time>1970-01-01T00:08:39.000Z</time>
      </trkpt>
      <trkpt lat="42.410301" lon="0.804126">
        <ele>1139.8</ele>
        <time>1970-01-01T00:08:45.000Z</time>
      </trkpt>
      <trkpt lat="42.41038" lon="0.804209">
        <ele>1140.8</ele>
        <time>1970-01-01T00:08:52.000Z</time>
      </trkpt>
      <trkpt lat="42.410438" lon="0.804281">
        <ele>1141.8</ele>
        <time>1970-01-01T00:08:58.000Z</time>
      </trkpt>
      <trkpt lat="42.410493" lon="0.804359">
        <ele>1143.2</ele>
        <time>1970-01-01T00:09:04.000Z</time>
      </trkpt>
      <trkpt lat="42.410512" lon="0.804418">
        <ele>1144.2</ele>
        <time>1970-01-01T00:09:08.000Z</time>
      </trkpt>
      <trkpt lat="42.41048" lon="0.804493">
        <ele>1145.2</ele>
        <time>1970-01-01T00:09:13.000Z</time>
      </trkpt>
      <trkpt lat="42.410465" lon="0.804499">
        <ele>1145.6</ele>
        <time>1970-01-01T00:09:14.000Z</time>
      </trkpt>
      <trkpt lat="42.410351" lon="0.8045">
        <ele>1146.4</ele>
        <time>1970-01-01T00:09:21.000Z</time>
      </trkpt>
      <trkpt lat="42.410319" lon="0.804494">
        <ele>1146.6</ele>
        <time>1970-01-01T00:09:23.000Z</time>
      </trkpt>
      <trkpt lat="42.410181" lon="0.804493">
        <ele>1147.8</ele>
        <time>1970-01-01T00:09:32.000Z</time>
      </trkpt>
      <trkpt lat="42.410056" lon="0.804496">
        <ele>1148.8</ele>
        <time>1970-01-01T00:09:41.000Z</time>
      </trkpt>
      <trkpt lat="42.409953" lon="0.804507">
        <ele>1149.8</ele>
        <time>1970-01-01T00:09:48.000Z</time>
      </trkpt>
      <trkpt lat="42.409878" lon="0.804516">
        <ele>1151</ele>
        <time>1970-01-01T00:09:53.000Z</time>
      </trkpt>
      <trkpt lat="42.409821" lon="0.80453">
        <ele>1152</ele>
        <time>1970-01-01T00:09:57.000Z</time>
      </trkpt>
      <trkpt lat="42.409737" lon="0.804563">
        <ele>1153</ele>
        <time>1970-01-01T00:10:03.000Z</time>
      </trkpt>
      <trkpt lat="42.40967" lon="0.804644">
        <ele>1154.2</ele>
        <time>1970-01-01T00:10:09.000Z</time>
      </trkpt>
      <trkpt lat="42.409614" lon="0.804759">
        <ele>1155.4</ele>
        <time>1970-01-01T00:10:16.000Z</time>
      </trkpt>
      <trkpt lat="42.409586" lon="0.804859">
        <ele>1156.4</ele>
        <time>1970-01-01T00:10:22.000Z</time>
      </trkpt>
      <trkpt lat="42.409567" lon="0.804942">
        <ele>1157.6</ele>
        <time>1970-01-01T00:10:27.000Z</time>
      </trkpt>
      <trkpt lat="42.409563" lon="0.805012">
        <ele>1158.6</ele>
        <time>1970-01-01T00:10:31.000Z</time>
      </trkpt>
      <trkpt lat="42.409603" lon="0.805114">
        <ele>1159.8</ele>
        <time>1970-01-01T00:10:37.000Z</time>
      </trkpt>
      <trkpt lat="42.409663" lon="0.805131">
        <ele>1160.8</ele>
        <time>1970-01-01T00:10:41.000Z</time>
      </trkpt>
      <trkpt lat="42.409782" lon="0.805092">
        <ele>1162</ele>
        <time>1970-01-01T00:10:48.000Z</time>
      </trkpt>
      <trkpt lat="42.409913" lon="0.805028">
        <ele>1163.2</ele>
        <time>1970-01-01T00:10:56.000Z</time>
      </trkpt>
      <trkpt lat="42.41005" lon="0.805026">
        <ele>1164.2</ele>
        <time>1970-01-01T00:11:04.000Z</time>
      </trkpt>
      <trkpt lat="42.41018" lon="0.805087">
        <ele>1165.2</ele>
        <time>1970-01-01T00:11:13.000Z</time>
      </trkpt>
      <trkpt lat="42.410248" lon="0.805164">
        <ele>1166.2</ele>
        <time>1970-01-01T00:11:19.000Z</time>
      </trkpt>
      <trkpt lat="42.410315" lon="0.805262">
        <ele>1167.4</ele>
        <time>1970-01-01T00:11:26.000Z</time>
      </trkpt>
      <trkpt lat="42.41038" lon="0.805378">
        <ele>1168.4</ele>
        <time>1970-01-01T00:11:34.000Z</time>
      </trkpt>
      <trkpt lat="42.410425" lon="0.805442">
        <ele>1169.6</ele>
        <time>1970-01-01T00:11:39.000Z</time>
      </trkpt>
      <trkpt lat="42.410471" lon="0.805506">
        <ele>1170.6</ele>
        <time>1970-01-01T00:11:44.000Z</time>
      </trkpt>
      <trkpt lat="42.410512" lon="0.805576">
        <ele>1172</ele>
        <time>1970-01-01T00:11:49.000Z</time>
      </trkpt>
      <trkpt lat="42.41056" lon="0.805637">
        <ele>1172.8</ele>
        <time>1970-01-01T00:11:54.000Z</time>
      </trkpt>
      <trkpt lat="42.410603" lon="0.805683">
        <ele>1174.2</ele>
        <time>1970-01-01T00:11:58.000Z</time>
      </trkpt>
      <trkpt lat="42.410636" lon="0.805747">
        <ele>1175.4</ele>
        <time>1970-01-01T00:12:02.000Z</time>
      </trkpt>
      <trkpt lat="42.410636" lon="0.805763">
        <ele>1175.6</ele>
        <time>1970-01-01T00:12:03.000Z</time>
      </trkpt>
      <trkpt lat="42.410628" lon="0.805839">
        <ele>1176.4</ele>
        <time>1970-01-01T00:12:07.000Z</time>
      </trkpt>
      <trkpt lat="42.410542" lon="0.805883">
        <ele>1177.6</ele>
        <time>1970-01-01T00:12:13.000Z</time>
      </trkpt>
      <trkpt lat="42.410427" lon="0.805861">
        <ele>1178.8</ele>
        <time>1970-01-01T00:12:20.000Z</time>
      </trkpt>
      <trkpt lat="42.410356" lon="0.805847">
        <ele>1180</ele>
        <time>1970-01-01T00:12:25.000Z</time>
      </trkpt>
      <trkpt lat="42.410305" lon="0.805814">
        <ele>1181</ele>
        <time>1970-01-01T00:12:29.000Z</time>
      </trkpt>
      <trkpt lat="42.410291" lon="0.805813">
        <ele>1181.2</ele>
        <time>1970-01-01T00:12:30.000Z</time>
      </trkpt>
      <trkpt lat="42.410252" lon="0.80584">
        <ele>1181.6</ele>
        <time>1970-01-01T00:12:33.000Z</time>
      </trkpt>
      <trkpt lat="42.410212" lon="0.805899">
        <ele>1182.2</ele>
        <time>1970-01-01T00:12:37.000Z</time>
      </trkpt>
      <trkpt lat="42.410204" lon="0.805997">
        <ele>1183.2</ele>
        <time>1970-01-01T00:12:42.000Z</time>
      </trkpt>
      <trkpt lat="42.410207" lon="0.80609">
        <ele>1184.4</ele>
        <time>1970-01-01T00:12:47.000Z</time>
      </trkpt>
      <trkpt lat="42.410231" lon="0.806197">
        <ele>1185.6</ele>
        <time>1970-01-01T00:12:53.000Z</time>
      </trkpt>
      <trkpt lat="42.410254" lon="0.806303">
        <ele>1186.6</ele>
        <time>1970-01-01T00:12:59.000Z</time>
      </trkpt>
      <trkpt lat="42.410265" lon="0.806336">
        <ele>1187.2</ele>
        <time>1970-01-01T00:13:01.000Z</time>
      </trkpt>
      <trkpt lat="42.410297" lon="0.806377">
        <ele>1187.8</ele>
        <time>1970-01-01T00:13:04.000Z</time>
      </trkpt>
      <trkpt lat="42.410332" lon="0.806455">
        <ele>1188.8</ele>
        <time>1970-01-01T00:13:11.000Z</time>
      </trkpt>
      <trkpt lat="42.410374" lon="0.806496">
        <ele>1189.8</ele>
        <time>1970-01-01T00:13:17.000Z</time>
      </trkpt>
      <trkpt lat="42.410383" lon="0.806498">
        <ele>1189.8</ele>
        <time>1970-01-01T00:13:18.000Z</time>
      </trkpt>
      <trkpt lat="42.41044" lon="0.80657">
        <ele>1191</ele>
        <time>1970-01-01T00:13:27.000Z</time>
      </trkpt>
      <trkpt lat="42.410447" lon="0.806574">
        <ele>1191.2</ele>
        <time>1970-01-01T00:13:28.000Z</time>
      </trkpt>
      <trkpt lat="42.410472" lon="0.806585">
        <ele>1191.4</ele>
        <time>1970-01-01T00:13:31.000Z</time>
      </trkpt>
      <trkpt lat="42.410502" lon="0.806638">
        <ele>1192.2</ele>
        <time>1970-01-01T00:13:36.000Z</time>
      </trkpt>
      <trkpt lat="42.410535" lon="0.806664">
        <ele>1192.6</ele>
        <time>1970-01-01T00:13:40.000Z</time>
      </trkpt>
      <trkpt lat="42.410561" lon="0.806683">
        <ele>1193.2</ele>
        <time>1970-01-01T00:13:43.000Z</time>
      </trkpt>
      <trkpt lat="42.410609" lon="0.806731">
        <ele>1194.2</ele>
        <time>1970-01-01T00:13:49.000Z</time>
      </trkpt>
      <trkpt lat="42.410658" lon="0.8068">
        <ele>1195.4</ele>
        <time>1970-01-01T00:13:56.000Z</time>
      </trkpt>
      <trkpt lat="42.410681" lon="0.806826">
        <ele>1196.2</ele>
        <time>1970-01-01T00:13:59.000Z</time>
      </trkpt>
      <trkpt lat="42.410693" lon="0.806832">
        <ele>1196.4</ele>
        <time>1970-01-01T00:14:00.000Z</time>
      </trkpt>
      <trkpt lat="42.410743" lon="0.806881">
        <ele>1197.6</ele>
        <time>1970-01-01T00:14:06.000Z</time>
      </trkpt>
      <trkpt lat="42.410746" lon="0.806893">
        <ele>1197.6</ele>
        <time>1970-01-01T00:14:07.000Z</time>
      </trkpt>
      <trkpt lat="42.410747" lon="0.806902">
        <ele>1197.8</ele>
        <time>1970-01-01T00:14:09.000Z</time>
      </trkpt>
      <trkpt lat="42.410764" lon="0.807048">
        <ele>1201.2</ele>
        <time>1970-01-01T00:22:22.000Z</time>
      </trkpt>
      <trkpt lat="42.410761" lon="0.807163">
        <ele>1202.2</ele>
        <time>1970-01-01T00:22:28.000Z</time>
      </trkpt>
      <trkpt lat="42.410752" lon="0.807248">
        <ele>1203.2</ele>
        <time>1970-01-01T00:22:32.000Z</time>
      </trkpt>
      <trkpt lat="42.410741" lon="0.807347">
        <ele>1204.4</ele>
        <time>1970-01-01T00:22:37.000Z</time>
      </trkpt>
      <trkpt lat="42.41074" lon="0.807428">
        <ele>1205.4</ele>
        <time>1970-01-01T00:22:41.000Z</time>
      </trkpt>
      <trkpt lat="42.410744" lon="0.807507">
        <ele>1206.4</ele>
        <time>1970-01-01T00:22:45.000Z</time>
      </trkpt>
      <trkpt lat="42.41078" lon="0.807592">
        <ele>1207.6</ele>
        <time>1970-01-01T00:22:50.000Z</time>
      </trkpt>
      <trkpt lat="42.410831" lon="0.807666">
        <ele>1208.6</ele>
        <time>1970-01-01T00:22:55.000Z</time>
      </trkpt>
      <trkpt lat="42.410875" lon="0.807716">
        <ele>1209.8</ele>
        <time>1970-01-01T00:22:59.000Z</time>
      </trkpt>
      <trkpt lat="42.410939" lon="0.807765">
        <ele>1210.8</ele>
        <time>1970-01-01T00:23:04.000Z</time>
      </trkpt>
      <trkpt lat="42.410993" lon="0.807811">
        <ele>1212</ele>
        <time>1970-01-01T00:23:09.000Z</time>
      </trkpt>
      <trkpt lat="42.411053" lon="0.807846">
        <ele>1213.2</ele>
        <time>1970-01-01T00:23:14.000Z</time>
      </trkpt>
      <trkpt lat="42.411111" lon="0.807868">
        <ele>1214.4</ele>
        <time>1970-01-01T00:23:19.000Z</time>
      </trkpt>
      <trkpt lat="42.411177" lon="0.807894">
        <ele>1215.4</ele>
        <time>1970-01-01T00:23:25.000Z</time>
      </trkpt>
      <trkpt lat="42.411235" lon="0.807959">
        <ele>1216.6</ele>
        <time>1970-01-01T00:23:31.000Z</time>
      </trkpt>
      <trkpt lat="42.411303" lon="0.808013">
        <ele>1217.8</ele>
        <time>1970-01-01T00:23:37.000Z</time>
      </trkpt>
      <trkpt lat="42.411357" lon="0.808084">
        <ele>1218.8</ele>
        <time>1970-01-01T00:23:43.000Z</time>
      </trkpt>
      <trkpt lat="42.411409" lon="0.808165">
        <ele>1219.8</ele>
        <time>1970-01-01T00:23:49.000Z</time>
      </trkpt>
      <trkpt lat="42.411452" lon="0.808258">
        <ele>1221</ele>
        <time>1970-01-01T00:23:55.000Z</time>
      </trkpt>
      <trkpt lat="42.411478" lon="0.80834">
        <ele>1222</ele>
        <time>1970-01-01T00:24:00.000Z</time>
      </trkpt>
      <trkpt lat="42.411511" lon="0.808478">
        <ele>1223</ele>
        <time>1970-01-01T00:24:08.000Z</time>
      </trkpt>
      <trkpt lat="42.411559" lon="0.80862">
        <ele>1224.2</ele>
        <time>1970-01-01T00:24:16.000Z</time>
      </trkpt>
      <trkpt lat="42.411614" lon="0.808728">
        <ele>1225.4</ele>
        <time>1970-01-01T00:24:23.000Z</time>
      </trkpt>
      <trkpt lat="42.411738" lon="0.808859">
        <ele>1226.4</ele>
        <time>1970-01-01T00:24:32.000Z</time>
      </trkpt>
      <trkpt lat="42.412064" lon="0.80946">
        <ele>1227.2</ele>
        <time>1970-01-01T00:24:55.000Z</time>
      </trkpt>
      <trkpt lat="42.412106" lon="0.809564">
        <ele>1227.4</ele>
        <time>1970-01-01T00:24:58.000Z</time>
      </trkpt>
      <trkpt lat="42.41233" lon="0.810221">
        <ele>1227.8</ele>
        <time>1970-01-01T00:25:17.000Z</time>
      </trkpt>
      <trkpt lat="42.412366" lon="0.810675">
        <ele>1228.6</ele>
        <time>1970-01-01T00:25:28.000Z</time>
      </trkpt>
      <trkpt lat="42.412664" lon="0.811157">
        <ele>1229.8</ele>
        <time>1970-01-01T00:25:44.000Z</time>
      </trkpt>
      <trkpt lat="42.412794" lon="0.811226">
        <ele>1230.8</ele>
        <time>1970-01-01T00:25:50.000Z</time>
      </trkpt>
      <trkpt lat="42.412911" lon="0.811282">
        <ele>1231.8</ele>
        <time>1970-01-01T00:25:56.000Z</time>
      </trkpt>
      <trkpt lat="42.413071" lon="0.81119">
        <ele>1232.8</ele>
        <time>1970-01-01T00:26:04.000Z</time>
      </trkpt>
      <trkpt lat="42.413105" lon="0.811057">
        <ele>1232.4</ele>
        <time>1970-01-01T00:26:08.000Z</time>
      </trkpt>
      <trkpt lat="42.413345" lon="0.810573">
        <ele>1233</ele>
        <time>1970-01-01T00:26:24.000Z</time>
      </trkpt>
      <trkpt lat="42.413495" lon="0.810378">
        <ele>1234</ele>
        <time>1970-01-01T00:26:32.000Z</time>
      </trkpt>
      <trkpt lat="42.413645" lon="0.810267">
        <ele>1235</ele>
        <time>1970-01-01T00:26:40.000Z</time>
      </trkpt>
      <trkpt lat="42.413667" lon="0.810264">
        <ele>1235.2</ele>
        <time>1970-01-01T00:26:42.000Z</time>
      </trkpt>
      <trkpt lat="42.413722" lon="0.81028">
        <ele>1236</ele>
        <time>1970-01-01T00:26:46.000Z</time>
      </trkpt>
      <trkpt lat="42.413735" lon="0.810282">
        <ele>1236.2</ele>
        <time>1970-01-01T00:26:47.000Z</time>
      </trkpt>
      <trkpt lat="42.413845" lon="0.810276">
        <ele>1237.2</ele>
        <time>1970-01-01T00:26:56.000Z</time>
      </trkpt>
      <trkpt lat="42.414093" lon="0.810261">
        <ele>1238.4</ele>
        <time>1970-01-01T00:27:10.000Z</time>
      </trkpt>
      <trkpt lat="42.414191" lon="0.810266">
        <ele>1239.4</ele>
        <time>1970-01-01T00:27:16.000Z</time>
      </trkpt>
      <trkpt lat="42.414314" lon="0.810087">
        <ele>1240.2</ele>
        <time>1970-01-01T00:27:28.000Z</time>
      </trkpt>
      <trkpt lat="42.414297" lon="0.809866">
        <ele>1238.2</ele>
        <time>1970-01-01T00:27:37.000Z</time>
      </trkpt>
      <trkpt lat="42.414296" lon="0.809866">
        <ele>1237.8</ele>
        <time>1970-01-01T00:27:38.000Z</time>
      </trkpt>
      <trkpt lat="42.414324" lon="0.809939">
        <ele>1235.2</ele>
        <time>1970-01-01T01:07:41.000Z</time>
      </trkpt>
      <trkpt lat="42.414157" lon="0.810249">
        <ele>1244.6</ele>
        <time>1970-01-01T01:07:54.000Z</time>
      </trkpt>
      <trkpt lat="42.41381" lon="0.810266">
        <ele>1242.4</ele>
        <time>1970-01-01T01:08:00.000Z</time>
      </trkpt>
      <trkpt lat="42.413719" lon="0.810277">
        <ele>1241.8</ele>
        <time>1970-01-01T01:08:02.000Z</time>
      </trkpt>
      <trkpt lat="42.413623" lon="0.810299">
        <ele>1241.2</ele>
        <time>1970-01-01T01:08:04.000Z</time>
      </trkpt>
      <trkpt lat="42.413453" lon="0.810427">
        <ele>1239.8</ele>
        <time>1970-01-01T01:08:07.000Z</time>
      </trkpt>
      <trkpt lat="42.413306" lon="0.810637">
        <ele>1238.8</ele>
        <time>1970-01-01T01:08:10.000Z</time>
      </trkpt>
      <trkpt lat="42.413218" lon="0.810809">
        <ele>1238</ele>
        <time>1970-01-01T01:08:12.000Z</time>
      </trkpt>
      <trkpt lat="42.413179" lon="0.810896">
        <ele>1237.6</ele>
        <time>1970-01-01T01:08:13.000Z</time>
      </trkpt>
      <trkpt lat="42.413119" lon="0.811032">
        <ele>1237</ele>
        <time>1970-01-01T01:08:15.000Z</time>
      </trkpt>
      <trkpt lat="42.413093" lon="0.811251">
        <ele>1237</ele>
        <time>1970-01-01T01:08:21.000Z</time>
      </trkpt>
      <trkpt lat="42.413116" lon="0.811375">
        <ele>1238.6</ele>
        <time>1970-01-01T01:08:27.000Z</time>
      </trkpt>
      <trkpt lat="42.413134" lon="0.811463">
        <ele>1239.8</ele>
        <time>1970-01-01T01:08:34.000Z</time>
      </trkpt>
      <trkpt lat="42.413144" lon="0.811542">
        <ele>1241</ele>
        <time>1970-01-01T01:08:39.000Z</time>
      </trkpt>
      <trkpt lat="42.413128" lon="0.811636">
        <ele>1242</ele>
        <time>1970-01-01T01:08:45.000Z</time>
      </trkpt>
      <trkpt lat="42.413065" lon="0.811704">
        <ele>1243.2</ele>
        <time>1970-01-01T01:08:51.000Z</time>
      </trkpt>
      <trkpt lat="42.412969" lon="0.811731">
        <ele>1244.4</ele>
        <time>1970-01-01T01:08:57.000Z</time>
      </trkpt>
      <trkpt lat="42.412838" lon="0.811735">
        <ele>1245.4</ele>
        <time>1970-01-01T01:09:06.000Z</time>
      </trkpt>
      <trkpt lat="42.412793" lon="0.811737">
        <ele>1246</ele>
        <time>1970-01-01T01:09:09.000Z</time>
      </trkpt>
      <trkpt lat="42.412718" lon="0.811753">
        <ele>1246.4</ele>
        <time>1970-01-01T01:09:14.000Z</time>
      </trkpt>
      <trkpt lat="42.412659" lon="0.811757">
        <ele>1247.2</ele>
        <time>1970-01-01T01:09:18.000Z</time>
      </trkpt>
      <trkpt lat="42.412615" lon="0.811755">
        <ele>1247.6</ele>
        <time>1970-01-01T01:09:21.000Z</time>
      </trkpt>
      <trkpt lat="42.412459" lon="0.811751">
        <ele>1248.8</ele>
        <time>1970-01-01T01:09:31.000Z</time>
      </trkpt>
      <trkpt lat="42.412324" lon="0.811726">
        <ele>1249.8</ele>
        <time>1970-01-01T01:09:40.000Z</time>
      </trkpt>
      <trkpt lat="42.412221" lon="0.811708">
        <ele>1251</ele>
        <time>1970-01-01T01:09:47.000Z</time>
      </trkpt>
      <trkpt lat="42.412133" lon="0.811691">
        <ele>1252</ele>
        <time>1970-01-01T01:09:54.000Z</time>
      </trkpt>
      <trkpt lat="42.41203" lon="0.811641">
        <ele>1253.2</ele>
        <time>1970-01-01T01:10:02.000Z</time>
      </trkpt>
      <trkpt lat="42.412006" lon="0.81162">
        <ele>1253.4</ele>
        <time>1970-01-01T01:10:04.000Z</time>
      </trkpt>
      <trkpt lat="42.411938" lon="0.811529">
        <ele>1254.2</ele>
        <time>1970-01-01T01:10:11.000Z</time>
      </trkpt>
      <trkpt lat="42.411908" lon="0.811468">
        <ele>1255.2</ele>
        <time>1970-01-01T01:10:15.000Z</time>
      </trkpt>
      <trkpt lat="42.411882" lon="0.811368">
        <ele>1256.4</ele>
        <time>1970-01-01T01:10:21.000Z</time>
      </trkpt>
      <trkpt lat="42.411855" lon="0.811263">
        <ele>1257.4</ele>
        <time>1970-01-01T01:10:27.000Z</time>
      </trkpt>
      <trkpt lat="42.411787" lon="0.81116">
        <ele>1258.4</ele>
        <time>1970-01-01T01:10:34.000Z</time>
      </trkpt>
      <trkpt lat="42.411645" lon="0.811117">
        <ele>1259.6</ele>
        <time>1970-01-01T01:10:44.000Z</time>
      </trkpt>
      <trkpt lat="42.411514" lon="0.811125">
        <ele>1260.6</ele>
        <time>1970-01-01T01:10:53.000Z</time>
      </trkpt>
      <trkpt lat="42.411365" lon="0.811188">
        <ele>1261.6</ele>
        <time>1970-01-01T01:11:03.000Z</time>
      </trkpt>
      <trkpt lat="42.411334" lon="0.811205">
        <ele>1262</ele>
        <time>1970-01-01T01:11:05.000Z</time>
      </trkpt>
      <trkpt lat="42.411215" lon="0.811294">
        <ele>1262.6</ele>
        <time>1970-01-01T01:11:12.000Z</time>
      </trkpt>
      <trkpt lat="42.411108" lon="0.811616">
        <ele>1263.8</ele>
        <time>1970-01-01T01:11:25.000Z</time>
      </trkpt>
      <trkpt lat="42.411098" lon="0.812139">
        <ele>1264.8</ele>
        <time>1970-01-01T01:11:43.000Z</time>
      </trkpt>
      <trkpt lat="42.411058" lon="0.812355">
        <ele>1265.8</ele>
        <time>1970-01-01T01:11:52.000Z</time>
      </trkpt>
      <trkpt lat="42.411069" lon="0.812625">
        <ele>1266.8</ele>
        <time>1970-01-01T01:12:03.000Z</time>
      </trkpt>
      <trkpt lat="42.411064" lon="0.812873">
        <ele>1267.8</ele>
        <time>1970-01-01T01:12:13.000Z</time>
      </trkpt>
      <trkpt lat="42.411045" lon="0.812882">
        <ele>1267.8</ele>
        <time>1970-01-01T01:12:14.000Z</time>
      </trkpt>
      <trkpt lat="42.410902" lon="0.812817">
        <ele>1269</ele>
        <time>1970-01-01T01:12:23.000Z</time>
      </trkpt>
      <trkpt lat="42.410789" lon="0.81264">
        <ele>1270</ele>
        <time>1970-01-01T01:12:32.000Z</time>
      </trkpt>
      <trkpt lat="42.41058" lon="0.812337">
        <ele>1271.4</ele>
        <time>1970-01-01T01:12:47.000Z</time>
      </trkpt>
      <trkpt lat="42.410504" lon="0.812346">
        <ele>1271.6</ele>
        <time>1970-01-01T01:12:51.000Z</time>
      </trkpt>
      <trkpt lat="42.410452" lon="0.812411">
        <ele>1272.6</ele>
        <time>1970-01-01T01:12:55.000Z</time>
      </trkpt>
      <trkpt lat="42.41049" lon="0.81259">
        <ele>1273.8</ele>
        <time>1970-01-01T01:13:03.000Z</time>
      </trkpt>
      <trkpt lat="42.410608" lon="0.812697">
        <ele>1274.8</ele>
        <time>1970-01-01T01:13:11.000Z</time>
      </trkpt>
      <trkpt lat="42.410705" lon="0.812786">
        <ele>1276</ele>
        <time>1970-01-01T01:13:18.000Z</time>
      </trkpt>
      <trkpt lat="42.410715" lon="0.812926">
        <ele>1277</ele>
        <time>1970-01-01T01:13:25.000Z</time>
      </trkpt>
      <trkpt lat="42.410647" lon="0.812981">
        <ele>1278</ele>
        <time>1970-01-01T01:13:30.000Z</time>
      </trkpt>
      <trkpt lat="42.410547" lon="0.81297">
        <ele>1279</ele>
        <time>1970-01-01T01:13:36.000Z</time>
      </trkpt>
      <trkpt lat="42.4104" lon="0.812898">
        <ele>1280.4</ele>
        <time>1970-01-01T01:13:45.000Z</time>
      </trkpt>
      <trkpt lat="42.410309" lon="0.812793">
        <ele>1281.4</ele>
        <time>1970-01-01T01:13:52.000Z</time>
      </trkpt>
      <trkpt lat="42.410126" lon="0.812637">
        <ele>1282.4</ele>
        <time>1970-01-01T01:14:04.000Z</time>
      </trkpt>
      <trkpt lat="42.409921" lon="0.812511">
        <ele>1283</ele>
        <time>1970-01-01T01:14:15.000Z</time>
      </trkpt>
      <trkpt lat="42.409788" lon="0.812398">
        <ele>1283.6</ele>
        <time>1970-01-01T01:14:23.000Z</time>
      </trkpt>
      <trkpt lat="42.409656" lon="0.812286">
        <ele>1284.6</ele>
        <time>1970-01-01T01:14:32.000Z</time>
      </trkpt>
      <trkpt lat="42.409568" lon="0.812235">
        <ele>1285.8</ele>
        <time>1970-01-01T01:14:38.000Z</time>
      </trkpt>
      <trkpt lat="42.409461" lon="0.812198">
        <ele>1286.8</ele>
        <time>1970-01-01T01:14:46.000Z</time>
      </trkpt>
      <trkpt lat="42.409389" lon="0.812202">
        <ele>1287.8</ele>
        <time>1970-01-01T01:14:51.000Z</time>
      </trkpt>
      <trkpt lat="42.409341" lon="0.812292">
        <ele>1288.8</ele>
        <time>1970-01-01T01:14:56.000Z</time>
      </trkpt>
      <trkpt lat="42.409363" lon="0.812397">
        <ele>1289.8</ele>
        <time>1970-01-01T01:15:01.000Z</time>
      </trkpt>
      <trkpt lat="42.409419" lon="0.812483">
        <ele>1291</ele>
        <time>1970-01-01T01:15:06.000Z</time>
      </trkpt>
      <trkpt lat="42.40946" lon="0.812549">
        <ele>1292.4</ele>
        <time>1970-01-01T01:15:10.000Z</time>
      </trkpt>
      <trkpt lat="42.409454" lon="0.812633">
        <ele>1293</ele>
        <time>1970-01-01T01:15:14.000Z</time>
      </trkpt>
      <trkpt lat="42.409431" lon="0.812662">
        <ele>1293.4</ele>
        <time>1970-01-01T01:15:16.000Z</time>
      </trkpt>
      <trkpt lat="42.409299" lon="0.812658">
        <ele>1294.6</ele>
        <time>1970-01-01T01:15:25.000Z</time>
      </trkpt>
      <trkpt lat="42.409264" lon="0.81261">
        <ele>1295.4</ele>
        <time>1970-01-01T01:15:28.000Z</time>
      </trkpt>
      <trkpt lat="42.409222" lon="0.812544">
        <ele>1295.8</ele>
        <time>1970-01-01T01:15:32.000Z</time>
      </trkpt>
      <trkpt lat="42.409171" lon="0.812507">
        <ele>1296.6</ele>
        <time>1970-01-01T01:15:36.000Z</time>
      </trkpt>
      <trkpt lat="42.409156" lon="0.812506">
        <ele>1296.8</ele>
        <time>1970-01-01T01:15:37.000Z</time>
      </trkpt>
      <trkpt lat="42.409073" lon="0.812549">
        <ele>1297.8</ele>
        <time>1970-01-01T01:15:43.000Z</time>
      </trkpt>
      <trkpt lat="42.409061" lon="0.812589">
        <ele>1298</ele>
        <time>1970-01-01T01:15:45.000Z</time>
      </trkpt>
      <trkpt lat="42.409176" lon="0.812737">
        <ele>1299</ele>
        <time>1970-01-01T01:15:54.000Z</time>
      </trkpt>
      <trkpt lat="42.409326" lon="0.812848">
        <ele>1300</ele>
        <time>1970-01-01T01:16:04.000Z</time>
      </trkpt>
      <trkpt lat="42.409457" lon="0.812977">
        <ele>1301</ele>
        <time>1970-01-01T01:16:14.000Z</time>
      </trkpt>
      <trkpt lat="42.409584" lon="0.81311">
        <ele>1302</ele>
        <time>1970-01-01T01:16:24.000Z</time>
      </trkpt>
      <trkpt lat="42.409765" lon="0.813277">
        <ele>1303.2</ele>
        <time>1970-01-01T01:16:37.000Z</time>
      </trkpt>
      <trkpt lat="42.409933" lon="0.813362">
        <ele>1304.2</ele>
        <time>1970-01-01T01:16:48.000Z</time>
      </trkpt>
      <trkpt lat="42.409993" lon="0.813399">
        <ele>1305</ele>
        <time>1970-01-01T01:16:52.000Z</time>
      </trkpt>
      <trkpt lat="42.410038" lon="0.813427">
        <ele>1305.4</ele>
        <time>1970-01-01T01:16:55.000Z</time>
      </trkpt>
      <trkpt lat="42.410169" lon="0.813521">
        <ele>1306.6</ele>
        <time>1970-01-01T01:17:04.000Z</time>
      </trkpt>
      <trkpt lat="42.410249" lon="0.813596">
        <ele>1307.6</ele>
        <time>1970-01-01T01:17:10.000Z</time>
      </trkpt>
      <trkpt lat="42.410352" lon="0.813741">
        <ele>1308.8</ele>
        <time>1970-01-01T01:17:19.000Z</time>
      </trkpt>
      <trkpt lat="42.410403" lon="0.813869">
        <ele>1310</ele>
        <time>1970-01-01T01:17:26.000Z</time>
      </trkpt>
      <trkpt lat="42.410449" lon="0.814024">
        <ele>1311.2</ele>
        <time>1970-01-01T01:17:34.000Z</time>
      </trkpt>
      <trkpt lat="42.41048" lon="0.814138">
        <ele>1312.2</ele>
        <time>1970-01-01T01:17:40.000Z</time>
      </trkpt>
      <trkpt lat="42.410525" lon="0.814283">
        <ele>1313.4</ele>
        <time>1970-01-01T01:17:48.000Z</time>
      </trkpt>
      <trkpt lat="42.410548" lon="0.814405">
        <ele>1314.4</ele>
        <time>1970-01-01T01:17:54.000Z</time>
      </trkpt>
      <trkpt lat="42.410604" lon="0.814543">
        <ele>1315.6</ele>
        <time>1970-01-01T01:18:01.000Z</time>
      </trkpt>
      <trkpt lat="42.410694" lon="0.814686">
        <ele>1316.8</ele>
        <time>1970-01-01T01:18:11.000Z</time>
      </trkpt>
      <trkpt lat="42.410742" lon="0.814834">
        <ele>1317.8</ele>
        <time>1970-01-01T01:18:19.000Z</time>
      </trkpt>
      <trkpt lat="42.410748" lon="0.815025">
        <ele>1319</ele>
        <time>1970-01-01T01:18:28.000Z</time>
      </trkpt>
      <trkpt lat="42.410727" lon="0.815141">
        <ele>1320.4</ele>
        <time>1970-01-01T01:18:34.000Z</time>
      </trkpt>
      <trkpt lat="42.410676" lon="0.815271">
        <ele>1321.4</ele>
        <time>1970-01-01T01:18:41.000Z</time>
      </trkpt>
      <trkpt lat="42.410594" lon="0.81542">
        <ele>1322.4</ele>
        <time>1970-01-01T01:18:51.000Z</time>
      </trkpt>
      <trkpt lat="42.410517" lon="0.815631">
        <ele>1323.6</ele>
        <time>1970-01-01T01:19:03.000Z</time>
      </trkpt>
      <trkpt lat="42.410502" lon="0.81582">
        <ele>1324.8</ele>
        <time>1970-01-01T01:19:12.000Z</time>
      </trkpt>
      <trkpt lat="42.410485" lon="0.815965">
        <ele>1325.8</ele>
        <time>1970-01-01T01:19:19.000Z</time>
      </trkpt>
      <trkpt lat="42.410434" lon="0.816097">
        <ele>1326.8</ele>
        <time>1970-01-01T01:19:27.000Z</time>
      </trkpt>
      <trkpt lat="42.410401" lon="0.816195">
        <ele>1327.8</ele>
        <time>1970-01-01T01:19:33.000Z</time>
      </trkpt>
      <trkpt lat="42.410364" lon="0.816296">
        <ele>1329</ele>
        <time>1970-01-01T01:19:39.000Z</time>
      </trkpt>
      <trkpt lat="42.410312" lon="0.816408">
        <ele>1330</ele>
        <time>1970-01-01T01:19:46.000Z</time>
      </trkpt>
      <trkpt lat="42.410275" lon="0.816462">
        <ele>1331</ele>
        <time>1970-01-01T01:19:50.000Z</time>
      </trkpt>
      <trkpt lat="42.41019" lon="0.816478">
        <ele>1332.2</ele>
        <time>1970-01-01T01:19:56.000Z</time>
      </trkpt>
      <trkpt lat="42.410114" lon="0.816411">
        <ele>1333.2</ele>
        <time>1970-01-01T01:20:02.000Z</time>
      </trkpt>
      <trkpt lat="42.410108" lon="0.816394">
        <ele>1333.4</ele>
        <time>1970-01-01T01:20:03.000Z</time>
      </trkpt>
      <trkpt lat="42.41009" lon="0.816292">
        <ele>1334.4</ele>
        <time>1970-01-01T01:20:08.000Z</time>
      </trkpt>
      <trkpt lat="42.410086" lon="0.816156">
        <ele>1335.6</ele>
        <time>1970-01-01T01:20:15.000Z</time>
      </trkpt>
      <trkpt lat="42.410079" lon="0.816022">
        <ele>1336.4</ele>
        <time>1970-01-01T01:20:22.000Z</time>
      </trkpt>
      <trkpt lat="42.410095" lon="0.815867">
        <ele>1337.6</ele>
        <time>1970-01-01T01:20:31.000Z</time>
      </trkpt>
      <trkpt lat="42.410088" lon="0.815727">
        <ele>1338.6</ele>
        <time>1970-01-01T01:20:38.000Z</time>
      </trkpt>
      <trkpt lat="42.410077" lon="0.815581">
        <ele>1339.6</ele>
        <time>1970-01-01T01:20:45.000Z</time>
      </trkpt>
      <trkpt lat="42.410054" lon="0.815442">
        <ele>1340.6</ele>
        <time>1970-01-01T01:20:52.000Z</time>
      </trkpt>
      <trkpt lat="42.410016" lon="0.815271">
        <ele>1341.8</ele>
        <time>1970-01-01T01:21:01.000Z</time>
      </trkpt>
      <trkpt lat="42.409971" lon="0.815082">
        <ele>1342.8</ele>
        <time>1970-01-01T01:21:11.000Z</time>
      </trkpt>
      <trkpt lat="42.409925" lon="0.814925">
        <ele>1344</ele>
        <time>1970-01-01T01:21:19.000Z</time>
      </trkpt>
      <trkpt lat="42.409882" lon="0.814794">
        <ele>1345</ele>
        <time>1970-01-01T01:21:26.000Z</time>
      </trkpt>
      <trkpt lat="42.409817" lon="0.814674">
        <ele>1346</ele>
        <time>1970-01-01T01:21:33.000Z</time>
      </trkpt>
      <trkpt lat="42.409707" lon="0.814589">
        <ele>1347</ele>
        <time>1970-01-01T01:21:42.000Z</time>
      </trkpt>
      <trkpt lat="42.40959" lon="0.814567">
        <ele>1348</ele>
        <time>1970-01-01T01:21:50.000Z</time>
      </trkpt>
      <trkpt lat="42.409506" lon="0.814565">
        <ele>1349.2</ele>
        <time>1970-01-01T01:21:56.000Z</time>
      </trkpt>
      <trkpt lat="42.409404" lon="0.814566">
        <ele>1350.2</ele>
        <time>1970-01-01T01:22:03.000Z</time>
      </trkpt>
      <trkpt lat="42.409335" lon="0.814584">
        <ele>1351.4</ele>
        <time>1970-01-01T01:22:08.000Z</time>
      </trkpt>
      <trkpt lat="42.409267" lon="0.814649">
        <ele>1352.4</ele>
        <time>1970-01-01T01:22:14.000Z</time>
      </trkpt>
      <trkpt lat="42.409242" lon="0.814741">
        <ele>1353.4</ele>
        <time>1970-01-01T01:22:19.000Z</time>
      </trkpt>
      <trkpt lat="42.409298" lon="0.814885">
        <ele>1354.4</ele>
        <time>1970-01-01T01:22:27.000Z</time>
      </trkpt>
      <trkpt lat="42.40942" lon="0.814948">
        <ele>1355.6</ele>
        <time>1970-01-01T01:22:35.000Z</time>
      </trkpt>
      <trkpt lat="42.409537" lon="0.815006">
        <ele>1356.6</ele>
        <time>1970-01-01T01:22:43.000Z</time>
      </trkpt>
      <trkpt lat="42.409582" lon="0.815054">
        <ele>1357</ele>
        <time>1970-01-01T01:22:47.000Z</time>
      </trkpt>
      <trkpt lat="42.409623" lon="0.815161">
        <ele>1357.8</ele>
        <time>1970-01-01T01:22:53.000Z</time>
      </trkpt>
      <trkpt lat="42.409621" lon="0.815316">
        <ele>1358.8</ele>
        <time>1970-01-01T01:23:01.000Z</time>
      </trkpt>
      <trkpt lat="42.409567" lon="0.815487">
        <ele>1360</ele>
        <time>1970-01-01T01:23:10.000Z</time>
      </trkpt>
      <trkpt lat="42.409526" lon="0.815576">
        <ele>1361</ele>
        <time>1970-01-01T01:23:15.000Z</time>
      </trkpt>
      <trkpt lat="42.409468" lon="0.815692">
        <ele>1362.2</ele>
        <time>1970-01-01T01:23:22.000Z</time>
      </trkpt>
      <trkpt lat="42.409418" lon="0.815804">
        <ele>1363.2</ele>
        <time>1970-01-01T01:23:29.000Z</time>
      </trkpt>
      <trkpt lat="42.409376" lon="0.815922">
        <ele>1364.2</ele>
        <time>1970-01-01T01:23:36.000Z</time>
      </trkpt>
      <trkpt lat="42.40934" lon="0.816005">
        <ele>1365.2</ele>
        <time>1970-01-01T01:23:41.000Z</time>
      </trkpt>
      <trkpt lat="42.409335" lon="0.816024">
        <ele>1365.2</ele>
        <time>1970-01-01T01:23:42.000Z</time>
      </trkpt>
      <trkpt lat="42.409312" lon="0.816173">
        <ele>1366.4</ele>
        <time>1970-01-01T01:23:49.000Z</time>
      </trkpt>
      <trkpt lat="42.409329" lon="0.816344">
        <ele>1367.4</ele>
        <time>1970-01-01T01:23:57.000Z</time>
      </trkpt>
      <trkpt lat="42.409365" lon="0.816457">
        <ele>1368.4</ele>
        <time>1970-01-01T01:24:03.000Z</time>
      </trkpt>
      <trkpt lat="42.409393" lon="0.816631">
        <ele>1369.6</ele>
        <time>1970-01-01T01:24:12.000Z</time>
      </trkpt>
      <trkpt lat="42.40939" lon="0.816808">
        <ele>1370.6</ele>
        <time>1970-01-01T01:24:21.000Z</time>
      </trkpt>
      <trkpt lat="42.409374" lon="0.816993">
        <ele>1372</ele>
        <time>1970-01-01T01:24:30.000Z</time>
      </trkpt>
      <trkpt lat="42.409348" lon="0.817163">
        <ele>1373</ele>
        <time>1970-01-01T01:24:38.000Z</time>
      </trkpt>
      <trkpt lat="42.409313" lon="0.817298">
        <ele>1374</ele>
        <time>1970-01-01T01:24:45.000Z</time>
      </trkpt>
      <trkpt lat="42.409271" lon="0.817445">
        <ele>1375</ele>
        <time>1970-01-01T01:24:53.000Z</time>
      </trkpt>
      <trkpt lat="42.409235" lon="0.817589">
        <ele>1376.2</ele>
        <time>1970-01-01T01:25:00.000Z</time>
      </trkpt>
      <trkpt lat="42.409184" lon="0.817799">
        <ele>1377.2</ele>
        <time>1970-01-01T01:25:10.000Z</time>
      </trkpt>
      <trkpt lat="42.409157" lon="0.817947">
        <ele>1378.2</ele>
        <time>1970-01-01T01:25:17.000Z</time>
      </trkpt>
      <trkpt lat="42.409148" lon="0.818127">
        <ele>1379.4</ele>
        <time>1970-01-01T01:25:25.000Z</time>
      </trkpt>
      <trkpt lat="42.40917" lon="0.818337">
        <ele>1380.4</ele>
        <time>1970-01-01T01:25:34.000Z</time>
      </trkpt>
      <trkpt lat="42.409257" lon="0.81853">
        <ele>1381.6</ele>
        <time>1970-01-01T01:25:44.000Z</time>
      </trkpt>
      <trkpt lat="42.409463" lon="0.818627">
        <ele>1382.6</ele>
        <time>1970-01-01T01:25:55.000Z</time>
      </trkpt>
      <trkpt lat="42.409974" lon="0.81842">
        <ele>1383.6</ele>
        <time>1970-01-01T01:26:17.000Z</time>
      </trkpt>
      <trkpt lat="42.410449" lon="0.818646">
        <ele>1384.6</ele>
        <time>1970-01-01T01:26:38.000Z</time>
      </trkpt>
      <trkpt lat="42.410476" lon="0.818686">
        <ele>1384.8</ele>
        <time>1970-01-01T01:26:40.000Z</time>
      </trkpt>
      <trkpt lat="42.410553" lon="0.818798">
        <ele>1386</ele>
        <time>1970-01-01T01:26:46.000Z</time>
      </trkpt>
      <trkpt lat="42.410601" lon="0.818866">
        <ele>1387</ele>
        <time>1970-01-01T01:26:50.000Z</time>
      </trkpt>
      <trkpt lat="42.410699" lon="0.818988">
        <ele>1388.2</ele>
        <time>1970-01-01T01:26:58.000Z</time>
      </trkpt>
      <trkpt lat="42.410773" lon="0.819071">
        <ele>1389.2</ele>
        <time>1970-01-01T01:27:04.000Z</time>
      </trkpt>
      <trkpt lat="42.410871" lon="0.819182">
        <ele>1390.4</ele>
        <time>1970-01-01T01:27:12.000Z</time>
      </trkpt>
      <trkpt lat="42.410955" lon="0.81929">
        <ele>1391.6</ele>
        <time>1970-01-01T01:27:19.000Z</time>
      </trkpt>
      <trkpt lat="42.411026" lon="0.819406">
        <ele>1392.6</ele>
        <time>1970-01-01T01:27:26.000Z</time>
      </trkpt>
      <trkpt lat="42.411067" lon="0.819524">
        <ele>1393.6</ele>
        <time>1970-01-01T01:27:32.000Z</time>
      </trkpt>
      <trkpt lat="42.411091" lon="0.819641">
        <ele>1394.8</ele>
        <time>1970-01-01T01:27:37.000Z</time>
      </trkpt>
      <trkpt lat="42.411098" lon="0.819755">
        <ele>1396</ele>
        <time>1970-01-01T01:27:42.000Z</time>
      </trkpt>
      <trkpt lat="42.411104" lon="0.819864">
        <ele>1397.2</ele>
        <time>1970-01-01T01:27:47.000Z</time>
      </trkpt>
      <trkpt lat="42.41111" lon="0.819975">
        <ele>1398.2</ele>
        <time>1970-01-01T01:27:52.000Z</time>
      </trkpt>
      <trkpt lat="42.411134" lon="0.820099">
        <ele>1399.2</ele>
        <time>1970-01-01T01:27:58.000Z</time>
      </trkpt>
      <trkpt lat="42.411171" lon="0.820242">
        <ele>1400.4</ele>
        <time>1970-01-01T01:28:05.000Z</time>
      </trkpt>
      <trkpt lat="42.411176" lon="0.820261">
        <ele>1400.8</ele>
        <time>1970-01-01T01:28:06.000Z</time>
      </trkpt>
      <trkpt lat="42.411207" lon="0.820374">
        <ele>1401.4</ele>
        <time>1970-01-01T01:28:12.000Z</time>
      </trkpt>
      <trkpt lat="42.411247" lon="0.820511">
        <ele>1402.4</ele>
        <time>1970-01-01T01:28:20.000Z</time>
      </trkpt>
      <trkpt lat="42.411275" lon="0.82061">
        <ele>1403.6</ele>
        <time>1970-01-01T01:28:26.000Z</time>
      </trkpt>
      <trkpt lat="42.411313" lon="0.820741">
        <ele>1404.6</ele>
        <time>1970-01-01T01:28:34.000Z</time>
      </trkpt>
      <trkpt lat="42.411343" lon="0.820841">
        <ele>1405.8</ele>
        <time>1970-01-01T01:28:40.000Z</time>
      </trkpt>
      <trkpt lat="42.411375" lon="0.82094">
        <ele>1406.8</ele>
        <time>1970-01-01T01:28:46.000Z</time>
      </trkpt>
      <trkpt lat="42.41141" lon="0.821038">
        <ele>1408</ele>
        <time>1970-01-01T01:28:52.000Z</time>
      </trkpt>
      <trkpt lat="42.411443" lon="0.821099">
        <ele>1409.2</ele>
        <time>1970-01-01T01:28:56.000Z</time>
      </trkpt>
      <trkpt lat="42.41153" lon="0.8211">
        <ele>1409.8</ele>
        <time>1970-01-01T01:29:02.000Z</time>
      </trkpt>
      <trkpt lat="42.41155" lon="0.82107">
        <ele>1410.2</ele>
        <time>1970-01-01T01:29:04.000Z</time>
      </trkpt>
      <trkpt lat="42.411566" lon="0.820867">
        <ele>1411.2</ele>
        <time>1970-01-01T01:29:14.000Z</time>
      </trkpt>
      <trkpt lat="42.411534" lon="0.820741">
        <ele>1412.6</ele>
        <time>1970-01-01T01:29:21.000Z</time>
      </trkpt>
      <trkpt lat="42.411518" lon="0.82063">
        <ele>1413.6</ele>
        <time>1970-01-01T01:29:27.000Z</time>
      </trkpt>
      <trkpt lat="42.411511" lon="0.820463">
        <ele>1414.8</ele>
        <time>1970-01-01T01:29:36.000Z</time>
      </trkpt>
      <trkpt lat="42.411521" lon="0.820347">
        <ele>1415.8</ele>
        <time>1970-01-01T01:29:42.000Z</time>
      </trkpt>
      <trkpt lat="42.41152" lon="0.820208">
        <ele>1416.8</ele>
        <time>1970-01-01T01:29:49.000Z</time>
      </trkpt>
      <trkpt lat="42.41156" lon="0.820037">
        <ele>1417.6</ele>
        <time>1970-01-01T01:29:58.000Z</time>
      </trkpt>
      <trkpt lat="42.411599" lon="0.819895">
        <ele>1418.8</ele>
        <time>1970-01-01T01:30:06.000Z</time>
      </trkpt>
      <trkpt lat="42.411644" lon="0.819734">
        <ele>1419.8</ele>
        <time>1970-01-01T01:30:15.000Z</time>
      </trkpt>
      <trkpt lat="42.411678" lon="0.819602">
        <ele>1420.8</ele>
        <time>1970-01-01T01:30:22.000Z</time>
      </trkpt>
      <trkpt lat="42.411705" lon="0.819471">
        <ele>1421.8</ele>
        <time>1970-01-01T01:30:29.000Z</time>
      </trkpt>
      <trkpt lat="42.411747" lon="0.819345">
        <ele>1422.8</ele>
        <time>1970-01-01T01:30:36.000Z</time>
      </trkpt>
      <trkpt lat="42.411837" lon="0.819349">
        <ele>1424</ele>
        <time>1970-01-01T01:30:42.000Z</time>
      </trkpt>
      <trkpt lat="42.411879" lon="0.819504">
        <ele>1425</ele>
        <time>1970-01-01T01:30:49.000Z</time>
      </trkpt>
      <trkpt lat="42.411881" lon="0.819661">
        <ele>1426.4</ele>
        <time>1970-01-01T01:30:56.000Z</time>
      </trkpt>
      <trkpt lat="42.411892" lon="0.819786">
        <ele>1427.6</ele>
        <time>1970-01-01T01:31:02.000Z</time>
      </trkpt>
      <trkpt lat="42.411941" lon="0.81991">
        <ele>1428.6</ele>
        <time>1970-01-01T01:31:09.000Z</time>
      </trkpt>
      <trkpt lat="42.411984" lon="0.81999">
        <ele>1429.8</ele>
        <time>1970-01-01T01:31:14.000Z</time>
      </trkpt>
      <trkpt lat="42.41207" lon="0.820087">
        <ele>1431</ele>
        <time>1970-01-01T01:31:22.000Z</time>
      </trkpt>
      <trkpt lat="42.41215" lon="0.820124">
        <ele>1431.8</ele>
        <time>1970-01-01T01:31:28.000Z</time>
      </trkpt>
      <trkpt lat="42.412248" lon="0.820156">
        <ele>1432.8</ele>
        <time>1970-01-01T01:31:35.000Z</time>
      </trkpt>
      <trkpt lat="42.412349" lon="0.820151">
        <ele>1433.8</ele>
        <time>1970-01-01T01:31:42.000Z</time>
      </trkpt>
      <trkpt lat="42.412447" lon="0.820122">
        <ele>1434.8</ele>
        <time>1970-01-01T01:31:49.000Z</time>
      </trkpt>
      <trkpt lat="42.41246" lon="0.820114">
        <ele>1435</ele>
        <time>1970-01-01T01:31:50.000Z</time>
      </trkpt>
      <trkpt lat="42.412547" lon="0.820083">
        <ele>1436.2</ele>
        <time>1970-01-01T01:31:56.000Z</time>
      </trkpt>
      <trkpt lat="42.41268" lon="0.820071">
        <ele>1437.2</ele>
        <time>1970-01-01T01:32:05.000Z</time>
      </trkpt>
      <trkpt lat="42.412836" lon="0.820089">
        <ele>1438.2</ele>
        <time>1970-01-01T01:32:15.000Z</time>
      </trkpt>
      <trkpt lat="42.412991" lon="0.820101">
        <ele>1439.4</ele>
        <time>1970-01-01T01:32:25.000Z</time>
      </trkpt>
      <trkpt lat="42.413153" lon="0.820103">
        <ele>1440.2</ele>
        <time>1970-01-01T01:32:35.000Z</time>
      </trkpt>
      <trkpt lat="42.413307" lon="0.820045">
        <ele>1441.2</ele>
        <time>1970-01-01T01:32:45.000Z</time>
      </trkpt>
      <trkpt lat="42.413346" lon="0.820023">
        <ele>1442.2</ele>
        <time>1970-01-01T01:32:48.000Z</time>
      </trkpt>
      <trkpt lat="42.413445" lon="0.819953">
        <ele>1443.4</ele>
        <time>1970-01-01T01:32:56.000Z</time>
      </trkpt>
      <trkpt lat="42.413563" lon="0.819883">
        <ele>1444.4</ele>
        <time>1970-01-01T01:33:05.000Z</time>
      </trkpt>
      <trkpt lat="42.413643" lon="0.819842">
        <ele>1445.6</ele>
        <time>1970-01-01T01:33:11.000Z</time>
      </trkpt>
      <trkpt lat="42.41367" lon="0.819832">
        <ele>1446</ele>
        <time>1970-01-01T01:33:13.000Z</time>
      </trkpt>
      <trkpt lat="42.413726" lon="0.819809">
        <ele>1446.6</ele>
        <time>1970-01-01T01:33:17.000Z</time>
      </trkpt>
      <trkpt lat="42.413793" lon="0.819788">
        <ele>1447.8</ele>
        <time>1970-01-01T01:33:22.000Z</time>
      </trkpt>
      <trkpt lat="42.413905" lon="0.819769">
        <ele>1448.8</ele>
        <time>1970-01-01T01:33:30.000Z</time>
      </trkpt>
      <trkpt lat="42.413974" lon="0.819819">
        <ele>1450.2</ele>
        <time>1970-01-01T01:33:36.000Z</time>
      </trkpt>
      <trkpt lat="42.413983" lon="0.819937">
        <ele>1451.2</ele>
        <time>1970-01-01T01:33:43.000Z</time>
      </trkpt>
      <trkpt lat="42.413944" lon="0.820041">
        <ele>1452.2</ele>
        <time>1970-01-01T01:33:49.000Z</time>
      </trkpt>
      <trkpt lat="42.413933" lon="0.820056">
        <ele>1452.4</ele>
        <time>1970-01-01T01:33:50.000Z</time>
      </trkpt>
      <trkpt lat="42.413832" lon="0.820169">
        <ele>1453.4</ele>
        <time>1970-01-01T01:33:58.000Z</time>
      </trkpt>
      <trkpt lat="42.413722" lon="0.82029">
        <ele>1454.2</ele>
        <time>1970-01-01T01:34:06.000Z</time>
      </trkpt>
      <trkpt lat="42.413588" lon="0.820717">
        <ele>1455.2</ele>
        <time>1970-01-01T01:34:24.000Z</time>
      </trkpt>
      <trkpt lat="42.413645" lon="0.820856">
        <ele>1456.4</ele>
        <time>1970-01-01T01:34:32.000Z</time>
      </trkpt>
      <trkpt lat="42.413741" lon="0.820853">
        <ele>1457.6</ele>
        <time>1970-01-01T01:34:38.000Z</time>
      </trkpt>
      <trkpt lat="42.413814" lon="0.820692">
        <ele>1458.6</ele>
        <time>1970-01-01T01:34:46.000Z</time>
      </trkpt>
      <trkpt lat="42.413878" lon="0.820543">
        <ele>1459.8</ele>
        <time>1970-01-01T01:34:54.000Z</time>
      </trkpt>
      <trkpt lat="42.41393" lon="0.820467">
        <ele>1460.6</ele>
        <time>1970-01-01T01:34:59.000Z</time>
      </trkpt>
      <trkpt lat="42.414046" lon="0.820372">
        <ele>1461.8</ele>
        <time>1970-01-01T01:35:08.000Z</time>
      </trkpt>
      <trkpt lat="42.414159" lon="0.820298">
        <ele>1463</ele>
        <time>1970-01-01T01:35:17.000Z</time>
      </trkpt>
      <trkpt lat="42.414252" lon="0.820252">
        <ele>1464</ele>
        <time>1970-01-01T01:35:24.000Z</time>
      </trkpt>
      <trkpt lat="42.414347" lon="0.820258">
        <ele>1465</ele>
        <time>1970-01-01T01:35:31.000Z</time>
      </trkpt>
      <trkpt lat="42.41439" lon="0.820333">
        <ele>1466</ele>
        <time>1970-01-01T01:35:36.000Z</time>
      </trkpt>
      <trkpt lat="42.414388" lon="0.820373">
        <ele>1466.4</ele>
        <time>1970-01-01T01:35:38.000Z</time>
      </trkpt>
      <trkpt lat="42.414307" lon="0.820476">
        <ele>1467.2</ele>
        <time>1970-01-01T01:35:45.000Z</time>
      </trkpt>
      <trkpt lat="42.414174" lon="0.820541">
        <ele>1468.2</ele>
        <time>1970-01-01T01:35:53.000Z</time>
      </trkpt>
      <trkpt lat="42.414122" lon="0.82059">
        <ele>1468.8</ele>
        <time>1970-01-01T01:35:57.000Z</time>
      </trkpt>
      <trkpt lat="42.414092" lon="0.820751">
        <ele>1469.4</ele>
        <time>1970-01-01T01:36:04.000Z</time>
      </trkpt>
      <trkpt lat="42.414119" lon="0.820877">
        <ele>1470.2</ele>
        <time>1970-01-01T01:36:10.000Z</time>
      </trkpt>
      <trkpt lat="42.414185" lon="0.82102">
        <ele>1471.4</ele>
        <time>1970-01-01T01:36:18.000Z</time>
      </trkpt>
      <trkpt lat="42.414257" lon="0.821137">
        <ele>1472.4</ele>
        <time>1970-01-01T01:36:26.000Z</time>
      </trkpt>
      <trkpt lat="42.414338" lon="0.821255">
        <ele>1473.4</ele>
        <time>1970-01-01T01:36:34.000Z</time>
      </trkpt>
      <trkpt lat="42.41444" lon="0.821383">
        <ele>1474.4</ele>
        <time>1970-01-01T01:36:43.000Z</time>
      </trkpt>
      <trkpt lat="42.414535" lon="0.821517">
        <ele>1475.4</ele>
        <time>1970-01-01T01:36:51.000Z</time>
      </trkpt>
      <trkpt lat="42.414607" lon="0.82163">
        <ele>1475.8</ele>
        <time>1970-01-01T01:36:56.000Z</time>
      </trkpt>
      <trkpt lat="42.414666" lon="0.82178">
        <ele>1476.4</ele>
        <time>1970-01-01T01:37:02.000Z</time>
      </trkpt>
      <trkpt lat="42.41469" lon="0.821956">
        <ele>1477.6</ele>
        <time>1970-01-01T01:37:10.000Z</time>
      </trkpt>
      <trkpt lat="42.414671" lon="0.822124">
        <ele>1478.6</ele>
        <time>1970-01-01T01:37:18.000Z</time>
      </trkpt>
      <trkpt lat="42.414643" lon="0.82229">
        <ele>1479.8</ele>
        <time>1970-01-01T01:37:26.000Z</time>
      </trkpt>
      <trkpt lat="42.414598" lon="0.8226">
        <ele>1480.6</ele>
        <time>1970-01-01T01:37:40.000Z</time>
      </trkpt>
      <trkpt lat="42.414583" lon="0.822758">
        <ele>1481.6</ele>
        <time>1970-01-01T01:37:47.000Z</time>
      </trkpt>
      <trkpt lat="42.414564" lon="0.822969">
        <ele>1482.8</ele>
        <time>1970-01-01T01:37:57.000Z</time>
      </trkpt>
      <trkpt lat="42.414552" lon="0.823091">
        <ele>1483.8</ele>
        <time>1970-01-01T01:38:03.000Z</time>
      </trkpt>
      <trkpt lat="42.414564" lon="0.823283">
        <ele>1484.8</ele>
        <time>1970-01-01T01:38:12.000Z</time>
      </trkpt>
      <trkpt lat="42.414651" lon="0.823457">
        <ele>1485.8</ele>
        <time>1970-01-01T01:38:21.000Z</time>
      </trkpt>
      <trkpt lat="42.414872" lon="0.823486">
        <ele>1485.6</ele>
        <time>1970-01-01T01:38:34.000Z</time>
      </trkpt>
      <trkpt lat="42.414942" lon="0.82344">
        <ele>1485.4</ele>
        <time>1970-01-01T01:39:07.000Z</time>
      </trkpt>
      <trkpt lat="42.415147" lon="0.823356">
        <ele>1484.4</ele>
        <time>1970-01-01T01:39:14.000Z</time>
      </trkpt>
      <trkpt lat="42.415356" lon="0.823227">
        <ele>1483.4</ele>
        <time>1970-01-01T01:39:21.000Z</time>
      </trkpt>
      <trkpt lat="42.415575" lon="0.823089">
        <ele>1482.4</ele>
        <time>1970-01-01T01:39:26.000Z</time>
      </trkpt>
      <trkpt lat="42.415716" lon="0.823011">
        <ele>1481</ele>
        <time>1970-01-01T01:39:29.000Z</time>
      </trkpt>
      <trkpt lat="42.415866" lon="0.822938">
        <ele>1479.8</ele>
        <time>1970-01-01T01:39:32.000Z</time>
      </trkpt>
      <trkpt lat="42.416082" lon="0.822826">
        <ele>1478.8</ele>
        <time>1970-01-01T01:39:36.000Z</time>
      </trkpt>
      <trkpt lat="42.416177" lon="0.822779">
        <ele>1478.2</ele>
        <time>1970-01-01T01:39:38.000Z</time>
      </trkpt>
      <trkpt lat="42.416266" lon="0.82279">
        <ele>1477.6</ele>
        <time>1970-01-01T01:39:41.000Z</time>
      </trkpt>
      <trkpt lat="42.416299" lon="0.822818">
        <ele>1477.4</ele>
        <time>1970-01-01T01:39:43.000Z</time>
      </trkpt>
      <trkpt lat="42.416304" lon="0.822915">
        <ele>1476.6</ele>
        <time>1970-01-01T01:39:47.000Z</time>
      </trkpt>
      <trkpt lat="42.416302" lon="0.822925">
        <ele>1476</ele>
        <time>1970-01-01T01:39:50.000Z</time>
      </trkpt>
      <trkpt lat="42.416272" lon="0.822965">
        <ele>1475.8</ele>
        <time>1970-01-01T01:40:04.000Z</time>
      </trkpt>
      <trkpt lat="42.416242" lon="0.82299">
        <ele>1475.6</ele>
        <time>1970-01-01T01:40:05.000Z</time>
      </trkpt>
      <trkpt lat="42.416156" lon="0.823136">
        <ele>1474.4</ele>
        <time>1970-01-01T01:40:08.000Z</time>
      </trkpt>
      <trkpt lat="42.416243" lon="0.823308">
        <ele>1473.2</ele>
        <time>1970-01-01T01:40:11.000Z</time>
      </trkpt>
      <trkpt lat="42.416347" lon="0.823354">
        <ele>1472</ele>
        <time>1970-01-01T01:40:13.000Z</time>
      </trkpt>
      <trkpt lat="42.416411" lon="0.823371">
        <ele>1471.4</ele>
        <time>1970-01-01T01:40:14.000Z</time>
      </trkpt>
      <trkpt lat="42.416479" lon="0.82339">
        <ele>1470.6</ele>
        <time>1970-01-01T01:40:15.000Z</time>
      </trkpt>
      <trkpt lat="42.416622" lon="0.823442">
        <ele>1469.2</ele>
        <time>1970-01-01T01:40:17.000Z</time>
      </trkpt>
      <trkpt lat="42.416758" lon="0.823511">
        <ele>1468.4</ele>
        <time>1970-01-01T01:40:19.000Z</time>
      </trkpt>
      <trkpt lat="42.416871" lon="0.823604">
        <ele>1468.2</ele>
        <time>1970-01-01T01:40:21.000Z</time>
      </trkpt>
      <trkpt lat="42.417001" lon="0.823733">
        <ele>1468.6</ele>
        <time>1970-01-01T01:40:24.000Z</time>
      </trkpt>
      <trkpt lat="42.417078" lon="0.823845">
        <ele>1469.4</ele>
        <time>1970-01-01T01:40:28.000Z</time>
      </trkpt>
      <trkpt lat="42.417138" lon="0.823949">
        <ele>1470.4</ele>
        <time>1970-01-01T01:40:33.000Z</time>
      </trkpt>
      <trkpt lat="42.417208" lon="0.824071">
        <ele>1471.6</ele>
        <time>1970-01-01T01:40:39.000Z</time>
      </trkpt>
      <trkpt lat="42.417293" lon="0.824219">
        <ele>1472.6</ele>
        <time>1970-01-01T01:40:47.000Z</time>
      </trkpt>
      <trkpt lat="42.417353" lon="0.824319">
        <ele>1473.4</ele>
        <time>1970-01-01T01:40:53.000Z</time>
      </trkpt>
      <trkpt lat="42.417398" lon="0.8244">
        <ele>1474.6</ele>
        <time>1970-01-01T01:40:58.000Z</time>
      </trkpt>
      <trkpt lat="42.417451" lon="0.82449">
        <ele>1475.8</ele>
        <time>1970-01-01T01:41:04.000Z</time>
      </trkpt>
      <trkpt lat="42.417504" lon="0.824574">
        <ele>1477</ele>
        <time>1970-01-01T01:41:10.000Z</time>
      </trkpt>
      <trkpt lat="42.417573" lon="0.82466">
        <ele>1478</ele>
        <time>1970-01-01T01:41:17.000Z</time>
      </trkpt>
      <trkpt lat="42.417635" lon="0.824702">
        <ele>1479.2</ele>
        <time>1970-01-01T01:41:22.000Z</time>
      </trkpt>
      <trkpt lat="42.417728" lon="0.824725">
        <ele>1480.4</ele>
        <time>1970-01-01T01:41:29.000Z</time>
      </trkpt>
      <trkpt lat="42.417827" lon="0.824704">
        <ele>1481.2</ele>
        <time>1970-01-01T01:41:36.000Z</time>
      </trkpt>
      <trkpt lat="42.417922" lon="0.824687">
        <ele>1482.4</ele>
        <time>1970-01-01T01:41:43.000Z</time>
      </trkpt>
      <trkpt lat="42.418041" lon="0.824685">
        <ele>1483.4</ele>
        <time>1970-01-01T01:41:51.000Z</time>
      </trkpt>
      <trkpt lat="42.41814" lon="0.824873">
        <ele>1484.6</ele>
        <time>1970-01-01T01:42:01.000Z</time>
      </trkpt>
      <trkpt lat="42.418195" lon="0.825162">
        <ele>1485.6</ele>
        <time>1970-01-01T01:42:12.000Z</time>
      </trkpt>
      <trkpt lat="42.418263" lon="0.825349">
        <ele>1486.4</ele>
        <time>1970-01-01T01:42:21.000Z</time>
      </trkpt>
      <trkpt lat="42.418296" lon="0.825454">
        <ele>1487.4</ele>
        <time>1970-01-01T01:42:26.000Z</time>
      </trkpt>
      <trkpt lat="42.418339" lon="0.825671">
        <ele>1488.4</ele>
        <time>1970-01-01T01:42:36.000Z</time>
      </trkpt>
      <trkpt lat="42.418346" lon="0.82585">
        <ele>1489.6</ele>
        <time>1970-01-01T01:42:45.000Z</time>
      </trkpt>
      <trkpt lat="42.418329" lon="0.82597">
        <ele>1490.6</ele>
        <time>1970-01-01T01:42:51.000Z</time>
      </trkpt>
      <trkpt lat="42.41832" lon="0.826164">
        <ele>1491.6</ele>
        <time>1970-01-01T01:43:00.000Z</time>
      </trkpt>
      <trkpt lat="42.418328" lon="0.826299">
        <ele>1492.8</ele>
        <time>1970-01-01T01:43:06.000Z</time>
      </trkpt>
      <trkpt lat="42.418331" lon="0.826321">
        <ele>1493</ele>
        <time>1970-01-01T01:43:07.000Z</time>
      </trkpt>
      <trkpt lat="42.418359" lon="0.826424">
        <ele>1493.6</ele>
        <time>1970-01-01T01:43:12.000Z</time>
      </trkpt>
      <trkpt lat="42.418392" lon="0.826559">
        <ele>1493.8</ele>
        <time>1970-01-01T01:43:19.000Z</time>
      </trkpt>
      <trkpt lat="42.418422" lon="0.826687">
        <ele>1495</ele>
        <time>1970-01-01T01:43:25.000Z</time>
      </trkpt>
      <trkpt lat="42.418487" lon="0.826971">
        <ele>1496</ele>
        <time>1970-01-01T01:43:38.000Z</time>
      </trkpt>
      <trkpt lat="42.418551" lon="0.827199">
        <ele>1497.2</ele>
        <time>1970-01-01T01:43:48.000Z</time>
      </trkpt>
      <trkpt lat="42.418673" lon="0.827373">
        <ele>1498</ele>
        <time>1970-01-01T01:43:58.000Z</time>
      </trkpt>
      <trkpt lat="42.41874" lon="0.827434">
        <ele>1499</ele>
        <time>1970-01-01T01:44:03.000Z</time>
      </trkpt>
      <trkpt lat="42.418859" lon="0.82752">
        <ele>1500</ele>
        <time>1970-01-01T01:44:11.000Z</time>
      </trkpt>
      <trkpt lat="42.418949" lon="0.827571">
        <ele>1500.6</ele>
        <time>1970-01-01T01:44:19.000Z</time>
      </trkpt>
      <trkpt lat="42.41899" lon="0.8276">
        <ele>1501</ele>
        <time>1970-01-01T01:44:43.000Z</time>
      </trkpt>
      <trkpt lat="42.419484" lon="0.827973">
        <ele>1501.4</ele>
        <time>1970-01-01T01:45:04.000Z</time>
      </trkpt>
      <trkpt lat="42.4198" lon="0.828533">
        <ele>1501.8</ele>
        <time>1970-01-01T01:45:22.000Z</time>
      </trkpt>
      <trkpt lat="42.419938" lon="0.828924">
        <ele>1503</ele>
        <time>1970-01-01T01:45:34.000Z</time>
      </trkpt>
      <trkpt lat="42.419988" lon="0.829151">
        <ele>1504</ele>
        <time>1970-01-01T01:45:41.000Z</time>
      </trkpt>
      <trkpt lat="42.420032" lon="0.829416">
        <ele>1505.2</ele>
        <time>1970-01-01T01:45:49.000Z</time>
      </trkpt>
      <trkpt lat="42.420097" lon="0.829681">
        <ele>1506</ele>
        <time>1970-01-01T01:45:58.000Z</time>
      </trkpt>
      <trkpt lat="42.420154" lon="0.829879">
        <ele>1507</ele>
        <time>1970-01-01T01:46:05.000Z</time>
      </trkpt>
      <trkpt lat="42.420251" lon="0.830111">
        <ele>1508.2</ele>
        <time>1970-01-01T01:46:13.000Z</time>
      </trkpt>
      <trkpt lat="42.420337" lon="0.830254">
        <ele>1509.2</ele>
        <time>1970-01-01T01:46:20.000Z</time>
      </trkpt>
      <trkpt lat="42.420436" lon="0.830385">
        <ele>1510.2</ele>
        <time>1970-01-01T01:46:28.000Z</time>
      </trkpt>
      <trkpt lat="42.420522" lon="0.830477">
        <ele>1511</ele>
        <time>1970-01-01T01:46:34.000Z</time>
      </trkpt>
      <trkpt lat="42.420566" lon="0.830569">
        <ele>1512</ele>
        <time>1970-01-01T01:46:39.000Z</time>
      </trkpt>
      <trkpt lat="42.420587" lon="0.830779">
        <ele>1513.2</ele>
        <time>1970-01-01T01:46:48.000Z</time>
      </trkpt>
      <trkpt lat="42.420519" lon="0.830988">
        <ele>1514.2</ele>
        <time>1970-01-01T01:46:58.000Z</time>
      </trkpt>
      <trkpt lat="42.420499" lon="0.831173">
        <ele>1515.4</ele>
        <time>1970-01-01T01:47:06.000Z</time>
      </trkpt>
      <trkpt lat="42.4205" lon="0.831326">
        <ele>1516.4</ele>
        <time>1970-01-01T01:47:13.000Z</time>
      </trkpt>
      <trkpt lat="42.42052" lon="0.831472">
        <ele>1517.2</ele>
        <time>1970-01-01T01:47:20.000Z</time>
      </trkpt>
      <trkpt lat="42.420524" lon="0.831487">
        <ele>1517.2</ele>
        <time>1970-01-01T01:47:21.000Z</time>
      </trkpt>
      <trkpt lat="42.420601" lon="0.831674">
        <ele>1518.4</ele>
        <time>1970-01-01T01:47:31.000Z</time>
      </trkpt>
      <trkpt lat="42.420669" lon="0.831867">
        <ele>1519.4</ele>
        <time>1970-01-01T01:47:40.000Z</time>
      </trkpt>
      <trkpt lat="42.420729" lon="0.832014">
        <ele>1520.4</ele>
        <time>1970-01-01T01:47:47.000Z</time>
      </trkpt>
      <trkpt lat="42.420823" lon="0.832205">
        <ele>1521.2</ele>
        <time>1970-01-01T01:47:57.000Z</time>
      </trkpt>
      <trkpt lat="42.420876" lon="0.832306">
        <ele>1522.2</ele>
        <time>1970-01-01T01:48:03.000Z</time>
      </trkpt>
      <trkpt lat="42.420891" lon="0.832328">
        <ele>1522.6</ele>
        <time>1970-01-01T01:48:07.000Z</time>
      </trkpt>
      <trkpt lat="42.420907" lon="0.832378">
        <ele>1522.8</ele>
        <time>1970-01-01T01:48:23.000Z</time>
      </trkpt>
      <trkpt lat="42.420933" lon="0.832463">
        <ele>1523.4</ele>
        <time>1970-01-01T01:48:27.000Z</time>
      </trkpt>
      <trkpt lat="42.420985" lon="0.832587">
        <ele>1524.4</ele>
        <time>1970-01-01T01:48:33.000Z</time>
      </trkpt>
      <trkpt lat="42.421043" lon="0.832749">
        <ele>1525.2</ele>
        <time>1970-01-01T01:48:41.000Z</time>
      </trkpt>
      <trkpt lat="42.421067" lon="0.832879">
        <ele>1526.2</ele>
        <time>1970-01-01T01:48:47.000Z</time>
      </trkpt>
      <trkpt lat="42.421097" lon="0.833075">
        <ele>1527.4</ele>
        <time>1970-01-01T01:48:55.000Z</time>
      </trkpt>
      <trkpt lat="42.421133" lon="0.833236">
        <ele>1528.4</ele>
        <time>1970-01-01T01:49:02.000Z</time>
      </trkpt>
      <trkpt lat="42.421184" lon="0.833372">
        <ele>1529.4</ele>
        <time>1970-01-01T01:49:09.000Z</time>
      </trkpt>
      <trkpt lat="42.421232" lon="0.833522">
        <ele>1530.6</ele>
        <time>1970-01-01T01:49:16.000Z</time>
      </trkpt>
      <trkpt lat="42.421317" lon="0.833672">
        <ele>1531.6</ele>
        <time>1970-01-01T01:49:24.000Z</time>
      </trkpt>
      <trkpt lat="42.421422" lon="0.833818">
        <ele>1532.8</ele>
        <time>1970-01-01T01:49:32.000Z</time>
      </trkpt>
      <trkpt lat="42.421583" lon="0.833961">
        <ele>1534</ele>
        <time>1970-01-01T01:49:42.000Z</time>
      </trkpt>
      <trkpt lat="42.421597" lon="0.833965">
        <ele>1534.2</ele>
        <time>1970-01-01T01:49:45.000Z</time>
      </trkpt>
      <trkpt lat="42.421705" lon="0.834014">
        <ele>1534.4</ele>
        <time>1970-01-01T01:52:07.000Z</time>
      </trkpt>
      <trkpt lat="42.421985" lon="0.834049">
        <ele>1535.6</ele>
        <time>1970-01-01T01:52:20.000Z</time>
      </trkpt>
      <trkpt lat="42.422554" lon="0.833903">
        <ele>1534.8</ele>
        <time>1970-01-01T01:52:38.000Z</time>
      </trkpt>
      <trkpt lat="42.422641" lon="0.833881">
        <ele>1534.6</ele>
        <time>1970-01-01T01:52:40.000Z</time>
      </trkpt>
      <trkpt lat="42.422779" lon="0.833839">
        <ele>1534.2</ele>
        <time>1970-01-01T01:52:43.000Z</time>
      </trkpt>
      <trkpt lat="42.422826" lon="0.833825">
        <ele>1534</ele>
        <time>1970-01-01T01:52:44.000Z</time>
      </trkpt>
      <trkpt lat="42.423224" lon="0.833738">
        <ele>1533.2</ele>
        <time>1970-01-01T01:52:53.000Z</time>
      </trkpt>
      <trkpt lat="42.423356" lon="0.833736">
        <ele>1532.8</ele>
        <time>1970-01-01T01:52:56.000Z</time>
      </trkpt>
      <trkpt lat="42.423532" lon="0.833875">
        <ele>1533.2</ele>
        <time>1970-01-01T01:53:01.000Z</time>
      </trkpt>
      <trkpt lat="42.423848" lon="0.834514">
        <ele>1534</ele>
        <time>1970-01-01T01:53:16.000Z</time>
      </trkpt>
      <trkpt lat="42.42392" lon="0.834668">
        <ele>1534.2</ele>
        <time>1970-01-01T01:53:20.000Z</time>
      </trkpt>
      <trkpt lat="42.424153" lon="0.834941">
        <ele>1535.2</ele>
        <time>1970-01-01T01:53:31.000Z</time>
      </trkpt>
      <trkpt lat="42.424283" lon="0.834983">
        <ele>1536.2</ele>
        <time>1970-01-01T01:53:38.000Z</time>
      </trkpt>
      <trkpt lat="42.424356" lon="0.834998">
        <ele>1537.4</ele>
        <time>1970-01-01T01:53:42.000Z</time>
      </trkpt>
      <trkpt lat="42.42448" lon="0.835014">
        <ele>1538.4</ele>
        <time>1970-01-01T01:53:49.000Z</time>
      </trkpt>
      <trkpt lat="42.424554" lon="0.834989">
        <ele>1539.6</ele>
        <time>1970-01-01T01:53:54.000Z</time>
      </trkpt>
      <trkpt lat="42.424644" lon="0.834964">
        <ele>1540.6</ele>
        <time>1970-01-01T01:54:00.000Z</time>
      </trkpt>
      <trkpt lat="42.424726" lon="0.834942">
        <ele>1541.8</ele>
        <time>1970-01-01T01:54:06.000Z</time>
      </trkpt>
      <trkpt lat="42.424822" lon="0.834926">
        <ele>1543</ele>
        <time>1970-01-01T01:54:13.000Z</time>
      </trkpt>
      <trkpt lat="42.424911" lon="0.8349">
        <ele>1544.2</ele>
        <time>1970-01-01T01:54:20.000Z</time>
      </trkpt>
      <trkpt lat="42.425" lon="0.834872">
        <ele>1545</ele>
        <time>1970-01-01T01:54:26.000Z</time>
      </trkpt>
      <trkpt lat="42.425124" lon="0.834854">
        <ele>1546.2</ele>
        <time>1970-01-01T01:54:34.000Z</time>
      </trkpt>
      <trkpt lat="42.42522" lon="0.834837">
        <ele>1547.2</ele>
        <time>1970-01-01T01:54:40.000Z</time>
      </trkpt>
      <trkpt lat="42.425452" lon="0.834849">
        <ele>1548</ele>
        <time>1970-01-01T01:54:53.000Z</time>
      </trkpt>
      <trkpt lat="42.425726" lon="0.834876">
        <ele>1549</ele>
        <time>1970-01-01T01:55:07.000Z</time>
      </trkpt>
      <trkpt lat="42.426023" lon="0.834932">
        <ele>1550</ele>
        <time>1970-01-01T01:55:20.000Z</time>
      </trkpt>
      <trkpt lat="42.426393" lon="0.834932">
        <ele>1551</ele>
        <time>1970-01-01T01:55:36.000Z</time>
      </trkpt>
      <trkpt lat="42.426791" lon="0.834875">
        <ele>1551.8</ele>
        <time>1970-01-01T01:55:52.000Z</time>
      </trkpt>
      <trkpt lat="42.427056" lon="0.834856">
        <ele>1552.8</ele>
        <time>1970-01-01T01:56:02.000Z</time>
      </trkpt>
      <trkpt lat="42.427389" lon="0.835371">
        <ele>1552.8</ele>
        <time>1970-01-01T01:56:21.000Z</time>
      </trkpt>
      <trkpt lat="42.427461" lon="0.835487">
        <ele>1553.6</ele>
        <time>1970-01-01T01:56:26.000Z</time>
      </trkpt>
      <trkpt lat="42.427597" lon="0.835678">
        <ele>1554.8</ele>
        <time>1970-01-01T01:56:35.000Z</time>
      </trkpt>
      <trkpt lat="42.427724" lon="0.835852">
        <ele>1555.6</ele>
        <time>1970-01-01T01:56:44.000Z</time>
      </trkpt>
      <trkpt lat="42.427846" lon="0.836025">
        <ele>1556.6</ele>
        <time>1970-01-01T01:56:53.000Z</time>
      </trkpt>
      <trkpt lat="42.427926" lon="0.836186">
        <ele>1557.6</ele>
        <time>1970-01-01T01:57:01.000Z</time>
      </trkpt>
      <trkpt lat="42.42796" lon="0.836265">
        <ele>1558.6</ele>
        <time>1970-01-01T01:57:05.000Z</time>
      </trkpt>
      <trkpt lat="42.428027" lon="0.83638">
        <ele>1559.8</ele>
        <time>1970-01-01T01:57:12.000Z</time>
      </trkpt>
      <trkpt lat="42.428082" lon="0.836452">
        <ele>1561</ele>
        <time>1970-01-01T01:57:17.000Z</time>
      </trkpt>
      <trkpt lat="42.428155" lon="0.83653">
        <ele>1562.2</ele>
        <time>1970-01-01T01:57:23.000Z</time>
      </trkpt>
      <trkpt lat="42.428229" lon="0.836617">
        <ele>1563.2</ele>
        <time>1970-01-01T01:57:29.000Z</time>
      </trkpt>
      <trkpt lat="42.428284" lon="0.836661">
        <ele>1564.4</ele>
        <time>1970-01-01T01:57:33.000Z</time>
      </trkpt>
      <trkpt lat="42.428367" lon="0.836711">
        <ele>1565.6</ele>
        <time>1970-01-01T01:57:39.000Z</time>
      </trkpt>
      <trkpt lat="42.428433" lon="0.836745">
        <ele>1566.6</ele>
        <time>1970-01-01T01:57:44.000Z</time>
      </trkpt>
      <trkpt lat="42.428516" lon="0.836785">
        <ele>1567.8</ele>
        <time>1970-01-01T01:57:50.000Z</time>
      </trkpt>
      <trkpt lat="42.428634" lon="0.836835">
        <ele>1568.8</ele>
        <time>1970-01-01T01:57:58.000Z</time>
      </trkpt>
      <trkpt lat="42.428756" lon="0.836883">
        <ele>1569.6</ele>
        <time>1970-01-01T01:58:06.000Z</time>
      </trkpt>
      <trkpt lat="42.42893" lon="0.836935">
        <ele>1570.6</ele>
        <time>1970-01-01T01:58:17.000Z</time>
      </trkpt>
      <trkpt lat="42.429073" lon="0.836973">
        <ele>1571.8</ele>
        <time>1970-01-01T01:58:27.000Z</time>
      </trkpt>
      <trkpt lat="42.429213" lon="0.836983">
        <ele>1572.8</ele>
        <time>1970-01-01T01:58:36.000Z</time>
      </trkpt>
      <trkpt lat="42.429382" lon="0.836981">
        <ele>1573.8</ele>
        <time>1970-01-01T01:58:47.000Z</time>
      </trkpt>
      <trkpt lat="42.429499" lon="0.837015">
        <ele>1575</ele>
        <time>1970-01-01T01:58:55.000Z</time>
      </trkpt>
      <trkpt lat="42.42962" lon="0.837087">
        <ele>1575.8</ele>
        <time>1970-01-01T01:59:03.000Z</time>
      </trkpt>
      <trkpt lat="42.429758" lon="0.837233">
        <ele>1576.8</ele>
        <time>1970-01-01T01:59:14.000Z</time>
      </trkpt>
      <trkpt lat="42.429841" lon="0.837398">
        <ele>1578</ele>
        <time>1970-01-01T01:59:23.000Z</time>
      </trkpt>
      <trkpt lat="42.429907" lon="0.837559">
        <ele>1579</ele>
        <time>1970-01-01T01:59:31.000Z</time>
      </trkpt>
      <trkpt lat="42.429958" lon="0.837687">
        <ele>1579.8</ele>
        <time>1970-01-01T01:59:37.000Z</time>
      </trkpt>
      <trkpt lat="42.430029" lon="0.837849">
        <ele>1580.8</ele>
        <time>1970-01-01T01:59:45.000Z</time>
      </trkpt>
      <trkpt lat="42.43009" lon="0.83798">
        <ele>1582</ele>
        <time>1970-01-01T01:59:52.000Z</time>
      </trkpt>
      <trkpt lat="42.430151" lon="0.838124">
        <ele>1583</ele>
        <time>1970-01-01T02:00:00.000Z</time>
      </trkpt>
      <trkpt lat="42.430209" lon="0.838252">
        <ele>1584</ele>
        <time>1970-01-01T02:00:07.000Z</time>
      </trkpt>
      <trkpt lat="42.430269" lon="0.8384">
        <ele>1585.2</ele>
        <time>1970-01-01T02:00:15.000Z</time>
      </trkpt>
      <trkpt lat="42.43033" lon="0.838558">
        <ele>1586.2</ele>
        <time>1970-01-01T02:00:23.000Z</time>
      </trkpt>
      <trkpt lat="42.430432" lon="0.838862">
        <ele>1587.2</ele>
        <time>1970-01-01T02:00:36.000Z</time>
      </trkpt>
      <trkpt lat="42.430633" lon="0.839548">
        <ele>1585.8</ele>
        <time>1970-01-01T02:00:57.000Z</time>
      </trkpt>
      <trkpt lat="42.430699" lon="0.839725">
        <ele>1584.8</ele>
        <time>1970-01-01T02:01:00.000Z</time>
      </trkpt>
      <trkpt lat="42.430777" lon="0.839935">
        <ele>1583.2</ele>
        <time>1970-01-01T02:01:04.000Z</time>
      </trkpt>
      <trkpt lat="42.430842" lon="0.8401">
        <ele>1582.2</ele>
        <time>1970-01-01T02:01:07.000Z</time>
      </trkpt>
      <trkpt lat="42.430873" lon="0.840153">
        <ele>1582</ele>
        <time>1970-01-01T02:01:08.000Z</time>
      </trkpt>
      <trkpt lat="42.431013" lon="0.840288">
        <ele>1580.6</ele>
        <time>1970-01-01T02:01:11.000Z</time>
      </trkpt>
      <trkpt lat="42.431194" lon="0.84033">
        <ele>1579.2</ele>
        <time>1970-01-01T02:01:14.000Z</time>
      </trkpt>
      <trkpt lat="42.431353" lon="0.840271">
        <ele>1578</ele>
        <time>1970-01-01T02:01:17.000Z</time>
      </trkpt>
      <trkpt lat="42.431392" lon="0.840237">
        <ele>1577.4</ele>
        <time>1970-01-01T02:01:18.000Z</time>
      </trkpt>
      <trkpt lat="42.431488" lon="0.840171">
        <ele>1576.8</ele>
        <time>1970-01-01T02:01:21.000Z</time>
      </trkpt>
      <trkpt lat="42.431623" lon="0.840368">
        <ele>1575.6</ele>
        <time>1970-01-01T02:01:27.000Z</time>
      </trkpt>
      <trkpt lat="42.431631" lon="0.840609">
        <ele>1574.6</ele>
        <time>1970-01-01T02:01:31.000Z</time>
      </trkpt>
      <trkpt lat="42.431623" lon="0.840672">
        <ele>1574.4</ele>
        <time>1970-01-01T02:01:32.000Z</time>
      </trkpt>
      <trkpt lat="42.431606" lon="0.840804">
        <ele>1573.6</ele>
        <time>1970-01-01T02:01:34.000Z</time>
      </trkpt>
      <trkpt lat="42.431599" lon="0.840872">
        <ele>1572.8</ele>
        <time>1970-01-01T02:01:35.000Z</time>
      </trkpt>
      <trkpt lat="42.431597" lon="0.84094">
        <ele>1572.2</ele>
        <time>1970-01-01T02:01:36.000Z</time>
      </trkpt>
      <trkpt lat="42.431634" lon="0.841146">
        <ele>1570.8</ele>
        <time>1970-01-01T02:01:39.000Z</time>
      </trkpt>
      <trkpt lat="42.431703" lon="0.84127">
        <ele>1569.6</ele>
        <time>1970-01-01T02:01:41.000Z</time>
      </trkpt>
      <trkpt lat="42.431803" lon="0.841372">
        <ele>1568.4</ele>
        <time>1970-01-01T02:01:43.000Z</time>
      </trkpt>
      <trkpt lat="42.431922" lon="0.841436">
        <ele>1567.2</ele>
        <time>1970-01-01T02:01:45.000Z</time>
      </trkpt>
      <trkpt lat="42.43202" lon="0.841501">
        <ele>1565.8</ele>
        <time>1970-01-01T02:01:47.000Z</time>
      </trkpt>
      <trkpt lat="42.43215" lon="0.84176">
        <ele>1564.8</ele>
        <time>1970-01-01T02:01:51.000Z</time>
      </trkpt>
      <trkpt lat="42.432291" lon="0.841924">
        <ele>1563.4</ele>
        <time>1970-01-01T02:01:54.000Z</time>
      </trkpt>
      <trkpt lat="42.432332" lon="0.841977">
        <ele>1563.2</ele>
        <time>1970-01-01T02:01:55.000Z</time>
      </trkpt>
      <trkpt lat="42.432362" lon="0.842044">
        <ele>1562.4</ele>
        <time>1970-01-01T02:01:56.000Z</time>
      </trkpt>
      <trkpt lat="42.432404" lon="0.842201">
        <ele>1560.8</ele>
        <time>1970-01-01T02:01:58.000Z</time>
      </trkpt>
      <trkpt lat="42.432403" lon="0.842384">
        <ele>1559.6</ele>
        <time>1970-01-01T02:02:00.000Z</time>
      </trkpt>
      <trkpt lat="42.432338" lon="0.842643">
        <ele>1558.2</ele>
        <time>1970-01-01T02:02:03.000Z</time>
      </trkpt>
      <trkpt lat="42.432258" lon="0.842785">
        <ele>1557.2</ele>
        <time>1970-01-01T02:02:05.000Z</time>
      </trkpt>
      <trkpt lat="42.43222" lon="0.842858">
        <ele>1556.8</ele>
        <time>1970-01-01T02:02:06.000Z</time>
      </trkpt>
      <trkpt lat="42.432197" lon="0.842943">
        <ele>1556</ele>
        <time>1970-01-01T02:02:07.000Z</time>
      </trkpt>
      <trkpt lat="42.432205" lon="0.843134">
        <ele>1555</ele>
        <time>1970-01-01T02:02:09.000Z</time>
      </trkpt>
      <trkpt lat="42.432226" lon="0.843331">
        <ele>1553.4</ele>
        <time>1970-01-01T02:02:11.000Z</time>
      </trkpt>
      <trkpt lat="42.432187" lon="0.843643">
        <ele>1551.8</ele>
        <time>1970-01-01T02:02:14.000Z</time>
      </trkpt>
      <trkpt lat="42.432169" lon="0.843753">
        <ele>1550.6</ele>
        <time>1970-01-01T02:02:15.000Z</time>
      </trkpt>
      <trkpt lat="42.432142" lon="0.843966">
        <ele>1549.2</ele>
        <time>1970-01-01T02:02:17.000Z</time>
      </trkpt>
      <trkpt lat="42.432135" lon="0.844068">
        <ele>1548.2</ele>
        <time>1970-01-01T02:02:18.000Z</time>
      </trkpt>
      <trkpt lat="42.432121" lon="0.844262">
        <ele>1546.8</ele>
        <time>1970-01-01T02:02:20.000Z</time>
      </trkpt>
      <trkpt lat="42.432105" lon="0.844452">
        <ele>1545.6</ele>
        <time>1970-01-01T02:02:22.000Z</time>
      </trkpt>
      <trkpt lat="42.432078" lon="0.844861">
        <ele>1544.2</ele>
        <time>1970-01-01T02:02:26.000Z</time>
      </trkpt>
      <trkpt lat="42.432059" lon="0.845083">
        <ele>1542.6</ele>
        <time>1970-01-01T02:02:28.000Z</time>
      </trkpt>
      <trkpt lat="42.432034" lon="0.845306">
        <ele>1541.4</ele>
        <time>1970-01-01T02:02:30.000Z</time>
      </trkpt>
      <trkpt lat="42.432019" lon="0.845507">
        <ele>1540.2</ele>
        <time>1970-01-01T02:02:32.000Z</time>
      </trkpt>
      <trkpt lat="42.432015" lon="0.845601">
        <ele>1539</ele>
        <time>1970-01-01T02:02:33.000Z</time>
      </trkpt>
      <trkpt lat="42.432015" lon="0.845782">
        <ele>1537.8</ele>
        <time>1970-01-01T02:02:35.000Z</time>
      </trkpt>
      <trkpt lat="42.43202" lon="0.846161">
        <ele>1536.6</ele>
        <time>1970-01-01T02:02:39.000Z</time>
      </trkpt>
      <trkpt lat="42.43201" lon="0.846463">
        <ele>1535</ele>
        <time>1970-01-01T02:02:42.000Z</time>
      </trkpt>
      <trkpt lat="42.432002" lon="0.846668">
        <ele>1533.6</ele>
        <time>1970-01-01T02:02:44.000Z</time>
      </trkpt>
      <trkpt lat="42.432" lon="0.84688">
        <ele>1532.4</ele>
        <time>1970-01-01T02:02:46.000Z</time>
      </trkpt>
      <trkpt lat="42.431997" lon="0.847093">
        <ele>1530.8</ele>
        <time>1970-01-01T02:02:48.000Z</time>
      </trkpt>
      <trkpt lat="42.431985" lon="0.84731">
        <ele>1529.8</ele>
        <time>1970-01-01T02:02:50.000Z</time>
      </trkpt>
      <trkpt lat="42.431973" lon="0.847505">
        <ele>1528.2</ele>
        <time>1970-01-01T02:02:52.000Z</time>
      </trkpt>
      <trkpt lat="42.431965" lon="0.847586">
        <ele>1528</ele>
        <time>1970-01-01T02:02:53.000Z</time>
      </trkpt>
      <trkpt lat="42.431917" lon="0.8478">
        <ele>1527.2</ele>
        <time>1970-01-01T02:02:56.000Z</time>
      </trkpt>
      <trkpt lat="42.431552" lon="0.848351">
        <ele>1527.4</ele>
        <time>1970-01-01T02:03:09.000Z</time>
      </trkpt>
      <trkpt lat="42.431459" lon="0.84845">
        <ele>1528.2</ele>
        <time>1970-01-01T02:03:13.000Z</time>
      </trkpt>
      <trkpt lat="42.431315" lon="0.848603">
        <ele>1529.2</ele>
        <time>1970-01-01T02:03:20.000Z</time>
      </trkpt>
      <trkpt lat="42.431191" lon="0.848745">
        <ele>1530.4</ele>
        <time>1970-01-01T02:03:27.000Z</time>
      </trkpt>
      <trkpt lat="42.431059" lon="0.848904">
        <ele>1531.2</ele>
        <time>1970-01-01T02:03:34.000Z</time>
      </trkpt>
      <trkpt lat="42.430802" lon="0.849075">
        <ele>1532.4</ele>
        <time>1970-01-01T02:03:46.000Z</time>
      </trkpt>
      <trkpt lat="42.430596" lon="0.848975">
        <ele>1533.4</ele>
        <time>1970-01-01T02:03:55.000Z</time>
      </trkpt>
      <trkpt lat="42.430573" lon="0.848955">
        <ele>1533.4</ele>
        <time>1970-01-01T02:03:56.000Z</time>
      </trkpt>
      <trkpt lat="42.430391" lon="0.848719">
        <ele>1534.2</ele>
        <time>1970-01-01T02:04:05.000Z</time>
      </trkpt>
      <trkpt lat="42.429951" lon="0.84841">
        <ele>1535.2</ele>
        <time>1970-01-01T02:04:22.000Z</time>
      </trkpt>
      <trkpt lat="42.429412" lon="0.848175">
        <ele>1535.8</ele>
        <time>1970-01-01T02:04:39.000Z</time>
      </trkpt>
      <trkpt lat="42.429093" lon="0.847836">
        <ele>1536.2</ele>
        <time>1970-01-01T02:04:50.000Z</time>
      </trkpt>
      <trkpt lat="42.42888" lon="0.8475">
        <ele>1537</ele>
        <time>1970-01-01T02:05:00.000Z</time>
      </trkpt>
      <trkpt lat="42.428615" lon="0.847136">
        <ele>1538</ele>
        <time>1970-01-01T02:05:11.000Z</time>
      </trkpt>
      <trkpt lat="42.428219" lon="0.846701">
        <ele>1536.6</ele>
        <time>1970-01-01T02:05:23.000Z</time>
      </trkpt>
      <trkpt lat="42.428107" lon="0.846426">
        <ele>1535.4</ele>
        <time>1970-01-01T02:05:27.000Z</time>
      </trkpt>
      <trkpt lat="42.428095" lon="0.846258">
        <ele>1534.6</ele>
        <time>1970-01-01T02:05:29.000Z</time>
      </trkpt>
      <trkpt lat="42.428086" lon="0.846179">
        <ele>1534.2</ele>
        <time>1970-01-01T02:05:30.000Z</time>
      </trkpt>
      <trkpt lat="42.427985" lon="0.845886">
        <ele>1533.6</ele>
        <time>1970-01-01T02:05:34.000Z</time>
      </trkpt>
      <trkpt lat="42.427912" lon="0.845766">
        <ele>1533</ele>
        <time>1970-01-01T02:05:36.000Z</time>
      </trkpt>
      <trkpt lat="42.427714" lon="0.845604">
        <ele>1532</ele>
        <time>1970-01-01T02:05:40.000Z</time>
      </trkpt>
      <trkpt lat="42.427532" lon="0.845564">
        <ele>1531.4</ele>
        <time>1970-01-01T02:05:43.000Z</time>
      </trkpt>
      <trkpt lat="42.427472" lon="0.845558">
        <ele>1530.6</ele>
        <time>1970-01-01T02:05:44.000Z</time>
      </trkpt>
      <trkpt lat="42.427412" lon="0.845548">
        <ele>1529.8</ele>
        <time>1970-01-01T02:05:45.000Z</time>
      </trkpt>
      <trkpt lat="42.427351" lon="0.845524">
        <ele>1529.2</ele>
        <time>1970-01-01T02:05:46.000Z</time>
      </trkpt>
      <trkpt lat="42.427175" lon="0.845371">
        <ele>1528</ele>
        <time>1970-01-01T02:05:49.000Z</time>
      </trkpt>
      <trkpt lat="42.427014" lon="0.845032">
        <ele>1526.2</ele>
        <time>1970-01-01T02:05:53.000Z</time>
      </trkpt>
      <trkpt lat="42.426908" lon="0.844757">
        <ele>1524.8</ele>
        <time>1970-01-01T02:05:56.000Z</time>
      </trkpt>
      <trkpt lat="42.426825" lon="0.844581">
        <ele>1523.4</ele>
        <time>1970-01-01T02:05:58.000Z</time>
      </trkpt>
      <trkpt lat="42.42673" lon="0.844436">
        <ele>1522</ele>
        <time>1970-01-01T02:06:00.000Z</time>
      </trkpt>
      <trkpt lat="42.426536" lon="0.84428">
        <ele>1520.8</ele>
        <time>1970-01-01T02:06:03.000Z</time>
      </trkpt>
      <trkpt lat="42.426312" lon="0.844205">
        <ele>1519.4</ele>
        <time>1970-01-01T02:06:06.000Z</time>
      </trkpt>
      <trkpt lat="42.426092" lon="0.844241">
        <ele>1518.4</ele>
        <time>1970-01-01T02:06:09.000Z</time>
      </trkpt>
      <trkpt lat="42.426023" lon="0.844276">
        <ele>1518</ele>
        <time>1970-01-01T02:06:10.000Z</time>
      </trkpt>
      <trkpt lat="42.425771" lon="0.844383">
        <ele>1517</ele>
        <time>1970-01-01T02:06:14.000Z</time>
      </trkpt>
      <trkpt lat="42.425535" lon="0.844113">
        <ele>1516.4</ele>
        <time>1970-01-01T02:06:20.000Z</time>
      </trkpt>
      <trkpt lat="42.425491" lon="0.843861">
        <ele>1516.4</ele>
        <time>1970-01-01T02:06:24.000Z</time>
      </trkpt>
      <trkpt lat="42.425464" lon="0.843673">
        <ele>1515.8</ele>
        <time>1970-01-01T02:06:27.000Z</time>
      </trkpt>
      <trkpt lat="42.425444" lon="0.843554">
        <ele>1515</ele>
        <time>1970-01-01T02:06:29.000Z</time>
      </trkpt>
      <trkpt lat="42.425427" lon="0.843497">
        <ele>1514.6</ele>
        <time>1970-01-01T02:06:30.000Z</time>
      </trkpt>
      <trkpt lat="42.425352" lon="0.843323">
        <ele>1514</ele>
        <time>1970-01-01T02:06:33.000Z</time>
      </trkpt>
      <trkpt lat="42.425285" lon="0.84321">
        <ele>1514</ele>
        <time>1970-01-01T02:06:35.000Z</time>
      </trkpt>
      <trkpt lat="42.425208" lon="0.843105">
        <ele>1513.4</ele>
        <time>1970-01-01T02:06:37.000Z</time>
      </trkpt>
      <trkpt lat="42.424962" lon="0.842798">
        <ele>1512.2</ele>
        <time>1970-01-01T02:06:43.000Z</time>
      </trkpt>
      <trkpt lat="42.424916" lon="0.842761">
        <ele>1511.8</ele>
        <time>1970-01-01T02:06:44.000Z</time>
      </trkpt>
      <trkpt lat="42.424767" lon="0.842721">
        <ele>1510.8</ele>
        <time>1970-01-01T02:06:47.000Z</time>
      </trkpt>
      <trkpt lat="42.42464" lon="0.842797">
        <ele>1509.6</ele>
        <time>1970-01-01T02:06:50.000Z</time>
      </trkpt>
      <trkpt lat="42.424507" lon="0.843055">
        <ele>1508.4</ele>
        <time>1970-01-01T02:06:54.000Z</time>
      </trkpt>
      <trkpt lat="42.424413" lon="0.843194">
        <ele>1507.6</ele>
        <time>1970-01-01T02:06:56.000Z</time>
      </trkpt>
      <trkpt lat="42.424349" lon="0.843248">
        <ele>1507.2</ele>
        <time>1970-01-01T02:06:57.000Z</time>
      </trkpt>
      <trkpt lat="42.424194" lon="0.843313">
        <ele>1505.8</ele>
        <time>1970-01-01T02:06:59.000Z</time>
      </trkpt>
      <trkpt lat="42.424108" lon="0.843327">
        <ele>1505.4</ele>
        <time>1970-01-01T02:07:00.000Z</time>
      </trkpt>
      <trkpt lat="42.423937" lon="0.843335">
        <ele>1504.2</ele>
        <time>1970-01-01T02:07:02.000Z</time>
      </trkpt>
      <trkpt lat="42.423773" lon="0.84331">
        <ele>1503.2</ele>
        <time>1970-01-01T02:07:04.000Z</time>
      </trkpt>
      <trkpt lat="42.42361" lon="0.843221">
        <ele>1501.6</ele>
        <time>1970-01-01T02:07:06.000Z</time>
      </trkpt>
      <trkpt lat="42.423454" lon="0.843088">
        <ele>1500</ele>
        <time>1970-01-01T02:07:08.000Z</time>
      </trkpt>
      <trkpt lat="42.423377" lon="0.843029">
        <ele>1499.4</ele>
        <time>1970-01-01T02:07:09.000Z</time>
      </trkpt>
      <trkpt lat="42.423308" lon="0.842986">
        <ele>1498.6</ele>
        <time>1970-01-01T02:07:10.000Z</time>
      </trkpt>
      <trkpt lat="42.423207" lon="0.842937">
        <ele>1497.4</ele>
        <time>1970-01-01T02:07:12.000Z</time>
      </trkpt>
      <trkpt lat="42.423168" lon="0.842913">
        <ele>1496.8</ele>
        <time>1970-01-01T02:07:13.000Z</time>
      </trkpt>
      <trkpt lat="42.423119" lon="0.842836">
        <ele>1496.2</ele>
        <time>1970-01-01T02:07:15.000Z</time>
      </trkpt>
      <trkpt lat="42.423134" lon="0.842764">
        <ele>1495.6</ele>
        <time>1970-01-01T02:07:17.000Z</time>
      </trkpt>
      <trkpt lat="42.423205" lon="0.842733">
        <ele>1495</ele>
        <time>1970-01-01T02:07:19.000Z</time>
      </trkpt>
      <trkpt lat="42.423351" lon="0.842769">
        <ele>1494</ele>
        <time>1970-01-01T02:07:22.000Z</time>
      </trkpt>
      <trkpt lat="42.423581" lon="0.842845">
        <ele>1492.2</ele>
        <time>1970-01-01T02:07:26.000Z</time>
      </trkpt>
      <trkpt lat="42.423718" lon="0.842869">
        <ele>1491.2</ele>
        <time>1970-01-01T02:07:28.000Z</time>
      </trkpt>
      <trkpt lat="42.42399" lon="0.842879">
        <ele>1490</ele>
        <time>1970-01-01T02:07:32.000Z</time>
      </trkpt>
      <trkpt lat="42.424116" lon="0.842854">
        <ele>1489.4</ele>
        <time>1970-01-01T02:07:34.000Z</time>
      </trkpt>
      <trkpt lat="42.424169" lon="0.842828">
        <ele>1489</ele>
        <time>1970-01-01T02:07:35.000Z</time>
      </trkpt>
      <trkpt lat="42.424251" lon="0.842765">
        <ele>1488.2</ele>
        <time>1970-01-01T02:07:37.000Z</time>
      </trkpt>
      <trkpt lat="42.424292" lon="0.842685">
        <ele>1488</ele>
        <time>1970-01-01T02:07:39.000Z</time>
      </trkpt>
      <trkpt lat="42.424214" lon="0.842613">
        <ele>1486.8</ele>
        <time>1970-01-01T02:07:43.000Z</time>
      </trkpt>
      <trkpt lat="42.424136" lon="0.842648">
        <ele>1486.2</ele>
        <time>1970-01-01T02:07:45.000Z</time>
      </trkpt>
      <trkpt lat="42.424039" lon="0.842686">
        <ele>1485.4</ele>
        <time>1970-01-01T02:07:47.000Z</time>
      </trkpt>
      <trkpt lat="42.423983" lon="0.842694">
        <ele>1485</ele>
        <time>1970-01-01T02:07:48.000Z</time>
      </trkpt>
      <trkpt lat="42.423867" lon="0.842656">
        <ele>1484.2</ele>
        <time>1970-01-01T02:07:50.000Z</time>
      </trkpt>
      <trkpt lat="42.4237" lon="0.84252">
        <ele>1482.8</ele>
        <time>1970-01-01T02:07:53.000Z</time>
      </trkpt>
      <trkpt lat="42.423599" lon="0.842374">
        <ele>1481.6</ele>
        <time>1970-01-01T02:07:55.000Z</time>
      </trkpt>
      <trkpt lat="42.42355" lon="0.842287">
        <ele>1481.2</ele>
        <time>1970-01-01T02:07:56.000Z</time>
      </trkpt>
      <trkpt lat="42.42345" lon="0.842101">
        <ele>1480.2</ele>
        <time>1970-01-01T02:07:58.000Z</time>
      </trkpt>
      <trkpt lat="42.423348" lon="0.8419">
        <ele>1478.8</ele>
        <time>1970-01-01T02:08:00.000Z</time>
      </trkpt>
      <trkpt lat="42.423244" lon="0.841728">
        <ele>1477</ele>
        <time>1970-01-01T02:08:02.000Z</time>
      </trkpt>
      <trkpt lat="42.423194" lon="0.841663">
        <ele>1476</ele>
        <time>1970-01-01T02:08:03.000Z</time>
      </trkpt>
      <trkpt lat="42.423144" lon="0.841615">
        <ele>1475.4</ele>
        <time>1970-01-01T02:08:04.000Z</time>
      </trkpt>
      <trkpt lat="42.423097" lon="0.84158">
        <ele>1474.6</ele>
        <time>1970-01-01T02:08:05.000Z</time>
      </trkpt>
      <trkpt lat="42.423051" lon="0.841557">
        <ele>1473.8</ele>
        <time>1970-01-01T02:08:06.000Z</time>
      </trkpt>
      <trkpt lat="42.422919" lon="0.841583">
        <ele>1472.4</ele>
        <time>1970-01-01T02:08:09.000Z</time>
      </trkpt>
      <trkpt lat="42.422858" lon="0.841645">
        <ele>1471.4</ele>
        <time>1970-01-01T02:08:11.000Z</time>
      </trkpt>
      <trkpt lat="42.422836" lon="0.841673">
        <ele>1471</ele>
        <time>1970-01-01T02:08:12.000Z</time>
      </trkpt>
      <trkpt lat="42.422708" lon="0.841863">
        <ele>1469.8</ele>
        <time>1970-01-01T02:08:16.000Z</time>
      </trkpt>
      <trkpt lat="42.422613" lon="0.841991">
        <ele>1468.8</ele>
        <time>1970-01-01T02:08:18.000Z</time>
      </trkpt>
      <trkpt lat="42.422507" lon="0.842099">
        <ele>1467.6</ele>
        <time>1970-01-01T02:08:20.000Z</time>
      </trkpt>
      <trkpt lat="42.422377" lon="0.842146">
        <ele>1466</ele>
        <time>1970-01-01T02:08:22.000Z</time>
      </trkpt>
      <trkpt lat="42.422241" lon="0.842109">
        <ele>1464.6</ele>
        <time>1970-01-01T02:08:24.000Z</time>
      </trkpt>
      <trkpt lat="42.422125" lon="0.842025">
        <ele>1463.4</ele>
        <time>1970-01-01T02:08:26.000Z</time>
      </trkpt>
      <trkpt lat="42.422077" lon="0.841982">
        <ele>1462.6</ele>
        <time>1970-01-01T02:08:27.000Z</time>
      </trkpt>
      <trkpt lat="42.422033" lon="0.84194">
        <ele>1462</ele>
        <time>1970-01-01T02:08:28.000Z</time>
      </trkpt>
      <trkpt lat="42.421901" lon="0.841799">
        <ele>1461</ele>
        <time>1970-01-01T02:08:31.000Z</time>
      </trkpt>
      <trkpt lat="42.421721" lon="0.841661">
        <ele>1460</ele>
        <time>1970-01-01T02:08:34.000Z</time>
      </trkpt>
      <trkpt lat="42.421647" lon="0.841628">
        <ele>1459.2</ele>
        <time>1970-01-01T02:08:35.000Z</time>
      </trkpt>
      <trkpt lat="42.421483" lon="0.84158">
        <ele>1457.6</ele>
        <time>1970-01-01T02:08:37.000Z</time>
      </trkpt>
      <trkpt lat="42.421395" lon="0.84156">
        <ele>1456.6</ele>
        <time>1970-01-01T02:08:38.000Z</time>
      </trkpt>
      <trkpt lat="42.421211" lon="0.841525">
        <ele>1455</ele>
        <time>1970-01-01T02:08:40.000Z</time>
      </trkpt>
      <trkpt lat="42.421019" lon="0.841515">
        <ele>1453.2</ele>
        <time>1970-01-01T02:08:42.000Z</time>
      </trkpt>
      <trkpt lat="42.420831" lon="0.841515">
        <ele>1451.4</ele>
        <time>1970-01-01T02:08:44.000Z</time>
      </trkpt>
      <trkpt lat="42.420661" lon="0.841505">
        <ele>1449.8</ele>
        <time>1970-01-01T02:08:46.000Z</time>
      </trkpt>
      <trkpt lat="42.420584" lon="0.841493">
        <ele>1449</ele>
        <time>1970-01-01T02:08:47.000Z</time>
      </trkpt>
      <trkpt lat="42.420516" lon="0.841469">
        <ele>1448.2</ele>
        <time>1970-01-01T02:08:48.000Z</time>
      </trkpt>
      <trkpt lat="42.420372" lon="0.841285">
        <ele>1447.2</ele>
        <time>1970-01-01T02:08:51.000Z</time>
      </trkpt>
      <trkpt lat="42.420321" lon="0.841137">
        <ele>1446.4</ele>
        <time>1970-01-01T02:08:53.000Z</time>
      </trkpt>
      <trkpt lat="42.420261" lon="0.840989">
        <ele>1445.8</ele>
        <time>1970-01-01T02:08:55.000Z</time>
      </trkpt>
      <trkpt lat="42.420188" lon="0.840849">
        <ele>1445.2</ele>
        <time>1970-01-01T02:08:57.000Z</time>
      </trkpt>
      <trkpt lat="42.420104" lon="0.840707">
        <ele>1444.4</ele>
        <time>1970-01-01T02:08:59.000Z</time>
      </trkpt>
      <trkpt lat="42.419887" lon="0.840513">
        <ele>1443.2</ele>
        <time>1970-01-01T02:09:03.000Z</time>
      </trkpt>
      <trkpt lat="42.419821" lon="0.840486">
        <ele>1443</ele>
        <time>1970-01-01T02:09:04.000Z</time>
      </trkpt>
      <trkpt lat="42.419613" lon="0.840408">
        <ele>1442</ele>
        <time>1970-01-01T02:09:07.000Z</time>
      </trkpt>
      <trkpt lat="42.419415" lon="0.840273">
        <ele>1441.4</ele>
        <time>1970-01-01T02:09:10.000Z</time>
      </trkpt>
      <trkpt lat="42.419314" lon="0.84015">
        <ele>1441</ele>
        <time>1970-01-01T02:09:12.000Z</time>
      </trkpt>
      <trkpt lat="42.41923" lon="0.840012">
        <ele>1440.6</ele>
        <time>1970-01-01T02:09:14.000Z</time>
      </trkpt>
      <trkpt lat="42.419142" lon="0.839884">
        <ele>1440.4</ele>
        <time>1970-01-01T02:09:16.000Z</time>
      </trkpt>
      <trkpt lat="42.419033" lon="0.839788">
        <ele>1440</ele>
        <time>1970-01-01T02:09:18.000Z</time>
      </trkpt>
      <trkpt lat="42.418828" lon="0.839636">
        <ele>1438.4</ele>
        <time>1970-01-01T02:09:21.000Z</time>
      </trkpt>
      <trkpt lat="42.418678" lon="0.839506">
        <ele>1437.4</ele>
        <time>1970-01-01T02:09:23.000Z</time>
      </trkpt>
      <trkpt lat="42.418607" lon="0.839436">
        <ele>1436.2</ele>
        <time>1970-01-01T02:09:24.000Z</time>
      </trkpt>
      <trkpt lat="42.418537" lon="0.839357">
        <ele>1434.8</ele>
        <time>1970-01-01T02:09:25.000Z</time>
      </trkpt>
      <trkpt lat="42.418407" lon="0.839182">
        <ele>1433.2</ele>
        <time>1970-01-01T02:09:27.000Z</time>
      </trkpt>
      <trkpt lat="42.418293" lon="0.838987">
        <ele>1431.6</ele>
        <time>1970-01-01T02:09:29.000Z</time>
      </trkpt>
      <trkpt lat="42.41819" lon="0.838784">
        <ele>1430.6</ele>
        <time>1970-01-01T02:09:31.000Z</time>
      </trkpt>
      <trkpt lat="42.418086" lon="0.83857">
        <ele>1428.8</ele>
        <time>1970-01-01T02:09:33.000Z</time>
      </trkpt>
      <trkpt lat="42.417991" lon="0.838383">
        <ele>1427</ele>
        <time>1970-01-01T02:09:35.000Z</time>
      </trkpt>
      <trkpt lat="42.417907" lon="0.838251">
        <ele>1426</ele>
        <time>1970-01-01T02:09:37.000Z</time>
      </trkpt>
      <trkpt lat="42.417807" lon="0.838167">
        <ele>1424.8</ele>
        <time>1970-01-01T02:09:39.000Z</time>
      </trkpt>
      <trkpt lat="42.417747" lon="0.838149">
        <ele>1423.6</ele>
        <time>1970-01-01T02:09:40.000Z</time>
      </trkpt>
      <trkpt lat="42.417611" lon="0.838166">
        <ele>1422.4</ele>
        <time>1970-01-01T02:09:42.000Z</time>
      </trkpt>
      <trkpt lat="42.41754" lon="0.838187">
        <ele>1422</ele>
        <time>1970-01-01T02:09:43.000Z</time>
      </trkpt>
      <trkpt lat="42.417384" lon="0.838231">
        <ele>1421</ele>
        <time>1970-01-01T02:09:45.000Z</time>
      </trkpt>
      <trkpt lat="42.417216" lon="0.838258">
        <ele>1419.6</ele>
        <time>1970-01-01T02:09:47.000Z</time>
      </trkpt>
      <trkpt lat="42.417039" lon="0.838279">
        <ele>1418.2</ele>
        <time>1970-01-01T02:09:49.000Z</time>
      </trkpt>
      <trkpt lat="42.416945" lon="0.838296">
        <ele>1417.6</ele>
        <time>1970-01-01T02:09:50.000Z</time>
      </trkpt>
      <trkpt lat="42.416851" lon="0.838322">
        <ele>1416.8</ele>
        <time>1970-01-01T02:09:51.000Z</time>
      </trkpt>
      <trkpt lat="42.416663" lon="0.838393">
        <ele>1415.2</ele>
        <time>1970-01-01T02:09:53.000Z</time>
      </trkpt>
      <trkpt lat="42.416483" lon="0.838485">
        <ele>1413.8</ele>
        <time>1970-01-01T02:09:55.000Z</time>
      </trkpt>
      <trkpt lat="42.416396" lon="0.838537">
        <ele>1412.8</ele>
        <time>1970-01-01T02:09:56.000Z</time>
      </trkpt>
      <trkpt lat="42.416228" lon="0.838641">
        <ele>1411.4</ele>
        <time>1970-01-01T02:09:58.000Z</time>
      </trkpt>
      <trkpt lat="42.416054" lon="0.838728">
        <ele>1410.2</ele>
        <time>1970-01-01T02:10:00.000Z</time>
      </trkpt>
      <trkpt lat="42.41579" lon="0.838825">
        <ele>1409</ele>
        <time>1970-01-01T02:10:03.000Z</time>
      </trkpt>
      <trkpt lat="42.415713" lon="0.838833">
        <ele>1408.2</ele>
        <time>1970-01-01T02:10:04.000Z</time>
      </trkpt>
      <trkpt lat="42.415637" lon="0.83882">
        <ele>1407.6</ele>
        <time>1970-01-01T02:10:05.000Z</time>
      </trkpt>
      <trkpt lat="42.415489" lon="0.838736">
        <ele>1406.2</ele>
        <time>1970-01-01T02:10:07.000Z</time>
      </trkpt>
      <trkpt lat="42.415419" lon="0.838682">
        <ele>1405.4</ele>
        <time>1970-01-01T02:10:08.000Z</time>
      </trkpt>
      <trkpt lat="42.415351" lon="0.83863">
        <ele>1404.8</ele>
        <time>1970-01-01T02:10:09.000Z</time>
      </trkpt>
      <trkpt lat="42.415235" lon="0.83854">
        <ele>1403.4</ele>
        <time>1970-01-01T02:10:11.000Z</time>
      </trkpt>
      <trkpt lat="42.415138" lon="0.83842">
        <ele>1402.2</ele>
        <time>1970-01-01T02:10:13.000Z</time>
      </trkpt>
      <trkpt lat="42.415086" lon="0.838357">
        <ele>1401</ele>
        <time>1970-01-01T02:10:14.000Z</time>
      </trkpt>
      <trkpt lat="42.414983" lon="0.838232">
        <ele>1399.4</ele>
        <time>1970-01-01T02:10:16.000Z</time>
      </trkpt>
      <trkpt lat="42.414932" lon="0.838175">
        <ele>1398.8</ele>
        <time>1970-01-01T02:10:17.000Z</time>
      </trkpt>
      <trkpt lat="42.414884" lon="0.838135">
        <ele>1398.2</ele>
        <time>1970-01-01T02:10:18.000Z</time>
      </trkpt>
      <trkpt lat="42.4148" lon="0.838102">
        <ele>1397.2</ele>
        <time>1970-01-01T02:10:20.000Z</time>
      </trkpt>
      <trkpt lat="42.414676" lon="0.838106">
        <ele>1395.8</ele>
        <time>1970-01-01T02:10:23.000Z</time>
      </trkpt>
      <trkpt lat="42.414579" lon="0.838108">
        <ele>1394.8</ele>
        <time>1970-01-01T02:10:26.000Z</time>
      </trkpt>
      <trkpt lat="42.414404" lon="0.838085">
        <ele>1393.6</ele>
        <time>1970-01-01T02:10:30.000Z</time>
      </trkpt>
      <trkpt lat="42.41421" lon="0.83807">
        <ele>1392.6</ele>
        <time>1970-01-01T02:10:34.000Z</time>
      </trkpt>
      <trkpt lat="42.414126" lon="0.838073">
        <ele>1392.4</ele>
        <time>1970-01-01T02:10:36.000Z</time>
      </trkpt>
      <trkpt lat="42.413817" lon="0.83815">
        <ele>1392.2</ele>
        <time>1970-01-01T02:10:50.000Z</time>
      </trkpt>
      <trkpt lat="42.41379" lon="0.838135">
        <ele>1391.8</ele>
        <time>1970-01-01T02:10:52.000Z</time>
      </trkpt>
      <trkpt lat="42.413776" lon="0.838127">
        <ele>1391.8</ele>
        <time>1970-01-01T02:10:54.000Z</time>
      </trkpt>
      <trkpt lat="42.413775" lon="0.838123">
        <ele>1391.6</ele>
        <time>1970-01-01T02:10:55.000Z</time>
      </trkpt>
      <trkpt lat="42.413854" lon="0.838325">
        <ele>1395.8</ele>
        <time>1970-01-01T02:21:56.000Z</time>
      </trkpt>
      <trkpt lat="42.413792" lon="0.83844">
        <ele>1396.8</ele>
        <time>1970-01-01T02:22:02.000Z</time>
      </trkpt>
      <trkpt lat="42.413783" lon="0.838514">
        <ele>1397.8</ele>
        <time>1970-01-01T02:22:06.000Z</time>
      </trkpt>
      <trkpt lat="42.413781" lon="0.838528">
        <ele>1398</ele>
        <time>1970-01-01T02:22:07.000Z</time>
      </trkpt>
      <trkpt lat="42.413771" lon="0.838648">
        <ele>1399.2</ele>
        <time>1970-01-01T02:22:14.000Z</time>
      </trkpt>
      <trkpt lat="42.413744" lon="0.838709">
        <ele>1400.2</ele>
        <time>1970-01-01T02:22:18.000Z</time>
      </trkpt>
      <trkpt lat="42.413712" lon="0.838752">
        <ele>1400.6</ele>
        <time>1970-01-01T02:22:21.000Z</time>
      </trkpt>
      <trkpt lat="42.413657" lon="0.838755">
        <ele>1401.2</ele>
        <time>1970-01-01T02:22:25.000Z</time>
      </trkpt>
      <trkpt lat="42.413644" lon="0.838752">
        <ele>1401.4</ele>
        <time>1970-01-01T02:22:26.000Z</time>
      </trkpt>
      <trkpt lat="42.413567" lon="0.838735">
        <ele>1402.4</ele>
        <time>1970-01-01T02:22:32.000Z</time>
      </trkpt>
      <trkpt lat="42.413543" lon="0.838728">
        <ele>1402.8</ele>
        <time>1970-01-01T02:22:34.000Z</time>
      </trkpt>
      <trkpt lat="42.413435" lon="0.838816">
        <ele>1403.4</ele>
        <time>1970-01-01T02:22:43.000Z</time>
      </trkpt>
      <trkpt lat="42.413418" lon="0.838845">
        <ele>1403.8</ele>
        <time>1970-01-01T02:22:45.000Z</time>
      </trkpt>
      <trkpt lat="42.413373" lon="0.838924">
        <ele>1404.6</ele>
        <time>1970-01-01T02:22:50.000Z</time>
      </trkpt>
      <trkpt lat="42.413321" lon="0.839048">
        <ele>1405.6</ele>
        <time>1970-01-01T02:22:57.000Z</time>
      </trkpt>
      <trkpt lat="42.413242" lon="0.839205">
        <ele>1406.6</ele>
        <time>1970-01-01T02:23:06.000Z</time>
      </trkpt>
      <trkpt lat="42.413139" lon="0.839349">
        <ele>1407.8</ele>
        <time>1970-01-01T02:23:15.000Z</time>
      </trkpt>
      <trkpt lat="42.413054" lon="0.839442">
        <ele>1408.8</ele>
        <time>1970-01-01T02:23:22.000Z</time>
      </trkpt>
      <trkpt lat="42.412982" lon="0.839658">
        <ele>1410</ele>
        <time>1970-01-01T02:23:34.000Z</time>
      </trkpt>
      <trkpt lat="42.413003" lon="0.83977">
        <ele>1411.2</ele>
        <time>1970-01-01T02:23:40.000Z</time>
      </trkpt>
      <trkpt lat="42.413021" lon="0.839851">
        <ele>1411.8</ele>
        <time>1970-01-01T02:23:44.000Z</time>
      </trkpt>
      <trkpt lat="42.413039" lon="0.83993">
        <ele>1412.2</ele>
        <time>1970-01-01T02:23:48.000Z</time>
      </trkpt>
      <trkpt lat="42.413037" lon="0.840054">
        <ele>1413.2</ele>
        <time>1970-01-01T02:23:54.000Z</time>
      </trkpt>
      <trkpt lat="42.412996" lon="0.840187">
        <ele>1414.2</ele>
        <time>1970-01-01T02:24:01.000Z</time>
      </trkpt>
      <trkpt lat="42.413026" lon="0.840327">
        <ele>1415.2</ele>
        <time>1970-01-01T02:24:07.000Z</time>
      </trkpt>
      <trkpt lat="42.413094" lon="0.84037">
        <ele>1415.8</ele>
        <time>1970-01-01T02:24:11.000Z</time>
      </trkpt>
      <trkpt lat="42.413148" lon="0.840335">
        <ele>1416.4</ele>
        <time>1970-01-01T02:24:14.000Z</time>
      </trkpt>
      <trkpt lat="42.413199" lon="0.840222">
        <ele>1417.4</ele>
        <time>1970-01-01T02:24:20.000Z</time>
      </trkpt>
      <trkpt lat="42.4132" lon="0.840202">
        <ele>1417.6</ele>
        <time>1970-01-01T02:24:21.000Z</time>
      </trkpt>
      <trkpt lat="42.413218" lon="0.840045">
        <ele>1418.6</ele>
        <time>1970-01-01T02:24:28.000Z</time>
      </trkpt>
      <trkpt lat="42.41323" lon="0.839902">
        <ele>1419.6</ele>
        <time>1970-01-01T02:24:35.000Z</time>
      </trkpt>
      <trkpt lat="42.413252" lon="0.839819">
        <ele>1420</ele>
        <time>1970-01-01T02:24:39.000Z</time>
      </trkpt>
      <trkpt lat="42.41332" lon="0.839736">
        <ele>1420.6</ele>
        <time>1970-01-01T02:24:45.000Z</time>
      </trkpt>
      <trkpt lat="42.413401" lon="0.839688">
        <ele>1421.2</ele>
        <time>1970-01-01T02:24:51.000Z</time>
      </trkpt>
      <trkpt lat="42.413432" lon="0.839681">
        <ele>1421.6</ele>
        <time>1970-01-01T02:24:53.000Z</time>
      </trkpt>
      <trkpt lat="42.413508" lon="0.839674">
        <ele>1422.6</ele>
        <time>1970-01-01T02:24:58.000Z</time>
      </trkpt>
      <trkpt lat="42.413524" lon="0.839674">
        <ele>1422.8</ele>
        <time>1970-01-01T02:24:59.000Z</time>
      </trkpt>
      <trkpt lat="42.413637" lon="0.839584">
        <ele>1423.8</ele>
        <time>1970-01-01T02:25:08.000Z</time>
      </trkpt>
      <trkpt lat="42.413661" lon="0.83956">
        <ele>1424.2</ele>
        <time>1970-01-01T02:25:10.000Z</time>
      </trkpt>
      <trkpt lat="42.41373" lon="0.839472">
        <ele>1425</ele>
        <time>1970-01-01T02:25:16.000Z</time>
      </trkpt>
      <trkpt lat="42.413758" lon="0.839454">
        <ele>1425.6</ele>
        <time>1970-01-01T02:25:18.000Z</time>
      </trkpt>
      <trkpt lat="42.413788" lon="0.83946">
        <ele>1425.8</ele>
        <time>1970-01-01T02:25:20.000Z</time>
      </trkpt>
      <trkpt lat="42.413811" lon="0.839488">
        <ele>1426</ele>
        <time>1970-01-01T02:25:22.000Z</time>
      </trkpt>
      <trkpt lat="42.413776" lon="0.839638">
        <ele>1426.8</ele>
        <time>1970-01-01T02:25:29.000Z</time>
      </trkpt>
      <trkpt lat="42.413752" lon="0.839676">
        <ele>1427.2</ele>
        <time>1970-01-01T02:25:31.000Z</time>
      </trkpt>
      <trkpt lat="42.41367" lon="0.839812">
        <ele>1428.2</ele>
        <time>1970-01-01T02:25:38.000Z</time>
      </trkpt>
      <trkpt lat="42.41361" lon="0.839989">
        <ele>1429.4</ele>
        <time>1970-01-01T02:25:46.000Z</time>
      </trkpt>
      <trkpt lat="42.413568" lon="0.840153">
        <ele>1430.4</ele>
        <time>1970-01-01T02:25:54.000Z</time>
      </trkpt>
      <trkpt lat="42.413555" lon="0.840259">
        <ele>1431</ele>
        <time>1970-01-01T02:25:59.000Z</time>
      </trkpt>
      <trkpt lat="42.413564" lon="0.840302">
        <ele>1431.4</ele>
        <time>1970-01-01T02:26:01.000Z</time>
      </trkpt>
      <trkpt lat="42.413561" lon="0.840323">
        <ele>1431.4</ele>
        <time>1970-01-01T02:26:02.000Z</time>
      </trkpt>
      <trkpt lat="42.413531" lon="0.840445">
        <ele>1432.4</ele>
        <time>1970-01-01T02:26:08.000Z</time>
      </trkpt>
      <trkpt lat="42.413528" lon="0.840468">
        <ele>1432.4</ele>
        <time>1970-01-01T02:26:09.000Z</time>
      </trkpt>
      <trkpt lat="42.4135" lon="0.840678">
        <ele>1433.8</ele>
        <time>1970-01-01T02:26:18.000Z</time>
      </trkpt>
      <trkpt lat="42.413411" lon="0.840828">
        <ele>1434.8</ele>
        <time>1970-01-01T02:26:27.000Z</time>
      </trkpt>
      <trkpt lat="42.41334" lon="0.840902">
        <ele>1435.2</ele>
        <time>1970-01-01T02:26:32.000Z</time>
      </trkpt>
      <trkpt lat="42.413299" lon="0.840905">
        <ele>1435.8</ele>
        <time>1970-01-01T02:26:35.000Z</time>
      </trkpt>
      <trkpt lat="42.413165" lon="0.840968">
        <ele>1437</ele>
        <time>1970-01-01T02:26:43.000Z</time>
      </trkpt>
      <trkpt lat="42.413008" lon="0.841118">
        <ele>1438</ele>
        <time>1970-01-01T02:26:54.000Z</time>
      </trkpt>
      <trkpt lat="42.412929" lon="0.841237">
        <ele>1439</ele>
        <time>1970-01-01T02:27:01.000Z</time>
      </trkpt>
      <trkpt lat="42.412802" lon="0.841431">
        <ele>1440.2</ele>
        <time>1970-01-01T02:27:12.000Z</time>
      </trkpt>
      <trkpt lat="42.412763" lon="0.841514">
        <ele>1441.4</ele>
        <time>1970-01-01T02:27:16.000Z</time>
      </trkpt>
      <trkpt lat="42.412722" lon="0.841773">
        <ele>1442.4</ele>
        <time>1970-01-01T02:27:27.000Z</time>
      </trkpt>
      <trkpt lat="42.412784" lon="0.841973">
        <ele>1443.6</ele>
        <time>1970-01-01T02:27:36.000Z</time>
      </trkpt>
      <trkpt lat="42.41275" lon="0.842123">
        <ele>1444.6</ele>
        <time>1970-01-01T02:27:43.000Z</time>
      </trkpt>
      <trkpt lat="42.412642" lon="0.842233">
        <ele>1445.6</ele>
        <time>1970-01-01T02:27:51.000Z</time>
      </trkpt>
      <trkpt lat="42.412519" lon="0.842333">
        <ele>1446.6</ele>
        <time>1970-01-01T02:28:00.000Z</time>
      </trkpt>
      <trkpt lat="42.412442" lon="0.842526">
        <ele>1447.6</ele>
        <time>1970-01-01T02:28:10.000Z</time>
      </trkpt>
      <trkpt lat="42.412354" lon="0.84283">
        <ele>1448.6</ele>
        <time>1970-01-01T02:28:23.000Z</time>
      </trkpt>
      <trkpt lat="42.412287" lon="0.843027">
        <ele>1449.6</ele>
        <time>1970-01-01T02:28:32.000Z</time>
      </trkpt>
      <trkpt lat="42.412255" lon="0.843165">
        <ele>1450.8</ele>
        <time>1970-01-01T02:28:38.000Z</time>
      </trkpt>
      <trkpt lat="42.412178" lon="0.843352">
        <ele>1451.8</ele>
        <time>1970-01-01T02:28:47.000Z</time>
      </trkpt>
      <trkpt lat="42.412095" lon="0.84356">
        <ele>1453</ele>
        <time>1970-01-01T02:28:57.000Z</time>
      </trkpt>
      <trkpt lat="42.412045" lon="0.843714">
        <ele>1454</ele>
        <time>1970-01-01T02:29:04.000Z</time>
      </trkpt>
      <trkpt lat="42.411965" lon="0.843922">
        <ele>1455</ele>
        <time>1970-01-01T02:29:14.000Z</time>
      </trkpt>
      <trkpt lat="42.411926" lon="0.844048">
        <ele>1456</ele>
        <time>1970-01-01T02:29:20.000Z</time>
      </trkpt>
      <trkpt lat="42.411895" lon="0.844216">
        <ele>1457</ele>
        <time>1970-01-01T02:29:28.000Z</time>
      </trkpt>
      <trkpt lat="42.411917" lon="0.844407">
        <ele>1458.2</ele>
        <time>1970-01-01T02:29:37.000Z</time>
      </trkpt>
      <trkpt lat="42.411962" lon="0.844678">
        <ele>1459.2</ele>
        <time>1970-01-01T02:29:49.000Z</time>
      </trkpt>
      <trkpt lat="42.411915" lon="0.844848">
        <ele>1460.6</ele>
        <time>1970-01-01T02:29:57.000Z</time>
      </trkpt>
      <trkpt lat="42.411819" lon="0.844873">
        <ele>1461.4</ele>
        <time>1970-01-01T02:30:03.000Z</time>
      </trkpt>
      <trkpt lat="42.411785" lon="0.844871">
        <ele>1461.6</ele>
        <time>1970-01-01T02:30:05.000Z</time>
      </trkpt>
      <trkpt lat="42.411715" lon="0.84486">
        <ele>1462.6</ele>
        <time>1970-01-01T02:30:09.000Z</time>
      </trkpt>
      <trkpt lat="42.411563" lon="0.844786">
        <ele>1463.8</ele>
        <time>1970-01-01T02:30:18.000Z</time>
      </trkpt>
      <trkpt lat="42.411424" lon="0.84481">
        <ele>1464.8</ele>
        <time>1970-01-01T02:30:26.000Z</time>
      </trkpt>
      <trkpt lat="42.411333" lon="0.84486">
        <ele>1465</ele>
        <time>1970-01-01T02:30:33.000Z</time>
      </trkpt>
      <trkpt lat="42.41129" lon="0.844885">
        <ele>1465.2</ele>
        <time>1970-01-01T02:30:41.000Z</time>
      </trkpt>
      <trkpt lat="42.41116" lon="0.844987">
        <ele>1465.8</ele>
        <time>1970-01-01T02:30:49.000Z</time>
      </trkpt>
      <trkpt lat="42.41103" lon="0.845096">
        <ele>1467</ele>
        <time>1970-01-01T02:30:57.000Z</time>
      </trkpt>
      <trkpt lat="42.410892" lon="0.845298">
        <ele>1468</ele>
        <time>1970-01-01T02:31:07.000Z</time>
      </trkpt>
      <trkpt lat="42.410835" lon="0.845516">
        <ele>1469</ele>
        <time>1970-01-01T02:31:16.000Z</time>
      </trkpt>
      <trkpt lat="42.410704" lon="0.845753">
        <ele>1470</ele>
        <time>1970-01-01T02:31:27.000Z</time>
      </trkpt>
      <trkpt lat="42.410474" lon="0.845785">
        <ele>1471</ele>
        <time>1970-01-01T02:31:39.000Z</time>
      </trkpt>
      <trkpt lat="42.410116" lon="0.846001">
        <ele>1472</ele>
        <time>1970-01-01T02:31:57.000Z</time>
      </trkpt>
      <trkpt lat="42.409886" lon="0.846128">
        <ele>1473.2</ele>
        <time>1970-01-01T02:32:08.000Z</time>
      </trkpt>
      <trkpt lat="42.409692" lon="0.846159">
        <ele>1474.2</ele>
        <time>1970-01-01T02:32:17.000Z</time>
      </trkpt>
      <trkpt lat="42.409581" lon="0.846092">
        <ele>1475.2</ele>
        <time>1970-01-01T02:32:23.000Z</time>
      </trkpt>
      <trkpt lat="42.409438" lon="0.846054">
        <ele>1476.4</ele>
        <time>1970-01-01T02:32:30.000Z</time>
      </trkpt>
      <trkpt lat="42.409255" lon="0.845989">
        <ele>1477.4</ele>
        <time>1970-01-01T02:32:39.000Z</time>
      </trkpt>
      <trkpt lat="42.409115" lon="0.845969">
        <ele>1478.2</ele>
        <time>1970-01-01T02:32:47.000Z</time>
      </trkpt>
      <trkpt lat="42.408957" lon="0.845946">
        <ele>1479.4</ele>
        <time>1970-01-01T02:32:56.000Z</time>
      </trkpt>
      <trkpt lat="42.408841" lon="0.845917">
        <ele>1480.4</ele>
        <time>1970-01-01T02:33:03.000Z</time>
      </trkpt>
      <trkpt lat="42.408715" lon="0.845967">
        <ele>1481.6</ele>
        <time>1970-01-01T02:33:10.000Z</time>
      </trkpt>
      <trkpt lat="42.408687" lon="0.845996">
        <ele>1481.8</ele>
        <time>1970-01-01T02:33:12.000Z</time>
      </trkpt>
      <trkpt lat="42.408603" lon="0.846094">
        <ele>1482.6</ele>
        <time>1970-01-01T02:33:18.000Z</time>
      </trkpt>
      <trkpt lat="42.408558" lon="0.845942">
        <ele>1483.4</ele>
        <time>1970-01-01T02:33:26.000Z</time>
      </trkpt>
      <trkpt lat="42.408599" lon="0.845859">
        <ele>1483.8</ele>
        <time>1970-01-01T02:33:30.000Z</time>
      </trkpt>
      <trkpt lat="42.408703" lon="0.845712">
        <ele>1485</ele>
        <time>1970-01-01T02:33:38.000Z</time>
      </trkpt>
      <trkpt lat="42.408726" lon="0.845519">
        <ele>1486</ele>
        <time>1970-01-01T02:33:46.000Z</time>
      </trkpt>
      <trkpt lat="42.408742" lon="0.845303">
        <ele>1487</ele>
        <time>1970-01-01T02:33:55.000Z</time>
      </trkpt>
      <trkpt lat="42.408729" lon="0.845188">
        <ele>1488</ele>
        <time>1970-01-01T02:34:00.000Z</time>
      </trkpt>
      <trkpt lat="42.408736" lon="0.844995">
        <ele>1489.2</ele>
        <time>1970-01-01T02:34:08.000Z</time>
      </trkpt>
      <trkpt lat="42.408737" lon="0.844827">
        <ele>1490.2</ele>
        <time>1970-01-01T02:34:14.000Z</time>
      </trkpt>
      <trkpt lat="42.408695" lon="0.844608">
        <ele>1491.4</ele>
        <time>1970-01-01T02:34:21.000Z</time>
      </trkpt>
      <trkpt lat="42.408693" lon="0.84407">
        <ele>1492.4</ele>
        <time>1970-01-01T02:34:36.000Z</time>
      </trkpt>
      <trkpt lat="42.408681" lon="0.844039">
        <ele>1492.2</ele>
        <time>1970-01-01T02:35:32.000Z</time>
      </trkpt>
      <trkpt lat="42.408697" lon="0.843565">
        <ele>1492.4</ele>
        <time>1970-01-01T02:35:45.000Z</time>
      </trkpt>
      <trkpt lat="42.408722" lon="0.842787">
        <ele>1492</ele>
        <time>1970-01-01T02:36:00.000Z</time>
      </trkpt>
      <trkpt lat="42.408726" lon="0.842382">
        <ele>1493.4</ele>
        <time>1970-01-01T02:36:09.000Z</time>
      </trkpt>
      <trkpt lat="42.408726" lon="0.842192">
        <ele>1494.6</ele>
        <time>1970-01-01T02:36:14.000Z</time>
      </trkpt>
      <trkpt lat="42.408668" lon="0.841877">
        <ele>1495.6</ele>
        <time>1970-01-01T02:36:22.000Z</time>
      </trkpt>
      <trkpt lat="42.408481" lon="0.841375">
        <ele>1496.6</ele>
        <time>1970-01-01T02:36:35.000Z</time>
      </trkpt>
      <trkpt lat="42.40837" lon="0.841029">
        <ele>1497.6</ele>
        <time>1970-01-01T02:36:44.000Z</time>
      </trkpt>
      <trkpt lat="42.408259" lon="0.840618">
        <ele>1498.8</ele>
        <time>1970-01-01T02:36:54.000Z</time>
      </trkpt>
      <trkpt lat="42.408064" lon="0.84034">
        <ele>1499.6</ele>
        <time>1970-01-01T02:37:03.000Z</time>
      </trkpt>
      <trkpt lat="42.407798" lon="0.840165">
        <ele>1500.8</ele>
        <time>1970-01-01T02:37:13.000Z</time>
      </trkpt>
      <trkpt lat="42.40778" lon="0.84012">
        <ele>1501</ele>
        <time>1970-01-01T02:37:16.000Z</time>
      </trkpt>
      <trkpt lat="42.407802" lon="0.840144">
        <ele>1501</ele>
        <time>1970-01-01T02:37:47.000Z</time>
      </trkpt>
      <trkpt lat="42.408101" lon="0.840356">
        <ele>1500.2</ele>
        <time>1970-01-01T02:37:58.000Z</time>
      </trkpt>
      <trkpt lat="42.408149" lon="0.84044">
        <ele>1499.6</ele>
        <time>1970-01-01T02:38:00.000Z</time>
      </trkpt>
      <trkpt lat="42.408195" lon="0.840525">
        <ele>1499.2</ele>
        <time>1970-01-01T02:38:03.000Z</time>
      </trkpt>
      <trkpt lat="42.408204" lon="0.840482">
        <ele>1499.2</ele>
        <time>1970-01-01T02:38:07.000Z</time>
      </trkpt>
      <trkpt lat="42.408015" lon="0.840322">
        <ele>1499.6</ele>
        <time>1970-01-01T02:38:17.000Z</time>
      </trkpt>
      <trkpt lat="42.407811" lon="0.840165">
        <ele>1500.6</ele>
        <time>1970-01-01T02:38:27.000Z</time>
      </trkpt>
      <trkpt lat="42.407767" lon="0.840104">
        <ele>1500.8</ele>
        <time>1970-01-01T02:38:33.000Z</time>
      </trkpt>
      <trkpt lat="42.407756" lon="0.840025">
        <ele>1500.6</ele>
        <time>1970-01-01T02:39:44.000Z</time>
      </trkpt>
      <trkpt lat="42.407645" lon="0.839689">
        <ele>1501.4</ele>
        <time>1970-01-01T02:39:53.000Z</time>
      </trkpt>
      <trkpt lat="42.407543" lon="0.839065">
        <ele>1502.6</ele>
        <time>1970-01-01T02:40:07.000Z</time>
      </trkpt>
      <trkpt lat="42.407531" lon="0.838842">
        <ele>1503.6</ele>
        <time>1970-01-01T02:40:12.000Z</time>
      </trkpt>
      <trkpt lat="42.407459" lon="0.838723">
        <ele>1504.4</ele>
        <time>1970-01-01T02:40:16.000Z</time>
      </trkpt>
      <trkpt lat="42.40736" lon="0.838808">
        <ele>1504.8</ele>
        <time>1970-01-01T02:40:20.000Z</time>
      </trkpt>
      <trkpt lat="42.40713" lon="0.83899">
        <ele>1506</ele>
        <time>1970-01-01T02:40:29.000Z</time>
      </trkpt>
      <trkpt lat="42.407077" lon="0.839042">
        <ele>1506.4</ele>
        <time>1970-01-01T02:40:31.000Z</time>
      </trkpt>
      <trkpt lat="42.40675" lon="0.839342">
        <ele>1507</ele>
        <time>1970-01-01T02:40:42.000Z</time>
      </trkpt>
      <trkpt lat="42.406442" lon="0.839379">
        <ele>1508</ele>
        <time>1970-01-01T02:40:51.000Z</time>
      </trkpt>
      <trkpt lat="42.406102" lon="0.839579">
        <ele>1509</ele>
        <time>1970-01-01T02:41:01.000Z</time>
      </trkpt>
      <trkpt lat="42.405592" lon="0.839734">
        <ele>1509.8</ele>
        <time>1970-01-01T02:41:14.000Z</time>
      </trkpt>
      <trkpt lat="42.405449" lon="0.839798">
        <ele>1509.8</ele>
        <time>1970-01-01T02:41:17.000Z</time>
      </trkpt>
      <trkpt lat="42.405242" lon="0.839835">
        <ele>1509.2</ele>
        <time>1970-01-01T02:41:21.000Z</time>
      </trkpt>
      <trkpt lat="42.405049" lon="0.839988">
        <ele>1508.6</ele>
        <time>1970-01-01T02:41:25.000Z</time>
      </trkpt>
      <trkpt lat="42.405004" lon="0.840026">
        <ele>1508.6</ele>
        <time>1970-01-01T02:41:26.000Z</time>
      </trkpt>
      <trkpt lat="42.404823" lon="0.840118">
        <ele>1508.2</ele>
        <time>1970-01-01T02:41:30.000Z</time>
      </trkpt>
      <trkpt lat="42.404447" lon="0.840522">
        <ele>1508.2</ele>
        <time>1970-01-01T02:41:39.000Z</time>
      </trkpt>
      <trkpt lat="42.404285" lon="0.840551">
        <ele>1509</ele>
        <time>1970-01-01T02:41:43.000Z</time>
      </trkpt>
      <trkpt lat="42.4041" lon="0.840651">
        <ele>1509.6</ele>
        <time>1970-01-01T02:41:49.000Z</time>
      </trkpt>
      <trkpt lat="42.404095" lon="0.840672">
        <ele>1509.6</ele>
        <time>1970-01-01T02:41:51.000Z</time>
      </trkpt>
      <trkpt lat="42.404084" lon="0.840684">
        <ele>1509.2</ele>
        <time>1970-01-01T02:42:20.000Z</time>
      </trkpt>
      <trkpt lat="42.40356" lon="0.84101">
        <ele>1508.2</ele>
        <time>1970-01-01T02:42:36.000Z</time>
      </trkpt>
      <trkpt lat="42.403517" lon="0.841039">
        <ele>1508</ele>
        <time>1970-01-01T02:42:37.000Z</time>
      </trkpt>
      <trkpt lat="42.403472" lon="0.841075">
        <ele>1507.8</ele>
        <time>1970-01-01T02:42:38.000Z</time>
      </trkpt>
      <trkpt lat="42.403326" lon="0.841235">
        <ele>1506.6</ele>
        <time>1970-01-01T02:42:42.000Z</time>
      </trkpt>
      <trkpt lat="42.403286" lon="0.841294">
        <ele>1505.6</ele>
        <time>1970-01-01T02:42:46.000Z</time>
      </trkpt>
      <trkpt lat="42.403266" lon="0.841315">
        <ele>1505.2</ele>
        <time>1970-01-01T02:43:00.000Z</time>
      </trkpt>
      <trkpt lat="42.403202" lon="0.841398">
        <ele>1504.2</ele>
        <time>1970-01-01T02:43:03.000Z</time>
      </trkpt>
      <trkpt lat="42.403114" lon="0.841504">
        <ele>1503.6</ele>
        <time>1970-01-01T02:43:06.000Z</time>
      </trkpt>
      <trkpt lat="42.403039" lon="0.841566">
        <ele>1502.8</ele>
        <time>1970-01-01T02:43:08.000Z</time>
      </trkpt>
      <trkpt lat="42.402915" lon="0.841647">
        <ele>1501.8</ele>
        <time>1970-01-01T02:43:11.000Z</time>
      </trkpt>
      <trkpt lat="42.402826" lon="0.841705">
        <ele>1500.6</ele>
        <time>1970-01-01T02:43:13.000Z</time>
      </trkpt>
      <trkpt lat="42.40264" lon="0.841773">
        <ele>1499</ele>
        <time>1970-01-01T02:43:17.000Z</time>
      </trkpt>
      <trkpt lat="42.402533" lon="0.841773">
        <ele>1497.6</ele>
        <time>1970-01-01T02:43:20.000Z</time>
      </trkpt>
      <trkpt lat="42.402522" lon="0.841775">
        <ele>1497.2</ele>
        <time>1970-01-01T02:43:22.000Z</time>
      </trkpt>
      <trkpt lat="42.402491" lon="0.841763">
        <ele>1497</ele>
        <time>1970-01-01T02:43:32.000Z</time>
      </trkpt>
      <trkpt lat="42.402378" lon="0.841734">
        <ele>1496.4</ele>
        <time>1970-01-01T02:43:35.000Z</time>
      </trkpt>
      <trkpt lat="42.40221" lon="0.841694">
        <ele>1494.8</ele>
        <time>1970-01-01T02:43:38.000Z</time>
      </trkpt>
      <trkpt lat="42.402004" lon="0.841645">
        <ele>1493.8</ele>
        <time>1970-01-01T02:43:41.000Z</time>
      </trkpt>
      <trkpt lat="42.401773" lon="0.841648">
        <ele>1492.2</ele>
        <time>1970-01-01T02:43:44.000Z</time>
      </trkpt>
      <trkpt lat="42.401637" lon="0.841694">
        <ele>1491.2</ele>
        <time>1970-01-01T02:43:46.000Z</time>
      </trkpt>
      <trkpt lat="42.401535" lon="0.841791">
        <ele>1490</ele>
        <time>1970-01-01T02:43:48.000Z</time>
      </trkpt>
      <trkpt lat="42.401465" lon="0.841924">
        <ele>1489</ele>
        <time>1970-01-01T02:43:50.000Z</time>
      </trkpt>
      <trkpt lat="42.401382" lon="0.842046">
        <ele>1487.8</ele>
        <time>1970-01-01T02:43:52.000Z</time>
      </trkpt>
      <trkpt lat="42.40134" lon="0.842102">
        <ele>1487</ele>
        <time>1970-01-01T02:43:53.000Z</time>
      </trkpt>
      <trkpt lat="42.401298" lon="0.842159">
        <ele>1486.6</ele>
        <time>1970-01-01T02:43:54.000Z</time>
      </trkpt>
      <trkpt lat="42.401177" lon="0.842314">
        <ele>1485.2</ele>
        <time>1970-01-01T02:43:57.000Z</time>
      </trkpt>
      <trkpt lat="42.401142" lon="0.842373">
        <ele>1485</ele>
        <time>1970-01-01T02:43:58.000Z</time>
      </trkpt>
      <trkpt lat="42.401072" lon="0.842503">
        <ele>1483.6</ele>
        <time>1970-01-01T02:44:00.000Z</time>
      </trkpt>
      <trkpt lat="42.401037" lon="0.842563">
        <ele>1483</ele>
        <time>1970-01-01T02:44:01.000Z</time>
      </trkpt>
      <trkpt lat="42.400993" lon="0.842616">
        <ele>1482.6</ele>
        <time>1970-01-01T02:44:02.000Z</time>
      </trkpt>
      <trkpt lat="42.400806" lon="0.842702">
        <ele>1481.4</ele>
        <time>1970-01-01T02:44:05.000Z</time>
      </trkpt>
      <trkpt lat="42.400517" lon="0.842615">
        <ele>1479.8</ele>
        <time>1970-01-01T02:44:09.000Z</time>
      </trkpt>
      <trkpt lat="42.400378" lon="0.842562">
        <ele>1478.4</ele>
        <time>1970-01-01T02:44:11.000Z</time>
      </trkpt>
      <trkpt lat="42.400266" lon="0.842524">
        <ele>1477</ele>
        <time>1970-01-01T02:44:13.000Z</time>
      </trkpt>
      <trkpt lat="42.400209" lon="0.842492">
        <ele>1476.6</ele>
        <time>1970-01-01T02:44:14.000Z</time>
      </trkpt>
      <trkpt lat="42.400154" lon="0.842447">
        <ele>1476</ele>
        <time>1970-01-01T02:44:15.000Z</time>
      </trkpt>
      <trkpt lat="42.400045" lon="0.842378">
        <ele>1474.8</ele>
        <time>1970-01-01T02:44:17.000Z</time>
      </trkpt>
      <trkpt lat="42.399878" lon="0.842358">
        <ele>1473.8</ele>
        <time>1970-01-01T02:44:20.000Z</time>
      </trkpt>
      <trkpt lat="42.399761" lon="0.842316">
        <ele>1472.8</ele>
        <time>1970-01-01T02:44:22.000Z</time>
      </trkpt>
      <trkpt lat="42.399705" lon="0.842299">
        <ele>1472.2</ele>
        <time>1970-01-01T02:44:23.000Z</time>
      </trkpt>
      <trkpt lat="42.399537" lon="0.842249">
        <ele>1471</ele>
        <time>1970-01-01T02:44:26.000Z</time>
      </trkpt>
      <trkpt lat="42.399448" lon="0.842134">
        <ele>1470.2</ele>
        <time>1970-01-01T02:44:28.000Z</time>
      </trkpt>
      <trkpt lat="42.399405" lon="0.842079">
        <ele>1469.8</ele>
        <time>1970-01-01T02:44:29.000Z</time>
      </trkpt>
      <trkpt lat="42.399305" lon="0.841995">
        <ele>1468.4</ele>
        <time>1970-01-01T02:44:31.000Z</time>
      </trkpt>
      <trkpt lat="42.399085" lon="0.841956">
        <ele>1467.2</ele>
        <time>1970-01-01T02:44:35.000Z</time>
      </trkpt>
      <trkpt lat="42.398971" lon="0.841925">
        <ele>1466.2</ele>
        <time>1970-01-01T02:44:37.000Z</time>
      </trkpt>
      <trkpt lat="42.398821" lon="0.841775">
        <ele>1465</ele>
        <time>1970-01-01T02:44:40.000Z</time>
      </trkpt>
      <trkpt lat="42.398732" lon="0.84165">
        <ele>1464.4</ele>
        <time>1970-01-01T02:44:42.000Z</time>
      </trkpt>
      <trkpt lat="42.398652" lon="0.841511">
        <ele>1463.8</ele>
        <time>1970-01-01T02:44:44.000Z</time>
      </trkpt>
      <trkpt lat="42.39851" lon="0.841303">
        <ele>1462.8</ele>
        <time>1970-01-01T02:44:47.000Z</time>
      </trkpt>
      <trkpt lat="42.398458" lon="0.841235">
        <ele>1462.6</ele>
        <time>1970-01-01T02:44:48.000Z</time>
      </trkpt>
      <trkpt lat="42.398367" lon="0.841006">
        <ele>1461.2</ele>
        <time>1970-01-01T02:44:51.000Z</time>
      </trkpt>
      <trkpt lat="42.398223" lon="0.840845">
        <ele>1460</ele>
        <time>1970-01-01T02:44:54.000Z</time>
      </trkpt>
      <trkpt lat="42.398159" lon="0.840803">
        <ele>1459.6</ele>
        <time>1970-01-01T02:44:55.000Z</time>
      </trkpt>
      <trkpt lat="42.398031" lon="0.840727">
        <ele>1458.8</ele>
        <time>1970-01-01T02:44:57.000Z</time>
      </trkpt>
      <trkpt lat="42.397929" lon="0.840619">
        <ele>1457.6</ele>
        <time>1970-01-01T02:44:59.000Z</time>
      </trkpt>
      <trkpt lat="42.397856" lon="0.840488">
        <ele>1456.6</ele>
        <time>1970-01-01T02:45:01.000Z</time>
      </trkpt>
      <trkpt lat="42.397823" lon="0.840411">
        <ele>1455.8</ele>
        <time>1970-01-01T02:45:02.000Z</time>
      </trkpt>
      <trkpt lat="42.397795" lon="0.840327">
        <ele>1455.6</ele>
        <time>1970-01-01T02:45:03.000Z</time>
      </trkpt>
      <trkpt lat="42.397752" lon="0.840157">
        <ele>1454.6</ele>
        <time>1970-01-01T02:45:05.000Z</time>
      </trkpt>
      <trkpt lat="42.397741" lon="0.840069">
        <ele>1454.2</ele>
        <time>1970-01-01T02:45:06.000Z</time>
      </trkpt>
      <trkpt lat="42.397742" lon="0.839896">
        <ele>1453.2</ele>
        <time>1970-01-01T02:45:08.000Z</time>
      </trkpt>
      <trkpt lat="42.39776" lon="0.839807">
        <ele>1452.2</ele>
        <time>1970-01-01T02:45:09.000Z</time>
      </trkpt>
      <trkpt lat="42.397783" lon="0.839718">
        <ele>1451.6</ele>
        <time>1970-01-01T02:45:10.000Z</time>
      </trkpt>
      <trkpt lat="42.397807" lon="0.839628">
        <ele>1451</ele>
        <time>1970-01-01T02:45:11.000Z</time>
      </trkpt>
      <trkpt lat="42.397856" lon="0.839461">
        <ele>1450</ele>
        <time>1970-01-01T02:45:13.000Z</time>
      </trkpt>
      <trkpt lat="42.397887" lon="0.839293">
        <ele>1448.6</ele>
        <time>1970-01-01T02:45:15.000Z</time>
      </trkpt>
      <trkpt lat="42.397935" lon="0.839015">
        <ele>1447.2</ele>
        <time>1970-01-01T02:45:18.000Z</time>
      </trkpt>
      <trkpt lat="42.397967" lon="0.838824">
        <ele>1445.4</ele>
        <time>1970-01-01T02:45:20.000Z</time>
      </trkpt>
      <trkpt lat="42.397965" lon="0.838633">
        <ele>1444.2</ele>
        <time>1970-01-01T02:45:22.000Z</time>
      </trkpt>
      <trkpt lat="42.397958" lon="0.838535">
        <ele>1443.6</ele>
        <time>1970-01-01T02:45:23.000Z</time>
      </trkpt>
      <trkpt lat="42.397958" lon="0.838433">
        <ele>1443.2</ele>
        <time>1970-01-01T02:45:24.000Z</time>
      </trkpt>
      <trkpt lat="42.398042" lon="0.838176">
        <ele>1441.6</ele>
        <time>1970-01-01T02:45:27.000Z</time>
      </trkpt>
      <trkpt lat="42.398135" lon="0.838027">
        <ele>1440</ele>
        <time>1970-01-01T02:45:30.000Z</time>
      </trkpt>
      <trkpt lat="42.398092" lon="0.837935">
        <ele>1439</ele>
        <time>1970-01-01T02:45:33.000Z</time>
      </trkpt>
      <trkpt lat="42.397977" lon="0.838051">
        <ele>1438</ele>
        <time>1970-01-01T02:45:37.000Z</time>
      </trkpt>
      <trkpt lat="42.39796" lon="0.838102">
        <ele>1437.6</ele>
        <time>1970-01-01T02:45:38.000Z</time>
      </trkpt>
      <trkpt lat="42.397938" lon="0.838159">
        <ele>1437.2</ele>
        <time>1970-01-01T02:45:39.000Z</time>
      </trkpt>
      <trkpt lat="42.397882" lon="0.838284">
        <ele>1436.4</ele>
        <time>1970-01-01T02:45:41.000Z</time>
      </trkpt>
      <trkpt lat="42.397828" lon="0.838435">
        <ele>1435.6</ele>
        <time>1970-01-01T02:45:43.000Z</time>
      </trkpt>
      <trkpt lat="42.397807" lon="0.838522">
        <ele>1435.2</ele>
        <time>1970-01-01T02:45:44.000Z</time>
      </trkpt>
      <trkpt lat="42.397735" lon="0.838772">
        <ele>1433.8</ele>
        <time>1970-01-01T02:45:47.000Z</time>
      </trkpt>
      <trkpt lat="42.397703" lon="0.838846">
        <ele>1433.4</ele>
        <time>1970-01-01T02:45:48.000Z</time>
      </trkpt>
      <trkpt lat="42.397632" lon="0.838979">
        <ele>1432.6</ele>
        <time>1970-01-01T02:45:50.000Z</time>
      </trkpt>
      <trkpt lat="42.397588" lon="0.839106">
        <ele>1431.2</ele>
        <time>1970-01-01T02:45:53.000Z</time>
      </trkpt>
      <trkpt lat="42.397566" lon="0.839175">
        <ele>1430.6</ele>
        <time>1970-01-01T02:45:59.000Z</time>
      </trkpt>
      <trkpt lat="42.39754" lon="0.839223">
        <ele>1430.2</ele>
        <time>1970-01-01T02:46:04.000Z</time>
      </trkpt>
      <trkpt lat="42.39736" lon="0.83946">
        <ele>1429.2</ele>
        <time>1970-01-01T02:46:10.000Z</time>
      </trkpt>
      <trkpt lat="42.397323" lon="0.839519">
        <ele>1428.8</ele>
        <time>1970-01-01T02:46:11.000Z</time>
      </trkpt>
      <trkpt lat="42.397256" lon="0.839667">
        <ele>1427.8</ele>
        <time>1970-01-01T02:46:13.000Z</time>
      </trkpt>
      <trkpt lat="42.39719" lon="0.839817">
        <ele>1426.6</ele>
        <time>1970-01-01T02:46:15.000Z</time>
      </trkpt>
      <trkpt lat="42.39716" lon="0.839895">
        <ele>1426.2</ele>
        <time>1970-01-01T02:46:16.000Z</time>
      </trkpt>
      <trkpt lat="42.397101" lon="0.840068">
        <ele>1425.2</ele>
        <time>1970-01-01T02:46:18.000Z</time>
      </trkpt>
      <trkpt lat="42.39706" lon="0.840232">
        <ele>1424.4</ele>
        <time>1970-01-01T02:46:20.000Z</time>
      </trkpt>
      <trkpt lat="42.397041" lon="0.840301">
        <ele>1423.6</ele>
        <time>1970-01-01T02:46:21.000Z</time>
      </trkpt>
      <trkpt lat="42.397011" lon="0.840357">
        <ele>1422.8</ele>
        <time>1970-01-01T02:46:22.000Z</time>
      </trkpt>
      <trkpt lat="42.396861" lon="0.84041">
        <ele>1421.4</ele>
        <time>1970-01-01T02:46:25.000Z</time>
      </trkpt>
      <trkpt lat="42.396669" lon="0.840374">
        <ele>1420.2</ele>
        <time>1970-01-01T02:46:28.000Z</time>
      </trkpt>
      <trkpt lat="42.396345" lon="0.840506">
        <ele>1420</ele>
        <time>1970-01-01T02:46:34.000Z</time>
      </trkpt>
      <trkpt lat="42.396147" lon="0.840666">
        <ele>1421.2</ele>
        <time>1970-01-01T02:46:40.000Z</time>
      </trkpt>
      <trkpt lat="42.395656" lon="0.840993">
        <ele>1421.6</ele>
        <time>1970-01-01T02:46:53.000Z</time>
      </trkpt>
      <trkpt lat="42.395457" lon="0.841102">
        <ele>1421.6</ele>
        <time>1970-01-01T02:46:58.000Z</time>
      </trkpt>
      <trkpt lat="42.39497" lon="0.841418">
        <ele>1421.2</ele>
        <time>1970-01-01T02:47:10.000Z</time>
      </trkpt>
      <trkpt lat="42.394544" lon="0.841463">
        <ele>1420.4</ele>
        <time>1970-01-01T02:47:20.000Z</time>
      </trkpt>
      <trkpt lat="42.394419" lon="0.841521">
        <ele>1420.4</ele>
        <time>1970-01-01T02:47:23.000Z</time>
      </trkpt>
      <trkpt lat="42.394228" lon="0.841684">
        <ele>1422.4</ele>
        <time>1970-01-01T02:47:30.000Z</time>
      </trkpt>
      <trkpt lat="42.393995" lon="0.84235">
        <ele>1423</ele>
        <time>1970-01-01T02:47:46.000Z</time>
      </trkpt>
      <trkpt lat="42.393951" lon="0.842679">
        <ele>1422.6</ele>
        <time>1970-01-01T02:47:53.000Z</time>
      </trkpt>
      <trkpt lat="42.393733" lon="0.843015">
        <ele>1421</ele>
        <time>1970-01-01T02:48:00.000Z</time>
      </trkpt>
      <trkpt lat="42.393692" lon="0.843062">
        <ele>1420.2</ele>
        <time>1970-01-01T02:48:01.000Z</time>
      </trkpt>
      <trkpt lat="42.39365" lon="0.843114">
        <ele>1419.8</ele>
        <time>1970-01-01T02:48:02.000Z</time>
      </trkpt>
      <trkpt lat="42.393573" lon="0.843235">
        <ele>1419.6</ele>
        <time>1970-01-01T02:48:04.000Z</time>
      </trkpt>
      <trkpt lat="42.393501" lon="0.843453">
        <ele>1418.6</ele>
        <time>1970-01-01T02:48:07.000Z</time>
      </trkpt>
      <trkpt lat="42.393466" lon="0.843683">
        <ele>1417.6</ele>
        <time>1970-01-01T02:48:10.000Z</time>
      </trkpt>
      <trkpt lat="42.393427" lon="0.843844">
        <ele>1416.6</ele>
        <time>1970-01-01T02:48:12.000Z</time>
      </trkpt>
      <trkpt lat="42.39332" lon="0.844169">
        <ele>1415.6</ele>
        <time>1970-01-01T02:48:16.000Z</time>
      </trkpt>
      <trkpt lat="42.393272" lon="0.844331">
        <ele>1415</ele>
        <time>1970-01-01T02:48:18.000Z</time>
      </trkpt>
      <trkpt lat="42.393252" lon="0.844495">
        <ele>1414.6</ele>
        <time>1970-01-01T02:48:20.000Z</time>
      </trkpt>
      <trkpt lat="42.393251" lon="0.844748">
        <ele>1414</ele>
        <time>1970-01-01T02:48:23.000Z</time>
      </trkpt>
      <trkpt lat="42.393248" lon="0.844924">
        <ele>1413.2</ele>
        <time>1970-01-01T02:48:25.000Z</time>
      </trkpt>
      <trkpt lat="42.393264" lon="0.845097">
        <ele>1412</ele>
        <time>1970-01-01T02:48:27.000Z</time>
      </trkpt>
      <trkpt lat="42.393309" lon="0.845361">
        <ele>1411.2</ele>
        <time>1970-01-01T02:48:30.000Z</time>
      </trkpt>
      <trkpt lat="42.393293" lon="0.845641">
        <ele>1409.8</ele>
        <time>1970-01-01T02:48:33.000Z</time>
      </trkpt>
      <trkpt lat="42.393285" lon="0.845714">
        <ele>1409.6</ele>
        <time>1970-01-01T02:48:34.000Z</time>
      </trkpt>
      <trkpt lat="42.393285" lon="0.845773">
        <ele>1408.6</ele>
        <time>1970-01-01T02:48:37.000Z</time>
      </trkpt>
      <trkpt lat="42.393292" lon="0.845671">
        <ele>1408.6</ele>
        <time>1970-01-01T02:48:51.000Z</time>
      </trkpt>
      <trkpt lat="42.393317" lon="0.845428">
        <ele>1409.6</ele>
        <time>1970-01-01T02:49:03.000Z</time>
      </trkpt>
      <trkpt lat="42.393294" lon="0.845224">
        <ele>1410.4</ele>
        <time>1970-01-01T02:49:16.000Z</time>
      </trkpt>
      <trkpt lat="42.393317" lon="0.845242">
        <ele>1409.8</ele>
        <time>1970-01-01T02:58:04.000Z</time>
      </trkpt>
      <trkpt lat="42.393303" lon="0.845603">
        <ele>1408.6</ele>
        <time>1970-01-01T02:58:12.000Z</time>
      </trkpt>
      <trkpt lat="42.393276" lon="0.845928">
        <ele>1407.2</ele>
        <time>1970-01-01T02:58:17.000Z</time>
      </trkpt>
      <trkpt lat="42.393281" lon="0.846271">
        <ele>1406</ele>
        <time>1970-01-01T02:58:22.000Z</time>
      </trkpt>
      <trkpt lat="42.393284" lon="0.846396">
        <ele>1405.2</ele>
        <time>1970-01-01T02:58:24.000Z</time>
      </trkpt>
      <trkpt lat="42.393291" lon="0.846458">
        <ele>1404.8</ele>
        <time>1970-01-01T02:58:25.000Z</time>
      </trkpt>
      <trkpt lat="42.393314" lon="0.846587">
        <ele>1403.8</ele>
        <time>1970-01-01T02:58:27.000Z</time>
      </trkpt>
      <trkpt lat="42.39334" lon="0.846715">
        <ele>1402.4</ele>
        <time>1970-01-01T02:58:29.000Z</time>
      </trkpt>
      <trkpt lat="42.393366" lon="0.84684">
        <ele>1400.8</ele>
        <time>1970-01-01T02:58:31.000Z</time>
      </trkpt>
      <trkpt lat="42.393427" lon="0.847026">
        <ele>1399.6</ele>
        <time>1970-01-01T02:58:34.000Z</time>
      </trkpt>
      <trkpt lat="42.393461" lon="0.847149">
        <ele>1398.4</ele>
        <time>1970-01-01T02:58:36.000Z</time>
      </trkpt>
      <trkpt lat="42.393394" lon="0.847385">
        <ele>1397.4</ele>
        <time>1970-01-01T02:58:40.000Z</time>
      </trkpt>
      <trkpt lat="42.393362" lon="0.847438">
        <ele>1397</ele>
        <time>1970-01-01T02:58:41.000Z</time>
      </trkpt>
      <trkpt lat="42.393294" lon="0.847534">
        <ele>1396.2</ele>
        <time>1970-01-01T02:58:43.000Z</time>
      </trkpt>
      <trkpt lat="42.393262" lon="0.847579">
        <ele>1395.8</ele>
        <time>1970-01-01T02:58:44.000Z</time>
      </trkpt>
      <trkpt lat="42.39324" lon="0.847625">
        <ele>1395</ele>
        <time>1970-01-01T02:58:45.000Z</time>
      </trkpt>
      <trkpt lat="42.393271" lon="0.847745">
        <ele>1393.6</ele>
        <time>1970-01-01T02:58:48.000Z</time>
      </trkpt>
      <trkpt lat="42.393342" lon="0.847749">
        <ele>1392.4</ele>
        <time>1970-01-01T02:58:50.000Z</time>
      </trkpt>
      <trkpt lat="42.393414" lon="0.847685">
        <ele>1391.6</ele>
        <time>1970-01-01T02:58:52.000Z</time>
      </trkpt>
      <trkpt lat="42.39345" lon="0.847649">
        <ele>1391.2</ele>
        <time>1970-01-01T02:58:53.000Z</time>
      </trkpt>
      <trkpt lat="42.393532" lon="0.847592">
        <ele>1390.4</ele>
        <time>1970-01-01T02:58:55.000Z</time>
      </trkpt>
      <trkpt lat="42.393573" lon="0.847569">
        <ele>1390.2</ele>
        <time>1970-01-01T02:58:56.000Z</time>
      </trkpt>
      <trkpt lat="42.393719" lon="0.84754">
        <ele>1388.6</ele>
        <time>1970-01-01T02:58:59.000Z</time>
      </trkpt>
      <trkpt lat="42.393888" lon="0.847639">
        <ele>1387.4</ele>
        <time>1970-01-01T02:59:03.000Z</time>
      </trkpt>
      <trkpt lat="42.393931" lon="0.84767">
        <ele>1387.2</ele>
        <time>1970-01-01T02:59:04.000Z</time>
      </trkpt>
      <trkpt lat="42.394144" lon="0.847707">
        <ele>1386</ele>
        <time>1970-01-01T02:59:08.000Z</time>
      </trkpt>
      <trkpt lat="42.394239" lon="0.847701">
        <ele>1384.8</ele>
        <time>1970-01-01T02:59:10.000Z</time>
      </trkpt>
      <trkpt lat="42.394378" lon="0.847687">
        <ele>1383.4</ele>
        <time>1970-01-01T02:59:13.000Z</time>
      </trkpt>
      <trkpt lat="42.394467" lon="0.847678">
        <ele>1382.2</ele>
        <time>1970-01-01T02:59:15.000Z</time>
      </trkpt>
      <trkpt lat="42.394581" lon="0.847589">
        <ele>1381</ele>
        <time>1970-01-01T02:59:18.000Z</time>
      </trkpt>
      <trkpt lat="42.39464" lon="0.84749">
        <ele>1379.4</ele>
        <time>1970-01-01T02:59:20.000Z</time>
      </trkpt>
      <trkpt lat="42.394714" lon="0.8473">
        <ele>1377.8</ele>
        <time>1970-01-01T02:59:23.000Z</time>
      </trkpt>
      <trkpt lat="42.394746" lon="0.847152">
        <ele>1376.4</ele>
        <time>1970-01-01T02:59:25.000Z</time>
      </trkpt>
      <trkpt lat="42.394765" lon="0.846999">
        <ele>1375.4</ele>
        <time>1970-01-01T02:59:27.000Z</time>
      </trkpt>
      <trkpt lat="42.394764" lon="0.846847">
        <ele>1373.8</ele>
        <time>1970-01-01T02:59:29.000Z</time>
      </trkpt>
      <trkpt lat="42.394726" lon="0.846726">
        <ele>1372.8</ele>
        <time>1970-01-01T02:59:31.000Z</time>
      </trkpt>
      <trkpt lat="42.394711" lon="0.84659">
        <ele>1371.6</ele>
        <time>1970-01-01T02:59:34.000Z</time>
      </trkpt>
      <trkpt lat="42.394735" lon="0.846573">
        <ele>1371</ele>
        <time>1970-01-01T02:59:35.000Z</time>
      </trkpt>
      <trkpt lat="42.394798" lon="0.846595">
        <ele>1370.2</ele>
        <time>1970-01-01T02:59:37.000Z</time>
      </trkpt>
      <trkpt lat="42.394877" lon="0.846785">
        <ele>1369</ele>
        <time>1970-01-01T02:59:41.000Z</time>
      </trkpt>
      <trkpt lat="42.394947" lon="0.846957">
        <ele>1367.6</ele>
        <time>1970-01-01T02:59:44.000Z</time>
      </trkpt>
      <trkpt lat="42.395" lon="0.847066">
        <ele>1366.6</ele>
        <time>1970-01-01T02:59:46.000Z</time>
      </trkpt>
      <trkpt lat="42.395084" lon="0.847234">
        <ele>1365</ele>
        <time>1970-01-01T02:59:49.000Z</time>
      </trkpt>
      <trkpt lat="42.395157" lon="0.847402">
        <ele>1363.4</ele>
        <time>1970-01-01T02:59:52.000Z</time>
      </trkpt>
      <trkpt lat="42.395227" lon="0.847515">
        <ele>1362</ele>
        <time>1970-01-01T02:59:55.000Z</time>
      </trkpt>
      <trkpt lat="42.39532" lon="0.847688">
        <ele>1360.6</ele>
        <time>1970-01-01T02:59:59.000Z</time>
      </trkpt>
      <trkpt lat="42.395362" lon="0.847761">
        <ele>1359.6</ele>
        <time>1970-01-01T03:00:01.000Z</time>
      </trkpt>
      <trkpt lat="42.395444" lon="0.847764">
        <ele>1358.4</ele>
        <time>1970-01-01T03:00:04.000Z</time>
      </trkpt>
      <trkpt lat="42.395504" lon="0.847644">
        <ele>1357.2</ele>
        <time>1970-01-01T03:00:07.000Z</time>
      </trkpt>
      <trkpt lat="42.39555" lon="0.847496">
        <ele>1356.2</ele>
        <time>1970-01-01T03:00:10.000Z</time>
      </trkpt>
      <trkpt lat="42.395569" lon="0.847448">
        <ele>1356</ele>
        <time>1970-01-01T03:00:11.000Z</time>
      </trkpt>
      <trkpt lat="42.39559" lon="0.847396">
        <ele>1355.6</ele>
        <time>1970-01-01T03:00:12.000Z</time>
      </trkpt>
      <trkpt lat="42.395598" lon="0.847222">
        <ele>1355</ele>
        <time>1970-01-01T03:00:15.000Z</time>
      </trkpt>
      <trkpt lat="42.395533" lon="0.847059">
        <ele>1354</ele>
        <time>1970-01-01T03:00:18.000Z</time>
      </trkpt>
      <trkpt lat="42.395447" lon="0.846928">
        <ele>1352.4</ele>
        <time>1970-01-01T03:00:21.000Z</time>
      </trkpt>
      <trkpt lat="42.395426" lon="0.846755">
        <ele>1351</ele>
        <time>1970-01-01T03:00:24.000Z</time>
      </trkpt>
      <trkpt lat="42.395427" lon="0.846689">
        <ele>1350.8</ele>
        <time>1970-01-01T03:00:25.000Z</time>
      </trkpt>
      <trkpt lat="42.395422" lon="0.846622">
        <ele>1350.6</ele>
        <time>1970-01-01T03:00:26.000Z</time>
      </trkpt>
      <trkpt lat="42.39549" lon="0.846474">
        <ele>1350</ele>
        <time>1970-01-01T03:00:30.000Z</time>
      </trkpt>
      <trkpt lat="42.395553" lon="0.846656">
        <ele>1348.8</ele>
        <time>1970-01-01T03:00:34.000Z</time>
      </trkpt>
      <trkpt lat="42.395559" lon="0.84678">
        <ele>1347.6</ele>
        <time>1970-01-01T03:00:36.000Z</time>
      </trkpt>
      <trkpt lat="42.395592" lon="0.846869">
        <ele>1346.6</ele>
        <time>1970-01-01T03:00:38.000Z</time>
      </trkpt>
      <trkpt lat="42.395687" lon="0.84699">
        <ele>1345.2</ele>
        <time>1970-01-01T03:00:41.000Z</time>
      </trkpt>
      <trkpt lat="42.395748" lon="0.847089">
        <ele>1344.4</ele>
        <time>1970-01-01T03:00:43.000Z</time>
      </trkpt>
      <trkpt lat="42.395781" lon="0.847147">
        <ele>1343.8</ele>
        <time>1970-01-01T03:00:44.000Z</time>
      </trkpt>
      <trkpt lat="42.395822" lon="0.847258">
        <ele>1342.6</ele>
        <time>1970-01-01T03:00:46.000Z</time>
      </trkpt>
      <trkpt lat="42.395852" lon="0.847388">
        <ele>1341.4</ele>
        <time>1970-01-01T03:00:48.000Z</time>
      </trkpt>
      <trkpt lat="42.395885" lon="0.847609">
        <ele>1340.2</ele>
        <time>1970-01-01T03:00:51.000Z</time>
      </trkpt>
      <trkpt lat="42.395905" lon="0.847759">
        <ele>1339</ele>
        <time>1970-01-01T03:00:53.000Z</time>
      </trkpt>
      <trkpt lat="42.395915" lon="0.847875">
        <ele>1337.8</ele>
        <time>1970-01-01T03:00:55.000Z</time>
      </trkpt>
      <trkpt lat="42.39592" lon="0.848001">
        <ele>1336.8</ele>
        <time>1970-01-01T03:00:57.000Z</time>
      </trkpt>
      <trkpt lat="42.39592" lon="0.848069">
        <ele>1336.4</ele>
        <time>1970-01-01T03:00:58.000Z</time>
      </trkpt>
      <trkpt lat="42.395919" lon="0.848135">
        <ele>1335.8</ele>
        <time>1970-01-01T03:00:59.000Z</time>
      </trkpt>
      <trkpt lat="42.395911" lon="0.848201">
        <ele>1335.2</ele>
        <time>1970-01-01T03:01:00.000Z</time>
      </trkpt>
      <trkpt lat="42.395838" lon="0.848348">
        <ele>1333.6</ele>
        <time>1970-01-01T03:01:03.000Z</time>
      </trkpt>
      <trkpt lat="42.395806" lon="0.848381">
        <ele>1333.4</ele>
        <time>1970-01-01T03:01:04.000Z</time>
      </trkpt>
      <trkpt lat="42.395759" lon="0.848455">
        <ele>1332.6</ele>
        <time>1970-01-01T03:01:06.000Z</time>
      </trkpt>
      <trkpt lat="42.395756" lon="0.848491">
        <ele>1332</ele>
        <time>1970-01-01T03:01:07.000Z</time>
      </trkpt>
      <trkpt lat="42.39577" lon="0.848527">
        <ele>1331.4</ele>
        <time>1970-01-01T03:01:08.000Z</time>
      </trkpt>
      <trkpt lat="42.395828" lon="0.848554">
        <ele>1330.2</ele>
        <time>1970-01-01T03:01:10.000Z</time>
      </trkpt>
      <trkpt lat="42.395937" lon="0.848424">
        <ele>1329.4</ele>
        <time>1970-01-01T03:01:14.000Z</time>
      </trkpt>
      <trkpt lat="42.395946" lon="0.848398">
        <ele>1328.8</ele>
        <time>1970-01-01T03:01:15.000Z</time>
      </trkpt>
      <trkpt lat="42.395975" lon="0.848246">
        <ele>1328</ele>
        <time>1970-01-01T03:01:19.000Z</time>
      </trkpt>
      <trkpt lat="42.396043" lon="0.847953">
        <ele>1326.8</ele>
        <time>1970-01-01T03:01:24.000Z</time>
      </trkpt>
      <trkpt lat="42.396064" lon="0.847901">
        <ele>1326.4</ele>
        <time>1970-01-01T03:01:25.000Z</time>
      </trkpt>
      <trkpt lat="42.396125" lon="0.847857">
        <ele>1325.8</ele>
        <time>1970-01-01T03:01:27.000Z</time>
      </trkpt>
      <trkpt lat="42.396181" lon="0.847971">
        <ele>1324.6</ele>
        <time>1970-01-01T03:01:30.000Z</time>
      </trkpt>
      <trkpt lat="42.396159" lon="0.848061">
        <ele>1323.4</ele>
        <time>1970-01-01T03:01:32.000Z</time>
      </trkpt>
      <trkpt lat="42.396137" lon="0.848102">
        <ele>1323</ele>
        <time>1970-01-01T03:01:33.000Z</time>
      </trkpt>
      <trkpt lat="42.396116" lon="0.848145">
        <ele>1322.4</ele>
        <time>1970-01-01T03:01:34.000Z</time>
      </trkpt>
      <trkpt lat="42.396076" lon="0.848334">
        <ele>1321</ele>
        <time>1970-01-01T03:01:37.000Z</time>
      </trkpt>
      <trkpt lat="42.396064" lon="0.84853">
        <ele>1320</ele>
        <time>1970-01-01T03:01:40.000Z</time>
      </trkpt>
      <trkpt lat="42.396056" lon="0.848639">
        <ele>1318.6</ele>
        <time>1970-01-01T03:01:42.000Z</time>
      </trkpt>
      <trkpt lat="42.396034" lon="0.848791">
        <ele>1317.4</ele>
        <time>1970-01-01T03:01:45.000Z</time>
      </trkpt>
      <trkpt lat="42.39599" lon="0.848861">
        <ele>1316.4</ele>
        <time>1970-01-01T03:01:47.000Z</time>
      </trkpt>
      <trkpt lat="42.395955" lon="0.848878">
        <ele>1315.8</ele>
        <time>1970-01-01T03:01:48.000Z</time>
      </trkpt>
      <trkpt lat="42.395913" lon="0.848881">
        <ele>1315.2</ele>
        <time>1970-01-01T03:01:49.000Z</time>
      </trkpt>
      <trkpt lat="42.395762" lon="0.848885">
        <ele>1313.8</ele>
        <time>1970-01-01T03:01:52.000Z</time>
      </trkpt>
      <trkpt lat="42.39563" lon="0.848907">
        <ele>1312.6</ele>
        <time>1970-01-01T03:01:55.000Z</time>
      </trkpt>
      <trkpt lat="42.395581" lon="0.848949">
        <ele>1311.4</ele>
        <time>1970-01-01T03:01:57.000Z</time>
      </trkpt>
      <trkpt lat="42.395582" lon="0.849016">
        <ele>1310.2</ele>
        <time>1970-01-01T03:01:59.000Z</time>
      </trkpt>
      <trkpt lat="42.395684" lon="0.849029">
        <ele>1309.2</ele>
        <time>1970-01-01T03:02:03.000Z</time>
      </trkpt>
      <trkpt lat="42.395728" lon="0.849015">
        <ele>1309</ele>
        <time>1970-01-01T03:02:04.000Z</time>
      </trkpt>
      <trkpt lat="42.39582" lon="0.848997">
        <ele>1308.2</ele>
        <time>1970-01-01T03:02:06.000Z</time>
      </trkpt>
      <trkpt lat="42.395907" lon="0.849012">
        <ele>1307</ele>
        <time>1970-01-01T03:02:08.000Z</time>
      </trkpt>
      <trkpt lat="42.395946" lon="0.849024">
        <ele>1306.8</ele>
        <time>1970-01-01T03:02:09.000Z</time>
      </trkpt>
      <trkpt lat="42.396081" lon="0.849069">
        <ele>1306</ele>
        <time>1970-01-01T03:02:12.000Z</time>
      </trkpt>
      <trkpt lat="42.396246" lon="0.849116">
        <ele>1305</ele>
        <time>1970-01-01T03:02:16.000Z</time>
      </trkpt>
      <trkpt lat="42.396345" lon="0.849199">
        <ele>1303.8</ele>
        <time>1970-01-01T03:02:20.000Z</time>
      </trkpt>
      <trkpt lat="42.396409" lon="0.849287">
        <ele>1302.6</ele>
        <time>1970-01-01T03:02:23.000Z</time>
      </trkpt>
      <trkpt lat="42.396495" lon="0.849351">
        <ele>1301.4</ele>
        <time>1970-01-01T03:02:26.000Z</time>
      </trkpt>
      <trkpt lat="42.396523" lon="0.849394">
        <ele>1300.8</ele>
        <time>1970-01-01T03:02:27.000Z</time>
      </trkpt>
      <trkpt lat="42.396556" lon="0.849495">
        <ele>1300</ele>
        <time>1970-01-01T03:02:29.000Z</time>
      </trkpt>
      <trkpt lat="42.396549" lon="0.84965">
        <ele>1299</ele>
        <time>1970-01-01T03:02:32.000Z</time>
      </trkpt>
      <trkpt lat="42.396499" lon="0.849735">
        <ele>1298.2</ele>
        <time>1970-01-01T03:02:34.000Z</time>
      </trkpt>
      <trkpt lat="42.396385" lon="0.849759">
        <ele>1296.8</ele>
        <time>1970-01-01T03:02:37.000Z</time>
      </trkpt>
      <trkpt lat="42.396304" lon="0.849742">
        <ele>1296.2</ele>
        <time>1970-01-01T03:02:39.000Z</time>
      </trkpt>
      <trkpt lat="42.396262" lon="0.84972">
        <ele>1295.6</ele>
        <time>1970-01-01T03:02:40.000Z</time>
      </trkpt>
      <trkpt lat="42.396177" lon="0.849658">
        <ele>1294.8</ele>
        <time>1970-01-01T03:02:42.000Z</time>
      </trkpt>
      <trkpt lat="42.396135" lon="0.849636">
        <ele>1294.2</ele>
        <time>1970-01-01T03:02:43.000Z</time>
      </trkpt>
      <trkpt lat="42.39605" lon="0.849615">
        <ele>1293.2</ele>
        <time>1970-01-01T03:02:45.000Z</time>
      </trkpt>
      <trkpt lat="42.39596" lon="0.849594">
        <ele>1292.2</ele>
        <time>1970-01-01T03:02:47.000Z</time>
      </trkpt>
      <trkpt lat="42.395851" lon="0.849573">
        <ele>1291</ele>
        <time>1970-01-01T03:02:49.000Z</time>
      </trkpt>
      <trkpt lat="42.395724" lon="0.849552">
        <ele>1289.4</ele>
        <time>1970-01-01T03:02:51.000Z</time>
      </trkpt>
      <trkpt lat="42.39559" lon="0.849523">
        <ele>1288.2</ele>
        <time>1970-01-01T03:02:53.000Z</time>
      </trkpt>
      <trkpt lat="42.395453" lon="0.849489">
        <ele>1287</ele>
        <time>1970-01-01T03:02:55.000Z</time>
      </trkpt>
      <trkpt lat="42.395335" lon="0.849465">
        <ele>1285.4</ele>
        <time>1970-01-01T03:02:57.000Z</time>
      </trkpt>
      <trkpt lat="42.395246" lon="0.849472">
        <ele>1283.8</ele>
        <time>1970-01-01T03:03:00.000Z</time>
      </trkpt>
      <trkpt lat="42.395232" lon="0.849482">
        <ele>1283.4</ele>
        <time>1970-01-01T03:03:02.000Z</time>
      </trkpt>
      <trkpt lat="42.395222" lon="0.849532">
        <ele>1283</ele>
        <time>1970-01-01T03:03:23.000Z</time>
      </trkpt>
      <trkpt lat="42.395204" lon="0.849625">
        <ele>1282.6</ele>
        <time>1970-01-01T03:03:25.000Z</time>
      </trkpt>
      <trkpt lat="42.395233" lon="0.849799">
        <ele>1281.4</ele>
        <time>1970-01-01T03:03:28.000Z</time>
      </trkpt>
      <trkpt lat="42.395258" lon="0.849931">
        <ele>1280.6</ele>
        <time>1970-01-01T03:03:30.000Z</time>
      </trkpt>
      <trkpt lat="42.3953" lon="0.850163">
        <ele>1279.4</ele>
        <time>1970-01-01T03:03:33.000Z</time>
      </trkpt>
      <trkpt lat="42.395374" lon="0.850498">
        <ele>1278.4</ele>
        <time>1970-01-01T03:03:37.000Z</time>
      </trkpt>
      <trkpt lat="42.39539" lon="0.850584">
        <ele>1278.2</ele>
        <time>1970-01-01T03:03:38.000Z</time>
      </trkpt>
      <trkpt lat="42.395357" lon="0.850902">
        <ele>1277.4</ele>
        <time>1970-01-01T03:03:42.000Z</time>
      </trkpt>
      <trkpt lat="42.395333" lon="0.850982">
        <ele>1277.2</ele>
        <time>1970-01-01T03:03:43.000Z</time>
      </trkpt>
      <trkpt lat="42.395315" lon="0.851068">
        <ele>1276.8</ele>
        <time>1970-01-01T03:03:44.000Z</time>
      </trkpt>
      <trkpt lat="42.395312" lon="0.851448">
        <ele>1276</ele>
        <time>1970-01-01T03:03:48.000Z</time>
      </trkpt>
      <trkpt lat="42.395314" lon="0.851546">
        <ele>1275.6</ele>
        <time>1970-01-01T03:03:49.000Z</time>
      </trkpt>
      <trkpt lat="42.395302" lon="0.851836">
        <ele>1274.6</ele>
        <time>1970-01-01T03:03:52.000Z</time>
      </trkpt>
      <trkpt lat="42.395294" lon="0.85199">
        <ele>1273.8</ele>
        <time>1970-01-01T03:03:54.000Z</time>
      </trkpt>
      <trkpt lat="42.395307" lon="0.852046">
        <ele>1273.4</ele>
        <time>1970-01-01T03:03:55.000Z</time>
      </trkpt>
      <trkpt lat="42.395443" lon="0.851904">
        <ele>1272</ele>
        <time>1970-01-01T03:04:00.000Z</time>
      </trkpt>
      <trkpt lat="42.395447" lon="0.851737">
        <ele>1271.4</ele>
        <time>1970-01-01T03:04:02.000Z</time>
      </trkpt>
      <trkpt lat="42.395448" lon="0.851647">
        <ele>1271</ele>
        <time>1970-01-01T03:04:03.000Z</time>
      </trkpt>
      <trkpt lat="42.395459" lon="0.851358">
        <ele>1269.8</ele>
        <time>1970-01-01T03:04:06.000Z</time>
      </trkpt>
      <trkpt lat="42.395508" lon="0.85116">
        <ele>1268.6</ele>
        <time>1970-01-01T03:04:08.000Z</time>
      </trkpt>
      <trkpt lat="42.395569" lon="0.850945">
        <ele>1267.4</ele>
        <time>1970-01-01T03:04:10.000Z</time>
      </trkpt>
      <trkpt lat="42.395631" lon="0.850751">
        <ele>1266.8</ele>
        <time>1970-01-01T03:04:12.000Z</time>
      </trkpt>
      <trkpt lat="42.395641" lon="0.85058">
        <ele>1266.4</ele>
        <time>1970-01-01T03:04:14.000Z</time>
      </trkpt>
      <trkpt lat="42.395617" lon="0.85042">
        <ele>1266</ele>
        <time>1970-01-01T03:04:16.000Z</time>
      </trkpt>
      <trkpt lat="42.395607" lon="0.85034">
        <ele>1265.6</ele>
        <time>1970-01-01T03:04:17.000Z</time>
      </trkpt>
      <trkpt lat="42.395605" lon="0.850267">
        <ele>1265.2</ele>
        <time>1970-01-01T03:04:18.000Z</time>
      </trkpt>
      <trkpt lat="42.395685" lon="0.850159">
        <ele>1264</ele>
        <time>1970-01-01T03:04:21.000Z</time>
      </trkpt>
      <trkpt lat="42.395806" lon="0.850232">
        <ele>1263</ele>
        <time>1970-01-01T03:04:24.000Z</time>
      </trkpt>
      <trkpt lat="42.395843" lon="0.85026">
        <ele>1262.8</ele>
        <time>1970-01-01T03:04:25.000Z</time>
      </trkpt>
      <trkpt lat="42.395924" lon="0.850327">
        <ele>1261.8</ele>
        <time>1970-01-01T03:04:27.000Z</time>
      </trkpt>
      <trkpt lat="42.395967" lon="0.850374">
        <ele>1261</ele>
        <time>1970-01-01T03:04:28.000Z</time>
      </trkpt>
      <trkpt lat="42.396061" lon="0.850478">
        <ele>1260</ele>
        <time>1970-01-01T03:04:30.000Z</time>
      </trkpt>
      <trkpt lat="42.396212" lon="0.850661">
        <ele>1258.8</ele>
        <time>1970-01-01T03:04:33.000Z</time>
      </trkpt>
      <trkpt lat="42.396373" lon="0.850856">
        <ele>1257.4</ele>
        <time>1970-01-01T03:04:36.000Z</time>
      </trkpt>
      <trkpt lat="42.396508" lon="0.850944">
        <ele>1256.4</ele>
        <time>1970-01-01T03:04:38.000Z</time>
      </trkpt>
      <trkpt lat="42.396735" lon="0.851054">
        <ele>1255</ele>
        <time>1970-01-01T03:04:41.000Z</time>
      </trkpt>
      <trkpt lat="42.39697" lon="0.851156">
        <ele>1253.6</ele>
        <time>1970-01-01T03:04:44.000Z</time>
      </trkpt>
      <trkpt lat="42.397264" lon="0.851117">
        <ele>1252.6</ele>
        <time>1970-01-01T03:04:48.000Z</time>
      </trkpt>
      <trkpt lat="42.39765" lon="0.851041">
        <ele>1251.2</ele>
        <time>1970-01-01T03:04:54.000Z</time>
      </trkpt>
      <trkpt lat="42.397713" lon="0.851046">
        <ele>1250.6</ele>
        <time>1970-01-01T03:04:55.000Z</time>
      </trkpt>
      <trkpt lat="42.397773" lon="0.851069">
        <ele>1249.6</ele>
        <time>1970-01-01T03:04:56.000Z</time>
      </trkpt>
      <trkpt lat="42.397881" lon="0.851145">
        <ele>1248.4</ele>
        <time>1970-01-01T03:04:58.000Z</time>
      </trkpt>
      <trkpt lat="42.398006" lon="0.851215">
        <ele>1247.4</ele>
        <time>1970-01-01T03:05:00.000Z</time>
      </trkpt>
      <trkpt lat="42.398069" lon="0.851241">
        <ele>1247</ele>
        <time>1970-01-01T03:05:01.000Z</time>
      </trkpt>
      <trkpt lat="42.398169" lon="0.851298">
        <ele>1246</ele>
        <time>1970-01-01T03:05:03.000Z</time>
      </trkpt>
      <trkpt lat="42.398225" lon="0.851462">
        <ele>1244.8</ele>
        <time>1970-01-01T03:05:06.000Z</time>
      </trkpt>
      <trkpt lat="42.398142" lon="0.851668">
        <ele>1243.8</ele>
        <time>1970-01-01T03:05:10.000Z</time>
      </trkpt>
      <trkpt lat="42.398108" lon="0.851721">
        <ele>1243.6</ele>
        <time>1970-01-01T03:05:11.000Z</time>
      </trkpt>
      <trkpt lat="42.398067" lon="0.851775">
        <ele>1243.4</ele>
        <time>1970-01-01T03:05:12.000Z</time>
      </trkpt>
      <trkpt lat="42.397944" lon="0.851869">
        <ele>1242</ele>
        <time>1970-01-01T03:05:14.000Z</time>
      </trkpt>
      <trkpt lat="42.397791" lon="0.851913">
        <ele>1240.4</ele>
        <time>1970-01-01T03:05:16.000Z</time>
      </trkpt>
      <trkpt lat="42.397717" lon="0.851924">
        <ele>1239.8</ele>
        <time>1970-01-01T03:05:17.000Z</time>
      </trkpt>
      <trkpt lat="42.397643" lon="0.851929">
        <ele>1239</ele>
        <time>1970-01-01T03:05:18.000Z</time>
      </trkpt>
      <trkpt lat="42.397495" lon="0.851904">
        <ele>1237.8</ele>
        <time>1970-01-01T03:05:20.000Z</time>
      </trkpt>
      <trkpt lat="42.397348" lon="0.851829">
        <ele>1236.6</ele>
        <time>1970-01-01T03:05:22.000Z</time>
      </trkpt>
      <trkpt lat="42.397218" lon="0.851751">
        <ele>1235.6</ele>
        <time>1970-01-01T03:05:24.000Z</time>
      </trkpt>
      <trkpt lat="42.397006" lon="0.851655">
        <ele>1234.6</ele>
        <time>1970-01-01T03:05:27.000Z</time>
      </trkpt>
      <trkpt lat="42.396853" lon="0.851594">
        <ele>1233.2</ele>
        <time>1970-01-01T03:05:29.000Z</time>
      </trkpt>
      <trkpt lat="42.396734" lon="0.851532">
        <ele>1231.4</ele>
        <time>1970-01-01T03:05:31.000Z</time>
      </trkpt>
      <trkpt lat="42.396637" lon="0.851587">
        <ele>1230</ele>
        <time>1970-01-01T03:05:34.000Z</time>
      </trkpt>
      <trkpt lat="42.396709" lon="0.85172">
        <ele>1228.6</ele>
        <time>1970-01-01T03:05:37.000Z</time>
      </trkpt>
      <trkpt lat="42.396837" lon="0.851776">
        <ele>1227.2</ele>
        <time>1970-01-01T03:05:39.000Z</time>
      </trkpt>
      <trkpt lat="42.396912" lon="0.851814">
        <ele>1226.6</ele>
        <time>1970-01-01T03:05:40.000Z</time>
      </trkpt>
      <trkpt lat="42.396982" lon="0.851869">
        <ele>1225.8</ele>
        <time>1970-01-01T03:05:41.000Z</time>
      </trkpt>
      <trkpt lat="42.397098" lon="0.851969">
        <ele>1224.6</ele>
        <time>1970-01-01T03:05:43.000Z</time>
      </trkpt>
      <trkpt lat="42.397184" lon="0.852047">
        <ele>1223.2</ele>
        <time>1970-01-01T03:05:45.000Z</time>
      </trkpt>
      <trkpt lat="42.397396" lon="0.852197">
        <ele>1221.8</ele>
        <time>1970-01-01T03:05:49.000Z</time>
      </trkpt>
      <trkpt lat="42.397464" lon="0.852226">
        <ele>1221.2</ele>
        <time>1970-01-01T03:05:50.000Z</time>
      </trkpt>
      <trkpt lat="42.397593" lon="0.852267">
        <ele>1220</ele>
        <time>1970-01-01T03:05:52.000Z</time>
      </trkpt>
      <trkpt lat="42.397685" lon="0.852306">
        <ele>1218.6</ele>
        <time>1970-01-01T03:05:54.000Z</time>
      </trkpt>
      <trkpt lat="42.397682" lon="0.852436">
        <ele>1217</ele>
        <time>1970-01-01T03:05:57.000Z</time>
      </trkpt>
      <trkpt lat="42.3976" lon="0.852478">
        <ele>1216.2</ele>
        <time>1970-01-01T03:05:59.000Z</time>
      </trkpt>
      <trkpt lat="42.397503" lon="0.852513">
        <ele>1216</ele>
        <time>1970-01-01T03:06:01.000Z</time>
      </trkpt>
      <trkpt lat="42.397158" lon="0.85273">
        <ele>1214.8</ele>
        <time>1970-01-01T03:06:08.000Z</time>
      </trkpt>
      <trkpt lat="42.397103" lon="0.852755">
        <ele>1214.6</ele>
        <time>1970-01-01T03:06:09.000Z</time>
      </trkpt>
      <trkpt lat="42.396991" lon="0.852811">
        <ele>1213.6</ele>
        <time>1970-01-01T03:06:11.000Z</time>
      </trkpt>
      <trkpt lat="42.396821" lon="0.853076">
        <ele>1212.4</ele>
        <time>1970-01-01T03:06:15.000Z</time>
      </trkpt>
      <trkpt lat="42.396793" lon="0.853263">
        <ele>1211.6</ele>
        <time>1970-01-01T03:06:17.000Z</time>
      </trkpt>
      <trkpt lat="42.396789" lon="0.853482">
        <ele>1210.2</ele>
        <time>1970-01-01T03:06:19.000Z</time>
      </trkpt>
      <trkpt lat="42.396729" lon="0.853697">
        <ele>1209</ele>
        <time>1970-01-01T03:06:21.000Z</time>
      </trkpt>
      <trkpt lat="42.39663" lon="0.853999">
        <ele>1207.4</ele>
        <time>1970-01-01T03:06:24.000Z</time>
      </trkpt>
      <trkpt lat="42.39657" lon="0.854185">
        <ele>1206</ele>
        <time>1970-01-01T03:06:26.000Z</time>
      </trkpt>
      <trkpt lat="42.39643" lon="0.854475">
        <ele>1204.4</ele>
        <time>1970-01-01T03:06:29.000Z</time>
      </trkpt>
      <trkpt lat="42.396345" lon="0.85468">
        <ele>1203</ele>
        <time>1970-01-01T03:06:31.000Z</time>
      </trkpt>
      <trkpt lat="42.39631" lon="0.854791">
        <ele>1202</ele>
        <time>1970-01-01T03:06:32.000Z</time>
      </trkpt>
      <trkpt lat="42.396282" lon="0.854915">
        <ele>1201</ele>
        <time>1970-01-01T03:06:33.000Z</time>
      </trkpt>
      <trkpt lat="42.39626" lon="0.855051">
        <ele>1200</ele>
        <time>1970-01-01T03:06:34.000Z</time>
      </trkpt>
      <trkpt lat="42.396244" lon="0.85519">
        <ele>1198.8</ele>
        <time>1970-01-01T03:06:35.000Z</time>
      </trkpt>
      <trkpt lat="42.396235" lon="0.85532">
        <ele>1197.6</ele>
        <time>1970-01-01T03:06:36.000Z</time>
      </trkpt>
      <trkpt lat="42.396229" lon="0.855441">
        <ele>1196.2</ele>
        <time>1970-01-01T03:06:37.000Z</time>
      </trkpt>
      <trkpt lat="42.396209" lon="0.855663">
        <ele>1194.6</ele>
        <time>1970-01-01T03:06:39.000Z</time>
      </trkpt>
      <trkpt lat="42.39619" lon="0.855766">
        <ele>1193.8</ele>
        <time>1970-01-01T03:06:40.000Z</time>
      </trkpt>
      <trkpt lat="42.396162" lon="0.855864">
        <ele>1193</ele>
        <time>1970-01-01T03:06:41.000Z</time>
      </trkpt>
      <trkpt lat="42.396125" lon="0.855959">
        <ele>1192.2</ele>
        <time>1970-01-01T03:06:42.000Z</time>
      </trkpt>
      <trkpt lat="42.396039" lon="0.856153">
        <ele>1190.6</ele>
        <time>1970-01-01T03:06:44.000Z</time>
      </trkpt>
      <trkpt lat="42.395943" lon="0.856346">
        <ele>1188.8</ele>
        <time>1970-01-01T03:06:46.000Z</time>
      </trkpt>
      <trkpt lat="42.395851" lon="0.856545">
        <ele>1187.2</ele>
        <time>1970-01-01T03:06:48.000Z</time>
      </trkpt>
      <trkpt lat="42.395815" lon="0.856651">
        <ele>1186.4</ele>
        <time>1970-01-01T03:06:49.000Z</time>
      </trkpt>
      <trkpt lat="42.395791" lon="0.856763">
        <ele>1185.4</ele>
        <time>1970-01-01T03:06:50.000Z</time>
      </trkpt>
      <trkpt lat="42.39578" lon="0.856878">
        <ele>1184.2</ele>
        <time>1970-01-01T03:06:51.000Z</time>
      </trkpt>
      <trkpt lat="42.395783" lon="0.857094">
        <ele>1183</ele>
        <time>1970-01-01T03:06:53.000Z</time>
      </trkpt>
      <trkpt lat="42.395776" lon="0.857195">
        <ele>1182.8</ele>
        <time>1970-01-01T03:06:54.000Z</time>
      </trkpt>
      <trkpt lat="42.395684" lon="0.85749">
        <ele>1182</ele>
        <time>1970-01-01T03:06:57.000Z</time>
      </trkpt>
      <trkpt lat="42.395608" lon="0.857701">
        <ele>1181</ele>
        <time>1970-01-01T03:06:59.000Z</time>
      </trkpt>
      <trkpt lat="42.395536" lon="0.857922">
        <ele>1179.4</ele>
        <time>1970-01-01T03:07:01.000Z</time>
      </trkpt>
      <trkpt lat="42.395458" lon="0.858164">
        <ele>1177.8</ele>
        <time>1970-01-01T03:07:03.000Z</time>
      </trkpt>
      <trkpt lat="42.395381" lon="0.858434">
        <ele>1176</ele>
        <time>1970-01-01T03:07:05.000Z</time>
      </trkpt>
      <trkpt lat="42.395349" lon="0.858572">
        <ele>1175</ele>
        <time>1970-01-01T03:07:06.000Z</time>
      </trkpt>
      <trkpt lat="42.395318" lon="0.858704">
        <ele>1173.8</ele>
        <time>1970-01-01T03:07:07.000Z</time>
      </trkpt>
      <trkpt lat="42.395287" lon="0.858834">
        <ele>1172.2</ele>
        <time>1970-01-01T03:07:08.000Z</time>
      </trkpt>
      <trkpt lat="42.395228" lon="0.859094">
        <ele>1170.6</ele>
        <time>1970-01-01T03:07:10.000Z</time>
      </trkpt>
      <trkpt lat="42.395133" lon="0.859325">
        <ele>1169</ele>
        <time>1970-01-01T03:07:12.000Z</time>
      </trkpt>
      <trkpt lat="42.39502" lon="0.859542">
        <ele>1167.2</ele>
        <time>1970-01-01T03:07:14.000Z</time>
      </trkpt>
      <trkpt lat="42.394916" lon="0.859786">
        <ele>1166</ele>
        <time>1970-01-01T03:07:16.000Z</time>
      </trkpt>
      <trkpt lat="42.39487" lon="0.859918">
        <ele>1165</ele>
        <time>1970-01-01T03:07:17.000Z</time>
      </trkpt>
      <trkpt lat="42.394787" lon="0.860194">
        <ele>1163.8</ele>
        <time>1970-01-01T03:07:19.000Z</time>
      </trkpt>
      <trkpt lat="42.394701" lon="0.860451">
        <ele>1162</ele>
        <time>1970-01-01T03:07:21.000Z</time>
      </trkpt>
      <trkpt lat="42.394596" lon="0.860679">
        <ele>1160.4</ele>
        <time>1970-01-01T03:07:23.000Z</time>
      </trkpt>
      <trkpt lat="42.394513" lon="0.860905">
        <ele>1158.8</ele>
        <time>1970-01-01T03:07:25.000Z</time>
      </trkpt>
      <trkpt lat="42.394478" lon="0.861021">
        <ele>1157.6</ele>
        <time>1970-01-01T03:07:26.000Z</time>
      </trkpt>
      <trkpt lat="42.394425" lon="0.861247">
        <ele>1156</ele>
        <time>1970-01-01T03:07:28.000Z</time>
      </trkpt>
      <trkpt lat="42.394411" lon="0.861352">
        <ele>1155.2</ele>
        <time>1970-01-01T03:07:29.000Z</time>
      </trkpt>
      <trkpt lat="42.394405" lon="0.861455">
        <ele>1154.4</ele>
        <time>1970-01-01T03:07:30.000Z</time>
      </trkpt>
      <trkpt lat="42.394418" lon="0.861663">
        <ele>1153.2</ele>
        <time>1970-01-01T03:07:32.000Z</time>
      </trkpt>
      <trkpt lat="42.394466" lon="0.861872">
        <ele>1151.8</ele>
        <time>1970-01-01T03:07:34.000Z</time>
      </trkpt>
      <trkpt lat="42.394498" lon="0.861977">
        <ele>1151</ele>
        <time>1970-01-01T03:07:35.000Z</time>
      </trkpt>
      <trkpt lat="42.394534" lon="0.86208">
        <ele>1150.4</ele>
        <time>1970-01-01T03:07:36.000Z</time>
      </trkpt>
      <trkpt lat="42.394601" lon="0.862282">
        <ele>1149</ele>
        <time>1970-01-01T03:07:38.000Z</time>
      </trkpt>
      <trkpt lat="42.394634" lon="0.862375">
        <ele>1148.4</ele>
        <time>1970-01-01T03:07:39.000Z</time>
      </trkpt>
      <trkpt lat="42.39467" lon="0.862456">
        <ele>1147.8</ele>
        <time>1970-01-01T03:07:40.000Z</time>
      </trkpt>
      <trkpt lat="42.394733" lon="0.8626">
        <ele>1146.2</ele>
        <time>1970-01-01T03:07:42.000Z</time>
      </trkpt>
      <trkpt lat="42.394731" lon="0.862721">
        <ele>1144.6</ele>
        <time>1970-01-01T03:07:44.000Z</time>
      </trkpt>
      <trkpt lat="42.39461" lon="0.862798">
        <ele>1143.4</ele>
        <time>1970-01-01T03:07:47.000Z</time>
      </trkpt>
      <trkpt lat="42.394519" lon="0.862805">
        <ele>1143.2</ele>
        <time>1970-01-01T03:07:49.000Z</time>
      </trkpt>
      <trkpt lat="42.394382" lon="0.86284">
        <ele>1142.6</ele>
        <time>1970-01-01T03:07:52.000Z</time>
      </trkpt>
      <trkpt lat="42.394331" lon="0.862864">
        <ele>1142.4</ele>
        <time>1970-01-01T03:07:53.000Z</time>
      </trkpt>
      <trkpt lat="42.394061" lon="0.862966">
        <ele>1141.2</ele>
        <time>1970-01-01T03:07:58.000Z</time>
      </trkpt>
      <trkpt lat="42.394007" lon="0.862992">
        <ele>1141</ele>
        <time>1970-01-01T03:07:59.000Z</time>
      </trkpt>
      <trkpt lat="42.393811" lon="0.863257">
        <ele>1140.4</ele>
        <time>1970-01-01T03:08:04.000Z</time>
      </trkpt>
      <trkpt lat="42.39368" lon="0.863489">
        <ele>1140</ele>
        <time>1970-01-01T03:08:08.000Z</time>
      </trkpt>
      <trkpt lat="42.393567" lon="0.863665">
        <ele>1139.6</ele>
        <time>1970-01-01T03:08:11.000Z</time>
      </trkpt>
      <trkpt lat="42.393472" lon="0.863771">
        <ele>1139.2</ele>
        <time>1970-01-01T03:08:13.000Z</time>
      </trkpt>
      <trkpt lat="42.393244" lon="0.86407">
        <ele>1138.2</ele>
        <time>1970-01-01T03:08:18.000Z</time>
      </trkpt>
      <trkpt lat="42.393207" lon="0.864139">
        <ele>1138.2</ele>
        <time>1970-01-01T03:08:19.000Z</time>
      </trkpt>
      <trkpt lat="42.393068" lon="0.864287">
        <ele>1138</ele>
        <time>1970-01-01T03:08:22.000Z</time>
      </trkpt>
      <trkpt lat="42.392924" lon="0.864413">
        <ele>1137.8</ele>
        <time>1970-01-01T03:08:25.000Z</time>
      </trkpt>
      <trkpt lat="42.392737" lon="0.864612">
        <ele>1137.2</ele>
        <time>1970-01-01T03:08:29.000Z</time>
      </trkpt>
      <trkpt lat="42.392636" lon="0.864721">
        <ele>1136.6</ele>
        <time>1970-01-01T03:08:31.000Z</time>
      </trkpt>
      <trkpt lat="42.392561" lon="0.864876">
        <ele>1136</ele>
        <time>1970-01-01T03:08:33.000Z</time>
      </trkpt>
      <trkpt lat="42.392388" lon="0.865281">
        <ele>1134.8</ele>
        <time>1970-01-01T03:08:38.000Z</time>
      </trkpt>
      <trkpt lat="42.392234" lon="0.865749">
        <ele>1133.6</ele>
        <time>1970-01-01T03:08:44.000Z</time>
      </trkpt>
      <trkpt lat="42.392171" lon="0.865892">
        <ele>1133.2</ele>
        <time>1970-01-01T03:08:46.000Z</time>
      </trkpt>
      <trkpt lat="42.392067" lon="0.866053">
        <ele>1132.6</ele>
        <time>1970-01-01T03:08:49.000Z</time>
      </trkpt>
      <trkpt lat="42.391968" lon="0.866251">
        <ele>1131.4</ele>
        <time>1970-01-01T03:08:52.000Z</time>
      </trkpt>
      <trkpt lat="42.391905" lon="0.866417">
        <ele>1130.6</ele>
        <time>1970-01-01T03:08:54.000Z</time>
      </trkpt>
      <trkpt lat="42.391878" lon="0.866506">
        <ele>1130</ele>
        <time>1970-01-01T03:08:55.000Z</time>
      </trkpt>
      <trkpt lat="42.391833" lon="0.86668">
        <ele>1128.8</ele>
        <time>1970-01-01T03:08:57.000Z</time>
      </trkpt>
      <trkpt lat="42.391809" lon="0.866756">
        <ele>1128</ele>
        <time>1970-01-01T03:08:58.000Z</time>
      </trkpt>
      <trkpt lat="42.391773" lon="0.866819">
        <ele>1127.6</ele>
        <time>1970-01-01T03:08:59.000Z</time>
      </trkpt>
      <trkpt lat="42.391676" lon="0.866916">
        <ele>1126.2</ele>
        <time>1970-01-01T03:09:01.000Z</time>
      </trkpt>
      <trkpt lat="42.391561" lon="0.866967">
        <ele>1125</ele>
        <time>1970-01-01T03:09:03.000Z</time>
      </trkpt>
      <trkpt lat="42.391437" lon="0.866982">
        <ele>1124.6</ele>
        <time>1970-01-01T03:09:05.000Z</time>
      </trkpt>
      <trkpt lat="42.391321" lon="0.867005">
        <ele>1124.4</ele>
        <time>1970-01-01T03:09:07.000Z</time>
      </trkpt>
      <trkpt lat="42.391097" lon="0.867146">
        <ele>1124.2</ele>
        <time>1970-01-01T03:09:11.000Z</time>
      </trkpt>
      <trkpt lat="42.390862" lon="0.86731">
        <ele>1124.4</ele>
        <time>1970-01-01T03:09:16.000Z</time>
      </trkpt>
      <trkpt lat="42.390483" lon="0.86783">
        <ele>1124.6</ele>
        <time>1970-01-01T03:09:25.000Z</time>
      </trkpt>
      <trkpt lat="42.390318" lon="0.868097">
        <ele>1124.6</ele>
        <time>1970-01-01T03:09:29.000Z</time>
      </trkpt>
      <trkpt lat="42.390312" lon="0.868448">
        <ele>1124.2</ele>
        <time>1970-01-01T03:09:34.000Z</time>
      </trkpt>
      <trkpt lat="42.39033" lon="0.868521">
        <ele>1124</ele>
        <time>1970-01-01T03:09:35.000Z</time>
      </trkpt>
      <trkpt lat="42.390483" lon="0.869151">
        <ele>1123.6</ele>
        <time>1970-01-01T03:09:44.000Z</time>
      </trkpt>
      <trkpt lat="42.390771" lon="0.869355">
        <ele>1123.4</ele>
        <time>1970-01-01T03:09:49.000Z</time>
      </trkpt>
      <trkpt lat="42.390895" lon="0.869425">
        <ele>1123</ele>
        <time>1970-01-01T03:09:51.000Z</time>
      </trkpt>
      <trkpt lat="42.391267" lon="0.869908">
        <ele>1122.4</ele>
        <time>1970-01-01T03:09:58.000Z</time>
      </trkpt>
      <trkpt lat="42.391303" lon="0.869991">
        <ele>1122.2</ele>
        <time>1970-01-01T03:09:59.000Z</time>
      </trkpt>
      <trkpt lat="42.391374" lon="0.870365">
        <ele>1121.4</ele>
        <time>1970-01-01T03:10:03.000Z</time>
      </trkpt>
      <trkpt lat="42.391318" lon="0.870692">
        <ele>1120.6</ele>
        <time>1970-01-01T03:10:07.000Z</time>
      </trkpt>
      <trkpt lat="42.391296" lon="0.870776">
        <ele>1120.4</ele>
        <time>1970-01-01T03:10:08.000Z</time>
      </trkpt>
      <trkpt lat="42.391279" lon="0.870869">
        <ele>1120.2</ele>
        <time>1970-01-01T03:10:09.000Z</time>
      </trkpt>
      <trkpt lat="42.391269" lon="0.871169">
        <ele>1119.2</ele>
        <time>1970-01-01T03:10:12.000Z</time>
      </trkpt>
      <trkpt lat="42.391475" lon="0.87156">
        <ele>1118.8</ele>
        <time>1970-01-01T03:10:17.000Z</time>
      </trkpt>
      <trkpt lat="42.391523" lon="0.871621">
        <ele>1118.6</ele>
        <time>1970-01-01T03:10:18.000Z</time>
      </trkpt>
      <trkpt lat="42.391583" lon="0.871788">
        <ele>1118.2</ele>
        <time>1970-01-01T03:10:20.000Z</time>
      </trkpt>
      <trkpt lat="42.391668" lon="0.872059">
        <ele>1117.8</ele>
        <time>1970-01-01T03:10:23.000Z</time>
      </trkpt>
      <trkpt lat="42.391798" lon="0.872322">
        <ele>1117.2</ele>
        <time>1970-01-01T03:10:26.000Z</time>
      </trkpt>
      <trkpt lat="42.392036" lon="0.872468">
        <ele>1116.4</ele>
        <time>1970-01-01T03:10:30.000Z</time>
      </trkpt>
      <trkpt lat="42.39244" lon="0.872367">
        <ele>1115.4</ele>
        <time>1970-01-01T03:10:36.000Z</time>
      </trkpt>
      <trkpt lat="42.392515" lon="0.872375">
        <ele>1115.2</ele>
        <time>1970-01-01T03:10:37.000Z</time>
      </trkpt>
      <trkpt lat="42.392839" lon="0.872389">
        <ele>1114.4</ele>
        <time>1970-01-01T03:10:41.000Z</time>
      </trkpt>
      <trkpt lat="42.393133" lon="0.872352">
        <ele>1113.6</ele>
        <time>1970-01-01T03:10:45.000Z</time>
      </trkpt>
      <trkpt lat="42.393366" lon="0.872339">
        <ele>1112.8</ele>
        <time>1970-01-01T03:10:48.000Z</time>
      </trkpt>
      <trkpt lat="42.39351" lon="0.872293">
        <ele>1112.2</ele>
        <time>1970-01-01T03:10:50.000Z</time>
      </trkpt>
      <trkpt lat="42.393706" lon="0.872249">
        <ele>1110.8</ele>
        <time>1970-01-01T03:10:53.000Z</time>
      </trkpt>
      <trkpt lat="42.393882" lon="0.872239">
        <ele>1109.6</ele>
        <time>1970-01-01T03:10:57.000Z</time>
      </trkpt>
      <trkpt lat="42.393947" lon="0.872289">
        <ele>1108.4</ele>
        <time>1970-01-01T03:11:01.000Z</time>
      </trkpt>
      <trkpt lat="42.39395" lon="0.872291">
        <ele>1108.4</ele>
        <time>1970-01-01T03:11:02.000Z</time>
      </trkpt>
      <trkpt lat="42.393935" lon="0.872345">
        <ele>1099.4</ele>
        <time>1970-01-01T03:11:47.000Z</time>
      </trkpt>
      <trkpt lat="42.393703" lon="0.872342">
        <ele>1098.6</ele>
        <time>1970-01-01T03:11:53.000Z</time>
      </trkpt>
      <trkpt lat="42.393604" lon="0.87236">
        <ele>1097.8</ele>
        <time>1970-01-01T03:11:55.000Z</time>
      </trkpt>
      <trkpt lat="42.393557" lon="0.872372">
        <ele>1097.4</ele>
        <time>1970-01-01T03:11:56.000Z</time>
      </trkpt>
      <trkpt lat="42.39351" lon="0.872388">
        <ele>1097.4</ele>
        <time>1970-01-01T03:11:57.000Z</time>
      </trkpt>
      <trkpt lat="42.393165" lon="0.872538">
        <ele>1096.4</ele>
        <time>1970-01-01T03:12:04.000Z</time>
      </trkpt>
      <trkpt lat="42.392795" lon="0.872816">
        <ele>1095.2</ele>
        <time>1970-01-01T03:12:11.000Z</time>
      </trkpt>
      <trkpt lat="42.392622" lon="0.873006">
        <ele>1094.2</ele>
        <time>1970-01-01T03:12:14.000Z</time>
      </trkpt>
      <trkpt lat="42.392273" lon="0.873358">
        <ele>1093</ele>
        <time>1970-01-01T03:12:20.000Z</time>
      </trkpt>
      <trkpt lat="42.39215" lon="0.873474">
        <ele>1092.6</ele>
        <time>1970-01-01T03:12:22.000Z</time>
      </trkpt>
      <trkpt lat="42.391961" lon="0.873601">
        <ele>1092</ele>
        <time>1970-01-01T03:12:25.000Z</time>
      </trkpt>
      <trkpt lat="42.391625" lon="0.873738">
        <ele>1091.2</ele>
        <time>1970-01-01T03:12:31.000Z</time>
      </trkpt>
      <trkpt lat="42.391401" lon="0.873809">
        <ele>1090</ele>
        <time>1970-01-01T03:12:35.000Z</time>
      </trkpt>
      <trkpt lat="42.391341" lon="0.873838">
        <ele>1090</ele>
        <time>1970-01-01T03:12:36.000Z</time>
      </trkpt>
      <trkpt lat="42.391036" lon="0.873997">
        <ele>1089.8</ele>
        <time>1970-01-01T03:12:41.000Z</time>
      </trkpt>
      <trkpt lat="42.390659" lon="0.87386">
        <ele>1089.2</ele>
        <time>1970-01-01T03:12:47.000Z</time>
      </trkpt>
      <trkpt lat="42.390295" lon="0.873622">
        <ele>1088.4</ele>
        <time>1970-01-01T03:12:53.000Z</time>
      </trkpt>
      <trkpt lat="42.38983" lon="0.873222">
        <ele>1087.8</ele>
        <time>1970-01-01T03:13:01.000Z</time>
      </trkpt>
      <trkpt lat="42.389775" lon="0.873163">
        <ele>1087.8</ele>
        <time>1970-01-01T03:13:02.000Z</time>
      </trkpt>
      <trkpt lat="42.389679" lon="0.873042">
        <ele>1087.8</ele>
        <time>1970-01-01T03:13:04.000Z</time>
      </trkpt>
      <trkpt lat="42.389482" lon="0.872725">
        <ele>1087.2</ele>
        <time>1970-01-01T03:13:09.000Z</time>
      </trkpt>
      <trkpt lat="42.389345" lon="0.87238">
        <ele>1087</ele>
        <time>1970-01-01T03:13:14.000Z</time>
      </trkpt>
      <trkpt lat="42.389168" lon="0.871991">
        <ele>1086.6</ele>
        <time>1970-01-01T03:13:20.000Z</time>
      </trkpt>
      <trkpt lat="42.389014" lon="0.871689">
        <ele>1086.2</ele>
        <time>1970-01-01T03:13:25.000Z</time>
      </trkpt>
      <trkpt lat="42.388661" lon="0.871166">
        <ele>1085.4</ele>
        <time>1970-01-01T03:13:34.000Z</time>
      </trkpt>
      <trkpt lat="42.388437" lon="0.870913">
        <ele>1085</ele>
        <time>1970-01-01T03:13:39.000Z</time>
      </trkpt>
      <trkpt lat="42.387956" lon="0.870465">
        <ele>1085.8</ele>
        <time>1970-01-01T03:13:50.000Z</time>
      </trkpt>
      <trkpt lat="42.387495" lon="0.869997">
        <ele>1085.4</ele>
        <time>1970-01-01T03:14:01.000Z</time>
      </trkpt>
      <trkpt lat="42.387043" lon="0.869575">
        <ele>1085.8</ele>
        <time>1970-01-01T03:14:11.000Z</time>
      </trkpt>
      <trkpt lat="42.386733" lon="0.869323">
        <ele>1085.8</ele>
        <time>1970-01-01T03:14:18.000Z</time>
      </trkpt>
      <trkpt lat="42.386536" lon="0.869121">
        <ele>1086</ele>
        <time>1970-01-01T03:14:23.000Z</time>
      </trkpt>
      <trkpt lat="42.38638" lon="0.868878">
        <ele>1086</ele>
        <time>1970-01-01T03:14:29.000Z</time>
      </trkpt>
      <trkpt lat="42.386382" lon="0.8687">
        <ele>1085.4</ele>
        <time>1970-01-01T03:14:34.000Z</time>
      </trkpt>
      <trkpt lat="42.386447" lon="0.86867">
        <ele>1085.2</ele>
        <time>1970-01-01T03:14:39.000Z</time>
      </trkpt>
      <trkpt lat="42.386455" lon="0.868658">
        <ele>1085</ele>
        <time>1970-01-01T03:14:40.000Z</time>
      </trkpt>
      <trkpt lat="42.386641" lon="0.868509">
        <ele>1083.2</ele>
        <time>1970-01-01T03:15:00.000Z</time>
      </trkpt>
      <trkpt lat="42.386645" lon="0.868548">
        <ele>1083</ele>
        <time>1970-01-01T03:15:05.000Z</time>
      </trkpt>
      <trkpt lat="42.38668" lon="0.868492">
        <ele>1082.4</ele>
        <time>1970-01-01T03:15:08.000Z</time>
      </trkpt>
      <trkpt lat="42.38666" lon="0.868439">
        <ele>1082.4</ele>
        <time>1970-01-01T03:15:13.000Z</time>
      </trkpt>
      <trkpt lat="42.386622" lon="0.868502">
        <ele>1077.2</ele>
        <time>1970-01-01T03:16:15.000Z</time>
      </trkpt>
      <trkpt lat="42.386604" lon="0.868519">
        <ele>1077</ele>
        <time>1970-01-01T03:16:16.000Z</time>
      </trkpt>
      <trkpt lat="42.386241" lon="0.868678">
        <ele>1076.4</ele>
        <time>1970-01-01T03:16:28.000Z</time>
      </trkpt>
      <trkpt lat="42.385683" lon="0.868628">
        <ele>1075.6</ele>
        <time>1970-01-01T03:16:40.000Z</time>
      </trkpt>
      <trkpt lat="42.38556" lon="0.868608">
        <ele>1075.4</ele>
        <time>1970-01-01T03:16:43.000Z</time>
      </trkpt>
      <trkpt lat="42.385427" lon="0.868575">
        <ele>1075.4</ele>
        <time>1970-01-01T03:16:49.000Z</time>
      </trkpt>
      <trkpt lat="42.385486" lon="0.86863">
        <ele>1074.6</ele>
        <time>1970-01-01T03:16:58.000Z</time>
      </trkpt>
      <trkpt lat="42.385515" lon="0.868722">
        <ele>1073.6</ele>
        <time>1970-01-01T03:17:02.000Z</time>
      </trkpt>
      <trkpt lat="42.385507" lon="0.868775">
        <ele>1072.4</ele>
        <time>1970-01-01T03:17:04.000Z</time>
      </trkpt>
      <trkpt lat="42.385492" lon="0.868812">
        <ele>1072.2</ele>
        <time>1970-01-01T03:17:06.000Z</time>
      </trkpt>
      <trkpt lat="42.385397" lon="0.869095">
        <ele>1072.4</ele>
        <time>1970-01-01T03:17:21.000Z</time>
      </trkpt>
      <trkpt lat="42.385377" lon="0.869124">
        <ele>1072.2</ele>
        <time>1970-01-01T03:17:31.000Z</time>
      </trkpt>
      <trkpt lat="42.385354" lon="0.869159">
        <ele>1072</ele>
        <time>1970-01-01T03:17:33.000Z</time>
      </trkpt>
      <trkpt lat="42.385078" lon="0.869416">
        <ele>1071.4</ele>
        <time>1970-01-01T03:17:46.000Z</time>
      </trkpt>
      <trkpt lat="42.384804" lon="0.869991">
        <ele>1070.6</ele>
        <time>1970-01-01T03:18:08.000Z</time>
      </trkpt>
      <trkpt lat="42.384756" lon="0.870226">
        <ele>1069.6</ele>
        <time>1970-01-01T03:18:17.000Z</time>
      </trkpt>
      <trkpt lat="42.384908" lon="0.87041">
        <ele>1069</ele>
        <time>1970-01-01T03:18:28.000Z</time>
      </trkpt>
      <trkpt lat="42.38491" lon="0.870555">
        <ele>1068.4</ele>
        <time>1970-01-01T03:18:35.000Z</time>
      </trkpt>
      <trkpt lat="42.384874" lon="0.870556">
        <ele>1068</ele>
        <time>1970-01-01T03:18:37.000Z</time>
      </trkpt>
      <trkpt lat="42.384828" lon="0.870534">
        <ele>1067.6</ele>
        <time>1970-01-01T03:18:40.000Z</time>
      </trkpt>
      <trkpt lat="42.384656" lon="0.8705">
        <ele>1067.2</ele>
        <time>1970-01-01T03:18:52.000Z</time>
      </trkpt>
      <trkpt lat="42.384585" lon="0.870598">
        <ele>1066.4</ele>
        <time>1970-01-01T03:18:59.000Z</time>
      </trkpt>
      <trkpt lat="42.384459" lon="0.870855">
        <ele>1065.2</ele>
        <time>1970-01-01T03:19:13.000Z</time>
      </trkpt>
      <trkpt lat="42.384245" lon="0.871174">
        <ele>1064.4</ele>
        <time>1970-01-01T03:19:32.000Z</time>
      </trkpt>
      <trkpt lat="42.384198" lon="0.871242">
        <ele>1064.4</ele>
        <time>1970-01-01T03:19:36.000Z</time>
      </trkpt>
      <trkpt lat="42.383986" lon="0.871634">
        <ele>1063.4</ele>
        <time>1970-01-01T03:19:56.000Z</time>
      </trkpt>
      <trkpt lat="42.383972" lon="0.871721">
        <ele>1063</ele>
        <time>1970-01-01T03:20:00.000Z</time>
      </trkpt>
      <trkpt lat="42.384067" lon="0.871725">
        <ele>1063</ele>
        <time>1970-01-01T03:20:07.000Z</time>
      </trkpt>
      <trkpt lat="42.384151" lon="0.871497">
        <ele>1062.2</ele>
        <time>1970-01-01T03:20:17.000Z</time>
      </trkpt>
      <trkpt lat="42.38459" lon="0.871056">
        <ele>1061.4</ele>
        <time>1970-01-01T03:20:48.000Z</time>
      </trkpt>
      <trkpt lat="42.384615" lon="0.871023">
        <ele>1061.2</ele>
        <time>1970-01-01T03:20:50.000Z</time>
      </trkpt>
      <trkpt lat="42.384781" lon="0.870871">
        <ele>1060</ele>
        <time>1970-01-01T03:21:01.000Z</time>
      </trkpt>
      <trkpt lat="42.385044" lon="0.870993">
        <ele>1058.8</ele>
        <time>1970-01-01T03:21:16.000Z</time>
      </trkpt>
      <trkpt lat="42.385311" lon="0.87131">
        <ele>1057.6</ele>
        <time>1970-01-01T03:21:35.000Z</time>
      </trkpt>
      <trkpt lat="42.385367" lon="0.871626">
        <ele>1056.4</ele>
        <time>1970-01-01T03:21:48.000Z</time>
      </trkpt>
      <trkpt lat="42.38546" lon="0.871833">
        <ele>1055.6</ele>
        <time>1970-01-01T03:21:59.000Z</time>
      </trkpt>
      <trkpt lat="42.385631" lon="0.871792">
        <ele>1055</ele>
        <time>1970-01-01T03:22:09.000Z</time>
      </trkpt>
      <trkpt lat="42.385761" lon="0.871888">
        <ele>1053.8</ele>
        <time>1970-01-01T03:22:18.000Z</time>
      </trkpt>
      <trkpt lat="42.385763" lon="0.871911">
        <ele>1053.6</ele>
        <time>1970-01-01T03:22:19.000Z</time>
      </trkpt>
      <trkpt lat="42.385717" lon="0.871977">
        <ele>1052.8</ele>
        <time>1970-01-01T03:22:23.000Z</time>
      </trkpt>
      <trkpt lat="42.385681" lon="0.87199">
        <ele>1052.4</ele>
        <time>1970-01-01T03:22:25.000Z</time>
      </trkpt>
      <trkpt lat="42.385555" lon="0.872034">
        <ele>1051.6</ele>
        <time>1970-01-01T03:22:32.000Z</time>
      </trkpt>
      <trkpt lat="42.385445" lon="0.872112">
        <ele>1050.2</ele>
        <time>1970-01-01T03:22:39.000Z</time>
      </trkpt>
      <trkpt lat="42.38525" lon="0.87228">
        <ele>1049</ele>
        <time>1970-01-01T03:22:53.000Z</time>
      </trkpt>
      <trkpt lat="42.385132" lon="0.872306">
        <ele>1047.6</ele>
        <time>1970-01-01T03:23:00.000Z</time>
      </trkpt>
      <trkpt lat="42.385098" lon="0.872291">
        <ele>1047.6</ele>
        <time>1970-01-01T03:23:02.000Z</time>
      </trkpt>
      <trkpt lat="42.38495" lon="0.872192">
        <ele>1046.4</ele>
        <time>1970-01-01T03:23:11.000Z</time>
      </trkpt>
      <trkpt lat="42.38486" lon="0.871973">
        <ele>1045.2</ele>
        <time>1970-01-01T03:23:21.000Z</time>
      </trkpt>
      <trkpt lat="42.38481" lon="0.871875">
        <ele>1044.8</ele>
        <time>1970-01-01T03:23:26.000Z</time>
      </trkpt>
      <trkpt lat="42.384733" lon="0.871903">
        <ele>1044.6</ele>
        <time>1970-01-01T03:23:31.000Z</time>
      </trkpt>
      <trkpt lat="42.384603" lon="0.872609">
        <ele>1044.2</ele>
        <time>1970-01-01T03:24:00.000Z</time>
      </trkpt>
      <trkpt lat="42.385001" lon="0.872997">
        <ele>1043</ele>
        <time>1970-01-01T03:24:30.000Z</time>
      </trkpt>
      <trkpt lat="42.385162" lon="0.873032">
        <ele>1041.8</ele>
        <time>1970-01-01T03:24:40.000Z</time>
      </trkpt>
      <trkpt lat="42.385427" lon="0.873088">
        <ele>1040.2</ele>
        <time>1970-01-01T03:24:57.000Z</time>
      </trkpt>
      <trkpt lat="42.385747" lon="0.873074">
        <ele>1038.6</ele>
        <time>1970-01-01T03:25:16.000Z</time>
      </trkpt>
      <trkpt lat="42.385903" lon="0.873148">
        <ele>1037.6</ele>
        <time>1970-01-01T03:25:27.000Z</time>
      </trkpt>
      <trkpt lat="42.385861" lon="0.873248">
        <ele>1037</ele>
        <time>1970-01-01T03:25:32.000Z</time>
      </trkpt>
      <trkpt lat="42.385842" lon="0.873259">
        <ele>1037</ele>
        <time>1970-01-01T03:25:33.000Z</time>
      </trkpt>
      <trkpt lat="42.385672" lon="0.873302">
        <ele>1035.6</ele>
        <time>1970-01-01T03:25:42.000Z</time>
      </trkpt>
      <trkpt lat="42.385359" lon="0.873504">
        <ele>1033.8</ele>
        <time>1970-01-01T03:26:01.000Z</time>
      </trkpt>
      <trkpt lat="42.385038" lon="0.873728">
        <ele>1032</ele>
        <time>1970-01-01T03:26:19.000Z</time>
      </trkpt>
      <trkpt lat="42.384645" lon="0.874223">
        <ele>1030.6</ele>
        <time>1970-01-01T03:26:47.000Z</time>
      </trkpt>
      <trkpt lat="42.38451" lon="0.874342">
        <ele>1029.4</ele>
        <time>1970-01-01T03:26:55.000Z</time>
      </trkpt>
      <trkpt lat="42.384459" lon="0.874421">
        <ele>1028.2</ele>
        <time>1970-01-01T03:26:59.000Z</time>
      </trkpt>
      <trkpt lat="42.384462" lon="0.874525">
        <ele>1026.8</ele>
        <time>1970-01-01T03:27:03.000Z</time>
      </trkpt>
      <trkpt lat="42.384516" lon="0.874635">
        <ele>1025.6</ele>
        <time>1970-01-01T03:27:08.000Z</time>
      </trkpt>
      <trkpt lat="42.384587" lon="0.874739">
        <ele>1024</ele>
        <time>1970-01-01T03:27:13.000Z</time>
      </trkpt>
      <trkpt lat="42.384639" lon="0.874821">
        <ele>1022.6</ele>
        <time>1970-01-01T03:27:17.000Z</time>
      </trkpt>
      <trkpt lat="42.384685" lon="0.874894">
        <ele>1021.2</ele>
        <time>1970-01-01T03:27:21.000Z</time>
      </trkpt>
      <trkpt lat="42.384731" lon="0.874959">
        <ele>1020</ele>
        <time>1970-01-01T03:27:25.000Z</time>
      </trkpt>
      <trkpt lat="42.384774" lon="0.87504">
        <ele>1018.6</ele>
        <time>1970-01-01T03:27:29.000Z</time>
      </trkpt>
      <trkpt lat="42.38481" lon="0.875132">
        <ele>1017.4</ele>
        <time>1970-01-01T03:27:33.000Z</time>
      </trkpt>
      <trkpt lat="42.384864" lon="0.875248">
        <ele>1016</ele>
        <time>1970-01-01T03:27:38.000Z</time>
      </trkpt>
      <trkpt lat="42.384885" lon="0.875294">
        <ele>1015.2</ele>
        <time>1970-01-01T03:27:40.000Z</time>
      </trkpt>
      <trkpt lat="42.384908" lon="0.875343">
        <ele>1014.6</ele>
        <time>1970-01-01T03:27:42.000Z</time>
      </trkpt>
      <trkpt lat="42.384979" lon="0.875503">
        <ele>1013</ele>
        <time>1970-01-01T03:27:49.000Z</time>
      </trkpt>
      <trkpt lat="42.385093" lon="0.875728">
        <ele>1011.6</ele>
        <time>1970-01-01T03:27:59.000Z</time>
      </trkpt>
      <trkpt lat="42.385124" lon="0.875831">
        <ele>1010</ele>
        <time>1970-01-01T03:28:03.000Z</time>
      </trkpt>
      <trkpt lat="42.385103" lon="0.876016">
        <ele>1008.4</ele>
        <time>1970-01-01T03:28:10.000Z</time>
      </trkpt>
      <trkpt lat="42.385028" lon="0.876157">
        <ele>1007</ele>
        <time>1970-01-01T03:28:16.000Z</time>
      </trkpt>
      <trkpt lat="42.384908" lon="0.876264">
        <ele>1005.4</ele>
        <time>1970-01-01T03:28:22.000Z</time>
      </trkpt>
      <trkpt lat="42.384754" lon="0.876366">
        <ele>1004</ele>
        <time>1970-01-01T03:28:29.000Z</time>
      </trkpt>
      <trkpt lat="42.384525" lon="0.876491">
        <ele>1002.2</ele>
        <time>1970-01-01T03:28:40.000Z</time>
      </trkpt>
      <trkpt lat="42.384444" lon="0.876516">
        <ele>1000.8</ele>
        <time>1970-01-01T03:28:47.000Z</time>
      </trkpt>
      <trkpt lat="42.384501" lon="0.87651">
        <ele>1000.6</ele>
        <time>1970-01-01T03:28:52.000Z</time>
      </trkpt>
      <trkpt lat="42.384548" lon="0.876503">
        <ele>1000.2</ele>
        <time>1970-01-01T03:28:54.000Z</time>
      </trkpt>
      <trkpt lat="42.384608" lon="0.876479">
        <ele>1000.2</ele>
        <time>1970-01-01T03:28:56.000Z</time>
      </trkpt>
      <trkpt lat="42.384993" lon="0.876207">
        <ele>998.6</ele>
        <time>1970-01-01T03:29:08.000Z</time>
      </trkpt>
      <trkpt lat="42.385246" lon="0.875652">
        <ele>996.6</ele>
        <time>1970-01-01T03:29:41.000Z</time>
      </trkpt>
      <trkpt lat="42.385133" lon="0.875287">
        <ele>996</ele>
        <time>1970-01-01T03:29:58.000Z</time>
      </trkpt>
      <trkpt lat="42.385246" lon="0.875331">
        <ele>995</ele>
        <time>1970-01-01T03:30:08.000Z</time>
      </trkpt>
      <trkpt lat="42.385423" lon="0.875437">
        <ele>994.2</ele>
        <time>1970-01-01T03:30:22.000Z</time>
      </trkpt>
      <trkpt lat="42.385542" lon="0.875368">
        <ele>994</ele>
        <time>1970-01-01T03:30:33.000Z</time>
      </trkpt>
      <trkpt lat="42.385575" lon="0.875376">
        <ele>991.8</ele>
        <time>1970-01-01T03:31:20.000Z</time>
      </trkpt>
      <trkpt lat="42.385746" lon="0.875385">
        <ele>990.4</ele>
        <time>1970-01-01T03:31:34.000Z</time>
      </trkpt>
      <trkpt lat="42.385937" lon="0.876406">
        <ele>950</ele>
        <time>1970-01-01T03:36:52.000Z</time>
      </trkpt>
      <trkpt lat="42.385905" lon="0.876763">
        <ele>949</ele>
        <time>1970-01-01T03:37:13.000Z</time>
      </trkpt>
      <trkpt lat="42.385892" lon="0.876973">
        <ele>948.6</ele>
        <time>1970-01-01T03:37:28.000Z</time>
      </trkpt>
      <trkpt lat="42.385893" lon="0.876987">
        <ele>948.6</ele>
        <time>1970-01-01T03:37:29.000Z</time>
      </trkpt>
      <trkpt lat="42.38587" lon="0.877111">
        <ele>948.8</ele>
        <time>1970-01-01T03:37:38.000Z</time>
      </trkpt>
      <trkpt lat="42.385867" lon="0.877125">
        <ele>948.6</ele>
        <time>1970-01-01T03:37:39.000Z</time>
      </trkpt>
      <trkpt lat="42.385859" lon="0.877236">
        <ele>949</ele>
        <time>1970-01-01T03:37:47.000Z</time>
      </trkpt>
      <trkpt lat="42.385849" lon="0.877317">
        <ele>949.6</ele>
        <time>1970-01-01T03:37:53.000Z</time>
      </trkpt>
      <trkpt lat="42.385847" lon="0.877399">
        <ele>950.2</ele>
        <time>1970-01-01T03:37:59.000Z</time>
      </trkpt>
      <trkpt lat="42.385836" lon="0.877539">
        <ele>950.2</ele>
        <time>1970-01-01T03:38:09.000Z</time>
      </trkpt>
      <trkpt lat="42.385827" lon="0.877643">
        <ele>950.6</ele>
        <time>1970-01-01T03:38:16.000Z</time>
      </trkpt>
      <trkpt lat="42.385826" lon="0.877789">
        <ele>950.8</ele>
        <time>1970-01-01T03:38:26.000Z</time>
      </trkpt>
      <trkpt lat="42.385815" lon="0.877902">
        <ele>951.2</ele>
        <time>1970-01-01T03:38:34.000Z</time>
      </trkpt>
      <trkpt lat="42.385829" lon="0.877998">
        <ele>951.8</ele>
        <time>1970-01-01T03:38:41.000Z</time>
      </trkpt>
      <trkpt lat="42.385847" lon="0.878092">
        <ele>952</ele>
        <time>1970-01-01T03:38:48.000Z</time>
      </trkpt>
      <trkpt lat="42.385845" lon="0.878148">
        <ele>952.8</ele>
        <time>1970-01-01T03:38:52.000Z</time>
      </trkpt>
      <trkpt lat="42.385851" lon="0.878219">
        <ele>953.6</ele>
        <time>1970-01-01T03:38:57.000Z</time>
      </trkpt>
      <trkpt lat="42.385859" lon="0.878275">
        <ele>954.2</ele>
        <time>1970-01-01T03:39:01.000Z</time>
      </trkpt>
      <trkpt lat="42.385875" lon="0.878334">
        <ele>955</ele>
        <time>1970-01-01T03:39:06.000Z</time>
      </trkpt>
      <trkpt lat="42.385881" lon="0.878345">
        <ele>955</ele>
        <time>1970-01-01T03:39:07.000Z</time>
      </trkpt>
      <trkpt lat="42.385893" lon="0.878384">
        <ele>955.6</ele>
        <time>1970-01-01T03:39:10.000Z</time>
      </trkpt>
      <trkpt lat="42.385907" lon="0.878452">
        <ele>956.2</ele>
        <time>1970-01-01T03:39:15.000Z</time>
      </trkpt>
      <trkpt lat="42.385914" lon="0.878505">
        <ele>956.8</ele>
        <time>1970-01-01T03:39:19.000Z</time>
      </trkpt>
      <trkpt lat="42.385923" lon="0.878572">
        <ele>957.6</ele>
        <time>1970-01-01T03:39:24.000Z</time>
      </trkpt>
      <trkpt lat="42.385942" lon="0.878632">
        <ele>958</ele>
        <time>1970-01-01T03:39:29.000Z</time>
      </trkpt>
      <trkpt lat="42.385966" lon="0.878711">
        <ele>958.8</ele>
        <time>1970-01-01T03:39:35.000Z</time>
      </trkpt>
      <trkpt lat="42.385994" lon="0.878786">
        <ele>959.2</ele>
        <time>1970-01-01T03:39:41.000Z</time>
      </trkpt>
      <trkpt lat="42.386011" lon="0.878865">
        <ele>959.8</ele>
        <time>1970-01-01T03:39:47.000Z</time>
      </trkpt>
      <trkpt lat="42.386025" lon="0.878981">
        <ele>960.4</ele>
        <time>1970-01-01T03:39:54.000Z</time>
      </trkpt>
      <trkpt lat="42.386026" lon="0.879056">
        <ele>960.8</ele>
        <time>1970-01-01T03:39:59.000Z</time>
      </trkpt>
      <trkpt lat="42.386028" lon="0.879088">
        <ele>961</ele>
        <time>1970-01-01T03:40:01.000Z</time>
      </trkpt>
      <trkpt lat="42.386038" lon="0.879181">
        <ele>961.4</ele>
        <time>1970-01-01T03:40:07.000Z</time>
      </trkpt>
      <trkpt lat="42.386041" lon="0.879284">
        <ele>961.8</ele>
        <time>1970-01-01T03:40:14.000Z</time>
      </trkpt>
      <trkpt lat="42.386037" lon="0.879375">
        <ele>962.4</ele>
        <time>1970-01-01T03:40:20.000Z</time>
      </trkpt>
      <trkpt lat="42.386018" lon="0.879466">
        <ele>962.6</ele>
        <time>1970-01-01T03:40:27.000Z</time>
      </trkpt>
      <trkpt lat="42.386019" lon="0.879556">
        <ele>963.4</ele>
        <time>1970-01-01T03:40:33.000Z</time>
      </trkpt>
      <trkpt lat="42.386029" lon="0.879616">
        <ele>964</ele>
        <time>1970-01-01T03:40:37.000Z</time>
      </trkpt>
      <trkpt lat="42.386038" lon="0.879705">
        <ele>964.8</ele>
        <time>1970-01-01T03:40:43.000Z</time>
      </trkpt>
      <trkpt lat="42.386045" lon="0.879778">
        <ele>965.2</ele>
        <time>1970-01-01T03:40:48.000Z</time>
      </trkpt>
      <trkpt lat="42.386053" lon="0.879857">
        <ele>966</ele>
        <time>1970-01-01T03:40:53.000Z</time>
      </trkpt>
      <trkpt lat="42.386053" lon="0.879908">
        <ele>966.4</ele>
        <time>1970-01-01T03:40:56.000Z</time>
      </trkpt>
      <trkpt lat="42.386063" lon="0.879941">
        <ele>966.6</ele>
        <time>1970-01-01T03:40:58.000Z</time>
      </trkpt>
      <trkpt lat="42.38607" lon="0.879985">
        <ele>966.8</ele>
        <time>1970-01-01T03:41:01.000Z</time>
      </trkpt>
      <trkpt lat="42.38607" lon="0.880034">
        <ele>967</ele>
        <time>1970-01-01T03:41:04.000Z</time>
      </trkpt>
      <trkpt lat="42.386069" lon="0.880121">
        <ele>967.8</ele>
        <time>1970-01-01T03:41:10.000Z</time>
      </trkpt>
      <trkpt lat="42.386059" lon="0.880198">
        <ele>968.2</ele>
        <time>1970-01-01T03:41:15.000Z</time>
      </trkpt>
      <trkpt lat="42.386054" lon="0.880269">
        <ele>969</ele>
        <time>1970-01-01T03:41:20.000Z</time>
      </trkpt>
      <trkpt lat="42.38605" lon="0.880316">
        <ele>969.4</ele>
        <time>1970-01-01T03:41:24.000Z</time>
      </trkpt>
      <trkpt lat="42.386053" lon="0.880345">
        <ele>969.6</ele>
        <time>1970-01-01T03:41:26.000Z</time>
      </trkpt>
      <trkpt lat="42.386065" lon="0.880446">
        <ele>970.2</ele>
        <time>1970-01-01T03:41:32.000Z</time>
      </trkpt>
      <trkpt lat="42.386078" lon="0.880537">
        <ele>970.8</ele>
        <time>1970-01-01T03:41:37.000Z</time>
      </trkpt>
      <trkpt lat="42.386041" lon="0.880698">
        <ele>971.6</ele>
        <time>1970-01-01T03:41:45.000Z</time>
      </trkpt>
      <trkpt lat="42.385989" lon="0.880822">
        <ele>972</ele>
        <time>1970-01-01T03:41:51.000Z</time>
      </trkpt>
      <trkpt lat="42.385937" lon="0.880927">
        <ele>972.6</ele>
        <time>1970-01-01T03:41:56.000Z</time>
      </trkpt>
      <trkpt lat="42.385886" lon="0.881022">
        <ele>973.2</ele>
        <time>1970-01-01T03:42:01.000Z</time>
      </trkpt>
      <trkpt lat="42.385859" lon="0.881103">
        <ele>974</ele>
        <time>1970-01-01T03:42:05.000Z</time>
      </trkpt>
      <trkpt lat="42.385837" lon="0.881199">
        <ele>974.4</ele>
        <time>1970-01-01T03:42:10.000Z</time>
      </trkpt>
      <trkpt lat="42.385817" lon="0.881287">
        <ele>975.2</ele>
        <time>1970-01-01T03:42:15.000Z</time>
      </trkpt>
      <trkpt lat="42.38581" lon="0.881374">
        <ele>976</ele>
        <time>1970-01-01T03:42:20.000Z</time>
      </trkpt>
      <trkpt lat="42.385807" lon="0.881487">
        <ele>976.4</ele>
        <time>1970-01-01T03:42:26.000Z</time>
      </trkpt>
      <trkpt lat="42.385821" lon="0.881537">
        <ele>976.8</ele>
        <time>1970-01-01T03:42:29.000Z</time>
      </trkpt>
      <trkpt lat="42.385826" lon="0.881575">
        <ele>977</ele>
        <time>1970-01-01T03:42:31.000Z</time>
      </trkpt>
      <trkpt lat="42.385842" lon="0.881642">
        <ele>977.6</ele>
        <time>1970-01-01T03:42:35.000Z</time>
      </trkpt>
      <trkpt lat="42.385857" lon="0.881724">
        <ele>978.2</ele>
        <time>1970-01-01T03:42:40.000Z</time>
      </trkpt>
      <trkpt lat="42.385857" lon="0.881742">
        <ele>978.4</ele>
        <time>1970-01-01T03:42:41.000Z</time>
      </trkpt>
      <trkpt lat="42.38588" lon="0.881838">
        <ele>978.8</ele>
        <time>1970-01-01T03:42:47.000Z</time>
      </trkpt>
      <trkpt lat="42.385883" lon="0.881852">
        <ele>978.8</ele>
        <time>1970-01-01T03:42:48.000Z</time>
      </trkpt>
      <trkpt lat="42.385889" lon="0.881868">
        <ele>979</ele>
        <time>1970-01-01T03:42:49.000Z</time>
      </trkpt>
      <trkpt lat="42.385906" lon="0.881934">
        <ele>979.4</ele>
        <time>1970-01-01T03:42:53.000Z</time>
      </trkpt>
      <trkpt lat="42.385922" lon="0.882016">
        <ele>980</ele>
        <time>1970-01-01T03:42:58.000Z</time>
      </trkpt>
      <trkpt lat="42.385956" lon="0.882122">
        <ele>980.6</ele>
        <time>1970-01-01T03:43:05.000Z</time>
      </trkpt>
      <trkpt lat="42.385978" lon="0.882226">
        <ele>981.4</ele>
        <time>1970-01-01T03:43:11.000Z</time>
      </trkpt>
      <trkpt lat="42.386004" lon="0.882304">
        <ele>981.8</ele>
        <time>1970-01-01T03:43:16.000Z</time>
      </trkpt>
      <trkpt lat="42.386042" lon="0.882461">
        <ele>982.2</ele>
        <time>1970-01-01T03:43:25.000Z</time>
      </trkpt>
      <trkpt lat="42.386064" lon="0.882501">
        <ele>982.4</ele>
        <time>1970-01-01T03:43:28.000Z</time>
      </trkpt>
      <trkpt lat="42.386095" lon="0.882495">
        <ele>982.8</ele>
        <time>1970-01-01T03:43:31.000Z</time>
      </trkpt>
      <trkpt lat="42.386116" lon="0.882479">
        <ele>982.8</ele>
        <time>1970-01-01T03:43:33.000Z</time>
      </trkpt>
      <trkpt lat="42.386147" lon="0.882388">
        <ele>983</ele>
        <time>1970-01-01T03:43:39.000Z</time>
      </trkpt>
      <trkpt lat="42.386152" lon="0.882225">
        <ele>983.4</ele>
        <time>1970-01-01T03:43:48.000Z</time>
      </trkpt>
      <trkpt lat="42.386151" lon="0.882175">
        <ele>983.8</ele>
        <time>1970-01-01T03:43:51.000Z</time>
      </trkpt>
      <trkpt lat="42.386156" lon="0.882124">
        <ele>984</ele>
        <time>1970-01-01T03:43:54.000Z</time>
      </trkpt>
      <trkpt lat="42.386154" lon="0.882107">
        <ele>984.2</ele>
        <time>1970-01-01T03:43:55.000Z</time>
      </trkpt>
      <trkpt lat="42.386144" lon="0.882022">
        <ele>984.6</ele>
        <time>1970-01-01T03:44:00.000Z</time>
      </trkpt>
      <trkpt lat="42.386126" lon="0.881919">
        <ele>985</ele>
        <time>1970-01-01T03:44:06.000Z</time>
      </trkpt>
      <trkpt lat="42.386126" lon="0.881854">
        <ele>985.4</ele>
        <time>1970-01-01T03:44:10.000Z</time>
      </trkpt>
      <trkpt lat="42.386132" lon="0.881796">
        <ele>985.8</ele>
        <time>1970-01-01T03:44:13.000Z</time>
      </trkpt>
      <trkpt lat="42.386136" lon="0.881776">
        <ele>985.8</ele>
        <time>1970-01-01T03:44:14.000Z</time>
      </trkpt>
      <trkpt lat="42.386161" lon="0.881627">
        <ele>986</ele>
        <time>1970-01-01T03:44:22.000Z</time>
      </trkpt>
      <trkpt lat="42.386191" lon="0.881551">
        <ele>986.6</ele>
        <time>1970-01-01T03:44:27.000Z</time>
      </trkpt>
      <trkpt lat="42.386317" lon="0.88147">
        <ele>986.8</ele>
        <time>1970-01-01T03:44:36.000Z</time>
      </trkpt>
      <trkpt lat="42.386443" lon="0.88141">
        <ele>987.2</ele>
        <time>1970-01-01T03:44:45.000Z</time>
      </trkpt>
      <trkpt lat="42.38657" lon="0.881313">
        <ele>987.2</ele>
        <time>1970-01-01T03:44:56.000Z</time>
      </trkpt>
      <trkpt lat="42.386644" lon="0.881413">
        <ele>987.2</ele>
        <time>1970-01-01T03:45:06.000Z</time>
      </trkpt>
      <trkpt lat="42.38664" lon="0.881451">
        <ele>987.2</ele>
        <time>1970-01-01T03:45:08.000Z</time>
      </trkpt>
      <trkpt lat="42.386623" lon="0.881528">
        <ele>987.2</ele>
        <time>1970-01-01T03:45:12.000Z</time>
      </trkpt>
      <trkpt lat="42.386588" lon="0.88163">
        <ele>987.4</ele>
        <time>1970-01-01T03:45:18.000Z</time>
      </trkpt>
      <trkpt lat="42.386539" lon="0.881982">
        <ele>986.8</ele>
        <time>1970-01-01T03:45:36.000Z</time>
      </trkpt>
      <trkpt lat="42.386503" lon="0.882375">
        <ele>986</ele>
        <time>1970-01-01T03:45:56.000Z</time>
      </trkpt>
      <trkpt lat="42.386528" lon="0.882473">
        <ele>986</ele>
        <time>1970-01-01T03:46:01.000Z</time>
      </trkpt>
      <trkpt lat="42.386656" lon="0.882341">
        <ele>984.8</ele>
        <time>1970-01-01T03:46:15.000Z</time>
      </trkpt>
      <trkpt lat="42.386773" lon="0.882051">
        <ele>983.8</ele>
        <time>1970-01-01T03:46:33.000Z</time>
      </trkpt>
      <trkpt lat="42.386892" lon="0.881863">
        <ele>983.8</ele>
        <time>1970-01-01T03:46:46.000Z</time>
      </trkpt>
      <trkpt lat="42.387001" lon="0.881511">
        <ele>982.8</ele>
        <time>1970-01-01T03:47:07.000Z</time>
      </trkpt>
      <trkpt lat="42.387074" lon="0.88154">
        <ele>982.8</ele>
        <time>1970-01-01T03:47:13.000Z</time>
      </trkpt>
      <trkpt lat="42.387082" lon="0.881553">
        <ele>982.8</ele>
        <time>1970-01-01T03:47:14.000Z</time>
      </trkpt>
      <trkpt lat="42.387096" lon="0.881769">
        <ele>982.2</ele>
        <time>1970-01-01T03:47:26.000Z</time>
      </trkpt>
      <trkpt lat="42.387118" lon="0.881974">
        <ele>982.4</ele>
        <time>1970-01-01T03:47:37.000Z</time>
      </trkpt>
      <trkpt lat="42.387165" lon="0.882156">
        <ele>981.8</ele>
        <time>1970-01-01T03:47:48.000Z</time>
      </trkpt>
      <trkpt lat="42.387194" lon="0.882206">
        <ele>981.6</ele>
        <time>1970-01-01T03:47:52.000Z</time>
      </trkpt>
      <trkpt lat="42.3872" lon="0.882221">
        <ele>981.8</ele>
        <time>1970-01-01T03:47:53.000Z</time>
      </trkpt>
      <trkpt lat="42.387266" lon="0.88236">
        <ele>982.2</ele>
        <time>1970-01-01T03:48:03.000Z</time>
      </trkpt>
      <trkpt lat="42.387317" lon="0.882452">
        <ele>982.2</ele>
        <time>1970-01-01T03:48:10.000Z</time>
      </trkpt>
      <trkpt lat="42.387336" lon="0.882496">
        <ele>982.2</ele>
        <time>1970-01-01T03:48:13.000Z</time>
      </trkpt>
      <trkpt lat="42.387362" lon="0.882568">
        <ele>982.2</ele>
        <time>1970-01-01T03:48:18.000Z</time>
      </trkpt>
      <trkpt lat="42.387381" lon="0.882609">
        <ele>982.4</ele>
        <time>1970-01-01T03:48:21.000Z</time>
      </trkpt>
      <trkpt lat="42.387456" lon="0.882748">
        <ele>982.4</ele>
        <time>1970-01-01T03:48:31.000Z</time>
      </trkpt>
      <trkpt lat="42.387496" lon="0.882787">
        <ele>982.6</ele>
        <time>1970-01-01T03:48:35.000Z</time>
      </trkpt>
      <trkpt lat="42.387509" lon="0.882833">
        <ele>982.8</ele>
        <time>1970-01-01T03:48:38.000Z</time>
      </trkpt>
      <trkpt lat="42.387559" lon="0.883039">
        <ele>982.8</ele>
        <time>1970-01-01T03:48:51.000Z</time>
      </trkpt>
      <trkpt lat="42.387578" lon="0.883149">
        <ele>983.2</ele>
        <time>1970-01-01T03:48:58.000Z</time>
      </trkpt>
      <trkpt lat="42.387649" lon="0.883258">
        <ele>983.8</ele>
        <time>1970-01-01T03:49:06.000Z</time>
      </trkpt>
      <trkpt lat="42.387698" lon="0.88334">
        <ele>984.2</ele>
        <time>1970-01-01T03:49:12.000Z</time>
      </trkpt>
      <trkpt lat="42.38771" lon="0.883379">
        <ele>984.6</ele>
        <time>1970-01-01T03:49:16.000Z</time>
      </trkpt>
      <trkpt lat="42.387712" lon="0.883432">
        <ele>982.8</ele>
        <time>1970-01-01T03:51:04.000Z</time>
      </trkpt>
      <trkpt lat="42.38778" lon="0.883764">
        <ele>982.8</ele>
        <time>1970-01-01T03:51:17.000Z</time>
      </trkpt>
      <trkpt lat="42.387795" lon="0.883953">
        <ele>983.2</ele>
        <time>1970-01-01T03:51:24.000Z</time>
      </trkpt>
      <trkpt lat="42.387811" lon="0.884101">
        <ele>983.6</ele>
        <time>1970-01-01T03:51:30.000Z</time>
      </trkpt>
      <trkpt lat="42.38782" lon="0.884249">
        <ele>984.2</ele>
        <time>1970-01-01T03:51:36.000Z</time>
      </trkpt>
      <trkpt lat="42.387824" lon="0.884324">
        <ele>985</ele>
        <time>1970-01-01T03:51:39.000Z</time>
      </trkpt>
      <trkpt lat="42.387824" lon="0.884448">
        <ele>985.4</ele>
        <time>1970-01-01T03:51:44.000Z</time>
      </trkpt>
      <trkpt lat="42.387811" lon="0.884543">
        <ele>986.2</ele>
        <time>1970-01-01T03:51:48.000Z</time>
      </trkpt>
      <trkpt lat="42.387804" lon="0.884659">
        <ele>987</ele>
        <time>1970-01-01T03:51:53.000Z</time>
      </trkpt>
      <trkpt lat="42.387797" lon="0.884754">
        <ele>987.6</ele>
        <time>1970-01-01T03:51:57.000Z</time>
      </trkpt>
      <trkpt lat="42.387812" lon="0.884875">
        <ele>988.4</ele>
        <time>1970-01-01T03:52:02.000Z</time>
      </trkpt>
      <trkpt lat="42.387833" lon="0.884959">
        <ele>989.2</ele>
        <time>1970-01-01T03:52:06.000Z</time>
      </trkpt>
      <trkpt lat="42.387858" lon="0.885059">
        <ele>990</ele>
        <time>1970-01-01T03:52:11.000Z</time>
      </trkpt>
      <trkpt lat="42.387906" lon="0.885137">
        <ele>990.8</ele>
        <time>1970-01-01T03:52:16.000Z</time>
      </trkpt>
      <trkpt lat="42.387956" lon="0.885166">
        <ele>991.6</ele>
        <time>1970-01-01T03:52:20.000Z</time>
      </trkpt>
      <trkpt lat="42.38804" lon="0.885159">
        <ele>992.2</ele>
        <time>1970-01-01T03:52:25.000Z</time>
      </trkpt>
      <trkpt lat="42.388104" lon="0.885205">
        <ele>993</ele>
        <time>1970-01-01T03:52:30.000Z</time>
      </trkpt>
      <trkpt lat="42.388122" lon="0.885295">
        <ele>993.4</ele>
        <time>1970-01-01T03:52:35.000Z</time>
      </trkpt>
      <trkpt lat="42.388116" lon="0.885313">
        <ele>993.8</ele>
        <time>1970-01-01T03:52:36.000Z</time>
      </trkpt>
      <trkpt lat="42.388081" lon="0.885373">
        <ele>994.4</ele>
        <time>1970-01-01T03:52:40.000Z</time>
      </trkpt>
      <trkpt lat="42.388042" lon="0.885426">
        <ele>995.2</ele>
        <time>1970-01-01T03:52:44.000Z</time>
      </trkpt>
      <trkpt lat="42.388" lon="0.885466">
        <ele>996.2</ele>
        <time>1970-01-01T03:52:48.000Z</time>
      </trkpt>
      <trkpt lat="42.387969" lon="0.885518">
        <ele>996.8</ele>
        <time>1970-01-01T03:52:52.000Z</time>
      </trkpt>
      <trkpt lat="42.387958" lon="0.885566">
        <ele>997.4</ele>
        <time>1970-01-01T03:52:55.000Z</time>
      </trkpt>
      <trkpt lat="42.387945" lon="0.885631">
        <ele>998.6</ele>
        <time>1970-01-01T03:52:59.000Z</time>
      </trkpt>
      <trkpt lat="42.38794" lon="0.885697">
        <ele>999.6</ele>
        <time>1970-01-01T03:53:03.000Z</time>
      </trkpt>
      <trkpt lat="42.387961" lon="0.885734">
        <ele>1000.2</ele>
        <time>1970-01-01T03:53:06.000Z</time>
      </trkpt>
      <trkpt lat="42.388013" lon="0.885762">
        <ele>1001.2</ele>
        <time>1970-01-01T03:53:11.000Z</time>
      </trkpt>
      <trkpt lat="42.388059" lon="0.885742">
        <ele>1002</ele>
        <time>1970-01-01T03:53:15.000Z</time>
      </trkpt>
      <trkpt lat="42.38807" lon="0.885738">
        <ele>1002.4</ele>
        <time>1970-01-01T03:53:16.000Z</time>
      </trkpt>
      <trkpt lat="42.388104" lon="0.885714">
        <ele>1003</ele>
        <time>1970-01-01T03:53:19.000Z</time>
      </trkpt>
      <trkpt lat="42.388124" lon="0.885695">
        <ele>1003.4</ele>
        <time>1970-01-01T03:53:21.000Z</time>
      </trkpt>
      <trkpt lat="42.388134" lon="0.885689">
        <ele>1003.6</ele>
        <time>1970-01-01T03:53:22.000Z</time>
      </trkpt>
      <trkpt lat="42.38818" lon="0.885656">
        <ele>1004.4</ele>
        <time>1970-01-01T03:53:26.000Z</time>
      </trkpt>
      <trkpt lat="42.388229" lon="0.885613">
        <ele>1005.2</ele>
        <time>1970-01-01T03:53:31.000Z</time>
      </trkpt>
      <trkpt lat="42.388277" lon="0.885597">
        <ele>1006.4</ele>
        <time>1970-01-01T03:53:35.000Z</time>
      </trkpt>
      <trkpt lat="42.388332" lon="0.885598">
        <ele>1007.4</ele>
        <time>1970-01-01T03:53:39.000Z</time>
      </trkpt>
      <trkpt lat="42.38837" lon="0.885612">
        <ele>1008</ele>
        <time>1970-01-01T03:53:42.000Z</time>
      </trkpt>
      <trkpt lat="42.388419" lon="0.885621">
        <ele>1009</ele>
        <time>1970-01-01T03:53:46.000Z</time>
      </trkpt>
      <trkpt lat="42.388452" lon="0.88565">
        <ele>1009.8</ele>
        <time>1970-01-01T03:53:49.000Z</time>
      </trkpt>
      <trkpt lat="42.388459" lon="0.885698">
        <ele>1010.8</ele>
        <time>1970-01-01T03:53:52.000Z</time>
      </trkpt>
      <trkpt lat="42.388442" lon="0.885727">
        <ele>1011.2</ele>
        <time>1970-01-01T03:53:54.000Z</time>
      </trkpt>
      <trkpt lat="42.38843" lon="0.885735">
        <ele>1011.6</ele>
        <time>1970-01-01T03:53:55.000Z</time>
      </trkpt>
      <trkpt lat="42.38839" lon="0.885758">
        <ele>1012.6</ele>
        <time>1970-01-01T03:53:58.000Z</time>
      </trkpt>
      <trkpt lat="42.388349" lon="0.885774">
        <ele>1013.6</ele>
        <time>1970-01-01T03:54:01.000Z</time>
      </trkpt>
      <trkpt lat="42.388306" lon="0.885795">
        <ele>1015</ele>
        <time>1970-01-01T03:54:04.000Z</time>
      </trkpt>
      <trkpt lat="42.388284" lon="0.88582">
        <ele>1016</ele>
        <time>1970-01-01T03:54:06.000Z</time>
      </trkpt>
      <trkpt lat="42.388245" lon="0.885884">
        <ele>1017</ele>
        <time>1970-01-01T03:54:10.000Z</time>
      </trkpt>
      <trkpt lat="42.388229" lon="0.885921">
        <ele>1017.8</ele>
        <time>1970-01-01T03:54:12.000Z</time>
      </trkpt>
      <trkpt lat="42.388214" lon="0.885959">
        <ele>1018.8</ele>
        <time>1970-01-01T03:54:14.000Z</time>
      </trkpt>
      <trkpt lat="42.388199" lon="0.886017">
        <ele>1020.2</ele>
        <time>1970-01-01T03:54:17.000Z</time>
      </trkpt>
      <trkpt lat="42.388191" lon="0.886056">
        <ele>1021.6</ele>
        <time>1970-01-01T03:54:19.000Z</time>
      </trkpt>
      <trkpt lat="42.388185" lon="0.886092">
        <ele>1023</ele>
        <time>1970-01-01T03:54:21.000Z</time>
      </trkpt>
      <trkpt lat="42.388179" lon="0.886126">
        <ele>1024.6</ele>
        <time>1970-01-01T03:54:23.000Z</time>
      </trkpt>
      <trkpt lat="42.388174" lon="0.886164">
        <ele>1026.4</ele>
        <time>1970-01-01T03:54:25.000Z</time>
      </trkpt>
      <trkpt lat="42.388174" lon="0.8862">
        <ele>1027.8</ele>
        <time>1970-01-01T03:54:27.000Z</time>
      </trkpt>
      <trkpt lat="42.388171" lon="0.886236">
        <ele>1029.4</ele>
        <time>1970-01-01T03:54:29.000Z</time>
      </trkpt>
      <trkpt lat="42.388171" lon="0.886272">
        <ele>1030.8</ele>
        <time>1970-01-01T03:54:31.000Z</time>
      </trkpt>
      <trkpt lat="42.388168" lon="0.886289">
        <ele>1031.8</ele>
        <time>1970-01-01T03:54:32.000Z</time>
      </trkpt>
      <trkpt lat="42.388166" lon="0.886324">
        <ele>1033.4</ele>
        <time>1970-01-01T03:54:34.000Z</time>
      </trkpt>
      <trkpt lat="42.388166" lon="0.886359">
        <ele>1035.2</ele>
        <time>1970-01-01T03:54:36.000Z</time>
      </trkpt>
      <trkpt lat="42.388165" lon="0.886394">
        <ele>1036.8</ele>
        <time>1970-01-01T03:54:38.000Z</time>
      </trkpt>
      <trkpt lat="42.388163" lon="0.886429">
        <ele>1038.6</ele>
        <time>1970-01-01T03:54:40.000Z</time>
      </trkpt>
      <trkpt lat="42.388162" lon="0.886447">
        <ele>1039.8</ele>
        <time>1970-01-01T03:54:41.000Z</time>
      </trkpt>
      <trkpt lat="42.388162" lon="0.886464">
        <ele>1040.6</ele>
        <time>1970-01-01T03:54:42.000Z</time>
      </trkpt>
      <trkpt lat="42.388161" lon="0.886496">
        <ele>1042.4</ele>
        <time>1970-01-01T03:54:44.000Z</time>
      </trkpt>
      <trkpt lat="42.388163" lon="0.88653">
        <ele>1044</ele>
        <time>1970-01-01T03:54:46.000Z</time>
      </trkpt>
      <trkpt lat="42.388163" lon="0.886566">
        <ele>1045.6</ele>
        <time>1970-01-01T03:54:48.000Z</time>
      </trkpt>
      <trkpt lat="42.388163" lon="0.886584">
        <ele>1046.6</ele>
        <time>1970-01-01T03:54:49.000Z</time>
      </trkpt>
      <trkpt lat="42.388164" lon="0.886601">
        <ele>1047.6</ele>
        <time>1970-01-01T03:54:50.000Z</time>
      </trkpt>
      <trkpt lat="42.388164" lon="0.886634">
        <ele>1049.2</ele>
        <time>1970-01-01T03:54:52.000Z</time>
      </trkpt>
      <trkpt lat="42.388165" lon="0.886667">
        <ele>1050.6</ele>
        <time>1970-01-01T03:54:54.000Z</time>
      </trkpt>
      <trkpt lat="42.388165" lon="0.886684">
        <ele>1051.8</ele>
        <time>1970-01-01T03:54:55.000Z</time>
      </trkpt>
      <trkpt lat="42.388165" lon="0.886718">
        <ele>1053.2</ele>
        <time>1970-01-01T03:54:57.000Z</time>
      </trkpt>
      <trkpt lat="42.388166" lon="0.886734">
        <ele>1054.4</ele>
        <time>1970-01-01T03:54:58.000Z</time>
      </trkpt>
      <trkpt lat="42.388165" lon="0.886767">
        <ele>1056</ele>
        <time>1970-01-01T03:55:00.000Z</time>
      </trkpt>
      <trkpt lat="42.388165" lon="0.886797">
        <ele>1057.6</ele>
        <time>1970-01-01T03:55:02.000Z</time>
      </trkpt>
      <trkpt lat="42.388167" lon="0.886823">
        <ele>1059.4</ele>
        <time>1970-01-01T03:55:04.000Z</time>
      </trkpt>
      <trkpt lat="42.388166" lon="0.886855">
        <ele>1060.8</ele>
        <time>1970-01-01T03:55:06.000Z</time>
      </trkpt>
      <trkpt lat="42.388154" lon="0.886883">
        <ele>1062.4</ele>
        <time>1970-01-01T03:55:08.000Z</time>
      </trkpt>
      <trkpt lat="42.388149" lon="0.886916">
        <ele>1064.2</ele>
        <time>1970-01-01T03:55:10.000Z</time>
      </trkpt>
      <trkpt lat="42.388148" lon="0.886931">
        <ele>1065.2</ele>
        <time>1970-01-01T03:55:11.000Z</time>
      </trkpt>
      <trkpt lat="42.388147" lon="0.886945">
        <ele>1065.8</ele>
        <time>1970-01-01T03:55:12.000Z</time>
      </trkpt>
      <trkpt lat="42.388143" lon="0.886973">
        <ele>1067</ele>
        <time>1970-01-01T03:55:14.000Z</time>
      </trkpt>
      <trkpt lat="42.388137" lon="0.887002">
        <ele>1068.4</ele>
        <time>1970-01-01T03:55:16.000Z</time>
      </trkpt>
      <trkpt lat="42.388135" lon="0.887033">
        <ele>1070.4</ele>
        <time>1970-01-01T03:55:18.000Z</time>
      </trkpt>
      <trkpt lat="42.388132" lon="0.887064">
        <ele>1071.8</ele>
        <time>1970-01-01T03:55:20.000Z</time>
      </trkpt>
      <trkpt lat="42.38813" lon="0.887094">
        <ele>1073.2</ele>
        <time>1970-01-01T03:55:22.000Z</time>
      </trkpt>
      <trkpt lat="42.38813" lon="0.887125">
        <ele>1074.8</ele>
        <time>1970-01-01T03:55:24.000Z</time>
      </trkpt>
      <trkpt lat="42.388131" lon="0.887139">
        <ele>1075.8</ele>
        <time>1970-01-01T03:55:25.000Z</time>
      </trkpt>
      <trkpt lat="42.388133" lon="0.887171">
        <ele>1077</ele>
        <time>1970-01-01T03:55:27.000Z</time>
      </trkpt>
      <trkpt lat="42.388139" lon="0.887204">
        <ele>1078.8</ele>
        <time>1970-01-01T03:55:29.000Z</time>
      </trkpt>
      <trkpt lat="42.388147" lon="0.887236">
        <ele>1080.2</ele>
        <time>1970-01-01T03:55:31.000Z</time>
      </trkpt>
      <trkpt lat="42.388155" lon="0.887267">
        <ele>1082</ele>
        <time>1970-01-01T03:55:33.000Z</time>
      </trkpt>
      <trkpt lat="42.388157" lon="0.887283">
        <ele>1083.2</ele>
        <time>1970-01-01T03:55:34.000Z</time>
      </trkpt>
      <trkpt lat="42.38816" lon="0.887297">
        <ele>1084.4</ele>
        <time>1970-01-01T03:55:35.000Z</time>
      </trkpt>
      <trkpt lat="42.388164" lon="0.887311">
        <ele>1086</ele>
        <time>1970-01-01T03:55:36.000Z</time>
      </trkpt>
      <trkpt lat="42.388165" lon="0.887327">
        <ele>1087.8</ele>
        <time>1970-01-01T03:55:37.000Z</time>
      </trkpt>
      <trkpt lat="42.388166" lon="0.887342">
        <ele>1089.2</ele>
        <time>1970-01-01T03:55:38.000Z</time>
      </trkpt>
      <trkpt lat="42.388166" lon="0.887357">
        <ele>1090.8</ele>
        <time>1970-01-01T03:55:39.000Z</time>
      </trkpt>
      <trkpt lat="42.388166" lon="0.887374">
        <ele>1092.2</ele>
        <time>1970-01-01T03:55:40.000Z</time>
      </trkpt>
      <trkpt lat="42.388167" lon="0.887389">
        <ele>1094</ele>
        <time>1970-01-01T03:55:41.000Z</time>
      </trkpt>
      <trkpt lat="42.388168" lon="0.887403">
        <ele>1096.8</ele>
        <time>1970-01-01T03:55:42.000Z</time>
      </trkpt>
      <trkpt lat="42.38817" lon="0.887416">
        <ele>1099.2</ele>
        <time>1970-01-01T03:55:43.000Z</time>
      </trkpt>
      <trkpt lat="42.388172" lon="0.88743">
        <ele>1101.2</ele>
        <time>1970-01-01T03:55:44.000Z</time>
      </trkpt>
      <trkpt lat="42.388172" lon="0.887445">
        <ele>1103.8</ele>
        <time>1970-01-01T03:55:45.000Z</time>
      </trkpt>
      <trkpt lat="42.38817" lon="0.887459">
        <ele>1106.2</ele>
        <time>1970-01-01T03:55:46.000Z</time>
      </trkpt>
      <trkpt lat="42.388165" lon="0.887474">
        <ele>1108.2</ele>
        <time>1970-01-01T03:55:47.000Z</time>
      </trkpt>
      <trkpt lat="42.388158" lon="0.887488">
        <ele>1110.4</ele>
        <time>1970-01-01T03:55:48.000Z</time>
      </trkpt>
      <trkpt lat="42.388153" lon="0.887502">
        <ele>1112.4</ele>
        <time>1970-01-01T03:55:49.000Z</time>
      </trkpt>
      <trkpt lat="42.38815" lon="0.887516">
        <ele>1114.6</ele>
        <time>1970-01-01T03:55:50.000Z</time>
      </trkpt>
      <trkpt lat="42.388149" lon="0.887531">
        <ele>1117.2</ele>
        <time>1970-01-01T03:55:51.000Z</time>
      </trkpt>
      <trkpt lat="42.388149" lon="0.887547">
        <ele>1119.6</ele>
        <time>1970-01-01T03:55:52.000Z</time>
      </trkpt>
      <trkpt lat="42.38815" lon="0.887563">
        <ele>1121.8</ele>
        <time>1970-01-01T03:55:53.000Z</time>
      </trkpt>
      <trkpt lat="42.38815" lon="0.887579">
        <ele>1124</ele>
        <time>1970-01-01T03:55:54.000Z</time>
      </trkpt>
      <trkpt lat="42.388154" lon="0.887594">
        <ele>1126</ele>
        <time>1970-01-01T03:55:55.000Z</time>
      </trkpt>
      <trkpt lat="42.388159" lon="0.887607">
        <ele>1128.6</ele>
        <time>1970-01-01T03:55:56.000Z</time>
      </trkpt>
      <trkpt lat="42.388164" lon="0.887621">
        <ele>1130.8</ele>
        <time>1970-01-01T03:55:57.000Z</time>
      </trkpt>
      <trkpt lat="42.38817" lon="0.887633">
        <ele>1133</ele>
        <time>1970-01-01T03:55:58.000Z</time>
      </trkpt>
      <trkpt lat="42.38818" lon="0.88764">
        <ele>1152.8</ele>
        <time>1970-01-01T03:55:59.000Z</time>
      </trkpt>
      <trkpt lat="42.388191" lon="0.887646">
        <ele>1198</ele>
        <time>1970-01-01T03:56:00.000Z</time>
      </trkpt>
      <trkpt lat="42.388204" lon="0.887649">
        <ele>1228.2</ele>
        <time>1970-01-01T03:56:01.000Z</time>
      </trkpt>
      <trkpt lat="42.388216" lon="0.88765">
        <ele>1252.2</ele>
        <time>1970-01-01T03:56:02.000Z</time>
      </trkpt>
      <trkpt lat="42.388228" lon="0.887648">
        <ele>1270.4</ele>
        <time>1970-01-01T03:56:03.000Z</time>
      </trkpt>
      <trkpt lat="42.388239" lon="0.887642">
        <ele>1283.4</ele>
        <time>1970-01-01T03:56:04.000Z</time>
      </trkpt>
      <trkpt lat="42.388248" lon="0.887634">
        <ele>1293</ele>
        <time>1970-01-01T03:56:05.000Z</time>
      </trkpt>
      <trkpt lat="42.388255" lon="0.887624">
        <ele>1300.2</ele>
        <time>1970-01-01T03:56:06.000Z</time>
      </trkpt>
      <trkpt lat="42.388262" lon="0.887615">
        <ele>1304.8</ele>
        <time>1970-01-01T03:56:07.000Z</time>
      </trkpt>
      <trkpt lat="42.38827" lon="0.887607">
        <ele>1309.2</ele>
        <time>1970-01-01T03:56:08.000Z</time>
      </trkpt>
      <trkpt lat="42.388279" lon="0.887599">
        <ele>1311.4</ele>
        <time>1970-01-01T03:56:09.000Z</time>
      </trkpt>
      <trkpt lat="42.388288" lon="0.887592">
        <ele>1313</ele>
        <time>1970-01-01T03:56:10.000Z</time>
      </trkpt>
      <trkpt lat="42.388294" lon="0.887582">
        <ele>1314.4</ele>
        <time>1970-01-01T03:56:11.000Z</time>
      </trkpt>
      <trkpt lat="42.388304" lon="0.887555">
        <ele>1315.8</ele>
        <time>1970-01-01T03:56:13.000Z</time>
      </trkpt>
      <trkpt lat="42.388307" lon="0.88754">
        <ele>1316.6</ele>
        <time>1970-01-01T03:56:14.000Z</time>
      </trkpt>
      <trkpt lat="42.388312" lon="0.887507">
        <ele>1317.2</ele>
        <time>1970-01-01T03:56:16.000Z</time>
      </trkpt>
      <trkpt lat="42.388321" lon="0.887418">
        <ele>1318.8</ele>
        <time>1970-01-01T03:56:22.000Z</time>
      </trkpt>
      <trkpt lat="42.388345" lon="0.887213">
        <ele>1321</ele>
        <time>1970-01-01T03:56:35.000Z</time>
      </trkpt>
      <trkpt lat="42.388394" lon="0.887009">
        <ele>1322.8</ele>
        <time>1970-01-01T03:56:48.000Z</time>
      </trkpt>
      <trkpt lat="42.38856" lon="0.886928">
        <ele>1325.2</ele>
        <time>1970-01-01T03:57:03.000Z</time>
      </trkpt>
      <trkpt lat="42.388658" lon="0.887002">
        <ele>1326.8</ele>
        <time>1970-01-01T03:57:12.000Z</time>
      </trkpt>
      <trkpt lat="42.388774" lon="0.887079">
        <ele>1328.6</ele>
        <time>1970-01-01T03:57:22.000Z</time>
      </trkpt>
      <trkpt lat="42.38885" lon="0.88716">
        <ele>1329.6</ele>
        <time>1970-01-01T03:57:30.000Z</time>
      </trkpt>
      <trkpt lat="42.388899" lon="0.887225">
        <ele>1330.8</ele>
        <time>1970-01-01T03:57:36.000Z</time>
      </trkpt>
      <trkpt lat="42.388914" lon="0.887309">
        <ele>1332.2</ele>
        <time>1970-01-01T03:57:43.000Z</time>
      </trkpt>
      <trkpt lat="42.388934" lon="0.887424">
        <ele>1333</ele>
        <time>1970-01-01T04:01:09.000Z</time>
      </trkpt>
      <trkpt lat="42.388951" lon="0.888154">
        <ele>1336.4</ele>
        <time>1970-01-01T04:01:46.000Z</time>
      </trkpt>
      <trkpt lat="42.389017" lon="0.888613">
        <ele>1338.2</ele>
        <time>1970-01-01T04:02:09.000Z</time>
      </trkpt>
      <trkpt lat="42.389097" lon="0.888825">
        <ele>1340.2</ele>
        <time>1970-01-01T04:02:22.000Z</time>
      </trkpt>
      <trkpt lat="42.38916" lon="0.88899">
        <ele>1342</ele>
        <time>1970-01-01T04:02:33.000Z</time>
      </trkpt>
      <trkpt lat="42.389227" lon="0.889111">
        <ele>1343.6</ele>
        <time>1970-01-01T04:02:42.000Z</time>
      </trkpt>
      <trkpt lat="42.389336" lon="0.889218">
        <ele>1345.4</ele>
        <time>1970-01-01T04:02:53.000Z</time>
      </trkpt>
      <trkpt lat="42.389364" lon="0.889378">
        <ele>1347.4</ele>
        <time>1970-01-01T04:03:05.000Z</time>
      </trkpt>
      <trkpt lat="42.389313" lon="0.889396">
        <ele>1347.8</ele>
        <time>1970-01-01T04:03:09.000Z</time>
      </trkpt>
      <trkpt lat="42.389142" lon="0.889421">
        <ele>1349.2</ele>
        <time>1970-01-01T04:03:21.000Z</time>
      </trkpt>
      <trkpt lat="42.389024" lon="0.889551">
        <ele>1350.2</ele>
        <time>1970-01-01T04:03:33.000Z</time>
      </trkpt>
      <trkpt lat="42.389075" lon="0.889619">
        <ele>1351.4</ele>
        <time>1970-01-01T04:03:39.000Z</time>
      </trkpt>
      <trkpt lat="42.389198" lon="0.889632">
        <ele>1353</ele>
        <time>1970-01-01T04:03:48.000Z</time>
      </trkpt>
      <trkpt lat="42.389379" lon="0.889639">
        <ele>1354.6</ele>
        <time>1970-01-01T04:04:02.000Z</time>
      </trkpt>
      <trkpt lat="42.389384" lon="0.88965">
        <ele>1355</ele>
        <time>1970-01-01T04:04:03.000Z</time>
      </trkpt>
      <trkpt lat="42.389333" lon="0.889739">
        <ele>1356</ele>
        <time>1970-01-01T04:04:10.000Z</time>
      </trkpt>
      <trkpt lat="42.389264" lon="0.889776">
        <ele>1356.8</ele>
        <time>1970-01-01T04:04:16.000Z</time>
      </trkpt>
      <trkpt lat="42.389117" lon="0.889842">
        <ele>1358.6</ele>
        <time>1970-01-01T04:04:28.000Z</time>
      </trkpt>
      <trkpt lat="42.389" lon="0.889919">
        <ele>1360.4</ele>
        <time>1970-01-01T04:04:40.000Z</time>
      </trkpt>
      <trkpt lat="42.38898" lon="0.889929">
        <ele>1361</ele>
        <time>1970-01-01T04:04:42.000Z</time>
      </trkpt>
      <trkpt lat="42.388924" lon="0.889973">
        <ele>1362</ele>
        <time>1970-01-01T04:04:48.000Z</time>
      </trkpt>
      <trkpt lat="42.388785" lon="0.890065">
        <ele>1363.8</ele>
        <time>1970-01-01T04:05:01.000Z</time>
      </trkpt>
      <trkpt lat="42.38872" lon="0.890113">
        <ele>1365.2</ele>
        <time>1970-01-01T04:05:08.000Z</time>
      </trkpt>
      <trkpt lat="42.38871" lon="0.890118">
        <ele>1365.4</ele>
        <time>1970-01-01T04:05:09.000Z</time>
      </trkpt>
      <trkpt lat="42.388641" lon="0.890174">
        <ele>1366.6</ele>
        <time>1970-01-01T04:05:16.000Z</time>
      </trkpt>
      <trkpt lat="42.388514" lon="0.890261">
        <ele>1368.6</ele>
        <time>1970-01-01T04:05:29.000Z</time>
      </trkpt>
      <trkpt lat="42.388432" lon="0.890316">
        <ele>1370</ele>
        <time>1970-01-01T04:05:37.000Z</time>
      </trkpt>
      <trkpt lat="42.38833" lon="0.890383">
        <ele>1371.6</ele>
        <time>1970-01-01T04:05:47.000Z</time>
      </trkpt>
      <trkpt lat="42.388233" lon="0.890462">
        <ele>1373.6</ele>
        <time>1970-01-01T04:05:57.000Z</time>
      </trkpt>
      <trkpt lat="42.388166" lon="0.890514">
        <ele>1374.8</ele>
        <time>1970-01-01T04:06:04.000Z</time>
      </trkpt>
      <trkpt lat="42.388093" lon="0.890552">
        <ele>1376</ele>
        <time>1970-01-01T04:06:11.000Z</time>
      </trkpt>
      <trkpt lat="42.38807" lon="0.890548">
        <ele>1376.4</ele>
        <time>1970-01-01T04:06:13.000Z</time>
      </trkpt>
      <trkpt lat="42.388028" lon="0.890538">
        <ele>1377</ele>
        <time>1970-01-01T04:06:17.000Z</time>
      </trkpt>
      <trkpt lat="42.387907" lon="0.890532">
        <ele>1378.2</ele>
        <time>1970-01-01T04:06:27.000Z</time>
      </trkpt>
      <trkpt lat="42.387878" lon="0.890547">
        <ele>1378.8</ele>
        <time>1970-01-01T04:06:30.000Z</time>
      </trkpt>
      <trkpt lat="42.387853" lon="0.890552">
        <ele>1378.8</ele>
        <time>1970-01-01T04:06:32.000Z</time>
      </trkpt>
      <trkpt lat="42.387785" lon="0.890666">
        <ele>1380</ele>
        <time>1970-01-01T04:06:41.000Z</time>
      </trkpt>
      <trkpt lat="42.387756" lon="0.890757">
        <ele>1381</ele>
        <time>1970-01-01T04:06:48.000Z</time>
      </trkpt>
      <trkpt lat="42.387759" lon="0.890785">
        <ele>1381.6</ele>
        <time>1970-01-01T04:06:50.000Z</time>
      </trkpt>
      <trkpt lat="42.387765" lon="0.890797">
        <ele>1381.8</ele>
        <time>1970-01-01T04:06:51.000Z</time>
      </trkpt>
      <trkpt lat="42.387828" lon="0.890825">
        <ele>1382.6</ele>
        <time>1970-01-01T04:06:57.000Z</time>
      </trkpt>
      <trkpt lat="42.387883" lon="0.890792">
        <ele>1383.4</ele>
        <time>1970-01-01T04:07:02.000Z</time>
      </trkpt>
      <trkpt lat="42.387903" lon="0.890773">
        <ele>1383.6</ele>
        <time>1970-01-01T04:07:04.000Z</time>
      </trkpt>
      <trkpt lat="42.388058" lon="0.890831">
        <ele>1385.4</ele>
        <time>1970-01-01T04:07:19.000Z</time>
      </trkpt>
      <trkpt lat="42.388123" lon="0.890884">
        <ele>1386.6</ele>
        <time>1970-01-01T04:07:26.000Z</time>
      </trkpt>
      <trkpt lat="42.388222" lon="0.8909">
        <ele>1387.8</ele>
        <time>1970-01-01T04:07:34.000Z</time>
      </trkpt>
      <trkpt lat="42.388297" lon="0.890886">
        <ele>1388.6</ele>
        <time>1970-01-01T04:07:41.000Z</time>
      </trkpt>
      <trkpt lat="42.388427" lon="0.890911">
        <ele>1390.2</ele>
        <time>1970-01-01T04:07:53.000Z</time>
      </trkpt>
      <trkpt lat="42.388504" lon="0.890962">
        <ele>1391.8</ele>
        <time>1970-01-01T04:08:01.000Z</time>
      </trkpt>
      <trkpt lat="42.388615" lon="0.891043">
        <ele>1393.2</ele>
        <time>1970-01-01T04:08:12.000Z</time>
      </trkpt>
      <trkpt lat="42.388705" lon="0.891082">
        <ele>1394.6</ele>
        <time>1970-01-01T04:08:20.000Z</time>
      </trkpt>
      <trkpt lat="42.388786" lon="0.891137">
        <ele>1396</ele>
        <time>1970-01-01T04:08:27.000Z</time>
      </trkpt>
      <trkpt lat="42.388791" lon="0.891152">
        <ele>1396.2</ele>
        <time>1970-01-01T04:08:28.000Z</time>
      </trkpt>
      <trkpt lat="42.388785" lon="0.891217">
        <ele>1396.6</ele>
        <time>1970-01-01T04:08:32.000Z</time>
      </trkpt>
      <trkpt lat="42.388702" lon="0.891259">
        <ele>1397.8</ele>
        <time>1970-01-01T04:08:39.000Z</time>
      </trkpt>
      <trkpt lat="42.388153" lon="0.891372">
        <ele>1399</ele>
        <time>1970-01-01T04:09:07.000Z</time>
      </trkpt>
      <trkpt lat="42.387787" lon="0.891786">
        <ele>1401.8</ele>
        <time>1970-01-01T04:09:38.000Z</time>
      </trkpt>
      <trkpt lat="42.387627" lon="0.891846">
        <ele>1403.4</ele>
        <time>1970-01-01T04:09:50.000Z</time>
      </trkpt>
      <trkpt lat="42.387516" lon="0.891884">
        <ele>1404.8</ele>
        <time>1970-01-01T04:09:59.000Z</time>
      </trkpt>
      <trkpt lat="42.387453" lon="0.891985">
        <ele>1406.2</ele>
        <time>1970-01-01T04:10:07.000Z</time>
      </trkpt>
      <trkpt lat="42.387465" lon="0.89205">
        <ele>1406.6</ele>
        <time>1970-01-01T04:10:11.000Z</time>
      </trkpt>
      <trkpt lat="42.387564" lon="0.892125">
        <ele>1408</ele>
        <time>1970-01-01T04:10:20.000Z</time>
      </trkpt>
      <trkpt lat="42.387681" lon="0.892173">
        <ele>1409.4</ele>
        <time>1970-01-01T04:10:29.000Z</time>
      </trkpt>
      <trkpt lat="42.387755" lon="0.892192">
        <ele>1410.6</ele>
        <time>1970-01-01T04:10:35.000Z</time>
      </trkpt>
      <trkpt lat="42.387811" lon="0.892213">
        <ele>1411.6</ele>
        <time>1970-01-01T04:10:40.000Z</time>
      </trkpt>
      <trkpt lat="42.387839" lon="0.892238">
        <ele>1412</ele>
        <time>1970-01-01T04:10:43.000Z</time>
      </trkpt>
      <trkpt lat="42.387849" lon="0.892248">
        <ele>1412.2</ele>
        <time>1970-01-01T04:10:44.000Z</time>
      </trkpt>
      <trkpt lat="42.388017" lon="0.892429">
        <ele>1413.8</ele>
        <time>1970-01-01T04:10:59.000Z</time>
      </trkpt>
      <trkpt lat="42.38819" lon="0.892658">
        <ele>1415.8</ele>
        <time>1970-01-01T04:11:17.000Z</time>
      </trkpt>
      <trkpt lat="42.388269" lon="0.892707">
        <ele>1417.2</ele>
        <time>1970-01-01T04:11:24.000Z</time>
      </trkpt>
      <trkpt lat="42.388337" lon="0.892793">
        <ele>1418.6</ele>
        <time>1970-01-01T04:11:32.000Z</time>
      </trkpt>
      <trkpt lat="42.388474" lon="0.892948">
        <ele>1420.4</ele>
        <time>1970-01-01T04:11:45.000Z</time>
      </trkpt>
      <trkpt lat="42.388563" lon="0.893078">
        <ele>1421.8</ele>
        <time>1970-01-01T04:11:55.000Z</time>
      </trkpt>
      <trkpt lat="42.388589" lon="0.893208">
        <ele>1422.8</ele>
        <time>1970-01-01T04:12:03.000Z</time>
      </trkpt>
      <trkpt lat="42.388594" lon="0.893272">
        <ele>1423.4</ele>
        <time>1970-01-01T04:12:07.000Z</time>
      </trkpt>
      <trkpt lat="42.388576" lon="0.893449">
        <ele>1425</ele>
        <time>1970-01-01T04:12:18.000Z</time>
      </trkpt>
      <trkpt lat="42.388559" lon="0.893529">
        <ele>1426</ele>
        <time>1970-01-01T04:12:24.000Z</time>
      </trkpt>
      <trkpt lat="42.388559" lon="0.893574">
        <ele>1426.4</ele>
        <time>1970-01-01T04:12:27.000Z</time>
      </trkpt>
      <trkpt lat="42.38856" lon="0.893591">
        <ele>1427</ele>
        <time>1970-01-01T04:12:30.000Z</time>
      </trkpt>
      <trkpt lat="42.388508" lon="0.893682">
        <ele>1427.6</ele>
        <time>1970-01-01T04:13:41.000Z</time>
      </trkpt>
      <trkpt lat="42.388479" lon="0.893752">
        <ele>1428.8</ele>
        <time>1970-01-01T04:13:46.000Z</time>
      </trkpt>
      <trkpt lat="42.388447" lon="0.893814">
        <ele>1430.2</ele>
        <time>1970-01-01T04:13:52.000Z</time>
      </trkpt>
      <trkpt lat="42.388449" lon="0.893822">
        <ele>1430.4</ele>
        <time>1970-01-01T04:13:55.000Z</time>
      </trkpt>
      <trkpt lat="42.387901" lon="0.894497">
        <ele>1440.4</ele>
        <time>1970-01-01T04:20:17.000Z</time>
      </trkpt>
      <trkpt lat="42.387826" lon="0.894649">
        <ele>1441.8</ele>
        <time>1970-01-01T04:20:29.000Z</time>
      </trkpt>
      <trkpt lat="42.387781" lon="0.894751">
        <ele>1442.6</ele>
        <time>1970-01-01T04:20:37.000Z</time>
      </trkpt>
      <trkpt lat="42.387756" lon="0.894803">
        <ele>1443.2</ele>
        <time>1970-01-01T04:20:41.000Z</time>
      </trkpt>
      <trkpt lat="42.387709" lon="0.894886">
        <ele>1444.6</ele>
        <time>1970-01-01T04:20:48.000Z</time>
      </trkpt>
      <trkpt lat="42.387656" lon="0.894979">
        <ele>1445.8</ele>
        <time>1970-01-01T04:20:57.000Z</time>
      </trkpt>
      <trkpt lat="42.387638" lon="0.895">
        <ele>1446.4</ele>
        <time>1970-01-01T04:20:59.000Z</time>
      </trkpt>
      <trkpt lat="42.38762" lon="0.895028">
        <ele>1446.8</ele>
        <time>1970-01-01T04:21:02.000Z</time>
      </trkpt>
      <trkpt lat="42.387618" lon="0.895057">
        <ele>1447.4</ele>
        <time>1970-01-01T04:21:04.000Z</time>
      </trkpt>
      <trkpt lat="42.387614" lon="0.895083">
        <ele>1447.8</ele>
        <time>1970-01-01T04:21:06.000Z</time>
      </trkpt>
      <trkpt lat="42.387601" lon="0.895163">
        <ele>1448.4</ele>
        <time>1970-01-01T04:21:13.000Z</time>
      </trkpt>
      <trkpt lat="42.387548" lon="0.895275">
        <ele>1449.8</ele>
        <time>1970-01-01T04:21:21.000Z</time>
      </trkpt>
      <trkpt lat="42.387478" lon="0.895388">
        <ele>1451</ele>
        <time>1970-01-01T04:21:29.000Z</time>
      </trkpt>
      <trkpt lat="42.387402" lon="0.8955">
        <ele>1452.4</ele>
        <time>1970-01-01T04:21:38.000Z</time>
      </trkpt>
      <trkpt lat="42.387382" lon="0.895591">
        <ele>1453.4</ele>
        <time>1970-01-01T04:21:45.000Z</time>
      </trkpt>
      <trkpt lat="42.38738" lon="0.895659">
        <ele>1454.2</ele>
        <time>1970-01-01T04:21:49.000Z</time>
      </trkpt>
      <trkpt lat="42.387391" lon="0.895721">
        <ele>1454.6</ele>
        <time>1970-01-01T04:21:53.000Z</time>
      </trkpt>
      <trkpt lat="42.3874" lon="0.895764">
        <ele>1454.8</ele>
        <time>1970-01-01T04:21:56.000Z</time>
      </trkpt>
      <trkpt lat="42.387414" lon="0.895883">
        <ele>1456.2</ele>
        <time>1970-01-01T04:22:05.000Z</time>
      </trkpt>
      <trkpt lat="42.387418" lon="0.895973">
        <ele>1457.2</ele>
        <time>1970-01-01T04:22:11.000Z</time>
      </trkpt>
      <trkpt lat="42.387417" lon="0.895989">
        <ele>1457.4</ele>
        <time>1970-01-01T04:22:12.000Z</time>
      </trkpt>
      <trkpt lat="42.387405" lon="0.896045">
        <ele>1458</ele>
        <time>1970-01-01T04:22:16.000Z</time>
      </trkpt>
      <trkpt lat="42.387414" lon="0.896089">
        <ele>1458.8</ele>
        <time>1970-01-01T04:22:19.000Z</time>
      </trkpt>
      <trkpt lat="42.387407" lon="0.89624">
        <ele>1460</ele>
        <time>1970-01-01T04:22:29.000Z</time>
      </trkpt>
      <trkpt lat="42.387401" lon="0.896253">
        <ele>1460</ele>
        <time>1970-01-01T04:22:30.000Z</time>
      </trkpt>
      <trkpt lat="42.387375" lon="0.896337">
        <ele>1461</ele>
        <time>1970-01-01T04:22:36.000Z</time>
      </trkpt>
      <trkpt lat="42.387378" lon="0.896372">
        <ele>1461.4</ele>
        <time>1970-01-01T04:22:38.000Z</time>
      </trkpt>
      <trkpt lat="42.387367" lon="0.896473">
        <ele>1462.6</ele>
        <time>1970-01-01T04:22:45.000Z</time>
      </trkpt>
      <trkpt lat="42.387353" lon="0.896529">
        <ele>1463.2</ele>
        <time>1970-01-01T04:22:49.000Z</time>
      </trkpt>
      <trkpt lat="42.387338" lon="0.896616">
        <ele>1463.8</ele>
        <time>1970-01-01T04:22:55.000Z</time>
      </trkpt>
      <trkpt lat="42.38732" lon="0.896765">
        <ele>1465.4</ele>
        <time>1970-01-01T04:23:05.000Z</time>
      </trkpt>
      <trkpt lat="42.387298" lon="0.896896">
        <ele>1466.8</ele>
        <time>1970-01-01T04:23:14.000Z</time>
      </trkpt>
      <trkpt lat="42.387278" lon="0.897059">
        <ele>1468</ele>
        <time>1970-01-01T04:23:25.000Z</time>
      </trkpt>
      <trkpt lat="42.387275" lon="0.897076">
        <ele>1468.4</ele>
        <time>1970-01-01T04:23:26.000Z</time>
      </trkpt>
      <trkpt lat="42.387267" lon="0.897148">
        <ele>1469.2</ele>
        <time>1970-01-01T04:23:31.000Z</time>
      </trkpt>
      <trkpt lat="42.387262" lon="0.897193">
        <ele>1469.8</ele>
        <time>1970-01-01T04:23:34.000Z</time>
      </trkpt>
      <trkpt lat="42.387248" lon="0.89726">
        <ele>1470.6</ele>
        <time>1970-01-01T04:23:39.000Z</time>
      </trkpt>
      <trkpt lat="42.387233" lon="0.897343">
        <ele>1471.8</ele>
        <time>1970-01-01T04:23:45.000Z</time>
      </trkpt>
      <trkpt lat="42.387212" lon="0.897442">
        <ele>1473.2</ele>
        <time>1970-01-01T04:23:52.000Z</time>
      </trkpt>
      <trkpt lat="42.387209" lon="0.897513">
        <ele>1474</ele>
        <time>1970-01-01T04:23:57.000Z</time>
      </trkpt>
      <trkpt lat="42.387194" lon="0.897566">
        <ele>1474.6</ele>
        <time>1970-01-01T04:24:01.000Z</time>
      </trkpt>
      <trkpt lat="42.387175" lon="0.897617">
        <ele>1475</ele>
        <time>1970-01-01T04:24:05.000Z</time>
      </trkpt>
      <trkpt lat="42.387154" lon="0.897702">
        <ele>1475.8</ele>
        <time>1970-01-01T04:24:11.000Z</time>
      </trkpt>
      <trkpt lat="42.387145" lon="0.897748">
        <ele>1476</ele>
        <time>1970-01-01T04:24:14.000Z</time>
      </trkpt>
      <trkpt lat="42.387135" lon="0.897876">
        <ele>1476.6</ele>
        <time>1970-01-01T04:24:22.000Z</time>
      </trkpt>
      <trkpt lat="42.387124" lon="0.897967">
        <ele>1477.4</ele>
        <time>1970-01-01T04:24:28.000Z</time>
      </trkpt>
      <trkpt lat="42.387098" lon="0.898025">
        <ele>1477.6</ele>
        <time>1970-01-01T04:24:32.000Z</time>
      </trkpt>
      <trkpt lat="42.386862" lon="0.898704">
        <ele>1477.2</ele>
        <time>1970-01-01T04:24:58.000Z</time>
      </trkpt>
      <trkpt lat="42.386863" lon="0.898745">
        <ele>1477</ele>
        <time>1970-01-01T04:24:59.000Z</time>
      </trkpt>
      <trkpt lat="42.386779" lon="0.899254">
        <ele>1478.4</ele>
        <time>1970-01-01T04:25:17.000Z</time>
      </trkpt>
      <trkpt lat="42.386774" lon="0.899548">
        <ele>1479.8</ele>
        <time>1970-01-01T04:25:30.000Z</time>
      </trkpt>
      <trkpt lat="42.386848" lon="0.899651">
        <ele>1481.4</ele>
        <time>1970-01-01T04:25:38.000Z</time>
      </trkpt>
      <trkpt lat="42.386932" lon="0.899675">
        <ele>1482.4</ele>
        <time>1970-01-01T04:25:45.000Z</time>
      </trkpt>
      <trkpt lat="42.387049" lon="0.899765">
        <ele>1483.6</ele>
        <time>1970-01-01T04:25:54.000Z</time>
      </trkpt>
      <trkpt lat="42.387157" lon="0.899839">
        <ele>1485</ele>
        <time>1970-01-01T04:26:03.000Z</time>
      </trkpt>
      <trkpt lat="42.387205" lon="0.899971">
        <ele>1486.2</ele>
        <time>1970-01-01T04:26:11.000Z</time>
      </trkpt>
      <trkpt lat="42.387244" lon="0.900121">
        <ele>1487.6</ele>
        <time>1970-01-01T04:26:20.000Z</time>
      </trkpt>
      <trkpt lat="42.387272" lon="0.900172">
        <ele>1488.8</ele>
        <time>1970-01-01T04:26:24.000Z</time>
      </trkpt>
      <trkpt lat="42.387293" lon="0.900186">
        <ele>1489.2</ele>
        <time>1970-01-01T04:26:26.000Z</time>
      </trkpt>
      <trkpt lat="42.387349" lon="0.900211">
        <ele>1490</ele>
        <time>1970-01-01T04:26:31.000Z</time>
      </trkpt>
      <trkpt lat="42.387421" lon="0.900214">
        <ele>1491</ele>
        <time>1970-01-01T04:26:37.000Z</time>
      </trkpt>
      <trkpt lat="42.387437" lon="0.900215">
        <ele>1491</ele>
        <time>1970-01-01T04:26:38.000Z</time>
      </trkpt>
      <trkpt lat="42.38764" lon="0.900382">
        <ele>1492.6</ele>
        <time>1970-01-01T04:26:55.000Z</time>
      </trkpt>
      <trkpt lat="42.387741" lon="0.900457">
        <ele>1493.8</ele>
        <time>1970-01-01T04:27:05.000Z</time>
      </trkpt>
      <trkpt lat="42.387809" lon="0.900507">
        <ele>1495.2</ele>
        <time>1970-01-01T04:27:12.000Z</time>
      </trkpt>
      <trkpt lat="42.387873" lon="0.900578">
        <ele>1496.4</ele>
        <time>1970-01-01T04:27:19.000Z</time>
      </trkpt>
      <trkpt lat="42.387944" lon="0.900643">
        <ele>1497.6</ele>
        <time>1970-01-01T04:27:27.000Z</time>
      </trkpt>
      <trkpt lat="42.38803" lon="0.90072">
        <ele>1499</ele>
        <time>1970-01-01T04:27:36.000Z</time>
      </trkpt>
      <trkpt lat="42.388069" lon="0.900793">
        <ele>1500.2</ele>
        <time>1970-01-01T04:27:42.000Z</time>
      </trkpt>
      <trkpt lat="42.388087" lon="0.900882">
        <ele>1501.4</ele>
        <time>1970-01-01T04:27:48.000Z</time>
      </trkpt>
      <trkpt lat="42.388084" lon="0.900921">
        <ele>1501.6</ele>
        <time>1970-01-01T04:27:50.000Z</time>
      </trkpt>
      <trkpt lat="42.388068" lon="0.900999">
        <ele>1501.8</ele>
        <time>1970-01-01T04:27:54.000Z</time>
      </trkpt>
      <trkpt lat="42.388033" lon="0.901131">
        <ele>1502.8</ele>
        <time>1970-01-01T04:28:01.000Z</time>
      </trkpt>
      <trkpt lat="42.388025" lon="0.901145">
        <ele>1503</ele>
        <time>1970-01-01T04:28:02.000Z</time>
      </trkpt>
      <trkpt lat="42.387882" lon="0.901347">
        <ele>1504.2</ele>
        <time>1970-01-01T04:28:17.000Z</time>
      </trkpt>
      <trkpt lat="42.387793" lon="0.901417">
        <ele>1505.6</ele>
        <time>1970-01-01T04:28:25.000Z</time>
      </trkpt>
      <trkpt lat="42.387649" lon="0.90157">
        <ele>1507</ele>
        <time>1970-01-01T04:28:39.000Z</time>
      </trkpt>
      <trkpt lat="42.387575" lon="0.901631">
        <ele>1508.2</ele>
        <time>1970-01-01T04:28:46.000Z</time>
      </trkpt>
      <trkpt lat="42.387485" lon="0.901804">
        <ele>1509.8</ele>
        <time>1970-01-01T04:28:57.000Z</time>
      </trkpt>
      <trkpt lat="42.387445" lon="0.901914">
        <ele>1511</ele>
        <time>1970-01-01T04:29:04.000Z</time>
      </trkpt>
      <trkpt lat="42.387352" lon="0.902087">
        <ele>1512.2</ele>
        <time>1970-01-01T04:29:18.000Z</time>
      </trkpt>
      <trkpt lat="42.38733" lon="0.90213">
        <ele>1512.4</ele>
        <time>1970-01-01T04:29:21.000Z</time>
      </trkpt>
      <trkpt lat="42.387297" lon="0.902226">
        <ele>1512.6</ele>
        <time>1970-01-01T04:29:27.000Z</time>
      </trkpt>
      <trkpt lat="42.387106" lon="0.902906">
        <ele>1512.6</ele>
        <time>1970-01-01T04:29:52.000Z</time>
      </trkpt>
      <trkpt lat="42.38709" lon="0.903223">
        <ele>1512</ele>
        <time>1970-01-01T04:30:00.000Z</time>
      </trkpt>
      <trkpt lat="42.387073" lon="0.903503">
        <ele>1511</ele>
        <time>1970-01-01T04:30:05.000Z</time>
      </trkpt>
      <trkpt lat="42.387041" lon="0.903801">
        <ele>1510</ele>
        <time>1970-01-01T04:30:09.000Z</time>
      </trkpt>
      <trkpt lat="42.386982" lon="0.904083">
        <ele>1509</ele>
        <time>1970-01-01T04:30:13.000Z</time>
      </trkpt>
      <trkpt lat="42.386964" lon="0.904195">
        <ele>1508</ele>
        <time>1970-01-01T04:30:15.000Z</time>
      </trkpt>
      <trkpt lat="42.386953" lon="0.904302">
        <ele>1507</ele>
        <time>1970-01-01T04:30:18.000Z</time>
      </trkpt>
      <trkpt lat="42.386928" lon="0.904463">
        <ele>1505.8</ele>
        <time>1970-01-01T04:30:21.000Z</time>
      </trkpt>
      <trkpt lat="42.386897" lon="0.904742">
        <ele>1504.8</ele>
        <time>1970-01-01T04:30:25.000Z</time>
      </trkpt>
      <trkpt lat="42.386902" lon="0.904903">
        <ele>1504.6</ele>
        <time>1970-01-01T04:30:27.000Z</time>
      </trkpt>
      <trkpt lat="42.386918" lon="0.90498">
        <ele>1503.8</ele>
        <time>1970-01-01T04:30:28.000Z</time>
      </trkpt>
      <trkpt lat="42.386966" lon="0.905118">
        <ele>1502.2</ele>
        <time>1970-01-01T04:30:30.000Z</time>
      </trkpt>
      <trkpt lat="42.386995" lon="0.905183">
        <ele>1501.8</ele>
        <time>1970-01-01T04:30:31.000Z</time>
      </trkpt>
      <trkpt lat="42.38703" lon="0.905253">
        <ele>1500.8</ele>
        <time>1970-01-01T04:30:32.000Z</time>
      </trkpt>
      <trkpt lat="42.38712" lon="0.905445">
        <ele>1499.8</ele>
        <time>1970-01-01T04:30:35.000Z</time>
      </trkpt>
      <trkpt lat="42.387165" lon="0.905569">
        <ele>1498.8</ele>
        <time>1970-01-01T04:30:37.000Z</time>
      </trkpt>
      <trkpt lat="42.387203" lon="0.905747">
        <ele>1497.4</ele>
        <time>1970-01-01T04:30:40.000Z</time>
      </trkpt>
      <trkpt lat="42.387217" lon="0.906068">
        <ele>1496.8</ele>
        <time>1970-01-01T04:30:49.000Z</time>
      </trkpt>
      <trkpt lat="42.387228" lon="0.906053">
        <ele>1497.2</ele>
        <time>1970-01-01T04:31:21.000Z</time>
      </trkpt>
      <trkpt lat="42.38728" lon="0.905941">
        <ele>1497.2</ele>
        <time>1970-01-01T04:31:31.000Z</time>
      </trkpt>
      <trkpt lat="42.38723" lon="0.905988">
        <ele>1496.8</ele>
        <time>1970-01-01T04:38:45.000Z</time>
      </trkpt>
      <trkpt lat="42.387221" lon="0.906028">
        <ele>1496.8</ele>
        <time>1970-01-01T04:38:49.000Z</time>
      </trkpt>
      <trkpt lat="42.38722" lon="0.906055">
        <ele>1496.8</ele>
        <time>1970-01-01T04:39:19.000Z</time>
      </trkpt>
      <trkpt lat="42.387213" lon="0.906285">
        <ele>1496.4</ele>
        <time>1970-01-01T04:39:26.000Z</time>
      </trkpt>
      <trkpt lat="42.387219" lon="0.90639">
        <ele>1496</ele>
        <time>1970-01-01T04:39:28.000Z</time>
      </trkpt>
      <trkpt lat="42.387228" lon="0.906517">
        <ele>1495</ele>
        <time>1970-01-01T04:39:30.000Z</time>
      </trkpt>
      <trkpt lat="42.387239" lon="0.906662">
        <ele>1494</ele>
        <time>1970-01-01T04:39:32.000Z</time>
      </trkpt>
      <trkpt lat="42.387265" lon="0.906865">
        <ele>1492.8</ele>
        <time>1970-01-01T04:39:35.000Z</time>
      </trkpt>
      <trkpt lat="42.387276" lon="0.906931">
        <ele>1492</ele>
        <time>1970-01-01T04:39:36.000Z</time>
      </trkpt>
      <trkpt lat="42.387284" lon="0.906997">
        <ele>1491.8</ele>
        <time>1970-01-01T04:39:37.000Z</time>
      </trkpt>
      <trkpt lat="42.387263" lon="0.907128">
        <ele>1490.8</ele>
        <time>1970-01-01T04:39:39.000Z</time>
      </trkpt>
      <trkpt lat="42.387221" lon="0.907249">
        <ele>1489.8</ele>
        <time>1970-01-01T04:39:41.000Z</time>
      </trkpt>
      <trkpt lat="42.387207" lon="0.907308">
        <ele>1489</ele>
        <time>1970-01-01T04:39:42.000Z</time>
      </trkpt>
      <trkpt lat="42.387196" lon="0.907372">
        <ele>1488.6</ele>
        <time>1970-01-01T04:39:43.000Z</time>
      </trkpt>
      <trkpt lat="42.387174" lon="0.907527">
        <ele>1487.4</ele>
        <time>1970-01-01T04:39:45.000Z</time>
      </trkpt>
      <trkpt lat="42.387165" lon="0.907703">
        <ele>1486.4</ele>
        <time>1970-01-01T04:39:47.000Z</time>
      </trkpt>
      <trkpt lat="42.387248" lon="0.908019">
        <ele>1486</ele>
        <time>1970-01-01T04:39:52.000Z</time>
      </trkpt>
      <trkpt lat="42.387474" lon="0.90862">
        <ele>1485.6</ele>
        <time>1970-01-01T04:40:08.000Z</time>
      </trkpt>
      <trkpt lat="42.387547" lon="0.908762">
        <ele>1484.6</ele>
        <time>1970-01-01T04:40:11.000Z</time>
      </trkpt>
      <trkpt lat="42.387582" lon="0.908809">
        <ele>1484.4</ele>
        <time>1970-01-01T04:40:12.000Z</time>
      </trkpt>
      <trkpt lat="42.387673" lon="0.908893">
        <ele>1483.2</ele>
        <time>1970-01-01T04:40:14.000Z</time>
      </trkpt>
      <trkpt lat="42.387781" lon="0.908953">
        <ele>1482.2</ele>
        <time>1970-01-01T04:40:16.000Z</time>
      </trkpt>
      <trkpt lat="42.387838" lon="0.908979">
        <ele>1481.8</ele>
        <time>1970-01-01T04:40:17.000Z</time>
      </trkpt>
      <trkpt lat="42.387956" lon="0.909019">
        <ele>1480.8</ele>
        <time>1970-01-01T04:40:19.000Z</time>
      </trkpt>
      <trkpt lat="42.388069" lon="0.909026">
        <ele>1479.6</ele>
        <time>1970-01-01T04:40:21.000Z</time>
      </trkpt>
      <trkpt lat="42.388171" lon="0.90908">
        <ele>1478.6</ele>
        <time>1970-01-01T04:40:23.000Z</time>
      </trkpt>
      <trkpt lat="42.388291" lon="0.909268">
        <ele>1477.2</ele>
        <time>1970-01-01T04:40:26.000Z</time>
      </trkpt>
      <trkpt lat="42.388348" lon="0.909415">
        <ele>1476</ele>
        <time>1970-01-01T04:40:28.000Z</time>
      </trkpt>
      <trkpt lat="42.388407" lon="0.909571">
        <ele>1475.2</ele>
        <time>1970-01-01T04:40:30.000Z</time>
      </trkpt>
      <trkpt lat="42.388444" lon="0.909635">
        <ele>1475</ele>
        <time>1970-01-01T04:40:31.000Z</time>
      </trkpt>
      <trkpt lat="42.388672" lon="0.909903">
        <ele>1473.8</ele>
        <time>1970-01-01T04:40:36.000Z</time>
      </trkpt>
      <trkpt lat="42.388816" lon="0.909982">
        <ele>1472.4</ele>
        <time>1970-01-01T04:40:39.000Z</time>
      </trkpt>
      <trkpt lat="42.388949" lon="0.910089">
        <ele>1471.6</ele>
        <time>1970-01-01T04:40:42.000Z</time>
      </trkpt>
      <trkpt lat="42.389002" lon="0.910119">
        <ele>1471.4</ele>
        <time>1970-01-01T04:40:43.000Z</time>
      </trkpt>
      <trkpt lat="42.389504" lon="0.910404">
        <ele>1472</ele>
        <time>1970-01-01T04:40:57.000Z</time>
      </trkpt>
      <trkpt lat="42.389988" lon="0.910749">
        <ele>1472.6</ele>
        <time>1970-01-01T04:41:15.000Z</time>
      </trkpt>
      <trkpt lat="42.390086" lon="0.910797">
        <ele>1473.2</ele>
        <time>1970-01-01T04:41:19.000Z</time>
      </trkpt>
      <trkpt lat="42.390306" lon="0.910941">
        <ele>1474.4</ele>
        <time>1970-01-01T04:41:31.000Z</time>
      </trkpt>
      <trkpt lat="42.39035" lon="0.910989">
        <ele>1475.4</ele>
        <time>1970-01-01T04:41:35.000Z</time>
      </trkpt>
      <trkpt lat="42.390392" lon="0.911063">
        <ele>1476.6</ele>
        <time>1970-01-01T04:41:40.000Z</time>
      </trkpt>
      <trkpt lat="42.390423" lon="0.911144">
        <ele>1477.8</ele>
        <time>1970-01-01T04:41:45.000Z</time>
      </trkpt>
      <trkpt lat="42.390457" lon="0.911264">
        <ele>1478.8</ele>
        <time>1970-01-01T04:41:51.000Z</time>
      </trkpt>
      <trkpt lat="42.390486" lon="0.911459">
        <ele>1479.4</ele>
        <time>1970-01-01T04:42:01.000Z</time>
      </trkpt>
      <trkpt lat="42.390588" lon="0.911469">
        <ele>1481.6</ele>
        <time>1970-01-01T04:42:46.000Z</time>
      </trkpt>
      <trkpt lat="42.390692" lon="0.91144">
        <ele>1482.6</ele>
        <time>1970-01-01T04:42:55.000Z</time>
      </trkpt>
      <trkpt lat="42.390755" lon="0.911362">
        <ele>1482.6</ele>
        <time>1970-01-01T04:43:02.000Z</time>
      </trkpt>
      <trkpt lat="42.390775" lon="0.911365">
        <ele>1482.4</ele>
        <time>1970-01-01T04:43:05.000Z</time>
      </trkpt>
      <trkpt lat="42.390839" lon="0.911458">
        <ele>1483.4</ele>
        <time>1970-01-01T04:43:13.000Z</time>
      </trkpt>
      <trkpt lat="42.390903" lon="0.91151">
        <ele>1484.6</ele>
        <time>1970-01-01T04:43:19.000Z</time>
      </trkpt>
      <trkpt lat="42.390915" lon="0.911517">
        <ele>1484.8</ele>
        <time>1970-01-01T04:43:20.000Z</time>
      </trkpt>
      <trkpt lat="42.390976" lon="0.911524">
        <ele>1485.6</ele>
        <time>1970-01-01T04:43:25.000Z</time>
      </trkpt>
      <trkpt lat="42.390987" lon="0.911522">
        <ele>1485.6</ele>
        <time>1970-01-01T04:43:26.000Z</time>
      </trkpt>
      <trkpt lat="42.391109" lon="0.911541">
        <ele>1487</ele>
        <time>1970-01-01T04:43:36.000Z</time>
      </trkpt>
      <trkpt lat="42.391185" lon="0.911718">
        <ele>1488.4</ele>
        <time>1970-01-01T04:43:49.000Z</time>
      </trkpt>
      <trkpt lat="42.391232" lon="0.911875">
        <ele>1489.6</ele>
        <time>1970-01-01T04:43:59.000Z</time>
      </trkpt>
      <trkpt lat="42.391239" lon="0.911885">
        <ele>1489.6</ele>
        <time>1970-01-01T04:44:00.000Z</time>
      </trkpt>
      <trkpt lat="42.391255" lon="0.911906">
        <ele>1490</ele>
        <time>1970-01-01T04:44:02.000Z</time>
      </trkpt>
      <trkpt lat="42.391269" lon="0.911984">
        <ele>1490.6</ele>
        <time>1970-01-01T04:44:07.000Z</time>
      </trkpt>
      <trkpt lat="42.391277" lon="0.912016">
        <ele>1491</ele>
        <time>1970-01-01T04:44:09.000Z</time>
      </trkpt>
      <trkpt lat="42.391285" lon="0.912081">
        <ele>1491.8</ele>
        <time>1970-01-01T04:44:13.000Z</time>
      </trkpt>
      <trkpt lat="42.391339" lon="0.912212">
        <ele>1492.8</ele>
        <time>1970-01-01T04:44:22.000Z</time>
      </trkpt>
      <trkpt lat="42.391362" lon="0.912293">
        <ele>1493.8</ele>
        <time>1970-01-01T04:44:29.000Z</time>
      </trkpt>
      <trkpt lat="42.391354" lon="0.91244">
        <ele>1494</ele>
        <time>1970-01-01T04:44:47.000Z</time>
      </trkpt>
      <trkpt lat="42.391371" lon="0.91254">
        <ele>1494.6</ele>
        <time>1970-01-01T04:44:53.000Z</time>
      </trkpt>
      <trkpt lat="42.391388" lon="0.912614">
        <ele>1495.6</ele>
        <time>1970-01-01T04:44:59.000Z</time>
      </trkpt>
      <trkpt lat="42.391408" lon="0.912664">
        <ele>1496.4</ele>
        <time>1970-01-01T04:45:05.000Z</time>
      </trkpt>
      <trkpt lat="42.391619" lon="0.912718">
        <ele>1500</ele>
        <time>1970-01-01T06:13:23.000Z</time>
      </trkpt>
      <trkpt lat="42.391717" lon="0.912717">
        <ele>1501.2</ele>
        <time>1970-01-01T06:13:35.000Z</time>
      </trkpt>
      <trkpt lat="42.391753" lon="0.91271">
        <ele>1501.6</ele>
        <time>1970-01-01T06:13:41.000Z</time>
      </trkpt>
      <trkpt lat="42.39276" lon="0.913273">
        <ele>1517.4</ele>
        <time>1970-01-01T06:16:45.000Z</time>
      </trkpt>
      <trkpt lat="42.392826" lon="0.913622">
        <ele>1516.2</ele>
        <time>1970-01-01T06:16:56.000Z</time>
      </trkpt>
      <trkpt lat="42.392859" lon="0.913896">
        <ele>1516.2</ele>
        <time>1970-01-01T06:17:05.000Z</time>
      </trkpt>
      <trkpt lat="42.392858" lon="0.913943">
        <ele>1516.2</ele>
        <time>1970-01-01T06:17:09.000Z</time>
      </trkpt>
      <trkpt lat="42.393001" lon="0.914181">
        <ele>1511.4</ele>
        <time>1970-01-01T06:18:08.000Z</time>
      </trkpt>
      <trkpt lat="42.39301" lon="0.914201">
        <ele>1511.2</ele>
        <time>1970-01-01T06:18:09.000Z</time>
      </trkpt>
      <trkpt lat="42.393047" lon="0.914314">
        <ele>1511</ele>
        <time>1970-01-01T06:18:15.000Z</time>
      </trkpt>
      <trkpt lat="42.393127" lon="0.914387">
        <ele>1510.8</ele>
        <time>1970-01-01T06:18:24.000Z</time>
      </trkpt>
      <trkpt lat="42.393182" lon="0.914461">
        <ele>1510.8</ele>
        <time>1970-01-01T06:18:28.000Z</time>
      </trkpt>
      <trkpt lat="42.393225" lon="0.914567">
        <ele>1510.8</ele>
        <time>1970-01-01T06:18:32.000Z</time>
      </trkpt>
      <trkpt lat="42.393247" lon="0.914671">
        <ele>1510.8</ele>
        <time>1970-01-01T06:18:36.000Z</time>
      </trkpt>
      <trkpt lat="42.393294" lon="0.914746">
        <ele>1510.2</ele>
        <time>1970-01-01T06:18:40.000Z</time>
      </trkpt>
      <trkpt lat="42.393307" lon="0.914764">
        <ele>1510</ele>
        <time>1970-01-01T06:18:41.000Z</time>
      </trkpt>
      <trkpt lat="42.393451" lon="0.915044">
        <ele>1508.8</ele>
        <time>1970-01-01T06:18:52.000Z</time>
      </trkpt>
      <trkpt lat="42.393527" lon="0.915266">
        <ele>1508.8</ele>
        <time>1970-01-01T06:19:02.000Z</time>
      </trkpt>
      <trkpt lat="42.393612" lon="0.91537">
        <ele>1507.6</ele>
        <time>1970-01-01T06:19:19.000Z</time>
      </trkpt>
      <trkpt lat="42.393622" lon="0.915402">
        <ele>1507.4</ele>
        <time>1970-01-01T06:19:21.000Z</time>
      </trkpt>
      <trkpt lat="42.393625" lon="0.915444">
        <ele>1507.8</ele>
        <time>1970-01-01T06:19:25.000Z</time>
      </trkpt>
      <trkpt lat="42.393649" lon="0.915483">
        <ele>1508.2</ele>
        <time>1970-01-01T06:19:29.000Z</time>
      </trkpt>
      <trkpt lat="42.393705" lon="0.915483">
        <ele>1508.6</ele>
        <time>1970-01-01T06:19:36.000Z</time>
      </trkpt>
      <trkpt lat="42.393718" lon="0.915488">
        <ele>1508.2</ele>
        <time>1970-01-01T06:19:39.000Z</time>
      </trkpt>
      <trkpt lat="42.393792" lon="0.915514">
        <ele>1507.8</ele>
        <time>1970-01-01T06:19:47.000Z</time>
      </trkpt>
      <trkpt lat="42.393901" lon="0.915604">
        <ele>1507</ele>
        <time>1970-01-01T06:19:54.000Z</time>
      </trkpt>
      <trkpt lat="42.393941" lon="0.915667">
        <ele>1507</ele>
        <time>1970-01-01T06:19:58.000Z</time>
      </trkpt>
      <trkpt lat="42.394008" lon="0.915806">
        <ele>1506.6</ele>
        <time>1970-01-01T06:20:05.000Z</time>
      </trkpt>
      <trkpt lat="42.394033" lon="0.915817">
        <ele>1506.4</ele>
        <time>1970-01-01T06:20:07.000Z</time>
      </trkpt>
      <trkpt lat="42.39412" lon="0.915815">
        <ele>1506.4</ele>
        <time>1970-01-01T06:20:13.000Z</time>
      </trkpt>
      <trkpt lat="42.39417" lon="0.915797">
        <ele>1506</ele>
        <time>1970-01-01T06:20:19.000Z</time>
      </trkpt>
      <trkpt lat="42.394346" lon="0.915775">
        <ele>1504.6</ele>
        <time>1970-01-01T06:20:46.000Z</time>
      </trkpt>
      <trkpt lat="42.394525" lon="0.915701">
        <ele>1504.2</ele>
        <time>1970-01-01T06:21:02.000Z</time>
      </trkpt>
      <trkpt lat="42.394634" lon="0.915799">
        <ele>1505</ele>
        <time>1970-01-01T06:22:01.000Z</time>
      </trkpt>
      <trkpt lat="42.394654" lon="0.91581">
        <ele>1505</ele>
        <time>1970-01-01T06:22:05.000Z</time>
      </trkpt>
      <trkpt lat="42.394714" lon="0.91611">
        <ele>1507.4</ele>
        <time>1970-01-01T06:22:38.000Z</time>
      </trkpt>
      <trkpt lat="42.394771" lon="0.916166">
        <ele>1507.2</ele>
        <time>1970-01-01T06:22:48.000Z</time>
      </trkpt>
      <trkpt lat="42.394816" lon="0.916095">
        <ele>1507.8</ele>
        <time>1970-01-01T06:23:00.000Z</time>
      </trkpt>
      <trkpt lat="42.395031" lon="0.916211">
        <ele>1510.4</ele>
        <time>1970-01-01T06:23:51.000Z</time>
      </trkpt>
      <trkpt lat="42.395085" lon="0.916214">
        <ele>1510.2</ele>
        <time>1970-01-01T06:23:55.000Z</time>
      </trkpt>
      <trkpt lat="42.395131" lon="0.916205">
        <ele>1510.2</ele>
        <time>1970-01-01T06:23:59.000Z</time>
      </trkpt>
      <trkpt lat="42.395166" lon="0.916207">
        <ele>1511.2</ele>
        <time>1970-01-01T06:24:04.000Z</time>
      </trkpt>
      <trkpt lat="42.39536" lon="0.916039">
        <ele>1516.6</ele>
        <time>1970-01-01T06:24:43.000Z</time>
      </trkpt>
      <trkpt lat="42.395429" lon="0.915934">
        <ele>1517.6</ele>
        <time>1970-01-01T06:24:51.000Z</time>
      </trkpt>
      <trkpt lat="42.395437" lon="0.915925">
        <ele>1517.8</ele>
        <time>1970-01-01T06:24:52.000Z</time>
      </trkpt>
      <trkpt lat="42.395508" lon="0.915901">
        <ele>1518.6</ele>
        <time>1970-01-01T06:24:58.000Z</time>
      </trkpt>
      <trkpt lat="42.39552" lon="0.915896">
        <ele>1518.6</ele>
        <time>1970-01-01T06:24:59.000Z</time>
      </trkpt>
      <trkpt lat="42.395563" lon="0.91588">
        <ele>1518.8</ele>
        <time>1970-01-01T06:25:07.000Z</time>
      </trkpt>
      <trkpt lat="42.395599" lon="0.915976">
        <ele>1518.4</ele>
        <time>1970-01-01T06:25:41.000Z</time>
      </trkpt>
      <trkpt lat="42.395616" lon="0.916102">
        <ele>1518.6</ele>
        <time>1970-01-01T06:25:50.000Z</time>
      </trkpt>
      <trkpt lat="42.395916" lon="0.916764">
        <ele>1525.2</ele>
        <time>1970-01-01T06:29:07.000Z</time>
      </trkpt>
      <trkpt lat="42.395956" lon="0.916876">
        <ele>1524.2</ele>
        <time>1970-01-01T06:29:12.000Z</time>
      </trkpt>
      <trkpt lat="42.395959" lon="0.916885">
        <ele>1523.8</ele>
        <time>1970-01-01T06:29:14.000Z</time>
      </trkpt>
      <trkpt lat="42.395979" lon="0.916941">
        <ele>1523.6</ele>
        <time>1970-01-01T06:29:23.000Z</time>
      </trkpt>
      <trkpt lat="42.396019" lon="0.916981">
        <ele>1523</ele>
        <time>1970-01-01T06:29:25.000Z</time>
      </trkpt>
      <trkpt lat="42.396094" lon="0.917084">
        <ele>1522</ele>
        <time>1970-01-01T06:29:29.000Z</time>
      </trkpt>
      <trkpt lat="42.39616" lon="0.917284">
        <ele>1520.4</ele>
        <time>1970-01-01T06:29:35.000Z</time>
      </trkpt>
      <trkpt lat="42.396203" lon="0.917447">
        <ele>1519.4</ele>
        <time>1970-01-01T06:29:39.000Z</time>
      </trkpt>
      <trkpt lat="42.396231" lon="0.917575">
        <ele>1518.8</ele>
        <time>1970-01-01T06:29:42.000Z</time>
      </trkpt>
      <trkpt lat="42.396293" lon="0.917705">
        <ele>1519.4</ele>
        <time>1970-01-01T06:29:47.000Z</time>
      </trkpt>
      <trkpt lat="42.396342" lon="0.918012">
        <ele>1520</ele>
        <time>1970-01-01T06:30:03.000Z</time>
      </trkpt>
      <trkpt lat="42.396351" lon="0.918055">
        <ele>1520</ele>
        <time>1970-01-01T06:30:26.000Z</time>
      </trkpt>
      <trkpt lat="42.396383" lon="0.918184">
        <ele>1520.4</ele>
        <time>1970-01-01T06:30:31.000Z</time>
      </trkpt>
      <trkpt lat="42.396539" lon="0.918619">
        <ele>1519.6</ele>
        <time>1970-01-01T06:30:50.000Z</time>
      </trkpt>
      <trkpt lat="42.396574" lon="0.91865">
        <ele>1519.2</ele>
        <time>1970-01-01T06:30:54.000Z</time>
      </trkpt>
      <trkpt lat="42.396606" lon="0.918636">
        <ele>1518.6</ele>
        <time>1970-01-01T06:31:08.000Z</time>
      </trkpt>
      <trkpt lat="42.396651" lon="0.91864">
        <ele>1518.4</ele>
        <time>1970-01-01T06:31:14.000Z</time>
      </trkpt>
      <trkpt lat="42.396667" lon="0.918653">
        <ele>1518.2</ele>
        <time>1970-01-01T06:31:16.000Z</time>
      </trkpt>
      <trkpt lat="42.396682" lon="0.918672">
        <ele>1518.2</ele>
        <time>1970-01-01T06:31:18.000Z</time>
      </trkpt>
      <trkpt lat="42.396726" lon="0.918687">
        <ele>1517</ele>
        <time>1970-01-01T06:31:26.000Z</time>
      </trkpt>
      <trkpt lat="42.39675" lon="0.918684">
        <ele>1516.6</ele>
        <time>1970-01-01T06:31:31.000Z</time>
      </trkpt>
      <trkpt lat="42.396809" lon="0.91873">
        <ele>1516.4</ele>
        <time>1970-01-01T06:31:52.000Z</time>
      </trkpt>
      <trkpt lat="42.396855" lon="0.918811">
        <ele>1516</ele>
        <time>1970-01-01T06:31:57.000Z</time>
      </trkpt>
      <trkpt lat="42.397088" lon="0.919031">
        <ele>1515.8</ele>
        <time>1970-01-01T06:32:16.000Z</time>
      </trkpt>
      <trkpt lat="42.397128" lon="0.919051">
        <ele>1515.6</ele>
        <time>1970-01-01T06:32:21.000Z</time>
      </trkpt>
      <trkpt lat="42.397152" lon="0.919081">
        <ele>1515</ele>
        <time>1970-01-01T06:32:25.000Z</time>
      </trkpt>
      <trkpt lat="42.397163" lon="0.919092">
        <ele>1514.8</ele>
        <time>1970-01-01T06:32:26.000Z</time>
      </trkpt>
      <trkpt lat="42.397281" lon="0.919289">
        <ele>1513.8</ele>
        <time>1970-01-01T06:32:41.000Z</time>
      </trkpt>
      <trkpt lat="42.397314" lon="0.91932">
        <ele>1512.6</ele>
        <time>1970-01-01T06:32:44.000Z</time>
      </trkpt>
      <trkpt lat="42.397346" lon="0.919418">
        <ele>1511.6</ele>
        <time>1970-01-01T06:32:50.000Z</time>
      </trkpt>
      <trkpt lat="42.397415" lon="0.919573">
        <ele>1510.6</ele>
        <time>1970-01-01T06:32:59.000Z</time>
      </trkpt>
      <trkpt lat="42.397423" lon="0.91959">
        <ele>1511</ele>
        <time>1970-01-01T06:33:02.000Z</time>
      </trkpt>
      <trkpt lat="42.397399" lon="0.919809">
        <ele>1510</ele>
        <time>1970-01-01T06:33:35.000Z</time>
      </trkpt>
      <trkpt lat="42.397358" lon="0.919961">
        <ele>1508.6</ele>
        <time>1970-01-01T06:33:41.000Z</time>
      </trkpt>
      <trkpt lat="42.397359" lon="0.920038">
        <ele>1507.6</ele>
        <time>1970-01-01T06:33:44.000Z</time>
      </trkpt>
      <trkpt lat="42.397375" lon="0.920101">
        <ele>1506.8</ele>
        <time>1970-01-01T06:33:47.000Z</time>
      </trkpt>
      <trkpt lat="42.397392" lon="0.920166">
        <ele>1506.4</ele>
        <time>1970-01-01T06:33:50.000Z</time>
      </trkpt>
      <trkpt lat="42.397415" lon="0.920258">
        <ele>1505.2</ele>
        <time>1970-01-01T06:33:54.000Z</time>
      </trkpt>
      <trkpt lat="42.397397" lon="0.920331">
        <ele>1504.2</ele>
        <time>1970-01-01T06:33:58.000Z</time>
      </trkpt>
      <trkpt lat="42.397374" lon="0.920402">
        <ele>1503</ele>
        <time>1970-01-01T06:34:01.000Z</time>
      </trkpt>
      <trkpt lat="42.397369" lon="0.920426">
        <ele>1502.8</ele>
        <time>1970-01-01T06:34:02.000Z</time>
      </trkpt>
      <trkpt lat="42.397347" lon="0.920529">
        <ele>1501.8</ele>
        <time>1970-01-01T06:34:06.000Z</time>
      </trkpt>
      <trkpt lat="42.397348" lon="0.920583">
        <ele>1501.2</ele>
        <time>1970-01-01T06:34:08.000Z</time>
      </trkpt>
      <trkpt lat="42.397356" lon="0.920677">
        <ele>1500.8</ele>
        <time>1970-01-01T06:34:11.000Z</time>
      </trkpt>
      <trkpt lat="42.397388" lon="0.920902">
        <ele>1499.6</ele>
        <time>1970-01-01T06:34:18.000Z</time>
      </trkpt>
      <trkpt lat="42.3974" lon="0.920916">
        <ele>1499.4</ele>
        <time>1970-01-01T06:34:19.000Z</time>
      </trkpt>
      <trkpt lat="42.397404" lon="0.920922">
        <ele>1499.4</ele>
        <time>1970-01-01T06:34:21.000Z</time>
      </trkpt>
      <trkpt lat="42.397465" lon="0.921203">
        <ele>1495</ele>
        <time>1970-01-01T06:35:00.000Z</time>
      </trkpt>
      <trkpt lat="42.397482" lon="0.921248">
        <ele>1493.8</ele>
        <time>1970-01-01T06:35:03.000Z</time>
      </trkpt>
      <trkpt lat="42.397497" lon="0.921298">
        <ele>1492.6</ele>
        <time>1970-01-01T06:35:08.000Z</time>
      </trkpt>
      <trkpt lat="42.397515" lon="0.921507">
        <ele>1491.4</ele>
        <time>1970-01-01T06:35:16.000Z</time>
      </trkpt>
      <trkpt lat="42.397572" lon="0.921639">
        <ele>1490.4</ele>
        <time>1970-01-01T06:35:20.000Z</time>
      </trkpt>
      <trkpt lat="42.397618" lon="0.921815">
        <ele>1490.2</ele>
        <time>1970-01-01T06:35:26.000Z</time>
      </trkpt>
      <trkpt lat="42.397644" lon="0.921925">
        <ele>1489.4</ele>
        <time>1970-01-01T06:35:30.000Z</time>
      </trkpt>
      <trkpt lat="42.397656" lon="0.922083">
        <ele>1488.2</ele>
        <time>1970-01-01T06:35:34.000Z</time>
      </trkpt>
      <trkpt lat="42.397629" lon="0.922236">
        <ele>1486.8</ele>
        <time>1970-01-01T06:35:38.000Z</time>
      </trkpt>
      <trkpt lat="42.397591" lon="0.922291">
        <ele>1485.8</ele>
        <time>1970-01-01T06:35:41.000Z</time>
      </trkpt>
      <trkpt lat="42.39758" lon="0.92231">
        <ele>1485.6</ele>
        <time>1970-01-01T06:35:42.000Z</time>
      </trkpt>
      <trkpt lat="42.39751" lon="0.922528">
        <ele>1484.6</ele>
        <time>1970-01-01T06:35:49.000Z</time>
      </trkpt>
      <trkpt lat="42.397515" lon="0.92291">
        <ele>1484</ele>
        <time>1970-01-01T06:36:01.000Z</time>
      </trkpt>
      <trkpt lat="42.397586" lon="0.92329">
        <ele>1485.2</ele>
        <time>1970-01-01T06:36:35.000Z</time>
      </trkpt>
      <trkpt lat="42.39765" lon="0.923277">
        <ele>1483.4</ele>
        <time>1970-01-01T06:36:45.000Z</time>
      </trkpt>
      <trkpt lat="42.397662" lon="0.923289">
        <ele>1482.4</ele>
        <time>1970-01-01T06:36:48.000Z</time>
      </trkpt>
      <trkpt lat="42.397801" lon="0.92337">
        <ele>1479.2</ele>
        <time>1970-01-01T06:37:04.000Z</time>
      </trkpt>
      <trkpt lat="42.397828" lon="0.923421">
        <ele>1478.2</ele>
        <time>1970-01-01T06:37:09.000Z</time>
      </trkpt>
      <trkpt lat="42.397838" lon="0.923425">
        <ele>1478.2</ele>
        <time>1970-01-01T06:37:10.000Z</time>
      </trkpt>
      <trkpt lat="42.397924" lon="0.923421">
        <ele>1477</ele>
        <time>1970-01-01T06:37:19.000Z</time>
      </trkpt>
      <trkpt lat="42.397973" lon="0.923416">
        <ele>1476</ele>
        <time>1970-01-01T06:37:23.000Z</time>
      </trkpt>
      <trkpt lat="42.398017" lon="0.923436">
        <ele>1474.8</ele>
        <time>1970-01-01T06:37:27.000Z</time>
      </trkpt>
      <trkpt lat="42.398043" lon="0.923472">
        <ele>1473.8</ele>
        <time>1970-01-01T06:37:31.000Z</time>
      </trkpt>
      <trkpt lat="42.398046" lon="0.92349">
        <ele>1473.4</ele>
        <time>1970-01-01T06:37:32.000Z</time>
      </trkpt>
      <trkpt lat="42.398033" lon="0.92354">
        <ele>1472.8</ele>
        <time>1970-01-01T06:37:36.000Z</time>
      </trkpt>
      <trkpt lat="42.398027" lon="0.923588">
        <ele>1471.8</ele>
        <time>1970-01-01T06:37:40.000Z</time>
      </trkpt>
      <trkpt lat="42.398028" lon="0.923615">
        <ele>1471.4</ele>
        <time>1970-01-01T06:37:42.000Z</time>
      </trkpt>
      <trkpt lat="42.398033" lon="0.923652">
        <ele>1470.6</ele>
        <time>1970-01-01T06:37:45.000Z</time>
      </trkpt>
      <trkpt lat="42.398024" lon="0.923707">
        <ele>1469.8</ele>
        <time>1970-01-01T06:37:49.000Z</time>
      </trkpt>
      <trkpt lat="42.398019" lon="0.923727">
        <ele>1469.4</ele>
        <time>1970-01-01T06:37:51.000Z</time>
      </trkpt>
      <trkpt lat="42.398019" lon="0.92373">
        <ele>1469.4</ele>
        <time>1970-01-01T06:37:52.000Z</time>
      </trkpt>
      <trkpt lat="42.398014" lon="0.923802">
        <ele>1468.4</ele>
        <time>1970-01-01T06:37:59.000Z</time>
      </trkpt>
      <trkpt lat="42.397987" lon="0.923911">
        <ele>1467.2</ele>
        <time>1970-01-01T06:38:06.000Z</time>
      </trkpt>
      <trkpt lat="42.397988" lon="0.923995">
        <ele>1466</ele>
        <time>1970-01-01T06:38:12.000Z</time>
      </trkpt>
      <trkpt lat="42.397977" lon="0.924052">
        <ele>1465</ele>
        <time>1970-01-01T06:38:16.000Z</time>
      </trkpt>
      <trkpt lat="42.397974" lon="0.924131">
        <ele>1463.8</ele>
        <time>1970-01-01T06:38:21.000Z</time>
      </trkpt>
      <trkpt lat="42.397981" lon="0.924175">
        <ele>1463.2</ele>
        <time>1970-01-01T06:38:25.000Z</time>
      </trkpt>
      <trkpt lat="42.397995" lon="0.92421">
        <ele>1462.8</ele>
        <time>1970-01-01T06:38:28.000Z</time>
      </trkpt>
      <trkpt lat="42.398007" lon="0.924232">
        <ele>1462.8</ele>
        <time>1970-01-01T06:38:29.000Z</time>
      </trkpt>
      <trkpt lat="42.39804" lon="0.92434">
        <ele>1462.2</ele>
        <time>1970-01-01T06:38:32.000Z</time>
      </trkpt>
      <trkpt lat="42.398155" lon="0.924543">
        <ele>1461.6</ele>
        <time>1970-01-01T06:38:38.000Z</time>
      </trkpt>
      <trkpt lat="42.398076" lon="0.924789">
        <ele>1461</ele>
        <time>1970-01-01T06:38:48.000Z</time>
      </trkpt>
      <trkpt lat="42.398022" lon="0.924821">
        <ele>1461.6</ele>
        <time>1970-01-01T06:38:51.000Z</time>
      </trkpt>
      <trkpt lat="42.398016" lon="0.924827">
        <ele>1461.8</ele>
        <time>1970-01-01T06:38:53.000Z</time>
      </trkpt>
      <trkpt lat="42.397966" lon="0.925019">
        <ele>1463</ele>
        <time>1970-01-01T06:39:11.000Z</time>
      </trkpt>
      <trkpt lat="42.397964" lon="0.925086">
        <ele>1463.6</ele>
        <time>1970-01-01T06:39:16.000Z</time>
      </trkpt>
      <trkpt lat="42.397955" lon="0.925154">
        <ele>1463.4</ele>
        <time>1970-01-01T06:39:20.000Z</time>
      </trkpt>
      <trkpt lat="42.397912" lon="0.925555">
        <ele>1461.8</ele>
        <time>1970-01-01T06:39:29.000Z</time>
      </trkpt>
      <trkpt lat="42.397833" lon="0.925737">
        <ele>1460.6</ele>
        <time>1970-01-01T06:39:34.000Z</time>
      </trkpt>
      <trkpt lat="42.397826" lon="0.925763">
        <ele>1460.4</ele>
        <time>1970-01-01T06:39:36.000Z</time>
      </trkpt>
      <trkpt lat="42.397803" lon="0.925989">
        <ele>1459.6</ele>
        <time>1970-01-01T06:39:54.000Z</time>
      </trkpt>
      <trkpt lat="42.397818" lon="0.926163">
        <ele>1459.6</ele>
        <time>1970-01-01T06:40:05.000Z</time>
      </trkpt>
      <trkpt lat="42.397822" lon="0.926213">
        <ele>1459.2</ele>
        <time>1970-01-01T06:40:09.000Z</time>
      </trkpt>
      <trkpt lat="42.397823" lon="0.92626">
        <ele>1458.4</ele>
        <time>1970-01-01T06:40:13.000Z</time>
      </trkpt>
      <trkpt lat="42.397813" lon="0.926303">
        <ele>1457.4</ele>
        <time>1970-01-01T06:40:18.000Z</time>
      </trkpt>
      <trkpt lat="42.397739" lon="0.926273">
        <ele>1455</ele>
        <time>1970-01-01T06:40:32.000Z</time>
      </trkpt>
      <trkpt lat="42.397736" lon="0.926288">
        <ele>1454.8</ele>
        <time>1970-01-01T06:40:33.000Z</time>
      </trkpt>
      <trkpt lat="42.397727" lon="0.926388">
        <ele>1453.8</ele>
        <time>1970-01-01T06:40:39.000Z</time>
      </trkpt>
      <trkpt lat="42.397716" lon="0.926478">
        <ele>1452.8</ele>
        <time>1970-01-01T06:40:44.000Z</time>
      </trkpt>
      <trkpt lat="42.397702" lon="0.926569">
        <ele>1451.6</ele>
        <time>1970-01-01T06:40:49.000Z</time>
      </trkpt>
      <trkpt lat="42.397698" lon="0.926609">
        <ele>1450.8</ele>
        <time>1970-01-01T06:40:51.000Z</time>
      </trkpt>
      <trkpt lat="42.397696" lon="0.926642">
        <ele>1450.6</ele>
        <time>1970-01-01T06:40:53.000Z</time>
      </trkpt>
      <trkpt lat="42.397696" lon="0.92666">
        <ele>1450.4</ele>
        <time>1970-01-01T06:40:54.000Z</time>
      </trkpt>
      <trkpt lat="42.397693" lon="0.926742">
        <ele>1449.4</ele>
        <time>1970-01-01T06:41:00.000Z</time>
      </trkpt>
      <trkpt lat="42.397699" lon="0.926849">
        <ele>1448.4</ele>
        <time>1970-01-01T06:41:06.000Z</time>
      </trkpt>
      <trkpt lat="42.397694" lon="0.926884">
        <ele>1448.2</ele>
        <time>1970-01-01T06:41:08.000Z</time>
      </trkpt>
      <trkpt lat="42.397704" lon="0.926945">
        <ele>1447.4</ele>
        <time>1970-01-01T06:41:11.000Z</time>
      </trkpt>
      <trkpt lat="42.397708" lon="0.927117">
        <ele>1446.4</ele>
        <time>1970-01-01T06:41:20.000Z</time>
      </trkpt>
      <trkpt lat="42.397694" lon="0.927262">
        <ele>1445.4</ele>
        <time>1970-01-01T06:41:28.000Z</time>
      </trkpt>
      <trkpt lat="42.39769" lon="0.92728">
        <ele>1445</ele>
        <time>1970-01-01T06:41:29.000Z</time>
      </trkpt>
      <trkpt lat="42.397664" lon="0.927479">
        <ele>1444.4</ele>
        <time>1970-01-01T06:41:42.000Z</time>
      </trkpt>
      <trkpt lat="42.397679" lon="0.927545">
        <ele>1444</ele>
        <time>1970-01-01T06:41:47.000Z</time>
      </trkpt>
      <trkpt lat="42.397679" lon="0.927558">
        <ele>1444</ele>
        <time>1970-01-01T06:41:48.000Z</time>
      </trkpt>
      <trkpt lat="42.397702" lon="0.927688">
        <ele>1444.2</ele>
        <time>1970-01-01T06:41:56.000Z</time>
      </trkpt>
      <trkpt lat="42.397728" lon="0.927771">
        <ele>1444.2</ele>
        <time>1970-01-01T06:42:01.000Z</time>
      </trkpt>
      <trkpt lat="42.397743" lon="0.927951">
        <ele>1443.6</ele>
        <time>1970-01-01T06:42:11.000Z</time>
      </trkpt>
      <trkpt lat="42.397819" lon="0.928204">
        <ele>1443.4</ele>
        <time>1970-01-01T06:42:28.000Z</time>
      </trkpt>
      <trkpt lat="42.397746" lon="0.928308">
        <ele>1443.6</ele>
        <time>1970-01-01T06:42:40.000Z</time>
      </trkpt>
      <trkpt lat="42.397658" lon="0.928472">
        <ele>1443</ele>
        <time>1970-01-01T06:42:51.000Z</time>
      </trkpt>
      <trkpt lat="42.397537" lon="0.928708">
        <ele>1441.8</ele>
        <time>1970-01-01T06:43:07.000Z</time>
      </trkpt>
      <trkpt lat="42.397367" lon="0.928829">
        <ele>1442.8</ele>
        <time>1970-01-01T06:43:22.000Z</time>
      </trkpt>
      <trkpt lat="42.397211" lon="0.928921">
        <ele>1442.8</ele>
        <time>1970-01-01T06:43:35.000Z</time>
      </trkpt>
      <trkpt lat="42.397155" lon="0.929022">
        <ele>1443.2</ele>
        <time>1970-01-01T06:43:42.000Z</time>
      </trkpt>
      <trkpt lat="42.397039" lon="0.929348">
        <ele>1442.4</ele>
        <time>1970-01-01T06:44:01.000Z</time>
      </trkpt>
      <trkpt lat="42.397015" lon="0.929428">
        <ele>1442</ele>
        <time>1970-01-01T06:44:06.000Z</time>
      </trkpt>
      <trkpt lat="42.396886" lon="0.929782">
        <ele>1442.6</ele>
        <time>1970-01-01T06:44:29.000Z</time>
      </trkpt>
      <trkpt lat="42.396926" lon="0.929908">
        <ele>1443</ele>
        <time>1970-01-01T06:44:38.000Z</time>
      </trkpt>
      <trkpt lat="42.396909" lon="0.930057">
        <ele>1440.8</ele>
        <time>1970-01-01T06:44:47.000Z</time>
      </trkpt>
      <trkpt lat="42.396904" lon="0.930075">
        <ele>1440.8</ele>
        <time>1970-01-01T06:44:48.000Z</time>
      </trkpt>
      <trkpt lat="42.396898" lon="0.93009">
        <ele>1440.6</ele>
        <time>1970-01-01T06:44:49.000Z</time>
      </trkpt>
      <trkpt lat="42.396875" lon="0.930134">
        <ele>1439.6</ele>
        <time>1970-01-01T06:44:52.000Z</time>
      </trkpt>
      <trkpt lat="42.396867" lon="0.930216">
        <ele>1438.8</ele>
        <time>1970-01-01T06:44:59.000Z</time>
      </trkpt>
      <trkpt lat="42.396857" lon="0.930258">
        <ele>1438.8</ele>
        <time>1970-01-01T06:45:03.000Z</time>
      </trkpt>
      <trkpt lat="42.396853" lon="0.930299">
        <ele>1438.6</ele>
        <time>1970-01-01T06:45:05.000Z</time>
      </trkpt>
      <trkpt lat="42.396724" lon="0.930669">
        <ele>1437.6</ele>
        <time>1970-01-01T06:45:27.000Z</time>
      </trkpt>
      <trkpt lat="42.396711" lon="0.930678">
        <ele>1437.4</ele>
        <time>1970-01-01T06:45:28.000Z</time>
      </trkpt>
      <trkpt lat="42.396613" lon="0.930799">
        <ele>1436.4</ele>
        <time>1970-01-01T06:45:37.000Z</time>
      </trkpt>
      <trkpt lat="42.396507" lon="0.93105">
        <ele>1435.4</ele>
        <time>1970-01-01T06:45:52.000Z</time>
      </trkpt>
      <trkpt lat="42.396491" lon="0.931149">
        <ele>1435.4</ele>
        <time>1970-01-01T06:45:59.000Z</time>
      </trkpt>
      <trkpt lat="42.396533" lon="0.931575">
        <ele>1436.4</ele>
        <time>1970-01-01T06:46:23.000Z</time>
      </trkpt>
      <trkpt lat="42.396545" lon="0.93163">
        <ele>1436.8</ele>
        <time>1970-01-01T06:46:26.000Z</time>
      </trkpt>
      <trkpt lat="42.39655" lon="0.931637">
        <ele>1436.8</ele>
        <time>1970-01-01T06:46:28.000Z</time>
      </trkpt>
      <trkpt lat="42.39656" lon="0.931688">
        <ele>1436.4</ele>
        <time>1970-01-01T06:47:06.000Z</time>
      </trkpt>
      <trkpt lat="42.396692" lon="0.932209">
        <ele>1435.2</ele>
        <time>1970-01-01T06:47:24.000Z</time>
      </trkpt>
      <trkpt lat="42.396717" lon="0.932296">
        <ele>1435</ele>
        <time>1970-01-01T06:47:28.000Z</time>
      </trkpt>
      <trkpt lat="42.396723" lon="0.932301">
        <ele>1435.2</ele>
        <time>1970-01-01T06:47:30.000Z</time>
      </trkpt>
      <trkpt lat="42.396741" lon="0.932402">
        <ele>1435.8</ele>
        <time>1970-01-01T06:47:41.000Z</time>
      </trkpt>
      <trkpt lat="42.396749" lon="0.932421">
        <ele>1435.8</ele>
        <time>1970-01-01T06:47:44.000Z</time>
      </trkpt>
      <trkpt lat="42.396752" lon="0.932464">
        <ele>1435.8</ele>
        <time>1970-01-01T06:47:49.000Z</time>
      </trkpt>
      <trkpt lat="42.396721" lon="0.932592">
        <ele>1435</ele>
        <time>1970-01-01T06:47:56.000Z</time>
      </trkpt>
      <trkpt lat="42.396705" lon="0.932647">
        <ele>1434.4</ele>
        <time>1970-01-01T06:48:02.000Z</time>
      </trkpt>
      <trkpt lat="42.39669" lon="0.932869">
        <ele>1434.2</ele>
        <time>1970-01-01T06:48:10.000Z</time>
      </trkpt>
      <trkpt lat="42.396668" lon="0.932975">
        <ele>1432.8</ele>
        <time>1970-01-01T06:48:14.000Z</time>
      </trkpt>
      <trkpt lat="42.396755" lon="0.933621">
        <ele>1433.2</ele>
        <time>1970-01-01T06:48:34.000Z</time>
      </trkpt>
      <trkpt lat="42.396742" lon="0.934062">
        <ele>1432</ele>
        <time>1970-01-01T06:48:45.000Z</time>
      </trkpt>
      <trkpt lat="42.396762" lon="0.9342">
        <ele>1431.8</ele>
        <time>1970-01-01T06:48:50.000Z</time>
      </trkpt>
      <trkpt lat="42.396755" lon="0.934286">
        <ele>1431</ele>
        <time>1970-01-01T06:49:51.000Z</time>
      </trkpt>
      <trkpt lat="42.39677" lon="0.934389">
        <ele>1430.8</ele>
        <time>1970-01-01T06:49:54.000Z</time>
      </trkpt>
      <trkpt lat="42.396808" lon="0.934579">
        <ele>1429.8</ele>
        <time>1970-01-01T06:50:01.000Z</time>
      </trkpt>
      <trkpt lat="42.396818" lon="0.934594">
        <ele>1429.6</ele>
        <time>1970-01-01T06:50:02.000Z</time>
      </trkpt>
      <trkpt lat="42.396853" lon="0.934609">
        <ele>1428.6</ele>
        <time>1970-01-01T06:50:06.000Z</time>
      </trkpt>
      <trkpt lat="42.396853" lon="0.934611">
        <ele>1428.6</ele>
        <time>1970-01-01T06:50:07.000Z</time>
      </trkpt>
      <trkpt lat="42.397311" lon="0.934887">
        <ele>1417</ele>
        <time>1970-01-01T06:51:35.000Z</time>
      </trkpt>
      <trkpt lat="42.397534" lon="0.935038">
        <ele>1416</ele>
        <time>1970-01-01T06:51:45.000Z</time>
      </trkpt>
      <trkpt lat="42.397605" lon="0.935096">
        <ele>1416</ele>
        <time>1970-01-01T06:51:48.000Z</time>
      </trkpt>
      <trkpt lat="42.398113" lon="0.935173">
        <ele>1416.6</ele>
        <time>1970-01-01T06:52:08.000Z</time>
      </trkpt>
      <trkpt lat="42.398188" lon="0.935107">
        <ele>1416.8</ele>
        <time>1970-01-01T06:52:11.000Z</time>
      </trkpt>
      <trkpt lat="42.398357" lon="0.93496">
        <ele>1417.6</ele>
        <time>1970-01-01T06:52:21.000Z</time>
      </trkpt>
      <trkpt lat="42.39853" lon="0.934999">
        <ele>1413.2</ele>
        <time>1970-01-01T06:52:53.000Z</time>
      </trkpt>
      <trkpt lat="42.398602" lon="0.935041">
        <ele>1412.2</ele>
        <time>1970-01-01T06:52:58.000Z</time>
      </trkpt>
      <trkpt lat="42.398624" lon="0.935119">
        <ele>1411.8</ele>
        <time>1970-01-01T06:53:04.000Z</time>
      </trkpt>
      <trkpt lat="42.398647" lon="0.935165">
        <ele>1411</ele>
        <time>1970-01-01T06:53:08.000Z</time>
      </trkpt>
      <trkpt lat="42.398663" lon="0.93523">
        <ele>1410</ele>
        <time>1970-01-01T06:53:15.000Z</time>
      </trkpt>
      <trkpt lat="42.398671" lon="0.935239">
        <ele>1409.4</ele>
        <time>1970-01-01T06:53:19.000Z</time>
      </trkpt>
      <trkpt lat="42.398651" lon="0.935369">
        <ele>1407.8</ele>
        <time>1970-01-01T06:53:31.000Z</time>
      </trkpt>
      <trkpt lat="42.398644" lon="0.935413">
        <ele>1406.6</ele>
        <time>1970-01-01T06:53:34.000Z</time>
      </trkpt>
      <trkpt lat="42.398619" lon="0.935472">
        <ele>1405.6</ele>
        <time>1970-01-01T06:53:39.000Z</time>
      </trkpt>
      <trkpt lat="42.398618" lon="0.935474">
        <ele>1405.4</ele>
        <time>1970-01-01T06:53:41.000Z</time>
      </trkpt>
      <trkpt lat="42.398546" lon="0.935484">
        <ele>1404</ele>
        <time>1970-01-01T06:53:57.000Z</time>
      </trkpt>
      <trkpt lat="42.398465" lon="0.935511">
        <ele>1402.4</ele>
        <time>1970-01-01T06:54:01.000Z</time>
      </trkpt>
      <trkpt lat="42.398444" lon="0.935575">
        <ele>1401.4</ele>
        <time>1970-01-01T06:54:04.000Z</time>
      </trkpt>
      <trkpt lat="42.398439" lon="0.935617">
        <ele>1400.8</ele>
        <time>1970-01-01T06:54:06.000Z</time>
      </trkpt>
      <trkpt lat="42.398439" lon="0.935663">
        <ele>1400.4</ele>
        <time>1970-01-01T06:54:08.000Z</time>
      </trkpt>
      <trkpt lat="42.398442" lon="0.935682">
        <ele>1400</ele>
        <time>1970-01-01T06:54:09.000Z</time>
      </trkpt>
      <trkpt lat="42.398453" lon="0.935733">
        <ele>1399</ele>
        <time>1970-01-01T06:54:12.000Z</time>
      </trkpt>
      <trkpt lat="42.39845" lon="0.935764">
        <ele>1398.6</ele>
        <time>1970-01-01T06:54:16.000Z</time>
      </trkpt>
      <trkpt lat="42.398302" lon="0.936098">
        <ele>1391</ele>
        <time>1970-01-01T06:55:08.000Z</time>
      </trkpt>
      <trkpt lat="42.39835" lon="0.936223">
        <ele>1389.8</ele>
        <time>1970-01-01T06:55:16.000Z</time>
      </trkpt>
      <trkpt lat="42.398416" lon="0.936293">
        <ele>1388.8</ele>
        <time>1970-01-01T06:55:23.000Z</time>
      </trkpt>
      <trkpt lat="42.398438" lon="0.936315">
        <ele>1388.4</ele>
        <time>1970-01-01T06:55:26.000Z</time>
      </trkpt>
      <trkpt lat="42.398475" lon="0.936366">
        <ele>1388.2</ele>
        <time>1970-01-01T06:55:30.000Z</time>
      </trkpt>
      <trkpt lat="42.398487" lon="0.936378">
        <ele>1387.6</ele>
        <time>1970-01-01T06:55:32.000Z</time>
      </trkpt>
      <trkpt lat="42.398491" lon="0.936401">
        <ele>1387</ele>
        <time>1970-01-01T06:55:35.000Z</time>
      </trkpt>
      <trkpt lat="42.398492" lon="0.936467">
        <ele>1386.6</ele>
        <time>1970-01-01T06:55:40.000Z</time>
      </trkpt>
      <trkpt lat="42.39851" lon="0.936521">
        <ele>1386</ele>
        <time>1970-01-01T06:55:43.000Z</time>
      </trkpt>
      <trkpt lat="42.398551" lon="0.936589">
        <ele>1385.6</ele>
        <time>1970-01-01T06:55:49.000Z</time>
      </trkpt>
      <trkpt lat="42.398591" lon="0.936645">
        <ele>1385.4</ele>
        <time>1970-01-01T06:55:55.000Z</time>
      </trkpt>
      <trkpt lat="42.398697" lon="0.936871">
        <ele>1384.2</ele>
        <time>1970-01-01T06:56:12.000Z</time>
      </trkpt>
      <trkpt lat="42.398733" lon="0.936985">
        <ele>1383</ele>
        <time>1970-01-01T06:56:19.000Z</time>
      </trkpt>
      <trkpt lat="42.398831" lon="0.937117">
        <ele>1382</ele>
        <time>1970-01-01T06:56:29.000Z</time>
      </trkpt>
      <trkpt lat="42.398907" lon="0.937209">
        <ele>1381</ele>
        <time>1970-01-01T06:56:36.000Z</time>
      </trkpt>
      <trkpt lat="42.398915" lon="0.937217">
        <ele>1380.8</ele>
        <time>1970-01-01T06:56:37.000Z</time>
      </trkpt>
      <trkpt lat="42.398942" lon="0.937252">
        <ele>1380.6</ele>
        <time>1970-01-01T06:56:40.000Z</time>
      </trkpt>
      <trkpt lat="42.398991" lon="0.937297">
        <ele>1380</ele>
        <time>1970-01-01T06:56:45.000Z</time>
      </trkpt>
      <trkpt lat="42.399036" lon="0.937343">
        <ele>1379.8</ele>
        <time>1970-01-01T06:56:50.000Z</time>
      </trkpt>
      <trkpt lat="42.399088" lon="0.937411">
        <ele>1379</ele>
        <time>1970-01-01T06:56:55.000Z</time>
      </trkpt>
      <trkpt lat="42.399103" lon="0.937416">
        <ele>1378.8</ele>
        <time>1970-01-01T06:56:56.000Z</time>
      </trkpt>
      <trkpt lat="42.399136" lon="0.937427">
        <ele>1378.2</ele>
        <time>1970-01-01T06:57:00.000Z</time>
      </trkpt>
      <trkpt lat="42.399201" lon="0.937477">
        <ele>1377.8</ele>
        <time>1970-01-01T06:57:06.000Z</time>
      </trkpt>
      <trkpt lat="42.399227" lon="0.937498">
        <ele>1377.8</ele>
        <time>1970-01-01T06:57:07.000Z</time>
      </trkpt>
      <trkpt lat="42.399427" lon="0.937564">
        <ele>1378.4</ele>
        <time>1970-01-01T06:57:18.000Z</time>
      </trkpt>
      <trkpt lat="42.399394" lon="0.938617">
        <ele>1365.8</ele>
        <time>1970-01-01T07:02:06.000Z</time>
      </trkpt>
      <trkpt lat="42.399324" lon="0.938753">
        <ele>1364.8</ele>
        <time>1970-01-01T07:02:11.000Z</time>
      </trkpt>
      <trkpt lat="42.399254" lon="0.938959">
        <ele>1364.2</ele>
        <time>1970-01-01T07:02:15.000Z</time>
      </trkpt>
      <trkpt lat="42.399189" lon="0.939109">
        <ele>1363.8</ele>
        <time>1970-01-01T07:02:18.000Z</time>
      </trkpt>
      <trkpt lat="42.399065" lon="0.939273">
        <ele>1362.4</ele>
        <time>1970-01-01T07:02:22.000Z</time>
      </trkpt>
      <trkpt lat="42.398967" lon="0.939347">
        <ele>1361.4</ele>
        <time>1970-01-01T07:02:27.000Z</time>
      </trkpt>
      <trkpt lat="42.398913" lon="0.939372">
        <ele>1360.4</ele>
        <time>1970-01-01T07:02:30.000Z</time>
      </trkpt>
      <trkpt lat="42.398845" lon="0.939425">
        <ele>1359.2</ele>
        <time>1970-01-01T07:02:34.000Z</time>
      </trkpt>
      <trkpt lat="42.398789" lon="0.939465">
        <ele>1358.6</ele>
        <time>1970-01-01T07:02:37.000Z</time>
      </trkpt>
      <trkpt lat="42.39874" lon="0.939491">
        <ele>1358.2</ele>
        <time>1970-01-01T07:02:39.000Z</time>
      </trkpt>
      <trkpt lat="42.398628" lon="0.939559">
        <ele>1357</ele>
        <time>1970-01-01T07:02:43.000Z</time>
      </trkpt>
      <trkpt lat="42.398578" lon="0.939601">
        <ele>1356.2</ele>
        <time>1970-01-01T07:02:45.000Z</time>
      </trkpt>
      <trkpt lat="42.398557" lon="0.939633">
        <ele>1355.8</ele>
        <time>1970-01-01T07:02:46.000Z</time>
      </trkpt>
      <trkpt lat="42.398478" lon="0.939773">
        <ele>1355.4</ele>
        <time>1970-01-01T07:02:50.000Z</time>
      </trkpt>
      <trkpt lat="42.398432" lon="0.939962">
        <ele>1355</ele>
        <time>1970-01-01T07:02:55.000Z</time>
      </trkpt>
      <trkpt lat="42.39844" lon="0.940007">
        <ele>1354.8</ele>
        <time>1970-01-01T07:02:56.000Z</time>
      </trkpt>
      <trkpt lat="42.398468" lon="0.940113">
        <ele>1353.8</ele>
        <time>1970-01-01T07:02:59.000Z</time>
      </trkpt>
      <trkpt lat="42.398564" lon="0.940286">
        <ele>1354.8</ele>
        <time>1970-01-01T07:03:07.000Z</time>
      </trkpt>
      <trkpt lat="42.398652" lon="0.940409">
        <ele>1355.8</ele>
        <time>1970-01-01T07:03:13.000Z</time>
      </trkpt>
      <trkpt lat="42.398827" lon="0.940658">
        <ele>1357</ele>
        <time>1970-01-01T07:03:24.000Z</time>
      </trkpt>
      <trkpt lat="42.398879" lon="0.940703">
        <ele>1358.2</ele>
        <time>1970-01-01T07:03:29.000Z</time>
      </trkpt>
      <trkpt lat="42.398922" lon="0.940745">
        <ele>1359.2</ele>
        <time>1970-01-01T07:03:33.000Z</time>
      </trkpt>
      <trkpt lat="42.398937" lon="0.940773">
        <ele>1359.8</ele>
        <time>1970-01-01T07:03:35.000Z</time>
      </trkpt>
      <trkpt lat="42.398961" lon="0.940815">
        <ele>1360.6</ele>
        <time>1970-01-01T07:03:38.000Z</time>
      </trkpt>
      <trkpt lat="42.398973" lon="0.940882">
        <ele>1361.6</ele>
        <time>1970-01-01T07:03:42.000Z</time>
      </trkpt>
      <trkpt lat="42.398994" lon="0.940951">
        <ele>1362.6</ele>
        <time>1970-01-01T07:03:47.000Z</time>
      </trkpt>
      <trkpt lat="42.398989" lon="0.941032">
        <ele>1362.8</ele>
        <time>1970-01-01T07:03:54.000Z</time>
      </trkpt>
      <trkpt lat="42.398966" lon="0.941066">
        <ele>1362.6</ele>
        <time>1970-01-01T07:04:08.000Z</time>
      </trkpt>
      <trkpt lat="42.398873" lon="0.941262">
        <ele>1361.6</ele>
        <time>1970-01-01T07:04:12.000Z</time>
      </trkpt>
      <trkpt lat="42.398848" lon="0.94133">
        <ele>1361</ele>
        <time>1970-01-01T07:04:13.000Z</time>
      </trkpt>
      <trkpt lat="42.398823" lon="0.94139">
        <ele>1360.6</ele>
        <time>1970-01-01T07:04:14.000Z</time>
      </trkpt>
      <trkpt lat="42.398796" lon="0.941448">
        <ele>1360.2</ele>
        <time>1970-01-01T07:04:15.000Z</time>
      </trkpt>
      <trkpt lat="42.398738" lon="0.941602">
        <ele>1358.8</ele>
        <time>1970-01-01T07:04:18.000Z</time>
      </trkpt>
      <trkpt lat="42.398713" lon="0.941689">
        <ele>1357.8</ele>
        <time>1970-01-01T07:04:21.000Z</time>
      </trkpt>
      <trkpt lat="42.398708" lon="0.941701">
        <ele>1357.6</ele>
        <time>1970-01-01T07:04:23.000Z</time>
      </trkpt>
      <trkpt lat="42.398694" lon="0.941742">
        <ele>1357.2</ele>
        <time>1970-01-01T07:04:41.000Z</time>
      </trkpt>
      <trkpt lat="42.398666" lon="0.941856">
        <ele>1356.8</ele>
        <time>1970-01-01T07:04:44.000Z</time>
      </trkpt>
      <trkpt lat="42.398603" lon="0.942128">
        <ele>1355.6</ele>
        <time>1970-01-01T07:04:49.000Z</time>
      </trkpt>
      <trkpt lat="42.398527" lon="0.942377">
        <ele>1354.4</ele>
        <time>1970-01-01T07:04:53.000Z</time>
      </trkpt>
      <trkpt lat="42.398489" lon="0.942491">
        <ele>1354</ele>
        <time>1970-01-01T07:04:55.000Z</time>
      </trkpt>
      <trkpt lat="42.398489" lon="0.942618">
        <ele>1353.4</ele>
        <time>1970-01-01T07:04:57.000Z</time>
      </trkpt>
      <trkpt lat="42.398466" lon="0.94295">
        <ele>1352.6</ele>
        <time>1970-01-01T07:05:04.000Z</time>
      </trkpt>
      <trkpt lat="42.39844" lon="0.94299">
        <ele>1352</ele>
        <time>1970-01-01T07:05:05.000Z</time>
      </trkpt>
      <trkpt lat="42.398361" lon="0.943131">
        <ele>1350.8</ele>
        <time>1970-01-01T07:05:09.000Z</time>
      </trkpt>
      <trkpt lat="42.398337" lon="0.943173">
        <ele>1350.6</ele>
        <time>1970-01-01T07:05:10.000Z</time>
      </trkpt>
      <trkpt lat="42.39829" lon="0.943271">
        <ele>1349.8</ele>
        <time>1970-01-01T07:05:12.000Z</time>
      </trkpt>
      <trkpt lat="42.398249" lon="0.943389">
        <ele>1348.6</ele>
        <time>1970-01-01T07:05:14.000Z</time>
      </trkpt>
      <trkpt lat="42.398235" lon="0.943519">
        <ele>1347.4</ele>
        <time>1970-01-01T07:05:16.000Z</time>
      </trkpt>
      <trkpt lat="42.398238" lon="0.943645">
        <ele>1346.2</ele>
        <time>1970-01-01T07:05:18.000Z</time>
      </trkpt>
      <trkpt lat="42.39827" lon="0.943764">
        <ele>1345.4</ele>
        <time>1970-01-01T07:05:20.000Z</time>
      </trkpt>
      <trkpt lat="42.398307" lon="0.943865">
        <ele>1344.4</ele>
        <time>1970-01-01T07:05:22.000Z</time>
      </trkpt>
      <trkpt lat="42.398408" lon="0.944097">
        <ele>1343.2</ele>
        <time>1970-01-01T07:05:26.000Z</time>
      </trkpt>
      <trkpt lat="42.398582" lon="0.944245">
        <ele>1341.8</ele>
        <time>1970-01-01T07:05:30.000Z</time>
      </trkpt>
      <trkpt lat="42.398733" lon="0.9443">
        <ele>1340.6</ele>
        <time>1970-01-01T07:05:33.000Z</time>
      </trkpt>
      <trkpt lat="42.398792" lon="0.944347">
        <ele>1340.2</ele>
        <time>1970-01-01T07:05:36.000Z</time>
      </trkpt>
      <trkpt lat="42.398799" lon="0.944358">
        <ele>1339.6</ele>
        <time>1970-01-01T07:05:38.000Z</time>
      </trkpt>
      <trkpt lat="42.398815" lon="0.944464">
        <ele>1339.2</ele>
        <time>1970-01-01T07:06:00.000Z</time>
      </trkpt>
      <trkpt lat="42.398928" lon="0.944826">
        <ele>1338</ele>
        <time>1970-01-01T07:06:06.000Z</time>
      </trkpt>
      <trkpt lat="42.398992" lon="0.945067">
        <ele>1337</ele>
        <time>1970-01-01T07:06:09.000Z</time>
      </trkpt>
      <trkpt lat="42.398996" lon="0.945151">
        <ele>1336.6</ele>
        <time>1970-01-01T07:06:10.000Z</time>
      </trkpt>
      <trkpt lat="42.398931" lon="0.945259">
        <ele>1335.4</ele>
        <time>1970-01-01T07:06:12.000Z</time>
      </trkpt>
      <trkpt lat="42.398793" lon="0.94529">
        <ele>1334.4</ele>
        <time>1970-01-01T07:06:14.000Z</time>
      </trkpt>
      <trkpt lat="42.398572" lon="0.945364">
        <ele>1333.2</ele>
        <time>1970-01-01T07:06:17.000Z</time>
      </trkpt>
      <trkpt lat="42.398363" lon="0.94553">
        <ele>1331.8</ele>
        <time>1970-01-01T07:06:20.000Z</time>
      </trkpt>
      <trkpt lat="42.398296" lon="0.945601">
        <ele>1331.4</ele>
        <time>1970-01-01T07:06:21.000Z</time>
      </trkpt>
      <trkpt lat="42.398164" lon="0.945751">
        <ele>1330.4</ele>
        <time>1970-01-01T07:06:23.000Z</time>
      </trkpt>
      <trkpt lat="42.398043" lon="0.94591">
        <ele>1329</ele>
        <time>1970-01-01T07:06:25.000Z</time>
      </trkpt>
      <trkpt lat="42.397917" lon="0.946054">
        <ele>1328</ele>
        <time>1970-01-01T07:06:27.000Z</time>
      </trkpt>
      <trkpt lat="42.39779" lon="0.946182">
        <ele>1326.6</ele>
        <time>1970-01-01T07:06:29.000Z</time>
      </trkpt>
      <trkpt lat="42.397668" lon="0.946301">
        <ele>1325.4</ele>
        <time>1970-01-01T07:06:31.000Z</time>
      </trkpt>
      <trkpt lat="42.397549" lon="0.946408">
        <ele>1324.4</ele>
        <time>1970-01-01T07:06:33.000Z</time>
      </trkpt>
      <trkpt lat="42.397486" lon="0.946452">
        <ele>1323.8</ele>
        <time>1970-01-01T07:06:34.000Z</time>
      </trkpt>
      <trkpt lat="42.397419" lon="0.946489">
        <ele>1323.4</ele>
        <time>1970-01-01T07:06:35.000Z</time>
      </trkpt>
      <trkpt lat="42.397287" lon="0.946558">
        <ele>1322.4</ele>
        <time>1970-01-01T07:06:37.000Z</time>
      </trkpt>
      <trkpt lat="42.397216" lon="0.946589">
        <ele>1321.8</ele>
        <time>1970-01-01T07:06:38.000Z</time>
      </trkpt>
      <trkpt lat="42.397065" lon="0.946664">
        <ele>1320.8</ele>
        <time>1970-01-01T07:06:40.000Z</time>
      </trkpt>
      <trkpt lat="42.396832" lon="0.946816">
        <ele>1319.4</ele>
        <time>1970-01-01T07:06:43.000Z</time>
      </trkpt>
      <trkpt lat="42.396686" lon="0.946948">
        <ele>1318.4</ele>
        <time>1970-01-01T07:06:45.000Z</time>
      </trkpt>
      <trkpt lat="42.396618" lon="0.947023">
        <ele>1318.2</ele>
        <time>1970-01-01T07:06:46.000Z</time>
      </trkpt>
      <trkpt lat="42.396487" lon="0.947193">
        <ele>1317.6</ele>
        <time>1970-01-01T07:06:48.000Z</time>
      </trkpt>
      <trkpt lat="42.396383" lon="0.947399">
        <ele>1316.4</ele>
        <time>1970-01-01T07:06:50.000Z</time>
      </trkpt>
      <trkpt lat="42.396332" lon="0.947628">
        <ele>1315.2</ele>
        <time>1970-01-01T07:06:52.000Z</time>
      </trkpt>
      <trkpt lat="42.396342" lon="0.947872">
        <ele>1313.8</ele>
        <time>1970-01-01T07:06:54.000Z</time>
      </trkpt>
      <trkpt lat="42.396357" lon="0.948">
        <ele>1313.2</ele>
        <time>1970-01-01T07:06:55.000Z</time>
      </trkpt>
      <trkpt lat="42.396376" lon="0.948136">
        <ele>1312.6</ele>
        <time>1970-01-01T07:06:56.000Z</time>
      </trkpt>
      <trkpt lat="42.396417" lon="0.948404">
        <ele>1311.4</ele>
        <time>1970-01-01T07:06:58.000Z</time>
      </trkpt>
      <trkpt lat="42.396432" lon="0.948526">
        <ele>1310.4</ele>
        <time>1970-01-01T07:06:59.000Z</time>
      </trkpt>
      <trkpt lat="42.396438" lon="0.948766">
        <ele>1309</ele>
        <time>1970-01-01T07:07:01.000Z</time>
      </trkpt>
      <trkpt lat="42.396375" lon="0.948988">
        <ele>1307.4</ele>
        <time>1970-01-01T07:07:03.000Z</time>
      </trkpt>
      <trkpt lat="42.39627" lon="0.94919">
        <ele>1306</ele>
        <time>1970-01-01T07:07:05.000Z</time>
      </trkpt>
      <trkpt lat="42.396215" lon="0.949289">
        <ele>1305.4</ele>
        <time>1970-01-01T07:07:06.000Z</time>
      </trkpt>
      <trkpt lat="42.396169" lon="0.949389">
        <ele>1304.8</ele>
        <time>1970-01-01T07:07:07.000Z</time>
      </trkpt>
      <trkpt lat="42.396123" lon="0.949624">
        <ele>1303.6</ele>
        <time>1970-01-01T07:07:09.000Z</time>
      </trkpt>
      <trkpt lat="42.396114" lon="0.949833">
        <ele>1302</ele>
        <time>1970-01-01T07:07:11.000Z</time>
      </trkpt>
      <trkpt lat="42.396122" lon="0.949918">
        <ele>1301</ele>
        <time>1970-01-01T07:07:12.000Z</time>
      </trkpt>
      <trkpt lat="42.396127" lon="0.94998">
        <ele>1300.4</ele>
        <time>1970-01-01T07:07:13.000Z</time>
      </trkpt>
      <trkpt lat="42.396135" lon="0.950025">
        <ele>1300</ele>
        <time>1970-01-01T07:07:14.000Z</time>
      </trkpt>
      <trkpt lat="42.396143" lon="0.950196">
        <ele>1298.8</ele>
        <time>1970-01-01T07:07:18.000Z</time>
      </trkpt>
      <trkpt lat="42.396135" lon="0.950261">
        <ele>1298.6</ele>
        <time>1970-01-01T07:07:19.000Z</time>
      </trkpt>
      <trkpt lat="42.396084" lon="0.950378">
        <ele>1297.6</ele>
        <time>1970-01-01T07:07:21.000Z</time>
      </trkpt>
      <trkpt lat="42.39597" lon="0.95055">
        <ele>1297</ele>
        <time>1970-01-01T07:07:24.000Z</time>
      </trkpt>
      <trkpt lat="42.39593" lon="0.950614">
        <ele>1296.4</ele>
        <time>1970-01-01T07:07:25.000Z</time>
      </trkpt>
      <trkpt lat="42.395813" lon="0.950814">
        <ele>1295.4</ele>
        <time>1970-01-01T07:07:28.000Z</time>
      </trkpt>
      <trkpt lat="42.395752" lon="0.950924">
        <ele>1294.2</ele>
        <time>1970-01-01T07:07:30.000Z</time>
      </trkpt>
      <trkpt lat="42.395687" lon="0.951056">
        <ele>1293</ele>
        <time>1970-01-01T07:07:33.000Z</time>
      </trkpt>
      <trkpt lat="42.395579" lon="0.951208">
        <ele>1291.8</ele>
        <time>1970-01-01T07:07:38.000Z</time>
      </trkpt>
      <trkpt lat="42.395444" lon="0.951347">
        <ele>1290.6</ele>
        <time>1970-01-01T07:07:42.000Z</time>
      </trkpt>
      <trkpt lat="42.395318" lon="0.951466">
        <ele>1289.6</ele>
        <time>1970-01-01T07:07:45.000Z</time>
      </trkpt>
      <trkpt lat="42.395177" lon="0.951601">
        <ele>1288.6</ele>
        <time>1970-01-01T07:07:48.000Z</time>
      </trkpt>
      <trkpt lat="42.395125" lon="0.951637">
        <ele>1288.4</ele>
        <time>1970-01-01T07:07:49.000Z</time>
      </trkpt>
      <trkpt lat="42.394964" lon="0.951762">
        <ele>1287.2</ele>
        <time>1970-01-01T07:07:52.000Z</time>
      </trkpt>
      <trkpt lat="42.394821" lon="0.951948">
        <ele>1285.8</ele>
        <time>1970-01-01T07:07:55.000Z</time>
      </trkpt>
      <trkpt lat="42.394778" lon="0.95202">
        <ele>1285.6</ele>
        <time>1970-01-01T07:07:56.000Z</time>
      </trkpt>
      <trkpt lat="42.394657" lon="0.952268">
        <ele>1284.4</ele>
        <time>1970-01-01T07:07:59.000Z</time>
      </trkpt>
      <trkpt lat="42.394585" lon="0.952454">
        <ele>1283</ele>
        <time>1970-01-01T07:08:01.000Z</time>
      </trkpt>
      <trkpt lat="42.394488" lon="0.952779">
        <ele>1281.4</ele>
        <time>1970-01-01T07:08:04.000Z</time>
      </trkpt>
      <trkpt lat="42.394419" lon="0.953003">
        <ele>1280.2</ele>
        <time>1970-01-01T07:08:06.000Z</time>
      </trkpt>
      <trkpt lat="42.394348" lon="0.953247">
        <ele>1278.8</ele>
        <time>1970-01-01T07:08:08.000Z</time>
      </trkpt>
      <trkpt lat="42.394268" lon="0.953492">
        <ele>1277.4</ele>
        <time>1970-01-01T07:08:10.000Z</time>
      </trkpt>
      <trkpt lat="42.394197" lon="0.953734">
        <ele>1276.2</ele>
        <time>1970-01-01T07:08:12.000Z</time>
      </trkpt>
      <trkpt lat="42.394144" lon="0.953972">
        <ele>1274.8</ele>
        <time>1970-01-01T07:08:14.000Z</time>
      </trkpt>
      <trkpt lat="42.39413" lon="0.954089">
        <ele>1274.2</ele>
        <time>1970-01-01T07:08:15.000Z</time>
      </trkpt>
      <trkpt lat="42.394133" lon="0.954205">
        <ele>1273.4</ele>
        <time>1970-01-01T07:08:16.000Z</time>
      </trkpt>
      <trkpt lat="42.394147" lon="0.954314">
        <ele>1272.4</ele>
        <time>1970-01-01T07:08:17.000Z</time>
      </trkpt>
      <trkpt lat="42.394186" lon="0.954506">
        <ele>1271</ele>
        <time>1970-01-01T07:08:19.000Z</time>
      </trkpt>
      <trkpt lat="42.394213" lon="0.954667">
        <ele>1269.6</ele>
        <time>1970-01-01T07:08:21.000Z</time>
      </trkpt>
      <trkpt lat="42.39423" lon="0.954812">
        <ele>1268.8</ele>
        <time>1970-01-01T07:08:23.000Z</time>
      </trkpt>
      <trkpt lat="42.394257" lon="0.954943">
        <ele>1268.4</ele>
        <time>1970-01-01T07:08:25.000Z</time>
      </trkpt>
      <trkpt lat="42.394282" lon="0.955065">
        <ele>1268</ele>
        <time>1970-01-01T07:08:27.000Z</time>
      </trkpt>
      <trkpt lat="42.394293" lon="0.955177">
        <ele>1267</ele>
        <time>1970-01-01T07:08:29.000Z</time>
      </trkpt>
      <trkpt lat="42.394287" lon="0.955399">
        <ele>1266</ele>
        <time>1970-01-01T07:08:33.000Z</time>
      </trkpt>
      <trkpt lat="42.394285" lon="0.95559">
        <ele>1265</ele>
        <time>1970-01-01T07:08:36.000Z</time>
      </trkpt>
      <trkpt lat="42.394295" lon="0.955805">
        <ele>1263.8</ele>
        <time>1970-01-01T07:08:39.000Z</time>
      </trkpt>
      <trkpt lat="42.394307" lon="0.955929">
        <ele>1262.6</ele>
        <time>1970-01-01T07:08:41.000Z</time>
      </trkpt>
      <trkpt lat="42.394402" lon="0.956083">
        <ele>1261.6</ele>
        <time>1970-01-01T07:08:44.000Z</time>
      </trkpt>
      <trkpt lat="42.394572" lon="0.956148">
        <ele>1260.6</ele>
        <time>1970-01-01T07:08:47.000Z</time>
      </trkpt>
      <trkpt lat="42.394713" lon="0.95615">
        <ele>1259.6</ele>
        <time>1970-01-01T07:08:49.000Z</time>
      </trkpt>
      <trkpt lat="42.394787" lon="0.956158">
        <ele>1259.4</ele>
        <time>1970-01-01T07:08:50.000Z</time>
      </trkpt>
      <trkpt lat="42.39493" lon="0.956219">
        <ele>1258.2</ele>
        <time>1970-01-01T07:08:52.000Z</time>
      </trkpt>
      <trkpt lat="42.395153" lon="0.956356">
        <ele>1257</ele>
        <time>1970-01-01T07:08:55.000Z</time>
      </trkpt>
      <trkpt lat="42.395304" lon="0.956468">
        <ele>1255.8</ele>
        <time>1970-01-01T07:08:57.000Z</time>
      </trkpt>
      <trkpt lat="42.395456" lon="0.956584">
        <ele>1254.6</ele>
        <time>1970-01-01T07:08:59.000Z</time>
      </trkpt>
      <trkpt lat="42.395629" lon="0.956631">
        <ele>1253.6</ele>
        <time>1970-01-01T07:09:01.000Z</time>
      </trkpt>
      <trkpt lat="42.395803" lon="0.956611">
        <ele>1252.2</ele>
        <time>1970-01-01T07:09:03.000Z</time>
      </trkpt>
      <trkpt lat="42.395891" lon="0.956607">
        <ele>1251.8</ele>
        <time>1970-01-01T07:09:04.000Z</time>
      </trkpt>
      <trkpt lat="42.396065" lon="0.956669">
        <ele>1250.8</ele>
        <time>1970-01-01T07:09:06.000Z</time>
      </trkpt>
      <trkpt lat="42.396213" lon="0.956792">
        <ele>1249.2</ele>
        <time>1970-01-01T07:09:08.000Z</time>
      </trkpt>
      <trkpt lat="42.396324" lon="0.956959">
        <ele>1248</ele>
        <time>1970-01-01T07:09:10.000Z</time>
      </trkpt>
      <trkpt lat="42.39644" lon="0.957107">
        <ele>1246.6</ele>
        <time>1970-01-01T07:09:12.000Z</time>
      </trkpt>
      <trkpt lat="42.396639" lon="0.957234">
        <ele>1245.2</ele>
        <time>1970-01-01T07:09:15.000Z</time>
      </trkpt>
      <trkpt lat="42.396713" lon="0.957269">
        <ele>1244.8</ele>
        <time>1970-01-01T07:09:16.000Z</time>
      </trkpt>
      <trkpt lat="42.396867" lon="0.957347">
        <ele>1243.8</ele>
        <time>1970-01-01T07:09:18.000Z</time>
      </trkpt>
      <trkpt lat="42.397024" lon="0.957427">
        <ele>1242.6</ele>
        <time>1970-01-01T07:09:20.000Z</time>
      </trkpt>
      <trkpt lat="42.397179" lon="0.957494">
        <ele>1241.6</ele>
        <time>1970-01-01T07:09:22.000Z</time>
      </trkpt>
      <trkpt lat="42.39734" lon="0.957559">
        <ele>1240.4</ele>
        <time>1970-01-01T07:09:24.000Z</time>
      </trkpt>
      <trkpt lat="42.397505" lon="0.957634">
        <ele>1239.4</ele>
        <time>1970-01-01T07:09:26.000Z</time>
      </trkpt>
      <trkpt lat="42.397677" lon="0.957692">
        <ele>1238.2</ele>
        <time>1970-01-01T07:09:28.000Z</time>
      </trkpt>
      <trkpt lat="42.397859" lon="0.957724">
        <ele>1237.2</ele>
        <time>1970-01-01T07:09:30.000Z</time>
      </trkpt>
      <trkpt lat="42.39805" lon="0.95778">
        <ele>1236.2</ele>
        <time>1970-01-01T07:09:32.000Z</time>
      </trkpt>
      <trkpt lat="42.398251" lon="0.957848">
        <ele>1234.8</ele>
        <time>1970-01-01T07:09:34.000Z</time>
      </trkpt>
      <trkpt lat="42.398459" lon="0.957931">
        <ele>1233.8</ele>
        <time>1970-01-01T07:09:36.000Z</time>
      </trkpt>
      <trkpt lat="42.398662" lon="0.95804">
        <ele>1232.2</ele>
        <time>1970-01-01T07:09:38.000Z</time>
      </trkpt>
      <trkpt lat="42.398869" lon="0.958153">
        <ele>1231</ele>
        <time>1970-01-01T07:09:40.000Z</time>
      </trkpt>
      <trkpt lat="42.399088" lon="0.958193">
        <ele>1229</ele>
        <time>1970-01-01T07:09:42.000Z</time>
      </trkpt>
      <trkpt lat="42.399187" lon="0.958209">
        <ele>1228.4</ele>
        <time>1970-01-01T07:09:43.000Z</time>
      </trkpt>
      <trkpt lat="42.399275" lon="0.958249">
        <ele>1227.6</ele>
        <time>1970-01-01T07:09:44.000Z</time>
      </trkpt>
      <trkpt lat="42.399411" lon="0.958428">
        <ele>1225.8</ele>
        <time>1970-01-01T07:09:46.000Z</time>
      </trkpt>
      <trkpt lat="42.399464" lon="0.958539">
        <ele>1225.2</ele>
        <time>1970-01-01T07:09:47.000Z</time>
      </trkpt>
      <trkpt lat="42.399526" lon="0.958636">
        <ele>1224.8</ele>
        <time>1970-01-01T07:09:48.000Z</time>
      </trkpt>
      <trkpt lat="42.399598" lon="0.958717">
        <ele>1223.6</ele>
        <time>1970-01-01T07:09:49.000Z</time>
      </trkpt>
      <trkpt lat="42.399754" lon="0.958869">
        <ele>1222.4</ele>
        <time>1970-01-01T07:09:51.000Z</time>
      </trkpt>
      <trkpt lat="42.399902" lon="0.959011">
        <ele>1221</ele>
        <time>1970-01-01T07:09:53.000Z</time>
      </trkpt>
      <trkpt lat="42.400046" lon="0.959098">
        <ele>1219.4</ele>
        <time>1970-01-01T07:09:55.000Z</time>
      </trkpt>
      <trkpt lat="42.400171" lon="0.959128">
        <ele>1218.4</ele>
        <time>1970-01-01T07:09:57.000Z</time>
      </trkpt>
      <trkpt lat="42.400292" lon="0.959088">
        <ele>1217.2</ele>
        <time>1970-01-01T07:09:59.000Z</time>
      </trkpt>
      <trkpt lat="42.400419" lon="0.959018">
        <ele>1216</ele>
        <time>1970-01-01T07:10:01.000Z</time>
      </trkpt>
      <trkpt lat="42.400628" lon="0.958989">
        <ele>1214.8</ele>
        <time>1970-01-01T07:10:04.000Z</time>
      </trkpt>
      <trkpt lat="42.40081" lon="0.959066">
        <ele>1213.2</ele>
        <time>1970-01-01T07:10:07.000Z</time>
      </trkpt>
      <trkpt lat="42.400927" lon="0.959277">
        <ele>1211.8</ele>
        <time>1970-01-01T07:10:10.000Z</time>
      </trkpt>
      <trkpt lat="42.400953" lon="0.959367">
        <ele>1211.4</ele>
        <time>1970-01-01T07:10:11.000Z</time>
      </trkpt>
      <trkpt lat="42.400989" lon="0.959453">
        <ele>1211</ele>
        <time>1970-01-01T07:10:12.000Z</time>
      </trkpt>
      <trkpt lat="42.401036" lon="0.959538">
        <ele>1210.4</ele>
        <time>1970-01-01T07:10:13.000Z</time>
      </trkpt>
      <trkpt lat="42.401154" lon="0.959693">
        <ele>1209.4</ele>
        <time>1970-01-01T07:10:15.000Z</time>
      </trkpt>
      <trkpt lat="42.401277" lon="0.959865">
        <ele>1208.2</ele>
        <time>1970-01-01T07:10:17.000Z</time>
      </trkpt>
      <trkpt lat="42.401473" lon="0.960141">
        <ele>1206.8</ele>
        <time>1970-01-01T07:10:20.000Z</time>
      </trkpt>
      <trkpt lat="42.401577" lon="0.960361">
        <ele>1205.6</ele>
        <time>1970-01-01T07:10:22.000Z</time>
      </trkpt>
      <trkpt lat="42.401672" lon="0.960584">
        <ele>1203.8</ele>
        <time>1970-01-01T07:10:24.000Z</time>
      </trkpt>
      <trkpt lat="42.401795" lon="0.96077">
        <ele>1202.4</ele>
        <time>1970-01-01T07:10:26.000Z</time>
      </trkpt>
      <trkpt lat="42.401954" lon="0.960897">
        <ele>1201.2</ele>
        <time>1970-01-01T07:10:28.000Z</time>
      </trkpt>
      <trkpt lat="42.402134" lon="0.960923">
        <ele>1200</ele>
        <time>1970-01-01T07:10:30.000Z</time>
      </trkpt>
      <trkpt lat="42.402309" lon="0.960957">
        <ele>1198.8</ele>
        <time>1970-01-01T07:10:32.000Z</time>
      </trkpt>
      <trkpt lat="42.402489" lon="0.961029">
        <ele>1197</ele>
        <time>1970-01-01T07:10:34.000Z</time>
      </trkpt>
      <trkpt lat="42.40268" lon="0.961125">
        <ele>1195.6</ele>
        <time>1970-01-01T07:10:36.000Z</time>
      </trkpt>
      <trkpt lat="42.402876" lon="0.96125">
        <ele>1194.4</ele>
        <time>1970-01-01T07:10:38.000Z</time>
      </trkpt>
      <trkpt lat="42.403072" lon="0.961386">
        <ele>1192.8</ele>
        <time>1970-01-01T07:10:40.000Z</time>
      </trkpt>
      <trkpt lat="42.403255" lon="0.961515">
        <ele>1191</ele>
        <time>1970-01-01T07:10:42.000Z</time>
      </trkpt>
      <trkpt lat="42.403405" lon="0.96163">
        <ele>1189.6</ele>
        <time>1970-01-01T07:10:44.000Z</time>
      </trkpt>
      <trkpt lat="42.403534" lon="0.961743">
        <ele>1188.6</ele>
        <time>1970-01-01T07:10:46.000Z</time>
      </trkpt>
      <trkpt lat="42.403696" lon="0.961937">
        <ele>1187.4</ele>
        <time>1970-01-01T07:10:49.000Z</time>
      </trkpt>
      <trkpt lat="42.403795" lon="0.962106">
        <ele>1186</ele>
        <time>1970-01-01T07:10:51.000Z</time>
      </trkpt>
      <trkpt lat="42.403864" lon="0.962317">
        <ele>1185</ele>
        <time>1970-01-01T07:10:53.000Z</time>
      </trkpt>
      <trkpt lat="42.403913" lon="0.962533">
        <ele>1184.2</ele>
        <time>1970-01-01T07:10:55.000Z</time>
      </trkpt>
      <trkpt lat="42.403934" lon="0.962634">
        <ele>1183.8</ele>
        <time>1970-01-01T07:10:56.000Z</time>
      </trkpt>
      <trkpt lat="42.403971" lon="0.962836">
        <ele>1183</ele>
        <time>1970-01-01T07:10:58.000Z</time>
      </trkpt>
      <trkpt lat="42.403978" lon="0.962935">
        <ele>1182.6</ele>
        <time>1970-01-01T07:10:59.000Z</time>
      </trkpt>
      <trkpt lat="42.403941" lon="0.963223">
        <ele>1180.8</ele>
        <time>1970-01-01T07:11:02.000Z</time>
      </trkpt>
      <trkpt lat="42.403884" lon="0.963404">
        <ele>1179.6</ele>
        <time>1970-01-01T07:11:04.000Z</time>
      </trkpt>
      <trkpt lat="42.403808" lon="0.963664">
        <ele>1178.6</ele>
        <time>1970-01-01T07:11:07.000Z</time>
      </trkpt>
      <trkpt lat="42.403774" lon="0.96384">
        <ele>1177.2</ele>
        <time>1970-01-01T07:11:09.000Z</time>
      </trkpt>
      <trkpt lat="42.403753" lon="0.964032">
        <ele>1176.2</ele>
        <time>1970-01-01T07:11:11.000Z</time>
      </trkpt>
      <trkpt lat="42.403737" lon="0.964236">
        <ele>1174.8</ele>
        <time>1970-01-01T07:11:13.000Z</time>
      </trkpt>
      <trkpt lat="42.403717" lon="0.964324">
        <ele>1174.4</ele>
        <time>1970-01-01T07:11:14.000Z</time>
      </trkpt>
      <trkpt lat="42.40368" lon="0.964397">
        <ele>1173.8</ele>
        <time>1970-01-01T07:11:15.000Z</time>
      </trkpt>
      <trkpt lat="42.403588" lon="0.964541">
        <ele>1172.2</ele>
        <time>1970-01-01T07:11:17.000Z</time>
      </trkpt>
      <trkpt lat="42.40356" lon="0.964703">
        <ele>1171.2</ele>
        <time>1970-01-01T07:11:19.000Z</time>
      </trkpt>
      <trkpt lat="42.403589" lon="0.964826">
        <ele>1170</ele>
        <time>1970-01-01T07:11:21.000Z</time>
      </trkpt>
      <trkpt lat="42.403631" lon="0.964918">
        <ele>1169.2</ele>
        <time>1970-01-01T07:11:23.000Z</time>
      </trkpt>
      <trkpt lat="42.403652" lon="0.964961">
        <ele>1168.8</ele>
        <time>1970-01-01T07:11:24.000Z</time>
      </trkpt>
      <trkpt lat="42.403738" lon="0.965094">
        <ele>1167.6</ele>
        <time>1970-01-01T07:11:27.000Z</time>
      </trkpt>
      <trkpt lat="42.403874" lon="0.965171">
        <ele>1166.6</ele>
        <time>1970-01-01T07:11:31.000Z</time>
      </trkpt>
      <trkpt lat="42.404049" lon="0.965221">
        <ele>1165.8</ele>
        <time>1970-01-01T07:11:35.000Z</time>
      </trkpt>
      <trkpt lat="42.404097" lon="0.965249">
        <ele>1165.6</ele>
        <time>1970-01-01T07:11:36.000Z</time>
      </trkpt>
      <trkpt lat="42.404272" lon="0.965453">
        <ele>1164.2</ele>
        <time>1970-01-01T07:11:40.000Z</time>
      </trkpt>
      <trkpt lat="42.404334" lon="0.96562">
        <ele>1163</ele>
        <time>1970-01-01T07:11:42.000Z</time>
      </trkpt>
      <trkpt lat="42.404394" lon="0.965806">
        <ele>1162</ele>
        <time>1970-01-01T07:11:44.000Z</time>
      </trkpt>
      <trkpt lat="42.404499" lon="0.966108">
        <ele>1160.6</ele>
        <time>1970-01-01T07:11:47.000Z</time>
      </trkpt>
      <trkpt lat="42.404594" lon="0.966305">
        <ele>1159.8</ele>
        <time>1970-01-01T07:11:49.000Z</time>
      </trkpt>
      <trkpt lat="42.404661" lon="0.966381">
        <ele>1159.2</ele>
        <time>1970-01-01T07:11:50.000Z</time>
      </trkpt>
      <trkpt lat="42.404827" lon="0.96644">
        <ele>1157.2</ele>
        <time>1970-01-01T07:11:52.000Z</time>
      </trkpt>
      <trkpt lat="42.405002" lon="0.966366">
        <ele>1156</ele>
        <time>1970-01-01T07:11:54.000Z</time>
      </trkpt>
      <trkpt lat="42.405091" lon="0.966317">
        <ele>1155.6</ele>
        <time>1970-01-01T07:11:55.000Z</time>
      </trkpt>
      <trkpt lat="42.405179" lon="0.966258">
        <ele>1154.8</ele>
        <time>1970-01-01T07:11:56.000Z</time>
      </trkpt>
      <trkpt lat="42.40536" lon="0.966124">
        <ele>1153.6</ele>
        <time>1970-01-01T07:11:58.000Z</time>
      </trkpt>
      <trkpt lat="42.405455" lon="0.966056">
        <ele>1152.8</ele>
        <time>1970-01-01T07:11:59.000Z</time>
      </trkpt>
      <trkpt lat="42.405557" lon="0.965996">
        <ele>1152.2</ele>
        <time>1970-01-01T07:12:00.000Z</time>
      </trkpt>
      <trkpt lat="42.405663" lon="0.965942">
        <ele>1151.2</ele>
        <time>1970-01-01T07:12:01.000Z</time>
      </trkpt>
      <trkpt lat="42.405768" lon="0.96589">
        <ele>1150</ele>
        <time>1970-01-01T07:12:02.000Z</time>
      </trkpt>
      <trkpt lat="42.40587" lon="0.965846">
        <ele>1149</ele>
        <time>1970-01-01T07:12:03.000Z</time>
      </trkpt>
      <trkpt lat="42.405972" lon="0.965815">
        <ele>1148.4</ele>
        <time>1970-01-01T07:12:04.000Z</time>
      </trkpt>
      <trkpt lat="42.406157" lon="0.965723">
        <ele>1146.8</ele>
        <time>1970-01-01T07:12:06.000Z</time>
      </trkpt>
      <trkpt lat="42.406283" lon="0.965538">
        <ele>1145.6</ele>
        <time>1970-01-01T07:12:08.000Z</time>
      </trkpt>
      <trkpt lat="42.40638" lon="0.965306">
        <ele>1144.4</ele>
        <time>1970-01-01T07:12:10.000Z</time>
      </trkpt>
      <trkpt lat="42.406473" lon="0.965072">
        <ele>1143.2</ele>
        <time>1970-01-01T07:12:12.000Z</time>
      </trkpt>
      <trkpt lat="42.406607" lon="0.964813">
        <ele>1142</ele>
        <time>1970-01-01T07:12:15.000Z</time>
      </trkpt>
      <trkpt lat="42.406738" lon="0.964777">
        <ele>1141</ele>
        <time>1970-01-01T07:12:17.000Z</time>
      </trkpt>
      <trkpt lat="42.406844" lon="0.964976">
        <ele>1139.6</ele>
        <time>1970-01-01T07:12:20.000Z</time>
      </trkpt>
      <trkpt lat="42.406873" lon="0.96517">
        <ele>1138.6</ele>
        <time>1970-01-01T07:12:22.000Z</time>
      </trkpt>
      <trkpt lat="42.406941" lon="0.965484">
        <ele>1137.2</ele>
        <time>1970-01-01T07:12:25.000Z</time>
      </trkpt>
      <trkpt lat="42.407077" lon="0.965789">
        <ele>1136</ele>
        <time>1970-01-01T07:12:28.000Z</time>
      </trkpt>
      <trkpt lat="42.407209" lon="0.966076">
        <ele>1134.4</ele>
        <time>1970-01-01T07:12:31.000Z</time>
      </trkpt>
      <trkpt lat="42.407326" lon="0.966187">
        <ele>1133.2</ele>
        <time>1970-01-01T07:12:33.000Z</time>
      </trkpt>
      <trkpt lat="42.407465" lon="0.966196">
        <ele>1132.4</ele>
        <time>1970-01-01T07:12:35.000Z</time>
      </trkpt>
      <trkpt lat="42.40771" lon="0.966186">
        <ele>1131</ele>
        <time>1970-01-01T07:12:38.000Z</time>
      </trkpt>
      <trkpt lat="42.407796" lon="0.966178">
        <ele>1130.4</ele>
        <time>1970-01-01T07:12:39.000Z</time>
      </trkpt>
      <trkpt lat="42.407885" lon="0.966151">
        <ele>1129.8</ele>
        <time>1970-01-01T07:12:40.000Z</time>
      </trkpt>
      <trkpt lat="42.408061" lon="0.966062">
        <ele>1128.6</ele>
        <time>1970-01-01T07:12:42.000Z</time>
      </trkpt>
      <trkpt lat="42.408258" lon="0.965984">
        <ele>1127</ele>
        <time>1970-01-01T07:12:44.000Z</time>
      </trkpt>
      <trkpt lat="42.408471" lon="0.965955">
        <ele>1125.2</ele>
        <time>1970-01-01T07:12:46.000Z</time>
      </trkpt>
      <trkpt lat="42.40869" lon="0.965937">
        <ele>1123.8</ele>
        <time>1970-01-01T07:12:48.000Z</time>
      </trkpt>
      <trkpt lat="42.408893" lon="0.965929">
        <ele>1122.2</ele>
        <time>1970-01-01T07:12:50.000Z</time>
      </trkpt>
      <trkpt lat="42.40898" lon="0.965943">
        <ele>1121.2</ele>
        <time>1970-01-01T07:12:51.000Z</time>
      </trkpt>
      <trkpt lat="42.409027" lon="0.965981">
        <ele>1120.4</ele>
        <time>1970-01-01T07:12:52.000Z</time>
      </trkpt>
      <trkpt lat="42.409076" lon="0.966095">
        <ele>1119</ele>
        <time>1970-01-01T07:12:54.000Z</time>
      </trkpt>
      <trkpt lat="42.408913" lon="0.966333">
        <ele>1118.2</ele>
        <time>1970-01-01T07:12:59.000Z</time>
      </trkpt>
      <trkpt lat="42.408413" lon="0.966708">
        <ele>1118.6</ele>
        <time>1970-01-01T07:13:14.000Z</time>
      </trkpt>
      <trkpt lat="42.408289" lon="0.966836">
        <ele>1118.4</ele>
        <time>1970-01-01T07:13:17.000Z</time>
      </trkpt>
      <trkpt lat="42.408207" lon="0.966936">
        <ele>1118</ele>
        <time>1970-01-01T07:13:19.000Z</time>
      </trkpt>
      <trkpt lat="42.40798" lon="0.967185">
        <ele>1117.2</ele>
        <time>1970-01-01T07:13:24.000Z</time>
      </trkpt>
      <trkpt lat="42.407893" lon="0.967299">
        <ele>1117</ele>
        <time>1970-01-01T07:13:26.000Z</time>
      </trkpt>
      <trkpt lat="42.407697" lon="0.967629">
        <ele>1116</ele>
        <time>1970-01-01T07:13:31.000Z</time>
      </trkpt>
      <trkpt lat="42.407487" lon="0.968064">
        <ele>1115</ele>
        <time>1970-01-01T07:13:37.000Z</time>
      </trkpt>
      <trkpt lat="42.407311" lon="0.968571">
        <ele>1114</ele>
        <time>1970-01-01T07:13:43.000Z</time>
      </trkpt>
      <trkpt lat="42.407292" lon="0.968663">
        <ele>1113.6</ele>
        <time>1970-01-01T07:13:44.000Z</time>
      </trkpt>
      <trkpt lat="42.407277" lon="0.96884">
        <ele>1112.8</ele>
        <time>1970-01-01T07:13:46.000Z</time>
      </trkpt>
      <trkpt lat="42.407289" lon="0.969119">
        <ele>1111.8</ele>
        <time>1970-01-01T07:13:49.000Z</time>
      </trkpt>
      <trkpt lat="42.407291" lon="0.969217">
        <ele>1111.6</ele>
        <time>1970-01-01T07:13:50.000Z</time>
      </trkpt>
      <trkpt lat="42.407285" lon="0.969309">
        <ele>1111.4</ele>
        <time>1970-01-01T07:13:51.000Z</time>
      </trkpt>
      <trkpt lat="42.407254" lon="0.969491">
        <ele>1110.8</ele>
        <time>1970-01-01T07:13:53.000Z</time>
      </trkpt>
      <trkpt lat="42.407195" lon="0.969664">
        <ele>1110.6</ele>
        <time>1970-01-01T07:13:55.000Z</time>
      </trkpt>
      <trkpt lat="42.407027" lon="0.970095">
        <ele>1109.4</ele>
        <time>1970-01-01T07:14:00.000Z</time>
      </trkpt>
      <trkpt lat="42.406953" lon="0.970378">
        <ele>1108.4</ele>
        <time>1970-01-01T07:14:03.000Z</time>
      </trkpt>
      <trkpt lat="42.406842" lon="0.970799">
        <ele>1107.2</ele>
        <time>1970-01-01T07:14:07.000Z</time>
      </trkpt>
      <trkpt lat="42.406748" lon="0.971154">
        <ele>1105.4</ele>
        <time>1970-01-01T07:14:10.000Z</time>
      </trkpt>
      <trkpt lat="42.406686" lon="0.971405">
        <ele>1104.2</ele>
        <time>1970-01-01T07:14:12.000Z</time>
      </trkpt>
      <trkpt lat="42.406615" lon="0.971649">
        <ele>1103</ele>
        <time>1970-01-01T07:14:14.000Z</time>
      </trkpt>
      <trkpt lat="42.406556" lon="0.971885">
        <ele>1101.4</ele>
        <time>1970-01-01T07:14:16.000Z</time>
      </trkpt>
      <trkpt lat="42.40653" lon="0.972127">
        <ele>1099.8</ele>
        <time>1970-01-01T07:14:18.000Z</time>
      </trkpt>
      <trkpt lat="42.406556" lon="0.972359">
        <ele>1098.4</ele>
        <time>1970-01-01T07:14:20.000Z</time>
      </trkpt>
      <trkpt lat="42.406626" lon="0.972582">
        <ele>1097.4</ele>
        <time>1970-01-01T07:14:22.000Z</time>
      </trkpt>
      <trkpt lat="42.406673" lon="0.972694">
        <ele>1096.8</ele>
        <time>1970-01-01T07:14:23.000Z</time>
      </trkpt>
      <trkpt lat="42.406808" lon="0.97288">
        <ele>1095.6</ele>
        <time>1970-01-01T07:14:25.000Z</time>
      </trkpt>
      <trkpt lat="42.407052" lon="0.973101">
        <ele>1094.2</ele>
        <time>1970-01-01T07:14:28.000Z</time>
      </trkpt>
      <trkpt lat="42.407567" lon="0.9735">
        <ele>1093.4</ele>
        <time>1970-01-01T07:14:35.000Z</time>
      </trkpt>
      <trkpt lat="42.40782" lon="0.973684">
        <ele>1093.4</ele>
        <time>1970-01-01T07:14:39.000Z</time>
      </trkpt>
      <trkpt lat="42.407936" lon="0.973777">
        <ele>1093.2</ele>
        <time>1970-01-01T07:14:41.000Z</time>
      </trkpt>
      <trkpt lat="42.40815" lon="0.974079">
        <ele>1093</ele>
        <time>1970-01-01T07:14:46.000Z</time>
      </trkpt>
      <trkpt lat="42.408427" lon="0.974586">
        <ele>1092.6</ele>
        <time>1970-01-01T07:14:54.000Z</time>
      </trkpt>
      <trkpt lat="42.408475" lon="0.974664">
        <ele>1092.2</ele>
        <time>1970-01-01T07:14:55.000Z</time>
      </trkpt>
      <trkpt lat="42.408583" lon="0.974822">
        <ele>1091.4</ele>
        <time>1970-01-01T07:14:57.000Z</time>
      </trkpt>
      <trkpt lat="42.408646" lon="0.974897">
        <ele>1091</ele>
        <time>1970-01-01T07:14:58.000Z</time>
      </trkpt>
      <trkpt lat="42.408877" lon="0.975071">
        <ele>1090.2</ele>
        <time>1970-01-01T07:15:01.000Z</time>
      </trkpt>
      <trkpt lat="42.409051" lon="0.975179">
        <ele>1088.8</ele>
        <time>1970-01-01T07:15:03.000Z</time>
      </trkpt>
      <trkpt lat="42.409233" lon="0.9753">
        <ele>1087.6</ele>
        <time>1970-01-01T07:15:05.000Z</time>
      </trkpt>
      <trkpt lat="42.409427" lon="0.975422">
        <ele>1086.4</ele>
        <time>1970-01-01T07:15:07.000Z</time>
      </trkpt>
      <trkpt lat="42.409528" lon="0.975476">
        <ele>1085.4</ele>
        <time>1970-01-01T07:15:08.000Z</time>
      </trkpt>
      <trkpt lat="42.409741" lon="0.975571">
        <ele>1083.8</ele>
        <time>1970-01-01T07:15:10.000Z</time>
      </trkpt>
      <trkpt lat="42.40985" lon="0.975629">
        <ele>1083.2</ele>
        <time>1970-01-01T07:15:11.000Z</time>
      </trkpt>
      <trkpt lat="42.409956" lon="0.975701">
        <ele>1082.2</ele>
        <time>1970-01-01T07:15:12.000Z</time>
      </trkpt>
      <trkpt lat="42.410162" lon="0.975876">
        <ele>1080.2</ele>
        <time>1970-01-01T07:15:14.000Z</time>
      </trkpt>
      <trkpt lat="42.41027" lon="0.975958">
        <ele>1078.8</ele>
        <time>1970-01-01T07:15:15.000Z</time>
      </trkpt>
      <trkpt lat="42.410384" lon="0.976022">
        <ele>1077.8</ele>
        <time>1970-01-01T07:15:16.000Z</time>
      </trkpt>
      <trkpt lat="42.410627" lon="0.976124">
        <ele>1076</ele>
        <time>1970-01-01T07:15:18.000Z</time>
      </trkpt>
      <trkpt lat="42.410857" lon="0.976224">
        <ele>1074</ele>
        <time>1970-01-01T07:15:20.000Z</time>
      </trkpt>
      <trkpt lat="42.411068" lon="0.976353">
        <ele>1071.6</ele>
        <time>1970-01-01T07:15:22.000Z</time>
      </trkpt>
      <trkpt lat="42.411168" lon="0.976438">
        <ele>1070.6</ele>
        <time>1970-01-01T07:15:23.000Z</time>
      </trkpt>
      <trkpt lat="42.411341" lon="0.976612">
        <ele>1069</ele>
        <time>1970-01-01T07:15:25.000Z</time>
      </trkpt>
      <trkpt lat="42.411399" lon="0.9767">
        <ele>1068</ele>
        <time>1970-01-01T07:15:26.000Z</time>
      </trkpt>
      <trkpt lat="42.411444" lon="0.976785">
        <ele>1066.8</ele>
        <time>1970-01-01T07:15:27.000Z</time>
      </trkpt>
      <trkpt lat="42.411503" lon="0.976942">
        <ele>1065</ele>
        <time>1970-01-01T07:15:29.000Z</time>
      </trkpt>
      <trkpt lat="42.41153" lon="0.977014">
        <ele>1064.2</ele>
        <time>1970-01-01T07:15:30.000Z</time>
      </trkpt>
      <trkpt lat="42.411565" lon="0.97708">
        <ele>1063.6</ele>
        <time>1970-01-01T07:15:31.000Z</time>
      </trkpt>
      <trkpt lat="42.411658" lon="0.977173">
        <ele>1062.2</ele>
        <time>1970-01-01T07:15:33.000Z</time>
      </trkpt>
      <trkpt lat="42.411843" lon="0.977237">
        <ele>1061</ele>
        <time>1970-01-01T07:15:36.000Z</time>
      </trkpt>
      <trkpt lat="42.412032" lon="0.977335">
        <ele>1059.6</ele>
        <time>1970-01-01T07:15:39.000Z</time>
      </trkpt>
      <trkpt lat="42.412128" lon="0.977477">
        <ele>1058.2</ele>
        <time>1970-01-01T07:15:41.000Z</time>
      </trkpt>
      <trkpt lat="42.412182" lon="0.97755">
        <ele>1057.6</ele>
        <time>1970-01-01T07:15:42.000Z</time>
      </trkpt>
      <trkpt lat="42.412245" lon="0.977614">
        <ele>1056.8</ele>
        <time>1970-01-01T07:15:43.000Z</time>
      </trkpt>
      <trkpt lat="42.412378" lon="0.977731">
        <ele>1055.6</ele>
        <time>1970-01-01T07:15:45.000Z</time>
      </trkpt>
      <trkpt lat="42.412595" lon="0.977952">
        <ele>1054.6</ele>
        <time>1970-01-01T07:15:48.000Z</time>
      </trkpt>
      <trkpt lat="42.412753" lon="0.978099">
        <ele>1053.4</ele>
        <time>1970-01-01T07:15:50.000Z</time>
      </trkpt>
      <trkpt lat="42.412916" lon="0.978244">
        <ele>1052.2</ele>
        <time>1970-01-01T07:15:52.000Z</time>
      </trkpt>
      <trkpt lat="42.413066" lon="0.978384">
        <ele>1050.4</ele>
        <time>1970-01-01T07:15:54.000Z</time>
      </trkpt>
      <trkpt lat="42.41313" lon="0.978463">
        <ele>1049.2</ele>
        <time>1970-01-01T07:15:55.000Z</time>
      </trkpt>
      <trkpt lat="42.413214" lon="0.978658">
        <ele>1047.8</ele>
        <time>1970-01-01T07:15:57.000Z</time>
      </trkpt>
      <trkpt lat="42.413248" lon="0.978889">
        <ele>1046.4</ele>
        <time>1970-01-01T07:15:59.000Z</time>
      </trkpt>
      <trkpt lat="42.413254" lon="0.97912">
        <ele>1045</ele>
        <time>1970-01-01T07:16:01.000Z</time>
      </trkpt>
      <trkpt lat="42.413258" lon="0.979226">
        <ele>1044.6</ele>
        <time>1970-01-01T07:16:02.000Z</time>
      </trkpt>
      <trkpt lat="42.413258" lon="0.979599">
        <ele>1044</ele>
        <time>1970-01-01T07:16:06.000Z</time>
      </trkpt>
      <trkpt lat="42.413254" lon="0.979673">
        <ele>1044</ele>
        <time>1970-01-01T07:16:07.000Z</time>
      </trkpt>
      <trkpt lat="42.413148" lon="0.979843">
        <ele>1044.2</ele>
        <time>1970-01-01T07:16:11.000Z</time>
      </trkpt>
      <trkpt lat="42.413015" lon="0.97988">
        <ele>1045.2</ele>
        <time>1970-01-01T07:16:15.000Z</time>
      </trkpt>
      <trkpt lat="42.412841" lon="0.979898">
        <ele>1046.2</ele>
        <time>1970-01-01T07:16:22.000Z</time>
      </trkpt>
      <trkpt lat="42.412832" lon="0.979914">
        <ele>1046.4</ele>
        <time>1970-01-01T07:16:23.000Z</time>
      </trkpt>
      <trkpt lat="42.412895" lon="0.979999">
        <ele>1046.8</ele>
        <time>1970-01-01T07:16:29.000Z</time>
      </trkpt>
      <trkpt lat="42.413066" lon="0.980015">
        <ele>1047.6</ele>
        <time>1970-01-01T07:16:36.000Z</time>
      </trkpt>
      <trkpt lat="42.41348" lon="0.980141">
        <ele>1048.8</ele>
        <time>1970-01-01T07:16:52.000Z</time>
      </trkpt>
      <trkpt lat="42.4137" lon="0.980207">
        <ele>1049.8</ele>
        <time>1970-01-01T07:17:01.000Z</time>
      </trkpt>
      <trkpt lat="42.414104" lon="0.980224">
        <ele>1051</ele>
        <time>1970-01-01T07:17:18.000Z</time>
      </trkpt>
      <trkpt lat="42.414343" lon="0.980361">
        <ele>1052.2</ele>
        <time>1970-01-01T07:17:28.000Z</time>
      </trkpt>
      <trkpt lat="42.414639" lon="0.980507">
        <ele>1053.6</ele>
        <time>1970-01-01T07:17:39.000Z</time>
      </trkpt>
      <trkpt lat="42.414875" lon="0.9806">
        <ele>1054.6</ele>
        <time>1970-01-01T07:17:47.000Z</time>
      </trkpt>
      <trkpt lat="42.415065" lon="0.980679">
        <ele>1056</ele>
        <time>1970-01-01T07:17:55.000Z</time>
      </trkpt>
      <trkpt lat="42.415232" lon="0.980697">
        <ele>1057.4</ele>
        <time>1970-01-01T07:18:02.000Z</time>
      </trkpt>
      <trkpt lat="42.415409" lon="0.980725">
        <ele>1058.4</ele>
        <time>1970-01-01T07:18:09.000Z</time>
      </trkpt>
      <trkpt lat="42.415603" lon="0.980755">
        <ele>1059.6</ele>
        <time>1970-01-01T07:18:18.000Z</time>
      </trkpt>
      <trkpt lat="42.415801" lon="0.980783">
        <ele>1060.8</ele>
        <time>1970-01-01T07:18:26.000Z</time>
      </trkpt>
      <trkpt lat="42.41613" lon="0.980849">
        <ele>1062</ele>
        <time>1970-01-01T07:18:39.000Z</time>
      </trkpt>
      <trkpt lat="42.416347" lon="0.980909">
        <ele>1063</ele>
        <time>1970-01-01T07:18:48.000Z</time>
      </trkpt>
      <trkpt lat="42.416584" lon="0.981004">
        <ele>1064.2</ele>
        <time>1970-01-01T07:18:58.000Z</time>
      </trkpt>
      <trkpt lat="42.416765" lon="0.98107">
        <ele>1065.4</ele>
        <time>1970-01-01T07:19:06.000Z</time>
      </trkpt>
      <trkpt lat="42.416917" lon="0.981108">
        <ele>1066.6</ele>
        <time>1970-01-01T07:19:13.000Z</time>
      </trkpt>
      <trkpt lat="42.417042" lon="0.98112">
        <ele>1067.6</ele>
        <time>1970-01-01T07:19:19.000Z</time>
      </trkpt>
      <trkpt lat="42.417286" lon="0.981129">
        <ele>1068.8</ele>
        <time>1970-01-01T07:19:29.000Z</time>
      </trkpt>
      <trkpt lat="42.417445" lon="0.981134">
        <ele>1070</ele>
        <time>1970-01-01T07:19:36.000Z</time>
      </trkpt>
      <trkpt lat="42.41766" lon="0.981136">
        <ele>1071</ele>
        <time>1970-01-01T07:19:46.000Z</time>
      </trkpt>
      <trkpt lat="42.417837" lon="0.981127">
        <ele>1072.2</ele>
        <time>1970-01-01T07:19:54.000Z</time>
      </trkpt>
      <trkpt lat="42.41807" lon="0.98113">
        <ele>1073.4</ele>
        <time>1970-01-01T07:20:04.000Z</time>
      </trkpt>
      <trkpt lat="42.418235" lon="0.981129">
        <ele>1074.4</ele>
        <time>1970-01-01T07:20:11.000Z</time>
      </trkpt>
      <trkpt lat="42.418481" lon="0.981172">
        <ele>1075.6</ele>
        <time>1970-01-01T07:20:21.000Z</time>
      </trkpt>
      <trkpt lat="42.418698" lon="0.981218">
        <ele>1076.8</ele>
        <time>1970-01-01T07:20:30.000Z</time>
      </trkpt>
      <trkpt lat="42.419002" lon="0.981317">
        <ele>1077.6</ele>
        <time>1970-01-01T07:20:45.000Z</time>
      </trkpt>
      <trkpt lat="42.419037" lon="0.981374">
        <ele>1078</ele>
        <time>1970-01-01T07:21:12.000Z</time>
      </trkpt>
      <trkpt lat="42.419064" lon="0.981413">
        <ele>1078.2</ele>
        <time>1970-01-01T07:21:14.000Z</time>
      </trkpt>
      <trkpt lat="42.419149" lon="0.981562">
        <ele>1079.4</ele>
        <time>1970-01-01T07:21:21.000Z</time>
      </trkpt>
      <trkpt lat="42.41921" lon="0.981701">
        <ele>1080.4</ele>
        <time>1970-01-01T07:21:27.000Z</time>
      </trkpt>
      <trkpt lat="42.419592" lon="0.982206">
        <ele>1081.4</ele>
        <time>1970-01-01T07:21:47.000Z</time>
      </trkpt>
      <trkpt lat="42.420123" lon="0.982374">
        <ele>1081.6</ele>
        <time>1970-01-01T07:22:06.000Z</time>
      </trkpt>
      <trkpt lat="42.420208" lon="0.982403">
        <ele>1082</ele>
        <time>1970-01-01T07:22:09.000Z</time>
      </trkpt>
      <trkpt lat="42.420451" lon="0.982458">
        <ele>1082</ele>
        <time>1970-01-01T07:22:19.000Z</time>
      </trkpt>
      <trkpt lat="42.4205" lon="0.982465">
        <ele>1082.4</ele>
        <time>1970-01-01T07:22:31.000Z</time>
      </trkpt>
      <trkpt lat="42.421062" lon="0.982492">
        <ele>1083</ele>
        <time>1970-01-01T07:22:50.000Z</time>
      </trkpt>
      <trkpt lat="42.421121" lon="0.982473">
        <ele>1083.2</ele>
        <time>1970-01-01T07:22:52.000Z</time>
      </trkpt>
      <trkpt lat="42.421626" lon="0.982208">
        <ele>1084.4</ele>
        <time>1970-01-01T07:23:10.000Z</time>
      </trkpt>
      <trkpt lat="42.422055" lon="0.982047">
        <ele>1085.6</ele>
        <time>1970-01-01T07:23:27.000Z</time>
      </trkpt>
      <trkpt lat="42.422054" lon="0.982014">
        <ele>1085.8</ele>
        <time>1970-01-01T07:23:32.000Z</time>
      </trkpt>
      <trkpt lat="42.42212" lon="0.982026">
        <ele>1086.2</ele>
        <time>1970-01-01T07:27:41.000Z</time>
      </trkpt>
      <trkpt lat="42.42236" lon="0.981989">
        <ele>1087.2</ele>
        <time>1970-01-01T07:27:53.000Z</time>
      </trkpt>
      <trkpt lat="42.422573" lon="0.982">
        <ele>1088.2</ele>
        <time>1970-01-01T07:28:02.000Z</time>
      </trkpt>
      <trkpt lat="42.422862" lon="0.982118">
        <ele>1089.4</ele>
        <time>1970-01-01T07:28:14.000Z</time>
      </trkpt>
      <trkpt lat="42.423128" lon="0.982283">
        <ele>1090.6</ele>
        <time>1970-01-01T07:28:25.000Z</time>
      </trkpt>
      <trkpt lat="42.423505" lon="0.98244">
        <ele>1091.8</ele>
        <time>1970-01-01T07:28:40.000Z</time>
      </trkpt>
      <trkpt lat="42.423705" lon="0.982453">
        <ele>1092.8</ele>
        <time>1970-01-01T07:28:48.000Z</time>
      </trkpt>
      <trkpt lat="42.423909" lon="0.982453">
        <ele>1093.8</ele>
        <time>1970-01-01T07:28:57.000Z</time>
      </trkpt>
      <trkpt lat="42.423921" lon="0.982435">
        <ele>1094</ele>
        <time>1970-01-01T07:28:58.000Z</time>
      </trkpt>
      <trkpt lat="42.424001" lon="0.981922">
        <ele>1093.2</ele>
        <time>1970-01-01T07:29:10.000Z</time>
      </trkpt>
      <trkpt lat="42.424009" lon="0.981871">
        <ele>1093.2</ele>
        <time>1970-01-01T07:29:11.000Z</time>
      </trkpt>
      <trkpt lat="42.424034" lon="0.981748">
        <ele>1093.2</ele>
        <time>1970-01-01T07:29:14.000Z</time>
      </trkpt>
      <trkpt lat="42.424124" lon="0.981609">
        <ele>1094.2</ele>
        <time>1970-01-01T07:29:22.000Z</time>
      </trkpt>
      <trkpt lat="42.424195" lon="0.981573">
        <ele>1094.8</ele>
        <time>1970-01-01T07:29:33.000Z</time>
      </trkpt>
      <trkpt lat="42.424245" lon="0.981577">
        <ele>1095.4</ele>
        <time>1970-01-01T07:29:36.000Z</time>
      </trkpt>
      <trkpt lat="42.424263" lon="0.981586">
        <ele>1095.6</ele>
        <time>1970-01-01T07:29:37.000Z</time>
      </trkpt>
      <trkpt lat="42.424357" lon="0.981613">
        <ele>1096.4</ele>
        <time>1970-01-01T07:29:43.000Z</time>
      </trkpt>
      <trkpt lat="42.424451" lon="0.981653">
        <ele>1097.4</ele>
        <time>1970-01-01T07:29:49.000Z</time>
      </trkpt>
      <trkpt lat="42.424568" lon="0.981697">
        <ele>1098.6</ele>
        <time>1970-01-01T07:29:55.000Z</time>
      </trkpt>
      <trkpt lat="42.424668" lon="0.981733">
        <ele>1099.8</ele>
        <time>1970-01-01T07:30:00.000Z</time>
      </trkpt>
      <trkpt lat="42.424742" lon="0.981774">
        <ele>1100.8</ele>
        <time>1970-01-01T07:30:04.000Z</time>
      </trkpt>
      <trkpt lat="42.424796" lon="0.981802">
        <ele>1101.8</ele>
        <time>1970-01-01T07:30:08.000Z</time>
      </trkpt>
      <trkpt lat="42.424843" lon="0.981839">
        <ele>1103</ele>
        <time>1970-01-01T07:30:12.000Z</time>
      </trkpt>
      <trkpt lat="42.424897" lon="0.981845">
        <ele>1104</ele>
        <time>1970-01-01T07:30:16.000Z</time>
      </trkpt>
      <trkpt lat="42.424976" lon="0.981897">
        <ele>1105</ele>
        <time>1970-01-01T07:30:21.000Z</time>
      </trkpt>
      <trkpt lat="42.425074" lon="0.981989">
        <ele>1106</ele>
        <time>1970-01-01T07:30:26.000Z</time>
      </trkpt>
      <trkpt lat="42.425167" lon="0.982038">
        <ele>1107</ele>
        <time>1970-01-01T07:30:31.000Z</time>
      </trkpt>
      <trkpt lat="42.425262" lon="0.982066">
        <ele>1108</ele>
        <time>1970-01-01T07:30:37.000Z</time>
      </trkpt>
      <trkpt lat="42.42534" lon="0.982135">
        <ele>1109.2</ele>
        <time>1970-01-01T07:30:42.000Z</time>
      </trkpt>
      <trkpt lat="42.425515" lon="0.982339">
        <ele>1110</ele>
        <time>1970-01-01T07:30:55.000Z</time>
      </trkpt>
      <trkpt lat="42.425853" lon="0.982842">
        <ele>1110.6</ele>
        <time>1970-01-01T07:31:30.000Z</time>
      </trkpt>
      <trkpt lat="42.426264" lon="0.983248">
        <ele>1111.2</ele>
        <time>1970-01-01T07:31:47.000Z</time>
      </trkpt>
      <trkpt lat="42.426345" lon="0.983281">
        <ele>1112.2</ele>
        <time>1970-01-01T07:31:54.000Z</time>
      </trkpt>
      <trkpt lat="42.42634" lon="0.983244">
        <ele>1112.8</ele>
        <time>1970-01-01T07:31:56.000Z</time>
      </trkpt>
      <trkpt lat="42.426279" lon="0.983214">
        <ele>1113.2</ele>
        <time>1970-01-01T07:31:59.000Z</time>
      </trkpt>
      <trkpt lat="42.426255" lon="0.983208">
        <ele>1113.4</ele>
        <time>1970-01-01T07:32:00.000Z</time>
      </trkpt>
      <trkpt lat="42.425901" lon="0.982775">
        <ele>1113.4</ele>
        <time>1970-01-01T07:32:24.000Z</time>
      </trkpt>
      <trkpt lat="42.425935" lon="0.982557">
        <ele>1115.4</ele>
        <time>1970-01-01T07:35:45.000Z</time>
      </trkpt>
      <trkpt lat="42.426094" lon="0.982501">
        <ele>1115.6</ele>
        <time>1970-01-01T07:36:19.000Z</time>
      </trkpt>
      <trkpt lat="42.426084" lon="0.982499">
        <ele>1115.8</ele>
        <time>1970-01-01T07:36:23.000Z</time>
      </trkpt>
      <trkpt lat="42.426032" lon="0.982624">
        <ele>1115.4</ele>
        <time>1970-01-01T07:36:43.000Z</time>
      </trkpt>
      <trkpt lat="42.426052" lon="0.982679">
        <ele>1110.6</ele>
        <time>1970-01-01T08:19:06.000Z</time>
      </trkpt>
      <trkpt lat="42.426444" lon="0.983138">
        <ele>1110.6</ele>
        <time>1970-01-01T08:19:25.000Z</time>
      </trkpt>
      <trkpt lat="42.426268" lon="0.983127">
        <ele>1109.2</ele>
        <time>1970-01-01T08:19:30.000Z</time>
      </trkpt>
      <trkpt lat="42.426097" lon="0.982953">
        <ele>1108.6</ele>
        <time>1970-01-01T08:19:34.000Z</time>
      </trkpt>
      <trkpt lat="42.425983" lon="0.982744">
        <ele>1108.2</ele>
        <time>1970-01-01T08:19:38.000Z</time>
      </trkpt>
      <trkpt lat="42.425604" lon="0.982203">
        <ele>1107.8</ele>
        <time>1970-01-01T08:19:52.000Z</time>
      </trkpt>
      <trkpt lat="42.425431" lon="0.98204">
        <ele>1107.2</ele>
        <time>1970-01-01T08:19:57.000Z</time>
      </trkpt>
      <trkpt lat="42.425212" lon="0.981838">
        <ele>1106</ele>
        <time>1970-01-01T08:20:02.000Z</time>
      </trkpt>
      <trkpt lat="42.425162" lon="0.981806">
        <ele>1105.4</ele>
        <time>1970-01-01T08:20:03.000Z</time>
      </trkpt>
      <trkpt lat="42.425113" lon="0.981774">
        <ele>1104.8</ele>
        <time>1970-01-01T08:20:04.000Z</time>
      </trkpt>
      <trkpt lat="42.424997" lon="0.981701">
        <ele>1103.4</ele>
        <time>1970-01-01T08:20:06.000Z</time>
      </trkpt>
      <trkpt lat="42.424868" lon="0.981619">
        <ele>1101.8</ele>
        <time>1970-01-01T08:20:08.000Z</time>
      </trkpt>
      <trkpt lat="42.424728" lon="0.98155">
        <ele>1100</ele>
        <time>1970-01-01T08:20:10.000Z</time>
      </trkpt>
      <trkpt lat="42.424596" lon="0.981527">
        <ele>1098.2</ele>
        <time>1970-01-01T08:20:12.000Z</time>
      </trkpt>
      <trkpt lat="42.424424" lon="0.981537">
        <ele>1096.2</ele>
        <time>1970-01-01T08:20:14.000Z</time>
      </trkpt>
      <trkpt lat="42.424246" lon="0.981555">
        <ele>1094.6</ele>
        <time>1970-01-01T08:20:16.000Z</time>
      </trkpt>
      <trkpt lat="42.424118" lon="0.981625">
        <ele>1092.8</ele>
        <time>1970-01-01T08:20:18.000Z</time>
      </trkpt>
      <trkpt lat="42.42407" lon="0.981735">
        <ele>1091.8</ele>
        <time>1970-01-01T08:20:20.000Z</time>
      </trkpt>
      <trkpt lat="42.424032" lon="0.982059">
        <ele>1091.4</ele>
        <time>1970-01-01T08:20:23.000Z</time>
      </trkpt>
      <trkpt lat="42.424003" lon="0.98222">
        <ele>1091.4</ele>
        <time>1970-01-01T08:20:25.000Z</time>
      </trkpt>
      <trkpt lat="42.423937" lon="0.982429">
        <ele>1092</ele>
        <time>1970-01-01T08:20:30.000Z</time>
      </trkpt>
      <trkpt lat="42.423942" lon="0.982459">
        <ele>1092.2</ele>
        <time>1970-01-01T08:20:31.000Z</time>
      </trkpt>
      <trkpt lat="42.424078" lon="0.982566">
        <ele>1093</ele>
        <time>1970-01-01T08:20:38.000Z</time>
      </trkpt>
      <trkpt lat="42.424199" lon="0.982622">
        <ele>1094</ele>
        <time>1970-01-01T08:20:44.000Z</time>
      </trkpt>
      <trkpt lat="42.424414" lon="0.982652">
        <ele>1095.4</ele>
        <time>1970-01-01T08:20:53.000Z</time>
      </trkpt>
      <trkpt lat="42.424578" lon="0.98261">
        <ele>1096.4</ele>
        <time>1970-01-01T08:20:59.000Z</time>
      </trkpt>
      <trkpt lat="42.424813" lon="0.982579">
        <ele>1097.8</ele>
        <time>1970-01-01T08:21:08.000Z</time>
      </trkpt>
      <trkpt lat="42.425008" lon="0.982605">
        <ele>1098.6</ele>
        <time>1970-01-01T08:21:16.000Z</time>
      </trkpt>
      <trkpt lat="42.425044" lon="0.982626">
        <ele>1099</ele>
        <time>1970-01-01T08:21:18.000Z</time>
      </trkpt>
      <trkpt lat="42.425227" lon="0.982764">
        <ele>1100.2</ele>
        <time>1970-01-01T08:21:26.000Z</time>
      </trkpt>
      <trkpt lat="42.425385" lon="0.982919">
        <ele>1101.4</ele>
        <time>1970-01-01T08:21:33.000Z</time>
      </trkpt>
      <trkpt lat="42.425753" lon="0.983331">
        <ele>1102.8</ele>
        <time>1970-01-01T08:21:49.000Z</time>
      </trkpt>
      <trkpt lat="42.425999" lon="0.983581">
        <ele>1104</ele>
        <time>1970-01-01T08:21:59.000Z</time>
      </trkpt>
      <trkpt lat="42.426179" lon="0.983771">
        <ele>1105.4</ele>
        <time>1970-01-01T08:22:07.000Z</time>
      </trkpt>
      <trkpt lat="42.426347" lon="0.98394">
        <ele>1106.6</ele>
        <time>1970-01-01T08:22:15.000Z</time>
      </trkpt>
      <trkpt lat="42.426523" lon="0.984038">
        <ele>1108</ele>
        <time>1970-01-01T08:22:22.000Z</time>
      </trkpt>
      <trkpt lat="42.426768" lon="0.98409">
        <ele>1109.2</ele>
        <time>1970-01-01T08:22:31.000Z</time>
      </trkpt>
      <trkpt lat="42.426991" lon="0.984125">
        <ele>1110.4</ele>
        <time>1970-01-01T08:22:40.000Z</time>
      </trkpt>
      <trkpt lat="42.427226" lon="0.984227">
        <ele>1111.6</ele>
        <time>1970-01-01T08:22:50.000Z</time>
      </trkpt>
      <trkpt lat="42.427455" lon="0.984411">
        <ele>1113</ele>
        <time>1970-01-01T08:23:00.000Z</time>
      </trkpt>
      <trkpt lat="42.42767" lon="0.984611">
        <ele>1114</ele>
        <time>1970-01-01T08:23:10.000Z</time>
      </trkpt>
      <trkpt lat="42.427897" lon="0.984761">
        <ele>1115.2</ele>
        <time>1970-01-01T08:23:19.000Z</time>
      </trkpt>
      <trkpt lat="42.428078" lon="0.984846">
        <ele>1116.4</ele>
        <time>1970-01-01T08:23:26.000Z</time>
      </trkpt>
      <trkpt lat="42.428307" lon="0.984989">
        <ele>1117.6</ele>
        <time>1970-01-01T08:23:35.000Z</time>
      </trkpt>
      <trkpt lat="42.428524" lon="0.985165">
        <ele>1118.8</ele>
        <time>1970-01-01T08:23:44.000Z</time>
      </trkpt>
      <trkpt lat="42.428747" lon="0.985367">
        <ele>1120.2</ele>
        <time>1970-01-01T08:23:55.000Z</time>
      </trkpt>
      <trkpt lat="42.428927" lon="0.985511">
        <ele>1121.4</ele>
        <time>1970-01-01T08:24:03.000Z</time>
      </trkpt>
      <trkpt lat="42.429198" lon="0.985666">
        <ele>1122.6</ele>
        <time>1970-01-01T08:24:15.000Z</time>
      </trkpt>
      <trkpt lat="42.4294" lon="0.985759">
        <ele>1123.8</ele>
        <time>1970-01-01T08:24:24.000Z</time>
      </trkpt>
      <trkpt lat="42.429609" lon="0.985879">
        <ele>1124.8</ele>
        <time>1970-01-01T08:24:33.000Z</time>
      </trkpt>
      <trkpt lat="42.429836" lon="0.985998">
        <ele>1126</ele>
        <time>1970-01-01T08:24:43.000Z</time>
      </trkpt>
      <trkpt lat="42.429984" lon="0.986078">
        <ele>1127.4</ele>
        <time>1970-01-01T08:24:49.000Z</time>
      </trkpt>
      <trkpt lat="42.430146" lon="0.986182">
        <ele>1128.2</ele>
        <time>1970-01-01T08:24:56.000Z</time>
      </trkpt>
      <trkpt lat="42.430171" lon="0.986196">
        <ele>1128.6</ele>
        <time>1970-01-01T08:24:57.000Z</time>
      </trkpt>
      <trkpt lat="42.430322" lon="0.986278">
        <ele>1129.6</ele>
        <time>1970-01-01T08:25:03.000Z</time>
      </trkpt>
      <trkpt lat="42.430551" lon="0.986412">
        <ele>1130.8</ele>
        <time>1970-01-01T08:25:12.000Z</time>
      </trkpt>
      <trkpt lat="42.430676" lon="0.986492">
        <ele>1132</ele>
        <time>1970-01-01T08:25:17.000Z</time>
      </trkpt>
      <trkpt lat="42.430828" lon="0.986579">
        <ele>1133.2</ele>
        <time>1970-01-01T08:25:23.000Z</time>
      </trkpt>
      <trkpt lat="42.431083" lon="0.986671">
        <ele>1134.2</ele>
        <time>1970-01-01T08:25:32.000Z</time>
      </trkpt>
      <trkpt lat="42.431331" lon="0.986705">
        <ele>1135.6</ele>
        <time>1970-01-01T08:25:41.000Z</time>
      </trkpt>
      <trkpt lat="42.431558" lon="0.986728">
        <ele>1136.8</ele>
        <time>1970-01-01T08:25:49.000Z</time>
      </trkpt>
      <trkpt lat="42.431924" lon="0.986689">
        <ele>1138.2</ele>
        <time>1970-01-01T08:26:02.000Z</time>
      </trkpt>
      <trkpt lat="42.432099" lon="0.986569">
        <ele>1139.4</ele>
        <time>1970-01-01T08:26:09.000Z</time>
      </trkpt>
      <trkpt lat="42.432342" lon="0.986433">
        <ele>1140.4</ele>
        <time>1970-01-01T08:26:18.000Z</time>
      </trkpt>
      <trkpt lat="42.432572" lon="0.986359">
        <ele>1141.8</ele>
        <time>1970-01-01T08:26:26.000Z</time>
      </trkpt>
      <trkpt lat="42.432918" lon="0.98642">
        <ele>1143</ele>
        <time>1970-01-01T08:26:38.000Z</time>
      </trkpt>
      <trkpt lat="42.433201" lon="0.986542">
        <ele>1144.4</ele>
        <time>1970-01-01T08:26:48.000Z</time>
      </trkpt>
      <trkpt lat="42.433498" lon="0.986586">
        <ele>1145.6</ele>
        <time>1970-01-01T08:26:58.000Z</time>
      </trkpt>
      <trkpt lat="42.433791" lon="0.986577">
        <ele>1146.8</ele>
        <time>1970-01-01T08:27:08.000Z</time>
      </trkpt>
      <trkpt lat="42.434117" lon="0.98661">
        <ele>1148</ele>
        <time>1970-01-01T08:27:19.000Z</time>
      </trkpt>
      <trkpt lat="42.434388" lon="0.986698">
        <ele>1149.4</ele>
        <time>1970-01-01T08:27:29.000Z</time>
      </trkpt>
      <trkpt lat="42.434632" lon="0.986982">
        <ele>1150.6</ele>
        <time>1970-01-01T08:27:40.000Z</time>
      </trkpt>
      <trkpt lat="42.434797" lon="0.987255">
        <ele>1151.6</ele>
        <time>1970-01-01T08:27:48.000Z</time>
      </trkpt>
      <trkpt lat="42.435232" lon="0.987707">
        <ele>1152.8</ele>
        <time>1970-01-01T08:28:03.000Z</time>
      </trkpt>
      <trkpt lat="42.435267" lon="0.987728">
        <ele>1152.8</ele>
        <time>1970-01-01T08:28:04.000Z</time>
      </trkpt>
      <trkpt lat="42.43556" lon="0.987883">
        <ele>1154</ele>
        <time>1970-01-01T08:28:13.000Z</time>
      </trkpt>
      <trkpt lat="42.435818" lon="0.988041">
        <ele>1155.4</ele>
        <time>1970-01-01T08:28:22.000Z</time>
      </trkpt>
      <trkpt lat="42.435971" lon="0.988136">
        <ele>1156.4</ele>
        <time>1970-01-01T08:28:28.000Z</time>
      </trkpt>
      <trkpt lat="42.436145" lon="0.98824">
        <ele>1157.8</ele>
        <time>1970-01-01T08:28:35.000Z</time>
      </trkpt>
      <trkpt lat="42.436285" lon="0.988331">
        <ele>1158.8</ele>
        <time>1970-01-01T08:28:41.000Z</time>
      </trkpt>
      <trkpt lat="42.436395" lon="0.988418">
        <ele>1160</ele>
        <time>1970-01-01T08:28:46.000Z</time>
      </trkpt>
      <trkpt lat="42.436564" lon="0.988571">
        <ele>1161.2</ele>
        <time>1970-01-01T08:28:54.000Z</time>
      </trkpt>
      <trkpt lat="42.436669" lon="0.988664">
        <ele>1162.4</ele>
        <time>1970-01-01T08:28:59.000Z</time>
      </trkpt>
      <trkpt lat="42.436817" lon="0.988797">
        <ele>1163.4</ele>
        <time>1970-01-01T08:29:06.000Z</time>
      </trkpt>
      <trkpt lat="42.436972" lon="0.988933">
        <ele>1164.8</ele>
        <time>1970-01-01T08:29:13.000Z</time>
      </trkpt>
      <trkpt lat="42.437107" lon="0.989011">
        <ele>1165.8</ele>
        <time>1970-01-01T08:29:19.000Z</time>
      </trkpt>
      <trkpt lat="42.437211" lon="0.989033">
        <ele>1166.4</ele>
        <time>1970-01-01T08:29:23.000Z</time>
      </trkpt>
      <trkpt lat="42.437315" lon="0.989019">
        <ele>1167.2</ele>
        <time>1970-01-01T08:29:27.000Z</time>
      </trkpt>
      <trkpt lat="42.437501" lon="0.98896">
        <ele>1168.4</ele>
        <time>1970-01-01T08:29:34.000Z</time>
      </trkpt>
      <trkpt lat="42.437652" lon="0.988904">
        <ele>1169.6</ele>
        <time>1970-01-01T08:29:40.000Z</time>
      </trkpt>
      <trkpt lat="42.43778" lon="0.988864">
        <ele>1171</ele>
        <time>1970-01-01T08:29:45.000Z</time>
      </trkpt>
      <trkpt lat="42.43792" lon="0.988824">
        <ele>1172</ele>
        <time>1970-01-01T08:29:51.000Z</time>
      </trkpt>
      <trkpt lat="42.438077" lon="0.988765">
        <ele>1173</ele>
        <time>1970-01-01T08:29:58.000Z</time>
      </trkpt>
      <trkpt lat="42.438251" lon="0.988708">
        <ele>1174.4</ele>
        <time>1970-01-01T08:30:05.000Z</time>
      </trkpt>
      <trkpt lat="42.438816" lon="0.988557">
        <ele>1175.4</ele>
        <time>1970-01-01T08:30:25.000Z</time>
      </trkpt>
      <trkpt lat="42.439144" lon="0.988626">
        <ele>1175.8</ele>
        <time>1970-01-01T08:30:34.000Z</time>
      </trkpt>
      <trkpt lat="42.439415" lon="0.988872">
        <ele>1177</ele>
        <time>1970-01-01T08:30:44.000Z</time>
      </trkpt>
      <trkpt lat="42.439622" lon="0.989022">
        <ele>1178.2</ele>
        <time>1970-01-01T08:30:51.000Z</time>
      </trkpt>
      <trkpt lat="42.439799" lon="0.989058">
        <ele>1179.2</ele>
        <time>1970-01-01T08:30:57.000Z</time>
      </trkpt>
      <trkpt lat="42.439984" lon="0.989059">
        <ele>1180.6</ele>
        <time>1970-01-01T08:31:04.000Z</time>
      </trkpt>
      <trkpt lat="42.440143" lon="0.989052">
        <ele>1181.8</ele>
        <time>1970-01-01T08:31:10.000Z</time>
      </trkpt>
      <trkpt lat="42.440304" lon="0.989068">
        <ele>1183</ele>
        <time>1970-01-01T08:31:16.000Z</time>
      </trkpt>
      <trkpt lat="42.44048" lon="0.989061">
        <ele>1184</ele>
        <time>1970-01-01T08:31:23.000Z</time>
      </trkpt>
      <trkpt lat="42.440631" lon="0.989027">
        <ele>1185.4</ele>
        <time>1970-01-01T08:31:29.000Z</time>
      </trkpt>
      <trkpt lat="42.440768" lon="0.988968">
        <ele>1186.4</ele>
        <time>1970-01-01T08:31:35.000Z</time>
      </trkpt>
      <trkpt lat="42.440947" lon="0.988942">
        <ele>1187.6</ele>
        <time>1970-01-01T08:31:42.000Z</time>
      </trkpt>
      <trkpt lat="42.441079" lon="0.988934">
        <ele>1188.6</ele>
        <time>1970-01-01T08:31:47.000Z</time>
      </trkpt>
      <trkpt lat="42.441257" lon="0.988992">
        <ele>1190</ele>
        <time>1970-01-01T08:31:54.000Z</time>
      </trkpt>
      <trkpt lat="42.441434" lon="0.989076">
        <ele>1191.2</ele>
        <time>1970-01-01T08:32:01.000Z</time>
      </trkpt>
      <trkpt lat="42.441587" lon="0.989159">
        <ele>1192.2</ele>
        <time>1970-01-01T08:32:07.000Z</time>
      </trkpt>
      <trkpt lat="42.441718" lon="0.989227">
        <ele>1193.4</ele>
        <time>1970-01-01T08:32:12.000Z</time>
      </trkpt>
      <trkpt lat="42.441899" lon="0.989309">
        <ele>1194.6</ele>
        <time>1970-01-01T08:32:19.000Z</time>
      </trkpt>
      <trkpt lat="42.442149" lon="0.98932">
        <ele>1195.6</ele>
        <time>1970-01-01T08:32:28.000Z</time>
      </trkpt>
      <trkpt lat="42.442673" lon="0.989078">
        <ele>1196.8</ele>
        <time>1970-01-01T08:32:46.000Z</time>
      </trkpt>
      <trkpt lat="42.443127" lon="0.988681">
        <ele>1196.8</ele>
        <time>1970-01-01T08:33:01.000Z</time>
      </trkpt>
      <trkpt lat="42.443241" lon="0.988632">
        <ele>1197</ele>
        <time>1970-01-01T08:33:04.000Z</time>
      </trkpt>
      <trkpt lat="42.44365" lon="0.988696">
        <ele>1197.2</ele>
        <time>1970-01-01T08:33:15.000Z</time>
      </trkpt>
      <trkpt lat="42.444209" lon="0.988898">
        <ele>1197.2</ele>
        <time>1970-01-01T08:33:27.000Z</time>
      </trkpt>
      <trkpt lat="42.444433" lon="0.988942">
        <ele>1197.8</ele>
        <time>1970-01-01T08:33:32.000Z</time>
      </trkpt>
      <trkpt lat="42.444835" lon="0.988931">
        <ele>1199</ele>
        <time>1970-01-01T08:33:42.000Z</time>
      </trkpt>
      <trkpt lat="42.444999" lon="0.988999">
        <ele>1200.2</ele>
        <time>1970-01-01T08:33:47.000Z</time>
      </trkpt>
      <trkpt lat="42.445152" lon="0.989069">
        <ele>1201.6</ele>
        <time>1970-01-01T08:33:52.000Z</time>
      </trkpt>
      <trkpt lat="42.445363" lon="0.989205">
        <ele>1202.6</ele>
        <time>1970-01-01T08:33:59.000Z</time>
      </trkpt>
      <trkpt lat="42.445511" lon="0.989296">
        <ele>1203.8</ele>
        <time>1970-01-01T08:34:04.000Z</time>
      </trkpt>
      <trkpt lat="42.445684" lon="0.98941">
        <ele>1205</ele>
        <time>1970-01-01T08:34:10.000Z</time>
      </trkpt>
      <trkpt lat="42.445849" lon="0.989534">
        <ele>1206.2</ele>
        <time>1970-01-01T08:34:16.000Z</time>
      </trkpt>
      <trkpt lat="42.44629" lon="0.989673">
        <ele>1206.8</ele>
        <time>1970-01-01T08:34:28.000Z</time>
      </trkpt>
      <trkpt lat="42.446862" lon="0.989546">
        <ele>1207</ele>
        <time>1970-01-01T08:34:41.000Z</time>
      </trkpt>
      <trkpt lat="42.446909" lon="0.989536">
        <ele>1206.6</ele>
        <time>1970-01-01T08:34:42.000Z</time>
      </trkpt>
      <trkpt lat="42.447468" lon="0.989457">
        <ele>1206.8</ele>
        <time>1970-01-01T08:34:53.000Z</time>
      </trkpt>
      <trkpt lat="42.448037" lon="0.989479">
        <ele>1206.6</ele>
        <time>1970-01-01T08:35:04.000Z</time>
      </trkpt>
      <trkpt lat="42.44862" lon="0.989501">
        <ele>1206.8</ele>
        <time>1970-01-01T08:35:15.000Z</time>
      </trkpt>
      <trkpt lat="42.448969" lon="0.989466">
        <ele>1207.8</ele>
        <time>1970-01-01T08:35:22.000Z</time>
      </trkpt>
      <trkpt lat="42.449095" lon="0.989435">
        <ele>1208.2</ele>
        <time>1970-01-01T08:35:25.000Z</time>
      </trkpt>
      <trkpt lat="42.449327" lon="0.989379">
        <ele>1209.2</ele>
        <time>1970-01-01T08:35:31.000Z</time>
      </trkpt>
      <trkpt lat="42.449545" lon="0.989324">
        <ele>1210.6</ele>
        <time>1970-01-01T08:35:37.000Z</time>
      </trkpt>
      <trkpt lat="42.449811" lon="0.989252">
        <ele>1211.8</ele>
        <time>1970-01-01T08:35:45.000Z</time>
      </trkpt>
      <trkpt lat="42.450024" lon="0.989242">
        <ele>1213</ele>
        <time>1970-01-01T08:35:51.000Z</time>
      </trkpt>
      <trkpt lat="42.450218" lon="0.989304">
        <ele>1214</ele>
        <time>1970-01-01T08:35:57.000Z</time>
      </trkpt>
      <trkpt lat="42.450368" lon="0.989373">
        <ele>1215.4</ele>
        <time>1970-01-01T08:36:02.000Z</time>
      </trkpt>
      <trkpt lat="42.45051" lon="0.989444">
        <ele>1216.4</ele>
        <time>1970-01-01T08:36:07.000Z</time>
      </trkpt>
      <trkpt lat="42.450701" lon="0.989515">
        <ele>1217.6</ele>
        <time>1970-01-01T08:36:14.000Z</time>
      </trkpt>
      <trkpt lat="42.450728" lon="0.989523">
        <ele>1217.8</ele>
        <time>1970-01-01T08:36:15.000Z</time>
      </trkpt>
      <trkpt lat="42.450937" lon="0.989558">
        <ele>1218.8</ele>
        <time>1970-01-01T08:36:23.000Z</time>
      </trkpt>
      <trkpt lat="42.451044" lon="0.989562">
        <ele>1220</ele>
        <time>1970-01-01T08:36:27.000Z</time>
      </trkpt>
      <trkpt lat="42.451203" lon="0.989556">
        <ele>1221.4</ele>
        <time>1970-01-01T08:36:33.000Z</time>
      </trkpt>
      <trkpt lat="42.45145" lon="0.989517">
        <ele>1222.4</ele>
        <time>1970-01-01T08:36:42.000Z</time>
      </trkpt>
      <trkpt lat="42.45168" lon="0.989462">
        <ele>1223.6</ele>
        <time>1970-01-01T08:36:50.000Z</time>
      </trkpt>
      <trkpt lat="42.451936" lon="0.989418">
        <ele>1224.8</ele>
        <time>1970-01-01T08:36:59.000Z</time>
      </trkpt>
      <trkpt lat="42.452131" lon="0.989414">
        <ele>1226.2</ele>
        <time>1970-01-01T08:37:06.000Z</time>
      </trkpt>
      <trkpt lat="42.452405" lon="0.989355">
        <ele>1227.2</ele>
        <time>1970-01-01T08:37:16.000Z</time>
      </trkpt>
      <trkpt lat="42.452634" lon="0.98927">
        <ele>1228.2</ele>
        <time>1970-01-01T08:37:25.000Z</time>
      </trkpt>
      <trkpt lat="42.452841" lon="0.989192">
        <ele>1229.4</ele>
        <time>1970-01-01T08:37:33.000Z</time>
      </trkpt>
      <trkpt lat="42.453033" lon="0.98917">
        <ele>1230.6</ele>
        <time>1970-01-01T08:37:40.000Z</time>
      </trkpt>
      <trkpt lat="42.453176" lon="0.989185">
        <ele>1231.8</ele>
        <time>1970-01-01T08:37:45.000Z</time>
      </trkpt>
      <trkpt lat="42.453372" lon="0.989233">
        <ele>1233</ele>
        <time>1970-01-01T08:37:52.000Z</time>
      </trkpt>
      <trkpt lat="42.453565" lon="0.989275">
        <ele>1234.2</ele>
        <time>1970-01-01T08:37:59.000Z</time>
      </trkpt>
      <trkpt lat="42.453757" lon="0.989325">
        <ele>1235</ele>
        <time>1970-01-01T08:38:06.000Z</time>
      </trkpt>
      <trkpt lat="42.453886" lon="0.989362">
        <ele>1236.4</ele>
        <time>1970-01-01T08:38:11.000Z</time>
      </trkpt>
      <trkpt lat="42.454096" lon="0.989488">
        <ele>1237.4</ele>
        <time>1970-01-01T08:38:19.000Z</time>
      </trkpt>
      <trkpt lat="42.454264" lon="0.989675">
        <ele>1238.8</ele>
        <time>1970-01-01T08:38:27.000Z</time>
      </trkpt>
      <trkpt lat="42.454358" lon="0.989802">
        <ele>1240</ele>
        <time>1970-01-01T08:38:32.000Z</time>
      </trkpt>
      <trkpt lat="42.454469" lon="0.98994">
        <ele>1241.2</ele>
        <time>1970-01-01T08:38:38.000Z</time>
      </trkpt>
      <trkpt lat="42.454545" lon="0.990095">
        <ele>1242.4</ele>
        <time>1970-01-01T08:38:45.000Z</time>
      </trkpt>
      <trkpt lat="42.4546" lon="0.990246">
        <ele>1242.8</ele>
        <time>1970-01-01T08:38:53.000Z</time>
      </trkpt>
      <trkpt lat="42.454634" lon="0.990278">
        <ele>1243</ele>
        <time>1970-01-01T08:41:35.000Z</time>
      </trkpt>
      <trkpt lat="42.454893" lon="0.990488">
        <ele>1241.8</ele>
        <time>1970-01-01T08:41:43.000Z</time>
      </trkpt>
      <trkpt lat="42.454975" lon="0.990633">
        <ele>1240</ele>
        <time>1970-01-01T08:41:45.000Z</time>
      </trkpt>
      <trkpt lat="42.455009" lon="0.990823">
        <ele>1238.8</ele>
        <time>1970-01-01T08:41:47.000Z</time>
      </trkpt>
      <trkpt lat="42.455157" lon="0.991046">
        <ele>1239.4</ele>
        <time>1970-01-01T08:41:51.000Z</time>
      </trkpt>
      <trkpt lat="42.455229" lon="0.991085">
        <ele>1239.6</ele>
        <time>1970-01-01T08:41:53.000Z</time>
      </trkpt>
      <trkpt lat="42.455281" lon="0.991107">
        <ele>1240</ele>
        <time>1970-01-01T08:41:55.000Z</time>
      </trkpt>
      <trkpt lat="42.455796" lon="0.99136">
        <ele>1240.2</ele>
        <time>1970-01-01T08:42:15.000Z</time>
      </trkpt>
      <trkpt lat="42.456278" lon="0.991693">
        <ele>1241.4</ele>
        <time>1970-01-01T08:42:39.000Z</time>
      </trkpt>
      <trkpt lat="42.45648" lon="0.991828">
        <ele>1242.4</ele>
        <time>1970-01-01T08:42:50.000Z</time>
      </trkpt>
      <trkpt lat="42.456642" lon="0.991886">
        <ele>1243.6</ele>
        <time>1970-01-01T08:42:59.000Z</time>
      </trkpt>
      <trkpt lat="42.456921" lon="0.991884">
        <ele>1244.8</ele>
        <time>1970-01-01T08:43:12.000Z</time>
      </trkpt>
      <trkpt lat="42.457284" lon="0.991906">
        <ele>1246</ele>
        <time>1970-01-01T08:43:28.000Z</time>
      </trkpt>
      <trkpt lat="42.457412" lon="0.991894">
        <ele>1247</ele>
        <time>1970-01-01T08:43:34.000Z</time>
      </trkpt>
      <trkpt lat="42.457501" lon="0.991918">
        <ele>1248</ele>
        <time>1970-01-01T08:43:38.000Z</time>
      </trkpt>
      <trkpt lat="42.457589" lon="0.991965">
        <ele>1249</ele>
        <time>1970-01-01T08:43:42.000Z</time>
      </trkpt>
      <trkpt lat="42.457692" lon="0.992113">
        <ele>1250</ele>
        <time>1970-01-01T08:43:49.000Z</time>
      </trkpt>
      <trkpt lat="42.457755" lon="0.992186">
        <ele>1251.2</ele>
        <time>1970-01-01T08:43:54.000Z</time>
      </trkpt>
      <trkpt lat="42.457799" lon="0.992261">
        <ele>1252.4</ele>
        <time>1970-01-01T08:43:59.000Z</time>
      </trkpt>
      <trkpt lat="42.457832" lon="0.992296">
        <ele>1253.4</ele>
        <time>1970-01-01T08:44:02.000Z</time>
      </trkpt>
      <trkpt lat="42.457884" lon="0.992391">
        <ele>1254.6</ele>
        <time>1970-01-01T08:44:08.000Z</time>
      </trkpt>
      <trkpt lat="42.457934" lon="0.992461">
        <ele>1255.6</ele>
        <time>1970-01-01T08:44:13.000Z</time>
      </trkpt>
      <trkpt lat="42.458049" lon="0.992561">
        <ele>1256.6</ele>
        <time>1970-01-01T08:44:22.000Z</time>
      </trkpt>
      <trkpt lat="42.45846" lon="0.992633">
        <ele>1257.8</ele>
        <time>1970-01-01T08:44:43.000Z</time>
      </trkpt>
      <trkpt lat="42.458687" lon="0.992629">
        <ele>1258.8</ele>
        <time>1970-01-01T08:44:55.000Z</time>
      </trkpt>
      <trkpt lat="42.458896" lon="0.992574">
        <ele>1260</ele>
        <time>1970-01-01T08:45:06.000Z</time>
      </trkpt>
      <trkpt lat="42.459041" lon="0.992563">
        <ele>1261.2</ele>
        <time>1970-01-01T08:45:14.000Z</time>
      </trkpt>
      <trkpt lat="42.459114" lon="0.992622">
        <ele>1262.6</ele>
        <time>1970-01-01T08:45:19.000Z</time>
      </trkpt>
      <trkpt lat="42.459262" lon="0.992791">
        <ele>1263.8</ele>
        <time>1970-01-01T08:45:29.000Z</time>
      </trkpt>
      <trkpt lat="42.459406" lon="0.992765">
        <ele>1265</ele>
        <time>1970-01-01T08:45:37.000Z</time>
      </trkpt>
      <trkpt lat="42.459688" lon="0.992753">
        <ele>1266.2</ele>
        <time>1970-01-01T08:45:52.000Z</time>
      </trkpt>
      <trkpt lat="42.459966" lon="0.992749">
        <ele>1267.4</ele>
        <time>1970-01-01T08:46:05.000Z</time>
      </trkpt>
      <trkpt lat="42.460237" lon="0.992673">
        <ele>1268.6</ele>
        <time>1970-01-01T08:46:17.000Z</time>
      </trkpt>
      <trkpt lat="42.460423" lon="0.992628">
        <ele>1269.8</ele>
        <time>1970-01-01T08:46:26.000Z</time>
      </trkpt>
      <trkpt lat="42.460587" lon="0.992581">
        <ele>1270.8</ele>
        <time>1970-01-01T08:46:34.000Z</time>
      </trkpt>
      <trkpt lat="42.460776" lon="0.992486">
        <ele>1272</ele>
        <time>1970-01-01T08:46:43.000Z</time>
      </trkpt>
      <trkpt lat="42.460965" lon="0.992435">
        <ele>1273.2</ele>
        <time>1970-01-01T08:46:52.000Z</time>
      </trkpt>
      <trkpt lat="42.461125" lon="0.992439">
        <ele>1274.2</ele>
        <time>1970-01-01T08:47:00.000Z</time>
      </trkpt>
      <trkpt lat="42.461269" lon="0.992468">
        <ele>1275.4</ele>
        <time>1970-01-01T08:47:08.000Z</time>
      </trkpt>
      <trkpt lat="42.461423" lon="0.992508">
        <ele>1276.6</ele>
        <time>1970-01-01T08:47:16.000Z</time>
      </trkpt>
      <trkpt lat="42.461623" lon="0.992462">
        <ele>1277.8</ele>
        <time>1970-01-01T08:47:27.000Z</time>
      </trkpt>
      <trkpt lat="42.461764" lon="0.992425">
        <ele>1279</ele>
        <time>1970-01-01T08:47:34.000Z</time>
      </trkpt>
      <trkpt lat="42.461893" lon="0.992396">
        <ele>1280</ele>
        <time>1970-01-01T08:47:41.000Z</time>
      </trkpt>
      <trkpt lat="42.46203" lon="0.992393">
        <ele>1281.4</ele>
        <time>1970-01-01T08:47:50.000Z</time>
      </trkpt>
      <trkpt lat="42.462106" lon="0.992404">
        <ele>1282.4</ele>
        <time>1970-01-01T08:47:54.000Z</time>
      </trkpt>
      <trkpt lat="42.462227" lon="0.992451">
        <ele>1283.4</ele>
        <time>1970-01-01T08:48:00.000Z</time>
      </trkpt>
      <trkpt lat="42.462339" lon="0.99263">
        <ele>1284.4</ele>
        <time>1970-01-01T08:48:10.000Z</time>
      </trkpt>
      <trkpt lat="42.462315" lon="0.992691">
        <ele>1285</ele>
        <time>1970-01-01T08:48:13.000Z</time>
      </trkpt>
      <trkpt lat="42.462244" lon="0.992714">
        <ele>1285.8</ele>
        <time>1970-01-01T08:48:17.000Z</time>
      </trkpt>
      <trkpt lat="42.462138" lon="0.992684">
        <ele>1286.8</ele>
        <time>1970-01-01T08:48:23.000Z</time>
      </trkpt>
      <trkpt lat="42.462006" lon="0.992694">
        <ele>1288</ele>
        <time>1970-01-01T08:48:30.000Z</time>
      </trkpt>
      <trkpt lat="42.461738" lon="0.992838">
        <ele>1289.2</ele>
        <time>1970-01-01T08:48:44.000Z</time>
      </trkpt>
      <trkpt lat="42.461506" lon="0.992812">
        <ele>1290.2</ele>
        <time>1970-01-01T08:48:56.000Z</time>
      </trkpt>
      <trkpt lat="42.461358" lon="0.992811">
        <ele>1291.6</ele>
        <time>1970-01-01T08:49:04.000Z</time>
      </trkpt>
      <trkpt lat="42.461215" lon="0.992802">
        <ele>1293</ele>
        <time>1970-01-01T08:49:12.000Z</time>
      </trkpt>
      <trkpt lat="42.46111" lon="0.992815">
        <ele>1294.2</ele>
        <time>1970-01-01T08:49:18.000Z</time>
      </trkpt>
      <trkpt lat="42.460991" lon="0.992889">
        <ele>1295.4</ele>
        <time>1970-01-01T08:49:25.000Z</time>
      </trkpt>
      <trkpt lat="42.460904" lon="0.992985">
        <ele>1296.6</ele>
        <time>1970-01-01T08:49:31.000Z</time>
      </trkpt>
      <trkpt lat="42.460814" lon="0.993079">
        <ele>1297.6</ele>
        <time>1970-01-01T08:49:37.000Z</time>
      </trkpt>
      <trkpt lat="42.460745" lon="0.993181">
        <ele>1298.6</ele>
        <time>1970-01-01T08:49:43.000Z</time>
      </trkpt>
      <trkpt lat="42.460702" lon="0.993239">
        <ele>1299.8</ele>
        <time>1970-01-01T08:49:47.000Z</time>
      </trkpt>
      <trkpt lat="42.460628" lon="0.993298">
        <ele>1301</ele>
        <time>1970-01-01T08:49:52.000Z</time>
      </trkpt>
      <trkpt lat="42.460485" lon="0.993365">
        <ele>1302</ele>
        <time>1970-01-01T08:50:01.000Z</time>
      </trkpt>
      <trkpt lat="42.460325" lon="0.993429">
        <ele>1303.2</ele>
        <time>1970-01-01T08:50:12.000Z</time>
      </trkpt>
      <trkpt lat="42.460015" lon="0.993508">
        <ele>1304.4</ele>
        <time>1970-01-01T08:50:29.000Z</time>
      </trkpt>
      <trkpt lat="42.459866" lon="0.993588">
        <ele>1305.4</ele>
        <time>1970-01-01T08:50:39.000Z</time>
      </trkpt>
      <trkpt lat="42.459677" lon="0.993682">
        <ele>1306.6</ele>
        <time>1970-01-01T08:50:49.000Z</time>
      </trkpt>
      <trkpt lat="42.459591" lon="0.993713">
        <ele>1307.6</ele>
        <time>1970-01-01T08:50:54.000Z</time>
      </trkpt>
      <trkpt lat="42.459482" lon="0.993786">
        <ele>1308.6</ele>
        <time>1970-01-01T08:51:01.000Z</time>
      </trkpt>
      <trkpt lat="42.459394" lon="0.993819">
        <ele>1309.6</ele>
        <time>1970-01-01T08:51:06.000Z</time>
      </trkpt>
      <trkpt lat="42.459211" lon="0.993887">
        <ele>1310.8</ele>
        <time>1970-01-01T08:51:17.000Z</time>
      </trkpt>
      <trkpt lat="42.459069" lon="0.993982">
        <ele>1312</ele>
        <time>1970-01-01T08:51:25.000Z</time>
      </trkpt>
      <trkpt lat="42.458901" lon="0.993929">
        <ele>1313</ele>
        <time>1970-01-01T08:51:35.000Z</time>
      </trkpt>
      <trkpt lat="42.458792" lon="0.993926">
        <ele>1314.4</ele>
        <time>1970-01-01T08:51:41.000Z</time>
      </trkpt>
      <trkpt lat="42.458652" lon="0.993979">
        <ele>1315.4</ele>
        <time>1970-01-01T08:51:51.000Z</time>
      </trkpt>
      <trkpt lat="42.458596" lon="0.994027">
        <ele>1316.4</ele>
        <time>1970-01-01T08:51:56.000Z</time>
      </trkpt>
      <trkpt lat="42.458459" lon="0.994057">
        <ele>1317.4</ele>
        <time>1970-01-01T08:52:02.000Z</time>
      </trkpt>
      <trkpt lat="42.458339" lon="0.994066">
        <ele>1318.4</ele>
        <time>1970-01-01T08:52:08.000Z</time>
      </trkpt>
      <trkpt lat="42.458222" lon="0.99407">
        <ele>1319.4</ele>
        <time>1970-01-01T08:52:14.000Z</time>
      </trkpt>
      <trkpt lat="42.458075" lon="0.994051">
        <ele>1320.6</ele>
        <time>1970-01-01T08:52:22.000Z</time>
      </trkpt>
      <trkpt lat="42.457943" lon="0.994117">
        <ele>1321.8</ele>
        <time>1970-01-01T08:52:29.000Z</time>
      </trkpt>
      <trkpt lat="42.457857" lon="0.994179">
        <ele>1322.6</ele>
        <time>1970-01-01T08:52:35.000Z</time>
      </trkpt>
      <trkpt lat="42.45779" lon="0.994249">
        <ele>1323.6</ele>
        <time>1970-01-01T08:52:40.000Z</time>
      </trkpt>
      <trkpt lat="42.457738" lon="0.994322">
        <ele>1324.8</ele>
        <time>1970-01-01T08:52:45.000Z</time>
      </trkpt>
      <trkpt lat="42.457687" lon="0.994374">
        <ele>1326</ele>
        <time>1970-01-01T08:52:50.000Z</time>
      </trkpt>
      <trkpt lat="42.457613" lon="0.994383">
        <ele>1327</ele>
        <time>1970-01-01T08:52:55.000Z</time>
      </trkpt>
      <trkpt lat="42.457517" lon="0.994363">
        <ele>1328.2</ele>
        <time>1970-01-01T08:53:01.000Z</time>
      </trkpt>
      <trkpt lat="42.457421" lon="0.994324">
        <ele>1329.2</ele>
        <time>1970-01-01T08:53:08.000Z</time>
      </trkpt>
      <trkpt lat="42.457369" lon="0.994312">
        <ele>1330.2</ele>
        <time>1970-01-01T08:53:12.000Z</time>
      </trkpt>
      <trkpt lat="42.457299" lon="0.994314">
        <ele>1331.2</ele>
        <time>1970-01-01T08:53:17.000Z</time>
      </trkpt>
      <trkpt lat="42.457167" lon="0.994325">
        <ele>1332</ele>
        <time>1970-01-01T08:53:26.000Z</time>
      </trkpt>
      <trkpt lat="42.457069" lon="0.994333">
        <ele>1333.4</ele>
        <time>1970-01-01T08:53:34.000Z</time>
      </trkpt>
      <trkpt lat="42.456976" lon="0.994311">
        <ele>1334.4</ele>
        <time>1970-01-01T08:53:41.000Z</time>
      </trkpt>
      <trkpt lat="42.456813" lon="0.994312">
        <ele>1335.2</ele>
        <time>1970-01-01T08:53:51.000Z</time>
      </trkpt>
      <trkpt lat="42.456709" lon="0.994365">
        <ele>1336</ele>
        <time>1970-01-01T08:53:59.000Z</time>
      </trkpt>
      <trkpt lat="42.456608" lon="0.99446">
        <ele>1337.2</ele>
        <time>1970-01-01T08:54:06.000Z</time>
      </trkpt>
      <trkpt lat="42.456543" lon="0.994557">
        <ele>1338.4</ele>
        <time>1970-01-01T08:54:11.000Z</time>
      </trkpt>
      <trkpt lat="42.456468" lon="0.994631">
        <ele>1339.4</ele>
        <time>1970-01-01T08:54:17.000Z</time>
      </trkpt>
      <trkpt lat="42.456405" lon="0.994666">
        <ele>1340.2</ele>
        <time>1970-01-01T08:54:22.000Z</time>
      </trkpt>
      <trkpt lat="42.456392" lon="0.99468">
        <ele>1340.4</ele>
        <time>1970-01-01T08:54:23.000Z</time>
      </trkpt>
      <trkpt lat="42.45635" lon="0.994783">
        <ele>1341.4</ele>
        <time>1970-01-01T08:54:29.000Z</time>
      </trkpt>
      <trkpt lat="42.456394" lon="0.994863">
        <ele>1342.4</ele>
        <time>1970-01-01T08:54:34.000Z</time>
      </trkpt>
      <trkpt lat="42.456444" lon="0.99488">
        <ele>1343</ele>
        <time>1970-01-01T08:54:38.000Z</time>
      </trkpt>
      <trkpt lat="42.456477" lon="0.994865">
        <ele>1343.4</ele>
        <time>1970-01-01T08:54:40.000Z</time>
      </trkpt>
      <trkpt lat="42.456513" lon="0.994843">
        <ele>1344</ele>
        <time>1970-01-01T08:54:43.000Z</time>
      </trkpt>
      <trkpt lat="42.456568" lon="0.99481">
        <ele>1344.4</ele>
        <time>1970-01-01T08:54:47.000Z</time>
      </trkpt>
      <trkpt lat="42.456653" lon="0.99479">
        <ele>1345.4</ele>
        <time>1970-01-01T08:54:53.000Z</time>
      </trkpt>
      <trkpt lat="42.456768" lon="0.994831">
        <ele>1346.4</ele>
        <time>1970-01-01T08:55:01.000Z</time>
      </trkpt>
      <trkpt lat="42.456915" lon="0.994873">
        <ele>1347.4</ele>
        <time>1970-01-01T08:55:10.000Z</time>
      </trkpt>
      <trkpt lat="42.457025" lon="0.99482">
        <ele>1348.6</ele>
        <time>1970-01-01T08:55:18.000Z</time>
      </trkpt>
      <trkpt lat="42.457083" lon="0.994782">
        <ele>1349.2</ele>
        <time>1970-01-01T08:55:23.000Z</time>
      </trkpt>
      <trkpt lat="42.457134" lon="0.994776">
        <ele>1349.6</ele>
        <time>1970-01-01T08:55:26.000Z</time>
      </trkpt>
      <trkpt lat="42.457248" lon="0.994781">
        <ele>1350.8</ele>
        <time>1970-01-01T08:55:33.000Z</time>
      </trkpt>
      <trkpt lat="42.457402" lon="0.994857">
        <ele>1352</ele>
        <time>1970-01-01T08:55:42.000Z</time>
      </trkpt>
      <trkpt lat="42.457515" lon="0.995025">
        <ele>1353.2</ele>
        <time>1970-01-01T08:55:52.000Z</time>
      </trkpt>
      <trkpt lat="42.457572" lon="0.995163">
        <ele>1354.2</ele>
        <time>1970-01-01T08:55:59.000Z</time>
      </trkpt>
      <trkpt lat="42.457623" lon="0.995352">
        <ele>1355.4</ele>
        <time>1970-01-01T08:56:08.000Z</time>
      </trkpt>
      <trkpt lat="42.457681" lon="0.995419">
        <ele>1356.4</ele>
        <time>1970-01-01T08:56:13.000Z</time>
      </trkpt>
      <trkpt lat="42.457768" lon="0.995436">
        <ele>1357.4</ele>
        <time>1970-01-01T08:56:19.000Z</time>
      </trkpt>
      <trkpt lat="42.4579" lon="0.995355">
        <ele>1358.6</ele>
        <time>1970-01-01T08:56:28.000Z</time>
      </trkpt>
      <trkpt lat="42.457973" lon="0.99527">
        <ele>1359.8</ele>
        <time>1970-01-01T08:56:34.000Z</time>
      </trkpt>
      <trkpt lat="42.458038" lon="0.995187">
        <ele>1361</ele>
        <time>1970-01-01T08:56:40.000Z</time>
      </trkpt>
      <trkpt lat="42.458158" lon="0.995063">
        <ele>1362</ele>
        <time>1970-01-01T08:56:49.000Z</time>
      </trkpt>
      <trkpt lat="42.458309" lon="0.995023">
        <ele>1363</ele>
        <time>1970-01-01T08:56:58.000Z</time>
      </trkpt>
      <trkpt lat="42.458492" lon="0.995084">
        <ele>1364</ele>
        <time>1970-01-01T08:57:09.000Z</time>
      </trkpt>
      <trkpt lat="42.458611" lon="0.99507">
        <ele>1365.2</ele>
        <time>1970-01-01T08:57:17.000Z</time>
      </trkpt>
      <trkpt lat="42.45874" lon="0.99502">
        <ele>1366.4</ele>
        <time>1970-01-01T08:57:26.000Z</time>
      </trkpt>
      <trkpt lat="42.458839" lon="0.994966">
        <ele>1367.4</ele>
        <time>1970-01-01T08:57:33.000Z</time>
      </trkpt>
      <trkpt lat="42.458898" lon="0.994937">
        <ele>1368.6</ele>
        <time>1970-01-01T08:57:37.000Z</time>
      </trkpt>
      <trkpt lat="42.458962" lon="0.994915">
        <ele>1369.2</ele>
        <time>1970-01-01T08:57:41.000Z</time>
      </trkpt>
      <trkpt lat="42.459021" lon="0.994959">
        <ele>1369.8</ele>
        <time>1970-01-01T08:57:45.000Z</time>
      </trkpt>
      <trkpt lat="42.459012" lon="0.995079">
        <ele>1371</ele>
        <time>1970-01-01T08:57:51.000Z</time>
      </trkpt>
      <trkpt lat="42.4589" lon="0.995145">
        <ele>1371.8</ele>
        <time>1970-01-01T08:57:59.000Z</time>
      </trkpt>
      <trkpt lat="42.458863" lon="0.995165">
        <ele>1372</ele>
        <time>1970-01-01T08:58:01.000Z</time>
      </trkpt>
      <trkpt lat="42.458663" lon="0.995244">
        <ele>1373</ele>
        <time>1970-01-01T08:58:13.000Z</time>
      </trkpt>
      <trkpt lat="42.458475" lon="0.995311">
        <ele>1374.2</ele>
        <time>1970-01-01T08:58:25.000Z</time>
      </trkpt>
      <trkpt lat="42.458328" lon="0.99534">
        <ele>1375.4</ele>
        <time>1970-01-01T08:58:34.000Z</time>
      </trkpt>
      <trkpt lat="42.458155" lon="0.995468">
        <ele>1376.4</ele>
        <time>1970-01-01T08:58:45.000Z</time>
      </trkpt>
      <trkpt lat="42.458055" lon="0.995644">
        <ele>1377.6</ele>
        <time>1970-01-01T08:58:54.000Z</time>
      </trkpt>
      <trkpt lat="42.458007" lon="0.995776">
        <ele>1378.6</ele>
        <time>1970-01-01T08:59:00.000Z</time>
      </trkpt>
      <trkpt lat="42.457927" lon="0.995925">
        <ele>1379.6</ele>
        <time>1970-01-01T08:59:08.000Z</time>
      </trkpt>
      <trkpt lat="42.457849" lon="0.996047">
        <ele>1380.8</ele>
        <time>1970-01-01T08:59:15.000Z</time>
      </trkpt>
      <trkpt lat="42.457789" lon="0.996156">
        <ele>1381.8</ele>
        <time>1970-01-01T08:59:21.000Z</time>
      </trkpt>
      <trkpt lat="42.457711" lon="0.996299">
        <ele>1383</ele>
        <time>1970-01-01T08:59:29.000Z</time>
      </trkpt>
      <trkpt lat="42.457617" lon="0.996376">
        <ele>1384</ele>
        <time>1970-01-01T08:59:36.000Z</time>
      </trkpt>
      <trkpt lat="42.457523" lon="0.996406">
        <ele>1385.2</ele>
        <time>1970-01-01T08:59:43.000Z</time>
      </trkpt>
      <trkpt lat="42.457366" lon="0.996481">
        <ele>1386.2</ele>
        <time>1970-01-01T08:59:54.000Z</time>
      </trkpt>
      <trkpt lat="42.457237" lon="0.996578">
        <ele>1387.4</ele>
        <time>1970-01-01T09:00:04.000Z</time>
      </trkpt>
      <trkpt lat="42.457127" lon="0.996704">
        <ele>1388.6</ele>
        <time>1970-01-01T09:00:14.000Z</time>
      </trkpt>
      <trkpt lat="42.457155" lon="0.996787">
        <ele>1389.6</ele>
        <time>1970-01-01T09:00:18.000Z</time>
      </trkpt>
      <trkpt lat="42.457204" lon="0.996811">
        <ele>1390</ele>
        <time>1970-01-01T09:00:22.000Z</time>
      </trkpt>
      <trkpt lat="42.457249" lon="0.996822">
        <ele>1390.8</ele>
        <time>1970-01-01T09:00:25.000Z</time>
      </trkpt>
      <trkpt lat="42.457286" lon="0.996798">
        <ele>1391.4</ele>
        <time>1970-01-01T09:00:28.000Z</time>
      </trkpt>
      <trkpt lat="42.457341" lon="0.996756">
        <ele>1391.6</ele>
        <time>1970-01-01T09:00:33.000Z</time>
      </trkpt>
      <trkpt lat="42.457356" lon="0.996749">
        <ele>1391.8</ele>
        <time>1970-01-01T09:00:34.000Z</time>
      </trkpt>
      <trkpt lat="42.457457" lon="0.996707">
        <ele>1392.8</ele>
        <time>1970-01-01T09:00:42.000Z</time>
      </trkpt>
      <trkpt lat="42.457615" lon="0.996653">
        <ele>1394</ele>
        <time>1970-01-01T09:00:53.000Z</time>
      </trkpt>
      <trkpt lat="42.457764" lon="0.996644">
        <ele>1395</ele>
        <time>1970-01-01T09:01:01.000Z</time>
      </trkpt>
      <trkpt lat="42.457923" lon="0.996514">
        <ele>1396.2</ele>
        <time>1970-01-01T09:01:12.000Z</time>
      </trkpt>
      <trkpt lat="42.458074" lon="0.996245">
        <ele>1397.2</ele>
        <time>1970-01-01T09:01:25.000Z</time>
      </trkpt>
      <trkpt lat="42.458232" lon="0.995992">
        <ele>1398.2</ele>
        <time>1970-01-01T09:01:38.000Z</time>
      </trkpt>
      <trkpt lat="42.458295" lon="0.995996">
        <ele>1398.8</ele>
        <time>1970-01-01T09:01:42.000Z</time>
      </trkpt>
      <trkpt lat="42.458303" lon="0.996053">
        <ele>1399.4</ele>
        <time>1970-01-01T09:01:45.000Z</time>
      </trkpt>
      <trkpt lat="42.458287" lon="0.996089">
        <ele>1399.8</ele>
        <time>1970-01-01T09:01:47.000Z</time>
      </trkpt>
      <trkpt lat="42.458217" lon="0.996192">
        <ele>1400.6</ele>
        <time>1970-01-01T09:01:53.000Z</time>
      </trkpt>
      <trkpt lat="42.458184" lon="0.996241">
        <ele>1401</ele>
        <time>1970-01-01T09:01:59.000Z</time>
      </trkpt>
      <trkpt lat="42.458167" lon="0.99626">
        <ele>1401.4</ele>
        <time>1970-01-01T09:03:07.000Z</time>
      </trkpt>
      <trkpt lat="42.458118" lon="0.996355">
        <ele>1401.8</ele>
        <time>1970-01-01T09:03:12.000Z</time>
      </trkpt>
      <trkpt lat="42.458063" lon="0.996548">
        <ele>1403</ele>
        <time>1970-01-01T09:03:20.000Z</time>
      </trkpt>
      <trkpt lat="42.458011" lon="0.996683">
        <ele>1404</ele>
        <time>1970-01-01T09:03:26.000Z</time>
      </trkpt>
      <trkpt lat="42.457938" lon="0.996893">
        <ele>1405.2</ele>
        <time>1970-01-01T09:03:34.000Z</time>
      </trkpt>
      <trkpt lat="42.457865" lon="0.996997">
        <ele>1406.2</ele>
        <time>1970-01-01T09:03:40.000Z</time>
      </trkpt>
      <trkpt lat="42.457795" lon="0.997076">
        <ele>1407.4</ele>
        <time>1970-01-01T09:03:45.000Z</time>
      </trkpt>
      <trkpt lat="42.457729" lon="0.997211">
        <ele>1408.4</ele>
        <time>1970-01-01T09:03:52.000Z</time>
      </trkpt>
      <trkpt lat="42.457704" lon="0.997309">
        <ele>1409.2</ele>
        <time>1970-01-01T09:03:56.000Z</time>
      </trkpt>
      <trkpt lat="42.457698" lon="0.997352">
        <ele>1409.6</ele>
        <time>1970-01-01T09:03:58.000Z</time>
      </trkpt>
      <trkpt lat="42.457638" lon="0.997464">
        <ele>1411</ele>
        <time>1970-01-01T09:04:05.000Z</time>
      </trkpt>
      <trkpt lat="42.45755" lon="0.997563">
        <ele>1412</ele>
        <time>1970-01-01T09:04:12.000Z</time>
      </trkpt>
      <trkpt lat="42.457462" lon="0.997621">
        <ele>1413.2</ele>
        <time>1970-01-01T09:04:17.000Z</time>
      </trkpt>
      <trkpt lat="42.457242" lon="0.997857">
        <ele>1414.4</ele>
        <time>1970-01-01T09:04:31.000Z</time>
      </trkpt>
      <trkpt lat="42.457155" lon="0.997932">
        <ele>1415.4</ele>
        <time>1970-01-01T09:04:36.000Z</time>
      </trkpt>
      <trkpt lat="42.457019" lon="0.998023">
        <ele>1416.6</ele>
        <time>1970-01-01T09:04:44.000Z</time>
      </trkpt>
      <trkpt lat="42.457003" lon="0.998062">
        <ele>1417</ele>
        <time>1970-01-01T09:04:46.000Z</time>
      </trkpt>
      <trkpt lat="42.457018" lon="0.998127">
        <ele>1417.6</ele>
        <time>1970-01-01T09:04:49.000Z</time>
      </trkpt>
      <trkpt lat="42.457186" lon="0.998083">
        <ele>1418.6</ele>
        <time>1970-01-01T09:04:58.000Z</time>
      </trkpt>
      <trkpt lat="42.457206" lon="0.998069">
        <ele>1418.8</ele>
        <time>1970-01-01T09:04:59.000Z</time>
      </trkpt>
      <trkpt lat="42.457329" lon="0.997949">
        <ele>1419.8</ele>
        <time>1970-01-01T09:05:06.000Z</time>
      </trkpt>
      <trkpt lat="42.45746" lon="0.997885">
        <ele>1420.8</ele>
        <time>1970-01-01T09:05:14.000Z</time>
      </trkpt>
      <trkpt lat="42.457521" lon="0.997888">
        <ele>1422</ele>
        <time>1970-01-01T09:05:18.000Z</time>
      </trkpt>
      <trkpt lat="42.457618" lon="0.997897">
        <ele>1423.2</ele>
        <time>1970-01-01T09:05:24.000Z</time>
      </trkpt>
      <trkpt lat="42.457712" lon="0.997879">
        <ele>1424.2</ele>
        <time>1970-01-01T09:05:29.000Z</time>
      </trkpt>
      <trkpt lat="42.457815" lon="0.997803">
        <ele>1425.4</ele>
        <time>1970-01-01T09:05:35.000Z</time>
      </trkpt>
      <trkpt lat="42.457887" lon="0.997686">
        <ele>1426.4</ele>
        <time>1970-01-01T09:05:41.000Z</time>
      </trkpt>
      <trkpt lat="42.457939" lon="0.997551">
        <ele>1427.4</ele>
        <time>1970-01-01T09:05:48.000Z</time>
      </trkpt>
      <trkpt lat="42.458003" lon="0.997467">
        <ele>1428.2</ele>
        <time>1970-01-01T09:05:53.000Z</time>
      </trkpt>
      <trkpt lat="42.458182" lon="0.997313">
        <ele>1429.4</ele>
        <time>1970-01-01T09:06:03.000Z</time>
      </trkpt>
      <trkpt lat="42.458305" lon="0.997213">
        <ele>1430.6</ele>
        <time>1970-01-01T09:06:10.000Z</time>
      </trkpt>
      <trkpt lat="42.458384" lon="0.997073">
        <ele>1431.8</ele>
        <time>1970-01-01T09:06:17.000Z</time>
      </trkpt>
      <trkpt lat="42.458477" lon="0.996892">
        <ele>1432.8</ele>
        <time>1970-01-01T09:06:25.000Z</time>
      </trkpt>
      <trkpt lat="42.45858" lon="0.996729">
        <ele>1433.6</ele>
        <time>1970-01-01T09:06:33.000Z</time>
      </trkpt>
      <trkpt lat="42.45862" lon="0.996634">
        <ele>1434.4</ele>
        <time>1970-01-01T09:06:37.000Z</time>
      </trkpt>
      <trkpt lat="42.458656" lon="0.996618">
        <ele>1434.8</ele>
        <time>1970-01-01T09:06:39.000Z</time>
      </trkpt>
      <trkpt lat="42.458703" lon="0.996707">
        <ele>1436</ele>
        <time>1970-01-01T09:06:44.000Z</time>
      </trkpt>
      <trkpt lat="42.458637" lon="0.996813">
        <ele>1436.8</ele>
        <time>1970-01-01T09:06:49.000Z</time>
      </trkpt>
      <trkpt lat="42.458604" lon="0.996855">
        <ele>1437.2</ele>
        <time>1970-01-01T09:06:51.000Z</time>
      </trkpt>
      <trkpt lat="42.458539" lon="0.997004">
        <ele>1438.4</ele>
        <time>1970-01-01T09:06:57.000Z</time>
      </trkpt>
      <trkpt lat="42.4585" lon="0.997158">
        <ele>1439.4</ele>
        <time>1970-01-01T09:07:03.000Z</time>
      </trkpt>
      <trkpt lat="42.458452" lon="0.997349">
        <ele>1440.4</ele>
        <time>1970-01-01T09:07:10.000Z</time>
      </trkpt>
      <trkpt lat="42.45835" lon="0.997555">
        <ele>1441.4</ele>
        <time>1970-01-01T09:07:18.000Z</time>
      </trkpt>
      <trkpt lat="42.458235" lon="0.997714">
        <ele>1442.4</ele>
        <time>1970-01-01T09:07:26.000Z</time>
      </trkpt>
      <trkpt lat="42.458195" lon="0.997771">
        <ele>1443.6</ele>
        <time>1970-01-01T09:07:30.000Z</time>
      </trkpt>
      <trkpt lat="42.458152" lon="0.997965">
        <ele>1444.8</ele>
        <time>1970-01-01T09:07:38.000Z</time>
      </trkpt>
      <trkpt lat="42.458158" lon="0.998072">
        <ele>1445.8</ele>
        <time>1970-01-01T09:07:43.000Z</time>
      </trkpt>
      <trkpt lat="42.458155" lon="0.998095">
        <ele>1446</ele>
        <time>1970-01-01T09:07:44.000Z</time>
      </trkpt>
      <trkpt lat="42.458138" lon="0.998179">
        <ele>1446.4</ele>
        <time>1970-01-01T09:07:48.000Z</time>
      </trkpt>
      <trkpt lat="42.458096" lon="0.998263">
        <ele>1446.8</ele>
        <time>1970-01-01T09:07:53.000Z</time>
      </trkpt>
      <trkpt lat="42.458016" lon="0.998326">
        <ele>1448</ele>
        <time>1970-01-01T09:07:59.000Z</time>
      </trkpt>
      <trkpt lat="42.457923" lon="0.998394">
        <ele>1449</ele>
        <time>1970-01-01T09:08:06.000Z</time>
      </trkpt>
      <trkpt lat="42.45785" lon="0.99845">
        <ele>1450</ele>
        <time>1970-01-01T09:08:11.000Z</time>
      </trkpt>
      <trkpt lat="42.457835" lon="0.998462">
        <ele>1450.2</ele>
        <time>1970-01-01T09:08:12.000Z</time>
      </trkpt>
      <trkpt lat="42.457747" lon="0.998546">
        <ele>1451</ele>
        <time>1970-01-01T09:08:18.000Z</time>
      </trkpt>
      <trkpt lat="42.457659" lon="0.998668">
        <ele>1452.2</ele>
        <time>1970-01-01T09:08:26.000Z</time>
      </trkpt>
      <trkpt lat="42.457639" lon="0.998721">
        <ele>1452.6</ele>
        <time>1970-01-01T09:08:29.000Z</time>
      </trkpt>
      <trkpt lat="42.457607" lon="0.998869">
        <ele>1453.4</ele>
        <time>1970-01-01T09:08:36.000Z</time>
      </trkpt>
      <trkpt lat="42.457587" lon="0.998939">
        <ele>1453.8</ele>
        <time>1970-01-01T09:08:40.000Z</time>
      </trkpt>
      <trkpt lat="42.457558" lon="0.999011">
        <ele>1454.4</ele>
        <time>1970-01-01T09:08:44.000Z</time>
      </trkpt>
      <trkpt lat="42.45754" lon="0.99906">
        <ele>1454.8</ele>
        <time>1970-01-01T09:08:47.000Z</time>
      </trkpt>
      <trkpt lat="42.457502" lon="0.999165">
        <ele>1455.6</ele>
        <time>1970-01-01T09:08:53.000Z</time>
      </trkpt>
      <trkpt lat="42.457464" lon="0.999295">
        <ele>1456.4</ele>
        <time>1970-01-01T09:09:01.000Z</time>
      </trkpt>
      <trkpt lat="42.457442" lon="0.999315">
        <ele>1456.6</ele>
        <time>1970-01-01T09:09:03.000Z</time>
      </trkpt>
      <trkpt lat="42.45743" lon="0.999329">
        <ele>1456.6</ele>
        <time>1970-01-01T09:09:06.000Z</time>
      </trkpt>
      <trkpt lat="42.457372" lon="0.99946">
        <ele>1458</ele>
        <time>1970-01-01T09:10:49.000Z</time>
      </trkpt>
      <trkpt lat="42.45729" lon="0.999604">
        <ele>1459</ele>
        <time>1970-01-01T09:10:56.000Z</time>
      </trkpt>
      <trkpt lat="42.457296" lon="0.999746">
        <ele>1460</ele>
        <time>1970-01-01T09:11:01.000Z</time>
      </trkpt>
      <trkpt lat="42.457378" lon="0.999701">
        <ele>1460.8</ele>
        <time>1970-01-01T09:11:06.000Z</time>
      </trkpt>
      <trkpt lat="42.457396" lon="0.99968">
        <ele>1461.2</ele>
        <time>1970-01-01T09:11:07.000Z</time>
      </trkpt>
      <trkpt lat="42.45755" lon="0.999494">
        <ele>1462.2</ele>
        <time>1970-01-01T09:11:16.000Z</time>
      </trkpt>
      <trkpt lat="42.457732" lon="0.999327">
        <ele>1463.2</ele>
        <time>1970-01-01T09:11:25.000Z</time>
      </trkpt>
      <trkpt lat="42.457839" lon="0.999189">
        <ele>1464.4</ele>
        <time>1970-01-01T09:11:31.000Z</time>
      </trkpt>
      <trkpt lat="42.457957" lon="0.99895">
        <ele>1465.4</ele>
        <time>1970-01-01T09:11:40.000Z</time>
      </trkpt>
      <trkpt lat="42.458011" lon="0.998857">
        <ele>1466.4</ele>
        <time>1970-01-01T09:11:44.000Z</time>
      </trkpt>
      <trkpt lat="42.458078" lon="0.998767">
        <ele>1467.6</ele>
        <time>1970-01-01T09:11:49.000Z</time>
      </trkpt>
      <trkpt lat="42.458141" lon="0.99871">
        <ele>1468.8</ele>
        <time>1970-01-01T09:11:53.000Z</time>
      </trkpt>
      <trkpt lat="42.458258" lon="0.998637">
        <ele>1470</ele>
        <time>1970-01-01T09:12:00.000Z</time>
      </trkpt>
      <trkpt lat="42.458334" lon="0.998605">
        <ele>1471</ele>
        <time>1970-01-01T09:12:04.000Z</time>
      </trkpt>
      <trkpt lat="42.458456" lon="0.998548">
        <ele>1472.2</ele>
        <time>1970-01-01T09:12:11.000Z</time>
      </trkpt>
      <trkpt lat="42.458522" lon="0.998478">
        <ele>1472.8</ele>
        <time>1970-01-01T09:12:15.000Z</time>
      </trkpt>
      <trkpt lat="42.458548" lon="0.998359">
        <ele>1473.4</ele>
        <time>1970-01-01T09:12:19.000Z</time>
      </trkpt>
      <trkpt lat="42.458566" lon="0.998293">
        <ele>1473.6</ele>
        <time>1970-01-01T09:12:21.000Z</time>
      </trkpt>
      <trkpt lat="42.458639" lon="0.998148">
        <ele>1474.4</ele>
        <time>1970-01-01T09:12:26.000Z</time>
      </trkpt>
      <trkpt lat="42.458832" lon="0.997878">
        <ele>1475.6</ele>
        <time>1970-01-01T09:12:37.000Z</time>
      </trkpt>
      <trkpt lat="42.45894" lon="0.997659">
        <ele>1476.4</ele>
        <time>1970-01-01T09:12:45.000Z</time>
      </trkpt>
      <trkpt lat="42.459003" lon="0.997553">
        <ele>1477.6</ele>
        <time>1970-01-01T09:12:50.000Z</time>
      </trkpt>
      <trkpt lat="42.459051" lon="0.997482">
        <ele>1478.8</ele>
        <time>1970-01-01T09:12:54.000Z</time>
      </trkpt>
      <trkpt lat="42.459118" lon="0.997392">
        <ele>1480</ele>
        <time>1970-01-01T09:13:00.000Z</time>
      </trkpt>
      <trkpt lat="42.459135" lon="0.997392">
        <ele>1480.6</ele>
        <time>1970-01-01T09:13:01.000Z</time>
      </trkpt>
      <trkpt lat="42.459179" lon="0.997431">
        <ele>1481.2</ele>
        <time>1970-01-01T09:13:04.000Z</time>
      </trkpt>
      <trkpt lat="42.45913" lon="0.997569">
        <ele>1482.2</ele>
        <time>1970-01-01T09:13:10.000Z</time>
      </trkpt>
      <trkpt lat="42.459006" lon="0.997772">
        <ele>1483.2</ele>
        <time>1970-01-01T09:13:19.000Z</time>
      </trkpt>
      <trkpt lat="42.458949" lon="0.997949">
        <ele>1484.6</ele>
        <time>1970-01-01T09:13:27.000Z</time>
      </trkpt>
      <trkpt lat="42.458919" lon="0.998064">
        <ele>1485.6</ele>
        <time>1970-01-01T09:13:32.000Z</time>
      </trkpt>
      <trkpt lat="42.458855" lon="0.998213">
        <ele>1486.6</ele>
        <time>1970-01-01T09:13:39.000Z</time>
      </trkpt>
      <trkpt lat="42.458824" lon="0.998285">
        <ele>1487.8</ele>
        <time>1970-01-01T09:13:43.000Z</time>
      </trkpt>
      <trkpt lat="42.458794" lon="0.99839">
        <ele>1489</ele>
        <time>1970-01-01T09:13:48.000Z</time>
      </trkpt>
      <trkpt lat="42.45878" lon="0.998488">
        <ele>1490.2</ele>
        <time>1970-01-01T09:13:53.000Z</time>
      </trkpt>
      <trkpt lat="42.458786" lon="0.998599">
        <ele>1491.2</ele>
        <time>1970-01-01T09:13:58.000Z</time>
      </trkpt>
      <trkpt lat="42.45879" lon="0.998659">
        <ele>1491.8</ele>
        <time>1970-01-01T09:14:01.000Z</time>
      </trkpt>
      <trkpt lat="42.45878" lon="0.998703">
        <ele>1492.4</ele>
        <time>1970-01-01T09:14:03.000Z</time>
      </trkpt>
      <trkpt lat="42.4587" lon="0.998855">
        <ele>1493.4</ele>
        <time>1970-01-01T09:14:11.000Z</time>
      </trkpt>
      <trkpt lat="42.45866" lon="0.998889">
        <ele>1494</ele>
        <time>1970-01-01T09:14:14.000Z</time>
      </trkpt>
      <trkpt lat="42.458639" lon="0.998916">
        <ele>1494.6</ele>
        <time>1970-01-01T09:14:16.000Z</time>
      </trkpt>
      <trkpt lat="42.458582" lon="0.998972">
        <ele>1495.6</ele>
        <time>1970-01-01T09:14:21.000Z</time>
      </trkpt>
      <trkpt lat="42.458552" lon="0.999027">
        <ele>1496.6</ele>
        <time>1970-01-01T09:14:25.000Z</time>
      </trkpt>
      <trkpt lat="42.458497" lon="0.999124">
        <ele>1497.8</ele>
        <time>1970-01-01T09:14:31.000Z</time>
      </trkpt>
      <trkpt lat="42.458444" lon="0.999212">
        <ele>1498.8</ele>
        <time>1970-01-01T09:14:36.000Z</time>
      </trkpt>
      <trkpt lat="42.458414" lon="0.999297">
        <ele>1500.2</ele>
        <time>1970-01-01T09:14:40.000Z</time>
      </trkpt>
      <trkpt lat="42.458409" lon="0.999411">
        <ele>1501.2</ele>
        <time>1970-01-01T09:14:45.000Z</time>
      </trkpt>
      <trkpt lat="42.458422" lon="0.999541">
        <ele>1502.2</ele>
        <time>1970-01-01T09:14:51.000Z</time>
      </trkpt>
      <trkpt lat="42.458438" lon="0.999794">
        <ele>1503.4</ele>
        <time>1970-01-01T09:15:02.000Z</time>
      </trkpt>
      <trkpt lat="42.458427" lon="0.999845">
        <ele>1503.8</ele>
        <time>1970-01-01T09:15:05.000Z</time>
      </trkpt>
      <trkpt lat="42.458428" lon="0.99988">
        <ele>1504.4</ele>
        <time>1970-01-01T09:15:07.000Z</time>
      </trkpt>
      <trkpt lat="42.458398" lon="0.999959">
        <ele>1505.4</ele>
        <time>1970-01-01T09:15:12.000Z</time>
      </trkpt>
      <trkpt lat="42.458354" lon="1.00004">
        <ele>1506.4</ele>
        <time>1970-01-01T09:15:16.000Z</time>
      </trkpt>
      <trkpt lat="42.458274" lon="1.000153">
        <ele>1507.6</ele>
        <time>1970-01-01T09:15:21.000Z</time>
      </trkpt>
      <trkpt lat="42.458151" lon="1.00039">
        <ele>1508.4</ele>
        <time>1970-01-01T09:15:31.000Z</time>
      </trkpt>
      <trkpt lat="42.458128" lon="1.000596">
        <ele>1509.6</ele>
        <time>1970-01-01T09:15:40.000Z</time>
      </trkpt>
      <trkpt lat="42.458093" lon="1.000748">
        <ele>1510.8</ele>
        <time>1970-01-01T09:15:47.000Z</time>
      </trkpt>
      <trkpt lat="42.458007" lon="1.00105">
        <ele>1511.8</ele>
        <time>1970-01-01T09:15:59.000Z</time>
      </trkpt>
      <trkpt lat="42.457785" lon="1.001362">
        <ele>1512.6</ele>
        <time>1970-01-01T09:16:13.000Z</time>
      </trkpt>
      <trkpt lat="42.457731" lon="1.001529">
        <ele>1512.8</ele>
        <time>1970-01-01T09:16:19.000Z</time>
      </trkpt>
      <trkpt lat="42.457687" lon="1.001765">
        <ele>1513.8</ele>
        <time>1970-01-01T09:16:27.000Z</time>
      </trkpt>
      <trkpt lat="42.457634" lon="1.001916">
        <ele>1514.6</ele>
        <time>1970-01-01T09:16:33.000Z</time>
      </trkpt>
      <trkpt lat="42.457551" lon="1.002036">
        <ele>1515.6</ele>
        <time>1970-01-01T09:16:40.000Z</time>
      </trkpt>
      <trkpt lat="42.457449" lon="1.002121">
        <ele>1516.8</ele>
        <time>1970-01-01T09:16:46.000Z</time>
      </trkpt>
      <trkpt lat="42.457376" lon="1.002208">
        <ele>1517.6</ele>
        <time>1970-01-01T09:16:53.000Z</time>
      </trkpt>
      <trkpt lat="42.45731" lon="1.002273">
        <ele>1518.6</ele>
        <time>1970-01-01T09:16:58.000Z</time>
      </trkpt>
      <trkpt lat="42.457237" lon="1.002318">
        <ele>1519.6</ele>
        <time>1970-01-01T09:17:04.000Z</time>
      </trkpt>
      <trkpt lat="42.457167" lon="1.002379">
        <ele>1521</ele>
        <time>1970-01-01T09:17:10.000Z</time>
      </trkpt>
      <trkpt lat="42.457112" lon="1.002447">
        <ele>1522.2</ele>
        <time>1970-01-01T09:17:15.000Z</time>
      </trkpt>
      <trkpt lat="42.457068" lon="1.002551">
        <ele>1523</ele>
        <time>1970-01-01T09:17:20.000Z</time>
      </trkpt>
      <trkpt lat="42.457049" lon="1.002721">
        <ele>1524</ele>
        <time>1970-01-01T09:17:28.000Z</time>
      </trkpt>
      <trkpt lat="42.457066" lon="1.002803">
        <ele>1525</ele>
        <time>1970-01-01T09:17:33.000Z</time>
      </trkpt>
      <trkpt lat="42.457065" lon="1.00282">
        <ele>1525.2</ele>
        <time>1970-01-01T09:17:34.000Z</time>
      </trkpt>
      <trkpt lat="42.457075" lon="1.002929">
        <ele>1526.2</ele>
        <time>1970-01-01T09:17:41.000Z</time>
      </trkpt>
      <trkpt lat="42.457077" lon="1.002993">
        <ele>1527.4</ele>
        <time>1970-01-01T09:17:45.000Z</time>
      </trkpt>
      <trkpt lat="42.457092" lon="1.003079">
        <ele>1528.4</ele>
        <time>1970-01-01T09:17:51.000Z</time>
      </trkpt>
      <trkpt lat="42.457087" lon="1.003154">
        <ele>1529.4</ele>
        <time>1970-01-01T09:17:56.000Z</time>
      </trkpt>
      <trkpt lat="42.457064" lon="1.003233">
        <ele>1530.4</ele>
        <time>1970-01-01T09:18:01.000Z</time>
      </trkpt>
      <trkpt lat="42.457052" lon="1.003287">
        <ele>1531</ele>
        <time>1970-01-01T09:18:04.000Z</time>
      </trkpt>
      <trkpt lat="42.457039" lon="1.003365">
        <ele>1531.6</ele>
        <time>1970-01-01T09:18:08.000Z</time>
      </trkpt>
      <trkpt lat="42.457012" lon="1.003449">
        <ele>1532.6</ele>
        <time>1970-01-01T09:18:14.000Z</time>
      </trkpt>
      <trkpt lat="42.456999" lon="1.003574">
        <ele>1533.8</ele>
        <time>1970-01-01T09:18:22.000Z</time>
      </trkpt>
      <trkpt lat="42.456889" lon="1.003602">
        <ele>1534.4</ele>
        <time>1970-01-01T09:18:30.000Z</time>
      </trkpt>
      <trkpt lat="42.456859" lon="1.003582">
        <ele>1534.8</ele>
        <time>1970-01-01T09:18:32.000Z</time>
      </trkpt>
      <trkpt lat="42.45676" lon="1.003489">
        <ele>1535.8</ele>
        <time>1970-01-01T09:18:40.000Z</time>
      </trkpt>
      <trkpt lat="42.456732" lon="1.003452">
        <ele>1536.8</ele>
        <time>1970-01-01T09:18:43.000Z</time>
      </trkpt>
      <trkpt lat="42.456723" lon="1.003438">
        <ele>1536.8</ele>
        <time>1970-01-01T09:18:44.000Z</time>
      </trkpt>
      <trkpt lat="42.456669" lon="1.003328">
        <ele>1537.8</ele>
        <time>1970-01-01T09:18:50.000Z</time>
      </trkpt>
      <trkpt lat="42.45666" lon="1.003309">
        <ele>1538</ele>
        <time>1970-01-01T09:18:51.000Z</time>
      </trkpt>
      <trkpt lat="42.456598" lon="1.003201">
        <ele>1539</ele>
        <time>1970-01-01T09:18:57.000Z</time>
      </trkpt>
      <trkpt lat="42.456512" lon="1.003083">
        <ele>1540</ele>
        <time>1970-01-01T09:19:04.000Z</time>
      </trkpt>
      <trkpt lat="42.456398" lon="1.003029">
        <ele>1541.2</ele>
        <time>1970-01-01T09:19:11.000Z</time>
      </trkpt>
      <trkpt lat="42.456282" lon="1.003059">
        <ele>1542.2</ele>
        <time>1970-01-01T09:19:18.000Z</time>
      </trkpt>
      <trkpt lat="42.456231" lon="1.003264">
        <ele>1543.4</ele>
        <time>1970-01-01T09:19:27.000Z</time>
      </trkpt>
      <trkpt lat="42.456234" lon="1.003377">
        <ele>1544.6</ele>
        <time>1970-01-01T09:19:32.000Z</time>
      </trkpt>
      <trkpt lat="42.45623" lon="1.003455">
        <ele>1545.6</ele>
        <time>1970-01-01T09:19:36.000Z</time>
      </trkpt>
      <trkpt lat="42.4562" lon="1.003568">
        <ele>1546.8</ele>
        <time>1970-01-01T09:19:42.000Z</time>
      </trkpt>
      <trkpt lat="42.456161" lon="1.003653">
        <ele>1548</ele>
        <time>1970-01-01T09:19:46.000Z</time>
      </trkpt>
      <trkpt lat="42.456109" lon="1.003711">
        <ele>1549.2</ele>
        <time>1970-01-01T09:19:51.000Z</time>
      </trkpt>
      <trkpt lat="42.456057" lon="1.003765">
        <ele>1550.4</ele>
        <time>1970-01-01T09:19:56.000Z</time>
      </trkpt>
      <trkpt lat="42.456" lon="1.003832">
        <ele>1551.4</ele>
        <time>1970-01-01T09:20:01.000Z</time>
      </trkpt>
      <trkpt lat="42.456017" lon="1.00391">
        <ele>1552.6</ele>
        <time>1970-01-01T09:20:06.000Z</time>
      </trkpt>
      <trkpt lat="42.456046" lon="1.003923">
        <ele>1553.2</ele>
        <time>1970-01-01T09:20:08.000Z</time>
      </trkpt>
      <trkpt lat="42.456086" lon="1.003924">
        <ele>1554</ele>
        <time>1970-01-01T09:20:11.000Z</time>
      </trkpt>
      <trkpt lat="42.456151" lon="1.003872">
        <ele>1555</ele>
        <time>1970-01-01T09:20:16.000Z</time>
      </trkpt>
      <trkpt lat="42.456163" lon="1.003854">
        <ele>1555.2</ele>
        <time>1970-01-01T09:20:19.000Z</time>
      </trkpt>
      <trkpt lat="42.456206" lon="1.003827">
        <ele>1555.4</ele>
        <time>1970-01-01T09:21:21.000Z</time>
      </trkpt>
      <trkpt lat="42.456283" lon="1.003737">
        <ele>1556.2</ele>
        <time>1970-01-01T09:21:27.000Z</time>
      </trkpt>
      <trkpt lat="42.456376" lon="1.003658">
        <ele>1557.2</ele>
        <time>1970-01-01T09:21:34.000Z</time>
      </trkpt>
      <trkpt lat="42.456429" lon="1.003657">
        <ele>1557.6</ele>
        <time>1970-01-01T09:21:37.000Z</time>
      </trkpt>
      <trkpt lat="42.456453" lon="1.003755">
        <ele>1558.6</ele>
        <time>1970-01-01T09:21:42.000Z</time>
      </trkpt>
      <trkpt lat="42.456421" lon="1.003837">
        <ele>1559.4</ele>
        <time>1970-01-01T09:21:46.000Z</time>
      </trkpt>
      <trkpt lat="42.456397" lon="1.003864">
        <ele>1559.6</ele>
        <time>1970-01-01T09:21:48.000Z</time>
      </trkpt>
      <trkpt lat="42.456301" lon="1.003963">
        <ele>1560.8</ele>
        <time>1970-01-01T09:21:55.000Z</time>
      </trkpt>
      <trkpt lat="42.456199" lon="1.004148">
        <ele>1561.8</ele>
        <time>1970-01-01T09:22:03.000Z</time>
      </trkpt>
      <trkpt lat="42.456191" lon="1.004257">
        <ele>1562.6</ele>
        <time>1970-01-01T09:22:07.000Z</time>
      </trkpt>
      <trkpt lat="42.456199" lon="1.004285">
        <ele>1562.8</ele>
        <time>1970-01-01T09:22:08.000Z</time>
      </trkpt>
      <trkpt lat="42.456312" lon="1.004381">
        <ele>1564</ele>
        <time>1970-01-01T09:22:15.000Z</time>
      </trkpt>
      <trkpt lat="42.456391" lon="1.004282">
        <ele>1565</ele>
        <time>1970-01-01T09:22:21.000Z</time>
      </trkpt>
      <trkpt lat="42.456403" lon="1.004238">
        <ele>1565.6</ele>
        <time>1970-01-01T09:22:23.000Z</time>
      </trkpt>
      <trkpt lat="42.456419" lon="1.004196">
        <ele>1566.2</ele>
        <time>1970-01-01T09:22:25.000Z</time>
      </trkpt>
      <trkpt lat="42.45647" lon="1.004109">
        <ele>1567.4</ele>
        <time>1970-01-01T09:22:30.000Z</time>
      </trkpt>
      <trkpt lat="42.456576" lon="1.004055">
        <ele>1568.4</ele>
        <time>1970-01-01T09:22:37.000Z</time>
      </trkpt>
      <trkpt lat="42.456646" lon="1.004092">
        <ele>1569.6</ele>
        <time>1970-01-01T09:22:42.000Z</time>
      </trkpt>
      <trkpt lat="42.456695" lon="1.004161">
        <ele>1570.6</ele>
        <time>1970-01-01T09:22:47.000Z</time>
      </trkpt>
      <trkpt lat="42.456744" lon="1.004254">
        <ele>1571.8</ele>
        <time>1970-01-01T09:22:53.000Z</time>
      </trkpt>
      <trkpt lat="42.456791" lon="1.004365">
        <ele>1573</ele>
        <time>1970-01-01T09:23:00.000Z</time>
      </trkpt>
      <trkpt lat="42.456827" lon="1.004476">
        <ele>1574.2</ele>
        <time>1970-01-01T09:23:06.000Z</time>
      </trkpt>
      <trkpt lat="42.456881" lon="1.004665">
        <ele>1575.4</ele>
        <time>1970-01-01T09:23:16.000Z</time>
      </trkpt>
      <trkpt lat="42.45696" lon="1.004844">
        <ele>1576.4</ele>
        <time>1970-01-01T09:23:28.000Z</time>
      </trkpt>
      <trkpt lat="42.457005" lon="1.004942">
        <ele>1577.4</ele>
        <time>1970-01-01T09:23:35.000Z</time>
      </trkpt>
      <trkpt lat="42.457056" lon="1.005231">
        <ele>1578.4</ele>
        <time>1970-01-01T09:23:49.000Z</time>
      </trkpt>
      <trkpt lat="42.457121" lon="1.005477">
        <ele>1579.6</ele>
        <time>1970-01-01T09:24:01.000Z</time>
      </trkpt>
      <trkpt lat="42.457244" lon="1.005621">
        <ele>1580.6</ele>
        <time>1970-01-01T09:24:11.000Z</time>
      </trkpt>
      <trkpt lat="42.457518" lon="1.005762">
        <ele>1580.4</ele>
        <time>1970-01-01T09:24:28.000Z</time>
      </trkpt>
      <trkpt lat="42.457617" lon="1.005432">
        <ele>1581.8</ele>
        <time>1970-01-01T09:24:41.000Z</time>
      </trkpt>
      <trkpt lat="42.457665" lon="1.00519">
        <ele>1582.8</ele>
        <time>1970-01-01T09:24:50.000Z</time>
      </trkpt>
      <trkpt lat="42.457662" lon="1.005006">
        <ele>1584</ele>
        <time>1970-01-01T09:24:57.000Z</time>
      </trkpt>
      <trkpt lat="42.457812" lon="1.00447">
        <ele>1585</ele>
        <time>1970-01-01T09:25:17.000Z</time>
      </trkpt>
      <trkpt lat="42.457922" lon="1.004347">
        <ele>1586</ele>
        <time>1970-01-01T09:25:24.000Z</time>
      </trkpt>
      <trkpt lat="42.458041" lon="1.004244">
        <ele>1587.2</ele>
        <time>1970-01-01T09:25:32.000Z</time>
      </trkpt>
      <trkpt lat="42.458154" lon="1.004095">
        <ele>1588.2</ele>
        <time>1970-01-01T09:25:41.000Z</time>
      </trkpt>
      <trkpt lat="42.458242" lon="1.00395">
        <ele>1589.2</ele>
        <time>1970-01-01T09:25:49.000Z</time>
      </trkpt>
      <trkpt lat="42.458326" lon="1.003879">
        <ele>1590.4</ele>
        <time>1970-01-01T09:25:55.000Z</time>
      </trkpt>
      <trkpt lat="42.458425" lon="1.003774">
        <ele>1591.4</ele>
        <time>1970-01-01T09:26:03.000Z</time>
      </trkpt>
      <trkpt lat="42.458516" lon="1.003693">
        <ele>1592.4</ele>
        <time>1970-01-01T09:26:10.000Z</time>
      </trkpt>
      <trkpt lat="42.458602" lon="1.003613">
        <ele>1593.6</ele>
        <time>1970-01-01T09:26:17.000Z</time>
      </trkpt>
      <trkpt lat="42.458669" lon="1.003524">
        <ele>1594.6</ele>
        <time>1970-01-01T09:26:23.000Z</time>
      </trkpt>
      <trkpt lat="42.458804" lon="1.003416">
        <ele>1595.6</ele>
        <time>1970-01-01T09:26:33.000Z</time>
      </trkpt>
      <trkpt lat="42.458818" lon="1.00341">
        <ele>1595.8</ele>
        <time>1970-01-01T09:26:34.000Z</time>
      </trkpt>
      <trkpt lat="42.458956" lon="1.003294">
        <ele>1596.2</ele>
        <time>1970-01-01T09:26:44.000Z</time>
      </trkpt>
      <trkpt lat="42.45898" lon="1.003263">
        <ele>1596.6</ele>
        <time>1970-01-01T09:26:46.000Z</time>
      </trkpt>
      <trkpt lat="42.45911" lon="1.002885">
        <ele>1597.8</ele>
        <time>1970-01-01T09:27:04.000Z</time>
      </trkpt>
      <trkpt lat="42.459111" lon="1.002789">
        <ele>1598.8</ele>
        <time>1970-01-01T09:27:09.000Z</time>
      </trkpt>
      <trkpt lat="42.45911" lon="1.002733">
        <ele>1599</ele>
        <time>1970-01-01T09:27:12.000Z</time>
      </trkpt>
      <trkpt lat="42.459127" lon="1.002608">
        <ele>1599.8</ele>
        <time>1970-01-01T09:27:18.000Z</time>
      </trkpt>
      <trkpt lat="42.45919" lon="1.002442">
        <ele>1600.8</ele>
        <time>1970-01-01T09:27:26.000Z</time>
      </trkpt>
      <trkpt lat="42.459241" lon="1.002374">
        <ele>1600.6</ele>
        <time>1970-01-01T09:27:31.000Z</time>
      </trkpt>
      <trkpt lat="42.459265" lon="1.00235">
        <ele>1600.6</ele>
        <time>1970-01-01T09:28:24.000Z</time>
      </trkpt>
      <trkpt lat="42.459539" lon="1.00176">
        <ele>1602</ele>
        <time>1970-01-01T09:28:42.000Z</time>
      </trkpt>
      <trkpt lat="42.45957" lon="1.001642">
        <ele>1603</ele>
        <time>1970-01-01T09:28:46.000Z</time>
      </trkpt>
      <trkpt lat="42.459589" lon="1.001552">
        <ele>1604</ele>
        <time>1970-01-01T09:28:49.000Z</time>
      </trkpt>
      <trkpt lat="42.459624" lon="1.001436">
        <ele>1605.4</ele>
        <time>1970-01-01T09:28:53.000Z</time>
      </trkpt>
      <trkpt lat="42.459673" lon="1.00134">
        <ele>1606.6</ele>
        <time>1970-01-01T09:28:57.000Z</time>
      </trkpt>
      <trkpt lat="42.459777" lon="1.001295">
        <ele>1607.6</ele>
        <time>1970-01-01T09:29:02.000Z</time>
      </trkpt>
      <trkpt lat="42.459797" lon="1.001308">
        <ele>1607.8</ele>
        <time>1970-01-01T09:29:03.000Z</time>
      </trkpt>
      <trkpt lat="42.459831" lon="1.001414">
        <ele>1608.6</ele>
        <time>1970-01-01T09:29:07.000Z</time>
      </trkpt>
      <trkpt lat="42.45982" lon="1.001531">
        <ele>1609.6</ele>
        <time>1970-01-01T09:29:11.000Z</time>
      </trkpt>
      <trkpt lat="42.459817" lon="1.001688">
        <ele>1610.8</ele>
        <time>1970-01-01T09:29:17.000Z</time>
      </trkpt>
      <trkpt lat="42.459761" lon="1.002085">
        <ele>1611.8</ele>
        <time>1970-01-01T09:29:30.000Z</time>
      </trkpt>
      <trkpt lat="42.459679" lon="1.002345">
        <ele>1612.8</ele>
        <time>1970-01-01T09:29:39.000Z</time>
      </trkpt>
      <trkpt lat="42.45964" lon="1.002506">
        <ele>1614</ele>
        <time>1970-01-01T09:29:45.000Z</time>
      </trkpt>
      <trkpt lat="42.459598" lon="1.002653">
        <ele>1615</ele>
        <time>1970-01-01T09:29:51.000Z</time>
      </trkpt>
      <trkpt lat="42.459572" lon="1.002779">
        <ele>1616.2</ele>
        <time>1970-01-01T09:29:56.000Z</time>
      </trkpt>
      <trkpt lat="42.459539" lon="1.002959">
        <ele>1617.2</ele>
        <time>1970-01-01T09:30:03.000Z</time>
      </trkpt>
      <trkpt lat="42.459512" lon="1.003084">
        <ele>1618.2</ele>
        <time>1970-01-01T09:30:08.000Z</time>
      </trkpt>
      <trkpt lat="42.459475" lon="1.003263">
        <ele>1619.4</ele>
        <time>1970-01-01T09:30:15.000Z</time>
      </trkpt>
      <trkpt lat="42.459446" lon="1.003486">
        <ele>1620.4</ele>
        <time>1970-01-01T09:30:23.000Z</time>
      </trkpt>
      <trkpt lat="42.459428" lon="1.003616">
        <ele>1621.4</ele>
        <time>1970-01-01T09:30:28.000Z</time>
      </trkpt>
      <trkpt lat="42.459386" lon="1.003791">
        <ele>1622.4</ele>
        <time>1970-01-01T09:30:35.000Z</time>
      </trkpt>
      <trkpt lat="42.459356" lon="1.003961">
        <ele>1623.6</ele>
        <time>1970-01-01T09:30:42.000Z</time>
      </trkpt>
      <trkpt lat="42.459342" lon="1.004125">
        <ele>1624.6</ele>
        <time>1970-01-01T09:30:48.000Z</time>
      </trkpt>
      <trkpt lat="42.459304" lon="1.004264">
        <ele>1625.8</ele>
        <time>1970-01-01T09:30:54.000Z</time>
      </trkpt>
      <trkpt lat="42.459236" lon="1.004379">
        <ele>1626.8</ele>
        <time>1970-01-01T09:31:00.000Z</time>
      </trkpt>
      <trkpt lat="42.459161" lon="1.004494">
        <ele>1627.8</ele>
        <time>1970-01-01T09:31:07.000Z</time>
      </trkpt>
      <trkpt lat="42.459056" lon="1.004607">
        <ele>1629</ele>
        <time>1970-01-01T09:31:16.000Z</time>
      </trkpt>
      <trkpt lat="42.458987" lon="1.00469">
        <ele>1630</ele>
        <time>1970-01-01T09:31:23.000Z</time>
      </trkpt>
      <trkpt lat="42.458901" lon="1.004778">
        <ele>1631</ele>
        <time>1970-01-01T09:31:30.000Z</time>
      </trkpt>
      <trkpt lat="42.458781" lon="1.005027">
        <ele>1632</ele>
        <time>1970-01-01T09:31:44.000Z</time>
      </trkpt>
      <trkpt lat="42.458742" lon="1.005147">
        <ele>1633.2</ele>
        <time>1970-01-01T09:31:51.000Z</time>
      </trkpt>
      <trkpt lat="42.458698" lon="1.005289">
        <ele>1634.2</ele>
        <time>1970-01-01T09:31:59.000Z</time>
      </trkpt>
      <trkpt lat="42.458659" lon="1.005423">
        <ele>1635.4</ele>
        <time>1970-01-01T09:32:06.000Z</time>
      </trkpt>
      <trkpt lat="42.458622" lon="1.005528">
        <ele>1636.4</ele>
        <time>1970-01-01T09:32:12.000Z</time>
      </trkpt>
      <trkpt lat="42.458589" lon="1.005665">
        <ele>1637.6</ele>
        <time>1970-01-01T09:32:20.000Z</time>
      </trkpt>
      <trkpt lat="42.458578" lon="1.005807">
        <ele>1638.4</ele>
        <time>1970-01-01T09:32:27.000Z</time>
      </trkpt>
      <trkpt lat="42.458517" lon="1.005972">
        <ele>1639.2</ele>
        <time>1970-01-01T09:32:36.000Z</time>
      </trkpt>
      <trkpt lat="42.458469" lon="1.006068">
        <ele>1639.4</ele>
        <time>1970-01-01T09:32:42.000Z</time>
      </trkpt>
      <trkpt lat="42.45847" lon="1.006149">
        <ele>1640.2</ele>
        <time>1970-01-01T09:32:47.000Z</time>
      </trkpt>
      <trkpt lat="42.458499" lon="1.006172">
        <ele>1640.6</ele>
        <time>1970-01-01T09:32:50.000Z</time>
      </trkpt>
      <trkpt lat="42.458557" lon="1.006124">
        <ele>1641.4</ele>
        <time>1970-01-01T09:32:55.000Z</time>
      </trkpt>
      <trkpt lat="42.458568" lon="1.006108">
        <ele>1641.6</ele>
        <time>1970-01-01T09:32:56.000Z</time>
      </trkpt>
      <trkpt lat="42.458635" lon="1.005973">
        <ele>1642.6</ele>
        <time>1970-01-01T09:33:04.000Z</time>
      </trkpt>
      <trkpt lat="42.458732" lon="1.005739">
        <ele>1643.8</ele>
        <time>1970-01-01T09:33:15.000Z</time>
      </trkpt>
      <trkpt lat="42.458831" lon="1.005501">
        <ele>1644.8</ele>
        <time>1970-01-01T09:33:27.000Z</time>
      </trkpt>
      <trkpt lat="42.458956" lon="1.005344">
        <ele>1646</ele>
        <time>1970-01-01T09:33:36.000Z</time>
      </trkpt>
      <trkpt lat="42.459064" lon="1.005284">
        <ele>1647</ele>
        <time>1970-01-01T09:33:43.000Z</time>
      </trkpt>
      <trkpt lat="42.459153" lon="1.005247">
        <ele>1648.2</ele>
        <time>1970-01-01T09:33:49.000Z</time>
      </trkpt>
      <trkpt lat="42.459232" lon="1.005219">
        <ele>1649.4</ele>
        <time>1970-01-01T09:33:54.000Z</time>
      </trkpt>
      <trkpt lat="42.459391" lon="1.00516">
        <ele>1650.4</ele>
        <time>1970-01-01T09:34:04.000Z</time>
      </trkpt>
      <trkpt lat="42.459489" lon="1.005113">
        <ele>1651.6</ele>
        <time>1970-01-01T09:34:11.000Z</time>
      </trkpt>
      <trkpt lat="42.459764" lon="1.00487">
        <ele>1652.6</ele>
        <time>1970-01-01T09:34:31.000Z</time>
      </trkpt>
      <trkpt lat="42.459878" lon="1.004733">
        <ele>1653.6</ele>
        <time>1970-01-01T09:34:40.000Z</time>
      </trkpt>
      <trkpt lat="42.459954" lon="1.004607">
        <ele>1654.8</ele>
        <time>1970-01-01T09:34:48.000Z</time>
      </trkpt>
      <trkpt lat="42.460024" lon="1.004439">
        <ele>1656</ele>
        <time>1970-01-01T09:34:57.000Z</time>
      </trkpt>
      <trkpt lat="42.460052" lon="1.004314">
        <ele>1657</ele>
        <time>1970-01-01T09:35:04.000Z</time>
      </trkpt>
      <trkpt lat="42.460063" lon="1.00428">
        <ele>1657</ele>
        <time>1970-01-01T09:35:06.000Z</time>
      </trkpt>
      <trkpt lat="42.460097" lon="1.004132">
        <ele>1658.2</ele>
        <time>1970-01-01T09:35:14.000Z</time>
      </trkpt>
      <trkpt lat="42.460126" lon="1.003992">
        <ele>1659.2</ele>
        <time>1970-01-01T09:35:21.000Z</time>
      </trkpt>
      <trkpt lat="42.460169" lon="1.003824">
        <ele>1660.4</ele>
        <time>1970-01-01T09:35:29.000Z</time>
      </trkpt>
      <trkpt lat="42.46025" lon="1.003682">
        <ele>1661.6</ele>
        <time>1970-01-01T09:35:38.000Z</time>
      </trkpt>
      <trkpt lat="42.460378" lon="1.003555">
        <ele>1662.8</ele>
        <time>1970-01-01T09:35:48.000Z</time>
      </trkpt>
      <trkpt lat="42.46052" lon="1.003463">
        <ele>1663.8</ele>
        <time>1970-01-01T09:35:57.000Z</time>
      </trkpt>
      <trkpt lat="42.46071" lon="1.003402">
        <ele>1665</ele>
        <time>1970-01-01T09:36:08.000Z</time>
      </trkpt>
      <trkpt lat="42.460779" lon="1.003367">
        <ele>1665.2</ele>
        <time>1970-01-01T09:36:12.000Z</time>
      </trkpt>
      <trkpt lat="42.460954" lon="1.003229">
        <ele>1666</ele>
        <time>1970-01-01T09:36:24.000Z</time>
      </trkpt>
      <trkpt lat="42.461039" lon="1.003136">
        <ele>1667.2</ele>
        <time>1970-01-01T09:36:31.000Z</time>
      </trkpt>
      <trkpt lat="42.461098" lon="1.003042">
        <ele>1668.4</ele>
        <time>1970-01-01T09:36:37.000Z</time>
      </trkpt>
      <trkpt lat="42.461163" lon="1.002915">
        <ele>1669.6</ele>
        <time>1970-01-01T09:36:44.000Z</time>
      </trkpt>
      <trkpt lat="42.461202" lon="1.002795">
        <ele>1670.6</ele>
        <time>1970-01-01T09:36:50.000Z</time>
      </trkpt>
      <trkpt lat="42.461231" lon="1.002694">
        <ele>1671.8</ele>
        <time>1970-01-01T09:36:55.000Z</time>
      </trkpt>
      <trkpt lat="42.461255" lon="1.002527">
        <ele>1672.8</ele>
        <time>1970-01-01T09:37:04.000Z</time>
      </trkpt>
      <trkpt lat="42.461273" lon="1.002408">
        <ele>1673.8</ele>
        <time>1970-01-01T09:37:11.000Z</time>
      </trkpt>
      <trkpt lat="42.461282" lon="1.002217">
        <ele>1675</ele>
        <time>1970-01-01T09:37:21.000Z</time>
      </trkpt>
      <trkpt lat="42.461301" lon="1.002026">
        <ele>1676</ele>
        <time>1970-01-01T09:37:30.000Z</time>
      </trkpt>
      <trkpt lat="42.461368" lon="1.001829">
        <ele>1677</ele>
        <time>1970-01-01T09:37:40.000Z</time>
      </trkpt>
      <trkpt lat="42.461503" lon="1.001708">
        <ele>1678</ele>
        <time>1970-01-01T09:37:50.000Z</time>
      </trkpt>
      <trkpt lat="42.461588" lon="1.001685">
        <ele>1679</ele>
        <time>1970-01-01T09:37:56.000Z</time>
      </trkpt>
      <trkpt lat="42.461763" lon="1.001639">
        <ele>1680</ele>
        <time>1970-01-01T09:38:07.000Z</time>
      </trkpt>
      <trkpt lat="42.462054" lon="1.001627">
        <ele>1681</ele>
        <time>1970-01-01T09:38:23.000Z</time>
      </trkpt>
      <trkpt lat="42.462215" lon="1.001684">
        <ele>1681.8</ele>
        <time>1970-01-01T09:38:33.000Z</time>
      </trkpt>
      <trkpt lat="42.46224" lon="1.001706">
        <ele>1682.2</ele>
        <time>1970-01-01T09:38:35.000Z</time>
      </trkpt>
      <trkpt lat="42.462335" lon="1.00178">
        <ele>1683.2</ele>
        <time>1970-01-01T09:38:43.000Z</time>
      </trkpt>
      <trkpt lat="42.462345" lon="1.001787">
        <ele>1683.4</ele>
        <time>1970-01-01T09:38:44.000Z</time>
      </trkpt>
      <trkpt lat="42.462402" lon="1.001841">
        <ele>1684.4</ele>
        <time>1970-01-01T09:38:50.000Z</time>
      </trkpt>
      <trkpt lat="42.462439" lon="1.001869">
        <ele>1685</ele>
        <time>1970-01-01T09:38:53.000Z</time>
      </trkpt>
      <trkpt lat="42.462461" lon="1.001895">
        <ele>1685.4</ele>
        <time>1970-01-01T09:38:55.000Z</time>
      </trkpt>
      <trkpt lat="42.462489" lon="1.001922">
        <ele>1685.8</ele>
        <time>1970-01-01T09:38:57.000Z</time>
      </trkpt>
      <trkpt lat="42.462554" lon="1.002007">
        <ele>1686.4</ele>
        <time>1970-01-01T09:39:02.000Z</time>
      </trkpt>
      <trkpt lat="42.462622" lon="1.00216">
        <ele>1687.4</ele>
        <time>1970-01-01T09:39:10.000Z</time>
      </trkpt>
      <trkpt lat="42.462671" lon="1.002271">
        <ele>1688.6</ele>
        <time>1970-01-01T09:39:16.000Z</time>
      </trkpt>
      <trkpt lat="42.462853" lon="1.002471">
        <ele>1689.8</ele>
        <time>1970-01-01T09:39:29.000Z</time>
      </trkpt>
      <trkpt lat="42.462992" lon="1.002612">
        <ele>1690.8</ele>
        <time>1970-01-01T09:39:40.000Z</time>
      </trkpt>
      <trkpt lat="42.463127" lon="1.002745">
        <ele>1691.8</ele>
        <time>1970-01-01T09:39:51.000Z</time>
      </trkpt>
      <trkpt lat="42.463223" lon="1.002821">
        <ele>1692.6</ele>
        <time>1970-01-01T09:39:58.000Z</time>
      </trkpt>
      <trkpt lat="42.463356" lon="1.002897">
        <ele>1693.6</ele>
        <time>1970-01-01T09:40:07.000Z</time>
      </trkpt>
      <trkpt lat="42.463466" lon="1.002967">
        <ele>1694.8</ele>
        <time>1970-01-01T09:40:15.000Z</time>
      </trkpt>
      <trkpt lat="42.463545" lon="1.003019">
        <ele>1695.8</ele>
        <time>1970-01-01T09:40:21.000Z</time>
      </trkpt>
      <trkpt lat="42.463638" lon="1.003072">
        <ele>1697</ele>
        <time>1970-01-01T09:40:28.000Z</time>
      </trkpt>
      <trkpt lat="42.463728" lon="1.003157">
        <ele>1697.8</ele>
        <time>1970-01-01T09:40:35.000Z</time>
      </trkpt>
      <trkpt lat="42.463825" lon="1.003251">
        <ele>1699</ele>
        <time>1970-01-01T09:40:43.000Z</time>
      </trkpt>
      <trkpt lat="42.463915" lon="1.003338">
        <ele>1700</ele>
        <time>1970-01-01T09:40:51.000Z</time>
      </trkpt>
      <trkpt lat="42.463998" lon="1.003364">
        <ele>1701</ele>
        <time>1970-01-01T09:40:57.000Z</time>
      </trkpt>
      <trkpt lat="42.464135" lon="1.0034">
        <ele>1702.2</ele>
        <time>1970-01-01T09:41:06.000Z</time>
      </trkpt>
      <trkpt lat="42.46432" lon="1.003459">
        <ele>1703.4</ele>
        <time>1970-01-01T09:41:17.000Z</time>
      </trkpt>
      <trkpt lat="42.464434" lon="1.003499">
        <ele>1704.4</ele>
        <time>1970-01-01T09:41:25.000Z</time>
      </trkpt>
      <trkpt lat="42.464477" lon="1.00352">
        <ele>1704.4</ele>
        <time>1970-01-01T09:41:28.000Z</time>
      </trkpt>
      <trkpt lat="42.464666" lon="1.003565">
        <ele>1705.2</ele>
        <time>1970-01-01T09:41:39.000Z</time>
      </trkpt>
      <trkpt lat="42.464868" lon="1.00359">
        <ele>1706.2</ele>
        <time>1970-01-01T09:41:51.000Z</time>
      </trkpt>
      <trkpt lat="42.464968" lon="1.003613">
        <ele>1707.2</ele>
        <time>1970-01-01T09:41:58.000Z</time>
      </trkpt>
      <trkpt lat="42.465001" lon="1.003621">
        <ele>1707.2</ele>
        <time>1970-01-01T09:42:00.000Z</time>
      </trkpt>
      <trkpt lat="42.465088" lon="1.003679">
        <ele>1708.4</ele>
        <time>1970-01-01T09:42:06.000Z</time>
      </trkpt>
      <trkpt lat="42.465172" lon="1.003738">
        <ele>1709.4</ele>
        <time>1970-01-01T09:42:12.000Z</time>
      </trkpt>
      <trkpt lat="42.465251" lon="1.0038">
        <ele>1710.4</ele>
        <time>1970-01-01T09:42:18.000Z</time>
      </trkpt>
      <trkpt lat="42.46537" lon="1.003901">
        <ele>1711.4</ele>
        <time>1970-01-01T09:42:27.000Z</time>
      </trkpt>
      <trkpt lat="42.465562" lon="1.004111">
        <ele>1712.4</ele>
        <time>1970-01-01T09:42:39.000Z</time>
      </trkpt>
      <trkpt lat="42.465666" lon="1.004198">
        <ele>1712.8</ele>
        <time>1970-01-01T09:42:53.000Z</time>
      </trkpt>
      <trkpt lat="42.465692" lon="1.004168">
        <ele>1713.8</ele>
        <time>1970-01-01T09:43:33.000Z</time>
      </trkpt>
      <trkpt lat="42.465796" lon="1.004034">
        <ele>1715</ele>
        <time>1970-01-01T09:43:41.000Z</time>
      </trkpt>
      <trkpt lat="42.465868" lon="1.003959">
        <ele>1716</ele>
        <time>1970-01-01T09:43:47.000Z</time>
      </trkpt>
      <trkpt lat="42.465914" lon="1.003926">
        <ele>1717.2</ele>
        <time>1970-01-01T09:43:51.000Z</time>
      </trkpt>
      <trkpt lat="42.465969" lon="1.00391">
        <ele>1718.2</ele>
        <time>1970-01-01T09:43:55.000Z</time>
      </trkpt>
      <trkpt lat="42.466033" lon="1.003881">
        <ele>1719.4</ele>
        <time>1970-01-01T09:44:00.000Z</time>
      </trkpt>
      <trkpt lat="42.466091" lon="1.003854">
        <ele>1720.4</ele>
        <time>1970-01-01T09:44:05.000Z</time>
      </trkpt>
      <trkpt lat="42.466147" lon="1.003815">
        <ele>1721.6</ele>
        <time>1970-01-01T09:44:10.000Z</time>
      </trkpt>
      <trkpt lat="42.466226" lon="1.003864">
        <ele>1722.6</ele>
        <time>1970-01-01T09:44:17.000Z</time>
      </trkpt>
      <trkpt lat="42.466234" lon="1.003921">
        <ele>1723.2</ele>
        <time>1970-01-01T09:44:20.000Z</time>
      </trkpt>
      <trkpt lat="42.46622" lon="1.003959">
        <ele>1723.6</ele>
        <time>1970-01-01T09:44:22.000Z</time>
      </trkpt>
      <trkpt lat="42.466205" lon="1.003981">
        <ele>1724</ele>
        <time>1970-01-01T09:44:24.000Z</time>
      </trkpt>
      <trkpt lat="42.466132" lon="1.004002">
        <ele>1724.6</ele>
        <time>1970-01-01T09:44:30.000Z</time>
      </trkpt>
      <trkpt lat="42.466085" lon="1.004022">
        <ele>1725.8</ele>
        <time>1970-01-01T09:44:34.000Z</time>
      </trkpt>
      <trkpt lat="42.46601" lon="1.004124">
        <ele>1726.6</ele>
        <time>1970-01-01T09:44:41.000Z</time>
      </trkpt>
      <trkpt lat="42.465882" lon="1.004292">
        <ele>1727.8</ele>
        <time>1970-01-01T09:44:51.000Z</time>
      </trkpt>
      <trkpt lat="42.465797" lon="1.004442">
        <ele>1729</ele>
        <time>1970-01-01T09:44:59.000Z</time>
      </trkpt>
      <trkpt lat="42.465744" lon="1.004533">
        <ele>1730.4</ele>
        <time>1970-01-01T09:45:05.000Z</time>
      </trkpt>
      <trkpt lat="42.465633" lon="1.004564">
        <ele>1731.4</ele>
        <time>1970-01-01T09:45:12.000Z</time>
      </trkpt>
      <trkpt lat="42.465607" lon="1.004532">
        <ele>1731.8</ele>
        <time>1970-01-01T09:45:14.000Z</time>
      </trkpt>
      <trkpt lat="42.465545" lon="1.004458">
        <ele>1732.4</ele>
        <time>1970-01-01T09:45:18.000Z</time>
      </trkpt>
      <trkpt lat="42.465526" lon="1.004441">
        <ele>1732.4</ele>
        <time>1970-01-01T09:45:19.000Z</time>
      </trkpt>
      <trkpt lat="42.465409" lon="1.004365">
        <ele>1733.6</ele>
        <time>1970-01-01T09:45:25.000Z</time>
      </trkpt>
      <trkpt lat="42.465281" lon="1.004286">
        <ele>1734.8</ele>
        <time>1970-01-01T09:45:32.000Z</time>
      </trkpt>
      <trkpt lat="42.465128" lon="1.004223">
        <ele>1735.8</ele>
        <time>1970-01-01T09:45:41.000Z</time>
      </trkpt>
      <trkpt lat="42.465012" lon="1.004233">
        <ele>1736.8</ele>
        <time>1970-01-01T09:45:49.000Z</time>
      </trkpt>
      <trkpt lat="42.464924" lon="1.004249">
        <ele>1738</ele>
        <time>1970-01-01T09:45:56.000Z</time>
      </trkpt>
      <trkpt lat="42.464811" lon="1.00427">
        <ele>1739</ele>
        <time>1970-01-01T09:46:05.000Z</time>
      </trkpt>
      <trkpt lat="42.464705" lon="1.004292">
        <ele>1740.2</ele>
        <time>1970-01-01T09:46:13.000Z</time>
      </trkpt>
      <trkpt lat="42.46459" lon="1.004314">
        <ele>1741.2</ele>
        <time>1970-01-01T09:46:21.000Z</time>
      </trkpt>
      <trkpt lat="42.464446" lon="1.004335">
        <ele>1742.4</ele>
        <time>1970-01-01T09:46:31.000Z</time>
      </trkpt>
      <trkpt lat="42.464339" lon="1.004347">
        <ele>1743.4</ele>
        <time>1970-01-01T09:46:38.000Z</time>
      </trkpt>
      <trkpt lat="42.464296" lon="1.00436">
        <ele>1743.8</ele>
        <time>1970-01-01T09:46:41.000Z</time>
      </trkpt>
      <trkpt lat="42.464219" lon="1.004376">
        <ele>1744.6</ele>
        <time>1970-01-01T09:46:46.000Z</time>
      </trkpt>
      <trkpt lat="42.464083" lon="1.004392">
        <ele>1745.6</ele>
        <time>1970-01-01T09:46:54.000Z</time>
      </trkpt>
      <trkpt lat="42.463953" lon="1.0044">
        <ele>1746.8</ele>
        <time>1970-01-01T09:47:02.000Z</time>
      </trkpt>
      <trkpt lat="42.463807" lon="1.004392">
        <ele>1747.8</ele>
        <time>1970-01-01T09:47:11.000Z</time>
      </trkpt>
      <trkpt lat="42.463692" lon="1.00439">
        <ele>1748.8</ele>
        <time>1970-01-01T09:47:18.000Z</time>
      </trkpt>
      <trkpt lat="42.463517" lon="1.004375">
        <ele>1750</ele>
        <time>1970-01-01T09:47:28.000Z</time>
      </trkpt>
      <trkpt lat="42.463367" lon="1.00438">
        <ele>1751</ele>
        <time>1970-01-01T09:47:36.000Z</time>
      </trkpt>
      <trkpt lat="42.463246" lon="1.004378">
        <ele>1752</ele>
        <time>1970-01-01T09:47:43.000Z</time>
      </trkpt>
      <trkpt lat="42.4631" lon="1.004381">
        <ele>1753.2</ele>
        <time>1970-01-01T09:47:51.000Z</time>
      </trkpt>
      <trkpt lat="42.462887" lon="1.004384">
        <ele>1754</ele>
        <time>1970-01-01T09:48:01.000Z</time>
      </trkpt>
      <trkpt lat="42.462764" lon="1.004395">
        <ele>1755</ele>
        <time>1970-01-01T09:48:08.000Z</time>
      </trkpt>
      <trkpt lat="42.462619" lon="1.004426">
        <ele>1756.4</ele>
        <time>1970-01-01T09:48:16.000Z</time>
      </trkpt>
      <trkpt lat="42.462561" lon="1.004462">
        <ele>1757.2</ele>
        <time>1970-01-01T09:48:20.000Z</time>
      </trkpt>
      <trkpt lat="42.462551" lon="1.004481">
        <ele>1757.4</ele>
        <time>1970-01-01T09:48:21.000Z</time>
      </trkpt>
      <trkpt lat="42.462553" lon="1.004533">
        <ele>1758</ele>
        <time>1970-01-01T09:48:26.000Z</time>
      </trkpt>
      <trkpt lat="42.462513" lon="1.004574">
        <ele>1758.6</ele>
        <time>1970-01-01T09:49:27.000Z</time>
      </trkpt>
      <trkpt lat="42.462425" lon="1.0047">
        <ele>1759.8</ele>
        <time>1970-01-01T09:49:34.000Z</time>
      </trkpt>
      <trkpt lat="42.462337" lon="1.004836">
        <ele>1761</ele>
        <time>1970-01-01T09:49:41.000Z</time>
      </trkpt>
      <trkpt lat="42.462256" lon="1.005041">
        <ele>1762</ele>
        <time>1970-01-01T09:49:49.000Z</time>
      </trkpt>
      <trkpt lat="42.462104" lon="1.005379">
        <ele>1763.2</ele>
        <time>1970-01-01T09:50:01.000Z</time>
      </trkpt>
      <trkpt lat="42.461992" lon="1.005556">
        <ele>1764.2</ele>
        <time>1970-01-01T09:50:09.000Z</time>
      </trkpt>
      <trkpt lat="42.461941" lon="1.005675">
        <ele>1765.4</ele>
        <time>1970-01-01T09:50:15.000Z</time>
      </trkpt>
      <trkpt lat="42.461877" lon="1.005776">
        <ele>1766.4</ele>
        <time>1970-01-01T09:50:22.000Z</time>
      </trkpt>
      <trkpt lat="42.46182" lon="1.005852">
        <ele>1767.4</ele>
        <time>1970-01-01T09:50:28.000Z</time>
      </trkpt>
      <trkpt lat="42.461802" lon="1.005877">
        <ele>1767.6</ele>
        <time>1970-01-01T09:50:30.000Z</time>
      </trkpt>
      <trkpt lat="42.461754" lon="1.005931">
        <ele>1768.4</ele>
        <time>1970-01-01T09:50:35.000Z</time>
      </trkpt>
      <trkpt lat="42.461669" lon="1.006021">
        <ele>1769.6</ele>
        <time>1970-01-01T09:50:44.000Z</time>
      </trkpt>
      <trkpt lat="42.461606" lon="1.00611">
        <ele>1770.6</ele>
        <time>1970-01-01T09:50:52.000Z</time>
      </trkpt>
      <trkpt lat="42.461551" lon="1.006188">
        <ele>1771.6</ele>
        <time>1970-01-01T09:50:58.000Z</time>
      </trkpt>
      <trkpt lat="42.46152" lon="1.006268">
        <ele>1772.6</ele>
        <time>1970-01-01T09:51:03.000Z</time>
      </trkpt>
      <trkpt lat="42.461511" lon="1.006281">
        <ele>1772.8</ele>
        <time>1970-01-01T09:51:04.000Z</time>
      </trkpt>
      <trkpt lat="42.461444" lon="1.006379">
        <ele>1774</ele>
        <time>1970-01-01T09:51:11.000Z</time>
      </trkpt>
      <trkpt lat="42.461387" lon="1.006465">
        <ele>1775</ele>
        <time>1970-01-01T09:51:18.000Z</time>
      </trkpt>
      <trkpt lat="42.461333" lon="1.006527">
        <ele>1776</ele>
        <time>1970-01-01T09:51:24.000Z</time>
      </trkpt>
      <trkpt lat="42.461287" lon="1.006583">
        <ele>1777</ele>
        <time>1970-01-01T09:51:29.000Z</time>
      </trkpt>
      <trkpt lat="42.461219" lon="1.006664">
        <ele>1778</ele>
        <time>1970-01-01T09:51:36.000Z</time>
      </trkpt>
      <trkpt lat="42.461183" lon="1.006713">
        <ele>1778.8</ele>
        <time>1970-01-01T09:51:40.000Z</time>
      </trkpt>
      <trkpt lat="42.461165" lon="1.006739">
        <ele>1779.2</ele>
        <time>1970-01-01T09:51:42.000Z</time>
      </trkpt>
      <trkpt lat="42.461126" lon="1.006807">
        <ele>1780.2</ele>
        <time>1970-01-01T09:51:48.000Z</time>
      </trkpt>
      <trkpt lat="42.461049" lon="1.006904">
        <ele>1781.2</ele>
        <time>1970-01-01T09:51:57.000Z</time>
      </trkpt>
      <trkpt lat="42.461004" lon="1.006994">
        <ele>1782.2</ele>
        <time>1970-01-01T09:52:04.000Z</time>
      </trkpt>
      <trkpt lat="42.460988" lon="1.007096">
        <ele>1782.6</ele>
        <time>1970-01-01T09:52:12.000Z</time>
      </trkpt>
      <trkpt lat="42.460978" lon="1.00722">
        <ele>1784.4</ele>
        <time>1970-01-01T09:59:31.000Z</time>
      </trkpt>
      <trkpt lat="42.460974" lon="1.007379">
        <ele>1785.6</ele>
        <time>1970-01-01T09:59:39.000Z</time>
      </trkpt>
      <trkpt lat="42.460976" lon="1.007454">
        <ele>1786.8</ele>
        <time>1970-01-01T09:59:43.000Z</time>
      </trkpt>
      <trkpt lat="42.460982" lon="1.007559">
        <ele>1787.8</ele>
        <time>1970-01-01T09:59:49.000Z</time>
      </trkpt>
      <trkpt lat="42.460984" lon="1.007631">
        <ele>1788.4</ele>
        <time>1970-01-01T09:59:53.000Z</time>
      </trkpt>
      <trkpt lat="42.460991" lon="1.007679">
        <ele>1789</ele>
        <time>1970-01-01T09:59:56.000Z</time>
      </trkpt>
      <trkpt lat="42.461001" lon="1.007772">
        <ele>1790</ele>
        <time>1970-01-01T10:00:01.000Z</time>
      </trkpt>
      <trkpt lat="42.461019" lon="1.007879">
        <ele>1791.2</ele>
        <time>1970-01-01T10:00:07.000Z</time>
      </trkpt>
      <trkpt lat="42.461024" lon="1.007911">
        <ele>1791.6</ele>
        <time>1970-01-01T10:00:09.000Z</time>
      </trkpt>
      <trkpt lat="42.461034" lon="1.007975">
        <ele>1792.2</ele>
        <time>1970-01-01T10:00:13.000Z</time>
      </trkpt>
      <trkpt lat="42.461047" lon="1.008036">
        <ele>1793</ele>
        <time>1970-01-01T10:00:17.000Z</time>
      </trkpt>
      <trkpt lat="42.461057" lon="1.008063">
        <ele>1793.4</ele>
        <time>1970-01-01T10:00:19.000Z</time>
      </trkpt>
      <trkpt lat="42.461072" lon="1.008136">
        <ele>1794.4</ele>
        <time>1970-01-01T10:00:24.000Z</time>
      </trkpt>
      <trkpt lat="42.461098" lon="1.008219">
        <ele>1795.6</ele>
        <time>1970-01-01T10:00:30.000Z</time>
      </trkpt>
      <trkpt lat="42.461133" lon="1.008327">
        <ele>1796.8</ele>
        <time>1970-01-01T10:00:38.000Z</time>
      </trkpt>
      <trkpt lat="42.461155" lon="1.008388">
        <ele>1797.8</ele>
        <time>1970-01-01T10:00:43.000Z</time>
      </trkpt>
      <trkpt lat="42.461174" lon="1.008432">
        <ele>1798.6</ele>
        <time>1970-01-01T10:00:47.000Z</time>
      </trkpt>
      <trkpt lat="42.461205" lon="1.008469">
        <ele>1799</ele>
        <time>1970-01-01T10:00:51.000Z</time>
      </trkpt>
      <trkpt lat="42.461209" lon="1.008482">
        <ele>1799.2</ele>
        <time>1970-01-01T10:00:52.000Z</time>
      </trkpt>
      <trkpt lat="42.461217" lon="1.008518">
        <ele>1799.6</ele>
        <time>1970-01-01T10:00:55.000Z</time>
      </trkpt>
      <trkpt lat="42.46123" lon="1.00854">
        <ele>1800.2</ele>
        <time>1970-01-01T10:00:57.000Z</time>
      </trkpt>
      <trkpt lat="42.461271" lon="1.008599">
        <ele>1801.2</ele>
        <time>1970-01-01T10:01:03.000Z</time>
      </trkpt>
      <trkpt lat="42.461308" lon="1.008643">
        <ele>1802.2</ele>
        <time>1970-01-01T10:01:08.000Z</time>
      </trkpt>
      <trkpt lat="42.461315" lon="1.008653">
        <ele>1802.4</ele>
        <time>1970-01-01T10:01:09.000Z</time>
      </trkpt>
      <trkpt lat="42.461354" lon="1.008684">
        <ele>1802.8</ele>
        <time>1970-01-01T10:01:13.000Z</time>
      </trkpt>
      <trkpt lat="42.461377" lon="1.008714">
        <ele>1803.2</ele>
        <time>1970-01-01T10:01:16.000Z</time>
      </trkpt>
      <trkpt lat="42.461394" lon="1.00875">
        <ele>1803.8</ele>
        <time>1970-01-01T10:01:19.000Z</time>
      </trkpt>
      <trkpt lat="42.461402" lon="1.008807">
        <ele>1804.2</ele>
        <time>1970-01-01T10:01:23.000Z</time>
      </trkpt>
      <trkpt lat="42.461407" lon="1.00882">
        <ele>1804.2</ele>
        <time>1970-01-01T10:01:24.000Z</time>
      </trkpt>
      <trkpt lat="42.461434" lon="1.008896">
        <ele>1805.2</ele>
        <time>1970-01-01T10:01:30.000Z</time>
      </trkpt>
      <trkpt lat="42.461435" lon="1.00891">
        <ele>1805.2</ele>
        <time>1970-01-01T10:01:31.000Z</time>
      </trkpt>
      <trkpt lat="42.461449" lon="1.008966">
        <ele>1805.6</ele>
        <time>1970-01-01T10:01:35.000Z</time>
      </trkpt>
      <trkpt lat="42.461459" lon="1.009009">
        <ele>1806.4</ele>
        <time>1970-01-01T10:01:38.000Z</time>
      </trkpt>
      <trkpt lat="42.461471" lon="1.009067">
        <ele>1807.6</ele>
        <time>1970-01-01T10:01:42.000Z</time>
      </trkpt>
      <trkpt lat="42.461487" lon="1.009191">
        <ele>1808.8</ele>
        <time>1970-01-01T10:01:51.000Z</time>
      </trkpt>
      <trkpt lat="42.461495" lon="1.009229">
        <ele>1809.2</ele>
        <time>1970-01-01T10:01:54.000Z</time>
      </trkpt>
      <trkpt lat="42.461494" lon="1.00927">
        <ele>1809.6</ele>
        <time>1970-01-01T10:01:57.000Z</time>
      </trkpt>
      <trkpt lat="42.461498" lon="1.009283">
        <ele>1809.8</ele>
        <time>1970-01-01T10:01:58.000Z</time>
      </trkpt>
      <trkpt lat="42.461507" lon="1.009325">
        <ele>1810.4</ele>
        <time>1970-01-01T10:02:01.000Z</time>
      </trkpt>
      <trkpt lat="42.461514" lon="1.009381">
        <ele>1810.8</ele>
        <time>1970-01-01T10:02:05.000Z</time>
      </trkpt>
      <trkpt lat="42.461509" lon="1.009468">
        <ele>1812</ele>
        <time>1970-01-01T10:02:11.000Z</time>
      </trkpt>
      <trkpt lat="42.46152" lon="1.009559">
        <ele>1813</ele>
        <time>1970-01-01T10:02:17.000Z</time>
      </trkpt>
      <trkpt lat="42.461521" lon="1.009603">
        <ele>1813.6</ele>
        <time>1970-01-01T10:02:20.000Z</time>
      </trkpt>
      <trkpt lat="42.461526" lon="1.009658">
        <ele>1814.2</ele>
        <time>1970-01-01T10:02:24.000Z</time>
      </trkpt>
      <trkpt lat="42.461532" lon="1.009731">
        <ele>1815.4</ele>
        <time>1970-01-01T10:02:29.000Z</time>
      </trkpt>
      <trkpt lat="42.461557" lon="1.00981">
        <ele>1816</ele>
        <time>1970-01-01T10:02:35.000Z</time>
      </trkpt>
      <trkpt lat="42.461564" lon="1.00987">
        <ele>1816.2</ele>
        <time>1970-01-01T10:02:39.000Z</time>
      </trkpt>
      <trkpt lat="42.461565" lon="1.009883">
        <ele>1816.6</ele>
        <time>1970-01-01T10:02:40.000Z</time>
      </trkpt>
      <trkpt lat="42.461574" lon="1.009936">
        <ele>1817.8</ele>
        <time>1970-01-01T10:02:44.000Z</time>
      </trkpt>
      <trkpt lat="42.461592" lon="1.010047">
        <ele>1818.8</ele>
        <time>1970-01-01T10:02:52.000Z</time>
      </trkpt>
      <trkpt lat="42.461598" lon="1.010136">
        <ele>1820</ele>
        <time>1970-01-01T10:02:59.000Z</time>
      </trkpt>
      <trkpt lat="42.461599" lon="1.010245">
        <ele>1821</ele>
        <time>1970-01-01T10:03:07.000Z</time>
      </trkpt>
      <trkpt lat="42.46162" lon="1.01032">
        <ele>1822</ele>
        <time>1970-01-01T10:03:13.000Z</time>
      </trkpt>
      <trkpt lat="42.461605" lon="1.010427">
        <ele>1823</ele>
        <time>1970-01-01T10:03:20.000Z</time>
      </trkpt>
      <trkpt lat="42.461602" lon="1.010444">
        <ele>1823.2</ele>
        <time>1970-01-01T10:03:21.000Z</time>
      </trkpt>
      <trkpt lat="42.461594" lon="1.010533">
        <ele>1824.4</ele>
        <time>1970-01-01T10:03:27.000Z</time>
      </trkpt>
      <trkpt lat="42.461589" lon="1.010623">
        <ele>1825.4</ele>
        <time>1970-01-01T10:03:33.000Z</time>
      </trkpt>
      <trkpt lat="42.46159" lon="1.010641">
        <ele>1825.4</ele>
        <time>1970-01-01T10:03:34.000Z</time>
      </trkpt>
      <trkpt lat="42.461665" lon="1.010705">
        <ele>1826.4</ele>
        <time>1970-01-01T10:03:43.000Z</time>
      </trkpt>
      <trkpt lat="42.4617" lon="1.010574">
        <ele>1827.4</ele>
        <time>1970-01-01T10:03:52.000Z</time>
      </trkpt>
      <trkpt lat="42.461704" lon="1.010538">
        <ele>1827.6</ele>
        <time>1970-01-01T10:03:54.000Z</time>
      </trkpt>
      <trkpt lat="42.461724" lon="1.010358">
        <ele>1828.6</ele>
        <time>1970-01-01T10:04:04.000Z</time>
      </trkpt>
      <trkpt lat="42.461781" lon="1.010176">
        <ele>1829.8</ele>
        <time>1970-01-01T10:04:14.000Z</time>
      </trkpt>
      <trkpt lat="42.46186" lon="1.009903">
        <ele>1830.6</ele>
        <time>1970-01-01T10:04:29.000Z</time>
      </trkpt>
      <trkpt lat="42.461942" lon="1.009488">
        <ele>1831.6</ele>
        <time>1970-01-01T10:04:48.000Z</time>
      </trkpt>
      <trkpt lat="42.461915" lon="1.009314">
        <ele>1832.8</ele>
        <time>1970-01-01T10:04:57.000Z</time>
      </trkpt>
      <trkpt lat="42.46192" lon="1.00911">
        <ele>1833.8</ele>
        <time>1970-01-01T10:05:08.000Z</time>
      </trkpt>
      <trkpt lat="42.461978" lon="1.008895">
        <ele>1835</ele>
        <time>1970-01-01T10:05:20.000Z</time>
      </trkpt>
      <trkpt lat="42.462049" lon="1.00874">
        <ele>1836.2</ele>
        <time>1970-01-01T10:05:30.000Z</time>
      </trkpt>
      <trkpt lat="42.4621" lon="1.008578">
        <ele>1837.2</ele>
        <time>1970-01-01T10:05:40.000Z</time>
      </trkpt>
      <trkpt lat="42.462116" lon="1.008494">
        <ele>1838.4</ele>
        <time>1970-01-01T10:05:45.000Z</time>
      </trkpt>
      <trkpt lat="42.462108" lon="1.008344">
        <ele>1839.4</ele>
        <time>1970-01-01T10:05:53.000Z</time>
      </trkpt>
      <trkpt lat="42.46204" lon="1.00818">
        <ele>1840.6</ele>
        <time>1970-01-01T10:06:02.000Z</time>
      </trkpt>
      <trkpt lat="42.461994" lon="1.008045">
        <ele>1841.6</ele>
        <time>1970-01-01T10:06:09.000Z</time>
      </trkpt>
      <trkpt lat="42.461931" lon="1.007811">
        <ele>1842.6</ele>
        <time>1970-01-01T10:06:20.000Z</time>
      </trkpt>
      <trkpt lat="42.461859" lon="1.00751">
        <ele>1843.6</ele>
        <time>1970-01-01T10:06:33.000Z</time>
      </trkpt>
      <trkpt lat="42.461852" lon="1.007516">
        <ele>1843.8</ele>
        <time>1970-01-01T10:06:36.000Z</time>
      </trkpt>
      <trkpt lat="42.461871" lon="1.00746">
        <ele>1844.2</ele>
        <time>1970-01-01T10:07:14.000Z</time>
      </trkpt>
      <trkpt lat="42.462006" lon="1.007338">
        <ele>1844.8</ele>
        <time>1970-01-01T10:07:25.000Z</time>
      </trkpt>
      <trkpt lat="42.462036" lon="1.007396">
        <ele>1845</ele>
        <time>1970-01-01T10:07:28.000Z</time>
      </trkpt>
      <trkpt lat="42.462071" lon="1.007527">
        <ele>1846</ele>
        <time>1970-01-01T10:07:34.000Z</time>
      </trkpt>
      <trkpt lat="42.462135" lon="1.007733">
        <ele>1846.6</ele>
        <time>1970-01-01T10:07:42.000Z</time>
      </trkpt>
      <trkpt lat="42.462193" lon="1.007755">
        <ele>1847</ele>
        <time>1970-01-01T10:07:45.000Z</time>
      </trkpt>
      <trkpt lat="42.462232" lon="1.007679">
        <ele>1848</ele>
        <time>1970-01-01T10:07:49.000Z</time>
      </trkpt>
      <trkpt lat="42.462211" lon="1.007486">
        <ele>1848.8</ele>
        <time>1970-01-01T10:07:55.000Z</time>
      </trkpt>
      <trkpt lat="42.462203" lon="1.007419">
        <ele>1849</ele>
        <time>1970-01-01T10:07:57.000Z</time>
      </trkpt>
      <trkpt lat="42.462182" lon="1.007249">
        <ele>1850</ele>
        <time>1970-01-01T10:08:02.000Z</time>
      </trkpt>
      <trkpt lat="42.462178" lon="1.007099">
        <ele>1851.4</ele>
        <time>1970-01-01T10:08:08.000Z</time>
      </trkpt>
      <trkpt lat="42.462414" lon="1.006799">
        <ele>1852.4</ele>
        <time>1970-01-01T10:08:26.000Z</time>
      </trkpt>
      <trkpt lat="42.46263" lon="1.006719">
        <ele>1852.8</ele>
        <time>1970-01-01T10:08:39.000Z</time>
      </trkpt>
      <trkpt lat="42.462676" lon="1.006716">
        <ele>1853.2</ele>
        <time>1970-01-01T10:10:01.000Z</time>
      </trkpt>
      <trkpt lat="42.462875" lon="1.006696">
        <ele>1854.2</ele>
        <time>1970-01-01T10:10:10.000Z</time>
      </trkpt>
      <trkpt lat="42.463005" lon="1.006718">
        <ele>1855.4</ele>
        <time>1970-01-01T10:10:16.000Z</time>
      </trkpt>
      <trkpt lat="42.463129" lon="1.006722">
        <ele>1856.6</ele>
        <time>1970-01-01T10:10:22.000Z</time>
      </trkpt>
      <trkpt lat="42.463276" lon="1.006714">
        <ele>1857.6</ele>
        <time>1970-01-01T10:10:29.000Z</time>
      </trkpt>
      <trkpt lat="42.463394" lon="1.006711">
        <ele>1858.8</ele>
        <time>1970-01-01T10:10:35.000Z</time>
      </trkpt>
      <trkpt lat="42.463502" lon="1.006706">
        <ele>1860</ele>
        <time>1970-01-01T10:10:41.000Z</time>
      </trkpt>
      <trkpt lat="42.463627" lon="1.006702">
        <ele>1861</ele>
        <time>1970-01-01T10:10:48.000Z</time>
      </trkpt>
      <trkpt lat="42.463732" lon="1.006705">
        <ele>1862.2</ele>
        <time>1970-01-01T10:10:54.000Z</time>
      </trkpt>
      <trkpt lat="42.463829" lon="1.006711">
        <ele>1863.2</ele>
        <time>1970-01-01T10:11:00.000Z</time>
      </trkpt>
      <trkpt lat="42.463922" lon="1.006746">
        <ele>1864.2</ele>
        <time>1970-01-01T10:11:06.000Z</time>
      </trkpt>
      <trkpt lat="42.464014" lon="1.006766">
        <ele>1865.4</ele>
        <time>1970-01-01T10:11:12.000Z</time>
      </trkpt>
      <trkpt lat="42.464079" lon="1.006776">
        <ele>1866.2</ele>
        <time>1970-01-01T10:11:16.000Z</time>
      </trkpt>
      <trkpt lat="42.464203" lon="1.006801">
        <ele>1867.4</ele>
        <time>1970-01-01T10:11:24.000Z</time>
      </trkpt>
      <trkpt lat="42.464312" lon="1.006868">
        <ele>1868.6</ele>
        <time>1970-01-01T10:11:32.000Z</time>
      </trkpt>
      <trkpt lat="42.4644" lon="1.006981">
        <ele>1869.6</ele>
        <time>1970-01-01T10:11:40.000Z</time>
      </trkpt>
      <trkpt lat="42.464439" lon="1.007086">
        <ele>1870.8</ele>
        <time>1970-01-01T10:11:46.000Z</time>
      </trkpt>
      <trkpt lat="42.464466" lon="1.007199">
        <ele>1871.8</ele>
        <time>1970-01-01T10:11:52.000Z</time>
      </trkpt>
      <trkpt lat="42.464477" lon="1.007274">
        <ele>1872.4</ele>
        <time>1970-01-01T10:11:56.000Z</time>
      </trkpt>
      <trkpt lat="42.464487" lon="1.007331">
        <ele>1872.8</ele>
        <time>1970-01-01T10:11:59.000Z</time>
      </trkpt>
      <trkpt lat="42.464489" lon="1.007348">
        <ele>1873</ele>
        <time>1970-01-01T10:12:00.000Z</time>
      </trkpt>
      <trkpt lat="42.464499" lon="1.007422">
        <ele>1874</ele>
        <time>1970-01-01T10:12:04.000Z</time>
      </trkpt>
      <trkpt lat="42.464511" lon="1.007513">
        <ele>1875</ele>
        <time>1970-01-01T10:12:09.000Z</time>
      </trkpt>
      <trkpt lat="42.464537" lon="1.007659">
        <ele>1876</ele>
        <time>1970-01-01T10:12:17.000Z</time>
      </trkpt>
      <trkpt lat="42.464551" lon="1.007792">
        <ele>1877.2</ele>
        <time>1970-01-01T10:12:24.000Z</time>
      </trkpt>
      <trkpt lat="42.46455" lon="1.007868">
        <ele>1878.2</ele>
        <time>1970-01-01T10:12:28.000Z</time>
      </trkpt>
      <trkpt lat="42.464555" lon="1.007953">
        <ele>1879.2</ele>
        <time>1970-01-01T10:12:33.000Z</time>
      </trkpt>
      <trkpt lat="42.46456" lon="1.008019">
        <ele>1880</ele>
        <time>1970-01-01T10:12:37.000Z</time>
      </trkpt>
      <trkpt lat="42.46457" lon="1.00805">
        <ele>1880.4</ele>
        <time>1970-01-01T10:12:39.000Z</time>
      </trkpt>
      <trkpt lat="42.464584" lon="1.00817">
        <ele>1881.6</ele>
        <time>1970-01-01T10:12:46.000Z</time>
      </trkpt>
      <trkpt lat="42.464585" lon="1.008291">
        <ele>1882.8</ele>
        <time>1970-01-01T10:12:53.000Z</time>
      </trkpt>
      <trkpt lat="42.464617" lon="1.008389">
        <ele>1883.6</ele>
        <time>1970-01-01T10:12:59.000Z</time>
      </trkpt>
      <trkpt lat="42.464626" lon="1.008403">
        <ele>1883.8</ele>
        <time>1970-01-01T10:13:00.000Z</time>
      </trkpt>
      <trkpt lat="42.464679" lon="1.008473">
        <ele>1884.8</ele>
        <time>1970-01-01T10:13:06.000Z</time>
      </trkpt>
      <trkpt lat="42.464738" lon="1.008537">
        <ele>1885.8</ele>
        <time>1970-01-01T10:13:12.000Z</time>
      </trkpt>
      <trkpt lat="42.464758" lon="1.008631">
        <ele>1886.6</ele>
        <time>1970-01-01T10:13:18.000Z</time>
      </trkpt>
      <trkpt lat="42.464751" lon="1.008644">
        <ele>1886.8</ele>
        <time>1970-01-01T10:13:19.000Z</time>
      </trkpt>
      <trkpt lat="42.464659" lon="1.008637">
        <ele>1888.2</ele>
        <time>1970-01-01T10:13:26.000Z</time>
      </trkpt>
      <trkpt lat="42.464647" lon="1.008622">
        <ele>1888.4</ele>
        <time>1970-01-01T10:13:27.000Z</time>
      </trkpt>
      <trkpt lat="42.46457" lon="1.008515">
        <ele>1889.2</ele>
        <time>1970-01-01T10:13:34.000Z</time>
      </trkpt>
      <trkpt lat="42.464456" lon="1.008422">
        <ele>1890.2</ele>
        <time>1970-01-01T10:13:42.000Z</time>
      </trkpt>
      <trkpt lat="42.464267" lon="1.008424">
        <ele>1891.2</ele>
        <time>1970-01-01T10:13:53.000Z</time>
      </trkpt>
      <trkpt lat="42.46416" lon="1.008427">
        <ele>1892.2</ele>
        <time>1970-01-01T10:14:00.000Z</time>
      </trkpt>
      <trkpt lat="42.464067" lon="1.008438">
        <ele>1893.4</ele>
        <time>1970-01-01T10:14:06.000Z</time>
      </trkpt>
      <trkpt lat="42.463902" lon="1.00849">
        <ele>1894.6</ele>
        <time>1970-01-01T10:14:17.000Z</time>
      </trkpt>
      <trkpt lat="42.463772" lon="1.008627">
        <ele>1895.6</ele>
        <time>1970-01-01T10:14:27.000Z</time>
      </trkpt>
      <trkpt lat="42.46369" lon="1.00886">
        <ele>1896.4</ele>
        <time>1970-01-01T10:14:38.000Z</time>
      </trkpt>
      <trkpt lat="42.463644" lon="1.008971">
        <ele>1897.6</ele>
        <time>1970-01-01T10:14:44.000Z</time>
      </trkpt>
      <trkpt lat="42.463599" lon="1.009093">
        <ele>1898.6</ele>
        <time>1970-01-01T10:14:51.000Z</time>
      </trkpt>
      <trkpt lat="42.46356" lon="1.009192">
        <ele>1899.8</ele>
        <time>1970-01-01T10:14:57.000Z</time>
      </trkpt>
      <trkpt lat="42.463496" lon="1.009344">
        <ele>1901</ele>
        <time>1970-01-01T10:15:06.000Z</time>
      </trkpt>
      <trkpt lat="42.463428" lon="1.009473">
        <ele>1902.2</ele>
        <time>1970-01-01T10:15:14.000Z</time>
      </trkpt>
      <trkpt lat="42.46334" lon="1.009617">
        <ele>1903.2</ele>
        <time>1970-01-01T10:15:23.000Z</time>
      </trkpt>
      <trkpt lat="42.463302" lon="1.009698">
        <ele>1904.2</ele>
        <time>1970-01-01T10:15:28.000Z</time>
      </trkpt>
      <trkpt lat="42.463235" lon="1.009858">
        <ele>1905.2</ele>
        <time>1970-01-01T10:15:37.000Z</time>
      </trkpt>
      <trkpt lat="42.463193" lon="1.009963">
        <ele>1906.4</ele>
        <time>1970-01-01T10:15:43.000Z</time>
      </trkpt>
      <trkpt lat="42.463134" lon="1.010122">
        <ele>1907.4</ele>
        <time>1970-01-01T10:15:52.000Z</time>
      </trkpt>
      <trkpt lat="42.463067" lon="1.010344">
        <ele>1908.6</ele>
        <time>1970-01-01T10:16:03.000Z</time>
      </trkpt>
      <trkpt lat="42.463052" lon="1.010499">
        <ele>1909.6</ele>
        <time>1970-01-01T10:16:11.000Z</time>
      </trkpt>
      <trkpt lat="42.463053" lon="1.010638">
        <ele>1910.6</ele>
        <time>1970-01-01T10:16:19.000Z</time>
      </trkpt>
      <trkpt lat="42.463046" lon="1.010778">
        <ele>1911.8</ele>
        <time>1970-01-01T10:16:27.000Z</time>
      </trkpt>
      <trkpt lat="42.463052" lon="1.010853">
        <ele>1912.8</ele>
        <time>1970-01-01T10:16:31.000Z</time>
      </trkpt>
      <trkpt lat="42.463057" lon="1.010868">
        <ele>1913</ele>
        <time>1970-01-01T10:16:32.000Z</time>
      </trkpt>
      <trkpt lat="42.463107" lon="1.010906">
        <ele>1913.8</ele>
        <time>1970-01-01T10:16:37.000Z</time>
      </trkpt>
      <trkpt lat="42.463169" lon="1.010798">
        <ele>1915</ele>
        <time>1970-01-01T10:16:45.000Z</time>
      </trkpt>
      <trkpt lat="42.463177" lon="1.010743">
        <ele>1915.4</ele>
        <time>1970-01-01T10:16:48.000Z</time>
      </trkpt>
      <trkpt lat="42.463179" lon="1.01069">
        <ele>1916</ele>
        <time>1970-01-01T10:16:51.000Z</time>
      </trkpt>
      <trkpt lat="42.46319" lon="1.010511">
        <ele>1917.2</ele>
        <time>1970-01-01T10:17:00.000Z</time>
      </trkpt>
      <trkpt lat="42.46328" lon="1.01024">
        <ele>1918</ele>
        <time>1970-01-01T10:17:12.000Z</time>
      </trkpt>
      <trkpt lat="42.463412" lon="1.010085">
        <ele>1919</ele>
        <time>1970-01-01T10:17:22.000Z</time>
      </trkpt>
      <trkpt lat="42.463496" lon="1.01001">
        <ele>1920</ele>
        <time>1970-01-01T10:17:28.000Z</time>
      </trkpt>
      <trkpt lat="42.463621" lon="1.009916">
        <ele>1921</ele>
        <time>1970-01-01T10:17:38.000Z</time>
      </trkpt>
      <trkpt lat="42.463724" lon="1.009843">
        <ele>1922.2</ele>
        <time>1970-01-01T10:17:46.000Z</time>
      </trkpt>
      <trkpt lat="42.463828" lon="1.009796">
        <ele>1923.2</ele>
        <time>1970-01-01T10:17:54.000Z</time>
      </trkpt>
      <trkpt lat="42.463987" lon="1.009757">
        <ele>1924.2</ele>
        <time>1970-01-01T10:18:06.000Z</time>
      </trkpt>
      <trkpt lat="42.464071" lon="1.009753">
        <ele>1925.2</ele>
        <time>1970-01-01T10:18:13.000Z</time>
      </trkpt>
      <trkpt lat="42.464199" lon="1.009741">
        <ele>1926.4</ele>
        <time>1970-01-01T10:18:24.000Z</time>
      </trkpt>
      <trkpt lat="42.464211" lon="1.009737">
        <ele>1926.4</ele>
        <time>1970-01-01T10:18:25.000Z</time>
      </trkpt>
      <trkpt lat="42.464339" lon="1.009749">
        <ele>1927.4</ele>
        <time>1970-01-01T10:18:36.000Z</time>
      </trkpt>
      <trkpt lat="42.464362" lon="1.009749">
        <ele>1927.6</ele>
        <time>1970-01-01T10:18:38.000Z</time>
      </trkpt>
      <trkpt lat="42.464492" lon="1.00973">
        <ele>1928.6</ele>
        <time>1970-01-01T10:18:47.000Z</time>
      </trkpt>
      <trkpt lat="42.464594" lon="1.009729">
        <ele>1929.6</ele>
        <time>1970-01-01T10:18:55.000Z</time>
      </trkpt>
      <trkpt lat="42.464712" lon="1.009756">
        <ele>1930.4</ele>
        <time>1970-01-01T10:19:04.000Z</time>
      </trkpt>
      <trkpt lat="42.46483" lon="1.009798">
        <ele>1931.6</ele>
        <time>1970-01-01T10:19:13.000Z</time>
      </trkpt>
      <trkpt lat="42.464958" lon="1.009847">
        <ele>1932.6</ele>
        <time>1970-01-01T10:19:23.000Z</time>
      </trkpt>
      <trkpt lat="42.46507" lon="1.009798">
        <ele>1933</ele>
        <time>1970-01-01T10:19:30.000Z</time>
      </trkpt>
      <trkpt lat="42.465133" lon="1.009656">
        <ele>1933.6</ele>
        <time>1970-01-01T10:19:38.000Z</time>
      </trkpt>
      <trkpt lat="42.465302" lon="1.009466">
        <ele>1934.6</ele>
        <time>1970-01-01T10:19:52.000Z</time>
      </trkpt>
      <trkpt lat="42.465463" lon="1.009353">
        <ele>1935.6</ele>
        <time>1970-01-01T10:20:06.000Z</time>
      </trkpt>
      <trkpt lat="42.465566" lon="1.00928">
        <ele>1936.6</ele>
        <time>1970-01-01T10:20:15.000Z</time>
      </trkpt>
      <trkpt lat="42.465621" lon="1.00925">
        <ele>1937.4</ele>
        <time>1970-01-01T10:20:20.000Z</time>
      </trkpt>
      <trkpt lat="42.465645" lon="1.009247">
        <ele>1937.6</ele>
        <time>1970-01-01T10:20:22.000Z</time>
      </trkpt>
      <trkpt lat="42.465707" lon="1.009234">
        <ele>1938.8</ele>
        <time>1970-01-01T10:20:27.000Z</time>
      </trkpt>
      <trkpt lat="42.465806" lon="1.009264">
        <ele>1939.8</ele>
        <time>1970-01-01T10:20:36.000Z</time>
      </trkpt>
      <trkpt lat="42.465886" lon="1.009333">
        <ele>1941</ele>
        <time>1970-01-01T10:20:45.000Z</time>
      </trkpt>
      <trkpt lat="42.465955" lon="1.009405">
        <ele>1942</ele>
        <time>1970-01-01T10:20:53.000Z</time>
      </trkpt>
      <trkpt lat="42.466034" lon="1.009497">
        <ele>1943</ele>
        <time>1970-01-01T10:21:02.000Z</time>
      </trkpt>
      <trkpt lat="42.466076" lon="1.009554">
        <ele>1943.8</ele>
        <time>1970-01-01T10:21:07.000Z</time>
      </trkpt>
      <trkpt lat="42.466149" lon="1.009675">
        <ele>1945</ele>
        <time>1970-01-01T10:21:17.000Z</time>
      </trkpt>
      <trkpt lat="42.46619" lon="1.009722">
        <ele>1946.2</ele>
        <time>1970-01-01T10:21:22.000Z</time>
      </trkpt>
      <trkpt lat="42.466259" lon="1.009831">
        <ele>1947.2</ele>
        <time>1970-01-01T10:21:32.000Z</time>
      </trkpt>
      <trkpt lat="42.466326" lon="1.0099">
        <ele>1948.4</ele>
        <time>1970-01-01T10:21:39.000Z</time>
      </trkpt>
      <trkpt lat="42.466358" lon="1.009946">
        <ele>1949.6</ele>
        <time>1970-01-01T10:21:43.000Z</time>
      </trkpt>
      <trkpt lat="42.466397" lon="1.010004">
        <ele>1950.6</ele>
        <time>1970-01-01T10:21:48.000Z</time>
      </trkpt>
      <trkpt lat="42.466434" lon="1.01008">
        <ele>1951.6</ele>
        <time>1970-01-01T10:21:54.000Z</time>
      </trkpt>
      <trkpt lat="42.466453" lon="1.010117">
        <ele>1952.2</ele>
        <time>1970-01-01T10:21:57.000Z</time>
      </trkpt>
      <trkpt lat="42.466467" lon="1.010139">
        <ele>1952.6</ele>
        <time>1970-01-01T10:21:59.000Z</time>
      </trkpt>
      <trkpt lat="42.466482" lon="1.010157">
        <ele>1953</ele>
        <time>1970-01-01T10:22:01.000Z</time>
      </trkpt>
      <trkpt lat="42.466509" lon="1.010219">
        <ele>1953.6</ele>
        <time>1970-01-01T10:22:06.000Z</time>
      </trkpt>
      <trkpt lat="42.466535" lon="1.010313">
        <ele>1954.4</ele>
        <time>1970-01-01T10:22:12.000Z</time>
      </trkpt>
      <trkpt lat="42.466544" lon="1.010325">
        <ele>1954.4</ele>
        <time>1970-01-01T10:22:15.000Z</time>
      </trkpt>
      <trkpt lat="42.466567" lon="1.010358">
        <ele>1955.8</ele>
        <time>1970-01-01T10:38:13.000Z</time>
      </trkpt>
      <trkpt lat="42.466735" lon="1.010544">
        <ele>1956</ele>
        <time>1970-01-01T10:38:23.000Z</time>
      </trkpt>
      <trkpt lat="42.46689" lon="1.010452">
        <ele>1955.4</ele>
        <time>1970-01-01T10:38:28.000Z</time>
      </trkpt>
      <trkpt lat="42.467182" lon="1.010366">
        <ele>1957</ele>
        <time>1970-01-01T10:38:41.000Z</time>
      </trkpt>
      <trkpt lat="42.467268" lon="1.010363">
        <ele>1958</ele>
        <time>1970-01-01T10:38:46.000Z</time>
      </trkpt>
      <trkpt lat="42.467375" lon="1.010359">
        <ele>1959.2</ele>
        <time>1970-01-01T10:38:53.000Z</time>
      </trkpt>
      <trkpt lat="42.46746" lon="1.01033">
        <ele>1960.4</ele>
        <time>1970-01-01T10:38:59.000Z</time>
      </trkpt>
      <trkpt lat="42.467549" lon="1.010345">
        <ele>1961.4</ele>
        <time>1970-01-01T10:39:06.000Z</time>
      </trkpt>
      <trkpt lat="42.467633" lon="1.010378">
        <ele>1962</ele>
        <time>1970-01-01T10:39:12.000Z</time>
      </trkpt>
      <trkpt lat="42.467655" lon="1.010401">
        <ele>1962.4</ele>
        <time>1970-01-01T10:39:14.000Z</time>
      </trkpt>
      <trkpt lat="42.467772" lon="1.010489">
        <ele>1963.6</ele>
        <time>1970-01-01T10:39:25.000Z</time>
      </trkpt>
      <trkpt lat="42.467881" lon="1.010594">
        <ele>1964.6</ele>
        <time>1970-01-01T10:39:35.000Z</time>
      </trkpt>
      <trkpt lat="42.467892" lon="1.010607">
        <ele>1964.8</ele>
        <time>1970-01-01T10:39:36.000Z</time>
      </trkpt>
      <trkpt lat="42.467933" lon="1.010657">
        <ele>1965</ele>
        <time>1970-01-01T10:39:40.000Z</time>
      </trkpt>
      <trkpt lat="42.467963" lon="1.010719">
        <ele>1965.6</ele>
        <time>1970-01-01T10:39:44.000Z</time>
      </trkpt>
      <trkpt lat="42.468031" lon="1.010844">
        <ele>1966.6</ele>
        <time>1970-01-01T10:39:53.000Z</time>
      </trkpt>
      <trkpt lat="42.46814" lon="1.010942">
        <ele>1967.8</ele>
        <time>1970-01-01T10:40:03.000Z</time>
      </trkpt>
      <trkpt lat="42.468223" lon="1.010997">
        <ele>1968.8</ele>
        <time>1970-01-01T10:40:10.000Z</time>
      </trkpt>
      <trkpt lat="42.468234" lon="1.011007">
        <ele>1968.8</ele>
        <time>1970-01-01T10:40:11.000Z</time>
      </trkpt>
      <trkpt lat="42.468339" lon="1.011117">
        <ele>1970</ele>
        <time>1970-01-01T10:40:21.000Z</time>
      </trkpt>
      <trkpt lat="42.468387" lon="1.011172">
        <ele>1971</ele>
        <time>1970-01-01T10:40:27.000Z</time>
      </trkpt>
      <trkpt lat="42.468438" lon="1.011271">
        <ele>1972</ele>
        <time>1970-01-01T10:40:35.000Z</time>
      </trkpt>
      <trkpt lat="42.468469" lon="1.01137">
        <ele>1973.2</ele>
        <time>1970-01-01T10:40:42.000Z</time>
      </trkpt>
      <trkpt lat="42.468476" lon="1.011457">
        <ele>1974.2</ele>
        <time>1970-01-01T10:40:48.000Z</time>
      </trkpt>
      <trkpt lat="42.468501" lon="1.011543">
        <ele>1975.2</ele>
        <time>1970-01-01T10:40:54.000Z</time>
      </trkpt>
      <trkpt lat="42.468528" lon="1.011629">
        <ele>1976.2</ele>
        <time>1970-01-01T10:41:01.000Z</time>
      </trkpt>
      <trkpt lat="42.46859" lon="1.011689">
        <ele>1977.2</ele>
        <time>1970-01-01T10:41:08.000Z</time>
      </trkpt>
      <trkpt lat="42.468648" lon="1.011741">
        <ele>1978.2</ele>
        <time>1970-01-01T10:41:15.000Z</time>
      </trkpt>
      <trkpt lat="42.468708" lon="1.011801">
        <ele>1979.4</ele>
        <time>1970-01-01T10:41:23.000Z</time>
      </trkpt>
      <trkpt lat="42.468716" lon="1.011866">
        <ele>1980.4</ele>
        <time>1970-01-01T10:41:28.000Z</time>
      </trkpt>
      <trkpt lat="42.468711" lon="1.011879">
        <ele>1980.4</ele>
        <time>1970-01-01T10:41:29.000Z</time>
      </trkpt>
      <trkpt lat="42.468652" lon="1.011928">
        <ele>1981.6</ele>
        <time>1970-01-01T10:41:35.000Z</time>
      </trkpt>
      <trkpt lat="42.468545" lon="1.011898">
        <ele>1982.4</ele>
        <time>1970-01-01T10:41:45.000Z</time>
      </trkpt>
      <trkpt lat="42.468533" lon="1.01189">
        <ele>1982.4</ele>
        <time>1970-01-01T10:41:46.000Z</time>
      </trkpt>
      <trkpt lat="42.468356" lon="1.011752">
        <ele>1983.4</ele>
        <time>1970-01-01T10:42:02.000Z</time>
      </trkpt>
      <trkpt lat="42.468242" lon="1.011628">
        <ele>1984.4</ele>
        <time>1970-01-01T10:42:13.000Z</time>
      </trkpt>
      <trkpt lat="42.468195" lon="1.011573">
        <ele>1985.4</ele>
        <time>1970-01-01T10:42:18.000Z</time>
      </trkpt>
      <trkpt lat="42.46812" lon="1.011484">
        <ele>1986.6</ele>
        <time>1970-01-01T10:42:27.000Z</time>
      </trkpt>
      <trkpt lat="42.468045" lon="1.011436">
        <ele>1987.6</ele>
        <time>1970-01-01T10:42:34.000Z</time>
      </trkpt>
      <trkpt lat="42.467994" lon="1.011413">
        <ele>1988.2</ele>
        <time>1970-01-01T10:42:39.000Z</time>
      </trkpt>
      <trkpt lat="42.467961" lon="1.011397">
        <ele>1988.6</ele>
        <time>1970-01-01T10:42:42.000Z</time>
      </trkpt>
      <trkpt lat="42.467893" lon="1.011342">
        <ele>1989.8</ele>
        <time>1970-01-01T10:42:48.000Z</time>
      </trkpt>
      <trkpt lat="42.467833" lon="1.011277">
        <ele>1990.8</ele>
        <time>1970-01-01T10:42:54.000Z</time>
      </trkpt>
      <trkpt lat="42.467789" lon="1.011215">
        <ele>1992</ele>
        <time>1970-01-01T10:42:59.000Z</time>
      </trkpt>
      <trkpt lat="42.467743" lon="1.011156">
        <ele>1992.8</ele>
        <time>1970-01-01T10:43:04.000Z</time>
      </trkpt>
      <trkpt lat="42.467646" lon="1.011051">
        <ele>1994</ele>
        <time>1970-01-01T10:43:14.000Z</time>
      </trkpt>
      <trkpt lat="42.467559" lon="1.011009">
        <ele>1995.2</ele>
        <time>1970-01-01T10:43:21.000Z</time>
      </trkpt>
      <trkpt lat="42.467496" lon="1.011004">
        <ele>1995.8</ele>
        <time>1970-01-01T10:43:26.000Z</time>
      </trkpt>
      <trkpt lat="42.467467" lon="1.011004">
        <ele>1996.2</ele>
        <time>1970-01-01T10:43:28.000Z</time>
      </trkpt>
      <trkpt lat="42.46743" lon="1.011016">
        <ele>1996.4</ele>
        <time>1970-01-01T10:43:31.000Z</time>
      </trkpt>
      <trkpt lat="42.467354" lon="1.011063">
        <ele>1997.2</ele>
        <time>1970-01-01T10:43:37.000Z</time>
      </trkpt>
      <trkpt lat="42.467251" lon="1.011188">
        <ele>1998.2</ele>
        <time>1970-01-01T10:43:47.000Z</time>
      </trkpt>
      <trkpt lat="42.467159" lon="1.011297">
        <ele>1999.4</ele>
        <time>1970-01-01T10:43:56.000Z</time>
      </trkpt>
      <trkpt lat="42.46704" lon="1.011439">
        <ele>2000.4</ele>
        <time>1970-01-01T10:44:08.000Z</time>
      </trkpt>
      <trkpt lat="42.466937" lon="1.011539">
        <ele>2001.6</ele>
        <time>1970-01-01T10:44:18.000Z</time>
      </trkpt>
      <trkpt lat="42.466824" lon="1.011605">
        <ele>2002.8</ele>
        <time>1970-01-01T10:44:28.000Z</time>
      </trkpt>
      <trkpt lat="42.466808" lon="1.011629">
        <ele>2003.2</ele>
        <time>1970-01-01T10:44:30.000Z</time>
      </trkpt>
      <trkpt lat="42.466762" lon="1.011655">
        <ele>2003.8</ele>
        <time>1970-01-01T10:44:34.000Z</time>
      </trkpt>
      <trkpt lat="42.466675" lon="1.011687">
        <ele>2004.6</ele>
        <time>1970-01-01T10:44:41.000Z</time>
      </trkpt>
      <trkpt lat="42.466572" lon="1.011696">
        <ele>2005.6</ele>
        <time>1970-01-01T10:44:49.000Z</time>
      </trkpt>
      <trkpt lat="42.466451" lon="1.011734">
        <ele>2006.8</ele>
        <time>1970-01-01T10:44:58.000Z</time>
      </trkpt>
      <trkpt lat="42.466425" lon="1.011797">
        <ele>2007.6</ele>
        <time>1970-01-01T10:45:07.000Z</time>
      </trkpt>
      <trkpt lat="42.466484" lon="1.011864">
        <ele>2008</ele>
        <time>1970-01-01T10:45:13.000Z</time>
      </trkpt>
      <trkpt lat="42.466535" lon="1.011879">
        <ele>2008.8</ele>
        <time>1970-01-01T10:45:17.000Z</time>
      </trkpt>
      <trkpt lat="42.466548" lon="1.011879">
        <ele>2009.2</ele>
        <time>1970-01-01T10:45:18.000Z</time>
      </trkpt>
      <trkpt lat="42.466593" lon="1.011887">
        <ele>2009.8</ele>
        <time>1970-01-01T10:45:22.000Z</time>
      </trkpt>
      <trkpt lat="42.466618" lon="1.011884">
        <ele>2010</ele>
        <time>1970-01-01T10:45:24.000Z</time>
      </trkpt>
      <trkpt lat="42.466674" lon="1.011853">
        <ele>2010.6</ele>
        <time>1970-01-01T10:45:29.000Z</time>
      </trkpt>
      <trkpt lat="42.466724" lon="1.01185">
        <ele>2011</ele>
        <time>1970-01-01T10:45:33.000Z</time>
      </trkpt>
      <trkpt lat="42.466748" lon="1.011848">
        <ele>2011.2</ele>
        <time>1970-01-01T10:45:35.000Z</time>
      </trkpt>
      <trkpt lat="42.466841" lon="1.011847">
        <ele>2012.2</ele>
        <time>1970-01-01T10:45:42.000Z</time>
      </trkpt>
      <trkpt lat="42.466911" lon="1.011832">
        <ele>2013.4</ele>
        <time>1970-01-01T10:45:48.000Z</time>
      </trkpt>
      <trkpt lat="42.466979" lon="1.011817">
        <ele>2014.2</ele>
        <time>1970-01-01T10:45:54.000Z</time>
      </trkpt>
      <trkpt lat="42.467014" lon="1.011796">
        <ele>2014.4</ele>
        <time>1970-01-01T10:45:57.000Z</time>
      </trkpt>
      <trkpt lat="42.46709" lon="1.011769">
        <ele>2015.2</ele>
        <time>1970-01-01T10:46:03.000Z</time>
      </trkpt>
      <trkpt lat="42.467233" lon="1.011745">
        <ele>2016.2</ele>
        <time>1970-01-01T10:46:13.000Z</time>
      </trkpt>
      <trkpt lat="42.467438" lon="1.011861">
        <ele>2017.2</ele>
        <time>1970-01-01T10:46:27.000Z</time>
      </trkpt>
      <trkpt lat="42.467451" lon="1.011874">
        <ele>2017.2</ele>
        <time>1970-01-01T10:46:28.000Z</time>
      </trkpt>
      <trkpt lat="42.467517" lon="1.01195">
        <ele>2018.6</ele>
        <time>1970-01-01T10:46:34.000Z</time>
      </trkpt>
      <trkpt lat="42.467547" lon="1.012051">
        <ele>2019.4</ele>
        <time>1970-01-01T10:46:40.000Z</time>
      </trkpt>
      <trkpt lat="42.467499" lon="1.01214">
        <ele>2020.4</ele>
        <time>1970-01-01T10:46:46.000Z</time>
      </trkpt>
      <trkpt lat="42.467404" lon="1.012129">
        <ele>2021.6</ele>
        <time>1970-01-01T10:46:53.000Z</time>
      </trkpt>
      <trkpt lat="42.46732" lon="1.012053">
        <ele>2022.6</ele>
        <time>1970-01-01T10:47:00.000Z</time>
      </trkpt>
      <trkpt lat="42.467178" lon="1.012014">
        <ele>2023.6</ele>
        <time>1970-01-01T10:47:10.000Z</time>
      </trkpt>
      <trkpt lat="42.46704" lon="1.012055">
        <ele>2024.8</ele>
        <time>1970-01-01T10:47:20.000Z</time>
      </trkpt>
      <trkpt lat="42.466979" lon="1.01209">
        <ele>2025.6</ele>
        <time>1970-01-01T10:47:25.000Z</time>
      </trkpt>
      <trkpt lat="42.466864" lon="1.012207">
        <ele>2026.6</ele>
        <time>1970-01-01T10:47:35.000Z</time>
      </trkpt>
      <trkpt lat="42.466751" lon="1.012281">
        <ele>2027.8</ele>
        <time>1970-01-01T10:47:44.000Z</time>
      </trkpt>
      <trkpt lat="42.466634" lon="1.012312">
        <ele>2028.8</ele>
        <time>1970-01-01T10:47:53.000Z</time>
      </trkpt>
      <trkpt lat="42.466584" lon="1.012326">
        <ele>2029.2</ele>
        <time>1970-01-01T10:47:57.000Z</time>
      </trkpt>
      <trkpt lat="42.466504" lon="1.012342">
        <ele>2029.6</ele>
        <time>1970-01-01T10:48:03.000Z</time>
      </trkpt>
      <trkpt lat="42.466398" lon="1.012381">
        <ele>2030.8</ele>
        <time>1970-01-01T10:48:11.000Z</time>
      </trkpt>
      <trkpt lat="42.466314" lon="1.012406">
        <ele>2031.8</ele>
        <time>1970-01-01T10:48:17.000Z</time>
      </trkpt>
      <trkpt lat="42.466183" lon="1.01241">
        <ele>2032.8</ele>
        <time>1970-01-01T10:48:27.000Z</time>
      </trkpt>
      <trkpt lat="42.466095" lon="1.012391">
        <ele>2033.8</ele>
        <time>1970-01-01T10:48:34.000Z</time>
      </trkpt>
      <trkpt lat="42.46593" lon="1.012334">
        <ele>2034.8</ele>
        <time>1970-01-01T10:48:46.000Z</time>
      </trkpt>
      <trkpt lat="42.465801" lon="1.012301">
        <ele>2035.8</ele>
        <time>1970-01-01T10:48:55.000Z</time>
      </trkpt>
      <trkpt lat="42.465733" lon="1.0123">
        <ele>2036.8</ele>
        <time>1970-01-01T10:49:00.000Z</time>
      </trkpt>
      <trkpt lat="42.465595" lon="1.012338">
        <ele>2038</ele>
        <time>1970-01-01T10:49:09.000Z</time>
      </trkpt>
      <trkpt lat="42.465505" lon="1.012401">
        <ele>2039.2</ele>
        <time>1970-01-01T10:49:17.000Z</time>
      </trkpt>
      <trkpt lat="42.465476" lon="1.012499">
        <ele>2040.2</ele>
        <time>1970-01-01T10:49:23.000Z</time>
      </trkpt>
      <trkpt lat="42.465511" lon="1.012606">
        <ele>2041.2</ele>
        <time>1970-01-01T10:49:30.000Z</time>
      </trkpt>
      <trkpt lat="42.465529" lon="1.012631">
        <ele>2041.4</ele>
        <time>1970-01-01T10:49:32.000Z</time>
      </trkpt>
      <trkpt lat="42.465569" lon="1.012647">
        <ele>2042.2</ele>
        <time>1970-01-01T10:49:35.000Z</time>
      </trkpt>
      <trkpt lat="42.465685" lon="1.012656">
        <ele>2043.4</ele>
        <time>1970-01-01T10:49:43.000Z</time>
      </trkpt>
      <trkpt lat="42.465798" lon="1.012678">
        <ele>2043.8</ele>
        <time>1970-01-01T10:49:51.000Z</time>
      </trkpt>
      <trkpt lat="42.465849" lon="1.012714">
        <ele>2044.2</ele>
        <time>1970-01-01T10:49:55.000Z</time>
      </trkpt>
      <trkpt lat="42.465872" lon="1.012732">
        <ele>2044.4</ele>
        <time>1970-01-01T10:49:57.000Z</time>
      </trkpt>
      <trkpt lat="42.465924" lon="1.012773">
        <ele>2044.8</ele>
        <time>1970-01-01T10:50:01.000Z</time>
      </trkpt>
      <trkpt lat="42.466009" lon="1.012829">
        <ele>2045.4</ele>
        <time>1970-01-01T10:50:07.000Z</time>
      </trkpt>
      <trkpt lat="42.466034" lon="1.012847">
        <ele>2045.8</ele>
        <time>1970-01-01T10:50:09.000Z</time>
      </trkpt>
      <trkpt lat="42.466091" lon="1.012859">
        <ele>2046.2</ele>
        <time>1970-01-01T10:50:13.000Z</time>
      </trkpt>
      <trkpt lat="42.466121" lon="1.01286">
        <ele>2046.4</ele>
        <time>1970-01-01T10:50:15.000Z</time>
      </trkpt>
      <trkpt lat="42.466232" lon="1.012882">
        <ele>2047.4</ele>
        <time>1970-01-01T10:50:23.000Z</time>
      </trkpt>
      <trkpt lat="42.466349" lon="1.012941">
        <ele>2048.4</ele>
        <time>1970-01-01T10:50:32.000Z</time>
      </trkpt>
      <trkpt lat="42.466429" lon="1.012994">
        <ele>2049.4</ele>
        <time>1970-01-01T10:50:38.000Z</time>
      </trkpt>
      <trkpt lat="42.466546" lon="1.013004">
        <ele>2050.4</ele>
        <time>1970-01-01T10:50:46.000Z</time>
      </trkpt>
      <trkpt lat="42.466659" lon="1.012998">
        <ele>2051.2</ele>
        <time>1970-01-01T10:50:54.000Z</time>
      </trkpt>
      <trkpt lat="42.466792" lon="1.013006">
        <ele>2052.2</ele>
        <time>1970-01-01T10:51:03.000Z</time>
      </trkpt>
      <trkpt lat="42.46695" lon="1.013027">
        <ele>2053.4</ele>
        <time>1970-01-01T10:51:14.000Z</time>
      </trkpt>
      <trkpt lat="42.467035" lon="1.013023">
        <ele>2054.4</ele>
        <time>1970-01-01T10:51:20.000Z</time>
      </trkpt>
      <trkpt lat="42.467142" lon="1.013006">
        <ele>2055.6</ele>
        <time>1970-01-01T10:51:28.000Z</time>
      </trkpt>
      <trkpt lat="42.467271" lon="1.012961">
        <ele>2056.4</ele>
        <time>1970-01-01T10:51:38.000Z</time>
      </trkpt>
      <trkpt lat="42.467368" lon="1.013015">
        <ele>2057</ele>
        <time>1970-01-01T10:51:47.000Z</time>
      </trkpt>
      <trkpt lat="42.467337" lon="1.013105">
        <ele>2057.6</ele>
        <time>1970-01-01T10:51:52.000Z</time>
      </trkpt>
      <trkpt lat="42.467261" lon="1.013149">
        <ele>2058.4</ele>
        <time>1970-01-01T10:51:57.000Z</time>
      </trkpt>
      <trkpt lat="42.467229" lon="1.013142">
        <ele>2058.6</ele>
        <time>1970-01-01T10:51:59.000Z</time>
      </trkpt>
      <trkpt lat="42.467113" lon="1.013152">
        <ele>2059.4</ele>
        <time>1970-01-01T10:52:06.000Z</time>
      </trkpt>
      <trkpt lat="42.46705" lon="1.013186">
        <ele>2059.8</ele>
        <time>1970-01-01T10:52:10.000Z</time>
      </trkpt>
      <trkpt lat="42.466948" lon="1.013242">
        <ele>2060</ele>
        <time>1970-01-01T10:52:19.000Z</time>
      </trkpt>
      <trkpt lat="42.466916" lon="1.013263">
        <ele>2060.6</ele>
        <time>1970-01-01T10:52:22.000Z</time>
      </trkpt>
      <trkpt lat="42.466764" lon="1.013323">
        <ele>2061.6</ele>
        <time>1970-01-01T10:52:35.000Z</time>
      </trkpt>
      <trkpt lat="42.466632" lon="1.013371">
        <ele>2062.4</ele>
        <time>1970-01-01T10:52:45.000Z</time>
      </trkpt>
      <trkpt lat="42.466548" lon="1.013415">
        <ele>2063.4</ele>
        <time>1970-01-01T10:52:51.000Z</time>
      </trkpt>
      <trkpt lat="42.466427" lon="1.01349">
        <ele>2064.4</ele>
        <time>1970-01-01T10:53:00.000Z</time>
      </trkpt>
      <trkpt lat="42.466378" lon="1.013537">
        <ele>2064.4</ele>
        <time>1970-01-01T10:53:04.000Z</time>
      </trkpt>
      <trkpt lat="42.466364" lon="1.013546">
        <ele>2064.6</ele>
        <time>1970-01-01T10:53:05.000Z</time>
      </trkpt>
      <trkpt lat="42.466337" lon="1.013559">
        <ele>2064.8</ele>
        <time>1970-01-01T10:53:07.000Z</time>
      </trkpt>
      <trkpt lat="42.466282" lon="1.013595">
        <ele>2065.6</ele>
        <time>1970-01-01T10:53:12.000Z</time>
      </trkpt>
      <trkpt lat="42.466204" lon="1.013643">
        <ele>2066.4</ele>
        <time>1970-01-01T10:53:20.000Z</time>
      </trkpt>
      <trkpt lat="42.466183" lon="1.013649">
        <ele>2066.4</ele>
        <time>1970-01-01T10:53:22.000Z</time>
      </trkpt>
      <trkpt lat="42.466094" lon="1.013764">
        <ele>2067.4</ele>
        <time>1970-01-01T10:53:31.000Z</time>
      </trkpt>
      <trkpt lat="42.466004" lon="1.013893">
        <ele>2068.4</ele>
        <time>1970-01-01T10:53:40.000Z</time>
      </trkpt>
      <trkpt lat="42.4659" lon="1.013983">
        <ele>2069.4</ele>
        <time>1970-01-01T10:53:48.000Z</time>
      </trkpt>
      <trkpt lat="42.465805" lon="1.014047">
        <ele>2070.2</ele>
        <time>1970-01-01T10:53:55.000Z</time>
      </trkpt>
      <trkpt lat="42.465687" lon="1.014088">
        <ele>2071.4</ele>
        <time>1970-01-01T10:54:03.000Z</time>
      </trkpt>
      <trkpt lat="42.465575" lon="1.014128">
        <ele>2072.6</ele>
        <time>1970-01-01T10:54:11.000Z</time>
      </trkpt>
      <trkpt lat="42.465545" lon="1.014186">
        <ele>2072.8</ele>
        <time>1970-01-01T10:54:15.000Z</time>
      </trkpt>
      <trkpt lat="42.465558" lon="1.014258">
        <ele>2073.4</ele>
        <time>1970-01-01T10:54:19.000Z</time>
      </trkpt>
      <trkpt lat="42.46562" lon="1.0143">
        <ele>2074.4</ele>
        <time>1970-01-01T10:54:24.000Z</time>
      </trkpt>
      <trkpt lat="42.465739" lon="1.014292">
        <ele>2075.6</ele>
        <time>1970-01-01T10:54:32.000Z</time>
      </trkpt>
      <trkpt lat="42.46589" lon="1.014254">
        <ele>2076.6</ele>
        <time>1970-01-01T10:54:42.000Z</time>
      </trkpt>
      <trkpt lat="42.466038" lon="1.014254">
        <ele>2077.6</ele>
        <time>1970-01-01T10:54:52.000Z</time>
      </trkpt>
      <trkpt lat="42.466218" lon="1.014261">
        <ele>2078.6</ele>
        <time>1970-01-01T10:55:04.000Z</time>
      </trkpt>
      <trkpt lat="42.466322" lon="1.014293">
        <ele>2079.6</ele>
        <time>1970-01-01T10:55:11.000Z</time>
      </trkpt>
      <trkpt lat="42.466475" lon="1.014324">
        <ele>2080.4</ele>
        <time>1970-01-01T10:55:21.000Z</time>
      </trkpt>
      <trkpt lat="42.466626" lon="1.014332">
        <ele>2081.6</ele>
        <time>1970-01-01T10:55:31.000Z</time>
      </trkpt>
      <trkpt lat="42.466755" lon="1.014298">
        <ele>2082.8</ele>
        <time>1970-01-01T10:55:39.000Z</time>
      </trkpt>
      <trkpt lat="42.46686" lon="1.014259">
        <ele>2083.8</ele>
        <time>1970-01-01T10:55:46.000Z</time>
      </trkpt>
      <trkpt lat="42.467055" lon="1.014191">
        <ele>2084.6</ele>
        <time>1970-01-01T10:55:58.000Z</time>
      </trkpt>
      <trkpt lat="42.467151" lon="1.014193">
        <ele>2085.6</ele>
        <time>1970-01-01T10:56:04.000Z</time>
      </trkpt>
      <trkpt lat="42.467258" lon="1.014167">
        <ele>2086.6</ele>
        <time>1970-01-01T10:56:11.000Z</time>
      </trkpt>
      <trkpt lat="42.467377" lon="1.014113">
        <ele>2088</ele>
        <time>1970-01-01T10:56:19.000Z</time>
      </trkpt>
      <trkpt lat="42.467407" lon="1.014106">
        <ele>2088.2</ele>
        <time>1970-01-01T10:56:21.000Z</time>
      </trkpt>
      <trkpt lat="42.467483" lon="1.0141">
        <ele>2089</ele>
        <time>1970-01-01T10:56:26.000Z</time>
      </trkpt>
      <trkpt lat="42.467584" lon="1.014047">
        <ele>2090</ele>
        <time>1970-01-01T10:56:33.000Z</time>
      </trkpt>
      <trkpt lat="42.46771" lon="1.013985">
        <ele>2091.2</ele>
        <time>1970-01-01T10:56:42.000Z</time>
      </trkpt>
      <trkpt lat="42.46775" lon="1.014003">
        <ele>2091.8</ele>
        <time>1970-01-01T10:56:45.000Z</time>
      </trkpt>
      <trkpt lat="42.467774" lon="1.014053">
        <ele>2092.2</ele>
        <time>1970-01-01T10:56:48.000Z</time>
      </trkpt>
      <trkpt lat="42.467738" lon="1.014205">
        <ele>2092.8</ele>
        <time>1970-01-01T10:56:56.000Z</time>
      </trkpt>
      <trkpt lat="42.46771" lon="1.01423">
        <ele>2093</ele>
        <time>1970-01-01T10:56:58.000Z</time>
      </trkpt>
      <trkpt lat="42.46763" lon="1.014283">
        <ele>2094</ele>
        <time>1970-01-01T10:57:03.000Z</time>
      </trkpt>
      <trkpt lat="42.467476" lon="1.01442">
        <ele>2095</ele>
        <time>1970-01-01T10:57:14.000Z</time>
      </trkpt>
      <trkpt lat="42.467392" lon="1.014515">
        <ele>2096</ele>
        <time>1970-01-01T10:57:21.000Z</time>
      </trkpt>
      <trkpt lat="42.46738" lon="1.014522">
        <ele>2096</ele>
        <time>1970-01-01T10:57:22.000Z</time>
      </trkpt>
      <trkpt lat="42.467252" lon="1.014631">
        <ele>2097.2</ele>
        <time>1970-01-01T10:57:32.000Z</time>
      </trkpt>
      <trkpt lat="42.46718" lon="1.014733">
        <ele>2098</ele>
        <time>1970-01-01T10:57:41.000Z</time>
      </trkpt>
      <trkpt lat="42.467059" lon="1.014865">
        <ele>2099</ele>
        <time>1970-01-01T10:57:53.000Z</time>
      </trkpt>
      <trkpt lat="42.466957" lon="1.014956">
        <ele>2099.8</ele>
        <time>1970-01-01T10:58:02.000Z</time>
      </trkpt>
      <trkpt lat="42.46684" lon="1.015075">
        <ele>2101</ele>
        <time>1970-01-01T10:58:12.000Z</time>
      </trkpt>
      <trkpt lat="42.466714" lon="1.015162">
        <ele>2102</ele>
        <time>1970-01-01T10:58:22.000Z</time>
      </trkpt>
      <trkpt lat="42.466589" lon="1.015216">
        <ele>2103</ele>
        <time>1970-01-01T10:58:32.000Z</time>
      </trkpt>
      <trkpt lat="42.466482" lon="1.015274">
        <ele>2104</ele>
        <time>1970-01-01T10:58:41.000Z</time>
      </trkpt>
      <trkpt lat="42.466372" lon="1.015361">
        <ele>2105</ele>
        <time>1970-01-01T10:58:50.000Z</time>
      </trkpt>
      <trkpt lat="42.466207" lon="1.015483">
        <ele>2106.2</ele>
        <time>1970-01-01T10:59:01.000Z</time>
      </trkpt>
      <trkpt lat="42.466109" lon="1.015533">
        <ele>2107.4</ele>
        <time>1970-01-01T10:59:08.000Z</time>
      </trkpt>
      <trkpt lat="42.465963" lon="1.015603">
        <ele>2108.4</ele>
        <time>1970-01-01T10:59:18.000Z</time>
      </trkpt>
      <trkpt lat="42.46581" lon="1.015679">
        <ele>2109.2</ele>
        <time>1970-01-01T10:59:28.000Z</time>
      </trkpt>
      <trkpt lat="42.465735" lon="1.015782">
        <ele>2109.8</ele>
        <time>1970-01-01T10:59:34.000Z</time>
      </trkpt>
      <trkpt lat="42.465713" lon="1.015818">
        <ele>2110.2</ele>
        <time>1970-01-01T10:59:36.000Z</time>
      </trkpt>
      <trkpt lat="42.465685" lon="1.015845">
        <ele>2110.4</ele>
        <time>1970-01-01T10:59:38.000Z</time>
      </trkpt>
      <trkpt lat="42.465506" lon="1.015985">
        <ele>2111.4</ele>
        <time>1970-01-01T10:59:50.000Z</time>
      </trkpt>
      <trkpt lat="42.465354" lon="1.01604">
        <ele>2111.8</ele>
        <time>1970-01-01T11:00:00.000Z</time>
      </trkpt>
      <trkpt lat="42.465308" lon="1.016049">
        <ele>2112.4</ele>
        <time>1970-01-01T11:00:03.000Z</time>
      </trkpt>
      <trkpt lat="42.465206" lon="1.016165">
        <ele>2113.4</ele>
        <time>1970-01-01T11:00:11.000Z</time>
      </trkpt>
      <trkpt lat="42.465193" lon="1.016213">
        <ele>2113.6</ele>
        <time>1970-01-01T11:00:13.000Z</time>
      </trkpt>
      <trkpt lat="42.465123" lon="1.016381">
        <ele>2114.4</ele>
        <time>1970-01-01T11:00:22.000Z</time>
      </trkpt>
      <trkpt lat="42.465111" lon="1.016452">
        <ele>2115.6</ele>
        <time>1970-01-01T11:00:26.000Z</time>
      </trkpt>
      <trkpt lat="42.465131" lon="1.016633">
        <ele>2116.6</ele>
        <time>1970-01-01T11:00:35.000Z</time>
      </trkpt>
      <trkpt lat="42.46514" lon="1.016697">
        <ele>2116.6</ele>
        <time>1970-01-01T11:00:38.000Z</time>
      </trkpt>
      <trkpt lat="42.465141" lon="1.016776">
        <ele>2117.4</ele>
        <time>1970-01-01T11:00:42.000Z</time>
      </trkpt>
      <trkpt lat="42.46512" lon="1.016943">
        <ele>2118.6</ele>
        <time>1970-01-01T11:00:50.000Z</time>
      </trkpt>
      <trkpt lat="42.465083" lon="1.017071">
        <ele>2119.6</ele>
        <time>1970-01-01T11:00:57.000Z</time>
      </trkpt>
      <trkpt lat="42.465044" lon="1.017188">
        <ele>2120.8</ele>
        <time>1970-01-01T11:01:04.000Z</time>
      </trkpt>
      <trkpt lat="42.465002" lon="1.01736">
        <ele>2121.8</ele>
        <time>1970-01-01T11:01:13.000Z</time>
      </trkpt>
      <trkpt lat="42.464915" lon="1.017545">
        <ele>2122.6</ele>
        <time>1970-01-01T11:01:22.000Z</time>
      </trkpt>
      <trkpt lat="42.464877" lon="1.017592">
        <ele>2123.8</ele>
        <time>1970-01-01T11:01:25.000Z</time>
      </trkpt>
      <trkpt lat="42.46483" lon="1.017651">
        <ele>2124.8</ele>
        <time>1970-01-01T11:01:29.000Z</time>
      </trkpt>
      <trkpt lat="42.464767" lon="1.017712">
        <ele>2126.2</ele>
        <time>1970-01-01T11:01:34.000Z</time>
      </trkpt>
      <trkpt lat="42.464727" lon="1.017768">
        <ele>2126.8</ele>
        <time>1970-01-01T11:01:39.000Z</time>
      </trkpt>
      <trkpt lat="42.464753" lon="1.017816">
        <ele>2126.6</ele>
        <time>1970-01-01T11:01:45.000Z</time>
      </trkpt>
      <trkpt lat="42.464769" lon="1.017819">
        <ele>2126.8</ele>
        <time>1970-01-01T11:02:17.000Z</time>
      </trkpt>
      <trkpt lat="42.464798" lon="1.017855">
        <ele>2126.4</ele>
        <time>1970-01-01T11:02:21.000Z</time>
      </trkpt>
      <trkpt lat="42.464853" lon="1.017794">
        <ele>2126.8</ele>
        <time>1970-01-01T11:07:17.000Z</time>
      </trkpt>
      <trkpt lat="42.464996" lon="1.017696">
        <ele>2127.8</ele>
        <time>1970-01-01T11:07:27.000Z</time>
      </trkpt>
      <trkpt lat="42.465002" lon="1.017688">
        <ele>2127.8</ele>
        <time>1970-01-01T11:07:29.000Z</time>
      </trkpt>
      <trkpt lat="42.464967" lon="1.017724">
        <ele>2127.8</ele>
        <time>1970-01-01T11:07:35.000Z</time>
      </trkpt>
      <trkpt lat="42.464806" lon="1.017794">
        <ele>2127</ele>
        <time>1970-01-01T11:07:42.000Z</time>
      </trkpt>
      <trkpt lat="42.464775" lon="1.017819">
        <ele>2126.4</ele>
        <time>1970-01-01T11:07:44.000Z</time>
      </trkpt>
      <trkpt lat="42.464759" lon="1.017901">
        <ele>2125.8</ele>
        <time>1970-01-01T11:07:48.000Z</time>
      </trkpt>
      <trkpt lat="42.464776" lon="1.017943">
        <ele>2125.4</ele>
        <time>1970-01-01T11:07:50.000Z</time>
      </trkpt>
      <trkpt lat="42.464841" lon="1.018097">
        <ele>2124.2</ele>
        <time>1970-01-01T11:07:56.000Z</time>
      </trkpt>
      <trkpt lat="42.464961" lon="1.018261">
        <ele>2123.2</ele>
        <time>1970-01-01T11:08:01.000Z</time>
      </trkpt>
      <trkpt lat="42.465105" lon="1.018408">
        <ele>2122</ele>
        <time>1970-01-01T11:08:05.000Z</time>
      </trkpt>
      <trkpt lat="42.46526" lon="1.018565">
        <ele>2121</ele>
        <time>1970-01-01T11:08:09.000Z</time>
      </trkpt>
      <trkpt lat="42.465274" lon="1.018616">
        <ele>2120.8</ele>
        <time>1970-01-01T11:08:10.000Z</time>
      </trkpt>
      <trkpt lat="42.465194" lon="1.018723">
        <ele>2119.8</ele>
        <time>1970-01-01T11:08:14.000Z</time>
      </trkpt>
      <trkpt lat="42.465074" lon="1.018669">
        <ele>2118.8</ele>
        <time>1970-01-01T11:08:17.000Z</time>
      </trkpt>
      <trkpt lat="42.465034" lon="1.018653">
        <ele>2118.4</ele>
        <time>1970-01-01T11:08:18.000Z</time>
      </trkpt>
      <trkpt lat="42.464874" lon="1.018603">
        <ele>2117.2</ele>
        <time>1970-01-01T11:08:22.000Z</time>
      </trkpt>
      <trkpt lat="42.46474" lon="1.018577">
        <ele>2116</ele>
        <time>1970-01-01T11:08:25.000Z</time>
      </trkpt>
      <trkpt lat="42.46436" lon="1.018532">
        <ele>2114.8</ele>
        <time>1970-01-01T11:08:32.000Z</time>
      </trkpt>
      <trkpt lat="42.464233" lon="1.018544">
        <ele>2114</ele>
        <time>1970-01-01T11:08:34.000Z</time>
      </trkpt>
      <trkpt lat="42.46417" lon="1.018573">
        <ele>2113.8</ele>
        <time>1970-01-01T11:08:35.000Z</time>
      </trkpt>
      <trkpt lat="42.464007" lon="1.018692">
        <ele>2112.6</ele>
        <time>1970-01-01T11:08:38.000Z</time>
      </trkpt>
      <trkpt lat="42.463918" lon="1.018765">
        <ele>2111.4</ele>
        <time>1970-01-01T11:08:41.000Z</time>
      </trkpt>
      <trkpt lat="42.463731" lon="1.018892">
        <ele>2110.2</ele>
        <time>1970-01-01T11:08:46.000Z</time>
      </trkpt>
      <trkpt lat="42.463626" lon="1.018939">
        <ele>2109.6</ele>
        <time>1970-01-01T11:08:48.000Z</time>
      </trkpt>
      <trkpt lat="42.463443" lon="1.018984">
        <ele>2108.8</ele>
        <time>1970-01-01T11:08:51.000Z</time>
      </trkpt>
      <trkpt lat="42.463243" lon="1.019038">
        <ele>2107.6</ele>
        <time>1970-01-01T11:08:54.000Z</time>
      </trkpt>
      <trkpt lat="42.46318" lon="1.019046">
        <ele>2107.2</ele>
        <time>1970-01-01T11:08:55.000Z</time>
      </trkpt>
      <trkpt lat="42.463066" lon="1.019008">
        <ele>2106.2</ele>
        <time>1970-01-01T11:08:57.000Z</time>
      </trkpt>
      <trkpt lat="42.462959" lon="1.018937">
        <ele>2105.4</ele>
        <time>1970-01-01T11:08:59.000Z</time>
      </trkpt>
      <trkpt lat="42.462897" lon="1.018918">
        <ele>2104.8</ele>
        <time>1970-01-01T11:09:00.000Z</time>
      </trkpt>
      <trkpt lat="42.462763" lon="1.018931">
        <ele>2102.8</ele>
        <time>1970-01-01T11:09:02.000Z</time>
      </trkpt>
      <trkpt lat="42.462634" lon="1.019022">
        <ele>2101.2</ele>
        <time>1970-01-01T11:09:04.000Z</time>
      </trkpt>
      <trkpt lat="42.462509" lon="1.019259">
        <ele>2100.2</ele>
        <time>1970-01-01T11:09:07.000Z</time>
      </trkpt>
      <trkpt lat="42.462447" lon="1.019408">
        <ele>2099.6</ele>
        <time>1970-01-01T11:09:09.000Z</time>
      </trkpt>
      <trkpt lat="42.462424" lon="1.019486">
        <ele>2098.8</ele>
        <time>1970-01-01T11:09:10.000Z</time>
      </trkpt>
      <trkpt lat="42.462416" lon="1.019651">
        <ele>2097.6</ele>
        <time>1970-01-01T11:09:12.000Z</time>
      </trkpt>
      <trkpt lat="42.462409" lon="1.019728">
        <ele>2097.4</ele>
        <time>1970-01-01T11:09:13.000Z</time>
      </trkpt>
      <trkpt lat="42.462317" lon="1.019869">
        <ele>2096.4</ele>
        <time>1970-01-01T11:09:16.000Z</time>
      </trkpt>
      <trkpt lat="42.462161" lon="1.019917">
        <ele>2095.2</ele>
        <time>1970-01-01T11:09:19.000Z</time>
      </trkpt>
      <trkpt lat="42.462103" lon="1.019933">
        <ele>2094.4</ele>
        <time>1970-01-01T11:09:20.000Z</time>
      </trkpt>
      <trkpt lat="42.462044" lon="1.019958">
        <ele>2094</ele>
        <time>1970-01-01T11:09:21.000Z</time>
      </trkpt>
      <trkpt lat="42.461926" lon="1.020034">
        <ele>2092.8</ele>
        <time>1970-01-01T11:09:23.000Z</time>
      </trkpt>
      <trkpt lat="42.461865" lon="1.020074">
        <ele>2092.4</ele>
        <time>1970-01-01T11:09:24.000Z</time>
      </trkpt>
      <trkpt lat="42.461805" lon="1.020114">
        <ele>2092</ele>
        <time>1970-01-01T11:09:25.000Z</time>
      </trkpt>
      <trkpt lat="42.461754" lon="1.020156">
        <ele>2091.8</ele>
        <time>1970-01-01T11:09:26.000Z</time>
      </trkpt>
      <trkpt lat="42.461701" lon="1.020219">
        <ele>2091.2</ele>
        <time>1970-01-01T11:09:30.000Z</time>
      </trkpt>
      <trkpt lat="42.461678" lon="1.020212">
        <ele>2090.8</ele>
        <time>1970-01-01T11:10:57.000Z</time>
      </trkpt>
      <trkpt lat="42.461609" lon="1.020272">
        <ele>2090.2</ele>
        <time>1970-01-01T11:11:00.000Z</time>
      </trkpt>
      <trkpt lat="42.461559" lon="1.020311">
        <ele>2089.8</ele>
        <time>1970-01-01T11:11:02.000Z</time>
      </trkpt>
      <trkpt lat="42.461435" lon="1.020384">
        <ele>2089</ele>
        <time>1970-01-01T11:11:06.000Z</time>
      </trkpt>
      <trkpt lat="42.461259" lon="1.020474">
        <ele>2088.2</ele>
        <time>1970-01-01T11:11:10.000Z</time>
      </trkpt>
      <trkpt lat="42.461161" lon="1.020514">
        <ele>2087.8</ele>
        <time>1970-01-01T11:11:12.000Z</time>
      </trkpt>
      <trkpt lat="42.461056" lon="1.020532">
        <ele>2086.4</ele>
        <time>1970-01-01T11:11:14.000Z</time>
      </trkpt>
      <trkpt lat="42.460944" lon="1.020558">
        <ele>2085.4</ele>
        <time>1970-01-01T11:11:16.000Z</time>
      </trkpt>
      <trkpt lat="42.460701" lon="1.020637">
        <ele>2084.2</ele>
        <time>1970-01-01T11:11:20.000Z</time>
      </trkpt>
      <trkpt lat="42.460638" lon="1.02067">
        <ele>2083.6</ele>
        <time>1970-01-01T11:11:21.000Z</time>
      </trkpt>
      <trkpt lat="42.460573" lon="1.020703">
        <ele>2083</ele>
        <time>1970-01-01T11:11:22.000Z</time>
      </trkpt>
      <trkpt lat="42.460439" lon="1.020758">
        <ele>2082</ele>
        <time>1970-01-01T11:11:24.000Z</time>
      </trkpt>
      <trkpt lat="42.460375" lon="1.020791">
        <ele>2081.6</ele>
        <time>1970-01-01T11:11:25.000Z</time>
      </trkpt>
      <trkpt lat="42.460311" lon="1.020838">
        <ele>2080.6</ele>
        <time>1970-01-01T11:11:26.000Z</time>
      </trkpt>
      <trkpt lat="42.460151" lon="1.021026">
        <ele>2079.6</ele>
        <time>1970-01-01T11:11:29.000Z</time>
      </trkpt>
      <trkpt lat="42.459988" lon="1.021249">
        <ele>2078.2</ele>
        <time>1970-01-01T11:11:32.000Z</time>
      </trkpt>
      <trkpt lat="42.459878" lon="1.021398">
        <ele>2077.2</ele>
        <time>1970-01-01T11:11:34.000Z</time>
      </trkpt>
      <trkpt lat="42.459775" lon="1.021563">
        <ele>2076</ele>
        <time>1970-01-01T11:11:37.000Z</time>
      </trkpt>
      <trkpt lat="42.459716" lon="1.021664">
        <ele>2075</ele>
        <time>1970-01-01T11:11:39.000Z</time>
      </trkpt>
      <trkpt lat="42.459684" lon="1.021709">
        <ele>2074.6</ele>
        <time>1970-01-01T11:11:40.000Z</time>
      </trkpt>
      <trkpt lat="42.459625" lon="1.021796">
        <ele>2073.4</ele>
        <time>1970-01-01T11:11:42.000Z</time>
      </trkpt>
      <trkpt lat="42.459577" lon="1.021868">
        <ele>2072.4</ele>
        <time>1970-01-01T11:11:44.000Z</time>
      </trkpt>
      <trkpt lat="42.459497" lon="1.021986">
        <ele>2071.2</ele>
        <time>1970-01-01T11:11:48.000Z</time>
      </trkpt>
      <trkpt lat="42.459485" lon="1.022024">
        <ele>2070.8</ele>
        <time>1970-01-01T11:11:51.000Z</time>
      </trkpt>
      <trkpt lat="42.459453" lon="1.022077">
        <ele>2070.6</ele>
        <time>1970-01-01T11:12:13.000Z</time>
      </trkpt>
      <trkpt lat="42.459379" lon="1.022215">
        <ele>2070</ele>
        <time>1970-01-01T11:12:17.000Z</time>
      </trkpt>
      <trkpt lat="42.459226" lon="1.022516">
        <ele>2068.8</ele>
        <time>1970-01-01T11:12:22.000Z</time>
      </trkpt>
      <trkpt lat="42.459115" lon="1.022732">
        <ele>2067.4</ele>
        <time>1970-01-01T11:12:25.000Z</time>
      </trkpt>
      <trkpt lat="42.459079" lon="1.022809">
        <ele>2066.8</ele>
        <time>1970-01-01T11:12:26.000Z</time>
      </trkpt>
      <trkpt lat="42.45905" lon="1.022885">
        <ele>2066.4</ele>
        <time>1970-01-01T11:12:27.000Z</time>
      </trkpt>
      <trkpt lat="42.458959" lon="1.023193">
        <ele>2065.6</ele>
        <time>1970-01-01T11:12:31.000Z</time>
      </trkpt>
      <trkpt lat="42.458922" lon="1.023277">
        <ele>2065.2</ele>
        <time>1970-01-01T11:12:32.000Z</time>
      </trkpt>
      <trkpt lat="42.458837" lon="1.023451">
        <ele>2063.8</ele>
        <time>1970-01-01T11:12:34.000Z</time>
      </trkpt>
      <trkpt lat="42.458722" lon="1.023696">
        <ele>2062.6</ele>
        <time>1970-01-01T11:12:37.000Z</time>
      </trkpt>
      <trkpt lat="42.458607" lon="1.023913">
        <ele>2061</ele>
        <time>1970-01-01T11:12:40.000Z</time>
      </trkpt>
      <trkpt lat="42.458547" lon="1.024011">
        <ele>2059.8</ele>
        <time>1970-01-01T11:12:42.000Z</time>
      </trkpt>
      <trkpt lat="42.458519" lon="1.024087">
        <ele>2058.4</ele>
        <time>1970-01-01T11:12:44.000Z</time>
      </trkpt>
      <trkpt lat="42.458519" lon="1.024119">
        <ele>2057.8</ele>
        <time>1970-01-01T11:12:45.000Z</time>
      </trkpt>
      <trkpt lat="42.458531" lon="1.024144">
        <ele>2057.4</ele>
        <time>1970-01-01T11:12:46.000Z</time>
      </trkpt>
      <trkpt lat="42.458595" lon="1.024084">
        <ele>2056.4</ele>
        <time>1970-01-01T11:12:51.000Z</time>
      </trkpt>
      <trkpt lat="42.458628" lon="1.024043">
        <ele>2056.2</ele>
        <time>1970-01-01T11:12:53.000Z</time>
      </trkpt>
      <trkpt lat="42.458954" lon="1.023683">
        <ele>2055.8</ele>
        <time>1970-01-01T11:13:09.000Z</time>
      </trkpt>
      <trkpt lat="42.458969" lon="1.023659">
        <ele>2055.8</ele>
        <time>1970-01-01T11:13:26.000Z</time>
      </trkpt>
      <trkpt lat="42.4592" lon="1.023369">
        <ele>2055.6</ele>
        <time>1970-01-01T11:13:35.000Z</time>
      </trkpt>
      <trkpt lat="42.459566" lon="1.022819">
        <ele>2055.2</ele>
        <time>1970-01-01T11:13:46.000Z</time>
      </trkpt>
      <trkpt lat="42.459703" lon="1.02269">
        <ele>2055</ele>
        <time>1970-01-01T11:13:49.000Z</time>
      </trkpt>
      <trkpt lat="42.460169" lon="1.022269">
        <ele>2054.4</ele>
        <time>1970-01-01T11:13:59.000Z</time>
      </trkpt>
      <trkpt lat="42.460516" lon="1.021946">
        <ele>2054</ele>
        <time>1970-01-01T11:14:06.000Z</time>
      </trkpt>
      <trkpt lat="42.461029" lon="1.021703">
        <ele>2054</ele>
        <time>1970-01-01T11:14:15.000Z</time>
      </trkpt>
      <trkpt lat="42.461261" lon="1.021659">
        <ele>2054</ele>
        <time>1970-01-01T11:14:19.000Z</time>
      </trkpt>
      <trkpt lat="42.461725" lon="1.021647">
        <ele>2054</ele>
        <time>1970-01-01T11:14:27.000Z</time>
      </trkpt>
      <trkpt lat="42.461945" lon="1.021731">
        <ele>2054.2</ele>
        <time>1970-01-01T11:14:31.000Z</time>
      </trkpt>
      <trkpt lat="42.462051" lon="1.021784">
        <ele>2054.4</ele>
        <time>1970-01-01T11:14:33.000Z</time>
      </trkpt>
      <trkpt lat="42.462372" lon="1.021819">
        <ele>2055</ele>
        <time>1970-01-01T11:14:39.000Z</time>
      </trkpt>
      <trkpt lat="42.462927" lon="1.021548">
        <ele>2054.6</ele>
        <time>1970-01-01T11:14:49.000Z</time>
      </trkpt>
      <trkpt lat="42.463477" lon="1.021338">
        <ele>2054.6</ele>
        <time>1970-01-01T11:15:00.000Z</time>
      </trkpt>
      <trkpt lat="42.464057" lon="1.02131">
        <ele>2055</ele>
        <time>1970-01-01T11:15:12.000Z</time>
      </trkpt>
      <trkpt lat="42.464107" lon="1.021298">
        <ele>2055</ele>
        <time>1970-01-01T11:15:13.000Z</time>
      </trkpt>
      <trkpt lat="42.464211" lon="1.021269">
        <ele>2054.8</ele>
        <time>1970-01-01T11:15:15.000Z</time>
      </trkpt>
      <trkpt lat="42.46445" lon="1.021103">
        <ele>2054.4</ele>
        <time>1970-01-01T11:15:20.000Z</time>
      </trkpt>
      <trkpt lat="42.464581" lon="1.020957">
        <ele>2054.4</ele>
        <time>1970-01-01T11:15:23.000Z</time>
      </trkpt>
      <trkpt lat="42.464946" lon="1.020637">
        <ele>2054.8</ele>
        <time>1970-01-01T11:15:31.000Z</time>
      </trkpt>
      <trkpt lat="42.465143" lon="1.020673">
        <ele>2055</ele>
        <time>1970-01-01T11:15:35.000Z</time>
      </trkpt>
      <trkpt lat="42.465289" lon="1.020747">
        <ele>2054.8</ele>
        <time>1970-01-01T11:15:38.000Z</time>
      </trkpt>
      <trkpt lat="42.465422" lon="1.02088">
        <ele>2054.6</ele>
        <time>1970-01-01T11:15:41.000Z</time>
      </trkpt>
      <trkpt lat="42.465786" lon="1.021228">
        <ele>2055.8</ele>
        <time>1970-01-01T11:15:52.000Z</time>
      </trkpt>
      <trkpt lat="42.466327" lon="1.021327">
        <ele>2055.2</ele>
        <time>1970-01-01T11:16:04.000Z</time>
      </trkpt>
      <trkpt lat="42.466492" lon="1.021357">
        <ele>2054.6</ele>
        <time>1970-01-01T11:16:07.000Z</time>
      </trkpt>
      <trkpt lat="42.466931" lon="1.021373">
        <ele>2053.4</ele>
        <time>1970-01-01T11:16:15.000Z</time>
      </trkpt>
      <trkpt lat="42.467511" lon="1.021405">
        <ele>2053.6</ele>
        <time>1970-01-01T11:16:25.000Z</time>
      </trkpt>
      <trkpt lat="42.468053" lon="1.02142">
        <ele>2054.2</ele>
        <time>1970-01-01T11:16:35.000Z</time>
      </trkpt>
      <trkpt lat="42.468103" lon="1.021405">
        <ele>2054.2</ele>
        <time>1970-01-01T11:16:36.000Z</time>
      </trkpt>
      <trkpt lat="42.468199" lon="1.021365">
        <ele>2054.8</ele>
        <time>1970-01-01T11:16:38.000Z</time>
      </trkpt>
      <trkpt lat="42.468495" lon="1.021265">
        <ele>2055.4</ele>
        <time>1970-01-01T11:16:44.000Z</time>
      </trkpt>
      <trkpt lat="42.468693" lon="1.02128">
        <ele>2056</ele>
        <time>1970-01-01T11:16:48.000Z</time>
      </trkpt>
      <trkpt lat="42.468831" lon="1.021307">
        <ele>2056.2</ele>
        <time>1970-01-01T11:16:51.000Z</time>
      </trkpt>
      <trkpt lat="42.469073" lon="1.021276">
        <ele>2057</ele>
        <time>1970-01-01T11:16:57.000Z</time>
      </trkpt>
      <trkpt lat="42.469401" lon="1.021337">
        <ele>2058</ele>
        <time>1970-01-01T11:17:08.000Z</time>
      </trkpt>
      <trkpt lat="42.469509" lon="1.021456">
        <ele>2059.2</ele>
        <time>1970-01-01T11:17:13.000Z</time>
      </trkpt>
      <trkpt lat="42.46985" lon="1.021655">
        <ele>2060</ele>
        <time>1970-01-01T11:17:24.000Z</time>
      </trkpt>
      <trkpt lat="42.470027" lon="1.021785">
        <ele>2060.6</ele>
        <time>1970-01-01T11:17:30.000Z</time>
      </trkpt>
      <trkpt lat="42.470139" lon="1.021882">
        <ele>2061</ele>
        <time>1970-01-01T11:17:34.000Z</time>
      </trkpt>
      <trkpt lat="42.470422" lon="1.022251">
        <ele>2062</ele>
        <time>1970-01-01T11:17:48.000Z</time>
      </trkpt>
      <trkpt lat="42.470584" lon="1.022543">
        <ele>2063</ele>
        <time>1970-01-01T11:17:58.000Z</time>
      </trkpt>
      <trkpt lat="42.470946" lon="1.022809">
        <ele>2064.2</ele>
        <time>1970-01-01T11:18:11.000Z</time>
      </trkpt>
      <trkpt lat="42.471207" lon="1.022933">
        <ele>2065.2</ele>
        <time>1970-01-01T11:18:20.000Z</time>
      </trkpt>
      <trkpt lat="42.471578" lon="1.023074">
        <ele>2066</ele>
        <time>1970-01-01T11:18:32.000Z</time>
      </trkpt>
      <trkpt lat="42.471939" lon="1.023238">
        <ele>2067</ele>
        <time>1970-01-01T11:18:44.000Z</time>
      </trkpt>
      <trkpt lat="42.472168" lon="1.023321">
        <ele>2068</ele>
        <time>1970-01-01T11:18:52.000Z</time>
      </trkpt>
      <trkpt lat="42.472415" lon="1.023362">
        <ele>2069</ele>
        <time>1970-01-01T11:19:01.000Z</time>
      </trkpt>
      <trkpt lat="42.472701" lon="1.023369">
        <ele>2070</ele>
        <time>1970-01-01T11:19:12.000Z</time>
      </trkpt>
      <trkpt lat="42.472955" lon="1.023325">
        <ele>2071</ele>
        <time>1970-01-01T11:19:23.000Z</time>
      </trkpt>
      <trkpt lat="42.47333" lon="1.023217">
        <ele>2072</ele>
        <time>1970-01-01T11:19:38.000Z</time>
      </trkpt>
      <trkpt lat="42.473345" lon="1.02321">
        <ele>2072.2</ele>
        <time>1970-01-01T11:19:40.000Z</time>
      </trkpt>
      <trkpt lat="42.473398" lon="1.023257">
        <ele>2071.4</ele>
        <time>1970-01-01T11:24:41.000Z</time>
      </trkpt>
      <trkpt lat="42.473545" lon="1.023238">
        <ele>2071.8</ele>
        <time>1970-01-01T11:24:47.000Z</time>
      </trkpt>
      <trkpt lat="42.474059" lon="1.023186">
        <ele>2072.6</ele>
        <time>1970-01-01T11:25:05.000Z</time>
      </trkpt>
      <trkpt lat="42.474322" lon="1.023152">
        <ele>2073.8</ele>
        <time>1970-01-01T11:25:14.000Z</time>
      </trkpt>
      <trkpt lat="42.47463" lon="1.023057">
        <ele>2075</ele>
        <time>1970-01-01T11:25:25.000Z</time>
      </trkpt>
      <trkpt lat="42.474861" lon="1.023064">
        <ele>2076</ele>
        <time>1970-01-01T11:25:34.000Z</time>
      </trkpt>
      <trkpt lat="42.475186" lon="1.023193">
        <ele>2077</ele>
        <time>1970-01-01T11:25:46.000Z</time>
      </trkpt>
      <trkpt lat="42.475383" lon="1.023276">
        <ele>2078</ele>
        <time>1970-01-01T11:25:54.000Z</time>
      </trkpt>
      <trkpt lat="42.475587" lon="1.023436">
        <ele>2079.2</ele>
        <time>1970-01-01T11:26:03.000Z</time>
      </trkpt>
      <trkpt lat="42.475803" lon="1.023544">
        <ele>2080.4</ele>
        <time>1970-01-01T11:26:12.000Z</time>
      </trkpt>
      <trkpt lat="42.475973" lon="1.023622">
        <ele>2081.2</ele>
        <time>1970-01-01T11:26:19.000Z</time>
      </trkpt>
      <trkpt lat="42.476164" lon="1.023655">
        <ele>2082.2</ele>
        <time>1970-01-01T11:26:27.000Z</time>
      </trkpt>
      <trkpt lat="42.476385" lon="1.023652">
        <ele>2083.2</ele>
        <time>1970-01-01T11:26:36.000Z</time>
      </trkpt>
      <trkpt lat="42.476549" lon="1.023605">
        <ele>2084.2</ele>
        <time>1970-01-01T11:26:43.000Z</time>
      </trkpt>
      <trkpt lat="42.476729" lon="1.023699">
        <ele>2085.2</ele>
        <time>1970-01-01T11:26:51.000Z</time>
      </trkpt>
      <trkpt lat="42.476978" lon="1.024103">
        <ele>2086.2</ele>
        <time>1970-01-01T11:27:05.000Z</time>
      </trkpt>
      <trkpt lat="42.477078" lon="1.024429">
        <ele>2087.4</ele>
        <time>1970-01-01T11:27:15.000Z</time>
      </trkpt>
      <trkpt lat="42.477222" lon="1.024894">
        <ele>2088.2</ele>
        <time>1970-01-01T11:27:28.000Z</time>
      </trkpt>
      <trkpt lat="42.477271" lon="1.025314">
        <ele>2089.4</ele>
        <time>1970-01-01T11:27:39.000Z</time>
      </trkpt>
      <trkpt lat="42.477337" lon="1.025696">
        <ele>2090.4</ele>
        <time>1970-01-01T11:27:49.000Z</time>
      </trkpt>
      <trkpt lat="42.477399" lon="1.026007">
        <ele>2091.4</ele>
        <time>1970-01-01T11:27:57.000Z</time>
      </trkpt>
      <trkpt lat="42.477493" lon="1.026454">
        <ele>2092.4</ele>
        <time>1970-01-01T11:28:09.000Z</time>
      </trkpt>
      <trkpt lat="42.477564" lon="1.026741">
        <ele>2093.4</ele>
        <time>1970-01-01T11:28:17.000Z</time>
      </trkpt>
      <trkpt lat="42.477639" lon="1.026972">
        <ele>2094.2</ele>
        <time>1970-01-01T11:28:24.000Z</time>
      </trkpt>
      <trkpt lat="42.47781" lon="1.027318">
        <ele>2095.4</ele>
        <time>1970-01-01T11:28:35.000Z</time>
      </trkpt>
      <trkpt lat="42.477939" lon="1.027617">
        <ele>2096.4</ele>
        <time>1970-01-01T11:28:44.000Z</time>
      </trkpt>
      <trkpt lat="42.478011" lon="1.027945">
        <ele>2097.2</ele>
        <time>1970-01-01T11:28:53.000Z</time>
      </trkpt>
      <trkpt lat="42.478071" lon="1.028287">
        <ele>2098.4</ele>
        <time>1970-01-01T11:29:02.000Z</time>
      </trkpt>
      <trkpt lat="42.478232" lon="1.029015">
        <ele>2099.4</ele>
        <time>1970-01-01T11:29:20.000Z</time>
      </trkpt>
      <trkpt lat="42.478237" lon="1.029055">
        <ele>2099.4</ele>
        <time>1970-01-01T11:29:21.000Z</time>
      </trkpt>
      <trkpt lat="42.478251" lon="1.029438">
        <ele>2100.4</ele>
        <time>1970-01-01T11:29:31.000Z</time>
      </trkpt>
      <trkpt lat="42.478195" lon="1.0297">
        <ele>2101.6</ele>
        <time>1970-01-01T11:29:38.000Z</time>
      </trkpt>
      <trkpt lat="42.477874" lon="1.030312">
        <ele>2101.4</ele>
        <time>1970-01-01T11:29:56.000Z</time>
      </trkpt>
      <trkpt lat="42.477542" lon="1.03089">
        <ele>2101.6</ele>
        <time>1970-01-01T11:30:11.000Z</time>
      </trkpt>
      <trkpt lat="42.47735" lon="1.031232">
        <ele>2102.2</ele>
        <time>1970-01-01T11:30:19.000Z</time>
      </trkpt>
      <trkpt lat="42.477138" lon="1.031652">
        <ele>2103.2</ele>
        <time>1970-01-01T11:30:29.000Z</time>
      </trkpt>
      <trkpt lat="42.476937" lon="1.032201">
        <ele>2104.4</ele>
        <time>1970-01-01T11:30:41.000Z</time>
      </trkpt>
      <trkpt lat="42.476908" lon="1.032498">
        <ele>2105.6</ele>
        <time>1970-01-01T11:30:48.000Z</time>
      </trkpt>
      <trkpt lat="42.476938" lon="1.032683">
        <ele>2106.8</ele>
        <time>1970-01-01T11:30:53.000Z</time>
      </trkpt>
      <trkpt lat="42.477185" lon="1.033121">
        <ele>2107.8</ele>
        <time>1970-01-01T11:31:07.000Z</time>
      </trkpt>
      <trkpt lat="42.477256" lon="1.033441">
        <ele>2109</ele>
        <time>1970-01-01T11:31:15.000Z</time>
      </trkpt>
      <trkpt lat="42.477381" lon="1.033734">
        <ele>2110</ele>
        <time>1970-01-01T11:31:25.000Z</time>
      </trkpt>
      <trkpt lat="42.477908" lon="1.033979">
        <ele>2110.4</ele>
        <time>1970-01-01T11:31:44.000Z</time>
      </trkpt>
      <trkpt lat="42.477984" lon="1.034012">
        <ele>2111</ele>
        <time>1970-01-01T11:31:47.000Z</time>
      </trkpt>
      <trkpt lat="42.478176" lon="1.034108">
        <ele>2112</ele>
        <time>1970-01-01T11:31:54.000Z</time>
      </trkpt>
      <trkpt lat="42.478449" lon="1.034214">
        <ele>2113.2</ele>
        <time>1970-01-01T11:32:04.000Z</time>
      </trkpt>
      <trkpt lat="42.479012" lon="1.034363">
        <ele>2114.2</ele>
        <time>1970-01-01T11:32:21.000Z</time>
      </trkpt>
      <trkpt lat="42.479546" lon="1.034478">
        <ele>2114.6</ele>
        <time>1970-01-01T11:32:36.000Z</time>
      </trkpt>
      <trkpt lat="42.479719" lon="1.034567">
        <ele>2115.2</ele>
        <time>1970-01-01T11:32:41.000Z</time>
      </trkpt>
      <trkpt lat="42.48025" lon="1.034772">
        <ele>2115.2</ele>
        <time>1970-01-01T11:33:00.000Z</time>
      </trkpt>
      <trkpt lat="42.48068" lon="1.034863">
        <ele>2116</ele>
        <time>1970-01-01T11:33:15.000Z</time>
      </trkpt>
      <trkpt lat="42.480942" lon="1.034866">
        <ele>2117</ele>
        <time>1970-01-01T11:33:25.000Z</time>
      </trkpt>
      <trkpt lat="42.481166" lon="1.034859">
        <ele>2118.2</ele>
        <time>1970-01-01T11:33:34.000Z</time>
      </trkpt>
      <trkpt lat="42.481286" lon="1.034897">
        <ele>2119.2</ele>
        <time>1970-01-01T11:33:39.000Z</time>
      </trkpt>
      <trkpt lat="42.481421" lon="1.03493">
        <ele>2120.2</ele>
        <time>1970-01-01T11:33:45.000Z</time>
      </trkpt>
      <trkpt lat="42.481585" lon="1.034947">
        <ele>2121.2</ele>
        <time>1970-01-01T11:33:52.000Z</time>
      </trkpt>
      <trkpt lat="42.48173" lon="1.034983">
        <ele>2122.4</ele>
        <time>1970-01-01T11:33:58.000Z</time>
      </trkpt>
      <trkpt lat="42.481875" lon="1.035089">
        <ele>2123.6</ele>
        <time>1970-01-01T11:34:05.000Z</time>
      </trkpt>
      <trkpt lat="42.482058" lon="1.035167">
        <ele>2124.6</ele>
        <time>1970-01-01T11:34:13.000Z</time>
      </trkpt>
      <trkpt lat="42.482263" lon="1.035184">
        <ele>2125.8</ele>
        <time>1970-01-01T11:34:23.000Z</time>
      </trkpt>
      <trkpt lat="42.482502" lon="1.035213">
        <ele>2126.6</ele>
        <time>1970-01-01T11:34:36.000Z</time>
      </trkpt>
      <trkpt lat="42.482701" lon="1.035198">
        <ele>2127.6</ele>
        <time>1970-01-01T11:34:45.000Z</time>
      </trkpt>
      <trkpt lat="42.48291" lon="1.03519">
        <ele>2128.8</ele>
        <time>1970-01-01T11:34:54.000Z</time>
      </trkpt>
      <trkpt lat="42.483067" lon="1.035231">
        <ele>2129.8</ele>
        <time>1970-01-01T11:35:01.000Z</time>
      </trkpt>
      <trkpt lat="42.483198" lon="1.035293">
        <ele>2131</ele>
        <time>1970-01-01T11:35:07.000Z</time>
      </trkpt>
      <trkpt lat="42.483385" lon="1.035429">
        <ele>2131.8</ele>
        <time>1970-01-01T11:35:16.000Z</time>
      </trkpt>
      <trkpt lat="42.483563" lon="1.035544">
        <ele>2132.8</ele>
        <time>1970-01-01T11:35:24.000Z</time>
      </trkpt>
      <trkpt lat="42.48383" lon="1.035599">
        <ele>2133.8</ele>
        <time>1970-01-01T11:35:35.000Z</time>
      </trkpt>
      <trkpt lat="42.484201" lon="1.035654">
        <ele>2134.8</ele>
        <time>1970-01-01T11:35:48.000Z</time>
      </trkpt>
      <trkpt lat="42.484499" lon="1.035761">
        <ele>2135.8</ele>
        <time>1970-01-01T11:35:59.000Z</time>
      </trkpt>
      <trkpt lat="42.484767" lon="1.03583">
        <ele>2137</ele>
        <time>1970-01-01T11:36:09.000Z</time>
      </trkpt>
      <trkpt lat="42.484912" lon="1.035878">
        <ele>2138</ele>
        <time>1970-01-01T11:36:15.000Z</time>
      </trkpt>
      <trkpt lat="42.485081" lon="1.035954">
        <ele>2139</ele>
        <time>1970-01-01T11:36:22.000Z</time>
      </trkpt>
      <trkpt lat="42.485307" lon="1.036097">
        <ele>2140</ele>
        <time>1970-01-01T11:36:32.000Z</time>
      </trkpt>
      <trkpt lat="42.485438" lon="1.036164">
        <ele>2141</ele>
        <time>1970-01-01T11:36:38.000Z</time>
      </trkpt>
      <trkpt lat="42.485558" lon="1.036309">
        <ele>2142</ele>
        <time>1970-01-01T11:36:45.000Z</time>
      </trkpt>
      <trkpt lat="42.485734" lon="1.036601">
        <ele>2143</ele>
        <time>1970-01-01T11:36:56.000Z</time>
      </trkpt>
      <trkpt lat="42.485963" lon="1.036716">
        <ele>2144.2</ele>
        <time>1970-01-01T11:37:06.000Z</time>
      </trkpt>
      <trkpt lat="42.486192" lon="1.036742">
        <ele>2145</ele>
        <time>1970-01-01T11:37:16.000Z</time>
      </trkpt>
      <trkpt lat="42.48639" lon="1.036701">
        <ele>2146</ele>
        <time>1970-01-01T11:37:25.000Z</time>
      </trkpt>
      <trkpt lat="42.486551" lon="1.036633">
        <ele>2147.2</ele>
        <time>1970-01-01T11:37:33.000Z</time>
      </trkpt>
      <trkpt lat="42.486665" lon="1.036563">
        <ele>2148.2</ele>
        <time>1970-01-01T11:37:39.000Z</time>
      </trkpt>
      <trkpt lat="42.486868" lon="1.03654">
        <ele>2149.4</ele>
        <time>1970-01-01T11:37:48.000Z</time>
      </trkpt>
      <trkpt lat="42.487179" lon="1.036977">
        <ele>2150.4</ele>
        <time>1970-01-01T11:38:06.000Z</time>
      </trkpt>
      <trkpt lat="42.487589" lon="1.037485">
        <ele>2151.4</ele>
        <time>1970-01-01T11:38:27.000Z</time>
      </trkpt>
      <trkpt lat="42.48805" lon="1.037881">
        <ele>2150.4</ele>
        <time>1970-01-01T11:38:42.000Z</time>
      </trkpt>
      <trkpt lat="42.488516" lon="1.038336">
        <ele>2149.8</ele>
        <time>1970-01-01T11:38:54.000Z</time>
      </trkpt>
      <trkpt lat="42.488691" lon="1.038497">
        <ele>2149.2</ele>
        <time>1970-01-01T11:38:58.000Z</time>
      </trkpt>
      <trkpt lat="42.489135" lon="1.038988">
        <ele>2148.4</ele>
        <time>1970-01-01T11:39:10.000Z</time>
      </trkpt>
      <trkpt lat="42.489201" lon="1.039089">
        <ele>2148.2</ele>
        <time>1970-01-01T11:39:12.000Z</time>
      </trkpt>
      <trkpt lat="42.489318" lon="1.039299">
        <ele>2148.2</ele>
        <time>1970-01-01T11:39:16.000Z</time>
      </trkpt>
      <trkpt lat="42.48938" lon="1.039387">
        <ele>2148.2</ele>
        <time>1970-01-01T11:39:18.000Z</time>
      </trkpt>
      <trkpt lat="42.489513" lon="1.039467">
        <ele>2148.4</ele>
        <time>1970-01-01T11:39:22.000Z</time>
      </trkpt>
      <trkpt lat="42.490057" lon="1.039467">
        <ele>2147.6</ele>
        <time>1970-01-01T11:39:39.000Z</time>
      </trkpt>
      <trkpt lat="42.490224" lon="1.039441">
        <ele>2147.4</ele>
        <time>1970-01-01T11:39:43.000Z</time>
      </trkpt>
      <trkpt lat="42.490787" lon="1.039396">
        <ele>2147.4</ele>
        <time>1970-01-01T11:39:56.000Z</time>
      </trkpt>
      <trkpt lat="42.491047" lon="1.039307">
        <ele>2147.4</ele>
        <time>1970-01-01T11:40:02.000Z</time>
      </trkpt>
      <trkpt lat="42.491273" lon="1.039354">
        <ele>2147.2</ele>
        <time>1970-01-01T11:40:07.000Z</time>
      </trkpt>
      <trkpt lat="42.491533" lon="1.039554">
        <ele>2146.8</ele>
        <time>1970-01-01T11:40:13.000Z</time>
      </trkpt>
      <trkpt lat="42.491679" lon="1.040054">
        <ele>2146.2</ele>
        <time>1970-01-01T11:40:24.000Z</time>
      </trkpt>
      <trkpt lat="42.491649" lon="1.040115">
        <ele>2146.2</ele>
        <time>1970-01-01T11:40:25.000Z</time>
      </trkpt>
      <trkpt lat="42.491591" lon="1.040409">
        <ele>2145.4</ele>
        <time>1970-01-01T11:40:29.000Z</time>
      </trkpt>
      <trkpt lat="42.491596" lon="1.04048">
        <ele>2145</ele>
        <time>1970-01-01T11:40:30.000Z</time>
      </trkpt>
      <trkpt lat="42.491603" lon="1.040779">
        <ele>2144.2</ele>
        <time>1970-01-01T11:40:34.000Z</time>
      </trkpt>
      <trkpt lat="42.491577" lon="1.041024">
        <ele>2143</ele>
        <time>1970-01-01T11:40:37.000Z</time>
      </trkpt>
      <trkpt lat="42.49157" lon="1.041208">
        <ele>2142.2</ele>
        <time>1970-01-01T11:40:39.000Z</time>
      </trkpt>
      <trkpt lat="42.491575" lon="1.041305">
        <ele>2142</ele>
        <time>1970-01-01T11:40:40.000Z</time>
      </trkpt>
      <trkpt lat="42.491603" lon="1.041511">
        <ele>2140.8</ele>
        <time>1970-01-01T11:40:42.000Z</time>
      </trkpt>
      <trkpt lat="42.491626" lon="1.041618">
        <ele>2140.4</ele>
        <time>1970-01-01T11:40:43.000Z</time>
      </trkpt>
      <trkpt lat="42.491675" lon="1.041839">
        <ele>2139.2</ele>
        <time>1970-01-01T11:40:45.000Z</time>
      </trkpt>
      <trkpt lat="42.491727" lon="1.042068">
        <ele>2138</ele>
        <time>1970-01-01T11:40:47.000Z</time>
      </trkpt>
      <trkpt lat="42.491774" lon="1.042303">
        <ele>2137</ele>
        <time>1970-01-01T11:40:49.000Z</time>
      </trkpt>
      <trkpt lat="42.491805" lon="1.042525">
        <ele>2136</ele>
        <time>1970-01-01T11:40:51.000Z</time>
      </trkpt>
      <trkpt lat="42.49181" lon="1.042608">
        <ele>2135.4</ele>
        <time>1970-01-01T11:40:52.000Z</time>
      </trkpt>
      <trkpt lat="42.491815" lon="1.042672">
        <ele>2135.2</ele>
        <time>1970-01-01T11:40:53.000Z</time>
      </trkpt>
      <trkpt lat="42.491922" lon="1.042785">
        <ele>2134.2</ele>
        <time>1970-01-01T11:40:56.000Z</time>
      </trkpt>
      <trkpt lat="42.492119" lon="1.042729">
        <ele>2133</ele>
        <time>1970-01-01T11:41:00.000Z</time>
      </trkpt>
      <trkpt lat="42.492341" lon="1.04259">
        <ele>2131.6</ele>
        <time>1970-01-01T11:41:05.000Z</time>
      </trkpt>
      <trkpt lat="42.492431" lon="1.042749">
        <ele>2130.4</ele>
        <time>1970-01-01T11:41:09.000Z</time>
      </trkpt>
      <trkpt lat="42.492492" lon="1.042943">
        <ele>2130</ele>
        <time>1970-01-01T11:41:13.000Z</time>
      </trkpt>
      <trkpt lat="42.492549" lon="1.043034">
        <ele>2130</ele>
        <time>1970-01-01T11:41:15.000Z</time>
      </trkpt>
      <trkpt lat="42.492696" lon="1.043186">
        <ele>2129.4</ele>
        <time>1970-01-01T11:41:19.000Z</time>
      </trkpt>
      <trkpt lat="42.492731" lon="1.043224">
        <ele>2129</ele>
        <time>1970-01-01T11:41:20.000Z</time>
      </trkpt>
      <trkpt lat="42.492809" lon="1.043346">
        <ele>2128.2</ele>
        <time>1970-01-01T11:41:23.000Z</time>
      </trkpt>
      <trkpt lat="42.492949" lon="1.043711">
        <ele>2127</ele>
        <time>1970-01-01T11:41:29.000Z</time>
      </trkpt>
      <trkpt lat="42.493021" lon="1.04387">
        <ele>2125.6</ele>
        <time>1970-01-01T11:41:31.000Z</time>
      </trkpt>
      <trkpt lat="42.493098" lon="1.044015">
        <ele>2124.6</ele>
        <time>1970-01-01T11:41:33.000Z</time>
      </trkpt>
      <trkpt lat="42.493131" lon="1.044093">
        <ele>2124</ele>
        <time>1970-01-01T11:41:34.000Z</time>
      </trkpt>
      <trkpt lat="42.493185" lon="1.04426">
        <ele>2122.8</ele>
        <time>1970-01-01T11:41:36.000Z</time>
      </trkpt>
      <trkpt lat="42.493226" lon="1.044458">
        <ele>2121.4</ele>
        <time>1970-01-01T11:41:38.000Z</time>
      </trkpt>
      <trkpt lat="42.493251" lon="1.044562">
        <ele>2120.4</ele>
        <time>1970-01-01T11:41:39.000Z</time>
      </trkpt>
      <trkpt lat="42.493282" lon="1.044664">
        <ele>2119.6</ele>
        <time>1970-01-01T11:41:40.000Z</time>
      </trkpt>
      <trkpt lat="42.493343" lon="1.044826">
        <ele>2118.4</ele>
        <time>1970-01-01T11:41:42.000Z</time>
      </trkpt>
      <trkpt lat="42.493417" lon="1.044991">
        <ele>2117.4</ele>
        <time>1970-01-01T11:41:45.000Z</time>
      </trkpt>
      <trkpt lat="42.493447" lon="1.045038">
        <ele>2116.8</ele>
        <time>1970-01-01T11:41:48.000Z</time>
      </trkpt>
      <trkpt lat="42.493457" lon="1.045049">
        <ele>2116</ele>
        <time>1970-01-01T11:42:56.000Z</time>
      </trkpt>
      <trkpt lat="42.493587" lon="1.045238">
        <ele>2115.2</ele>
        <time>1970-01-01T11:43:02.000Z</time>
      </trkpt>
      <trkpt lat="42.49365" lon="1.045314">
        <ele>2114.8</ele>
        <time>1970-01-01T11:43:04.000Z</time>
      </trkpt>
      <trkpt lat="42.49374" lon="1.045461">
        <ele>2114.4</ele>
        <time>1970-01-01T11:43:07.000Z</time>
      </trkpt>
      <trkpt lat="42.49379" lon="1.045601">
        <ele>2113.8</ele>
        <time>1970-01-01T11:43:09.000Z</time>
      </trkpt>
      <trkpt lat="42.493855" lon="1.045851">
        <ele>2112.8</ele>
        <time>1970-01-01T11:43:12.000Z</time>
      </trkpt>
      <trkpt lat="42.493886" lon="1.045937">
        <ele>2112.2</ele>
        <time>1970-01-01T11:43:13.000Z</time>
      </trkpt>
      <trkpt lat="42.493968" lon="1.046095">
        <ele>2111.4</ele>
        <time>1970-01-01T11:43:15.000Z</time>
      </trkpt>
      <trkpt lat="42.494056" lon="1.046343">
        <ele>2110.2</ele>
        <time>1970-01-01T11:43:18.000Z</time>
      </trkpt>
      <trkpt lat="42.494072" lon="1.046531">
        <ele>2108.8</ele>
        <time>1970-01-01T11:43:20.000Z</time>
      </trkpt>
      <trkpt lat="42.494074" lon="1.046633">
        <ele>2108.2</ele>
        <time>1970-01-01T11:43:21.000Z</time>
      </trkpt>
      <trkpt lat="42.494077" lon="1.04674">
        <ele>2107.6</ele>
        <time>1970-01-01T11:43:22.000Z</time>
      </trkpt>
      <trkpt lat="42.494085" lon="1.047063">
        <ele>2106.4</ele>
        <time>1970-01-01T11:43:25.000Z</time>
      </trkpt>
      <trkpt lat="42.494095" lon="1.047164">
        <ele>2105.6</ele>
        <time>1970-01-01T11:43:26.000Z</time>
      </trkpt>
      <trkpt lat="42.494117" lon="1.047258">
        <ele>2105</ele>
        <time>1970-01-01T11:43:27.000Z</time>
      </trkpt>
      <trkpt lat="42.494195" lon="1.047408">
        <ele>2103.4</ele>
        <time>1970-01-01T11:43:29.000Z</time>
      </trkpt>
      <trkpt lat="42.494345" lon="1.047506">
        <ele>2102</ele>
        <time>1970-01-01T11:43:32.000Z</time>
      </trkpt>
      <trkpt lat="42.494463" lon="1.047549">
        <ele>2101.2</ele>
        <time>1970-01-01T11:43:34.000Z</time>
      </trkpt>
      <trkpt lat="42.494527" lon="1.047563">
        <ele>2100.8</ele>
        <time>1970-01-01T11:43:35.000Z</time>
      </trkpt>
      <trkpt lat="42.494657" lon="1.047573">
        <ele>2099.4</ele>
        <time>1970-01-01T11:43:37.000Z</time>
      </trkpt>
      <trkpt lat="42.494859" lon="1.047529">
        <ele>2098</ele>
        <time>1970-01-01T11:43:40.000Z</time>
      </trkpt>
      <trkpt lat="42.494923" lon="1.047506">
        <ele>2097.6</ele>
        <time>1970-01-01T11:43:41.000Z</time>
      </trkpt>
      <trkpt lat="42.495476" lon="1.047389">
        <ele>2097</ele>
        <time>1970-01-01T11:43:51.000Z</time>
      </trkpt>
      <trkpt lat="42.495843" lon="1.047373">
        <ele>2098</ele>
        <time>1970-01-01T11:43:59.000Z</time>
      </trkpt>
      <trkpt lat="42.496328" lon="1.047575">
        <ele>2098.6</ele>
        <time>1970-01-01T11:44:14.000Z</time>
      </trkpt>
      <trkpt lat="42.496356" lon="1.047654">
        <ele>2098.8</ele>
        <time>1970-01-01T11:44:16.000Z</time>
      </trkpt>
      <trkpt lat="42.496661" lon="1.048206">
        <ele>2098.8</ele>
        <time>1970-01-01T11:44:29.000Z</time>
      </trkpt>
      <trkpt lat="42.496814" lon="1.048757">
        <ele>2098</ele>
        <time>1970-01-01T11:44:39.000Z</time>
      </trkpt>
      <trkpt lat="42.496868" lon="1.04886">
        <ele>2097.8</ele>
        <time>1970-01-01T11:44:41.000Z</time>
      </trkpt>
      <trkpt lat="42.497144" lon="1.04902">
        <ele>2097.2</ele>
        <time>1970-01-01T11:44:47.000Z</time>
      </trkpt>
      <trkpt lat="42.497249" lon="1.049049">
        <ele>2096.6</ele>
        <time>1970-01-01T11:44:49.000Z</time>
      </trkpt>
      <trkpt lat="42.497744" lon="1.049145">
        <ele>2095.4</ele>
        <time>1970-01-01T11:44:58.000Z</time>
      </trkpt>
      <trkpt lat="42.497958" lon="1.049093">
        <ele>2095</ele>
        <time>1970-01-01T11:45:02.000Z</time>
      </trkpt>
      <trkpt lat="42.498168" lon="1.049204">
        <ele>2094.2</ele>
        <time>1970-01-01T11:45:06.000Z</time>
      </trkpt>
      <trkpt lat="42.498304" lon="1.049512">
        <ele>2092.8</ele>
        <time>1970-01-01T11:45:10.000Z</time>
      </trkpt>
      <trkpt lat="42.498365" lon="1.049674">
        <ele>2092.2</ele>
        <time>1970-01-01T11:45:12.000Z</time>
      </trkpt>
      <trkpt lat="42.498461" lon="1.049818">
        <ele>2091.6</ele>
        <time>1970-01-01T11:45:14.000Z</time>
      </trkpt>
      <trkpt lat="42.498572" lon="1.049937">
        <ele>2091.2</ele>
        <time>1970-01-01T11:45:16.000Z</time>
      </trkpt>
      <trkpt lat="42.498739" lon="1.050087">
        <ele>2090.4</ele>
        <time>1970-01-01T11:45:19.000Z</time>
      </trkpt>
      <trkpt lat="42.498793" lon="1.050146">
        <ele>2090</ele>
        <time>1970-01-01T11:45:20.000Z</time>
      </trkpt>
      <trkpt lat="42.498887" lon="1.05028">
        <ele>2089.4</ele>
        <time>1970-01-01T11:45:22.000Z</time>
      </trkpt>
      <trkpt lat="42.499218" lon="1.050741">
        <ele>2088.2</ele>
        <time>1970-01-01T11:45:29.000Z</time>
      </trkpt>
      <trkpt lat="42.499382" lon="1.050917">
        <ele>2087.2</ele>
        <time>1970-01-01T11:45:32.000Z</time>
      </trkpt>
      <trkpt lat="42.499627" lon="1.051139">
        <ele>2086</ele>
        <time>1970-01-01T11:45:36.000Z</time>
      </trkpt>
      <trkpt lat="42.49976" lon="1.051252">
        <ele>2084.8</ele>
        <time>1970-01-01T11:45:39.000Z</time>
      </trkpt>
      <trkpt lat="42.500029" lon="1.051443">
        <ele>2083.8</ele>
        <time>1970-01-01T11:45:50.000Z</time>
      </trkpt>
      <trkpt lat="42.500298" lon="1.051602">
        <ele>2082.8</ele>
        <time>1970-01-01T11:46:00.000Z</time>
      </trkpt>
      <trkpt lat="42.500496" lon="1.05173">
        <ele>2081.6</ele>
        <time>1970-01-01T11:46:06.000Z</time>
      </trkpt>
      <trkpt lat="42.500671" lon="1.051843">
        <ele>2080.6</ele>
        <time>1970-01-01T11:46:12.000Z</time>
      </trkpt>
      <trkpt lat="42.50087" lon="1.051966">
        <ele>2079.6</ele>
        <time>1970-01-01T11:46:19.000Z</time>
      </trkpt>
      <trkpt lat="42.50139" lon="1.052108">
        <ele>2078.6</ele>
        <time>1970-01-01T11:46:39.000Z</time>
      </trkpt>
      <trkpt lat="42.501956" lon="1.052083">
        <ele>2077.8</ele>
        <time>1970-01-01T11:47:01.000Z</time>
      </trkpt>
      <trkpt lat="42.502116" lon="1.052055">
        <ele>2077.4</ele>
        <time>1970-01-01T11:47:05.000Z</time>
      </trkpt>
      <trkpt lat="42.502656" lon="1.052081">
        <ele>2077.2</ele>
        <time>1970-01-01T11:47:21.000Z</time>
      </trkpt>
      <trkpt lat="42.502951" lon="1.052173">
        <ele>2076.6</ele>
        <time>1970-01-01T11:47:29.000Z</time>
      </trkpt>
      <trkpt lat="42.503499" lon="1.052139">
        <ele>2078</ele>
        <time>1970-01-01T11:47:45.000Z</time>
      </trkpt>
      <trkpt lat="42.50361" lon="1.052113">
        <ele>2078.6</ele>
        <time>1970-01-01T11:47:49.000Z</time>
      </trkpt>
      <trkpt lat="42.503931" lon="1.052176">
        <ele>2079.6</ele>
        <time>1970-01-01T11:48:00.000Z</time>
      </trkpt>
      <trkpt lat="42.50415" lon="1.05231">
        <ele>2080.8</ele>
        <time>1970-01-01T11:48:08.000Z</time>
      </trkpt>
      <trkpt lat="42.504546" lon="1.052571">
        <ele>2081.8</ele>
        <time>1970-01-01T11:48:23.000Z</time>
      </trkpt>
      <trkpt lat="42.504639" lon="1.052711">
        <ele>2083</ele>
        <time>1970-01-01T11:48:28.000Z</time>
      </trkpt>
      <trkpt lat="42.504752" lon="1.052871">
        <ele>2084</ele>
        <time>1970-01-01T11:48:34.000Z</time>
      </trkpt>
      <trkpt lat="42.505255" lon="1.053079">
        <ele>2084.2</ele>
        <time>1970-01-01T11:48:53.000Z</time>
      </trkpt>
      <trkpt lat="42.505425" lon="1.053124">
        <ele>2085</ele>
        <time>1970-01-01T11:49:02.000Z</time>
      </trkpt>
      <trkpt lat="42.505478" lon="1.053087">
        <ele>2085.2</ele>
        <time>1970-01-01T11:49:12.000Z</time>
      </trkpt>
      <trkpt lat="42.505721" lon="1.053022">
        <ele>2085.8</ele>
        <time>1970-01-01T11:49:22.000Z</time>
      </trkpt>
      <trkpt lat="42.505879" lon="1.052993">
        <ele>2087</ele>
        <time>1970-01-01T11:49:28.000Z</time>
      </trkpt>
      <trkpt lat="42.506282" lon="1.052911">
        <ele>2087.4</ele>
        <time>1970-01-01T11:49:46.000Z</time>
      </trkpt>
      <trkpt lat="42.506303" lon="1.052916">
        <ele>2087.2</ele>
        <time>1970-01-01T11:49:54.000Z</time>
      </trkpt>
      <trkpt lat="42.506384" lon="1.052974">
        <ele>2087</ele>
        <time>1970-01-01T11:50:00.000Z</time>
      </trkpt>
      <trkpt lat="42.506446" lon="1.052889">
        <ele>2087</ele>
        <time>1970-01-01T11:50:08.000Z</time>
      </trkpt>
      <trkpt lat="42.50634" lon="1.052982">
        <ele>2086.4</ele>
        <time>1970-01-01T11:54:41.000Z</time>
      </trkpt>
      <trkpt lat="42.505807" lon="1.05302">
        <ele>2086.4</ele>
        <time>1970-01-01T11:55:00.000Z</time>
      </trkpt>
      <trkpt lat="42.505587" lon="1.053062">
        <ele>2085.4</ele>
        <time>1970-01-01T11:55:05.000Z</time>
      </trkpt>
      <trkpt lat="42.505425" lon="1.053151">
        <ele>2085</ele>
        <time>1970-01-01T11:55:10.000Z</time>
      </trkpt>
      <trkpt lat="42.505419" lon="1.053166">
        <ele>2085</ele>
        <time>1970-01-01T11:55:12.000Z</time>
      </trkpt>
      <trkpt lat="42.505483" lon="1.053046">
        <ele>2139.4</ele>
        <time>1970-01-01T00:00:00.000Z</time>
      </trkpt>
      <trkpt lat="42.505686" lon="1.053016">
        <ele>2141.2</ele>
        <time>1970-01-01T00:00:11.000Z</time>
      </trkpt>
      <trkpt lat="42.506231" lon="1.052914">
        <ele>2142</ele>
        <time>1970-01-01T00:00:33.000Z</time>
      </trkpt>
      <trkpt lat="42.5063" lon="1.05305">
        <ele>2141.6</ele>
        <time>1970-01-01T00:00:37.000Z</time>
      </trkpt>
      <trkpt lat="42.506209" lon="1.053203">
        <ele>2141.6</ele>
        <time>1970-01-01T00:00:42.000Z</time>
      </trkpt>
      <trkpt lat="42.506013" lon="1.053389">
        <ele>2142.2</ele>
        <time>1970-01-01T00:00:52.000Z</time>
      </trkpt>
      <trkpt lat="42.505849" lon="1.053662">
        <ele>2143.4</ele>
        <time>1970-01-01T00:01:03.000Z</time>
      </trkpt>
      <trkpt lat="42.505814" lon="1.054087">
        <ele>2144.4</ele>
        <time>1970-01-01T00:01:15.000Z</time>
      </trkpt>
      <trkpt lat="42.505827" lon="1.054254">
        <ele>2145.6</ele>
        <time>1970-01-01T00:01:20.000Z</time>
      </trkpt>
      <trkpt lat="42.505892" lon="1.054543">
        <ele>2146.8</ele>
        <time>1970-01-01T00:01:30.000Z</time>
      </trkpt>
      <trkpt lat="42.506063" lon="1.054654">
        <ele>2147.8</ele>
        <time>1970-01-01T00:01:38.000Z</time>
      </trkpt>
      <trkpt lat="42.506274" lon="1.055298">
        <ele>2146.8</ele>
        <time>1970-01-01T00:01:55.000Z</time>
      </trkpt>
      <trkpt lat="42.506271" lon="1.055409">
        <ele>2146.8</ele>
        <time>1970-01-01T00:01:57.000Z</time>
      </trkpt>
      <trkpt lat="42.506145" lon="1.056151">
        <ele>2146.2</ele>
        <time>1970-01-01T00:02:10.000Z</time>
      </trkpt>
      <trkpt lat="42.505993" lon="1.056861">
        <ele>2147.2</ele>
        <time>1970-01-01T00:02:26.000Z</time>
      </trkpt>
      <trkpt lat="42.505936" lon="1.057074">
        <ele>2148</ele>
        <time>1970-01-01T00:02:32.000Z</time>
      </trkpt>
      <trkpt lat="42.505841" lon="1.057272">
        <ele>2149.2</ele>
        <time>1970-01-01T00:02:39.000Z</time>
      </trkpt>
      <trkpt lat="42.505753" lon="1.057429">
        <ele>2150.2</ele>
        <time>1970-01-01T00:02:45.000Z</time>
      </trkpt>
      <trkpt lat="42.505653" lon="1.057607">
        <ele>2151.4</ele>
        <time>1970-01-01T00:02:52.000Z</time>
      </trkpt>
      <trkpt lat="42.50556" lon="1.05785">
        <ele>2152.4</ele>
        <time>1970-01-01T00:03:00.000Z</time>
      </trkpt>
      <trkpt lat="42.505534" lon="1.058156">
        <ele>2153.6</ele>
        <time>1970-01-01T00:03:09.000Z</time>
      </trkpt>
      <trkpt lat="42.505521" lon="1.0584">
        <ele>2154.4</ele>
        <time>1970-01-01T00:03:16.000Z</time>
      </trkpt>
      <trkpt lat="42.505483" lon="1.058592">
        <ele>2155.6</ele>
        <time>1970-01-01T00:03:22.000Z</time>
      </trkpt>
      <trkpt lat="42.505433" lon="1.058753">
        <ele>2156.6</ele>
        <time>1970-01-01T00:03:28.000Z</time>
      </trkpt>
      <trkpt lat="42.50538" lon="1.058897">
        <ele>2158</ele>
        <time>1970-01-01T00:03:34.000Z</time>
      </trkpt>
      <trkpt lat="42.505343" lon="1.059024">
        <ele>2159</ele>
        <time>1970-01-01T00:03:39.000Z</time>
      </trkpt>
      <trkpt lat="42.505328" lon="1.059199">
        <ele>2160</ele>
        <time>1970-01-01T00:03:46.000Z</time>
      </trkpt>
      <trkpt lat="42.505299" lon="1.059407">
        <ele>2161</ele>
        <time>1970-01-01T00:03:55.000Z</time>
      </trkpt>
      <trkpt lat="42.505241" lon="1.0597">
        <ele>2162</ele>
        <time>1970-01-01T00:04:07.000Z</time>
      </trkpt>
      <trkpt lat="42.505239" lon="1.060143">
        <ele>2163</ele>
        <time>1970-01-01T00:04:22.000Z</time>
      </trkpt>
      <trkpt lat="42.505317" lon="1.060466">
        <ele>2164.4</ele>
        <time>1970-01-01T00:04:34.000Z</time>
      </trkpt>
      <trkpt lat="42.505412" lon="1.060762">
        <ele>2165.4</ele>
        <time>1970-01-01T00:04:45.000Z</time>
      </trkpt>
      <trkpt lat="42.50545" lon="1.061054">
        <ele>2166.4</ele>
        <time>1970-01-01T00:04:55.000Z</time>
      </trkpt>
      <trkpt lat="42.505464" lon="1.061219">
        <ele>2167.6</ele>
        <time>1970-01-01T00:05:01.000Z</time>
      </trkpt>
      <trkpt lat="42.505527" lon="1.061432">
        <ele>2168.6</ele>
        <time>1970-01-01T00:05:09.000Z</time>
      </trkpt>
      <trkpt lat="42.505563" lon="1.06162">
        <ele>2169.8</ele>
        <time>1970-01-01T00:05:16.000Z</time>
      </trkpt>
      <trkpt lat="42.505532" lon="1.061838">
        <ele>2170.8</ele>
        <time>1970-01-01T00:05:25.000Z</time>
      </trkpt>
      <trkpt lat="42.505381" lon="1.062239">
        <ele>2172</ele>
        <time>1970-01-01T00:05:42.000Z</time>
      </trkpt>
      <trkpt lat="42.50518" lon="1.062398">
        <ele>2173</ele>
        <time>1970-01-01T00:05:53.000Z</time>
      </trkpt>
      <trkpt lat="42.505073" lon="1.062479">
        <ele>2174</ele>
        <time>1970-01-01T00:05:59.000Z</time>
      </trkpt>
      <trkpt lat="42.504886" lon="1.062622">
        <ele>2175.2</ele>
        <time>1970-01-01T00:06:11.000Z</time>
      </trkpt>
      <trkpt lat="42.504775" lon="1.062706">
        <ele>2176.2</ele>
        <time>1970-01-01T00:06:18.000Z</time>
      </trkpt>
      <trkpt lat="42.504634" lon="1.062794">
        <ele>2177.2</ele>
        <time>1970-01-01T00:06:26.000Z</time>
      </trkpt>
      <trkpt lat="42.504475" lon="1.062909">
        <ele>2178.2</ele>
        <time>1970-01-01T00:06:35.000Z</time>
      </trkpt>
      <trkpt lat="42.504349" lon="1.062994">
        <ele>2179.4</ele>
        <time>1970-01-01T00:06:42.000Z</time>
      </trkpt>
      <trkpt lat="42.504179" lon="1.063118">
        <ele>2180.4</ele>
        <time>1970-01-01T00:06:51.000Z</time>
      </trkpt>
      <trkpt lat="42.504035" lon="1.063236">
        <ele>2181.4</ele>
        <time>1970-01-01T00:06:59.000Z</time>
      </trkpt>
      <trkpt lat="42.503881" lon="1.063392">
        <ele>2182.4</ele>
        <time>1970-01-01T00:07:08.000Z</time>
      </trkpt>
      <trkpt lat="42.503726" lon="1.063545">
        <ele>2183.6</ele>
        <time>1970-01-01T00:07:17.000Z</time>
      </trkpt>
      <trkpt lat="42.503562" lon="1.063731">
        <ele>2184.6</ele>
        <time>1970-01-01T00:07:27.000Z</time>
      </trkpt>
      <trkpt lat="42.503451" lon="1.063859">
        <ele>2185.8</ele>
        <time>1970-01-01T00:07:34.000Z</time>
      </trkpt>
      <trkpt lat="42.503332" lon="1.063995">
        <ele>2186.8</ele>
        <time>1970-01-01T00:07:42.000Z</time>
      </trkpt>
      <trkpt lat="42.503251" lon="1.064076">
        <ele>2187.8</ele>
        <time>1970-01-01T00:07:47.000Z</time>
      </trkpt>
      <trkpt lat="42.503136" lon="1.064232">
        <ele>2188.8</ele>
        <time>1970-01-01T00:07:55.000Z</time>
      </trkpt>
      <trkpt lat="42.503036" lon="1.064406">
        <ele>2189.8</ele>
        <time>1970-01-01T00:08:03.000Z</time>
      </trkpt>
      <trkpt lat="42.502901" lon="1.064569">
        <ele>2191</ele>
        <time>1970-01-01T00:08:12.000Z</time>
      </trkpt>
      <trkpt lat="42.502893" lon="1.064575">
        <ele>2191</ele>
        <time>1970-01-01T00:08:14.000Z</time>
      </trkpt>
      <trkpt lat="42.502876" lon="1.064628">
        <ele>2191.2</ele>
        <time>1970-01-01T00:10:17.000Z</time>
      </trkpt>
      <trkpt lat="42.502838" lon="1.064735">
        <ele>2192</ele>
        <time>1970-01-01T00:10:21.000Z</time>
      </trkpt>
      <trkpt lat="42.502777" lon="1.064922">
        <ele>2193</ele>
        <time>1970-01-01T00:10:27.000Z</time>
      </trkpt>
      <trkpt lat="42.50269" lon="1.065181">
        <ele>2194.2</ele>
        <time>1970-01-01T00:10:35.000Z</time>
      </trkpt>
      <trkpt lat="42.502634" lon="1.065369">
        <ele>2195.2</ele>
        <time>1970-01-01T00:10:41.000Z</time>
      </trkpt>
      <trkpt lat="42.502597" lon="1.065553">
        <ele>2196.4</ele>
        <time>1970-01-01T00:10:47.000Z</time>
      </trkpt>
      <trkpt lat="42.502576" lon="1.065706">
        <ele>2197.6</ele>
        <time>1970-01-01T00:10:52.000Z</time>
      </trkpt>
      <trkpt lat="42.502543" lon="1.065921">
        <ele>2198.6</ele>
        <time>1970-01-01T00:10:59.000Z</time>
      </trkpt>
      <trkpt lat="42.502499" lon="1.066127">
        <ele>2199.8</ele>
        <time>1970-01-01T00:11:06.000Z</time>
      </trkpt>
      <trkpt lat="42.502439" lon="1.06642">
        <ele>2201</ele>
        <time>1970-01-01T00:11:16.000Z</time>
      </trkpt>
      <trkpt lat="42.502403" lon="1.066565">
        <ele>2202.2</ele>
        <time>1970-01-01T00:11:21.000Z</time>
      </trkpt>
      <trkpt lat="42.502339" lon="1.06677">
        <ele>2203.2</ele>
        <time>1970-01-01T00:11:28.000Z</time>
      </trkpt>
      <trkpt lat="42.502256" lon="1.067002">
        <ele>2204.4</ele>
        <time>1970-01-01T00:11:36.000Z</time>
      </trkpt>
      <trkpt lat="42.502179" lon="1.067211">
        <ele>2205.4</ele>
        <time>1970-01-01T00:11:43.000Z</time>
      </trkpt>
      <trkpt lat="42.502138" lon="1.067406">
        <ele>2206.6</ele>
        <time>1970-01-01T00:11:49.000Z</time>
      </trkpt>
      <trkpt lat="42.502124" lon="1.067584">
        <ele>2207.6</ele>
        <time>1970-01-01T00:11:55.000Z</time>
      </trkpt>
      <trkpt lat="42.502112" lon="1.067719">
        <ele>2208.6</ele>
        <time>1970-01-01T00:12:00.000Z</time>
      </trkpt>
      <trkpt lat="42.50209" lon="1.06787">
        <ele>2209.6</ele>
        <time>1970-01-01T00:12:06.000Z</time>
      </trkpt>
      <trkpt lat="42.502054" lon="1.068033">
        <ele>2210.6</ele>
        <time>1970-01-01T00:12:13.000Z</time>
      </trkpt>
      <trkpt lat="42.502011" lon="1.068188">
        <ele>2211.6</ele>
        <time>1970-01-01T00:12:20.000Z</time>
      </trkpt>
      <trkpt lat="42.501967" lon="1.068318">
        <ele>2212.8</ele>
        <time>1970-01-01T00:12:26.000Z</time>
      </trkpt>
      <trkpt lat="42.501916" lon="1.068486">
        <ele>2214</ele>
        <time>1970-01-01T00:12:34.000Z</time>
      </trkpt>
      <trkpt lat="42.501871" lon="1.068596">
        <ele>2215</ele>
        <time>1970-01-01T00:12:40.000Z</time>
      </trkpt>
      <trkpt lat="42.501806" lon="1.068725">
        <ele>2216.2</ele>
        <time>1970-01-01T00:12:47.000Z</time>
      </trkpt>
      <trkpt lat="42.501722" lon="1.068898">
        <ele>2217.2</ele>
        <time>1970-01-01T00:12:56.000Z</time>
      </trkpt>
      <trkpt lat="42.501636" lon="1.069038">
        <ele>2218</ele>
        <time>1970-01-01T00:13:04.000Z</time>
      </trkpt>
      <trkpt lat="42.501524" lon="1.069195">
        <ele>2219</ele>
        <time>1970-01-01T00:13:13.000Z</time>
      </trkpt>
      <trkpt lat="42.501423" lon="1.069296">
        <ele>2220</ele>
        <time>1970-01-01T00:13:20.000Z</time>
      </trkpt>
      <trkpt lat="42.501267" lon="1.069446">
        <ele>2221</ele>
        <time>1970-01-01T00:13:30.000Z</time>
      </trkpt>
      <trkpt lat="42.501156" lon="1.069522">
        <ele>2222.2</ele>
        <time>1970-01-01T00:13:37.000Z</time>
      </trkpt>
      <trkpt lat="42.501018" lon="1.0696">
        <ele>2223.4</ele>
        <time>1970-01-01T00:13:45.000Z</time>
      </trkpt>
      <trkpt lat="42.50093" lon="1.069644">
        <ele>2223.8</ele>
        <time>1970-01-01T00:13:50.000Z</time>
      </trkpt>
      <trkpt lat="42.500836" lon="1.069675">
        <ele>2224.4</ele>
        <time>1970-01-01T00:13:55.000Z</time>
      </trkpt>
      <trkpt lat="42.500722" lon="1.06973">
        <ele>2225.4</ele>
        <time>1970-01-01T00:14:02.000Z</time>
      </trkpt>
      <trkpt lat="42.500551" lon="1.069789">
        <ele>2226.4</ele>
        <time>1970-01-01T00:14:12.000Z</time>
      </trkpt>
      <trkpt lat="42.500376" lon="1.069821">
        <ele>2227.4</ele>
        <time>1970-01-01T00:14:20.000Z</time>
      </trkpt>
      <trkpt lat="42.500195" lon="1.069862">
        <ele>2228.4</ele>
        <time>1970-01-01T00:14:29.000Z</time>
      </trkpt>
      <trkpt lat="42.500045" lon="1.069908">
        <ele>2229.6</ele>
        <time>1970-01-01T00:14:37.000Z</time>
      </trkpt>
      <trkpt lat="42.499928" lon="1.069927">
        <ele>2230.6</ele>
        <time>1970-01-01T00:14:43.000Z</time>
      </trkpt>
      <trkpt lat="42.499781" lon="1.06999">
        <ele>2231.6</ele>
        <time>1970-01-01T00:14:52.000Z</time>
      </trkpt>
      <trkpt lat="42.499657" lon="1.070027">
        <ele>2232.6</ele>
        <time>1970-01-01T00:14:59.000Z</time>
      </trkpt>
      <trkpt lat="42.499498" lon="1.070045">
        <ele>2233.8</ele>
        <time>1970-01-01T00:15:08.000Z</time>
      </trkpt>
      <trkpt lat="42.499295" lon="1.070132">
        <ele>2234.8</ele>
        <time>1970-01-01T00:15:20.000Z</time>
      </trkpt>
      <trkpt lat="42.499177" lon="1.070201">
        <ele>2235.8</ele>
        <time>1970-01-01T00:15:27.000Z</time>
      </trkpt>
      <trkpt lat="42.499045" lon="1.070291">
        <ele>2237</ele>
        <time>1970-01-01T00:15:35.000Z</time>
      </trkpt>
      <trkpt lat="42.498907" lon="1.070368">
        <ele>2238</ele>
        <time>1970-01-01T00:15:43.000Z</time>
      </trkpt>
      <trkpt lat="42.498792" lon="1.07045">
        <ele>2238.8</ele>
        <time>1970-01-01T00:15:50.000Z</time>
      </trkpt>
      <trkpt lat="42.498759" lon="1.070477">
        <ele>2239.2</ele>
        <time>1970-01-01T00:15:52.000Z</time>
      </trkpt>
      <trkpt lat="42.498551" lon="1.070646">
        <ele>2240.2</ele>
        <time>1970-01-01T00:16:04.000Z</time>
      </trkpt>
      <trkpt lat="42.498424" lon="1.070763">
        <ele>2241.4</ele>
        <time>1970-01-01T00:16:12.000Z</time>
      </trkpt>
      <trkpt lat="42.498276" lon="1.07093">
        <ele>2242.4</ele>
        <time>1970-01-01T00:16:22.000Z</time>
      </trkpt>
      <trkpt lat="42.498172" lon="1.07106">
        <ele>2243.6</ele>
        <time>1970-01-01T00:16:29.000Z</time>
      </trkpt>
      <trkpt lat="42.498067" lon="1.07119">
        <ele>2244.4</ele>
        <time>1970-01-01T00:16:36.000Z</time>
      </trkpt>
      <trkpt lat="42.497958" lon="1.071377">
        <ele>2245.4</ele>
        <time>1970-01-01T00:16:45.000Z</time>
      </trkpt>
      <trkpt lat="42.497867" lon="1.071618">
        <ele>2246.4</ele>
        <time>1970-01-01T00:16:55.000Z</time>
      </trkpt>
      <trkpt lat="42.497822" lon="1.07186">
        <ele>2247.6</ele>
        <time>1970-01-01T00:17:04.000Z</time>
      </trkpt>
      <trkpt lat="42.497798" lon="1.072047">
        <ele>2248.6</ele>
        <time>1970-01-01T00:17:11.000Z</time>
      </trkpt>
      <trkpt lat="42.497763" lon="1.072274">
        <ele>2249.6</ele>
        <time>1970-01-01T00:17:20.000Z</time>
      </trkpt>
      <trkpt lat="42.497726" lon="1.072469">
        <ele>2250.8</ele>
        <time>1970-01-01T00:17:28.000Z</time>
      </trkpt>
      <trkpt lat="42.497617" lon="1.0727">
        <ele>2251.8</ele>
        <time>1970-01-01T00:17:38.000Z</time>
      </trkpt>
      <trkpt lat="42.497494" lon="1.072844">
        <ele>2253</ele>
        <time>1970-01-01T00:17:46.000Z</time>
      </trkpt>
      <trkpt lat="42.497308" lon="1.073076">
        <ele>2254</ele>
        <time>1970-01-01T00:17:59.000Z</time>
      </trkpt>
      <trkpt lat="42.497237" lon="1.073157">
        <ele>2254.8</ele>
        <time>1970-01-01T00:18:04.000Z</time>
      </trkpt>
      <trkpt lat="42.497125" lon="1.073276">
        <ele>2255.8</ele>
        <time>1970-01-01T00:18:12.000Z</time>
      </trkpt>
      <trkpt lat="42.496991" lon="1.07342">
        <ele>2257</ele>
        <time>1970-01-01T00:18:21.000Z</time>
      </trkpt>
      <trkpt lat="42.4969" lon="1.073503">
        <ele>2258.2</ele>
        <time>1970-01-01T00:18:27.000Z</time>
      </trkpt>
      <trkpt lat="42.496771" lon="1.073635">
        <ele>2259.2</ele>
        <time>1970-01-01T00:18:35.000Z</time>
      </trkpt>
      <trkpt lat="42.496654" lon="1.073765">
        <ele>2260.2</ele>
        <time>1970-01-01T00:18:43.000Z</time>
      </trkpt>
      <trkpt lat="42.496508" lon="1.073942">
        <ele>2261.4</ele>
        <time>1970-01-01T00:18:53.000Z</time>
      </trkpt>
      <trkpt lat="42.496371" lon="1.074049">
        <ele>2262.2</ele>
        <time>1970-01-01T00:19:02.000Z</time>
      </trkpt>
      <trkpt lat="42.496237" lon="1.074152">
        <ele>2263.4</ele>
        <time>1970-01-01T00:19:10.000Z</time>
      </trkpt>
      <trkpt lat="42.496104" lon="1.074267">
        <ele>2264.6</ele>
        <time>1970-01-01T00:19:18.000Z</time>
      </trkpt>
      <trkpt lat="42.495961" lon="1.07441">
        <ele>2265.6</ele>
        <time>1970-01-01T00:19:27.000Z</time>
      </trkpt>
      <trkpt lat="42.495783" lon="1.074583">
        <ele>2266.6</ele>
        <time>1970-01-01T00:19:38.000Z</time>
      </trkpt>
      <trkpt lat="42.495668" lon="1.0747">
        <ele>2267.6</ele>
        <time>1970-01-01T00:19:45.000Z</time>
      </trkpt>
      <trkpt lat="42.495555" lon="1.074785">
        <ele>2268.8</ele>
        <time>1970-01-01T00:19:51.000Z</time>
      </trkpt>
      <trkpt lat="42.495439" lon="1.074932">
        <ele>2269.8</ele>
        <time>1970-01-01T00:19:59.000Z</time>
      </trkpt>
      <trkpt lat="42.495436" lon="1.075074">
        <ele>2270.8</ele>
        <time>1970-01-01T00:20:05.000Z</time>
      </trkpt>
      <trkpt lat="42.495457" lon="1.075134">
        <ele>2272</ele>
        <time>1970-01-01T00:20:08.000Z</time>
      </trkpt>
      <trkpt lat="42.49547" lon="1.075151">
        <ele>2272.8</ele>
        <time>1970-01-01T00:20:11.000Z</time>
      </trkpt>
      <trkpt lat="42.495561" lon="1.075169">
        <ele>2273.4</ele>
        <time>1970-01-01T00:23:49.000Z</time>
      </trkpt>
      <trkpt lat="42.495676" lon="1.075173">
        <ele>2273.4</ele>
        <time>1970-01-01T00:23:55.000Z</time>
      </trkpt>
      <trkpt lat="42.495882" lon="1.075201">
        <ele>2274.4</ele>
        <time>1970-01-01T00:24:06.000Z</time>
      </trkpt>
      <trkpt lat="42.495956" lon="1.075208">
        <ele>2275.8</ele>
        <time>1970-01-01T00:24:10.000Z</time>
      </trkpt>
      <trkpt lat="42.496015" lon="1.075213">
        <ele>2277</ele>
        <time>1970-01-01T00:24:13.000Z</time>
      </trkpt>
      <trkpt lat="42.496171" lon="1.075248">
        <ele>2278</ele>
        <time>1970-01-01T00:24:21.000Z</time>
      </trkpt>
      <trkpt lat="42.496346" lon="1.07538">
        <ele>2279.2</ele>
        <time>1970-01-01T00:24:32.000Z</time>
      </trkpt>
      <trkpt lat="42.496541" lon="1.075469">
        <ele>2280.2</ele>
        <time>1970-01-01T00:24:43.000Z</time>
      </trkpt>
      <trkpt lat="42.49668" lon="1.07557">
        <ele>2281.2</ele>
        <time>1970-01-01T00:24:51.000Z</time>
      </trkpt>
      <trkpt lat="42.49721" lon="1.075828">
        <ele>2280.8</ele>
        <time>1970-01-01T00:25:14.000Z</time>
      </trkpt>
      <trkpt lat="42.497485" lon="1.075981">
        <ele>2280.2</ele>
        <time>1970-01-01T00:25:22.000Z</time>
      </trkpt>
      <trkpt lat="42.49799" lon="1.076301">
        <ele>2279.4</ele>
        <time>1970-01-01T00:25:37.000Z</time>
      </trkpt>
      <trkpt lat="42.498115" lon="1.076372">
        <ele>2279</ele>
        <time>1970-01-01T00:25:40.000Z</time>
      </trkpt>
      <trkpt lat="42.498313" lon="1.076494">
        <ele>2278.8</ele>
        <time>1970-01-01T00:25:45.000Z</time>
      </trkpt>
      <trkpt lat="42.498623" lon="1.076829">
        <ele>2278</ele>
        <time>1970-01-01T00:25:56.000Z</time>
      </trkpt>
      <trkpt lat="42.499023" lon="1.077389">
        <ele>2277.2</ele>
        <time>1970-01-01T00:26:08.000Z</time>
      </trkpt>
      <trkpt lat="42.49914" lon="1.077545">
        <ele>2277.2</ele>
        <time>1970-01-01T00:26:11.000Z</time>
      </trkpt>
      <trkpt lat="42.499326" lon="1.077653">
        <ele>2277.2</ele>
        <time>1970-01-01T00:26:15.000Z</time>
      </trkpt>
      <trkpt lat="42.499419" lon="1.077679">
        <ele>2277.2</ele>
        <time>1970-01-01T00:26:20.000Z</time>
      </trkpt>
      <trkpt lat="42.499453" lon="1.077681">
        <ele>2277</ele>
        <time>1970-01-01T00:26:27.000Z</time>
      </trkpt>
      <trkpt lat="42.499479" lon="1.077684">
        <ele>2277</ele>
        <time>1970-01-01T00:26:28.000Z</time>
      </trkpt>
      <trkpt lat="42.49985" lon="1.077596">
        <ele>2276</ele>
        <time>1970-01-01T00:26:39.000Z</time>
      </trkpt>
      <trkpt lat="42.500199" lon="1.077433">
        <ele>2275.2</ele>
        <time>1970-01-01T00:26:47.000Z</time>
      </trkpt>
      <trkpt lat="42.500327" lon="1.077347">
        <ele>2275.2</ele>
        <time>1970-01-01T00:26:50.000Z</time>
      </trkpt>
      <trkpt lat="42.500455" lon="1.077265">
        <ele>2274.8</ele>
        <time>1970-01-01T00:26:53.000Z</time>
      </trkpt>
      <trkpt lat="42.500972" lon="1.076956">
        <ele>2274</ele>
        <time>1970-01-01T00:27:04.000Z</time>
      </trkpt>
      <trkpt lat="42.50118" lon="1.076826">
        <ele>2273.8</ele>
        <time>1970-01-01T00:27:08.000Z</time>
      </trkpt>
      <trkpt lat="42.501437" lon="1.076669">
        <ele>2272.8</ele>
        <time>1970-01-01T00:27:13.000Z</time>
      </trkpt>
      <trkpt lat="42.501694" lon="1.076519">
        <ele>2271.6</ele>
        <time>1970-01-01T00:27:18.000Z</time>
      </trkpt>
      <trkpt lat="42.501971" lon="1.076388">
        <ele>2270.4</ele>
        <time>1970-01-01T00:27:23.000Z</time>
      </trkpt>
      <trkpt lat="42.502391" lon="1.076154">
        <ele>2269.4</ele>
        <time>1970-01-01T00:27:30.000Z</time>
      </trkpt>
      <trkpt lat="42.502725" lon="1.075967">
        <ele>2268.2</ele>
        <time>1970-01-01T00:27:35.000Z</time>
      </trkpt>
      <trkpt lat="42.502872" lon="1.075912">
        <ele>2267.8</ele>
        <time>1970-01-01T00:27:37.000Z</time>
      </trkpt>
      <trkpt lat="42.503091" lon="1.075882">
        <ele>2267</ele>
        <time>1970-01-01T00:27:40.000Z</time>
      </trkpt>
      <trkpt lat="42.503224" lon="1.07584">
        <ele>2266.4</ele>
        <time>1970-01-01T00:27:42.000Z</time>
      </trkpt>
      <trkpt lat="42.503357" lon="1.075766">
        <ele>2265.8</ele>
        <time>1970-01-01T00:27:44.000Z</time>
      </trkpt>
      <trkpt lat="42.503729" lon="1.075444">
        <ele>2264.6</ele>
        <time>1970-01-01T00:27:50.000Z</time>
      </trkpt>
      <trkpt lat="42.503989" lon="1.07519">
        <ele>2263.4</ele>
        <time>1970-01-01T00:27:54.000Z</time>
      </trkpt>
      <trkpt lat="42.504233" lon="1.074866">
        <ele>2262</ele>
        <time>1970-01-01T00:27:58.000Z</time>
      </trkpt>
      <trkpt lat="42.504327" lon="1.074709">
        <ele>2261.2</ele>
        <time>1970-01-01T00:28:00.000Z</time>
      </trkpt>
      <trkpt lat="42.504356" lon="1.074629">
        <ele>2261</ele>
        <time>1970-01-01T00:28:01.000Z</time>
      </trkpt>
      <trkpt lat="42.504471" lon="1.074291">
        <ele>2260</ele>
        <time>1970-01-01T00:28:05.000Z</time>
      </trkpt>
      <trkpt lat="42.504586" lon="1.073946">
        <ele>2258.8</ele>
        <time>1970-01-01T00:28:09.000Z</time>
      </trkpt>
      <trkpt lat="42.504615" lon="1.073625">
        <ele>2257.6</ele>
        <time>1970-01-01T00:28:13.000Z</time>
      </trkpt>
      <trkpt lat="42.504624" lon="1.073536">
        <ele>2257.2</ele>
        <time>1970-01-01T00:28:14.000Z</time>
      </trkpt>
      <trkpt lat="42.504657" lon="1.073369">
        <ele>2256.6</ele>
        <time>1970-01-01T00:28:16.000Z</time>
      </trkpt>
      <trkpt lat="42.504726" lon="1.073124">
        <ele>2255</ele>
        <time>1970-01-01T00:28:19.000Z</time>
      </trkpt>
      <trkpt lat="42.504789" lon="1.072955">
        <ele>2253.4</ele>
        <time>1970-01-01T00:28:22.000Z</time>
      </trkpt>
      <trkpt lat="42.504888" lon="1.07281">
        <ele>2252.6</ele>
        <time>1970-01-01T00:28:26.000Z</time>
      </trkpt>
      <trkpt lat="42.504924" lon="1.072771">
        <ele>2252.4</ele>
        <time>1970-01-01T00:28:27.000Z</time>
      </trkpt>
      <trkpt lat="42.505005" lon="1.072688">
        <ele>2251.8</ele>
        <time>1970-01-01T00:28:29.000Z</time>
      </trkpt>
      <trkpt lat="42.505104" lon="1.072611">
        <ele>2251.2</ele>
        <time>1970-01-01T00:28:31.000Z</time>
      </trkpt>
      <trkpt lat="42.50526" lon="1.072485">
        <ele>2250.6</ele>
        <time>1970-01-01T00:28:34.000Z</time>
      </trkpt>
      <trkpt lat="42.505379" lon="1.072431">
        <ele>2250</ele>
        <time>1970-01-01T00:28:36.000Z</time>
      </trkpt>
      <trkpt lat="42.505573" lon="1.072387">
        <ele>2248.6</ele>
        <time>1970-01-01T00:28:39.000Z</time>
      </trkpt>
      <trkpt lat="42.505725" lon="1.072364">
        <ele>2247.4</ele>
        <time>1970-01-01T00:28:41.000Z</time>
      </trkpt>
      <trkpt lat="42.505883" lon="1.072332">
        <ele>2246.2</ele>
        <time>1970-01-01T00:28:43.000Z</time>
      </trkpt>
      <trkpt lat="42.50596" lon="1.072306">
        <ele>2245.8</ele>
        <time>1970-01-01T00:28:44.000Z</time>
      </trkpt>
      <trkpt lat="42.506113" lon="1.072246">
        <ele>2244.8</ele>
        <time>1970-01-01T00:28:46.000Z</time>
      </trkpt>
      <trkpt lat="42.506276" lon="1.072196">
        <ele>2243.4</ele>
        <time>1970-01-01T00:28:48.000Z</time>
      </trkpt>
      <trkpt lat="42.506441" lon="1.072157">
        <ele>2241.8</ele>
        <time>1970-01-01T00:28:50.000Z</time>
      </trkpt>
      <trkpt lat="42.506609" lon="1.072133">
        <ele>2240</ele>
        <time>1970-01-01T00:28:52.000Z</time>
      </trkpt>
      <trkpt lat="42.506787" lon="1.072109">
        <ele>2238.8</ele>
        <time>1970-01-01T00:28:54.000Z</time>
      </trkpt>
      <trkpt lat="42.506966" lon="1.072071">
        <ele>2237.2</ele>
        <time>1970-01-01T00:28:56.000Z</time>
      </trkpt>
      <trkpt lat="42.507152" lon="1.072041">
        <ele>2235.6</ele>
        <time>1970-01-01T00:28:58.000Z</time>
      </trkpt>
      <trkpt lat="42.507331" lon="1.072039">
        <ele>2234</ele>
        <time>1970-01-01T00:29:00.000Z</time>
      </trkpt>
      <trkpt lat="42.507912" lon="1.072054">
        <ele>2234.8</ele>
        <time>1970-01-01T00:29:09.000Z</time>
      </trkpt>
      <trkpt lat="42.508061" lon="1.072093">
        <ele>2235.4</ele>
        <time>1970-01-01T00:29:12.000Z</time>
      </trkpt>
      <trkpt lat="42.50823" lon="1.072202">
        <ele>2235.4</ele>
        <time>1970-01-01T00:29:16.000Z</time>
      </trkpt>
      <trkpt lat="42.50872" lon="1.072569">
        <ele>2235.6</ele>
        <time>1970-01-01T00:29:30.000Z</time>
      </trkpt>
      <trkpt lat="42.508915" lon="1.072701">
        <ele>2236.6</ele>
        <time>1970-01-01T00:29:37.000Z</time>
      </trkpt>
      <trkpt lat="42.509048" lon="1.072828">
        <ele>2237.6</ele>
        <time>1970-01-01T00:29:43.000Z</time>
      </trkpt>
      <trkpt lat="42.509169" lon="1.072916">
        <ele>2238.8</ele>
        <time>1970-01-01T00:29:48.000Z</time>
      </trkpt>
      <trkpt lat="42.509291" lon="1.073024">
        <ele>2240</ele>
        <time>1970-01-01T00:29:54.000Z</time>
      </trkpt>
      <trkpt lat="42.509334" lon="1.073063">
        <ele>2240.6</ele>
        <time>1970-01-01T00:29:58.000Z</time>
      </trkpt>
      <trkpt lat="42.509389" lon="1.07303">
        <ele>2241.2</ele>
        <time>1970-01-01T00:32:13.000Z</time>
      </trkpt>
      <trkpt lat="42.509411" lon="1.073032">
        <ele>2240.8</ele>
        <time>1970-01-01T00:32:14.000Z</time>
      </trkpt>
      <trkpt lat="42.509606" lon="1.072958">
        <ele>2241</ele>
        <time>1970-01-01T00:32:21.000Z</time>
      </trkpt>
      <trkpt lat="42.509868" lon="1.072789">
        <ele>2242.2</ele>
        <time>1970-01-01T00:32:30.000Z</time>
      </trkpt>
      <trkpt lat="42.510323" lon="1.072371">
        <ele>2242.8</ele>
        <time>1970-01-01T00:32:46.000Z</time>
      </trkpt>
      <trkpt lat="42.510472" lon="1.071912">
        <ele>2243.2</ele>
        <time>1970-01-01T00:32:55.000Z</time>
      </trkpt>
      <trkpt lat="42.510713" lon="1.071201">
        <ele>2243.6</ele>
        <time>1970-01-01T00:33:08.000Z</time>
      </trkpt>
      <trkpt lat="42.511147" lon="1.070666">
        <ele>2243.4</ele>
        <time>1970-01-01T00:33:19.000Z</time>
      </trkpt>
      <trkpt lat="42.511353" lon="1.070511">
        <ele>2242.6</ele>
        <time>1970-01-01T00:33:23.000Z</time>
      </trkpt>
      <trkpt lat="42.511452" lon="1.070417">
        <ele>2242.4</ele>
        <time>1970-01-01T00:33:25.000Z</time>
      </trkpt>
      <trkpt lat="42.511903" lon="1.070001">
        <ele>2241.4</ele>
        <time>1970-01-01T00:33:34.000Z</time>
      </trkpt>
      <trkpt lat="42.511955" lon="1.069948">
        <ele>2241.2</ele>
        <time>1970-01-01T00:33:35.000Z</time>
      </trkpt>
      <trkpt lat="42.512205" lon="1.069637">
        <ele>2240.2</ele>
        <time>1970-01-01T00:33:40.000Z</time>
      </trkpt>
      <trkpt lat="42.512347" lon="1.069434">
        <ele>2239</ele>
        <time>1970-01-01T00:33:43.000Z</time>
      </trkpt>
      <trkpt lat="42.512554" lon="1.06917">
        <ele>2237.8</ele>
        <time>1970-01-01T00:33:47.000Z</time>
      </trkpt>
      <trkpt lat="42.512841" lon="1.068773">
        <ele>2236.8</ele>
        <time>1970-01-01T00:33:53.000Z</time>
      </trkpt>
      <trkpt lat="42.512877" lon="1.068691">
        <ele>2236.6</ele>
        <time>1970-01-01T00:33:54.000Z</time>
      </trkpt>
      <trkpt lat="42.512948" lon="1.068524">
        <ele>2236.2</ele>
        <time>1970-01-01T00:33:56.000Z</time>
      </trkpt>
      <trkpt lat="42.513054" lon="1.068383">
        <ele>2235.4</ele>
        <time>1970-01-01T00:33:58.000Z</time>
      </trkpt>
      <trkpt lat="42.513161" lon="1.068239">
        <ele>2234.4</ele>
        <time>1970-01-01T00:34:00.000Z</time>
      </trkpt>
      <trkpt lat="42.513212" lon="1.068159">
        <ele>2234</ele>
        <time>1970-01-01T00:34:01.000Z</time>
      </trkpt>
      <trkpt lat="42.513308" lon="1.067977">
        <ele>2233</ele>
        <time>1970-01-01T00:34:03.000Z</time>
      </trkpt>
      <trkpt lat="42.513407" lon="1.067782">
        <ele>2231.8</ele>
        <time>1970-01-01T00:34:05.000Z</time>
      </trkpt>
      <trkpt lat="42.513517" lon="1.067598">
        <ele>2230.8</ele>
        <time>1970-01-01T00:34:07.000Z</time>
      </trkpt>
      <trkpt lat="42.513802" lon="1.067359">
        <ele>2229.4</ele>
        <time>1970-01-01T00:34:11.000Z</time>
      </trkpt>
      <trkpt lat="42.514033" lon="1.067218">
        <ele>2228.4</ele>
        <time>1970-01-01T00:34:14.000Z</time>
      </trkpt>
      <trkpt lat="42.514338" lon="1.067044">
        <ele>2227.4</ele>
        <time>1970-01-01T00:34:18.000Z</time>
      </trkpt>
      <trkpt lat="42.514569" lon="1.067052">
        <ele>2227.4</ele>
        <time>1970-01-01T00:34:21.000Z</time>
      </trkpt>
      <trkpt lat="42.514706" lon="1.067148">
        <ele>2227.2</ele>
        <time>1970-01-01T00:34:23.000Z</time>
      </trkpt>
      <trkpt lat="42.514773" lon="1.067195">
        <ele>2226.8</ele>
        <time>1970-01-01T00:34:24.000Z</time>
      </trkpt>
      <trkpt lat="42.514922" lon="1.067228">
        <ele>2226.2</ele>
        <time>1970-01-01T00:34:26.000Z</time>
      </trkpt>
      <trkpt lat="42.515079" lon="1.067243">
        <ele>2225.2</ele>
        <time>1970-01-01T00:34:28.000Z</time>
      </trkpt>
      <trkpt lat="42.515148" lon="1.067251">
        <ele>2224.8</ele>
        <time>1970-01-01T00:34:29.000Z</time>
      </trkpt>
      <trkpt lat="42.515319" lon="1.067312">
        <ele>2223.6</ele>
        <time>1970-01-01T00:34:32.000Z</time>
      </trkpt>
      <trkpt lat="42.515384" lon="1.067328">
        <ele>2223.2</ele>
        <time>1970-01-01T00:34:33.000Z</time>
      </trkpt>
      <trkpt lat="42.515521" lon="1.067392">
        <ele>2222.6</ele>
        <time>1970-01-01T00:34:35.000Z</time>
      </trkpt>
      <trkpt lat="42.515644" lon="1.067505">
        <ele>2221.2</ele>
        <time>1970-01-01T00:34:37.000Z</time>
      </trkpt>
      <trkpt lat="42.515706" lon="1.067567">
        <ele>2220.8</ele>
        <time>1970-01-01T00:34:38.000Z</time>
      </trkpt>
      <trkpt lat="42.515774" lon="1.06762">
        <ele>2220.4</ele>
        <time>1970-01-01T00:34:39.000Z</time>
      </trkpt>
      <trkpt lat="42.515922" lon="1.067678">
        <ele>2220</ele>
        <time>1970-01-01T00:34:41.000Z</time>
      </trkpt>
      <trkpt lat="42.516148" lon="1.067666">
        <ele>2218.8</ele>
        <time>1970-01-01T00:34:44.000Z</time>
      </trkpt>
      <trkpt lat="42.516223" lon="1.067643">
        <ele>2218.6</ele>
        <time>1970-01-01T00:34:45.000Z</time>
      </trkpt>
      <trkpt lat="42.5166" lon="1.067299">
        <ele>2217.6</ele>
        <time>1970-01-01T00:34:51.000Z</time>
      </trkpt>
      <trkpt lat="42.51673" lon="1.067032">
        <ele>2216.8</ele>
        <time>1970-01-01T00:34:54.000Z</time>
      </trkpt>
      <trkpt lat="42.516768" lon="1.066939">
        <ele>2216.6</ele>
        <time>1970-01-01T00:34:55.000Z</time>
      </trkpt>
      <trkpt lat="42.516977" lon="1.066301">
        <ele>2215.4</ele>
        <time>1970-01-01T00:35:02.000Z</time>
      </trkpt>
      <trkpt lat="42.517075" lon="1.066063">
        <ele>2215.2</ele>
        <time>1970-01-01T00:35:05.000Z</time>
      </trkpt>
      <trkpt lat="42.517407" lon="1.065953">
        <ele>2215</ele>
        <time>1970-01-01T00:35:11.000Z</time>
      </trkpt>
      <trkpt lat="42.517982" lon="1.06614">
        <ele>2215.4</ele>
        <time>1970-01-01T00:35:21.000Z</time>
      </trkpt>
      <trkpt lat="42.518089" lon="1.066177">
        <ele>2215.2</ele>
        <time>1970-01-01T00:35:23.000Z</time>
      </trkpt>
      <trkpt lat="42.518324" lon="1.066181">
        <ele>2214.8</ele>
        <time>1970-01-01T00:35:27.000Z</time>
      </trkpt>
      <trkpt lat="42.518452" lon="1.066156">
        <ele>2214.2</ele>
        <time>1970-01-01T00:35:29.000Z</time>
      </trkpt>
      <trkpt lat="42.518643" lon="1.066074">
        <ele>2213.8</ele>
        <time>1970-01-01T00:35:32.000Z</time>
      </trkpt>
      <trkpt lat="42.518807" lon="1.06594">
        <ele>2213</ele>
        <time>1970-01-01T00:35:35.000Z</time>
      </trkpt>
      <trkpt lat="42.518896" lon="1.065844">
        <ele>2212.6</ele>
        <time>1970-01-01T00:35:37.000Z</time>
      </trkpt>
      <trkpt lat="42.518941" lon="1.065551">
        <ele>2212</ele>
        <time>1970-01-01T00:35:42.000Z</time>
      </trkpt>
      <trkpt lat="42.518959" lon="1.065431">
        <ele>2211.8</ele>
        <time>1970-01-01T00:35:44.000Z</time>
      </trkpt>
      <trkpt lat="42.518996" lon="1.065308">
        <ele>2212</ele>
        <time>1970-01-01T00:35:46.000Z</time>
      </trkpt>
      <trkpt lat="42.519289" lon="1.064659">
        <ele>2212.8</ele>
        <time>1970-01-01T00:35:58.000Z</time>
      </trkpt>
      <trkpt lat="42.519392" lon="1.064452">
        <ele>2213</ele>
        <time>1970-01-01T00:36:02.000Z</time>
      </trkpt>
      <trkpt lat="42.519742" lon="1.064233">
        <ele>2214</ele>
        <time>1970-01-01T00:36:11.000Z</time>
      </trkpt>
      <trkpt lat="42.520037" lon="1.064225">
        <ele>2214.2</ele>
        <time>1970-01-01T00:36:18.000Z</time>
      </trkpt>
      <trkpt lat="42.520287" lon="1.063822">
        <ele>2215.2</ele>
        <time>1970-01-01T00:36:30.000Z</time>
      </trkpt>
      <trkpt lat="42.52041" lon="1.063682">
        <ele>2216.6</ele>
        <time>1970-01-01T00:36:36.000Z</time>
      </trkpt>
      <trkpt lat="42.520551" lon="1.063543">
        <ele>2217.6</ele>
        <time>1970-01-01T00:36:43.000Z</time>
      </trkpt>
      <trkpt lat="42.520691" lon="1.063473">
        <ele>2218.8</ele>
        <time>1970-01-01T00:36:49.000Z</time>
      </trkpt>
      <trkpt lat="42.520865" lon="1.063455">
        <ele>2220</ele>
        <time>1970-01-01T00:36:56.000Z</time>
      </trkpt>
      <trkpt lat="42.521061" lon="1.063496">
        <ele>2221.2</ele>
        <time>1970-01-01T00:37:04.000Z</time>
      </trkpt>
      <trkpt lat="42.521143" lon="1.063505">
        <ele>2222.2</ele>
        <time>1970-01-01T00:37:08.000Z</time>
      </trkpt>
      <trkpt lat="42.521328" lon="1.063589">
        <ele>2223.2</ele>
        <time>1970-01-01T00:37:17.000Z</time>
      </trkpt>
      <trkpt lat="42.52144" lon="1.063753">
        <ele>2224.2</ele>
        <time>1970-01-01T00:37:24.000Z</time>
      </trkpt>
      <trkpt lat="42.521557" lon="1.0638">
        <ele>2225.2</ele>
        <time>1970-01-01T00:37:29.000Z</time>
      </trkpt>
      <trkpt lat="42.521804" lon="1.063648">
        <ele>2224.4</ele>
        <time>1970-01-01T00:37:39.000Z</time>
      </trkpt>
      <trkpt lat="42.521847" lon="1.063634">
        <ele>2224.2</ele>
        <time>1970-01-01T00:37:40.000Z</time>
      </trkpt>
      <trkpt lat="42.522087" lon="1.063661">
        <ele>2223</ele>
        <time>1970-01-01T00:37:45.000Z</time>
      </trkpt>
      <trkpt lat="42.522252" lon="1.063983">
        <ele>2221.8</ele>
        <time>1970-01-01T00:37:52.000Z</time>
      </trkpt>
      <trkpt lat="42.522262" lon="1.064052">
        <ele>2221.4</ele>
        <time>1970-01-01T00:37:53.000Z</time>
      </trkpt>
      <trkpt lat="42.52233" lon="1.064386">
        <ele>2220.4</ele>
        <time>1970-01-01T00:37:57.000Z</time>
      </trkpt>
      <trkpt lat="42.522425" lon="1.064714">
        <ele>2219.2</ele>
        <time>1970-01-01T00:38:01.000Z</time>
      </trkpt>
      <trkpt lat="42.522499" lon="1.064892">
        <ele>2218.6</ele>
        <time>1970-01-01T00:38:04.000Z</time>
      </trkpt>
      <trkpt lat="42.522697" lon="1.065595">
        <ele>2219.6</ele>
        <time>1970-01-01T00:38:20.000Z</time>
      </trkpt>
      <trkpt lat="42.522776" lon="1.065826">
        <ele>2220.4</ele>
        <time>1970-01-01T00:38:26.000Z</time>
      </trkpt>
      <trkpt lat="42.522822" lon="1.066007">
        <ele>2221.6</ele>
        <time>1970-01-01T00:38:31.000Z</time>
      </trkpt>
      <trkpt lat="42.522869" lon="1.066297">
        <ele>2222.6</ele>
        <time>1970-01-01T00:38:39.000Z</time>
      </trkpt>
      <trkpt lat="42.522919" lon="1.066591">
        <ele>2223.8</ele>
        <time>1970-01-01T00:38:47.000Z</time>
      </trkpt>
      <trkpt lat="42.523095" lon="1.067307">
        <ele>2224.4</ele>
        <time>1970-01-01T00:39:06.000Z</time>
      </trkpt>
      <trkpt lat="42.523105" lon="1.067472">
        <ele>2224.8</ele>
        <time>1970-01-01T00:39:10.000Z</time>
      </trkpt>
      <trkpt lat="42.522996" lon="1.068228">
        <ele>2225.6</ele>
        <time>1970-01-01T00:39:25.000Z</time>
      </trkpt>
      <trkpt lat="42.522848" lon="1.068992">
        <ele>2224.2</ele>
        <time>1970-01-01T00:39:36.000Z</time>
      </trkpt>
      <trkpt lat="42.522806" lon="1.069222">
        <ele>2223.8</ele>
        <time>1970-01-01T00:39:39.000Z</time>
      </trkpt>
      <trkpt lat="42.522779" lon="1.069449">
        <ele>2223.6</ele>
        <time>1970-01-01T00:39:42.000Z</time>
      </trkpt>
      <trkpt lat="42.522741" lon="1.070213">
        <ele>2223.8</ele>
        <time>1970-01-01T00:39:53.000Z</time>
      </trkpt>
      <trkpt lat="42.522784" lon="1.070756">
        <ele>2223.6</ele>
        <time>1970-01-01T00:40:01.000Z</time>
      </trkpt>
      <trkpt lat="42.522921" lon="1.071303">
        <ele>2222.6</ele>
        <time>1970-01-01T00:40:09.000Z</time>
      </trkpt>
      <trkpt lat="42.523107" lon="1.071991">
        <ele>2222.8</ele>
        <time>1970-01-01T00:40:19.000Z</time>
      </trkpt>
      <trkpt lat="42.52313" lon="1.072266">
        <ele>2222.8</ele>
        <time>1970-01-01T00:40:23.000Z</time>
      </trkpt>
      <trkpt lat="42.523119" lon="1.072408">
        <ele>2222.8</ele>
        <time>1970-01-01T00:40:25.000Z</time>
      </trkpt>
      <trkpt lat="42.523068" lon="1.07285">
        <ele>2223.8</ele>
        <time>1970-01-01T00:40:32.000Z</time>
      </trkpt>
      <trkpt lat="42.523064" lon="1.073096">
        <ele>2224.8</ele>
        <time>1970-01-01T00:40:36.000Z</time>
      </trkpt>
      <trkpt lat="42.523198" lon="1.073857">
        <ele>2224</ele>
        <time>1970-01-01T00:40:46.000Z</time>
      </trkpt>
      <trkpt lat="42.523217" lon="1.073926">
        <ele>2223.8</ele>
        <time>1970-01-01T00:40:47.000Z</time>
      </trkpt>
      <trkpt lat="42.523317" lon="1.074102">
        <ele>2222.8</ele>
        <time>1970-01-01T00:40:50.000Z</time>
      </trkpt>
      <trkpt lat="42.523366" lon="1.074157">
        <ele>2222.2</ele>
        <time>1970-01-01T00:40:51.000Z</time>
      </trkpt>
      <trkpt lat="42.523422" lon="1.074203">
        <ele>2221.4</ele>
        <time>1970-01-01T00:40:52.000Z</time>
      </trkpt>
      <trkpt lat="42.523538" lon="1.07428">
        <ele>2220</ele>
        <time>1970-01-01T00:40:54.000Z</time>
      </trkpt>
      <trkpt lat="42.523677" lon="1.07432">
        <ele>2219</ele>
        <time>1970-01-01T00:40:56.000Z</time>
      </trkpt>
      <trkpt lat="42.523834" lon="1.074345">
        <ele>2217.4</ele>
        <time>1970-01-01T00:40:58.000Z</time>
      </trkpt>
      <trkpt lat="42.524008" lon="1.074366">
        <ele>2216.2</ele>
        <time>1970-01-01T00:41:00.000Z</time>
      </trkpt>
      <trkpt lat="42.524201" lon="1.074384">
        <ele>2215.2</ele>
        <time>1970-01-01T00:41:02.000Z</time>
      </trkpt>
      <trkpt lat="42.524301" lon="1.074385">
        <ele>2213.8</ele>
        <time>1970-01-01T00:41:03.000Z</time>
      </trkpt>
      <trkpt lat="42.524403" lon="1.074384">
        <ele>2212.6</ele>
        <time>1970-01-01T00:41:04.000Z</time>
      </trkpt>
      <trkpt lat="42.524602" lon="1.074372">
        <ele>2211.2</ele>
        <time>1970-01-01T00:41:06.000Z</time>
      </trkpt>
      <trkpt lat="42.524802" lon="1.074357">
        <ele>2209.8</ele>
        <time>1970-01-01T00:41:08.000Z</time>
      </trkpt>
      <trkpt lat="42.524994" lon="1.074342">
        <ele>2208.8</ele>
        <time>1970-01-01T00:41:10.000Z</time>
      </trkpt>
      <trkpt lat="42.525184" lon="1.074325">
        <ele>2207.6</ele>
        <time>1970-01-01T00:41:12.000Z</time>
      </trkpt>
      <trkpt lat="42.525481" lon="1.074303">
        <ele>2206.2</ele>
        <time>1970-01-01T00:41:15.000Z</time>
      </trkpt>
      <trkpt lat="42.525788" lon="1.074295">
        <ele>2204.8</ele>
        <time>1970-01-01T00:41:18.000Z</time>
      </trkpt>
      <trkpt lat="42.525996" lon="1.074289">
        <ele>2203.6</ele>
        <time>1970-01-01T00:41:20.000Z</time>
      </trkpt>
      <trkpt lat="42.526205" lon="1.074273">
        <ele>2202.6</ele>
        <time>1970-01-01T00:41:22.000Z</time>
      </trkpt>
      <trkpt lat="42.526517" lon="1.074249">
        <ele>2201</ele>
        <time>1970-01-01T00:41:25.000Z</time>
      </trkpt>
      <trkpt lat="42.526713" lon="1.074221">
        <ele>2200</ele>
        <time>1970-01-01T00:41:27.000Z</time>
      </trkpt>
      <trkpt lat="42.527003" lon="1.074142">
        <ele>2198.6</ele>
        <time>1970-01-01T00:41:30.000Z</time>
      </trkpt>
      <trkpt lat="42.527171" lon="1.074079">
        <ele>2197.6</ele>
        <time>1970-01-01T00:41:32.000Z</time>
      </trkpt>
      <trkpt lat="42.527317" lon="1.07399">
        <ele>2196.8</ele>
        <time>1970-01-01T00:41:34.000Z</time>
      </trkpt>
      <trkpt lat="42.527387" lon="1.073933">
        <ele>2196</ele>
        <time>1970-01-01T00:41:35.000Z</time>
      </trkpt>
      <trkpt lat="42.527517" lon="1.07379">
        <ele>2195.4</ele>
        <time>1970-01-01T00:41:37.000Z</time>
      </trkpt>
      <trkpt lat="42.527763" lon="1.073468">
        <ele>2194.2</ele>
        <time>1970-01-01T00:41:41.000Z</time>
      </trkpt>
      <trkpt lat="42.527956" lon="1.073225">
        <ele>2193.2</ele>
        <time>1970-01-01T00:41:44.000Z</time>
      </trkpt>
      <trkpt lat="42.528103" lon="1.073077">
        <ele>2192</ele>
        <time>1970-01-01T00:41:46.000Z</time>
      </trkpt>
      <trkpt lat="42.528259" lon="1.072931">
        <ele>2190.4</ele>
        <time>1970-01-01T00:41:48.000Z</time>
      </trkpt>
      <trkpt lat="42.528511" lon="1.072743">
        <ele>2189.4</ele>
        <time>1970-01-01T00:41:51.000Z</time>
      </trkpt>
      <trkpt lat="42.528758" lon="1.072586">
        <ele>2188.2</ele>
        <time>1970-01-01T00:41:54.000Z</time>
      </trkpt>
      <trkpt lat="42.528974" lon="1.072452">
        <ele>2186.8</ele>
        <time>1970-01-01T00:41:57.000Z</time>
      </trkpt>
      <trkpt lat="42.529503" lon="1.072141">
        <ele>2186</ele>
        <time>1970-01-01T00:42:05.000Z</time>
      </trkpt>
      <trkpt lat="42.529942" lon="1.071862">
        <ele>2185.6</ele>
        <time>1970-01-01T00:42:12.000Z</time>
      </trkpt>
      <trkpt lat="42.530164" lon="1.071686">
        <ele>2184.8</ele>
        <time>1970-01-01T00:42:16.000Z</time>
      </trkpt>
      <trkpt lat="42.530255" lon="1.071603">
        <ele>2184.2</ele>
        <time>1970-01-01T00:42:18.000Z</time>
      </trkpt>
      <trkpt lat="42.53046" lon="1.071995">
        <ele>2184.4</ele>
        <time>1970-01-01T00:42:27.000Z</time>
      </trkpt>
      <trkpt lat="42.530481" lon="1.072463">
        <ele>2184</ele>
        <time>1970-01-01T00:42:33.000Z</time>
      </trkpt>
      <trkpt lat="42.530591" lon="1.072966">
        <ele>2183</ele>
        <time>1970-01-01T00:42:39.000Z</time>
      </trkpt>
      <trkpt lat="42.530664" lon="1.073308">
        <ele>2182.4</ele>
        <time>1970-01-01T00:42:43.000Z</time>
      </trkpt>
      <trkpt lat="42.530818" lon="1.07382">
        <ele>2182.2</ele>
        <time>1970-01-01T00:42:50.000Z</time>
      </trkpt>
      <trkpt lat="42.530847" lon="1.074125">
        <ele>2182.4</ele>
        <time>1970-01-01T00:42:54.000Z</time>
      </trkpt>
      <trkpt lat="42.530857" lon="1.0742">
        <ele>2182.4</ele>
        <time>1970-01-01T00:42:55.000Z</time>
      </trkpt>
      <trkpt lat="42.530966" lon="1.074604">
        <ele>2182.2</ele>
        <time>1970-01-01T00:43:01.000Z</time>
      </trkpt>
      <trkpt lat="42.531084" lon="1.074866">
        <ele>2182</ele>
        <time>1970-01-01T00:43:05.000Z</time>
      </trkpt>
      <trkpt lat="42.53137" lon="1.075475">
        <ele>2181</ele>
        <time>1970-01-01T00:43:13.000Z</time>
      </trkpt>
      <trkpt lat="42.531598" lon="1.076102">
        <ele>2180</ele>
        <time>1970-01-01T00:43:21.000Z</time>
      </trkpt>
      <trkpt lat="42.531782" lon="1.076797">
        <ele>2179.2</ele>
        <time>1970-01-01T00:43:31.000Z</time>
      </trkpt>
      <trkpt lat="42.531941" lon="1.077562">
        <ele>2178.8</ele>
        <time>1970-01-01T00:43:40.000Z</time>
      </trkpt>
      <trkpt lat="42.531963" lon="1.07765">
        <ele>2178.6</ele>
        <time>1970-01-01T00:43:41.000Z</time>
      </trkpt>
      <trkpt lat="42.531938" lon="1.078078">
        <ele>2178.4</ele>
        <time>1970-01-01T00:43:46.000Z</time>
      </trkpt>
      <trkpt lat="42.531887" lon="1.07882">
        <ele>2178.8</ele>
        <time>1970-01-01T00:43:55.000Z</time>
      </trkpt>
      <trkpt lat="42.531776" lon="1.079611">
        <ele>2179.4</ele>
        <time>1970-01-01T00:44:05.000Z</time>
      </trkpt>
      <trkpt lat="42.531671" lon="1.080026">
        <ele>2180</ele>
        <time>1970-01-01T00:44:11.000Z</time>
      </trkpt>
      <trkpt lat="42.53159" lon="1.080345">
        <ele>2180.6</ele>
        <time>1970-01-01T00:44:16.000Z</time>
      </trkpt>
      <trkpt lat="42.531662" lon="1.080734">
        <ele>2180.4</ele>
        <time>1970-01-01T00:44:22.000Z</time>
      </trkpt>
      <trkpt lat="42.531724" lon="1.080853">
        <ele>2180.2</ele>
        <time>1970-01-01T00:44:24.000Z</time>
      </trkpt>
      <trkpt lat="42.531866" lon="1.081067">
        <ele>2179.6</ele>
        <time>1970-01-01T00:44:28.000Z</time>
      </trkpt>
      <trkpt lat="42.531995" lon="1.081298">
        <ele>2179.2</ele>
        <time>1970-01-01T00:44:32.000Z</time>
      </trkpt>
      <trkpt lat="42.532077" lon="1.081403">
        <ele>2179</ele>
        <time>1970-01-01T00:44:34.000Z</time>
      </trkpt>
      <trkpt lat="42.532462" lon="1.081997">
        <ele>2179.2</ele>
        <time>1970-01-01T00:44:45.000Z</time>
      </trkpt>
      <trkpt lat="42.532841" lon="1.082587">
        <ele>2180</ele>
        <time>1970-01-01T00:44:57.000Z</time>
      </trkpt>
      <trkpt lat="42.533078" lon="1.083017">
        <ele>2180</ele>
        <time>1970-01-01T00:45:06.000Z</time>
      </trkpt>
      <trkpt lat="42.533128" lon="1.083117">
        <ele>2180</ele>
        <time>1970-01-01T00:45:08.000Z</time>
      </trkpt>
      <trkpt lat="42.533303" lon="1.083733">
        <ele>2181.2</ele>
        <time>1970-01-01T00:45:20.000Z</time>
      </trkpt>
      <trkpt lat="42.533355" lon="1.084186">
        <ele>2182.4</ele>
        <time>1970-01-01T00:45:31.000Z</time>
      </trkpt>
      <trkpt lat="42.533432" lon="1.084866">
        <ele>2181.8</ele>
        <time>1970-01-01T00:45:46.000Z</time>
      </trkpt>
      <trkpt lat="42.533411" lon="1.084919">
        <ele>2181</ele>
        <time>1970-01-01T00:45:48.000Z</time>
      </trkpt>
      <trkpt lat="42.533404" lon="1.084943">
        <ele>2180.6</ele>
        <time>1970-01-01T00:45:51.000Z</time>
      </trkpt>
      <trkpt lat="42.533479" lon="1.084862">
        <ele>2181.4</ele>
        <time>1970-01-01T00:47:22.000Z</time>
      </trkpt>
      <trkpt lat="42.534029" lon="1.084976">
        <ele>2182</ele>
        <time>1970-01-01T00:47:39.000Z</time>
      </trkpt>
      <trkpt lat="42.534099" lon="1.084969">
        <ele>2182.2</ele>
        <time>1970-01-01T00:47:41.000Z</time>
      </trkpt>
      <trkpt lat="42.534334" lon="1.084914">
        <ele>2183.4</ele>
        <time>1970-01-01T00:47:48.000Z</time>
      </trkpt>
      <trkpt lat="42.534632" lon="1.08483">
        <ele>2184.4</ele>
        <time>1970-01-01T00:47:58.000Z</time>
      </trkpt>
      <trkpt lat="42.534804" lon="1.084816">
        <ele>2185.4</ele>
        <time>1970-01-01T00:48:04.000Z</time>
      </trkpt>
      <trkpt lat="42.534989" lon="1.084832">
        <ele>2186.6</ele>
        <time>1970-01-01T00:48:11.000Z</time>
      </trkpt>
      <trkpt lat="42.535147" lon="1.084836">
        <ele>2187.6</ele>
        <time>1970-01-01T00:48:17.000Z</time>
      </trkpt>
      <trkpt lat="42.53531" lon="1.084815">
        <ele>2188.6</ele>
        <time>1970-01-01T00:48:23.000Z</time>
      </trkpt>
      <trkpt lat="42.53554" lon="1.084791">
        <ele>2189.8</ele>
        <time>1970-01-01T00:48:32.000Z</time>
      </trkpt>
      <trkpt lat="42.535707" lon="1.084768">
        <ele>2191</ele>
        <time>1970-01-01T00:48:39.000Z</time>
      </trkpt>
      <trkpt lat="42.535979" lon="1.084738">
        <ele>2192</ele>
        <time>1970-01-01T00:48:50.000Z</time>
      </trkpt>
      <trkpt lat="42.536146" lon="1.084713">
        <ele>2193</ele>
        <time>1970-01-01T00:48:57.000Z</time>
      </trkpt>
      <trkpt lat="42.53628" lon="1.08472">
        <ele>2194.2</ele>
        <time>1970-01-01T00:49:03.000Z</time>
      </trkpt>
      <trkpt lat="42.536443" lon="1.084719">
        <ele>2195.2</ele>
        <time>1970-01-01T00:49:10.000Z</time>
      </trkpt>
      <trkpt lat="42.536603" lon="1.084725">
        <ele>2196.2</ele>
        <time>1970-01-01T00:49:17.000Z</time>
      </trkpt>
      <trkpt lat="42.536712" lon="1.084751">
        <ele>2197.2</ele>
        <time>1970-01-01T00:49:22.000Z</time>
      </trkpt>
      <trkpt lat="42.536858" lon="1.084807">
        <ele>2198.4</ele>
        <time>1970-01-01T00:49:29.000Z</time>
      </trkpt>
      <trkpt lat="42.536959" lon="1.084852">
        <ele>2199.4</ele>
        <time>1970-01-01T00:49:34.000Z</time>
      </trkpt>
      <trkpt lat="42.537071" lon="1.084901">
        <ele>2200.6</ele>
        <time>1970-01-01T00:49:40.000Z</time>
      </trkpt>
      <trkpt lat="42.537149" lon="1.084953">
        <ele>2201.8</ele>
        <time>1970-01-01T00:49:45.000Z</time>
      </trkpt>
      <trkpt lat="42.537211" lon="1.084995">
        <ele>2202.8</ele>
        <time>1970-01-01T00:49:50.000Z</time>
      </trkpt>
      <trkpt lat="42.537275" lon="1.085035">
        <ele>2203.8</ele>
        <time>1970-01-01T00:49:55.000Z</time>
      </trkpt>
      <trkpt lat="42.537355" lon="1.085107">
        <ele>2205</ele>
        <time>1970-01-01T00:50:02.000Z</time>
      </trkpt>
      <trkpt lat="42.537445" lon="1.085134">
        <ele>2206</ele>
        <time>1970-01-01T00:50:09.000Z</time>
      </trkpt>
      <trkpt lat="42.537494" lon="1.085147">
        <ele>2207</ele>
        <time>1970-01-01T00:50:13.000Z</time>
      </trkpt>
      <trkpt lat="42.537565" lon="1.08516">
        <ele>2208.2</ele>
        <time>1970-01-01T00:50:18.000Z</time>
      </trkpt>
      <trkpt lat="42.537622" lon="1.085167">
        <ele>2209.2</ele>
        <time>1970-01-01T00:50:22.000Z</time>
      </trkpt>
      <trkpt lat="42.537714" lon="1.085177">
        <ele>2210.2</ele>
        <time>1970-01-01T00:50:28.000Z</time>
      </trkpt>
      <trkpt lat="42.537789" lon="1.085185">
        <ele>2211.2</ele>
        <time>1970-01-01T00:50:33.000Z</time>
      </trkpt>
      <trkpt lat="42.537878" lon="1.085197">
        <ele>2212.6</ele>
        <time>1970-01-01T00:50:39.000Z</time>
      </trkpt>
      <trkpt lat="42.537959" lon="1.085208">
        <ele>2213.6</ele>
        <time>1970-01-01T00:50:45.000Z</time>
      </trkpt>
      <trkpt lat="42.538049" lon="1.085222">
        <ele>2214.8</ele>
        <time>1970-01-01T00:50:51.000Z</time>
      </trkpt>
      <trkpt lat="42.538119" lon="1.085252">
        <ele>2215.8</ele>
        <time>1970-01-01T00:50:56.000Z</time>
      </trkpt>
      <trkpt lat="42.538188" lon="1.085291">
        <ele>2216.8</ele>
        <time>1970-01-01T00:51:01.000Z</time>
      </trkpt>
      <trkpt lat="42.538304" lon="1.085349">
        <ele>2218.2</ele>
        <time>1970-01-01T00:51:10.000Z</time>
      </trkpt>
      <trkpt lat="42.538342" lon="1.085359">
        <ele>2218.8</ele>
        <time>1970-01-01T00:51:13.000Z</time>
      </trkpt>
      <trkpt lat="42.538367" lon="1.085375">
        <ele>2219</ele>
        <time>1970-01-01T00:51:15.000Z</time>
      </trkpt>
      <trkpt lat="42.53848" lon="1.085389">
        <ele>2220.2</ele>
        <time>1970-01-01T00:51:23.000Z</time>
      </trkpt>
      <trkpt lat="42.538562" lon="1.085436">
        <ele>2221.2</ele>
        <time>1970-01-01T00:51:29.000Z</time>
      </trkpt>
      <trkpt lat="42.538623" lon="1.085483">
        <ele>2222.4</ele>
        <time>1970-01-01T00:51:34.000Z</time>
      </trkpt>
      <trkpt lat="42.538696" lon="1.08554">
        <ele>2223.6</ele>
        <time>1970-01-01T00:51:40.000Z</time>
      </trkpt>
      <trkpt lat="42.538773" lon="1.085591">
        <ele>2224.8</ele>
        <time>1970-01-01T00:51:46.000Z</time>
      </trkpt>
      <trkpt lat="42.538836" lon="1.085627">
        <ele>2226</ele>
        <time>1970-01-01T00:51:51.000Z</time>
      </trkpt>
      <trkpt lat="42.538896" lon="1.085676">
        <ele>2227</ele>
        <time>1970-01-01T00:51:56.000Z</time>
      </trkpt>
      <trkpt lat="42.538976" lon="1.085694">
        <ele>2228.2</ele>
        <time>1970-01-01T00:52:02.000Z</time>
      </trkpt>
      <trkpt lat="42.539052" lon="1.085703">
        <ele>2229.2</ele>
        <time>1970-01-01T00:52:07.000Z</time>
      </trkpt>
      <trkpt lat="42.539137" lon="1.085718">
        <ele>2230.4</ele>
        <time>1970-01-01T00:52:13.000Z</time>
      </trkpt>
      <trkpt lat="42.539199" lon="1.085726">
        <ele>2231.6</ele>
        <time>1970-01-01T00:52:17.000Z</time>
      </trkpt>
      <trkpt lat="42.539277" lon="1.085729">
        <ele>2232.6</ele>
        <time>1970-01-01T00:52:22.000Z</time>
      </trkpt>
      <trkpt lat="42.539304" lon="1.085714">
        <ele>2233.2</ele>
        <time>1970-01-01T00:52:24.000Z</time>
      </trkpt>
      <trkpt lat="42.539326" lon="1.085695">
        <ele>2233.8</ele>
        <time>1970-01-01T00:52:26.000Z</time>
      </trkpt>
      <trkpt lat="42.539385" lon="1.085656">
        <ele>2234.8</ele>
        <time>1970-01-01T00:52:30.000Z</time>
      </trkpt>
      <trkpt lat="42.539445" lon="1.085625">
        <ele>2236</ele>
        <time>1970-01-01T00:52:34.000Z</time>
      </trkpt>
      <trkpt lat="42.539574" lon="1.085573">
        <ele>2237</ele>
        <time>1970-01-01T00:52:44.000Z</time>
      </trkpt>
      <trkpt lat="42.539593" lon="1.085529">
        <ele>2237</ele>
        <time>1970-01-01T00:52:49.000Z</time>
      </trkpt>
      <trkpt lat="42.539606" lon="1.085484">
        <ele>2236.6</ele>
        <time>1970-01-01T00:55:11.000Z</time>
      </trkpt>
      <trkpt lat="42.539659" lon="1.085334">
        <ele>2235.8</ele>
        <time>1970-01-01T00:55:15.000Z</time>
      </trkpt>
      <trkpt lat="42.539681" lon="1.085272">
        <ele>2235</ele>
        <time>1970-01-01T00:55:19.000Z</time>
      </trkpt>
      <trkpt lat="42.539682" lon="1.085225">
        <ele>2234.4</ele>
        <time>1970-01-01T00:55:37.000Z</time>
      </trkpt>
      <trkpt lat="42.539658" lon="1.084938">
        <ele>2233.4</ele>
        <time>1970-01-01T00:55:44.000Z</time>
      </trkpt>
      <trkpt lat="42.539644" lon="1.084887">
        <ele>2233.4</ele>
        <time>1970-01-01T00:55:45.000Z</time>
      </trkpt>
      <trkpt lat="42.53955" lon="1.084608">
        <ele>2232.4</ele>
        <time>1970-01-01T00:55:50.000Z</time>
      </trkpt>
      <trkpt lat="42.539443" lon="1.084351">
        <ele>2231.4</ele>
        <time>1970-01-01T00:55:54.000Z</time>
      </trkpt>
      <trkpt lat="42.539324" lon="1.084062">
        <ele>2230</ele>
        <time>1970-01-01T00:55:58.000Z</time>
      </trkpt>
      <trkpt lat="42.539238" lon="1.083816">
        <ele>2229</ele>
        <time>1970-01-01T00:56:01.000Z</time>
      </trkpt>
      <trkpt lat="42.539186" lon="1.083646">
        <ele>2227.8</ele>
        <time>1970-01-01T00:56:03.000Z</time>
      </trkpt>
      <trkpt lat="42.53912" lon="1.083301">
        <ele>2226.8</ele>
        <time>1970-01-01T00:56:07.000Z</time>
      </trkpt>
      <trkpt lat="42.539107" lon="1.083032">
        <ele>2226.4</ele>
        <time>1970-01-01T00:56:10.000Z</time>
      </trkpt>
      <trkpt lat="42.53897" lon="1.082715">
        <ele>2225.4</ele>
        <time>1970-01-01T00:56:14.000Z</time>
      </trkpt>
      <trkpt lat="42.5389" lon="1.08255">
        <ele>2225</ele>
        <time>1970-01-01T00:56:16.000Z</time>
      </trkpt>
      <trkpt lat="42.53884" lon="1.082366">
        <ele>2224.2</ele>
        <time>1970-01-01T00:56:18.000Z</time>
      </trkpt>
      <trkpt lat="42.538794" lon="1.082174">
        <ele>2223</ele>
        <time>1970-01-01T00:56:20.000Z</time>
      </trkpt>
      <trkpt lat="42.538747" lon="1.081979">
        <ele>2222</ele>
        <time>1970-01-01T00:56:22.000Z</time>
      </trkpt>
      <trkpt lat="42.538703" lon="1.08179">
        <ele>2220.6</ele>
        <time>1970-01-01T00:56:24.000Z</time>
      </trkpt>
      <trkpt lat="42.538651" lon="1.081604">
        <ele>2218.8</ele>
        <time>1970-01-01T00:56:26.000Z</time>
      </trkpt>
      <trkpt lat="42.538596" lon="1.081412">
        <ele>2217.2</ele>
        <time>1970-01-01T00:56:28.000Z</time>
      </trkpt>
      <trkpt lat="42.538518" lon="1.081127">
        <ele>2216.2</ele>
        <time>1970-01-01T00:56:31.000Z</time>
      </trkpt>
      <trkpt lat="42.538485" lon="1.081043">
        <ele>2214.6</ele>
        <time>1970-01-01T00:56:32.000Z</time>
      </trkpt>
      <trkpt lat="42.538398" lon="1.080901">
        <ele>2213.4</ele>
        <time>1970-01-01T00:56:34.000Z</time>
      </trkpt>
      <trkpt lat="42.538267" lon="1.080684">
        <ele>2211.8</ele>
        <time>1970-01-01T00:56:37.000Z</time>
      </trkpt>
      <trkpt lat="42.538231" lon="1.080595">
        <ele>2210.8</ele>
        <time>1970-01-01T00:56:38.000Z</time>
      </trkpt>
      <trkpt lat="42.538196" lon="1.080508">
        <ele>2209.8</ele>
        <time>1970-01-01T00:56:39.000Z</time>
      </trkpt>
      <trkpt lat="42.53817" lon="1.080415">
        <ele>2208.6</ele>
        <time>1970-01-01T00:56:40.000Z</time>
      </trkpt>
      <trkpt lat="42.538155" lon="1.080313">
        <ele>2207</ele>
        <time>1970-01-01T00:56:41.000Z</time>
      </trkpt>
      <trkpt lat="42.538148" lon="1.080213">
        <ele>2205.8</ele>
        <time>1970-01-01T00:56:42.000Z</time>
      </trkpt>
      <trkpt lat="42.538173" lon="1.080015">
        <ele>2204.6</ele>
        <time>1970-01-01T00:56:44.000Z</time>
      </trkpt>
      <trkpt lat="42.5382" lon="1.079927">
        <ele>2204.2</ele>
        <time>1970-01-01T00:56:45.000Z</time>
      </trkpt>
      <trkpt lat="42.538223" lon="1.07984">
        <ele>2203.8</ele>
        <time>1970-01-01T00:56:46.000Z</time>
      </trkpt>
      <trkpt lat="42.538234" lon="1.079749">
        <ele>2203.4</ele>
        <time>1970-01-01T00:56:47.000Z</time>
      </trkpt>
      <trkpt lat="42.538238" lon="1.079651">
        <ele>2202</ele>
        <time>1970-01-01T00:56:48.000Z</time>
      </trkpt>
      <trkpt lat="42.538233" lon="1.079547">
        <ele>2200.4</ele>
        <time>1970-01-01T00:56:49.000Z</time>
      </trkpt>
      <trkpt lat="42.538217" lon="1.079446">
        <ele>2199.2</ele>
        <time>1970-01-01T00:56:50.000Z</time>
      </trkpt>
      <trkpt lat="42.538196" lon="1.079349">
        <ele>2198</ele>
        <time>1970-01-01T00:56:51.000Z</time>
      </trkpt>
      <trkpt lat="42.538172" lon="1.079254">
        <ele>2196.6</ele>
        <time>1970-01-01T00:56:52.000Z</time>
      </trkpt>
      <trkpt lat="42.538135" lon="1.07906">
        <ele>2194.6</ele>
        <time>1970-01-01T00:56:54.000Z</time>
      </trkpt>
      <trkpt lat="42.53812" lon="1.078959">
        <ele>2193.4</ele>
        <time>1970-01-01T00:56:55.000Z</time>
      </trkpt>
      <trkpt lat="42.5381" lon="1.078749">
        <ele>2191</ele>
        <time>1970-01-01T00:56:57.000Z</time>
      </trkpt>
      <trkpt lat="42.538082" lon="1.078541">
        <ele>2189.2</ele>
        <time>1970-01-01T00:56:59.000Z</time>
      </trkpt>
      <trkpt lat="42.538073" lon="1.078442">
        <ele>2188</ele>
        <time>1970-01-01T00:57:00.000Z</time>
      </trkpt>
      <trkpt lat="42.538064" lon="1.078338">
        <ele>2187</ele>
        <time>1970-01-01T00:57:01.000Z</time>
      </trkpt>
      <trkpt lat="42.538056" lon="1.078232">
        <ele>2186</ele>
        <time>1970-01-01T00:57:02.000Z</time>
      </trkpt>
      <trkpt lat="42.538051" lon="1.07812">
        <ele>2184.6</ele>
        <time>1970-01-01T00:57:03.000Z</time>
      </trkpt>
      <trkpt lat="42.538039" lon="1.077899">
        <ele>2183</ele>
        <time>1970-01-01T00:57:05.000Z</time>
      </trkpt>
      <trkpt lat="42.538028" lon="1.077793">
        <ele>2181.6</ele>
        <time>1970-01-01T00:57:06.000Z</time>
      </trkpt>
      <trkpt lat="42.538009" lon="1.07769">
        <ele>2180.6</ele>
        <time>1970-01-01T00:57:07.000Z</time>
      </trkpt>
      <trkpt lat="42.537981" lon="1.077591">
        <ele>2179.4</ele>
        <time>1970-01-01T00:57:08.000Z</time>
      </trkpt>
      <trkpt lat="42.537938" lon="1.077382">
        <ele>2178.2</ele>
        <time>1970-01-01T00:57:10.000Z</time>
      </trkpt>
      <trkpt lat="42.537922" lon="1.077146">
        <ele>2176.8</ele>
        <time>1970-01-01T00:57:12.000Z</time>
      </trkpt>
      <trkpt lat="42.537917" lon="1.077024">
        <ele>2175.8</ele>
        <time>1970-01-01T00:57:13.000Z</time>
      </trkpt>
      <trkpt lat="42.537909" lon="1.076901">
        <ele>2174.4</ele>
        <time>1970-01-01T00:57:14.000Z</time>
      </trkpt>
      <trkpt lat="42.537896" lon="1.076777">
        <ele>2173.2</ele>
        <time>1970-01-01T00:57:15.000Z</time>
      </trkpt>
      <trkpt lat="42.537878" lon="1.076658">
        <ele>2171.6</ele>
        <time>1970-01-01T00:57:16.000Z</time>
      </trkpt>
      <trkpt lat="42.537856" lon="1.076544">
        <ele>2170.2</ele>
        <time>1970-01-01T00:57:17.000Z</time>
      </trkpt>
      <trkpt lat="42.537836" lon="1.076427">
        <ele>2169.4</ele>
        <time>1970-01-01T00:57:18.000Z</time>
      </trkpt>
      <trkpt lat="42.537821" lon="1.076305">
        <ele>2168.2</ele>
        <time>1970-01-01T00:57:19.000Z</time>
      </trkpt>
      <trkpt lat="42.537812" lon="1.076186">
        <ele>2167.2</ele>
        <time>1970-01-01T00:57:20.000Z</time>
      </trkpt>
      <trkpt lat="42.537812" lon="1.07597">
        <ele>2166</ele>
        <time>1970-01-01T00:57:22.000Z</time>
      </trkpt>
      <trkpt lat="42.53786" lon="1.075795">
        <ele>2164.8</ele>
        <time>1970-01-01T00:57:24.000Z</time>
      </trkpt>
      <trkpt lat="42.5379" lon="1.075727">
        <ele>2163.8</ele>
        <time>1970-01-01T00:57:25.000Z</time>
      </trkpt>
      <trkpt lat="42.538009" lon="1.075636">
        <ele>2162.2</ele>
        <time>1970-01-01T00:57:27.000Z</time>
      </trkpt>
      <trkpt lat="42.538125" lon="1.075601">
        <ele>2161.2</ele>
        <time>1970-01-01T00:57:29.000Z</time>
      </trkpt>
      <trkpt lat="42.53818" lon="1.075593">
        <ele>2160.4</ele>
        <time>1970-01-01T00:57:30.000Z</time>
      </trkpt>
      <trkpt lat="42.538234" lon="1.075586">
        <ele>2159.8</ele>
        <time>1970-01-01T00:57:31.000Z</time>
      </trkpt>
      <trkpt lat="42.538349" lon="1.075583">
        <ele>2158.4</ele>
        <time>1970-01-01T00:57:34.000Z</time>
      </trkpt>
      <trkpt lat="42.538359" lon="1.075587">
        <ele>2158</ele>
        <time>1970-01-01T00:57:36.000Z</time>
      </trkpt>
      <trkpt lat="42.538433" lon="1.075574">
        <ele>2157.2</ele>
        <time>1970-01-01T00:57:51.000Z</time>
      </trkpt>
      <trkpt lat="42.538526" lon="1.075518">
        <ele>2155.6</ele>
        <time>1970-01-01T00:57:53.000Z</time>
      </trkpt>
      <trkpt lat="42.538566" lon="1.075488">
        <ele>2154.4</ele>
        <time>1970-01-01T00:57:54.000Z</time>
      </trkpt>
      <trkpt lat="42.538601" lon="1.075459">
        <ele>2153.6</ele>
        <time>1970-01-01T00:57:55.000Z</time>
      </trkpt>
      <trkpt lat="42.538635" lon="1.075434">
        <ele>2152.8</ele>
        <time>1970-01-01T00:57:56.000Z</time>
      </trkpt>
      <trkpt lat="42.538672" lon="1.075405">
        <ele>2152.4</ele>
        <time>1970-01-01T00:57:57.000Z</time>
      </trkpt>
      <trkpt lat="42.538711" lon="1.075369">
        <ele>2152</ele>
        <time>1970-01-01T00:57:58.000Z</time>
      </trkpt>
      <trkpt lat="42.538791" lon="1.0753">
        <ele>2150.4</ele>
        <time>1970-01-01T00:58:00.000Z</time>
      </trkpt>
      <trkpt lat="42.538865" lon="1.07523">
        <ele>2149.2</ele>
        <time>1970-01-01T00:58:02.000Z</time>
      </trkpt>
      <trkpt lat="42.538958" lon="1.075159">
        <ele>2147.6</ele>
        <time>1970-01-01T00:58:04.000Z</time>
      </trkpt>
      <trkpt lat="42.539018" lon="1.075137">
        <ele>2146</ele>
        <time>1970-01-01T00:58:05.000Z</time>
      </trkpt>
      <trkpt lat="42.539082" lon="1.075126">
        <ele>2144.4</ele>
        <time>1970-01-01T00:58:06.000Z</time>
      </trkpt>
      <trkpt lat="42.539151" lon="1.075117">
        <ele>2143.4</ele>
        <time>1970-01-01T00:58:07.000Z</time>
      </trkpt>
      <trkpt lat="42.539291" lon="1.075117">
        <ele>2141.4</ele>
        <time>1970-01-01T00:58:09.000Z</time>
      </trkpt>
      <trkpt lat="42.539363" lon="1.075129">
        <ele>2141</ele>
        <time>1970-01-01T00:58:10.000Z</time>
      </trkpt>
      <trkpt lat="42.539433" lon="1.075146">
        <ele>2140.2</ele>
        <time>1970-01-01T00:58:11.000Z</time>
      </trkpt>
      <trkpt lat="42.539573" lon="1.075182">
        <ele>2138.6</ele>
        <time>1970-01-01T00:58:13.000Z</time>
      </trkpt>
      <trkpt lat="42.539687" lon="1.075254">
        <ele>2137.6</ele>
        <time>1970-01-01T00:58:15.000Z</time>
      </trkpt>
      <trkpt lat="42.539771" lon="1.07535">
        <ele>2136.2</ele>
        <time>1970-01-01T00:58:17.000Z</time>
      </trkpt>
      <trkpt lat="42.53986" lon="1.075474">
        <ele>2135.2</ele>
        <time>1970-01-01T00:58:19.000Z</time>
      </trkpt>
      <trkpt lat="42.539924" lon="1.07563">
        <ele>2133.6</ele>
        <time>1970-01-01T00:58:21.000Z</time>
      </trkpt>
      <trkpt lat="42.539949" lon="1.075709">
        <ele>2132.6</ele>
        <time>1970-01-01T00:58:22.000Z</time>
      </trkpt>
      <trkpt lat="42.539965" lon="1.075787">
        <ele>2131.6</ele>
        <time>1970-01-01T00:58:23.000Z</time>
      </trkpt>
      <trkpt lat="42.539972" lon="1.07593">
        <ele>2130.2</ele>
        <time>1970-01-01T00:58:25.000Z</time>
      </trkpt>
      <trkpt lat="42.539963" lon="1.076097">
        <ele>2128.8</ele>
        <time>1970-01-01T00:58:27.000Z</time>
      </trkpt>
      <trkpt lat="42.539947" lon="1.076271">
        <ele>2127.6</ele>
        <time>1970-01-01T00:58:29.000Z</time>
      </trkpt>
      <trkpt lat="42.539913" lon="1.076449">
        <ele>2125.8</ele>
        <time>1970-01-01T00:58:31.000Z</time>
      </trkpt>
      <trkpt lat="42.539887" lon="1.076542">
        <ele>2125.2</ele>
        <time>1970-01-01T00:58:32.000Z</time>
      </trkpt>
      <trkpt lat="42.539851" lon="1.076634">
        <ele>2124.6</ele>
        <time>1970-01-01T00:58:33.000Z</time>
      </trkpt>
      <trkpt lat="42.539771" lon="1.076803">
        <ele>2122.6</ele>
        <time>1970-01-01T00:58:35.000Z</time>
      </trkpt>
      <trkpt lat="42.539673" lon="1.077">
        <ele>2121.4</ele>
        <time>1970-01-01T00:58:38.000Z</time>
      </trkpt>
      <trkpt lat="42.539659" lon="1.077114">
        <ele>2120.4</ele>
        <time>1970-01-01T00:58:40.000Z</time>
      </trkpt>
      <trkpt lat="42.539692" lon="1.077222">
        <ele>2119.6</ele>
        <time>1970-01-01T00:58:42.000Z</time>
      </trkpt>
      <trkpt lat="42.539708" lon="1.07728">
        <ele>2119.2</ele>
        <time>1970-01-01T00:58:43.000Z</time>
      </trkpt>
      <trkpt lat="42.539741" lon="1.077401">
        <ele>2117.8</ele>
        <time>1970-01-01T00:58:45.000Z</time>
      </trkpt>
      <trkpt lat="42.539786" lon="1.077539">
        <ele>2116.4</ele>
        <time>1970-01-01T00:58:47.000Z</time>
      </trkpt>
      <trkpt lat="42.539844" lon="1.077682">
        <ele>2115</ele>
        <time>1970-01-01T00:58:49.000Z</time>
      </trkpt>
      <trkpt lat="42.53988" lon="1.077754">
        <ele>2114.4</ele>
        <time>1970-01-01T00:58:50.000Z</time>
      </trkpt>
      <trkpt lat="42.539923" lon="1.077826">
        <ele>2113.8</ele>
        <time>1970-01-01T00:58:51.000Z</time>
      </trkpt>
      <trkpt lat="42.540027" lon="1.077967">
        <ele>2112.4</ele>
        <time>1970-01-01T00:58:53.000Z</time>
      </trkpt>
      <trkpt lat="42.540081" lon="1.078041">
        <ele>2111.2</ele>
        <time>1970-01-01T00:58:54.000Z</time>
      </trkpt>
      <trkpt lat="42.540131" lon="1.078113">
        <ele>2110</ele>
        <time>1970-01-01T00:58:55.000Z</time>
      </trkpt>
      <trkpt lat="42.540174" lon="1.078189">
        <ele>2109.4</ele>
        <time>1970-01-01T00:58:56.000Z</time>
      </trkpt>
      <trkpt lat="42.540213" lon="1.078265">
        <ele>2109</ele>
        <time>1970-01-01T00:58:57.000Z</time>
      </trkpt>
      <trkpt lat="42.540294" lon="1.078419">
        <ele>2107.6</ele>
        <time>1970-01-01T00:58:59.000Z</time>
      </trkpt>
      <trkpt lat="42.54038" lon="1.078577">
        <ele>2105.4</ele>
        <time>1970-01-01T00:59:01.000Z</time>
      </trkpt>
      <trkpt lat="42.540419" lon="1.078654">
        <ele>2104</ele>
        <time>1970-01-01T00:59:02.000Z</time>
      </trkpt>
      <trkpt lat="42.540453" lon="1.078736">
        <ele>2103</ele>
        <time>1970-01-01T00:59:03.000Z</time>
      </trkpt>
      <trkpt lat="42.540485" lon="1.078823">
        <ele>2102.2</ele>
        <time>1970-01-01T00:59:04.000Z</time>
      </trkpt>
      <trkpt lat="42.540549" lon="1.078997">
        <ele>2100.2</ele>
        <time>1970-01-01T00:59:06.000Z</time>
      </trkpt>
      <trkpt lat="42.540582" lon="1.079089">
        <ele>2099.2</ele>
        <time>1970-01-01T00:59:07.000Z</time>
      </trkpt>
      <trkpt lat="42.540612" lon="1.079181">
        <ele>2097.8</ele>
        <time>1970-01-01T00:59:08.000Z</time>
      </trkpt>
      <trkpt lat="42.540665" lon="1.079354">
        <ele>2095.6</ele>
        <time>1970-01-01T00:59:10.000Z</time>
      </trkpt>
      <trkpt lat="42.54069" lon="1.079438">
        <ele>2093.8</ele>
        <time>1970-01-01T00:59:11.000Z</time>
      </trkpt>
      <trkpt lat="42.540718" lon="1.079527">
        <ele>2092.8</ele>
        <time>1970-01-01T00:59:12.000Z</time>
      </trkpt>
      <trkpt lat="42.540782" lon="1.079731">
        <ele>2091.2</ele>
        <time>1970-01-01T00:59:14.000Z</time>
      </trkpt>
      <trkpt lat="42.540814" lon="1.079825">
        <ele>2089.4</ele>
        <time>1970-01-01T00:59:15.000Z</time>
      </trkpt>
      <trkpt lat="42.540841" lon="1.079911">
        <ele>2088</ele>
        <time>1970-01-01T00:59:16.000Z</time>
      </trkpt>
      <trkpt lat="42.540898" lon="1.08009">
        <ele>2086.2</ele>
        <time>1970-01-01T00:59:18.000Z</time>
      </trkpt>
      <trkpt lat="42.540955" lon="1.080287">
        <ele>2083.8</ele>
        <time>1970-01-01T00:59:20.000Z</time>
      </trkpt>
      <trkpt lat="42.540989" lon="1.080453">
        <ele>2082.2</ele>
        <time>1970-01-01T00:59:22.000Z</time>
      </trkpt>
      <trkpt lat="42.541008" lon="1.080536">
        <ele>2081.2</ele>
        <time>1970-01-01T00:59:23.000Z</time>
      </trkpt>
      <trkpt lat="42.541061" lon="1.0807">
        <ele>2079.6</ele>
        <time>1970-01-01T00:59:25.000Z</time>
      </trkpt>
      <trkpt lat="42.541082" lon="1.080785">
        <ele>2078.6</ele>
        <time>1970-01-01T00:59:26.000Z</time>
      </trkpt>
      <trkpt lat="42.541098" lon="1.080875">
        <ele>2077.4</ele>
        <time>1970-01-01T00:59:27.000Z</time>
      </trkpt>
      <trkpt lat="42.541104" lon="1.080965">
        <ele>2076.2</ele>
        <time>1970-01-01T00:59:28.000Z</time>
      </trkpt>
      <trkpt lat="42.541084" lon="1.08118">
        <ele>2075</ele>
        <time>1970-01-01T00:59:31.000Z</time>
      </trkpt>
      <trkpt lat="42.541069" lon="1.081352">
        <ele>2073.8</ele>
        <time>1970-01-01T00:59:34.000Z</time>
      </trkpt>
      <trkpt lat="42.541069" lon="1.081421">
        <ele>2073.6</ele>
        <time>1970-01-01T00:59:35.000Z</time>
      </trkpt>
      <trkpt lat="42.541081" lon="1.081566">
        <ele>2072.6</ele>
        <time>1970-01-01T00:59:37.000Z</time>
      </trkpt>
      <trkpt lat="42.541218" lon="1.081808">
        <ele>2071</ele>
        <time>1970-01-01T00:59:41.000Z</time>
      </trkpt>
      <trkpt lat="42.541274" lon="1.081871">
        <ele>2070.2</ele>
        <time>1970-01-01T00:59:42.000Z</time>
      </trkpt>
      <trkpt lat="42.541328" lon="1.081933">
        <ele>2069.4</ele>
        <time>1970-01-01T00:59:43.000Z</time>
      </trkpt>
      <trkpt lat="42.541445" lon="1.082037">
        <ele>2067.4</ele>
        <time>1970-01-01T00:59:45.000Z</time>
      </trkpt>
      <trkpt lat="42.541508" lon="1.082091">
        <ele>2066.2</ele>
        <time>1970-01-01T00:59:46.000Z</time>
      </trkpt>
      <trkpt lat="42.541622" lon="1.082207">
        <ele>2064.8</ele>
        <time>1970-01-01T00:59:48.000Z</time>
      </trkpt>
      <trkpt lat="42.541669" lon="1.082269">
        <ele>2063.6</ele>
        <time>1970-01-01T00:59:49.000Z</time>
      </trkpt>
      <trkpt lat="42.541755" lon="1.082381">
        <ele>2061.8</ele>
        <time>1970-01-01T00:59:51.000Z</time>
      </trkpt>
      <trkpt lat="42.541793" lon="1.082426">
        <ele>2060.6</ele>
        <time>1970-01-01T00:59:52.000Z</time>
      </trkpt>
      <trkpt lat="42.541859" lon="1.082489">
        <ele>2059.2</ele>
        <time>1970-01-01T00:59:54.000Z</time>
      </trkpt>
      <trkpt lat="42.541892" lon="1.082503">
        <ele>2057.8</ele>
        <time>1970-01-01T00:59:56.000Z</time>
      </trkpt>
      <trkpt lat="42.541891" lon="1.082503">
        <ele>2057.6</ele>
        <time>1970-01-01T00:59:57.000Z</time>
      </trkpt>
      <trkpt lat="42.541903" lon="1.082529">
        <ele>2057.4</ele>
        <time>1970-01-01T01:00:25.000Z</time>
      </trkpt>
      <trkpt lat="42.541925" lon="1.08256">
        <ele>2057</ele>
        <time>1970-01-01T01:00:26.000Z</time>
      </trkpt>
      <trkpt lat="42.542005" lon="1.082663">
        <ele>2055.8</ele>
        <time>1970-01-01T01:00:29.000Z</time>
      </trkpt>
      <trkpt lat="42.542065" lon="1.082735">
        <ele>2054.6</ele>
        <time>1970-01-01T01:00:31.000Z</time>
      </trkpt>
      <trkpt lat="42.542138" lon="1.082839">
        <ele>2053.6</ele>
        <time>1970-01-01T01:00:33.000Z</time>
      </trkpt>
      <trkpt lat="42.542215" lon="1.082963">
        <ele>2051.4</ele>
        <time>1970-01-01T01:00:35.000Z</time>
      </trkpt>
      <trkpt lat="42.54226" lon="1.083027">
        <ele>2050</ele>
        <time>1970-01-01T01:00:36.000Z</time>
      </trkpt>
      <trkpt lat="42.542308" lon="1.083086">
        <ele>2048.8</ele>
        <time>1970-01-01T01:00:37.000Z</time>
      </trkpt>
      <trkpt lat="42.542414" lon="1.083198">
        <ele>2047</ele>
        <time>1970-01-01T01:00:39.000Z</time>
      </trkpt>
      <trkpt lat="42.542524" lon="1.08329">
        <ele>2045.2</ele>
        <time>1970-01-01T01:00:41.000Z</time>
      </trkpt>
      <trkpt lat="42.542642" lon="1.083333">
        <ele>2043.4</ele>
        <time>1970-01-01T01:00:43.000Z</time>
      </trkpt>
      <trkpt lat="42.542785" lon="1.083371">
        <ele>2041.8</ele>
        <time>1970-01-01T01:00:45.000Z</time>
      </trkpt>
      <trkpt lat="42.542862" lon="1.083388">
        <ele>2040.8</ele>
        <time>1970-01-01T01:00:46.000Z</time>
      </trkpt>
      <trkpt lat="42.543023" lon="1.083418">
        <ele>2038.8</ele>
        <time>1970-01-01T01:00:48.000Z</time>
      </trkpt>
      <trkpt lat="42.543165" lon="1.083471">
        <ele>2036.8</ele>
        <time>1970-01-01T01:00:50.000Z</time>
      </trkpt>
      <trkpt lat="42.5433" lon="1.083526">
        <ele>2034.6</ele>
        <time>1970-01-01T01:00:52.000Z</time>
      </trkpt>
      <trkpt lat="42.543373" lon="1.083554">
        <ele>2032.8</ele>
        <time>1970-01-01T01:00:53.000Z</time>
      </trkpt>
      <trkpt lat="42.543451" lon="1.083584">
        <ele>2031.4</ele>
        <time>1970-01-01T01:00:54.000Z</time>
      </trkpt>
      <trkpt lat="42.543534" lon="1.083605">
        <ele>2030.4</ele>
        <time>1970-01-01T01:00:55.000Z</time>
      </trkpt>
      <trkpt lat="42.543698" lon="1.083609">
        <ele>2028.6</ele>
        <time>1970-01-01T01:00:57.000Z</time>
      </trkpt>
      <trkpt lat="42.543778" lon="1.083597">
        <ele>2027.6</ele>
        <time>1970-01-01T01:00:58.000Z</time>
      </trkpt>
      <trkpt lat="42.543856" lon="1.083594">
        <ele>2026.6</ele>
        <time>1970-01-01T01:00:59.000Z</time>
      </trkpt>
      <trkpt lat="42.54401" lon="1.083644">
        <ele>2024.4</ele>
        <time>1970-01-01T01:01:01.000Z</time>
      </trkpt>
      <trkpt lat="42.544088" lon="1.083686">
        <ele>2023.2</ele>
        <time>1970-01-01T01:01:02.000Z</time>
      </trkpt>
      <trkpt lat="42.54416" lon="1.08373">
        <ele>2021.8</ele>
        <time>1970-01-01T01:01:03.000Z</time>
      </trkpt>
      <trkpt lat="42.544223" lon="1.083764">
        <ele>2020.6</ele>
        <time>1970-01-01T01:01:04.000Z</time>
      </trkpt>
      <trkpt lat="42.544278" lon="1.083789">
        <ele>2019.2</ele>
        <time>1970-01-01T01:01:05.000Z</time>
      </trkpt>
      <trkpt lat="42.544337" lon="1.083807">
        <ele>2018</ele>
        <time>1970-01-01T01:01:06.000Z</time>
      </trkpt>
      <trkpt lat="42.544469" lon="1.083842">
        <ele>2015.8</ele>
        <time>1970-01-01T01:01:08.000Z</time>
      </trkpt>
      <trkpt lat="42.544615" lon="1.083866">
        <ele>2014.2</ele>
        <time>1970-01-01T01:01:10.000Z</time>
      </trkpt>
      <trkpt lat="42.544694" lon="1.083874">
        <ele>2013</ele>
        <time>1970-01-01T01:01:11.000Z</time>
      </trkpt>
      <trkpt lat="42.544774" lon="1.083888">
        <ele>2012</ele>
        <time>1970-01-01T01:01:12.000Z</time>
      </trkpt>
      <trkpt lat="42.544853" lon="1.083907">
        <ele>2010.4</ele>
        <time>1970-01-01T01:01:13.000Z</time>
      </trkpt>
      <trkpt lat="42.544929" lon="1.08393">
        <ele>2009</ele>
        <time>1970-01-01T01:01:14.000Z</time>
      </trkpt>
      <trkpt lat="42.544994" lon="1.083961">
        <ele>2008</ele>
        <time>1970-01-01T01:01:15.000Z</time>
      </trkpt>
      <trkpt lat="42.545095" lon="1.084009">
        <ele>2006.4</ele>
        <time>1970-01-01T01:01:17.000Z</time>
      </trkpt>
      <trkpt lat="42.545169" lon="1.084035">
        <ele>2005</ele>
        <time>1970-01-01T01:01:19.000Z</time>
      </trkpt>
      <trkpt lat="42.545215" lon="1.084052">
        <ele>2003.6</ele>
        <time>1970-01-01T01:01:21.000Z</time>
      </trkpt>
      <trkpt lat="42.545223" lon="1.084053">
        <ele>2002.6</ele>
        <time>1970-01-01T01:01:23.000Z</time>
      </trkpt>
      <trkpt lat="42.545223" lon="1.084054">
        <ele>2002.4</ele>
        <time>1970-01-01T01:01:24.000Z</time>
      </trkpt>
      <trkpt lat="42.545254" lon="1.084071">
        <ele>2001.8</ele>
        <time>1970-01-01T01:03:32.000Z</time>
      </trkpt>
      <trkpt lat="42.545282" lon="1.084085">
        <ele>2001.2</ele>
        <time>1970-01-01T01:03:33.000Z</time>
      </trkpt>
      <trkpt lat="42.54537" lon="1.084099">
        <ele>1999.6</ele>
        <time>1970-01-01T01:03:35.000Z</time>
      </trkpt>
      <trkpt lat="42.545475" lon="1.084118">
        <ele>1997.8</ele>
        <time>1970-01-01T01:03:37.000Z</time>
      </trkpt>
      <trkpt lat="42.545597" lon="1.084159">
        <ele>1996</ele>
        <time>1970-01-01T01:03:39.000Z</time>
      </trkpt>
      <trkpt lat="42.545663" lon="1.084198">
        <ele>1995</ele>
        <time>1970-01-01T01:03:40.000Z</time>
      </trkpt>
      <trkpt lat="42.545783" lon="1.084306">
        <ele>1993.6</ele>
        <time>1970-01-01T01:03:42.000Z</time>
      </trkpt>
      <trkpt lat="42.545837" lon="1.084367">
        <ele>1992.8</ele>
        <time>1970-01-01T01:03:43.000Z</time>
      </trkpt>
      <trkpt lat="42.545892" lon="1.084422">
        <ele>1991.4</ele>
        <time>1970-01-01T01:03:44.000Z</time>
      </trkpt>
      <trkpt lat="42.545948" lon="1.084476">
        <ele>1990.2</ele>
        <time>1970-01-01T01:03:45.000Z</time>
      </trkpt>
      <trkpt lat="42.546085" lon="1.084567">
        <ele>1988.6</ele>
        <time>1970-01-01T01:03:47.000Z</time>
      </trkpt>
      <trkpt lat="42.546355" lon="1.0846">
        <ele>1986.4</ele>
        <time>1970-01-01T01:03:50.000Z</time>
      </trkpt>
      <trkpt lat="42.546541" lon="1.084566">
        <ele>1984.8</ele>
        <time>1970-01-01T01:03:52.000Z</time>
      </trkpt>
      <trkpt lat="42.546635" lon="1.084552">
        <ele>1983</ele>
        <time>1970-01-01T01:03:53.000Z</time>
      </trkpt>
      <trkpt lat="42.546724" lon="1.084551">
        <ele>1981.8</ele>
        <time>1970-01-01T01:03:54.000Z</time>
      </trkpt>
      <trkpt lat="42.546906" lon="1.08453">
        <ele>1980.2</ele>
        <time>1970-01-01T01:03:56.000Z</time>
      </trkpt>
      <trkpt lat="42.547195" lon="1.084464">
        <ele>1979.2</ele>
        <time>1970-01-01T01:03:59.000Z</time>
      </trkpt>
      <trkpt lat="42.547393" lon="1.084454">
        <ele>1976.4</ele>
        <time>1970-01-01T01:04:01.000Z</time>
      </trkpt>
      <trkpt lat="42.547487" lon="1.084436">
        <ele>1974.6</ele>
        <time>1970-01-01T01:04:02.000Z</time>
      </trkpt>
      <trkpt lat="42.547583" lon="1.084407">
        <ele>1973.4</ele>
        <time>1970-01-01T01:04:03.000Z</time>
      </trkpt>
      <trkpt lat="42.547681" lon="1.084373">
        <ele>1972</ele>
        <time>1970-01-01T01:04:04.000Z</time>
      </trkpt>
      <trkpt lat="42.547781" lon="1.084337">
        <ele>1971</ele>
        <time>1970-01-01T01:04:05.000Z</time>
      </trkpt>
      <trkpt lat="42.547883" lon="1.084301">
        <ele>1969.8</ele>
        <time>1970-01-01T01:04:06.000Z</time>
      </trkpt>
      <trkpt lat="42.5481" lon="1.084228">
        <ele>1968</ele>
        <time>1970-01-01T01:04:08.000Z</time>
      </trkpt>
      <trkpt lat="42.548211" lon="1.08419">
        <ele>1966.8</ele>
        <time>1970-01-01T01:04:09.000Z</time>
      </trkpt>
      <trkpt lat="42.548318" lon="1.084148">
        <ele>1965.4</ele>
        <time>1970-01-01T01:04:10.000Z</time>
      </trkpt>
      <trkpt lat="42.54842" lon="1.084113">
        <ele>1963</ele>
        <time>1970-01-01T01:04:11.000Z</time>
      </trkpt>
      <trkpt lat="42.548511" lon="1.084082">
        <ele>1962</ele>
        <time>1970-01-01T01:04:12.000Z</time>
      </trkpt>
      <trkpt lat="42.548596" lon="1.084052">
        <ele>1960.6</ele>
        <time>1970-01-01T01:04:13.000Z</time>
      </trkpt>
      <trkpt lat="42.548675" lon="1.08402">
        <ele>1958.4</ele>
        <time>1970-01-01T01:04:14.000Z</time>
      </trkpt>
      <trkpt lat="42.548756" lon="1.08399">
        <ele>1956.8</ele>
        <time>1970-01-01T01:04:15.000Z</time>
      </trkpt>
      <trkpt lat="42.548841" lon="1.083964">
        <ele>1955.8</ele>
        <time>1970-01-01T01:04:16.000Z</time>
      </trkpt>
      <trkpt lat="42.548924" lon="1.083956">
        <ele>1954.6</ele>
        <time>1970-01-01T01:04:17.000Z</time>
      </trkpt>
      <trkpt lat="42.549077" lon="1.083961">
        <ele>1952.4</ele>
        <time>1970-01-01T01:04:19.000Z</time>
      </trkpt>
      <trkpt lat="42.54916" lon="1.08395">
        <ele>1949.6</ele>
        <time>1970-01-01T01:04:20.000Z</time>
      </trkpt>
      <trkpt lat="42.549251" lon="1.083929">
        <ele>1947.8</ele>
        <time>1970-01-01T01:04:21.000Z</time>
      </trkpt>
      <trkpt lat="42.549346" lon="1.083912">
        <ele>1946.8</ele>
        <time>1970-01-01T01:04:22.000Z</time>
      </trkpt>
      <trkpt lat="42.549542" lon="1.083897">
        <ele>1945.2</ele>
        <time>1970-01-01T01:04:24.000Z</time>
      </trkpt>
      <trkpt lat="42.549711" lon="1.083914">
        <ele>1943.4</ele>
        <time>1970-01-01T01:04:26.000Z</time>
      </trkpt>
      <trkpt lat="42.549849" lon="1.083933">
        <ele>1941.2</ele>
        <time>1970-01-01T01:04:28.000Z</time>
      </trkpt>
      <trkpt lat="42.549921" lon="1.083937">
        <ele>1939.6</ele>
        <time>1970-01-01T01:04:29.000Z</time>
      </trkpt>
      <trkpt lat="42.55" lon="1.083939">
        <ele>1938.2</ele>
        <time>1970-01-01T01:04:30.000Z</time>
      </trkpt>
      <trkpt lat="42.550136" lon="1.083958">
        <ele>1935.8</ele>
        <time>1970-01-01T01:04:32.000Z</time>
      </trkpt>
      <trkpt lat="42.55019" lon="1.083976">
        <ele>1934.4</ele>
        <time>1970-01-01T01:04:33.000Z</time>
      </trkpt>
      <trkpt lat="42.550246" lon="1.084003">
        <ele>1933.4</ele>
        <time>1970-01-01T01:04:34.000Z</time>
      </trkpt>
      <trkpt lat="42.550304" lon="1.084037">
        <ele>1932.8</ele>
        <time>1970-01-01T01:04:35.000Z</time>
      </trkpt>
      <trkpt lat="42.550349" lon="1.084067">
        <ele>1932</ele>
        <time>1970-01-01T01:04:36.000Z</time>
      </trkpt>
      <trkpt lat="42.550398" lon="1.08411">
        <ele>1930.8</ele>
        <time>1970-01-01T01:04:37.000Z</time>
      </trkpt>
      <trkpt lat="42.550485" lon="1.084174">
        <ele>1929.6</ele>
        <time>1970-01-01T01:04:39.000Z</time>
      </trkpt>
      <trkpt lat="42.55054" lon="1.084192">
        <ele>1928.6</ele>
        <time>1970-01-01T01:04:41.000Z</time>
      </trkpt>
      <trkpt lat="42.550547" lon="1.084206">
        <ele>1928.2</ele>
        <time>1970-01-01T01:04:43.000Z</time>
      </trkpt>
      <trkpt lat="42.550589" lon="1.08419">
        <ele>1928</ele>
        <time>1970-01-01T01:06:10.000Z</time>
      </trkpt>
      <trkpt lat="42.550642" lon="1.084215">
        <ele>1928.4</ele>
        <time>1970-01-01T01:06:13.000Z</time>
      </trkpt>
      <trkpt lat="42.550726" lon="1.084343">
        <ele>1929.2</ele>
        <time>1970-01-01T01:06:20.000Z</time>
      </trkpt>
      <trkpt lat="42.55079" lon="1.084479">
        <ele>1930.2</ele>
        <time>1970-01-01T01:06:26.000Z</time>
      </trkpt>
      <trkpt lat="42.550876" lon="1.084619">
        <ele>1931.6</ele>
        <time>1970-01-01T01:06:33.000Z</time>
      </trkpt>
      <trkpt lat="42.550941" lon="1.084785">
        <ele>1932.6</ele>
        <time>1970-01-01T01:06:40.000Z</time>
      </trkpt>
      <trkpt lat="42.55098" lon="1.084892">
        <ele>1933.8</ele>
        <time>1970-01-01T01:06:44.000Z</time>
      </trkpt>
      <trkpt lat="42.551031" lon="1.085114">
        <ele>1935</ele>
        <time>1970-01-01T01:06:51.000Z</time>
      </trkpt>
      <trkpt lat="42.551123" lon="1.085332">
        <ele>1936.2</ele>
        <time>1970-01-01T01:06:59.000Z</time>
      </trkpt>
      <trkpt lat="42.551185" lon="1.085516">
        <ele>1937</ele>
        <time>1970-01-01T01:07:06.000Z</time>
      </trkpt>
      <trkpt lat="42.551198" lon="1.085576">
        <ele>1937.2</ele>
        <time>1970-01-01T01:07:08.000Z</time>
      </trkpt>
      <trkpt lat="42.551206" lon="1.085936">
        <ele>1938.4</ele>
        <time>1970-01-01T01:07:19.000Z</time>
      </trkpt>
      <trkpt lat="42.55119" lon="1.08609">
        <ele>1939.4</ele>
        <time>1970-01-01T01:07:25.000Z</time>
      </trkpt>
      <trkpt lat="42.551178" lon="1.086344">
        <ele>1940.8</ele>
        <time>1970-01-01T01:07:35.000Z</time>
      </trkpt>
      <trkpt lat="42.551161" lon="1.086544">
        <ele>1942</ele>
        <time>1970-01-01T01:07:41.000Z</time>
      </trkpt>
      <trkpt lat="42.551144" lon="1.086811">
        <ele>1943.2</ele>
        <time>1970-01-01T01:07:49.000Z</time>
      </trkpt>
      <trkpt lat="42.551075" lon="1.086986">
        <ele>1944.2</ele>
        <time>1970-01-01T01:07:56.000Z</time>
      </trkpt>
      <trkpt lat="42.550986" lon="1.087123">
        <ele>1945.8</ele>
        <time>1970-01-01T01:08:03.000Z</time>
      </trkpt>
      <trkpt lat="42.550861" lon="1.087308">
        <ele>1946.8</ele>
        <time>1970-01-01T01:08:12.000Z</time>
      </trkpt>
      <trkpt lat="42.550763" lon="1.087441">
        <ele>1948.2</ele>
        <time>1970-01-01T01:08:19.000Z</time>
      </trkpt>
      <trkpt lat="42.550661" lon="1.087539">
        <ele>1949.4</ele>
        <time>1970-01-01T01:08:26.000Z</time>
      </trkpt>
      <trkpt lat="42.550531" lon="1.087666">
        <ele>1950.4</ele>
        <time>1970-01-01T01:08:34.000Z</time>
      </trkpt>
      <trkpt lat="42.550448" lon="1.087764">
        <ele>1951.6</ele>
        <time>1970-01-01T01:08:39.000Z</time>
      </trkpt>
      <trkpt lat="42.55032" lon="1.087914">
        <ele>1952.6</ele>
        <time>1970-01-01T01:08:47.000Z</time>
      </trkpt>
      <trkpt lat="42.550115" lon="1.088146">
        <ele>1953.8</ele>
        <time>1970-01-01T01:09:00.000Z</time>
      </trkpt>
      <trkpt lat="42.550037" lon="1.088238">
        <ele>1955.2</ele>
        <time>1970-01-01T01:09:05.000Z</time>
      </trkpt>
      <trkpt lat="42.549897" lon="1.088426">
        <ele>1956.2</ele>
        <time>1970-01-01T01:09:15.000Z</time>
      </trkpt>
      <trkpt lat="42.549768" lon="1.088615">
        <ele>1957.4</ele>
        <time>1970-01-01T01:09:24.000Z</time>
      </trkpt>
      <trkpt lat="42.549673" lon="1.088737">
        <ele>1958.6</ele>
        <time>1970-01-01T01:09:30.000Z</time>
      </trkpt>
      <trkpt lat="42.549518" lon="1.089026">
        <ele>1959.8</ele>
        <time>1970-01-01T01:09:43.000Z</time>
      </trkpt>
      <trkpt lat="42.549459" lon="1.089144">
        <ele>1960.8</ele>
        <time>1970-01-01T01:09:48.000Z</time>
      </trkpt>
      <trkpt lat="42.54936" lon="1.089324">
        <ele>1962</ele>
        <time>1970-01-01T01:09:55.000Z</time>
      </trkpt>
      <trkpt lat="42.549224" lon="1.089599">
        <ele>1963</ele>
        <time>1970-01-01T01:10:06.000Z</time>
      </trkpt>
      <trkpt lat="42.549058" lon="1.089951">
        <ele>1964.4</ele>
        <time>1970-01-01T01:10:20.000Z</time>
      </trkpt>
      <trkpt lat="42.549002" lon="1.090066">
        <ele>1965.4</ele>
        <time>1970-01-01T01:10:25.000Z</time>
      </trkpt>
      <trkpt lat="42.548905" lon="1.090218">
        <ele>1966.8</ele>
        <time>1970-01-01T01:10:32.000Z</time>
      </trkpt>
      <trkpt lat="42.548716" lon="1.090345">
        <ele>1967.8</ele>
        <time>1970-01-01T01:10:43.000Z</time>
      </trkpt>
      <trkpt lat="42.548543" lon="1.090387">
        <ele>1968.8</ele>
        <time>1970-01-01T01:10:51.000Z</time>
      </trkpt>
      <trkpt lat="42.548225" lon="1.090508">
        <ele>1970.2</ele>
        <time>1970-01-01T01:11:05.000Z</time>
      </trkpt>
      <trkpt lat="42.548128" lon="1.090977">
        <ele>1971.6</ele>
        <time>1970-01-01T01:11:24.000Z</time>
      </trkpt>
      <trkpt lat="42.547978" lon="1.091669">
        <ele>1971.6</ele>
        <time>1970-01-01T01:11:46.000Z</time>
      </trkpt>
      <trkpt lat="42.547954" lon="1.091875">
        <ele>1971.4</ele>
        <time>1970-01-01T01:11:50.000Z</time>
      </trkpt>
      <trkpt lat="42.548012" lon="1.092033">
        <ele>1970.6</ele>
        <time>1970-01-01T01:11:53.000Z</time>
      </trkpt>
      <trkpt lat="42.548078" lon="1.092118">
        <ele>1969.8</ele>
        <time>1970-01-01T01:11:55.000Z</time>
      </trkpt>
      <trkpt lat="42.548116" lon="1.092158">
        <ele>1969.6</ele>
        <time>1970-01-01T01:11:56.000Z</time>
      </trkpt>
      <trkpt lat="42.548156" lon="1.092191">
        <ele>1969</ele>
        <time>1970-01-01T01:11:57.000Z</time>
      </trkpt>
      <trkpt lat="42.548247" lon="1.092268">
        <ele>1968.4</ele>
        <time>1970-01-01T01:11:59.000Z</time>
      </trkpt>
      <trkpt lat="42.54841" lon="1.092424">
        <ele>1967.2</ele>
        <time>1970-01-01T01:12:02.000Z</time>
      </trkpt>
      <trkpt lat="42.548581" lon="1.092615">
        <ele>1965.8</ele>
        <time>1970-01-01T01:12:05.000Z</time>
      </trkpt>
      <trkpt lat="42.548697" lon="1.09274">
        <ele>1964.2</ele>
        <time>1970-01-01T01:12:07.000Z</time>
      </trkpt>
      <trkpt lat="42.548826" lon="1.092877">
        <ele>1963.2</ele>
        <time>1970-01-01T01:12:09.000Z</time>
      </trkpt>
      <trkpt lat="42.548896" lon="1.092947">
        <ele>1961.6</ele>
        <time>1970-01-01T01:12:10.000Z</time>
      </trkpt>
      <trkpt lat="42.54905" lon="1.093077">
        <ele>1960.6</ele>
        <time>1970-01-01T01:12:12.000Z</time>
      </trkpt>
      <trkpt lat="42.549132" lon="1.093132">
        <ele>1959.6</ele>
        <time>1970-01-01T01:12:13.000Z</time>
      </trkpt>
      <trkpt lat="42.54921" lon="1.093176">
        <ele>1959</ele>
        <time>1970-01-01T01:12:14.000Z</time>
      </trkpt>
      <trkpt lat="42.549425" lon="1.093335">
        <ele>1957</ele>
        <time>1970-01-01T01:12:17.000Z</time>
      </trkpt>
      <trkpt lat="42.549583" lon="1.093454">
        <ele>1955.4</ele>
        <time>1970-01-01T01:12:19.000Z</time>
      </trkpt>
      <trkpt lat="42.549753" lon="1.093536">
        <ele>1954.2</ele>
        <time>1970-01-01T01:12:21.000Z</time>
      </trkpt>
      <trkpt lat="42.550008" lon="1.093682">
        <ele>1953</ele>
        <time>1970-01-01T01:12:24.000Z</time>
      </trkpt>
      <trkpt lat="42.550239" lon="1.093831">
        <ele>1952</ele>
        <time>1970-01-01T01:12:27.000Z</time>
      </trkpt>
      <trkpt lat="42.550378" lon="1.093956">
        <ele>1951.4</ele>
        <time>1970-01-01T01:12:29.000Z</time>
      </trkpt>
      <trkpt lat="42.550499" lon="1.094083">
        <ele>1950.4</ele>
        <time>1970-01-01T01:12:31.000Z</time>
      </trkpt>
      <trkpt lat="42.550544" lon="1.094144">
        <ele>1949.8</ele>
        <time>1970-01-01T01:12:32.000Z</time>
      </trkpt>
      <trkpt lat="42.550559" lon="1.094269">
        <ele>1949.4</ele>
        <time>1970-01-01T01:12:34.000Z</time>
      </trkpt>
      <trkpt lat="42.550448" lon="1.09447">
        <ele>1948.2</ele>
        <time>1970-01-01T01:12:37.000Z</time>
      </trkpt>
      <trkpt lat="42.550329" lon="1.09461">
        <ele>1947.4</ele>
        <time>1970-01-01T01:12:39.000Z</time>
      </trkpt>
      <trkpt lat="42.550268" lon="1.094666">
        <ele>1947</ele>
        <time>1970-01-01T01:12:40.000Z</time>
      </trkpt>
      <trkpt lat="42.550209" lon="1.094711">
        <ele>1946.2</ele>
        <time>1970-01-01T01:12:41.000Z</time>
      </trkpt>
      <trkpt lat="42.550147" lon="1.09474">
        <ele>1945.8</ele>
        <time>1970-01-01T01:12:42.000Z</time>
      </trkpt>
      <trkpt lat="42.549921" lon="1.094815">
        <ele>1942.6</ele>
        <time>1970-01-01T01:12:45.000Z</time>
      </trkpt>
      <trkpt lat="42.549836" lon="1.094855">
        <ele>1941.4</ele>
        <time>1970-01-01T01:12:46.000Z</time>
      </trkpt>
      <trkpt lat="42.549673" lon="1.094996">
        <ele>1940</ele>
        <time>1970-01-01T01:12:48.000Z</time>
      </trkpt>
      <trkpt lat="42.549468" lon="1.095266">
        <ele>1938.6</ele>
        <time>1970-01-01T01:12:51.000Z</time>
      </trkpt>
      <trkpt lat="42.549352" lon="1.095488">
        <ele>1936.8</ele>
        <time>1970-01-01T01:12:53.000Z</time>
      </trkpt>
      <trkpt lat="42.549297" lon="1.095599">
        <ele>1935.8</ele>
        <time>1970-01-01T01:12:54.000Z</time>
      </trkpt>
      <trkpt lat="42.549243" lon="1.095703">
        <ele>1935</ele>
        <time>1970-01-01T01:12:55.000Z</time>
      </trkpt>
      <trkpt lat="42.549126" lon="1.095903">
        <ele>1933.6</ele>
        <time>1970-01-01T01:12:57.000Z</time>
      </trkpt>
      <trkpt lat="42.549007" lon="1.096115">
        <ele>1931.8</ele>
        <time>1970-01-01T01:12:59.000Z</time>
      </trkpt>
      <trkpt lat="42.548956" lon="1.096228">
        <ele>1930.8</ele>
        <time>1970-01-01T01:13:00.000Z</time>
      </trkpt>
      <trkpt lat="42.548914" lon="1.096347">
        <ele>1930.2</ele>
        <time>1970-01-01T01:13:01.000Z</time>
      </trkpt>
      <trkpt lat="42.548878" lon="1.096475">
        <ele>1929.2</ele>
        <time>1970-01-01T01:13:02.000Z</time>
      </trkpt>
      <trkpt lat="42.548847" lon="1.09661">
        <ele>1927.8</ele>
        <time>1970-01-01T01:13:03.000Z</time>
      </trkpt>
      <trkpt lat="42.548788" lon="1.096867">
        <ele>1926.4</ele>
        <time>1970-01-01T01:13:05.000Z</time>
      </trkpt>
      <trkpt lat="42.548705" lon="1.097097">
        <ele>1924.6</ele>
        <time>1970-01-01T01:13:07.000Z</time>
      </trkpt>
      <trkpt lat="42.548586" lon="1.097289">
        <ele>1922.8</ele>
        <time>1970-01-01T01:13:09.000Z</time>
      </trkpt>
      <trkpt lat="42.548469" lon="1.097457">
        <ele>1921</ele>
        <time>1970-01-01T01:13:11.000Z</time>
      </trkpt>
      <trkpt lat="42.548404" lon="1.097534">
        <ele>1919.8</ele>
        <time>1970-01-01T01:13:12.000Z</time>
      </trkpt>
      <trkpt lat="42.548256" lon="1.097686">
        <ele>1918.6</ele>
        <time>1970-01-01T01:13:14.000Z</time>
      </trkpt>
      <trkpt lat="42.548176" lon="1.097755">
        <ele>1918.2</ele>
        <time>1970-01-01T01:13:15.000Z</time>
      </trkpt>
      <trkpt lat="42.548096" lon="1.097817">
        <ele>1917.4</ele>
        <time>1970-01-01T01:13:16.000Z</time>
      </trkpt>
      <trkpt lat="42.547947" lon="1.097905">
        <ele>1916</ele>
        <time>1970-01-01T01:13:18.000Z</time>
      </trkpt>
      <trkpt lat="42.547883" lon="1.09795">
        <ele>1915.6</ele>
        <time>1970-01-01T01:13:19.000Z</time>
      </trkpt>
      <trkpt lat="42.547823" lon="1.098002">
        <ele>1914.8</ele>
        <time>1970-01-01T01:13:20.000Z</time>
      </trkpt>
      <trkpt lat="42.547628" lon="1.098195">
        <ele>1913.4</ele>
        <time>1970-01-01T01:13:23.000Z</time>
      </trkpt>
      <trkpt lat="42.547515" lon="1.098344">
        <ele>1912</ele>
        <time>1970-01-01T01:13:25.000Z</time>
      </trkpt>
      <trkpt lat="42.547486" lon="1.098512">
        <ele>1910.6</ele>
        <time>1970-01-01T01:13:27.000Z</time>
      </trkpt>
      <trkpt lat="42.547555" lon="1.098676">
        <ele>1909.2</ele>
        <time>1970-01-01T01:13:29.000Z</time>
      </trkpt>
      <trkpt lat="42.547669" lon="1.098849">
        <ele>1907.8</ele>
        <time>1970-01-01T01:13:31.000Z</time>
      </trkpt>
      <trkpt lat="42.547796" lon="1.099025">
        <ele>1905.6</ele>
        <time>1970-01-01T01:13:33.000Z</time>
      </trkpt>
      <trkpt lat="42.54792" lon="1.099229">
        <ele>1903.8</ele>
        <time>1970-01-01T01:13:35.000Z</time>
      </trkpt>
      <trkpt lat="42.547984" lon="1.099342">
        <ele>1902.4</ele>
        <time>1970-01-01T01:13:36.000Z</time>
      </trkpt>
      <trkpt lat="42.548104" lon="1.099589">
        <ele>1901</ele>
        <time>1970-01-01T01:13:38.000Z</time>
      </trkpt>
      <trkpt lat="42.548207" lon="1.099823">
        <ele>1899.8</ele>
        <time>1970-01-01T01:13:40.000Z</time>
      </trkpt>
      <trkpt lat="42.548282" lon="1.100038">
        <ele>1898</ele>
        <time>1970-01-01T01:13:42.000Z</time>
      </trkpt>
      <trkpt lat="42.548308" lon="1.100283">
        <ele>1896.2</ele>
        <time>1970-01-01T01:13:44.000Z</time>
      </trkpt>
      <trkpt lat="42.548315" lon="1.100548">
        <ele>1894.8</ele>
        <time>1970-01-01T01:13:46.000Z</time>
      </trkpt>
      <trkpt lat="42.548306" lon="1.100829">
        <ele>1892.6</ele>
        <time>1970-01-01T01:13:48.000Z</time>
      </trkpt>
      <trkpt lat="42.548303" lon="1.100963">
        <ele>1891</ele>
        <time>1970-01-01T01:13:49.000Z</time>
      </trkpt>
      <trkpt lat="42.5483" lon="1.101084">
        <ele>1889.8</ele>
        <time>1970-01-01T01:13:50.000Z</time>
      </trkpt>
      <trkpt lat="42.548302" lon="1.101303">
        <ele>1888.6</ele>
        <time>1970-01-01T01:13:52.000Z</time>
      </trkpt>
      <trkpt lat="42.548306" lon="1.101654">
        <ele>1887.4</ele>
        <time>1970-01-01T01:13:55.000Z</time>
      </trkpt>
      <trkpt lat="42.548297" lon="1.101778">
        <ele>1886.4</ele>
        <time>1970-01-01T01:13:56.000Z</time>
      </trkpt>
      <trkpt lat="42.548278" lon="1.101902">
        <ele>1885.6</ele>
        <time>1970-01-01T01:13:57.000Z</time>
      </trkpt>
      <trkpt lat="42.548195" lon="1.102206">
        <ele>1884.2</ele>
        <time>1970-01-01T01:14:00.000Z</time>
      </trkpt>
      <trkpt lat="42.548152" lon="1.102358">
        <ele>1883.2</ele>
        <time>1970-01-01T01:14:02.000Z</time>
      </trkpt>
      <trkpt lat="42.548137" lon="1.10244">
        <ele>1882.6</ele>
        <time>1970-01-01T01:14:03.000Z</time>
      </trkpt>
      <trkpt lat="42.548131" lon="1.102517">
        <ele>1882.2</ele>
        <time>1970-01-01T01:14:04.000Z</time>
      </trkpt>
      <trkpt lat="42.548206" lon="1.102738">
        <ele>1881</ele>
        <time>1970-01-01T01:14:07.000Z</time>
      </trkpt>
      <trkpt lat="42.548361" lon="1.102902">
        <ele>1879.6</ele>
        <time>1970-01-01T01:14:10.000Z</time>
      </trkpt>
      <trkpt lat="42.548522" lon="1.103012">
        <ele>1878.2</ele>
        <time>1970-01-01T01:14:12.000Z</time>
      </trkpt>
      <trkpt lat="42.548616" lon="1.103055">
        <ele>1877.2</ele>
        <time>1970-01-01T01:14:13.000Z</time>
      </trkpt>
      <trkpt lat="42.548719" lon="1.103088">
        <ele>1876.6</ele>
        <time>1970-01-01T01:14:14.000Z</time>
      </trkpt>
      <trkpt lat="42.548934" lon="1.103142">
        <ele>1875</ele>
        <time>1970-01-01T01:14:16.000Z</time>
      </trkpt>
      <trkpt lat="42.54904" lon="1.103178">
        <ele>1874.2</ele>
        <time>1970-01-01T01:14:17.000Z</time>
      </trkpt>
      <trkpt lat="42.549147" lon="1.103202">
        <ele>1873.4</ele>
        <time>1970-01-01T01:14:18.000Z</time>
      </trkpt>
      <trkpt lat="42.549456" lon="1.103229">
        <ele>1872</ele>
        <time>1970-01-01T01:14:21.000Z</time>
      </trkpt>
      <trkpt lat="42.549544" lon="1.103236">
        <ele>1871</ele>
        <time>1970-01-01T01:14:22.000Z</time>
      </trkpt>
      <trkpt lat="42.549713" lon="1.103238">
        <ele>1869.4</ele>
        <time>1970-01-01T01:14:24.000Z</time>
      </trkpt>
      <trkpt lat="42.549977" lon="1.103217">
        <ele>1868.4</ele>
        <time>1970-01-01T01:14:27.000Z</time>
      </trkpt>
      <trkpt lat="42.550138" lon="1.103213">
        <ele>1866.6</ele>
        <time>1970-01-01T01:14:29.000Z</time>
      </trkpt>
      <trkpt lat="42.55021" lon="1.103208">
        <ele>1865.6</ele>
        <time>1970-01-01T01:14:30.000Z</time>
      </trkpt>
      <trkpt lat="42.55034" lon="1.103216">
        <ele>1864</ele>
        <time>1970-01-01T01:14:32.000Z</time>
      </trkpt>
      <trkpt lat="42.550583" lon="1.103255">
        <ele>1862.8</ele>
        <time>1970-01-01T01:14:35.000Z</time>
      </trkpt>
      <trkpt lat="42.550771" lon="1.103303">
        <ele>1861.8</ele>
        <time>1970-01-01T01:14:37.000Z</time>
      </trkpt>
      <trkpt lat="42.550865" lon="1.103343">
        <ele>1860.8</ele>
        <time>1970-01-01T01:14:38.000Z</time>
      </trkpt>
      <trkpt lat="42.550952" lon="1.103386">
        <ele>1859.4</ele>
        <time>1970-01-01T01:14:39.000Z</time>
      </trkpt>
      <trkpt lat="42.551031" lon="1.103431">
        <ele>1858</ele>
        <time>1970-01-01T01:14:40.000Z</time>
      </trkpt>
      <trkpt lat="42.551188" lon="1.10352">
        <ele>1856.6</ele>
        <time>1970-01-01T01:14:42.000Z</time>
      </trkpt>
      <trkpt lat="42.551264" lon="1.103585">
        <ele>1855.6</ele>
        <time>1970-01-01T01:14:43.000Z</time>
      </trkpt>
      <trkpt lat="42.551413" lon="1.10375">
        <ele>1854.2</ele>
        <time>1970-01-01T01:14:45.000Z</time>
      </trkpt>
      <trkpt lat="42.551561" lon="1.103921">
        <ele>1852.4</ele>
        <time>1970-01-01T01:14:47.000Z</time>
      </trkpt>
      <trkpt lat="42.551639" lon="1.104001">
        <ele>1851.4</ele>
        <time>1970-01-01T01:14:48.000Z</time>
      </trkpt>
      <trkpt lat="42.551723" lon="1.104083">
        <ele>1849.8</ele>
        <time>1970-01-01T01:14:49.000Z</time>
      </trkpt>
      <trkpt lat="42.551808" lon="1.104159">
        <ele>1848.4</ele>
        <time>1970-01-01T01:14:50.000Z</time>
      </trkpt>
      <trkpt lat="42.551886" lon="1.104234">
        <ele>1847.2</ele>
        <time>1970-01-01T01:14:51.000Z</time>
      </trkpt>
      <trkpt lat="42.551953" lon="1.104311">
        <ele>1846.2</ele>
        <time>1970-01-01T01:14:52.000Z</time>
      </trkpt>
      <trkpt lat="42.552004" lon="1.104398">
        <ele>1845.6</ele>
        <time>1970-01-01T01:14:53.000Z</time>
      </trkpt>
      <trkpt lat="42.552052" lon="1.104705">
        <ele>1844.4</ele>
        <time>1970-01-01T01:14:56.000Z</time>
      </trkpt>
      <trkpt lat="42.552042" lon="1.104817">
        <ele>1843.2</ele>
        <time>1970-01-01T01:14:57.000Z</time>
      </trkpt>
      <trkpt lat="42.552034" lon="1.104931">
        <ele>1842.6</ele>
        <time>1970-01-01T01:14:58.000Z</time>
      </trkpt>
      <trkpt lat="42.552023" lon="1.105047">
        <ele>1841.8</ele>
        <time>1970-01-01T01:14:59.000Z</time>
      </trkpt>
      <trkpt lat="42.552028" lon="1.105268">
        <ele>1840.8</ele>
        <time>1970-01-01T01:15:01.000Z</time>
      </trkpt>
      <trkpt lat="42.552048" lon="1.105372">
        <ele>1839.6</ele>
        <time>1970-01-01T01:15:02.000Z</time>
      </trkpt>
      <trkpt lat="42.552135" lon="1.105556">
        <ele>1838</ele>
        <time>1970-01-01T01:15:04.000Z</time>
      </trkpt>
      <trkpt lat="42.552248" lon="1.105726">
        <ele>1836.8</ele>
        <time>1970-01-01T01:15:06.000Z</time>
      </trkpt>
      <trkpt lat="42.552313" lon="1.105811">
        <ele>1835.8</ele>
        <time>1970-01-01T01:15:07.000Z</time>
      </trkpt>
      <trkpt lat="42.552381" lon="1.105888">
        <ele>1835.2</ele>
        <time>1970-01-01T01:15:08.000Z</time>
      </trkpt>
      <trkpt lat="42.552523" lon="1.10603">
        <ele>1833.2</ele>
        <time>1970-01-01T01:15:10.000Z</time>
      </trkpt>
      <trkpt lat="42.552675" lon="1.106165">
        <ele>1831.8</ele>
        <time>1970-01-01T01:15:12.000Z</time>
      </trkpt>
      <trkpt lat="42.552848" lon="1.106275">
        <ele>1830.2</ele>
        <time>1970-01-01T01:15:14.000Z</time>
      </trkpt>
      <trkpt lat="42.55301" lon="1.106343">
        <ele>1829</ele>
        <time>1970-01-01T01:15:16.000Z</time>
      </trkpt>
      <trkpt lat="42.553145" lon="1.106372">
        <ele>1828</ele>
        <time>1970-01-01T01:15:18.000Z</time>
      </trkpt>
      <trkpt lat="42.553338" lon="1.106401">
        <ele>1826.6</ele>
        <time>1970-01-01T01:15:21.000Z</time>
      </trkpt>
      <trkpt lat="42.553469" lon="1.106459">
        <ele>1825.2</ele>
        <time>1970-01-01T01:15:23.000Z</time>
      </trkpt>
      <trkpt lat="42.553649" lon="1.106593">
        <ele>1823.8</ele>
        <time>1970-01-01T01:15:26.000Z</time>
      </trkpt>
      <trkpt lat="42.553698" lon="1.106626">
        <ele>1823</ele>
        <time>1970-01-01T01:15:27.000Z</time>
      </trkpt>
      <trkpt lat="42.553743" lon="1.106649">
        <ele>1822.6</ele>
        <time>1970-01-01T01:15:28.000Z</time>
      </trkpt>
      <trkpt lat="42.553833" lon="1.106637">
        <ele>1821.6</ele>
        <time>1970-01-01T01:15:31.000Z</time>
      </trkpt>
      <trkpt lat="42.553835" lon="1.106622">
        <ele>1821.4</ele>
        <time>1970-01-01T01:15:33.000Z</time>
      </trkpt>
      <trkpt lat="42.553787" lon="1.106549">
        <ele>1820.2</ele>
        <time>1970-01-01T01:16:43.000Z</time>
      </trkpt>
      <trkpt lat="42.553673" lon="1.106447">
        <ele>1818.8</ele>
        <time>1970-01-01T01:16:46.000Z</time>
      </trkpt>
      <trkpt lat="42.553558" lon="1.10639">
        <ele>1817.4</ele>
        <time>1970-01-01T01:16:48.000Z</time>
      </trkpt>
      <trkpt lat="42.553431" lon="1.106297">
        <ele>1816.4</ele>
        <time>1970-01-01T01:16:50.000Z</time>
      </trkpt>
      <trkpt lat="42.553364" lon="1.10624">
        <ele>1815.6</ele>
        <time>1970-01-01T01:16:51.000Z</time>
      </trkpt>
      <trkpt lat="42.553291" lon="1.106179">
        <ele>1814.6</ele>
        <time>1970-01-01T01:16:52.000Z</time>
      </trkpt>
      <trkpt lat="42.553134" lon="1.106033">
        <ele>1813</ele>
        <time>1970-01-01T01:16:54.000Z</time>
      </trkpt>
      <trkpt lat="42.552974" lon="1.105879">
        <ele>1812</ele>
        <time>1970-01-01T01:16:56.000Z</time>
      </trkpt>
      <trkpt lat="42.552905" lon="1.105801">
        <ele>1810.6</ele>
        <time>1970-01-01T01:16:57.000Z</time>
      </trkpt>
      <trkpt lat="42.552845" lon="1.105722">
        <ele>1809.6</ele>
        <time>1970-01-01T01:16:58.000Z</time>
      </trkpt>
      <trkpt lat="42.552793" lon="1.105645">
        <ele>1809</ele>
        <time>1970-01-01T01:16:59.000Z</time>
      </trkpt>
      <trkpt lat="42.552697" lon="1.10547">
        <ele>1807.8</ele>
        <time>1970-01-01T01:17:01.000Z</time>
      </trkpt>
      <trkpt lat="42.552626" lon="1.105279">
        <ele>1806</ele>
        <time>1970-01-01T01:17:03.000Z</time>
      </trkpt>
      <trkpt lat="42.552606" lon="1.10519">
        <ele>1804.8</ele>
        <time>1970-01-01T01:17:04.000Z</time>
      </trkpt>
      <trkpt lat="42.552597" lon="1.105111">
        <ele>1803.6</ele>
        <time>1970-01-01T01:17:05.000Z</time>
      </trkpt>
      <trkpt lat="42.55261" lon="1.104966">
        <ele>1802.2</ele>
        <time>1970-01-01T01:17:07.000Z</time>
      </trkpt>
      <trkpt lat="42.552649" lon="1.1048">
        <ele>1801.6</ele>
        <time>1970-01-01T01:17:09.000Z</time>
      </trkpt>
      <trkpt lat="42.552691" lon="1.104595">
        <ele>1800.8</ele>
        <time>1970-01-01T01:17:11.000Z</time>
      </trkpt>
      <trkpt lat="42.552717" lon="1.104385">
        <ele>1799.2</ele>
        <time>1970-01-01T01:17:13.000Z</time>
      </trkpt>
      <trkpt lat="42.552751" lon="1.104182">
        <ele>1797.6</ele>
        <time>1970-01-01T01:17:15.000Z</time>
      </trkpt>
      <trkpt lat="42.55279" lon="1.103985">
        <ele>1795.8</ele>
        <time>1970-01-01T01:17:17.000Z</time>
      </trkpt>
      <trkpt lat="42.55277" lon="1.103809">
        <ele>1794.2</ele>
        <time>1970-01-01T01:17:19.000Z</time>
      </trkpt>
      <trkpt lat="42.552659" lon="1.103565">
        <ele>1793</ele>
        <time>1970-01-01T01:17:22.000Z</time>
      </trkpt>
      <trkpt lat="42.55257" lon="1.103405">
        <ele>1791.4</ele>
        <time>1970-01-01T01:17:24.000Z</time>
      </trkpt>
      <trkpt lat="42.55248" lon="1.103216">
        <ele>1789.8</ele>
        <time>1970-01-01T01:17:26.000Z</time>
      </trkpt>
      <trkpt lat="42.552439" lon="1.103115">
        <ele>1788.6</ele>
        <time>1970-01-01T01:17:27.000Z</time>
      </trkpt>
      <trkpt lat="42.552366" lon="1.102901">
        <ele>1787</ele>
        <time>1970-01-01T01:17:29.000Z</time>
      </trkpt>
      <trkpt lat="42.552312" lon="1.102653">
        <ele>1785.8</ele>
        <time>1970-01-01T01:17:31.000Z</time>
      </trkpt>
      <trkpt lat="42.552256" lon="1.102396">
        <ele>1784.4</ele>
        <time>1970-01-01T01:17:33.000Z</time>
      </trkpt>
      <trkpt lat="42.552215" lon="1.102276">
        <ele>1784.2</ele>
        <time>1970-01-01T01:17:34.000Z</time>
      </trkpt>
      <trkpt lat="42.552077" lon="1.102089">
        <ele>1783.4</ele>
        <time>1970-01-01T01:17:36.000Z</time>
      </trkpt>
      <trkpt lat="42.551887" lon="1.101967">
        <ele>1781.8</ele>
        <time>1970-01-01T01:17:38.000Z</time>
      </trkpt>
      <trkpt lat="42.551688" lon="1.101865">
        <ele>1780.6</ele>
        <time>1970-01-01T01:17:40.000Z</time>
      </trkpt>
      <trkpt lat="42.551599" lon="1.10181">
        <ele>1779.6</ele>
        <time>1970-01-01T01:17:41.000Z</time>
      </trkpt>
      <trkpt lat="42.551425" lon="1.10169">
        <ele>1778.2</ele>
        <time>1970-01-01T01:17:43.000Z</time>
      </trkpt>
      <trkpt lat="42.551143" lon="1.101465">
        <ele>1776.4</ele>
        <time>1970-01-01T01:17:46.000Z</time>
      </trkpt>
      <trkpt lat="42.550954" lon="1.101317">
        <ele>1775.4</ele>
        <time>1970-01-01T01:17:48.000Z</time>
      </trkpt>
      <trkpt lat="42.550855" lon="1.101262">
        <ele>1774.2</ele>
        <time>1970-01-01T01:17:49.000Z</time>
      </trkpt>
      <trkpt lat="42.550756" lon="1.101222">
        <ele>1773.2</ele>
        <time>1970-01-01T01:17:50.000Z</time>
      </trkpt>
      <trkpt lat="42.550671" lon="1.101201">
        <ele>1772.2</ele>
        <time>1970-01-01T01:17:51.000Z</time>
      </trkpt>
      <trkpt lat="42.550531" lon="1.101129">
        <ele>1770.4</ele>
        <time>1970-01-01T01:17:53.000Z</time>
      </trkpt>
      <trkpt lat="42.550457" lon="1.100978">
        <ele>1769.2</ele>
        <time>1970-01-01T01:17:55.000Z</time>
      </trkpt>
      <trkpt lat="42.550456" lon="1.100778">
        <ele>1768.2</ele>
        <time>1970-01-01T01:17:57.000Z</time>
      </trkpt>
      <trkpt lat="42.550533" lon="1.100465">
        <ele>1766.8</ele>
        <time>1970-01-01T01:18:00.000Z</time>
      </trkpt>
      <trkpt lat="42.550575" lon="1.100246">
        <ele>1765.6</ele>
        <time>1970-01-01T01:18:02.000Z</time>
      </trkpt>
      <trkpt lat="42.550609" lon="1.10015">
        <ele>1764.8</ele>
        <time>1970-01-01T01:18:03.000Z</time>
      </trkpt>
      <trkpt lat="42.550656" lon="1.100074">
        <ele>1764.4</ele>
        <time>1970-01-01T01:18:04.000Z</time>
      </trkpt>
      <trkpt lat="42.550773" lon="1.099975">
        <ele>1763.2</ele>
        <time>1970-01-01T01:18:06.000Z</time>
      </trkpt>
      <trkpt lat="42.550925" lon="1.099946">
        <ele>1761.8</ele>
        <time>1970-01-01T01:18:08.000Z</time>
      </trkpt>
      <trkpt lat="42.551009" lon="1.099938">
        <ele>1761.4</ele>
        <time>1970-01-01T01:18:09.000Z</time>
      </trkpt>
      <trkpt lat="42.551097" lon="1.099924">
        <ele>1760.2</ele>
        <time>1970-01-01T01:18:10.000Z</time>
      </trkpt>
      <trkpt lat="42.551277" lon="1.099872">
        <ele>1758.6</ele>
        <time>1970-01-01T01:18:12.000Z</time>
      </trkpt>
      <trkpt lat="42.551499" lon="1.099755">
        <ele>1756.4</ele>
        <time>1970-01-01T01:18:15.000Z</time>
      </trkpt>
      <trkpt lat="42.551562" lon="1.099727">
        <ele>1755.6</ele>
        <time>1970-01-01T01:18:16.000Z</time>
      </trkpt>
      <trkpt lat="42.551701" lon="1.099701">
        <ele>1754</ele>
        <time>1970-01-01T01:18:18.000Z</time>
      </trkpt>
      <trkpt lat="42.551851" lon="1.099732">
        <ele>1753</ele>
        <time>1970-01-01T01:18:20.000Z</time>
      </trkpt>
      <trkpt lat="42.552107" lon="1.099746">
        <ele>1752</ele>
        <time>1970-01-01T01:18:23.000Z</time>
      </trkpt>
      <trkpt lat="42.5523" lon="1.09972">
        <ele>1751</ele>
        <time>1970-01-01T01:18:25.000Z</time>
      </trkpt>
      <trkpt lat="42.552397" lon="1.099688">
        <ele>1750.4</ele>
        <time>1970-01-01T01:18:26.000Z</time>
      </trkpt>
      <trkpt lat="42.552488" lon="1.099641">
        <ele>1749.2</ele>
        <time>1970-01-01T01:18:27.000Z</time>
      </trkpt>
      <trkpt lat="42.552636" lon="1.099539">
        <ele>1747.4</ele>
        <time>1970-01-01T01:18:29.000Z</time>
      </trkpt>
      <trkpt lat="42.552707" lon="1.099485">
        <ele>1746.4</ele>
        <time>1970-01-01T01:18:30.000Z</time>
      </trkpt>
      <trkpt lat="42.552777" lon="1.099428">
        <ele>1745.6</ele>
        <time>1970-01-01T01:18:31.000Z</time>
      </trkpt>
      <trkpt lat="42.552912" lon="1.099273">
        <ele>1744.4</ele>
        <time>1970-01-01T01:18:33.000Z</time>
      </trkpt>
      <trkpt lat="42.553026" lon="1.099091">
        <ele>1743.2</ele>
        <time>1970-01-01T01:18:35.000Z</time>
      </trkpt>
      <trkpt lat="42.553143" lon="1.098995">
        <ele>1741</ele>
        <time>1970-01-01T01:18:37.000Z</time>
      </trkpt>
      <trkpt lat="42.553209" lon="1.098983">
        <ele>1739.8</ele>
        <time>1970-01-01T01:18:38.000Z</time>
      </trkpt>
      <trkpt lat="42.553359" lon="1.099017">
        <ele>1738.6</ele>
        <time>1970-01-01T01:18:40.000Z</time>
      </trkpt>
      <trkpt lat="42.553495" lon="1.099041">
        <ele>1738</ele>
        <time>1970-01-01T01:18:42.000Z</time>
      </trkpt>
      <trkpt lat="42.553572" lon="1.09905">
        <ele>1737.4</ele>
        <time>1970-01-01T01:18:43.000Z</time>
      </trkpt>
      <trkpt lat="42.553649" lon="1.099051">
        <ele>1736.4</ele>
        <time>1970-01-01T01:18:44.000Z</time>
      </trkpt>
      <trkpt lat="42.553815" lon="1.099028">
        <ele>1734.8</ele>
        <time>1970-01-01T01:18:46.000Z</time>
      </trkpt>
      <trkpt lat="42.553991" lon="1.098999">
        <ele>1733.2</ele>
        <time>1970-01-01T01:18:48.000Z</time>
      </trkpt>
      <trkpt lat="42.5542" lon="1.099026">
        <ele>1732.2</ele>
        <time>1970-01-01T01:18:50.000Z</time>
      </trkpt>
      <trkpt lat="42.554409" lon="1.099059">
        <ele>1731.2</ele>
        <time>1970-01-01T01:18:52.000Z</time>
      </trkpt>
      <trkpt lat="42.554511" lon="1.099099">
        <ele>1730.6</ele>
        <time>1970-01-01T01:18:53.000Z</time>
      </trkpt>
      <trkpt lat="42.554714" lon="1.099187">
        <ele>1729.4</ele>
        <time>1970-01-01T01:18:55.000Z</time>
      </trkpt>
      <trkpt lat="42.554913" lon="1.099204">
        <ele>1728.2</ele>
        <time>1970-01-01T01:18:57.000Z</time>
      </trkpt>
      <trkpt lat="42.555111" lon="1.099168">
        <ele>1726.8</ele>
        <time>1970-01-01T01:18:59.000Z</time>
      </trkpt>
      <trkpt lat="42.555278" lon="1.099111">
        <ele>1725.2</ele>
        <time>1970-01-01T01:19:01.000Z</time>
      </trkpt>
      <trkpt lat="42.555351" lon="1.099086">
        <ele>1724</ele>
        <time>1970-01-01T01:19:02.000Z</time>
      </trkpt>
      <trkpt lat="42.555424" lon="1.099069">
        <ele>1722.8</ele>
        <time>1970-01-01T01:19:03.000Z</time>
      </trkpt>
      <trkpt lat="42.555579" lon="1.099038">
        <ele>1721.2</ele>
        <time>1970-01-01T01:19:05.000Z</time>
      </trkpt>
      <trkpt lat="42.555748" lon="1.099013">
        <ele>1719.6</ele>
        <time>1970-01-01T01:19:07.000Z</time>
      </trkpt>
      <trkpt lat="42.555934" lon="1.098998">
        <ele>1718.4</ele>
        <time>1970-01-01T01:19:09.000Z</time>
      </trkpt>
      <trkpt lat="42.556117" lon="1.098956">
        <ele>1717.4</ele>
        <time>1970-01-01T01:19:11.000Z</time>
      </trkpt>
      <trkpt lat="42.556203" lon="1.098916">
        <ele>1716.4</ele>
        <time>1970-01-01T01:19:12.000Z</time>
      </trkpt>
      <trkpt lat="42.55638" lon="1.098819">
        <ele>1714</ele>
        <time>1970-01-01T01:19:14.000Z</time>
      </trkpt>
      <trkpt lat="42.556555" lon="1.098717">
        <ele>1711.6</ele>
        <time>1970-01-01T01:19:16.000Z</time>
      </trkpt>
      <trkpt lat="42.556644" lon="1.098666">
        <ele>1710.4</ele>
        <time>1970-01-01T01:19:17.000Z</time>
      </trkpt>
      <trkpt lat="42.556799" lon="1.098566">
        <ele>1708.8</ele>
        <time>1970-01-01T01:19:19.000Z</time>
      </trkpt>
      <trkpt lat="42.556872" lon="1.098524">
        <ele>1708.2</ele>
        <time>1970-01-01T01:19:20.000Z</time>
      </trkpt>
      <trkpt lat="42.556944" lon="1.098488">
        <ele>1707.2</ele>
        <time>1970-01-01T01:19:21.000Z</time>
      </trkpt>
      <trkpt lat="42.557085" lon="1.098431">
        <ele>1706</ele>
        <time>1970-01-01T01:19:23.000Z</time>
      </trkpt>
      <trkpt lat="42.557285" lon="1.098341">
        <ele>1704.6</ele>
        <time>1970-01-01T01:19:26.000Z</time>
      </trkpt>
      <trkpt lat="42.557421" lon="1.098273">
        <ele>1703.6</ele>
        <time>1970-01-01T01:19:28.000Z</time>
      </trkpt>
      <trkpt lat="42.557627" lon="1.098197">
        <ele>1702.2</ele>
        <time>1970-01-01T01:19:31.000Z</time>
      </trkpt>
      <trkpt lat="42.557856" lon="1.098152">
        <ele>1701</ele>
        <time>1970-01-01T01:19:34.000Z</time>
      </trkpt>
      <trkpt lat="42.558021" lon="1.098148">
        <ele>1699.2</ele>
        <time>1970-01-01T01:19:36.000Z</time>
      </trkpt>
      <trkpt lat="42.558296" lon="1.098167">
        <ele>1697.8</ele>
        <time>1970-01-01T01:19:39.000Z</time>
      </trkpt>
      <trkpt lat="42.558393" lon="1.098174">
        <ele>1696.6</ele>
        <time>1970-01-01T01:19:40.000Z</time>
      </trkpt>
      <trkpt lat="42.558499" lon="1.098181">
        <ele>1695.2</ele>
        <time>1970-01-01T01:19:41.000Z</time>
      </trkpt>
      <trkpt lat="42.558706" lon="1.09818">
        <ele>1693.8</ele>
        <time>1970-01-01T01:19:43.000Z</time>
      </trkpt>
      <trkpt lat="42.55892" lon="1.098144">
        <ele>1692.2</ele>
        <time>1970-01-01T01:19:45.000Z</time>
      </trkpt>
      <trkpt lat="42.559028" lon="1.09811">
        <ele>1691</ele>
        <time>1970-01-01T01:19:46.000Z</time>
      </trkpt>
      <trkpt lat="42.559134" lon="1.098073">
        <ele>1689.4</ele>
        <time>1970-01-01T01:19:47.000Z</time>
      </trkpt>
      <trkpt lat="42.559303" lon="1.098004">
        <ele>1688.4</ele>
        <time>1970-01-01T01:19:49.000Z</time>
      </trkpt>
      <trkpt lat="42.559435" lon="1.097949">
        <ele>1686.6</ele>
        <time>1970-01-01T01:19:51.000Z</time>
      </trkpt>
      <trkpt lat="42.559572" lon="1.097903">
        <ele>1685.6</ele>
        <time>1970-01-01T01:19:53.000Z</time>
      </trkpt>
      <trkpt lat="42.559735" lon="1.097865">
        <ele>1683.8</ele>
        <time>1970-01-01T01:19:55.000Z</time>
      </trkpt>
      <trkpt lat="42.559905" lon="1.097819">
        <ele>1682.4</ele>
        <time>1970-01-01T01:19:57.000Z</time>
      </trkpt>
      <trkpt lat="42.560073" lon="1.097723">
        <ele>1681.2</ele>
        <time>1970-01-01T01:19:59.000Z</time>
      </trkpt>
      <trkpt lat="42.560234" lon="1.097553">
        <ele>1680.2</ele>
        <time>1970-01-01T01:20:01.000Z</time>
      </trkpt>
      <trkpt lat="42.560385" lon="1.097342">
        <ele>1678.6</ele>
        <time>1970-01-01T01:20:03.000Z</time>
      </trkpt>
      <trkpt lat="42.560458" lon="1.097227">
        <ele>1676.8</ele>
        <time>1970-01-01T01:20:04.000Z</time>
      </trkpt>
      <trkpt lat="42.56052" lon="1.097113">
        <ele>1675.4</ele>
        <time>1970-01-01T01:20:05.000Z</time>
      </trkpt>
      <trkpt lat="42.560571" lon="1.097006">
        <ele>1674.4</ele>
        <time>1970-01-01T01:20:06.000Z</time>
      </trkpt>
      <trkpt lat="42.560611" lon="1.096913">
        <ele>1673</ele>
        <time>1970-01-01T01:20:07.000Z</time>
      </trkpt>
      <trkpt lat="42.560692" lon="1.096738">
        <ele>1671.6</ele>
        <time>1970-01-01T01:20:09.000Z</time>
      </trkpt>
      <trkpt lat="42.560765" lon="1.096541">
        <ele>1670.6</ele>
        <time>1970-01-01T01:20:11.000Z</time>
      </trkpt>
      <trkpt lat="42.560834" lon="1.096306">
        <ele>1669</ele>
        <time>1970-01-01T01:20:13.000Z</time>
      </trkpt>
      <trkpt lat="42.560884" lon="1.096046">
        <ele>1667.8</ele>
        <time>1970-01-01T01:20:15.000Z</time>
      </trkpt>
      <trkpt lat="42.560891" lon="1.095775">
        <ele>1666.2</ele>
        <time>1970-01-01T01:20:17.000Z</time>
      </trkpt>
      <trkpt lat="42.560873" lon="1.095505">
        <ele>1664.8</ele>
        <time>1970-01-01T01:20:19.000Z</time>
      </trkpt>
      <trkpt lat="42.560861" lon="1.09537">
        <ele>1663.6</ele>
        <time>1970-01-01T01:20:20.000Z</time>
      </trkpt>
      <trkpt lat="42.560849" lon="1.095234">
        <ele>1662.4</ele>
        <time>1970-01-01T01:20:21.000Z</time>
      </trkpt>
      <trkpt lat="42.560842" lon="1.095096">
        <ele>1661.2</ele>
        <time>1970-01-01T01:20:22.000Z</time>
      </trkpt>
      <trkpt lat="42.560828" lon="1.094855">
        <ele>1659.4</ele>
        <time>1970-01-01T01:20:24.000Z</time>
      </trkpt>
      <trkpt lat="42.560815" lon="1.094679">
        <ele>1657.2</ele>
        <time>1970-01-01T01:20:26.000Z</time>
      </trkpt>
      <trkpt lat="42.560791" lon="1.094506">
        <ele>1655.8</ele>
        <time>1970-01-01T01:20:28.000Z</time>
      </trkpt>
      <trkpt lat="42.560694" lon="1.094067">
        <ele>1654</ele>
        <time>1970-01-01T01:20:32.000Z</time>
      </trkpt>
      <trkpt lat="42.560647" lon="1.093878">
        <ele>1652.8</ele>
        <time>1970-01-01T01:20:34.000Z</time>
      </trkpt>
      <trkpt lat="42.560717" lon="1.093772">
        <ele>1651.8</ele>
        <time>1970-01-01T01:20:37.000Z</time>
      </trkpt>
      <trkpt lat="42.560776" lon="1.093826">
        <ele>1650.4</ele>
        <time>1970-01-01T01:20:40.000Z</time>
      </trkpt>
      <trkpt lat="42.560795" lon="1.093856">
        <ele>1650.2</ele>
        <time>1970-01-01T01:20:41.000Z</time>
      </trkpt>
      <trkpt lat="42.560859" lon="1.093996">
        <ele>1649</ele>
        <time>1970-01-01T01:20:44.000Z</time>
      </trkpt>
      <trkpt lat="42.560878" lon="1.094051">
        <ele>1648.6</ele>
        <time>1970-01-01T01:20:45.000Z</time>
      </trkpt>
      <trkpt lat="42.560927" lon="1.094186">
        <ele>1647.6</ele>
        <time>1970-01-01T01:20:47.000Z</time>
      </trkpt>
      <trkpt lat="42.561038" lon="1.094433">
        <ele>1646.2</ele>
        <time>1970-01-01T01:20:50.000Z</time>
      </trkpt>
      <trkpt lat="42.561082" lon="1.094511">
        <ele>1644.8</ele>
        <time>1970-01-01T01:20:51.000Z</time>
      </trkpt>
      <trkpt lat="42.561166" lon="1.094663">
        <ele>1643</ele>
        <time>1970-01-01T01:20:53.000Z</time>
      </trkpt>
      <trkpt lat="42.561214" lon="1.094735">
        <ele>1642</ele>
        <time>1970-01-01T01:20:54.000Z</time>
      </trkpt>
      <trkpt lat="42.561331" lon="1.094902">
        <ele>1640.8</ele>
        <time>1970-01-01T01:20:56.000Z</time>
      </trkpt>
      <trkpt lat="42.561536" lon="1.095115">
        <ele>1639.2</ele>
        <time>1970-01-01T01:20:59.000Z</time>
      </trkpt>
      <trkpt lat="42.561605" lon="1.095189">
        <ele>1638</ele>
        <time>1970-01-01T01:21:00.000Z</time>
      </trkpt>
      <trkpt lat="42.561708" lon="1.095356">
        <ele>1636.2</ele>
        <time>1970-01-01T01:21:02.000Z</time>
      </trkpt>
      <trkpt lat="42.561793" lon="1.095705">
        <ele>1634.4</ele>
        <time>1970-01-01T01:21:05.000Z</time>
      </trkpt>
      <trkpt lat="42.561814" lon="1.095926">
        <ele>1632.8</ele>
        <time>1970-01-01T01:21:07.000Z</time>
      </trkpt>
      <trkpt lat="42.561841" lon="1.096134">
        <ele>1630.6</ele>
        <time>1970-01-01T01:21:09.000Z</time>
      </trkpt>
      <trkpt lat="42.561869" lon="1.096354">
        <ele>1628.4</ele>
        <time>1970-01-01T01:21:11.000Z</time>
      </trkpt>
      <trkpt lat="42.561889" lon="1.096586">
        <ele>1626.6</ele>
        <time>1970-01-01T01:21:13.000Z</time>
      </trkpt>
      <trkpt lat="42.561916" lon="1.096825">
        <ele>1624.8</ele>
        <time>1970-01-01T01:21:15.000Z</time>
      </trkpt>
      <trkpt lat="42.561934" lon="1.097061">
        <ele>1623.4</ele>
        <time>1970-01-01T01:21:17.000Z</time>
      </trkpt>
      <trkpt lat="42.561937" lon="1.097184">
        <ele>1622.2</ele>
        <time>1970-01-01T01:21:18.000Z</time>
      </trkpt>
      <trkpt lat="42.561936" lon="1.097308">
        <ele>1621</ele>
        <time>1970-01-01T01:21:19.000Z</time>
      </trkpt>
      <trkpt lat="42.561933" lon="1.097544">
        <ele>1619.2</ele>
        <time>1970-01-01T01:21:21.000Z</time>
      </trkpt>
      <trkpt lat="42.561936" lon="1.097669">
        <ele>1618</ele>
        <time>1970-01-01T01:21:22.000Z</time>
      </trkpt>
      <trkpt lat="42.561933" lon="1.097931">
        <ele>1617</ele>
        <time>1970-01-01T01:21:24.000Z</time>
      </trkpt>
      <trkpt lat="42.56191" lon="1.098216">
        <ele>1615.8</ele>
        <time>1970-01-01T01:21:26.000Z</time>
      </trkpt>
      <trkpt lat="42.561889" lon="1.098352">
        <ele>1614.4</ele>
        <time>1970-01-01T01:21:27.000Z</time>
      </trkpt>
      <trkpt lat="42.561829" lon="1.098618">
        <ele>1612.4</ele>
        <time>1970-01-01T01:21:29.000Z</time>
      </trkpt>
      <trkpt lat="42.561798" lon="1.098741">
        <ele>1611.2</ele>
        <time>1970-01-01T01:21:30.000Z</time>
      </trkpt>
      <trkpt lat="42.561765" lon="1.098861">
        <ele>1609.8</ele>
        <time>1970-01-01T01:21:31.000Z</time>
      </trkpt>
      <trkpt lat="42.561673" lon="1.099106">
        <ele>1608.2</ele>
        <time>1970-01-01T01:21:33.000Z</time>
      </trkpt>
      <trkpt lat="42.561563" lon="1.099338">
        <ele>1607</ele>
        <time>1970-01-01T01:21:35.000Z</time>
      </trkpt>
      <trkpt lat="42.561439" lon="1.099546">
        <ele>1604.6</ele>
        <time>1970-01-01T01:21:37.000Z</time>
      </trkpt>
      <trkpt lat="42.561371" lon="1.099637">
        <ele>1603</ele>
        <time>1970-01-01T01:21:38.000Z</time>
      </trkpt>
      <trkpt lat="42.561248" lon="1.099783">
        <ele>1601.4</ele>
        <time>1970-01-01T01:21:40.000Z</time>
      </trkpt>
      <trkpt lat="42.561157" lon="1.099892">
        <ele>1600</ele>
        <time>1970-01-01T01:21:42.000Z</time>
      </trkpt>
      <trkpt lat="42.561112" lon="1.099946">
        <ele>1598.8</ele>
        <time>1970-01-01T01:21:43.000Z</time>
      </trkpt>
      <trkpt lat="42.561004" lon="1.100064">
        <ele>1597.4</ele>
        <time>1970-01-01T01:21:45.000Z</time>
      </trkpt>
      <trkpt lat="42.560896" lon="1.100155">
        <ele>1596.6</ele>
        <time>1970-01-01T01:21:47.000Z</time>
      </trkpt>
      <trkpt lat="42.560844" lon="1.100182">
        <ele>1596.2</ele>
        <time>1970-01-01T01:21:48.000Z</time>
      </trkpt>
      <trkpt lat="42.560684" lon="1.100239">
        <ele>1594.8</ele>
        <time>1970-01-01T01:21:51.000Z</time>
      </trkpt>
      <trkpt lat="42.560577" lon="1.100279">
        <ele>1593.6</ele>
        <time>1970-01-01T01:21:53.000Z</time>
      </trkpt>
      <trkpt lat="42.560507" lon="1.100345">
        <ele>1592.8</ele>
        <time>1970-01-01T01:21:55.000Z</time>
      </trkpt>
      <trkpt lat="42.560513" lon="1.100447">
        <ele>1591.6</ele>
        <time>1970-01-01T01:21:58.000Z</time>
      </trkpt>
      <trkpt lat="42.560653" lon="1.100451">
        <ele>1590.4</ele>
        <time>1970-01-01T01:22:01.000Z</time>
      </trkpt>
      <trkpt lat="42.5607" lon="1.100444">
        <ele>1590</ele>
        <time>1970-01-01T01:22:02.000Z</time>
      </trkpt>
      <trkpt lat="42.560751" lon="1.100444">
        <ele>1589.4</ele>
        <time>1970-01-01T01:22:03.000Z</time>
      </trkpt>
      <trkpt lat="42.560851" lon="1.100456">
        <ele>1587.8</ele>
        <time>1970-01-01T01:22:05.000Z</time>
      </trkpt>
      <trkpt lat="42.560989" lon="1.100437">
        <ele>1586.6</ele>
        <time>1970-01-01T01:22:07.000Z</time>
      </trkpt>
      <trkpt lat="42.561142" lon="1.100415">
        <ele>1585.2</ele>
        <time>1970-01-01T01:22:09.000Z</time>
      </trkpt>
      <trkpt lat="42.561292" lon="1.100383">
        <ele>1583.8</ele>
        <time>1970-01-01T01:22:11.000Z</time>
      </trkpt>
      <trkpt lat="42.561416" lon="1.100353">
        <ele>1582.8</ele>
        <time>1970-01-01T01:22:13.000Z</time>
      </trkpt>
      <trkpt lat="42.561508" lon="1.100322">
        <ele>1581.2</ele>
        <time>1970-01-01T01:22:15.000Z</time>
      </trkpt>
      <trkpt lat="42.561705" lon="1.100238">
        <ele>1579.6</ele>
        <time>1970-01-01T01:22:18.000Z</time>
      </trkpt>
      <trkpt lat="42.561863" lon="1.100162">
        <ele>1578.2</ele>
        <time>1970-01-01T01:22:20.000Z</time>
      </trkpt>
      <trkpt lat="42.561944" lon="1.10012">
        <ele>1577.2</ele>
        <time>1970-01-01T01:22:21.000Z</time>
      </trkpt>
      <trkpt lat="42.562111" lon="1.100007">
        <ele>1575.6</ele>
        <time>1970-01-01T01:22:23.000Z</time>
      </trkpt>
      <trkpt lat="42.562279" lon="1.09987">
        <ele>1574.2</ele>
        <time>1970-01-01T01:22:25.000Z</time>
      </trkpt>
      <trkpt lat="42.562424" lon="1.099709">
        <ele>1572.8</ele>
        <time>1970-01-01T01:22:27.000Z</time>
      </trkpt>
      <trkpt lat="42.562524" lon="1.099576">
        <ele>1571.4</ele>
        <time>1970-01-01T01:22:29.000Z</time>
      </trkpt>
      <trkpt lat="42.562565" lon="1.099517">
        <ele>1570</ele>
        <time>1970-01-01T01:22:30.000Z</time>
      </trkpt>
      <trkpt lat="42.562602" lon="1.099466">
        <ele>1569.4</ele>
        <time>1970-01-01T01:22:31.000Z</time>
      </trkpt>
      <trkpt lat="42.562647" lon="1.099407">
        <ele>1569</ele>
        <time>1970-01-01T01:22:32.000Z</time>
      </trkpt>
      <trkpt lat="42.562808" lon="1.099188">
        <ele>1567.8</ele>
        <time>1970-01-01T01:22:35.000Z</time>
      </trkpt>
      <trkpt lat="42.562907" lon="1.099027">
        <ele>1566.2</ele>
        <time>1970-01-01T01:22:37.000Z</time>
      </trkpt>
      <trkpt lat="42.562954" lon="1.09894">
        <ele>1564.6</ele>
        <time>1970-01-01T01:22:38.000Z</time>
      </trkpt>
      <trkpt lat="42.563029" lon="1.098762">
        <ele>1563</ele>
        <time>1970-01-01T01:22:40.000Z</time>
      </trkpt>
      <trkpt lat="42.563118" lon="1.098589">
        <ele>1562</ele>
        <time>1970-01-01T01:22:42.000Z</time>
      </trkpt>
      <trkpt lat="42.563257" lon="1.098304">
        <ele>1560.6</ele>
        <time>1970-01-01T01:22:45.000Z</time>
      </trkpt>
      <trkpt lat="42.563345" lon="1.098102">
        <ele>1559.2</ele>
        <time>1970-01-01T01:22:47.000Z</time>
      </trkpt>
      <trkpt lat="42.563482" lon="1.097787">
        <ele>1557.8</ele>
        <time>1970-01-01T01:22:50.000Z</time>
      </trkpt>
      <trkpt lat="42.563534" lon="1.097698">
        <ele>1557</ele>
        <time>1970-01-01T01:22:51.000Z</time>
      </trkpt>
      <trkpt lat="42.563592" lon="1.097622">
        <ele>1556.4</ele>
        <time>1970-01-01T01:22:52.000Z</time>
      </trkpt>
      <trkpt lat="42.563706" lon="1.097511">
        <ele>1555.2</ele>
        <time>1970-01-01T01:22:54.000Z</time>
      </trkpt>
      <trkpt lat="42.563821" lon="1.097469">
        <ele>1553.6</ele>
        <time>1970-01-01T01:22:56.000Z</time>
      </trkpt>
      <trkpt lat="42.563872" lon="1.097462">
        <ele>1553.2</ele>
        <time>1970-01-01T01:22:57.000Z</time>
      </trkpt>
      <trkpt lat="42.564085" lon="1.097476">
        <ele>1552.4</ele>
        <time>1970-01-01T01:23:02.000Z</time>
      </trkpt>
      <trkpt lat="42.564192" lon="1.097487">
        <ele>1551.4</ele>
        <time>1970-01-01T01:23:04.000Z</time>
      </trkpt>
      <trkpt lat="42.564335" lon="1.097548">
        <ele>1550.2</ele>
        <time>1970-01-01T01:23:08.000Z</time>
      </trkpt>
      <trkpt lat="42.564351" lon="1.097558">
        <ele>1549.6</ele>
        <time>1970-01-01T01:23:11.000Z</time>
      </trkpt>
      <trkpt lat="42.564376" lon="1.097589">
        <ele>1549.2</ele>
        <time>1970-01-01T01:23:45.000Z</time>
      </trkpt>
      <trkpt lat="42.564382" lon="1.097936">
        <ele>1548</ele>
        <time>1970-01-01T01:23:52.000Z</time>
      </trkpt>
      <trkpt lat="42.56432" lon="1.098172">
        <ele>1547.2</ele>
        <time>1970-01-01T01:23:56.000Z</time>
      </trkpt>
      <trkpt lat="42.564253" lon="1.0985">
        <ele>1546.2</ele>
        <time>1970-01-01T01:24:01.000Z</time>
      </trkpt>
      <trkpt lat="42.564256" lon="1.098578">
        <ele>1546</ele>
        <time>1970-01-01T01:24:02.000Z</time>
      </trkpt>
      <trkpt lat="42.564332" lon="1.098795">
        <ele>1545</ele>
        <time>1970-01-01T01:24:05.000Z</time>
      </trkpt>
      <trkpt lat="42.56452" lon="1.098884">
        <ele>1543.8</ele>
        <time>1970-01-01T01:24:08.000Z</time>
      </trkpt>
      <trkpt lat="42.564697" lon="1.09879">
        <ele>1542.6</ele>
        <time>1970-01-01T01:24:11.000Z</time>
      </trkpt>
      <trkpt lat="42.564811" lon="1.098561">
        <ele>1541</ele>
        <time>1970-01-01T01:24:14.000Z</time>
      </trkpt>
      <trkpt lat="42.564862" lon="1.098428">
        <ele>1539.4</ele>
        <time>1970-01-01T01:24:16.000Z</time>
      </trkpt>
      <trkpt lat="42.564906" lon="1.098295">
        <ele>1538.2</ele>
        <time>1970-01-01T01:24:18.000Z</time>
      </trkpt>
      <trkpt lat="42.564961" lon="1.098134">
        <ele>1537.2</ele>
        <time>1970-01-01T01:24:20.000Z</time>
      </trkpt>
      <trkpt lat="42.565011" lon="1.097939">
        <ele>1536</ele>
        <time>1970-01-01T01:24:22.000Z</time>
      </trkpt>
      <trkpt lat="42.565026" lon="1.097833">
        <ele>1535.2</ele>
        <time>1970-01-01T01:24:23.000Z</time>
      </trkpt>
      <trkpt lat="42.565031" lon="1.097722">
        <ele>1534.4</ele>
        <time>1970-01-01T01:24:24.000Z</time>
      </trkpt>
      <trkpt lat="42.565014" lon="1.097489">
        <ele>1532.6</ele>
        <time>1970-01-01T01:24:26.000Z</time>
      </trkpt>
      <trkpt lat="42.564976" lon="1.097258">
        <ele>1531.2</ele>
        <time>1970-01-01T01:24:28.000Z</time>
      </trkpt>
      <trkpt lat="42.564941" lon="1.097063">
        <ele>1529.6</ele>
        <time>1970-01-01T01:24:30.000Z</time>
      </trkpt>
      <trkpt lat="42.564904" lon="1.096825">
        <ele>1528.4</ele>
        <time>1970-01-01T01:24:33.000Z</time>
      </trkpt>
      <trkpt lat="42.564902" lon="1.096752">
        <ele>1528</ele>
        <time>1970-01-01T01:24:34.000Z</time>
      </trkpt>
      <trkpt lat="42.564917" lon="1.096625">
        <ele>1527</ele>
        <time>1970-01-01T01:24:36.000Z</time>
      </trkpt>
      <trkpt lat="42.564953" lon="1.096472">
        <ele>1526</ele>
        <time>1970-01-01T01:24:38.000Z</time>
      </trkpt>
      <trkpt lat="42.564979" lon="1.096389">
        <ele>1525.4</ele>
        <time>1970-01-01T01:24:39.000Z</time>
      </trkpt>
      <trkpt lat="42.565072" lon="1.096139">
        <ele>1524</ele>
        <time>1970-01-01T01:24:42.000Z</time>
      </trkpt>
      <trkpt lat="42.565151" lon="1.095949">
        <ele>1522.4</ele>
        <time>1970-01-01T01:24:44.000Z</time>
      </trkpt>
      <trkpt lat="42.565243" lon="1.095734">
        <ele>1521.4</ele>
        <time>1970-01-01T01:24:46.000Z</time>
      </trkpt>
      <trkpt lat="42.565358" lon="1.095502">
        <ele>1520.2</ele>
        <time>1970-01-01T01:24:48.000Z</time>
      </trkpt>
      <trkpt lat="42.565501" lon="1.09527">
        <ele>1518.4</ele>
        <time>1970-01-01T01:24:50.000Z</time>
      </trkpt>
      <trkpt lat="42.565579" lon="1.095151">
        <ele>1517.4</ele>
        <time>1970-01-01T01:24:51.000Z</time>
      </trkpt>
      <trkpt lat="42.565656" lon="1.095026">
        <ele>1516</ele>
        <time>1970-01-01T01:24:52.000Z</time>
      </trkpt>
      <trkpt lat="42.565732" lon="1.094892">
        <ele>1514.8</ele>
        <time>1970-01-01T01:24:53.000Z</time>
      </trkpt>
      <trkpt lat="42.565796" lon="1.094745">
        <ele>1513.8</ele>
        <time>1970-01-01T01:24:54.000Z</time>
      </trkpt>
      <trkpt lat="42.565845" lon="1.094587">
        <ele>1512.8</ele>
        <time>1970-01-01T01:24:55.000Z</time>
      </trkpt>
      <trkpt lat="42.56588" lon="1.09442">
        <ele>1511.8</ele>
        <time>1970-01-01T01:24:56.000Z</time>
      </trkpt>
      <trkpt lat="42.565937" lon="1.094067">
        <ele>1509.8</ele>
        <time>1970-01-01T01:24:58.000Z</time>
      </trkpt>
      <trkpt lat="42.565961" lon="1.093894">
        <ele>1508.6</ele>
        <time>1970-01-01T01:24:59.000Z</time>
      </trkpt>
      <trkpt lat="42.565979" lon="1.093733">
        <ele>1507.4</ele>
        <time>1970-01-01T01:25:00.000Z</time>
      </trkpt>
      <trkpt lat="42.565983" lon="1.093588">
        <ele>1505.8</ele>
        <time>1970-01-01T01:25:01.000Z</time>
      </trkpt>
      <trkpt lat="42.565937" lon="1.093327">
        <ele>1504.2</ele>
        <time>1970-01-01T01:25:03.000Z</time>
      </trkpt>
      <trkpt lat="42.56581" lon="1.093139">
        <ele>1502.2</ele>
        <time>1970-01-01T01:25:05.000Z</time>
      </trkpt>
      <trkpt lat="42.565748" lon="1.093059">
        <ele>1501.6</ele>
        <time>1970-01-01T01:25:06.000Z</time>
      </trkpt>
      <trkpt lat="42.565707" lon="1.092976">
        <ele>1501.2</ele>
        <time>1970-01-01T01:25:07.000Z</time>
      </trkpt>
      <trkpt lat="42.56583" lon="1.092756">
        <ele>1500.4</ele>
        <time>1970-01-01T01:25:12.000Z</time>
      </trkpt>
      <trkpt lat="42.565938" lon="1.092803">
        <ele>1500.2</ele>
        <time>1970-01-01T01:25:14.000Z</time>
      </trkpt>
      <trkpt lat="42.566253" lon="1.09297">
        <ele>1499</ele>
        <time>1970-01-01T01:25:19.000Z</time>
      </trkpt>
      <trkpt lat="42.566395" lon="1.093064">
        <ele>1498.2</ele>
        <time>1970-01-01T01:25:21.000Z</time>
      </trkpt>
      <trkpt lat="42.566544" lon="1.093176">
        <ele>1497</ele>
        <time>1970-01-01T01:25:23.000Z</time>
      </trkpt>
      <trkpt lat="42.566701" lon="1.093317">
        <ele>1495.8</ele>
        <time>1970-01-01T01:25:25.000Z</time>
      </trkpt>
      <trkpt lat="42.56686" lon="1.093474">
        <ele>1494.2</ele>
        <time>1970-01-01T01:25:27.000Z</time>
      </trkpt>
      <trkpt lat="42.567013" lon="1.093652">
        <ele>1493.2</ele>
        <time>1970-01-01T01:25:29.000Z</time>
      </trkpt>
      <trkpt lat="42.567161" lon="1.093838">
        <ele>1492</ele>
        <time>1970-01-01T01:25:31.000Z</time>
      </trkpt>
      <trkpt lat="42.567373" lon="1.09411">
        <ele>1491</ele>
        <time>1970-01-01T01:25:34.000Z</time>
      </trkpt>
      <trkpt lat="42.567522" lon="1.094165">
        <ele>1490</ele>
        <time>1970-01-01T01:25:36.000Z</time>
      </trkpt>
      <trkpt lat="42.567673" lon="1.094029">
        <ele>1488.6</ele>
        <time>1970-01-01T01:25:38.000Z</time>
      </trkpt>
      <trkpt lat="42.567835" lon="1.093807">
        <ele>1486.8</ele>
        <time>1970-01-01T01:25:40.000Z</time>
      </trkpt>
      <trkpt lat="42.568007" lon="1.093577">
        <ele>1484.8</ele>
        <time>1970-01-01T01:25:42.000Z</time>
      </trkpt>
      <trkpt lat="42.568095" lon="1.093461">
        <ele>1484</ele>
        <time>1970-01-01T01:25:43.000Z</time>
      </trkpt>
      <trkpt lat="42.568188" lon="1.093353">
        <ele>1483.2</ele>
        <time>1970-01-01T01:25:44.000Z</time>
      </trkpt>
      <trkpt lat="42.568284" lon="1.09325">
        <ele>1482</ele>
        <time>1970-01-01T01:25:45.000Z</time>
      </trkpt>
      <trkpt lat="42.568387" lon="1.093154">
        <ele>1480.8</ele>
        <time>1970-01-01T01:25:46.000Z</time>
      </trkpt>
      <trkpt lat="42.568493" lon="1.093063">
        <ele>1479.8</ele>
        <time>1970-01-01T01:25:47.000Z</time>
      </trkpt>
      <trkpt lat="42.568703" lon="1.09288">
        <ele>1478.2</ele>
        <time>1970-01-01T01:25:49.000Z</time>
      </trkpt>
      <trkpt lat="42.568896" lon="1.092676">
        <ele>1477.2</ele>
        <time>1970-01-01T01:25:51.000Z</time>
      </trkpt>
      <trkpt lat="42.56916" lon="1.092347">
        <ele>1475.4</ele>
        <time>1970-01-01T01:25:54.000Z</time>
      </trkpt>
      <trkpt lat="42.569323" lon="1.092116">
        <ele>1474.2</ele>
        <time>1970-01-01T01:25:56.000Z</time>
      </trkpt>
      <trkpt lat="42.569477" lon="1.091874">
        <ele>1473.4</ele>
        <time>1970-01-01T01:25:58.000Z</time>
      </trkpt>
      <trkpt lat="42.569645" lon="1.091654">
        <ele>1472.2</ele>
        <time>1970-01-01T01:26:00.000Z</time>
      </trkpt>
      <trkpt lat="42.56974" lon="1.091559">
        <ele>1471.6</ele>
        <time>1970-01-01T01:26:01.000Z</time>
      </trkpt>
      <trkpt lat="42.56984" lon="1.091475">
        <ele>1471</ele>
        <time>1970-01-01T01:26:02.000Z</time>
      </trkpt>
      <trkpt lat="42.570054" lon="1.091346">
        <ele>1469.4</ele>
        <time>1970-01-01T01:26:04.000Z</time>
      </trkpt>
      <trkpt lat="42.570283" lon="1.091278">
        <ele>1467.8</ele>
        <time>1970-01-01T01:26:06.000Z</time>
      </trkpt>
      <trkpt lat="42.570517" lon="1.091305">
        <ele>1466.4</ele>
        <time>1970-01-01T01:26:08.000Z</time>
      </trkpt>
      <trkpt lat="42.570635" lon="1.091341">
        <ele>1466</ele>
        <time>1970-01-01T01:26:09.000Z</time>
      </trkpt>
      <trkpt lat="42.57075" lon="1.091371">
        <ele>1465.4</ele>
        <time>1970-01-01T01:26:10.000Z</time>
      </trkpt>
      <trkpt lat="42.570858" lon="1.091362">
        <ele>1464.6</ele>
        <time>1970-01-01T01:26:11.000Z</time>
      </trkpt>
      <trkpt lat="42.570962" lon="1.091314">
        <ele>1463.4</ele>
        <time>1970-01-01T01:26:12.000Z</time>
      </trkpt>
      <trkpt lat="42.571044" lon="1.091215">
        <ele>1462.2</ele>
        <time>1970-01-01T01:26:13.000Z</time>
      </trkpt>
      <trkpt lat="42.57112" lon="1.091095">
        <ele>1460.8</ele>
        <time>1970-01-01T01:26:14.000Z</time>
      </trkpt>
      <trkpt lat="42.571192" lon="1.090958">
        <ele>1459.4</ele>
        <time>1970-01-01T01:26:15.000Z</time>
      </trkpt>
      <trkpt lat="42.571266" lon="1.090816">
        <ele>1458</ele>
        <time>1970-01-01T01:26:16.000Z</time>
      </trkpt>
      <trkpt lat="42.571343" lon="1.090669">
        <ele>1456.6</ele>
        <time>1970-01-01T01:26:17.000Z</time>
      </trkpt>
      <trkpt lat="42.571423" lon="1.090521">
        <ele>1455.2</ele>
        <time>1970-01-01T01:26:18.000Z</time>
      </trkpt>
      <trkpt lat="42.571501" lon="1.090367">
        <ele>1454</ele>
        <time>1970-01-01T01:26:19.000Z</time>
      </trkpt>
      <trkpt lat="42.571579" lon="1.090209">
        <ele>1452</ele>
        <time>1970-01-01T01:26:20.000Z</time>
      </trkpt>
      <trkpt lat="42.571663" lon="1.090051">
        <ele>1450.2</ele>
        <time>1970-01-01T01:26:21.000Z</time>
      </trkpt>
      <trkpt lat="42.571754" lon="1.089897">
        <ele>1449</ele>
        <time>1970-01-01T01:26:22.000Z</time>
      </trkpt>
      <trkpt lat="42.571855" lon="1.089749">
        <ele>1447.6</ele>
        <time>1970-01-01T01:26:23.000Z</time>
      </trkpt>
      <trkpt lat="42.57196" lon="1.089605">
        <ele>1446.6</ele>
        <time>1970-01-01T01:26:24.000Z</time>
      </trkpt>
      <trkpt lat="42.572067" lon="1.089469">
        <ele>1445</ele>
        <time>1970-01-01T01:26:25.000Z</time>
      </trkpt>
      <trkpt lat="42.572176" lon="1.089348">
        <ele>1443.2</ele>
        <time>1970-01-01T01:26:26.000Z</time>
      </trkpt>
      <trkpt lat="42.572281" lon="1.08923">
        <ele>1441.8</ele>
        <time>1970-01-01T01:26:27.000Z</time>
      </trkpt>
      <trkpt lat="42.572371" lon="1.089094">
        <ele>1440.6</ele>
        <time>1970-01-01T01:26:28.000Z</time>
      </trkpt>
      <trkpt lat="42.572442" lon="1.088942">
        <ele>1438.8</ele>
        <time>1970-01-01T01:26:29.000Z</time>
      </trkpt>
      <trkpt lat="42.572501" lon="1.088784">
        <ele>1437.8</ele>
        <time>1970-01-01T01:26:30.000Z</time>
      </trkpt>
      <trkpt lat="42.572563" lon="1.088625">
        <ele>1436.4</ele>
        <time>1970-01-01T01:26:31.000Z</time>
      </trkpt>
      <trkpt lat="42.572627" lon="1.088464">
        <ele>1435.2</ele>
        <time>1970-01-01T01:26:32.000Z</time>
      </trkpt>
      <trkpt lat="42.572699" lon="1.088304">
        <ele>1433.6</ele>
        <time>1970-01-01T01:26:33.000Z</time>
      </trkpt>
      <trkpt lat="42.572775" lon="1.088146">
        <ele>1432.4</ele>
        <time>1970-01-01T01:26:34.000Z</time>
      </trkpt>
      <trkpt lat="42.572851" lon="1.087986">
        <ele>1431.4</ele>
        <time>1970-01-01T01:26:35.000Z</time>
      </trkpt>
      <trkpt lat="42.572918" lon="1.087818">
        <ele>1430.2</ele>
        <time>1970-01-01T01:26:36.000Z</time>
      </trkpt>
      <trkpt lat="42.572969" lon="1.087638">
        <ele>1428.4</ele>
        <time>1970-01-01T01:26:37.000Z</time>
      </trkpt>
      <trkpt lat="42.573016" lon="1.087457">
        <ele>1426.4</ele>
        <time>1970-01-01T01:26:38.000Z</time>
      </trkpt>
      <trkpt lat="42.573071" lon="1.087291">
        <ele>1424.8</ele>
        <time>1970-01-01T01:26:39.000Z</time>
      </trkpt>
      <trkpt lat="42.573132" lon="1.087147">
        <ele>1423.2</ele>
        <time>1970-01-01T01:26:40.000Z</time>
      </trkpt>
      <trkpt lat="42.57319" lon="1.087018">
        <ele>1421.4</ele>
        <time>1970-01-01T01:26:41.000Z</time>
      </trkpt>
      <trkpt lat="42.573243" lon="1.0869">
        <ele>1420</ele>
        <time>1970-01-01T01:26:42.000Z</time>
      </trkpt>
      <trkpt lat="42.573293" lon="1.086788">
        <ele>1418.8</ele>
        <time>1970-01-01T01:26:43.000Z</time>
      </trkpt>
      <trkpt lat="42.573351" lon="1.086682">
        <ele>1417.4</ele>
        <time>1970-01-01T01:26:44.000Z</time>
      </trkpt>
      <trkpt lat="42.57342" lon="1.086582">
        <ele>1415.8</ele>
        <time>1970-01-01T01:26:45.000Z</time>
      </trkpt>
      <trkpt lat="42.573496" lon="1.086484">
        <ele>1414.8</ele>
        <time>1970-01-01T01:26:46.000Z</time>
      </trkpt>
      <trkpt lat="42.57357" lon="1.086377">
        <ele>1413.6</ele>
        <time>1970-01-01T01:26:47.000Z</time>
      </trkpt>
      <trkpt lat="42.57364" lon="1.086263">
        <ele>1412.4</ele>
        <time>1970-01-01T01:26:48.000Z</time>
      </trkpt>
      <trkpt lat="42.573695" lon="1.086146">
        <ele>1411.2</ele>
        <time>1970-01-01T01:26:49.000Z</time>
      </trkpt>
      <trkpt lat="42.573738" lon="1.086039">
        <ele>1409.8</ele>
        <time>1970-01-01T01:26:50.000Z</time>
      </trkpt>
      <trkpt lat="42.573774" lon="1.085944">
        <ele>1408.8</ele>
        <time>1970-01-01T01:26:51.000Z</time>
      </trkpt>
      <trkpt lat="42.573866" lon="1.085863">
        <ele>1407</ele>
        <time>1970-01-01T01:26:53.000Z</time>
      </trkpt>
      <trkpt lat="42.573946" lon="1.085903">
        <ele>1405.6</ele>
        <time>1970-01-01T01:26:55.000Z</time>
      </trkpt>
      <trkpt lat="42.574027" lon="1.086014">
        <ele>1404.6</ele>
        <time>1970-01-01T01:26:58.000Z</time>
      </trkpt>
      <trkpt lat="42.57405" lon="1.086055">
        <ele>1404.4</ele>
        <time>1970-01-01T01:26:59.000Z</time>
      </trkpt>
      <trkpt lat="42.574138" lon="1.086227">
        <ele>1403.6</ele>
        <time>1970-01-01T01:27:03.000Z</time>
      </trkpt>
      <trkpt lat="42.574161" lon="1.086279">
        <ele>1403.4</ele>
        <time>1970-01-01T01:27:04.000Z</time>
      </trkpt>
      <trkpt lat="42.574234" lon="1.086462">
        <ele>1403</ele>
        <time>1970-01-01T01:27:07.000Z</time>
      </trkpt>
      <trkpt lat="42.574336" lon="1.086647">
        <ele>1402.8</ele>
        <time>1970-01-01T01:27:10.000Z</time>
      </trkpt>
      <trkpt lat="42.574386" lon="1.086699">
        <ele>1402.4</ele>
        <time>1970-01-01T01:27:11.000Z</time>
      </trkpt>
      <trkpt lat="42.574585" lon="1.086789">
        <ele>1400.8</ele>
        <time>1970-01-01T01:27:14.000Z</time>
      </trkpt>
      <trkpt lat="42.574865" lon="1.08671">
        <ele>1400.2</ele>
        <time>1970-01-01T01:27:18.000Z</time>
      </trkpt>
      <trkpt lat="42.575389" lon="1.086408">
        <ele>1402.2</ele>
        <time>1970-01-01T01:27:30.000Z</time>
      </trkpt>
      <trkpt lat="42.575427" lon="1.086389">
        <ele>1402.4</ele>
        <time>1970-01-01T01:27:31.000Z</time>
      </trkpt>
      <trkpt lat="42.575503" lon="1.086341">
        <ele>1402.6</ele>
        <time>1970-01-01T01:27:33.000Z</time>
      </trkpt>
      <trkpt lat="42.575578" lon="1.086282">
        <ele>1402.6</ele>
        <time>1970-01-01T01:27:35.000Z</time>
      </trkpt>
      <trkpt lat="42.576071" lon="1.086108">
        <ele>1401.4</ele>
        <time>1970-01-01T01:27:45.000Z</time>
      </trkpt>
      <trkpt lat="42.576273" lon="1.086076">
        <ele>1400.2</ele>
        <time>1970-01-01T01:27:48.000Z</time>
      </trkpt>
      <trkpt lat="42.576339" lon="1.086068">
        <ele>1399.2</ele>
        <time>1970-01-01T01:27:49.000Z</time>
      </trkpt>
      <trkpt lat="42.576473" lon="1.08605">
        <ele>1397.8</ele>
        <time>1970-01-01T01:27:51.000Z</time>
      </trkpt>
      <trkpt lat="42.576546" lon="1.086033">
        <ele>1397.2</ele>
        <time>1970-01-01T01:27:52.000Z</time>
      </trkpt>
      <trkpt lat="42.576624" lon="1.086005">
        <ele>1396.2</ele>
        <time>1970-01-01T01:27:53.000Z</time>
      </trkpt>
      <trkpt lat="42.576786" lon="1.08592">
        <ele>1394.6</ele>
        <time>1970-01-01T01:27:55.000Z</time>
      </trkpt>
      <trkpt lat="42.576869" lon="1.085869">
        <ele>1394.2</ele>
        <time>1970-01-01T01:27:56.000Z</time>
      </trkpt>
      <trkpt lat="42.576953" lon="1.085815">
        <ele>1393.6</ele>
        <time>1970-01-01T01:27:57.000Z</time>
      </trkpt>
      <trkpt lat="42.5772" lon="1.085622">
        <ele>1392.4</ele>
        <time>1970-01-01T01:28:00.000Z</time>
      </trkpt>
      <trkpt lat="42.577452" lon="1.085425">
        <ele>1391</ele>
        <time>1970-01-01T01:28:03.000Z</time>
      </trkpt>
      <trkpt lat="42.577615" lon="1.085317">
        <ele>1390.2</ele>
        <time>1970-01-01T01:28:05.000Z</time>
      </trkpt>
      <trkpt lat="42.577683" lon="1.085291">
        <ele>1389.4</ele>
        <time>1970-01-01T01:28:06.000Z</time>
      </trkpt>
      <trkpt lat="42.577734" lon="1.085289">
        <ele>1388.2</ele>
        <time>1970-01-01T01:28:07.000Z</time>
      </trkpt>
      <trkpt lat="42.577802" lon="1.08535">
        <ele>1387.2</ele>
        <time>1970-01-01T01:28:09.000Z</time>
      </trkpt>
      <trkpt lat="42.577824" lon="1.085451">
        <ele>1385.8</ele>
        <time>1970-01-01T01:28:11.000Z</time>
      </trkpt>
      <trkpt lat="42.577766" lon="1.0856">
        <ele>1384.6</ele>
        <time>1970-01-01T01:28:14.000Z</time>
      </trkpt>
      <trkpt lat="42.577674" lon="1.085675">
        <ele>1383.6</ele>
        <time>1970-01-01T01:28:16.000Z</time>
      </trkpt>
      <trkpt lat="42.577525" lon="1.085781">
        <ele>1382.2</ele>
        <time>1970-01-01T01:28:19.000Z</time>
      </trkpt>
      <trkpt lat="42.577361" lon="1.085894">
        <ele>1381</ele>
        <time>1970-01-01T01:28:23.000Z</time>
      </trkpt>
      <trkpt lat="42.577273" lon="1.085979">
        <ele>1379.8</ele>
        <time>1970-01-01T01:28:26.000Z</time>
      </trkpt>
      <trkpt lat="42.577223" lon="1.086079">
        <ele>1379.2</ele>
        <time>1970-01-01T01:28:31.000Z</time>
      </trkpt>
      <trkpt lat="42.577146" lon="1.086152">
        <ele>1378.6</ele>
        <time>1970-01-01T01:31:28.000Z</time>
      </trkpt>
      <trkpt lat="42.576843" lon="1.086577">
        <ele>1377.4</ele>
        <time>1970-01-01T01:31:40.000Z</time>
      </trkpt>
      <trkpt lat="42.576684" lon="1.086771">
        <ele>1376.2</ele>
        <time>1970-01-01T01:31:44.000Z</time>
      </trkpt>
      <trkpt lat="42.576623" lon="1.086846">
        <ele>1375</ele>
        <time>1970-01-01T01:31:46.000Z</time>
      </trkpt>
      <trkpt lat="42.576594" lon="1.086887">
        <ele>1374.8</ele>
        <time>1970-01-01T01:31:47.000Z</time>
      </trkpt>
      <trkpt lat="42.576522" lon="1.086977">
        <ele>1374</ele>
        <time>1970-01-01T01:31:49.000Z</time>
      </trkpt>
      <trkpt lat="42.576402" lon="1.087138">
        <ele>1373.2</ele>
        <time>1970-01-01T01:31:52.000Z</time>
      </trkpt>
      <trkpt lat="42.576314" lon="1.087251">
        <ele>1372.8</ele>
        <time>1970-01-01T01:31:54.000Z</time>
      </trkpt>
      <trkpt lat="42.576132" lon="1.087452">
        <ele>1371.6</ele>
        <time>1970-01-01T01:31:59.000Z</time>
      </trkpt>
      <trkpt lat="42.575939" lon="1.087704">
        <ele>1370.8</ele>
        <time>1970-01-01T01:32:06.000Z</time>
      </trkpt>
      <trkpt lat="42.57584" lon="1.087911">
        <ele>1369.8</ele>
        <time>1970-01-01T01:32:11.000Z</time>
      </trkpt>
      <trkpt lat="42.575768" lon="1.088148">
        <ele>1368.8</ele>
        <time>1970-01-01T01:32:18.000Z</time>
      </trkpt>
      <trkpt lat="42.57574" lon="1.088523">
        <ele>1367.8</ele>
        <time>1970-01-01T01:32:31.000Z</time>
      </trkpt>
      <trkpt lat="42.575818" lon="1.08887">
        <ele>1367</ele>
        <time>1970-01-01T01:32:41.000Z</time>
      </trkpt>
      <trkpt lat="42.575834" lon="1.088974">
        <ele>1366.8</ele>
        <time>1970-01-01T01:32:47.000Z</time>
      </trkpt>
      <trkpt lat="42.575865" lon="1.089024">
        <ele>1366.8</ele>
        <time>1970-01-01T01:32:58.000Z</time>
      </trkpt>
      <trkpt lat="42.576044" lon="1.089204">
        <ele>1368.2</ele>
        <time>1970-01-01T01:33:14.000Z</time>
      </trkpt>
      <trkpt lat="42.576056" lon="1.089235">
        <ele>1368.4</ele>
        <time>1970-01-01T01:33:19.000Z</time>
      </trkpt>
      <trkpt lat="42.576032" lon="1.089148">
        <ele>1368.2</ele>
        <time>1970-01-01T01:33:32.000Z</time>
      </trkpt>
      <trkpt lat="42.576025" lon="1.089138">
        <ele>1368</ele>
        <time>1970-01-01T01:33:34.000Z</time>
      </trkpt>
      <trkpt lat="42.575985" lon="1.089081">
        <ele>1367.6</ele>
        <time>1970-01-01T01:33:41.000Z</time>
      </trkpt>
      <trkpt lat="42.575872" lon="1.089026">
        <ele>1366.8</ele>
        <time>1970-01-01T01:33:47.000Z</time>
      </trkpt>
      <trkpt lat="42.575857" lon="1.089036">
        <ele>1366.8</ele>
        <time>1970-01-01T01:33:48.000Z</time>
      </trkpt>
      <trkpt lat="42.575772" lon="1.089182">
        <ele>1366.4</ele>
        <time>1970-01-01T01:33:57.000Z</time>
      </trkpt>
      <trkpt lat="42.575779" lon="1.089111">
        <ele>1372.4</ele>
        <time>1970-01-01T02:34:15.000Z</time>
      </trkpt>
      <trkpt lat="42.575822" lon="1.088854">
        <ele>1372.8</ele>
        <time>1970-01-01T02:34:23.000Z</time>
      </trkpt>
      <trkpt lat="42.575767" lon="1.08859">
        <ele>1373.4</ele>
        <time>1970-01-01T02:34:30.000Z</time>
      </trkpt>
      <trkpt lat="42.575702" lon="1.088302">
        <ele>1374</ele>
        <time>1970-01-01T02:34:42.000Z</time>
      </trkpt>
      <trkpt lat="42.57574" lon="1.088381">
        <ele>1375</ele>
        <time>1970-01-01T02:48:08.000Z</time>
      </trkpt>
      <trkpt lat="42.575727" lon="1.08842">
        <ele>1375</ele>
        <time>1970-01-01T02:48:10.000Z</time>
      </trkpt>
      <trkpt lat="42.575708" lon="1.088733">
        <ele>1374.4</ele>
        <time>1970-01-01T02:48:18.000Z</time>
      </trkpt>
      <trkpt lat="42.575713" lon="1.088869">
        <ele>1374</ele>
        <time>1970-01-01T02:48:21.000Z</time>
      </trkpt>
      <trkpt lat="42.575718" lon="1.088882">
        <ele>1374</ele>
        <time>1970-01-01T02:48:23.000Z</time>
      </trkpt>
      <trkpt lat="42.575745" lon="1.088968">
        <ele>1373.6</ele>
        <time>1970-01-01T02:48:29.000Z</time>
      </trkpt>
      <trkpt lat="42.575724" lon="1.089038">
        <ele>1373.4</ele>
        <time>1970-01-01T02:48:31.000Z</time>
      </trkpt>
      <trkpt lat="42.575519" lon="1.089505">
        <ele>1372.4</ele>
        <time>1970-01-01T02:48:42.000Z</time>
      </trkpt>
      <trkpt lat="42.575316" lon="1.089943">
        <ele>1371.4</ele>
        <time>1970-01-01T02:48:50.000Z</time>
      </trkpt>
      <trkpt lat="42.575294" lon="1.089995">
        <ele>1371.4</ele>
        <time>1970-01-01T02:48:51.000Z</time>
      </trkpt>
      <trkpt lat="42.575104" lon="1.09043">
        <ele>1370.2</ele>
        <time>1970-01-01T02:49:00.000Z</time>
      </trkpt>
      <trkpt lat="42.574937" lon="1.090794">
        <ele>1369.2</ele>
        <time>1970-01-01T02:49:08.000Z</time>
      </trkpt>
      <trkpt lat="42.574708" lon="1.091279">
        <ele>1368.2</ele>
        <time>1970-01-01T02:49:17.000Z</time>
      </trkpt>
      <trkpt lat="42.574552" lon="1.091616">
        <ele>1367</ele>
        <time>1970-01-01T02:49:23.000Z</time>
      </trkpt>
      <trkpt lat="42.574316" lon="1.092132">
        <ele>1366</ele>
        <time>1970-01-01T02:49:31.000Z</time>
      </trkpt>
      <trkpt lat="42.574031" lon="1.092787">
        <ele>1365.4</ele>
        <time>1970-01-01T02:49:41.000Z</time>
      </trkpt>
      <trkpt lat="42.573969" lon="1.092904">
        <ele>1365.2</ele>
        <time>1970-01-01T02:49:43.000Z</time>
      </trkpt>
      <trkpt lat="42.57389" lon="1.092998">
        <ele>1365.2</ele>
        <time>1970-01-01T02:49:45.000Z</time>
      </trkpt>
      <trkpt lat="42.573736" lon="1.093196">
        <ele>1365.2</ele>
        <time>1970-01-01T02:49:49.000Z</time>
      </trkpt>
      <trkpt lat="42.573455" lon="1.093766">
        <ele>1364.6</ele>
        <time>1970-01-01T02:49:58.000Z</time>
      </trkpt>
      <trkpt lat="42.573393" lon="1.094162">
        <ele>1364.4</ele>
        <time>1970-01-01T02:50:03.000Z</time>
      </trkpt>
      <trkpt lat="42.573381" lon="1.094498">
        <ele>1364</ele>
        <time>1970-01-01T02:50:07.000Z</time>
      </trkpt>
      <trkpt lat="42.57331" lon="1.095086">
        <ele>1363.6</ele>
        <time>1970-01-01T02:50:14.000Z</time>
      </trkpt>
      <trkpt lat="42.573114" lon="1.09561">
        <ele>1363</ele>
        <time>1970-01-01T02:50:21.000Z</time>
      </trkpt>
      <trkpt lat="42.572894" lon="1.096159">
        <ele>1361.8</ele>
        <time>1970-01-01T02:50:28.000Z</time>
      </trkpt>
      <trkpt lat="42.572781" lon="1.096531">
        <ele>1360.4</ele>
        <time>1970-01-01T02:50:32.000Z</time>
      </trkpt>
      <trkpt lat="42.57269" lon="1.096844">
        <ele>1359</ele>
        <time>1970-01-01T02:50:35.000Z</time>
      </trkpt>
      <trkpt lat="42.57266" lon="1.096953">
        <ele>1358.6</ele>
        <time>1970-01-01T02:50:36.000Z</time>
      </trkpt>
      <trkpt lat="42.572597" lon="1.097178">
        <ele>1357.4</ele>
        <time>1970-01-01T02:50:38.000Z</time>
      </trkpt>
      <trkpt lat="42.572522" lon="1.097403">
        <ele>1356.2</ele>
        <time>1970-01-01T02:50:40.000Z</time>
      </trkpt>
      <trkpt lat="42.57238" lon="1.09773">
        <ele>1355</ele>
        <time>1970-01-01T02:50:43.000Z</time>
      </trkpt>
      <trkpt lat="42.572287" lon="1.097936">
        <ele>1354</ele>
        <time>1970-01-01T02:50:45.000Z</time>
      </trkpt>
      <trkpt lat="42.572151" lon="1.098261">
        <ele>1352.4</ele>
        <time>1970-01-01T02:50:48.000Z</time>
      </trkpt>
      <trkpt lat="42.572055" lon="1.098482">
        <ele>1351.4</ele>
        <time>1970-01-01T02:50:50.000Z</time>
      </trkpt>
      <trkpt lat="42.57196" lon="1.098703">
        <ele>1350.4</ele>
        <time>1970-01-01T02:50:52.000Z</time>
      </trkpt>
      <trkpt lat="42.571808" lon="1.099009">
        <ele>1349.2</ele>
        <time>1970-01-01T02:50:55.000Z</time>
      </trkpt>
      <trkpt lat="42.571747" lon="1.099102">
        <ele>1348.6</ele>
        <time>1970-01-01T02:50:56.000Z</time>
      </trkpt>
      <trkpt lat="42.571677" lon="1.099187">
        <ele>1348</ele>
        <time>1970-01-01T02:50:57.000Z</time>
      </trkpt>
      <trkpt lat="42.571458" lon="1.099437">
        <ele>1346.8</ele>
        <time>1970-01-01T02:51:00.000Z</time>
      </trkpt>
      <trkpt lat="42.571341" lon="1.099634">
        <ele>1345.8</ele>
        <time>1970-01-01T02:51:02.000Z</time>
      </trkpt>
      <trkpt lat="42.571247" lon="1.099994">
        <ele>1344.6</ele>
        <time>1970-01-01T02:51:05.000Z</time>
      </trkpt>
      <trkpt lat="42.571203" lon="1.100256">
        <ele>1343.2</ele>
        <time>1970-01-01T02:51:07.000Z</time>
      </trkpt>
      <trkpt lat="42.571168" lon="1.100524">
        <ele>1342.2</ele>
        <time>1970-01-01T02:51:09.000Z</time>
      </trkpt>
      <trkpt lat="42.571162" lon="1.10066">
        <ele>1341.8</ele>
        <time>1970-01-01T02:51:10.000Z</time>
      </trkpt>
      <trkpt lat="42.5712" lon="1.100917">
        <ele>1341.2</ele>
        <time>1970-01-01T02:51:12.000Z</time>
      </trkpt>
      <trkpt lat="42.571433" lon="1.101698">
        <ele>1340.6</ele>
        <time>1970-01-01T02:51:19.000Z</time>
      </trkpt>
      <trkpt lat="42.571397" lon="1.102127">
        <ele>1340</ele>
        <time>1970-01-01T02:51:23.000Z</time>
      </trkpt>
      <trkpt lat="42.57133" lon="1.10232">
        <ele>1340</ele>
        <time>1970-01-01T02:51:25.000Z</time>
      </trkpt>
      <trkpt lat="42.571094" lon="1.102996">
        <ele>1339.2</ele>
        <time>1970-01-01T02:51:32.000Z</time>
      </trkpt>
      <trkpt lat="42.571037" lon="1.103191">
        <ele>1339</ele>
        <time>1970-01-01T02:51:34.000Z</time>
      </trkpt>
      <trkpt lat="42.570845" lon="1.103972">
        <ele>1338.2</ele>
        <time>1970-01-01T02:51:42.000Z</time>
      </trkpt>
      <trkpt lat="42.570571" lon="1.104549">
        <ele>1338.2</ele>
        <time>1970-01-01T02:51:49.000Z</time>
      </trkpt>
      <trkpt lat="42.570281" lon="1.104805">
        <ele>1338.2</ele>
        <time>1970-01-01T02:51:54.000Z</time>
      </trkpt>
      <trkpt lat="42.570215" lon="1.104841">
        <ele>1338</ele>
        <time>1970-01-01T02:51:55.000Z</time>
      </trkpt>
      <trkpt lat="42.570026" lon="1.104979">
        <ele>1337.4</ele>
        <time>1970-01-01T02:51:58.000Z</time>
      </trkpt>
      <trkpt lat="42.569918" lon="1.105114">
        <ele>1336.8</ele>
        <time>1970-01-01T02:52:00.000Z</time>
      </trkpt>
      <trkpt lat="42.569752" lon="1.105671">
        <ele>1336</ele>
        <time>1970-01-01T02:52:06.000Z</time>
      </trkpt>
      <trkpt lat="42.569743" lon="1.105778">
        <ele>1335.8</ele>
        <time>1970-01-01T02:52:07.000Z</time>
      </trkpt>
      <trkpt lat="42.569717" lon="1.106226">
        <ele>1334.6</ele>
        <time>1970-01-01T02:52:11.000Z</time>
      </trkpt>
      <trkpt lat="42.569729" lon="1.10658">
        <ele>1333</ele>
        <time>1970-01-01T02:52:14.000Z</time>
      </trkpt>
      <trkpt lat="42.56973" lon="1.106704">
        <ele>1332.2</ele>
        <time>1970-01-01T02:52:15.000Z</time>
      </trkpt>
      <trkpt lat="42.569726" lon="1.106829">
        <ele>1331.4</ele>
        <time>1970-01-01T02:52:16.000Z</time>
      </trkpt>
      <trkpt lat="42.569701" lon="1.107078">
        <ele>1330.4</ele>
        <time>1970-01-01T02:52:18.000Z</time>
      </trkpt>
      <trkpt lat="42.569634" lon="1.10745">
        <ele>1328.8</ele>
        <time>1970-01-01T02:52:21.000Z</time>
      </trkpt>
      <trkpt lat="42.569583" lon="1.10783">
        <ele>1327.6</ele>
        <time>1970-01-01T02:52:24.000Z</time>
      </trkpt>
      <trkpt lat="42.569554" lon="1.108092">
        <ele>1326.2</ele>
        <time>1970-01-01T02:52:26.000Z</time>
      </trkpt>
      <trkpt lat="42.569505" lon="1.108493">
        <ele>1324.8</ele>
        <time>1970-01-01T02:52:29.000Z</time>
      </trkpt>
      <trkpt lat="42.569469" lon="1.108768">
        <ele>1323.6</ele>
        <time>1970-01-01T02:52:31.000Z</time>
      </trkpt>
      <trkpt lat="42.569414" lon="1.109186">
        <ele>1322.2</ele>
        <time>1970-01-01T02:52:34.000Z</time>
      </trkpt>
      <trkpt lat="42.56938" lon="1.109734">
        <ele>1320.8</ele>
        <time>1970-01-01T02:52:38.000Z</time>
      </trkpt>
      <trkpt lat="42.569394" lon="1.10997">
        <ele>1319.6</ele>
        <time>1970-01-01T02:52:40.000Z</time>
      </trkpt>
      <trkpt lat="42.569408" lon="1.110281">
        <ele>1318.6</ele>
        <time>1970-01-01T02:52:43.000Z</time>
      </trkpt>
      <trkpt lat="42.569407" lon="1.110374">
        <ele>1318.2</ele>
        <time>1970-01-01T02:52:44.000Z</time>
      </trkpt>
      <trkpt lat="42.56939" lon="1.110539">
        <ele>1317.6</ele>
        <time>1970-01-01T02:52:46.000Z</time>
      </trkpt>
      <trkpt lat="42.56935" lon="1.110901">
        <ele>1316.4</ele>
        <time>1970-01-01T02:52:51.000Z</time>
      </trkpt>
      <trkpt lat="42.569308" lon="1.111225">
        <ele>1315.6</ele>
        <time>1970-01-01T02:52:55.000Z</time>
      </trkpt>
      <trkpt lat="42.56925" lon="1.111564">
        <ele>1314.4</ele>
        <time>1970-01-01T02:52:59.000Z</time>
      </trkpt>
      <trkpt lat="42.569189" lon="1.11182">
        <ele>1313.2</ele>
        <time>1970-01-01T02:53:02.000Z</time>
      </trkpt>
      <trkpt lat="42.569138" lon="1.11202">
        <ele>1312.2</ele>
        <time>1970-01-01T02:53:05.000Z</time>
      </trkpt>
      <trkpt lat="42.569098" lon="1.112158">
        <ele>1311.2</ele>
        <time>1970-01-01T02:53:08.000Z</time>
      </trkpt>
      <trkpt lat="42.569091" lon="1.112236">
        <ele>1311</ele>
        <time>1970-01-01T02:53:12.000Z</time>
      </trkpt>
      <trkpt lat="42.569145" lon="1.112173">
        <ele>1310.8</ele>
        <time>1970-01-01T02:53:17.000Z</time>
      </trkpt>
      <trkpt lat="42.569251" lon="1.111714">
        <ele>1312.2</ele>
        <time>1970-01-01T02:53:29.000Z</time>
      </trkpt>
      <trkpt lat="42.569313" lon="1.111419">
        <ele>1313.4</ele>
        <time>1970-01-01T02:53:36.000Z</time>
      </trkpt>
      <trkpt lat="42.569361" lon="1.111061">
        <ele>1314.4</ele>
        <time>1970-01-01T02:53:44.000Z</time>
      </trkpt>
      <trkpt lat="42.569395" lon="1.110799">
        <ele>1315.6</ele>
        <time>1970-01-01T02:53:50.000Z</time>
      </trkpt>
      <trkpt lat="42.569424" lon="1.110589">
        <ele>1316.6</ele>
        <time>1970-01-01T02:53:55.000Z</time>
      </trkpt>
      <trkpt lat="42.569449" lon="1.110438">
        <ele>1317</ele>
        <time>1970-01-01T02:53:59.000Z</time>
      </trkpt>
      <trkpt lat="42.569511" lon="1.110477">
        <ele>1317.8</ele>
        <time>1970-01-01T02:54:03.000Z</time>
      </trkpt>
      <trkpt lat="42.569512" lon="1.110506">
        <ele>1318</ele>
        <time>1970-01-01T02:54:04.000Z</time>
      </trkpt>
      <trkpt lat="42.569471" lon="1.110737">
        <ele>1318.8</ele>
        <time>1970-01-01T02:54:11.000Z</time>
      </trkpt>
      <trkpt lat="42.56944" lon="1.11118">
        <ele>1319.8</ele>
        <time>1970-01-01T02:54:23.000Z</time>
      </trkpt>
      <trkpt lat="42.569442" lon="1.111493">
        <ele>1321</ele>
        <time>1970-01-01T02:54:32.000Z</time>
      </trkpt>
      <trkpt lat="42.569413" lon="1.111847">
        <ele>1322</ele>
        <time>1970-01-01T02:54:42.000Z</time>
      </trkpt>
      <trkpt lat="42.569416" lon="1.112152">
        <ele>1323.2</ele>
        <time>1970-01-01T02:54:51.000Z</time>
      </trkpt>
      <trkpt lat="42.569447" lon="1.112376">
        <ele>1324.2</ele>
        <time>1970-01-01T02:54:58.000Z</time>
      </trkpt>
      <trkpt lat="42.569485" lon="1.112559">
        <ele>1325.2</ele>
        <time>1970-01-01T02:55:04.000Z</time>
      </trkpt>
      <trkpt lat="42.569574" lon="1.112758">
        <ele>1326.2</ele>
        <time>1970-01-01T02:55:11.000Z</time>
      </trkpt>
      <trkpt lat="42.569721" lon="1.112942">
        <ele>1327.4</ele>
        <time>1970-01-01T02:55:19.000Z</time>
      </trkpt>
      <trkpt lat="42.56993" lon="1.113243">
        <ele>1328.4</ele>
        <time>1970-01-01T02:55:31.000Z</time>
      </trkpt>
      <trkpt lat="42.570089" lon="1.113544">
        <ele>1329.4</ele>
        <time>1970-01-01T02:55:42.000Z</time>
      </trkpt>
      <trkpt lat="42.570155" lon="1.113718">
        <ele>1330.4</ele>
        <time>1970-01-01T02:55:48.000Z</time>
      </trkpt>
      <trkpt lat="42.570165" lon="1.113748">
        <ele>1330.4</ele>
        <time>1970-01-01T02:55:49.000Z</time>
      </trkpt>
      <trkpt lat="42.570226" lon="1.114003">
        <ele>1331.6</ele>
        <time>1970-01-01T02:55:57.000Z</time>
      </trkpt>
      <trkpt lat="42.570257" lon="1.114222">
        <ele>1332.6</ele>
        <time>1970-01-01T02:56:04.000Z</time>
      </trkpt>
      <trkpt lat="42.570282" lon="1.114433">
        <ele>1333.8</ele>
        <time>1970-01-01T02:56:11.000Z</time>
      </trkpt>
      <trkpt lat="42.570312" lon="1.114735">
        <ele>1335</ele>
        <time>1970-01-01T02:56:21.000Z</time>
      </trkpt>
      <trkpt lat="42.570363" lon="1.114901">
        <ele>1336.2</ele>
        <time>1970-01-01T02:56:27.000Z</time>
      </trkpt>
      <trkpt lat="42.57042" lon="1.114936">
        <ele>1337</ele>
        <time>1970-01-01T02:56:30.000Z</time>
      </trkpt>
      <trkpt lat="42.570457" lon="1.114903">
        <ele>1337.4</ele>
        <time>1970-01-01T02:56:32.000Z</time>
      </trkpt>
      <trkpt lat="42.570489" lon="1.114833">
        <ele>1337.8</ele>
        <time>1970-01-01T02:56:35.000Z</time>
      </trkpt>
      <trkpt lat="42.570478" lon="1.114713">
        <ele>1338.4</ele>
        <time>1970-01-01T02:56:39.000Z</time>
      </trkpt>
      <trkpt lat="42.570408" lon="1.114527">
        <ele>1339.4</ele>
        <time>1970-01-01T02:56:46.000Z</time>
      </trkpt>
      <trkpt lat="42.570403" lon="1.114201">
        <ele>1340.6</ele>
        <time>1970-01-01T02:56:58.000Z</time>
      </trkpt>
      <trkpt lat="42.570414" lon="1.114044">
        <ele>1341.6</ele>
        <time>1970-01-01T02:57:04.000Z</time>
      </trkpt>
      <trkpt lat="42.570413" lon="1.113855">
        <ele>1342.8</ele>
        <time>1970-01-01T02:57:11.000Z</time>
      </trkpt>
      <trkpt lat="42.570369" lon="1.113624">
        <ele>1344.4</ele>
        <time>1970-01-01T02:57:20.000Z</time>
      </trkpt>
      <trkpt lat="42.57033" lon="1.113423">
        <ele>1345.6</ele>
        <time>1970-01-01T02:57:28.000Z</time>
      </trkpt>
      <trkpt lat="42.570292" lon="1.113244">
        <ele>1346.6</ele>
        <time>1970-01-01T02:57:35.000Z</time>
      </trkpt>
      <trkpt lat="42.570249" lon="1.1131">
        <ele>1347.6</ele>
        <time>1970-01-01T02:57:41.000Z</time>
      </trkpt>
      <trkpt lat="42.570201" lon="1.112919">
        <ele>1348.8</ele>
        <time>1970-01-01T02:57:48.000Z</time>
      </trkpt>
      <trkpt lat="42.570143" lon="1.112712">
        <ele>1350</ele>
        <time>1970-01-01T02:57:56.000Z</time>
      </trkpt>
      <trkpt lat="42.5701" lon="1.112555">
        <ele>1351</ele>
        <time>1970-01-01T02:58:02.000Z</time>
      </trkpt>
      <trkpt lat="42.570088" lon="1.112386">
        <ele>1352</ele>
        <time>1970-01-01T02:58:08.000Z</time>
      </trkpt>
      <trkpt lat="42.570101" lon="1.112365">
        <ele>1352.2</ele>
        <time>1970-01-01T02:58:09.000Z</time>
      </trkpt>
      <trkpt lat="42.570201" lon="1.112395">
        <ele>1353.4</ele>
        <time>1970-01-01T02:58:15.000Z</time>
      </trkpt>
      <trkpt lat="42.570225" lon="1.112485">
        <ele>1353.6</ele>
        <time>1970-01-01T02:58:18.000Z</time>
      </trkpt>
      <trkpt lat="42.570246" lon="1.112607">
        <ele>1354.4</ele>
        <time>1970-01-01T02:58:22.000Z</time>
      </trkpt>
      <trkpt lat="42.570316" lon="1.112873">
        <ele>1355.4</ele>
        <time>1970-01-01T02:58:31.000Z</time>
      </trkpt>
      <trkpt lat="42.570409" lon="1.113079">
        <ele>1356.6</ele>
        <time>1970-01-01T02:58:39.000Z</time>
      </trkpt>
      <trkpt lat="42.570498" lon="1.113273">
        <ele>1357.8</ele>
        <time>1970-01-01T02:58:47.000Z</time>
      </trkpt>
      <trkpt lat="42.570576" lon="1.113461">
        <ele>1359</ele>
        <time>1970-01-01T02:58:55.000Z</time>
      </trkpt>
      <trkpt lat="42.570654" lon="1.113613">
        <ele>1360</ele>
        <time>1970-01-01T02:59:02.000Z</time>
      </trkpt>
      <trkpt lat="42.570749" lon="1.113799">
        <ele>1361</ele>
        <time>1970-01-01T02:59:10.000Z</time>
      </trkpt>
      <trkpt lat="42.570816" lon="1.113947">
        <ele>1362</ele>
        <time>1970-01-01T02:59:16.000Z</time>
      </trkpt>
      <trkpt lat="42.570907" lon="1.114209">
        <ele>1363.4</ele>
        <time>1970-01-01T02:59:26.000Z</time>
      </trkpt>
      <trkpt lat="42.570972" lon="1.114364">
        <ele>1364.6</ele>
        <time>1970-01-01T02:59:32.000Z</time>
      </trkpt>
      <trkpt lat="42.571057" lon="1.114572">
        <ele>1365.6</ele>
        <time>1970-01-01T02:59:40.000Z</time>
      </trkpt>
      <trkpt lat="42.571135" lon="1.114795">
        <ele>1366.6</ele>
        <time>1970-01-01T02:59:48.000Z</time>
      </trkpt>
      <trkpt lat="42.571178" lon="1.115033">
        <ele>1367.6</ele>
        <time>1970-01-01T02:59:56.000Z</time>
      </trkpt>
      <trkpt lat="42.571225" lon="1.115266">
        <ele>1369.2</ele>
        <time>1970-01-01T03:00:04.000Z</time>
      </trkpt>
      <trkpt lat="42.571248" lon="1.115442">
        <ele>1370.2</ele>
        <time>1970-01-01T03:00:10.000Z</time>
      </trkpt>
      <trkpt lat="42.571279" lon="1.115617">
        <ele>1371.4</ele>
        <time>1970-01-01T03:00:16.000Z</time>
      </trkpt>
      <trkpt lat="42.571352" lon="1.115833">
        <ele>1372.6</ele>
        <time>1970-01-01T03:00:24.000Z</time>
      </trkpt>
      <trkpt lat="42.571408" lon="1.115888">
        <ele>1373.6</ele>
        <time>1970-01-01T03:00:27.000Z</time>
      </trkpt>
      <trkpt lat="42.571588" lon="1.115828">
        <ele>1374.8</ele>
        <time>1970-01-01T03:00:36.000Z</time>
      </trkpt>
      <trkpt lat="42.571931" lon="1.115601">
        <ele>1375.8</ele>
        <time>1970-01-01T03:00:53.000Z</time>
      </trkpt>
      <trkpt lat="42.572445" lon="1.115377">
        <ele>1376.8</ele>
        <time>1970-01-01T03:01:11.000Z</time>
      </trkpt>
      <trkpt lat="42.572594" lon="1.115064">
        <ele>1376.4</ele>
        <time>1970-01-01T03:01:18.000Z</time>
      </trkpt>
      <trkpt lat="42.572735" lon="1.114921">
        <ele>1375.8</ele>
        <time>1970-01-01T03:01:22.000Z</time>
      </trkpt>
      <trkpt lat="42.572982" lon="1.115011">
        <ele>1375.6</ele>
        <time>1970-01-01T03:01:28.000Z</time>
      </trkpt>
      <trkpt lat="42.573078" lon="1.115134">
        <ele>1375.6</ele>
        <time>1970-01-01T03:01:31.000Z</time>
      </trkpt>
      <trkpt lat="42.573325" lon="1.115808">
        <ele>1376.8</ele>
        <time>1970-01-01T03:01:44.000Z</time>
      </trkpt>
      <trkpt lat="42.573429" lon="1.116104">
        <ele>1377.8</ele>
        <time>1970-01-01T03:01:50.000Z</time>
      </trkpt>
      <trkpt lat="42.573748" lon="1.116615">
        <ele>1379.2</ele>
        <time>1970-01-01T03:02:03.000Z</time>
      </trkpt>
      <trkpt lat="42.573898" lon="1.116806">
        <ele>1380.2</ele>
        <time>1970-01-01T03:02:09.000Z</time>
      </trkpt>
      <trkpt lat="42.574203" lon="1.117077">
        <ele>1381.2</ele>
        <time>1970-01-01T03:02:19.000Z</time>
      </trkpt>
      <trkpt lat="42.574618" lon="1.117431">
        <ele>1382.2</ele>
        <time>1970-01-01T03:02:32.000Z</time>
      </trkpt>
      <trkpt lat="42.574904" lon="1.117853">
        <ele>1383</ele>
        <time>1970-01-01T03:02:43.000Z</time>
      </trkpt>
      <trkpt lat="42.575194" lon="1.118244">
        <ele>1383.2</ele>
        <time>1970-01-01T03:02:54.000Z</time>
      </trkpt>
      <trkpt lat="42.575458" lon="1.118561">
        <ele>1384.4</ele>
        <time>1970-01-01T03:03:04.000Z</time>
      </trkpt>
      <trkpt lat="42.575664" lon="1.118871">
        <ele>1385.4</ele>
        <time>1970-01-01T03:03:13.000Z</time>
      </trkpt>
      <trkpt lat="42.575897" lon="1.119179">
        <ele>1386.4</ele>
        <time>1970-01-01T03:03:23.000Z</time>
      </trkpt>
      <trkpt lat="42.575931" lon="1.119205">
        <ele>1386.8</ele>
        <time>1970-01-01T03:03:26.000Z</time>
      </trkpt>
      <trkpt lat="42.575945" lon="1.119217">
        <ele>1387.2</ele>
        <time>1970-01-01T03:03:54.000Z</time>
      </trkpt>
      <trkpt lat="42.576044" lon="1.119287">
        <ele>1387.4</ele>
        <time>1970-01-01T03:03:59.000Z</time>
      </trkpt>
      <trkpt lat="42.576274" lon="1.119452">
        <ele>1388.6</ele>
        <time>1970-01-01T03:04:08.000Z</time>
      </trkpt>
      <trkpt lat="42.576578" lon="1.119796">
        <ele>1389.6</ele>
        <time>1970-01-01T03:04:21.000Z</time>
      </trkpt>
      <trkpt lat="42.576775" lon="1.12004">
        <ele>1390.6</ele>
        <time>1970-01-01T03:04:29.000Z</time>
      </trkpt>
      <trkpt lat="42.577119" lon="1.120445">
        <ele>1391.8</ele>
        <time>1970-01-01T03:04:42.000Z</time>
      </trkpt>
      <trkpt lat="42.577423" lon="1.121082">
        <ele>1392.2</ele>
        <time>1970-01-01T03:04:57.000Z</time>
      </trkpt>
      <trkpt lat="42.577605" lon="1.121812">
        <ele>1392.4</ele>
        <time>1970-01-01T03:05:11.000Z</time>
      </trkpt>
      <trkpt lat="42.577653" lon="1.121963">
        <ele>1392.8</ele>
        <time>1970-01-01T03:05:14.000Z</time>
      </trkpt>
      <trkpt lat="42.57792" lon="1.122511">
        <ele>1394</ele>
        <time>1970-01-01T03:05:26.000Z</time>
      </trkpt>
      <trkpt lat="42.578035" lon="1.122681">
        <ele>1395</ele>
        <time>1970-01-01T03:05:31.000Z</time>
      </trkpt>
      <trkpt lat="42.578175" lon="1.12285">
        <ele>1396.2</ele>
        <time>1970-01-01T03:05:37.000Z</time>
      </trkpt>
      <trkpt lat="42.57828" lon="1.122975">
        <ele>1397.2</ele>
        <time>1970-01-01T03:05:42.000Z</time>
      </trkpt>
      <trkpt lat="42.578361" lon="1.123103">
        <ele>1398.4</ele>
        <time>1970-01-01T03:05:47.000Z</time>
      </trkpt>
      <trkpt lat="42.578428" lon="1.123301">
        <ele>1399.4</ele>
        <time>1970-01-01T03:05:53.000Z</time>
      </trkpt>
      <trkpt lat="42.578488" lon="1.12346">
        <ele>1400.6</ele>
        <time>1970-01-01T03:05:58.000Z</time>
      </trkpt>
      <trkpt lat="42.578522" lon="1.12363">
        <ele>1401.6</ele>
        <time>1970-01-01T03:06:03.000Z</time>
      </trkpt>
      <trkpt lat="42.57855" lon="1.123802">
        <ele>1402.6</ele>
        <time>1970-01-01T03:06:08.000Z</time>
      </trkpt>
      <trkpt lat="42.578576" lon="1.123991">
        <ele>1403.8</ele>
        <time>1970-01-01T03:06:14.000Z</time>
      </trkpt>
      <trkpt lat="42.578606" lon="1.124202">
        <ele>1404.8</ele>
        <time>1970-01-01T03:06:21.000Z</time>
      </trkpt>
      <trkpt lat="42.578633" lon="1.124357">
        <ele>1406</ele>
        <time>1970-01-01T03:06:26.000Z</time>
      </trkpt>
      <trkpt lat="42.578674" lon="1.12456">
        <ele>1407.2</ele>
        <time>1970-01-01T03:06:33.000Z</time>
      </trkpt>
      <trkpt lat="42.578696" lon="1.124752">
        <ele>1408.4</ele>
        <time>1970-01-01T03:06:39.000Z</time>
      </trkpt>
      <trkpt lat="42.578764" lon="1.124974">
        <ele>1409.6</ele>
        <time>1970-01-01T03:06:46.000Z</time>
      </trkpt>
      <trkpt lat="42.578849" lon="1.125178">
        <ele>1410.6</ele>
        <time>1970-01-01T03:06:53.000Z</time>
      </trkpt>
      <trkpt lat="42.579012" lon="1.125529">
        <ele>1411.8</ele>
        <time>1970-01-01T03:07:05.000Z</time>
      </trkpt>
      <trkpt lat="42.579136" lon="1.125618">
        <ele>1413</ele>
        <time>1970-01-01T03:07:11.000Z</time>
      </trkpt>
      <trkpt lat="42.57931" lon="1.125658">
        <ele>1414</ele>
        <time>1970-01-01T03:07:18.000Z</time>
      </trkpt>
      <trkpt lat="42.579434" lon="1.125678">
        <ele>1415.2</ele>
        <time>1970-01-01T03:07:23.000Z</time>
      </trkpt>
      <trkpt lat="42.579587" lon="1.125699">
        <ele>1416.2</ele>
        <time>1970-01-01T03:07:29.000Z</time>
      </trkpt>
      <trkpt lat="42.579763" lon="1.125715">
        <ele>1417.2</ele>
        <time>1970-01-01T03:07:36.000Z</time>
      </trkpt>
      <trkpt lat="42.579912" lon="1.125697">
        <ele>1418.2</ele>
        <time>1970-01-01T03:07:42.000Z</time>
      </trkpt>
      <trkpt lat="42.580088" lon="1.125647">
        <ele>1419.4</ele>
        <time>1970-01-01T03:07:49.000Z</time>
      </trkpt>
      <trkpt lat="42.580238" lon="1.12562">
        <ele>1420.6</ele>
        <time>1970-01-01T03:07:55.000Z</time>
      </trkpt>
      <trkpt lat="42.580438" lon="1.125614">
        <ele>1421.6</ele>
        <time>1970-01-01T03:08:03.000Z</time>
      </trkpt>
      <trkpt lat="42.580563" lon="1.125628">
        <ele>1422.8</ele>
        <time>1970-01-01T03:08:08.000Z</time>
      </trkpt>
      <trkpt lat="42.580744" lon="1.125653">
        <ele>1423.8</ele>
        <time>1970-01-01T03:08:15.000Z</time>
      </trkpt>
      <trkpt lat="42.580947" lon="1.125724">
        <ele>1424.8</ele>
        <time>1970-01-01T03:08:23.000Z</time>
      </trkpt>
      <trkpt lat="42.581066" lon="1.125713">
        <ele>1426</ele>
        <time>1970-01-01T03:08:28.000Z</time>
      </trkpt>
      <trkpt lat="42.581305" lon="1.12519">
        <ele>1424.8</ele>
        <time>1970-01-01T03:08:39.000Z</time>
      </trkpt>
      <trkpt lat="42.581368" lon="1.125031">
        <ele>1423.8</ele>
        <time>1970-01-01T03:08:41.000Z</time>
      </trkpt>
      <trkpt lat="42.581469" lon="1.12475">
        <ele>1422.4</ele>
        <time>1970-01-01T03:08:44.000Z</time>
      </trkpt>
      <trkpt lat="42.581535" lon="1.124536">
        <ele>1421</ele>
        <time>1970-01-01T03:08:46.000Z</time>
      </trkpt>
      <trkpt lat="42.581598" lon="1.124306">
        <ele>1419.8</ele>
        <time>1970-01-01T03:08:48.000Z</time>
      </trkpt>
      <trkpt lat="42.581669" lon="1.124063">
        <ele>1418.6</ele>
        <time>1970-01-01T03:08:50.000Z</time>
      </trkpt>
      <trkpt lat="42.581728" lon="1.123808">
        <ele>1417.4</ele>
        <time>1970-01-01T03:08:52.000Z</time>
      </trkpt>
      <trkpt lat="42.581757" lon="1.123678">
        <ele>1416.4</ele>
        <time>1970-01-01T03:08:53.000Z</time>
      </trkpt>
      <trkpt lat="42.581784" lon="1.123543">
        <ele>1415.2</ele>
        <time>1970-01-01T03:08:54.000Z</time>
      </trkpt>
      <trkpt lat="42.581823" lon="1.12326">
        <ele>1413.2</ele>
        <time>1970-01-01T03:08:56.000Z</time>
      </trkpt>
      <trkpt lat="42.581844" lon="1.123119">
        <ele>1412.2</ele>
        <time>1970-01-01T03:08:57.000Z</time>
      </trkpt>
      <trkpt lat="42.581874" lon="1.12298">
        <ele>1410.8</ele>
        <time>1970-01-01T03:08:58.000Z</time>
      </trkpt>
      <trkpt lat="42.581962" lon="1.122708">
        <ele>1409</ele>
        <time>1970-01-01T03:09:00.000Z</time>
      </trkpt>
      <trkpt lat="42.582062" lon="1.122461">
        <ele>1407.2</ele>
        <time>1970-01-01T03:09:02.000Z</time>
      </trkpt>
      <trkpt lat="42.582221" lon="1.122278">
        <ele>1405.8</ele>
        <time>1970-01-01T03:09:04.000Z</time>
      </trkpt>
      <trkpt lat="42.582314" lon="1.122202">
        <ele>1404.2</ele>
        <time>1970-01-01T03:09:05.000Z</time>
      </trkpt>
      <trkpt lat="42.582408" lon="1.122124">
        <ele>1403.2</ele>
        <time>1970-01-01T03:09:06.000Z</time>
      </trkpt>
      <trkpt lat="42.582496" lon="1.122038">
        <ele>1402.4</ele>
        <time>1970-01-01T03:09:07.000Z</time>
      </trkpt>
      <trkpt lat="42.582567" lon="1.121939">
        <ele>1401.8</ele>
        <time>1970-01-01T03:09:08.000Z</time>
      </trkpt>
      <trkpt lat="42.582662" lon="1.121712">
        <ele>1400.4</ele>
        <time>1970-01-01T03:09:10.000Z</time>
      </trkpt>
      <trkpt lat="42.582806" lon="1.121546">
        <ele>1399</ele>
        <time>1970-01-01T03:09:12.000Z</time>
      </trkpt>
      <trkpt lat="42.582998" lon="1.121456">
        <ele>1397.8</ele>
        <time>1970-01-01T03:09:14.000Z</time>
      </trkpt>
      <trkpt lat="42.583202" lon="1.121409">
        <ele>1396.4</ele>
        <time>1970-01-01T03:09:16.000Z</time>
      </trkpt>
      <trkpt lat="42.583304" lon="1.121377">
        <ele>1395</ele>
        <time>1970-01-01T03:09:17.000Z</time>
      </trkpt>
      <trkpt lat="42.583474" lon="1.121216">
        <ele>1393.4</ele>
        <time>1970-01-01T03:09:19.000Z</time>
      </trkpt>
      <trkpt lat="42.58361" lon="1.121055">
        <ele>1392.4</ele>
        <time>1970-01-01T03:09:21.000Z</time>
      </trkpt>
      <trkpt lat="42.584055" lon="1.121179">
        <ele>1392</ele>
        <time>1970-01-01T03:09:27.000Z</time>
      </trkpt>
      <trkpt lat="42.584361" lon="1.121406">
        <ele>1392.4</ele>
        <time>1970-01-01T03:09:32.000Z</time>
      </trkpt>
      <trkpt lat="42.584795" lon="1.121317">
        <ele>1393.8</ele>
        <time>1970-01-01T03:09:40.000Z</time>
      </trkpt>
      <trkpt lat="42.584832" lon="1.121283">
        <ele>1394</ele>
        <time>1970-01-01T03:09:41.000Z</time>
      </trkpt>
      <trkpt lat="42.584959" lon="1.121178">
        <ele>1394.8</ele>
        <time>1970-01-01T03:09:45.000Z</time>
      </trkpt>
      <trkpt lat="42.585055" lon="1.121094">
        <ele>1396</ele>
        <time>1970-01-01T03:09:49.000Z</time>
      </trkpt>
      <trkpt lat="42.585193" lon="1.120884">
        <ele>1397.2</ele>
        <time>1970-01-01T03:09:56.000Z</time>
      </trkpt>
      <trkpt lat="42.585262" lon="1.12075">
        <ele>1398.2</ele>
        <time>1970-01-01T03:10:00.000Z</time>
      </trkpt>
      <trkpt lat="42.585457" lon="1.120805">
        <ele>1399.4</ele>
        <time>1970-01-01T03:10:07.000Z</time>
      </trkpt>
      <trkpt lat="42.585561" lon="1.120965">
        <ele>1400.4</ele>
        <time>1970-01-01T03:10:12.000Z</time>
      </trkpt>
      <trkpt lat="42.58562" lon="1.121103">
        <ele>1401.4</ele>
        <time>1970-01-01T03:10:16.000Z</time>
      </trkpt>
      <trkpt lat="42.58573" lon="1.121281">
        <ele>1402.6</ele>
        <time>1970-01-01T03:10:22.000Z</time>
      </trkpt>
      <trkpt lat="42.585843" lon="1.121398">
        <ele>1403.6</ele>
        <time>1970-01-01T03:10:27.000Z</time>
      </trkpt>
      <trkpt lat="42.586024" lon="1.121516">
        <ele>1404.8</ele>
        <time>1970-01-01T03:10:34.000Z</time>
      </trkpt>
      <trkpt lat="42.58621" lon="1.121571">
        <ele>1406</ele>
        <time>1970-01-01T03:10:41.000Z</time>
      </trkpt>
      <trkpt lat="42.586374" lon="1.121584">
        <ele>1407</ele>
        <time>1970-01-01T03:10:47.000Z</time>
      </trkpt>
      <trkpt lat="42.586499" lon="1.121608">
        <ele>1408.2</ele>
        <time>1970-01-01T03:10:52.000Z</time>
      </trkpt>
      <trkpt lat="42.586666" lon="1.121526">
        <ele>1409.4</ele>
        <time>1970-01-01T03:10:59.000Z</time>
      </trkpt>
      <trkpt lat="42.586704" lon="1.121172">
        <ele>1410.4</ele>
        <time>1970-01-01T03:11:08.000Z</time>
      </trkpt>
      <trkpt lat="42.586648" lon="1.120743">
        <ele>1411.6</ele>
        <time>1970-01-01T03:11:18.000Z</time>
      </trkpt>
      <trkpt lat="42.586664" lon="1.120353">
        <ele>1412.6</ele>
        <time>1970-01-01T03:11:27.000Z</time>
      </trkpt>
      <trkpt lat="42.586692" lon="1.120068">
        <ele>1413.6</ele>
        <time>1970-01-01T03:11:34.000Z</time>
      </trkpt>
      <trkpt lat="42.586741" lon="1.119788">
        <ele>1415</ele>
        <time>1970-01-01T03:11:41.000Z</time>
      </trkpt>
      <trkpt lat="42.586825" lon="1.119606">
        <ele>1416</ele>
        <time>1970-01-01T03:11:47.000Z</time>
      </trkpt>
      <trkpt lat="42.586939" lon="1.119407">
        <ele>1417</ele>
        <time>1970-01-01T03:11:54.000Z</time>
      </trkpt>
      <trkpt lat="42.587113" lon="1.119161">
        <ele>1418</ele>
        <time>1970-01-01T03:12:05.000Z</time>
      </trkpt>
      <trkpt lat="42.587247" lon="1.119017">
        <ele>1419.2</ele>
        <time>1970-01-01T03:12:13.000Z</time>
      </trkpt>
      <trkpt lat="42.587282" lon="1.118988">
        <ele>1419.6</ele>
        <time>1970-01-01T03:12:15.000Z</time>
      </trkpt>
      <trkpt lat="42.587384" lon="1.118944">
        <ele>1420.2</ele>
        <time>1970-01-01T03:12:20.000Z</time>
      </trkpt>
      <trkpt lat="42.587569" lon="1.118883">
        <ele>1421.4</ele>
        <time>1970-01-01T03:12:29.000Z</time>
      </trkpt>
      <trkpt lat="42.587752" lon="1.118822">
        <ele>1422.4</ele>
        <time>1970-01-01T03:12:37.000Z</time>
      </trkpt>
      <trkpt lat="42.588025" lon="1.118768">
        <ele>1423.4</ele>
        <time>1970-01-01T03:12:47.000Z</time>
      </trkpt>
      <trkpt lat="42.588161" lon="1.118788">
        <ele>1424.6</ele>
        <time>1970-01-01T03:12:52.000Z</time>
      </trkpt>
      <trkpt lat="42.588321" lon="1.118806">
        <ele>1425.6</ele>
        <time>1970-01-01T03:12:58.000Z</time>
      </trkpt>
      <trkpt lat="42.58852" lon="1.118701">
        <ele>1426.8</ele>
        <time>1970-01-01T03:13:06.000Z</time>
      </trkpt>
      <trkpt lat="42.588641" lon="1.118417">
        <ele>1427.8</ele>
        <time>1970-01-01T03:13:14.000Z</time>
      </trkpt>
      <trkpt lat="42.588767" lon="1.118209">
        <ele>1429</ele>
        <time>1970-01-01T03:13:21.000Z</time>
      </trkpt>
      <trkpt lat="42.588916" lon="1.117961">
        <ele>1430</ele>
        <time>1970-01-01T03:13:29.000Z</time>
      </trkpt>
      <trkpt lat="42.589341" lon="1.117501">
        <ele>1430.8</ele>
        <time>1970-01-01T03:13:45.000Z</time>
      </trkpt>
      <trkpt lat="42.589445" lon="1.117533">
        <ele>1431</ele>
        <time>1970-01-01T03:13:48.000Z</time>
      </trkpt>
      <trkpt lat="42.589813" lon="1.11811">
        <ele>1431.6</ele>
        <time>1970-01-01T03:14:02.000Z</time>
      </trkpt>
      <trkpt lat="42.590261" lon="1.118553">
        <ele>1430.8</ele>
        <time>1970-01-01T03:14:12.000Z</time>
      </trkpt>
      <trkpt lat="42.59046" lon="1.118781">
        <ele>1430</ele>
        <time>1970-01-01T03:14:16.000Z</time>
      </trkpt>
      <trkpt lat="42.590579" lon="1.118899">
        <ele>1429</ele>
        <time>1970-01-01T03:14:18.000Z</time>
      </trkpt>
      <trkpt lat="42.590649" lon="1.118946">
        <ele>1428.4</ele>
        <time>1970-01-01T03:14:19.000Z</time>
      </trkpt>
      <trkpt lat="42.590814" lon="1.119005">
        <ele>1427</ele>
        <time>1970-01-01T03:14:21.000Z</time>
      </trkpt>
      <trkpt lat="42.590904" lon="1.119027">
        <ele>1426.6</ele>
        <time>1970-01-01T03:14:22.000Z</time>
      </trkpt>
      <trkpt lat="42.590996" lon="1.119048">
        <ele>1425.4</ele>
        <time>1970-01-01T03:14:23.000Z</time>
      </trkpt>
      <trkpt lat="42.591186" lon="1.119089">
        <ele>1424</ele>
        <time>1970-01-01T03:14:25.000Z</time>
      </trkpt>
      <trkpt lat="42.591388" lon="1.119108">
        <ele>1422.8</ele>
        <time>1970-01-01T03:14:27.000Z</time>
      </trkpt>
      <trkpt lat="42.591599" lon="1.119109">
        <ele>1421.6</ele>
        <time>1970-01-01T03:14:29.000Z</time>
      </trkpt>
      <trkpt lat="42.591819" lon="1.119098">
        <ele>1420</ele>
        <time>1970-01-01T03:14:31.000Z</time>
      </trkpt>
      <trkpt lat="42.592045" lon="1.119062">
        <ele>1418.8</ele>
        <time>1970-01-01T03:14:33.000Z</time>
      </trkpt>
      <trkpt lat="42.592272" lon="1.118991">
        <ele>1416.8</ele>
        <time>1970-01-01T03:14:35.000Z</time>
      </trkpt>
      <trkpt lat="42.592379" lon="1.118928">
        <ele>1415.4</ele>
        <time>1970-01-01T03:14:36.000Z</time>
      </trkpt>
      <trkpt lat="42.592476" lon="1.118836">
        <ele>1414.4</ele>
        <time>1970-01-01T03:14:37.000Z</time>
      </trkpt>
      <trkpt lat="42.592638" lon="1.118609">
        <ele>1412.4</ele>
        <time>1970-01-01T03:14:39.000Z</time>
      </trkpt>
      <trkpt lat="42.59277" lon="1.118389">
        <ele>1411</ele>
        <time>1970-01-01T03:14:41.000Z</time>
      </trkpt>
      <trkpt lat="42.592827" lon="1.118272">
        <ele>1410.6</ele>
        <time>1970-01-01T03:14:42.000Z</time>
      </trkpt>
      <trkpt lat="42.592876" lon="1.118147">
        <ele>1410</ele>
        <time>1970-01-01T03:14:43.000Z</time>
      </trkpt>
      <trkpt lat="42.592949" lon="1.11788">
        <ele>1408.8</ele>
        <time>1970-01-01T03:14:45.000Z</time>
      </trkpt>
      <trkpt lat="42.593016" lon="1.117602">
        <ele>1407.6</ele>
        <time>1970-01-01T03:14:47.000Z</time>
      </trkpt>
      <trkpt lat="42.593089" lon="1.117324">
        <ele>1406.4</ele>
        <time>1970-01-01T03:14:49.000Z</time>
      </trkpt>
      <trkpt lat="42.59317" lon="1.117041">
        <ele>1404.6</ele>
        <time>1970-01-01T03:14:51.000Z</time>
      </trkpt>
      <trkpt lat="42.593267" lon="1.11676">
        <ele>1403.4</ele>
        <time>1970-01-01T03:14:53.000Z</time>
      </trkpt>
      <trkpt lat="42.593363" lon="1.116508">
        <ele>1402.2</ele>
        <time>1970-01-01T03:14:55.000Z</time>
      </trkpt>
      <trkpt lat="42.593455" lon="1.11629">
        <ele>1400.8</ele>
        <time>1970-01-01T03:14:57.000Z</time>
      </trkpt>
      <trkpt lat="42.593573" lon="1.116107">
        <ele>1399.2</ele>
        <time>1970-01-01T03:14:59.000Z</time>
      </trkpt>
      <trkpt lat="42.593643" lon="1.116031">
        <ele>1398.4</ele>
        <time>1970-01-01T03:15:00.000Z</time>
      </trkpt>
      <trkpt lat="42.593717" lon="1.115958">
        <ele>1397.6</ele>
        <time>1970-01-01T03:15:01.000Z</time>
      </trkpt>
      <trkpt lat="42.593968" lon="1.115762">
        <ele>1396.4</ele>
        <time>1970-01-01T03:15:04.000Z</time>
      </trkpt>
      <trkpt lat="42.59414" lon="1.115612">
        <ele>1395.2</ele>
        <time>1970-01-01T03:15:06.000Z</time>
      </trkpt>
      <trkpt lat="42.59421" lon="1.115517">
        <ele>1393.6</ele>
        <time>1970-01-01T03:15:07.000Z</time>
      </trkpt>
      <trkpt lat="42.594309" lon="1.115272">
        <ele>1392.2</ele>
        <time>1970-01-01T03:15:09.000Z</time>
      </trkpt>
      <trkpt lat="42.594343" lon="1.115135">
        <ele>1391.8</ele>
        <time>1970-01-01T03:15:10.000Z</time>
      </trkpt>
      <trkpt lat="42.594422" lon="1.11486">
        <ele>1390.8</ele>
        <time>1970-01-01T03:15:12.000Z</time>
      </trkpt>
      <trkpt lat="42.594478" lon="1.11473">
        <ele>1389.2</ele>
        <time>1970-01-01T03:15:13.000Z</time>
      </trkpt>
      <trkpt lat="42.594545" lon="1.114606">
        <ele>1388</ele>
        <time>1970-01-01T03:15:14.000Z</time>
      </trkpt>
      <trkpt lat="42.594624" lon="1.11449">
        <ele>1386.6</ele>
        <time>1970-01-01T03:15:15.000Z</time>
      </trkpt>
      <trkpt lat="42.594702" lon="1.114388">
        <ele>1385.4</ele>
        <time>1970-01-01T03:15:16.000Z</time>
      </trkpt>
      <trkpt lat="42.59483" lon="1.114255">
        <ele>1384.6</ele>
        <time>1970-01-01T03:15:18.000Z</time>
      </trkpt>
      <trkpt lat="42.594878" lon="1.114213">
        <ele>1384.2</ele>
        <time>1970-01-01T03:15:19.000Z</time>
      </trkpt>
      <trkpt lat="42.595034" lon="1.114092">
        <ele>1383.2</ele>
        <time>1970-01-01T03:15:22.000Z</time>
      </trkpt>
      <trkpt lat="42.595139" lon="1.114004">
        <ele>1382.2</ele>
        <time>1970-01-01T03:15:24.000Z</time>
      </trkpt>
      <trkpt lat="42.595261" lon="1.113894">
        <ele>1381</ele>
        <time>1970-01-01T03:15:27.000Z</time>
      </trkpt>
      <trkpt lat="42.59536" lon="1.113795">
        <ele>1379.6</ele>
        <time>1970-01-01T03:15:30.000Z</time>
      </trkpt>
      <trkpt lat="42.595429" lon="1.113734">
        <ele>1379.2</ele>
        <time>1970-01-01T03:15:32.000Z</time>
      </trkpt>
      <trkpt lat="42.595524" lon="1.113632">
        <ele>1378.2</ele>
        <time>1970-01-01T03:15:34.000Z</time>
      </trkpt>
      <trkpt lat="42.595645" lon="1.113522">
        <ele>1376.8</ele>
        <time>1970-01-01T03:15:36.000Z</time>
      </trkpt>
      <trkpt lat="42.595862" lon="1.113348">
        <ele>1375.4</ele>
        <time>1970-01-01T03:15:39.000Z</time>
      </trkpt>
      <trkpt lat="42.596022" lon="1.11324">
        <ele>1374.2</ele>
        <time>1970-01-01T03:15:41.000Z</time>
      </trkpt>
      <trkpt lat="42.596187" lon="1.113123">
        <ele>1372.8</ele>
        <time>1970-01-01T03:15:43.000Z</time>
      </trkpt>
      <trkpt lat="42.596335" lon="1.112989">
        <ele>1371.4</ele>
        <time>1970-01-01T03:15:45.000Z</time>
      </trkpt>
      <trkpt lat="42.596459" lon="1.112801">
        <ele>1369.8</ele>
        <time>1970-01-01T03:15:47.000Z</time>
      </trkpt>
      <trkpt lat="42.596528" lon="1.112561">
        <ele>1368.8</ele>
        <time>1970-01-01T03:15:49.000Z</time>
      </trkpt>
      <trkpt lat="42.596547" lon="1.11222">
        <ele>1367.6</ele>
        <time>1970-01-01T03:15:52.000Z</time>
      </trkpt>
      <trkpt lat="42.596566" lon="1.112146">
        <ele>1367.2</ele>
        <time>1970-01-01T03:15:53.000Z</time>
      </trkpt>
      <trkpt lat="42.596667" lon="1.112091">
        <ele>1366.6</ele>
        <time>1970-01-01T03:15:55.000Z</time>
      </trkpt>
      <trkpt lat="42.596843" lon="1.112246">
        <ele>1366.2</ele>
        <time>1970-01-01T03:15:59.000Z</time>
      </trkpt>
      <trkpt lat="42.596902" lon="1.112345">
        <ele>1366</ele>
        <time>1970-01-01T03:16:01.000Z</time>
      </trkpt>
      <trkpt lat="42.596969" lon="1.112432">
        <ele>1366</ele>
        <time>1970-01-01T03:16:03.000Z</time>
      </trkpt>
      <trkpt lat="42.597389" lon="1.112936">
        <ele>1365.8</ele>
        <time>1970-01-01T03:16:13.000Z</time>
      </trkpt>
      <trkpt lat="42.597435" lon="1.112988">
        <ele>1365.8</ele>
        <time>1970-01-01T03:16:14.000Z</time>
      </trkpt>
      <trkpt lat="42.597529" lon="1.113094">
        <ele>1365.6</ele>
        <time>1970-01-01T03:16:16.000Z</time>
      </trkpt>
      <trkpt lat="42.597736" lon="1.113418">
        <ele>1364.6</ele>
        <time>1970-01-01T03:16:21.000Z</time>
      </trkpt>
      <trkpt lat="42.597849" lon="1.113601">
        <ele>1364.4</ele>
        <time>1970-01-01T03:16:24.000Z</time>
      </trkpt>
      <trkpt lat="42.598004" lon="1.11379">
        <ele>1364.6</ele>
        <time>1970-01-01T03:16:29.000Z</time>
      </trkpt>
      <trkpt lat="42.598195" lon="1.113964">
        <ele>1364.2</ele>
        <time>1970-01-01T03:16:34.000Z</time>
      </trkpt>
      <trkpt lat="42.598516" lon="1.114364">
        <ele>1365.6</ele>
        <time>1970-01-01T03:16:47.000Z</time>
      </trkpt>
      <trkpt lat="42.598633" lon="1.11453">
        <ele>1366.8</ele>
        <time>1970-01-01T03:16:53.000Z</time>
      </trkpt>
      <trkpt lat="42.598741" lon="1.114744">
        <ele>1368</ele>
        <time>1970-01-01T03:17:00.000Z</time>
      </trkpt>
      <trkpt lat="42.598847" lon="1.114943">
        <ele>1369</ele>
        <time>1970-01-01T03:17:07.000Z</time>
      </trkpt>
      <trkpt lat="42.598953" lon="1.11515">
        <ele>1370.2</ele>
        <time>1970-01-01T03:17:14.000Z</time>
      </trkpt>
      <trkpt lat="42.599081" lon="1.115476">
        <ele>1371.4</ele>
        <time>1970-01-01T03:17:25.000Z</time>
      </trkpt>
      <trkpt lat="42.599158" lon="1.115658">
        <ele>1372.6</ele>
        <time>1970-01-01T03:17:31.000Z</time>
      </trkpt>
      <trkpt lat="42.599208" lon="1.115782">
        <ele>1373.6</ele>
        <time>1970-01-01T03:17:35.000Z</time>
      </trkpt>
      <trkpt lat="42.599255" lon="1.115939">
        <ele>1374.8</ele>
        <time>1970-01-01T03:17:40.000Z</time>
      </trkpt>
      <trkpt lat="42.59931" lon="1.116096">
        <ele>1376</ele>
        <time>1970-01-01T03:17:45.000Z</time>
      </trkpt>
      <trkpt lat="42.599384" lon="1.116334">
        <ele>1377.2</ele>
        <time>1970-01-01T03:17:52.000Z</time>
      </trkpt>
      <trkpt lat="42.599429" lon="1.116495">
        <ele>1378.4</ele>
        <time>1970-01-01T03:17:57.000Z</time>
      </trkpt>
      <trkpt lat="42.599499" lon="1.116679">
        <ele>1379.4</ele>
        <time>1970-01-01T03:18:04.000Z</time>
      </trkpt>
      <trkpt lat="42.599584" lon="1.116842">
        <ele>1380.6</ele>
        <time>1970-01-01T03:18:11.000Z</time>
      </trkpt>
      <trkpt lat="42.599642" lon="1.11699">
        <ele>1381.8</ele>
        <time>1970-01-01T03:18:17.000Z</time>
      </trkpt>
      <trkpt lat="42.599707" lon="1.117176">
        <ele>1382.8</ele>
        <time>1970-01-01T03:18:24.000Z</time>
      </trkpt>
      <trkpt lat="42.599787" lon="1.117359">
        <ele>1383.8</ele>
        <time>1970-01-01T03:18:31.000Z</time>
      </trkpt>
      <trkpt lat="42.599854" lon="1.117486">
        <ele>1384.6</ele>
        <time>1970-01-01T03:18:36.000Z</time>
      </trkpt>
      <trkpt lat="42.599889" lon="1.11757">
        <ele>1385</ele>
        <time>1970-01-01T03:18:39.000Z</time>
      </trkpt>
      <trkpt lat="42.599974" lon="1.117897">
        <ele>1386.4</ele>
        <time>1970-01-01T03:18:50.000Z</time>
      </trkpt>
      <trkpt lat="42.60001" lon="1.118116">
        <ele>1387.4</ele>
        <time>1970-01-01T03:18:57.000Z</time>
      </trkpt>
      <trkpt lat="42.600052" lon="1.11837">
        <ele>1388.6</ele>
        <time>1970-01-01T03:19:05.000Z</time>
      </trkpt>
      <trkpt lat="42.600072" lon="1.118534">
        <ele>1389.6</ele>
        <time>1970-01-01T03:19:10.000Z</time>
      </trkpt>
      <trkpt lat="42.600108" lon="1.118754">
        <ele>1390.8</ele>
        <time>1970-01-01T03:19:17.000Z</time>
      </trkpt>
      <trkpt lat="42.600135" lon="1.118947">
        <ele>1392</ele>
        <time>1970-01-01T03:19:23.000Z</time>
      </trkpt>
      <trkpt lat="42.600169" lon="1.11917">
        <ele>1393.2</ele>
        <time>1970-01-01T03:19:30.000Z</time>
      </trkpt>
      <trkpt lat="42.600177" lon="1.119233">
        <ele>1393.6</ele>
        <time>1970-01-01T03:19:32.000Z</time>
      </trkpt>
      <trkpt lat="42.600185" lon="1.119326">
        <ele>1394.2</ele>
        <time>1970-01-01T03:19:35.000Z</time>
      </trkpt>
      <trkpt lat="42.600192" lon="1.119553">
        <ele>1395.2</ele>
        <time>1970-01-01T03:19:42.000Z</time>
      </trkpt>
      <trkpt lat="42.600186" lon="1.119776">
        <ele>1396.4</ele>
        <time>1970-01-01T03:19:49.000Z</time>
      </trkpt>
      <trkpt lat="42.600204" lon="1.120008">
        <ele>1397.4</ele>
        <time>1970-01-01T03:19:56.000Z</time>
      </trkpt>
      <trkpt lat="42.600538" lon="1.120579">
        <ele>1397</ele>
        <time>1970-01-01T03:20:13.000Z</time>
      </trkpt>
      <trkpt lat="42.600902" lon="1.120967">
        <ele>1398.2</ele>
        <time>1970-01-01T03:20:29.000Z</time>
      </trkpt>
      <trkpt lat="42.600997" lon="1.120724">
        <ele>1398.4</ele>
        <time>1970-01-01T03:20:34.000Z</time>
      </trkpt>
      <trkpt lat="42.601024" lon="1.120579">
        <ele>1398.8</ele>
        <time>1970-01-01T03:20:37.000Z</time>
      </trkpt>
      <trkpt lat="42.601085" lon="1.120376">
        <ele>1400</ele>
        <time>1970-01-01T03:20:42.000Z</time>
      </trkpt>
      <trkpt lat="42.601156" lon="1.120176">
        <ele>1401</ele>
        <time>1970-01-01T03:20:48.000Z</time>
      </trkpt>
      <trkpt lat="42.601196" lon="1.120043">
        <ele>1402.2</ele>
        <time>1970-01-01T03:20:52.000Z</time>
      </trkpt>
      <trkpt lat="42.601262" lon="1.119863">
        <ele>1403.2</ele>
        <time>1970-01-01T03:20:58.000Z</time>
      </trkpt>
      <trkpt lat="42.601346" lon="1.119671">
        <ele>1404.4</ele>
        <time>1970-01-01T03:21:05.000Z</time>
      </trkpt>
      <trkpt lat="42.601407" lon="1.119548">
        <ele>1405.4</ele>
        <time>1970-01-01T03:21:11.000Z</time>
      </trkpt>
      <trkpt lat="42.601538" lon="1.119328">
        <ele>1406.8</ele>
        <time>1970-01-01T03:21:21.000Z</time>
      </trkpt>
      <trkpt lat="42.601659" lon="1.11919">
        <ele>1407.8</ele>
        <time>1970-01-01T03:21:28.000Z</time>
      </trkpt>
      <trkpt lat="42.601768" lon="1.119089">
        <ele>1409</ele>
        <time>1970-01-01T03:21:34.000Z</time>
      </trkpt>
      <trkpt lat="42.601887" lon="1.118997">
        <ele>1410.2</ele>
        <time>1970-01-01T03:21:40.000Z</time>
      </trkpt>
      <trkpt lat="42.602005" lon="1.118907">
        <ele>1411.2</ele>
        <time>1970-01-01T03:21:46.000Z</time>
      </trkpt>
      <trkpt lat="42.602108" lon="1.118784">
        <ele>1412.4</ele>
        <time>1970-01-01T03:21:52.000Z</time>
      </trkpt>
      <trkpt lat="42.602204" lon="1.118613">
        <ele>1413.6</ele>
        <time>1970-01-01T03:21:59.000Z</time>
      </trkpt>
      <trkpt lat="42.602289" lon="1.118474">
        <ele>1414.8</ele>
        <time>1970-01-01T03:22:05.000Z</time>
      </trkpt>
      <trkpt lat="42.602428" lon="1.118266">
        <ele>1415.8</ele>
        <time>1970-01-01T03:22:14.000Z</time>
      </trkpt>
      <trkpt lat="42.602521" lon="1.11815">
        <ele>1416.8</ele>
        <time>1970-01-01T03:22:21.000Z</time>
      </trkpt>
      <trkpt lat="42.602521" lon="1.118135">
        <ele>1417</ele>
        <time>1970-01-01T03:22:22.000Z</time>
      </trkpt>
      <trkpt lat="42.602502" lon="1.118151">
        <ele>1417</ele>
        <time>1970-01-01T03:22:24.000Z</time>
      </trkpt>
      <trkpt lat="42.602394" lon="1.118307">
        <ele>1415.8</ele>
        <time>1970-01-01T03:22:32.000Z</time>
      </trkpt>
      <trkpt lat="42.602422" lon="1.118353">
        <ele>1415.4</ele>
        <time>1970-01-01T03:22:36.000Z</time>
      </trkpt>
      <trkpt lat="42.602714" lon="1.118085">
        <ele>1414.8</ele>
        <time>1970-01-01T03:22:47.000Z</time>
      </trkpt>
      <trkpt lat="42.602749" lon="1.118056">
        <ele>1414.8</ele>
        <time>1970-01-01T03:22:48.000Z</time>
      </trkpt>
      <trkpt lat="42.602959" lon="1.11788">
        <ele>1413.8</ele>
        <time>1970-01-01T03:22:54.000Z</time>
      </trkpt>
      <trkpt lat="42.603216" lon="1.117598">
        <ele>1412.6</ele>
        <time>1970-01-01T03:23:01.000Z</time>
      </trkpt>
      <trkpt lat="42.603409" lon="1.117266">
        <ele>1411.6</ele>
        <time>1970-01-01T03:23:07.000Z</time>
      </trkpt>
      <trkpt lat="42.603449" lon="1.117215">
        <ele>1411.2</ele>
        <time>1970-01-01T03:23:08.000Z</time>
      </trkpt>
      <trkpt lat="42.603535" lon="1.117113">
        <ele>1410.2</ele>
        <time>1970-01-01T03:23:10.000Z</time>
      </trkpt>
      <trkpt lat="42.603674" lon="1.116952">
        <ele>1409</ele>
        <time>1970-01-01T03:23:13.000Z</time>
      </trkpt>
      <trkpt lat="42.603922" lon="1.116595">
        <ele>1408.6</ele>
        <time>1970-01-01T03:23:19.000Z</time>
      </trkpt>
      <trkpt lat="42.604052" lon="1.116112">
        <ele>1407.8</ele>
        <time>1970-01-01T03:23:26.000Z</time>
      </trkpt>
      <trkpt lat="42.604188" lon="1.115477">
        <ele>1406.8</ele>
        <time>1970-01-01T03:23:35.000Z</time>
      </trkpt>
      <trkpt lat="42.604453" lon="1.114841">
        <ele>1405.4</ele>
        <time>1970-01-01T03:23:45.000Z</time>
      </trkpt>
      <trkpt lat="42.604532" lon="1.114575">
        <ele>1404.2</ele>
        <time>1970-01-01T03:23:49.000Z</time>
      </trkpt>
      <trkpt lat="42.604608" lon="1.114312">
        <ele>1404</ele>
        <time>1970-01-01T03:23:53.000Z</time>
      </trkpt>
      <trkpt lat="42.604806" lon="1.1137">
        <ele>1405.6</ele>
        <time>1970-01-01T03:24:07.000Z</time>
      </trkpt>
      <trkpt lat="42.604923" lon="1.113385">
        <ele>1406.6</ele>
        <time>1970-01-01T03:24:15.000Z</time>
      </trkpt>
      <trkpt lat="42.60502" lon="1.112631">
        <ele>1406.8</ele>
        <time>1970-01-01T03:24:29.000Z</time>
      </trkpt>
      <trkpt lat="42.605143" lon="1.112074">
        <ele>1407.6</ele>
        <time>1970-01-01T03:24:42.000Z</time>
      </trkpt>
      <trkpt lat="42.605237" lon="1.111318">
        <ele>1408.4</ele>
        <time>1970-01-01T03:24:57.000Z</time>
      </trkpt>
      <trkpt lat="42.605306" lon="1.110578">
        <ele>1408.6</ele>
        <time>1970-01-01T03:25:10.000Z</time>
      </trkpt>
      <trkpt lat="42.605365" lon="1.110182">
        <ele>1409.8</ele>
        <time>1970-01-01T03:25:18.000Z</time>
      </trkpt>
      <trkpt lat="42.605392" lon="1.109933">
        <ele>1410.2</ele>
        <time>1970-01-01T03:25:23.000Z</time>
      </trkpt>
      <trkpt lat="42.605419" lon="1.10967">
        <ele>1410.6</ele>
        <time>1970-01-01T03:25:29.000Z</time>
      </trkpt>
      <trkpt lat="42.605434" lon="1.109144">
        <ele>1411.6</ele>
        <time>1970-01-01T03:25:45.000Z</time>
      </trkpt>
      <trkpt lat="42.605473" lon="1.108761">
        <ele>1412.8</ele>
        <time>1970-01-01T03:25:56.000Z</time>
      </trkpt>
      <trkpt lat="42.605467" lon="1.108531">
        <ele>1413.6</ele>
        <time>1970-01-01T03:26:04.000Z</time>
      </trkpt>
      <trkpt lat="42.605466" lon="1.108511">
        <ele>1413.8</ele>
        <time>1970-01-01T03:26:06.000Z</time>
      </trkpt>
      <trkpt lat="42.605473" lon="1.108457">
        <ele>1414.2</ele>
        <time>1970-01-01T03:26:43.000Z</time>
      </trkpt>
      <trkpt lat="42.605477" lon="1.108364">
        <ele>1414.6</ele>
        <time>1970-01-01T03:26:46.000Z</time>
      </trkpt>
      <trkpt lat="42.605479" lon="1.108044">
        <ele>1415.8</ele>
        <time>1970-01-01T03:26:55.000Z</time>
      </trkpt>
      <trkpt lat="42.605497" lon="1.107861">
        <ele>1416.8</ele>
        <time>1970-01-01T03:27:00.000Z</time>
      </trkpt>
      <trkpt lat="42.605502" lon="1.107545">
        <ele>1418</ele>
        <time>1970-01-01T03:27:10.000Z</time>
      </trkpt>
      <trkpt lat="42.605499" lon="1.107361">
        <ele>1419</ele>
        <time>1970-01-01T03:27:16.000Z</time>
      </trkpt>
      <trkpt lat="42.605516" lon="1.107179">
        <ele>1420</ele>
        <time>1970-01-01T03:27:22.000Z</time>
      </trkpt>
      <trkpt lat="42.605526" lon="1.10693">
        <ele>1421.2</ele>
        <time>1970-01-01T03:27:30.000Z</time>
      </trkpt>
      <trkpt lat="42.605559" lon="1.106785">
        <ele>1422</ele>
        <time>1970-01-01T03:27:35.000Z</time>
      </trkpt>
      <trkpt lat="42.605576" lon="1.106717">
        <ele>1422.2</ele>
        <time>1970-01-01T03:27:37.000Z</time>
      </trkpt>
      <trkpt lat="42.605645" lon="1.106459">
        <ele>1423.4</ele>
        <time>1970-01-01T03:27:45.000Z</time>
      </trkpt>
      <trkpt lat="42.605713" lon="1.106221">
        <ele>1424.4</ele>
        <time>1970-01-01T03:27:53.000Z</time>
      </trkpt>
      <trkpt lat="42.605754" lon="1.106035">
        <ele>1425.8</ele>
        <time>1970-01-01T03:28:00.000Z</time>
      </trkpt>
      <trkpt lat="42.605774" lon="1.105846">
        <ele>1426.8</ele>
        <time>1970-01-01T03:28:06.000Z</time>
      </trkpt>
      <trkpt lat="42.605795" lon="1.105607">
        <ele>1427.8</ele>
        <time>1970-01-01T03:28:14.000Z</time>
      </trkpt>
      <trkpt lat="42.605833" lon="1.10544">
        <ele>1429</ele>
        <time>1970-01-01T03:28:20.000Z</time>
      </trkpt>
      <trkpt lat="42.605873" lon="1.105257">
        <ele>1430</ele>
        <time>1970-01-01T03:28:26.000Z</time>
      </trkpt>
      <trkpt lat="42.605909" lon="1.105029">
        <ele>1431.2</ele>
        <time>1970-01-01T03:28:34.000Z</time>
      </trkpt>
      <trkpt lat="42.605928" lon="1.104857">
        <ele>1432</ele>
        <time>1970-01-01T03:28:40.000Z</time>
      </trkpt>
      <trkpt lat="42.605933" lon="1.104792">
        <ele>1432.4</ele>
        <time>1970-01-01T03:28:42.000Z</time>
      </trkpt>
      <trkpt lat="42.605949" lon="1.104682">
        <ele>1433</ele>
        <time>1970-01-01T03:28:46.000Z</time>
      </trkpt>
      <trkpt lat="42.605954" lon="1.104655">
        <ele>1433.2</ele>
        <time>1970-01-01T03:28:47.000Z</time>
      </trkpt>
      <trkpt lat="42.606001" lon="1.104445">
        <ele>1434.2</ele>
        <time>1970-01-01T03:28:55.000Z</time>
      </trkpt>
      <trkpt lat="42.606036" lon="1.104293">
        <ele>1435.4</ele>
        <time>1970-01-01T03:29:01.000Z</time>
      </trkpt>
      <trkpt lat="42.60608" lon="1.104103">
        <ele>1436.6</ele>
        <time>1970-01-01T03:29:08.000Z</time>
      </trkpt>
      <trkpt lat="42.606115" lon="1.103936">
        <ele>1437.8</ele>
        <time>1970-01-01T03:29:14.000Z</time>
      </trkpt>
      <trkpt lat="42.606132" lon="1.103827">
        <ele>1439</ele>
        <time>1970-01-01T03:29:18.000Z</time>
      </trkpt>
      <trkpt lat="42.60617" lon="1.103676">
        <ele>1439.8</ele>
        <time>1970-01-01T03:29:23.000Z</time>
      </trkpt>
      <trkpt lat="42.606212" lon="1.103496">
        <ele>1441</ele>
        <time>1970-01-01T03:29:29.000Z</time>
      </trkpt>
      <trkpt lat="42.606257" lon="1.103317">
        <ele>1442</ele>
        <time>1970-01-01T03:29:36.000Z</time>
      </trkpt>
      <trkpt lat="42.606706" lon="1.103179">
        <ele>1441.8</ele>
        <time>1970-01-01T03:29:56.000Z</time>
      </trkpt>
      <trkpt lat="42.606778" lon="1.103219">
        <ele>1441.6</ele>
        <time>1970-01-01T03:30:02.000Z</time>
      </trkpt>
      <trkpt lat="42.606834" lon="1.103259">
        <ele>1441.6</ele>
        <time>1970-01-01T03:30:06.000Z</time>
      </trkpt>
      <trkpt lat="42.607385" lon="1.103332">
        <ele>1442</ele>
        <time>1970-01-01T03:30:23.000Z</time>
      </trkpt>
      <trkpt lat="42.607941" lon="1.103496">
        <ele>1442</ele>
        <time>1970-01-01T03:30:37.000Z</time>
      </trkpt>
      <trkpt lat="42.60844" lon="1.103805">
        <ele>1442</ele>
        <time>1970-01-01T03:30:49.000Z</time>
      </trkpt>
      <trkpt lat="42.608964" lon="1.104114">
        <ele>1442.6</ele>
        <time>1970-01-01T03:31:02.000Z</time>
      </trkpt>
      <trkpt lat="42.60912" lon="1.104198">
        <ele>1442.8</ele>
        <time>1970-01-01T03:31:06.000Z</time>
      </trkpt>
      <trkpt lat="42.609279" lon="1.104261">
        <ele>1443.2</ele>
        <time>1970-01-01T03:31:10.000Z</time>
      </trkpt>
      <trkpt lat="42.609486" lon="1.104323">
        <ele>1443.2</ele>
        <time>1970-01-01T03:31:15.000Z</time>
      </trkpt>
      <trkpt lat="42.609669" lon="1.104466">
        <ele>1443.2</ele>
        <time>1970-01-01T03:31:20.000Z</time>
      </trkpt>
      <trkpt lat="42.60984" lon="1.104551">
        <ele>1443.6</ele>
        <time>1970-01-01T03:31:24.000Z</time>
      </trkpt>
      <trkpt lat="42.610038" lon="1.104612">
        <ele>1443.4</ele>
        <time>1970-01-01T03:31:28.000Z</time>
      </trkpt>
      <trkpt lat="42.610133" lon="1.104667">
        <ele>1443.4</ele>
        <time>1970-01-01T03:31:30.000Z</time>
      </trkpt>
      <trkpt lat="42.610643" lon="1.104994">
        <ele>1443.8</ele>
        <time>1970-01-01T03:31:41.000Z</time>
      </trkpt>
      <trkpt lat="42.610796" lon="1.105083">
        <ele>1443.6</ele>
        <time>1970-01-01T03:31:44.000Z</time>
      </trkpt>
      <trkpt lat="42.611218" lon="1.105496">
        <ele>1443.2</ele>
        <time>1970-01-01T03:31:54.000Z</time>
      </trkpt>
      <trkpt lat="42.611411" lon="1.105558">
        <ele>1442.8</ele>
        <time>1970-01-01T03:31:58.000Z</time>
      </trkpt>
      <trkpt lat="42.611666" lon="1.10563">
        <ele>1442.6</ele>
        <time>1970-01-01T03:32:03.000Z</time>
      </trkpt>
      <trkpt lat="42.612066" lon="1.105702">
        <ele>1442.4</ele>
        <time>1970-01-01T03:32:11.000Z</time>
      </trkpt>
      <trkpt lat="42.612212" lon="1.105681">
        <ele>1442.2</ele>
        <time>1970-01-01T03:32:14.000Z</time>
      </trkpt>
      <trkpt lat="42.612497" lon="1.105726">
        <ele>1443.2</ele>
        <time>1970-01-01T03:32:20.000Z</time>
      </trkpt>
      <trkpt lat="42.612954" lon="1.105806">
        <ele>1443.4</ele>
        <time>1970-01-01T03:32:30.000Z</time>
      </trkpt>
      <trkpt lat="42.613379" lon="1.105739">
        <ele>1443.8</ele>
        <time>1970-01-01T03:32:39.000Z</time>
      </trkpt>
      <trkpt lat="42.613427" lon="1.105738">
        <ele>1444</ele>
        <time>1970-01-01T03:32:40.000Z</time>
      </trkpt>
      <trkpt lat="42.613743" lon="1.105785">
        <ele>1444.8</ele>
        <time>1970-01-01T03:32:47.000Z</time>
      </trkpt>
      <trkpt lat="42.613785" lon="1.105799">
        <ele>1445</ele>
        <time>1970-01-01T03:32:48.000Z</time>
      </trkpt>
      <trkpt lat="42.614208" lon="1.106051">
        <ele>1446.2</ele>
        <time>1970-01-01T03:32:58.000Z</time>
      </trkpt>
      <trkpt lat="42.614297" lon="1.106098">
        <ele>1446.4</ele>
        <time>1970-01-01T03:33:00.000Z</time>
      </trkpt>
      <trkpt lat="42.614592" lon="1.106211">
        <ele>1447.4</ele>
        <time>1970-01-01T03:33:07.000Z</time>
      </trkpt>
      <trkpt lat="42.614794" lon="1.10628">
        <ele>1448.6</ele>
        <time>1970-01-01T03:33:12.000Z</time>
      </trkpt>
      <trkpt lat="42.615212" lon="1.10649">
        <ele>1449.4</ele>
        <time>1970-01-01T03:33:22.000Z</time>
      </trkpt>
      <trkpt lat="42.615257" lon="1.106505">
        <ele>1449.6</ele>
        <time>1970-01-01T03:33:23.000Z</time>
      </trkpt>
      <trkpt lat="42.6155" lon="1.106575">
        <ele>1450</ele>
        <time>1970-01-01T03:33:28.000Z</time>
      </trkpt>
      <trkpt lat="42.615733" lon="1.106712">
        <ele>1450.2</ele>
        <time>1970-01-01T03:33:33.000Z</time>
      </trkpt>
      <trkpt lat="42.615964" lon="1.106732">
        <ele>1450.6</ele>
        <time>1970-01-01T03:33:38.000Z</time>
      </trkpt>
      <trkpt lat="42.616135" lon="1.106705">
        <ele>1451.2</ele>
        <time>1970-01-01T03:33:42.000Z</time>
      </trkpt>
      <trkpt lat="42.616216" lon="1.106697">
        <ele>1451.6</ele>
        <time>1970-01-01T03:33:44.000Z</time>
      </trkpt>
      <trkpt lat="42.616486" lon="1.106719">
        <ele>1452.6</ele>
        <time>1970-01-01T03:33:51.000Z</time>
      </trkpt>
      <trkpt lat="42.616905" lon="1.106848">
        <ele>1453.6</ele>
        <time>1970-01-01T03:34:02.000Z</time>
      </trkpt>
      <trkpt lat="42.617099" lon="1.106683">
        <ele>1454</ele>
        <time>1970-01-01T03:34:08.000Z</time>
      </trkpt>
      <trkpt lat="42.617244" lon="1.106143">
        <ele>1454.8</ele>
        <time>1970-01-01T03:34:18.000Z</time>
      </trkpt>
      <trkpt lat="42.617335" lon="1.105864">
        <ele>1454.8</ele>
        <time>1970-01-01T03:34:23.000Z</time>
      </trkpt>
      <trkpt lat="42.617451" lon="1.1052">
        <ele>1453.6</ele>
        <time>1970-01-01T03:34:32.000Z</time>
      </trkpt>
      <trkpt lat="42.617519" lon="1.104841">
        <ele>1452.8</ele>
        <time>1970-01-01T03:34:36.000Z</time>
      </trkpt>
      <trkpt lat="42.617612" lon="1.104451">
        <ele>1451.8</ele>
        <time>1970-01-01T03:34:40.000Z</time>
      </trkpt>
      <trkpt lat="42.617681" lon="1.104027">
        <ele>1450.4</ele>
        <time>1970-01-01T03:34:44.000Z</time>
      </trkpt>
      <trkpt lat="42.617707" lon="1.103698">
        <ele>1449</ele>
        <time>1970-01-01T03:34:47.000Z</time>
      </trkpt>
      <trkpt lat="42.61772" lon="1.103457">
        <ele>1447.8</ele>
        <time>1970-01-01T03:34:49.000Z</time>
      </trkpt>
      <trkpt lat="42.61774" lon="1.103205">
        <ele>1446.2</ele>
        <time>1970-01-01T03:34:51.000Z</time>
      </trkpt>
      <trkpt lat="42.617746" lon="1.103073">
        <ele>1445.2</ele>
        <time>1970-01-01T03:34:52.000Z</time>
      </trkpt>
      <trkpt lat="42.617746" lon="1.102935">
        <ele>1443.8</ele>
        <time>1970-01-01T03:34:53.000Z</time>
      </trkpt>
      <trkpt lat="42.617733" lon="1.102646">
        <ele>1442.4</ele>
        <time>1970-01-01T03:34:55.000Z</time>
      </trkpt>
      <trkpt lat="42.617729" lon="1.102348">
        <ele>1440.6</ele>
        <time>1970-01-01T03:34:57.000Z</time>
      </trkpt>
      <trkpt lat="42.617711" lon="1.102042">
        <ele>1438.8</ele>
        <time>1970-01-01T03:34:59.000Z</time>
      </trkpt>
      <trkpt lat="42.617695" lon="1.101757">
        <ele>1437.4</ele>
        <time>1970-01-01T03:35:01.000Z</time>
      </trkpt>
      <trkpt lat="42.617704" lon="1.10149">
        <ele>1436.8</ele>
        <time>1970-01-01T03:35:03.000Z</time>
      </trkpt>
      <trkpt lat="42.61774" lon="1.101125">
        <ele>1436.4</ele>
        <time>1970-01-01T03:35:06.000Z</time>
      </trkpt>
      <trkpt lat="42.617646" lon="1.100675">
        <ele>1435.2</ele>
        <time>1970-01-01T03:35:10.000Z</time>
      </trkpt>
      <trkpt lat="42.617549" lon="1.100214">
        <ele>1434.2</ele>
        <time>1970-01-01T03:35:14.000Z</time>
      </trkpt>
      <trkpt lat="42.617537" lon="1.099408">
        <ele>1433.6</ele>
        <time>1970-01-01T03:35:22.000Z</time>
      </trkpt>
      <trkpt lat="42.617554" lon="1.099185">
        <ele>1433.8</ele>
        <time>1970-01-01T03:35:25.000Z</time>
      </trkpt>
      <trkpt lat="42.617515" lon="1.098927">
        <ele>1435.6</ele>
        <time>1970-01-01T03:35:31.000Z</time>
      </trkpt>
      <trkpt lat="42.617442" lon="1.09879">
        <ele>1436.6</ele>
        <time>1970-01-01T03:35:37.000Z</time>
      </trkpt>
      <trkpt lat="42.617352" lon="1.09803">
        <ele>1437.4</ele>
        <time>1970-01-01T03:35:52.000Z</time>
      </trkpt>
      <trkpt lat="42.617355" lon="1.09785">
        <ele>1437.6</ele>
        <time>1970-01-01T03:35:55.000Z</time>
      </trkpt>
      <trkpt lat="42.617381" lon="1.09739">
        <ele>1438.6</ele>
        <time>1970-01-01T03:36:03.000Z</time>
      </trkpt>
      <trkpt lat="42.617458" lon="1.097006">
        <ele>1440</ele>
        <time>1970-01-01T03:36:11.000Z</time>
      </trkpt>
      <trkpt lat="42.617625" lon="1.096667">
        <ele>1441</ele>
        <time>1970-01-01T03:36:19.000Z</time>
      </trkpt>
      <trkpt lat="42.617912" lon="1.096447">
        <ele>1442.2</ele>
        <time>1970-01-01T03:36:27.000Z</time>
      </trkpt>
      <trkpt lat="42.618372" lon="1.096201">
        <ele>1443</ele>
        <time>1970-01-01T03:36:39.000Z</time>
      </trkpt>
      <trkpt lat="42.618572" lon="1.09606">
        <ele>1443.2</ele>
        <time>1970-01-01T03:36:44.000Z</time>
      </trkpt>
      <trkpt lat="42.618646" lon="1.096003">
        <ele>1443.4</ele>
        <time>1970-01-01T03:36:46.000Z</time>
      </trkpt>
      <trkpt lat="42.618817" lon="1.095873">
        <ele>1444.6</ele>
        <time>1970-01-01T03:36:51.000Z</time>
      </trkpt>
      <trkpt lat="42.618933" lon="1.095801">
        <ele>1444.8</ele>
        <time>1970-01-01T03:36:54.000Z</time>
      </trkpt>
      <trkpt lat="42.619031" lon="1.095774">
        <ele>1444.6</ele>
        <time>1970-01-01T03:36:56.000Z</time>
      </trkpt>
      <trkpt lat="42.619171" lon="1.09571">
        <ele>1443.6</ele>
        <time>1970-01-01T03:36:59.000Z</time>
      </trkpt>
      <trkpt lat="42.619276" lon="1.095652">
        <ele>1442.8</ele>
        <time>1970-01-01T03:37:02.000Z</time>
      </trkpt>
      <trkpt lat="42.619276" lon="1.09532">
        <ele>1444.4</ele>
        <time>1970-01-01T03:37:14.000Z</time>
      </trkpt>
      <trkpt lat="42.619291" lon="1.095382">
        <ele>1444.4</ele>
        <time>1970-01-01T03:44:19.000Z</time>
      </trkpt>
      <trkpt lat="42.61929" lon="1.095536">
        <ele>1443.4</ele>
        <time>1970-01-01T03:44:25.000Z</time>
      </trkpt>
      <trkpt lat="42.619344" lon="1.095638">
        <ele>1442.8</ele>
        <time>1970-01-01T03:44:31.000Z</time>
      </trkpt>
      <trkpt lat="42.619539" lon="1.095653">
        <ele>1444.6</ele>
        <time>1970-01-01T03:44:41.000Z</time>
      </trkpt>
      <trkpt lat="42.619649" lon="1.095666">
        <ele>1445.6</ele>
        <time>1970-01-01T03:44:46.000Z</time>
      </trkpt>
      <trkpt lat="42.619797" lon="1.095732">
        <ele>1446.6</ele>
        <time>1970-01-01T03:44:53.000Z</time>
      </trkpt>
      <trkpt lat="42.619979" lon="1.095856">
        <ele>1447.8</ele>
        <time>1970-01-01T03:45:02.000Z</time>
      </trkpt>
      <trkpt lat="42.620165" lon="1.095973">
        <ele>1448.8</ele>
        <time>1970-01-01T03:45:12.000Z</time>
      </trkpt>
      <trkpt lat="42.620352" lon="1.096206">
        <ele>1449.2</ele>
        <time>1970-01-01T03:45:23.000Z</time>
      </trkpt>
      <trkpt lat="42.620667" lon="1.09682">
        <ele>1447.8</ele>
        <time>1970-01-01T03:45:43.000Z</time>
      </trkpt>
      <trkpt lat="42.620674" lon="1.096866">
        <ele>1447.4</ele>
        <time>1970-01-01T03:45:44.000Z</time>
      </trkpt>
      <trkpt lat="42.620752" lon="1.096971">
        <ele>1446.4</ele>
        <time>1970-01-01T03:45:48.000Z</time>
      </trkpt>
      <trkpt lat="42.620781" lon="1.09699">
        <ele>1446.2</ele>
        <time>1970-01-01T03:45:49.000Z</time>
      </trkpt>
      <trkpt lat="42.620831" lon="1.097025">
        <ele>1446</ele>
        <time>1970-01-01T03:45:51.000Z</time>
      </trkpt>
      <trkpt lat="42.620865" lon="1.097024">
        <ele>1446</ele>
        <time>1970-01-01T03:45:54.000Z</time>
      </trkpt>
      <trkpt lat="42.620852" lon="1.097012">
        <ele>1446</ele>
        <time>1970-01-01T03:46:05.000Z</time>
      </trkpt>
      <trkpt lat="42.620692" lon="1.096796">
        <ele>1447</ele>
        <time>1970-01-01T03:46:17.000Z</time>
      </trkpt>
      <trkpt lat="42.620711" lon="1.096749">
        <ele>1447.4</ele>
        <time>1970-01-01T03:46:19.000Z</time>
      </trkpt>
      <trkpt lat="42.620736" lon="1.096676">
        <ele>1448.6</ele>
        <time>1970-01-01T03:46:22.000Z</time>
      </trkpt>
      <trkpt lat="42.620835" lon="1.096569">
        <ele>1450</ele>
        <time>1970-01-01T03:46:29.000Z</time>
      </trkpt>
      <trkpt lat="42.620929" lon="1.096545">
        <ele>1451.2</ele>
        <time>1970-01-01T03:46:34.000Z</time>
      </trkpt>
      <trkpt lat="42.620978" lon="1.096549">
        <ele>1451.8</ele>
        <time>1970-01-01T03:46:37.000Z</time>
      </trkpt>
      <trkpt lat="42.620988" lon="1.09655">
        <ele>1452.2</ele>
        <time>1970-01-01T03:46:40.000Z</time>
      </trkpt>
      <trkpt lat="42.621006" lon="1.096597">
        <ele>1452.2</ele>
        <time>1970-01-01T03:46:45.000Z</time>
      </trkpt>
      <trkpt lat="42.621037" lon="1.096692">
        <ele>1451.6</ele>
        <time>1970-01-01T03:46:49.000Z</time>
      </trkpt>
      <trkpt lat="42.621122" lon="1.096821">
        <ele>1450.2</ele>
        <time>1970-01-01T03:46:55.000Z</time>
      </trkpt>
      <trkpt lat="42.621207" lon="1.096889">
        <ele>1449</ele>
        <time>1970-01-01T03:46:59.000Z</time>
      </trkpt>
      <trkpt lat="42.621233" lon="1.09689">
        <ele>1448.8</ele>
        <time>1970-01-01T03:47:00.000Z</time>
      </trkpt>
      <trkpt lat="42.621477" lon="1.096763">
        <ele>1448.6</ele>
        <time>1970-01-01T03:47:12.000Z</time>
      </trkpt>
      <trkpt lat="42.621513" lon="1.096737">
        <ele>1448.4</ele>
        <time>1970-01-01T03:47:15.000Z</time>
      </trkpt>
      <trkpt lat="42.621823" lon="1.096553">
        <ele>1448</ele>
        <time>1970-01-01T03:47:27.000Z</time>
      </trkpt>
      <trkpt lat="42.622201" lon="1.096638">
        <ele>1449.2</ele>
        <time>1970-01-01T03:47:42.000Z</time>
      </trkpt>
      <trkpt lat="42.622339" lon="1.096774">
        <ele>1450.2</ele>
        <time>1970-01-01T03:47:49.000Z</time>
      </trkpt>
      <trkpt lat="42.62236" lon="1.096788">
        <ele>1450.4</ele>
        <time>1970-01-01T03:47:50.000Z</time>
      </trkpt>
      <trkpt lat="42.622465" lon="1.096862">
        <ele>1451.4</ele>
        <time>1970-01-01T03:47:55.000Z</time>
      </trkpt>
      <trkpt lat="42.62258" lon="1.096941">
        <ele>1452.6</ele>
        <time>1970-01-01T03:48:01.000Z</time>
      </trkpt>
      <trkpt lat="42.622686" lon="1.097012">
        <ele>1454</ele>
        <time>1970-01-01T03:48:06.000Z</time>
      </trkpt>
      <trkpt lat="42.622773" lon="1.097088">
        <ele>1455.2</ele>
        <time>1970-01-01T03:48:11.000Z</time>
      </trkpt>
      <trkpt lat="42.622897" lon="1.097197">
        <ele>1456.2</ele>
        <time>1970-01-01T03:48:18.000Z</time>
      </trkpt>
      <trkpt lat="42.623033" lon="1.097295">
        <ele>1457.4</ele>
        <time>1970-01-01T03:48:26.000Z</time>
      </trkpt>
      <trkpt lat="42.623176" lon="1.097488">
        <ele>1458.4</ele>
        <time>1970-01-01T03:48:36.000Z</time>
      </trkpt>
      <trkpt lat="42.623306" lon="1.097658">
        <ele>1458.4</ele>
        <time>1970-01-01T03:48:43.000Z</time>
      </trkpt>
      <trkpt lat="42.62344" lon="1.097795">
        <ele>1459.4</ele>
        <time>1970-01-01T03:48:51.000Z</time>
      </trkpt>
      <trkpt lat="42.623573" lon="1.097989">
        <ele>1460.4</ele>
        <time>1970-01-01T03:49:00.000Z</time>
      </trkpt>
      <trkpt lat="42.623665" lon="1.098123">
        <ele>1461.4</ele>
        <time>1970-01-01T03:49:06.000Z</time>
      </trkpt>
      <trkpt lat="42.623983" lon="1.09841">
        <ele>1460.2</ele>
        <time>1970-01-01T03:49:17.000Z</time>
      </trkpt>
      <trkpt lat="42.624122" lon="1.098561">
        <ele>1459</ele>
        <time>1970-01-01T03:49:21.000Z</time>
      </trkpt>
      <trkpt lat="42.624327" lon="1.098794">
        <ele>1460.2</ele>
        <time>1970-01-01T03:49:30.000Z</time>
      </trkpt>
      <trkpt lat="42.624728" lon="1.099138">
        <ele>1461</ele>
        <time>1970-01-01T03:49:46.000Z</time>
      </trkpt>
      <trkpt lat="42.624841" lon="1.099159">
        <ele>1461.2</ele>
        <time>1970-01-01T03:49:49.000Z</time>
      </trkpt>
      <trkpt lat="42.624906" lon="1.099185">
        <ele>1461.4</ele>
        <time>1970-01-01T03:49:51.000Z</time>
      </trkpt>
      <trkpt lat="42.625055" lon="1.099278">
        <ele>1462.2</ele>
        <time>1970-01-01T03:49:56.000Z</time>
      </trkpt>
      <trkpt lat="42.625495" lon="1.099728">
        <ele>1462.6</ele>
        <time>1970-01-01T03:50:11.000Z</time>
      </trkpt>
      <trkpt lat="42.625534" lon="1.099759">
        <ele>1462.4</ele>
        <time>1970-01-01T03:50:14.000Z</time>
      </trkpt>
      <trkpt lat="42.625553" lon="1.099775">
        <ele>1462.2</ele>
        <time>1970-01-01T03:50:41.000Z</time>
      </trkpt>
      <trkpt lat="42.625773" lon="1.099902">
        <ele>1461.2</ele>
        <time>1970-01-01T03:50:50.000Z</time>
      </trkpt>
      <trkpt lat="42.626033" lon="1.100057">
        <ele>1460.6</ele>
        <time>1970-01-01T03:51:01.000Z</time>
      </trkpt>
      <trkpt lat="42.62607" lon="1.10012">
        <ele>1462.4</ele>
        <time>1970-01-01T03:51:05.000Z</time>
      </trkpt>
      <trkpt lat="42.626502" lon="1.100493">
        <ele>1461.4</ele>
        <time>1970-01-01T03:51:24.000Z</time>
      </trkpt>
      <trkpt lat="42.626571" lon="1.100556">
        <ele>1461</ele>
        <time>1970-01-01T03:51:26.000Z</time>
      </trkpt>
      <trkpt lat="42.626684" lon="1.100681">
        <ele>1460</ele>
        <time>1970-01-01T03:51:29.000Z</time>
      </trkpt>
      <trkpt lat="42.626757" lon="1.100759">
        <ele>1459.8</ele>
        <time>1970-01-01T03:51:31.000Z</time>
      </trkpt>
      <trkpt lat="42.626824" lon="1.100835">
        <ele>1459.8</ele>
        <time>1970-01-01T03:51:33.000Z</time>
      </trkpt>
      <trkpt lat="42.626986" lon="1.101003">
        <ele>1460</ele>
        <time>1970-01-01T03:51:38.000Z</time>
      </trkpt>
      <trkpt lat="42.627185" lon="1.1014">
        <ele>1459</ele>
        <time>1970-01-01T03:51:45.000Z</time>
      </trkpt>
      <trkpt lat="42.62724" lon="1.101536">
        <ele>1458.6</ele>
        <time>1970-01-01T03:51:47.000Z</time>
      </trkpt>
      <trkpt lat="42.627367" lon="1.101747">
        <ele>1458</ele>
        <time>1970-01-01T03:51:51.000Z</time>
      </trkpt>
      <trkpt lat="42.627548" lon="1.102011">
        <ele>1459.2</ele>
        <time>1970-01-01T03:51:58.000Z</time>
      </trkpt>
      <trkpt lat="42.627681" lon="1.102181">
        <ele>1460.4</ele>
        <time>1970-01-01T03:52:04.000Z</time>
      </trkpt>
      <trkpt lat="42.627806" lon="1.10239">
        <ele>1461.4</ele>
        <time>1970-01-01T03:52:11.000Z</time>
      </trkpt>
      <trkpt lat="42.627945" lon="1.102557">
        <ele>1462.2</ele>
        <time>1970-01-01T03:52:17.000Z</time>
      </trkpt>
      <trkpt lat="42.628115" lon="1.102852">
        <ele>1460.8</ele>
        <time>1970-01-01T03:52:25.000Z</time>
      </trkpt>
      <trkpt lat="42.628155" lon="1.102917">
        <ele>1460.4</ele>
        <time>1970-01-01T03:52:27.000Z</time>
      </trkpt>
      <trkpt lat="42.628378" lon="1.103122">
        <ele>1461.6</ele>
        <time>1970-01-01T03:52:38.000Z</time>
      </trkpt>
      <trkpt lat="42.62844" lon="1.103151">
        <ele>1462.6</ele>
        <time>1970-01-01T03:52:41.000Z</time>
      </trkpt>
      <trkpt lat="42.628555" lon="1.103122">
        <ele>1463.8</ele>
        <time>1970-01-01T03:52:46.000Z</time>
      </trkpt>
      <trkpt lat="42.628613" lon="1.103085">
        <ele>1464.6</ele>
        <time>1970-01-01T03:52:49.000Z</time>
      </trkpt>
      <trkpt lat="42.628649" lon="1.103061">
        <ele>1465</ele>
        <time>1970-01-01T03:52:51.000Z</time>
      </trkpt>
      <trkpt lat="42.628672" lon="1.10304">
        <ele>1465.6</ele>
        <time>1970-01-01T03:52:54.000Z</time>
      </trkpt>
      <trkpt lat="42.628693" lon="1.103038">
        <ele>1465.4</ele>
        <time>1970-01-01T03:53:09.000Z</time>
      </trkpt>
      <trkpt lat="42.628794" lon="1.102988">
        <ele>1465.2</ele>
        <time>1970-01-01T03:53:13.000Z</time>
      </trkpt>
      <trkpt lat="42.628939" lon="1.102875">
        <ele>1464.2</ele>
        <time>1970-01-01T03:53:18.000Z</time>
      </trkpt>
      <trkpt lat="42.62917" lon="1.10263">
        <ele>1465.2</ele>
        <time>1970-01-01T03:53:30.000Z</time>
      </trkpt>
      <trkpt lat="42.629349" lon="1.102522">
        <ele>1466.4</ele>
        <time>1970-01-01T03:53:38.000Z</time>
      </trkpt>
      <trkpt lat="42.629845" lon="1.10224">
        <ele>1465</ele>
        <time>1970-01-01T03:54:02.000Z</time>
      </trkpt>
      <trkpt lat="42.629902" lon="1.102196">
        <ele>1463.8</ele>
        <time>1970-01-01T03:54:05.000Z</time>
      </trkpt>
      <trkpt lat="42.62996" lon="1.102191">
        <ele>1462.8</ele>
        <time>1970-01-01T03:54:09.000Z</time>
      </trkpt>
      <trkpt lat="42.630027" lon="1.102121">
        <ele>1461.8</ele>
        <time>1970-01-01T03:54:15.000Z</time>
      </trkpt>
      <trkpt lat="42.630075" lon="1.102054">
        <ele>1460.6</ele>
        <time>1970-01-01T03:54:19.000Z</time>
      </trkpt>
      <trkpt lat="42.630125" lon="1.10197">
        <ele>1459.4</ele>
        <time>1970-01-01T03:54:23.000Z</time>
      </trkpt>
      <trkpt lat="42.630136" lon="1.101953">
        <ele>1459</ele>
        <time>1970-01-01T03:54:25.000Z</time>
      </trkpt>
      <trkpt lat="42.630202" lon="1.101903">
        <ele>1457.4</ele>
        <time>1970-01-01T03:55:00.000Z</time>
      </trkpt>
      <trkpt lat="42.630262" lon="1.101826">
        <ele>1456.4</ele>
        <time>1970-01-01T03:55:03.000Z</time>
      </trkpt>
      <trkpt lat="42.630381" lon="1.101696">
        <ele>1455.2</ele>
        <time>1970-01-01T03:55:08.000Z</time>
      </trkpt>
      <trkpt lat="42.630613" lon="1.101406">
        <ele>1455.8</ele>
        <time>1970-01-01T03:55:19.000Z</time>
      </trkpt>
      <trkpt lat="42.630828" lon="1.101113">
        <ele>1456.4</ele>
        <time>1970-01-01T03:55:32.000Z</time>
      </trkpt>
      <trkpt lat="42.630873" lon="1.101028">
        <ele>1457.6</ele>
        <time>1970-01-01T03:55:36.000Z</time>
      </trkpt>
      <trkpt lat="42.631136" lon="1.10068">
        <ele>1457.4</ele>
        <time>1970-01-01T03:55:48.000Z</time>
      </trkpt>
      <trkpt lat="42.631322" lon="1.100467">
        <ele>1458.6</ele>
        <time>1970-01-01T03:55:59.000Z</time>
      </trkpt>
      <trkpt lat="42.631785" lon="1.100032">
        <ele>1457.8</ele>
        <time>1970-01-01T03:56:23.000Z</time>
      </trkpt>
      <trkpt lat="42.63182" lon="1.100008">
        <ele>1457.8</ele>
        <time>1970-01-01T03:56:26.000Z</time>
      </trkpt>
      <trkpt lat="42.631876" lon="1.099901">
        <ele>1458.6</ele>
        <time>1970-01-01T03:56:32.000Z</time>
      </trkpt>
      <trkpt lat="42.632036" lon="1.099601">
        <ele>1457.2</ele>
        <time>1970-01-01T03:56:42.000Z</time>
      </trkpt>
      <trkpt lat="42.632074" lon="1.099515">
        <ele>1456</ele>
        <time>1970-01-01T03:56:44.000Z</time>
      </trkpt>
      <trkpt lat="42.632118" lon="1.099415">
        <ele>1454.4</ele>
        <time>1970-01-01T03:56:46.000Z</time>
      </trkpt>
      <trkpt lat="42.632151" lon="1.099319">
        <ele>1453.4</ele>
        <time>1970-01-01T03:56:49.000Z</time>
      </trkpt>
      <trkpt lat="42.632152" lon="1.099309">
        <ele>1453.2</ele>
        <time>1970-01-01T03:56:50.000Z</time>
      </trkpt>
      <trkpt lat="42.632199" lon="1.099211">
        <ele>1452.6</ele>
        <time>1970-01-01T03:57:24.000Z</time>
      </trkpt>
      <trkpt lat="42.632254" lon="1.099091">
        <ele>1451.6</ele>
        <time>1970-01-01T03:57:28.000Z</time>
      </trkpt>
      <trkpt lat="42.632339" lon="1.098889">
        <ele>1450.2</ele>
        <time>1970-01-01T03:57:36.000Z</time>
      </trkpt>
      <trkpt lat="42.632395" lon="1.098797">
        <ele>1448.8</ele>
        <time>1970-01-01T03:57:39.000Z</time>
      </trkpt>
      <trkpt lat="42.63252" lon="1.098627">
        <ele>1448</ele>
        <time>1970-01-01T03:57:43.000Z</time>
      </trkpt>
      <trkpt lat="42.632553" lon="1.098585">
        <ele>1447.6</ele>
        <time>1970-01-01T03:57:44.000Z</time>
      </trkpt>
      <trkpt lat="42.63276" lon="1.098207">
        <ele>1448.2</ele>
        <time>1970-01-01T03:57:56.000Z</time>
      </trkpt>
      <trkpt lat="42.632865" lon="1.097957">
        <ele>1446.4</ele>
        <time>1970-01-01T03:58:03.000Z</time>
      </trkpt>
      <trkpt lat="42.632879" lon="1.097916">
        <ele>1445.6</ele>
        <time>1970-01-01T03:58:06.000Z</time>
      </trkpt>
      <trkpt lat="42.632924" lon="1.097798">
        <ele>1444</ele>
        <time>1970-01-01T03:58:18.000Z</time>
      </trkpt>
      <trkpt lat="42.632934" lon="1.097775">
        <ele>1443.8</ele>
        <time>1970-01-01T03:58:19.000Z</time>
      </trkpt>
      <trkpt lat="42.632959" lon="1.097731">
        <ele>1443.4</ele>
        <time>1970-01-01T03:58:21.000Z</time>
      </trkpt>
      <trkpt lat="42.63297" lon="1.0977">
        <ele>1443</ele>
        <time>1970-01-01T03:58:22.000Z</time>
      </trkpt>
      <trkpt lat="42.632997" lon="1.097599">
        <ele>1442.4</ele>
        <time>1970-01-01T03:58:25.000Z</time>
      </trkpt>
      <trkpt lat="42.63303" lon="1.097528">
        <ele>1441.8</ele>
        <time>1970-01-01T03:58:28.000Z</time>
      </trkpt>
      <trkpt lat="42.633109" lon="1.097351">
        <ele>1440.6</ele>
        <time>1970-01-01T03:58:34.000Z</time>
      </trkpt>
      <trkpt lat="42.633127" lon="1.097176">
        <ele>1439.4</ele>
        <time>1970-01-01T03:58:39.000Z</time>
      </trkpt>
      <trkpt lat="42.633209" lon="1.09697">
        <ele>1438.6</ele>
        <time>1970-01-01T03:58:45.000Z</time>
      </trkpt>
      <trkpt lat="42.633387" lon="1.096688">
        <ele>1438.2</ele>
        <time>1970-01-01T03:58:53.000Z</time>
      </trkpt>
      <trkpt lat="42.633413" lon="1.096637">
        <ele>1437.8</ele>
        <time>1970-01-01T03:58:54.000Z</time>
      </trkpt>
      <trkpt lat="42.633448" lon="1.096583">
        <ele>1437.2</ele>
        <time>1970-01-01T03:58:55.000Z</time>
      </trkpt>
      <trkpt lat="42.633513" lon="1.096492">
        <ele>1436.2</ele>
        <time>1970-01-01T03:58:57.000Z</time>
      </trkpt>
      <trkpt lat="42.633763" lon="1.096222">
        <ele>1435.2</ele>
        <time>1970-01-01T03:59:10.000Z</time>
      </trkpt>
      <trkpt lat="42.633778" lon="1.096199">
        <ele>1434.8</ele>
        <time>1970-01-01T03:59:11.000Z</time>
      </trkpt>
      <trkpt lat="42.633864" lon="1.09611">
        <ele>1433.8</ele>
        <time>1970-01-01T03:59:16.000Z</time>
      </trkpt>
      <trkpt lat="42.633988" lon="1.095999">
        <ele>1432.6</ele>
        <time>1970-01-01T03:59:22.000Z</time>
      </trkpt>
      <trkpt lat="42.634014" lon="1.095985">
        <ele>1432.2</ele>
        <time>1970-01-01T03:59:24.000Z</time>
      </trkpt>
      <trkpt lat="42.634087" lon="1.09593">
        <ele>1432</ele>
        <time>1970-01-01T04:00:21.000Z</time>
      </trkpt>
      <trkpt lat="42.634342" lon="1.095502">
        <ele>1432.8</ele>
        <time>1970-01-01T04:00:37.000Z</time>
      </trkpt>
      <trkpt lat="42.634427" lon="1.095379">
        <ele>1432.2</ele>
        <time>1970-01-01T04:00:41.000Z</time>
      </trkpt>
      <trkpt lat="42.634554" lon="1.095236">
        <ele>1431.2</ele>
        <time>1970-01-01T04:00:45.000Z</time>
      </trkpt>
      <trkpt lat="42.634788" lon="1.09488">
        <ele>1430.2</ele>
        <time>1970-01-01T04:00:57.000Z</time>
      </trkpt>
      <trkpt lat="42.634857" lon="1.09473">
        <ele>1429</ele>
        <time>1970-01-01T04:01:01.000Z</time>
      </trkpt>
      <trkpt lat="42.634899" lon="1.09466">
        <ele>1428</ele>
        <time>1970-01-01T04:01:03.000Z</time>
      </trkpt>
      <trkpt lat="42.634933" lon="1.094586">
        <ele>1427</ele>
        <time>1970-01-01T04:01:05.000Z</time>
      </trkpt>
      <trkpt lat="42.634982" lon="1.094538">
        <ele>1425.8</ele>
        <time>1970-01-01T04:01:07.000Z</time>
      </trkpt>
      <trkpt lat="42.635071" lon="1.094452">
        <ele>1424.2</ele>
        <time>1970-01-01T04:01:10.000Z</time>
      </trkpt>
      <trkpt lat="42.635103" lon="1.094405">
        <ele>1423.6</ele>
        <time>1970-01-01T04:01:11.000Z</time>
      </trkpt>
      <trkpt lat="42.635132" lon="1.094352">
        <ele>1423</ele>
        <time>1970-01-01T04:01:12.000Z</time>
      </trkpt>
      <trkpt lat="42.635185" lon="1.094288">
        <ele>1422</ele>
        <time>1970-01-01T04:01:14.000Z</time>
      </trkpt>
      <trkpt lat="42.635255" lon="1.09425">
        <ele>1420.8</ele>
        <time>1970-01-01T04:01:16.000Z</time>
      </trkpt>
      <trkpt lat="42.635334" lon="1.094186">
        <ele>1419.4</ele>
        <time>1970-01-01T04:01:19.000Z</time>
      </trkpt>
      <trkpt lat="42.63538" lon="1.094145">
        <ele>1418.4</ele>
        <time>1970-01-01T04:01:21.000Z</time>
      </trkpt>
      <trkpt lat="42.635413" lon="1.094105">
        <ele>1417.8</ele>
        <time>1970-01-01T04:01:23.000Z</time>
      </trkpt>
      <trkpt lat="42.635446" lon="1.094057">
        <ele>1417</ele>
        <time>1970-01-01T04:01:25.000Z</time>
      </trkpt>
      <trkpt lat="42.635481" lon="1.094015">
        <ele>1415.8</ele>
        <time>1970-01-01T04:01:27.000Z</time>
      </trkpt>
      <trkpt lat="42.635492" lon="1.093994">
        <ele>1415.6</ele>
        <time>1970-01-01T04:01:28.000Z</time>
      </trkpt>
      <trkpt lat="42.635529" lon="1.093927">
        <ele>1414.8</ele>
        <time>1970-01-01T04:01:31.000Z</time>
      </trkpt>
      <trkpt lat="42.635577" lon="1.093861">
        <ele>1413.4</ele>
        <time>1970-01-01T04:01:35.000Z</time>
      </trkpt>
      <trkpt lat="42.6356" lon="1.093844">
        <ele>1413</ele>
        <time>1970-01-01T04:01:36.000Z</time>
      </trkpt>
      <trkpt lat="42.635651" lon="1.093815">
        <ele>1412.2</ele>
        <time>1970-01-01T04:01:38.000Z</time>
      </trkpt>
      <trkpt lat="42.635686" lon="1.09374">
        <ele>1411.4</ele>
        <time>1970-01-01T04:01:41.000Z</time>
      </trkpt>
      <trkpt lat="42.635692" lon="1.093727">
        <ele>1411.2</ele>
        <time>1970-01-01T04:01:42.000Z</time>
      </trkpt>
      <trkpt lat="42.635695" lon="1.09372">
        <ele>1411</ele>
        <time>1970-01-01T04:01:43.000Z</time>
      </trkpt>
      <trkpt lat="42.63571" lon="1.093668">
        <ele>1410.4</ele>
        <time>1970-01-01T04:01:54.000Z</time>
      </trkpt>
      <trkpt lat="42.635718" lon="1.093591">
        <ele>1410</ele>
        <time>1970-01-01T04:01:56.000Z</time>
      </trkpt>
      <trkpt lat="42.635727" lon="1.093494">
        <ele>1409.2</ele>
        <time>1970-01-01T04:01:58.000Z</time>
      </trkpt>
      <trkpt lat="42.635736" lon="1.09344">
        <ele>1409</ele>
        <time>1970-01-01T04:01:59.000Z</time>
      </trkpt>
      <trkpt lat="42.635826" lon="1.093253">
        <ele>1407.2</ele>
        <time>1970-01-01T04:02:03.000Z</time>
      </trkpt>
      <trkpt lat="42.635848" lon="1.09321">
        <ele>1406.8</ele>
        <time>1970-01-01T04:02:04.000Z</time>
      </trkpt>
      <trkpt lat="42.635922" lon="1.093135">
        <ele>1406</ele>
        <time>1970-01-01T04:02:06.000Z</time>
      </trkpt>
      <trkpt lat="42.636053" lon="1.093083">
        <ele>1404.6</ele>
        <time>1970-01-01T04:02:09.000Z</time>
      </trkpt>
      <trkpt lat="42.636094" lon="1.093065">
        <ele>1404.2</ele>
        <time>1970-01-01T04:02:10.000Z</time>
      </trkpt>
      <trkpt lat="42.636223" lon="1.093009">
        <ele>1403.2</ele>
        <time>1970-01-01T04:02:13.000Z</time>
      </trkpt>
      <trkpt lat="42.636324" lon="1.092993">
        <ele>1402</ele>
        <time>1970-01-01T04:02:15.000Z</time>
      </trkpt>
      <trkpt lat="42.636415" lon="1.092977">
        <ele>1400.8</ele>
        <time>1970-01-01T04:02:17.000Z</time>
      </trkpt>
      <trkpt lat="42.636454" lon="1.092969">
        <ele>1399.8</ele>
        <time>1970-01-01T04:02:18.000Z</time>
      </trkpt>
      <trkpt lat="42.636501" lon="1.09294">
        <ele>1398</ele>
        <time>1970-01-01T04:02:20.000Z</time>
      </trkpt>
      <trkpt lat="42.636514" lon="1.092917">
        <ele>1397.4</ele>
        <time>1970-01-01T04:02:21.000Z</time>
      </trkpt>
      <trkpt lat="42.636534" lon="1.092872">
        <ele>1397</ele>
        <time>1970-01-01T04:02:23.000Z</time>
      </trkpt>
      <trkpt lat="42.636573" lon="1.092838">
        <ele>1395.8</ele>
        <time>1970-01-01T04:02:26.000Z</time>
      </trkpt>
      <trkpt lat="42.636617" lon="1.092821">
        <ele>1394.2</ele>
        <time>1970-01-01T04:02:29.000Z</time>
      </trkpt>
      <trkpt lat="42.636659" lon="1.092789">
        <ele>1393</ele>
        <time>1970-01-01T04:02:31.000Z</time>
      </trkpt>
      <trkpt lat="42.636703" lon="1.092733">
        <ele>1391.8</ele>
        <time>1970-01-01T04:02:33.000Z</time>
      </trkpt>
      <trkpt lat="42.636732" lon="1.092675">
        <ele>1390.2</ele>
        <time>1970-01-01T04:02:35.000Z</time>
      </trkpt>
      <trkpt lat="42.636741" lon="1.092653">
        <ele>1389.6</ele>
        <time>1970-01-01T04:02:37.000Z</time>
      </trkpt>
      <trkpt lat="42.636794" lon="1.092571">
        <ele>1389</ele>
        <time>1970-01-01T04:03:31.000Z</time>
      </trkpt>
      <trkpt lat="42.636866" lon="1.092463">
        <ele>1388.2</ele>
        <time>1970-01-01T04:03:36.000Z</time>
      </trkpt>
      <trkpt lat="42.636885" lon="1.092443">
        <ele>1387.8</ele>
        <time>1970-01-01T04:03:37.000Z</time>
      </trkpt>
      <trkpt lat="42.636941" lon="1.092385">
        <ele>1386.6</ele>
        <time>1970-01-01T04:03:40.000Z</time>
      </trkpt>
      <trkpt lat="42.636998" lon="1.092338">
        <ele>1385.6</ele>
        <time>1970-01-01T04:03:43.000Z</time>
      </trkpt>
      <trkpt lat="42.637037" lon="1.092308">
        <ele>1384.4</ele>
        <time>1970-01-01T04:03:46.000Z</time>
      </trkpt>
      <trkpt lat="42.637044" lon="1.092306">
        <ele>1383.8</ele>
        <time>1970-01-01T04:03:48.000Z</time>
      </trkpt>
      <trkpt lat="42.637134" lon="1.092244">
        <ele>1383.6</ele>
        <time>1970-01-01T04:03:55.000Z</time>
      </trkpt>
      <trkpt lat="42.63718" lon="1.092209">
        <ele>1383.4</ele>
        <time>1970-01-01T04:03:57.000Z</time>
      </trkpt>
      <trkpt lat="42.63729" lon="1.092097">
        <ele>1382.2</ele>
        <time>1970-01-01T04:04:02.000Z</time>
      </trkpt>
      <trkpt lat="42.637325" lon="1.092016">
        <ele>1382</ele>
        <time>1970-01-01T04:04:07.000Z</time>
      </trkpt>
      <trkpt lat="42.637382" lon="1.091929">
        <ele>1382.4</ele>
        <time>1970-01-01T04:04:27.000Z</time>
      </trkpt>
      <trkpt lat="42.637418" lon="1.091875">
        <ele>1382.6</ele>
        <time>1970-01-01T04:04:30.000Z</time>
      </trkpt>
      <trkpt lat="42.637502" lon="1.091622">
        <ele>1382.8</ele>
        <time>1970-01-01T04:04:42.000Z</time>
      </trkpt>
      <trkpt lat="42.637513" lon="1.091721">
        <ele>1382.4</ele>
        <time>1970-01-01T04:04:53.000Z</time>
      </trkpt>
      <trkpt lat="42.637492" lon="1.091816">
        <ele>1382.6</ele>
        <time>1970-01-01T04:05:00.000Z</time>
      </trkpt>
      <trkpt lat="42.637479" lon="1.091859">
        <ele>1382.6</ele>
        <time>1970-01-01T04:05:02.000Z</time>
      </trkpt>
      <trkpt lat="42.637448" lon="1.091913">
        <ele>1382.4</ele>
        <time>1970-01-01T04:05:05.000Z</time>
      </trkpt>
      <trkpt lat="42.637328" lon="1.092096">
        <ele>1381.8</ele>
        <time>1970-01-01T04:05:20.000Z</time>
      </trkpt>
      <trkpt lat="42.63723" lon="1.092176">
        <ele>1383</ele>
        <time>1970-01-01T04:05:35.000Z</time>
      </trkpt>
      <trkpt lat="42.637224" lon="1.092182">
        <ele>1383.2</ele>
        <time>1970-01-01T04:05:36.000Z</time>
      </trkpt>
      <trkpt lat="42.637334" lon="1.090953">
        <ele>1406.2</ele>
        <time>1970-01-01T04:10:33.000Z</time>
      </trkpt>
      <trkpt lat="42.637345" lon="1.090849">
        <ele>1407</ele>
        <time>1970-01-01T04:10:39.000Z</time>
      </trkpt>
      <trkpt lat="42.637345" lon="1.090812">
        <ele>1407.4</ele>
        <time>1970-01-01T04:10:41.000Z</time>
      </trkpt>
      <trkpt lat="42.637347" lon="1.090717">
        <ele>1408.4</ele>
        <time>1970-01-01T04:10:46.000Z</time>
      </trkpt>
      <trkpt lat="42.637342" lon="1.090698">
        <ele>1408.6</ele>
        <time>1970-01-01T04:10:47.000Z</time>
      </trkpt>
      <trkpt lat="42.637334" lon="1.090658">
        <ele>1409.4</ele>
        <time>1970-01-01T04:10:50.000Z</time>
      </trkpt>
      <trkpt lat="42.637338" lon="1.090642">
        <ele>1409.8</ele>
        <time>1970-01-01T04:10:51.000Z</time>
      </trkpt>
      <trkpt lat="42.637336" lon="1.09059">
        <ele>1410.6</ele>
        <time>1970-01-01T04:10:54.000Z</time>
      </trkpt>
      <trkpt lat="42.637339" lon="1.090547">
        <ele>1411.8</ele>
        <time>1970-01-01T04:10:57.000Z</time>
      </trkpt>
      <trkpt lat="42.637345" lon="1.090528">
        <ele>1412</ele>
        <time>1970-01-01T04:10:58.000Z</time>
      </trkpt>
      <trkpt lat="42.637353" lon="1.090499">
        <ele>1412.8</ele>
        <time>1970-01-01T04:11:00.000Z</time>
      </trkpt>
      <trkpt lat="42.637343" lon="1.09047">
        <ele>1413.8</ele>
        <time>1970-01-01T04:11:03.000Z</time>
      </trkpt>
      <trkpt lat="42.637335" lon="1.089754">
        <ele>1423.8</ele>
        <time>1970-01-01T04:13:23.000Z</time>
      </trkpt>
      <trkpt lat="42.637333" lon="1.089712">
        <ele>1424.2</ele>
        <time>1970-01-01T04:13:25.000Z</time>
      </trkpt>
      <trkpt lat="42.637307" lon="1.089613">
        <ele>1425.4</ele>
        <time>1970-01-01T04:13:30.000Z</time>
      </trkpt>
      <trkpt lat="42.637297" lon="1.089572">
        <ele>1426.4</ele>
        <time>1970-01-01T04:13:33.000Z</time>
      </trkpt>
      <trkpt lat="42.637281" lon="1.089546">
        <ele>1426.6</ele>
        <time>1970-01-01T04:13:36.000Z</time>
      </trkpt>
      <trkpt lat="42.637123" lon="1.089353">
        <ele>1431.8</ele>
        <time>1970-01-01T04:15:08.000Z</time>
      </trkpt>
      <trkpt lat="42.637115" lon="1.089385">
        <ele>1431.8</ele>
        <time>1970-01-01T04:15:10.000Z</time>
      </trkpt>
      <trkpt lat="42.637086" lon="1.089559">
        <ele>1432.8</ele>
        <time>1970-01-01T04:15:19.000Z</time>
      </trkpt>
      <trkpt lat="42.637054" lon="1.089794">
        <ele>1434</ele>
        <time>1970-01-01T04:15:30.000Z</time>
      </trkpt>
      <trkpt lat="42.637033" lon="1.089909">
        <ele>1435.4</ele>
        <time>1970-01-01T04:15:36.000Z</time>
      </trkpt>
      <trkpt lat="42.63701" lon="1.090032">
        <ele>1436.4</ele>
        <time>1970-01-01T04:15:42.000Z</time>
      </trkpt>
      <trkpt lat="42.636931" lon="1.090219">
        <ele>1437.4</ele>
        <time>1970-01-01T04:15:52.000Z</time>
      </trkpt>
      <trkpt lat="42.636827" lon="1.090422">
        <ele>1438.8</ele>
        <time>1970-01-01T04:16:03.000Z</time>
      </trkpt>
      <trkpt lat="42.636785" lon="1.090543">
        <ele>1440.2</ele>
        <time>1970-01-01T04:16:09.000Z</time>
      </trkpt>
      <trkpt lat="42.636758" lon="1.09066">
        <ele>1441.2</ele>
        <time>1970-01-01T04:16:15.000Z</time>
      </trkpt>
      <trkpt lat="42.636709" lon="1.090769">
        <ele>1442.4</ele>
        <time>1970-01-01T04:16:21.000Z</time>
      </trkpt>
      <trkpt lat="42.636647" lon="1.090869">
        <ele>1443.4</ele>
        <time>1970-01-01T04:16:27.000Z</time>
      </trkpt>
      <trkpt lat="42.636572" lon="1.091004">
        <ele>1444.8</ele>
        <time>1970-01-01T04:16:34.000Z</time>
      </trkpt>
      <trkpt lat="42.636483" lon="1.09115">
        <ele>1445.8</ele>
        <time>1970-01-01T04:16:42.000Z</time>
      </trkpt>
      <trkpt lat="42.636416" lon="1.091232">
        <ele>1446.8</ele>
        <time>1970-01-01T04:16:48.000Z</time>
      </trkpt>
      <trkpt lat="42.636326" lon="1.091218">
        <ele>1448</ele>
        <time>1970-01-01T04:16:54.000Z</time>
      </trkpt>
      <trkpt lat="42.636277" lon="1.091167">
        <ele>1449.2</ele>
        <time>1970-01-01T04:16:58.000Z</time>
      </trkpt>
      <trkpt lat="42.636269" lon="1.091147">
        <ele>1449.2</ele>
        <time>1970-01-01T04:16:59.000Z</time>
      </trkpt>
      <trkpt lat="42.636294" lon="1.091009">
        <ele>1450.2</ele>
        <time>1970-01-01T04:17:06.000Z</time>
      </trkpt>
      <trkpt lat="42.636407" lon="1.090834">
        <ele>1451.4</ele>
        <time>1970-01-01T04:17:16.000Z</time>
      </trkpt>
      <trkpt lat="42.636479" lon="1.090593">
        <ele>1452.4</ele>
        <time>1970-01-01T04:17:27.000Z</time>
      </trkpt>
      <trkpt lat="42.636523" lon="1.090318">
        <ele>1453.4</ele>
        <time>1970-01-01T04:17:40.000Z</time>
      </trkpt>
      <trkpt lat="42.636564" lon="1.090169">
        <ele>1454.6</ele>
        <time>1970-01-01T04:17:48.000Z</time>
      </trkpt>
      <trkpt lat="42.636631" lon="1.089971">
        <ele>1455.8</ele>
        <time>1970-01-01T04:17:57.000Z</time>
      </trkpt>
      <trkpt lat="42.636674" lon="1.089709">
        <ele>1456.8</ele>
        <time>1970-01-01T04:18:09.000Z</time>
      </trkpt>
      <trkpt lat="42.636665" lon="1.089628">
        <ele>1457.2</ele>
        <time>1970-01-01T04:18:12.000Z</time>
      </trkpt>
      <trkpt lat="42.636647" lon="1.08948">
        <ele>1457.8</ele>
        <time>1970-01-01T04:18:19.000Z</time>
      </trkpt>
      <trkpt lat="42.636638" lon="1.089276">
        <ele>1459</ele>
        <time>1970-01-01T04:18:27.000Z</time>
      </trkpt>
      <trkpt lat="42.636612" lon="1.089085">
        <ele>1460.2</ele>
        <time>1970-01-01T04:18:35.000Z</time>
      </trkpt>
      <trkpt lat="42.636602" lon="1.089017">
        <ele>1461.2</ele>
        <time>1970-01-01T04:18:38.000Z</time>
      </trkpt>
      <trkpt lat="42.636585" lon="1.088889">
        <ele>1462.4</ele>
        <time>1970-01-01T04:18:44.000Z</time>
      </trkpt>
      <trkpt lat="42.636567" lon="1.088781">
        <ele>1463.4</ele>
        <time>1970-01-01T04:18:49.000Z</time>
      </trkpt>
      <trkpt lat="42.636591" lon="1.088637">
        <ele>1464.6</ele>
        <time>1970-01-01T04:18:56.000Z</time>
      </trkpt>
      <trkpt lat="42.636673" lon="1.088518">
        <ele>1465.8</ele>
        <time>1970-01-01T04:19:03.000Z</time>
      </trkpt>
      <trkpt lat="42.636731" lon="1.088444">
        <ele>1466.8</ele>
        <time>1970-01-01T04:19:08.000Z</time>
      </trkpt>
      <trkpt lat="42.636796" lon="1.088357">
        <ele>1468</ele>
        <time>1970-01-01T04:19:14.000Z</time>
      </trkpt>
      <trkpt lat="42.636852" lon="1.088225">
        <ele>1469</ele>
        <time>1970-01-01T04:19:21.000Z</time>
      </trkpt>
      <trkpt lat="42.636893" lon="1.088068">
        <ele>1470.2</ele>
        <time>1970-01-01T04:19:29.000Z</time>
      </trkpt>
      <trkpt lat="42.636931" lon="1.087945">
        <ele>1471.2</ele>
        <time>1970-01-01T04:19:36.000Z</time>
      </trkpt>
      <trkpt lat="42.636976" lon="1.087843">
        <ele>1472.2</ele>
        <time>1970-01-01T04:19:42.000Z</time>
      </trkpt>
      <trkpt lat="42.63701" lon="1.08775">
        <ele>1473.4</ele>
        <time>1970-01-01T04:19:47.000Z</time>
      </trkpt>
      <trkpt lat="42.637038" lon="1.087594">
        <ele>1474.6</ele>
        <time>1970-01-01T04:19:55.000Z</time>
      </trkpt>
      <trkpt lat="42.637043" lon="1.087478">
        <ele>1475.6</ele>
        <time>1970-01-01T04:20:01.000Z</time>
      </trkpt>
      <trkpt lat="42.637037" lon="1.087316">
        <ele>1476.8</ele>
        <time>1970-01-01T04:20:09.000Z</time>
      </trkpt>
      <trkpt lat="42.637031" lon="1.087209">
        <ele>1477.8</ele>
        <time>1970-01-01T04:20:15.000Z</time>
      </trkpt>
      <trkpt lat="42.636989" lon="1.087071">
        <ele>1479</ele>
        <time>1970-01-01T04:20:23.000Z</time>
      </trkpt>
      <trkpt lat="42.636955" lon="1.086936">
        <ele>1480</ele>
        <time>1970-01-01T04:20:30.000Z</time>
      </trkpt>
      <trkpt lat="42.63695" lon="1.086794">
        <ele>1481.2</ele>
        <time>1970-01-01T04:20:37.000Z</time>
      </trkpt>
      <trkpt lat="42.636993" lon="1.086683">
        <ele>1482.2</ele>
        <time>1970-01-01T04:20:43.000Z</time>
      </trkpt>
      <trkpt lat="42.637041" lon="1.086558">
        <ele>1483.2</ele>
        <time>1970-01-01T04:20:50.000Z</time>
      </trkpt>
      <trkpt lat="42.637079" lon="1.08648">
        <ele>1484.2</ele>
        <time>1970-01-01T04:20:55.000Z</time>
      </trkpt>
      <trkpt lat="42.637191" lon="1.086317">
        <ele>1485.6</ele>
        <time>1970-01-01T04:21:07.000Z</time>
      </trkpt>
      <trkpt lat="42.637263" lon="1.086259">
        <ele>1486.6</ele>
        <time>1970-01-01T04:21:13.000Z</time>
      </trkpt>
      <trkpt lat="42.63734" lon="1.086213">
        <ele>1487.6</ele>
        <time>1970-01-01T04:21:19.000Z</time>
      </trkpt>
      <trkpt lat="42.637388" lon="1.086172">
        <ele>1488.2</ele>
        <time>1970-01-01T04:21:23.000Z</time>
      </trkpt>
      <trkpt lat="42.637469" lon="1.086094">
        <ele>1488.6</ele>
        <time>1970-01-01T04:21:30.000Z</time>
      </trkpt>
      <trkpt lat="42.637568" lon="1.086036">
        <ele>1489.8</ele>
        <time>1970-01-01T04:21:37.000Z</time>
      </trkpt>
      <trkpt lat="42.637657" lon="1.085945">
        <ele>1490.8</ele>
        <time>1970-01-01T04:21:45.000Z</time>
      </trkpt>
      <trkpt lat="42.637775" lon="1.085841">
        <ele>1492</ele>
        <time>1970-01-01T04:21:54.000Z</time>
      </trkpt>
      <trkpt lat="42.637896" lon="1.08573">
        <ele>1493</ele>
        <time>1970-01-01T04:22:04.000Z</time>
      </trkpt>
      <trkpt lat="42.637984" lon="1.08563">
        <ele>1494</ele>
        <time>1970-01-01T04:22:12.000Z</time>
      </trkpt>
      <trkpt lat="42.638076" lon="1.085527">
        <ele>1495</ele>
        <time>1970-01-01T04:22:20.000Z</time>
      </trkpt>
      <trkpt lat="42.638189" lon="1.085354">
        <ele>1495.8</ele>
        <time>1970-01-01T04:22:30.000Z</time>
      </trkpt>
      <trkpt lat="42.638261" lon="1.085212">
        <ele>1497</ele>
        <time>1970-01-01T04:22:38.000Z</time>
      </trkpt>
      <trkpt lat="42.638311" lon="1.085088">
        <ele>1498</ele>
        <time>1970-01-01T04:22:45.000Z</time>
      </trkpt>
      <trkpt lat="42.638363" lon="1.08498">
        <ele>1499</ele>
        <time>1970-01-01T04:22:52.000Z</time>
      </trkpt>
      <trkpt lat="42.63837" lon="1.084965">
        <ele>1499.2</ele>
        <time>1970-01-01T04:22:53.000Z</time>
      </trkpt>
      <trkpt lat="42.638407" lon="1.084882">
        <ele>1500</ele>
        <time>1970-01-01T04:22:58.000Z</time>
      </trkpt>
      <trkpt lat="42.638414" lon="1.084867">
        <ele>1500.2</ele>
        <time>1970-01-01T04:22:59.000Z</time>
      </trkpt>
      <trkpt lat="42.638469" lon="1.084755">
        <ele>1501.2</ele>
        <time>1970-01-01T04:23:06.000Z</time>
      </trkpt>
      <trkpt lat="42.63854" lon="1.084595">
        <ele>1502.4</ele>
        <time>1970-01-01T04:23:15.000Z</time>
      </trkpt>
      <trkpt lat="42.638572" lon="1.084479">
        <ele>1503.6</ele>
        <time>1970-01-01T04:23:21.000Z</time>
      </trkpt>
      <trkpt lat="42.638595" lon="1.084383">
        <ele>1504.6</ele>
        <time>1970-01-01T04:23:26.000Z</time>
      </trkpt>
      <trkpt lat="42.638618" lon="1.084242">
        <ele>1505.8</ele>
        <time>1970-01-01T04:23:34.000Z</time>
      </trkpt>
      <trkpt lat="42.638633" lon="1.084158">
        <ele>1506.4</ele>
        <time>1970-01-01T04:23:38.000Z</time>
      </trkpt>
      <trkpt lat="42.638636" lon="1.084079">
        <ele>1506.8</ele>
        <time>1970-01-01T04:23:42.000Z</time>
      </trkpt>
      <trkpt lat="42.638664" lon="1.083923">
        <ele>1507.8</ele>
        <time>1970-01-01T04:23:50.000Z</time>
      </trkpt>
      <trkpt lat="42.63867" lon="1.08389">
        <ele>1508</ele>
        <time>1970-01-01T04:23:52.000Z</time>
      </trkpt>
      <trkpt lat="42.638666" lon="1.08376">
        <ele>1508.8</ele>
        <time>1970-01-01T04:23:59.000Z</time>
      </trkpt>
      <trkpt lat="42.638662" lon="1.083614">
        <ele>1510</ele>
        <time>1970-01-01T04:24:08.000Z</time>
      </trkpt>
      <trkpt lat="42.638665" lon="1.083447">
        <ele>1511</ele>
        <time>1970-01-01T04:24:16.000Z</time>
      </trkpt>
      <trkpt lat="42.638656" lon="1.083265">
        <ele>1512.2</ele>
        <time>1970-01-01T04:24:24.000Z</time>
      </trkpt>
      <trkpt lat="42.638662" lon="1.083082">
        <ele>1513.2</ele>
        <time>1970-01-01T04:24:33.000Z</time>
      </trkpt>
      <trkpt lat="42.638664" lon="1.083038">
        <ele>1513.6</ele>
        <time>1970-01-01T04:24:35.000Z</time>
      </trkpt>
      <trkpt lat="42.638659" lon="1.082915">
        <ele>1514.4</ele>
        <time>1970-01-01T04:24:41.000Z</time>
      </trkpt>
      <trkpt lat="42.638666" lon="1.082817">
        <ele>1515.6</ele>
        <time>1970-01-01T04:24:46.000Z</time>
      </trkpt>
      <trkpt lat="42.638671" lon="1.08271">
        <ele>1516.6</ele>
        <time>1970-01-01T04:24:52.000Z</time>
      </trkpt>
      <trkpt lat="42.638689" lon="1.082605">
        <ele>1517.8</ele>
        <time>1970-01-01T04:24:58.000Z</time>
      </trkpt>
      <trkpt lat="42.638686" lon="1.082587">
        <ele>1518</ele>
        <time>1970-01-01T04:24:59.000Z</time>
      </trkpt>
      <trkpt lat="42.638674" lon="1.082534">
        <ele>1518.4</ele>
        <time>1970-01-01T04:25:02.000Z</time>
      </trkpt>
      <trkpt lat="42.638655" lon="1.082505">
        <ele>1519</ele>
        <time>1970-01-01T04:25:05.000Z</time>
      </trkpt>
      <trkpt lat="42.638645" lon="1.0825">
        <ele>1519.2</ele>
        <time>1970-01-01T04:25:06.000Z</time>
      </trkpt>
      <trkpt lat="42.638584" lon="1.0825">
        <ele>1519.8</ele>
        <time>1970-01-01T04:25:11.000Z</time>
      </trkpt>
      <trkpt lat="42.638575" lon="1.082509">
        <ele>1519.8</ele>
        <time>1970-01-01T04:25:12.000Z</time>
      </trkpt>
      <trkpt lat="42.638552" lon="1.082551">
        <ele>1520</ele>
        <time>1970-01-01T04:25:15.000Z</time>
      </trkpt>
      <trkpt lat="42.638542" lon="1.082566">
        <ele>1520</ele>
        <time>1970-01-01T04:25:16.000Z</time>
      </trkpt>
      <trkpt lat="42.638538" lon="1.082585">
        <ele>1520.4</ele>
        <time>1970-01-01T04:25:17.000Z</time>
      </trkpt>
      <trkpt lat="42.638535" lon="1.082638">
        <ele>1521</ele>
        <time>1970-01-01T04:25:20.000Z</time>
      </trkpt>
      <trkpt lat="42.63854" lon="1.082655">
        <ele>1521.4</ele>
        <time>1970-01-01T04:25:21.000Z</time>
      </trkpt>
      <trkpt lat="42.638538" lon="1.082689">
        <ele>1521.8</ele>
        <time>1970-01-01T04:25:24.000Z</time>
      </trkpt>
      <trkpt lat="42.638525" lon="1.082718">
        <ele>1522</ele>
        <time>1970-01-01T04:25:26.000Z</time>
      </trkpt>
      <trkpt lat="42.638479" lon="1.082864">
        <ele>1523</ele>
        <time>1970-01-01T04:25:37.000Z</time>
      </trkpt>
      <trkpt lat="42.63845" lon="1.082941">
        <ele>1523.4</ele>
        <time>1970-01-01T04:27:44.000Z</time>
      </trkpt>
      <trkpt lat="42.638401" lon="1.083041">
        <ele>1523.8</ele>
        <time>1970-01-01T04:27:49.000Z</time>
      </trkpt>
      <trkpt lat="42.638341" lon="1.083216">
        <ele>1524.4</ele>
        <time>1970-01-01T04:27:57.000Z</time>
      </trkpt>
      <trkpt lat="42.638302" lon="1.083382">
        <ele>1525.4</ele>
        <time>1970-01-01T04:28:04.000Z</time>
      </trkpt>
      <trkpt lat="42.638133" lon="1.083799">
        <ele>1526.6</ele>
        <time>1970-01-01T04:28:20.000Z</time>
      </trkpt>
      <trkpt lat="42.638034" lon="1.083941">
        <ele>1527.6</ele>
        <time>1970-01-01T04:28:28.000Z</time>
      </trkpt>
      <trkpt lat="42.637968" lon="1.083913">
        <ele>1528.2</ele>
        <time>1970-01-01T04:28:33.000Z</time>
      </trkpt>
      <trkpt lat="42.637954" lon="1.08381">
        <ele>1529</ele>
        <time>1970-01-01T04:28:38.000Z</time>
      </trkpt>
      <trkpt lat="42.637956" lon="1.083791">
        <ele>1529</ele>
        <time>1970-01-01T04:28:39.000Z</time>
      </trkpt>
      <trkpt lat="42.637977" lon="1.08368">
        <ele>1530.2</ele>
        <time>1970-01-01T04:28:45.000Z</time>
      </trkpt>
      <trkpt lat="42.638041" lon="1.08356">
        <ele>1531.2</ele>
        <time>1970-01-01T04:28:52.000Z</time>
      </trkpt>
      <trkpt lat="42.638087" lon="1.083396">
        <ele>1532.2</ele>
        <time>1970-01-01T04:29:00.000Z</time>
      </trkpt>
      <trkpt lat="42.638093" lon="1.083251">
        <ele>1533.4</ele>
        <time>1970-01-01T04:29:08.000Z</time>
      </trkpt>
      <trkpt lat="42.638104" lon="1.083133">
        <ele>1534.4</ele>
        <time>1970-01-01T04:29:15.000Z</time>
      </trkpt>
      <trkpt lat="42.638105" lon="1.083111">
        <ele>1534.4</ele>
        <time>1970-01-01T04:29:16.000Z</time>
      </trkpt>
      <trkpt lat="42.638104" lon="1.083044">
        <ele>1535</ele>
        <time>1970-01-01T04:29:19.000Z</time>
      </trkpt>
      <trkpt lat="42.638108" lon="1.083002">
        <ele>1535.6</ele>
        <time>1970-01-01T04:29:21.000Z</time>
      </trkpt>
      <trkpt lat="42.638142" lon="1.082887">
        <ele>1536.6</ele>
        <time>1970-01-01T04:29:27.000Z</time>
      </trkpt>
      <trkpt lat="42.638153" lon="1.082804">
        <ele>1537.6</ele>
        <time>1970-01-01T04:29:32.000Z</time>
      </trkpt>
      <trkpt lat="42.638161" lon="1.082697">
        <ele>1539</ele>
        <time>1970-01-01T04:29:39.000Z</time>
      </trkpt>
      <trkpt lat="42.638157" lon="1.082649">
        <ele>1539.4</ele>
        <time>1970-01-01T04:29:43.000Z</time>
      </trkpt>
      <trkpt lat="42.638151" lon="1.082601">
        <ele>1540.2</ele>
        <time>1970-01-01T04:29:46.000Z</time>
      </trkpt>
      <trkpt lat="42.638148" lon="1.082492">
        <ele>1541</ele>
        <time>1970-01-01T04:29:52.000Z</time>
      </trkpt>
      <trkpt lat="42.638149" lon="1.082472">
        <ele>1541.2</ele>
        <time>1970-01-01T04:29:53.000Z</time>
      </trkpt>
      <trkpt lat="42.638148" lon="1.082332">
        <ele>1542.2</ele>
        <time>1970-01-01T04:30:01.000Z</time>
      </trkpt>
      <trkpt lat="42.638165" lon="1.082106">
        <ele>1543.2</ele>
        <time>1970-01-01T04:30:10.000Z</time>
      </trkpt>
      <trkpt lat="42.638177" lon="1.081894">
        <ele>1544.4</ele>
        <time>1970-01-01T04:30:20.000Z</time>
      </trkpt>
      <trkpt lat="42.638218" lon="1.0818">
        <ele>1545.4</ele>
        <time>1970-01-01T04:30:26.000Z</time>
      </trkpt>
      <trkpt lat="42.638225" lon="1.081698">
        <ele>1546.4</ele>
        <time>1970-01-01T04:30:32.000Z</time>
      </trkpt>
      <trkpt lat="42.638227" lon="1.081684">
        <ele>1546.6</ele>
        <time>1970-01-01T04:30:33.000Z</time>
      </trkpt>
      <trkpt lat="42.638216" lon="1.0816">
        <ele>1547</ele>
        <time>1970-01-01T04:30:38.000Z</time>
      </trkpt>
      <trkpt lat="42.638218" lon="1.081577">
        <ele>1547.4</ele>
        <time>1970-01-01T04:30:39.000Z</time>
      </trkpt>
      <trkpt lat="42.638235" lon="1.081382">
        <ele>1548.4</ele>
        <time>1970-01-01T04:30:47.000Z</time>
      </trkpt>
      <trkpt lat="42.63825" lon="1.081276">
        <ele>1549.4</ele>
        <time>1970-01-01T04:30:53.000Z</time>
      </trkpt>
      <trkpt lat="42.638248" lon="1.081257">
        <ele>1549.6</ele>
        <time>1970-01-01T04:30:54.000Z</time>
      </trkpt>
      <trkpt lat="42.63825" lon="1.081152">
        <ele>1550.6</ele>
        <time>1970-01-01T04:31:00.000Z</time>
      </trkpt>
      <trkpt lat="42.638264" lon="1.081102">
        <ele>1551</ele>
        <time>1970-01-01T04:31:03.000Z</time>
      </trkpt>
      <trkpt lat="42.638283" lon="1.081039">
        <ele>1551.6</ele>
        <time>1970-01-01T04:31:07.000Z</time>
      </trkpt>
      <trkpt lat="42.638285" lon="1.081022">
        <ele>1551.8</ele>
        <time>1970-01-01T04:31:08.000Z</time>
      </trkpt>
      <trkpt lat="42.638265" lon="1.080919">
        <ele>1552.6</ele>
        <time>1970-01-01T04:31:13.000Z</time>
      </trkpt>
      <trkpt lat="42.638243" lon="1.080875">
        <ele>1552.8</ele>
        <time>1970-01-01T04:31:15.000Z</time>
      </trkpt>
      <trkpt lat="42.638216" lon="1.080678">
        <ele>1553.8</ele>
        <time>1970-01-01T04:31:24.000Z</time>
      </trkpt>
      <trkpt lat="42.638217" lon="1.080576">
        <ele>1554.8</ele>
        <time>1970-01-01T04:31:30.000Z</time>
      </trkpt>
      <trkpt lat="42.638193" lon="1.080453">
        <ele>1556</ele>
        <time>1970-01-01T04:31:38.000Z</time>
      </trkpt>
      <trkpt lat="42.638115" lon="1.080371">
        <ele>1556.6</ele>
        <time>1970-01-01T04:31:46.000Z</time>
      </trkpt>
      <trkpt lat="42.638074" lon="1.080332">
        <ele>1556.8</ele>
        <time>1970-01-01T04:31:49.000Z</time>
      </trkpt>
      <trkpt lat="42.638042" lon="1.080317">
        <ele>1556.8</ele>
        <time>1970-01-01T04:31:51.000Z</time>
      </trkpt>
      <trkpt lat="42.637949" lon="1.079934">
        <ele>1557.8</ele>
        <time>1970-01-01T04:32:07.000Z</time>
      </trkpt>
      <trkpt lat="42.638004" lon="1.079716">
        <ele>1558.8</ele>
        <time>1970-01-01T04:32:16.000Z</time>
      </trkpt>
      <trkpt lat="42.638014" lon="1.079531">
        <ele>1559.6</ele>
        <time>1970-01-01T04:32:24.000Z</time>
      </trkpt>
      <trkpt lat="42.638005" lon="1.079514">
        <ele>1559.8</ele>
        <time>1970-01-01T04:32:25.000Z</time>
      </trkpt>
      <trkpt lat="42.637931" lon="1.079186">
        <ele>1560.8</ele>
        <time>1970-01-01T04:32:37.000Z</time>
      </trkpt>
      <trkpt lat="42.637928" lon="1.078825">
        <ele>1561.8</ele>
        <time>1970-01-01T04:32:49.000Z</time>
      </trkpt>
      <trkpt lat="42.637947" lon="1.078719">
        <ele>1563</ele>
        <time>1970-01-01T04:32:53.000Z</time>
      </trkpt>
      <trkpt lat="42.638007" lon="1.078555">
        <ele>1564.2</ele>
        <time>1970-01-01T04:33:00.000Z</time>
      </trkpt>
      <trkpt lat="42.638048" lon="1.07839">
        <ele>1565.4</ele>
        <time>1970-01-01T04:33:07.000Z</time>
      </trkpt>
      <trkpt lat="42.638088" lon="1.078233">
        <ele>1566.6</ele>
        <time>1970-01-01T04:33:14.000Z</time>
      </trkpt>
      <trkpt lat="42.63813" lon="1.07808">
        <ele>1567.6</ele>
        <time>1970-01-01T04:33:21.000Z</time>
      </trkpt>
      <trkpt lat="42.638187" lon="1.077923">
        <ele>1568.6</ele>
        <time>1970-01-01T04:33:29.000Z</time>
      </trkpt>
      <trkpt lat="42.638202" lon="1.077796">
        <ele>1569.8</ele>
        <time>1970-01-01T04:33:36.000Z</time>
      </trkpt>
      <trkpt lat="42.638242" lon="1.077676">
        <ele>1571</ele>
        <time>1970-01-01T04:33:42.000Z</time>
      </trkpt>
      <trkpt lat="42.638254" lon="1.077642">
        <ele>1571.2</ele>
        <time>1970-01-01T04:33:44.000Z</time>
      </trkpt>
      <trkpt lat="42.638252" lon="1.077546">
        <ele>1572</ele>
        <time>1970-01-01T04:33:49.000Z</time>
      </trkpt>
      <trkpt lat="42.63822" lon="1.077432">
        <ele>1572.8</ele>
        <time>1970-01-01T04:33:54.000Z</time>
      </trkpt>
      <trkpt lat="42.63821" lon="1.077366">
        <ele>1573</ele>
        <time>1970-01-01T04:33:57.000Z</time>
      </trkpt>
      <trkpt lat="42.638177" lon="1.077238">
        <ele>1574</ele>
        <time>1970-01-01T04:34:03.000Z</time>
      </trkpt>
      <trkpt lat="42.638103" lon="1.077026">
        <ele>1575.2</ele>
        <time>1970-01-01T04:34:13.000Z</time>
      </trkpt>
      <trkpt lat="42.638073" lon="1.076863">
        <ele>1576.2</ele>
        <time>1970-01-01T04:34:21.000Z</time>
      </trkpt>
      <trkpt lat="42.638063" lon="1.07675">
        <ele>1577.2</ele>
        <time>1970-01-01T04:34:26.000Z</time>
      </trkpt>
      <trkpt lat="42.638001" lon="1.076529">
        <ele>1578.4</ele>
        <time>1970-01-01T04:34:36.000Z</time>
      </trkpt>
      <trkpt lat="42.63793" lon="1.076412">
        <ele>1579.4</ele>
        <time>1970-01-01T04:34:43.000Z</time>
      </trkpt>
      <trkpt lat="42.637856" lon="1.076189">
        <ele>1580.4</ele>
        <time>1970-01-01T04:34:52.000Z</time>
      </trkpt>
      <trkpt lat="42.6378" lon="1.076058">
        <ele>1581.6</ele>
        <time>1970-01-01T04:34:58.000Z</time>
      </trkpt>
      <trkpt lat="42.63775" lon="1.075891">
        <ele>1582.6</ele>
        <time>1970-01-01T04:35:05.000Z</time>
      </trkpt>
      <trkpt lat="42.637738" lon="1.07576">
        <ele>1583.4</ele>
        <time>1970-01-01T04:35:10.000Z</time>
      </trkpt>
      <trkpt lat="42.63774" lon="1.075715">
        <ele>1583.6</ele>
        <time>1970-01-01T04:35:12.000Z</time>
      </trkpt>
      <trkpt lat="42.637718" lon="1.075519">
        <ele>1584.4</ele>
        <time>1970-01-01T04:35:19.000Z</time>
      </trkpt>
      <trkpt lat="42.637711" lon="1.075413">
        <ele>1584.8</ele>
        <time>1970-01-01T04:35:23.000Z</time>
      </trkpt>
      <trkpt lat="42.637751" lon="1.075174">
        <ele>1585.6</ele>
        <time>1970-01-01T04:35:32.000Z</time>
      </trkpt>
      <trkpt lat="42.637753" lon="1.075122">
        <ele>1585.8</ele>
        <time>1970-01-01T04:35:34.000Z</time>
      </trkpt>
      <trkpt lat="42.637766" lon="1.075072">
        <ele>1586</ele>
        <time>1970-01-01T04:35:36.000Z</time>
      </trkpt>
      <trkpt lat="42.637782" lon="1.075027">
        <ele>1586</ele>
        <time>1970-01-01T04:35:38.000Z</time>
      </trkpt>
      <trkpt lat="42.637847" lon="1.074956">
        <ele>1585.8</ele>
        <time>1970-01-01T04:35:42.000Z</time>
      </trkpt>
      <trkpt lat="42.638139" lon="1.07459">
        <ele>1584.6</ele>
        <time>1970-01-01T04:35:55.000Z</time>
      </trkpt>
      <trkpt lat="42.638209" lon="1.07431">
        <ele>1583</ele>
        <time>1970-01-01T04:35:59.000Z</time>
      </trkpt>
      <trkpt lat="42.638228" lon="1.07423">
        <ele>1582.6</ele>
        <time>1970-01-01T04:36:00.000Z</time>
      </trkpt>
      <trkpt lat="42.638299" lon="1.074008">
        <ele>1581.8</ele>
        <time>1970-01-01T04:36:03.000Z</time>
      </trkpt>
      <trkpt lat="42.638362" lon="1.073878">
        <ele>1581.6</ele>
        <time>1970-01-01T04:36:05.000Z</time>
      </trkpt>
      <trkpt lat="42.638683" lon="1.073233">
        <ele>1581.8</ele>
        <time>1970-01-01T04:36:19.000Z</time>
      </trkpt>
      <trkpt lat="42.638717" lon="1.073013">
        <ele>1582.6</ele>
        <time>1970-01-01T04:36:24.000Z</time>
      </trkpt>
      <trkpt lat="42.638728" lon="1.072825">
        <ele>1583.6</ele>
        <time>1970-01-01T04:36:29.000Z</time>
      </trkpt>
      <trkpt lat="42.638754" lon="1.072693">
        <ele>1584.6</ele>
        <time>1970-01-01T04:36:33.000Z</time>
      </trkpt>
      <trkpt lat="42.638791" lon="1.072483">
        <ele>1585.8</ele>
        <time>1970-01-01T04:36:39.000Z</time>
      </trkpt>
      <trkpt lat="42.638836" lon="1.07212">
        <ele>1587</ele>
        <time>1970-01-01T04:36:49.000Z</time>
      </trkpt>
      <trkpt lat="42.638867" lon="1.071816">
        <ele>1587.2</ele>
        <time>1970-01-01T04:36:56.000Z</time>
      </trkpt>
      <trkpt lat="42.639056" lon="1.071266">
        <ele>1587.4</ele>
        <time>1970-01-01T04:37:09.000Z</time>
      </trkpt>
      <trkpt lat="42.639052" lon="1.070961">
        <ele>1586.2</ele>
        <time>1970-01-01T04:37:14.000Z</time>
      </trkpt>
      <trkpt lat="42.639043" lon="1.070899">
        <ele>1586</ele>
        <time>1970-01-01T04:37:15.000Z</time>
      </trkpt>
      <trkpt lat="42.639032" lon="1.0707">
        <ele>1585.8</ele>
        <time>1970-01-01T04:37:18.000Z</time>
      </trkpt>
      <trkpt lat="42.639012" lon="1.070513">
        <ele>1585</ele>
        <time>1970-01-01T04:37:21.000Z</time>
      </trkpt>
      <trkpt lat="42.639013" lon="1.070451">
        <ele>1585</ele>
        <time>1970-01-01T04:37:22.000Z</time>
      </trkpt>
      <trkpt lat="42.639092" lon="1.070129">
        <ele>1585.2</ele>
        <time>1970-01-01T04:37:30.000Z</time>
      </trkpt>
      <trkpt lat="42.639036" lon="1.069809">
        <ele>1586.2</ele>
        <time>1970-01-01T04:37:39.000Z</time>
      </trkpt>
      <trkpt lat="42.639161" lon="1.069184">
        <ele>1587.2</ele>
        <time>1970-01-01T04:37:55.000Z</time>
      </trkpt>
      <trkpt lat="42.639178" lon="1.068999">
        <ele>1588.4</ele>
        <time>1970-01-01T04:38:01.000Z</time>
      </trkpt>
      <trkpt lat="42.639225" lon="1.068808">
        <ele>1589.6</ele>
        <time>1970-01-01T04:38:08.000Z</time>
      </trkpt>
      <trkpt lat="42.639267" lon="1.068694">
        <ele>1590.6</ele>
        <time>1970-01-01T04:38:13.000Z</time>
      </trkpt>
      <trkpt lat="42.639296" lon="1.068565">
        <ele>1591.8</ele>
        <time>1970-01-01T04:38:18.000Z</time>
      </trkpt>
      <trkpt lat="42.639352" lon="1.068425">
        <ele>1592.8</ele>
        <time>1970-01-01T04:38:24.000Z</time>
      </trkpt>
      <trkpt lat="42.639396" lon="1.068244">
        <ele>1594</ele>
        <time>1970-01-01T04:38:32.000Z</time>
      </trkpt>
      <trkpt lat="42.639404" lon="1.068078">
        <ele>1595.2</ele>
        <time>1970-01-01T04:38:39.000Z</time>
      </trkpt>
      <trkpt lat="42.639411" lon="1.067957">
        <ele>1596.2</ele>
        <time>1970-01-01T04:38:45.000Z</time>
      </trkpt>
      <trkpt lat="42.639431" lon="1.067857">
        <ele>1597.4</ele>
        <time>1970-01-01T04:38:50.000Z</time>
      </trkpt>
      <trkpt lat="42.63947" lon="1.067741">
        <ele>1598.4</ele>
        <time>1970-01-01T04:38:56.000Z</time>
      </trkpt>
      <trkpt lat="42.639507" lon="1.067588">
        <ele>1599.8</ele>
        <time>1970-01-01T04:39:03.000Z</time>
      </trkpt>
      <trkpt lat="42.639543" lon="1.067476">
        <ele>1600.8</ele>
        <time>1970-01-01T04:39:08.000Z</time>
      </trkpt>
      <trkpt lat="42.639619" lon="1.067266">
        <ele>1602</ele>
        <time>1970-01-01T04:39:18.000Z</time>
      </trkpt>
      <trkpt lat="42.639699" lon="1.067044">
        <ele>1603</ele>
        <time>1970-01-01T04:39:29.000Z</time>
      </trkpt>
      <trkpt lat="42.639729" lon="1.066895">
        <ele>1603.6</ele>
        <time>1970-01-01T04:39:36.000Z</time>
      </trkpt>
      <trkpt lat="42.63979" lon="1.06669">
        <ele>1604</ele>
        <time>1970-01-01T04:39:44.000Z</time>
      </trkpt>
      <trkpt lat="42.639855" lon="1.066467">
        <ele>1605</ele>
        <time>1970-01-01T04:39:53.000Z</time>
      </trkpt>
      <trkpt lat="42.639873" lon="1.066238">
        <ele>1605.8</ele>
        <time>1970-01-01T04:40:03.000Z</time>
      </trkpt>
      <trkpt lat="42.639853" lon="1.066186">
        <ele>1606.2</ele>
        <time>1970-01-01T04:40:05.000Z</time>
      </trkpt>
      <trkpt lat="42.63987" lon="1.066049">
        <ele>1607</ele>
        <time>1970-01-01T04:40:12.000Z</time>
      </trkpt>
      <trkpt lat="42.639886" lon="1.065943">
        <ele>1607.6</ele>
        <time>1970-01-01T04:40:16.000Z</time>
      </trkpt>
      <trkpt lat="42.63992" lon="1.065763">
        <ele>1608.2</ele>
        <time>1970-01-01T04:40:23.000Z</time>
      </trkpt>
      <trkpt lat="42.639962" lon="1.065533">
        <ele>1609.2</ele>
        <time>1970-01-01T04:40:33.000Z</time>
      </trkpt>
      <trkpt lat="42.640028" lon="1.065303">
        <ele>1610.4</ele>
        <time>1970-01-01T04:40:43.000Z</time>
      </trkpt>
      <trkpt lat="42.64007" lon="1.06508">
        <ele>1611.6</ele>
        <time>1970-01-01T04:40:52.000Z</time>
      </trkpt>
      <trkpt lat="42.640111" lon="1.064388">
        <ele>1610.6</ele>
        <time>1970-01-01T04:41:10.000Z</time>
      </trkpt>
      <trkpt lat="42.640142" lon="1.064162">
        <ele>1609.6</ele>
        <time>1970-01-01T04:41:15.000Z</time>
      </trkpt>
      <trkpt lat="42.640155" lon="1.063945">
        <ele>1608.4</ele>
        <time>1970-01-01T04:41:19.000Z</time>
      </trkpt>
      <trkpt lat="42.640163" lon="1.063759">
        <ele>1607.6</ele>
        <time>1970-01-01T04:41:22.000Z</time>
      </trkpt>
      <trkpt lat="42.64017" lon="1.06362">
        <ele>1606.6</ele>
        <time>1970-01-01T04:41:24.000Z</time>
      </trkpt>
      <trkpt lat="42.640187" lon="1.063552">
        <ele>1606.2</ele>
        <time>1970-01-01T04:41:25.000Z</time>
      </trkpt>
      <trkpt lat="42.640193" lon="1.063426">
        <ele>1605.4</ele>
        <time>1970-01-01T04:41:27.000Z</time>
      </trkpt>
      <trkpt lat="42.640197" lon="1.063365">
        <ele>1604.8</ele>
        <time>1970-01-01T04:41:28.000Z</time>
      </trkpt>
      <trkpt lat="42.6402" lon="1.063182">
        <ele>1603.8</ele>
        <time>1970-01-01T04:41:32.000Z</time>
      </trkpt>
      <trkpt lat="42.640207" lon="1.063176">
        <ele>1603.8</ele>
        <time>1970-01-01T04:41:33.000Z</time>
      </trkpt>
      <trkpt lat="42.640194" lon="1.063027">
        <ele>1603.6</ele>
        <time>1970-01-01T04:47:01.000Z</time>
      </trkpt>
      <trkpt lat="42.640153" lon="1.062861">
        <ele>1603.4</ele>
        <time>1970-01-01T04:47:05.000Z</time>
      </trkpt>
      <trkpt lat="42.640146" lon="1.062764">
        <ele>1602.6</ele>
        <time>1970-01-01T04:47:07.000Z</time>
      </trkpt>
      <trkpt lat="42.640137" lon="1.062658">
        <ele>1602.2</ele>
        <time>1970-01-01T04:47:09.000Z</time>
      </trkpt>
      <trkpt lat="42.640136" lon="1.062374">
        <ele>1601.6</ele>
        <time>1970-01-01T04:47:14.000Z</time>
      </trkpt>
      <trkpt lat="42.640039" lon="1.061625">
        <ele>1602.2</ele>
        <time>1970-01-01T04:47:31.000Z</time>
      </trkpt>
      <trkpt lat="42.639967" lon="1.061148">
        <ele>1603</ele>
        <time>1970-01-01T04:47:42.000Z</time>
      </trkpt>
      <trkpt lat="42.639969" lon="1.060744">
        <ele>1603.6</ele>
        <time>1970-01-01T04:47:53.000Z</time>
      </trkpt>
      <trkpt lat="42.639996" lon="1.060624">
        <ele>1604</ele>
        <time>1970-01-01T04:47:57.000Z</time>
      </trkpt>
      <trkpt lat="42.639833" lon="1.059926">
        <ele>1604.8</ele>
        <time>1970-01-01T04:48:18.000Z</time>
      </trkpt>
      <trkpt lat="42.639803" lon="1.059824">
        <ele>1604.6</ele>
        <time>1970-01-01T04:48:21.000Z</time>
      </trkpt>
      <trkpt lat="42.639742" lon="1.059652">
        <ele>1604.6</ele>
        <time>1970-01-01T04:48:26.000Z</time>
      </trkpt>
      <trkpt lat="42.639671" lon="1.059505">
        <ele>1605.2</ele>
        <time>1970-01-01T04:48:30.000Z</time>
      </trkpt>
      <trkpt lat="42.6394" lon="1.058837">
        <ele>1605.8</ele>
        <time>1970-01-01T04:48:45.000Z</time>
      </trkpt>
      <trkpt lat="42.639403" lon="1.058561">
        <ele>1606.2</ele>
        <time>1970-01-01T04:48:50.000Z</time>
      </trkpt>
      <trkpt lat="42.639462" lon="1.057816">
        <ele>1606.6</ele>
        <time>1970-01-01T04:49:05.000Z</time>
      </trkpt>
      <trkpt lat="42.639094" lon="1.057254">
        <ele>1606.6</ele>
        <time>1970-01-01T04:49:19.000Z</time>
      </trkpt>
      <trkpt lat="42.638864" lon="1.056874">
        <ele>1607</ele>
        <time>1970-01-01T04:49:29.000Z</time>
      </trkpt>
      <trkpt lat="42.638326" lon="1.056686">
        <ele>1606.8</ele>
        <time>1970-01-01T04:49:46.000Z</time>
      </trkpt>
      <trkpt lat="42.638233" lon="1.056208">
        <ele>1607.8</ele>
        <time>1970-01-01T04:49:59.000Z</time>
      </trkpt>
      <trkpt lat="42.638232" lon="1.056006">
        <ele>1608.4</ele>
        <time>1970-01-01T04:50:05.000Z</time>
      </trkpt>
      <trkpt lat="42.638223" lon="1.055955">
        <ele>1609</ele>
        <time>1970-01-01T04:50:07.000Z</time>
      </trkpt>
      <trkpt lat="42.638214" lon="1.055904">
        <ele>1609.4</ele>
        <time>1970-01-01T04:50:09.000Z</time>
      </trkpt>
      <trkpt lat="42.638162" lon="1.055771">
        <ele>1610</ele>
        <time>1970-01-01T04:50:14.000Z</time>
      </trkpt>
      <trkpt lat="42.63798" lon="1.055463">
        <ele>1610.8</ele>
        <time>1970-01-01T04:50:28.000Z</time>
      </trkpt>
      <trkpt lat="42.637875" lon="1.05522">
        <ele>1612</ele>
        <time>1970-01-01T04:50:38.000Z</time>
      </trkpt>
      <trkpt lat="42.637812" lon="1.054994">
        <ele>1613</ele>
        <time>1970-01-01T04:50:46.000Z</time>
      </trkpt>
      <trkpt lat="42.637716" lon="1.054769">
        <ele>1614</ele>
        <time>1970-01-01T04:50:54.000Z</time>
      </trkpt>
      <trkpt lat="42.637689" lon="1.054751">
        <ele>1614</ele>
        <time>1970-01-01T04:50:55.000Z</time>
      </trkpt>
      <trkpt lat="42.637531" lon="1.054597">
        <ele>1615</ele>
        <time>1970-01-01T04:51:02.000Z</time>
      </trkpt>
      <trkpt lat="42.63737" lon="1.054482">
        <ele>1616</ele>
        <time>1970-01-01T04:51:10.000Z</time>
      </trkpt>
      <trkpt lat="42.637182" lon="1.054343">
        <ele>1617.2</ele>
        <time>1970-01-01T04:51:20.000Z</time>
      </trkpt>
      <trkpt lat="42.637035" lon="1.054195">
        <ele>1618</ele>
        <time>1970-01-01T04:51:28.000Z</time>
      </trkpt>
      <trkpt lat="42.636818" lon="1.053915">
        <ele>1619.2</ele>
        <time>1970-01-01T04:51:40.000Z</time>
      </trkpt>
      <trkpt lat="42.636677" lon="1.053636">
        <ele>1620.2</ele>
        <time>1970-01-01T04:51:51.000Z</time>
      </trkpt>
      <trkpt lat="42.636563" lon="1.053464">
        <ele>1621.4</ele>
        <time>1970-01-01T04:51:59.000Z</time>
      </trkpt>
      <trkpt lat="42.636457" lon="1.053288">
        <ele>1622.4</ele>
        <time>1970-01-01T04:52:08.000Z</time>
      </trkpt>
      <trkpt lat="42.636347" lon="1.053157">
        <ele>1623.4</ele>
        <time>1970-01-01T04:52:15.000Z</time>
      </trkpt>
      <trkpt lat="42.636216" lon="1.052964">
        <ele>1624.2</ele>
        <time>1970-01-01T04:52:23.000Z</time>
      </trkpt>
      <trkpt lat="42.636143" lon="1.052784">
        <ele>1625.2</ele>
        <time>1970-01-01T04:52:29.000Z</time>
      </trkpt>
      <trkpt lat="42.635998" lon="1.052513">
        <ele>1626.2</ele>
        <time>1970-01-01T04:52:40.000Z</time>
      </trkpt>
      <trkpt lat="42.635934" lon="1.052338">
        <ele>1627.2</ele>
        <time>1970-01-01T04:52:47.000Z</time>
      </trkpt>
      <trkpt lat="42.635895" lon="1.052244">
        <ele>1627.6</ele>
        <time>1970-01-01T04:52:51.000Z</time>
      </trkpt>
      <trkpt lat="42.635839" lon="1.052161">
        <ele>1628.2</ele>
        <time>1970-01-01T04:52:54.000Z</time>
      </trkpt>
      <trkpt lat="42.635625" lon="1.051862">
        <ele>1629</ele>
        <time>1970-01-01T04:53:06.000Z</time>
      </trkpt>
      <trkpt lat="42.635466" lon="1.051656">
        <ele>1630.2</ele>
        <time>1970-01-01T04:53:14.000Z</time>
      </trkpt>
      <trkpt lat="42.635279" lon="1.051529">
        <ele>1631</ele>
        <time>1970-01-01T04:53:21.000Z</time>
      </trkpt>
      <trkpt lat="42.635198" lon="1.051447">
        <ele>1631.6</ele>
        <time>1970-01-01T04:53:27.000Z</time>
      </trkpt>
      <trkpt lat="42.635154" lon="1.05137">
        <ele>1632.2</ele>
        <time>1970-01-01T04:53:30.000Z</time>
      </trkpt>
      <trkpt lat="42.635066" lon="1.051078">
        <ele>1633</ele>
        <time>1970-01-01T04:53:39.000Z</time>
      </trkpt>
      <trkpt lat="42.634888" lon="1.050918">
        <ele>1634</ele>
        <time>1970-01-01T04:53:47.000Z</time>
      </trkpt>
      <trkpt lat="42.634741" lon="1.050775">
        <ele>1635.2</ele>
        <time>1970-01-01T04:53:55.000Z</time>
      </trkpt>
      <trkpt lat="42.634602" lon="1.050487">
        <ele>1636.2</ele>
        <time>1970-01-01T04:54:06.000Z</time>
      </trkpt>
      <trkpt lat="42.634596" lon="1.050458">
        <ele>1636.2</ele>
        <time>1970-01-01T04:54:07.000Z</time>
      </trkpt>
      <trkpt lat="42.634533" lon="1.050145">
        <ele>1637.4</ele>
        <time>1970-01-01T04:54:17.000Z</time>
      </trkpt>
      <trkpt lat="42.634437" lon="1.049922">
        <ele>1638.4</ele>
        <time>1970-01-01T04:54:25.000Z</time>
      </trkpt>
      <trkpt lat="42.634351" lon="1.049667">
        <ele>1639.4</ele>
        <time>1970-01-01T04:54:34.000Z</time>
      </trkpt>
      <trkpt lat="42.634346" lon="1.049616">
        <ele>1639.4</ele>
        <time>1970-01-01T04:54:36.000Z</time>
      </trkpt>
      <trkpt lat="42.634296" lon="1.049465">
        <ele>1640.2</ele>
        <time>1970-01-01T04:54:42.000Z</time>
      </trkpt>
      <trkpt lat="42.634233" lon="1.049364">
        <ele>1640.8</ele>
        <time>1970-01-01T04:54:47.000Z</time>
      </trkpt>
      <trkpt lat="42.63415" lon="1.049234">
        <ele>1641.4</ele>
        <time>1970-01-01T04:54:52.000Z</time>
      </trkpt>
      <trkpt lat="42.634054" lon="1.049027">
        <ele>1642.6</ele>
        <time>1970-01-01T04:54:59.000Z</time>
      </trkpt>
      <trkpt lat="42.633883" lon="1.048851">
        <ele>1643.4</ele>
        <time>1970-01-01T04:55:07.000Z</time>
      </trkpt>
      <trkpt lat="42.633692" lon="1.048688">
        <ele>1644.4</ele>
        <time>1970-01-01T04:55:16.000Z</time>
      </trkpt>
      <trkpt lat="42.633551" lon="1.048529">
        <ele>1645.6</ele>
        <time>1970-01-01T04:55:24.000Z</time>
      </trkpt>
      <trkpt lat="42.633484" lon="1.048428">
        <ele>1646.4</ele>
        <time>1970-01-01T04:55:30.000Z</time>
      </trkpt>
      <trkpt lat="42.633263" lon="1.048305">
        <ele>1647.4</ele>
        <time>1970-01-01T04:55:39.000Z</time>
      </trkpt>
      <trkpt lat="42.633172" lon="1.048215">
        <ele>1648.6</ele>
        <time>1970-01-01T04:55:45.000Z</time>
      </trkpt>
      <trkpt lat="42.633073" lon="1.048104">
        <ele>1649.8</ele>
        <time>1970-01-01T04:55:52.000Z</time>
      </trkpt>
      <trkpt lat="42.632906" lon="1.048072">
        <ele>1650.8</ele>
        <time>1970-01-01T04:56:02.000Z</time>
      </trkpt>
      <trkpt lat="42.632825" lon="1.048082">
        <ele>1651.4</ele>
        <time>1970-01-01T04:56:06.000Z</time>
      </trkpt>
      <trkpt lat="42.632773" lon="1.048046">
        <ele>1651.6</ele>
        <time>1970-01-01T04:56:09.000Z</time>
      </trkpt>
      <trkpt lat="42.632754" lon="1.048017">
        <ele>1652</ele>
        <time>1970-01-01T04:56:11.000Z</time>
      </trkpt>
      <trkpt lat="42.632552" lon="1.047848">
        <ele>1652.8</ele>
        <time>1970-01-01T04:56:20.000Z</time>
      </trkpt>
      <trkpt lat="42.632484" lon="1.047806">
        <ele>1653.2</ele>
        <time>1970-01-01T04:56:26.000Z</time>
      </trkpt>
      <trkpt lat="42.632415" lon="1.047676">
        <ele>1652</ele>
        <time>1970-01-01T04:58:43.000Z</time>
      </trkpt>
      <trkpt lat="42.632303" lon="1.047583">
        <ele>1653</ele>
        <time>1970-01-01T04:58:56.000Z</time>
      </trkpt>
      <trkpt lat="42.632222" lon="1.047414">
        <ele>1653.4</ele>
        <time>1970-01-01T04:59:10.000Z</time>
      </trkpt>
      <trkpt lat="42.63213" lon="1.047309">
        <ele>1652.6</ele>
        <time>1970-01-01T04:59:25.000Z</time>
      </trkpt>
      <trkpt lat="42.631953" lon="1.046813">
        <ele>1650.8</ele>
        <time>1970-01-01T05:00:19.000Z</time>
      </trkpt>
      <trkpt lat="42.631894" lon="1.046642">
        <ele>1649.4</ele>
        <time>1970-01-01T05:00:30.000Z</time>
      </trkpt>
      <trkpt lat="42.631848" lon="1.046539">
        <ele>1648.4</ele>
        <time>1970-01-01T05:00:37.000Z</time>
      </trkpt>
      <trkpt lat="42.63153" lon="1.046322">
        <ele>1647.2</ele>
        <time>1970-01-01T05:01:12.000Z</time>
      </trkpt>
      <trkpt lat="42.631458" lon="1.046284">
        <ele>1647.6</ele>
        <time>1970-01-01T05:01:20.000Z</time>
      </trkpt>
      <trkpt lat="42.630447" lon="1.045063">
        <ele>1655.6</ele>
        <time>1970-01-01T05:04:13.000Z</time>
      </trkpt>
      <trkpt lat="42.630446" lon="1.04487">
        <ele>1655.8</ele>
        <time>1970-01-01T05:04:29.000Z</time>
      </trkpt>
      <trkpt lat="42.630331" lon="1.043769">
        <ele>1661.4</ele>
        <time>1970-01-01T05:05:58.000Z</time>
      </trkpt>
      <trkpt lat="42.63024" lon="1.043652">
        <ele>1661.2</ele>
        <time>1970-01-01T05:06:11.000Z</time>
      </trkpt>
      <trkpt lat="42.630627" lon="1.043293">
        <ele>1650.6</ele>
        <time>1970-01-01T05:07:26.000Z</time>
      </trkpt>
      <trkpt lat="42.630674" lon="1.043306">
        <ele>1649.6</ele>
        <time>1970-01-01T05:07:29.000Z</time>
      </trkpt>
      <trkpt lat="42.630694" lon="1.043302">
        <ele>1649.6</ele>
        <time>1970-01-01T05:07:30.000Z</time>
      </trkpt>
      <trkpt lat="42.630718" lon="1.043224">
        <ele>1648.4</ele>
        <time>1970-01-01T05:07:34.000Z</time>
      </trkpt>
      <trkpt lat="42.630733" lon="1.043194">
        <ele>1647.6</ele>
        <time>1970-01-01T05:07:36.000Z</time>
      </trkpt>
      <trkpt lat="42.63074" lon="1.043184">
        <ele>1647</ele>
        <time>1970-01-01T05:07:37.000Z</time>
      </trkpt>
      <trkpt lat="42.630766" lon="1.043169">
        <ele>1646.4</ele>
        <time>1970-01-01T05:07:39.000Z</time>
      </trkpt>
      <trkpt lat="42.63078" lon="1.043163">
        <ele>1646</ele>
        <time>1970-01-01T05:07:40.000Z</time>
      </trkpt>
      <trkpt lat="42.630817" lon="1.043158">
        <ele>1644.8</ele>
        <time>1970-01-01T05:07:42.000Z</time>
      </trkpt>
      <trkpt lat="42.63087" lon="1.043163">
        <ele>1643.8</ele>
        <time>1970-01-01T05:07:45.000Z</time>
      </trkpt>
      <trkpt lat="42.630957" lon="1.043159">
        <ele>1642.4</ele>
        <time>1970-01-01T05:07:49.000Z</time>
      </trkpt>
      <trkpt lat="42.631002" lon="1.043156">
        <ele>1641.2</ele>
        <time>1970-01-01T05:07:51.000Z</time>
      </trkpt>
      <trkpt lat="42.631036" lon="1.04317">
        <ele>1640.2</ele>
        <time>1970-01-01T05:07:53.000Z</time>
      </trkpt>
      <trkpt lat="42.631133" lon="1.043187">
        <ele>1639</ele>
        <time>1970-01-01T05:07:57.000Z</time>
      </trkpt>
      <trkpt lat="42.631207" lon="1.043232">
        <ele>1637.4</ele>
        <time>1970-01-01T05:08:01.000Z</time>
      </trkpt>
      <trkpt lat="42.631227" lon="1.043235">
        <ele>1637</ele>
        <time>1970-01-01T05:08:02.000Z</time>
      </trkpt>
      <trkpt lat="42.631262" lon="1.043235">
        <ele>1636</ele>
        <time>1970-01-01T05:08:04.000Z</time>
      </trkpt>
      <trkpt lat="42.631308" lon="1.043255">
        <ele>1634.6</ele>
        <time>1970-01-01T05:08:07.000Z</time>
      </trkpt>
      <trkpt lat="42.631358" lon="1.043311">
        <ele>1633.6</ele>
        <time>1970-01-01T05:08:10.000Z</time>
      </trkpt>
      <trkpt lat="42.631381" lon="1.043335">
        <ele>1633.2</ele>
        <time>1970-01-01T05:08:11.000Z</time>
      </trkpt>
      <trkpt lat="42.631437" lon="1.043383">
        <ele>1632.4</ele>
        <time>1970-01-01T05:08:14.000Z</time>
      </trkpt>
      <trkpt lat="42.63148" lon="1.043409">
        <ele>1631.4</ele>
        <time>1970-01-01T05:08:17.000Z</time>
      </trkpt>
      <trkpt lat="42.631507" lon="1.043392">
        <ele>1630.2</ele>
        <time>1970-01-01T05:08:20.000Z</time>
      </trkpt>
      <trkpt lat="42.631521" lon="1.04339">
        <ele>1629.6</ele>
        <time>1970-01-01T05:08:21.000Z</time>
      </trkpt>
      <trkpt lat="42.631558" lon="1.043414">
        <ele>1629</ele>
        <time>1970-01-01T05:08:23.000Z</time>
      </trkpt>
      <trkpt lat="42.631621" lon="1.043478">
        <ele>1627.8</ele>
        <time>1970-01-01T05:08:26.000Z</time>
      </trkpt>
      <trkpt lat="42.631662" lon="1.043512">
        <ele>1627.2</ele>
        <time>1970-01-01T05:08:28.000Z</time>
      </trkpt>
      <trkpt lat="42.631678" lon="1.043511">
        <ele>1626.8</ele>
        <time>1970-01-01T05:08:29.000Z</time>
      </trkpt>
      <trkpt lat="42.631728" lon="1.0435">
        <ele>1625.4</ele>
        <time>1970-01-01T05:08:32.000Z</time>
      </trkpt>
      <trkpt lat="42.63175" lon="1.043498">
        <ele>1625.2</ele>
        <time>1970-01-01T05:08:33.000Z</time>
      </trkpt>
      <trkpt lat="42.6318" lon="1.043496">
        <ele>1624.2</ele>
        <time>1970-01-01T05:08:35.000Z</time>
      </trkpt>
      <trkpt lat="42.631909" lon="1.043508">
        <ele>1623.2</ele>
        <time>1970-01-01T05:08:39.000Z</time>
      </trkpt>
      <trkpt lat="42.631935" lon="1.043522">
        <ele>1622.8</ele>
        <time>1970-01-01T05:08:40.000Z</time>
      </trkpt>
      <trkpt lat="42.632036" lon="1.043562">
        <ele>1621.8</ele>
        <time>1970-01-01T05:08:44.000Z</time>
      </trkpt>
      <trkpt lat="42.63214" lon="1.043628">
        <ele>1620.8</ele>
        <time>1970-01-01T05:08:48.000Z</time>
      </trkpt>
      <trkpt lat="42.632216" lon="1.043661">
        <ele>1619.6</ele>
        <time>1970-01-01T05:08:52.000Z</time>
      </trkpt>
      <trkpt lat="42.632243" lon="1.04366">
        <ele>1618.8</ele>
        <time>1970-01-01T05:08:54.000Z</time>
      </trkpt>
      <trkpt lat="42.632259" lon="1.043652">
        <ele>1618.6</ele>
        <time>1970-01-01T05:08:55.000Z</time>
      </trkpt>
      <trkpt lat="42.632295" lon="1.043648">
        <ele>1617.2</ele>
        <time>1970-01-01T05:08:57.000Z</time>
      </trkpt>
      <trkpt lat="42.63236" lon="1.043662">
        <ele>1616.2</ele>
        <time>1970-01-01T05:09:01.000Z</time>
      </trkpt>
      <trkpt lat="42.632407" lon="1.043691">
        <ele>1615.2</ele>
        <time>1970-01-01T05:09:04.000Z</time>
      </trkpt>
      <trkpt lat="42.632425" lon="1.0437">
        <ele>1614.8</ele>
        <time>1970-01-01T05:09:05.000Z</time>
      </trkpt>
      <trkpt lat="42.632478" lon="1.043705">
        <ele>1614</ele>
        <time>1970-01-01T05:09:08.000Z</time>
      </trkpt>
      <trkpt lat="42.632515" lon="1.043707">
        <ele>1613.8</ele>
        <time>1970-01-01T05:09:09.000Z</time>
      </trkpt>
      <trkpt lat="42.632557" lon="1.043709">
        <ele>1613.4</ele>
        <time>1970-01-01T05:09:11.000Z</time>
      </trkpt>
      <trkpt lat="42.632599" lon="1.043738">
        <ele>1613</ele>
        <time>1970-01-01T05:09:13.000Z</time>
      </trkpt>
      <trkpt lat="42.632659" lon="1.043774">
        <ele>1611.8</ele>
        <time>1970-01-01T05:09:16.000Z</time>
      </trkpt>
      <trkpt lat="42.632671" lon="1.043772">
        <ele>1611.6</ele>
        <time>1970-01-01T05:09:17.000Z</time>
      </trkpt>
      <trkpt lat="42.632708" lon="1.04377">
        <ele>1611.2</ele>
        <time>1970-01-01T05:09:19.000Z</time>
      </trkpt>
      <trkpt lat="42.632743" lon="1.043783">
        <ele>1610.6</ele>
        <time>1970-01-01T05:09:21.000Z</time>
      </trkpt>
      <trkpt lat="42.632815" lon="1.043818">
        <ele>1609.4</ele>
        <time>1970-01-01T05:09:25.000Z</time>
      </trkpt>
      <trkpt lat="42.632852" lon="1.043856">
        <ele>1608.6</ele>
        <time>1970-01-01T05:09:28.000Z</time>
      </trkpt>
      <trkpt lat="42.632866" lon="1.043872">
        <ele>1608.4</ele>
        <time>1970-01-01T05:09:29.000Z</time>
      </trkpt>
      <trkpt lat="42.632896" lon="1.043893">
        <ele>1607.6</ele>
        <time>1970-01-01T05:09:31.000Z</time>
      </trkpt>
      <trkpt lat="42.632907" lon="1.043886">
        <ele>1607.2</ele>
        <time>1970-01-01T05:09:32.000Z</time>
      </trkpt>
      <trkpt lat="42.63293" lon="1.04385">
        <ele>1606.2</ele>
        <time>1970-01-01T05:09:35.000Z</time>
      </trkpt>
      <trkpt lat="42.632946" lon="1.043818">
        <ele>1605.6</ele>
        <time>1970-01-01T05:09:38.000Z</time>
      </trkpt>
      <trkpt lat="42.632957" lon="1.043805">
        <ele>1605</ele>
        <time>1970-01-01T05:09:40.000Z</time>
      </trkpt>
      <trkpt lat="42.632965" lon="1.043802">
        <ele>1604.6</ele>
        <time>1970-01-01T05:09:42.000Z</time>
      </trkpt>
      <trkpt lat="42.634003" lon="1.043863">
        <ele>1564.6</ele>
        <time>1970-01-01T05:13:08.000Z</time>
      </trkpt>
      <trkpt lat="42.63398" lon="1.043791">
        <ele>1563.6</ele>
        <time>1970-01-01T05:13:14.000Z</time>
      </trkpt>
      <trkpt lat="42.63395" lon="1.043609">
        <ele>1562.2</ele>
        <time>1970-01-01T05:13:26.000Z</time>
      </trkpt>
      <trkpt lat="42.633939" lon="1.043585">
        <ele>1562</ele>
        <time>1970-01-01T05:13:29.000Z</time>
      </trkpt>
      <trkpt lat="42.635224" lon="1.042085">
        <ele>1573.8</ele>
        <time>1970-01-01T05:27:51.000Z</time>
      </trkpt>
      <trkpt lat="42.635295" lon="1.042063">
        <ele>1572.2</ele>
        <time>1970-01-01T05:27:57.000Z</time>
      </trkpt>
      <trkpt lat="42.635345" lon="1.042009">
        <ele>1571</ele>
        <time>1970-01-01T05:28:01.000Z</time>
      </trkpt>
      <trkpt lat="42.635396" lon="1.041958">
        <ele>1570</ele>
        <time>1970-01-01T05:28:05.000Z</time>
      </trkpt>
      <trkpt lat="42.635437" lon="1.041906">
        <ele>1568.8</ele>
        <time>1970-01-01T05:28:09.000Z</time>
      </trkpt>
      <trkpt lat="42.635464" lon="1.041824">
        <ele>1567.8</ele>
        <time>1970-01-01T05:28:16.000Z</time>
      </trkpt>
      <trkpt lat="42.635568" lon="1.041703">
        <ele>1567.6</ele>
        <time>1970-01-01T05:29:12.000Z</time>
      </trkpt>
      <trkpt lat="42.635627" lon="1.0417">
        <ele>1566.4</ele>
        <time>1970-01-01T05:29:18.000Z</time>
      </trkpt>
      <trkpt lat="42.635731" lon="1.041647">
        <ele>1566.4</ele>
        <time>1970-01-01T05:29:27.000Z</time>
      </trkpt>
      <trkpt lat="42.635912" lon="1.04144">
        <ele>1566.6</ele>
        <time>1970-01-01T05:29:34.000Z</time>
      </trkpt>
      <trkpt lat="42.636057" lon="1.041254">
        <ele>1566.4</ele>
        <time>1970-01-01T05:29:40.000Z</time>
      </trkpt>
      <trkpt lat="42.636201" lon="1.040914">
        <ele>1565.4</ele>
        <time>1970-01-01T05:29:47.000Z</time>
      </trkpt>
      <trkpt lat="42.636302" lon="1.040699">
        <ele>1564.6</ele>
        <time>1970-01-01T05:29:50.000Z</time>
      </trkpt>
      <trkpt lat="42.636339" lon="1.04063">
        <ele>1564.2</ele>
        <time>1970-01-01T05:29:51.000Z</time>
      </trkpt>
      <trkpt lat="42.636447" lon="1.040443">
        <ele>1562.8</ele>
        <time>1970-01-01T05:29:54.000Z</time>
      </trkpt>
      <trkpt lat="42.636591" lon="1.040195">
        <ele>1561.4</ele>
        <time>1970-01-01T05:29:58.000Z</time>
      </trkpt>
      <trkpt lat="42.63668" lon="1.04009">
        <ele>1560.4</ele>
        <time>1970-01-01T05:30:00.000Z</time>
      </trkpt>
      <trkpt lat="42.636868" lon="1.040014">
        <ele>1558.8</ele>
        <time>1970-01-01T05:30:03.000Z</time>
      </trkpt>
      <trkpt lat="42.637004" lon="1.040032">
        <ele>1557.8</ele>
        <time>1970-01-01T05:30:05.000Z</time>
      </trkpt>
      <trkpt lat="42.637076" lon="1.040026">
        <ele>1557.6</ele>
        <time>1970-01-01T05:30:06.000Z</time>
      </trkpt>
      <trkpt lat="42.637355" lon="1.039917">
        <ele>1556.2</ele>
        <time>1970-01-01T05:30:10.000Z</time>
      </trkpt>
      <trkpt lat="42.637452" lon="1.039866">
        <ele>1555.2</ele>
        <time>1970-01-01T05:30:12.000Z</time>
      </trkpt>
      <trkpt lat="42.637545" lon="1.039786">
        <ele>1554.2</ele>
        <time>1970-01-01T05:30:16.000Z</time>
      </trkpt>
      <trkpt lat="42.637554" lon="1.039739">
        <ele>1553.8</ele>
        <time>1970-01-01T05:30:19.000Z</time>
      </trkpt>
      <trkpt lat="42.637782" lon="1.039194">
        <ele>1556.6</ele>
        <time>1970-01-01T05:39:01.000Z</time>
      </trkpt>
      <trkpt lat="42.637809" lon="1.038646">
        <ele>1556.8</ele>
        <time>1970-01-01T05:39:27.000Z</time>
      </trkpt>
      <trkpt lat="42.63781" lon="1.039079">
        <ele>1556.4</ele>
        <time>1970-01-01T05:40:00.000Z</time>
      </trkpt>
      <trkpt lat="42.637616" lon="1.039687">
        <ele>1557.6</ele>
        <time>1970-01-01T06:49:00.000Z</time>
      </trkpt>
      <trkpt lat="42.637537" lon="1.0398">
        <ele>1556.4</ele>
        <time>1970-01-01T06:49:06.000Z</time>
      </trkpt>
      <trkpt lat="42.637797" lon="1.039693">
        <ele>1555.2</ele>
        <time>1970-01-01T06:49:17.000Z</time>
      </trkpt>
      <trkpt lat="42.637831" lon="1.039652">
        <ele>1555</ele>
        <time>1970-01-01T06:49:18.000Z</time>
      </trkpt>
      <trkpt lat="42.637921" lon="1.03957">
        <ele>1554.2</ele>
        <time>1970-01-01T06:49:20.000Z</time>
      </trkpt>
      <trkpt lat="42.63802" lon="1.039463">
        <ele>1553.8</ele>
        <time>1970-01-01T06:49:22.000Z</time>
      </trkpt>
      <trkpt lat="42.63817" lon="1.039305">
        <ele>1553</ele>
        <time>1970-01-01T06:49:25.000Z</time>
      </trkpt>
      <trkpt lat="42.638281" lon="1.039223">
        <ele>1551.8</ele>
        <time>1970-01-01T06:49:27.000Z</time>
      </trkpt>
      <trkpt lat="42.638467" lon="1.039114">
        <ele>1549.8</ele>
        <time>1970-01-01T06:49:30.000Z</time>
      </trkpt>
      <trkpt lat="42.638523" lon="1.039066">
        <ele>1549.2</ele>
        <time>1970-01-01T06:49:31.000Z</time>
      </trkpt>
      <trkpt lat="42.638641" lon="1.038951">
        <ele>1548.4</ele>
        <time>1970-01-01T06:49:33.000Z</time>
      </trkpt>
      <trkpt lat="42.638748" lon="1.038809">
        <ele>1547.2</ele>
        <time>1970-01-01T06:49:35.000Z</time>
      </trkpt>
      <trkpt lat="42.638852" lon="1.038459">
        <ele>1545.8</ele>
        <time>1970-01-01T06:49:38.000Z</time>
      </trkpt>
      <trkpt lat="42.638874" lon="1.038333">
        <ele>1545.6</ele>
        <time>1970-01-01T06:49:39.000Z</time>
      </trkpt>
      <trkpt lat="42.638965" lon="1.03783">
        <ele>1544.6</ele>
        <time>1970-01-01T06:49:43.000Z</time>
      </trkpt>
      <trkpt lat="42.639035" lon="1.037612">
        <ele>1543.6</ele>
        <time>1970-01-01T06:49:45.000Z</time>
      </trkpt>
      <trkpt lat="42.63908" lon="1.037524">
        <ele>1543.4</ele>
        <time>1970-01-01T06:49:46.000Z</time>
      </trkpt>
      <trkpt lat="42.639471" lon="1.037661">
        <ele>1542.4</ele>
        <time>1970-01-01T06:49:54.000Z</time>
      </trkpt>
      <trkpt lat="42.639498" lon="1.037826">
        <ele>1541.8</ele>
        <time>1970-01-01T06:49:56.000Z</time>
      </trkpt>
      <trkpt lat="42.639524" lon="1.038001">
        <ele>1541.2</ele>
        <time>1970-01-01T06:49:58.000Z</time>
      </trkpt>
      <trkpt lat="42.639549" lon="1.038275">
        <ele>1540</ele>
        <time>1970-01-01T06:50:01.000Z</time>
      </trkpt>
      <trkpt lat="42.63956" lon="1.038446">
        <ele>1539</ele>
        <time>1970-01-01T06:50:03.000Z</time>
      </trkpt>
      <trkpt lat="42.639559" lon="1.038598">
        <ele>1538</ele>
        <time>1970-01-01T06:50:06.000Z</time>
      </trkpt>
      <trkpt lat="42.639559" lon="1.038625">
        <ele>1537.8</ele>
        <time>1970-01-01T06:50:08.000Z</time>
      </trkpt>
      <trkpt lat="42.639562" lon="1.038739">
        <ele>1536.8</ele>
        <time>1970-01-01T06:50:17.000Z</time>
      </trkpt>
      <trkpt lat="42.639555" lon="1.038937">
        <ele>1535.6</ele>
        <time>1970-01-01T06:50:21.000Z</time>
      </trkpt>
      <trkpt lat="42.639541" lon="1.039117">
        <ele>1534.8</ele>
        <time>1970-01-01T06:50:24.000Z</time>
      </trkpt>
      <trkpt lat="42.639531" lon="1.039191">
        <ele>1534.4</ele>
        <time>1970-01-01T06:50:25.000Z</time>
      </trkpt>
      <trkpt lat="42.639472" lon="1.03945">
        <ele>1533</ele>
        <time>1970-01-01T06:50:28.000Z</time>
      </trkpt>
      <trkpt lat="42.639393" lon="1.039741">
        <ele>1532</ele>
        <time>1970-01-01T06:50:31.000Z</time>
      </trkpt>
      <trkpt lat="42.639298" lon="1.040052">
        <ele>1530.8</ele>
        <time>1970-01-01T06:50:34.000Z</time>
      </trkpt>
      <trkpt lat="42.639206" lon="1.040394">
        <ele>1529.6</ele>
        <time>1970-01-01T06:50:37.000Z</time>
      </trkpt>
      <trkpt lat="42.639175" lon="1.040653">
        <ele>1528.2</ele>
        <time>1970-01-01T06:50:39.000Z</time>
      </trkpt>
      <trkpt lat="42.639131" lon="1.040917">
        <ele>1526.8</ele>
        <time>1970-01-01T06:50:41.000Z</time>
      </trkpt>
      <trkpt lat="42.639002" lon="1.041412">
        <ele>1525.6</ele>
        <time>1970-01-01T06:50:45.000Z</time>
      </trkpt>
      <trkpt lat="42.638917" lon="1.041638">
        <ele>1524.6</ele>
        <time>1970-01-01T06:50:47.000Z</time>
      </trkpt>
      <trkpt lat="42.638861" lon="1.041735">
        <ele>1524.2</ele>
        <time>1970-01-01T06:50:48.000Z</time>
      </trkpt>
      <trkpt lat="42.638437" lon="1.042245">
        <ele>1523.4</ele>
        <time>1970-01-01T06:50:55.000Z</time>
      </trkpt>
      <trkpt lat="42.638153" lon="1.042587">
        <ele>1522.8</ele>
        <time>1970-01-01T06:51:00.000Z</time>
      </trkpt>
      <trkpt lat="42.637998" lon="1.042808">
        <ele>1521.8</ele>
        <time>1970-01-01T06:51:03.000Z</time>
      </trkpt>
      <trkpt lat="42.637892" lon="1.043182">
        <ele>1520.6</ele>
        <time>1970-01-01T06:51:07.000Z</time>
      </trkpt>
      <trkpt lat="42.637878" lon="1.043279">
        <ele>1520.4</ele>
        <time>1970-01-01T06:51:08.000Z</time>
      </trkpt>
      <trkpt lat="42.637839" lon="1.043576">
        <ele>1519.6</ele>
        <time>1970-01-01T06:51:11.000Z</time>
      </trkpt>
      <trkpt lat="42.637817" lon="1.043881">
        <ele>1518.2</ele>
        <time>1970-01-01T06:51:14.000Z</time>
      </trkpt>
      <trkpt lat="42.637854" lon="1.04419">
        <ele>1517.2</ele>
        <time>1970-01-01T06:51:17.000Z</time>
      </trkpt>
      <trkpt lat="42.637918" lon="1.044509">
        <ele>1515.8</ele>
        <time>1970-01-01T06:51:20.000Z</time>
      </trkpt>
      <trkpt lat="42.637973" lon="1.044733">
        <ele>1514.6</ele>
        <time>1970-01-01T06:51:22.000Z</time>
      </trkpt>
      <trkpt lat="42.6381" lon="1.045064">
        <ele>1513.4</ele>
        <time>1970-01-01T06:51:25.000Z</time>
      </trkpt>
      <trkpt lat="42.638139" lon="1.04518">
        <ele>1513.2</ele>
        <time>1970-01-01T06:51:26.000Z</time>
      </trkpt>
      <trkpt lat="42.638136" lon="1.045547">
        <ele>1512</ele>
        <time>1970-01-01T06:51:29.000Z</time>
      </trkpt>
      <trkpt lat="42.638095" lon="1.045909">
        <ele>1510.8</ele>
        <time>1970-01-01T06:51:32.000Z</time>
      </trkpt>
      <trkpt lat="42.638062" lon="1.046399">
        <ele>1509.4</ele>
        <time>1970-01-01T06:51:36.000Z</time>
      </trkpt>
      <trkpt lat="42.638111" lon="1.047215">
        <ele>1508.6</ele>
        <time>1970-01-01T06:51:43.000Z</time>
      </trkpt>
      <trkpt lat="42.638105" lon="1.047433">
        <ele>1508.4</ele>
        <time>1970-01-01T06:51:45.000Z</time>
      </trkpt>
      <trkpt lat="42.638005" lon="1.047704">
        <ele>1509.8</ele>
        <time>1970-01-01T06:51:49.000Z</time>
      </trkpt>
      <trkpt lat="42.637978" lon="1.047738">
        <ele>1510.4</ele>
        <time>1970-01-01T06:51:50.000Z</time>
      </trkpt>
      <trkpt lat="42.637937" lon="1.047795">
        <ele>1511.2</ele>
        <time>1970-01-01T06:51:52.000Z</time>
      </trkpt>
      <trkpt lat="42.6379" lon="1.04794">
        <ele>1512.2</ele>
        <time>1970-01-01T06:51:57.000Z</time>
      </trkpt>
      <trkpt lat="42.637906" lon="1.048119">
        <ele>1513.2</ele>
        <time>1970-01-01T06:52:04.000Z</time>
      </trkpt>
      <trkpt lat="42.637945" lon="1.048255">
        <ele>1514</ele>
        <time>1970-01-01T06:52:09.000Z</time>
      </trkpt>
      <trkpt lat="42.637949" lon="1.048284">
        <ele>1514.2</ele>
        <time>1970-01-01T06:52:10.000Z</time>
      </trkpt>
      <trkpt lat="42.637966" lon="1.048339">
        <ele>1514.4</ele>
        <time>1970-01-01T06:52:12.000Z</time>
      </trkpt>
      <trkpt lat="42.638123" lon="1.04861">
        <ele>1513.4</ele>
        <time>1970-01-01T06:52:22.000Z</time>
      </trkpt>
      <trkpt lat="42.638151" lon="1.048756">
        <ele>1512.6</ele>
        <time>1970-01-01T06:52:25.000Z</time>
      </trkpt>
      <trkpt lat="42.638169" lon="1.048808">
        <ele>1512.2</ele>
        <time>1970-01-01T06:52:26.000Z</time>
      </trkpt>
      <trkpt lat="42.638231" lon="1.048965">
        <ele>1510.8</ele>
        <time>1970-01-01T06:52:29.000Z</time>
      </trkpt>
      <trkpt lat="42.638304" lon="1.04911">
        <ele>1509.6</ele>
        <time>1970-01-01T06:52:32.000Z</time>
      </trkpt>
      <trkpt lat="42.638372" lon="1.049231">
        <ele>1508.6</ele>
        <time>1970-01-01T06:52:35.000Z</time>
      </trkpt>
      <trkpt lat="42.638514" lon="1.049504">
        <ele>1507.4</ele>
        <time>1970-01-01T06:52:41.000Z</time>
      </trkpt>
      <trkpt lat="42.638617" lon="1.049692">
        <ele>1506.2</ele>
        <time>1970-01-01T06:52:44.000Z</time>
      </trkpt>
      <trkpt lat="42.638726" lon="1.049885">
        <ele>1505</ele>
        <time>1970-01-01T06:52:47.000Z</time>
      </trkpt>
      <trkpt lat="42.638802" lon="1.050019">
        <ele>1503.8</ele>
        <time>1970-01-01T06:52:49.000Z</time>
      </trkpt>
      <trkpt lat="42.63888" lon="1.05016">
        <ele>1502.8</ele>
        <time>1970-01-01T06:52:51.000Z</time>
      </trkpt>
      <trkpt lat="42.639004" lon="1.050399">
        <ele>1501.4</ele>
        <time>1970-01-01T06:52:54.000Z</time>
      </trkpt>
      <trkpt lat="42.639127" lon="1.05068">
        <ele>1500.2</ele>
        <time>1970-01-01T06:52:57.000Z</time>
      </trkpt>
      <trkpt lat="42.639196" lon="1.050884">
        <ele>1499</ele>
        <time>1970-01-01T06:52:59.000Z</time>
      </trkpt>
      <trkpt lat="42.639297" lon="1.051209">
        <ele>1497.6</ele>
        <time>1970-01-01T06:53:02.000Z</time>
      </trkpt>
      <trkpt lat="42.639378" lon="1.05143">
        <ele>1496.6</ele>
        <time>1970-01-01T06:53:04.000Z</time>
      </trkpt>
      <trkpt lat="42.639548" lon="1.051743">
        <ele>1495</ele>
        <time>1970-01-01T06:53:07.000Z</time>
      </trkpt>
      <trkpt lat="42.639685" lon="1.051933">
        <ele>1493.2</ele>
        <time>1970-01-01T06:53:09.000Z</time>
      </trkpt>
      <trkpt lat="42.639836" lon="1.052107">
        <ele>1491.8</ele>
        <time>1970-01-01T06:53:11.000Z</time>
      </trkpt>
      <trkpt lat="42.640058" lon="1.052366">
        <ele>1490.2</ele>
        <time>1970-01-01T06:53:14.000Z</time>
      </trkpt>
      <trkpt lat="42.640192" lon="1.052553">
        <ele>1489.2</ele>
        <time>1970-01-01T06:53:16.000Z</time>
      </trkpt>
      <trkpt lat="42.640363" lon="1.052848">
        <ele>1488.2</ele>
        <time>1970-01-01T06:53:19.000Z</time>
      </trkpt>
      <trkpt lat="42.640628" lon="1.053523">
        <ele>1487.2</ele>
        <time>1970-01-01T06:53:26.000Z</time>
      </trkpt>
      <trkpt lat="42.640755" lon="1.053857">
        <ele>1487</ele>
        <time>1970-01-01T06:53:30.000Z</time>
      </trkpt>
      <trkpt lat="42.640996" lon="1.054352">
        <ele>1485.8</ele>
        <time>1970-01-01T06:53:36.000Z</time>
      </trkpt>
      <trkpt lat="42.641101" lon="1.054523">
        <ele>1484.6</ele>
        <time>1970-01-01T06:53:38.000Z</time>
      </trkpt>
      <trkpt lat="42.641215" lon="1.054705">
        <ele>1483</ele>
        <time>1970-01-01T06:53:40.000Z</time>
      </trkpt>
      <trkpt lat="42.641335" lon="1.054896">
        <ele>1481.6</ele>
        <time>1970-01-01T06:53:42.000Z</time>
      </trkpt>
      <trkpt lat="42.641458" lon="1.055098">
        <ele>1480</ele>
        <time>1970-01-01T06:53:44.000Z</time>
      </trkpt>
      <trkpt lat="42.641577" lon="1.055316">
        <ele>1478.8</ele>
        <time>1970-01-01T06:53:46.000Z</time>
      </trkpt>
      <trkpt lat="42.641689" lon="1.055549">
        <ele>1477.4</ele>
        <time>1970-01-01T06:53:48.000Z</time>
      </trkpt>
      <trkpt lat="42.641741" lon="1.055667">
        <ele>1476</ele>
        <time>1970-01-01T06:53:49.000Z</time>
      </trkpt>
      <trkpt lat="42.641791" lon="1.055788">
        <ele>1475</ele>
        <time>1970-01-01T06:53:50.000Z</time>
      </trkpt>
      <trkpt lat="42.641884" lon="1.056038">
        <ele>1473.4</ele>
        <time>1970-01-01T06:53:52.000Z</time>
      </trkpt>
      <trkpt lat="42.641966" lon="1.056284">
        <ele>1472.4</ele>
        <time>1970-01-01T06:53:54.000Z</time>
      </trkpt>
      <trkpt lat="42.642036" lon="1.056511">
        <ele>1470.8</ele>
        <time>1970-01-01T06:53:56.000Z</time>
      </trkpt>
      <trkpt lat="42.642096" lon="1.056722">
        <ele>1469.8</ele>
        <time>1970-01-01T06:53:58.000Z</time>
      </trkpt>
      <trkpt lat="42.642175" lon="1.057005">
        <ele>1468.6</ele>
        <time>1970-01-01T06:54:01.000Z</time>
      </trkpt>
      <trkpt lat="42.642229" lon="1.057197">
        <ele>1467.4</ele>
        <time>1970-01-01T06:54:03.000Z</time>
      </trkpt>
      <trkpt lat="42.642291" lon="1.057399">
        <ele>1466.2</ele>
        <time>1970-01-01T06:54:05.000Z</time>
      </trkpt>
      <trkpt lat="42.642355" lon="1.057609">
        <ele>1465</ele>
        <time>1970-01-01T06:54:07.000Z</time>
      </trkpt>
      <trkpt lat="42.642421" lon="1.057815">
        <ele>1463.6</ele>
        <time>1970-01-01T06:54:09.000Z</time>
      </trkpt>
      <trkpt lat="42.64249" lon="1.058021">
        <ele>1462.4</ele>
        <time>1970-01-01T06:54:11.000Z</time>
      </trkpt>
      <trkpt lat="42.6426" lon="1.058328">
        <ele>1461</ele>
        <time>1970-01-01T06:54:14.000Z</time>
      </trkpt>
      <trkpt lat="42.642663" lon="1.058517">
        <ele>1459.8</ele>
        <time>1970-01-01T06:54:16.000Z</time>
      </trkpt>
      <trkpt lat="42.642692" lon="1.05862">
        <ele>1458.8</ele>
        <time>1970-01-01T06:54:19.000Z</time>
      </trkpt>
      <trkpt lat="42.642691" lon="1.05862">
        <ele>1458.6</ele>
        <time>1970-01-01T06:54:20.000Z</time>
      </trkpt>
      <trkpt lat="42.642711" lon="1.058652">
        <ele>1457.6</ele>
        <time>1970-01-01T06:55:19.000Z</time>
      </trkpt>
      <trkpt lat="42.642807" lon="1.058912">
        <ele>1456.4</ele>
        <time>1970-01-01T06:55:24.000Z</time>
      </trkpt>
      <trkpt lat="42.642858" lon="1.059049">
        <ele>1455.4</ele>
        <time>1970-01-01T06:55:26.000Z</time>
      </trkpt>
      <trkpt lat="42.642945" lon="1.059289">
        <ele>1454</ele>
        <time>1970-01-01T06:55:29.000Z</time>
      </trkpt>
      <trkpt lat="42.643008" lon="1.059469">
        <ele>1452.8</ele>
        <time>1970-01-01T06:55:31.000Z</time>
      </trkpt>
      <trkpt lat="42.643069" lon="1.059665">
        <ele>1451.6</ele>
        <time>1970-01-01T06:55:33.000Z</time>
      </trkpt>
      <trkpt lat="42.643131" lon="1.059872">
        <ele>1450.4</ele>
        <time>1970-01-01T06:55:35.000Z</time>
      </trkpt>
      <trkpt lat="42.643189" lon="1.060091">
        <ele>1449.4</ele>
        <time>1970-01-01T06:55:37.000Z</time>
      </trkpt>
      <trkpt lat="42.643272" lon="1.060443">
        <ele>1447.8</ele>
        <time>1970-01-01T06:55:40.000Z</time>
      </trkpt>
      <trkpt lat="42.643339" lon="1.060814">
        <ele>1446.6</ele>
        <time>1970-01-01T06:55:43.000Z</time>
      </trkpt>
      <trkpt lat="42.643387" lon="1.061194">
        <ele>1445.2</ele>
        <time>1970-01-01T06:55:46.000Z</time>
      </trkpt>
      <trkpt lat="42.643425" lon="1.061565">
        <ele>1443.8</ele>
        <time>1970-01-01T06:55:49.000Z</time>
      </trkpt>
      <trkpt lat="42.643446" lon="1.061804">
        <ele>1442.6</ele>
        <time>1970-01-01T06:55:51.000Z</time>
      </trkpt>
      <trkpt lat="42.643485" lon="1.06227">
        <ele>1441.6</ele>
        <time>1970-01-01T06:55:55.000Z</time>
      </trkpt>
      <trkpt lat="42.643547" lon="1.063021">
        <ele>1440.4</ele>
        <time>1970-01-01T06:56:02.000Z</time>
      </trkpt>
      <trkpt lat="42.643615" lon="1.063806">
        <ele>1440.2</ele>
        <time>1970-01-01T06:56:10.000Z</time>
      </trkpt>
      <trkpt lat="42.643653" lon="1.064106">
        <ele>1439.2</ele>
        <time>1970-01-01T06:56:13.000Z</time>
      </trkpt>
      <trkpt lat="42.643671" lon="1.064316">
        <ele>1438.8</ele>
        <time>1970-01-01T06:56:15.000Z</time>
      </trkpt>
      <trkpt lat="42.643675" lon="1.064629">
        <ele>1438</ele>
        <time>1970-01-01T06:56:18.000Z</time>
      </trkpt>
      <trkpt lat="42.643696" lon="1.065042">
        <ele>1436.8</ele>
        <time>1970-01-01T06:56:22.000Z</time>
      </trkpt>
      <trkpt lat="42.643714" lon="1.065556">
        <ele>1435.8</ele>
        <time>1970-01-01T06:56:27.000Z</time>
      </trkpt>
      <trkpt lat="42.643708" lon="1.066054">
        <ele>1435</ele>
        <time>1970-01-01T06:56:32.000Z</time>
      </trkpt>
      <trkpt lat="42.643698" lon="1.06636">
        <ele>1433.8</ele>
        <time>1970-01-01T06:56:35.000Z</time>
      </trkpt>
      <trkpt lat="42.64364" lon="1.067078">
        <ele>1432.6</ele>
        <time>1970-01-01T06:56:42.000Z</time>
      </trkpt>
      <trkpt lat="42.643599" lon="1.067881">
        <ele>1431.2</ele>
        <time>1970-01-01T06:56:50.000Z</time>
      </trkpt>
      <trkpt lat="42.643486" lon="1.068595">
        <ele>1430.2</ele>
        <time>1970-01-01T06:56:57.000Z</time>
      </trkpt>
      <trkpt lat="42.643452" lon="1.068691">
        <ele>1430</ele>
        <time>1970-01-01T06:56:58.000Z</time>
      </trkpt>
      <trkpt lat="42.643326" lon="1.068961">
        <ele>1429.8</ele>
        <time>1970-01-01T06:57:01.000Z</time>
      </trkpt>
      <trkpt lat="42.643223" lon="1.069123">
        <ele>1429.4</ele>
        <time>1970-01-01T06:57:03.000Z</time>
      </trkpt>
      <trkpt lat="42.643034" lon="1.069339">
        <ele>1429</ele>
        <time>1970-01-01T06:57:06.000Z</time>
      </trkpt>
      <trkpt lat="42.642765" lon="1.069612">
        <ele>1428</ele>
        <time>1970-01-01T06:57:10.000Z</time>
      </trkpt>
      <trkpt lat="42.642571" lon="1.069815">
        <ele>1426.8</ele>
        <time>1970-01-01T06:57:13.000Z</time>
      </trkpt>
      <trkpt lat="42.642383" lon="1.07005">
        <ele>1425.4</ele>
        <time>1970-01-01T06:57:16.000Z</time>
      </trkpt>
      <trkpt lat="42.642195" lon="1.070322">
        <ele>1424.2</ele>
        <time>1970-01-01T06:57:19.000Z</time>
      </trkpt>
      <trkpt lat="42.642141" lon="1.070426">
        <ele>1423.8</ele>
        <time>1970-01-01T06:57:20.000Z</time>
      </trkpt>
      <trkpt lat="42.642068" lon="1.070663">
        <ele>1422.6</ele>
        <time>1970-01-01T06:57:22.000Z</time>
      </trkpt>
      <trkpt lat="42.642046" lon="1.070928">
        <ele>1421.8</ele>
        <time>1970-01-01T06:57:24.000Z</time>
      </trkpt>
      <trkpt lat="42.642046" lon="1.071066">
        <ele>1421</ele>
        <time>1970-01-01T06:57:25.000Z</time>
      </trkpt>
      <trkpt lat="42.642047" lon="1.071202">
        <ele>1420.6</ele>
        <time>1970-01-01T06:57:26.000Z</time>
      </trkpt>
      <trkpt lat="42.642072" lon="1.071469">
        <ele>1419.8</ele>
        <time>1970-01-01T06:57:28.000Z</time>
      </trkpt>
      <trkpt lat="42.64211" lon="1.071593">
        <ele>1419.2</ele>
        <time>1970-01-01T06:57:29.000Z</time>
      </trkpt>
      <trkpt lat="42.642235" lon="1.071811">
        <ele>1417.4</ele>
        <time>1970-01-01T06:57:31.000Z</time>
      </trkpt>
      <trkpt lat="42.642367" lon="1.072028">
        <ele>1416</ele>
        <time>1970-01-01T06:57:33.000Z</time>
      </trkpt>
      <trkpt lat="42.642423" lon="1.072146">
        <ele>1415.4</ele>
        <time>1970-01-01T06:57:34.000Z</time>
      </trkpt>
      <trkpt lat="42.642468" lon="1.072271">
        <ele>1414.4</ele>
        <time>1970-01-01T06:57:35.000Z</time>
      </trkpt>
      <trkpt lat="42.6425" lon="1.072399">
        <ele>1413.4</ele>
        <time>1970-01-01T06:57:36.000Z</time>
      </trkpt>
      <trkpt lat="42.642544" lon="1.072652">
        <ele>1412</ele>
        <time>1970-01-01T06:57:38.000Z</time>
      </trkpt>
      <trkpt lat="42.642621" lon="1.073009">
        <ele>1410.6</ele>
        <time>1970-01-01T06:57:41.000Z</time>
      </trkpt>
      <trkpt lat="42.642687" lon="1.073225">
        <ele>1409.8</ele>
        <time>1970-01-01T06:57:43.000Z</time>
      </trkpt>
      <trkpt lat="42.642716" lon="1.07333">
        <ele>1409.6</ele>
        <time>1970-01-01T06:57:44.000Z</time>
      </trkpt>
      <trkpt lat="42.642809" lon="1.073632">
        <ele>1408.4</ele>
        <time>1970-01-01T06:57:47.000Z</time>
      </trkpt>
      <trkpt lat="42.642904" lon="1.074057">
        <ele>1407.2</ele>
        <time>1970-01-01T06:57:51.000Z</time>
      </trkpt>
      <trkpt lat="42.642942" lon="1.074281">
        <ele>1405.8</ele>
        <time>1970-01-01T06:57:53.000Z</time>
      </trkpt>
      <trkpt lat="42.642967" lon="1.074388">
        <ele>1405.2</ele>
        <time>1970-01-01T06:57:54.000Z</time>
      </trkpt>
      <trkpt lat="42.643032" lon="1.074594">
        <ele>1404.4</ele>
        <time>1970-01-01T06:57:56.000Z</time>
      </trkpt>
      <trkpt lat="42.643086" lon="1.07481">
        <ele>1403.2</ele>
        <time>1970-01-01T06:57:58.000Z</time>
      </trkpt>
      <trkpt lat="42.643117" lon="1.075039">
        <ele>1402</ele>
        <time>1970-01-01T06:58:00.000Z</time>
      </trkpt>
      <trkpt lat="42.643052" lon="1.07549">
        <ele>1400.8</ele>
        <time>1970-01-01T06:58:04.000Z</time>
      </trkpt>
      <trkpt lat="42.643044" lon="1.075599">
        <ele>1400.4</ele>
        <time>1970-01-01T06:58:05.000Z</time>
      </trkpt>
      <trkpt lat="42.643048" lon="1.075707">
        <ele>1399.8</ele>
        <time>1970-01-01T06:58:06.000Z</time>
      </trkpt>
      <trkpt lat="42.643106" lon="1.076007">
        <ele>1398.8</ele>
        <time>1970-01-01T06:58:09.000Z</time>
      </trkpt>
      <trkpt lat="42.64313" lon="1.076102">
        <ele>1398.4</ele>
        <time>1970-01-01T06:58:10.000Z</time>
      </trkpt>
      <trkpt lat="42.643165" lon="1.076291">
        <ele>1397.8</ele>
        <time>1970-01-01T06:58:12.000Z</time>
      </trkpt>
      <trkpt lat="42.643202" lon="1.076665">
        <ele>1397.4</ele>
        <time>1970-01-01T06:58:16.000Z</time>
      </trkpt>
      <trkpt lat="42.643314" lon="1.077063">
        <ele>1396</ele>
        <time>1970-01-01T06:58:20.000Z</time>
      </trkpt>
      <trkpt lat="42.64338" lon="1.077279">
        <ele>1394.6</ele>
        <time>1970-01-01T06:58:22.000Z</time>
      </trkpt>
      <trkpt lat="42.643454" lon="1.07748">
        <ele>1392.8</ele>
        <time>1970-01-01T06:58:24.000Z</time>
      </trkpt>
      <trkpt lat="42.64356" lon="1.077645">
        <ele>1391.8</ele>
        <time>1970-01-01T06:58:26.000Z</time>
      </trkpt>
      <trkpt lat="42.643689" lon="1.077777">
        <ele>1390.4</ele>
        <time>1970-01-01T06:58:28.000Z</time>
      </trkpt>
      <trkpt lat="42.643812" lon="1.077927">
        <ele>1389</ele>
        <time>1970-01-01T06:58:30.000Z</time>
      </trkpt>
      <trkpt lat="42.643882" lon="1.078135">
        <ele>1387.8</ele>
        <time>1970-01-01T06:58:32.000Z</time>
      </trkpt>
      <trkpt lat="42.643992" lon="1.078464">
        <ele>1386.4</ele>
        <time>1970-01-01T06:58:35.000Z</time>
      </trkpt>
      <trkpt lat="42.644094" lon="1.078662">
        <ele>1385.4</ele>
        <time>1970-01-01T06:58:37.000Z</time>
      </trkpt>
      <trkpt lat="42.644214" lon="1.078841">
        <ele>1384.4</ele>
        <time>1970-01-01T06:58:39.000Z</time>
      </trkpt>
      <trkpt lat="42.644279" lon="1.078925">
        <ele>1383.8</ele>
        <time>1970-01-01T06:58:40.000Z</time>
      </trkpt>
      <trkpt lat="42.644411" lon="1.079074">
        <ele>1382.6</ele>
        <time>1970-01-01T06:58:42.000Z</time>
      </trkpt>
      <trkpt lat="42.644604" lon="1.079266">
        <ele>1381.2</ele>
        <time>1970-01-01T06:58:45.000Z</time>
      </trkpt>
      <trkpt lat="42.644728" lon="1.079392">
        <ele>1380.2</ele>
        <time>1970-01-01T06:58:47.000Z</time>
      </trkpt>
      <trkpt lat="42.644906" lon="1.079587">
        <ele>1378.4</ele>
        <time>1970-01-01T06:58:50.000Z</time>
      </trkpt>
      <trkpt lat="42.645014" lon="1.079729">
        <ele>1377.2</ele>
        <time>1970-01-01T06:58:52.000Z</time>
      </trkpt>
      <trkpt lat="42.645157" lon="1.079951">
        <ele>1376</ele>
        <time>1970-01-01T06:58:55.000Z</time>
      </trkpt>
      <trkpt lat="42.645299" lon="1.080234">
        <ele>1375</ele>
        <time>1970-01-01T06:58:59.000Z</time>
      </trkpt>
      <trkpt lat="42.64542" lon="1.080487">
        <ele>1373.8</ele>
        <time>1970-01-01T06:59:03.000Z</time>
      </trkpt>
      <trkpt lat="42.645505" lon="1.080686">
        <ele>1372.6</ele>
        <time>1970-01-01T06:59:06.000Z</time>
      </trkpt>
      <trkpt lat="42.645588" lon="1.080874">
        <ele>1371.4</ele>
        <time>1970-01-01T06:59:09.000Z</time>
      </trkpt>
      <trkpt lat="42.645702" lon="1.081129">
        <ele>1370.2</ele>
        <time>1970-01-01T06:59:13.000Z</time>
      </trkpt>
      <trkpt lat="42.645777" lon="1.08125">
        <ele>1369.6</ele>
        <time>1970-01-01T06:59:15.000Z</time>
      </trkpt>
      <trkpt lat="42.646067" lon="1.081462">
        <ele>1369.2</ele>
        <time>1970-01-01T06:59:20.000Z</time>
      </trkpt>
      <trkpt lat="42.646144" lon="1.081492">
        <ele>1369</ele>
        <time>1970-01-01T06:59:21.000Z</time>
      </trkpt>
      <trkpt lat="42.646313" lon="1.08155">
        <ele>1368</ele>
        <time>1970-01-01T06:59:23.000Z</time>
      </trkpt>
      <trkpt lat="42.64649" lon="1.081607">
        <ele>1366.2</ele>
        <time>1970-01-01T06:59:25.000Z</time>
      </trkpt>
      <trkpt lat="42.646574" lon="1.081648">
        <ele>1365.4</ele>
        <time>1970-01-01T06:59:26.000Z</time>
      </trkpt>
      <trkpt lat="42.646652" lon="1.081704">
        <ele>1364.4</ele>
        <time>1970-01-01T06:59:27.000Z</time>
      </trkpt>
      <trkpt lat="42.646785" lon="1.08185">
        <ele>1362.6</ele>
        <time>1970-01-01T06:59:29.000Z</time>
      </trkpt>
      <trkpt lat="42.646864" lon="1.082022">
        <ele>1360.6</ele>
        <time>1970-01-01T06:59:31.000Z</time>
      </trkpt>
      <trkpt lat="42.646882" lon="1.082168">
        <ele>1359</ele>
        <time>1970-01-01T06:59:33.000Z</time>
      </trkpt>
      <trkpt lat="42.646913" lon="1.082309">
        <ele>1358.6</ele>
        <time>1970-01-01T06:59:38.000Z</time>
      </trkpt>
      <trkpt lat="42.646975" lon="1.082336">
        <ele>1358.4</ele>
        <time>1970-01-01T06:59:42.000Z</time>
      </trkpt>
      <trkpt lat="42.647442" lon="1.081941">
        <ele>1358.4</ele>
        <time>1970-01-01T07:00:02.000Z</time>
      </trkpt>
      <trkpt lat="42.647535" lon="1.081823">
        <ele>1357.6</ele>
        <time>1970-01-01T07:00:04.000Z</time>
      </trkpt>
      <trkpt lat="42.647707" lon="1.081625">
        <ele>1356</ele>
        <time>1970-01-01T07:00:07.000Z</time>
      </trkpt>
      <trkpt lat="42.647856" lon="1.081507">
        <ele>1354.4</ele>
        <time>1970-01-01T07:00:09.000Z</time>
      </trkpt>
      <trkpt lat="42.648015" lon="1.081426">
        <ele>1353.4</ele>
        <time>1970-01-01T07:00:11.000Z</time>
      </trkpt>
      <trkpt lat="42.648083" lon="1.081402">
        <ele>1353.2</ele>
        <time>1970-01-01T07:00:12.000Z</time>
      </trkpt>
      <trkpt lat="42.648206" lon="1.081376">
        <ele>1353.2</ele>
        <time>1970-01-01T07:00:14.000Z</time>
      </trkpt>
      <trkpt lat="42.648783" lon="1.08138">
        <ele>1353.2</ele>
        <time>1970-01-01T07:00:24.000Z</time>
      </trkpt>
      <trkpt lat="42.648988" lon="1.081383">
        <ele>1353.2</ele>
        <time>1970-01-01T07:00:28.000Z</time>
      </trkpt>
      <trkpt lat="42.649194" lon="1.081302">
        <ele>1353</ele>
        <time>1970-01-01T07:00:32.000Z</time>
      </trkpt>
      <trkpt lat="42.649379" lon="1.081184">
        <ele>1352</ele>
        <time>1970-01-01T07:00:35.000Z</time>
      </trkpt>
      <trkpt lat="42.649583" lon="1.081069">
        <ele>1350.8</ele>
        <time>1970-01-01T07:00:38.000Z</time>
      </trkpt>
      <trkpt lat="42.649726" lon="1.081005">
        <ele>1350</ele>
        <time>1970-01-01T07:00:40.000Z</time>
      </trkpt>
      <trkpt lat="42.6498" lon="1.080988">
        <ele>1349.6</ele>
        <time>1970-01-01T07:00:41.000Z</time>
      </trkpt>
      <trkpt lat="42.649958" lon="1.080984">
        <ele>1348.2</ele>
        <time>1970-01-01T07:00:43.000Z</time>
      </trkpt>
      <trkpt lat="42.650037" lon="1.080993">
        <ele>1347.6</ele>
        <time>1970-01-01T07:00:44.000Z</time>
      </trkpt>
      <trkpt lat="42.650115" lon="1.081012">
        <ele>1346.8</ele>
        <time>1970-01-01T07:00:45.000Z</time>
      </trkpt>
      <trkpt lat="42.650266" lon="1.081077">
        <ele>1345</ele>
        <time>1970-01-01T07:00:47.000Z</time>
      </trkpt>
      <trkpt lat="42.650419" lon="1.081176">
        <ele>1343.2</ele>
        <time>1970-01-01T07:00:49.000Z</time>
      </trkpt>
      <trkpt lat="42.650499" lon="1.081235">
        <ele>1342</ele>
        <time>1970-01-01T07:00:50.000Z</time>
      </trkpt>
      <trkpt lat="42.650667" lon="1.081362">
        <ele>1339.8</ele>
        <time>1970-01-01T07:00:52.000Z</time>
      </trkpt>
      <trkpt lat="42.650751" lon="1.081423">
        <ele>1338.6</ele>
        <time>1970-01-01T07:00:53.000Z</time>
      </trkpt>
      <trkpt lat="42.650823" lon="1.081474">
        <ele>1337.4</ele>
        <time>1970-01-01T07:00:54.000Z</time>
      </trkpt>
      <trkpt lat="42.650877" lon="1.081519">
        <ele>1336.8</ele>
        <time>1970-01-01T07:00:55.000Z</time>
      </trkpt>
      <trkpt lat="42.650923" lon="1.081558">
        <ele>1336.2</ele>
        <time>1970-01-01T07:00:56.000Z</time>
      </trkpt>
      <trkpt lat="42.650997" lon="1.081614">
        <ele>1335.2</ele>
        <time>1970-01-01T07:00:58.000Z</time>
      </trkpt>
      <trkpt lat="42.651025" lon="1.081636">
        <ele>1334.2</ele>
        <time>1970-01-01T07:01:01.000Z</time>
      </trkpt>
      <trkpt lat="42.651032" lon="1.081601">
        <ele>1334.2</ele>
        <time>1970-01-01T07:01:11.000Z</time>
      </trkpt>
      <trkpt lat="42.650913" lon="1.081491">
        <ele>1335.4</ele>
        <time>1970-01-01T07:01:23.000Z</time>
      </trkpt>
      <trkpt lat="42.650839" lon="1.081437">
        <ele>1336.4</ele>
        <time>1970-01-01T07:01:28.000Z</time>
      </trkpt>
      <trkpt lat="42.650741" lon="1.081367">
        <ele>1337.6</ele>
        <time>1970-01-01T07:01:35.000Z</time>
      </trkpt>
      <trkpt lat="42.650652" lon="1.081312">
        <ele>1338.8</ele>
        <time>1970-01-01T07:01:41.000Z</time>
      </trkpt>
      <trkpt lat="42.650567" lon="1.081243">
        <ele>1339.8</ele>
        <time>1970-01-01T07:01:47.000Z</time>
      </trkpt>
      <trkpt lat="42.650457" lon="1.081167">
        <ele>1340.6</ele>
        <time>1970-01-01T07:01:54.000Z</time>
      </trkpt>
      <trkpt lat="42.650441" lon="1.081157">
        <ele>1340.8</ele>
        <time>1970-01-01T07:01:55.000Z</time>
      </trkpt>
      <trkpt lat="42.65033" lon="1.081075">
        <ele>1342</ele>
        <time>1970-01-01T07:02:02.000Z</time>
      </trkpt>
      <trkpt lat="42.650277" lon="1.081019">
        <ele>1342.8</ele>
        <time>1970-01-01T07:02:07.000Z</time>
      </trkpt>
      <trkpt lat="42.650294" lon="1.080981">
        <ele>1343</ele>
        <time>1970-01-01T07:02:09.000Z</time>
      </trkpt>
      <trkpt lat="42.650795" lon="1.080711">
        <ele>1344</ele>
        <time>1970-01-01T07:02:35.000Z</time>
      </trkpt>
      <trkpt lat="42.651051" lon="1.080535">
        <ele>1344.4</ele>
        <time>1970-01-01T07:02:46.000Z</time>
      </trkpt>
      <trkpt lat="42.651516" lon="1.080128">
        <ele>1343.8</ele>
        <time>1970-01-01T07:03:05.000Z</time>
      </trkpt>
      <trkpt lat="42.651689" lon="1.079991">
        <ele>1344.6</ele>
        <time>1970-01-01T07:03:14.000Z</time>
      </trkpt>
      <trkpt lat="42.65217" lon="1.079647">
        <ele>1344.8</ele>
        <time>1970-01-01T07:03:33.000Z</time>
      </trkpt>
      <trkpt lat="42.652618" lon="1.079488">
        <ele>1344.2</ele>
        <time>1970-01-01T07:03:43.000Z</time>
      </trkpt>
      <trkpt lat="42.652717" lon="1.079435">
        <ele>1343.8</ele>
        <time>1970-01-01T07:03:45.000Z</time>
      </trkpt>
      <trkpt lat="42.652852" lon="1.079384">
        <ele>1343.2</ele>
        <time>1970-01-01T07:03:48.000Z</time>
      </trkpt>
      <trkpt lat="42.65292" lon="1.07934">
        <ele>1342.8</ele>
        <time>1970-01-01T07:03:50.000Z</time>
      </trkpt>
      <trkpt lat="42.653221" lon="1.079221">
        <ele>1341.8</ele>
        <time>1970-01-01T07:04:00.000Z</time>
      </trkpt>
      <trkpt lat="42.653303" lon="1.079195">
        <ele>1340.6</ele>
        <time>1970-01-01T07:04:04.000Z</time>
      </trkpt>
      <trkpt lat="42.653405" lon="1.079154">
        <ele>1339.6</ele>
        <time>1970-01-01T07:04:08.000Z</time>
      </trkpt>
      <trkpt lat="42.653472" lon="1.079122">
        <ele>1338.2</ele>
        <time>1970-01-01T07:04:10.000Z</time>
      </trkpt>
      <trkpt lat="42.653508" lon="1.079099">
        <ele>1337.6</ele>
        <time>1970-01-01T07:04:11.000Z</time>
      </trkpt>
      <trkpt lat="42.653546" lon="1.079075">
        <ele>1337</ele>
        <time>1970-01-01T07:04:12.000Z</time>
      </trkpt>
      <trkpt lat="42.653625" lon="1.079035">
        <ele>1335.8</ele>
        <time>1970-01-01T07:04:14.000Z</time>
      </trkpt>
      <trkpt lat="42.653709" lon="1.078993">
        <ele>1334.6</ele>
        <time>1970-01-01T07:04:16.000Z</time>
      </trkpt>
      <trkpt lat="42.653888" lon="1.078888">
        <ele>1333.4</ele>
        <time>1970-01-01T07:04:20.000Z</time>
      </trkpt>
      <trkpt lat="42.654323" lon="1.07868">
        <ele>1332.8</ele>
        <time>1970-01-01T07:04:33.000Z</time>
      </trkpt>
      <trkpt lat="42.654347" lon="1.078687">
        <ele>1332.6</ele>
        <time>1970-01-01T07:04:34.000Z</time>
      </trkpt>
      <trkpt lat="42.654429" lon="1.078746">
        <ele>1332.2</ele>
        <time>1970-01-01T07:04:37.000Z</time>
      </trkpt>
      <trkpt lat="42.654495" lon="1.078786">
        <ele>1331.6</ele>
        <time>1970-01-01T07:04:41.000Z</time>
      </trkpt>
      <trkpt lat="42.654508" lon="1.078827">
        <ele>1331.2</ele>
        <time>1970-01-01T07:04:45.000Z</time>
      </trkpt>
      <trkpt lat="42.65456" lon="1.078878">
        <ele>1330</ele>
        <time>1970-01-01T07:04:49.000Z</time>
      </trkpt>
      <trkpt lat="42.654628" lon="1.078881">
        <ele>1328.6</ele>
        <time>1970-01-01T07:04:53.000Z</time>
      </trkpt>
      <trkpt lat="42.654663" lon="1.078896">
        <ele>1327.8</ele>
        <time>1970-01-01T07:04:55.000Z</time>
      </trkpt>
      <trkpt lat="42.654732" lon="1.078944">
        <ele>1326.6</ele>
        <time>1970-01-01T07:04:59.000Z</time>
      </trkpt>
      <trkpt lat="42.654788" lon="1.07894">
        <ele>1325.6</ele>
        <time>1970-01-01T07:05:02.000Z</time>
      </trkpt>
      <trkpt lat="42.654901" lon="1.078942">
        <ele>1324.4</ele>
        <time>1970-01-01T07:05:07.000Z</time>
      </trkpt>
      <trkpt lat="42.654978" lon="1.07892">
        <ele>1323.2</ele>
        <time>1970-01-01T07:05:10.000Z</time>
      </trkpt>
      <trkpt lat="42.655025" lon="1.07893">
        <ele>1322</ele>
        <time>1970-01-01T07:05:12.000Z</time>
      </trkpt>
      <trkpt lat="42.6551" lon="1.078974">
        <ele>1320.6</ele>
        <time>1970-01-01T07:05:15.000Z</time>
      </trkpt>
      <trkpt lat="42.655171" lon="1.078976">
        <ele>1319.6</ele>
        <time>1970-01-01T07:05:18.000Z</time>
      </trkpt>
      <trkpt lat="42.655242" lon="1.078945">
        <ele>1318.4</ele>
        <time>1970-01-01T07:05:22.000Z</time>
      </trkpt>
      <trkpt lat="42.655318" lon="1.078914">
        <ele>1316.8</ele>
        <time>1970-01-01T07:05:26.000Z</time>
      </trkpt>
      <trkpt lat="42.655403" lon="1.078895">
        <ele>1315.8</ele>
        <time>1970-01-01T07:05:31.000Z</time>
      </trkpt>
      <trkpt lat="42.655448" lon="1.078889">
        <ele>1314.8</ele>
        <time>1970-01-01T07:05:35.000Z</time>
      </trkpt>
      <trkpt lat="42.655449" lon="1.078893">
        <ele>1314.4</ele>
        <time>1970-01-01T07:05:37.000Z</time>
      </trkpt>
      <trkpt lat="42.655507" lon="1.07897">
        <ele>1313.4</ele>
        <time>1970-01-01T07:05:47.000Z</time>
      </trkpt>
      <trkpt lat="42.655558" lon="1.079048">
        <ele>1312.2</ele>
        <time>1970-01-01T07:05:51.000Z</time>
      </trkpt>
      <trkpt lat="42.655595" lon="1.079081">
        <ele>1311.2</ele>
        <time>1970-01-01T07:05:53.000Z</time>
      </trkpt>
      <trkpt lat="42.655614" lon="1.079105">
        <ele>1310.8</ele>
        <time>1970-01-01T07:05:54.000Z</time>
      </trkpt>
      <trkpt lat="42.655654" lon="1.079163">
        <ele>1310.4</ele>
        <time>1970-01-01T07:05:56.000Z</time>
      </trkpt>
      <trkpt lat="42.655713" lon="1.079266">
        <ele>1309.6</ele>
        <time>1970-01-01T07:05:59.000Z</time>
      </trkpt>
      <trkpt lat="42.655754" lon="1.079325">
        <ele>1308.4</ele>
        <time>1970-01-01T07:06:02.000Z</time>
      </trkpt>
      <trkpt lat="42.655767" lon="1.079341">
        <ele>1307.6</ele>
        <time>1970-01-01T07:06:04.000Z</time>
      </trkpt>
      <trkpt lat="42.655775" lon="1.079446">
        <ele>1305.8</ele>
        <time>1970-01-01T07:06:10.000Z</time>
      </trkpt>
      <trkpt lat="42.65578" lon="1.079511">
        <ele>1304.4</ele>
        <time>1970-01-01T07:06:13.000Z</time>
      </trkpt>
      <trkpt lat="42.655796" lon="1.079559">
        <ele>1303</ele>
        <time>1970-01-01T07:06:16.000Z</time>
      </trkpt>
      <trkpt lat="42.655832" lon="1.079574">
        <ele>1301.6</ele>
        <time>1970-01-01T07:06:19.000Z</time>
      </trkpt>
      <trkpt lat="42.655878" lon="1.079557">
        <ele>1300.6</ele>
        <time>1970-01-01T07:06:23.000Z</time>
      </trkpt>
      <trkpt lat="42.655913" lon="1.079536">
        <ele>1299.4</ele>
        <time>1970-01-01T07:06:27.000Z</time>
      </trkpt>
      <trkpt lat="42.655947" lon="1.079468">
        <ele>1298.2</ele>
        <time>1970-01-01T07:06:33.000Z</time>
      </trkpt>
      <trkpt lat="42.655975" lon="1.079371">
        <ele>1297</ele>
        <time>1970-01-01T07:06:40.000Z</time>
      </trkpt>
      <trkpt lat="42.655989" lon="1.079316">
        <ele>1296</ele>
        <time>1970-01-01T07:06:44.000Z</time>
      </trkpt>
      <trkpt lat="42.655994" lon="1.0793">
        <ele>1295.2</ele>
        <time>1970-01-01T07:06:46.000Z</time>
      </trkpt>
      <trkpt lat="42.656122" lon="1.079276">
        <ele>1290.4</ele>
        <time>1970-01-01T07:07:19.000Z</time>
      </trkpt>
      <trkpt lat="42.656191" lon="1.079226">
        <ele>1289.2</ele>
        <time>1970-01-01T07:07:23.000Z</time>
      </trkpt>
      <trkpt lat="42.656309" lon="1.079095">
        <ele>1288.2</ele>
        <time>1970-01-01T07:07:28.000Z</time>
      </trkpt>
      <trkpt lat="42.65643" lon="1.078965">
        <ele>1287.2</ele>
        <time>1970-01-01T07:07:33.000Z</time>
      </trkpt>
      <trkpt lat="42.656493" lon="1.078859">
        <ele>1286.6</ele>
        <time>1970-01-01T07:07:39.000Z</time>
      </trkpt>
      <trkpt lat="42.656598" lon="1.078711">
        <ele>1284.8</ele>
        <time>1970-01-01T07:08:24.000Z</time>
      </trkpt>
      <trkpt lat="42.656624" lon="1.078658">
        <ele>1284.4</ele>
        <time>1970-01-01T07:08:26.000Z</time>
      </trkpt>
      <trkpt lat="42.656695" lon="1.078561">
        <ele>1283.8</ele>
        <time>1970-01-01T07:08:30.000Z</time>
      </trkpt>
      <trkpt lat="42.656732" lon="1.078555">
        <ele>1282.8</ele>
        <time>1970-01-01T07:08:32.000Z</time>
      </trkpt>
      <trkpt lat="42.65674" lon="1.078546">
        <ele>1282.6</ele>
        <time>1970-01-01T07:08:33.000Z</time>
      </trkpt>
      <trkpt lat="42.656751" lon="1.07854">
        <ele>1282</ele>
        <time>1970-01-01T07:08:35.000Z</time>
      </trkpt>
      <trkpt lat="42.656848" lon="1.078442">
        <ele>1280.2</ele>
        <time>1970-01-01T07:08:48.000Z</time>
      </trkpt>
      <trkpt lat="42.656903" lon="1.078362">
        <ele>1278.8</ele>
        <time>1970-01-01T07:08:52.000Z</time>
      </trkpt>
      <trkpt lat="42.656934" lon="1.078321">
        <ele>1277.6</ele>
        <time>1970-01-01T07:08:54.000Z</time>
      </trkpt>
      <trkpt lat="42.656972" lon="1.078291">
        <ele>1276.6</ele>
        <time>1970-01-01T07:08:56.000Z</time>
      </trkpt>
      <trkpt lat="42.65702" lon="1.078272">
        <ele>1275.6</ele>
        <time>1970-01-01T07:08:58.000Z</time>
      </trkpt>
      <trkpt lat="42.6571" lon="1.078185">
        <ele>1274.4</ele>
        <time>1970-01-01T07:09:03.000Z</time>
      </trkpt>
      <trkpt lat="42.657169" lon="1.078098">
        <ele>1273.2</ele>
        <time>1970-01-01T07:09:08.000Z</time>
      </trkpt>
      <trkpt lat="42.657324" lon="1.077898">
        <ele>1271.8</ele>
        <time>1970-01-01T07:09:16.000Z</time>
      </trkpt>
      <trkpt lat="42.657464" lon="1.077743">
        <ele>1270.6</ele>
        <time>1970-01-01T07:09:19.000Z</time>
      </trkpt>
      <trkpt lat="42.657638" lon="1.077577">
        <ele>1269.4</ele>
        <time>1970-01-01T07:09:22.000Z</time>
      </trkpt>
      <trkpt lat="42.65782" lon="1.077426">
        <ele>1268</ele>
        <time>1970-01-01T07:09:25.000Z</time>
      </trkpt>
      <trkpt lat="42.657958" lon="1.077333">
        <ele>1267</ele>
        <time>1970-01-01T07:09:27.000Z</time>
      </trkpt>
      <trkpt lat="42.658187" lon="1.07721">
        <ele>1265.6</ele>
        <time>1970-01-01T07:09:30.000Z</time>
      </trkpt>
      <trkpt lat="42.658354" lon="1.07713">
        <ele>1264.8</ele>
        <time>1970-01-01T07:09:32.000Z</time>
      </trkpt>
      <trkpt lat="42.65853" lon="1.077053">
        <ele>1263.2</ele>
        <time>1970-01-01T07:09:34.000Z</time>
      </trkpt>
      <trkpt lat="42.658626" lon="1.077026">
        <ele>1261.8</ele>
        <time>1970-01-01T07:09:35.000Z</time>
      </trkpt>
      <trkpt lat="42.658725" lon="1.077009">
        <ele>1260.8</ele>
        <time>1970-01-01T07:09:36.000Z</time>
      </trkpt>
      <trkpt lat="42.658934" lon="1.076992">
        <ele>1259.6</ele>
        <time>1970-01-01T07:09:38.000Z</time>
      </trkpt>
      <trkpt lat="42.659147" lon="1.076976">
        <ele>1258.6</ele>
        <time>1970-01-01T07:09:40.000Z</time>
      </trkpt>
      <trkpt lat="42.659368" lon="1.076967">
        <ele>1257</ele>
        <time>1970-01-01T07:09:42.000Z</time>
      </trkpt>
      <trkpt lat="42.659597" lon="1.076968">
        <ele>1255.2</ele>
        <time>1970-01-01T07:09:44.000Z</time>
      </trkpt>
      <trkpt lat="42.659828" lon="1.076987">
        <ele>1253.2</ele>
        <time>1970-01-01T07:09:46.000Z</time>
      </trkpt>
      <trkpt lat="42.659937" lon="1.07701">
        <ele>1252.2</ele>
        <time>1970-01-01T07:09:47.000Z</time>
      </trkpt>
      <trkpt lat="42.66004" lon="1.077044">
        <ele>1251</ele>
        <time>1970-01-01T07:09:48.000Z</time>
      </trkpt>
      <trkpt lat="42.660133" lon="1.077092">
        <ele>1249.6</ele>
        <time>1970-01-01T07:09:49.000Z</time>
      </trkpt>
      <trkpt lat="42.660218" lon="1.077153">
        <ele>1248.4</ele>
        <time>1970-01-01T07:09:50.000Z</time>
      </trkpt>
      <trkpt lat="42.660291" lon="1.077225">
        <ele>1247</ele>
        <time>1970-01-01T07:09:51.000Z</time>
      </trkpt>
      <trkpt lat="42.660366" lon="1.077391">
        <ele>1245.2</ele>
        <time>1970-01-01T07:09:53.000Z</time>
      </trkpt>
      <trkpt lat="42.660313" lon="1.077549">
        <ele>1243.8</ele>
        <time>1970-01-01T07:09:55.000Z</time>
      </trkpt>
      <trkpt lat="42.660178" lon="1.077618">
        <ele>1242.4</ele>
        <time>1970-01-01T07:09:57.000Z</time>
      </trkpt>
      <trkpt lat="42.659914" lon="1.077608">
        <ele>1241.2</ele>
        <time>1970-01-01T07:10:00.000Z</time>
      </trkpt>
      <trkpt lat="42.659734" lon="1.07773">
        <ele>1239.8</ele>
        <time>1970-01-01T07:10:02.000Z</time>
      </trkpt>
      <trkpt lat="42.659648" lon="1.077821">
        <ele>1239.2</ele>
        <time>1970-01-01T07:10:03.000Z</time>
      </trkpt>
      <trkpt lat="42.659561" lon="1.077915">
        <ele>1238.2</ele>
        <time>1970-01-01T07:10:04.000Z</time>
      </trkpt>
      <trkpt lat="42.65938" lon="1.078113">
        <ele>1236.6</ele>
        <time>1970-01-01T07:10:06.000Z</time>
      </trkpt>
      <trkpt lat="42.659295" lon="1.078212">
        <ele>1235.6</ele>
        <time>1970-01-01T07:10:07.000Z</time>
      </trkpt>
      <trkpt lat="42.659218" lon="1.078307">
        <ele>1234.4</ele>
        <time>1970-01-01T07:10:08.000Z</time>
      </trkpt>
      <trkpt lat="42.659153" lon="1.0784">
        <ele>1233.8</ele>
        <time>1970-01-01T07:10:09.000Z</time>
      </trkpt>
      <trkpt lat="42.659112" lon="1.078494">
        <ele>1233.4</ele>
        <time>1970-01-01T07:10:10.000Z</time>
      </trkpt>
      <trkpt lat="42.659194" lon="1.078777">
        <ele>1232</ele>
        <time>1970-01-01T07:10:14.000Z</time>
      </trkpt>
      <trkpt lat="42.659308" lon="1.078769">
        <ele>1231</ele>
        <time>1970-01-01T07:10:16.000Z</time>
      </trkpt>
      <trkpt lat="42.659448" lon="1.078683">
        <ele>1229.8</ele>
        <time>1970-01-01T07:10:18.000Z</time>
      </trkpt>
      <trkpt lat="42.659605" lon="1.078574">
        <ele>1228.6</ele>
        <time>1970-01-01T07:10:20.000Z</time>
      </trkpt>
      <trkpt lat="42.659784" lon="1.078453">
        <ele>1227</ele>
        <time>1970-01-01T07:10:22.000Z</time>
      </trkpt>
      <trkpt lat="42.659881" lon="1.078404">
        <ele>1226</ele>
        <time>1970-01-01T07:10:23.000Z</time>
      </trkpt>
      <trkpt lat="42.660084" lon="1.078362">
        <ele>1223.8</ele>
        <time>1970-01-01T07:10:25.000Z</time>
      </trkpt>
      <trkpt lat="42.660179" lon="1.078371">
        <ele>1222</ele>
        <time>1970-01-01T07:10:26.000Z</time>
      </trkpt>
      <trkpt lat="42.660366" lon="1.078435">
        <ele>1220.4</ele>
        <time>1970-01-01T07:10:28.000Z</time>
      </trkpt>
      <trkpt lat="42.660458" lon="1.078491">
        <ele>1219.2</ele>
        <time>1970-01-01T07:10:29.000Z</time>
      </trkpt>
      <trkpt lat="42.660548" lon="1.078566">
        <ele>1218</ele>
        <time>1970-01-01T07:10:30.000Z</time>
      </trkpt>
      <trkpt lat="42.660706" lon="1.078772">
        <ele>1216.4</ele>
        <time>1970-01-01T07:10:32.000Z</time>
      </trkpt>
      <trkpt lat="42.660825" lon="1.079036">
        <ele>1213.6</ele>
        <time>1970-01-01T07:10:34.000Z</time>
      </trkpt>
      <trkpt lat="42.66087" lon="1.079186">
        <ele>1211.6</ele>
        <time>1970-01-01T07:10:35.000Z</time>
      </trkpt>
      <trkpt lat="42.660911" lon="1.079342">
        <ele>1210.6</ele>
        <time>1970-01-01T07:10:36.000Z</time>
      </trkpt>
      <trkpt lat="42.660948" lon="1.079505">
        <ele>1209.2</ele>
        <time>1970-01-01T07:10:37.000Z</time>
      </trkpt>
      <trkpt lat="42.660983" lon="1.079672">
        <ele>1208</ele>
        <time>1970-01-01T07:10:38.000Z</time>
      </trkpt>
      <trkpt lat="42.661018" lon="1.079838">
        <ele>1206.6</ele>
        <time>1970-01-01T07:10:39.000Z</time>
      </trkpt>
      <trkpt lat="42.661057" lon="1.079989">
        <ele>1205.4</ele>
        <time>1970-01-01T07:10:40.000Z</time>
      </trkpt>
      <trkpt lat="42.661151" lon="1.080239">
        <ele>1204</ele>
        <time>1970-01-01T07:10:42.000Z</time>
      </trkpt>
      <trkpt lat="42.661307" lon="1.080616">
        <ele>1203</ele>
        <time>1970-01-01T07:10:46.000Z</time>
      </trkpt>
      <trkpt lat="42.661411" lon="1.080893">
        <ele>1202</ele>
        <time>1970-01-01T07:10:50.000Z</time>
      </trkpt>
      <trkpt lat="42.661459" lon="1.080972">
        <ele>1201.8</ele>
        <time>1970-01-01T07:10:52.000Z</time>
      </trkpt>
      <trkpt lat="42.661669" lon="1.080858">
        <ele>1201</ele>
        <time>1970-01-01T07:10:59.000Z</time>
      </trkpt>
      <trkpt lat="42.66168" lon="1.080847">
        <ele>1201</ele>
        <time>1970-01-01T07:11:01.000Z</time>
      </trkpt>
      <trkpt lat="42.661705" lon="1.080817">
        <ele>1200.6</ele>
        <time>1970-01-01T07:11:55.000Z</time>
      </trkpt>
      <trkpt lat="42.661828" lon="1.080663">
        <ele>1200.8</ele>
        <time>1970-01-01T07:12:01.000Z</time>
      </trkpt>
      <trkpt lat="42.66203" lon="1.080481">
        <ele>1200.4</ele>
        <time>1970-01-01T07:12:07.000Z</time>
      </trkpt>
      <trkpt lat="42.662199" lon="1.080443">
        <ele>1200.2</ele>
        <time>1970-01-01T07:12:11.000Z</time>
      </trkpt>
      <trkpt lat="42.662371" lon="1.080488">
        <ele>1200.6</ele>
        <time>1970-01-01T07:12:15.000Z</time>
      </trkpt>
      <trkpt lat="42.66251" lon="1.080615">
        <ele>1201.2</ele>
        <time>1970-01-01T07:12:19.000Z</time>
      </trkpt>
      <trkpt lat="42.662844" lon="1.080886">
        <ele>1202.2</ele>
        <time>1970-01-01T07:12:30.000Z</time>
      </trkpt>
      <trkpt lat="42.663128" lon="1.080945">
        <ele>1203.4</ele>
        <time>1970-01-01T07:12:39.000Z</time>
      </trkpt>
      <trkpt lat="42.663342" lon="1.080955">
        <ele>1204.4</ele>
        <time>1970-01-01T07:12:47.000Z</time>
      </trkpt>
      <trkpt lat="42.663445" lon="1.080978">
        <ele>1205</ele>
        <time>1970-01-01T07:12:54.000Z</time>
      </trkpt>
      <trkpt lat="42.663502" lon="1.080969">
        <ele>1205.8</ele>
        <time>1970-01-01T07:13:01.000Z</time>
      </trkpt>
      <trkpt lat="42.66372" lon="1.080915">
        <ele>1206.8</ele>
        <time>1970-01-01T07:13:08.000Z</time>
      </trkpt>
      <trkpt lat="42.664098" lon="1.080917">
        <ele>1208</ele>
        <time>1970-01-01T07:13:19.000Z</time>
      </trkpt>
      <trkpt lat="42.664633" lon="1.081062">
        <ele>1208.2</ele>
        <time>1970-01-01T07:13:33.000Z</time>
      </trkpt>
      <trkpt lat="42.664746" lon="1.081092">
        <ele>1208.2</ele>
        <time>1970-01-01T07:13:38.000Z</time>
      </trkpt>
      <trkpt lat="42.664752" lon="1.081074">
        <ele>1208</ele>
        <time>1970-01-01T07:14:05.000Z</time>
      </trkpt>
      <trkpt lat="42.664204" lon="1.080916">
        <ele>1209</ele>
        <time>1970-01-01T07:14:20.000Z</time>
      </trkpt>
      <trkpt lat="42.663701" lon="1.080895">
        <ele>1208.2</ele>
        <time>1970-01-01T07:14:33.000Z</time>
      </trkpt>
      <trkpt lat="42.663731" lon="1.080913">
        <ele>1207.8</ele>
        <time>1970-01-01T07:14:36.000Z</time>
      </trkpt>
      <trkpt lat="42.66375" lon="1.080906">
        <ele>1207.6</ele>
        <time>1970-01-01T07:14:37.000Z</time>
      </trkpt>
      <trkpt lat="42.664316" lon="1.080962">
        <ele>1208.4</ele>
        <time>1970-01-01T07:14:53.000Z</time>
      </trkpt>
      <trkpt lat="42.664869" lon="1.081115">
        <ele>1208.4</ele>
        <time>1970-01-01T07:15:06.000Z</time>
      </trkpt>
      <trkpt lat="42.664995" lon="1.081165">
        <ele>1208.2</ele>
        <time>1970-01-01T07:15:09.000Z</time>
      </trkpt>
      <trkpt lat="42.665186" lon="1.080947">
        <ele>1207.8</ele>
        <time>1970-01-01T07:15:16.000Z</time>
      </trkpt>
      <trkpt lat="42.665285" lon="1.080821">
        <ele>1208</ele>
        <time>1970-01-01T07:15:20.000Z</time>
      </trkpt>
      <trkpt lat="42.665831" lon="1.080878">
        <ele>1208.4</ele>
        <time>1970-01-01T07:15:35.000Z</time>
      </trkpt>
      <trkpt lat="42.666378" lon="1.080972">
        <ele>1208.2</ele>
        <time>1970-01-01T07:15:50.000Z</time>
      </trkpt>
      <trkpt lat="42.666948" lon="1.080978">
        <ele>1209.8</ele>
        <time>1970-01-01T07:16:05.000Z</time>
      </trkpt>
      <trkpt lat="42.667262" lon="1.081015">
        <ele>1211.2</ele>
        <time>1970-01-01T07:16:14.000Z</time>
      </trkpt>
      <trkpt lat="42.667444" lon="1.081095">
        <ele>1212.4</ele>
        <time>1970-01-01T07:16:20.000Z</time>
      </trkpt>
      <trkpt lat="42.66798" lon="1.081293">
        <ele>1212.8</ele>
        <time>1970-01-01T07:16:38.000Z</time>
      </trkpt>
      <trkpt lat="42.668137" lon="1.081321">
        <ele>1213.6</ele>
        <time>1970-01-01T07:16:44.000Z</time>
      </trkpt>
      <trkpt lat="42.668454" lon="1.081304">
        <ele>1214.6</ele>
        <time>1970-01-01T07:16:56.000Z</time>
      </trkpt>
      <trkpt lat="42.668621" lon="1.081275">
        <ele>1215.8</ele>
        <time>1970-01-01T07:17:02.000Z</time>
      </trkpt>
      <trkpt lat="42.668727" lon="1.081247">
        <ele>1216.8</ele>
        <time>1970-01-01T07:17:06.000Z</time>
      </trkpt>
      <trkpt lat="42.668921" lon="1.081186">
        <ele>1218</ele>
        <time>1970-01-01T07:17:14.000Z</time>
      </trkpt>
      <trkpt lat="42.66901" lon="1.081153">
        <ele>1219.2</ele>
        <time>1970-01-01T07:17:18.000Z</time>
      </trkpt>
      <trkpt lat="42.669054" lon="1.081132">
        <ele>1220.2</ele>
        <time>1970-01-01T07:17:20.000Z</time>
      </trkpt>
      <trkpt lat="42.669123" lon="1.081107">
        <ele>1221.2</ele>
        <time>1970-01-01T07:17:23.000Z</time>
      </trkpt>
      <trkpt lat="42.669298" lon="1.081023">
        <ele>1222.6</ele>
        <time>1970-01-01T07:17:30.000Z</time>
      </trkpt>
      <trkpt lat="42.669687" lon="1.080783">
        <ele>1223.6</ele>
        <time>1970-01-01T07:17:46.000Z</time>
      </trkpt>
      <trkpt lat="42.670082" lon="1.080988">
        <ele>1224.6</ele>
        <time>1970-01-01T07:18:02.000Z</time>
      </trkpt>
      <trkpt lat="42.670536" lon="1.081026">
        <ele>1226</ele>
        <time>1970-01-01T07:18:18.000Z</time>
      </trkpt>
      <trkpt lat="42.670775" lon="1.081002">
        <ele>1227</ele>
        <time>1970-01-01T07:18:27.000Z</time>
      </trkpt>
      <trkpt lat="42.671259" lon="1.081379">
        <ele>1227.8</ele>
        <time>1970-01-01T07:18:45.000Z</time>
      </trkpt>
      <trkpt lat="42.671709" lon="1.081793">
        <ele>1227.2</ele>
        <time>1970-01-01T07:18:59.000Z</time>
      </trkpt>
      <trkpt lat="42.671852" lon="1.081896">
        <ele>1227.6</ele>
        <time>1970-01-01T07:19:03.000Z</time>
      </trkpt>
      <trkpt lat="42.672015" lon="1.081889">
        <ele>1227.8</ele>
        <time>1970-01-01T07:19:07.000Z</time>
      </trkpt>
      <trkpt lat="42.672564" lon="1.081759">
        <ele>1227.8</ele>
        <time>1970-01-01T07:19:20.000Z</time>
      </trkpt>
      <trkpt lat="42.672743" lon="1.081718">
        <ele>1228.6</ele>
        <time>1970-01-01T07:19:25.000Z</time>
      </trkpt>
      <trkpt lat="42.672962" lon="1.081628">
        <ele>1229.8</ele>
        <time>1970-01-01T07:19:32.000Z</time>
      </trkpt>
      <trkpt lat="42.673136" lon="1.081594">
        <ele>1230.8</ele>
        <time>1970-01-01T07:19:38.000Z</time>
      </trkpt>
      <trkpt lat="42.67328" lon="1.081605">
        <ele>1232.2</ele>
        <time>1970-01-01T07:19:43.000Z</time>
      </trkpt>
      <trkpt lat="42.673593" lon="1.081698">
        <ele>1233.4</ele>
        <time>1970-01-01T07:19:53.000Z</time>
      </trkpt>
      <trkpt lat="42.6738" lon="1.081772">
        <ele>1234.4</ele>
        <time>1970-01-01T07:20:00.000Z</time>
      </trkpt>
      <trkpt lat="42.674239" lon="1.08222">
        <ele>1235.4</ele>
        <time>1970-01-01T07:20:17.000Z</time>
      </trkpt>
      <trkpt lat="42.674306" lon="1.082323">
        <ele>1235.6</ele>
        <time>1970-01-01T07:20:20.000Z</time>
      </trkpt>
      <trkpt lat="42.674447" lon="1.082557">
        <ele>1236.6</ele>
        <time>1970-01-01T07:20:27.000Z</time>
      </trkpt>
      <trkpt lat="42.674519" lon="1.082721">
        <ele>1237.8</ele>
        <time>1970-01-01T07:20:32.000Z</time>
      </trkpt>
      <trkpt lat="42.674577" lon="1.082942">
        <ele>1238.8</ele>
        <time>1970-01-01T07:20:38.000Z</time>
      </trkpt>
      <trkpt lat="42.674816" lon="1.083321">
        <ele>1240</ele>
        <time>1970-01-01T07:20:49.000Z</time>
      </trkpt>
      <trkpt lat="42.674938" lon="1.083565">
        <ele>1241.2</ele>
        <time>1970-01-01T07:20:56.000Z</time>
      </trkpt>
      <trkpt lat="42.67497" lon="1.083736">
        <ele>1242.6</ele>
        <time>1970-01-01T07:21:01.000Z</time>
      </trkpt>
      <trkpt lat="42.675015" lon="1.083844">
        <ele>1243.6</ele>
        <time>1970-01-01T07:21:05.000Z</time>
      </trkpt>
      <trkpt lat="42.675315" lon="1.084106">
        <ele>1243.8</ele>
        <time>1970-01-01T07:21:16.000Z</time>
      </trkpt>
      <trkpt lat="42.675458" lon="1.084276">
        <ele>1243.8</ele>
        <time>1970-01-01T07:21:20.000Z</time>
      </trkpt>
      <trkpt lat="42.675707" lon="1.084404">
        <ele>1243</ele>
        <time>1970-01-01T07:21:26.000Z</time>
      </trkpt>
      <trkpt lat="42.675882" lon="1.084436">
        <ele>1242.8</ele>
        <time>1970-01-01T07:21:30.000Z</time>
      </trkpt>
      <trkpt lat="42.676306" lon="1.084431">
        <ele>1243.8</ele>
        <time>1970-01-01T07:21:42.000Z</time>
      </trkpt>
      <trkpt lat="42.676737" lon="1.084483">
        <ele>1243.2</ele>
        <time>1970-01-01T07:21:53.000Z</time>
      </trkpt>
      <trkpt lat="42.676815" lon="1.084521">
        <ele>1243</ele>
        <time>1970-01-01T07:21:55.000Z</time>
      </trkpt>
      <trkpt lat="42.676968" lon="1.084613">
        <ele>1243.2</ele>
        <time>1970-01-01T07:21:59.000Z</time>
      </trkpt>
      <trkpt lat="42.677128" lon="1.084799">
        <ele>1243.8</ele>
        <time>1970-01-01T07:22:04.000Z</time>
      </trkpt>
      <trkpt lat="42.677245" lon="1.084963">
        <ele>1244</ele>
        <time>1970-01-01T07:22:08.000Z</time>
      </trkpt>
      <trkpt lat="42.677404" lon="1.085158">
        <ele>1244.6</ele>
        <time>1970-01-01T07:22:13.000Z</time>
      </trkpt>
      <trkpt lat="42.677555" lon="1.085275">
        <ele>1245</ele>
        <time>1970-01-01T07:22:17.000Z</time>
      </trkpt>
      <trkpt lat="42.677799" lon="1.08527">
        <ele>1244.8</ele>
        <time>1970-01-01T07:22:23.000Z</time>
      </trkpt>
      <trkpt lat="42.678023" lon="1.085173">
        <ele>1245.4</ele>
        <time>1970-01-01T07:22:29.000Z</time>
      </trkpt>
      <trkpt lat="42.678178" lon="1.085142">
        <ele>1246.4</ele>
        <time>1970-01-01T07:22:33.000Z</time>
      </trkpt>
      <trkpt lat="42.678741" lon="1.085193">
        <ele>1247.4</ele>
        <time>1970-01-01T07:22:47.000Z</time>
      </trkpt>
      <trkpt lat="42.678818" lon="1.085209">
        <ele>1247.6</ele>
        <time>1970-01-01T07:22:49.000Z</time>
      </trkpt>
      <trkpt lat="42.67914" lon="1.0853">
        <ele>1248.6</ele>
        <time>1970-01-01T07:22:58.000Z</time>
      </trkpt>
      <trkpt lat="42.679318" lon="1.085377">
        <ele>1249.8</ele>
        <time>1970-01-01T07:23:03.000Z</time>
      </trkpt>
      <trkpt lat="42.679623" lon="1.085566">
        <ele>1250.8</ele>
        <time>1970-01-01T07:23:12.000Z</time>
      </trkpt>
      <trkpt lat="42.67994" lon="1.085768">
        <ele>1252</ele>
        <time>1970-01-01T07:23:22.000Z</time>
      </trkpt>
      <trkpt lat="42.680222" lon="1.085961">
        <ele>1253</ele>
        <time>1970-01-01T07:23:31.000Z</time>
      </trkpt>
      <trkpt lat="42.6807" lon="1.086347">
        <ele>1253.6</ele>
        <time>1970-01-01T07:23:47.000Z</time>
      </trkpt>
      <trkpt lat="42.680844" lon="1.08648">
        <ele>1254.2</ele>
        <time>1970-01-01T07:23:52.000Z</time>
      </trkpt>
      <trkpt lat="42.681178" lon="1.086779">
        <ele>1255.4</ele>
        <time>1970-01-01T07:24:03.000Z</time>
      </trkpt>
      <trkpt lat="42.68146" lon="1.086979">
        <ele>1256.6</ele>
        <time>1970-01-01T07:24:12.000Z</time>
      </trkpt>
      <trkpt lat="42.681573" lon="1.087023">
        <ele>1257.6</ele>
        <time>1970-01-01T07:24:16.000Z</time>
      </trkpt>
      <trkpt lat="42.681708" lon="1.087081">
        <ele>1258.8</ele>
        <time>1970-01-01T07:24:21.000Z</time>
      </trkpt>
      <trkpt lat="42.681839" lon="1.087149">
        <ele>1260</ele>
        <time>1970-01-01T07:24:26.000Z</time>
      </trkpt>
      <trkpt lat="42.681991" lon="1.087252">
        <ele>1261</ele>
        <time>1970-01-01T07:24:32.000Z</time>
      </trkpt>
      <trkpt lat="42.682197" lon="1.087352">
        <ele>1262.2</ele>
        <time>1970-01-01T07:24:40.000Z</time>
      </trkpt>
      <trkpt lat="42.682465" lon="1.087258">
        <ele>1263.4</ele>
        <time>1970-01-01T07:24:50.000Z</time>
      </trkpt>
      <trkpt lat="42.6827" lon="1.087192">
        <ele>1264.6</ele>
        <time>1970-01-01T07:24:59.000Z</time>
      </trkpt>
      <trkpt lat="42.682894" lon="1.087178">
        <ele>1265.6</ele>
        <time>1970-01-01T07:25:06.000Z</time>
      </trkpt>
      <trkpt lat="42.683053" lon="1.087179">
        <ele>1266.6</ele>
        <time>1970-01-01T07:25:12.000Z</time>
      </trkpt>
      <trkpt lat="42.683249" lon="1.087209">
        <ele>1268</ele>
        <time>1970-01-01T07:25:20.000Z</time>
      </trkpt>
      <trkpt lat="42.683447" lon="1.087245">
        <ele>1269</ele>
        <time>1970-01-01T07:25:29.000Z</time>
      </trkpt>
      <trkpt lat="42.683652" lon="1.08733">
        <ele>1270</ele>
        <time>1970-01-01T07:25:38.000Z</time>
      </trkpt>
      <trkpt lat="42.683758" lon="1.087397">
        <ele>1271</ele>
        <time>1970-01-01T07:25:43.000Z</time>
      </trkpt>
      <trkpt lat="42.683919" lon="1.087521">
        <ele>1272.4</ele>
        <time>1970-01-01T07:25:51.000Z</time>
      </trkpt>
      <trkpt lat="42.684042" lon="1.087618">
        <ele>1273.4</ele>
        <time>1970-01-01T07:25:57.000Z</time>
      </trkpt>
      <trkpt lat="42.684229" lon="1.087835">
        <ele>1274.6</ele>
        <time>1970-01-01T07:26:07.000Z</time>
      </trkpt>
      <trkpt lat="42.684263" lon="1.088186">
        <ele>1275.6</ele>
        <time>1970-01-01T07:26:18.000Z</time>
      </trkpt>
      <trkpt lat="42.684288" lon="1.088412">
        <ele>1276.6</ele>
        <time>1970-01-01T07:26:25.000Z</time>
      </trkpt>
      <trkpt lat="42.684418" lon="1.088738">
        <ele>1277.8</ele>
        <time>1970-01-01T07:26:36.000Z</time>
      </trkpt>
      <trkpt lat="42.684614" lon="1.089173">
        <ele>1279</ele>
        <time>1970-01-01T07:26:51.000Z</time>
      </trkpt>
      <trkpt lat="42.684687" lon="1.08944">
        <ele>1280</ele>
        <time>1970-01-01T07:26:59.000Z</time>
      </trkpt>
      <trkpt lat="42.684728" lon="1.089601">
        <ele>1281.4</ele>
        <time>1970-01-01T07:27:04.000Z</time>
      </trkpt>
      <trkpt lat="42.684786" lon="1.089754">
        <ele>1282.4</ele>
        <time>1970-01-01T07:27:09.000Z</time>
      </trkpt>
      <trkpt lat="42.684961" lon="1.089975">
        <ele>1283.4</ele>
        <time>1970-01-01T07:27:18.000Z</time>
      </trkpt>
      <trkpt lat="42.685068" lon="1.090134">
        <ele>1284.6</ele>
        <time>1970-01-01T07:27:24.000Z</time>
      </trkpt>
      <trkpt lat="42.685203" lon="1.0904">
        <ele>1285.8</ele>
        <time>1970-01-01T07:27:33.000Z</time>
      </trkpt>
      <trkpt lat="42.685432" lon="1.090555">
        <ele>1286.8</ele>
        <time>1970-01-01T07:27:42.000Z</time>
      </trkpt>
      <trkpt lat="42.685776" lon="1.090468">
        <ele>1287.8</ele>
        <time>1970-01-01T07:27:54.000Z</time>
      </trkpt>
      <trkpt lat="42.68603" lon="1.090174">
        <ele>1288.8</ele>
        <time>1970-01-01T07:28:06.000Z</time>
      </trkpt>
      <trkpt lat="42.686147" lon="1.09002">
        <ele>1290</ele>
        <time>1970-01-01T07:28:12.000Z</time>
      </trkpt>
      <trkpt lat="42.68632" lon="1.089857">
        <ele>1291</ele>
        <time>1970-01-01T07:28:20.000Z</time>
      </trkpt>
      <trkpt lat="42.686481" lon="1.089785">
        <ele>1292</ele>
        <time>1970-01-01T07:28:27.000Z</time>
      </trkpt>
      <trkpt lat="42.686638" lon="1.089784">
        <ele>1293</ele>
        <time>1970-01-01T07:28:33.000Z</time>
      </trkpt>
      <trkpt lat="42.686737" lon="1.08981">
        <ele>1294.2</ele>
        <time>1970-01-01T07:28:37.000Z</time>
      </trkpt>
      <trkpt lat="42.686883" lon="1.089876">
        <ele>1295.2</ele>
        <time>1970-01-01T07:28:44.000Z</time>
      </trkpt>
      <trkpt lat="42.686971" lon="1.089928">
        <ele>1296.4</ele>
        <time>1970-01-01T07:28:48.000Z</time>
      </trkpt>
      <trkpt lat="42.687087" lon="1.089991">
        <ele>1297.6</ele>
        <time>1970-01-01T07:28:54.000Z</time>
      </trkpt>
      <trkpt lat="42.687205" lon="1.09009">
        <ele>1298.6</ele>
        <time>1970-01-01T07:29:00.000Z</time>
      </trkpt>
      <trkpt lat="42.687305" lon="1.090153">
        <ele>1299.6</ele>
        <time>1970-01-01T07:29:05.000Z</time>
      </trkpt>
      <trkpt lat="42.687417" lon="1.090242">
        <ele>1300.8</ele>
        <time>1970-01-01T07:29:11.000Z</time>
      </trkpt>
      <trkpt lat="42.687494" lon="1.09029">
        <ele>1302</ele>
        <time>1970-01-01T07:29:15.000Z</time>
      </trkpt>
      <trkpt lat="42.687617" lon="1.090312">
        <ele>1303</ele>
        <time>1970-01-01T07:29:21.000Z</time>
      </trkpt>
      <trkpt lat="42.687726" lon="1.090296">
        <ele>1304.2</ele>
        <time>1970-01-01T07:29:26.000Z</time>
      </trkpt>
      <trkpt lat="42.687866" lon="1.090286">
        <ele>1305.4</ele>
        <time>1970-01-01T07:29:33.000Z</time>
      </trkpt>
      <trkpt lat="42.688002" lon="1.090306">
        <ele>1306.4</ele>
        <time>1970-01-01T07:29:40.000Z</time>
      </trkpt>
      <trkpt lat="42.688105" lon="1.090329">
        <ele>1307.4</ele>
        <time>1970-01-01T07:29:45.000Z</time>
      </trkpt>
      <trkpt lat="42.688189" lon="1.090468">
        <ele>1308.6</ele>
        <time>1970-01-01T07:29:52.000Z</time>
      </trkpt>
      <trkpt lat="42.688195" lon="1.090568">
        <ele>1309.8</ele>
        <time>1970-01-01T07:29:57.000Z</time>
      </trkpt>
      <trkpt lat="42.688184" lon="1.090713">
        <ele>1310.6</ele>
        <time>1970-01-01T07:30:03.000Z</time>
      </trkpt>
      <trkpt lat="42.688192" lon="1.090853">
        <ele>1311.8</ele>
        <time>1970-01-01T07:30:08.000Z</time>
      </trkpt>
      <trkpt lat="42.6882" lon="1.091038">
        <ele>1312.8</ele>
        <time>1970-01-01T07:30:15.000Z</time>
      </trkpt>
      <trkpt lat="42.688229" lon="1.091209">
        <ele>1313.8</ele>
        <time>1970-01-01T07:30:22.000Z</time>
      </trkpt>
      <trkpt lat="42.688257" lon="1.091336">
        <ele>1315</ele>
        <time>1970-01-01T07:30:27.000Z</time>
      </trkpt>
      <trkpt lat="42.688315" lon="1.091525">
        <ele>1316</ele>
        <time>1970-01-01T07:30:35.000Z</time>
      </trkpt>
      <trkpt lat="42.688393" lon="1.091711">
        <ele>1317.2</ele>
        <time>1970-01-01T07:30:43.000Z</time>
      </trkpt>
      <trkpt lat="42.688449" lon="1.091818">
        <ele>1318.2</ele>
        <time>1970-01-01T07:30:48.000Z</time>
      </trkpt>
      <trkpt lat="42.688557" lon="1.091978">
        <ele>1319.4</ele>
        <time>1970-01-01T07:30:56.000Z</time>
      </trkpt>
      <trkpt lat="42.688681" lon="1.09214">
        <ele>1320.4</ele>
        <time>1970-01-01T07:31:05.000Z</time>
      </trkpt>
      <trkpt lat="42.688771" lon="1.092281">
        <ele>1321.6</ele>
        <time>1970-01-01T07:31:12.000Z</time>
      </trkpt>
      <trkpt lat="42.688851" lon="1.092427">
        <ele>1322.6</ele>
        <time>1970-01-01T07:31:19.000Z</time>
      </trkpt>
      <trkpt lat="42.688913" lon="1.092553">
        <ele>1323.8</ele>
        <time>1970-01-01T07:31:25.000Z</time>
      </trkpt>
      <trkpt lat="42.688988" lon="1.092703">
        <ele>1325</ele>
        <time>1970-01-01T07:31:32.000Z</time>
      </trkpt>
      <trkpt lat="42.689059" lon="1.092832">
        <ele>1326.2</ele>
        <time>1970-01-01T07:31:38.000Z</time>
      </trkpt>
      <trkpt lat="42.689138" lon="1.092954">
        <ele>1327.2</ele>
        <time>1970-01-01T07:31:44.000Z</time>
      </trkpt>
      <trkpt lat="42.689213" lon="1.093071">
        <ele>1328</ele>
        <time>1970-01-01T07:31:49.000Z</time>
      </trkpt>
      <trkpt lat="42.689494" lon="1.093493">
        <ele>1328.2</ele>
        <time>1970-01-01T07:32:07.000Z</time>
      </trkpt>
      <trkpt lat="42.689561" lon="1.09365">
        <ele>1328.2</ele>
        <time>1970-01-01T07:32:12.000Z</time>
      </trkpt>
      <trkpt lat="42.689861" lon="1.093867">
        <ele>1327</ele>
        <time>1970-01-01T07:32:21.000Z</time>
      </trkpt>
      <trkpt lat="42.690075" lon="1.0938">
        <ele>1326</ele>
        <time>1970-01-01T07:32:25.000Z</time>
      </trkpt>
      <trkpt lat="42.690183" lon="1.093722">
        <ele>1325.4</ele>
        <time>1970-01-01T07:32:27.000Z</time>
      </trkpt>
      <trkpt lat="42.690238" lon="1.093675">
        <ele>1325.2</ele>
        <time>1970-01-01T07:32:28.000Z</time>
      </trkpt>
      <trkpt lat="42.69029" lon="1.093622">
        <ele>1324.6</ele>
        <time>1970-01-01T07:32:29.000Z</time>
      </trkpt>
      <trkpt lat="42.690384" lon="1.093514">
        <ele>1323.4</ele>
        <time>1970-01-01T07:32:31.000Z</time>
      </trkpt>
      <trkpt lat="42.690475" lon="1.093418">
        <ele>1322.2</ele>
        <time>1970-01-01T07:32:33.000Z</time>
      </trkpt>
      <trkpt lat="42.690613" lon="1.093278">
        <ele>1320.8</ele>
        <time>1970-01-01T07:32:36.000Z</time>
      </trkpt>
      <trkpt lat="42.690762" lon="1.093167">
        <ele>1319.4</ele>
        <time>1970-01-01T07:32:39.000Z</time>
      </trkpt>
      <trkpt lat="42.690873" lon="1.093163">
        <ele>1318.4</ele>
        <time>1970-01-01T07:32:41.000Z</time>
      </trkpt>
      <trkpt lat="42.691029" lon="1.09329">
        <ele>1317</ele>
        <time>1970-01-01T07:32:44.000Z</time>
      </trkpt>
      <trkpt lat="42.691165" lon="1.093339">
        <ele>1315.2</ele>
        <time>1970-01-01T07:32:46.000Z</time>
      </trkpt>
      <trkpt lat="42.691243" lon="1.093349">
        <ele>1314.8</ele>
        <time>1970-01-01T07:32:47.000Z</time>
      </trkpt>
      <trkpt lat="42.6914" lon="1.093389">
        <ele>1314</ele>
        <time>1970-01-01T07:32:49.000Z</time>
      </trkpt>
      <trkpt lat="42.691685" lon="1.093541">
        <ele>1313</ele>
        <time>1970-01-01T07:32:53.000Z</time>
      </trkpt>
      <trkpt lat="42.691988" lon="1.09375">
        <ele>1312</ele>
        <time>1970-01-01T07:32:58.000Z</time>
      </trkpt>
      <trkpt lat="42.692228" lon="1.093991">
        <ele>1313</ele>
        <time>1970-01-01T07:33:04.000Z</time>
      </trkpt>
      <trkpt lat="42.692309" lon="1.094076">
        <ele>1314.2</ele>
        <time>1970-01-01T07:33:07.000Z</time>
      </trkpt>
      <trkpt lat="42.692421" lon="1.0942">
        <ele>1315.2</ele>
        <time>1970-01-01T07:33:11.000Z</time>
      </trkpt>
      <trkpt lat="42.692515" lon="1.094326">
        <ele>1316.4</ele>
        <time>1970-01-01T07:33:15.000Z</time>
      </trkpt>
      <trkpt lat="42.692587" lon="1.094448">
        <ele>1317.6</ele>
        <time>1970-01-01T07:33:19.000Z</time>
      </trkpt>
      <trkpt lat="42.692659" lon="1.094625">
        <ele>1318.6</ele>
        <time>1970-01-01T07:33:25.000Z</time>
      </trkpt>
      <trkpt lat="42.69273" lon="1.094798">
        <ele>1319.8</ele>
        <time>1970-01-01T07:33:31.000Z</time>
      </trkpt>
      <trkpt lat="42.692822" lon="1.095041">
        <ele>1321</ele>
        <time>1970-01-01T07:33:39.000Z</time>
      </trkpt>
      <trkpt lat="42.692926" lon="1.095302">
        <ele>1322</ele>
        <time>1970-01-01T07:33:47.000Z</time>
      </trkpt>
      <trkpt lat="42.693027" lon="1.095615">
        <ele>1323.2</ele>
        <time>1970-01-01T07:33:56.000Z</time>
      </trkpt>
      <trkpt lat="42.6931" lon="1.096023">
        <ele>1324.2</ele>
        <time>1970-01-01T07:34:06.000Z</time>
      </trkpt>
      <trkpt lat="42.693153" lon="1.096793">
        <ele>1325</ele>
        <time>1970-01-01T07:34:22.000Z</time>
      </trkpt>
      <trkpt lat="42.693172" lon="1.096889">
        <ele>1325.4</ele>
        <time>1970-01-01T07:34:24.000Z</time>
      </trkpt>
      <trkpt lat="42.693505" lon="1.097286">
        <ele>1326.4</ele>
        <time>1970-01-01T07:34:36.000Z</time>
      </trkpt>
      <trkpt lat="42.693659" lon="1.097354">
        <ele>1327.6</ele>
        <time>1970-01-01T07:34:41.000Z</time>
      </trkpt>
      <trkpt lat="42.693786" lon="1.097368">
        <ele>1328.8</ele>
        <time>1970-01-01T07:34:45.000Z</time>
      </trkpt>
      <trkpt lat="42.693879" lon="1.097334">
        <ele>1329.8</ele>
        <time>1970-01-01T07:34:48.000Z</time>
      </trkpt>
      <trkpt lat="42.694424" lon="1.097394">
        <ele>1330.4</ele>
        <time>1970-01-01T07:35:04.000Z</time>
      </trkpt>
      <trkpt lat="42.69493" lon="1.09766">
        <ele>1330.4</ele>
        <time>1970-01-01T07:35:19.000Z</time>
      </trkpt>
      <trkpt lat="42.695102" lon="1.097755">
        <ele>1331</ele>
        <time>1970-01-01T07:35:24.000Z</time>
      </trkpt>
      <trkpt lat="42.6953" lon="1.097844">
        <ele>1332</ele>
        <time>1970-01-01T07:35:30.000Z</time>
      </trkpt>
      <trkpt lat="42.69549" lon="1.09786">
        <ele>1332.6</ele>
        <time>1970-01-01T07:35:35.000Z</time>
      </trkpt>
      <trkpt lat="42.695868" lon="1.097693">
        <ele>1331.8</ele>
        <time>1970-01-01T07:35:43.000Z</time>
      </trkpt>
      <trkpt lat="42.696036" lon="1.097679">
        <ele>1331</ele>
        <time>1970-01-01T07:35:46.000Z</time>
      </trkpt>
      <trkpt lat="42.696276" lon="1.097672">
        <ele>1330.4</ele>
        <time>1970-01-01T07:35:50.000Z</time>
      </trkpt>
      <trkpt lat="42.696408" lon="1.097648">
        <ele>1329.8</ele>
        <time>1970-01-01T07:35:52.000Z</time>
      </trkpt>
      <trkpt lat="42.696697" lon="1.097605">
        <ele>1328.6</ele>
        <time>1970-01-01T07:35:56.000Z</time>
      </trkpt>
      <trkpt lat="42.696924" lon="1.097612">
        <ele>1327.4</ele>
        <time>1970-01-01T07:35:59.000Z</time>
      </trkpt>
      <trkpt lat="42.697295" lon="1.097669">
        <ele>1326.2</ele>
        <time>1970-01-01T07:36:04.000Z</time>
      </trkpt>
      <trkpt lat="42.697573" lon="1.097683">
        <ele>1325.4</ele>
        <time>1970-01-01T07:36:08.000Z</time>
      </trkpt>
      <trkpt lat="42.698029" lon="1.097586">
        <ele>1327.6</ele>
        <time>1970-01-01T07:36:17.000Z</time>
      </trkpt>
      <trkpt lat="42.698135" lon="1.097521">
        <ele>1328.6</ele>
        <time>1970-01-01T07:36:20.000Z</time>
      </trkpt>
      <trkpt lat="42.698268" lon="1.097466">
        <ele>1329.6</ele>
        <time>1970-01-01T07:36:24.000Z</time>
      </trkpt>
      <trkpt lat="42.69836" lon="1.09746">
        <ele>1330.6</ele>
        <time>1970-01-01T07:36:27.000Z</time>
      </trkpt>
      <trkpt lat="42.698493" lon="1.097496">
        <ele>1331.8</ele>
        <time>1970-01-01T07:36:32.000Z</time>
      </trkpt>
      <trkpt lat="42.698583" lon="1.097565">
        <ele>1333</ele>
        <time>1970-01-01T07:36:36.000Z</time>
      </trkpt>
      <trkpt lat="42.698703" lon="1.097645">
        <ele>1334</ele>
        <time>1970-01-01T07:36:41.000Z</time>
      </trkpt>
      <trkpt lat="42.698834" lon="1.097735">
        <ele>1335.2</ele>
        <time>1970-01-01T07:36:46.000Z</time>
      </trkpt>
      <trkpt lat="42.698942" lon="1.097795">
        <ele>1336.2</ele>
        <time>1970-01-01T07:36:50.000Z</time>
      </trkpt>
      <trkpt lat="42.699078" lon="1.097876">
        <ele>1337.2</ele>
        <time>1970-01-01T07:36:55.000Z</time>
      </trkpt>
      <trkpt lat="42.699281" lon="1.098002">
        <ele>1338.2</ele>
        <time>1970-01-01T07:37:03.000Z</time>
      </trkpt>
      <trkpt lat="42.699738" lon="1.098394">
        <ele>1338.8</ele>
        <time>1970-01-01T07:37:20.000Z</time>
      </trkpt>
      <trkpt lat="42.69988" lon="1.098558">
        <ele>1339</ele>
        <time>1970-01-01T07:37:26.000Z</time>
      </trkpt>
      <trkpt lat="42.70026" lon="1.09913">
        <ele>1338.8</ele>
        <time>1970-01-01T07:37:41.000Z</time>
      </trkpt>
      <trkpt lat="42.700345" lon="1.09939">
        <ele>1338.4</ele>
        <time>1970-01-01T07:37:45.000Z</time>
      </trkpt>
      <trkpt lat="42.700397" lon="1.099627">
        <ele>1337.2</ele>
        <time>1970-01-01T07:37:48.000Z</time>
      </trkpt>
      <trkpt lat="42.700477" lon="1.099967">
        <ele>1336.2</ele>
        <time>1970-01-01T07:37:52.000Z</time>
      </trkpt>
      <trkpt lat="42.700659" lon="1.100534">
        <ele>1335</ele>
        <time>1970-01-01T07:37:59.000Z</time>
      </trkpt>
      <trkpt lat="42.700795" lon="1.100771">
        <ele>1335</ele>
        <time>1970-01-01T07:38:03.000Z</time>
      </trkpt>
      <trkpt lat="42.700905" lon="1.100898">
        <ele>1335.2</ele>
        <time>1970-01-01T07:38:06.000Z</time>
      </trkpt>
      <trkpt lat="42.701089" lon="1.101054">
        <ele>1336</ele>
        <time>1970-01-01T07:38:11.000Z</time>
      </trkpt>
      <trkpt lat="42.701441" lon="1.101239">
        <ele>1337.2</ele>
        <time>1970-01-01T07:38:20.000Z</time>
      </trkpt>
      <trkpt lat="42.701701" lon="1.10135">
        <ele>1338.2</ele>
        <time>1970-01-01T07:38:27.000Z</time>
      </trkpt>
      <trkpt lat="42.702034" lon="1.101488">
        <ele>1339.2</ele>
        <time>1970-01-01T07:38:36.000Z</time>
      </trkpt>
      <trkpt lat="42.702425" lon="1.101547">
        <ele>1339.6</ele>
        <time>1970-01-01T07:38:46.000Z</time>
      </trkpt>
      <trkpt lat="42.702551" lon="1.10153">
        <ele>1339.4</ele>
        <time>1970-01-01T07:38:49.000Z</time>
      </trkpt>
      <trkpt lat="42.703057" lon="1.101279">
        <ele>1339.2</ele>
        <time>1970-01-01T07:39:01.000Z</time>
      </trkpt>
      <trkpt lat="42.703545" lon="1.100959">
        <ele>1340.2</ele>
        <time>1970-01-01T07:39:14.000Z</time>
      </trkpt>
      <trkpt lat="42.703984" lon="1.10069">
        <ele>1340.4</ele>
        <time>1970-01-01T07:39:25.000Z</time>
      </trkpt>
      <trkpt lat="42.70419" lon="1.100703">
        <ele>1340.6</ele>
        <time>1970-01-01T07:39:30.000Z</time>
      </trkpt>
      <trkpt lat="42.704228" lon="1.100718">
        <ele>1340.8</ele>
        <time>1970-01-01T07:39:31.000Z</time>
      </trkpt>
      <trkpt lat="42.704367" lon="1.100793">
        <ele>1341.6</ele>
        <time>1970-01-01T07:39:35.000Z</time>
      </trkpt>
      <trkpt lat="42.704548" lon="1.100904">
        <ele>1342.6</ele>
        <time>1970-01-01T07:39:41.000Z</time>
      </trkpt>
      <trkpt lat="42.704708" lon="1.101014">
        <ele>1343.8</ele>
        <time>1970-01-01T07:39:47.000Z</time>
      </trkpt>
      <trkpt lat="42.704836" lon="1.101102">
        <ele>1345</ele>
        <time>1970-01-01T07:39:52.000Z</time>
      </trkpt>
      <trkpt lat="42.704965" lon="1.101195">
        <ele>1346.2</ele>
        <time>1970-01-01T07:39:57.000Z</time>
      </trkpt>
      <trkpt lat="42.70513" lon="1.101284">
        <ele>1347</ele>
        <time>1970-01-01T07:40:03.000Z</time>
      </trkpt>
      <trkpt lat="42.705408" lon="1.10141">
        <ele>1348.2</ele>
        <time>1970-01-01T07:40:13.000Z</time>
      </trkpt>
      <trkpt lat="42.705665" lon="1.101513">
        <ele>1349.2</ele>
        <time>1970-01-01T07:40:22.000Z</time>
      </trkpt>
      <trkpt lat="42.705896" lon="1.101573">
        <ele>1350.2</ele>
        <time>1970-01-01T07:40:30.000Z</time>
      </trkpt>
      <trkpt lat="42.706141" lon="1.101702">
        <ele>1351.4</ele>
        <time>1970-01-01T07:40:39.000Z</time>
      </trkpt>
      <trkpt lat="42.706295" lon="1.101808">
        <ele>1352.4</ele>
        <time>1970-01-01T07:40:45.000Z</time>
      </trkpt>
      <trkpt lat="42.706394" lon="1.101902">
        <ele>1353.4</ele>
        <time>1970-01-01T07:40:49.000Z</time>
      </trkpt>
      <trkpt lat="42.706591" lon="1.102621">
        <ele>1353.6</ele>
        <time>1970-01-01T07:41:05.000Z</time>
      </trkpt>
      <trkpt lat="42.706599" lon="1.102859">
        <ele>1352.4</ele>
        <time>1970-01-01T07:41:08.000Z</time>
      </trkpt>
      <trkpt lat="42.706602" lon="1.103318">
        <ele>1351.4</ele>
        <time>1970-01-01T07:41:13.000Z</time>
      </trkpt>
      <trkpt lat="42.706697" lon="1.103606">
        <ele>1350.4</ele>
        <time>1970-01-01T07:41:16.000Z</time>
      </trkpt>
      <trkpt lat="42.706811" lon="1.103768">
        <ele>1349.6</ele>
        <time>1970-01-01T07:41:18.000Z</time>
      </trkpt>
      <trkpt lat="42.706875" lon="1.103841">
        <ele>1349.4</ele>
        <time>1970-01-01T07:41:19.000Z</time>
      </trkpt>
      <trkpt lat="42.707012" lon="1.103962">
        <ele>1349.2</ele>
        <time>1970-01-01T07:41:21.000Z</time>
      </trkpt>
      <trkpt lat="42.707458" lon="1.104406">
        <ele>1349.2</ele>
        <time>1970-01-01T07:41:29.000Z</time>
      </trkpt>
      <trkpt lat="42.707529" lon="1.104523">
        <ele>1349.6</ele>
        <time>1970-01-01T07:41:31.000Z</time>
      </trkpt>
      <trkpt lat="42.707674" lon="1.105079">
        <ele>1350.6</ele>
        <time>1970-01-01T07:41:40.000Z</time>
      </trkpt>
      <trkpt lat="42.707705" lon="1.105312">
        <ele>1352</ele>
        <time>1970-01-01T07:41:45.000Z</time>
      </trkpt>
      <trkpt lat="42.707691" lon="1.105746">
        <ele>1353.2</ele>
        <time>1970-01-01T07:41:54.000Z</time>
      </trkpt>
      <trkpt lat="42.707608" lon="1.106288">
        <ele>1354.4</ele>
        <time>1970-01-01T07:42:05.000Z</time>
      </trkpt>
      <trkpt lat="42.707676" lon="1.10706">
        <ele>1355.2</ele>
        <time>1970-01-01T07:42:19.000Z</time>
      </trkpt>
      <trkpt lat="42.707732" lon="1.107221">
        <ele>1355</ele>
        <time>1970-01-01T07:42:22.000Z</time>
      </trkpt>
      <trkpt lat="42.707816" lon="1.10738">
        <ele>1355</ele>
        <time>1970-01-01T07:42:25.000Z</time>
      </trkpt>
      <trkpt lat="42.708093" lon="1.107728">
        <ele>1355.4</ele>
        <time>1970-01-01T07:42:33.000Z</time>
      </trkpt>
      <trkpt lat="42.708299" lon="1.107914">
        <ele>1356.8</ele>
        <time>1970-01-01T07:42:40.000Z</time>
      </trkpt>
      <trkpt lat="42.708397" lon="1.107995">
        <ele>1357.6</ele>
        <time>1970-01-01T07:42:44.000Z</time>
      </trkpt>
      <trkpt lat="42.708509" lon="1.108082">
        <ele>1358.8</ele>
        <time>1970-01-01T07:42:49.000Z</time>
      </trkpt>
      <trkpt lat="42.708587" lon="1.108137">
        <ele>1359.8</ele>
        <time>1970-01-01T07:42:53.000Z</time>
      </trkpt>
      <trkpt lat="42.708609" lon="1.108149">
        <ele>1360</ele>
        <time>1970-01-01T07:42:54.000Z</time>
      </trkpt>
      <trkpt lat="42.7087" lon="1.108207">
        <ele>1360.8</ele>
        <time>1970-01-01T07:42:58.000Z</time>
      </trkpt>
      <trkpt lat="42.708838" lon="1.108287">
        <ele>1361.6</ele>
        <time>1970-01-01T07:43:04.000Z</time>
      </trkpt>
      <trkpt lat="42.708979" lon="1.108325">
        <ele>1362.6</ele>
        <time>1970-01-01T07:43:10.000Z</time>
      </trkpt>
      <trkpt lat="42.709075" lon="1.108343">
        <ele>1363.8</ele>
        <time>1970-01-01T07:43:14.000Z</time>
      </trkpt>
      <trkpt lat="42.709165" lon="1.108359">
        <ele>1365</ele>
        <time>1970-01-01T07:43:18.000Z</time>
      </trkpt>
      <trkpt lat="42.709333" lon="1.108356">
        <ele>1366</ele>
        <time>1970-01-01T07:43:25.000Z</time>
      </trkpt>
      <trkpt lat="42.709534" lon="1.108407">
        <ele>1367</ele>
        <time>1970-01-01T07:43:33.000Z</time>
      </trkpt>
      <trkpt lat="42.709643" lon="1.108498">
        <ele>1367.8</ele>
        <time>1970-01-01T07:43:38.000Z</time>
      </trkpt>
      <trkpt lat="42.709875" lon="1.108727">
        <ele>1368.8</ele>
        <time>1970-01-01T07:43:48.000Z</time>
      </trkpt>
      <trkpt lat="42.710065" lon="1.108942">
        <ele>1369.6</ele>
        <time>1970-01-01T07:43:57.000Z</time>
      </trkpt>
      <trkpt lat="42.710154" lon="1.109072">
        <ele>1370.8</ele>
        <time>1970-01-01T07:44:02.000Z</time>
      </trkpt>
      <trkpt lat="42.710273" lon="1.109245">
        <ele>1371.8</ele>
        <time>1970-01-01T07:44:09.000Z</time>
      </trkpt>
      <trkpt lat="42.710406" lon="1.1094">
        <ele>1373.2</ele>
        <time>1970-01-01T07:44:17.000Z</time>
      </trkpt>
      <trkpt lat="42.710625" lon="1.109638">
        <ele>1374.6</ele>
        <time>1970-01-01T07:44:28.000Z</time>
      </trkpt>
      <trkpt lat="42.711079" lon="1.109931">
        <ele>1377</ele>
        <time>1970-01-01T07:44:45.000Z</time>
      </trkpt>
      <trkpt lat="42.711354" lon="1.109911">
        <ele>1378.6</ele>
        <time>1970-01-01T07:45:00.000Z</time>
      </trkpt>
      <trkpt lat="42.711317" lon="1.10988">
        <ele>1378.4</ele>
        <time>1970-01-01T07:45:16.000Z</time>
      </trkpt>
      <trkpt lat="42.711173" lon="1.10979">
        <ele>1377.4</ele>
        <time>1970-01-01T07:45:21.000Z</time>
      </trkpt>
      <trkpt lat="42.711092" lon="1.109717">
        <ele>1376.6</ele>
        <time>1970-01-01T07:45:23.000Z</time>
      </trkpt>
      <trkpt lat="42.711051" lon="1.109669">
        <ele>1376.4</ele>
        <time>1970-01-01T07:45:24.000Z</time>
      </trkpt>
      <trkpt lat="42.71092" lon="1.109484">
        <ele>1375.6</ele>
        <time>1970-01-01T07:45:27.000Z</time>
      </trkpt>
      <trkpt lat="42.710872" lon="1.109419">
        <ele>1375.4</ele>
        <time>1970-01-01T07:45:28.000Z</time>
      </trkpt>
      <trkpt lat="42.71079" lon="1.109297">
        <ele>1374.6</ele>
        <time>1970-01-01T07:45:30.000Z</time>
      </trkpt>
      <trkpt lat="42.710725" lon="1.109182">
        <ele>1373.6</ele>
        <time>1970-01-01T07:45:32.000Z</time>
      </trkpt>
      <trkpt lat="42.710616" lon="1.108943">
        <ele>1372.8</ele>
        <time>1970-01-01T07:45:36.000Z</time>
      </trkpt>
      <trkpt lat="42.710557" lon="1.108821">
        <ele>1371.8</ele>
        <time>1970-01-01T07:45:38.000Z</time>
      </trkpt>
      <trkpt lat="42.710465" lon="1.108631">
        <ele>1371</ele>
        <time>1970-01-01T07:45:41.000Z</time>
      </trkpt>
      <trkpt lat="42.710432" lon="1.108572">
        <ele>1370.6</ele>
        <time>1970-01-01T07:45:42.000Z</time>
      </trkpt>
      <trkpt lat="42.710359" lon="1.108466">
        <ele>1369.6</ele>
        <time>1970-01-01T07:45:44.000Z</time>
      </trkpt>
      <trkpt lat="42.710276" lon="1.108358">
        <ele>1368.8</ele>
        <time>1970-01-01T07:45:46.000Z</time>
      </trkpt>
      <trkpt lat="42.710221" lon="1.108258">
        <ele>1367.8</ele>
        <time>1970-01-01T07:45:49.000Z</time>
      </trkpt>
      <trkpt lat="42.710228" lon="1.1083">
        <ele>1367.6</ele>
        <time>1970-01-01T07:45:52.000Z</time>
      </trkpt>
      <trkpt lat="42.710606" lon="1.10884">
        <ele>1370.2</ele>
        <time>1970-01-01T07:46:14.000Z</time>
      </trkpt>
      <trkpt lat="42.710701" lon="1.109087">
        <ele>1371.2</ele>
        <time>1970-01-01T07:46:22.000Z</time>
      </trkpt>
      <trkpt lat="42.710799" lon="1.109339">
        <ele>1372.8</ele>
        <time>1970-01-01T07:46:30.000Z</time>
      </trkpt>
      <trkpt lat="42.710961" lon="1.109664">
        <ele>1374.6</ele>
        <time>1970-01-01T07:46:41.000Z</time>
      </trkpt>
      <trkpt lat="42.711111" lon="1.109967">
        <ele>1376.2</ele>
        <time>1970-01-01T07:46:52.000Z</time>
      </trkpt>
      <trkpt lat="42.711254" lon="1.110129">
        <ele>1377.6</ele>
        <time>1970-01-01T07:47:01.000Z</time>
      </trkpt>
      <trkpt lat="42.711406" lon="1.11024">
        <ele>1379</ele>
        <time>1970-01-01T07:47:09.000Z</time>
      </trkpt>
      <trkpt lat="42.711497" lon="1.110308">
        <ele>1380</ele>
        <time>1970-01-01T07:47:15.000Z</time>
      </trkpt>
      <trkpt lat="42.711535" lon="1.11039">
        <ele>1381</ele>
        <time>1970-01-01T07:47:23.000Z</time>
      </trkpt>
      <trkpt lat="42.711603" lon="1.110473">
        <ele>1382</ele>
        <time>1970-01-01T07:47:51.000Z</time>
      </trkpt>
      <trkpt lat="42.711684" lon="1.110574">
        <ele>1383</ele>
        <time>1970-01-01T07:47:58.000Z</time>
      </trkpt>
      <trkpt lat="42.711756" lon="1.110688">
        <ele>1384.2</ele>
        <time>1970-01-01T07:48:04.000Z</time>
      </trkpt>
      <trkpt lat="42.711808" lon="1.11082">
        <ele>1385.2</ele>
        <time>1970-01-01T07:48:10.000Z</time>
      </trkpt>
      <trkpt lat="42.711822" lon="1.110853">
        <ele>1385.6</ele>
        <time>1970-01-01T07:48:12.000Z</time>
      </trkpt>
      <trkpt lat="42.711901" lon="1.110982">
        <ele>1386.4</ele>
        <time>1970-01-01T07:48:20.000Z</time>
      </trkpt>
      <trkpt lat="42.711985" lon="1.111136">
        <ele>1387.6</ele>
        <time>1970-01-01T07:48:28.000Z</time>
      </trkpt>
      <trkpt lat="42.712037" lon="1.11126">
        <ele>1389</ele>
        <time>1970-01-01T07:48:34.000Z</time>
      </trkpt>
      <trkpt lat="42.712082" lon="1.111354">
        <ele>1390</ele>
        <time>1970-01-01T07:48:39.000Z</time>
      </trkpt>
      <trkpt lat="42.712143" lon="1.111465">
        <ele>1391.4</ele>
        <time>1970-01-01T07:48:46.000Z</time>
      </trkpt>
      <trkpt lat="42.712193" lon="1.111577">
        <ele>1392.4</ele>
        <time>1970-01-01T07:48:52.000Z</time>
      </trkpt>
      <trkpt lat="42.712228" lon="1.111696">
        <ele>1393.6</ele>
        <time>1970-01-01T07:48:58.000Z</time>
      </trkpt>
      <trkpt lat="42.712255" lon="1.111795">
        <ele>1394.8</ele>
        <time>1970-01-01T07:49:03.000Z</time>
      </trkpt>
      <trkpt lat="42.712299" lon="1.111962">
        <ele>1396</ele>
        <time>1970-01-01T07:49:11.000Z</time>
      </trkpt>
      <trkpt lat="42.712316" lon="1.11208">
        <ele>1397</ele>
        <time>1970-01-01T07:49:16.000Z</time>
      </trkpt>
      <trkpt lat="42.712325" lon="1.112296">
        <ele>1398</ele>
        <time>1970-01-01T07:49:25.000Z</time>
      </trkpt>
      <trkpt lat="42.712343" lon="1.112432">
        <ele>1399.2</ele>
        <time>1970-01-01T07:49:31.000Z</time>
      </trkpt>
      <trkpt lat="42.712366" lon="1.112567">
        <ele>1400.4</ele>
        <time>1970-01-01T07:49:37.000Z</time>
      </trkpt>
      <trkpt lat="42.71242" lon="1.112715">
        <ele>1401.2</ele>
        <time>1970-01-01T07:49:44.000Z</time>
      </trkpt>
      <trkpt lat="42.71248" lon="1.112999">
        <ele>1402.2</ele>
        <time>1970-01-01T07:49:55.000Z</time>
      </trkpt>
      <trkpt lat="42.712726" lon="1.113664">
        <ele>1402.8</ele>
        <time>1970-01-01T07:50:15.000Z</time>
      </trkpt>
      <trkpt lat="42.712795" lon="1.113859">
        <ele>1403</ele>
        <time>1970-01-01T07:50:20.000Z</time>
      </trkpt>
      <trkpt lat="42.71293" lon="1.1146">
        <ele>1403.6</ele>
        <time>1970-01-01T07:50:36.000Z</time>
      </trkpt>
      <trkpt lat="42.712957" lon="1.114727">
        <ele>1403.6</ele>
        <time>1970-01-01T07:50:38.000Z</time>
      </trkpt>
      <trkpt lat="42.71313" lon="1.115083">
        <ele>1401.8</ele>
        <time>1970-01-01T07:50:43.000Z</time>
      </trkpt>
      <trkpt lat="42.713183" lon="1.115157">
        <ele>1401.2</ele>
        <time>1970-01-01T07:50:44.000Z</time>
      </trkpt>
      <trkpt lat="42.71331" lon="1.115297">
        <ele>1400.2</ele>
        <time>1970-01-01T07:50:46.000Z</time>
      </trkpt>
      <trkpt lat="42.713447" lon="1.115446">
        <ele>1399</ele>
        <time>1970-01-01T07:50:48.000Z</time>
      </trkpt>
      <trkpt lat="42.713524" lon="1.115514">
        <ele>1398.2</ele>
        <time>1970-01-01T07:50:49.000Z</time>
      </trkpt>
      <trkpt lat="42.71361" lon="1.11557">
        <ele>1398</ele>
        <time>1970-01-01T07:50:50.000Z</time>
      </trkpt>
      <trkpt lat="42.713791" lon="1.115662">
        <ele>1396.6</ele>
        <time>1970-01-01T07:50:52.000Z</time>
      </trkpt>
      <trkpt lat="42.713978" lon="1.115748">
        <ele>1395.4</ele>
        <time>1970-01-01T07:50:54.000Z</time>
      </trkpt>
      <trkpt lat="42.71417" lon="1.115842">
        <ele>1393.8</ele>
        <time>1970-01-01T07:50:56.000Z</time>
      </trkpt>
      <trkpt lat="42.71436" lon="1.115927">
        <ele>1392.2</ele>
        <time>1970-01-01T07:50:58.000Z</time>
      </trkpt>
      <trkpt lat="42.714459" lon="1.115963">
        <ele>1391.2</ele>
        <time>1970-01-01T07:50:59.000Z</time>
      </trkpt>
      <trkpt lat="42.714559" lon="1.115988">
        <ele>1390.2</ele>
        <time>1970-01-01T07:51:00.000Z</time>
      </trkpt>
      <trkpt lat="42.71466" lon="1.115994">
        <ele>1389.8</ele>
        <time>1970-01-01T07:51:01.000Z</time>
      </trkpt>
      <trkpt lat="42.715213" lon="1.115912">
        <ele>1390.8</ele>
        <time>1970-01-01T07:51:08.000Z</time>
      </trkpt>
      <trkpt lat="42.715363" lon="1.115901">
        <ele>1392</ele>
        <time>1970-01-01T07:51:11.000Z</time>
      </trkpt>
      <trkpt lat="42.715532" lon="1.115901">
        <ele>1393.4</ele>
        <time>1970-01-01T07:51:15.000Z</time>
      </trkpt>
      <trkpt lat="42.71571" lon="1.115904">
        <ele>1394.2</ele>
        <time>1970-01-01T07:51:20.000Z</time>
      </trkpt>
      <trkpt lat="42.715841" lon="1.115931">
        <ele>1395.2</ele>
        <time>1970-01-01T07:51:24.000Z</time>
      </trkpt>
      <trkpt lat="42.716029" lon="1.115958">
        <ele>1396.2</ele>
        <time>1970-01-01T07:51:30.000Z</time>
      </trkpt>
      <trkpt lat="42.716157" lon="1.116003">
        <ele>1397.4</ele>
        <time>1970-01-01T07:51:34.000Z</time>
      </trkpt>
      <trkpt lat="42.716368" lon="1.116112">
        <ele>1398.6</ele>
        <time>1970-01-01T07:51:41.000Z</time>
      </trkpt>
      <trkpt lat="42.716539" lon="1.116241">
        <ele>1399.4</ele>
        <time>1970-01-01T07:51:47.000Z</time>
      </trkpt>
      <trkpt lat="42.716738" lon="1.116401">
        <ele>1400.2</ele>
        <time>1970-01-01T07:51:54.000Z</time>
      </trkpt>
      <trkpt lat="42.716781" lon="1.116391">
        <ele>1400.2</ele>
        <time>1970-01-01T07:51:55.000Z</time>
      </trkpt>
      <trkpt lat="42.717004" lon="1.116278">
        <ele>1400</ele>
        <time>1970-01-01T07:52:00.000Z</time>
      </trkpt>
      <trkpt lat="42.717167" lon="1.116105">
        <ele>1399.2</ele>
        <time>1970-01-01T07:52:03.000Z</time>
      </trkpt>
      <trkpt lat="42.717448" lon="1.115791">
        <ele>1398</ele>
        <time>1970-01-01T07:52:08.000Z</time>
      </trkpt>
      <trkpt lat="42.717927" lon="1.115387">
        <ele>1398</ele>
        <time>1970-01-01T07:52:17.000Z</time>
      </trkpt>
      <trkpt lat="42.718196" lon="1.115105">
        <ele>1399</ele>
        <time>1970-01-01T07:52:23.000Z</time>
      </trkpt>
      <trkpt lat="42.718549" lon="1.114614">
        <ele>1399.8</ele>
        <time>1970-01-01T07:52:33.000Z</time>
      </trkpt>
      <trkpt lat="42.718804" lon="1.114377">
        <ele>1400.8</ele>
        <time>1970-01-01T07:52:40.000Z</time>
      </trkpt>
      <trkpt lat="42.719035" lon="1.114275">
        <ele>1401.8</ele>
        <time>1970-01-01T07:52:46.000Z</time>
      </trkpt>
      <trkpt lat="42.719268" lon="1.11423">
        <ele>1403</ele>
        <time>1970-01-01T07:52:52.000Z</time>
      </trkpt>
      <trkpt lat="42.719489" lon="1.114189">
        <ele>1404</ele>
        <time>1970-01-01T07:52:58.000Z</time>
      </trkpt>
      <trkpt lat="42.719699" lon="1.11416">
        <ele>1405.2</ele>
        <time>1970-01-01T07:53:04.000Z</time>
      </trkpt>
      <trkpt lat="42.719954" lon="1.1141">
        <ele>1406.2</ele>
        <time>1970-01-01T07:53:11.000Z</time>
      </trkpt>
      <trkpt lat="42.720165" lon="1.114064">
        <ele>1407.2</ele>
        <time>1970-01-01T07:53:17.000Z</time>
      </trkpt>
      <trkpt lat="42.720413" lon="1.114035">
        <ele>1408.2</ele>
        <time>1970-01-01T07:53:24.000Z</time>
      </trkpt>
      <trkpt lat="42.720551" lon="1.113995">
        <ele>1409.4</ele>
        <time>1970-01-01T07:53:28.000Z</time>
      </trkpt>
      <trkpt lat="42.720791" lon="1.113965">
        <ele>1410.4</ele>
        <time>1970-01-01T07:53:35.000Z</time>
      </trkpt>
      <trkpt lat="42.721202" lon="1.113903">
        <ele>1411.8</ele>
        <time>1970-01-01T07:53:47.000Z</time>
      </trkpt>
      <trkpt lat="42.721504" lon="1.113926">
        <ele>1413</ele>
        <time>1970-01-01T07:53:56.000Z</time>
      </trkpt>
      <trkpt lat="42.721797" lon="1.113893">
        <ele>1414.4</ele>
        <time>1970-01-01T07:54:05.000Z</time>
      </trkpt>
      <trkpt lat="42.722034" lon="1.113866">
        <ele>1415.4</ele>
        <time>1970-01-01T07:54:13.000Z</time>
      </trkpt>
      <trkpt lat="42.7224" lon="1.113367">
        <ele>1416.8</ele>
        <time>1970-01-01T07:54:28.000Z</time>
      </trkpt>
      <trkpt lat="42.722621" lon="1.112697">
        <ele>1417.4</ele>
        <time>1970-01-01T07:54:42.000Z</time>
      </trkpt>
      <trkpt lat="42.722677" lon="1.112443">
        <ele>1417.8</ele>
        <time>1970-01-01T07:54:47.000Z</time>
      </trkpt>
      <trkpt lat="42.72266" lon="1.1117">
        <ele>1418</ele>
        <time>1970-01-01T07:55:04.000Z</time>
      </trkpt>
      <trkpt lat="42.72275" lon="1.111025">
        <ele>1418.4</ele>
        <time>1970-01-01T07:55:21.000Z</time>
      </trkpt>
      <trkpt lat="42.722712" lon="1.110511">
        <ele>1419.2</ele>
        <time>1970-01-01T07:55:35.000Z</time>
      </trkpt>
      <trkpt lat="42.722657" lon="1.110307">
        <ele>1420.2</ele>
        <time>1970-01-01T07:55:41.000Z</time>
      </trkpt>
      <trkpt lat="42.722651" lon="1.110107">
        <ele>1421.2</ele>
        <time>1970-01-01T07:55:47.000Z</time>
      </trkpt>
      <trkpt lat="42.722644" lon="1.109859">
        <ele>1422.2</ele>
        <time>1970-01-01T07:55:54.000Z</time>
      </trkpt>
      <trkpt lat="42.722618" lon="1.109668">
        <ele>1423</ele>
        <time>1970-01-01T07:55:59.000Z</time>
      </trkpt>
      <trkpt lat="42.72258" lon="1.109448">
        <ele>1424</ele>
        <time>1970-01-01T07:56:05.000Z</time>
      </trkpt>
      <trkpt lat="42.72257" lon="1.109378">
        <ele>1424.2</ele>
        <time>1970-01-01T07:56:07.000Z</time>
      </trkpt>
      <trkpt lat="42.722559" lon="1.109182">
        <ele>1425.2</ele>
        <time>1970-01-01T07:56:13.000Z</time>
      </trkpt>
      <trkpt lat="42.722638" lon="1.108972">
        <ele>1425.8</ele>
        <time>1970-01-01T07:56:21.000Z</time>
      </trkpt>
      <trkpt lat="42.722754" lon="1.108813">
        <ele>1427</ele>
        <time>1970-01-01T07:56:28.000Z</time>
      </trkpt>
      <trkpt lat="42.722837" lon="1.108715">
        <ele>1427.8</ele>
        <time>1970-01-01T07:56:33.000Z</time>
      </trkpt>
      <trkpt lat="42.722945" lon="1.108574">
        <ele>1429</ele>
        <time>1970-01-01T07:56:39.000Z</time>
      </trkpt>
      <trkpt lat="42.723113" lon="1.108416">
        <ele>1429.8</ele>
        <time>1970-01-01T07:56:47.000Z</time>
      </trkpt>
      <trkpt lat="42.723273" lon="1.108307">
        <ele>1430.6</ele>
        <time>1970-01-01T07:56:54.000Z</time>
      </trkpt>
      <trkpt lat="42.723407" lon="1.108232">
        <ele>1431.8</ele>
        <time>1970-01-01T07:57:00.000Z</time>
      </trkpt>
      <trkpt lat="42.72362" lon="1.108104">
        <ele>1432.6</ele>
        <time>1970-01-01T07:57:09.000Z</time>
      </trkpt>
      <trkpt lat="42.723791" lon="1.108012">
        <ele>1433.8</ele>
        <time>1970-01-01T07:57:16.000Z</time>
      </trkpt>
      <trkpt lat="42.723993" lon="1.107916">
        <ele>1434.6</ele>
        <time>1970-01-01T07:57:24.000Z</time>
      </trkpt>
      <trkpt lat="42.724236" lon="1.107801">
        <ele>1435.8</ele>
        <time>1970-01-01T07:57:34.000Z</time>
      </trkpt>
      <trkpt lat="42.724439" lon="1.107853">
        <ele>1436.6</ele>
        <time>1970-01-01T07:57:42.000Z</time>
      </trkpt>
      <trkpt lat="42.724673" lon="1.107865">
        <ele>1437.8</ele>
        <time>1970-01-01T07:57:51.000Z</time>
      </trkpt>
      <trkpt lat="42.724888" lon="1.107791">
        <ele>1438.6</ele>
        <time>1970-01-01T07:57:59.000Z</time>
      </trkpt>
      <trkpt lat="42.725294" lon="1.107524">
        <ele>1439.6</ele>
        <time>1970-01-01T07:58:14.000Z</time>
      </trkpt>
      <trkpt lat="42.725708" lon="1.107015">
        <ele>1439.4</ele>
        <time>1970-01-01T07:58:30.000Z</time>
      </trkpt>
      <trkpt lat="42.725934" lon="1.106992">
        <ele>1439.2</ele>
        <time>1970-01-01T07:58:36.000Z</time>
      </trkpt>
      <trkpt lat="42.726063" lon="1.107123">
        <ele>1439.4</ele>
        <time>1970-01-01T07:58:40.000Z</time>
      </trkpt>
      <trkpt lat="42.726364" lon="1.107544">
        <ele>1439</ele>
        <time>1970-01-01T07:58:49.000Z</time>
      </trkpt>
      <trkpt lat="42.72648" lon="1.107905">
        <ele>1439</ele>
        <time>1970-01-01T07:58:55.000Z</time>
      </trkpt>
      <trkpt lat="42.726537" lon="1.108145">
        <ele>1439</ele>
        <time>1970-01-01T07:58:59.000Z</time>
      </trkpt>
      <trkpt lat="42.726582" lon="1.108319">
        <ele>1439.2</ele>
        <time>1970-01-01T07:59:02.000Z</time>
      </trkpt>
      <trkpt lat="42.726759" lon="1.10893">
        <ele>1440</ele>
        <time>1970-01-01T07:59:13.000Z</time>
      </trkpt>
      <trkpt lat="42.726854" lon="1.109112">
        <ele>1440</ele>
        <time>1970-01-01T07:59:17.000Z</time>
      </trkpt>
      <trkpt lat="42.726981" lon="1.109241">
        <ele>1440.2</ele>
        <time>1970-01-01T07:59:21.000Z</time>
      </trkpt>
      <trkpt lat="42.727209" lon="1.109334">
        <ele>1441.2</ele>
        <time>1970-01-01T07:59:28.000Z</time>
      </trkpt>
      <trkpt lat="42.727403" lon="1.109354">
        <ele>1442.4</ele>
        <time>1970-01-01T07:59:35.000Z</time>
      </trkpt>
      <trkpt lat="42.727632" lon="1.109284">
        <ele>1443.4</ele>
        <time>1970-01-01T07:59:44.000Z</time>
      </trkpt>
      <trkpt lat="42.727882" lon="1.109098">
        <ele>1444.6</ele>
        <time>1970-01-01T07:59:55.000Z</time>
      </trkpt>
      <trkpt lat="42.728065" lon="1.108964">
        <ele>1445.6</ele>
        <time>1970-01-01T08:00:03.000Z</time>
      </trkpt>
      <trkpt lat="42.728231" lon="1.108855">
        <ele>1446.6</ele>
        <time>1970-01-01T08:00:10.000Z</time>
      </trkpt>
      <trkpt lat="42.72875" lon="1.108919">
        <ele>1447.8</ele>
        <time>1970-01-01T08:00:31.000Z</time>
      </trkpt>
      <trkpt lat="42.728944" lon="1.108932">
        <ele>1448.8</ele>
        <time>1970-01-01T08:00:39.000Z</time>
      </trkpt>
      <trkpt lat="42.729253" lon="1.108971">
        <ele>1449.8</ele>
        <time>1970-01-01T08:00:51.000Z</time>
      </trkpt>
      <trkpt lat="42.729526" lon="1.109044">
        <ele>1450.8</ele>
        <time>1970-01-01T08:01:01.000Z</time>
      </trkpt>
      <trkpt lat="42.729693" lon="1.109085">
        <ele>1452</ele>
        <time>1970-01-01T08:01:07.000Z</time>
      </trkpt>
      <trkpt lat="42.73009" lon="1.109274">
        <ele>1453</ele>
        <time>1970-01-01T08:01:22.000Z</time>
      </trkpt>
      <trkpt lat="42.730222" lon="1.109476">
        <ele>1453.8</ele>
        <time>1970-01-01T08:01:30.000Z</time>
      </trkpt>
      <trkpt lat="42.730345" lon="1.10994">
        <ele>1453.4</ele>
        <time>1970-01-01T08:01:40.000Z</time>
      </trkpt>
      <trkpt lat="42.730757" lon="1.110444">
        <ele>1454.6</ele>
        <time>1970-01-01T08:01:56.000Z</time>
      </trkpt>
      <trkpt lat="42.730791" lon="1.110506">
        <ele>1454.8</ele>
        <time>1970-01-01T08:01:58.000Z</time>
      </trkpt>
      <trkpt lat="42.730936" lon="1.110659">
        <ele>1455.6</ele>
        <time>1970-01-01T08:02:05.000Z</time>
      </trkpt>
      <trkpt lat="42.730997" lon="1.110678">
        <ele>1455.8</ele>
        <time>1970-01-01T08:02:07.000Z</time>
      </trkpt>
      <trkpt lat="42.731215" lon="1.110589">
        <ele>1456.8</ele>
        <time>1970-01-01T08:02:14.000Z</time>
      </trkpt>
      <trkpt lat="42.731347" lon="1.110519">
        <ele>1457.8</ele>
        <time>1970-01-01T08:02:19.000Z</time>
      </trkpt>
      <trkpt lat="42.731694" lon="1.110597">
        <ele>1459</ele>
        <time>1970-01-01T08:02:33.000Z</time>
      </trkpt>
      <trkpt lat="42.731883" lon="1.1106">
        <ele>1459.8</ele>
        <time>1970-01-01T08:02:41.000Z</time>
      </trkpt>
      <trkpt lat="42.732018" lon="1.11055">
        <ele>1461</ele>
        <time>1970-01-01T08:02:46.000Z</time>
      </trkpt>
      <trkpt lat="42.732195" lon="1.110438">
        <ele>1462</ele>
        <time>1970-01-01T08:02:53.000Z</time>
      </trkpt>
      <trkpt lat="42.732271" lon="1.110333">
        <ele>1463.2</ele>
        <time>1970-01-01T08:02:57.000Z</time>
      </trkpt>
      <trkpt lat="42.732476" lon="1.110083">
        <ele>1464</ele>
        <time>1970-01-01T08:03:08.000Z</time>
      </trkpt>
      <trkpt lat="42.732694" lon="1.109896">
        <ele>1465</ele>
        <time>1970-01-01T08:03:18.000Z</time>
      </trkpt>
      <trkpt lat="42.732865" lon="1.109817">
        <ele>1466</ele>
        <time>1970-01-01T08:03:25.000Z</time>
      </trkpt>
      <trkpt lat="42.733052" lon="1.109743">
        <ele>1467</ele>
        <time>1970-01-01T08:03:33.000Z</time>
      </trkpt>
      <trkpt lat="42.733232" lon="1.109691">
        <ele>1468</ele>
        <time>1970-01-01T08:03:40.000Z</time>
      </trkpt>
      <trkpt lat="42.733513" lon="1.109719">
        <ele>1469</ele>
        <time>1970-01-01T08:03:51.000Z</time>
      </trkpt>
      <trkpt lat="42.734011" lon="1.109483">
        <ele>1469.4</ele>
        <time>1970-01-01T08:04:08.000Z</time>
      </trkpt>
      <trkpt lat="42.734421" lon="1.108988">
        <ele>1469.2</ele>
        <time>1970-01-01T08:04:23.000Z</time>
      </trkpt>
      <trkpt lat="42.734557" lon="1.108245">
        <ele>1469</ele>
        <time>1970-01-01T08:04:38.000Z</time>
      </trkpt>
      <trkpt lat="42.734572" lon="1.108194">
        <ele>1469</ele>
        <time>1970-01-01T08:04:39.000Z</time>
      </trkpt>
      <trkpt lat="42.734764" lon="1.1075">
        <ele>1468.4</ele>
        <time>1970-01-01T08:04:51.000Z</time>
      </trkpt>
      <trkpt lat="42.734846" lon="1.107281">
        <ele>1468.2</ele>
        <time>1970-01-01T08:04:55.000Z</time>
      </trkpt>
      <trkpt lat="42.734976" lon="1.107143">
        <ele>1468.2</ele>
        <time>1970-01-01T08:04:59.000Z</time>
      </trkpt>
      <trkpt lat="42.735149" lon="1.107151">
        <ele>1468.4</ele>
        <time>1970-01-01T08:05:04.000Z</time>
      </trkpt>
      <trkpt lat="42.735185" lon="1.10718">
        <ele>1468.4</ele>
        <time>1970-01-01T08:05:05.000Z</time>
      </trkpt>
      <trkpt lat="42.735362" lon="1.107489">
        <ele>1468</ele>
        <time>1970-01-01T08:05:14.000Z</time>
      </trkpt>
      <trkpt lat="42.735309" lon="1.107457">
        <ele>1469.6</ele>
        <time>1970-01-01T08:14:52.000Z</time>
      </trkpt>
      <trkpt lat="42.73581" lon="1.10776">
        <ele>1469.6</ele>
        <time>1970-01-01T08:15:08.000Z</time>
      </trkpt>
      <trkpt lat="42.736049" lon="1.107689">
        <ele>1469.6</ele>
        <time>1970-01-01T08:15:14.000Z</time>
      </trkpt>
      <trkpt lat="42.736542" lon="1.107294">
        <ele>1469.6</ele>
        <time>1970-01-01T08:15:27.000Z</time>
      </trkpt>
      <trkpt lat="42.736675" lon="1.107134">
        <ele>1469.6</ele>
        <time>1970-01-01T08:15:31.000Z</time>
      </trkpt>
      <trkpt lat="42.736789" lon="1.107046">
        <ele>1470</ele>
        <time>1970-01-01T08:15:34.000Z</time>
      </trkpt>
      <trkpt lat="42.736975" lon="1.106909">
        <ele>1470.2</ele>
        <time>1970-01-01T08:15:39.000Z</time>
      </trkpt>
      <trkpt lat="42.737266" lon="1.106938">
        <ele>1470.2</ele>
        <time>1970-01-01T08:15:46.000Z</time>
      </trkpt>
      <trkpt lat="42.737305" lon="1.106962">
        <ele>1470.4</ele>
        <time>1970-01-01T08:15:47.000Z</time>
      </trkpt>
      <trkpt lat="42.737665" lon="1.107229">
        <ele>1470.4</ele>
        <time>1970-01-01T08:15:56.000Z</time>
      </trkpt>
      <trkpt lat="42.73775" lon="1.107431">
        <ele>1470.2</ele>
        <time>1970-01-01T08:16:00.000Z</time>
      </trkpt>
      <trkpt lat="42.737769" lon="1.107485">
        <ele>1470.2</ele>
        <time>1970-01-01T08:16:01.000Z</time>
      </trkpt>
      <trkpt lat="42.737831" lon="1.107659">
        <ele>1470.4</ele>
        <time>1970-01-01T08:16:04.000Z</time>
      </trkpt>
      <trkpt lat="42.738161" lon="1.108255">
        <ele>1471.2</ele>
        <time>1970-01-01T08:16:16.000Z</time>
      </trkpt>
      <trkpt lat="42.738195" lon="1.108293">
        <ele>1471.2</ele>
        <time>1970-01-01T08:16:17.000Z</time>
      </trkpt>
      <trkpt lat="42.738347" lon="1.108411">
        <ele>1471.2</ele>
        <time>1970-01-01T08:16:21.000Z</time>
      </trkpt>
      <trkpt lat="42.738376" lon="1.108432">
        <ele>1471.4</ele>
        <time>1970-01-01T08:16:22.000Z</time>
      </trkpt>
      <trkpt lat="42.738534" lon="1.108559">
        <ele>1471.8</ele>
        <time>1970-01-01T08:16:27.000Z</time>
      </trkpt>
      <trkpt lat="42.738774" lon="1.108646">
        <ele>1472.4</ele>
        <time>1970-01-01T08:16:33.000Z</time>
      </trkpt>
      <trkpt lat="42.738865" lon="1.108667">
        <ele>1472.6</ele>
        <time>1970-01-01T08:16:35.000Z</time>
      </trkpt>
      <trkpt lat="42.738948" lon="1.108696">
        <ele>1472.8</ele>
        <time>1970-01-01T08:16:37.000Z</time>
      </trkpt>
      <trkpt lat="42.739202" lon="1.108786">
        <ele>1473.6</ele>
        <time>1970-01-01T08:16:43.000Z</time>
      </trkpt>
      <trkpt lat="42.739614" lon="1.108768">
        <ele>1474.4</ele>
        <time>1970-01-01T08:16:53.000Z</time>
      </trkpt>
      <trkpt lat="42.739737" lon="1.108765">
        <ele>1474.8</ele>
        <time>1970-01-01T08:16:56.000Z</time>
      </trkpt>
      <trkpt lat="42.739978" lon="1.108728">
        <ele>1475.4</ele>
        <time>1970-01-01T08:17:02.000Z</time>
      </trkpt>
      <trkpt lat="42.740019" lon="1.108713">
        <ele>1475.4</ele>
        <time>1970-01-01T08:17:03.000Z</time>
      </trkpt>
      <trkpt lat="42.740182" lon="1.10867">
        <ele>1475.6</ele>
        <time>1970-01-01T08:17:07.000Z</time>
      </trkpt>
      <trkpt lat="42.740432" lon="1.108676">
        <ele>1476.2</ele>
        <time>1970-01-01T08:17:13.000Z</time>
      </trkpt>
      <trkpt lat="42.740842" lon="1.108524">
        <ele>1477.2</ele>
        <time>1970-01-01T08:17:24.000Z</time>
      </trkpt>
      <trkpt lat="42.741108" lon="1.10834">
        <ele>1478.2</ele>
        <time>1970-01-01T08:17:32.000Z</time>
      </trkpt>
      <trkpt lat="42.741577" lon="1.108077">
        <ele>1479.2</ele>
        <time>1970-01-01T08:17:45.000Z</time>
      </trkpt>
      <trkpt lat="42.741805" lon="1.107916">
        <ele>1480.2</ele>
        <time>1970-01-01T08:17:52.000Z</time>
      </trkpt>
      <trkpt lat="42.742031" lon="1.107655">
        <ele>1481.4</ele>
        <time>1970-01-01T08:18:01.000Z</time>
      </trkpt>
      <trkpt lat="42.742092" lon="1.10728">
        <ele>1482.6</ele>
        <time>1970-01-01T08:18:09.000Z</time>
      </trkpt>
      <trkpt lat="42.742078" lon="1.106915">
        <ele>1483.4</ele>
        <time>1970-01-01T08:18:17.000Z</time>
      </trkpt>
      <trkpt lat="42.742094" lon="1.10665">
        <ele>1484.4</ele>
        <time>1970-01-01T08:18:23.000Z</time>
      </trkpt>
      <trkpt lat="42.742207" lon="1.1063">
        <ele>1485.4</ele>
        <time>1970-01-01T08:18:31.000Z</time>
      </trkpt>
      <trkpt lat="42.742378" lon="1.105938">
        <ele>1486</ele>
        <time>1970-01-01T08:18:39.000Z</time>
      </trkpt>
      <trkpt lat="42.742442" lon="1.105781">
        <ele>1485.8</ele>
        <time>1970-01-01T08:18:42.000Z</time>
      </trkpt>
      <trkpt lat="42.742635" lon="1.105336">
        <ele>1485.6</ele>
        <time>1970-01-01T08:18:50.000Z</time>
      </trkpt>
      <trkpt lat="42.742657" lon="1.10528">
        <ele>1485.6</ele>
        <time>1970-01-01T08:18:51.000Z</time>
      </trkpt>
      <trkpt lat="42.742896" lon="1.104603">
        <ele>1485.6</ele>
        <time>1970-01-01T08:19:03.000Z</time>
      </trkpt>
      <trkpt lat="42.742973" lon="1.104388">
        <ele>1486</ele>
        <time>1970-01-01T08:19:07.000Z</time>
      </trkpt>
      <trkpt lat="42.742994" lon="1.10434">
        <ele>1486.2</ele>
        <time>1970-01-01T08:19:08.000Z</time>
      </trkpt>
      <trkpt lat="42.74318" lon="1.10381">
        <ele>1487.4</ele>
        <time>1970-01-01T08:19:19.000Z</time>
      </trkpt>
      <trkpt lat="42.743437" lon="1.103211">
        <ele>1487.6</ele>
        <time>1970-01-01T08:19:32.000Z</time>
      </trkpt>
      <trkpt lat="42.743479" lon="1.102991">
        <ele>1487.6</ele>
        <time>1970-01-01T08:19:36.000Z</time>
      </trkpt>
      <trkpt lat="42.743508" lon="1.10288">
        <ele>1487.8</ele>
        <time>1970-01-01T08:19:38.000Z</time>
      </trkpt>
      <trkpt lat="42.743665" lon="1.102406">
        <ele>1487.8</ele>
        <time>1970-01-01T08:19:47.000Z</time>
      </trkpt>
      <trkpt lat="42.743705" lon="1.102305">
        <ele>1487.6</ele>
        <time>1970-01-01T08:19:49.000Z</time>
      </trkpt>
      <trkpt lat="42.743766" lon="1.102083">
        <ele>1487.8</ele>
        <time>1970-01-01T08:19:53.000Z</time>
      </trkpt>
      <trkpt lat="42.743911" lon="1.10167">
        <ele>1488.2</ele>
        <time>1970-01-01T08:20:01.000Z</time>
      </trkpt>
      <trkpt lat="42.744031" lon="1.101321">
        <ele>1488.6</ele>
        <time>1970-01-01T08:20:08.000Z</time>
      </trkpt>
      <trkpt lat="42.744416" lon="1.100789">
        <ele>1489.2</ele>
        <time>1970-01-01T08:20:22.000Z</time>
      </trkpt>
      <trkpt lat="42.744445" lon="1.100759">
        <ele>1489.4</ele>
        <time>1970-01-01T08:20:23.000Z</time>
      </trkpt>
      <trkpt lat="42.744646" lon="1.100585">
        <ele>1490.6</ele>
        <time>1970-01-01T08:20:30.000Z</time>
      </trkpt>
      <trkpt lat="42.74485" lon="1.100435">
        <ele>1491.4</ele>
        <time>1970-01-01T08:20:37.000Z</time>
      </trkpt>
      <trkpt lat="42.745095" lon="1.100371">
        <ele>1492.4</ele>
        <time>1970-01-01T08:20:45.000Z</time>
      </trkpt>
      <trkpt lat="42.74555" lon="1.100683">
        <ele>1493</ele>
        <time>1970-01-01T08:20:59.000Z</time>
      </trkpt>
      <trkpt lat="42.745659" lon="1.100791">
        <ele>1492.4</ele>
        <time>1970-01-01T08:21:02.000Z</time>
      </trkpt>
      <trkpt lat="42.746031" lon="1.101341">
        <ele>1493</ele>
        <time>1970-01-01T08:21:16.000Z</time>
      </trkpt>
      <trkpt lat="42.746195" lon="1.101598">
        <ele>1493</ele>
        <time>1970-01-01T08:21:22.000Z</time>
      </trkpt>
      <trkpt lat="42.746434" lon="1.101602">
        <ele>1493</ele>
        <time>1970-01-01T08:21:28.000Z</time>
      </trkpt>
      <trkpt lat="42.746642" lon="1.101497">
        <ele>1493.8</ele>
        <time>1970-01-01T08:21:34.000Z</time>
      </trkpt>
      <trkpt lat="42.746962" lon="1.101241">
        <ele>1494.6</ele>
        <time>1970-01-01T08:21:45.000Z</time>
      </trkpt>
      <trkpt lat="42.747403" lon="1.100748">
        <ele>1495.4</ele>
        <time>1970-01-01T08:22:01.000Z</time>
      </trkpt>
      <trkpt lat="42.747456" lon="1.100681">
        <ele>1495.6</ele>
        <time>1970-01-01T08:22:03.000Z</time>
      </trkpt>
      <trkpt lat="42.747899" lon="1.100246">
        <ele>1496.4</ele>
        <time>1970-01-01T08:22:18.000Z</time>
      </trkpt>
      <trkpt lat="42.748227" lon="1.099872">
        <ele>1497.4</ele>
        <time>1970-01-01T08:22:30.000Z</time>
      </trkpt>
      <trkpt lat="42.748554" lon="1.099632">
        <ele>1498</ele>
        <time>1970-01-01T08:22:40.000Z</time>
      </trkpt>
      <trkpt lat="42.748822" lon="1.099321">
        <ele>1498.6</ele>
        <time>1970-01-01T08:22:50.000Z</time>
      </trkpt>
      <trkpt lat="42.748897" lon="1.098943">
        <ele>1499.6</ele>
        <time>1970-01-01T08:22:58.000Z</time>
      </trkpt>
      <trkpt lat="42.748935" lon="1.098477">
        <ele>1500.6</ele>
        <time>1970-01-01T08:23:08.000Z</time>
      </trkpt>
      <trkpt lat="42.748869" lon="1.097833">
        <ele>1501.6</ele>
        <time>1970-01-01T08:23:22.000Z</time>
      </trkpt>
      <trkpt lat="42.748812" lon="1.09745">
        <ele>1502.6</ele>
        <time>1970-01-01T08:23:31.000Z</time>
      </trkpt>
      <trkpt lat="42.748803" lon="1.097359">
        <ele>1502.8</ele>
        <time>1970-01-01T08:23:33.000Z</time>
      </trkpt>
      <trkpt lat="42.748775" lon="1.096616">
        <ele>1503.2</ele>
        <time>1970-01-01T08:23:48.000Z</time>
      </trkpt>
      <trkpt lat="42.748765" lon="1.096401">
        <ele>1503.8</ele>
        <time>1970-01-01T08:23:53.000Z</time>
      </trkpt>
      <trkpt lat="42.748762" lon="1.095687">
        <ele>1504.6</ele>
        <time>1970-01-01T08:24:09.000Z</time>
      </trkpt>
      <trkpt lat="42.748832" lon="1.094963">
        <ele>1505.4</ele>
        <time>1970-01-01T08:24:24.000Z</time>
      </trkpt>
      <trkpt lat="42.748864" lon="1.094863">
        <ele>1505.4</ele>
        <time>1970-01-01T08:24:26.000Z</time>
      </trkpt>
      <trkpt lat="42.749044" lon="1.094303">
        <ele>1505.6</ele>
        <time>1970-01-01T08:24:37.000Z</time>
      </trkpt>
      <trkpt lat="42.749071" lon="1.093825">
        <ele>1506.6</ele>
        <time>1970-01-01T08:24:47.000Z</time>
      </trkpt>
      <trkpt lat="42.749094" lon="1.093607">
        <ele>1507.6</ele>
        <time>1970-01-01T08:24:52.000Z</time>
      </trkpt>
      <trkpt lat="42.749123" lon="1.093345">
        <ele>1508.8</ele>
        <time>1970-01-01T08:24:59.000Z</time>
      </trkpt>
      <trkpt lat="42.749139" lon="1.092948">
        <ele>1510</ele>
        <time>1970-01-01T08:25:09.000Z</time>
      </trkpt>
      <trkpt lat="42.749151" lon="1.092749">
        <ele>1510.8</ele>
        <time>1970-01-01T08:25:14.000Z</time>
      </trkpt>
      <trkpt lat="42.749153" lon="1.09271">
        <ele>1511</ele>
        <time>1970-01-01T08:25:15.000Z</time>
      </trkpt>
      <trkpt lat="42.749221" lon="1.09237">
        <ele>1512</ele>
        <time>1970-01-01T08:25:25.000Z</time>
      </trkpt>
      <trkpt lat="42.749264" lon="1.091987">
        <ele>1512.2</ele>
        <time>1970-01-01T08:25:34.000Z</time>
      </trkpt>
      <trkpt lat="42.749501" lon="1.091663">
        <ele>1511.8</ele>
        <time>1970-01-01T08:25:43.000Z</time>
      </trkpt>
      <trkpt lat="42.749628" lon="1.091639">
        <ele>1511</ele>
        <time>1970-01-01T08:25:46.000Z</time>
      </trkpt>
      <trkpt lat="42.749853" lon="1.091766">
        <ele>1510.6</ele>
        <time>1970-01-01T08:25:51.000Z</time>
      </trkpt>
      <trkpt lat="42.750379" lon="1.091987">
        <ele>1511.6</ele>
        <time>1970-01-01T08:26:06.000Z</time>
      </trkpt>
      <trkpt lat="42.750401" lon="1.091986">
        <ele>1511.6</ele>
        <time>1970-01-01T08:26:09.000Z</time>
      </trkpt>
      <trkpt lat="42.75046" lon="1.092005">
        <ele>1511.8</ele>
        <time>1970-01-01T08:26:14.000Z</time>
      </trkpt>
      <trkpt lat="42.750674" lon="1.091934">
        <ele>1512</ele>
        <time>1970-01-01T08:26:20.000Z</time>
      </trkpt>
      <trkpt lat="42.750783" lon="1.091582">
        <ele>1513</ele>
        <time>1970-01-01T08:26:28.000Z</time>
      </trkpt>
      <trkpt lat="42.750746" lon="1.091207">
        <ele>1514</ele>
        <time>1970-01-01T08:26:37.000Z</time>
      </trkpt>
      <trkpt lat="42.750722" lon="1.090948">
        <ele>1514.6</ele>
        <time>1970-01-01T08:26:43.000Z</time>
      </trkpt>
      <trkpt lat="42.75072" lon="1.090914">
        <ele>1514.8</ele>
        <time>1970-01-01T08:26:44.000Z</time>
      </trkpt>
      <trkpt lat="42.750724" lon="1.09052">
        <ele>1516</ele>
        <time>1970-01-01T08:26:55.000Z</time>
      </trkpt>
      <trkpt lat="42.750735" lon="1.090215">
        <ele>1517</ele>
        <time>1970-01-01T08:27:03.000Z</time>
      </trkpt>
      <trkpt lat="42.750857" lon="1.089592">
        <ele>1518.2</ele>
        <time>1970-01-01T08:27:19.000Z</time>
      </trkpt>
      <trkpt lat="42.751013" lon="1.089052">
        <ele>1519.2</ele>
        <time>1970-01-01T08:27:32.000Z</time>
      </trkpt>
      <trkpt lat="42.751477" lon="1.088625">
        <ele>1519</ele>
        <time>1970-01-01T08:27:48.000Z</time>
      </trkpt>
      <trkpt lat="42.751974" lon="1.088351">
        <ele>1519.4</ele>
        <time>1970-01-01T08:28:03.000Z</time>
      </trkpt>
      <trkpt lat="42.752082" lon="1.088159">
        <ele>1520</ele>
        <time>1970-01-01T08:28:08.000Z</time>
      </trkpt>
      <trkpt lat="42.752251" lon="1.087794">
        <ele>1521</ele>
        <time>1970-01-01T08:28:17.000Z</time>
      </trkpt>
      <trkpt lat="42.752543" lon="1.087413">
        <ele>1522.2</ele>
        <time>1970-01-01T08:28:29.000Z</time>
      </trkpt>
      <trkpt lat="42.752713" lon="1.086708">
        <ele>1523.4</ele>
        <time>1970-01-01T08:28:44.000Z</time>
      </trkpt>
      <trkpt lat="42.752766" lon="1.086479">
        <ele>1524.4</ele>
        <time>1970-01-01T08:28:49.000Z</time>
      </trkpt>
      <trkpt lat="42.752877" lon="1.08595">
        <ele>1525.6</ele>
        <time>1970-01-01T08:29:00.000Z</time>
      </trkpt>
      <trkpt lat="42.75297" lon="1.08558">
        <ele>1526.6</ele>
        <time>1970-01-01T08:29:08.000Z</time>
      </trkpt>
      <trkpt lat="42.753096" lon="1.085192">
        <ele>1527.6</ele>
        <time>1970-01-01T08:29:17.000Z</time>
      </trkpt>
      <trkpt lat="42.753131" lon="1.085148">
        <ele>1527.8</ele>
        <time>1970-01-01T08:29:19.000Z</time>
      </trkpt>
      <trkpt lat="42.753183" lon="1.085105">
        <ele>1527.8</ele>
        <time>1970-01-01T08:29:24.000Z</time>
      </trkpt>
      <trkpt lat="42.753153" lon="1.085101">
        <ele>1527.8</ele>
        <time>1970-01-01T08:32:03.000Z</time>
      </trkpt>
      <trkpt lat="42.753116" lon="1.085084">
        <ele>1527.8</ele>
        <time>1970-01-01T08:32:10.000Z</time>
      </trkpt>
      <trkpt lat="42.753153" lon="1.085087">
        <ele>1528.6</ele>
        <time>1970-01-01T08:45:34.000Z</time>
      </trkpt>
      <trkpt lat="42.753175" lon="1.084976">
        <ele>1528.8</ele>
        <time>1970-01-01T08:45:38.000Z</time>
      </trkpt>
      <trkpt lat="42.753186" lon="1.084436">
        <ele>1529.6</ele>
        <time>1970-01-01T08:45:53.000Z</time>
      </trkpt>
      <trkpt lat="42.753223" lon="1.084236">
        <ele>1530.8</ele>
        <time>1970-01-01T08:46:00.000Z</time>
      </trkpt>
      <trkpt lat="42.753224" lon="1.084075">
        <ele>1531.8</ele>
        <time>1970-01-01T08:46:06.000Z</time>
      </trkpt>
      <trkpt lat="42.753193" lon="1.083924">
        <ele>1532.8</ele>
        <time>1970-01-01T08:46:12.000Z</time>
      </trkpt>
      <trkpt lat="42.753144" lon="1.083785">
        <ele>1534</ele>
        <time>1970-01-01T08:46:18.000Z</time>
      </trkpt>
      <trkpt lat="42.753048" lon="1.083668">
        <ele>1535</ele>
        <time>1970-01-01T08:46:25.000Z</time>
      </trkpt>
      <trkpt lat="42.752837" lon="1.083688">
        <ele>1536</ele>
        <time>1970-01-01T08:46:37.000Z</time>
      </trkpt>
      <trkpt lat="42.752717" lon="1.083794">
        <ele>1537</ele>
        <time>1970-01-01T08:46:45.000Z</time>
      </trkpt>
      <trkpt lat="42.752603" lon="1.083908">
        <ele>1538</ele>
        <time>1970-01-01T08:46:53.000Z</time>
      </trkpt>
      <trkpt lat="42.752515" lon="1.083979">
        <ele>1539.2</ele>
        <time>1970-01-01T08:46:59.000Z</time>
      </trkpt>
      <trkpt lat="42.752428" lon="1.084051">
        <ele>1540.2</ele>
        <time>1970-01-01T08:47:05.000Z</time>
      </trkpt>
      <trkpt lat="42.752313" lon="1.084154">
        <ele>1541.2</ele>
        <time>1970-01-01T08:47:14.000Z</time>
      </trkpt>
      <trkpt lat="42.752235" lon="1.084211">
        <ele>1542.4</ele>
        <time>1970-01-01T08:47:20.000Z</time>
      </trkpt>
      <trkpt lat="42.752143" lon="1.084295">
        <ele>1543.4</ele>
        <time>1970-01-01T08:47:27.000Z</time>
      </trkpt>
      <trkpt lat="42.752063" lon="1.084379">
        <ele>1544.6</ele>
        <time>1970-01-01T08:47:34.000Z</time>
      </trkpt>
      <trkpt lat="42.752003" lon="1.084457">
        <ele>1545.8</ele>
        <time>1970-01-01T08:47:40.000Z</time>
      </trkpt>
      <trkpt lat="42.751968" lon="1.084488">
        <ele>1546.2</ele>
        <time>1970-01-01T08:47:43.000Z</time>
      </trkpt>
      <trkpt lat="42.751929" lon="1.084511">
        <ele>1546.8</ele>
        <time>1970-01-01T08:47:46.000Z</time>
      </trkpt>
      <trkpt lat="42.751918" lon="1.084519">
        <ele>1547</ele>
        <time>1970-01-01T08:47:47.000Z</time>
      </trkpt>
      <trkpt lat="42.751861" lon="1.084526">
        <ele>1547.6</ele>
        <time>1970-01-01T08:47:51.000Z</time>
      </trkpt>
      <trkpt lat="42.751846" lon="1.084515">
        <ele>1548</ele>
        <time>1970-01-01T08:47:52.000Z</time>
      </trkpt>
      <trkpt lat="42.751799" lon="1.084459">
        <ele>1548.8</ele>
        <time>1970-01-01T08:47:56.000Z</time>
      </trkpt>
      <trkpt lat="42.751792" lon="1.084416">
        <ele>1549</ele>
        <time>1970-01-01T08:47:58.000Z</time>
      </trkpt>
      <trkpt lat="42.751814" lon="1.084291">
        <ele>1550.2</ele>
        <time>1970-01-01T08:48:05.000Z</time>
      </trkpt>
      <trkpt lat="42.751826" lon="1.084282">
        <ele>1550.4</ele>
        <time>1970-01-01T08:48:06.000Z</time>
      </trkpt>
      <trkpt lat="42.751937" lon="1.084218">
        <ele>1551</ele>
        <time>1970-01-01T08:48:14.000Z</time>
      </trkpt>
      <trkpt lat="42.752031" lon="1.084109">
        <ele>1552</ele>
        <time>1970-01-01T08:48:20.000Z</time>
      </trkpt>
      <trkpt lat="42.752124" lon="1.083943">
        <ele>1553</ele>
        <time>1970-01-01T08:48:28.000Z</time>
      </trkpt>
      <trkpt lat="42.752191" lon="1.083774">
        <ele>1553.8</ele>
        <time>1970-01-01T08:48:37.000Z</time>
      </trkpt>
      <trkpt lat="42.752258" lon="1.083642">
        <ele>1554.8</ele>
        <time>1970-01-01T08:48:44.000Z</time>
      </trkpt>
      <trkpt lat="42.752325" lon="1.08352">
        <ele>1555.8</ele>
        <time>1970-01-01T08:48:53.000Z</time>
      </trkpt>
      <trkpt lat="42.752355" lon="1.083376">
        <ele>1556.6</ele>
        <time>1970-01-01T08:49:01.000Z</time>
      </trkpt>
      <trkpt lat="42.752363" lon="1.083299">
        <ele>1557</ele>
        <time>1970-01-01T08:49:05.000Z</time>
      </trkpt>
      <trkpt lat="42.752399" lon="1.083206">
        <ele>1557.4</ele>
        <time>1970-01-01T08:49:10.000Z</time>
      </trkpt>
      <trkpt lat="42.752476" lon="1.083057">
        <ele>1558.4</ele>
        <time>1970-01-01T08:49:19.000Z</time>
      </trkpt>
      <trkpt lat="42.752559" lon="1.082895">
        <ele>1559.2</ele>
        <time>1970-01-01T08:49:29.000Z</time>
      </trkpt>
      <trkpt lat="42.752606" lon="1.08282">
        <ele>1559.8</ele>
        <time>1970-01-01T08:49:34.000Z</time>
      </trkpt>
      <trkpt lat="42.752635" lon="1.082779">
        <ele>1560</ele>
        <time>1970-01-01T08:49:37.000Z</time>
      </trkpt>
      <trkpt lat="42.752744" lon="1.082633">
        <ele>1561.2</ele>
        <time>1970-01-01T08:49:46.000Z</time>
      </trkpt>
      <trkpt lat="42.752815" lon="1.082568">
        <ele>1562</ele>
        <time>1970-01-01T08:49:52.000Z</time>
      </trkpt>
      <trkpt lat="42.752876" lon="1.082491">
        <ele>1563.2</ele>
        <time>1970-01-01T08:49:58.000Z</time>
      </trkpt>
      <trkpt lat="42.752945" lon="1.082328">
        <ele>1564</ele>
        <time>1970-01-01T08:50:07.000Z</time>
      </trkpt>
      <trkpt lat="42.753014" lon="1.082128">
        <ele>1564.8</ele>
        <time>1970-01-01T08:50:17.000Z</time>
      </trkpt>
      <trkpt lat="42.753059" lon="1.081988">
        <ele>1565.8</ele>
        <time>1970-01-01T08:50:24.000Z</time>
      </trkpt>
      <trkpt lat="42.753109" lon="1.081866">
        <ele>1566.8</ele>
        <time>1970-01-01T08:50:31.000Z</time>
      </trkpt>
      <trkpt lat="42.753161" lon="1.081741">
        <ele>1567.8</ele>
        <time>1970-01-01T08:50:38.000Z</time>
      </trkpt>
      <trkpt lat="42.753204" lon="1.08166">
        <ele>1568.2</ele>
        <time>1970-01-01T08:50:43.000Z</time>
      </trkpt>
      <trkpt lat="42.753226" lon="1.081599">
        <ele>1568.6</ele>
        <time>1970-01-01T08:50:46.000Z</time>
      </trkpt>
      <trkpt lat="42.753289" lon="1.081489">
        <ele>1569.2</ele>
        <time>1970-01-01T08:50:52.000Z</time>
      </trkpt>
      <trkpt lat="42.753311" lon="1.081456">
        <ele>1569.6</ele>
        <time>1970-01-01T08:50:54.000Z</time>
      </trkpt>
      <trkpt lat="42.753379" lon="1.08134">
        <ele>1570.8</ele>
        <time>1970-01-01T08:51:00.000Z</time>
      </trkpt>
      <trkpt lat="42.753468" lon="1.081213">
        <ele>1571.6</ele>
        <time>1970-01-01T08:51:08.000Z</time>
      </trkpt>
      <trkpt lat="42.753567" lon="1.081016">
        <ele>1572.6</ele>
        <time>1970-01-01T08:51:17.000Z</time>
      </trkpt>
      <trkpt lat="42.753628" lon="1.080885">
        <ele>1573.6</ele>
        <time>1970-01-01T08:51:23.000Z</time>
      </trkpt>
      <trkpt lat="42.753719" lon="1.080627">
        <ele>1574.4</ele>
        <time>1970-01-01T08:51:33.000Z</time>
      </trkpt>
      <trkpt lat="42.753773" lon="1.080514">
        <ele>1575</ele>
        <time>1970-01-01T08:51:38.000Z</time>
      </trkpt>
      <trkpt lat="42.753792" lon="1.080464">
        <ele>1575.2</ele>
        <time>1970-01-01T08:51:40.000Z</time>
      </trkpt>
      <trkpt lat="42.753899" lon="1.080267">
        <ele>1576</ele>
        <time>1970-01-01T08:51:49.000Z</time>
      </trkpt>
      <trkpt lat="42.753989" lon="1.080101">
        <ele>1577.2</ele>
        <time>1970-01-01T08:51:57.000Z</time>
      </trkpt>
      <trkpt lat="42.754193" lon="1.08005">
        <ele>1578</ele>
        <time>1970-01-01T08:52:07.000Z</time>
      </trkpt>
      <trkpt lat="42.754397" lon="1.079972">
        <ele>1579</ele>
        <time>1970-01-01T08:52:17.000Z</time>
      </trkpt>
      <trkpt lat="42.75453" lon="1.07984">
        <ele>1579.8</ele>
        <time>1970-01-01T08:52:24.000Z</time>
      </trkpt>
      <trkpt lat="42.754695" lon="1.079617">
        <ele>1581</ele>
        <time>1970-01-01T08:52:34.000Z</time>
      </trkpt>
      <trkpt lat="42.754874" lon="1.079477">
        <ele>1581.8</ele>
        <time>1970-01-01T08:52:43.000Z</time>
      </trkpt>
      <trkpt lat="42.755105" lon="1.079506">
        <ele>1583</ele>
        <time>1970-01-01T08:52:54.000Z</time>
      </trkpt>
      <trkpt lat="42.755243" lon="1.079637">
        <ele>1584.2</ele>
        <time>1970-01-01T08:53:02.000Z</time>
      </trkpt>
      <trkpt lat="42.755298" lon="1.079708">
        <ele>1585.4</ele>
        <time>1970-01-01T08:53:06.000Z</time>
      </trkpt>
      <trkpt lat="42.755499" lon="1.079874">
        <ele>1586.2</ele>
        <time>1970-01-01T08:53:17.000Z</time>
      </trkpt>
      <trkpt lat="42.755872" lon="1.080105">
        <ele>1587.4</ele>
        <time>1970-01-01T08:53:35.000Z</time>
      </trkpt>
      <trkpt lat="42.755915" lon="1.080126">
        <ele>1587.6</ele>
        <time>1970-01-01T08:53:37.000Z</time>
      </trkpt>
      <trkpt lat="42.755966" lon="1.080111">
        <ele>1587.8</ele>
        <time>1970-01-01T08:53:41.000Z</time>
      </trkpt>
      <trkpt lat="42.755986" lon="1.08015">
        <ele>1587.8</ele>
        <time>1970-01-01T08:55:15.000Z</time>
      </trkpt>
      <trkpt lat="42.756137" lon="1.080223">
        <ele>1589</ele>
        <time>1970-01-01T08:55:23.000Z</time>
      </trkpt>
      <trkpt lat="42.756249" lon="1.080153">
        <ele>1589.4</ele>
        <time>1970-01-01T08:55:28.000Z</time>
      </trkpt>
      <trkpt lat="42.756482" lon="1.080019">
        <ele>1590.2</ele>
        <time>1970-01-01T08:55:38.000Z</time>
      </trkpt>
      <trkpt lat="42.756569" lon="1.07991">
        <ele>1591.2</ele>
        <time>1970-01-01T08:55:43.000Z</time>
      </trkpt>
      <trkpt lat="42.756822" lon="1.07947">
        <ele>1592.2</ele>
        <time>1970-01-01T08:55:59.000Z</time>
      </trkpt>
      <trkpt lat="42.75692" lon="1.079355">
        <ele>1593.4</ele>
        <time>1970-01-01T08:56:05.000Z</time>
      </trkpt>
      <trkpt lat="42.756991" lon="1.079299">
        <ele>1594.4</ele>
        <time>1970-01-01T08:56:10.000Z</time>
      </trkpt>
      <trkpt lat="42.757102" lon="1.079216">
        <ele>1595.6</ele>
        <time>1970-01-01T08:56:17.000Z</time>
      </trkpt>
      <trkpt lat="42.757149" lon="1.079178">
        <ele>1596.6</ele>
        <time>1970-01-01T08:56:21.000Z</time>
      </trkpt>
      <trkpt lat="42.757272" lon="1.078972">
        <ele>1597.6</ele>
        <time>1970-01-01T08:56:31.000Z</time>
      </trkpt>
      <trkpt lat="42.757366" lon="1.078775">
        <ele>1598.8</ele>
        <time>1970-01-01T08:56:40.000Z</time>
      </trkpt>
      <trkpt lat="42.75741" lon="1.078675">
        <ele>1599.8</ele>
        <time>1970-01-01T08:56:45.000Z</time>
      </trkpt>
      <trkpt lat="42.757479" lon="1.078545">
        <ele>1600.8</ele>
        <time>1970-01-01T08:56:52.000Z</time>
      </trkpt>
      <trkpt lat="42.757531" lon="1.078452">
        <ele>1601.8</ele>
        <time>1970-01-01T08:56:57.000Z</time>
      </trkpt>
      <trkpt lat="42.757573" lon="1.078345">
        <ele>1602.8</ele>
        <time>1970-01-01T08:57:03.000Z</time>
      </trkpt>
      <trkpt lat="42.757576" lon="1.078323">
        <ele>1603</ele>
        <time>1970-01-01T08:57:04.000Z</time>
      </trkpt>
      <trkpt lat="42.757627" lon="1.078155">
        <ele>1604</ele>
        <time>1970-01-01T08:57:12.000Z</time>
      </trkpt>
      <trkpt lat="42.757661" lon="1.078047">
        <ele>1605.2</ele>
        <time>1970-01-01T08:57:18.000Z</time>
      </trkpt>
      <trkpt lat="42.757664" lon="1.078009">
        <ele>1605.8</ele>
        <time>1970-01-01T08:57:20.000Z</time>
      </trkpt>
      <trkpt lat="42.757663" lon="1.077974">
        <ele>1606.2</ele>
        <time>1970-01-01T08:57:22.000Z</time>
      </trkpt>
      <trkpt lat="42.757678" lon="1.077861">
        <ele>1607.2</ele>
        <time>1970-01-01T08:57:27.000Z</time>
      </trkpt>
      <trkpt lat="42.757685" lon="1.077752">
        <ele>1608.4</ele>
        <time>1970-01-01T08:57:32.000Z</time>
      </trkpt>
      <trkpt lat="42.757697" lon="1.077672">
        <ele>1609.4</ele>
        <time>1970-01-01T08:57:36.000Z</time>
      </trkpt>
      <trkpt lat="42.757727" lon="1.077572">
        <ele>1610.4</ele>
        <time>1970-01-01T08:57:41.000Z</time>
      </trkpt>
      <trkpt lat="42.757767" lon="1.077198">
        <ele>1611.2</ele>
        <time>1970-01-01T08:57:58.000Z</time>
      </trkpt>
      <trkpt lat="42.757774" lon="1.077093">
        <ele>1611.8</ele>
        <time>1970-01-01T08:58:03.000Z</time>
      </trkpt>
      <trkpt lat="42.7578" lon="1.077016">
        <ele>1612</ele>
        <time>1970-01-01T08:58:07.000Z</time>
      </trkpt>
      <trkpt lat="42.757802" lon="1.076999">
        <ele>1612.2</ele>
        <time>1970-01-01T08:58:08.000Z</time>
      </trkpt>
      <trkpt lat="42.757817" lon="1.076905">
        <ele>1613.2</ele>
        <time>1970-01-01T08:58:14.000Z</time>
      </trkpt>
      <trkpt lat="42.757843" lon="1.076766">
        <ele>1614.6</ele>
        <time>1970-01-01T08:58:20.000Z</time>
      </trkpt>
      <trkpt lat="42.757864" lon="1.076628">
        <ele>1615.6</ele>
        <time>1970-01-01T08:58:26.000Z</time>
      </trkpt>
      <trkpt lat="42.757875" lon="1.076476">
        <ele>1616.4</ele>
        <time>1970-01-01T08:58:32.000Z</time>
      </trkpt>
      <trkpt lat="42.757898" lon="1.07634">
        <ele>1617.6</ele>
        <time>1970-01-01T08:58:38.000Z</time>
      </trkpt>
      <trkpt lat="42.757916" lon="1.076162">
        <ele>1618.4</ele>
        <time>1970-01-01T08:58:46.000Z</time>
      </trkpt>
      <trkpt lat="42.757891" lon="1.07601">
        <ele>1619.4</ele>
        <time>1970-01-01T08:58:54.000Z</time>
      </trkpt>
      <trkpt lat="42.757878" lon="1.075941">
        <ele>1620.4</ele>
        <time>1970-01-01T08:58:58.000Z</time>
      </trkpt>
      <trkpt lat="42.757882" lon="1.075874">
        <ele>1621.2</ele>
        <time>1970-01-01T08:59:01.000Z</time>
      </trkpt>
      <trkpt lat="42.757891" lon="1.075851">
        <ele>1621.4</ele>
        <time>1970-01-01T08:59:02.000Z</time>
      </trkpt>
      <trkpt lat="42.757918" lon="1.075765">
        <ele>1622</ele>
        <time>1970-01-01T08:59:06.000Z</time>
      </trkpt>
      <trkpt lat="42.757936" lon="1.07567">
        <ele>1622.2</ele>
        <time>1970-01-01T08:59:10.000Z</time>
      </trkpt>
      <trkpt lat="42.758018" lon="1.075402">
        <ele>1623.4</ele>
        <time>1970-01-01T08:59:22.000Z</time>
      </trkpt>
      <trkpt lat="42.75803" lon="1.075221">
        <ele>1624.4</ele>
        <time>1970-01-01T08:59:30.000Z</time>
      </trkpt>
      <trkpt lat="42.758128" lon="1.074483">
        <ele>1624</ele>
        <time>1970-01-01T08:59:54.000Z</time>
      </trkpt>
      <trkpt lat="42.758119" lon="1.07436">
        <ele>1623</ele>
        <time>1970-01-01T08:59:56.000Z</time>
      </trkpt>
      <trkpt lat="42.758106" lon="1.074302">
        <ele>1622.6</ele>
        <time>1970-01-01T08:59:57.000Z</time>
      </trkpt>
      <trkpt lat="42.758088" lon="1.074248">
        <ele>1621.4</ele>
        <time>1970-01-01T08:59:58.000Z</time>
      </trkpt>
      <trkpt lat="42.758062" lon="1.074112">
        <ele>1620.2</ele>
        <time>1970-01-01T09:00:00.000Z</time>
      </trkpt>
      <trkpt lat="42.758066" lon="1.073951">
        <ele>1619.2</ele>
        <time>1970-01-01T09:00:02.000Z</time>
      </trkpt>
      <trkpt lat="42.758078" lon="1.073864">
        <ele>1618.6</ele>
        <time>1970-01-01T09:00:03.000Z</time>
      </trkpt>
      <trkpt lat="42.758087" lon="1.073676">
        <ele>1617.8</ele>
        <time>1970-01-01T09:00:05.000Z</time>
      </trkpt>
      <trkpt lat="42.758089" lon="1.073476">
        <ele>1616.4</ele>
        <time>1970-01-01T09:00:07.000Z</time>
      </trkpt>
      <trkpt lat="42.758108" lon="1.073247">
        <ele>1615</ele>
        <time>1970-01-01T09:00:09.000Z</time>
      </trkpt>
      <trkpt lat="42.75812" lon="1.072998">
        <ele>1613.6</ele>
        <time>1970-01-01T09:00:11.000Z</time>
      </trkpt>
      <trkpt lat="42.758141" lon="1.072485">
        <ele>1613.6</ele>
        <time>1970-01-01T09:00:16.000Z</time>
      </trkpt>
      <trkpt lat="42.758188" lon="1.072257">
        <ele>1614.8</ele>
        <time>1970-01-01T09:00:20.000Z</time>
      </trkpt>
      <trkpt lat="42.758199" lon="1.072156">
        <ele>1616</ele>
        <time>1970-01-01T09:00:23.000Z</time>
      </trkpt>
      <trkpt lat="42.758226" lon="1.072041">
        <ele>1617.2</ele>
        <time>1970-01-01T09:00:27.000Z</time>
      </trkpt>
      <trkpt lat="42.758249" lon="1.07192">
        <ele>1618.6</ele>
        <time>1970-01-01T09:00:32.000Z</time>
      </trkpt>
      <trkpt lat="42.758294" lon="1.071746">
        <ele>1619.6</ele>
        <time>1970-01-01T09:00:39.000Z</time>
      </trkpt>
      <trkpt lat="42.758301" lon="1.071662">
        <ele>1620.4</ele>
        <time>1970-01-01T09:00:43.000Z</time>
      </trkpt>
      <trkpt lat="42.758301" lon="1.071554">
        <ele>1621.6</ele>
        <time>1970-01-01T09:00:48.000Z</time>
      </trkpt>
      <trkpt lat="42.75831" lon="1.071427">
        <ele>1622.8</ele>
        <time>1970-01-01T09:00:53.000Z</time>
      </trkpt>
      <trkpt lat="42.758309" lon="1.071077">
        <ele>1623.6</ele>
        <time>1970-01-01T09:01:06.000Z</time>
      </trkpt>
      <trkpt lat="42.758281" lon="1.070873">
        <ele>1624.6</ele>
        <time>1970-01-01T09:01:14.000Z</time>
      </trkpt>
      <trkpt lat="42.758285" lon="1.070622">
        <ele>1625.4</ele>
        <time>1970-01-01T09:01:23.000Z</time>
      </trkpt>
      <trkpt lat="42.758274" lon="1.070525">
        <ele>1626.4</ele>
        <time>1970-01-01T09:01:27.000Z</time>
      </trkpt>
      <trkpt lat="42.758273" lon="1.070499">
        <ele>1626.6</ele>
        <time>1970-01-01T09:01:28.000Z</time>
      </trkpt>
      <trkpt lat="42.758266" lon="1.070407">
        <ele>1627.2</ele>
        <time>1970-01-01T09:01:32.000Z</time>
      </trkpt>
      <trkpt lat="42.758265" lon="1.070379">
        <ele>1627.4</ele>
        <time>1970-01-01T09:01:33.000Z</time>
      </trkpt>
      <trkpt lat="42.758251" lon="1.069885">
        <ele>1626.2</ele>
        <time>1970-01-01T09:01:45.000Z</time>
      </trkpt>
      <trkpt lat="42.758252" lon="1.069803">
        <ele>1626</ele>
        <time>1970-01-01T09:01:46.000Z</time>
      </trkpt>
      <trkpt lat="42.758259" lon="1.069536">
        <ele>1624.8</ele>
        <time>1970-01-01T09:01:49.000Z</time>
      </trkpt>
      <trkpt lat="42.758188" lon="1.068784">
        <ele>1625.4</ele>
        <time>1970-01-01T09:02:01.000Z</time>
      </trkpt>
      <trkpt lat="42.758192" lon="1.068057">
        <ele>1624.2</ele>
        <time>1970-01-01T09:02:14.000Z</time>
      </trkpt>
      <trkpt lat="42.758186" lon="1.067766">
        <ele>1624.2</ele>
        <time>1970-01-01T09:02:18.000Z</time>
      </trkpt>
      <trkpt lat="42.758157" lon="1.067071">
        <ele>1623</ele>
        <time>1970-01-01T09:02:30.000Z</time>
      </trkpt>
      <trkpt lat="42.758151" lon="1.066989">
        <ele>1622.6</ele>
        <time>1970-01-01T09:02:31.000Z</time>
      </trkpt>
      <trkpt lat="42.75813" lon="1.066809">
        <ele>1621.4</ele>
        <time>1970-01-01T09:02:33.000Z</time>
      </trkpt>
      <trkpt lat="42.75813" lon="1.066715">
        <ele>1620</ele>
        <time>1970-01-01T09:02:34.000Z</time>
      </trkpt>
      <trkpt lat="42.758141" lon="1.066623">
        <ele>1618.4</ele>
        <time>1970-01-01T09:02:35.000Z</time>
      </trkpt>
      <trkpt lat="42.758142" lon="1.06653">
        <ele>1617.2</ele>
        <time>1970-01-01T09:02:36.000Z</time>
      </trkpt>
      <trkpt lat="42.75815" lon="1.06644">
        <ele>1616</ele>
        <time>1970-01-01T09:02:37.000Z</time>
      </trkpt>
      <trkpt lat="42.758166" lon="1.066241">
        <ele>1614</ele>
        <time>1970-01-01T09:02:39.000Z</time>
      </trkpt>
      <trkpt lat="42.758215" lon="1.066047">
        <ele>1612.6</ele>
        <time>1970-01-01T09:02:41.000Z</time>
      </trkpt>
      <trkpt lat="42.758313" lon="1.065763">
        <ele>1611</ele>
        <time>1970-01-01T09:02:44.000Z</time>
      </trkpt>
      <trkpt lat="42.758383" lon="1.065362">
        <ele>1609.4</ele>
        <time>1970-01-01T09:02:48.000Z</time>
      </trkpt>
      <trkpt lat="42.758432" lon="1.06514">
        <ele>1608.2</ele>
        <time>1970-01-01T09:02:50.000Z</time>
      </trkpt>
      <trkpt lat="42.758503" lon="1.064938">
        <ele>1606.4</ele>
        <time>1970-01-01T09:02:52.000Z</time>
      </trkpt>
      <trkpt lat="42.758564" lon="1.064736">
        <ele>1604.6</ele>
        <time>1970-01-01T09:02:54.000Z</time>
      </trkpt>
      <trkpt lat="42.758648" lon="1.064513">
        <ele>1603.2</ele>
        <time>1970-01-01T09:02:56.000Z</time>
      </trkpt>
      <trkpt lat="42.758702" lon="1.064319">
        <ele>1601.2</ele>
        <time>1970-01-01T09:02:58.000Z</time>
      </trkpt>
      <trkpt lat="42.75876" lon="1.064174">
        <ele>1599.4</ele>
        <time>1970-01-01T09:03:00.000Z</time>
      </trkpt>
      <trkpt lat="42.758794" lon="1.064094">
        <ele>1597.4</ele>
        <time>1970-01-01T09:03:01.000Z</time>
      </trkpt>
      <trkpt lat="42.758864" lon="1.063936">
        <ele>1595.6</ele>
        <time>1970-01-01T09:03:03.000Z</time>
      </trkpt>
      <trkpt lat="42.758938" lon="1.063759">
        <ele>1594.2</ele>
        <time>1970-01-01T09:03:05.000Z</time>
      </trkpt>
      <trkpt lat="42.759296" lon="1.063124">
        <ele>1593.6</ele>
        <time>1970-01-01T09:03:15.000Z</time>
      </trkpt>
      <trkpt lat="42.759321" lon="1.063052">
        <ele>1593.2</ele>
        <time>1970-01-01T09:03:16.000Z</time>
      </trkpt>
      <trkpt lat="42.759423" lon="1.062833">
        <ele>1593</ele>
        <time>1970-01-01T09:03:20.000Z</time>
      </trkpt>
      <trkpt lat="42.759589" lon="1.062559">
        <ele>1594.8</ele>
        <time>1970-01-01T09:03:28.000Z</time>
      </trkpt>
      <trkpt lat="42.75966" lon="1.062207">
        <ele>1595.6</ele>
        <time>1970-01-01T09:03:38.000Z</time>
      </trkpt>
      <trkpt lat="42.759675" lon="1.062108">
        <ele>1596.6</ele>
        <time>1970-01-01T09:03:42.000Z</time>
      </trkpt>
      <trkpt lat="42.759698" lon="1.062029">
        <ele>1597.8</ele>
        <time>1970-01-01T09:03:46.000Z</time>
      </trkpt>
      <trkpt lat="42.759743" lon="1.061912">
        <ele>1598.8</ele>
        <time>1970-01-01T09:03:50.000Z</time>
      </trkpt>
      <trkpt lat="42.759758" lon="1.061784">
        <ele>1599.8</ele>
        <time>1970-01-01T09:03:55.000Z</time>
      </trkpt>
      <trkpt lat="42.759781" lon="1.061459">
        <ele>1599.8</ele>
        <time>1970-01-01T09:04:04.000Z</time>
      </trkpt>
      <trkpt lat="42.759814" lon="1.061141">
        <ele>1598.8</ele>
        <time>1970-01-01T09:04:09.000Z</time>
      </trkpt>
      <trkpt lat="42.759946" lon="1.060524">
        <ele>1599.8</ele>
        <time>1970-01-01T09:04:24.000Z</time>
      </trkpt>
      <trkpt lat="42.759958" lon="1.060312">
        <ele>1600.8</ele>
        <time>1970-01-01T09:04:31.000Z</time>
      </trkpt>
      <trkpt lat="42.759973" lon="1.060129">
        <ele>1602</ele>
        <time>1970-01-01T09:04:38.000Z</time>
      </trkpt>
      <trkpt lat="42.759965" lon="1.059759">
        <ele>1603</ele>
        <time>1970-01-01T09:04:48.000Z</time>
      </trkpt>
      <trkpt lat="42.759893" lon="1.059478">
        <ele>1604.2</ele>
        <time>1970-01-01T09:04:57.000Z</time>
      </trkpt>
      <trkpt lat="42.759892" lon="1.059296">
        <ele>1605</ele>
        <time>1970-01-01T09:05:03.000Z</time>
      </trkpt>
      <trkpt lat="42.759884" lon="1.059181">
        <ele>1606.2</ele>
        <time>1970-01-01T09:05:07.000Z</time>
      </trkpt>
      <trkpt lat="42.759839" lon="1.059077">
        <ele>1607.2</ele>
        <time>1970-01-01T09:05:12.000Z</time>
      </trkpt>
      <trkpt lat="42.759785" lon="1.058974">
        <ele>1608.4</ele>
        <time>1970-01-01T09:05:17.000Z</time>
      </trkpt>
      <trkpt lat="42.759742" lon="1.058849">
        <ele>1609.6</ele>
        <time>1970-01-01T09:05:23.000Z</time>
      </trkpt>
      <trkpt lat="42.759715" lon="1.058716">
        <ele>1610.8</ele>
        <time>1970-01-01T09:05:29.000Z</time>
      </trkpt>
      <trkpt lat="42.759693" lon="1.058547">
        <ele>1612</ele>
        <time>1970-01-01T09:05:35.000Z</time>
      </trkpt>
      <trkpt lat="42.759706" lon="1.058374">
        <ele>1613</ele>
        <time>1970-01-01T09:05:42.000Z</time>
      </trkpt>
      <trkpt lat="42.759767" lon="1.057969">
        <ele>1612</ele>
        <time>1970-01-01T09:05:53.000Z</time>
      </trkpt>
      <trkpt lat="42.759746" lon="1.05767">
        <ele>1610.4</ele>
        <time>1970-01-01T09:05:58.000Z</time>
      </trkpt>
      <trkpt lat="42.759698" lon="1.057408">
        <ele>1609.2</ele>
        <time>1970-01-01T09:06:02.000Z</time>
      </trkpt>
      <trkpt lat="42.75966" lon="1.057191">
        <ele>1608.4</ele>
        <time>1970-01-01T09:06:05.000Z</time>
      </trkpt>
      <trkpt lat="42.759641" lon="1.05704">
        <ele>1608</ele>
        <time>1970-01-01T09:06:07.000Z</time>
      </trkpt>
      <trkpt lat="42.759652" lon="1.056897">
        <ele>1607.6</ele>
        <time>1970-01-01T09:06:09.000Z</time>
      </trkpt>
      <trkpt lat="42.75961" lon="1.056336">
        <ele>1608.8</ele>
        <time>1970-01-01T09:06:23.000Z</time>
      </trkpt>
      <trkpt lat="42.759591" lon="1.055884">
        <ele>1610</ele>
        <time>1970-01-01T09:06:36.000Z</time>
      </trkpt>
      <trkpt lat="42.759613" lon="1.055765">
        <ele>1611</ele>
        <time>1970-01-01T09:06:40.000Z</time>
      </trkpt>
      <trkpt lat="42.759646" lon="1.055617">
        <ele>1612</ele>
        <time>1970-01-01T09:06:45.000Z</time>
      </trkpt>
      <trkpt lat="42.759541" lon="1.055216">
        <ele>1611.8</ele>
        <time>1970-01-01T09:06:56.000Z</time>
      </trkpt>
      <trkpt lat="42.759481" lon="1.055116">
        <ele>1611</ele>
        <time>1970-01-01T09:06:58.000Z</time>
      </trkpt>
      <trkpt lat="42.759407" lon="1.054985">
        <ele>1609.8</ele>
        <time>1970-01-01T09:07:00.000Z</time>
      </trkpt>
      <trkpt lat="42.759326" lon="1.054561">
        <ele>1609</ele>
        <time>1970-01-01T09:07:06.000Z</time>
      </trkpt>
      <trkpt lat="42.759342" lon="1.053941">
        <ele>1611</ele>
        <time>1970-01-01T09:07:21.000Z</time>
      </trkpt>
      <trkpt lat="42.759242" lon="1.053219">
        <ele>1611.2</ele>
        <time>1970-01-01T09:07:38.000Z</time>
      </trkpt>
      <trkpt lat="42.759232" lon="1.053019">
        <ele>1612</ele>
        <time>1970-01-01T09:07:43.000Z</time>
      </trkpt>
      <trkpt lat="42.759244" lon="1.052857">
        <ele>1613.2</ele>
        <time>1970-01-01T09:07:48.000Z</time>
      </trkpt>
      <trkpt lat="42.759288" lon="1.052687">
        <ele>1614.2</ele>
        <time>1970-01-01T09:07:53.000Z</time>
      </trkpt>
      <trkpt lat="42.759321" lon="1.052302">
        <ele>1615.4</ele>
        <time>1970-01-01T09:08:04.000Z</time>
      </trkpt>
      <trkpt lat="42.759307" lon="1.051921">
        <ele>1616.4</ele>
        <time>1970-01-01T09:08:14.000Z</time>
      </trkpt>
      <trkpt lat="42.759311" lon="1.051376">
        <ele>1617.4</ele>
        <time>1970-01-01T09:08:28.000Z</time>
      </trkpt>
      <trkpt lat="42.759412" lon="1.050623">
        <ele>1617.8</ele>
        <time>1970-01-01T09:08:45.000Z</time>
      </trkpt>
      <trkpt lat="42.759495" lon="1.050282">
        <ele>1618.6</ele>
        <time>1970-01-01T09:08:53.000Z</time>
      </trkpt>
      <trkpt lat="42.75956" lon="1.049988">
        <ele>1619.6</ele>
        <time>1970-01-01T09:09:00.000Z</time>
      </trkpt>
      <trkpt lat="42.759608" lon="1.049861">
        <ele>1620.8</ele>
        <time>1970-01-01T09:09:04.000Z</time>
      </trkpt>
      <trkpt lat="42.759658" lon="1.049731">
        <ele>1622</ele>
        <time>1970-01-01T09:09:09.000Z</time>
      </trkpt>
      <trkpt lat="42.759736" lon="1.049526">
        <ele>1623</ele>
        <time>1970-01-01T09:09:16.000Z</time>
      </trkpt>
      <trkpt lat="42.759756" lon="1.049168">
        <ele>1624</ele>
        <time>1970-01-01T09:09:27.000Z</time>
      </trkpt>
      <trkpt lat="42.759683" lon="1.048561">
        <ele>1625</ele>
        <time>1970-01-01T09:09:44.000Z</time>
      </trkpt>
      <trkpt lat="42.759694" lon="1.048298">
        <ele>1626</ele>
        <time>1970-01-01T09:09:52.000Z</time>
      </trkpt>
      <trkpt lat="42.759728" lon="1.047686">
        <ele>1627</ele>
        <time>1970-01-01T09:10:09.000Z</time>
      </trkpt>
      <trkpt lat="42.759809" lon="1.047184">
        <ele>1626.6</ele>
        <time>1970-01-01T09:10:29.000Z</time>
      </trkpt>
      <trkpt lat="42.759834" lon="1.047113">
        <ele>1626.8</ele>
        <time>1970-01-01T09:10:52.000Z</time>
      </trkpt>
      <trkpt lat="42.759841" lon="1.046394">
        <ele>1625.8</ele>
        <time>1970-01-01T09:11:08.000Z</time>
      </trkpt>
      <trkpt lat="42.759836" lon="1.046336">
        <ele>1625.6</ele>
        <time>1970-01-01T09:11:09.000Z</time>
      </trkpt>
      <trkpt lat="42.759839" lon="1.046139">
        <ele>1625</ele>
        <time>1970-01-01T09:11:12.000Z</time>
      </trkpt>
      <trkpt lat="42.759942" lon="1.045808">
        <ele>1626.6</ele>
        <time>1970-01-01T09:11:22.000Z</time>
      </trkpt>
      <trkpt lat="42.75999" lon="1.04564">
        <ele>1627.6</ele>
        <time>1970-01-01T09:11:29.000Z</time>
      </trkpt>
      <trkpt lat="42.760015" lon="1.04551">
        <ele>1628.8</ele>
        <time>1970-01-01T09:11:34.000Z</time>
      </trkpt>
      <trkpt lat="42.760012" lon="1.045298">
        <ele>1629.8</ele>
        <time>1970-01-01T09:11:42.000Z</time>
      </trkpt>
      <trkpt lat="42.759992" lon="1.045183">
        <ele>1631</ele>
        <time>1970-01-01T09:11:47.000Z</time>
      </trkpt>
      <trkpt lat="42.759949" lon="1.04496">
        <ele>1632.2</ele>
        <time>1970-01-01T09:11:56.000Z</time>
      </trkpt>
      <trkpt lat="42.7599" lon="1.044791">
        <ele>1633.2</ele>
        <time>1970-01-01T09:12:04.000Z</time>
      </trkpt>
      <trkpt lat="42.759817" lon="1.044677">
        <ele>1634.4</ele>
        <time>1970-01-01T09:12:11.000Z</time>
      </trkpt>
      <trkpt lat="42.759696" lon="1.044512">
        <ele>1635.4</ele>
        <time>1970-01-01T09:12:22.000Z</time>
      </trkpt>
      <trkpt lat="42.759604" lon="1.044407">
        <ele>1636.6</ele>
        <time>1970-01-01T09:12:30.000Z</time>
      </trkpt>
      <trkpt lat="42.759556" lon="1.044312">
        <ele>1637.6</ele>
        <time>1970-01-01T09:12:36.000Z</time>
      </trkpt>
      <trkpt lat="42.759506" lon="1.044223">
        <ele>1638.6</ele>
        <time>1970-01-01T09:12:41.000Z</time>
      </trkpt>
      <trkpt lat="42.759441" lon="1.04412">
        <ele>1640</ele>
        <time>1970-01-01T09:12:47.000Z</time>
      </trkpt>
      <trkpt lat="42.759382" lon="1.043993">
        <ele>1641.2</ele>
        <time>1970-01-01T09:12:53.000Z</time>
      </trkpt>
      <trkpt lat="42.75938" lon="1.043968">
        <ele>1641.2</ele>
        <time>1970-01-01T09:12:54.000Z</time>
      </trkpt>
      <trkpt lat="42.759368" lon="1.043901">
        <ele>1642</ele>
        <time>1970-01-01T09:12:57.000Z</time>
      </trkpt>
      <trkpt lat="42.759358" lon="1.043881">
        <ele>1642.4</ele>
        <time>1970-01-01T09:12:58.000Z</time>
      </trkpt>
      <trkpt lat="42.759299" lon="1.043822">
        <ele>1643.6</ele>
        <time>1970-01-01T09:13:03.000Z</time>
      </trkpt>
      <trkpt lat="42.759184" lon="1.043822">
        <ele>1644.4</ele>
        <time>1970-01-01T09:13:11.000Z</time>
      </trkpt>
      <trkpt lat="42.759066" lon="1.043771">
        <ele>1644.8</ele>
        <time>1970-01-01T09:13:20.000Z</time>
      </trkpt>
      <trkpt lat="42.759025" lon="1.043742">
        <ele>1645.6</ele>
        <time>1970-01-01T09:13:24.000Z</time>
      </trkpt>
      <trkpt lat="42.75901" lon="1.043712">
        <ele>1646</ele>
        <time>1970-01-01T09:13:26.000Z</time>
      </trkpt>
      <trkpt lat="42.758971" lon="1.043648">
        <ele>1646.8</ele>
        <time>1970-01-01T09:13:30.000Z</time>
      </trkpt>
      <trkpt lat="42.75892" lon="1.043491">
        <ele>1647.8</ele>
        <time>1970-01-01T09:13:40.000Z</time>
      </trkpt>
      <trkpt lat="42.758847" lon="1.043331">
        <ele>1649</ele>
        <time>1970-01-01T09:13:50.000Z</time>
      </trkpt>
      <trkpt lat="42.758804" lon="1.043076">
        <ele>1649.8</ele>
        <time>1970-01-01T09:14:02.000Z</time>
      </trkpt>
      <trkpt lat="42.758779" lon="1.04297">
        <ele>1651</ele>
        <time>1970-01-01T09:14:07.000Z</time>
      </trkpt>
      <trkpt lat="42.758721" lon="1.04281">
        <ele>1652</ele>
        <time>1970-01-01T09:14:15.000Z</time>
      </trkpt>
      <trkpt lat="42.758683" lon="1.042739">
        <ele>1653</ele>
        <time>1970-01-01T09:14:20.000Z</time>
      </trkpt>
      <trkpt lat="42.758547" lon="1.042417">
        <ele>1654</ele>
        <time>1970-01-01T09:14:35.000Z</time>
      </trkpt>
      <trkpt lat="42.758373" lon="1.042061">
        <ele>1654.8</ele>
        <time>1970-01-01T09:14:49.000Z</time>
      </trkpt>
      <trkpt lat="42.758349" lon="1.041814">
        <ele>1653.8</ele>
        <time>1970-01-01T09:14:55.000Z</time>
      </trkpt>
      <trkpt lat="42.758396" lon="1.041099">
        <ele>1653.2</ele>
        <time>1970-01-01T09:15:12.000Z</time>
      </trkpt>
      <trkpt lat="42.75838" lon="1.040819">
        <ele>1652.4</ele>
        <time>1970-01-01T09:15:18.000Z</time>
      </trkpt>
      <trkpt lat="42.758576" lon="1.040465">
        <ele>1651.6</ele>
        <time>1970-01-01T09:15:28.000Z</time>
      </trkpt>
      <trkpt lat="42.758887" lon="1.039878">
        <ele>1652.8</ele>
        <time>1970-01-01T09:15:48.000Z</time>
      </trkpt>
      <trkpt lat="42.758905" lon="1.039673">
        <ele>1653.6</ele>
        <time>1970-01-01T09:15:54.000Z</time>
      </trkpt>
      <trkpt lat="42.758977" lon="1.039333">
        <ele>1654.4</ele>
        <time>1970-01-01T09:16:04.000Z</time>
      </trkpt>
      <trkpt lat="42.758942" lon="1.039086">
        <ele>1655.4</ele>
        <time>1970-01-01T09:16:12.000Z</time>
      </trkpt>
      <trkpt lat="42.758977" lon="1.038703">
        <ele>1656.4</ele>
        <time>1970-01-01T09:16:23.000Z</time>
      </trkpt>
      <trkpt lat="42.758888" lon="1.037963">
        <ele>1657</ele>
        <time>1970-01-01T09:16:42.000Z</time>
      </trkpt>
      <trkpt lat="42.758879" lon="1.037833">
        <ele>1657.4</ele>
        <time>1970-01-01T09:16:46.000Z</time>
      </trkpt>
      <trkpt lat="42.758905" lon="1.03774">
        <ele>1658.4</ele>
        <time>1970-01-01T09:16:50.000Z</time>
      </trkpt>
      <trkpt lat="42.758935" lon="1.037645">
        <ele>1659.6</ele>
        <time>1970-01-01T09:16:54.000Z</time>
      </trkpt>
      <trkpt lat="42.758935" lon="1.037593">
        <ele>1659.8</ele>
        <time>1970-01-01T09:16:56.000Z</time>
      </trkpt>
      <trkpt lat="42.75899" lon="1.037218">
        <ele>1660.8</ele>
        <time>1970-01-01T09:17:08.000Z</time>
      </trkpt>
      <trkpt lat="42.75897" lon="1.036498">
        <ele>1661</ele>
        <time>1970-01-01T09:17:28.000Z</time>
      </trkpt>
      <trkpt lat="42.758953" lon="1.036348">
        <ele>1661.8</ele>
        <time>1970-01-01T09:17:33.000Z</time>
      </trkpt>
      <trkpt lat="42.758774" lon="1.035877">
        <ele>1662.8</ele>
        <time>1970-01-01T09:17:48.000Z</time>
      </trkpt>
      <trkpt lat="42.758627" lon="1.035367">
        <ele>1661.6</ele>
        <time>1970-01-01T09:18:04.000Z</time>
      </trkpt>
      <trkpt lat="42.758588" lon="1.035255">
        <ele>1660.2</ele>
        <time>1970-01-01T09:18:06.000Z</time>
      </trkpt>
      <trkpt lat="42.758547" lon="1.035117">
        <ele>1658.8</ele>
        <time>1970-01-01T09:18:08.000Z</time>
      </trkpt>
      <trkpt lat="42.758491" lon="1.034885">
        <ele>1657.8</ele>
        <time>1970-01-01T09:18:11.000Z</time>
      </trkpt>
      <trkpt lat="42.758343" lon="1.034391">
        <ele>1658.8</ele>
        <time>1970-01-01T09:18:20.000Z</time>
      </trkpt>
      <trkpt lat="42.75829" lon="1.034098">
        <ele>1660.2</ele>
        <time>1970-01-01T09:18:27.000Z</time>
      </trkpt>
      <trkpt lat="42.758201" lon="1.033358">
        <ele>1661</ele>
        <time>1970-01-01T09:18:44.000Z</time>
      </trkpt>
      <trkpt lat="42.758193" lon="1.033111">
        <ele>1661.2</ele>
        <time>1970-01-01T09:18:50.000Z</time>
      </trkpt>
      <trkpt lat="42.758218" lon="1.032713">
        <ele>1660.8</ele>
        <time>1970-01-01T09:19:00.000Z</time>
      </trkpt>
      <trkpt lat="42.758182" lon="1.032616">
        <ele>1660.2</ele>
        <time>1970-01-01T09:19:02.000Z</time>
      </trkpt>
      <trkpt lat="42.757963" lon="1.032684">
        <ele>1658.6</ele>
        <time>1970-01-01T09:19:06.000Z</time>
      </trkpt>
      <trkpt lat="42.757829" lon="1.032773">
        <ele>1656.8</ele>
        <time>1970-01-01T09:19:08.000Z</time>
      </trkpt>
      <trkpt lat="42.75768" lon="1.032802">
        <ele>1655.2</ele>
        <time>1970-01-01T09:19:10.000Z</time>
      </trkpt>
      <trkpt lat="42.757546" lon="1.032781">
        <ele>1653.8</ele>
        <time>1970-01-01T09:19:12.000Z</time>
      </trkpt>
      <trkpt lat="42.757435" lon="1.032654">
        <ele>1652.4</ele>
        <time>1970-01-01T09:19:15.000Z</time>
      </trkpt>
      <trkpt lat="42.757375" lon="1.032514">
        <ele>1651</ele>
        <time>1970-01-01T09:19:18.000Z</time>
      </trkpt>
      <trkpt lat="42.757343" lon="1.032418">
        <ele>1650.6</ele>
        <time>1970-01-01T09:19:20.000Z</time>
      </trkpt>
      <trkpt lat="42.757312" lon="1.032265">
        <ele>1650</ele>
        <time>1970-01-01T09:19:23.000Z</time>
      </trkpt>
      <trkpt lat="42.757301" lon="1.032152">
        <ele>1649.8</ele>
        <time>1970-01-01T09:19:25.000Z</time>
      </trkpt>
      <trkpt lat="42.757244" lon="1.031833">
        <ele>1648.8</ele>
        <time>1970-01-01T09:19:30.000Z</time>
      </trkpt>
      <trkpt lat="42.757238" lon="1.031698">
        <ele>1648.2</ele>
        <time>1970-01-01T09:19:32.000Z</time>
      </trkpt>
      <trkpt lat="42.757232" lon="1.031566">
        <ele>1647.8</ele>
        <time>1970-01-01T09:19:34.000Z</time>
      </trkpt>
      <trkpt lat="42.757201" lon="1.03137">
        <ele>1646.8</ele>
        <time>1970-01-01T09:19:37.000Z</time>
      </trkpt>
      <trkpt lat="42.757179" lon="1.031325">
        <ele>1646.4</ele>
        <time>1970-01-01T09:19:38.000Z</time>
      </trkpt>
      <trkpt lat="42.757143" lon="1.031284">
        <ele>1645.4</ele>
        <time>1970-01-01T09:19:42.000Z</time>
      </trkpt>
      <trkpt lat="42.757076" lon="1.031077">
        <ele>1645</ele>
        <time>1970-01-01T09:20:05.000Z</time>
      </trkpt>
      <trkpt lat="42.757063" lon="1.030752">
        <ele>1644</ele>
        <time>1970-01-01T09:20:18.000Z</time>
      </trkpt>
      <trkpt lat="42.75705" lon="1.030736">
        <ele>1643.8</ele>
        <time>1970-01-01T09:20:19.000Z</time>
      </trkpt>
      <trkpt lat="42.756996" lon="1.030668">
        <ele>1642.8</ele>
        <time>1970-01-01T09:20:22.000Z</time>
      </trkpt>
      <trkpt lat="42.756957" lon="1.030641">
        <ele>1641.6</ele>
        <time>1970-01-01T09:20:26.000Z</time>
      </trkpt>
      <trkpt lat="42.75696" lon="1.030638">
        <ele>1641.6</ele>
        <time>1970-01-01T09:20:27.000Z</time>
      </trkpt>
      <trkpt lat="42.75693" lon="1.030596">
        <ele>1641.4</ele>
        <time>1970-01-01T09:20:32.000Z</time>
      </trkpt>
      <trkpt lat="42.756893" lon="1.030461">
        <ele>1641.6</ele>
        <time>1970-01-01T09:20:37.000Z</time>
      </trkpt>
      <trkpt lat="42.756894" lon="1.030422">
        <ele>1641.4</ele>
        <time>1970-01-01T09:20:38.000Z</time>
      </trkpt>
      <trkpt lat="42.756899" lon="1.03023">
        <ele>1640.6</ele>
        <time>1970-01-01T09:20:42.000Z</time>
      </trkpt>
      <trkpt lat="42.756981" lon="1.029955">
        <ele>1639.8</ele>
        <time>1970-01-01T09:20:47.000Z</time>
      </trkpt>
      <trkpt lat="42.757042" lon="1.029215">
        <ele>1640.2</ele>
        <time>1970-01-01T09:21:04.000Z</time>
      </trkpt>
      <trkpt lat="42.757071" lon="1.028467">
        <ele>1641.6</ele>
        <time>1970-01-01T09:21:22.000Z</time>
      </trkpt>
      <trkpt lat="42.75713" lon="1.027848">
        <ele>1642.6</ele>
        <time>1970-01-01T09:21:36.000Z</time>
      </trkpt>
      <trkpt lat="42.757172" lon="1.027514">
        <ele>1643.8</ele>
        <time>1970-01-01T09:21:44.000Z</time>
      </trkpt>
      <trkpt lat="42.75722" lon="1.027229">
        <ele>1645</ele>
        <time>1970-01-01T09:21:51.000Z</time>
      </trkpt>
      <trkpt lat="42.757209" lon="1.026951">
        <ele>1644.4</ele>
        <time>1970-01-01T09:22:01.000Z</time>
      </trkpt>
      <trkpt lat="42.757223" lon="1.026876">
        <ele>1644.6</ele>
        <time>1970-01-01T09:22:05.000Z</time>
      </trkpt>
      <trkpt lat="42.75724" lon="1.026723">
        <ele>1644.6</ele>
        <time>1970-01-01T09:22:09.000Z</time>
      </trkpt>
      <trkpt lat="42.75723" lon="1.026501">
        <ele>1646</ele>
        <time>1970-01-01T09:22:16.000Z</time>
      </trkpt>
      <trkpt lat="42.757249" lon="1.026104">
        <ele>1647.2</ele>
        <time>1970-01-01T09:22:29.000Z</time>
      </trkpt>
      <trkpt lat="42.757314" lon="1.025904">
        <ele>1648.4</ele>
        <time>1970-01-01T09:22:37.000Z</time>
      </trkpt>
      <trkpt lat="42.757342" lon="1.025814">
        <ele>1649.6</ele>
        <time>1970-01-01T09:22:41.000Z</time>
      </trkpt>
      <trkpt lat="42.75737" lon="1.025714">
        <ele>1650.6</ele>
        <time>1970-01-01T09:22:46.000Z</time>
      </trkpt>
      <trkpt lat="42.757387" lon="1.025617">
        <ele>1651.8</ele>
        <time>1970-01-01T09:22:50.000Z</time>
      </trkpt>
      <trkpt lat="42.75742" lon="1.02538">
        <ele>1652.4</ele>
        <time>1970-01-01T09:22:58.000Z</time>
      </trkpt>
      <trkpt lat="42.757449" lon="1.025293">
        <ele>1652.2</ele>
        <time>1970-01-01T09:23:02.000Z</time>
      </trkpt>
      <trkpt lat="42.757521" lon="1.025109">
        <ele>1652.8</ele>
        <time>1970-01-01T09:23:10.000Z</time>
      </trkpt>
      <trkpt lat="42.757588" lon="1.024915">
        <ele>1654</ele>
        <time>1970-01-01T09:23:19.000Z</time>
      </trkpt>
      <trkpt lat="42.757859" lon="1.024273">
        <ele>1653.8</ele>
        <time>1970-01-01T09:23:41.000Z</time>
      </trkpt>
      <trkpt lat="42.757885" lon="1.02412">
        <ele>1653.2</ele>
        <time>1970-01-01T09:23:45.000Z</time>
      </trkpt>
      <trkpt lat="42.757885" lon="1.024078">
        <ele>1652.8</ele>
        <time>1970-01-01T09:23:46.000Z</time>
      </trkpt>
      <trkpt lat="42.757898" lon="1.023975">
        <ele>1651.8</ele>
        <time>1970-01-01T09:23:48.000Z</time>
      </trkpt>
      <trkpt lat="42.757908" lon="1.023918">
        <ele>1651.4</ele>
        <time>1970-01-01T09:23:49.000Z</time>
      </trkpt>
      <trkpt lat="42.757933" lon="1.023808">
        <ele>1650.8</ele>
        <time>1970-01-01T09:23:51.000Z</time>
      </trkpt>
      <trkpt lat="42.758072" lon="1.023379">
        <ele>1651.6</ele>
        <time>1970-01-01T09:24:02.000Z</time>
      </trkpt>
      <trkpt lat="42.758334" lon="1.022695">
        <ele>1651.4</ele>
        <time>1970-01-01T09:24:19.000Z</time>
      </trkpt>
      <trkpt lat="42.758475" lon="1.022336">
        <ele>1650.6</ele>
        <time>1970-01-01T09:24:27.000Z</time>
      </trkpt>
      <trkpt lat="42.75849" lon="1.02228">
        <ele>1650</ele>
        <time>1970-01-01T09:24:28.000Z</time>
      </trkpt>
      <trkpt lat="42.75862" lon="1.021915">
        <ele>1651.6</ele>
        <time>1970-01-01T09:24:36.000Z</time>
      </trkpt>
      <trkpt lat="42.758827" lon="1.021499">
        <ele>1651.6</ele>
        <time>1970-01-01T09:24:46.000Z</time>
      </trkpt>
      <trkpt lat="42.75894" lon="1.02122">
        <ele>1651.6</ele>
        <time>1970-01-01T09:24:52.000Z</time>
      </trkpt>
      <trkpt lat="42.759001" lon="1.021071">
        <ele>1650.2</ele>
        <time>1970-01-01T09:24:55.000Z</time>
      </trkpt>
      <trkpt lat="42.759031" lon="1.02103">
        <ele>1649.6</ele>
        <time>1970-01-01T09:24:56.000Z</time>
      </trkpt>
      <trkpt lat="42.759061" lon="1.020981">
        <ele>1648.8</ele>
        <time>1970-01-01T09:24:57.000Z</time>
      </trkpt>
      <trkpt lat="42.75912" lon="1.020882">
        <ele>1647.4</ele>
        <time>1970-01-01T09:24:59.000Z</time>
      </trkpt>
      <trkpt lat="42.759282" lon="1.020607">
        <ele>1647</ele>
        <time>1970-01-01T09:25:04.000Z</time>
      </trkpt>
      <trkpt lat="42.759467" lon="1.02015">
        <ele>1646.6</ele>
        <time>1970-01-01T09:25:13.000Z</time>
      </trkpt>
      <trkpt lat="42.759484" lon="1.020098">
        <ele>1646.4</ele>
        <time>1970-01-01T09:25:14.000Z</time>
      </trkpt>
      <trkpt lat="42.759564" lon="1.019723">
        <ele>1647.6</ele>
        <time>1970-01-01T09:25:22.000Z</time>
      </trkpt>
      <trkpt lat="42.759779" lon="1.018998">
        <ele>1647.2</ele>
        <time>1970-01-01T09:25:38.000Z</time>
      </trkpt>
      <trkpt lat="42.759815" lon="1.01879">
        <ele>1646.4</ele>
        <time>1970-01-01T09:25:42.000Z</time>
      </trkpt>
      <trkpt lat="42.759886" lon="1.018031">
        <ele>1647.2</ele>
        <time>1970-01-01T09:25:58.000Z</time>
      </trkpt>
      <trkpt lat="42.759878" lon="1.017468">
        <ele>1647.4</ele>
        <time>1970-01-01T09:26:10.000Z</time>
      </trkpt>
      <trkpt lat="42.75995" lon="1.017284">
        <ele>1648.4</ele>
        <time>1970-01-01T09:26:16.000Z</time>
      </trkpt>
      <trkpt lat="42.760021" lon="1.016969">
        <ele>1649.6</ele>
        <time>1970-01-01T09:26:25.000Z</time>
      </trkpt>
      <trkpt lat="42.760098" lon="1.016733">
        <ele>1650.6</ele>
        <time>1970-01-01T09:26:34.000Z</time>
      </trkpt>
      <trkpt lat="42.760166" lon="1.016492">
        <ele>1651.6</ele>
        <time>1970-01-01T09:26:42.000Z</time>
      </trkpt>
      <trkpt lat="42.760198" lon="1.016152">
        <ele>1652.6</ele>
        <time>1970-01-01T09:26:52.000Z</time>
      </trkpt>
      <trkpt lat="42.760159" lon="1.015559">
        <ele>1653.8</ele>
        <time>1970-01-01T09:27:08.000Z</time>
      </trkpt>
      <trkpt lat="42.760146" lon="1.015512">
        <ele>1653.8</ele>
        <time>1970-01-01T09:27:11.000Z</time>
      </trkpt>
      <trkpt lat="42.760145" lon="1.015481">
        <ele>1654</ele>
        <time>1970-01-01T09:28:13.000Z</time>
      </trkpt>
      <trkpt lat="42.760139" lon="1.01544">
        <ele>1653.8</ele>
        <time>1970-01-01T09:28:17.000Z</time>
      </trkpt>
      <trkpt lat="42.760131" lon="1.015363">
        <ele>1653.4</ele>
        <time>1970-01-01T09:30:35.000Z</time>
      </trkpt>
      <trkpt lat="42.760102" lon="1.01488">
        <ele>1653.6</ele>
        <time>1970-01-01T09:30:48.000Z</time>
      </trkpt>
      <trkpt lat="42.76008" lon="1.014648">
        <ele>1654.2</ele>
        <time>1970-01-01T09:30:54.000Z</time>
      </trkpt>
      <trkpt lat="42.760049" lon="1.014505">
        <ele>1655.4</ele>
        <time>1970-01-01T09:30:58.000Z</time>
      </trkpt>
      <trkpt lat="42.760042" lon="1.014314">
        <ele>1656.4</ele>
        <time>1970-01-01T09:31:04.000Z</time>
      </trkpt>
      <trkpt lat="42.760037" lon="1.013558">
        <ele>1657</ele>
        <time>1970-01-01T09:31:21.000Z</time>
      </trkpt>
      <trkpt lat="42.760046" lon="1.013246">
        <ele>1657.4</ele>
        <time>1970-01-01T09:31:28.000Z</time>
      </trkpt>
      <trkpt lat="42.760063" lon="1.013066">
        <ele>1658.4</ele>
        <time>1970-01-01T09:31:33.000Z</time>
      </trkpt>
      <trkpt lat="42.760061" lon="1.012971">
        <ele>1659.4</ele>
        <time>1970-01-01T09:31:36.000Z</time>
      </trkpt>
      <trkpt lat="42.760085" lon="1.012352">
        <ele>1660.6</ele>
        <time>1970-01-01T09:31:50.000Z</time>
      </trkpt>
      <trkpt lat="42.760073" lon="1.01211">
        <ele>1661.8</ele>
        <time>1970-01-01T09:31:57.000Z</time>
      </trkpt>
      <trkpt lat="42.759825" lon="1.011607">
        <ele>1662.8</ele>
        <time>1970-01-01T09:32:12.000Z</time>
      </trkpt>
      <trkpt lat="42.759795" lon="1.011503">
        <ele>1664</ele>
        <time>1970-01-01T09:32:15.000Z</time>
      </trkpt>
      <trkpt lat="42.759804" lon="1.011064">
        <ele>1665</ele>
        <time>1970-01-01T09:32:26.000Z</time>
      </trkpt>
      <trkpt lat="42.759844" lon="1.010728">
        <ele>1666.4</ele>
        <time>1970-01-01T09:32:35.000Z</time>
      </trkpt>
      <trkpt lat="42.759839" lon="1.010601">
        <ele>1667.6</ele>
        <time>1970-01-01T09:32:39.000Z</time>
      </trkpt>
      <trkpt lat="42.759878" lon="1.009866">
        <ele>1667.2</ele>
        <time>1970-01-01T09:32:57.000Z</time>
      </trkpt>
      <trkpt lat="42.759913" lon="1.009738">
        <ele>1668.4</ele>
        <time>1970-01-01T09:33:02.000Z</time>
      </trkpt>
      <trkpt lat="42.759926" lon="1.009674">
        <ele>1669.2</ele>
        <time>1970-01-01T09:33:05.000Z</time>
      </trkpt>
      <trkpt lat="42.759925" lon="1.00965">
        <ele>1669.4</ele>
        <time>1970-01-01T09:33:06.000Z</time>
      </trkpt>
      <trkpt lat="42.75996" lon="1.009103">
        <ele>1670.6</ele>
        <time>1970-01-01T09:33:24.000Z</time>
      </trkpt>
      <trkpt lat="42.759969" lon="1.008994">
        <ele>1671.6</ele>
        <time>1970-01-01T09:33:28.000Z</time>
      </trkpt>
      <trkpt lat="42.759988" lon="1.008719">
        <ele>1673</ele>
        <time>1970-01-01T09:33:38.000Z</time>
      </trkpt>
      <trkpt lat="42.75999" lon="1.008491">
        <ele>1674</ele>
        <time>1970-01-01T09:33:47.000Z</time>
      </trkpt>
      <trkpt lat="42.759974" lon="1.00836">
        <ele>1675.2</ele>
        <time>1970-01-01T09:33:53.000Z</time>
      </trkpt>
      <trkpt lat="42.76" lon="1.008072">
        <ele>1676</ele>
        <time>1970-01-01T09:34:04.000Z</time>
      </trkpt>
      <trkpt lat="42.759969" lon="1.007964">
        <ele>1676.4</ele>
        <time>1970-01-01T09:34:09.000Z</time>
      </trkpt>
      <trkpt lat="42.759961" lon="1.007858">
        <ele>1677.4</ele>
        <time>1970-01-01T09:34:14.000Z</time>
      </trkpt>
      <trkpt lat="42.760004" lon="1.007579">
        <ele>1678.6</ele>
        <time>1970-01-01T09:34:26.000Z</time>
      </trkpt>
      <trkpt lat="42.760014" lon="1.007454">
        <ele>1679.6</ele>
        <time>1970-01-01T09:34:31.000Z</time>
      </trkpt>
      <trkpt lat="42.760017" lon="1.007332">
        <ele>1680.6</ele>
        <time>1970-01-01T09:34:36.000Z</time>
      </trkpt>
      <trkpt lat="42.760025" lon="1.007187">
        <ele>1681.6</ele>
        <time>1970-01-01T09:34:42.000Z</time>
      </trkpt>
      <trkpt lat="42.760031" lon="1.007069">
        <ele>1682.8</ele>
        <time>1970-01-01T09:34:47.000Z</time>
      </trkpt>
      <trkpt lat="42.760027" lon="1.006908">
        <ele>1683.8</ele>
        <time>1970-01-01T09:34:53.000Z</time>
      </trkpt>
      <trkpt lat="42.76001" lon="1.006766">
        <ele>1685</ele>
        <time>1970-01-01T09:34:59.000Z</time>
      </trkpt>
      <trkpt lat="42.76" lon="1.00661">
        <ele>1686.2</ele>
        <time>1970-01-01T09:35:06.000Z</time>
      </trkpt>
      <trkpt lat="42.759999" lon="1.006605">
        <ele>1686.2</ele>
        <time>1970-01-01T09:35:07.000Z</time>
      </trkpt>
      <trkpt lat="42.759999" lon="1.006539">
        <ele>1686.2</ele>
        <time>1970-01-01T09:35:33.000Z</time>
      </trkpt>
      <trkpt lat="42.759965" lon="1.006393">
        <ele>1687</ele>
        <time>1970-01-01T09:35:39.000Z</time>
      </trkpt>
      <trkpt lat="42.759946" lon="1.006195">
        <ele>1688</ele>
        <time>1970-01-01T09:35:46.000Z</time>
      </trkpt>
      <trkpt lat="42.759919" lon="1.00595">
        <ele>1689.4</ele>
        <time>1970-01-01T09:35:54.000Z</time>
      </trkpt>
      <trkpt lat="42.759905" lon="1.005801">
        <ele>1690.4</ele>
        <time>1970-01-01T09:35:59.000Z</time>
      </trkpt>
      <trkpt lat="42.759902" lon="1.005668">
        <ele>1691.6</ele>
        <time>1970-01-01T09:36:04.000Z</time>
      </trkpt>
      <trkpt lat="42.759902" lon="1.005651">
        <ele>1692</ele>
        <time>1970-01-01T09:36:06.000Z</time>
      </trkpt>
      <trkpt lat="42.759887" lon="1.005725">
        <ele>1691.8</ele>
        <time>1970-01-01T09:36:13.000Z</time>
      </trkpt>
      <trkpt lat="42.759886" lon="1.005927">
        <ele>1690.4</ele>
        <time>1970-01-01T09:36:17.000Z</time>
      </trkpt>
      <trkpt lat="42.759895" lon="1.006107">
        <ele>1689.6</ele>
        <time>1970-01-01T09:36:20.000Z</time>
      </trkpt>
      <trkpt lat="42.759906" lon="1.006173">
        <ele>1689.4</ele>
        <time>1970-01-01T09:36:21.000Z</time>
      </trkpt>
      <trkpt lat="42.759909" lon="1.006245">
        <ele>1689</ele>
        <time>1970-01-01T09:36:22.000Z</time>
      </trkpt>
      <trkpt lat="42.759925" lon="1.006402">
        <ele>1687.8</ele>
        <time>1970-01-01T09:36:24.000Z</time>
      </trkpt>
      <trkpt lat="42.759938" lon="1.00666">
        <ele>1686.2</ele>
        <time>1970-01-01T09:36:27.000Z</time>
      </trkpt>
      <trkpt lat="42.759946" lon="1.006871">
        <ele>1684.8</ele>
        <time>1970-01-01T09:36:30.000Z</time>
      </trkpt>
      <trkpt lat="42.759954" lon="1.007079">
        <ele>1683.2</ele>
        <time>1970-01-01T09:36:33.000Z</time>
      </trkpt>
      <trkpt lat="42.759966" lon="1.007302">
        <ele>1681.8</ele>
        <time>1970-01-01T09:36:36.000Z</time>
      </trkpt>
      <trkpt lat="42.759973" lon="1.007379">
        <ele>1681</ele>
        <time>1970-01-01T09:36:37.000Z</time>
      </trkpt>
      <trkpt lat="42.759974" lon="1.007454">
        <ele>1680.4</ele>
        <time>1970-01-01T09:36:38.000Z</time>
      </trkpt>
      <trkpt lat="42.759972" lon="1.007591">
        <ele>1679.2</ele>
        <time>1970-01-01T09:36:40.000Z</time>
      </trkpt>
      <trkpt lat="42.75996" lon="1.007739">
        <ele>1678</ele>
        <time>1970-01-01T09:36:43.000Z</time>
      </trkpt>
      <trkpt lat="42.759955" lon="1.007782">
        <ele>1677.6</ele>
        <time>1970-01-01T09:36:46.000Z</time>
      </trkpt>
      <trkpt lat="42.75994" lon="1.007827">
        <ele>1677</ele>
        <time>1970-01-01T09:37:37.000Z</time>
      </trkpt>
      <trkpt lat="42.759917" lon="1.007988">
        <ele>1676.6</ele>
        <time>1970-01-01T09:37:41.000Z</time>
      </trkpt>
      <trkpt lat="42.759923" lon="1.008023">
        <ele>1676.4</ele>
        <time>1970-01-01T09:37:42.000Z</time>
      </trkpt>
      <trkpt lat="42.759984" lon="1.008008">
        <ele>1675.6</ele>
        <time>1970-01-01T09:37:45.000Z</time>
      </trkpt>
      <trkpt lat="42.759998" lon="1.007926">
        <ele>1675.2</ele>
        <time>1970-01-01T09:37:47.000Z</time>
      </trkpt>
      <trkpt lat="42.760155" lon="1.007183">
        <ele>1675.6</ele>
        <time>1970-01-01T09:38:02.000Z</time>
      </trkpt>
      <trkpt lat="42.760208" lon="1.006409">
        <ele>1675.8</ele>
        <time>1970-01-01T09:38:16.000Z</time>
      </trkpt>
      <trkpt lat="42.760224" lon="1.006265">
        <ele>1675.4</ele>
        <time>1970-01-01T09:38:18.000Z</time>
      </trkpt>
      <trkpt lat="42.760317" lon="1.005504">
        <ele>1675.2</ele>
        <time>1970-01-01T09:38:30.000Z</time>
      </trkpt>
      <trkpt lat="42.760307" lon="1.005312">
        <ele>1676.6</ele>
        <time>1970-01-01T09:38:34.000Z</time>
      </trkpt>
      <trkpt lat="42.760311" lon="1.00518">
        <ele>1677.8</ele>
        <time>1970-01-01T09:38:37.000Z</time>
      </trkpt>
      <trkpt lat="42.760342" lon="1.004963">
        <ele>1678.8</ele>
        <time>1970-01-01T09:38:43.000Z</time>
      </trkpt>
      <trkpt lat="42.76036" lon="1.004701">
        <ele>1679.8</ele>
        <time>1970-01-01T09:38:51.000Z</time>
      </trkpt>
      <trkpt lat="42.760376" lon="1.004068">
        <ele>1678.6</ele>
        <time>1970-01-01T09:39:06.000Z</time>
      </trkpt>
      <trkpt lat="42.760381" lon="1.003926">
        <ele>1678.2</ele>
        <time>1970-01-01T09:39:08.000Z</time>
      </trkpt>
      <trkpt lat="42.760481" lon="1.003713">
        <ele>1677.8</ele>
        <time>1970-01-01T09:39:12.000Z</time>
      </trkpt>
      <trkpt lat="42.760592" lon="1.003607">
        <ele>1679.8</ele>
        <time>1970-01-01T09:39:18.000Z</time>
      </trkpt>
      <trkpt lat="42.760631" lon="1.003563">
        <ele>1681</ele>
        <time>1970-01-01T09:39:21.000Z</time>
      </trkpt>
      <trkpt lat="42.760676" lon="1.003496">
        <ele>1682</ele>
        <time>1970-01-01T09:39:25.000Z</time>
      </trkpt>
      <trkpt lat="42.760716" lon="1.003445">
        <ele>1683.4</ele>
        <time>1970-01-01T09:39:28.000Z</time>
      </trkpt>
      <trkpt lat="42.760726" lon="1.003427">
        <ele>1683.8</ele>
        <time>1970-01-01T09:39:29.000Z</time>
      </trkpt>
      <trkpt lat="42.76074" lon="1.003341">
        <ele>1684.6</ele>
        <time>1970-01-01T09:39:32.000Z</time>
      </trkpt>
      <trkpt lat="42.76072" lon="1.002924">
        <ele>1685.6</ele>
        <time>1970-01-01T09:39:46.000Z</time>
      </trkpt>
      <trkpt lat="42.760753" lon="1.002635">
        <ele>1687</ele>
        <time>1970-01-01T09:39:56.000Z</time>
      </trkpt>
      <trkpt lat="42.760784" lon="1.002103">
        <ele>1687.6</ele>
        <time>1970-01-01T09:40:17.000Z</time>
      </trkpt>
      <trkpt lat="42.760753" lon="1.002035">
        <ele>1688</ele>
        <time>1970-01-01T09:40:20.000Z</time>
      </trkpt>
      <trkpt lat="42.760625" lon="1.001667">
        <ele>1689</ele>
        <time>1970-01-01T09:40:33.000Z</time>
      </trkpt>
      <trkpt lat="42.760591" lon="1.001561">
        <ele>1690.2</ele>
        <time>1970-01-01T09:40:37.000Z</time>
      </trkpt>
      <trkpt lat="42.760544" lon="1.001405">
        <ele>1691.4</ele>
        <time>1970-01-01T09:40:43.000Z</time>
      </trkpt>
      <trkpt lat="42.760486" lon="1.001169">
        <ele>1692.4</ele>
        <time>1970-01-01T09:40:51.000Z</time>
      </trkpt>
      <trkpt lat="42.760446" lon="1.000954">
        <ele>1693.4</ele>
        <time>1970-01-01T09:40:57.000Z</time>
      </trkpt>
      <trkpt lat="42.760415" lon="1.000697">
        <ele>1694.6</ele>
        <time>1970-01-01T09:41:04.000Z</time>
      </trkpt>
      <trkpt lat="42.760389" lon="1.000463">
        <ele>1695.8</ele>
        <time>1970-01-01T09:41:11.000Z</time>
      </trkpt>
      <trkpt lat="42.760386" lon="1.000316">
        <ele>1696.8</ele>
        <time>1970-01-01T09:41:15.000Z</time>
      </trkpt>
      <trkpt lat="42.760374" lon="1.000123">
        <ele>1697.8</ele>
        <time>1970-01-01T09:41:20.000Z</time>
      </trkpt>
      <trkpt lat="42.760274" lon="0.99984">
        <ele>1698.8</ele>
        <time>1970-01-01T09:41:28.000Z</time>
      </trkpt>
      <trkpt lat="42.760167" lon="0.999543">
        <ele>1700</ele>
        <time>1970-01-01T09:41:36.000Z</time>
      </trkpt>
      <trkpt lat="42.760108" lon="0.999416">
        <ele>1701</ele>
        <time>1970-01-01T09:41:40.000Z</time>
      </trkpt>
      <trkpt lat="42.760078" lon="0.999377">
        <ele>1701.6</ele>
        <time>1970-01-01T09:41:42.000Z</time>
      </trkpt>
      <trkpt lat="42.760058" lon="0.999385">
        <ele>1702.2</ele>
        <time>1970-01-01T09:41:45.000Z</time>
      </trkpt>
      <trkpt lat="42.760022" lon="0.999329">
        <ele>1702.4</ele>
        <time>1970-01-01T09:42:28.000Z</time>
      </trkpt>
      <trkpt lat="42.759721" lon="0.998672">
        <ele>1702</ele>
        <time>1970-01-01T09:42:45.000Z</time>
      </trkpt>
      <trkpt lat="42.759567" lon="0.998185">
        <ele>1701.6</ele>
        <time>1970-01-01T09:42:58.000Z</time>
      </trkpt>
      <trkpt lat="42.759567" lon="0.99814">
        <ele>1701.4</ele>
        <time>1970-01-01T09:43:18.000Z</time>
      </trkpt>
      <trkpt lat="42.759527" lon="0.997776">
        <ele>1700.6</ele>
        <time>1970-01-01T09:43:27.000Z</time>
      </trkpt>
      <trkpt lat="42.759478" lon="0.997498">
        <ele>1699.4</ele>
        <time>1970-01-01T09:43:31.000Z</time>
      </trkpt>
      <trkpt lat="42.759419" lon="0.997035">
        <ele>1698.4</ele>
        <time>1970-01-01T09:43:38.000Z</time>
      </trkpt>
      <trkpt lat="42.759308" lon="0.996286">
        <ele>1698.2</ele>
        <time>1970-01-01T09:43:51.000Z</time>
      </trkpt>
      <trkpt lat="42.759295" lon="0.996169">
        <ele>1698</ele>
        <time>1970-01-01T09:43:53.000Z</time>
      </trkpt>
      <trkpt lat="42.759277" lon="0.995891">
        <ele>1697.2</ele>
        <time>1970-01-01T09:43:58.000Z</time>
      </trkpt>
      <trkpt lat="42.759244" lon="0.99559">
        <ele>1697</ele>
        <time>1970-01-01T09:44:03.000Z</time>
      </trkpt>
      <trkpt lat="42.759214" lon="0.99547">
        <ele>1696.6</ele>
        <time>1970-01-01T09:44:05.000Z</time>
      </trkpt>
      <trkpt lat="42.758947" lon="0.994873">
        <ele>1696.8</ele>
        <time>1970-01-01T09:44:25.000Z</time>
      </trkpt>
      <trkpt lat="42.758957" lon="0.994822">
        <ele>1697.2</ele>
        <time>1970-01-01T09:45:21.000Z</time>
      </trkpt>
      <trkpt lat="42.758962" lon="0.994815">
        <ele>1697.4</ele>
        <time>1970-01-01T09:45:24.000Z</time>
      </trkpt>
      <trkpt lat="42.758977" lon="0.994784">
        <ele>1697.6</ele>
        <time>1970-01-01T09:47:56.000Z</time>
      </trkpt>
      <trkpt lat="42.759135" lon="0.994652">
        <ele>1697.8</ele>
        <time>1970-01-01T09:48:11.000Z</time>
      </trkpt>
      <trkpt lat="42.759102" lon="0.994522">
        <ele>1697.8</ele>
        <time>1970-01-01T09:49:12.000Z</time>
      </trkpt>
      <trkpt lat="42.759012" lon="0.994308">
        <ele>1697.6</ele>
        <time>1970-01-01T09:49:18.000Z</time>
      </trkpt>
      <trkpt lat="42.75897" lon="0.994108">
        <ele>1698.6</ele>
        <time>1970-01-01T09:49:26.000Z</time>
      </trkpt>
      <trkpt lat="42.758958" lon="0.994046">
        <ele>1698.8</ele>
        <time>1970-01-01T09:49:28.000Z</time>
      </trkpt>
      <trkpt lat="42.758894" lon="0.993283">
        <ele>1699.4</ele>
        <time>1970-01-01T09:49:48.000Z</time>
      </trkpt>
      <trkpt lat="42.758891" lon="0.993202">
        <ele>1699.8</ele>
        <time>1970-01-01T09:49:50.000Z</time>
      </trkpt>
      <trkpt lat="42.758809" lon="0.992738">
        <ele>1700.8</ele>
        <time>1970-01-01T09:50:03.000Z</time>
      </trkpt>
      <trkpt lat="42.758692" lon="0.992313">
        <ele>1700.8</ele>
        <time>1970-01-01T09:50:19.000Z</time>
      </trkpt>
      <trkpt lat="42.758685" lon="0.992295">
        <ele>1700.2</ele>
        <time>1970-01-01T09:51:22.000Z</time>
      </trkpt>
      <trkpt lat="42.758592" lon="0.992022">
        <ele>1702.2</ele>
        <time>1970-01-01T09:51:31.000Z</time>
      </trkpt>
      <trkpt lat="42.758561" lon="0.991866">
        <ele>1703.2</ele>
        <time>1970-01-01T09:51:36.000Z</time>
      </trkpt>
      <trkpt lat="42.758542" lon="0.991747">
        <ele>1704.4</ele>
        <time>1970-01-01T09:51:40.000Z</time>
      </trkpt>
      <trkpt lat="42.758515" lon="0.991527">
        <ele>1705.4</ele>
        <time>1970-01-01T09:51:48.000Z</time>
      </trkpt>
      <trkpt lat="42.758482" lon="0.990835">
        <ele>1706.6</ele>
        <time>1970-01-01T09:52:07.000Z</time>
      </trkpt>
      <trkpt lat="42.758498" lon="0.990612">
        <ele>1707.6</ele>
        <time>1970-01-01T09:52:15.000Z</time>
      </trkpt>
      <trkpt lat="42.758495" lon="0.99052">
        <ele>1709</ele>
        <time>1970-01-01T09:52:20.000Z</time>
      </trkpt>
      <trkpt lat="42.758485" lon="0.990459">
        <ele>1710.2</ele>
        <time>1970-01-01T09:52:23.000Z</time>
      </trkpt>
      <trkpt lat="42.75848" lon="0.990399">
        <ele>1711.2</ele>
        <time>1970-01-01T09:52:26.000Z</time>
      </trkpt>
      <trkpt lat="42.758474" lon="0.990334">
        <ele>1712.4</ele>
        <time>1970-01-01T09:52:29.000Z</time>
      </trkpt>
      <trkpt lat="42.758406" lon="0.990036">
        <ele>1713.2</ele>
        <time>1970-01-01T09:52:43.000Z</time>
      </trkpt>
      <trkpt lat="42.758268" lon="0.989333">
        <ele>1713.8</ele>
        <time>1970-01-01T09:53:09.000Z</time>
      </trkpt>
      <trkpt lat="42.758257" lon="0.989274">
        <ele>1714.2</ele>
        <time>1970-01-01T09:53:11.000Z</time>
      </trkpt>
      <trkpt lat="42.758174" lon="0.988971">
        <ele>1715.4</ele>
        <time>1970-01-01T09:53:21.000Z</time>
      </trkpt>
      <trkpt lat="42.758183" lon="0.988719">
        <ele>1716.4</ele>
        <time>1970-01-01T09:53:30.000Z</time>
      </trkpt>
      <trkpt lat="42.758256" lon="0.9886">
        <ele>1717.6</ele>
        <time>1970-01-01T09:53:36.000Z</time>
      </trkpt>
      <trkpt lat="42.758283" lon="0.988502">
        <ele>1718.6</ele>
        <time>1970-01-01T09:53:41.000Z</time>
      </trkpt>
      <trkpt lat="42.758278" lon="0.988389">
        <ele>1719.8</ele>
        <time>1970-01-01T09:53:46.000Z</time>
      </trkpt>
      <trkpt lat="42.758247" lon="0.988291">
        <ele>1720.8</ele>
        <time>1970-01-01T09:53:51.000Z</time>
      </trkpt>
      <trkpt lat="42.758203" lon="0.988125">
        <ele>1721.8</ele>
        <time>1970-01-01T09:54:00.000Z</time>
      </trkpt>
      <trkpt lat="42.758173" lon="0.987965">
        <ele>1723</ele>
        <time>1970-01-01T09:54:08.000Z</time>
      </trkpt>
      <trkpt lat="42.758135" lon="0.987787">
        <ele>1724</ele>
        <time>1970-01-01T09:54:17.000Z</time>
      </trkpt>
      <trkpt lat="42.758124" lon="0.987674">
        <ele>1724.8</ele>
        <time>1970-01-01T09:54:23.000Z</time>
      </trkpt>
      <trkpt lat="42.758113" lon="0.987559">
        <ele>1726</ele>
        <time>1970-01-01T09:54:29.000Z</time>
      </trkpt>
      <trkpt lat="42.758093" lon="0.987467">
        <ele>1727</ele>
        <time>1970-01-01T09:54:34.000Z</time>
      </trkpt>
      <trkpt lat="42.758051" lon="0.987303">
        <ele>1728.2</ele>
        <time>1970-01-01T09:54:43.000Z</time>
      </trkpt>
      <trkpt lat="42.758026" lon="0.987195">
        <ele>1729.2</ele>
        <time>1970-01-01T09:54:49.000Z</time>
      </trkpt>
      <trkpt lat="42.757987" lon="0.987058">
        <ele>1730.4</ele>
        <time>1970-01-01T09:54:57.000Z</time>
      </trkpt>
      <trkpt lat="42.757944" lon="0.986895">
        <ele>1731.6</ele>
        <time>1970-01-01T09:55:07.000Z</time>
      </trkpt>
      <trkpt lat="42.757894" lon="0.986742">
        <ele>1732.8</ele>
        <time>1970-01-01T09:55:16.000Z</time>
      </trkpt>
      <trkpt lat="42.757849" lon="0.98662">
        <ele>1733.8</ele>
        <time>1970-01-01T09:55:23.000Z</time>
      </trkpt>
      <trkpt lat="42.757792" lon="0.986503">
        <ele>1734.8</ele>
        <time>1970-01-01T09:55:31.000Z</time>
      </trkpt>
      <trkpt lat="42.757737" lon="0.986389">
        <ele>1736</ele>
        <time>1970-01-01T09:55:39.000Z</time>
      </trkpt>
      <trkpt lat="42.757636" lon="0.986292">
        <ele>1737</ele>
        <time>1970-01-01T09:55:49.000Z</time>
      </trkpt>
      <trkpt lat="42.757576" lon="0.986273">
        <ele>1738.2</ele>
        <time>1970-01-01T09:55:54.000Z</time>
      </trkpt>
      <trkpt lat="42.757537" lon="0.986264">
        <ele>1738.6</ele>
        <time>1970-01-01T09:55:57.000Z</time>
      </trkpt>
      <trkpt lat="42.757471" lon="0.986262">
        <ele>1739.6</ele>
        <time>1970-01-01T09:56:02.000Z</time>
      </trkpt>
      <trkpt lat="42.757368" lon="0.986267">
        <ele>1740.6</ele>
        <time>1970-01-01T09:56:10.000Z</time>
      </trkpt>
      <trkpt lat="42.757288" lon="0.986273">
        <ele>1741.8</ele>
        <time>1970-01-01T09:56:16.000Z</time>
      </trkpt>
      <trkpt lat="42.757211" lon="0.98627">
        <ele>1743</ele>
        <time>1970-01-01T09:56:22.000Z</time>
      </trkpt>
      <trkpt lat="42.757134" lon="0.986245">
        <ele>1744.2</ele>
        <time>1970-01-01T09:56:28.000Z</time>
      </trkpt>
      <trkpt lat="42.757061" lon="0.986189">
        <ele>1745.2</ele>
        <time>1970-01-01T09:56:35.000Z</time>
      </trkpt>
      <trkpt lat="42.756997" lon="0.986111">
        <ele>1746.4</ele>
        <time>1970-01-01T09:56:41.000Z</time>
      </trkpt>
      <trkpt lat="42.756879" lon="0.986053">
        <ele>1747.4</ele>
        <time>1970-01-01T09:56:49.000Z</time>
      </trkpt>
      <trkpt lat="42.756799" lon="0.986046">
        <ele>1748.6</ele>
        <time>1970-01-01T09:56:54.000Z</time>
      </trkpt>
      <trkpt lat="42.756724" lon="0.986069">
        <ele>1749.6</ele>
        <time>1970-01-01T09:56:59.000Z</time>
      </trkpt>
      <trkpt lat="42.756676" lon="0.986087">
        <ele>1750.6</ele>
        <time>1970-01-01T09:57:03.000Z</time>
      </trkpt>
      <trkpt lat="42.756605" lon="0.986132">
        <ele>1751.8</ele>
        <time>1970-01-01T09:57:08.000Z</time>
      </trkpt>
      <trkpt lat="42.756196" lon="0.986194">
        <ele>1752.6</ele>
        <time>1970-01-01T09:57:30.000Z</time>
      </trkpt>
      <trkpt lat="42.756016" lon="0.986246">
        <ele>1753.6</ele>
        <time>1970-01-01T09:57:40.000Z</time>
      </trkpt>
      <trkpt lat="42.755918" lon="0.986281">
        <ele>1754.6</ele>
        <time>1970-01-01T09:57:46.000Z</time>
      </trkpt>
      <trkpt lat="42.755836" lon="0.986314">
        <ele>1755.6</ele>
        <time>1970-01-01T09:57:51.000Z</time>
      </trkpt>
      <trkpt lat="42.755738" lon="0.986347">
        <ele>1756.8</ele>
        <time>1970-01-01T09:57:57.000Z</time>
      </trkpt>
      <trkpt lat="42.755662" lon="0.986352">
        <ele>1757.8</ele>
        <time>1970-01-01T09:58:02.000Z</time>
      </trkpt>
      <trkpt lat="42.755608" lon="0.986366">
        <ele>1759</ele>
        <time>1970-01-01T09:58:06.000Z</time>
      </trkpt>
      <trkpt lat="42.755543" lon="0.986407">
        <ele>1760</ele>
        <time>1970-01-01T09:58:11.000Z</time>
      </trkpt>
      <trkpt lat="42.755488" lon="0.986451">
        <ele>1761</ele>
        <time>1970-01-01T09:58:16.000Z</time>
      </trkpt>
      <trkpt lat="42.755432" lon="0.986491">
        <ele>1762.4</ele>
        <time>1970-01-01T09:58:21.000Z</time>
      </trkpt>
      <trkpt lat="42.755402" lon="0.986525">
        <ele>1763.2</ele>
        <time>1970-01-01T09:58:24.000Z</time>
      </trkpt>
      <trkpt lat="42.75535" lon="0.986567">
        <ele>1764.6</ele>
        <time>1970-01-01T09:58:29.000Z</time>
      </trkpt>
      <trkpt lat="42.755172" lon="0.986454">
        <ele>1765.6</ele>
        <time>1970-01-01T09:58:41.000Z</time>
      </trkpt>
      <trkpt lat="42.755056" lon="0.986368">
        <ele>1766.6</ele>
        <time>1970-01-01T09:58:49.000Z</time>
      </trkpt>
      <trkpt lat="42.754616" lon="0.985887">
        <ele>1766.6</ele>
        <time>1970-01-01T09:59:14.000Z</time>
      </trkpt>
      <trkpt lat="42.754525" lon="0.985647">
        <ele>1765.4</ele>
        <time>1970-01-01T09:59:20.000Z</time>
      </trkpt>
      <trkpt lat="42.75443" lon="0.985285">
        <ele>1764.2</ele>
        <time>1970-01-01T09:59:27.000Z</time>
      </trkpt>
      <trkpt lat="42.754241" lon="0.984665">
        <ele>1763</ele>
        <time>1970-01-01T09:59:40.000Z</time>
      </trkpt>
      <trkpt lat="42.75414" lon="0.984271">
        <ele>1762.2</ele>
        <time>1970-01-01T09:59:48.000Z</time>
      </trkpt>
      <trkpt lat="42.75386" lon="0.983613">
        <ele>1761.4</ele>
        <time>1970-01-01T10:00:04.000Z</time>
      </trkpt>
      <trkpt lat="42.753724" lon="0.983173">
        <ele>1761</ele>
        <time>1970-01-01T10:00:15.000Z</time>
      </trkpt>
      <trkpt lat="42.753548" lon="0.982906">
        <ele>1759.8</ele>
        <time>1970-01-01T10:00:21.000Z</time>
      </trkpt>
      <trkpt lat="42.75351" lon="0.982855">
        <ele>1759.4</ele>
        <time>1970-01-01T10:00:22.000Z</time>
      </trkpt>
      <trkpt lat="42.753416" lon="0.982763">
        <ele>1758.8</ele>
        <time>1970-01-01T10:00:24.000Z</time>
      </trkpt>
      <trkpt lat="42.753353" lon="0.982719">
        <ele>1758.2</ele>
        <time>1970-01-01T10:00:25.000Z</time>
      </trkpt>
      <trkpt lat="42.753238" lon="0.98263">
        <ele>1756.8</ele>
        <time>1970-01-01T10:00:27.000Z</time>
      </trkpt>
      <trkpt lat="42.753201" lon="0.982369">
        <ele>1755.6</ele>
        <time>1970-01-01T10:00:32.000Z</time>
      </trkpt>
      <trkpt lat="42.75327" lon="0.982176">
        <ele>1755.6</ele>
        <time>1970-01-01T10:00:36.000Z</time>
      </trkpt>
      <trkpt lat="42.753327" lon="0.982018">
        <ele>1755.6</ele>
        <time>1970-01-01T10:00:39.000Z</time>
      </trkpt>
      <trkpt lat="42.753554" lon="0.981821">
        <ele>1754</ele>
        <time>1970-01-01T10:00:45.000Z</time>
      </trkpt>
      <trkpt lat="42.753583" lon="0.981728">
        <ele>1752.6</ele>
        <time>1970-01-01T10:00:47.000Z</time>
      </trkpt>
      <trkpt lat="42.753579" lon="0.981683">
        <ele>1752.2</ele>
        <time>1970-01-01T10:00:48.000Z</time>
      </trkpt>
      <trkpt lat="42.753468" lon="0.981209">
        <ele>1753.6</ele>
        <time>1970-01-01T10:01:02.000Z</time>
      </trkpt>
      <trkpt lat="42.753454" lon="0.981194">
        <ele>1754</ele>
        <time>1970-01-01T10:01:03.000Z</time>
      </trkpt>
      <trkpt lat="42.753397" lon="0.981167">
        <ele>1755</ele>
        <time>1970-01-01T10:01:06.000Z</time>
      </trkpt>
      <trkpt lat="42.753319" lon="0.981203">
        <ele>1756</ele>
        <time>1970-01-01T10:01:11.000Z</time>
      </trkpt>
      <trkpt lat="42.753292" lon="0.981236">
        <ele>1756.6</ele>
        <time>1970-01-01T10:01:13.000Z</time>
      </trkpt>
      <trkpt lat="42.753248" lon="0.981273">
        <ele>1757.2</ele>
        <time>1970-01-01T10:01:16.000Z</time>
      </trkpt>
      <trkpt lat="42.75318" lon="0.98132">
        <ele>1758.4</ele>
        <time>1970-01-01T10:01:21.000Z</time>
      </trkpt>
      <trkpt lat="42.753101" lon="0.981374">
        <ele>1759.2</ele>
        <time>1970-01-01T10:01:27.000Z</time>
      </trkpt>
      <trkpt lat="42.753005" lon="0.981473">
        <ele>1760.4</ele>
        <time>1970-01-01T10:01:35.000Z</time>
      </trkpt>
      <trkpt lat="42.752948" lon="0.981534">
        <ele>1761.4</ele>
        <time>1970-01-01T10:01:41.000Z</time>
      </trkpt>
      <trkpt lat="42.75291" lon="0.981593">
        <ele>1762.6</ele>
        <time>1970-01-01T10:01:46.000Z</time>
      </trkpt>
      <trkpt lat="42.752867" lon="0.981664">
        <ele>1763.8</ele>
        <time>1970-01-01T10:01:52.000Z</time>
      </trkpt>
      <trkpt lat="42.752805" lon="0.981742">
        <ele>1764.8</ele>
        <time>1970-01-01T10:02:00.000Z</time>
      </trkpt>
      <trkpt lat="42.752758" lon="0.981788">
        <ele>1766</ele>
        <time>1970-01-01T10:02:05.000Z</time>
      </trkpt>
      <trkpt lat="42.7527" lon="0.981835">
        <ele>1767.2</ele>
        <time>1970-01-01T10:02:11.000Z</time>
      </trkpt>
      <trkpt lat="42.752646" lon="0.981898">
        <ele>1768.2</ele>
        <time>1970-01-01T10:02:17.000Z</time>
      </trkpt>
      <trkpt lat="42.752591" lon="0.981963">
        <ele>1769.4</ele>
        <time>1970-01-01T10:02:23.000Z</time>
      </trkpt>
      <trkpt lat="42.752545" lon="0.982024">
        <ele>1770.6</ele>
        <time>1970-01-01T10:02:28.000Z</time>
      </trkpt>
      <trkpt lat="42.7525" lon="0.982083">
        <ele>1771.6</ele>
        <time>1970-01-01T10:02:33.000Z</time>
      </trkpt>
      <trkpt lat="42.752436" lon="0.982154">
        <ele>1772.6</ele>
        <time>1970-01-01T10:02:39.000Z</time>
      </trkpt>
      <trkpt lat="42.752343" lon="0.982227">
        <ele>1773.4</ele>
        <time>1970-01-01T10:02:47.000Z</time>
      </trkpt>
      <trkpt lat="42.752256" lon="0.982259">
        <ele>1774.4</ele>
        <time>1970-01-01T10:02:54.000Z</time>
      </trkpt>
      <trkpt lat="42.752223" lon="0.98224">
        <ele>1775.2</ele>
        <time>1970-01-01T10:02:57.000Z</time>
      </trkpt>
      <trkpt lat="42.752202" lon="0.982209">
        <ele>1775.4</ele>
        <time>1970-01-01T10:02:59.000Z</time>
      </trkpt>
      <trkpt lat="42.752158" lon="0.982131">
        <ele>1776.2</ele>
        <time>1970-01-01T10:03:04.000Z</time>
      </trkpt>
      <trkpt lat="42.752139" lon="0.982098">
        <ele>1776.6</ele>
        <time>1970-01-01T10:03:06.000Z</time>
      </trkpt>
      <trkpt lat="42.752045" lon="0.98194">
        <ele>1777.4</ele>
        <time>1970-01-01T10:03:15.000Z</time>
      </trkpt>
      <trkpt lat="42.751931" lon="0.981777">
        <ele>1778.4</ele>
        <time>1970-01-01T10:03:25.000Z</time>
      </trkpt>
      <trkpt lat="42.751867" lon="0.981684">
        <ele>1779.4</ele>
        <time>1970-01-01T10:03:31.000Z</time>
      </trkpt>
      <trkpt lat="42.751794" lon="0.981576">
        <ele>1780.6</ele>
        <time>1970-01-01T10:03:38.000Z</time>
      </trkpt>
      <trkpt lat="42.751745" lon="0.981471">
        <ele>1781.6</ele>
        <time>1970-01-01T10:03:44.000Z</time>
      </trkpt>
      <trkpt lat="42.7517" lon="0.98134">
        <ele>1782.6</ele>
        <time>1970-01-01T10:03:51.000Z</time>
      </trkpt>
      <trkpt lat="42.75163" lon="0.981241">
        <ele>1783.8</ele>
        <time>1970-01-01T10:03:58.000Z</time>
      </trkpt>
      <trkpt lat="42.751544" lon="0.981106">
        <ele>1784.8</ele>
        <time>1970-01-01T10:04:07.000Z</time>
      </trkpt>
      <trkpt lat="42.751433" lon="0.980985">
        <ele>1785.8</ele>
        <time>1970-01-01T10:04:16.000Z</time>
      </trkpt>
      <trkpt lat="42.751404" lon="0.98096">
        <ele>1785.8</ele>
        <time>1970-01-01T10:04:20.000Z</time>
      </trkpt>
      <trkpt lat="42.75135" lon="0.980926">
        <ele>1786.2</ele>
        <time>1970-01-01T10:10:48.000Z</time>
      </trkpt>
      <trkpt lat="42.751278" lon="0.980866">
        <ele>1786.4</ele>
        <time>1970-01-01T10:10:53.000Z</time>
      </trkpt>
      <trkpt lat="42.751172" lon="0.980684">
        <ele>1786</ele>
        <time>1970-01-01T10:11:03.000Z</time>
      </trkpt>
      <trkpt lat="42.75114" lon="0.980587">
        <ele>1785.8</ele>
        <time>1970-01-01T10:11:08.000Z</time>
      </trkpt>
      <trkpt lat="42.751126" lon="0.980488">
        <ele>1785.6</ele>
        <time>1970-01-01T10:11:12.000Z</time>
      </trkpt>
      <trkpt lat="42.751147" lon="0.980359">
        <ele>1785</ele>
        <time>1970-01-01T10:11:17.000Z</time>
      </trkpt>
      <trkpt lat="42.751124" lon="0.980239">
        <ele>1783.8</ele>
        <time>1970-01-01T10:11:20.000Z</time>
      </trkpt>
      <trkpt lat="42.751075" lon="0.98012">
        <ele>1782.8</ele>
        <time>1970-01-01T10:11:22.000Z</time>
      </trkpt>
      <trkpt lat="42.751052" lon="0.980056">
        <ele>1782.6</ele>
        <time>1970-01-01T10:11:23.000Z</time>
      </trkpt>
      <trkpt lat="42.750967" lon="0.979842">
        <ele>1783.6</ele>
        <time>1970-01-01T10:11:30.000Z</time>
      </trkpt>
      <trkpt lat="42.750918" lon="0.979748">
        <ele>1784.8</ele>
        <time>1970-01-01T10:11:35.000Z</time>
      </trkpt>
      <trkpt lat="42.750875" lon="0.97969">
        <ele>1785.8</ele>
        <time>1970-01-01T10:11:39.000Z</time>
      </trkpt>
      <trkpt lat="42.75082" lon="0.979613">
        <ele>1787</ele>
        <time>1970-01-01T10:11:45.000Z</time>
      </trkpt>
      <trkpt lat="42.750797" lon="0.979601">
        <ele>1787.6</ele>
        <time>1970-01-01T10:11:47.000Z</time>
      </trkpt>
      <trkpt lat="42.750767" lon="0.979593">
        <ele>1788</ele>
        <time>1970-01-01T10:11:49.000Z</time>
      </trkpt>
      <trkpt lat="42.750694" lon="0.979526">
        <ele>1789</ele>
        <time>1970-01-01T10:11:56.000Z</time>
      </trkpt>
      <trkpt lat="42.750677" lon="0.979498">
        <ele>1789.6</ele>
        <time>1970-01-01T10:11:58.000Z</time>
      </trkpt>
      <trkpt lat="42.750639" lon="0.979421">
        <ele>1790.2</ele>
        <time>1970-01-01T10:12:03.000Z</time>
      </trkpt>
      <trkpt lat="42.75058" lon="0.979306">
        <ele>1791.2</ele>
        <time>1970-01-01T10:12:11.000Z</time>
      </trkpt>
      <trkpt lat="42.750576" lon="0.979288">
        <ele>1791.4</ele>
        <time>1970-01-01T10:12:12.000Z</time>
      </trkpt>
      <trkpt lat="42.750544" lon="0.979182">
        <ele>1792.4</ele>
        <time>1970-01-01T10:12:18.000Z</time>
      </trkpt>
      <trkpt lat="42.750507" lon="0.979064">
        <ele>1793.4</ele>
        <time>1970-01-01T10:12:25.000Z</time>
      </trkpt>
      <trkpt lat="42.750483" lon="0.978953">
        <ele>1794.6</ele>
        <time>1970-01-01T10:12:31.000Z</time>
      </trkpt>
      <trkpt lat="42.750433" lon="0.978828">
        <ele>1795.6</ele>
        <time>1970-01-01T10:12:38.000Z</time>
      </trkpt>
      <trkpt lat="42.750242" lon="0.978137">
        <ele>1796.4</ele>
        <time>1970-01-01T10:13:05.000Z</time>
      </trkpt>
      <trkpt lat="42.750235" lon="0.978087">
        <ele>1796.6</ele>
        <time>1970-01-01T10:13:07.000Z</time>
      </trkpt>
      <trkpt lat="42.750223" lon="0.977934">
        <ele>1797.6</ele>
        <time>1970-01-01T10:13:13.000Z</time>
      </trkpt>
      <trkpt lat="42.750236" lon="0.977825">
        <ele>1798.8</ele>
        <time>1970-01-01T10:13:18.000Z</time>
      </trkpt>
      <trkpt lat="42.750264" lon="0.977666">
        <ele>1799.8</ele>
        <time>1970-01-01T10:13:26.000Z</time>
      </trkpt>
      <trkpt lat="42.75029" lon="0.97753">
        <ele>1801</ele>
        <time>1970-01-01T10:13:33.000Z</time>
      </trkpt>
      <trkpt lat="42.7503" lon="0.977391">
        <ele>1802</ele>
        <time>1970-01-01T10:13:40.000Z</time>
      </trkpt>
      <trkpt lat="42.750313" lon="0.97728">
        <ele>1803.4</ele>
        <time>1970-01-01T10:13:46.000Z</time>
      </trkpt>
      <trkpt lat="42.750315" lon="0.977193">
        <ele>1804.4</ele>
        <time>1970-01-01T10:13:51.000Z</time>
      </trkpt>
      <trkpt lat="42.750319" lon="0.977074">
        <ele>1805.2</ele>
        <time>1970-01-01T10:13:58.000Z</time>
      </trkpt>
      <trkpt lat="42.750324" lon="0.976971">
        <ele>1806.2</ele>
        <time>1970-01-01T10:14:04.000Z</time>
      </trkpt>
      <trkpt lat="42.750325" lon="0.976953">
        <ele>1806.4</ele>
        <time>1970-01-01T10:14:05.000Z</time>
      </trkpt>
      <trkpt lat="42.750327" lon="0.976884">
        <ele>1807.4</ele>
        <time>1970-01-01T10:14:09.000Z</time>
      </trkpt>
      <trkpt lat="42.750321" lon="0.976792">
        <ele>1808.4</ele>
        <time>1970-01-01T10:14:14.000Z</time>
      </trkpt>
      <trkpt lat="42.750323" lon="0.976689">
        <ele>1809.6</ele>
        <time>1970-01-01T10:14:20.000Z</time>
      </trkpt>
      <trkpt lat="42.75032" lon="0.976583">
        <ele>1810.8</ele>
        <time>1970-01-01T10:14:26.000Z</time>
      </trkpt>
      <trkpt lat="42.750324" lon="0.976499">
        <ele>1811.8</ele>
        <time>1970-01-01T10:14:31.000Z</time>
      </trkpt>
      <trkpt lat="42.750322" lon="0.97643">
        <ele>1812.8</ele>
        <time>1970-01-01T10:14:35.000Z</time>
      </trkpt>
      <trkpt lat="42.750317" lon="0.976291">
        <ele>1814</ele>
        <time>1970-01-01T10:14:43.000Z</time>
      </trkpt>
      <trkpt lat="42.750201" lon="0.975575">
        <ele>1814.6</ele>
        <time>1970-01-01T10:15:10.000Z</time>
      </trkpt>
      <trkpt lat="42.750195" lon="0.975556">
        <ele>1815</ele>
        <time>1970-01-01T10:15:11.000Z</time>
      </trkpt>
      <trkpt lat="42.750041" lon="0.975498">
        <ele>1816</ele>
        <time>1970-01-01T10:15:21.000Z</time>
      </trkpt>
      <trkpt lat="42.749938" lon="0.975586">
        <ele>1817</ele>
        <time>1970-01-01T10:15:28.000Z</time>
      </trkpt>
      <trkpt lat="42.749714" lon="0.97587">
        <ele>1818</ele>
        <time>1970-01-01T10:15:43.000Z</time>
      </trkpt>
      <trkpt lat="42.749623" lon="0.975931">
        <ele>1819</ele>
        <time>1970-01-01T10:15:48.000Z</time>
      </trkpt>
      <trkpt lat="42.749362" lon="0.975953">
        <ele>1818.6</ele>
        <time>1970-01-01T10:15:57.000Z</time>
      </trkpt>
      <trkpt lat="42.74911" lon="0.975991">
        <ele>1818.2</ele>
        <time>1970-01-01T10:16:03.000Z</time>
      </trkpt>
      <trkpt lat="42.748759" lon="0.976018">
        <ele>1817.8</ele>
        <time>1970-01-01T10:16:14.000Z</time>
      </trkpt>
      <trkpt lat="42.748564" lon="0.975922">
        <ele>1817.2</ele>
        <time>1970-01-01T10:16:19.000Z</time>
      </trkpt>
      <trkpt lat="42.748006" lon="0.975832">
        <ele>1817.8</ele>
        <time>1970-01-01T10:16:32.000Z</time>
      </trkpt>
      <trkpt lat="42.747861" lon="0.975791">
        <ele>1819.2</ele>
        <time>1970-01-01T10:16:36.000Z</time>
      </trkpt>
      <trkpt lat="42.747716" lon="0.975751">
        <ele>1820</ele>
        <time>1970-01-01T10:16:40.000Z</time>
      </trkpt>
      <trkpt lat="42.747589" lon="0.975735">
        <ele>1821.2</ele>
        <time>1970-01-01T10:16:44.000Z</time>
      </trkpt>
      <trkpt lat="42.747469" lon="0.975757">
        <ele>1822.2</ele>
        <time>1970-01-01T10:16:48.000Z</time>
      </trkpt>
      <trkpt lat="42.747365" lon="0.975729">
        <ele>1823.2</ele>
        <time>1970-01-01T10:16:52.000Z</time>
      </trkpt>
      <trkpt lat="42.747294" lon="0.975679">
        <ele>1824.4</ele>
        <time>1970-01-01T10:16:55.000Z</time>
      </trkpt>
      <trkpt lat="42.747181" lon="0.975556">
        <ele>1825.4</ele>
        <time>1970-01-01T10:17:01.000Z</time>
      </trkpt>
      <trkpt lat="42.747042" lon="0.975448">
        <ele>1826.4</ele>
        <time>1970-01-01T10:17:10.000Z</time>
      </trkpt>
      <trkpt lat="42.746878" lon="0.975407">
        <ele>1827.6</ele>
        <time>1970-01-01T10:17:20.000Z</time>
      </trkpt>
      <trkpt lat="42.746772" lon="0.975392">
        <ele>1828.6</ele>
        <time>1970-01-01T10:17:25.000Z</time>
      </trkpt>
      <trkpt lat="42.746644" lon="0.97535">
        <ele>1829.4</ele>
        <time>1970-01-01T10:17:32.000Z</time>
      </trkpt>
      <trkpt lat="42.746546" lon="0.975319">
        <ele>1830.6</ele>
        <time>1970-01-01T10:17:37.000Z</time>
      </trkpt>
      <trkpt lat="42.746404" lon="0.975284">
        <ele>1831.8</ele>
        <time>1970-01-01T10:17:45.000Z</time>
      </trkpt>
      <trkpt lat="42.746107" lon="0.975187">
        <ele>1832.6</ele>
        <time>1970-01-01T10:17:57.000Z</time>
      </trkpt>
      <trkpt lat="42.746009" lon="0.975136">
        <ele>1833.4</ele>
        <time>1970-01-01T10:18:02.000Z</time>
      </trkpt>
      <trkpt lat="42.74599" lon="0.975128">
        <ele>1833.6</ele>
        <time>1970-01-01T10:18:03.000Z</time>
      </trkpt>
      <trkpt lat="42.745806" lon="0.975086">
        <ele>1834.6</ele>
        <time>1970-01-01T10:18:12.000Z</time>
      </trkpt>
      <trkpt lat="42.745536" lon="0.975046">
        <ele>1835.4</ele>
        <time>1970-01-01T10:18:24.000Z</time>
      </trkpt>
      <trkpt lat="42.745002" lon="0.97492">
        <ele>1836</ele>
        <time>1970-01-01T10:18:42.000Z</time>
      </trkpt>
      <trkpt lat="42.744534" lon="0.974844">
        <ele>1836.8</ele>
        <time>1970-01-01T10:18:55.000Z</time>
      </trkpt>
      <trkpt lat="42.744234" lon="0.974725">
        <ele>1835.4</ele>
        <time>1970-01-01T10:19:01.000Z</time>
      </trkpt>
      <trkpt lat="42.743961" lon="0.974614">
        <ele>1835.2</ele>
        <time>1970-01-01T10:19:07.000Z</time>
      </trkpt>
      <trkpt lat="42.743458" lon="0.974307">
        <ele>1836.4</ele>
        <time>1970-01-01T10:19:21.000Z</time>
      </trkpt>
      <trkpt lat="42.743198" lon="0.974126">
        <ele>1836.6</ele>
        <time>1970-01-01T10:19:29.000Z</time>
      </trkpt>
      <trkpt lat="42.743073" lon="0.974048">
        <ele>1837.8</ele>
        <time>1970-01-01T10:19:34.000Z</time>
      </trkpt>
      <trkpt lat="42.742953" lon="0.973958">
        <ele>1839</ele>
        <time>1970-01-01T10:19:39.000Z</time>
      </trkpt>
      <trkpt lat="42.742721" lon="0.973767">
        <ele>1840.2</ele>
        <time>1970-01-01T10:19:49.000Z</time>
      </trkpt>
      <trkpt lat="42.742509" lon="0.973623">
        <ele>1841.2</ele>
        <time>1970-01-01T10:19:58.000Z</time>
      </trkpt>
      <trkpt lat="42.742389" lon="0.973572">
        <ele>1842.2</ele>
        <time>1970-01-01T10:20:03.000Z</time>
      </trkpt>
      <trkpt lat="42.742208" lon="0.973468">
        <ele>1843.2</ele>
        <time>1970-01-01T10:20:11.000Z</time>
      </trkpt>
      <trkpt lat="42.741914" lon="0.973261">
        <ele>1844.2</ele>
        <time>1970-01-01T10:20:23.000Z</time>
      </trkpt>
      <trkpt lat="42.741739" lon="0.97313">
        <ele>1845.4</ele>
        <time>1970-01-01T10:20:31.000Z</time>
      </trkpt>
      <trkpt lat="42.741523" lon="0.97295">
        <ele>1846.4</ele>
        <time>1970-01-01T10:20:41.000Z</time>
      </trkpt>
      <trkpt lat="42.741347" lon="0.972803">
        <ele>1847.6</ele>
        <time>1970-01-01T10:20:49.000Z</time>
      </trkpt>
      <trkpt lat="42.741221" lon="0.97269">
        <ele>1848.6</ele>
        <time>1970-01-01T10:20:55.000Z</time>
      </trkpt>
      <trkpt lat="42.740996" lon="0.972493">
        <ele>1849.8</ele>
        <time>1970-01-01T10:21:05.000Z</time>
      </trkpt>
      <trkpt lat="42.740842" lon="0.972337">
        <ele>1850.8</ele>
        <time>1970-01-01T10:21:12.000Z</time>
      </trkpt>
      <trkpt lat="42.740709" lon="0.972225">
        <ele>1852</ele>
        <time>1970-01-01T10:21:18.000Z</time>
      </trkpt>
      <trkpt lat="42.740594" lon="0.972149">
        <ele>1852.8</ele>
        <time>1970-01-01T10:21:23.000Z</time>
      </trkpt>
      <trkpt lat="42.74036" lon="0.971964">
        <ele>1853.8</ele>
        <time>1970-01-01T10:21:33.000Z</time>
      </trkpt>
      <trkpt lat="42.739913" lon="0.971527">
        <ele>1855</ele>
        <time>1970-01-01T10:21:52.000Z</time>
      </trkpt>
      <trkpt lat="42.739606" lon="0.970974">
        <ele>1853.8</ele>
        <time>1970-01-01T10:22:06.000Z</time>
      </trkpt>
      <trkpt lat="42.739575" lon="0.970915">
        <ele>1853.6</ele>
        <time>1970-01-01T10:22:07.000Z</time>
      </trkpt>
      <trkpt lat="42.739408" lon="0.970795">
        <ele>1854.4</ele>
        <time>1970-01-01T10:22:12.000Z</time>
      </trkpt>
      <trkpt lat="42.739358" lon="0.970794">
        <ele>1855.2</ele>
        <time>1970-01-01T10:22:14.000Z</time>
      </trkpt>
      <trkpt lat="42.739235" lon="0.970819">
        <ele>1856</ele>
        <time>1970-01-01T10:22:20.000Z</time>
      </trkpt>
      <trkpt lat="42.739214" lon="0.970814">
        <ele>1856.4</ele>
        <time>1970-01-01T10:22:21.000Z</time>
      </trkpt>
      <trkpt lat="42.739096" lon="0.970733">
        <ele>1857.4</ele>
        <time>1970-01-01T10:22:27.000Z</time>
      </trkpt>
      <trkpt lat="42.738976" lon="0.970598">
        <ele>1858.6</ele>
        <time>1970-01-01T10:22:34.000Z</time>
      </trkpt>
      <trkpt lat="42.738873" lon="0.970489">
        <ele>1859.6</ele>
        <time>1970-01-01T10:22:40.000Z</time>
      </trkpt>
      <trkpt lat="42.738793" lon="0.970407">
        <ele>1861</ele>
        <time>1970-01-01T10:22:45.000Z</time>
      </trkpt>
      <trkpt lat="42.738509" lon="0.970052">
        <ele>1862</ele>
        <time>1970-01-01T10:23:02.000Z</time>
      </trkpt>
      <trkpt lat="42.738382" lon="0.969901">
        <ele>1863.2</ele>
        <time>1970-01-01T10:23:10.000Z</time>
      </trkpt>
      <trkpt lat="42.738298" lon="0.969792">
        <ele>1864.4</ele>
        <time>1970-01-01T10:23:16.000Z</time>
      </trkpt>
      <trkpt lat="42.738246" lon="0.969715">
        <ele>1865.2</ele>
        <time>1970-01-01T10:23:20.000Z</time>
      </trkpt>
      <trkpt lat="42.738036" lon="0.969396">
        <ele>1866.4</ele>
        <time>1970-01-01T10:23:35.000Z</time>
      </trkpt>
      <trkpt lat="42.737745" lon="0.968968">
        <ele>1867.6</ele>
        <time>1970-01-01T10:23:53.000Z</time>
      </trkpt>
      <trkpt lat="42.737645" lon="0.968811">
        <ele>1868.6</ele>
        <time>1970-01-01T10:24:01.000Z</time>
      </trkpt>
      <trkpt lat="42.737573" lon="0.968733">
        <ele>1869.8</ele>
        <time>1970-01-01T10:24:06.000Z</time>
      </trkpt>
      <trkpt lat="42.737476" lon="0.968612">
        <ele>1870.8</ele>
        <time>1970-01-01T10:24:13.000Z</time>
      </trkpt>
      <trkpt lat="42.737386" lon="0.968495">
        <ele>1872</ele>
        <time>1970-01-01T10:24:20.000Z</time>
      </trkpt>
      <trkpt lat="42.737275" lon="0.968327">
        <ele>1873.2</ele>
        <time>1970-01-01T10:24:29.000Z</time>
      </trkpt>
      <trkpt lat="42.737202" lon="0.968229">
        <ele>1874</ele>
        <time>1970-01-01T10:24:35.000Z</time>
      </trkpt>
      <trkpt lat="42.737093" lon="0.968067">
        <ele>1875.2</ele>
        <time>1970-01-01T10:24:44.000Z</time>
      </trkpt>
      <trkpt lat="42.736912" lon="0.967891">
        <ele>1876.2</ele>
        <time>1970-01-01T10:24:55.000Z</time>
      </trkpt>
      <trkpt lat="42.736531" lon="0.967628">
        <ele>1877.2</ele>
        <time>1970-01-01T10:25:13.000Z</time>
      </trkpt>
      <trkpt lat="42.736428" lon="0.967507">
        <ele>1878.4</ele>
        <time>1970-01-01T10:25:19.000Z</time>
      </trkpt>
      <trkpt lat="42.735994" lon="0.967047">
        <ele>1878.8</ele>
        <time>1970-01-01T10:25:40.000Z</time>
      </trkpt>
      <trkpt lat="42.735858" lon="0.966912">
        <ele>1879.2</ele>
        <time>1970-01-01T10:25:46.000Z</time>
      </trkpt>
      <trkpt lat="42.735663" lon="0.966658">
        <ele>1880.4</ele>
        <time>1970-01-01T10:25:56.000Z</time>
      </trkpt>
      <trkpt lat="42.735549" lon="0.966477">
        <ele>1881.4</ele>
        <time>1970-01-01T10:26:03.000Z</time>
      </trkpt>
      <trkpt lat="42.735306" lon="0.965989">
        <ele>1882.6</ele>
        <time>1970-01-01T10:26:20.000Z</time>
      </trkpt>
      <trkpt lat="42.735162" lon="0.965807">
        <ele>1883.6</ele>
        <time>1970-01-01T10:26:28.000Z</time>
      </trkpt>
      <trkpt lat="42.734736" lon="0.965399">
        <ele>1883</ele>
        <time>1970-01-01T10:26:44.000Z</time>
      </trkpt>
      <trkpt lat="42.734567" lon="0.965317">
        <ele>1883.2</ele>
        <time>1970-01-01T10:26:49.000Z</time>
      </trkpt>
      <trkpt lat="42.734457" lon="0.965207">
        <ele>1882.6</ele>
        <time>1970-01-01T10:26:52.000Z</time>
      </trkpt>
      <trkpt lat="42.733917" lon="0.964941">
        <ele>1883.8</ele>
        <time>1970-01-01T10:27:07.000Z</time>
      </trkpt>
      <trkpt lat="42.733352" lon="0.964742">
        <ele>1882.6</ele>
        <time>1970-01-01T10:27:20.000Z</time>
      </trkpt>
      <trkpt lat="42.732813" lon="0.964482">
        <ele>1882.4</ele>
        <time>1970-01-01T10:27:33.000Z</time>
      </trkpt>
      <trkpt lat="42.732319" lon="0.964142">
        <ele>1883</ele>
        <time>1970-01-01T10:27:48.000Z</time>
      </trkpt>
      <trkpt lat="42.731795" lon="0.963841">
        <ele>1883.4</ele>
        <time>1970-01-01T10:28:03.000Z</time>
      </trkpt>
      <trkpt lat="42.731416" lon="0.963702">
        <ele>1883.8</ele>
        <time>1970-01-01T10:28:13.000Z</time>
      </trkpt>
      <trkpt lat="42.730883" lon="0.963446">
        <ele>1884.2</ele>
        <time>1970-01-01T10:28:30.000Z</time>
      </trkpt>
      <trkpt lat="42.730848" lon="0.963426">
        <ele>1884.2</ele>
        <time>1970-01-01T10:28:31.000Z</time>
      </trkpt>
      <trkpt lat="42.730352" lon="0.96312">
        <ele>1883.2</ele>
        <time>1970-01-01T10:28:44.000Z</time>
      </trkpt>
      <trkpt lat="42.729998" lon="0.962805">
        <ele>1882.4</ele>
        <time>1970-01-01T10:28:55.000Z</time>
      </trkpt>
      <trkpt lat="42.729894" lon="0.962703">
        <ele>1881.8</ele>
        <time>1970-01-01T10:28:58.000Z</time>
      </trkpt>
      <trkpt lat="42.729395" lon="0.962394">
        <ele>1882</ele>
        <time>1970-01-01T10:29:12.000Z</time>
      </trkpt>
      <trkpt lat="42.729074" lon="0.962608">
        <ele>1881.4</ele>
        <time>1970-01-01T10:29:26.000Z</time>
      </trkpt>
      <trkpt lat="42.72908" lon="0.96265">
        <ele>1881.4</ele>
        <time>1970-01-01T10:29:46.000Z</time>
      </trkpt>
      <trkpt lat="42.729044" lon="0.96274">
        <ele>1881.4</ele>
        <time>1970-01-01T10:29:50.000Z</time>
      </trkpt>
      <trkpt lat="42.728966" lon="0.962765">
        <ele>1881.4</ele>
        <time>1970-01-01T10:29:54.000Z</time>
      </trkpt>
      <trkpt lat="42.728874" lon="0.962753">
        <ele>1881.8</ele>
        <time>1970-01-01T10:30:00.000Z</time>
      </trkpt>
      <trkpt lat="42.728806" lon="0.962778">
        <ele>1881.2</ele>
        <time>1970-01-01T10:30:04.000Z</time>
      </trkpt>
      <trkpt lat="42.728713" lon="0.962728">
        <ele>1881.2</ele>
        <time>1970-01-01T10:30:09.000Z</time>
      </trkpt>
      <trkpt lat="42.728653" lon="0.96283">
        <ele>1881.4</ele>
        <time>1970-01-01T10:30:13.000Z</time>
      </trkpt>
      <trkpt lat="42.728619" lon="0.962906">
        <ele>1881.2</ele>
        <time>1970-01-01T10:30:15.000Z</time>
      </trkpt>
      <trkpt lat="42.728074" lon="0.962825">
        <ele>1881.8</ele>
        <time>1970-01-01T10:30:33.000Z</time>
      </trkpt>
      <trkpt lat="42.727532" lon="0.962707">
        <ele>1881.8</ele>
        <time>1970-01-01T10:30:48.000Z</time>
      </trkpt>
      <trkpt lat="42.726972" lon="0.962782">
        <ele>1881.8</ele>
        <time>1970-01-01T10:31:04.000Z</time>
      </trkpt>
      <trkpt lat="42.726433" lon="0.962671">
        <ele>1881.6</ele>
        <time>1970-01-01T10:31:20.000Z</time>
      </trkpt>
      <trkpt lat="42.726155" lon="0.962347">
        <ele>1882.4</ele>
        <time>1970-01-01T10:31:37.000Z</time>
      </trkpt>
      <trkpt lat="42.726124" lon="0.962295">
        <ele>1882.6</ele>
        <time>1970-01-01T10:37:18.000Z</time>
      </trkpt>
      <trkpt lat="42.725914" lon="0.96179">
        <ele>1883.6</ele>
        <time>1970-01-01T10:37:32.000Z</time>
      </trkpt>
      <trkpt lat="42.725811" lon="0.961619">
        <ele>1884.8</ele>
        <time>1970-01-01T10:37:37.000Z</time>
      </trkpt>
      <trkpt lat="42.725652" lon="0.961457">
        <ele>1885.8</ele>
        <time>1970-01-01T10:37:43.000Z</time>
      </trkpt>
      <trkpt lat="42.725263" lon="0.961169">
        <ele>1886.8</ele>
        <time>1970-01-01T10:37:56.000Z</time>
      </trkpt>
      <trkpt lat="42.724993" lon="0.96096">
        <ele>1887.8</ele>
        <time>1970-01-01T10:38:05.000Z</time>
      </trkpt>
      <trkpt lat="42.724647" lon="0.960621">
        <ele>1889</ele>
        <time>1970-01-01T10:38:17.000Z</time>
      </trkpt>
      <trkpt lat="42.724355" lon="0.960277">
        <ele>1890.2</ele>
        <time>1970-01-01T10:38:28.000Z</time>
      </trkpt>
      <trkpt lat="42.724095" lon="0.959959">
        <ele>1891.2</ele>
        <time>1970-01-01T10:38:38.000Z</time>
      </trkpt>
      <trkpt lat="42.723827" lon="0.959637">
        <ele>1892.4</ele>
        <time>1970-01-01T10:38:48.000Z</time>
      </trkpt>
      <trkpt lat="42.723504" lon="0.959253">
        <ele>1893.4</ele>
        <time>1970-01-01T10:39:00.000Z</time>
      </trkpt>
      <trkpt lat="42.723307" lon="0.959051">
        <ele>1894.4</ele>
        <time>1970-01-01T10:39:07.000Z</time>
      </trkpt>
      <trkpt lat="42.722811" lon="0.958746">
        <ele>1895</ele>
        <time>1970-01-01T10:39:22.000Z</time>
      </trkpt>
      <trkpt lat="42.722317" lon="0.958449">
        <ele>1895</ele>
        <time>1970-01-01T10:39:36.000Z</time>
      </trkpt>
      <trkpt lat="42.721801" lon="0.958111">
        <ele>1894.8</ele>
        <time>1970-01-01T10:39:49.000Z</time>
      </trkpt>
      <trkpt lat="42.721305" lon="0.957729">
        <ele>1894</ele>
        <time>1970-01-01T10:40:02.000Z</time>
      </trkpt>
      <trkpt lat="42.720831" lon="0.957339">
        <ele>1893.6</ele>
        <time>1970-01-01T10:40:13.000Z</time>
      </trkpt>
      <trkpt lat="42.720324" lon="0.956935">
        <ele>1893.4</ele>
        <time>1970-01-01T10:40:25.000Z</time>
      </trkpt>
      <trkpt lat="42.719859" lon="0.956555">
        <ele>1894.2</ele>
        <time>1970-01-01T10:40:37.000Z</time>
      </trkpt>
      <trkpt lat="42.719411" lon="0.956142">
        <ele>1895</ele>
        <time>1970-01-01T10:40:49.000Z</time>
      </trkpt>
      <trkpt lat="42.71903" lon="0.955766">
        <ele>1895</ele>
        <time>1970-01-01T10:41:00.000Z</time>
      </trkpt>
      <trkpt lat="42.718759" lon="0.955466">
        <ele>1896.2</ele>
        <time>1970-01-01T10:41:08.000Z</time>
      </trkpt>
      <trkpt lat="42.718603" lon="0.955292">
        <ele>1897.2</ele>
        <time>1970-01-01T10:41:13.000Z</time>
      </trkpt>
      <trkpt lat="42.71838" lon="0.955046">
        <ele>1898.4</ele>
        <time>1970-01-01T10:41:21.000Z</time>
      </trkpt>
      <trkpt lat="42.718141" lon="0.954808">
        <ele>1899.8</ele>
        <time>1970-01-01T10:41:30.000Z</time>
      </trkpt>
      <trkpt lat="42.717989" lon="0.95464">
        <ele>1900.8</ele>
        <time>1970-01-01T10:41:36.000Z</time>
      </trkpt>
      <trkpt lat="42.71776" lon="0.95437">
        <ele>1901.6</ele>
        <time>1970-01-01T10:41:47.000Z</time>
      </trkpt>
      <trkpt lat="42.717509" lon="0.9541">
        <ele>1902.8</ele>
        <time>1970-01-01T10:41:58.000Z</time>
      </trkpt>
      <trkpt lat="42.717319" lon="0.953887">
        <ele>1904</ele>
        <time>1970-01-01T10:42:07.000Z</time>
      </trkpt>
      <trkpt lat="42.717164" lon="0.953701">
        <ele>1905</ele>
        <time>1970-01-01T10:42:15.000Z</time>
      </trkpt>
      <trkpt lat="42.716958" lon="0.953419">
        <ele>1906.2</ele>
        <time>1970-01-01T10:42:26.000Z</time>
      </trkpt>
      <trkpt lat="42.716769" lon="0.953177">
        <ele>1907.2</ele>
        <time>1970-01-01T10:42:35.000Z</time>
      </trkpt>
      <trkpt lat="42.716467" lon="0.952807">
        <ele>1907.8</ele>
        <time>1970-01-01T10:42:51.000Z</time>
      </trkpt>
      <trkpt lat="42.716428" lon="0.952784">
        <ele>1907.8</ele>
        <time>1970-01-01T10:43:06.000Z</time>
      </trkpt>
      <trkpt lat="42.716335" lon="0.952719">
        <ele>1908</ele>
        <time>1970-01-01T10:43:09.000Z</time>
      </trkpt>
      <trkpt lat="42.715822" lon="0.952471">
        <ele>1908.2</ele>
        <time>1970-01-01T10:43:23.000Z</time>
      </trkpt>
      <trkpt lat="42.715274" lon="0.952223">
        <ele>1908.6</ele>
        <time>1970-01-01T10:43:38.000Z</time>
      </trkpt>
      <trkpt lat="42.715044" lon="0.952102">
        <ele>1909</ele>
        <time>1970-01-01T10:43:44.000Z</time>
      </trkpt>
      <trkpt lat="42.714581" lon="0.951879">
        <ele>1910</ele>
        <time>1970-01-01T10:43:56.000Z</time>
      </trkpt>
      <trkpt lat="42.714077" lon="0.951607">
        <ele>1910.6</ele>
        <time>1970-01-01T10:44:09.000Z</time>
      </trkpt>
      <trkpt lat="42.713706" lon="0.951285">
        <ele>1910.8</ele>
        <time>1970-01-01T10:44:20.000Z</time>
      </trkpt>
      <trkpt lat="42.713405" lon="0.950664">
        <ele>1911.2</ele>
        <time>1970-01-01T10:44:32.000Z</time>
      </trkpt>
      <trkpt lat="42.713118" lon="0.950036">
        <ele>1911.2</ele>
        <time>1970-01-01T10:44:43.000Z</time>
      </trkpt>
      <trkpt lat="42.712723" lon="0.949511">
        <ele>1911.2</ele>
        <time>1970-01-01T10:44:54.000Z</time>
      </trkpt>
      <trkpt lat="42.71231" lon="0.949029">
        <ele>1911.6</ele>
        <time>1970-01-01T10:45:05.000Z</time>
      </trkpt>
      <trkpt lat="42.712159" lon="0.94884">
        <ele>1911.6</ele>
        <time>1970-01-01T10:45:09.000Z</time>
      </trkpt>
      <trkpt lat="42.711737" lon="0.948335">
        <ele>1911.6</ele>
        <time>1970-01-01T10:45:22.000Z</time>
      </trkpt>
      <trkpt lat="42.711472" lon="0.947825">
        <ele>1912</ele>
        <time>1970-01-01T10:45:38.000Z</time>
      </trkpt>
      <trkpt lat="42.711448" lon="0.947857">
        <ele>1912.6</ele>
        <time>1970-01-01T10:45:43.000Z</time>
      </trkpt>
      <trkpt lat="42.711449" lon="0.947891">
        <ele>1912.6</ele>
        <time>1970-01-01T10:45:44.000Z</time>
      </trkpt>
      <trkpt lat="42.711485" lon="0.94801">
        <ele>1912.6</ele>
        <time>1970-01-01T10:45:47.000Z</time>
      </trkpt>
      <trkpt lat="42.711639" lon="0.948315">
        <ele>1912</ele>
        <time>1970-01-01T10:45:55.000Z</time>
      </trkpt>
      <trkpt lat="42.711489" lon="0.948382">
        <ele>1911.4</ele>
        <time>1970-01-01T10:46:01.000Z</time>
      </trkpt>
      <trkpt lat="42.711404" lon="0.948299">
        <ele>1911.4</ele>
        <time>1970-01-01T10:46:04.000Z</time>
      </trkpt>
      <trkpt lat="42.711003" lon="0.947799">
        <ele>1911.4</ele>
        <time>1970-01-01T10:46:19.000Z</time>
      </trkpt>
      <trkpt lat="42.710869" lon="0.947577">
        <ele>1910</ele>
        <time>1970-01-01T10:46:23.000Z</time>
      </trkpt>
      <trkpt lat="42.710836" lon="0.947511">
        <ele>1909.6</ele>
        <time>1970-01-01T10:46:24.000Z</time>
      </trkpt>
      <trkpt lat="42.710771" lon="0.947361">
        <ele>1908.8</ele>
        <time>1970-01-01T10:46:26.000Z</time>
      </trkpt>
      <trkpt lat="42.710708" lon="0.947207">
        <ele>1907.4</ele>
        <time>1970-01-01T10:46:28.000Z</time>
      </trkpt>
      <trkpt lat="42.710648" lon="0.947057">
        <ele>1906</ele>
        <time>1970-01-01T10:46:30.000Z</time>
      </trkpt>
      <trkpt lat="42.71057" lon="0.946863">
        <ele>1905.2</ele>
        <time>1970-01-01T10:46:33.000Z</time>
      </trkpt>
      <trkpt lat="42.710473" lon="0.946584">
        <ele>1904</ele>
        <time>1970-01-01T10:46:38.000Z</time>
      </trkpt>
      <trkpt lat="42.710264" lon="0.946053">
        <ele>1903</ele>
        <time>1970-01-01T10:46:48.000Z</time>
      </trkpt>
      <trkpt lat="42.710197" lon="0.945653">
        <ele>1901.4</ele>
        <time>1970-01-01T10:46:56.000Z</time>
      </trkpt>
      <trkpt lat="42.710144" lon="0.94514">
        <ele>1900.4</ele>
        <time>1970-01-01T10:47:07.000Z</time>
      </trkpt>
      <trkpt lat="42.710087" lon="0.944927">
        <ele>1899.4</ele>
        <time>1970-01-01T10:47:12.000Z</time>
      </trkpt>
      <trkpt lat="42.710033" lon="0.944767">
        <ele>1898.2</ele>
        <time>1970-01-01T10:47:16.000Z</time>
      </trkpt>
      <trkpt lat="42.709975" lon="0.944611">
        <ele>1897.2</ele>
        <time>1970-01-01T10:47:20.000Z</time>
      </trkpt>
      <trkpt lat="42.709936" lon="0.944526">
        <ele>1896.2</ele>
        <time>1970-01-01T10:47:22.000Z</time>
      </trkpt>
      <trkpt lat="42.70987" lon="0.944379">
        <ele>1895</ele>
        <time>1970-01-01T10:47:25.000Z</time>
      </trkpt>
      <trkpt lat="42.709802" lon="0.94426">
        <ele>1894</ele>
        <time>1970-01-01T10:47:28.000Z</time>
      </trkpt>
      <trkpt lat="42.709765" lon="0.944201">
        <ele>1892.8</ele>
        <time>1970-01-01T10:47:30.000Z</time>
      </trkpt>
      <trkpt lat="42.709739" lon="0.944148">
        <ele>1891.6</ele>
        <time>1970-01-01T10:47:32.000Z</time>
      </trkpt>
      <trkpt lat="42.709713" lon="0.944093">
        <ele>1890.8</ele>
        <time>1970-01-01T10:47:35.000Z</time>
      </trkpt>
      <trkpt lat="42.709705" lon="0.944077">
        <ele>1890.4</ele>
        <time>1970-01-01T10:47:36.000Z</time>
      </trkpt>
      <trkpt lat="42.709669" lon="0.944022">
        <ele>1889.2</ele>
        <time>1970-01-01T10:47:40.000Z</time>
      </trkpt>
      <trkpt lat="42.709652" lon="0.943996">
        <ele>1888.4</ele>
        <time>1970-01-01T10:47:44.000Z</time>
      </trkpt>
      <trkpt lat="42.709607" lon="0.943815">
        <ele>1886.6</ele>
        <time>1970-01-01T10:51:43.000Z</time>
      </trkpt>
      <trkpt lat="42.709572" lon="0.943681">
        <ele>1885.4</ele>
        <time>1970-01-01T10:51:49.000Z</time>
      </trkpt>
      <trkpt lat="42.70953" lon="0.943483">
        <ele>1884.2</ele>
        <time>1970-01-01T10:51:54.000Z</time>
      </trkpt>
      <trkpt lat="42.709498" lon="0.943381">
        <ele>1883</ele>
        <time>1970-01-01T10:51:57.000Z</time>
      </trkpt>
      <trkpt lat="42.709477" lon="0.94332">
        <ele>1882</ele>
        <time>1970-01-01T10:51:59.000Z</time>
      </trkpt>
      <trkpt lat="42.709446" lon="0.943215">
        <ele>1880.8</ele>
        <time>1970-01-01T10:52:02.000Z</time>
      </trkpt>
      <trkpt lat="42.709416" lon="0.943134">
        <ele>1880</ele>
        <time>1970-01-01T10:52:05.000Z</time>
      </trkpt>
      <trkpt lat="42.709403" lon="0.943115">
        <ele>1879.6</ele>
        <time>1970-01-01T10:52:06.000Z</time>
      </trkpt>
      <trkpt lat="42.709394" lon="0.943091">
        <ele>1879.4</ele>
        <time>1970-01-01T10:52:07.000Z</time>
      </trkpt>
      <trkpt lat="42.709384" lon="0.943019">
        <ele>1878.6</ele>
        <time>1970-01-01T10:52:10.000Z</time>
      </trkpt>
      <trkpt lat="42.709374" lon="0.942928">
        <ele>1877.4</ele>
        <time>1970-01-01T10:52:14.000Z</time>
      </trkpt>
      <trkpt lat="42.709362" lon="0.94284">
        <ele>1876.4</ele>
        <time>1970-01-01T10:52:18.000Z</time>
      </trkpt>
      <trkpt lat="42.709355" lon="0.942727">
        <ele>1875.4</ele>
        <time>1970-01-01T10:52:23.000Z</time>
      </trkpt>
      <trkpt lat="42.70931" lon="0.942608">
        <ele>1874.8</ele>
        <time>1970-01-01T10:52:28.000Z</time>
      </trkpt>
      <trkpt lat="42.709301" lon="0.942564">
        <ele>1874.2</ele>
        <time>1970-01-01T10:52:30.000Z</time>
      </trkpt>
      <trkpt lat="42.709283" lon="0.94247">
        <ele>1873.2</ele>
        <time>1970-01-01T10:52:34.000Z</time>
      </trkpt>
      <trkpt lat="42.709269" lon="0.942394">
        <ele>1872.2</ele>
        <time>1970-01-01T10:52:38.000Z</time>
      </trkpt>
      <trkpt lat="42.709209" lon="0.942285">
        <ele>1870.8</ele>
        <time>1970-01-01T10:52:45.000Z</time>
      </trkpt>
      <trkpt lat="42.709171" lon="0.942198">
        <ele>1869.8</ele>
        <time>1970-01-01T10:52:50.000Z</time>
      </trkpt>
      <trkpt lat="42.709167" lon="0.942176">
        <ele>1869.4</ele>
        <time>1970-01-01T10:52:51.000Z</time>
      </trkpt>
      <trkpt lat="42.709096" lon="0.942087">
        <ele>1868.6</ele>
        <time>1970-01-01T10:52:57.000Z</time>
      </trkpt>
      <trkpt lat="42.709081" lon="0.942078">
        <ele>1868.4</ele>
        <time>1970-01-01T10:52:58.000Z</time>
      </trkpt>
      <trkpt lat="42.709068" lon="0.942049">
        <ele>1867.6</ele>
        <time>1970-01-01T10:53:02.000Z</time>
      </trkpt>
      <trkpt lat="42.709041" lon="0.94201">
        <ele>1867.2</ele>
        <time>1970-01-01T10:53:41.000Z</time>
      </trkpt>
      <trkpt lat="42.708982" lon="0.941967">
        <ele>1866</ele>
        <time>1970-01-01T10:53:44.000Z</time>
      </trkpt>
      <trkpt lat="42.708933" lon="0.941915">
        <ele>1864.6</ele>
        <time>1970-01-01T10:53:47.000Z</time>
      </trkpt>
      <trkpt lat="42.70888" lon="0.941831">
        <ele>1863.2</ele>
        <time>1970-01-01T10:53:51.000Z</time>
      </trkpt>
      <trkpt lat="42.708831" lon="0.941762">
        <ele>1862</ele>
        <time>1970-01-01T10:53:54.000Z</time>
      </trkpt>
      <trkpt lat="42.708756" lon="0.941653">
        <ele>1861</ele>
        <time>1970-01-01T10:53:58.000Z</time>
      </trkpt>
      <trkpt lat="42.708702" lon="0.941571">
        <ele>1859.6</ele>
        <time>1970-01-01T10:54:01.000Z</time>
      </trkpt>
      <trkpt lat="42.708628" lon="0.941416">
        <ele>1858.4</ele>
        <time>1970-01-01T10:54:07.000Z</time>
      </trkpt>
      <trkpt lat="42.708588" lon="0.941267">
        <ele>1857.2</ele>
        <time>1970-01-01T10:54:12.000Z</time>
      </trkpt>
      <trkpt lat="42.708542" lon="0.941161">
        <ele>1856</ele>
        <time>1970-01-01T10:54:15.000Z</time>
      </trkpt>
      <trkpt lat="42.708444" lon="0.941023">
        <ele>1854.8</ele>
        <time>1970-01-01T10:54:19.000Z</time>
      </trkpt>
      <trkpt lat="42.70837" lon="0.940862">
        <ele>1853.6</ele>
        <time>1970-01-01T10:54:23.000Z</time>
      </trkpt>
      <trkpt lat="42.708326" lon="0.940777">
        <ele>1852.4</ele>
        <time>1970-01-01T10:54:25.000Z</time>
      </trkpt>
      <trkpt lat="42.708261" lon="0.940632">
        <ele>1851.2</ele>
        <time>1970-01-01T10:54:28.000Z</time>
      </trkpt>
      <trkpt lat="42.708218" lon="0.94053">
        <ele>1849.8</ele>
        <time>1970-01-01T10:54:30.000Z</time>
      </trkpt>
      <trkpt lat="42.708175" lon="0.940429">
        <ele>1848.6</ele>
        <time>1970-01-01T10:54:32.000Z</time>
      </trkpt>
      <trkpt lat="42.708105" lon="0.94027">
        <ele>1847.2</ele>
        <time>1970-01-01T10:54:35.000Z</time>
      </trkpt>
      <trkpt lat="42.708058" lon="0.940168">
        <ele>1846</ele>
        <time>1970-01-01T10:54:37.000Z</time>
      </trkpt>
      <trkpt lat="42.708025" lon="0.940067">
        <ele>1844.4</ele>
        <time>1970-01-01T10:54:39.000Z</time>
      </trkpt>
      <trkpt lat="42.707949" lon="0.939855">
        <ele>1843.2</ele>
        <time>1970-01-01T10:54:43.000Z</time>
      </trkpt>
      <trkpt lat="42.707932" lon="0.939794">
        <ele>1843</ele>
        <time>1970-01-01T10:54:44.000Z</time>
      </trkpt>
      <trkpt lat="42.707887" lon="0.939605">
        <ele>1841.8</ele>
        <time>1970-01-01T10:54:47.000Z</time>
      </trkpt>
      <trkpt lat="42.70785" lon="0.93947">
        <ele>1840.4</ele>
        <time>1970-01-01T10:54:49.000Z</time>
      </trkpt>
      <trkpt lat="42.707808" lon="0.939336">
        <ele>1839.2</ele>
        <time>1970-01-01T10:54:51.000Z</time>
      </trkpt>
      <trkpt lat="42.707769" lon="0.939203">
        <ele>1838.4</ele>
        <time>1970-01-01T10:54:53.000Z</time>
      </trkpt>
      <trkpt lat="42.707737" lon="0.939066">
        <ele>1837.4</ele>
        <time>1970-01-01T10:54:55.000Z</time>
      </trkpt>
      <trkpt lat="42.707715" lon="0.938935">
        <ele>1836.2</ele>
        <time>1970-01-01T10:54:57.000Z</time>
      </trkpt>
      <trkpt lat="42.707694" lon="0.938798">
        <ele>1835</ele>
        <time>1970-01-01T10:54:59.000Z</time>
      </trkpt>
      <trkpt lat="42.707655" lon="0.938598">
        <ele>1833.8</ele>
        <time>1970-01-01T10:55:02.000Z</time>
      </trkpt>
      <trkpt lat="42.70763" lon="0.938468">
        <ele>1832.4</ele>
        <time>1970-01-01T10:55:04.000Z</time>
      </trkpt>
      <trkpt lat="42.707581" lon="0.938292">
        <ele>1831.4</ele>
        <time>1970-01-01T10:55:07.000Z</time>
      </trkpt>
      <trkpt lat="42.707546" lon="0.93818">
        <ele>1831</ele>
        <time>1970-01-01T10:55:09.000Z</time>
      </trkpt>
      <trkpt lat="42.707522" lon="0.938068">
        <ele>1829.8</ele>
        <time>1970-01-01T10:55:11.000Z</time>
      </trkpt>
      <trkpt lat="42.707509" lon="0.938008">
        <ele>1828.8</ele>
        <time>1970-01-01T10:55:12.000Z</time>
      </trkpt>
      <trkpt lat="42.7075" lon="0.937947">
        <ele>1827.8</ele>
        <time>1970-01-01T10:55:13.000Z</time>
      </trkpt>
      <trkpt lat="42.707497" lon="0.937885">
        <ele>1827.2</ele>
        <time>1970-01-01T10:55:14.000Z</time>
      </trkpt>
      <trkpt lat="42.707478" lon="0.937291">
        <ele>1828.2</ele>
        <time>1970-01-01T10:55:27.000Z</time>
      </trkpt>
      <trkpt lat="42.707467" lon="0.937027">
        <ele>1829.2</ele>
        <time>1970-01-01T10:55:35.000Z</time>
      </trkpt>
      <trkpt lat="42.707313" lon="0.936855">
        <ele>1829</ele>
        <time>1970-01-01T10:55:43.000Z</time>
      </trkpt>
      <trkpt lat="42.707194" lon="0.936625">
        <ele>1829.6</ele>
        <time>1970-01-01T10:55:54.000Z</time>
      </trkpt>
      <trkpt lat="42.707196" lon="0.936569">
        <ele>1829.2</ele>
        <time>1970-01-01T10:56:16.000Z</time>
      </trkpt>
      <trkpt lat="42.707194" lon="0.936303">
        <ele>1828.4</ele>
        <time>1970-01-01T10:56:21.000Z</time>
      </trkpt>
      <trkpt lat="42.707231" lon="0.935988">
        <ele>1827.2</ele>
        <time>1970-01-01T10:56:26.000Z</time>
      </trkpt>
      <trkpt lat="42.707275" lon="0.935705">
        <ele>1826.2</ele>
        <time>1970-01-01T10:56:30.000Z</time>
      </trkpt>
      <trkpt lat="42.70731" lon="0.935492">
        <ele>1824.8</ele>
        <time>1970-01-01T10:56:33.000Z</time>
      </trkpt>
      <trkpt lat="42.707342" lon="0.935311">
        <ele>1823.6</ele>
        <time>1970-01-01T10:56:36.000Z</time>
      </trkpt>
      <trkpt lat="42.707389" lon="0.935155">
        <ele>1822.6</ele>
        <time>1970-01-01T10:56:39.000Z</time>
      </trkpt>
      <trkpt lat="42.707414" lon="0.9351">
        <ele>1822.2</ele>
        <time>1970-01-01T10:56:40.000Z</time>
      </trkpt>
      <trkpt lat="42.707466" lon="0.934968">
        <ele>1820.6</ele>
        <time>1970-01-01T10:56:42.000Z</time>
      </trkpt>
      <trkpt lat="42.707511" lon="0.934809">
        <ele>1819.4</ele>
        <time>1970-01-01T10:56:44.000Z</time>
      </trkpt>
      <trkpt lat="42.707549" lon="0.934634">
        <ele>1818.2</ele>
        <time>1970-01-01T10:56:46.000Z</time>
      </trkpt>
      <trkpt lat="42.707628" lon="0.934384">
        <ele>1817</ele>
        <time>1970-01-01T10:56:49.000Z</time>
      </trkpt>
      <trkpt lat="42.707695" lon="0.934236">
        <ele>1815.2</ele>
        <time>1970-01-01T10:56:51.000Z</time>
      </trkpt>
      <trkpt lat="42.707761" lon="0.934087">
        <ele>1813.8</ele>
        <time>1970-01-01T10:56:53.000Z</time>
      </trkpt>
      <trkpt lat="42.707821" lon="0.933921">
        <ele>1812.4</ele>
        <time>1970-01-01T10:56:55.000Z</time>
      </trkpt>
      <trkpt lat="42.707843" lon="0.933834">
        <ele>1811.8</ele>
        <time>1970-01-01T10:56:56.000Z</time>
      </trkpt>
      <trkpt lat="42.70787" lon="0.933665">
        <ele>1810.8</ele>
        <time>1970-01-01T10:56:58.000Z</time>
      </trkpt>
      <trkpt lat="42.707875" lon="0.933522">
        <ele>1809.4</ele>
        <time>1970-01-01T10:57:00.000Z</time>
      </trkpt>
      <trkpt lat="42.707876" lon="0.933463">
        <ele>1809</ele>
        <time>1970-01-01T10:57:01.000Z</time>
      </trkpt>
      <trkpt lat="42.707871" lon="0.93334">
        <ele>1808.2</ele>
        <time>1970-01-01T10:57:03.000Z</time>
      </trkpt>
      <trkpt lat="42.707857" lon="0.933201">
        <ele>1807.2</ele>
        <time>1970-01-01T10:57:05.000Z</time>
      </trkpt>
      <trkpt lat="42.707838" lon="0.933018">
        <ele>1806</ele>
        <time>1970-01-01T10:57:08.000Z</time>
      </trkpt>
      <trkpt lat="42.707827" lon="0.932964">
        <ele>1805.4</ele>
        <time>1970-01-01T10:57:11.000Z</time>
      </trkpt>
      <trkpt lat="42.707839" lon="0.932978">
        <ele>1805.8</ele>
        <time>1970-01-01T11:02:12.000Z</time>
      </trkpt>
      <trkpt lat="42.707841" lon="0.932767">
        <ele>1805.4</ele>
        <time>1970-01-01T11:02:18.000Z</time>
      </trkpt>
      <trkpt lat="42.707831" lon="0.932691">
        <ele>1804.8</ele>
        <time>1970-01-01T11:02:22.000Z</time>
      </trkpt>
      <trkpt lat="42.707827" lon="0.932608">
        <ele>1804</ele>
        <time>1970-01-01T11:02:27.000Z</time>
      </trkpt>
      <trkpt lat="42.707818" lon="0.932455">
        <ele>1803.6</ele>
        <time>1970-01-01T11:02:30.000Z</time>
      </trkpt>
      <trkpt lat="42.707795" lon="0.932331">
        <ele>1803</ele>
        <time>1970-01-01T11:02:32.000Z</time>
      </trkpt>
      <trkpt lat="42.707785" lon="0.932125">
        <ele>1801.8</ele>
        <time>1970-01-01T11:02:35.000Z</time>
      </trkpt>
      <trkpt lat="42.707793" lon="0.931943">
        <ele>1800.6</ele>
        <time>1970-01-01T11:02:38.000Z</time>
      </trkpt>
      <trkpt lat="42.707805" lon="0.931729">
        <ele>1799.6</ele>
        <time>1970-01-01T11:02:41.000Z</time>
      </trkpt>
      <trkpt lat="42.707808" lon="0.931657">
        <ele>1799.2</ele>
        <time>1970-01-01T11:02:42.000Z</time>
      </trkpt>
      <trkpt lat="42.70781" lon="0.931529">
        <ele>1798.2</ele>
        <time>1970-01-01T11:02:44.000Z</time>
      </trkpt>
      <trkpt lat="42.707811" lon="0.931402">
        <ele>1796.8</ele>
        <time>1970-01-01T11:02:47.000Z</time>
      </trkpt>
      <trkpt lat="42.707772" lon="0.93125">
        <ele>1795.8</ele>
        <time>1970-01-01T11:02:51.000Z</time>
      </trkpt>
      <trkpt lat="42.707768" lon="0.930833">
        <ele>1794.2</ele>
        <time>1970-01-01T11:03:03.000Z</time>
      </trkpt>
      <trkpt lat="42.707789" lon="0.930712">
        <ele>1793</ele>
        <time>1970-01-01T11:03:05.000Z</time>
      </trkpt>
      <trkpt lat="42.707797" lon="0.930646">
        <ele>1792.6</ele>
        <time>1970-01-01T11:03:06.000Z</time>
      </trkpt>
      <trkpt lat="42.707794" lon="0.930498">
        <ele>1791.6</ele>
        <time>1970-01-01T11:03:08.000Z</time>
      </trkpt>
      <trkpt lat="42.70777" lon="0.930237">
        <ele>1790.4</ele>
        <time>1970-01-01T11:03:11.000Z</time>
      </trkpt>
      <trkpt lat="42.707746" lon="0.930049">
        <ele>1789.2</ele>
        <time>1970-01-01T11:03:13.000Z</time>
      </trkpt>
      <trkpt lat="42.707719" lon="0.929861">
        <ele>1788</ele>
        <time>1970-01-01T11:03:15.000Z</time>
      </trkpt>
      <trkpt lat="42.707703" lon="0.929668">
        <ele>1786.6</ele>
        <time>1970-01-01T11:03:17.000Z</time>
      </trkpt>
      <trkpt lat="42.707696" lon="0.929451">
        <ele>1785.2</ele>
        <time>1970-01-01T11:03:19.000Z</time>
      </trkpt>
      <trkpt lat="42.707704" lon="0.92922">
        <ele>1784</ele>
        <time>1970-01-01T11:03:21.000Z</time>
      </trkpt>
      <trkpt lat="42.707702" lon="0.928977">
        <ele>1782.2</ele>
        <time>1970-01-01T11:03:23.000Z</time>
      </trkpt>
      <trkpt lat="42.707702" lon="0.928851">
        <ele>1781.2</ele>
        <time>1970-01-01T11:03:24.000Z</time>
      </trkpt>
      <trkpt lat="42.707694" lon="0.928598">
        <ele>1779.6</ele>
        <time>1970-01-01T11:03:26.000Z</time>
      </trkpt>
      <trkpt lat="42.707683" lon="0.928385">
        <ele>1778.2</ele>
        <time>1970-01-01T11:03:28.000Z</time>
      </trkpt>
      <trkpt lat="42.707684" lon="0.928215">
        <ele>1776.8</ele>
        <time>1970-01-01T11:03:30.000Z</time>
      </trkpt>
      <trkpt lat="42.707676" lon="0.928044">
        <ele>1775.4</ele>
        <time>1970-01-01T11:03:32.000Z</time>
      </trkpt>
      <trkpt lat="42.707677" lon="0.927869">
        <ele>1774</ele>
        <time>1970-01-01T11:03:34.000Z</time>
      </trkpt>
      <trkpt lat="42.707679" lon="0.92771">
        <ele>1773</ele>
        <time>1970-01-01T11:03:36.000Z</time>
      </trkpt>
      <trkpt lat="42.707704" lon="0.927488">
        <ele>1771.8</ele>
        <time>1970-01-01T11:03:39.000Z</time>
      </trkpt>
      <trkpt lat="42.707716" lon="0.92734">
        <ele>1770.6</ele>
        <time>1970-01-01T11:03:41.000Z</time>
      </trkpt>
      <trkpt lat="42.707723" lon="0.92719">
        <ele>1769.4</ele>
        <time>1970-01-01T11:03:43.000Z</time>
      </trkpt>
      <trkpt lat="42.707727" lon="0.927104">
        <ele>1768.4</ele>
        <time>1970-01-01T11:03:44.000Z</time>
      </trkpt>
      <trkpt lat="42.707744" lon="0.926911">
        <ele>1766.8</ele>
        <time>1970-01-01T11:03:46.000Z</time>
      </trkpt>
      <trkpt lat="42.707773" lon="0.926686">
        <ele>1765.6</ele>
        <time>1970-01-01T11:03:48.000Z</time>
      </trkpt>
      <trkpt lat="42.707793" lon="0.926573">
        <ele>1764.4</ele>
        <time>1970-01-01T11:03:49.000Z</time>
      </trkpt>
      <trkpt lat="42.70781" lon="0.926458">
        <ele>1763.8</ele>
        <time>1970-01-01T11:03:50.000Z</time>
      </trkpt>
      <trkpt lat="42.707832" lon="0.926225">
        <ele>1762.8</ele>
        <time>1970-01-01T11:03:52.000Z</time>
      </trkpt>
      <trkpt lat="42.707858" lon="0.925981">
        <ele>1761.2</ele>
        <time>1970-01-01T11:03:54.000Z</time>
      </trkpt>
      <trkpt lat="42.707891" lon="0.92574">
        <ele>1759.6</ele>
        <time>1970-01-01T11:03:56.000Z</time>
      </trkpt>
      <trkpt lat="42.707908" lon="0.925622">
        <ele>1758.2</ele>
        <time>1970-01-01T11:03:57.000Z</time>
      </trkpt>
      <trkpt lat="42.707908" lon="0.925622">
        <ele>1756.6</ele>
        <time>1970-01-01T11:03:59.000Z</time>
      </trkpt>
      <trkpt lat="42.707966" lon="0.92518">
        <ele>1755.2</ele>
        <time>1970-01-01T11:04:01.000Z</time>
      </trkpt>
      <trkpt lat="42.707973" lon="0.925062">
        <ele>1754.4</ele>
        <time>1970-01-01T11:04:02.000Z</time>
      </trkpt>
      <trkpt lat="42.707981" lon="0.924943">
        <ele>1753.8</ele>
        <time>1970-01-01T11:04:03.000Z</time>
      </trkpt>
      <trkpt lat="42.708003" lon="0.924706">
        <ele>1752.4</ele>
        <time>1970-01-01T11:04:05.000Z</time>
      </trkpt>
      <trkpt lat="42.708023" lon="0.924477">
        <ele>1750.8</ele>
        <time>1970-01-01T11:04:07.000Z</time>
      </trkpt>
      <trkpt lat="42.708049" lon="0.924268">
        <ele>1749.2</ele>
        <time>1970-01-01T11:04:09.000Z</time>
      </trkpt>
      <trkpt lat="42.708057" lon="0.924163">
        <ele>1748.6</ele>
        <time>1970-01-01T11:04:10.000Z</time>
      </trkpt>
      <trkpt lat="42.70806" lon="0.92406">
        <ele>1748.2</ele>
        <time>1970-01-01T11:04:11.000Z</time>
      </trkpt>
      <trkpt lat="42.708061" lon="0.923857">
        <ele>1747</ele>
        <time>1970-01-01T11:04:13.000Z</time>
      </trkpt>
      <trkpt lat="42.708075" lon="0.923644">
        <ele>1745.8</ele>
        <time>1970-01-01T11:04:15.000Z</time>
      </trkpt>
      <trkpt lat="42.70812" lon="0.923323">
        <ele>1744.8</ele>
        <time>1970-01-01T11:04:18.000Z</time>
      </trkpt>
      <trkpt lat="42.708165" lon="0.923143">
        <ele>1743</ele>
        <time>1970-01-01T11:04:20.000Z</time>
      </trkpt>
      <trkpt lat="42.708244" lon="0.922867">
        <ele>1741.4</ele>
        <time>1970-01-01T11:04:23.000Z</time>
      </trkpt>
      <trkpt lat="42.708273" lon="0.922767">
        <ele>1740.4</ele>
        <time>1970-01-01T11:04:24.000Z</time>
      </trkpt>
      <trkpt lat="42.708334" lon="0.922558">
        <ele>1738.4</ele>
        <time>1970-01-01T11:04:26.000Z</time>
      </trkpt>
      <trkpt lat="42.708361" lon="0.922452">
        <ele>1737.2</ele>
        <time>1970-01-01T11:04:27.000Z</time>
      </trkpt>
      <trkpt lat="42.708384" lon="0.922345">
        <ele>1735.8</ele>
        <time>1970-01-01T11:04:28.000Z</time>
      </trkpt>
      <trkpt lat="42.7084" lon="0.922233">
        <ele>1734.6</ele>
        <time>1970-01-01T11:04:29.000Z</time>
      </trkpt>
      <trkpt lat="42.708421" lon="0.922004">
        <ele>1733.4</ele>
        <time>1970-01-01T11:04:31.000Z</time>
      </trkpt>
      <trkpt lat="42.708379" lon="0.921664">
        <ele>1732</ele>
        <time>1970-01-01T11:04:34.000Z</time>
      </trkpt>
      <trkpt lat="42.708408" lon="0.92138">
        <ele>1730.6</ele>
        <time>1970-01-01T11:04:37.000Z</time>
      </trkpt>
      <trkpt lat="42.708429" lon="0.921311">
        <ele>1730</ele>
        <time>1970-01-01T11:04:38.000Z</time>
      </trkpt>
      <trkpt lat="42.708444" lon="0.921253">
        <ele>1729.4</ele>
        <time>1970-01-01T11:04:39.000Z</time>
      </trkpt>
      <trkpt lat="42.708448" lon="0.9212">
        <ele>1728.6</ele>
        <time>1970-01-01T11:04:42.000Z</time>
      </trkpt>
      <trkpt lat="42.708473" lon="0.921152">
        <ele>1728.8</ele>
        <time>1970-01-01T11:09:19.000Z</time>
      </trkpt>
      <trkpt lat="42.708547" lon="0.92097">
        <ele>1728</ele>
        <time>1970-01-01T11:09:24.000Z</time>
      </trkpt>
      <trkpt lat="42.70864" lon="0.920744">
        <ele>1726.6</ele>
        <time>1970-01-01T11:09:28.000Z</time>
      </trkpt>
      <trkpt lat="42.708768" lon="0.920654">
        <ele>1725.8</ele>
        <time>1970-01-01T11:09:31.000Z</time>
      </trkpt>
      <trkpt lat="42.708816" lon="0.920634">
        <ele>1725</ele>
        <time>1970-01-01T11:09:32.000Z</time>
      </trkpt>
      <trkpt lat="42.708912" lon="0.920587">
        <ele>1724</ele>
        <time>1970-01-01T11:09:34.000Z</time>
      </trkpt>
      <trkpt lat="42.709042" lon="0.920515">
        <ele>1722</ele>
        <time>1970-01-01T11:09:37.000Z</time>
      </trkpt>
      <trkpt lat="42.709088" lon="0.920499">
        <ele>1721.4</ele>
        <time>1970-01-01T11:09:38.000Z</time>
      </trkpt>
      <trkpt lat="42.709136" lon="0.920501">
        <ele>1720.8</ele>
        <time>1970-01-01T11:09:39.000Z</time>
      </trkpt>
      <trkpt lat="42.709242" lon="0.92052">
        <ele>1719.4</ele>
        <time>1970-01-01T11:09:41.000Z</time>
      </trkpt>
      <trkpt lat="42.709338" lon="0.920487">
        <ele>1717.8</ele>
        <time>1970-01-01T11:09:43.000Z</time>
      </trkpt>
      <trkpt lat="42.709365" lon="0.920381">
        <ele>1716.4</ele>
        <time>1970-01-01T11:09:45.000Z</time>
      </trkpt>
      <trkpt lat="42.709343" lon="0.920324">
        <ele>1715</ele>
        <time>1970-01-01T11:09:46.000Z</time>
      </trkpt>
      <trkpt lat="42.709245" lon="0.920234">
        <ele>1713.4</ele>
        <time>1970-01-01T11:09:48.000Z</time>
      </trkpt>
      <trkpt lat="42.709123" lon="0.920177">
        <ele>1711.8</ele>
        <time>1970-01-01T11:09:50.000Z</time>
      </trkpt>
      <trkpt lat="42.709073" lon="0.920151">
        <ele>1711.2</ele>
        <time>1970-01-01T11:09:51.000Z</time>
      </trkpt>
      <trkpt lat="42.709027" lon="0.920122">
        <ele>1710.6</ele>
        <time>1970-01-01T11:09:52.000Z</time>
      </trkpt>
      <trkpt lat="42.708927" lon="0.919974">
        <ele>1709.6</ele>
        <time>1970-01-01T11:09:55.000Z</time>
      </trkpt>
      <trkpt lat="42.708974" lon="0.919837">
        <ele>1708.4</ele>
        <time>1970-01-01T11:09:59.000Z</time>
      </trkpt>
      <trkpt lat="42.709031" lon="0.919863">
        <ele>1707.2</ele>
        <time>1970-01-01T11:10:01.000Z</time>
      </trkpt>
      <trkpt lat="42.709104" lon="0.919883">
        <ele>1705.8</ele>
        <time>1970-01-01T11:10:03.000Z</time>
      </trkpt>
      <trkpt lat="42.709144" lon="0.91988">
        <ele>1705.4</ele>
        <time>1970-01-01T11:10:04.000Z</time>
      </trkpt>
      <trkpt lat="42.709186" lon="0.919875">
        <ele>1704.8</ele>
        <time>1970-01-01T11:10:05.000Z</time>
      </trkpt>
      <trkpt lat="42.709341" lon="0.919909">
        <ele>1703.4</ele>
        <time>1970-01-01T11:10:08.000Z</time>
      </trkpt>
      <trkpt lat="42.709393" lon="0.919932">
        <ele>1702.8</ele>
        <time>1970-01-01T11:10:09.000Z</time>
      </trkpt>
      <trkpt lat="42.709438" lon="0.919959">
        <ele>1702.2</ele>
        <time>1970-01-01T11:10:10.000Z</time>
      </trkpt>
      <trkpt lat="42.70947" lon="0.919989">
        <ele>1701.2</ele>
        <time>1970-01-01T11:10:11.000Z</time>
      </trkpt>
      <trkpt lat="42.709572" lon="0.9201">
        <ele>1699.8</ele>
        <time>1970-01-01T11:10:14.000Z</time>
      </trkpt>
      <trkpt lat="42.709654" lon="0.9202">
        <ele>1699.2</ele>
        <time>1970-01-01T11:10:16.000Z</time>
      </trkpt>
      <trkpt lat="42.7097" lon="0.920245">
        <ele>1698.4</ele>
        <time>1970-01-01T11:10:17.000Z</time>
      </trkpt>
      <trkpt lat="42.709813" lon="0.920303">
        <ele>1697.2</ele>
        <time>1970-01-01T11:10:19.000Z</time>
      </trkpt>
      <trkpt lat="42.709871" lon="0.920314">
        <ele>1696.2</ele>
        <time>1970-01-01T11:10:20.000Z</time>
      </trkpt>
      <trkpt lat="42.709997" lon="0.920346">
        <ele>1694.8</ele>
        <time>1970-01-01T11:10:22.000Z</time>
      </trkpt>
      <trkpt lat="42.710131" lon="0.920383">
        <ele>1693.2</ele>
        <time>1970-01-01T11:10:24.000Z</time>
      </trkpt>
      <trkpt lat="42.710265" lon="0.920418">
        <ele>1691.6</ele>
        <time>1970-01-01T11:10:26.000Z</time>
      </trkpt>
      <trkpt lat="42.710328" lon="0.920428">
        <ele>1690.6</ele>
        <time>1970-01-01T11:10:27.000Z</time>
      </trkpt>
      <trkpt lat="42.710387" lon="0.92043">
        <ele>1689.4</ele>
        <time>1970-01-01T11:10:28.000Z</time>
      </trkpt>
      <trkpt lat="42.710438" lon="0.920425">
        <ele>1688.4</ele>
        <time>1970-01-01T11:10:29.000Z</time>
      </trkpt>
      <trkpt lat="42.71052" lon="0.920387">
        <ele>1687.2</ele>
        <time>1970-01-01T11:10:31.000Z</time>
      </trkpt>
      <trkpt lat="42.71064" lon="0.92032">
        <ele>1685.8</ele>
        <time>1970-01-01T11:10:34.000Z</time>
      </trkpt>
      <trkpt lat="42.710758" lon="0.920254">
        <ele>1684.4</ele>
        <time>1970-01-01T11:10:37.000Z</time>
      </trkpt>
      <trkpt lat="42.71086" lon="0.920205">
        <ele>1683</ele>
        <time>1970-01-01T11:10:39.000Z</time>
      </trkpt>
      <trkpt lat="42.71097" lon="0.920153">
        <ele>1681.8</ele>
        <time>1970-01-01T11:10:41.000Z</time>
      </trkpt>
      <trkpt lat="42.711024" lon="0.92012">
        <ele>1681.4</ele>
        <time>1970-01-01T11:10:42.000Z</time>
      </trkpt>
      <trkpt lat="42.711082" lon="0.920084">
        <ele>1680.8</ele>
        <time>1970-01-01T11:10:43.000Z</time>
      </trkpt>
      <trkpt lat="42.711298" lon="0.920042">
        <ele>1679.2</ele>
        <time>1970-01-01T11:10:46.000Z</time>
      </trkpt>
      <trkpt lat="42.711379" lon="0.920031">
        <ele>1678.2</ele>
        <time>1970-01-01T11:10:47.000Z</time>
      </trkpt>
      <trkpt lat="42.71154" lon="0.919974">
        <ele>1677.2</ele>
        <time>1970-01-01T11:10:49.000Z</time>
      </trkpt>
      <trkpt lat="42.711652" lon="0.919863">
        <ele>1675.8</ele>
        <time>1970-01-01T11:10:51.000Z</time>
      </trkpt>
      <trkpt lat="42.711741" lon="0.919715">
        <ele>1674.2</ele>
        <time>1970-01-01T11:10:53.000Z</time>
      </trkpt>
      <trkpt lat="42.711847" lon="0.919556">
        <ele>1673.4</ele>
        <time>1970-01-01T11:10:55.000Z</time>
      </trkpt>
      <trkpt lat="42.711988" lon="0.91944">
        <ele>1672.2</ele>
        <time>1970-01-01T11:10:57.000Z</time>
      </trkpt>
      <trkpt lat="42.712103" lon="0.919382">
        <ele>1671.2</ele>
        <time>1970-01-01T11:10:59.000Z</time>
      </trkpt>
      <trkpt lat="42.712147" lon="0.919364">
        <ele>1670.8</ele>
        <time>1970-01-01T11:11:00.000Z</time>
      </trkpt>
      <trkpt lat="42.712225" lon="0.919336">
        <ele>1669.8</ele>
        <time>1970-01-01T11:11:02.000Z</time>
      </trkpt>
      <trkpt lat="42.712316" lon="0.919317">
        <ele>1668.6</ele>
        <time>1970-01-01T11:11:05.000Z</time>
      </trkpt>
      <trkpt lat="42.712387" lon="0.919314">
        <ele>1667.2</ele>
        <time>1970-01-01T11:11:09.000Z</time>
      </trkpt>
      <trkpt lat="42.712516" lon="0.919285">
        <ele>1666</ele>
        <time>1970-01-01T11:11:13.000Z</time>
      </trkpt>
      <trkpt lat="42.712556" lon="0.919274">
        <ele>1665.4</ele>
        <time>1970-01-01T11:11:14.000Z</time>
      </trkpt>
      <trkpt lat="42.712639" lon="0.919252">
        <ele>1664.8</ele>
        <time>1970-01-01T11:11:16.000Z</time>
      </trkpt>
      <trkpt lat="42.712764" lon="0.919203">
        <ele>1663.8</ele>
        <time>1970-01-01T11:11:19.000Z</time>
      </trkpt>
      <trkpt lat="42.712858" lon="0.919197">
        <ele>1663</ele>
        <time>1970-01-01T11:11:21.000Z</time>
      </trkpt>
      <trkpt lat="42.712894" lon="0.919203">
        <ele>1661.8</ele>
        <time>1970-01-01T11:11:22.000Z</time>
      </trkpt>
      <trkpt lat="42.712993" lon="0.919206">
        <ele>1660.4</ele>
        <time>1970-01-01T11:11:25.000Z</time>
      </trkpt>
      <trkpt lat="42.713102" lon="0.919253">
        <ele>1659.4</ele>
        <time>1970-01-01T11:11:28.000Z</time>
      </trkpt>
      <trkpt lat="42.713214" lon="0.919309">
        <ele>1657.8</ele>
        <time>1970-01-01T11:11:31.000Z</time>
      </trkpt>
      <trkpt lat="42.713316" lon="0.919308">
        <ele>1656.2</ele>
        <time>1970-01-01T11:11:34.000Z</time>
      </trkpt>
      <trkpt lat="42.7134" lon="0.919309">
        <ele>1655</ele>
        <time>1970-01-01T11:11:37.000Z</time>
      </trkpt>
      <trkpt lat="42.713499" lon="0.919304">
        <ele>1654</ele>
        <time>1970-01-01T11:11:40.000Z</time>
      </trkpt>
      <trkpt lat="42.713592" lon="0.919316">
        <ele>1653</ele>
        <time>1970-01-01T11:11:42.000Z</time>
      </trkpt>
      <trkpt lat="42.71368" lon="0.919336">
        <ele>1651.8</ele>
        <time>1970-01-01T11:11:44.000Z</time>
      </trkpt>
      <trkpt lat="42.713757" lon="0.919382">
        <ele>1650.4</ele>
        <time>1970-01-01T11:11:46.000Z</time>
      </trkpt>
      <trkpt lat="42.713831" lon="0.919449">
        <ele>1648.6</ele>
        <time>1970-01-01T11:11:48.000Z</time>
      </trkpt>
      <trkpt lat="42.713886" lon="0.919515">
        <ele>1647.6</ele>
        <time>1970-01-01T11:11:50.000Z</time>
      </trkpt>
      <trkpt lat="42.713914" lon="0.919549">
        <ele>1646.4</ele>
        <time>1970-01-01T11:11:53.000Z</time>
      </trkpt>
      <trkpt lat="42.713947" lon="0.919567">
        <ele>1645.4</ele>
        <time>1970-01-01T11:12:32.000Z</time>
      </trkpt>
      <trkpt lat="42.714048" lon="0.919634">
        <ele>1644</ele>
        <time>1970-01-01T11:12:36.000Z</time>
      </trkpt>
      <trkpt lat="42.714178" lon="0.919712">
        <ele>1642.8</ele>
        <time>1970-01-01T11:12:39.000Z</time>
      </trkpt>
      <trkpt lat="42.714262" lon="0.919759">
        <ele>1641.4</ele>
        <time>1970-01-01T11:12:41.000Z</time>
      </trkpt>
      <trkpt lat="42.714418" lon="0.919872">
        <ele>1640.2</ele>
        <time>1970-01-01T11:12:44.000Z</time>
      </trkpt>
      <trkpt lat="42.71455" lon="0.919953">
        <ele>1638.8</ele>
        <time>1970-01-01T11:12:46.000Z</time>
      </trkpt>
      <trkpt lat="42.714674" lon="0.920019">
        <ele>1637.6</ele>
        <time>1970-01-01T11:12:48.000Z</time>
      </trkpt>
      <trkpt lat="42.714791" lon="0.920088">
        <ele>1636.6</ele>
        <time>1970-01-01T11:12:50.000Z</time>
      </trkpt>
      <trkpt lat="42.714883" lon="0.920138">
        <ele>1635.4</ele>
        <time>1970-01-01T11:12:52.000Z</time>
      </trkpt>
      <trkpt lat="42.714956" lon="0.920174">
        <ele>1634.2</ele>
        <time>1970-01-01T11:12:54.000Z</time>
      </trkpt>
      <trkpt lat="42.715051" lon="0.920239">
        <ele>1633</ele>
        <time>1970-01-01T11:12:57.000Z</time>
      </trkpt>
      <trkpt lat="42.715099" lon="0.920316">
        <ele>1632</ele>
        <time>1970-01-01T11:12:59.000Z</time>
      </trkpt>
      <trkpt lat="42.715138" lon="0.920457">
        <ele>1630.6</ele>
        <time>1970-01-01T11:13:02.000Z</time>
      </trkpt>
      <trkpt lat="42.715175" lon="0.920599">
        <ele>1629.2</ele>
        <time>1970-01-01T11:13:05.000Z</time>
      </trkpt>
      <trkpt lat="42.7152" lon="0.920692">
        <ele>1627.2</ele>
        <time>1970-01-01T11:13:07.000Z</time>
      </trkpt>
      <trkpt lat="42.715222" lon="0.920741">
        <ele>1626.4</ele>
        <time>1970-01-01T11:13:08.000Z</time>
      </trkpt>
      <trkpt lat="42.715255" lon="0.920774">
        <ele>1625.6</ele>
        <time>1970-01-01T11:13:09.000Z</time>
      </trkpt>
      <trkpt lat="42.715329" lon="0.920812">
        <ele>1624.2</ele>
        <time>1970-01-01T11:13:11.000Z</time>
      </trkpt>
      <trkpt lat="42.715412" lon="0.920852">
        <ele>1622.4</ele>
        <time>1970-01-01T11:13:13.000Z</time>
      </trkpt>
      <trkpt lat="42.715504" lon="0.920861">
        <ele>1621</ele>
        <time>1970-01-01T11:13:15.000Z</time>
      </trkpt>
      <trkpt lat="42.715552" lon="0.920861">
        <ele>1620.2</ele>
        <time>1970-01-01T11:13:16.000Z</time>
      </trkpt>
      <trkpt lat="42.715603" lon="0.920855">
        <ele>1619.6</ele>
        <time>1970-01-01T11:13:17.000Z</time>
      </trkpt>
      <trkpt lat="42.715699" lon="0.920835">
        <ele>1618.2</ele>
        <time>1970-01-01T11:13:19.000Z</time>
      </trkpt>
      <trkpt lat="42.71577" lon="0.920825">
        <ele>1617.2</ele>
        <time>1970-01-01T11:13:21.000Z</time>
      </trkpt>
      <trkpt lat="42.715825" lon="0.920812">
        <ele>1616</ele>
        <time>1970-01-01T11:13:23.000Z</time>
      </trkpt>
      <trkpt lat="42.715848" lon="0.920767">
        <ele>1614.6</ele>
        <time>1970-01-01T11:13:25.000Z</time>
      </trkpt>
      <trkpt lat="42.715816" lon="0.920711">
        <ele>1613.4</ele>
        <time>1970-01-01T11:13:27.000Z</time>
      </trkpt>
      <trkpt lat="42.715747" lon="0.920675">
        <ele>1612.2</ele>
        <time>1970-01-01T11:13:29.000Z</time>
      </trkpt>
      <trkpt lat="42.715711" lon="0.920647">
        <ele>1611.6</ele>
        <time>1970-01-01T11:13:30.000Z</time>
      </trkpt>
      <trkpt lat="42.715676" lon="0.920605">
        <ele>1610.8</ele>
        <time>1970-01-01T11:13:31.000Z</time>
      </trkpt>
      <trkpt lat="42.715611" lon="0.920514">
        <ele>1609.4</ele>
        <time>1970-01-01T11:13:33.000Z</time>
      </trkpt>
      <trkpt lat="42.715557" lon="0.920452">
        <ele>1608.2</ele>
        <time>1970-01-01T11:13:35.000Z</time>
      </trkpt>
      <trkpt lat="42.715509" lon="0.92038">
        <ele>1606.8</ele>
        <time>1970-01-01T11:13:38.000Z</time>
      </trkpt>
      <trkpt lat="42.715505" lon="0.92035">
        <ele>1606</ele>
        <time>1970-01-01T11:13:39.000Z</time>
      </trkpt>
      <trkpt lat="42.715511" lon="0.920317">
        <ele>1605.6</ele>
        <time>1970-01-01T11:13:40.000Z</time>
      </trkpt>
      <trkpt lat="42.715543" lon="0.920287">
        <ele>1604.4</ele>
        <time>1970-01-01T11:13:42.000Z</time>
      </trkpt>
      <trkpt lat="42.715607" lon="0.920294">
        <ele>1603.2</ele>
        <time>1970-01-01T11:13:44.000Z</time>
      </trkpt>
      <trkpt lat="42.715683" lon="0.920288">
        <ele>1601.8</ele>
        <time>1970-01-01T11:13:46.000Z</time>
      </trkpt>
      <trkpt lat="42.715757" lon="0.920275">
        <ele>1600.6</ele>
        <time>1970-01-01T11:13:48.000Z</time>
      </trkpt>
      <trkpt lat="42.715801" lon="0.920263">
        <ele>1600.2</ele>
        <time>1970-01-01T11:13:49.000Z</time>
      </trkpt>
      <trkpt lat="42.71589" lon="0.920238">
        <ele>1598.6</ele>
        <time>1970-01-01T11:13:51.000Z</time>
      </trkpt>
      <trkpt lat="42.715967" lon="0.920229">
        <ele>1597.2</ele>
        <time>1970-01-01T11:13:53.000Z</time>
      </trkpt>
      <trkpt lat="42.716046" lon="0.920234">
        <ele>1595.8</ele>
        <time>1970-01-01T11:13:55.000Z</time>
      </trkpt>
      <trkpt lat="42.716125" lon="0.920248">
        <ele>1594.6</ele>
        <time>1970-01-01T11:13:57.000Z</time>
      </trkpt>
      <trkpt lat="42.716188" lon="0.920265">
        <ele>1593.4</ele>
        <time>1970-01-01T11:13:59.000Z</time>
      </trkpt>
      <trkpt lat="42.716258" lon="0.920288">
        <ele>1592.2</ele>
        <time>1970-01-01T11:14:01.000Z</time>
      </trkpt>
      <trkpt lat="42.716319" lon="0.920302">
        <ele>1590.8</ele>
        <time>1970-01-01T11:14:03.000Z</time>
      </trkpt>
      <trkpt lat="42.716347" lon="0.920299">
        <ele>1590</ele>
        <time>1970-01-01T11:14:04.000Z</time>
      </trkpt>
      <trkpt lat="42.71637" lon="0.920286">
        <ele>1589.4</ele>
        <time>1970-01-01T11:14:05.000Z</time>
      </trkpt>
      <trkpt lat="42.716367" lon="0.920241">
        <ele>1588.4</ele>
        <time>1970-01-01T11:14:07.000Z</time>
      </trkpt>
      <trkpt lat="42.71632" lon="0.920188">
        <ele>1587.4</ele>
        <time>1970-01-01T11:14:09.000Z</time>
      </trkpt>
      <trkpt lat="42.716292" lon="0.920161">
        <ele>1587</ele>
        <time>1970-01-01T11:14:10.000Z</time>
      </trkpt>
      <trkpt lat="42.71625" lon="0.920111">
        <ele>1585.6</ele>
        <time>1970-01-01T11:14:12.000Z</time>
      </trkpt>
      <trkpt lat="42.716223" lon="0.920048">
        <ele>1584.6</ele>
        <time>1970-01-01T11:14:14.000Z</time>
      </trkpt>
      <trkpt lat="42.716242" lon="0.919989">
        <ele>1583.2</ele>
        <time>1970-01-01T11:14:16.000Z</time>
      </trkpt>
      <trkpt lat="42.716268" lon="0.919989">
        <ele>1582.4</ele>
        <time>1970-01-01T11:14:18.000Z</time>
      </trkpt>
      <trkpt lat="42.716284" lon="0.919998">
        <ele>1582</ele>
        <time>1970-01-01T11:14:19.000Z</time>
      </trkpt>
      <trkpt lat="42.716311" lon="0.920005">
        <ele>1581.4</ele>
        <time>1970-01-01T11:14:21.000Z</time>
      </trkpt>
      <trkpt lat="42.716379" lon="0.920036">
        <ele>1580</ele>
        <time>1970-01-01T11:14:26.000Z</time>
      </trkpt>
      <trkpt lat="42.716456" lon="0.920078">
        <ele>1578.8</ele>
        <time>1970-01-01T11:14:30.000Z</time>
      </trkpt>
      <trkpt lat="42.716486" lon="0.920104">
        <ele>1577.4</ele>
        <time>1970-01-01T11:14:32.000Z</time>
      </trkpt>
      <trkpt lat="42.716524" lon="0.920139">
        <ele>1576.2</ele>
        <time>1970-01-01T11:14:34.000Z</time>
      </trkpt>
      <trkpt lat="42.71657" lon="0.920178">
        <ele>1575</ele>
        <time>1970-01-01T11:14:36.000Z</time>
      </trkpt>
      <trkpt lat="42.716636" lon="0.920248">
        <ele>1573.6</ele>
        <time>1970-01-01T11:14:39.000Z</time>
      </trkpt>
      <trkpt lat="42.716671" lon="0.920326">
        <ele>1572.8</ele>
        <time>1970-01-01T11:14:41.000Z</time>
      </trkpt>
      <trkpt lat="42.716706" lon="0.920424">
        <ele>1571.6</ele>
        <time>1970-01-01T11:14:43.000Z</time>
      </trkpt>
      <trkpt lat="42.716745" lon="0.920523">
        <ele>1570.2</ele>
        <time>1970-01-01T11:14:45.000Z</time>
      </trkpt>
      <trkpt lat="42.716823" lon="0.920678">
        <ele>1569</ele>
        <time>1970-01-01T11:14:48.000Z</time>
      </trkpt>
      <trkpt lat="42.716961" lon="0.920815">
        <ele>1567</ele>
        <time>1970-01-01T11:14:51.000Z</time>
      </trkpt>
      <trkpt lat="42.716996" lon="0.92084">
        <ele>1566.2</ele>
        <time>1970-01-01T11:14:52.000Z</time>
      </trkpt>
      <trkpt lat="42.717028" lon="0.920862">
        <ele>1565.4</ele>
        <time>1970-01-01T11:14:53.000Z</time>
      </trkpt>
      <trkpt lat="42.717107" lon="0.920891">
        <ele>1564.4</ele>
        <time>1970-01-01T11:14:55.000Z</time>
      </trkpt>
      <trkpt lat="42.717148" lon="0.920901">
        <ele>1564</ele>
        <time>1970-01-01T11:14:56.000Z</time>
      </trkpt>
      <trkpt lat="42.71721" lon="0.920916">
        <ele>1563</ele>
        <time>1970-01-01T11:14:58.000Z</time>
      </trkpt>
      <trkpt lat="42.717237" lon="0.920903">
        <ele>1562.4</ele>
        <time>1970-01-01T11:14:59.000Z</time>
      </trkpt>
      <trkpt lat="42.717252" lon="0.920877">
        <ele>1561.8</ele>
        <time>1970-01-01T11:15:00.000Z</time>
      </trkpt>
      <trkpt lat="42.717242" lon="0.920812">
        <ele>1560.6</ele>
        <time>1970-01-01T11:15:02.000Z</time>
      </trkpt>
      <trkpt lat="42.717204" lon="0.920762">
        <ele>1559.4</ele>
        <time>1970-01-01T11:15:04.000Z</time>
      </trkpt>
      <trkpt lat="42.717169" lon="0.920692">
        <ele>1558.4</ele>
        <time>1970-01-01T11:15:06.000Z</time>
      </trkpt>
      <trkpt lat="42.71715" lon="0.920651">
        <ele>1557.8</ele>
        <time>1970-01-01T11:15:07.000Z</time>
      </trkpt>
      <trkpt lat="42.71711" lon="0.920552">
        <ele>1557</ele>
        <time>1970-01-01T11:15:09.000Z</time>
      </trkpt>
      <trkpt lat="42.717077" lon="0.92047">
        <ele>1555.8</ele>
        <time>1970-01-01T11:15:11.000Z</time>
      </trkpt>
      <trkpt lat="42.717035" lon="0.920393">
        <ele>1554.2</ele>
        <time>1970-01-01T11:15:14.000Z</time>
      </trkpt>
      <trkpt lat="42.717002" lon="0.920304">
        <ele>1552.8</ele>
        <time>1970-01-01T11:15:17.000Z</time>
      </trkpt>
      <trkpt lat="42.716985" lon="0.920226">
        <ele>1551.4</ele>
        <time>1970-01-01T11:15:19.000Z</time>
      </trkpt>
      <trkpt lat="42.716985" lon="0.920156">
        <ele>1550.4</ele>
        <time>1970-01-01T11:15:21.000Z</time>
      </trkpt>
      <trkpt lat="42.71702" lon="0.920139">
        <ele>1549.2</ele>
        <time>1970-01-01T11:15:23.000Z</time>
      </trkpt>
      <trkpt lat="42.717102" lon="0.920131">
        <ele>1547.6</ele>
        <time>1970-01-01T11:15:26.000Z</time>
      </trkpt>
      <trkpt lat="42.717159" lon="0.920074">
        <ele>1546</ele>
        <time>1970-01-01T11:15:28.000Z</time>
      </trkpt>
      <trkpt lat="42.717185" lon="0.920037">
        <ele>1545.4</ele>
        <time>1970-01-01T11:15:29.000Z</time>
      </trkpt>
      <trkpt lat="42.717216" lon="0.919994">
        <ele>1544.6</ele>
        <time>1970-01-01T11:15:30.000Z</time>
      </trkpt>
      <trkpt lat="42.717254" lon="0.919933">
        <ele>1543</ele>
        <time>1970-01-01T11:15:32.000Z</time>
      </trkpt>
      <trkpt lat="42.717295" lon="0.91989">
        <ele>1541.4</ele>
        <time>1970-01-01T11:15:34.000Z</time>
      </trkpt>
      <trkpt lat="42.717315" lon="0.919858">
        <ele>1540.4</ele>
        <time>1970-01-01T11:15:36.000Z</time>
      </trkpt>
      <trkpt lat="42.71736" lon="0.919792">
        <ele>1539</ele>
        <time>1970-01-01T11:15:39.000Z</time>
      </trkpt>
      <trkpt lat="42.717382" lon="0.919733">
        <ele>1538</ele>
        <time>1970-01-01T11:15:41.000Z</time>
      </trkpt>
      <trkpt lat="42.717392" lon="0.9197">
        <ele>1537.6</ele>
        <time>1970-01-01T11:15:42.000Z</time>
      </trkpt>
      <trkpt lat="42.717416" lon="0.919626">
        <ele>1536.6</ele>
        <time>1970-01-01T11:15:44.000Z</time>
      </trkpt>
      <trkpt lat="42.717456" lon="0.919554">
        <ele>1535.4</ele>
        <time>1970-01-01T11:15:46.000Z</time>
      </trkpt>
      <trkpt lat="42.717501" lon="0.919498">
        <ele>1534.2</ele>
        <time>1970-01-01T11:15:48.000Z</time>
      </trkpt>
      <trkpt lat="42.717555" lon="0.919454">
        <ele>1533.6</ele>
        <time>1970-01-01T11:15:50.000Z</time>
      </trkpt>
      <trkpt lat="42.717605" lon="0.9194">
        <ele>1533.2</ele>
        <time>1970-01-01T11:15:52.000Z</time>
      </trkpt>
      <trkpt lat="42.717667" lon="0.919336">
        <ele>1531.6</ele>
        <time>1970-01-01T11:15:54.000Z</time>
      </trkpt>
      <trkpt lat="42.717727" lon="0.919276">
        <ele>1530</ele>
        <time>1970-01-01T11:15:56.000Z</time>
      </trkpt>
      <trkpt lat="42.717763" lon="0.919225">
        <ele>1529</ele>
        <time>1970-01-01T11:15:58.000Z</time>
      </trkpt>
      <trkpt lat="42.717794" lon="0.919125">
        <ele>1527.8</ele>
        <time>1970-01-01T11:16:01.000Z</time>
      </trkpt>
      <trkpt lat="42.717808" lon="0.919064">
        <ele>1526.4</ele>
        <time>1970-01-01T11:16:03.000Z</time>
      </trkpt>
      <trkpt lat="42.717816" lon="0.918953">
        <ele>1525.4</ele>
        <time>1970-01-01T11:16:06.000Z</time>
      </trkpt>
      <trkpt lat="42.717845" lon="0.918838">
        <ele>1523.6</ele>
        <time>1970-01-01T11:16:09.000Z</time>
      </trkpt>
      <trkpt lat="42.717848" lon="0.918805">
        <ele>1523</ele>
        <time>1970-01-01T11:16:10.000Z</time>
      </trkpt>
      <trkpt lat="42.717853" lon="0.91877">
        <ele>1522.2</ele>
        <time>1970-01-01T11:16:11.000Z</time>
      </trkpt>
      <trkpt lat="42.717858" lon="0.918685">
        <ele>1520.8</ele>
        <time>1970-01-01T11:16:13.000Z</time>
      </trkpt>
      <trkpt lat="42.71788" lon="0.918592">
        <ele>1519.6</ele>
        <time>1970-01-01T11:16:16.000Z</time>
      </trkpt>
      <trkpt lat="42.71791" lon="0.918511">
        <ele>1518.6</ele>
        <time>1970-01-01T11:16:19.000Z</time>
      </trkpt>
      <trkpt lat="42.717962" lon="0.918427">
        <ele>1517.2</ele>
        <time>1970-01-01T11:16:22.000Z</time>
      </trkpt>
      <trkpt lat="42.717992" lon="0.918378">
        <ele>1516</ele>
        <time>1970-01-01T11:16:24.000Z</time>
      </trkpt>
      <trkpt lat="42.718031" lon="0.918272">
        <ele>1514.6</ele>
        <time>1970-01-01T11:16:27.000Z</time>
      </trkpt>
      <trkpt lat="42.718072" lon="0.918137">
        <ele>1513.2</ele>
        <time>1970-01-01T11:16:30.000Z</time>
      </trkpt>
      <trkpt lat="42.718113" lon="0.918034">
        <ele>1512.2</ele>
        <time>1970-01-01T11:16:32.000Z</time>
      </trkpt>
      <trkpt lat="42.718127" lon="0.917973">
        <ele>1511.4</ele>
        <time>1970-01-01T11:16:33.000Z</time>
      </trkpt>
      <trkpt lat="42.718133" lon="0.917911">
        <ele>1510.8</ele>
        <time>1970-01-01T11:16:34.000Z</time>
      </trkpt>
      <trkpt lat="42.718132" lon="0.917811">
        <ele>1509.8</ele>
        <time>1970-01-01T11:16:36.000Z</time>
      </trkpt>
      <trkpt lat="42.718131" lon="0.917775">
        <ele>1509.4</ele>
        <time>1970-01-01T11:16:37.000Z</time>
      </trkpt>
      <trkpt lat="42.718133" lon="0.917753">
        <ele>1509</ele>
        <time>1970-01-01T11:16:39.000Z</time>
      </trkpt>
      <trkpt lat="42.718113" lon="0.917695">
        <ele>1509</ele>
        <time>1970-01-01T11:17:09.000Z</time>
      </trkpt>
      <trkpt lat="42.718072" lon="0.917561">
        <ele>1507.8</ele>
        <time>1970-01-01T11:17:13.000Z</time>
      </trkpt>
      <trkpt lat="42.718047" lon="0.917478">
        <ele>1506.8</ele>
        <time>1970-01-01T11:17:15.000Z</time>
      </trkpt>
      <trkpt lat="42.718018" lon="0.917353">
        <ele>1505.8</ele>
        <time>1970-01-01T11:17:17.000Z</time>
      </trkpt>
      <trkpt lat="42.717999" lon="0.917233">
        <ele>1504.6</ele>
        <time>1970-01-01T11:17:19.000Z</time>
      </trkpt>
      <trkpt lat="42.717978" lon="0.917164">
        <ele>1503.8</ele>
        <time>1970-01-01T11:17:21.000Z</time>
      </trkpt>
      <trkpt lat="42.717971" lon="0.917142">
        <ele>1503.4</ele>
        <time>1970-01-01T11:17:22.000Z</time>
      </trkpt>
      <trkpt lat="42.717921" lon="0.917012">
        <ele>1502.4</ele>
        <time>1970-01-01T11:17:27.000Z</time>
      </trkpt>
      <trkpt lat="42.717912" lon="0.916959">
        <ele>1502.2</ele>
        <time>1970-01-01T11:17:28.000Z</time>
      </trkpt>
      <trkpt lat="42.717878" lon="0.916726">
        <ele>1500.8</ele>
        <time>1970-01-01T11:17:31.000Z</time>
      </trkpt>
      <trkpt lat="42.717879" lon="0.916536">
        <ele>1499.2</ele>
        <time>1970-01-01T11:17:33.000Z</time>
      </trkpt>
      <trkpt lat="42.71789" lon="0.916353">
        <ele>1497.8</ele>
        <time>1970-01-01T11:17:35.000Z</time>
      </trkpt>
      <trkpt lat="42.717908" lon="0.916187">
        <ele>1496.6</ele>
        <time>1970-01-01T11:17:37.000Z</time>
      </trkpt>
      <trkpt lat="42.717924" lon="0.916107">
        <ele>1496.2</ele>
        <time>1970-01-01T11:17:38.000Z</time>
      </trkpt>
      <trkpt lat="42.717976" lon="0.915972">
        <ele>1495.4</ele>
        <time>1970-01-01T11:17:40.000Z</time>
      </trkpt>
      <trkpt lat="42.718054" lon="0.915829">
        <ele>1494.2</ele>
        <time>1970-01-01T11:17:43.000Z</time>
      </trkpt>
      <trkpt lat="42.718108" lon="0.915706">
        <ele>1493</ele>
        <time>1970-01-01T11:17:46.000Z</time>
      </trkpt>
      <trkpt lat="42.718086" lon="0.915624">
        <ele>1492</ele>
        <time>1970-01-01T11:17:48.000Z</time>
      </trkpt>
      <trkpt lat="42.717999" lon="0.915553">
        <ele>1490.6</ele>
        <time>1970-01-01T11:17:51.000Z</time>
      </trkpt>
      <trkpt lat="42.717888" lon="0.915553">
        <ele>1489.4</ele>
        <time>1970-01-01T11:17:54.000Z</time>
      </trkpt>
      <trkpt lat="42.717785" lon="0.91564">
        <ele>1488</ele>
        <time>1970-01-01T11:17:57.000Z</time>
      </trkpt>
      <trkpt lat="42.717752" lon="0.915678">
        <ele>1487.6</ele>
        <time>1970-01-01T11:17:58.000Z</time>
      </trkpt>
      <trkpt lat="42.717722" lon="0.915716">
        <ele>1487</ele>
        <time>1970-01-01T11:17:59.000Z</time>
      </trkpt>
      <trkpt lat="42.717661" lon="0.91583">
        <ele>1486</ele>
        <time>1970-01-01T11:18:02.000Z</time>
      </trkpt>
      <trkpt lat="42.71764" lon="0.915875">
        <ele>1485.8</ele>
        <time>1970-01-01T11:18:03.000Z</time>
      </trkpt>
      <trkpt lat="42.717556" lon="0.91604">
        <ele>1484.4</ele>
        <time>1970-01-01T11:18:06.000Z</time>
      </trkpt>
      <trkpt lat="42.717462" lon="0.916271">
        <ele>1482.6</ele>
        <time>1970-01-01T11:18:09.000Z</time>
      </trkpt>
      <trkpt lat="42.717392" lon="0.916416">
        <ele>1481.6</ele>
        <time>1970-01-01T11:18:11.000Z</time>
      </trkpt>
      <trkpt lat="42.71729" lon="0.916471">
        <ele>1480.2</ele>
        <time>1970-01-01T11:18:13.000Z</time>
      </trkpt>
      <trkpt lat="42.717162" lon="0.916421">
        <ele>1478.8</ele>
        <time>1970-01-01T11:18:15.000Z</time>
      </trkpt>
      <trkpt lat="42.717025" lon="0.916317">
        <ele>1477.4</ele>
        <time>1970-01-01T11:18:17.000Z</time>
      </trkpt>
      <trkpt lat="42.7168" lon="0.916127">
        <ele>1476</ele>
        <time>1970-01-01T11:18:20.000Z</time>
      </trkpt>
      <trkpt lat="42.716722" lon="0.916077">
        <ele>1475.4</ele>
        <time>1970-01-01T11:18:21.000Z</time>
      </trkpt>
      <trkpt lat="42.716634" lon="0.916056">
        <ele>1474.6</ele>
        <time>1970-01-01T11:18:22.000Z</time>
      </trkpt>
      <trkpt lat="42.716548" lon="0.916092">
        <ele>1472.6</ele>
        <time>1970-01-01T11:18:23.000Z</time>
      </trkpt>
      <trkpt lat="42.716464" lon="0.916167">
        <ele>1471.2</ele>
        <time>1970-01-01T11:18:24.000Z</time>
      </trkpt>
      <trkpt lat="42.716384" lon="0.916236">
        <ele>1470</ele>
        <time>1970-01-01T11:18:25.000Z</time>
      </trkpt>
      <trkpt lat="42.716206" lon="0.916245">
        <ele>1468.8</ele>
        <time>1970-01-01T11:18:27.000Z</time>
      </trkpt>
      <trkpt lat="42.715989" lon="0.915997">
        <ele>1467.4</ele>
        <time>1970-01-01T11:18:30.000Z</time>
      </trkpt>
      <trkpt lat="42.715949" lon="0.915702">
        <ele>1465.4</ele>
        <time>1970-01-01T11:18:32.000Z</time>
      </trkpt>
      <trkpt lat="42.715948" lon="0.915557">
        <ele>1464.2</ele>
        <time>1970-01-01T11:18:33.000Z</time>
      </trkpt>
      <trkpt lat="42.71594" lon="0.915428">
        <ele>1463.2</ele>
        <time>1970-01-01T11:18:34.000Z</time>
      </trkpt>
      <trkpt lat="42.715919" lon="0.915315">
        <ele>1462.2</ele>
        <time>1970-01-01T11:18:35.000Z</time>
      </trkpt>
      <trkpt lat="42.715831" lon="0.915126">
        <ele>1460.8</ele>
        <time>1970-01-01T11:18:37.000Z</time>
      </trkpt>
      <trkpt lat="42.71577" lon="0.915042">
        <ele>1459.8</ele>
        <time>1970-01-01T11:18:38.000Z</time>
      </trkpt>
      <trkpt lat="42.715712" lon="0.914944">
        <ele>1459</ele>
        <time>1970-01-01T11:18:39.000Z</time>
      </trkpt>
      <trkpt lat="42.715642" lon="0.91468">
        <ele>1457.2</ele>
        <time>1970-01-01T11:18:41.000Z</time>
      </trkpt>
      <trkpt lat="42.715603" lon="0.914369">
        <ele>1455</ele>
        <time>1970-01-01T11:18:43.000Z</time>
      </trkpt>
      <trkpt lat="42.715583" lon="0.914212">
        <ele>1453.8</ele>
        <time>1970-01-01T11:18:44.000Z</time>
      </trkpt>
      <trkpt lat="42.715561" lon="0.914058">
        <ele>1452.8</ele>
        <time>1970-01-01T11:18:45.000Z</time>
      </trkpt>
      <trkpt lat="42.715533" lon="0.91392">
        <ele>1452</ele>
        <time>1970-01-01T11:18:46.000Z</time>
      </trkpt>
      <trkpt lat="42.7155" lon="0.913796">
        <ele>1451</ele>
        <time>1970-01-01T11:18:47.000Z</time>
      </trkpt>
      <trkpt lat="42.715456" lon="0.913699">
        <ele>1449.6</ele>
        <time>1970-01-01T11:18:48.000Z</time>
      </trkpt>
      <trkpt lat="42.715408" lon="0.913615">
        <ele>1448.4</ele>
        <time>1970-01-01T11:18:49.000Z</time>
      </trkpt>
      <trkpt lat="42.715282" lon="0.913478">
        <ele>1446.8</ele>
        <time>1970-01-01T11:18:51.000Z</time>
      </trkpt>
      <trkpt lat="42.715127" lon="0.913369">
        <ele>1445.8</ele>
        <time>1970-01-01T11:18:53.000Z</time>
      </trkpt>
      <trkpt lat="42.71494" lon="0.913332">
        <ele>1444.2</ele>
        <time>1970-01-01T11:18:55.000Z</time>
      </trkpt>
      <trkpt lat="42.714653" lon="0.9134">
        <ele>1442.6</ele>
        <time>1970-01-01T11:18:58.000Z</time>
      </trkpt>
      <trkpt lat="42.714498" lon="0.913545">
        <ele>1441.4</ele>
        <time>1970-01-01T11:19:00.000Z</time>
      </trkpt>
      <trkpt lat="42.714367" lon="0.91376">
        <ele>1439.6</ele>
        <time>1970-01-01T11:19:02.000Z</time>
      </trkpt>
      <trkpt lat="42.714304" lon="0.913877">
        <ele>1438.6</ele>
        <time>1970-01-01T11:19:03.000Z</time>
      </trkpt>
      <trkpt lat="42.714246" lon="0.913988">
        <ele>1437.8</ele>
        <time>1970-01-01T11:19:04.000Z</time>
      </trkpt>
      <trkpt lat="42.714149" lon="0.914163">
        <ele>1435.8</ele>
        <time>1970-01-01T11:19:06.000Z</time>
      </trkpt>
      <trkpt lat="42.714081" lon="0.91429">
        <ele>1435</ele>
        <time>1970-01-01T11:19:08.000Z</time>
      </trkpt>
      <trkpt lat="42.714036" lon="0.914371">
        <ele>1433.8</ele>
        <time>1970-01-01T11:19:11.000Z</time>
      </trkpt>
      <trkpt lat="42.714034" lon="0.914373">
        <ele>1433.6</ele>
        <time>1970-01-01T11:19:13.000Z</time>
      </trkpt>
      <trkpt lat="42.714013" lon="0.914408">
        <ele>1433.2</ele>
        <time>1970-01-01T11:19:24.000Z</time>
      </trkpt>
      <trkpt lat="42.713962" lon="0.914448">
        <ele>1432.8</ele>
        <time>1970-01-01T11:19:26.000Z</time>
      </trkpt>
      <trkpt lat="42.713886" lon="0.914472">
        <ele>1432.4</ele>
        <time>1970-01-01T11:19:28.000Z</time>
      </trkpt>
      <trkpt lat="42.71379" lon="0.914467">
        <ele>1431.8</ele>
        <time>1970-01-01T11:19:30.000Z</time>
      </trkpt>
      <trkpt lat="42.713628" lon="0.914376">
        <ele>1430</ele>
        <time>1970-01-01T11:19:33.000Z</time>
      </trkpt>
      <trkpt lat="42.713536" lon="0.914234">
        <ele>1428.4</ele>
        <time>1970-01-01T11:19:35.000Z</time>
      </trkpt>
      <trkpt lat="42.713469" lon="0.914049">
        <ele>1427.2</ele>
        <time>1970-01-01T11:19:37.000Z</time>
      </trkpt>
      <trkpt lat="42.713423" lon="0.913844">
        <ele>1426</ele>
        <time>1970-01-01T11:19:39.000Z</time>
      </trkpt>
      <trkpt lat="42.713373" lon="0.913636">
        <ele>1424.6</ele>
        <time>1970-01-01T11:19:41.000Z</time>
      </trkpt>
      <trkpt lat="42.713306" lon="0.913409">
        <ele>1422.4</ele>
        <time>1970-01-01T11:19:43.000Z</time>
      </trkpt>
      <trkpt lat="42.713255" lon="0.913305">
        <ele>1421</ele>
        <time>1970-01-01T11:19:44.000Z</time>
      </trkpt>
      <trkpt lat="42.713119" lon="0.913128">
        <ele>1419.4</ele>
        <time>1970-01-01T11:19:46.000Z</time>
      </trkpt>
      <trkpt lat="42.712962" lon="0.912976">
        <ele>1418</ele>
        <time>1970-01-01T11:19:48.000Z</time>
      </trkpt>
      <trkpt lat="42.712884" lon="0.912887">
        <ele>1416.8</ele>
        <time>1970-01-01T11:19:49.000Z</time>
      </trkpt>
      <trkpt lat="42.712811" lon="0.912787">
        <ele>1416</ele>
        <time>1970-01-01T11:19:50.000Z</time>
      </trkpt>
      <trkpt lat="42.712739" lon="0.912681">
        <ele>1415.4</ele>
        <time>1970-01-01T11:19:51.000Z</time>
      </trkpt>
      <trkpt lat="42.712591" lon="0.91246">
        <ele>1414.2</ele>
        <time>1970-01-01T11:19:53.000Z</time>
      </trkpt>
      <trkpt lat="42.712513" lon="0.912346">
        <ele>1413.2</ele>
        <time>1970-01-01T11:19:54.000Z</time>
      </trkpt>
      <trkpt lat="42.712432" lon="0.912227">
        <ele>1412</ele>
        <time>1970-01-01T11:19:55.000Z</time>
      </trkpt>
      <trkpt lat="42.712348" lon="0.912099">
        <ele>1410.8</ele>
        <time>1970-01-01T11:19:56.000Z</time>
      </trkpt>
      <trkpt lat="42.712263" lon="0.911966">
        <ele>1409.6</ele>
        <time>1970-01-01T11:19:57.000Z</time>
      </trkpt>
      <trkpt lat="42.712179" lon="0.911831">
        <ele>1408.2</ele>
        <time>1970-01-01T11:19:58.000Z</time>
      </trkpt>
      <trkpt lat="42.712093" lon="0.911691">
        <ele>1406.4</ele>
        <time>1970-01-01T11:19:59.000Z</time>
      </trkpt>
      <trkpt lat="42.712006" lon="0.911547">
        <ele>1404.6</ele>
        <time>1970-01-01T11:20:00.000Z</time>
      </trkpt>
      <trkpt lat="42.711923" lon="0.911395">
        <ele>1403.2</ele>
        <time>1970-01-01T11:20:01.000Z</time>
      </trkpt>
      <trkpt lat="42.711852" lon="0.911238">
        <ele>1402.2</ele>
        <time>1970-01-01T11:20:02.000Z</time>
      </trkpt>
      <trkpt lat="42.711797" lon="0.91107">
        <ele>1401.2</ele>
        <time>1970-01-01T11:20:03.000Z</time>
      </trkpt>
      <trkpt lat="42.711748" lon="0.910904">
        <ele>1400</ele>
        <time>1970-01-01T11:20:04.000Z</time>
      </trkpt>
      <trkpt lat="42.711707" lon="0.910732">
        <ele>1398.6</ele>
        <time>1970-01-01T11:20:05.000Z</time>
      </trkpt>
      <trkpt lat="42.711673" lon="0.910557">
        <ele>1397.4</ele>
        <time>1970-01-01T11:20:06.000Z</time>
      </trkpt>
      <trkpt lat="42.711643" lon="0.910376">
        <ele>1396</ele>
        <time>1970-01-01T11:20:07.000Z</time>
      </trkpt>
      <trkpt lat="42.711618" lon="0.910196">
        <ele>1394.4</ele>
        <time>1970-01-01T11:20:08.000Z</time>
      </trkpt>
      <trkpt lat="42.711597" lon="0.910013">
        <ele>1392.6</ele>
        <time>1970-01-01T11:20:09.000Z</time>
      </trkpt>
      <trkpt lat="42.711586" lon="0.909828">
        <ele>1391.4</ele>
        <time>1970-01-01T11:20:10.000Z</time>
      </trkpt>
      <trkpt lat="42.711582" lon="0.909645">
        <ele>1390.2</ele>
        <time>1970-01-01T11:20:11.000Z</time>
      </trkpt>
      <trkpt lat="42.711583" lon="0.909467">
        <ele>1389</ele>
        <time>1970-01-01T11:20:12.000Z</time>
      </trkpt>
      <trkpt lat="42.71158" lon="0.909292">
        <ele>1387.2</ele>
        <time>1970-01-01T11:20:13.000Z</time>
      </trkpt>
      <trkpt lat="42.711565" lon="0.909123">
        <ele>1385.8</ele>
        <time>1970-01-01T11:20:14.000Z</time>
      </trkpt>
      <trkpt lat="42.711544" lon="0.908955">
        <ele>1384.6</ele>
        <time>1970-01-01T11:20:15.000Z</time>
      </trkpt>
      <trkpt lat="42.711515" lon="0.908619">
        <ele>1382.4</ele>
        <time>1970-01-01T11:20:17.000Z</time>
      </trkpt>
      <trkpt lat="42.711514" lon="0.908446">
        <ele>1381.2</ele>
        <time>1970-01-01T11:20:18.000Z</time>
      </trkpt>
      <trkpt lat="42.711515" lon="0.908267">
        <ele>1380.2</ele>
        <time>1970-01-01T11:20:19.000Z</time>
      </trkpt>
      <trkpt lat="42.711511" lon="0.908086">
        <ele>1378.6</ele>
        <time>1970-01-01T11:20:20.000Z</time>
      </trkpt>
      <trkpt lat="42.711527" lon="0.907734">
        <ele>1376.8</ele>
        <time>1970-01-01T11:20:22.000Z</time>
      </trkpt>
      <trkpt lat="42.711546" lon="0.907559">
        <ele>1375.4</ele>
        <time>1970-01-01T11:20:23.000Z</time>
      </trkpt>
      <trkpt lat="42.711555" lon="0.907387">
        <ele>1374.4</ele>
        <time>1970-01-01T11:20:24.000Z</time>
      </trkpt>
      <trkpt lat="42.711547" lon="0.907224">
        <ele>1373.4</ele>
        <time>1970-01-01T11:20:25.000Z</time>
      </trkpt>
      <trkpt lat="42.71149" lon="0.906935">
        <ele>1372.4</ele>
        <time>1970-01-01T11:20:27.000Z</time>
      </trkpt>
      <trkpt lat="42.711467" lon="0.906801">
        <ele>1372</ele>
        <time>1970-01-01T11:20:28.000Z</time>
      </trkpt>
      <trkpt lat="42.711454" lon="0.906668">
        <ele>1371.4</ele>
        <time>1970-01-01T11:20:29.000Z</time>
      </trkpt>
      <trkpt lat="42.711445" lon="0.906546">
        <ele>1370.6</ele>
        <time>1970-01-01T11:20:30.000Z</time>
      </trkpt>
      <trkpt lat="42.711427" lon="0.906432">
        <ele>1370.2</ele>
        <time>1970-01-01T11:20:31.000Z</time>
      </trkpt>
      <trkpt lat="42.711396" lon="0.90633">
        <ele>1369.6</ele>
        <time>1970-01-01T11:20:32.000Z</time>
      </trkpt>
      <trkpt lat="42.7113" lon="0.906134">
        <ele>1368.2</ele>
        <time>1970-01-01T11:20:34.000Z</time>
      </trkpt>
      <trkpt lat="42.711249" lon="0.906038">
        <ele>1367.4</ele>
        <time>1970-01-01T11:20:35.000Z</time>
      </trkpt>
      <trkpt lat="42.711191" lon="0.905944">
        <ele>1366.8</ele>
        <time>1970-01-01T11:20:36.000Z</time>
      </trkpt>
      <trkpt lat="42.71095" lon="0.905604">
        <ele>1365.6</ele>
        <time>1970-01-01T11:20:40.000Z</time>
      </trkpt>
      <trkpt lat="42.710828" lon="0.905483">
        <ele>1364.6</ele>
        <time>1970-01-01T11:20:42.000Z</time>
      </trkpt>
      <trkpt lat="42.710766" lon="0.905441">
        <ele>1364</ele>
        <time>1970-01-01T11:20:43.000Z</time>
      </trkpt>
      <trkpt lat="42.710636" lon="0.905371">
        <ele>1362.8</ele>
        <time>1970-01-01T11:20:45.000Z</time>
      </trkpt>
      <trkpt lat="42.710524" lon="0.905326">
        <ele>1361.8</ele>
        <time>1970-01-01T11:20:47.000Z</time>
      </trkpt>
      <trkpt lat="42.710385" lon="0.905312">
        <ele>1360.8</ele>
        <time>1970-01-01T11:20:51.000Z</time>
      </trkpt>
      <trkpt lat="42.710329" lon="0.905309">
        <ele>1360.4</ele>
        <time>1970-01-01T11:20:56.000Z</time>
      </trkpt>
      <trkpt lat="42.710366" lon="0.905292">
        <ele>1360.2</ele>
        <time>1970-01-01T11:21:14.000Z</time>
      </trkpt>
      <trkpt lat="42.710379" lon="0.905293">
        <ele>1360</ele>
        <time>1970-01-01T11:21:15.000Z</time>
      </trkpt>
      <trkpt lat="42.710387" lon="0.905294">
        <ele>1359.6</ele>
        <time>1970-01-01T11:21:17.000Z</time>
      </trkpt>
      <trkpt lat="42.710327" lon="0.905318">
        <ele>1361</ele>
        <time>1970-01-01T11:22:36.000Z</time>
      </trkpt>
      <trkpt lat="42.710166" lon="0.905342">
        <ele>1361.8</ele>
        <time>1970-01-01T11:22:43.000Z</time>
      </trkpt>
      <trkpt lat="42.710085" lon="0.905337">
        <ele>1362.6</ele>
        <time>1970-01-01T11:22:46.000Z</time>
      </trkpt>
      <trkpt lat="42.709786" lon="0.90533">
        <ele>1364</ele>
        <time>1970-01-01T11:22:56.000Z</time>
      </trkpt>
      <trkpt lat="42.709269" lon="0.905183">
        <ele>1363.4</ele>
        <time>1970-01-01T11:23:09.000Z</time>
      </trkpt>
      <trkpt lat="42.709172" lon="0.905097">
        <ele>1363.2</ele>
        <time>1970-01-01T11:23:11.000Z</time>
      </trkpt>
      <trkpt lat="42.708935" lon="0.904886">
        <ele>1362</ele>
        <time>1970-01-01T11:23:16.000Z</time>
      </trkpt>
      <trkpt lat="42.708743" lon="0.904756">
        <ele>1360.6</ele>
        <time>1970-01-01T11:23:20.000Z</time>
      </trkpt>
      <trkpt lat="42.708634" lon="0.904667">
        <ele>1359</ele>
        <time>1970-01-01T11:23:22.000Z</time>
      </trkpt>
      <trkpt lat="42.708508" lon="0.904562">
        <ele>1357.4</ele>
        <time>1970-01-01T11:23:24.000Z</time>
      </trkpt>
      <trkpt lat="42.708445" lon="0.904501">
        <ele>1356.4</ele>
        <time>1970-01-01T11:23:25.000Z</time>
      </trkpt>
      <trkpt lat="42.708325" lon="0.904371">
        <ele>1354.4</ele>
        <time>1970-01-01T11:23:27.000Z</time>
      </trkpt>
      <trkpt lat="42.708212" lon="0.904241">
        <ele>1352.6</ele>
        <time>1970-01-01T11:23:29.000Z</time>
      </trkpt>
      <trkpt lat="42.708101" lon="0.904121">
        <ele>1351</ele>
        <time>1970-01-01T11:23:31.000Z</time>
      </trkpt>
      <trkpt lat="42.707993" lon="0.904007">
        <ele>1349.8</ele>
        <time>1970-01-01T11:23:33.000Z</time>
      </trkpt>
      <trkpt lat="42.707907" lon="0.903911">
        <ele>1348.2</ele>
        <time>1970-01-01T11:23:35.000Z</time>
      </trkpt>
      <trkpt lat="42.707858" lon="0.90385">
        <ele>1346.8</ele>
        <time>1970-01-01T11:23:37.000Z</time>
      </trkpt>
      <trkpt lat="42.707791" lon="0.903766">
        <ele>1345.8</ele>
        <time>1970-01-01T11:23:43.000Z</time>
      </trkpt>
      <trkpt lat="42.707659" lon="0.903619">
        <ele>1344.8</ele>
        <time>1970-01-01T11:23:49.000Z</time>
      </trkpt>
      <trkpt lat="42.707559" lon="0.903451">
        <ele>1343.6</ele>
        <time>1970-01-01T11:23:54.000Z</time>
      </trkpt>
      <trkpt lat="42.707516" lon="0.903318">
        <ele>1342.8</ele>
        <time>1970-01-01T11:23:59.000Z</time>
      </trkpt>
      <trkpt lat="42.707428" lon="0.903051">
        <ele>1341.8</ele>
        <time>1970-01-01T11:24:08.000Z</time>
      </trkpt>
      <trkpt lat="42.70732" lon="0.902852">
        <ele>1340.8</ele>
        <time>1970-01-01T11:24:15.000Z</time>
      </trkpt>
      <trkpt lat="42.707157" lon="0.902753">
        <ele>1339.2</ele>
        <time>1970-01-01T11:24:20.000Z</time>
      </trkpt>
      <trkpt lat="42.707099" lon="0.902737">
        <ele>1338</ele>
        <time>1970-01-01T11:24:22.000Z</time>
      </trkpt>
      <trkpt lat="42.707012" lon="0.902713">
        <ele>1336.8</ele>
        <time>1970-01-01T11:24:25.000Z</time>
      </trkpt>
      <trkpt lat="42.706927" lon="0.902676">
        <ele>1335.6</ele>
        <time>1970-01-01T11:24:28.000Z</time>
      </trkpt>
      <trkpt lat="42.70687" lon="0.902655">
        <ele>1334.6</ele>
        <time>1970-01-01T11:24:30.000Z</time>
      </trkpt>
      <trkpt lat="42.706776" lon="0.902604">
        <ele>1333.4</ele>
        <time>1970-01-01T11:24:33.000Z</time>
      </trkpt>
      <trkpt lat="42.706662" lon="0.902493">
        <ele>1332.4</ele>
        <time>1970-01-01T11:24:37.000Z</time>
      </trkpt>
      <trkpt lat="42.70656" lon="0.902163">
        <ele>1331.4</ele>
        <time>1970-01-01T11:24:42.000Z</time>
      </trkpt>
      <trkpt lat="42.706523" lon="0.901913">
        <ele>1330.2</ele>
        <time>1970-01-01T11:24:45.000Z</time>
      </trkpt>
      <trkpt lat="42.706445" lon="0.901367">
        <ele>1328.8</ele>
        <time>1970-01-01T11:24:51.000Z</time>
      </trkpt>
      <trkpt lat="42.706404" lon="0.90107">
        <ele>1328</ele>
        <time>1970-01-01T11:24:54.000Z</time>
      </trkpt>
      <trkpt lat="42.706359" lon="0.900708">
        <ele>1326.6</ele>
        <time>1970-01-01T11:24:58.000Z</time>
      </trkpt>
      <trkpt lat="42.706332" lon="0.900472">
        <ele>1325.4</ele>
        <time>1970-01-01T11:25:01.000Z</time>
      </trkpt>
      <trkpt lat="42.706316" lon="0.9003">
        <ele>1324.4</ele>
        <time>1970-01-01T11:25:03.000Z</time>
      </trkpt>
      <trkpt lat="42.70631" lon="0.900111">
        <ele>1323.4</ele>
        <time>1970-01-01T11:25:05.000Z</time>
      </trkpt>
      <trkpt lat="42.706309" lon="0.89981">
        <ele>1321.8</ele>
        <time>1970-01-01T11:25:08.000Z</time>
      </trkpt>
      <trkpt lat="42.706316" lon="0.899606">
        <ele>1320.6</ele>
        <time>1970-01-01T11:25:10.000Z</time>
      </trkpt>
      <trkpt lat="42.706328" lon="0.899499">
        <ele>1319.6</ele>
        <time>1970-01-01T11:25:11.000Z</time>
      </trkpt>
      <trkpt lat="42.706348" lon="0.899389">
        <ele>1319</ele>
        <time>1970-01-01T11:25:12.000Z</time>
      </trkpt>
      <trkpt lat="42.706416" lon="0.899165">
        <ele>1317.8</ele>
        <time>1970-01-01T11:25:14.000Z</time>
      </trkpt>
      <trkpt lat="42.706456" lon="0.899048">
        <ele>1316.8</ele>
        <time>1970-01-01T11:25:15.000Z</time>
      </trkpt>
      <trkpt lat="42.70654" lon="0.89881">
        <ele>1315.6</ele>
        <time>1970-01-01T11:25:17.000Z</time>
      </trkpt>
      <trkpt lat="42.706618" lon="0.898587">
        <ele>1314</ele>
        <time>1970-01-01T11:25:19.000Z</time>
      </trkpt>
      <trkpt lat="42.706689" lon="0.898368">
        <ele>1312.8</ele>
        <time>1970-01-01T11:25:21.000Z</time>
      </trkpt>
      <trkpt lat="42.70673" lon="0.89812">
        <ele>1311.4</ele>
        <time>1970-01-01T11:25:23.000Z</time>
      </trkpt>
      <trkpt lat="42.706738" lon="0.897853">
        <ele>1310.4</ele>
        <time>1970-01-01T11:25:25.000Z</time>
      </trkpt>
      <trkpt lat="42.706734" lon="0.89772">
        <ele>1310.2</ele>
        <time>1970-01-01T11:25:26.000Z</time>
      </trkpt>
      <trkpt lat="42.706701" lon="0.897138">
        <ele>1309.4</ele>
        <time>1970-01-01T11:25:31.000Z</time>
      </trkpt>
      <trkpt lat="42.70668" lon="0.896369">
        <ele>1308</ele>
        <time>1970-01-01T11:25:38.000Z</time>
      </trkpt>
      <trkpt lat="42.706691" lon="0.895876">
        <ele>1307</ele>
        <time>1970-01-01T11:25:42.000Z</time>
      </trkpt>
      <trkpt lat="42.70671" lon="0.895497">
        <ele>1306</ele>
        <time>1970-01-01T11:25:45.000Z</time>
      </trkpt>
      <trkpt lat="42.706762" lon="0.894666">
        <ele>1305</ele>
        <time>1970-01-01T11:25:52.000Z</time>
      </trkpt>
      <trkpt lat="42.706778" lon="0.894449">
        <ele>1304.8</ele>
        <time>1970-01-01T11:25:54.000Z</time>
      </trkpt>
      <trkpt lat="42.70681" lon="0.894246">
        <ele>1304.8</ele>
        <time>1970-01-01T11:25:56.000Z</time>
      </trkpt>
      <trkpt lat="42.706845" lon="0.894069">
        <ele>1305</ele>
        <time>1970-01-01T11:25:58.000Z</time>
      </trkpt>
      <trkpt lat="42.70675" lon="0.893771">
        <ele>1305.8</ele>
        <time>1970-01-01T11:26:02.000Z</time>
      </trkpt>
      <trkpt lat="42.706712" lon="0.893696">
        <ele>1305.6</ele>
        <time>1970-01-01T11:26:03.000Z</time>
      </trkpt>
      <trkpt lat="42.706502" lon="0.893146">
        <ele>1303.8</ele>
        <time>1970-01-01T11:26:09.000Z</time>
      </trkpt>
      <trkpt lat="42.706403" lon="0.892957">
        <ele>1302.8</ele>
        <time>1970-01-01T11:26:11.000Z</time>
      </trkpt>
      <trkpt lat="42.706239" lon="0.892668">
        <ele>1301.2</ele>
        <time>1970-01-01T11:26:14.000Z</time>
      </trkpt>
      <trkpt lat="42.706072" lon="0.892364">
        <ele>1299.6</ele>
        <time>1970-01-01T11:26:17.000Z</time>
      </trkpt>
      <trkpt lat="42.705894" lon="0.892056">
        <ele>1298.6</ele>
        <time>1970-01-01T11:26:20.000Z</time>
      </trkpt>
      <trkpt lat="42.705649" lon="0.891633">
        <ele>1297.4</ele>
        <time>1970-01-01T11:26:24.000Z</time>
      </trkpt>
      <trkpt lat="42.705426" lon="0.891217">
        <ele>1296.6</ele>
        <time>1970-01-01T11:26:28.000Z</time>
      </trkpt>
      <trkpt lat="42.705069" lon="0.890554">
        <ele>1296</ele>
        <time>1970-01-01T11:26:35.000Z</time>
      </trkpt>
      <trkpt lat="42.704717" lon="0.889886">
        <ele>1296.4</ele>
        <time>1970-01-01T11:26:43.000Z</time>
      </trkpt>
      <trkpt lat="42.70465" lon="0.889722">
        <ele>1296.4</ele>
        <time>1970-01-01T11:26:45.000Z</time>
      </trkpt>
      <trkpt lat="42.704474" lon="0.889004">
        <ele>1296.2</ele>
        <time>1970-01-01T11:27:00.000Z</time>
      </trkpt>
      <trkpt lat="42.704204" lon="0.888364">
        <ele>1297</ele>
        <time>1970-01-01T11:27:08.000Z</time>
      </trkpt>
      <trkpt lat="42.704024" lon="0.888001">
        <ele>1295.8</ele>
        <time>1970-01-01T11:27:12.000Z</time>
      </trkpt>
      <trkpt lat="42.703932" lon="0.88778">
        <ele>1294.4</ele>
        <time>1970-01-01T11:27:14.000Z</time>
      </trkpt>
      <trkpt lat="42.703891" lon="0.887656">
        <ele>1294</ele>
        <time>1970-01-01T11:27:15.000Z</time>
      </trkpt>
      <trkpt lat="42.703859" lon="0.887524">
        <ele>1293.2</ele>
        <time>1970-01-01T11:27:16.000Z</time>
      </trkpt>
      <trkpt lat="42.70382" lon="0.887235">
        <ele>1291.6</ele>
        <time>1970-01-01T11:27:18.000Z</time>
      </trkpt>
      <trkpt lat="42.703806" lon="0.88693">
        <ele>1289.6</ele>
        <time>1970-01-01T11:27:20.000Z</time>
      </trkpt>
      <trkpt lat="42.703797" lon="0.886611">
        <ele>1288</ele>
        <time>1970-01-01T11:27:22.000Z</time>
      </trkpt>
      <trkpt lat="42.70379" lon="0.886286">
        <ele>1286.6</ele>
        <time>1970-01-01T11:27:24.000Z</time>
      </trkpt>
      <trkpt lat="42.703786" lon="0.885959">
        <ele>1285</ele>
        <time>1970-01-01T11:27:26.000Z</time>
      </trkpt>
      <trkpt lat="42.703778" lon="0.885466">
        <ele>1283.8</ele>
        <time>1970-01-01T11:27:29.000Z</time>
      </trkpt>
      <trkpt lat="42.703773" lon="0.884981">
        <ele>1282.8</ele>
        <time>1970-01-01T11:27:32.000Z</time>
      </trkpt>
      <trkpt lat="42.703767" lon="0.884497">
        <ele>1281.6</ele>
        <time>1970-01-01T11:27:35.000Z</time>
      </trkpt>
      <trkpt lat="42.70375" lon="0.883861">
        <ele>1280.4</ele>
        <time>1970-01-01T11:27:39.000Z</time>
      </trkpt>
      <trkpt lat="42.703717" lon="0.883383">
        <ele>1279.4</ele>
        <time>1970-01-01T11:27:42.000Z</time>
      </trkpt>
      <trkpt lat="42.703674" lon="0.882898">
        <ele>1278.2</ele>
        <time>1970-01-01T11:27:45.000Z</time>
      </trkpt>
      <trkpt lat="42.703611" lon="0.882418">
        <ele>1277.2</ele>
        <time>1970-01-01T11:27:48.000Z</time>
      </trkpt>
      <trkpt lat="42.703472" lon="0.881641">
        <ele>1275.8</ele>
        <time>1970-01-01T11:27:53.000Z</time>
      </trkpt>
      <trkpt lat="42.703411" lon="0.881335">
        <ele>1274.6</ele>
        <time>1970-01-01T11:27:55.000Z</time>
      </trkpt>
      <trkpt lat="42.703315" lon="0.880888">
        <ele>1273.2</ele>
        <time>1970-01-01T11:27:58.000Z</time>
      </trkpt>
      <trkpt lat="42.70322" lon="0.880454">
        <ele>1272.2</ele>
        <time>1970-01-01T11:28:01.000Z</time>
      </trkpt>
      <trkpt lat="42.703155" lon="0.880153">
        <ele>1271</ele>
        <time>1970-01-01T11:28:03.000Z</time>
      </trkpt>
      <trkpt lat="42.703087" lon="0.879844">
        <ele>1269.8</ele>
        <time>1970-01-01T11:28:05.000Z</time>
      </trkpt>
      <trkpt lat="42.703029" lon="0.879523">
        <ele>1268.6</ele>
        <time>1970-01-01T11:28:07.000Z</time>
      </trkpt>
      <trkpt lat="42.702981" lon="0.879199">
        <ele>1267.2</ele>
        <time>1970-01-01T11:28:09.000Z</time>
      </trkpt>
      <trkpt lat="42.702946" lon="0.878882">
        <ele>1266.4</ele>
        <time>1970-01-01T11:28:11.000Z</time>
      </trkpt>
      <trkpt lat="42.70291" lon="0.878561">
        <ele>1265.2</ele>
        <time>1970-01-01T11:28:13.000Z</time>
      </trkpt>
      <trkpt lat="42.702871" lon="0.87823">
        <ele>1263.8</ele>
        <time>1970-01-01T11:28:15.000Z</time>
      </trkpt>
      <trkpt lat="42.702829" lon="0.877906">
        <ele>1262.4</ele>
        <time>1970-01-01T11:28:17.000Z</time>
      </trkpt>
      <trkpt lat="42.702783" lon="0.8776">
        <ele>1261</ele>
        <time>1970-01-01T11:28:19.000Z</time>
      </trkpt>
      <trkpt lat="42.702727" lon="0.877301">
        <ele>1259.4</ele>
        <time>1970-01-01T11:28:21.000Z</time>
      </trkpt>
      <trkpt lat="42.702685" lon="0.877159">
        <ele>1258.8</ele>
        <time>1970-01-01T11:28:22.000Z</time>
      </trkpt>
      <trkpt lat="42.702631" lon="0.87702">
        <ele>1258.2</ele>
        <time>1970-01-01T11:28:23.000Z</time>
      </trkpt>
      <trkpt lat="42.702506" lon="0.876742">
        <ele>1256.8</ele>
        <time>1970-01-01T11:28:25.000Z</time>
      </trkpt>
      <trkpt lat="42.702355" lon="0.876466">
        <ele>1255.6</ele>
        <time>1970-01-01T11:28:27.000Z</time>
      </trkpt>
      <trkpt lat="42.702188" lon="0.876187">
        <ele>1253.4</ele>
        <time>1970-01-01T11:28:29.000Z</time>
      </trkpt>
      <trkpt lat="42.702027" lon="0.875899">
        <ele>1251.2</ele>
        <time>1970-01-01T11:28:31.000Z</time>
      </trkpt>
      <trkpt lat="42.701884" lon="0.875619">
        <ele>1249.8</ele>
        <time>1970-01-01T11:28:33.000Z</time>
      </trkpt>
      <trkpt lat="42.701759" lon="0.875319">
        <ele>1248.6</ele>
        <time>1970-01-01T11:28:35.000Z</time>
      </trkpt>
      <trkpt lat="42.701661" lon="0.875006">
        <ele>1247.4</ele>
        <time>1970-01-01T11:28:37.000Z</time>
      </trkpt>
      <trkpt lat="42.701596" lon="0.874718">
        <ele>1245.8</ele>
        <time>1970-01-01T11:28:39.000Z</time>
      </trkpt>
      <trkpt lat="42.701558" lon="0.874459">
        <ele>1244.8</ele>
        <time>1970-01-01T11:28:41.000Z</time>
      </trkpt>
      <trkpt lat="42.701517" lon="0.874132">
        <ele>1243.6</ele>
        <time>1970-01-01T11:28:44.000Z</time>
      </trkpt>
      <trkpt lat="42.701483" lon="0.873868">
        <ele>1242.4</ele>
        <time>1970-01-01T11:28:47.000Z</time>
      </trkpt>
      <trkpt lat="42.701437" lon="0.873603">
        <ele>1241.4</ele>
        <time>1970-01-01T11:28:51.000Z</time>
      </trkpt>
      <trkpt lat="42.70138" lon="0.873203">
        <ele>1240.2</ele>
        <time>1970-01-01T11:28:56.000Z</time>
      </trkpt>
      <trkpt lat="42.701327" lon="0.872959">
        <ele>1239.4</ele>
        <time>1970-01-01T11:28:59.000Z</time>
      </trkpt>
      <trkpt lat="42.701216" lon="0.872411">
        <ele>1238.4</ele>
        <time>1970-01-01T11:29:07.000Z</time>
      </trkpt>
      <trkpt lat="42.701175" lon="0.872147">
        <ele>1237.6</ele>
        <time>1970-01-01T11:29:13.000Z</time>
      </trkpt>
      <trkpt lat="42.701143" lon="0.871925">
        <ele>1236.8</ele>
        <time>1970-01-01T11:29:17.000Z</time>
      </trkpt>
      <trkpt lat="42.701128" lon="0.871865">
        <ele>1236.6</ele>
        <time>1970-01-01T11:29:18.000Z</time>
      </trkpt>
      <trkpt lat="42.701053" lon="0.871615">
        <ele>1235.4</ele>
        <time>1970-01-01T11:29:22.000Z</time>
      </trkpt>
      <trkpt lat="42.700952" lon="0.87135">
        <ele>1234.2</ele>
        <time>1970-01-01T11:29:26.000Z</time>
      </trkpt>
      <trkpt lat="42.700857" lon="0.871133">
        <ele>1233</ele>
        <time>1970-01-01T11:29:29.000Z</time>
      </trkpt>
      <trkpt lat="42.700747" lon="0.870894">
        <ele>1232</ele>
        <time>1970-01-01T11:29:32.000Z</time>
      </trkpt>
      <trkpt lat="42.700604" lon="0.870559">
        <ele>1230.8</ele>
        <time>1970-01-01T11:29:36.000Z</time>
      </trkpt>
      <trkpt lat="42.700519" lon="0.870314">
        <ele>1230.6</ele>
        <time>1970-01-01T11:29:39.000Z</time>
      </trkpt>
      <trkpt lat="42.700541" lon="0.870015">
        <ele>1230.2</ele>
        <time>1970-01-01T11:29:43.000Z</time>
      </trkpt>
      <trkpt lat="42.700552" lon="0.869941">
        <ele>1230.2</ele>
        <time>1970-01-01T11:29:44.000Z</time>
      </trkpt>
      <trkpt lat="42.700552" lon="0.869866">
        <ele>1230</ele>
        <time>1970-01-01T11:29:45.000Z</time>
      </trkpt>
      <trkpt lat="42.700398" lon="0.869715">
        <ele>1229</ele>
        <time>1970-01-01T11:29:49.000Z</time>
      </trkpt>
      <trkpt lat="42.700228" lon="0.870006">
        <ele>1229.2</ele>
        <time>1970-01-01T11:29:55.000Z</time>
      </trkpt>
      <trkpt lat="42.700193" lon="0.87027">
        <ele>1229.6</ele>
        <time>1970-01-01T11:30:00.000Z</time>
      </trkpt>
      <trkpt lat="42.700211" lon="0.870468">
        <ele>1229</ele>
        <time>1970-01-01T11:30:03.000Z</time>
      </trkpt>
      <trkpt lat="42.700147" lon="0.870634">
        <ele>1228</ele>
        <time>1970-01-01T11:30:06.000Z</time>
      </trkpt>
      <trkpt lat="42.700065" lon="0.870683">
        <ele>1227</ele>
        <time>1970-01-01T11:30:09.000Z</time>
      </trkpt>
      <trkpt lat="42.700031" lon="0.870653">
        <ele>1226.4</ele>
        <time>1970-01-01T11:30:13.000Z</time>
      </trkpt>
      <trkpt lat="42.700031" lon="0.870584">
        <ele>1226</ele>
        <time>1970-01-01T11:30:16.000Z</time>
      </trkpt>
      <trkpt lat="42.700045" lon="0.870495">
        <ele>1226</ele>
        <time>1970-01-01T11:30:18.000Z</time>
      </trkpt>
      <trkpt lat="42.700066" lon="0.870297">
        <ele>1225.4</ele>
        <time>1970-01-01T11:30:24.000Z</time>
      </trkpt>
      <trkpt lat="42.700045" lon="0.870319">
        <ele>1225.4</ele>
        <time>1970-01-01T11:30:41.000Z</time>
      </trkpt>
      <trkpt lat="42.700023" lon="0.870529">
        <ele>1225.6</ele>
        <time>1970-01-01T11:30:49.000Z</time>
      </trkpt>
      <trkpt lat="42.699967" lon="0.870954">
        <ele>1226.6</ele>
        <time>1970-01-01T11:31:01.000Z</time>
      </trkpt>
      <trkpt lat="42.699769" lon="0.871635">
        <ele>1227.2</ele>
        <time>1970-01-01T11:31:19.000Z</time>
      </trkpt>
      <trkpt lat="42.69977" lon="0.871876">
        <ele>1228</ele>
        <time>1970-01-01T11:31:25.000Z</time>
      </trkpt>
      <trkpt lat="42.699892" lon="0.87238">
        <ele>1229.4</ele>
        <time>1970-01-01T11:31:38.000Z</time>
      </trkpt>
      <trkpt lat="42.699836" lon="0.872488">
        <ele>1230.2</ele>
        <time>1970-01-01T11:31:42.000Z</time>
      </trkpt>
      <trkpt lat="42.699657" lon="0.872512">
        <ele>1230.6</ele>
        <time>1970-01-01T11:31:48.000Z</time>
      </trkpt>
      <trkpt lat="42.699379" lon="0.87206">
        <ele>1228.8</ele>
        <time>1970-01-01T11:32:02.000Z</time>
      </trkpt>
      <trkpt lat="42.699365" lon="0.872009">
        <ele>1228.8</ele>
        <time>1970-01-01T11:32:03.000Z</time>
      </trkpt>
      <trkpt lat="42.699318" lon="0.871798">
        <ele>1228.4</ele>
        <time>1970-01-01T11:32:07.000Z</time>
      </trkpt>
      <trkpt lat="42.699069" lon="0.871701">
        <ele>1228.6</ele>
        <time>1970-01-01T11:32:18.000Z</time>
      </trkpt>
      <trkpt lat="42.699048" lon="0.8717">
        <ele>1228.4</ele>
        <time>1970-01-01T11:32:19.000Z</time>
      </trkpt>
      <trkpt lat="42.698952" lon="0.871702">
        <ele>1228.6</ele>
        <time>1970-01-01T11:32:23.000Z</time>
      </trkpt>
      <trkpt lat="42.698676" lon="0.871657">
        <ele>1230.4</ele>
        <time>1970-01-01T11:32:37.000Z</time>
      </trkpt>
      <trkpt lat="42.698624" lon="0.871632">
        <ele>1231</ele>
        <time>1970-01-01T11:32:41.000Z</time>
      </trkpt>
      <trkpt lat="42.698558" lon="0.871575">
        <ele>1231.2</ele>
        <time>1970-01-01T11:32:46.000Z</time>
      </trkpt>
      <trkpt lat="42.698435" lon="0.871322">
        <ele>1229.8</ele>
        <time>1970-01-01T11:32:57.000Z</time>
      </trkpt>
      <trkpt lat="42.698371" lon="0.870942">
        <ele>1230.2</ele>
        <time>1970-01-01T11:33:12.000Z</time>
      </trkpt>
      <trkpt lat="42.698297" lon="0.870924">
        <ele>1230.2</ele>
        <time>1970-01-01T11:33:22.000Z</time>
      </trkpt>
      <trkpt lat="42.698191" lon="0.870843">
        <ele>1231.4</ele>
        <time>1970-01-01T11:33:29.000Z</time>
      </trkpt>
      <trkpt lat="42.698156" lon="0.870712">
        <ele>1232.4</ele>
        <time>1970-01-01T11:33:34.000Z</time>
      </trkpt>
      <trkpt lat="42.698086" lon="0.870506">
        <ele>1233.8</ele>
        <time>1970-01-01T11:33:41.000Z</time>
      </trkpt>
      <trkpt lat="42.698027" lon="0.870341">
        <ele>1235</ele>
        <time>1970-01-01T11:33:47.000Z</time>
      </trkpt>
      <trkpt lat="42.698072" lon="0.87008">
        <ele>1235</ele>
        <time>1970-01-01T11:33:56.000Z</time>
      </trkpt>
      <trkpt lat="42.698082" lon="0.869854">
        <ele>1234.2</ele>
        <time>1970-01-01T11:34:01.000Z</time>
      </trkpt>
      <trkpt lat="42.698091" lon="0.869659">
        <ele>1233.2</ele>
        <time>1970-01-01T11:34:05.000Z</time>
      </trkpt>
      <trkpt lat="42.698032" lon="0.869179">
        <ele>1232.6</ele>
        <time>1970-01-01T11:34:14.000Z</time>
      </trkpt>
      <trkpt lat="42.698019" lon="0.869125">
        <ele>1232.2</ele>
        <time>1970-01-01T11:34:15.000Z</time>
      </trkpt>
      <trkpt lat="42.697977" lon="0.868967">
        <ele>1231.2</ele>
        <time>1970-01-01T11:34:18.000Z</time>
      </trkpt>
      <trkpt lat="42.697962" lon="0.86885">
        <ele>1231</ele>
        <time>1970-01-01T11:34:20.000Z</time>
      </trkpt>
      <trkpt lat="42.697954" lon="0.868719">
        <ele>1230.4</ele>
        <time>1970-01-01T11:34:22.000Z</time>
      </trkpt>
      <trkpt lat="42.697955" lon="0.868424">
        <ele>1229.2</ele>
        <time>1970-01-01T11:34:26.000Z</time>
      </trkpt>
      <trkpt lat="42.697961" lon="0.868185">
        <ele>1228.2</ele>
        <time>1970-01-01T11:34:29.000Z</time>
      </trkpt>
      <trkpt lat="42.697982" lon="0.867927">
        <ele>1227.4</ele>
        <time>1970-01-01T11:34:32.000Z</time>
      </trkpt>
      <trkpt lat="42.697995" lon="0.867843">
        <ele>1227</ele>
        <time>1970-01-01T11:34:33.000Z</time>
      </trkpt>
      <trkpt lat="42.698076" lon="0.867438">
        <ele>1225.6</ele>
        <time>1970-01-01T11:34:38.000Z</time>
      </trkpt>
      <trkpt lat="42.698148" lon="0.867169">
        <ele>1224</ele>
        <time>1970-01-01T11:34:41.000Z</time>
      </trkpt>
      <trkpt lat="42.698207" lon="0.866909">
        <ele>1222.8</ele>
        <time>1970-01-01T11:34:44.000Z</time>
      </trkpt>
      <trkpt lat="42.698228" lon="0.866514">
        <ele>1221.8</ele>
        <time>1970-01-01T11:34:51.000Z</time>
      </trkpt>
      <trkpt lat="42.698227" lon="0.866453">
        <ele>1221.8</ele>
        <time>1970-01-01T11:34:52.000Z</time>
      </trkpt>
      <trkpt lat="42.69828" lon="0.865951">
        <ele>1221.8</ele>
        <time>1970-01-01T11:35:00.000Z</time>
      </trkpt>
      <trkpt lat="42.698293" lon="0.865831">
        <ele>1222</ele>
        <time>1970-01-01T11:35:02.000Z</time>
      </trkpt>
      <trkpt lat="42.698312" lon="0.865106">
        <ele>1221.4</ele>
        <time>1970-01-01T11:35:13.000Z</time>
      </trkpt>
      <trkpt lat="42.698322" lon="0.864952">
        <ele>1221</ele>
        <time>1970-01-01T11:35:15.000Z</time>
      </trkpt>
      <trkpt lat="42.698333" lon="0.864872">
        <ele>1220.8</ele>
        <time>1970-01-01T11:35:16.000Z</time>
      </trkpt>
      <trkpt lat="42.698378" lon="0.864464">
        <ele>1219.8</ele>
        <time>1970-01-01T11:35:21.000Z</time>
      </trkpt>
      <trkpt lat="42.698393" lon="0.86438">
        <ele>1219.4</ele>
        <time>1970-01-01T11:35:22.000Z</time>
      </trkpt>
      <trkpt lat="42.698427" lon="0.864129">
        <ele>1219.4</ele>
        <time>1970-01-01T11:35:25.000Z</time>
      </trkpt>
      <trkpt lat="42.698545" lon="0.863511">
        <ele>1218.6</ele>
        <time>1970-01-01T11:35:34.000Z</time>
      </trkpt>
      <trkpt lat="42.698562" lon="0.863055">
        <ele>1217.6</ele>
        <time>1970-01-01T11:35:40.000Z</time>
      </trkpt>
      <trkpt lat="42.69866" lon="0.862357">
        <ele>1216.8</ele>
        <time>1970-01-01T11:35:50.000Z</time>
      </trkpt>
      <trkpt lat="42.698767" lon="0.86172">
        <ele>1215.8</ele>
        <time>1970-01-01T11:35:58.000Z</time>
      </trkpt>
      <trkpt lat="42.698873" lon="0.860947">
        <ele>1215</ele>
        <time>1970-01-01T11:36:08.000Z</time>
      </trkpt>
      <trkpt lat="42.698812" lon="0.860662">
        <ele>1214.2</ele>
        <time>1970-01-01T11:36:12.000Z</time>
      </trkpt>
      <trkpt lat="42.698788" lon="0.860594">
        <ele>1213.8</ele>
        <time>1970-01-01T11:36:13.000Z</time>
      </trkpt>
      <trkpt lat="42.698703" lon="0.860381">
        <ele>1212.8</ele>
        <time>1970-01-01T11:36:16.000Z</time>
      </trkpt>
      <trkpt lat="42.698473" lon="0.859706">
        <ele>1212.4</ele>
        <time>1970-01-01T11:36:31.000Z</time>
      </trkpt>
      <trkpt lat="42.698477" lon="0.859645">
        <ele>1212.4</ele>
        <time>1970-01-01T11:36:32.000Z</time>
      </trkpt>
      <trkpt lat="42.698525" lon="0.858936">
        <ele>1212.8</ele>
        <time>1970-01-01T11:36:44.000Z</time>
      </trkpt>
      <trkpt lat="42.698525" lon="0.858783">
        <ele>1212.2</ele>
        <time>1970-01-01T11:36:46.000Z</time>
      </trkpt>
      <trkpt lat="42.698526" lon="0.85863">
        <ele>1211.6</ele>
        <time>1970-01-01T11:36:48.000Z</time>
      </trkpt>
      <trkpt lat="42.698611" lon="0.857893">
        <ele>1211.8</ele>
        <time>1970-01-01T11:37:00.000Z</time>
      </trkpt>
      <trkpt lat="42.698589" lon="0.857788">
        <ele>1211.2</ele>
        <time>1970-01-01T11:37:02.000Z</time>
      </trkpt>
      <trkpt lat="42.698581" lon="0.857726">
        <ele>1211.2</ele>
        <time>1970-01-01T11:37:03.000Z</time>
      </trkpt>
      <trkpt lat="42.6986" lon="0.857495">
        <ele>1210.4</ele>
        <time>1970-01-01T11:37:06.000Z</time>
      </trkpt>
      <trkpt lat="42.69864" lon="0.857344">
        <ele>1209.8</ele>
        <time>1970-01-01T11:37:08.000Z</time>
      </trkpt>
      <trkpt lat="42.698736" lon="0.856996">
        <ele>1209.6</ele>
        <time>1970-01-01T11:37:13.000Z</time>
      </trkpt>
      <trkpt lat="42.698761" lon="0.856937">
        <ele>1209.6</ele>
        <time>1970-01-01T11:37:14.000Z</time>
      </trkpt>
      <trkpt lat="42.698844" lon="0.856749">
        <ele>1209</ele>
        <time>1970-01-01T11:37:17.000Z</time>
      </trkpt>
      <trkpt lat="42.698863" lon="0.856677">
        <ele>1209</ele>
        <time>1970-01-01T11:37:18.000Z</time>
      </trkpt>
      <trkpt lat="42.698874" lon="0.856455">
        <ele>1208.4</ele>
        <time>1970-01-01T11:37:21.000Z</time>
      </trkpt>
      <trkpt lat="42.698757" lon="0.856097">
        <ele>1207.8</ele>
        <time>1970-01-01T11:37:26.000Z</time>
      </trkpt>
      <trkpt lat="42.698734" lon="0.856025">
        <ele>1207.6</ele>
        <time>1970-01-01T11:37:27.000Z</time>
      </trkpt>
      <trkpt lat="42.698647" lon="0.855744">
        <ele>1207</ele>
        <time>1970-01-01T11:37:31.000Z</time>
      </trkpt>
      <trkpt lat="42.698606" lon="0.855607">
        <ele>1206.8</ele>
        <time>1970-01-01T11:37:33.000Z</time>
      </trkpt>
      <trkpt lat="42.698547" lon="0.855369">
        <ele>1206.8</ele>
        <time>1970-01-01T11:37:37.000Z</time>
      </trkpt>
      <trkpt lat="42.698501" lon="0.855218">
        <ele>1206.6</ele>
        <time>1970-01-01T11:37:40.000Z</time>
      </trkpt>
      <trkpt lat="42.698449" lon="0.854774">
        <ele>1206.4</ele>
        <time>1970-01-01T11:37:48.000Z</time>
      </trkpt>
      <trkpt lat="42.698443" lon="0.854647">
        <ele>1206</ele>
        <time>1970-01-01T11:37:50.000Z</time>
      </trkpt>
      <trkpt lat="42.698418" lon="0.854335">
        <ele>1205.6</ele>
        <time>1970-01-01T11:37:55.000Z</time>
      </trkpt>
      <trkpt lat="42.698392" lon="0.854059">
        <ele>1205.6</ele>
        <time>1970-01-01T11:37:59.000Z</time>
      </trkpt>
      <trkpt lat="42.698398" lon="0.853748">
        <ele>1205.2</ele>
        <time>1970-01-01T11:38:03.000Z</time>
      </trkpt>
      <trkpt lat="42.698404" lon="0.853454">
        <ele>1205</ele>
        <time>1970-01-01T11:38:07.000Z</time>
      </trkpt>
      <trkpt lat="42.698336" lon="0.85318">
        <ele>1204.8</ele>
        <time>1970-01-01T11:38:11.000Z</time>
      </trkpt>
      <trkpt lat="42.69827" lon="0.853017">
        <ele>1204.4</ele>
        <time>1970-01-01T11:38:13.000Z</time>
      </trkpt>
      <trkpt lat="42.69821" lon="0.852843">
        <ele>1202.8</ele>
        <time>1970-01-01T11:38:15.000Z</time>
      </trkpt>
      <trkpt lat="42.698183" lon="0.852651">
        <ele>1201.6</ele>
        <time>1970-01-01T11:38:17.000Z</time>
      </trkpt>
      <trkpt lat="42.698197" lon="0.852365">
        <ele>1201.2</ele>
        <time>1970-01-01T11:38:20.000Z</time>
      </trkpt>
      <trkpt lat="42.69824" lon="0.851593">
        <ele>1202.4</ele>
        <time>1970-01-01T11:38:30.000Z</time>
      </trkpt>
      <trkpt lat="42.698289" lon="0.850798">
        <ele>1201.8</ele>
        <time>1970-01-01T11:38:41.000Z</time>
      </trkpt>
      <trkpt lat="42.698471" lon="0.850087">
        <ele>1200.6</ele>
        <time>1970-01-01T11:38:50.000Z</time>
      </trkpt>
      <trkpt lat="42.698488" lon="0.849909">
        <ele>1199.6</ele>
        <time>1970-01-01T11:38:52.000Z</time>
      </trkpt>
      <trkpt lat="42.698497" lon="0.849712">
        <ele>1198.6</ele>
        <time>1970-01-01T11:38:54.000Z</time>
      </trkpt>
      <trkpt lat="42.698515" lon="0.849507">
        <ele>1197.6</ele>
        <time>1970-01-01T11:38:56.000Z</time>
      </trkpt>
      <trkpt lat="42.698529" lon="0.849179">
        <ele>1196</ele>
        <time>1970-01-01T11:38:59.000Z</time>
      </trkpt>
      <trkpt lat="42.698545" lon="0.849073">
        <ele>1195.6</ele>
        <time>1970-01-01T11:39:00.000Z</time>
      </trkpt>
      <trkpt lat="42.698595" lon="0.848761">
        <ele>1195.2</ele>
        <time>1970-01-01T11:39:03.000Z</time>
      </trkpt>
      <trkpt lat="42.698825" lon="0.848074">
        <ele>1195</ele>
        <time>1970-01-01T11:39:11.000Z</time>
      </trkpt>
      <trkpt lat="42.698827" lon="0.847981">
        <ele>1195</ele>
        <time>1970-01-01T11:39:12.000Z</time>
      </trkpt>
      <trkpt lat="42.698775" lon="0.847717">
        <ele>1194.6</ele>
        <time>1970-01-01T11:39:15.000Z</time>
      </trkpt>
      <trkpt lat="42.698679" lon="0.847296">
        <ele>1194.4</ele>
        <time>1970-01-01T11:39:20.000Z</time>
      </trkpt>
      <trkpt lat="42.698604" lon="0.84712">
        <ele>1193.8</ele>
        <time>1970-01-01T11:39:22.000Z</time>
      </trkpt>
      <trkpt lat="42.698516" lon="0.846921">
        <ele>1193.2</ele>
        <time>1970-01-01T11:39:24.000Z</time>
      </trkpt>
      <trkpt lat="42.698484" lon="0.846817">
        <ele>1192.6</ele>
        <time>1970-01-01T11:39:25.000Z</time>
      </trkpt>
      <trkpt lat="42.69847" lon="0.846524">
        <ele>1192.2</ele>
        <time>1970-01-01T11:39:28.000Z</time>
      </trkpt>
      <trkpt lat="42.698503" lon="0.845877">
        <ele>1192.2</ele>
        <time>1970-01-01T11:39:35.000Z</time>
      </trkpt>
      <trkpt lat="42.698659" lon="0.845796">
        <ele>1192.4</ele>
        <time>1970-01-01T11:39:40.000Z</time>
      </trkpt>
      <trkpt lat="42.698987" lon="0.845737">
        <ele>1192.8</ele>
        <time>1970-01-01T11:39:56.000Z</time>
      </trkpt>
      <trkpt lat="42.69901" lon="0.845707">
        <ele>1192.6</ele>
        <time>1970-01-01T11:40:11.000Z</time>
      </trkpt>
      <trkpt lat="42.699079" lon="0.845451">
        <ele>1192</ele>
        <time>1970-01-01T11:40:17.000Z</time>
      </trkpt>
      <trkpt lat="42.699097" lon="0.845114">
        <ele>1191.2</ele>
        <time>1970-01-01T11:40:22.000Z</time>
      </trkpt>
      <trkpt lat="42.699117" lon="0.844573">
        <ele>1190.2</ele>
        <time>1970-01-01T11:40:29.000Z</time>
      </trkpt>
      <trkpt lat="42.699154" lon="0.844278">
        <ele>1189.8</ele>
        <time>1970-01-01T11:40:34.000Z</time>
      </trkpt>
      <trkpt lat="42.699244" lon="0.844349">
        <ele>1189.4</ele>
        <time>1970-01-01T11:40:38.000Z</time>
      </trkpt>
      <trkpt lat="42.699269" lon="0.844379">
        <ele>1189.2</ele>
        <time>1970-01-01T11:40:39.000Z</time>
      </trkpt>
      <trkpt lat="42.699506" lon="0.844676">
        <ele>1189.4</ele>
        <time>1970-01-01T11:40:50.000Z</time>
      </trkpt>
      <trkpt lat="42.699519" lon="0.844684">
        <ele>1189.6</ele>
        <time>1970-01-01T11:40:52.000Z</time>
      </trkpt>
      <trkpt lat="42.69949" lon="0.844747">
        <ele>1189.6</ele>
        <time>1970-01-01T11:41:49.000Z</time>
      </trkpt>
      <trkpt lat="42.699438" lon="0.844862">
        <ele>1189.8</ele>
        <time>1970-01-01T11:41:53.000Z</time>
      </trkpt>
      <trkpt lat="42.699203" lon="0.845275">
        <ele>1191.4</ele>
        <time>1970-01-01T11:42:08.000Z</time>
      </trkpt>
      <trkpt lat="42.699032" lon="0.845664">
        <ele>1192.4</ele>
        <time>1970-01-01T11:42:22.000Z</time>
      </trkpt>
      <trkpt lat="42.699082" lon="0.84567">
        <ele>1193.6</ele>
        <time>1970-01-01T11:42:28.000Z</time>
      </trkpt>
      <trkpt lat="42.69909" lon="0.845656">
        <ele>1193.8</ele>
        <time>1970-01-01T11:42:29.000Z</time>
      </trkpt>
      <trkpt lat="42.699111" lon="0.84563">
        <ele>1194</ele>
        <time>1970-01-01T11:42:31.000Z</time>
      </trkpt>
      <trkpt lat="42.699137" lon="0.845585">
        <ele>1194.8</ele>
        <time>1970-01-01T11:42:34.000Z</time>
      </trkpt>
      <trkpt lat="42.699184" lon="0.845484">
        <ele>1196</ele>
        <time>1970-01-01T11:42:39.000Z</time>
      </trkpt>
      <trkpt lat="42.699251" lon="0.845408">
        <ele>1197.2</ele>
        <time>1970-01-01T11:42:44.000Z</time>
      </trkpt>
      <trkpt lat="42.699321" lon="0.845346">
        <ele>1198.2</ele>
        <time>1970-01-01T11:42:49.000Z</time>
      </trkpt>
      <trkpt lat="42.699442" lon="0.845238">
        <ele>1199.6</ele>
        <time>1970-01-01T11:42:58.000Z</time>
      </trkpt>
      <trkpt lat="42.699541" lon="0.845142">
        <ele>1201</ele>
        <time>1970-01-01T11:43:06.000Z</time>
      </trkpt>
      <trkpt lat="42.69962" lon="0.845071">
        <ele>1202</ele>
        <time>1970-01-01T11:43:12.000Z</time>
      </trkpt>
      <trkpt lat="42.699706" lon="0.844999">
        <ele>1203.2</ele>
        <time>1970-01-01T11:43:19.000Z</time>
      </trkpt>
      <trkpt lat="42.699765" lon="0.844949">
        <ele>1204.6</ele>
        <time>1970-01-01T11:43:24.000Z</time>
      </trkpt>
      <trkpt lat="42.699831" lon="0.8449">
        <ele>1205.6</ele>
        <time>1970-01-01T11:43:30.000Z</time>
      </trkpt>
      <trkpt lat="42.699908" lon="0.844836">
        <ele>1206.6</ele>
        <time>1970-01-01T11:43:36.000Z</time>
      </trkpt>
      <trkpt lat="42.699984" lon="0.844775">
        <ele>1208</ele>
        <time>1970-01-01T11:43:42.000Z</time>
      </trkpt>
      <trkpt lat="42.700029" lon="0.844742">
        <ele>1209</ele>
        <time>1970-01-01T11:43:46.000Z</time>
      </trkpt>
      <trkpt lat="42.700107" lon="0.844696">
        <ele>1210.4</ele>
        <time>1970-01-01T11:43:52.000Z</time>
      </trkpt>
      <trkpt lat="42.700181" lon="0.844688">
        <ele>1211.4</ele>
        <time>1970-01-01T11:43:58.000Z</time>
      </trkpt>
      <trkpt lat="42.700227" lon="0.844701">
        <ele>1212.6</ele>
        <time>1970-01-01T11:44:02.000Z</time>
      </trkpt>
      <trkpt lat="42.700278" lon="0.844725">
        <ele>1213.6</ele>
        <time>1970-01-01T11:44:08.000Z</time>
      </trkpt>
      <trkpt lat="42.700285" lon="0.84473">
        <ele>1213.8</ele>
        <time>1970-01-01T11:44:10.000Z</time>
      </trkpt>
      <trkpt lat="42.700413" lon="0.844769">
        <ele>1213.6</ele>
        <time>1970-01-01T11:44:48.000Z</time>
      </trkpt>
      <trkpt lat="42.700615" lon="0.844776">
        <ele>1213.4</ele>
        <time>1970-01-01T11:44:54.000Z</time>
      </trkpt>
      <trkpt lat="42.700637" lon="0.844756">
        <ele>1213.4</ele>
        <time>1970-01-01T11:44:55.000Z</time>
      </trkpt>
      <trkpt lat="42.700647" lon="0.844625">
        <ele>1213.4</ele>
        <time>1970-01-01T11:44:59.000Z</time>
      </trkpt>
      <trkpt lat="42.700656" lon="0.844533">
        <ele>1213.4</ele>
        <time>1970-01-01T11:45:02.000Z</time>
      </trkpt>
      <trkpt lat="42.700779" lon="0.8444">
        <ele>1214.2</ele>
        <time>1970-01-01T11:45:11.000Z</time>
      </trkpt>
      <trkpt lat="42.700687" lon="0.844462">
        <ele>1213.8</ele>
        <time>1970-01-01T11:45:22.000Z</time>
      </trkpt>
      <trkpt lat="42.700633" lon="0.844396">
        <ele>1213.8</ele>
        <time>1970-01-01T11:45:26.000Z</time>
      </trkpt>
      <trkpt lat="42.700633" lon="0.844178">
        <ele>1215</ele>
        <time>1970-01-01T11:45:35.000Z</time>
      </trkpt>
      <trkpt lat="42.700528" lon="0.843723">
        <ele>1216.2</ele>
        <time>1970-01-01T11:45:53.000Z</time>
      </trkpt>
      <trkpt lat="42.700417" lon="0.843451">
        <ele>1216</ele>
        <time>1970-01-01T11:46:02.000Z</time>
      </trkpt>
      <trkpt lat="42.700418" lon="0.843345">
        <ele>1215.6</ele>
        <time>1970-01-01T11:46:04.000Z</time>
      </trkpt>
      <trkpt lat="42.700533" lon="0.842648">
        <ele>1214.4</ele>
        <time>1970-01-01T11:46:15.000Z</time>
      </trkpt>
      <trkpt lat="42.700668" lon="0.84232">
        <ele>1213.4</ele>
        <time>1970-01-01T11:46:21.000Z</time>
      </trkpt>
      <trkpt lat="42.700696" lon="0.842061">
        <ele>1212.6</ele>
        <time>1970-01-01T11:46:27.000Z</time>
      </trkpt>
      <trkpt lat="42.700659" lon="0.841586">
        <ele>1213.6</ele>
        <time>1970-01-01T11:46:36.000Z</time>
      </trkpt>
      <trkpt lat="42.700679" lon="0.841298">
        <ele>1214.6</ele>
        <time>1970-01-01T11:46:42.000Z</time>
      </trkpt>
      <trkpt lat="42.700735" lon="0.841219">
        <ele>1215</ele>
        <time>1970-01-01T11:46:44.000Z</time>
      </trkpt>
      <trkpt lat="42.700857" lon="0.841096">
        <ele>1214.6</ele>
        <time>1970-01-01T11:46:47.000Z</time>
      </trkpt>
      <trkpt lat="42.701063" lon="0.840682">
        <ele>1214.8</ele>
        <time>1970-01-01T11:46:56.000Z</time>
      </trkpt>
      <trkpt lat="42.701127" lon="0.840339">
        <ele>1215</ele>
        <time>1970-01-01T11:47:03.000Z</time>
      </trkpt>
      <trkpt lat="42.701275" lon="0.839974">
        <ele>1214</ele>
        <time>1970-01-01T11:47:09.000Z</time>
      </trkpt>
      <trkpt lat="42.701427" lon="0.839845">
        <ele>1215.4</ele>
        <time>1970-01-01T11:47:14.000Z</time>
      </trkpt>
      <trkpt lat="42.701802" lon="0.839345">
        <ele>1216.2</ele>
        <time>1970-01-01T11:47:34.000Z</time>
      </trkpt>
      <trkpt lat="42.701823" lon="0.839265">
        <ele>1216.4</ele>
        <time>1970-01-01T11:47:36.000Z</time>
      </trkpt>
      <trkpt lat="42.701874" lon="0.839043">
        <ele>1217.6</ele>
        <time>1970-01-01T11:47:42.000Z</time>
      </trkpt>
      <trkpt lat="42.701896" lon="0.838859">
        <ele>1218.8</ele>
        <time>1970-01-01T11:47:47.000Z</time>
      </trkpt>
      <trkpt lat="42.701963" lon="0.838133">
        <ele>1219</ele>
        <time>1970-01-01T11:48:05.000Z</time>
      </trkpt>
      <trkpt lat="42.701966" lon="0.837647">
        <ele>1218</ele>
        <time>1970-01-01T11:48:17.000Z</time>
      </trkpt>
      <trkpt lat="42.701966" lon="0.837593">
        <ele>1217.6</ele>
        <time>1970-01-01T11:48:18.000Z</time>
      </trkpt>
      <trkpt lat="42.701981" lon="0.837478">
        <ele>1217</ele>
        <time>1970-01-01T11:48:20.000Z</time>
      </trkpt>
      <trkpt lat="42.701983" lon="0.837394">
        <ele>1216.6</ele>
        <time>1970-01-01T11:48:22.000Z</time>
      </trkpt>
      <trkpt lat="42.701979" lon="0.837298">
        <ele>1216.6</ele>
        <time>1970-01-01T11:48:28.000Z</time>
      </trkpt>
      <trkpt lat="42.70195" lon="0.837236">
        <ele>1215.4</ele>
        <time>1970-01-01T11:48:33.000Z</time>
      </trkpt>
      <trkpt lat="42.701899" lon="0.837144">
        <ele>1214</ele>
        <time>1970-01-01T11:48:36.000Z</time>
      </trkpt>
      <trkpt lat="42.70188" lon="0.837108">
        <ele>1213.4</ele>
        <time>1970-01-01T11:48:37.000Z</time>
      </trkpt>
      <trkpt lat="42.701862" lon="0.837027">
        <ele>1212.4</ele>
        <time>1970-01-01T11:48:39.000Z</time>
      </trkpt>
      <trkpt lat="42.701867" lon="0.836878">
        <ele>1211.4</ele>
        <time>1970-01-01T11:48:42.000Z</time>
      </trkpt>
      <trkpt lat="42.701854" lon="0.836745">
        <ele>1210</ele>
        <time>1970-01-01T11:48:45.000Z</time>
      </trkpt>
      <trkpt lat="42.701862" lon="0.836642">
        <ele>1208.8</ele>
        <time>1970-01-01T11:48:47.000Z</time>
      </trkpt>
      <trkpt lat="42.701866" lon="0.83658">
        <ele>1208.2</ele>
        <time>1970-01-01T11:48:48.000Z</time>
      </trkpt>
      <trkpt lat="42.701866" lon="0.836468">
        <ele>1207.6</ele>
        <time>1970-01-01T11:48:50.000Z</time>
      </trkpt>
      <trkpt lat="42.701848" lon="0.836341">
        <ele>1206.4</ele>
        <time>1970-01-01T11:48:54.000Z</time>
      </trkpt>
      <trkpt lat="42.701826" lon="0.836291">
        <ele>1205</ele>
        <time>1970-01-01T11:48:56.000Z</time>
      </trkpt>
      <trkpt lat="42.701802" lon="0.836223">
        <ele>1203.8</ele>
        <time>1970-01-01T11:48:58.000Z</time>
      </trkpt>
      <trkpt lat="42.701794" lon="0.836172">
        <ele>1203.2</ele>
        <time>1970-01-01T11:48:59.000Z</time>
      </trkpt>
      <trkpt lat="42.70179" lon="0.836078">
        <ele>1202.6</ele>
        <time>1970-01-01T11:49:01.000Z</time>
      </trkpt>
      <trkpt lat="42.701769" lon="0.835399">
        <ele>1202.6</ele>
        <time>1970-01-01T11:49:18.000Z</time>
      </trkpt>
      <trkpt lat="42.701789" lon="0.834633">
        <ele>1203.6</ele>
        <time>1970-01-01T11:49:35.000Z</time>
      </trkpt>
      <trkpt lat="42.701792" lon="0.834528">
        <ele>1203.8</ele>
        <time>1970-01-01T11:49:37.000Z</time>
      </trkpt>
      <trkpt lat="42.70178" lon="0.834338">
        <ele>1203.2</ele>
        <time>1970-01-01T11:49:41.000Z</time>
      </trkpt>
      <trkpt lat="42.701762" lon="0.834229">
        <ele>1201.8</ele>
        <time>1970-01-01T11:49:44.000Z</time>
      </trkpt>
      <trkpt lat="42.70175" lon="0.834171">
        <ele>1200.6</ele>
        <time>1970-01-01T11:49:46.000Z</time>
      </trkpt>
      <trkpt lat="42.701739" lon="0.834116">
        <ele>1199.2</ele>
        <time>1970-01-01T11:49:48.000Z</time>
      </trkpt>
      <trkpt lat="42.701725" lon="0.834071">
        <ele>1197.8</ele>
        <time>1970-01-01T11:49:50.000Z</time>
      </trkpt>
      <trkpt lat="42.701718" lon="0.834029">
        <ele>1196.8</ele>
        <time>1970-01-01T11:49:52.000Z</time>
      </trkpt>
      <trkpt lat="42.701706" lon="0.833978">
        <ele>1195.4</ele>
        <time>1970-01-01T11:49:54.000Z</time>
      </trkpt>
      <trkpt lat="42.701697" lon="0.833931">
        <ele>1194.4</ele>
        <time>1970-01-01T11:49:56.000Z</time>
      </trkpt>
      <trkpt lat="42.701687" lon="0.833873">
        <ele>1193.4</ele>
        <time>1970-01-01T11:49:58.000Z</time>
      </trkpt>
      <trkpt lat="42.701679" lon="0.833841">
        <ele>1192.4</ele>
        <time>1970-01-01T11:49:59.000Z</time>
      </trkpt>
      <trkpt lat="42.701672" lon="0.833808">
        <ele>1191.8</ele>
        <time>1970-01-01T11:50:00.000Z</time>
      </trkpt>
      <trkpt lat="42.701656" lon="0.833744">
        <ele>1190.6</ele>
        <time>1970-01-01T11:50:02.000Z</time>
      </trkpt>
      <trkpt lat="42.701641" lon="0.833682">
        <ele>1189.6</ele>
        <time>1970-01-01T11:50:04.000Z</time>
      </trkpt>
      <trkpt lat="42.701627" lon="0.833613">
        <ele>1188</ele>
        <time>1970-01-01T11:50:06.000Z</time>
      </trkpt>
      <trkpt lat="42.70162" lon="0.833546">
        <ele>1186.8</ele>
        <time>1970-01-01T11:50:08.000Z</time>
      </trkpt>
      <trkpt lat="42.701611" lon="0.833474">
        <ele>1185.4</ele>
        <time>1970-01-01T11:50:10.000Z</time>
      </trkpt>
      <trkpt lat="42.701608" lon="0.833385">
        <ele>1184.4</ele>
        <time>1970-01-01T11:50:12.000Z</time>
      </trkpt>
      <trkpt lat="42.7016" lon="0.833303">
        <ele>1182.8</ele>
        <time>1970-01-01T11:50:14.000Z</time>
      </trkpt>
      <trkpt lat="42.701578" lon="0.833221">
        <ele>1181.8</ele>
        <time>1970-01-01T11:50:17.000Z</time>
      </trkpt>
      <trkpt lat="42.701576" lon="0.833216">
        <ele>1181.6</ele>
        <time>1970-01-01T11:50:18.000Z</time>
      </trkpt>
      <trkpt lat="42.701565" lon="0.833173">
        <ele>1181</ele>
        <time>1970-01-01T11:50:53.000Z</time>
      </trkpt>
      <trkpt lat="42.701535" lon="0.83305">
        <ele>1179.8</ele>
        <time>1970-01-01T11:50:56.000Z</time>
      </trkpt>
      <trkpt lat="42.701517" lon="0.832901">
        <ele>1178.4</ele>
        <time>1970-01-01T11:50:59.000Z</time>
      </trkpt>
      <trkpt lat="42.701513" lon="0.832814">
        <ele>1177.2</ele>
        <time>1970-01-01T11:51:01.000Z</time>
      </trkpt>
      <trkpt lat="42.701505" lon="0.832726">
        <ele>1176.2</ele>
        <time>1970-01-01T11:51:05.000Z</time>
      </trkpt>
      <trkpt lat="42.701495" lon="0.832704">
        <ele>1175.2</ele>
        <time>1970-01-01T11:51:08.000Z</time>
      </trkpt>
      <trkpt lat="42.701492" lon="0.832689">
        <ele>1174.4</ele>
        <time>1970-01-01T11:51:11.000Z</time>
      </trkpt>
      <trkpt lat="42.701453" lon="0.832526">
        <ele>1169</ele>
        <time>1970-01-01T11:51:28.000Z</time>
      </trkpt>
      <trkpt lat="42.701426" lon="0.832448">
        <ele>1167.6</ele>
        <time>1970-01-01T11:51:31.000Z</time>
      </trkpt>
      <trkpt lat="42.701395" lon="0.832381">
        <ele>1166.2</ele>
        <time>1970-01-01T11:51:33.000Z</time>
      </trkpt>
      <trkpt lat="42.701368" lon="0.832317">
        <ele>1164.6</ele>
        <time>1970-01-01T11:51:35.000Z</time>
      </trkpt>
      <trkpt lat="42.701348" lon="0.832252">
        <ele>1163.2</ele>
        <time>1970-01-01T11:51:37.000Z</time>
      </trkpt>
      <trkpt lat="42.701328" lon="0.832175">
        <ele>1162</ele>
        <time>1970-01-01T11:51:40.000Z</time>
      </trkpt>
      <trkpt lat="42.701302" lon="0.832102">
        <ele>1160.6</ele>
        <time>1970-01-01T11:51:43.000Z</time>
      </trkpt>
      <trkpt lat="42.701284" lon="0.832053">
        <ele>1159.4</ele>
        <time>1970-01-01T11:51:45.000Z</time>
      </trkpt>
      <trkpt lat="42.701266" lon="0.831983">
        <ele>1158</ele>
        <time>1970-01-01T11:51:48.000Z</time>
      </trkpt>
      <trkpt lat="42.701263" lon="0.831911">
        <ele>1157.2</ele>
        <time>1970-01-01T11:51:51.000Z</time>
      </trkpt>
      <trkpt lat="42.70126" lon="0.831883">
        <ele>1156.8</ele>
        <time>1970-01-01T11:51:52.000Z</time>
      </trkpt>
      <trkpt lat="42.701225" lon="0.831697">
        <ele>1155.8</ele>
        <time>1970-01-01T11:51:57.000Z</time>
      </trkpt>
      <trkpt lat="42.701179" lon="0.831544">
        <ele>1154.8</ele>
        <time>1970-01-01T11:52:00.000Z</time>
      </trkpt>
      <trkpt lat="42.701165" lon="0.831485">
        <ele>1154.6</ele>
        <time>1970-01-01T11:52:01.000Z</time>
      </trkpt>
      <trkpt lat="42.701137" lon="0.831387">
        <ele>1153</ele>
        <time>1970-01-01T11:52:03.000Z</time>
      </trkpt>
      <trkpt lat="42.701067" lon="0.831312">
        <ele>1151.8</ele>
        <time>1970-01-01T11:52:06.000Z</time>
      </trkpt>
      <trkpt lat="42.701017" lon="0.831241">
        <ele>1150.4</ele>
        <time>1970-01-01T11:52:08.000Z</time>
      </trkpt>
      <trkpt lat="42.700987" lon="0.831162">
        <ele>1149</ele>
        <time>1970-01-01T11:52:10.000Z</time>
      </trkpt>
      <trkpt lat="42.700963" lon="0.831076">
        <ele>1147.6</ele>
        <time>1970-01-01T11:52:12.000Z</time>
      </trkpt>
      <trkpt lat="42.700951" lon="0.831032">
        <ele>1146.6</ele>
        <time>1970-01-01T11:52:13.000Z</time>
      </trkpt>
      <trkpt lat="42.700945" lon="0.830965">
        <ele>1145.2</ele>
        <time>1970-01-01T11:52:15.000Z</time>
      </trkpt>
      <trkpt lat="42.700944" lon="0.830888">
        <ele>1143.6</ele>
        <time>1970-01-01T11:52:18.000Z</time>
      </trkpt>
      <trkpt lat="42.700935" lon="0.830843">
        <ele>1142.2</ele>
        <time>1970-01-01T11:52:20.000Z</time>
      </trkpt>
      <trkpt lat="42.700915" lon="0.830773">
        <ele>1141</ele>
        <time>1970-01-01T11:52:22.000Z</time>
      </trkpt>
      <trkpt lat="42.700908" lon="0.83074">
        <ele>1140</ele>
        <time>1970-01-01T11:52:23.000Z</time>
      </trkpt>
      <trkpt lat="42.700901" lon="0.830675">
        <ele>1138.6</ele>
        <time>1970-01-01T11:52:25.000Z</time>
      </trkpt>
      <trkpt lat="42.700898" lon="0.830631">
        <ele>1137.4</ele>
        <time>1970-01-01T11:52:27.000Z</time>
      </trkpt>
      <trkpt lat="42.700896" lon="0.830623">
        <ele>1136.6</ele>
        <time>1970-01-01T11:52:28.000Z</time>
      </trkpt>
      <trkpt lat="42.700906" lon="0.830579">
        <ele>1135.6</ele>
        <time>1970-01-01T11:52:52.000Z</time>
      </trkpt>
      <trkpt lat="42.700877" lon="0.830472">
        <ele>1134.4</ele>
        <time>1970-01-01T11:52:56.000Z</time>
      </trkpt>
      <trkpt lat="42.700833" lon="0.830288">
        <ele>1134.2</ele>
        <time>1970-01-01T11:53:03.000Z</time>
      </trkpt>
      <trkpt lat="42.700804" lon="0.830169">
        <ele>1133.4</ele>
        <time>1970-01-01T11:53:08.000Z</time>
      </trkpt>
      <trkpt lat="42.700705" lon="0.829968">
        <ele>1133</ele>
        <time>1970-01-01T11:53:14.000Z</time>
      </trkpt>
      <trkpt lat="42.70056" lon="0.830047">
        <ele>1133.2</ele>
        <time>1970-01-01T11:53:20.000Z</time>
      </trkpt>
      <trkpt lat="42.700442" lon="0.830522">
        <ele>1134.8</ele>
        <time>1970-01-01T11:53:33.000Z</time>
      </trkpt>
      <trkpt lat="42.700371" lon="0.830702">
        <ele>1135.8</ele>
        <time>1970-01-01T11:53:40.000Z</time>
      </trkpt>
      <trkpt lat="42.700282" lon="0.830735">
        <ele>1137</ele>
        <time>1970-01-01T11:53:45.000Z</time>
      </trkpt>
      <trkpt lat="42.700193" lon="0.830734">
        <ele>1138</ele>
        <time>1970-01-01T11:53:49.000Z</time>
      </trkpt>
      <trkpt lat="42.700115" lon="0.830715">
        <ele>1139.4</ele>
        <time>1970-01-01T11:53:53.000Z</time>
      </trkpt>
      <trkpt lat="42.700076" lon="0.830716">
        <ele>1139.8</ele>
        <time>1970-01-01T11:53:55.000Z</time>
      </trkpt>
      <trkpt lat="42.700002" lon="0.830759">
        <ele>1140.4</ele>
        <time>1970-01-01T11:53:59.000Z</time>
      </trkpt>
      <trkpt lat="42.69992" lon="0.830803">
        <ele>1140.8</ele>
        <time>1970-01-01T11:54:04.000Z</time>
      </trkpt>
      <trkpt lat="42.69986" lon="0.830717">
        <ele>1141.4</ele>
        <time>1970-01-01T11:54:08.000Z</time>
      </trkpt>
      <trkpt lat="42.699848" lon="0.830691">
        <ele>1141.8</ele>
        <time>1970-01-01T11:54:09.000Z</time>
      </trkpt>
      <trkpt lat="42.699597" lon="0.830045">
        <ele>1141.4</ele>
        <time>1970-01-01T11:54:26.000Z</time>
      </trkpt>
      <trkpt lat="42.699569" lon="0.829928">
        <ele>1140.8</ele>
        <time>1970-01-01T11:54:28.000Z</time>
      </trkpt>
      <trkpt lat="42.699417" lon="0.829529">
        <ele>1140</ele>
        <time>1970-01-01T11:54:35.000Z</time>
      </trkpt>
      <trkpt lat="42.699271" lon="0.829197">
        <ele>1139</ele>
        <time>1970-01-01T11:54:42.000Z</time>
      </trkpt>
      <trkpt lat="42.698958" lon="0.828578">
        <ele>1139.2</ele>
        <time>1970-01-01T11:54:57.000Z</time>
      </trkpt>
      <trkpt lat="42.698949" lon="0.828546">
        <ele>1139</ele>
        <time>1970-01-01T11:54:58.000Z</time>
      </trkpt>
      <trkpt lat="42.69898" lon="0.828447">
        <ele>1139.2</ele>
        <time>1970-01-01T11:55:02.000Z</time>
      </trkpt>
      <trkpt lat="42.699069" lon="0.82827">
        <ele>1138.4</ele>
        <time>1970-01-01T11:55:07.000Z</time>
      </trkpt>
      <trkpt lat="42.699137" lon="0.828125">
        <ele>1136.8</ele>
        <time>1970-01-01T11:55:10.000Z</time>
      </trkpt>
      <trkpt lat="42.699168" lon="0.827856">
        <ele>1135.8</ele>
        <time>1970-01-01T11:55:15.000Z</time>
      </trkpt>
      <trkpt lat="42.699173" lon="0.827685">
        <ele>1135</ele>
        <time>1970-01-01T11:55:19.000Z</time>
      </trkpt>
      <trkpt lat="42.699217" lon="0.827582">
        <ele>1133.8</ele>
        <time>1970-01-01T11:55:21.000Z</time>
      </trkpt>
      <trkpt lat="42.699271" lon="0.827376">
        <ele>1132.8</ele>
        <time>1970-01-01T11:55:25.000Z</time>
      </trkpt>
      <trkpt lat="42.699308" lon="0.827215">
        <ele>1131.8</ele>
        <time>1970-01-01T11:55:28.000Z</time>
      </trkpt>
      <trkpt lat="42.699318" lon="0.827147">
        <ele>1131.4</ele>
        <time>1970-01-01T11:55:29.000Z</time>
      </trkpt>
      <trkpt lat="42.699346" lon="0.827009">
        <ele>1130.6</ele>
        <time>1970-01-01T11:55:31.000Z</time>
      </trkpt>
      <trkpt lat="42.699357" lon="0.82688">
        <ele>1130.4</ele>
        <time>1970-01-01T11:55:33.000Z</time>
      </trkpt>
      <trkpt lat="42.69936" lon="0.826694">
        <ele>1129.8</ele>
        <time>1970-01-01T11:55:36.000Z</time>
      </trkpt>
      <trkpt lat="42.699365" lon="0.826634">
        <ele>1129.4</ele>
        <time>1970-01-01T11:55:37.000Z</time>
      </trkpt>
      <trkpt lat="42.699381" lon="0.826438">
        <ele>1128.6</ele>
        <time>1970-01-01T11:55:40.000Z</time>
      </trkpt>
      <trkpt lat="42.699311" lon="0.826045">
        <ele>1127.6</ele>
        <time>1970-01-01T11:55:46.000Z</time>
      </trkpt>
      <trkpt lat="42.6993" lon="0.825907">
        <ele>1127</ele>
        <time>1970-01-01T11:55:48.000Z</time>
      </trkpt>
      <trkpt lat="42.699274" lon="0.825766">
        <ele>1126.2</ele>
        <time>1970-01-01T11:55:50.000Z</time>
      </trkpt>
      <trkpt lat="42.699235" lon="0.825611">
        <ele>1125.2</ele>
        <time>1970-01-01T11:55:53.000Z</time>
      </trkpt>
      <trkpt lat="42.699204" lon="0.82546">
        <ele>1124.2</ele>
        <time>1970-01-01T11:55:56.000Z</time>
      </trkpt>
      <trkpt lat="42.699181" lon="0.825311">
        <ele>1122.8</ele>
        <time>1970-01-01T11:55:58.000Z</time>
      </trkpt>
      <trkpt lat="42.699155" lon="0.825148">
        <ele>1121.4</ele>
        <time>1970-01-01T11:56:00.000Z</time>
      </trkpt>
      <trkpt lat="42.69914" lon="0.825002">
        <ele>1121.4</ele>
        <time>1970-01-01T11:56:02.000Z</time>
      </trkpt>
      <trkpt lat="42.69926" lon="0.824783">
        <ele>1120.8</ele>
        <time>1970-01-01T11:56:07.000Z</time>
      </trkpt>
      <trkpt lat="42.699297" lon="0.824719">
        <ele>1120.6</ele>
        <time>1970-01-01T11:56:09.000Z</time>
      </trkpt>
      <trkpt lat="42.699368" lon="0.824522">
        <ele>1120.8</ele>
        <time>1970-01-01T11:56:17.000Z</time>
      </trkpt>
      <trkpt lat="42.699317" lon="0.824619">
        <ele>1120.4</ele>
        <time>1970-01-01T11:56:53.000Z</time>
      </trkpt>
      <trkpt lat="42.699108" lon="0.824905">
        <ele>1121</ele>
        <time>1970-01-01T11:57:08.000Z</time>
      </trkpt>
      <trkpt lat="42.698729" lon="0.824375">
        <ele>1122</ele>
        <time>1970-01-01T11:57:27.000Z</time>
      </trkpt>
      <trkpt lat="42.698664" lon="0.824238">
        <ele>1122.4</ele>
        <time>1970-01-01T11:57:31.000Z</time>
      </trkpt>
      <trkpt lat="42.698555" lon="0.824047">
        <ele>1123.8</ele>
        <time>1970-01-01T11:57:37.000Z</time>
      </trkpt>
      <trkpt lat="42.698356" lon="0.823932">
        <ele>1124.8</ele>
        <time>1970-01-01T11:57:45.000Z</time>
      </trkpt>
      <trkpt lat="42.698261" lon="0.823928">
        <ele>1126</ele>
        <time>1970-01-01T11:57:49.000Z</time>
      </trkpt>
      <trkpt lat="42.698202" lon="0.823924">
        <ele>1127.2</ele>
        <time>1970-01-01T11:57:52.000Z</time>
      </trkpt>
      <trkpt lat="42.698186" lon="0.823915">
        <ele>1127.6</ele>
        <time>1970-01-01T11:57:53.000Z</time>
      </trkpt>
      <trkpt lat="42.698138" lon="0.823739">
        <ele>1128</ele>
        <time>1970-01-01T11:57:59.000Z</time>
      </trkpt>
      <trkpt lat="42.698065" lon="0.822964">
        <ele>1126.8</ele>
        <time>1970-01-01T11:58:14.000Z</time>
      </trkpt>
      <trkpt lat="42.698034" lon="0.822606">
        <ele>1126.4</ele>
        <time>1970-01-01T11:58:20.000Z</time>
      </trkpt>
      <trkpt lat="42.698" lon="0.822153">
        <ele>1126.4</ele>
        <time>1970-01-01T11:58:27.000Z</time>
      </trkpt>
      <trkpt lat="42.698065" lon="0.821903">
        <ele>1126.4</ele>
        <time>1970-01-01T11:58:31.000Z</time>
      </trkpt>
      <trkpt lat="42.698086" lon="0.821841">
        <ele>1126.6</ele>
        <time>1970-01-01T11:58:32.000Z</time>
      </trkpt>
      <trkpt lat="42.698034" lon="0.821508">
        <ele>1126.8</ele>
        <time>1970-01-01T11:58:37.000Z</time>
      </trkpt>
      <trkpt lat="42.698015" lon="0.821443">
        <ele>1126.8</ele>
        <time>1970-01-01T11:58:38.000Z</time>
      </trkpt>
      <trkpt lat="42.698028" lon="0.82067">
        <ele>1126.8</ele>
        <time>1970-01-01T11:58:49.000Z</time>
      </trkpt>
      <trkpt lat="42.698087" lon="0.820026">
        <ele>1128</ele>
        <time>1970-01-01T11:58:58.000Z</time>
      </trkpt>
      <trkpt lat="42.69815" lon="0.81956">
        <ele>1129</ele>
        <time>1970-01-01T11:59:05.000Z</time>
      </trkpt>
      <trkpt lat="42.69814" lon="0.818807">
        <ele>1130</ele>
        <time>1970-01-01T11:59:16.000Z</time>
      </trkpt>
      <trkpt lat="42.698058" lon="0.818392">
        <ele>1130.2</ele>
        <time>1970-01-01T11:59:22.000Z</time>
      </trkpt>
      <trkpt lat="42.697817" lon="0.817724">
        <ele>1130.6</ele>
        <time>1970-01-01T11:59:32.000Z</time>
      </trkpt>
      <trkpt lat="42.69775" lon="0.817541">
        <ele>1131</ele>
        <time>1970-01-01T11:59:35.000Z</time>
      </trkpt>
      <trkpt lat="42.697605" lon="0.817163">
        <ele>1130.6</ele>
        <time>1970-01-01T11:59:42.000Z</time>
      </trkpt>
      <trkpt lat="42.697355" lon="0.816478">
        <ele>1130.2</ele>
        <time>1970-01-01T11:59:53.000Z</time>
      </trkpt>
      <trkpt lat="42.697249" lon="0.816171">
        <ele>1129.6</ele>
        <time>1970-01-01T11:59:57.000Z</time>
      </trkpt>
      <trkpt lat="42.697149" lon="0.81591">
        <ele>1128.4</ele>
        <time>1970-01-01T12:00:00.000Z</time>
      </trkpt>
      <trkpt lat="42.697078" lon="0.815716">
        <ele>1127.4</ele>
        <time>1970-01-01T12:00:02.000Z</time>
      </trkpt>
      <trkpt lat="42.696959" lon="0.8154">
        <ele>1125.8</ele>
        <time>1970-01-01T12:00:05.000Z</time>
      </trkpt>
      <trkpt lat="42.696919" lon="0.815285">
        <ele>1124.8</ele>
        <time>1970-01-01T12:00:06.000Z</time>
      </trkpt>
      <trkpt lat="42.696843" lon="0.815042">
        <ele>1123.6</ele>
        <time>1970-01-01T12:00:08.000Z</time>
      </trkpt>
      <trkpt lat="42.696784" lon="0.814776">
        <ele>1122.2</ele>
        <time>1970-01-01T12:00:10.000Z</time>
      </trkpt>
      <trkpt lat="42.696764" lon="0.814636">
        <ele>1121.4</ele>
        <time>1970-01-01T12:00:11.000Z</time>
      </trkpt>
      <trkpt lat="42.696754" lon="0.814491">
        <ele>1120.8</ele>
        <time>1970-01-01T12:00:12.000Z</time>
      </trkpt>
      <trkpt lat="42.696754" lon="0.814194">
        <ele>1119.4</ele>
        <time>1970-01-01T12:00:14.000Z</time>
      </trkpt>
      <trkpt lat="42.696773" lon="0.813766">
        <ele>1117.8</ele>
        <time>1970-01-01T12:00:17.000Z</time>
      </trkpt>
      <trkpt lat="42.696793" lon="0.813493">
        <ele>1116.2</ele>
        <time>1970-01-01T12:00:19.000Z</time>
      </trkpt>
      <trkpt lat="42.69682" lon="0.813217">
        <ele>1115.2</ele>
        <time>1970-01-01T12:00:21.000Z</time>
      </trkpt>
      <trkpt lat="42.696863" lon="0.812805">
        <ele>1114.2</ele>
        <time>1970-01-01T12:00:24.000Z</time>
      </trkpt>
      <trkpt lat="42.69697" lon="0.811997">
        <ele>1113.2</ele>
        <time>1970-01-01T12:00:30.000Z</time>
      </trkpt>
      <trkpt lat="42.696988" lon="0.811865">
        <ele>1112.8</ele>
        <time>1970-01-01T12:00:31.000Z</time>
      </trkpt>
      <trkpt lat="42.697058" lon="0.81134">
        <ele>1111.8</ele>
        <time>1970-01-01T12:00:35.000Z</time>
      </trkpt>
      <trkpt lat="42.697156" lon="0.810693">
        <ele>1110.8</ele>
        <time>1970-01-01T12:00:40.000Z</time>
      </trkpt>
      <trkpt lat="42.697201" lon="0.810265">
        <ele>1110.6</ele>
        <time>1970-01-01T12:00:44.000Z</time>
      </trkpt>
      <trkpt lat="42.697188" lon="0.810021">
        <ele>1111.2</ele>
        <time>1970-01-01T12:00:48.000Z</time>
      </trkpt>
      <trkpt lat="42.697195" lon="0.809862">
        <ele>1111.2</ele>
        <time>1970-01-01T12:00:51.000Z</time>
      </trkpt>
      <trkpt lat="42.697225" lon="0.809606">
        <ele>1110.6</ele>
        <time>1970-01-01T12:00:56.000Z</time>
      </trkpt>
      <trkpt lat="42.697217" lon="0.809341">
        <ele>1110.2</ele>
        <time>1970-01-01T12:01:00.000Z</time>
      </trkpt>
      <trkpt lat="42.697204" lon="0.808537">
        <ele>1109</ele>
        <time>1970-01-01T12:01:09.000Z</time>
      </trkpt>
      <trkpt lat="42.697276" lon="0.807782">
        <ele>1108.6</ele>
        <time>1970-01-01T12:01:17.000Z</time>
      </trkpt>
      <trkpt lat="42.697379" lon="0.807023">
        <ele>1109</ele>
        <time>1970-01-01T12:01:25.000Z</time>
      </trkpt>
      <trkpt lat="42.697454" lon="0.806247">
        <ele>1108.8</ele>
        <time>1970-01-01T12:01:34.000Z</time>
      </trkpt>
      <trkpt lat="42.697457" lon="0.806081">
        <ele>1108.4</ele>
        <time>1970-01-01T12:01:36.000Z</time>
      </trkpt>
      <trkpt lat="42.697473" lon="0.805998">
        <ele>1108.2</ele>
        <time>1970-01-01T12:01:37.000Z</time>
      </trkpt>
      <trkpt lat="42.697656" lon="0.805574">
        <ele>1107</ele>
        <time>1970-01-01T12:01:42.000Z</time>
      </trkpt>
      <trkpt lat="42.697717" lon="0.805488">
        <ele>1106.4</ele>
        <time>1970-01-01T12:01:43.000Z</time>
      </trkpt>
      <trkpt lat="42.69778" lon="0.805396">
        <ele>1105.6</ele>
        <time>1970-01-01T12:01:44.000Z</time>
      </trkpt>
      <trkpt lat="42.697905" lon="0.805229">
        <ele>1104</ele>
        <time>1970-01-01T12:01:46.000Z</time>
      </trkpt>
      <trkpt lat="42.698021" lon="0.805073">
        <ele>1102.6</ele>
        <time>1970-01-01T12:01:48.000Z</time>
      </trkpt>
      <trkpt lat="42.698122" lon="0.804936">
        <ele>1101.4</ele>
        <time>1970-01-01T12:01:50.000Z</time>
      </trkpt>
      <trkpt lat="42.698232" lon="0.804797">
        <ele>1100</ele>
        <time>1970-01-01T12:01:52.000Z</time>
      </trkpt>
      <trkpt lat="42.698344" lon="0.804652">
        <ele>1099</ele>
        <time>1970-01-01T12:01:54.000Z</time>
      </trkpt>
      <trkpt lat="42.698512" lon="0.804419">
        <ele>1097.6</ele>
        <time>1970-01-01T12:01:57.000Z</time>
      </trkpt>
      <trkpt lat="42.698611" lon="0.804261">
        <ele>1096.4</ele>
        <time>1970-01-01T12:01:59.000Z</time>
      </trkpt>
      <trkpt lat="42.698697" lon="0.804068">
        <ele>1094</ele>
        <time>1970-01-01T12:02:01.000Z</time>
      </trkpt>
      <trkpt lat="42.698773" lon="0.803842">
        <ele>1092.2</ele>
        <time>1970-01-01T12:02:03.000Z</time>
      </trkpt>
      <trkpt lat="42.698838" lon="0.803592">
        <ele>1091</ele>
        <time>1970-01-01T12:02:05.000Z</time>
      </trkpt>
      <trkpt lat="42.698933" lon="0.803078">
        <ele>1089.6</ele>
        <time>1970-01-01T12:02:09.000Z</time>
      </trkpt>
      <trkpt lat="42.698955" lon="0.802949">
        <ele>1088.6</ele>
        <time>1970-01-01T12:02:10.000Z</time>
      </trkpt>
      <trkpt lat="42.698976" lon="0.802817">
        <ele>1087.4</ele>
        <time>1970-01-01T12:02:11.000Z</time>
      </trkpt>
      <trkpt lat="42.698999" lon="0.802691">
        <ele>1086.2</ele>
        <time>1970-01-01T12:02:12.000Z</time>
      </trkpt>
      <trkpt lat="42.699042" lon="0.802465">
        <ele>1084.8</ele>
        <time>1970-01-01T12:02:14.000Z</time>
      </trkpt>
      <trkpt lat="42.699086" lon="0.802136">
        <ele>1083.6</ele>
        <time>1970-01-01T12:02:17.000Z</time>
      </trkpt>
      <trkpt lat="42.699125" lon="0.801796">
        <ele>1082.4</ele>
        <time>1970-01-01T12:02:20.000Z</time>
      </trkpt>
      <trkpt lat="42.699154" lon="0.801578">
        <ele>1081.6</ele>
        <time>1970-01-01T12:02:22.000Z</time>
      </trkpt>
      <trkpt lat="42.699225" lon="0.801261">
        <ele>1080.2</ele>
        <time>1970-01-01T12:02:25.000Z</time>
      </trkpt>
      <trkpt lat="42.699334" lon="0.80095">
        <ele>1079</ele>
        <time>1970-01-01T12:02:28.000Z</time>
      </trkpt>
      <trkpt lat="42.699454" lon="0.800638">
        <ele>1077.6</ele>
        <time>1970-01-01T12:02:31.000Z</time>
      </trkpt>
      <trkpt lat="42.69972" lon="0.799968">
        <ele>1078</ele>
        <time>1970-01-01T12:02:41.000Z</time>
      </trkpt>
      <trkpt lat="42.699908" lon="0.799548">
        <ele>1077.8</ele>
        <time>1970-01-01T12:02:56.000Z</time>
      </trkpt>
      <trkpt lat="42.699941" lon="0.799494">
        <ele>1077.6</ele>
        <time>1970-01-01T12:03:04.000Z</time>
      </trkpt>
      <trkpt lat="42.700024" lon="0.7993">
        <ele>1077.2</ele>
        <time>1970-01-01T12:03:09.000Z</time>
      </trkpt>
      <trkpt lat="42.700289" lon="0.798679">
        <ele>1077.8</ele>
        <time>1970-01-01T12:03:25.000Z</time>
      </trkpt>
      <trkpt lat="42.700366" lon="0.798657">
        <ele>1077.4</ele>
        <time>1970-01-01T12:03:29.000Z</time>
      </trkpt>
      <trkpt lat="42.700457" lon="0.79847">
        <ele>1076.8</ele>
        <time>1970-01-01T12:03:34.000Z</time>
      </trkpt>
      <trkpt lat="42.700526" lon="0.798369">
        <ele>1076.2</ele>
        <time>1970-01-01T12:03:36.000Z</time>
      </trkpt>
      <trkpt lat="42.7007" lon="0.798295">
        <ele>1075.8</ele>
        <time>1970-01-01T12:03:41.000Z</time>
      </trkpt>
      <trkpt lat="42.700738" lon="0.798327">
        <ele>1075.8</ele>
        <time>1970-01-01T12:03:42.000Z</time>
      </trkpt>
      <trkpt lat="42.700886" lon="0.798453">
        <ele>1075.4</ele>
        <time>1970-01-01T12:03:46.000Z</time>
      </trkpt>
      <trkpt lat="42.701" lon="0.798407">
        <ele>1074.8</ele>
        <time>1970-01-01T12:03:49.000Z</time>
      </trkpt>
      <trkpt lat="42.701079" lon="0.798242">
        <ele>1074.8</ele>
        <time>1970-01-01T12:03:53.000Z</time>
      </trkpt>
      <trkpt lat="42.701141" lon="0.798122">
        <ele>1075</ele>
        <time>1970-01-01T12:03:57.000Z</time>
      </trkpt>
      <trkpt lat="42.701293" lon="0.798042">
        <ele>1075.2</ele>
        <time>1970-01-01T12:04:06.000Z</time>
      </trkpt>
      <trkpt lat="42.702037" lon="0.795645">
        <ele>973.8</ele>
        <time>1970-01-01T00:00:00.000Z</time>
      </trkpt>
      <trkpt lat="42.702038" lon="0.795645">
        <ele>974.2</ele>
        <time>1970-01-01T00:00:01.000Z</time>
      </trkpt>
      <trkpt lat="42.701976" lon="0.795789">
        <ele>974.2</ele>
        <time>1970-01-01T00:00:54.000Z</time>
      </trkpt>
      <trkpt lat="42.7019" lon="0.795718">
        <ele>974.6</ele>
        <time>1970-01-01T00:01:02.000Z</time>
      </trkpt>
      <trkpt lat="42.701853" lon="0.795703">
        <ele>974.8</ele>
        <time>1970-01-01T00:01:23.000Z</time>
      </trkpt>
      <trkpt lat="42.701798" lon="0.795765">
        <ele>975</ele>
        <time>1970-01-01T00:01:27.000Z</time>
      </trkpt>
      <trkpt lat="42.701722" lon="0.795899">
        <ele>975.4</ele>
        <time>1970-01-01T00:01:32.000Z</time>
      </trkpt>
      <trkpt lat="42.701584" lon="0.79616">
        <ele>976.4</ele>
        <time>1970-01-01T00:01:43.000Z</time>
      </trkpt>
      <trkpt lat="42.701496" lon="0.796423">
        <ele>976.2</ele>
        <time>1970-01-01T00:01:56.000Z</time>
      </trkpt>
      <trkpt lat="42.701838" lon="0.795929">
        <ele>975.4</ele>
        <time>1970-01-01T00:02:10.000Z</time>
      </trkpt>
      <trkpt lat="42.701888" lon="0.795824">
        <ele>975.2</ele>
        <time>1970-01-01T00:02:12.000Z</time>
      </trkpt>
      <trkpt lat="42.702277" lon="0.795301">
        <ele>974.6</ele>
        <time>1970-01-01T00:02:23.000Z</time>
      </trkpt>
      <trkpt lat="42.702315" lon="0.795248">
        <ele>974.4</ele>
        <time>1970-01-01T00:02:24.000Z</time>
      </trkpt>
      <trkpt lat="42.702344" lon="0.795189">
        <ele>974.4</ele>
        <time>1970-01-01T00:02:25.000Z</time>
      </trkpt>
      <trkpt lat="42.702624" lon="0.794516">
        <ele>974</ele>
        <time>1970-01-01T00:02:38.000Z</time>
      </trkpt>
      <trkpt lat="42.70289" lon="0.793873">
        <ele>975.2</ele>
        <time>1970-01-01T00:02:51.000Z</time>
      </trkpt>
      <trkpt lat="42.70291" lon="0.793829">
        <ele>975.4</ele>
        <time>1970-01-01T00:02:52.000Z</time>
      </trkpt>
      <trkpt lat="42.703139" lon="0.79321">
        <ele>976.6</ele>
        <time>1970-01-01T00:03:08.000Z</time>
      </trkpt>
      <trkpt lat="42.703236" lon="0.792965">
        <ele>977.8</ele>
        <time>1970-01-01T00:03:15.000Z</time>
      </trkpt>
      <trkpt lat="42.703329" lon="0.792909">
        <ele>979</ele>
        <time>1970-01-01T00:03:20.000Z</time>
      </trkpt>
      <trkpt lat="42.703504" lon="0.792886">
        <ele>980.2</ele>
        <time>1970-01-01T00:03:27.000Z</time>
      </trkpt>
      <trkpt lat="42.703665" lon="0.792859">
        <ele>981.2</ele>
        <time>1970-01-01T00:03:33.000Z</time>
      </trkpt>
      <trkpt lat="42.703929" lon="0.792842">
        <ele>982.4</ele>
        <time>1970-01-01T00:03:41.000Z</time>
      </trkpt>
      <trkpt lat="42.704112" lon="0.792783">
        <ele>983.6</ele>
        <time>1970-01-01T00:03:47.000Z</time>
      </trkpt>
      <trkpt lat="42.704287" lon="0.792656">
        <ele>984.6</ele>
        <time>1970-01-01T00:03:54.000Z</time>
      </trkpt>
      <trkpt lat="42.704387" lon="0.792579">
        <ele>985.2</ele>
        <time>1970-01-01T00:03:58.000Z</time>
      </trkpt>
      <trkpt lat="42.704438" lon="0.792538">
        <ele>985.6</ele>
        <time>1970-01-01T00:04:00.000Z</time>
      </trkpt>
      <trkpt lat="42.704626" lon="0.792432">
        <ele>986.6</ele>
        <time>1970-01-01T00:04:07.000Z</time>
      </trkpt>
      <trkpt lat="42.705138" lon="0.792167">
        <ele>987</ele>
        <time>1970-01-01T00:04:22.000Z</time>
      </trkpt>
      <trkpt lat="42.705673" lon="0.792059">
        <ele>987.4</ele>
        <time>1970-01-01T00:04:36.000Z</time>
      </trkpt>
      <trkpt lat="42.706134" lon="0.791879">
        <ele>987.8</ele>
        <time>1970-01-01T00:04:48.000Z</time>
      </trkpt>
      <trkpt lat="42.706701" lon="0.791734">
        <ele>987.6</ele>
        <time>1970-01-01T00:05:02.000Z</time>
      </trkpt>
      <trkpt lat="42.706917" lon="0.791722">
        <ele>987.4</ele>
        <time>1970-01-01T00:05:07.000Z</time>
      </trkpt>
      <trkpt lat="42.707284" lon="0.791904">
        <ele>989.2</ele>
        <time>1970-01-01T00:05:18.000Z</time>
      </trkpt>
      <trkpt lat="42.707391" lon="0.791957">
        <ele>990.2</ele>
        <time>1970-01-01T00:05:22.000Z</time>
      </trkpt>
      <trkpt lat="42.70749" lon="0.79199">
        <ele>991.6</ele>
        <time>1970-01-01T00:05:26.000Z</time>
      </trkpt>
      <trkpt lat="42.707565" lon="0.791995">
        <ele>992.8</ele>
        <time>1970-01-01T00:05:29.000Z</time>
      </trkpt>
      <trkpt lat="42.707683" lon="0.792015">
        <ele>994.2</ele>
        <time>1970-01-01T00:05:34.000Z</time>
      </trkpt>
      <trkpt lat="42.707853" lon="0.792042">
        <ele>995.4</ele>
        <time>1970-01-01T00:05:40.000Z</time>
      </trkpt>
      <trkpt lat="42.707993" lon="0.791997">
        <ele>996.4</ele>
        <time>1970-01-01T00:05:45.000Z</time>
      </trkpt>
      <trkpt lat="42.708164" lon="0.791945">
        <ele>997.4</ele>
        <time>1970-01-01T00:05:51.000Z</time>
      </trkpt>
      <trkpt lat="42.708388" lon="0.791916">
        <ele>998.6</ele>
        <time>1970-01-01T00:05:59.000Z</time>
      </trkpt>
      <trkpt lat="42.708518" lon="0.79191">
        <ele>999.6</ele>
        <time>1970-01-01T00:06:04.000Z</time>
      </trkpt>
      <trkpt lat="42.708689" lon="0.791908">
        <ele>1000.8</ele>
        <time>1970-01-01T00:06:11.000Z</time>
      </trkpt>
      <trkpt lat="42.70878" lon="0.791901">
        <ele>1001.6</ele>
        <time>1970-01-01T00:06:15.000Z</time>
      </trkpt>
      <trkpt lat="42.708824" lon="0.791898">
        <ele>1002</ele>
        <time>1970-01-01T00:06:17.000Z</time>
      </trkpt>
      <trkpt lat="42.708929" lon="0.791885">
        <ele>1003.2</ele>
        <time>1970-01-01T00:06:22.000Z</time>
      </trkpt>
      <trkpt lat="42.708988" lon="0.791804">
        <ele>1004.4</ele>
        <time>1970-01-01T00:06:26.000Z</time>
      </trkpt>
      <trkpt lat="42.70896" lon="0.791647">
        <ele>1005.6</ele>
        <time>1970-01-01T00:06:31.000Z</time>
      </trkpt>
      <trkpt lat="42.708845" lon="0.791561">
        <ele>1006.8</ele>
        <time>1970-01-01T00:06:36.000Z</time>
      </trkpt>
      <trkpt lat="42.708723" lon="0.791495">
        <ele>1007.8</ele>
        <time>1970-01-01T00:06:41.000Z</time>
      </trkpt>
      <trkpt lat="42.708627" lon="0.791455">
        <ele>1009.2</ele>
        <time>1970-01-01T00:06:45.000Z</time>
      </trkpt>
      <trkpt lat="42.708521" lon="0.791417">
        <ele>1010.2</ele>
        <time>1970-01-01T00:06:50.000Z</time>
      </trkpt>
      <trkpt lat="42.708408" lon="0.791384">
        <ele>1011.6</ele>
        <time>1970-01-01T00:06:55.000Z</time>
      </trkpt>
      <trkpt lat="42.708304" lon="0.791326">
        <ele>1012.6</ele>
        <time>1970-01-01T00:07:00.000Z</time>
      </trkpt>
      <trkpt lat="42.708228" lon="0.791283">
        <ele>1013.8</ele>
        <time>1970-01-01T00:07:04.000Z</time>
      </trkpt>
      <trkpt lat="42.708141" lon="0.791246">
        <ele>1015</ele>
        <time>1970-01-01T00:07:08.000Z</time>
      </trkpt>
      <trkpt lat="42.708033" lon="0.791199">
        <ele>1016.2</ele>
        <time>1970-01-01T00:07:13.000Z</time>
      </trkpt>
      <trkpt lat="42.707937" lon="0.791146">
        <ele>1017</ele>
        <time>1970-01-01T00:07:18.000Z</time>
      </trkpt>
      <trkpt lat="42.707886" lon="0.79108">
        <ele>1018.2</ele>
        <time>1970-01-01T00:07:22.000Z</time>
      </trkpt>
      <trkpt lat="42.707856" lon="0.791012">
        <ele>1019.2</ele>
        <time>1970-01-01T00:07:27.000Z</time>
      </trkpt>
      <trkpt lat="42.707858" lon="0.790995">
        <ele>1019.2</ele>
        <time>1970-01-01T00:07:28.000Z</time>
      </trkpt>
      <trkpt lat="42.707895" lon="0.79086">
        <ele>1020.4</ele>
        <time>1970-01-01T00:07:34.000Z</time>
      </trkpt>
      <trkpt lat="42.707906" lon="0.790834">
        <ele>1020.6</ele>
        <time>1970-01-01T00:07:35.000Z</time>
      </trkpt>
      <trkpt lat="42.707944" lon="0.790774">
        <ele>1021.6</ele>
        <time>1970-01-01T00:07:38.000Z</time>
      </trkpt>
      <trkpt lat="42.707979" lon="0.790677">
        <ele>1022.8</ele>
        <time>1970-01-01T00:07:42.000Z</time>
      </trkpt>
      <trkpt lat="42.708016" lon="0.790579">
        <ele>1023.8</ele>
        <time>1970-01-01T00:07:46.000Z</time>
      </trkpt>
      <trkpt lat="42.708084" lon="0.790494">
        <ele>1024.8</ele>
        <time>1970-01-01T00:07:52.000Z</time>
      </trkpt>
      <trkpt lat="42.70815" lon="0.790539">
        <ele>1026</ele>
        <time>1970-01-01T00:07:59.000Z</time>
      </trkpt>
      <trkpt lat="42.70822" lon="0.79061">
        <ele>1027</ele>
        <time>1970-01-01T00:08:05.000Z</time>
      </trkpt>
      <trkpt lat="42.708237" lon="0.790616">
        <ele>1027.4</ele>
        <time>1970-01-01T00:08:06.000Z</time>
      </trkpt>
      <trkpt lat="42.708292" lon="0.790639">
        <ele>1028</ele>
        <time>1970-01-01T00:08:09.000Z</time>
      </trkpt>
      <trkpt lat="42.708348" lon="0.790661">
        <ele>1028.6</ele>
        <time>1970-01-01T00:08:12.000Z</time>
      </trkpt>
      <trkpt lat="42.708366" lon="0.790661">
        <ele>1028.6</ele>
        <time>1970-01-01T00:08:13.000Z</time>
      </trkpt>
      <trkpt lat="42.708444" lon="0.790678">
        <ele>1028.8</ele>
        <time>1970-01-01T00:08:17.000Z</time>
      </trkpt>
      <trkpt lat="42.708797" lon="0.790799">
        <ele>1029.6</ele>
        <time>1970-01-01T00:08:33.000Z</time>
      </trkpt>
      <trkpt lat="42.709072" lon="0.790845">
        <ele>1030.8</ele>
        <time>1970-01-01T00:08:48.000Z</time>
      </trkpt>
      <trkpt lat="42.709264" lon="0.79091">
        <ele>1031.8</ele>
        <time>1970-01-01T00:08:57.000Z</time>
      </trkpt>
      <trkpt lat="42.709415" lon="0.790954">
        <ele>1033</ele>
        <time>1970-01-01T00:09:04.000Z</time>
      </trkpt>
      <trkpt lat="42.709546" lon="0.790997">
        <ele>1034</ele>
        <time>1970-01-01T00:09:10.000Z</time>
      </trkpt>
      <trkpt lat="42.709681" lon="0.791039">
        <ele>1035.2</ele>
        <time>1970-01-01T00:09:17.000Z</time>
      </trkpt>
      <trkpt lat="42.709838" lon="0.79109">
        <ele>1036.2</ele>
        <time>1970-01-01T00:09:24.000Z</time>
      </trkpt>
      <trkpt lat="42.710048" lon="0.791127">
        <ele>1037.4</ele>
        <time>1970-01-01T00:09:32.000Z</time>
      </trkpt>
      <trkpt lat="42.710275" lon="0.79117">
        <ele>1038.4</ele>
        <time>1970-01-01T00:09:41.000Z</time>
      </trkpt>
      <trkpt lat="42.710522" lon="0.791208">
        <ele>1039.6</ele>
        <time>1970-01-01T00:09:51.000Z</time>
      </trkpt>
      <trkpt lat="42.710697" lon="0.791254">
        <ele>1040.6</ele>
        <time>1970-01-01T00:09:58.000Z</time>
      </trkpt>
      <trkpt lat="42.710861" lon="0.791286">
        <ele>1041.8</ele>
        <time>1970-01-01T00:10:05.000Z</time>
      </trkpt>
      <trkpt lat="42.71097" lon="0.791311">
        <ele>1043</ele>
        <time>1970-01-01T00:10:10.000Z</time>
      </trkpt>
      <trkpt lat="42.711097" lon="0.791371">
        <ele>1044</ele>
        <time>1970-01-01T00:10:16.000Z</time>
      </trkpt>
      <trkpt lat="42.711195" lon="0.791513">
        <ele>1045</ele>
        <time>1970-01-01T00:10:22.000Z</time>
      </trkpt>
      <trkpt lat="42.711403" lon="0.791832">
        <ele>1046.2</ele>
        <time>1970-01-01T00:10:34.000Z</time>
      </trkpt>
      <trkpt lat="42.711642" lon="0.79193">
        <ele>1047.2</ele>
        <time>1970-01-01T00:10:44.000Z</time>
      </trkpt>
      <trkpt lat="42.71179" lon="0.791965">
        <ele>1048.4</ele>
        <time>1970-01-01T00:10:50.000Z</time>
      </trkpt>
      <trkpt lat="42.711994" lon="0.792029">
        <ele>1049.4</ele>
        <time>1970-01-01T00:10:58.000Z</time>
      </trkpt>
      <trkpt lat="42.712207" lon="0.792106">
        <ele>1050.6</ele>
        <time>1970-01-01T00:11:06.000Z</time>
      </trkpt>
      <trkpt lat="42.712477" lon="0.792205">
        <ele>1051.6</ele>
        <time>1970-01-01T00:11:16.000Z</time>
      </trkpt>
      <trkpt lat="42.712583" lon="0.792257">
        <ele>1052.4</ele>
        <time>1970-01-01T00:11:20.000Z</time>
      </trkpt>
      <trkpt lat="42.712636" lon="0.79228">
        <ele>1052.6</ele>
        <time>1970-01-01T00:11:22.000Z</time>
      </trkpt>
      <trkpt lat="42.712887" lon="0.792496">
        <ele>1053.8</ele>
        <time>1970-01-01T00:11:33.000Z</time>
      </trkpt>
      <trkpt lat="42.713105" lon="0.792659">
        <ele>1054.8</ele>
        <time>1970-01-01T00:11:42.000Z</time>
      </trkpt>
      <trkpt lat="42.713259" lon="0.792775">
        <ele>1055.8</ele>
        <time>1970-01-01T00:11:49.000Z</time>
      </trkpt>
      <trkpt lat="42.713387" lon="0.792894">
        <ele>1057</ele>
        <time>1970-01-01T00:11:55.000Z</time>
      </trkpt>
      <trkpt lat="42.713523" lon="0.792978">
        <ele>1058.4</ele>
        <time>1970-01-01T00:12:01.000Z</time>
      </trkpt>
      <trkpt lat="42.713656" lon="0.793058">
        <ele>1059.4</ele>
        <time>1970-01-01T00:12:07.000Z</time>
      </trkpt>
      <trkpt lat="42.713788" lon="0.793144">
        <ele>1060.6</ele>
        <time>1970-01-01T00:12:13.000Z</time>
      </trkpt>
      <trkpt lat="42.71392" lon="0.793211">
        <ele>1061.6</ele>
        <time>1970-01-01T00:12:19.000Z</time>
      </trkpt>
      <trkpt lat="42.714075" lon="0.79329">
        <ele>1062.6</ele>
        <time>1970-01-01T00:12:26.000Z</time>
      </trkpt>
      <trkpt lat="42.71418" lon="0.79336">
        <ele>1064</ele>
        <time>1970-01-01T00:12:31.000Z</time>
      </trkpt>
      <trkpt lat="42.714316" lon="0.793422">
        <ele>1065</ele>
        <time>1970-01-01T00:12:37.000Z</time>
      </trkpt>
      <trkpt lat="42.714537" lon="0.793443">
        <ele>1066.2</ele>
        <time>1970-01-01T00:12:46.000Z</time>
      </trkpt>
      <trkpt lat="42.714732" lon="0.793504">
        <ele>1067.2</ele>
        <time>1970-01-01T00:12:54.000Z</time>
      </trkpt>
      <trkpt lat="42.714838" lon="0.79355">
        <ele>1068.2</ele>
        <time>1970-01-01T00:12:59.000Z</time>
      </trkpt>
      <trkpt lat="42.714921" lon="0.793585">
        <ele>1069.4</ele>
        <time>1970-01-01T00:13:03.000Z</time>
      </trkpt>
      <trkpt lat="42.715022" lon="0.793623">
        <ele>1070.6</ele>
        <time>1970-01-01T00:13:08.000Z</time>
      </trkpt>
      <trkpt lat="42.715107" lon="0.793635">
        <ele>1071.6</ele>
        <time>1970-01-01T00:13:12.000Z</time>
      </trkpt>
      <trkpt lat="42.71521" lon="0.79364">
        <ele>1072.6</ele>
        <time>1970-01-01T00:13:17.000Z</time>
      </trkpt>
      <trkpt lat="42.715333" lon="0.793621">
        <ele>1074</ele>
        <time>1970-01-01T00:13:23.000Z</time>
      </trkpt>
      <trkpt lat="42.715419" lon="0.793608">
        <ele>1075</ele>
        <time>1970-01-01T00:13:27.000Z</time>
      </trkpt>
      <trkpt lat="42.715505" lon="0.7936">
        <ele>1076.2</ele>
        <time>1970-01-01T00:13:31.000Z</time>
      </trkpt>
      <trkpt lat="42.715618" lon="0.793583">
        <ele>1077.4</ele>
        <time>1970-01-01T00:13:36.000Z</time>
      </trkpt>
      <trkpt lat="42.715744" lon="0.793534">
        <ele>1078.4</ele>
        <time>1970-01-01T00:13:42.000Z</time>
      </trkpt>
      <trkpt lat="42.715837" lon="0.793476">
        <ele>1079.4</ele>
        <time>1970-01-01T00:13:47.000Z</time>
      </trkpt>
      <trkpt lat="42.716029" lon="0.793369">
        <ele>1080.6</ele>
        <time>1970-01-01T00:13:57.000Z</time>
      </trkpt>
      <trkpt lat="42.716175" lon="0.793253">
        <ele>1081.6</ele>
        <time>1970-01-01T00:14:05.000Z</time>
      </trkpt>
      <trkpt lat="42.716288" lon="0.793185">
        <ele>1082.8</ele>
        <time>1970-01-01T00:14:11.000Z</time>
      </trkpt>
      <trkpt lat="42.716417" lon="0.793104">
        <ele>1083.8</ele>
        <time>1970-01-01T00:14:18.000Z</time>
      </trkpt>
      <trkpt lat="42.716526" lon="0.793025">
        <ele>1085</ele>
        <time>1970-01-01T00:14:24.000Z</time>
      </trkpt>
      <trkpt lat="42.716617" lon="0.792962">
        <ele>1086</ele>
        <time>1970-01-01T00:14:29.000Z</time>
      </trkpt>
      <trkpt lat="42.716688" lon="0.792913">
        <ele>1087.2</ele>
        <time>1970-01-01T00:14:33.000Z</time>
      </trkpt>
      <trkpt lat="42.716766" lon="0.792824">
        <ele>1088.2</ele>
        <time>1970-01-01T00:14:38.000Z</time>
      </trkpt>
      <trkpt lat="42.716823" lon="0.792714">
        <ele>1089.4</ele>
        <time>1970-01-01T00:14:43.000Z</time>
      </trkpt>
      <trkpt lat="42.716881" lon="0.792598">
        <ele>1090.4</ele>
        <time>1970-01-01T00:14:48.000Z</time>
      </trkpt>
      <trkpt lat="42.71692" lon="0.792499">
        <ele>1091.4</ele>
        <time>1970-01-01T00:14:52.000Z</time>
      </trkpt>
      <trkpt lat="42.716941" lon="0.792394">
        <ele>1092.6</ele>
        <time>1970-01-01T00:14:56.000Z</time>
      </trkpt>
      <trkpt lat="42.716977" lon="0.792205">
        <ele>1093.6</ele>
        <time>1970-01-01T00:15:03.000Z</time>
      </trkpt>
      <trkpt lat="42.716975" lon="0.792022">
        <ele>1094.8</ele>
        <time>1970-01-01T00:15:10.000Z</time>
      </trkpt>
      <trkpt lat="42.71698" lon="0.791781">
        <ele>1095.8</ele>
        <time>1970-01-01T00:15:19.000Z</time>
      </trkpt>
      <trkpt lat="42.716983" lon="0.791604">
        <ele>1097</ele>
        <time>1970-01-01T00:15:27.000Z</time>
      </trkpt>
      <trkpt lat="42.716994" lon="0.791471">
        <ele>1098.2</ele>
        <time>1970-01-01T00:15:32.000Z</time>
      </trkpt>
      <trkpt lat="42.717007" lon="0.791352">
        <ele>1099.4</ele>
        <time>1970-01-01T00:15:37.000Z</time>
      </trkpt>
      <trkpt lat="42.717046" lon="0.791184">
        <ele>1100.4</ele>
        <time>1970-01-01T00:15:45.000Z</time>
      </trkpt>
      <trkpt lat="42.717091" lon="0.790993">
        <ele>1101.4</ele>
        <time>1970-01-01T00:15:54.000Z</time>
      </trkpt>
      <trkpt lat="42.71712" lon="0.790911">
        <ele>1102.6</ele>
        <time>1970-01-01T00:15:58.000Z</time>
      </trkpt>
      <trkpt lat="42.717178" lon="0.790747">
        <ele>1103.6</ele>
        <time>1970-01-01T00:16:05.000Z</time>
      </trkpt>
      <trkpt lat="42.717197" lon="0.790664">
        <ele>1104.6</ele>
        <time>1970-01-01T00:16:08.000Z</time>
      </trkpt>
      <trkpt lat="42.717232" lon="0.79048">
        <ele>1105.8</ele>
        <time>1970-01-01T00:16:15.000Z</time>
      </trkpt>
      <trkpt lat="42.717256" lon="0.790184">
        <ele>1106.8</ele>
        <time>1970-01-01T00:16:25.000Z</time>
      </trkpt>
      <trkpt lat="42.717313" lon="0.79003">
        <ele>1107.8</ele>
        <time>1970-01-01T00:16:32.000Z</time>
      </trkpt>
      <trkpt lat="42.717356" lon="0.789922">
        <ele>1109</ele>
        <time>1970-01-01T00:16:37.000Z</time>
      </trkpt>
      <trkpt lat="42.717421" lon="0.78977">
        <ele>1110.2</ele>
        <time>1970-01-01T00:16:44.000Z</time>
      </trkpt>
      <trkpt lat="42.717444" lon="0.789737">
        <ele>1110.6</ele>
        <time>1970-01-01T00:16:46.000Z</time>
      </trkpt>
      <trkpt lat="42.717476" lon="0.78968">
        <ele>1111.2</ele>
        <time>1970-01-01T00:16:49.000Z</time>
      </trkpt>
      <trkpt lat="42.717546" lon="0.78955">
        <ele>1112.4</ele>
        <time>1970-01-01T00:16:55.000Z</time>
      </trkpt>
      <trkpt lat="42.717586" lon="0.789457">
        <ele>1113.2</ele>
        <time>1970-01-01T00:16:59.000Z</time>
      </trkpt>
      <trkpt lat="42.717672" lon="0.78927">
        <ele>1114.6</ele>
        <time>1970-01-01T00:17:07.000Z</time>
      </trkpt>
      <trkpt lat="42.717706" lon="0.789202">
        <ele>1115.6</ele>
        <time>1970-01-01T00:17:10.000Z</time>
      </trkpt>
      <trkpt lat="42.717732" lon="0.789053">
        <ele>1116.8</ele>
        <time>1970-01-01T00:17:16.000Z</time>
      </trkpt>
      <trkpt lat="42.71765" lon="0.78902">
        <ele>1117.8</ele>
        <time>1970-01-01T00:17:22.000Z</time>
      </trkpt>
      <trkpt lat="42.717602" lon="0.789059">
        <ele>1118.2</ele>
        <time>1970-01-01T00:17:25.000Z</time>
      </trkpt>
      <trkpt lat="42.717562" lon="0.789115">
        <ele>1119</ele>
        <time>1970-01-01T00:17:28.000Z</time>
      </trkpt>
      <trkpt lat="42.717513" lon="0.789191">
        <ele>1120.2</ele>
        <time>1970-01-01T00:17:32.000Z</time>
      </trkpt>
      <trkpt lat="42.717446" lon="0.789333">
        <ele>1121.2</ele>
        <time>1970-01-01T00:17:39.000Z</time>
      </trkpt>
      <trkpt lat="42.717347" lon="0.789535">
        <ele>1122.4</ele>
        <time>1970-01-01T00:17:49.000Z</time>
      </trkpt>
      <trkpt lat="42.717336" lon="0.789551">
        <ele>1122.6</ele>
        <time>1970-01-01T00:17:50.000Z</time>
      </trkpt>
      <trkpt lat="42.717303" lon="0.789608">
        <ele>1123.2</ele>
        <time>1970-01-01T00:17:53.000Z</time>
      </trkpt>
      <trkpt lat="42.717288" lon="0.789652">
        <ele>1123.6</ele>
        <time>1970-01-01T00:17:55.000Z</time>
      </trkpt>
      <trkpt lat="42.717215" lon="0.789801">
        <ele>1124.4</ele>
        <time>1970-01-01T00:18:02.000Z</time>
      </trkpt>
      <trkpt lat="42.717157" lon="0.789941">
        <ele>1125.4</ele>
        <time>1970-01-01T00:18:08.000Z</time>
      </trkpt>
      <trkpt lat="42.717105" lon="0.790064">
        <ele>1126.6</ele>
        <time>1970-01-01T00:18:14.000Z</time>
      </trkpt>
      <trkpt lat="42.717018" lon="0.790202">
        <ele>1127.6</ele>
        <time>1970-01-01T00:18:21.000Z</time>
      </trkpt>
      <trkpt lat="42.716873" lon="0.790336">
        <ele>1128.6</ele>
        <time>1970-01-01T00:18:30.000Z</time>
      </trkpt>
      <trkpt lat="42.716801" lon="0.790412">
        <ele>1129.6</ele>
        <time>1970-01-01T00:18:35.000Z</time>
      </trkpt>
      <trkpt lat="42.716702" lon="0.790514">
        <ele>1130.6</ele>
        <time>1970-01-01T00:18:42.000Z</time>
      </trkpt>
      <trkpt lat="42.716621" lon="0.790598">
        <ele>1131.6</ele>
        <time>1970-01-01T00:18:48.000Z</time>
      </trkpt>
      <trkpt lat="42.716541" lon="0.790668">
        <ele>1132.6</ele>
        <time>1970-01-01T00:18:53.000Z</time>
      </trkpt>
      <trkpt lat="42.716455" lon="0.790744">
        <ele>1134</ele>
        <time>1970-01-01T00:18:59.000Z</time>
      </trkpt>
      <trkpt lat="42.716382" lon="0.79074">
        <ele>1135</ele>
        <time>1970-01-01T00:19:03.000Z</time>
      </trkpt>
      <trkpt lat="42.716345" lon="0.790726">
        <ele>1135.4</ele>
        <time>1970-01-01T00:19:05.000Z</time>
      </trkpt>
      <trkpt lat="42.716324" lon="0.790657">
        <ele>1136</ele>
        <time>1970-01-01T00:19:08.000Z</time>
      </trkpt>
      <trkpt lat="42.716337" lon="0.790605">
        <ele>1136.8</ele>
        <time>1970-01-01T00:19:10.000Z</time>
      </trkpt>
      <trkpt lat="42.716357" lon="0.790558">
        <ele>1137.2</ele>
        <time>1970-01-01T00:19:12.000Z</time>
      </trkpt>
      <trkpt lat="42.716429" lon="0.790438">
        <ele>1138.4</ele>
        <time>1970-01-01T00:19:18.000Z</time>
      </trkpt>
      <trkpt lat="42.716496" lon="0.790309">
        <ele>1139.4</ele>
        <time>1970-01-01T00:19:24.000Z</time>
      </trkpt>
      <trkpt lat="42.71654" lon="0.790172">
        <ele>1140.4</ele>
        <time>1970-01-01T00:19:30.000Z</time>
      </trkpt>
      <trkpt lat="42.716627" lon="0.790002">
        <ele>1141.4</ele>
        <time>1970-01-01T00:19:38.000Z</time>
      </trkpt>
      <trkpt lat="42.716709" lon="0.789824">
        <ele>1142.4</ele>
        <time>1970-01-01T00:19:46.000Z</time>
      </trkpt>
      <trkpt lat="42.716909" lon="0.789537">
        <ele>1143.4</ele>
        <time>1970-01-01T00:19:59.000Z</time>
      </trkpt>
      <trkpt lat="42.717219" lon="0.788923">
        <ele>1144.4</ele>
        <time>1970-01-01T00:20:22.000Z</time>
      </trkpt>
      <trkpt lat="42.717286" lon="0.788785">
        <ele>1144.4</ele>
        <time>1970-01-01T00:20:27.000Z</time>
      </trkpt>
      <trkpt lat="42.717571" lon="0.788306">
        <ele>1145.6</ele>
        <time>1970-01-01T00:20:44.000Z</time>
      </trkpt>
      <trkpt lat="42.717675" lon="0.788119">
        <ele>1146.6</ele>
        <time>1970-01-01T00:20:51.000Z</time>
      </trkpt>
      <trkpt lat="42.717731" lon="0.787961">
        <ele>1147.4</ele>
        <time>1970-01-01T00:20:56.000Z</time>
      </trkpt>
      <trkpt lat="42.717791" lon="0.787792">
        <ele>1148.8</ele>
        <time>1970-01-01T00:21:01.000Z</time>
      </trkpt>
      <trkpt lat="42.71787" lon="0.787583">
        <ele>1150</ele>
        <time>1970-01-01T00:21:08.000Z</time>
      </trkpt>
      <trkpt lat="42.718111" lon="0.78688">
        <ele>1150.8</ele>
        <time>1970-01-01T00:21:27.000Z</time>
      </trkpt>
      <trkpt lat="42.718465" lon="0.786311">
        <ele>1151</ele>
        <time>1970-01-01T00:21:45.000Z</time>
      </trkpt>
      <trkpt lat="42.718788" lon="0.785788">
        <ele>1152</ele>
        <time>1970-01-01T00:21:59.000Z</time>
      </trkpt>
      <trkpt lat="42.718941" lon="0.785538">
        <ele>1152.6</ele>
        <time>1970-01-01T00:22:07.000Z</time>
      </trkpt>
      <trkpt lat="42.71909" lon="0.785264">
        <ele>1153.4</ele>
        <time>1970-01-01T00:22:13.000Z</time>
      </trkpt>
      <trkpt lat="42.719289" lon="0.784903">
        <ele>1154.4</ele>
        <time>1970-01-01T00:22:21.000Z</time>
      </trkpt>
      <trkpt lat="42.719566" lon="0.784404">
        <ele>1155.4</ele>
        <time>1970-01-01T00:22:35.000Z</time>
      </trkpt>
      <trkpt lat="42.719823" lon="0.784032">
        <ele>1156.4</ele>
        <time>1970-01-01T00:22:52.000Z</time>
      </trkpt>
      <trkpt lat="42.720193" lon="0.783491">
        <ele>1157.2</ele>
        <time>1970-01-01T00:23:14.000Z</time>
      </trkpt>
      <trkpt lat="42.720583" lon="0.782937">
        <ele>1156</ele>
        <time>1970-01-01T00:23:28.000Z</time>
      </trkpt>
      <trkpt lat="42.720674" lon="0.782828">
        <ele>1155.6</ele>
        <time>1970-01-01T00:23:31.000Z</time>
      </trkpt>
      <trkpt lat="42.720764" lon="0.782713">
        <ele>1155.4</ele>
        <time>1970-01-01T00:23:34.000Z</time>
      </trkpt>
      <trkpt lat="42.721118" lon="0.782274">
        <ele>1154.2</ele>
        <time>1970-01-01T00:23:43.000Z</time>
      </trkpt>
      <trkpt lat="42.721346" lon="0.78205">
        <ele>1154.2</ele>
        <time>1970-01-01T00:23:48.000Z</time>
      </trkpt>
      <trkpt lat="42.721807" lon="0.781574">
        <ele>1154</ele>
        <time>1970-01-01T00:23:58.000Z</time>
      </trkpt>
      <trkpt lat="42.722163" lon="0.781148">
        <ele>1153.6</ele>
        <time>1970-01-01T00:24:07.000Z</time>
      </trkpt>
      <trkpt lat="42.722395" lon="0.781049">
        <ele>1154</ele>
        <time>1970-01-01T00:24:12.000Z</time>
      </trkpt>
      <trkpt lat="42.722435" lon="0.78103">
        <ele>1154.2</ele>
        <time>1970-01-01T00:24:13.000Z</time>
      </trkpt>
      <trkpt lat="42.72257" lon="0.780905">
        <ele>1154.2</ele>
        <time>1970-01-01T00:24:17.000Z</time>
      </trkpt>
      <trkpt lat="42.722916" lon="0.780415">
        <ele>1155.6</ele>
        <time>1970-01-01T00:24:31.000Z</time>
      </trkpt>
      <trkpt lat="42.723187" lon="0.779766">
        <ele>1155.2</ele>
        <time>1970-01-01T00:24:45.000Z</time>
      </trkpt>
      <trkpt lat="42.723428" lon="0.779335">
        <ele>1154.4</ele>
        <time>1970-01-01T00:24:53.000Z</time>
      </trkpt>
      <trkpt lat="42.72375" lon="0.778741">
        <ele>1153.6</ele>
        <time>1970-01-01T00:25:03.000Z</time>
      </trkpt>
      <trkpt lat="42.723813" lon="0.778616">
        <ele>1153.4</ele>
        <time>1970-01-01T00:25:05.000Z</time>
      </trkpt>
      <trkpt lat="42.723877" lon="0.778486">
        <ele>1153.2</ele>
        <time>1970-01-01T00:25:07.000Z</time>
      </trkpt>
      <trkpt lat="42.724194" lon="0.777891">
        <ele>1153.6</ele>
        <time>1970-01-01T00:25:17.000Z</time>
      </trkpt>
      <trkpt lat="42.724351" lon="0.777717">
        <ele>1154.6</ele>
        <time>1970-01-01T00:25:22.000Z</time>
      </trkpt>
      <trkpt lat="42.724491" lon="0.777472">
        <ele>1155.6</ele>
        <time>1970-01-01T00:25:28.000Z</time>
      </trkpt>
      <trkpt lat="42.72461" lon="0.777172">
        <ele>1156.6</ele>
        <time>1970-01-01T00:25:34.000Z</time>
      </trkpt>
      <trkpt lat="42.724746" lon="0.7769">
        <ele>1157.8</ele>
        <time>1970-01-01T00:25:41.000Z</time>
      </trkpt>
      <trkpt lat="42.72491" lon="0.776617">
        <ele>1159</ele>
        <time>1970-01-01T00:25:49.000Z</time>
      </trkpt>
      <trkpt lat="42.725009" lon="0.776437">
        <ele>1159.8</ele>
        <time>1970-01-01T00:25:54.000Z</time>
      </trkpt>
      <trkpt lat="42.72516" lon="0.776088">
        <ele>1160.8</ele>
        <time>1970-01-01T00:26:02.000Z</time>
      </trkpt>
      <trkpt lat="42.725356" lon="0.775404">
        <ele>1161.6</ele>
        <time>1970-01-01T00:26:16.000Z</time>
      </trkpt>
      <trkpt lat="42.725403" lon="0.775287">
        <ele>1162</ele>
        <time>1970-01-01T00:26:19.000Z</time>
      </trkpt>
      <trkpt lat="42.725504" lon="0.775028">
        <ele>1163</ele>
        <time>1970-01-01T00:26:26.000Z</time>
      </trkpt>
      <trkpt lat="42.725578" lon="0.774811">
        <ele>1164</ele>
        <time>1970-01-01T00:26:32.000Z</time>
      </trkpt>
      <trkpt lat="42.725963" lon="0.774266">
        <ele>1165</ele>
        <time>1970-01-01T00:26:51.000Z</time>
      </trkpt>
      <trkpt lat="42.72607" lon="0.774042">
        <ele>1163.8</ele>
        <time>1970-01-01T00:26:56.000Z</time>
      </trkpt>
      <trkpt lat="42.726125" lon="0.773835">
        <ele>1163</ele>
        <time>1970-01-01T00:26:59.000Z</time>
      </trkpt>
      <trkpt lat="42.726118" lon="0.773354">
        <ele>1161.8</ele>
        <time>1970-01-01T00:27:05.000Z</time>
      </trkpt>
      <trkpt lat="42.726107" lon="0.773273">
        <ele>1161.6</ele>
        <time>1970-01-01T00:27:06.000Z</time>
      </trkpt>
      <trkpt lat="42.726101" lon="0.773193">
        <ele>1161.6</ele>
        <time>1970-01-01T00:27:07.000Z</time>
      </trkpt>
      <trkpt lat="42.726088" lon="0.772862">
        <ele>1160.4</ele>
        <time>1970-01-01T00:27:11.000Z</time>
      </trkpt>
      <trkpt lat="42.725986" lon="0.772291">
        <ele>1159.2</ele>
        <time>1970-01-01T00:27:17.000Z</time>
      </trkpt>
      <trkpt lat="42.72598" lon="0.772189">
        <ele>1158.8</ele>
        <time>1970-01-01T00:27:18.000Z</time>
      </trkpt>
      <trkpt lat="42.726015" lon="0.771982">
        <ele>1158</ele>
        <time>1970-01-01T00:27:20.000Z</time>
      </trkpt>
      <trkpt lat="42.726099" lon="0.771784">
        <ele>1156.8</ele>
        <time>1970-01-01T00:27:22.000Z</time>
      </trkpt>
      <trkpt lat="42.726209" lon="0.771604">
        <ele>1156</ele>
        <time>1970-01-01T00:27:24.000Z</time>
      </trkpt>
      <trkpt lat="42.726266" lon="0.771512">
        <ele>1155.8</ele>
        <time>1970-01-01T00:27:25.000Z</time>
      </trkpt>
      <trkpt lat="42.726434" lon="0.771245">
        <ele>1154.4</ele>
        <time>1970-01-01T00:27:28.000Z</time>
      </trkpt>
      <trkpt lat="42.726483" lon="0.771143">
        <ele>1153.8</ele>
        <time>1970-01-01T00:27:29.000Z</time>
      </trkpt>
      <trkpt lat="42.726526" lon="0.771034">
        <ele>1153.2</ele>
        <time>1970-01-01T00:27:30.000Z</time>
      </trkpt>
      <trkpt lat="42.726567" lon="0.770791">
        <ele>1152</ele>
        <time>1970-01-01T00:27:32.000Z</time>
      </trkpt>
      <trkpt lat="42.726582" lon="0.770656">
        <ele>1151.4</ele>
        <time>1970-01-01T00:27:33.000Z</time>
      </trkpt>
      <trkpt lat="42.726608" lon="0.770522">
        <ele>1150.8</ele>
        <time>1970-01-01T00:27:34.000Z</time>
      </trkpt>
      <trkpt lat="42.726678" lon="0.770269">
        <ele>1149.6</ele>
        <time>1970-01-01T00:27:36.000Z</time>
      </trkpt>
      <trkpt lat="42.726755" lon="0.770018">
        <ele>1148.2</ele>
        <time>1970-01-01T00:27:38.000Z</time>
      </trkpt>
      <trkpt lat="42.726843" lon="0.769742">
        <ele>1146.6</ele>
        <time>1970-01-01T00:27:40.000Z</time>
      </trkpt>
      <trkpt lat="42.726932" lon="0.769436">
        <ele>1144.8</ele>
        <time>1970-01-01T00:27:42.000Z</time>
      </trkpt>
      <trkpt lat="42.727027" lon="0.769131">
        <ele>1143</ele>
        <time>1970-01-01T00:27:44.000Z</time>
      </trkpt>
      <trkpt lat="42.727146" lon="0.768834">
        <ele>1141.4</ele>
        <time>1970-01-01T00:27:46.000Z</time>
      </trkpt>
      <trkpt lat="42.727223" lon="0.768691">
        <ele>1140</ele>
        <time>1970-01-01T00:27:47.000Z</time>
      </trkpt>
      <trkpt lat="42.727352" lon="0.768464">
        <ele>1138.2</ele>
        <time>1970-01-01T00:27:49.000Z</time>
      </trkpt>
      <trkpt lat="42.727417" lon="0.768348">
        <ele>1137</ele>
        <time>1970-01-01T00:27:51.000Z</time>
      </trkpt>
      <trkpt lat="42.727448" lon="0.768311">
        <ele>1136.4</ele>
        <time>1970-01-01T00:27:55.000Z</time>
      </trkpt>
      <trkpt lat="42.727386" lon="0.768441">
        <ele>1136.2</ele>
        <time>1970-01-01T00:29:34.000Z</time>
      </trkpt>
      <trkpt lat="42.727208" lon="0.76886">
        <ele>1137.4</ele>
        <time>1970-01-01T00:29:45.000Z</time>
      </trkpt>
      <trkpt lat="42.727136" lon="0.769106">
        <ele>1138.6</ele>
        <time>1970-01-01T00:29:51.000Z</time>
      </trkpt>
      <trkpt lat="42.727086" lon="0.769226">
        <ele>1139.8</ele>
        <time>1970-01-01T00:29:55.000Z</time>
      </trkpt>
      <trkpt lat="42.727003" lon="0.769409">
        <ele>1139.2</ele>
        <time>1970-01-01T00:30:01.000Z</time>
      </trkpt>
      <trkpt lat="42.726937" lon="0.769565">
        <ele>1141.8</ele>
        <time>1970-01-01T00:30:06.000Z</time>
      </trkpt>
      <trkpt lat="42.726878" lon="0.769738">
        <ele>1143</ele>
        <time>1970-01-01T00:30:12.000Z</time>
      </trkpt>
      <trkpt lat="42.726859" lon="0.76983">
        <ele>1144</ele>
        <time>1970-01-01T00:30:15.000Z</time>
      </trkpt>
      <trkpt lat="42.72685" lon="0.769866">
        <ele>1144.4</ele>
        <time>1970-01-01T00:30:16.000Z</time>
      </trkpt>
      <trkpt lat="42.726761" lon="0.770022">
        <ele>1145.6</ele>
        <time>1970-01-01T00:30:22.000Z</time>
      </trkpt>
      <trkpt lat="42.726687" lon="0.770174">
        <ele>1146.6</ele>
        <time>1970-01-01T00:30:28.000Z</time>
      </trkpt>
      <trkpt lat="42.72665" lon="0.770326">
        <ele>1147.6</ele>
        <time>1970-01-01T00:30:33.000Z</time>
      </trkpt>
      <trkpt lat="42.726564" lon="0.770687">
        <ele>1149</ele>
        <time>1970-01-01T00:30:46.000Z</time>
      </trkpt>
      <trkpt lat="42.72653" lon="0.770849">
        <ele>1150.2</ele>
        <time>1970-01-01T00:30:55.000Z</time>
      </trkpt>
      <trkpt lat="42.726499" lon="0.771071">
        <ele>1151.4</ele>
        <time>1970-01-01T00:31:04.000Z</time>
      </trkpt>
      <trkpt lat="42.726423" lon="0.771214">
        <ele>1152.6</ele>
        <time>1970-01-01T00:31:12.000Z</time>
      </trkpt>
      <trkpt lat="42.726421" lon="0.771272">
        <ele>1153</ele>
        <time>1970-01-01T00:31:16.000Z</time>
      </trkpt>
      <trkpt lat="42.72647" lon="0.771136">
        <ele>1152.2</ele>
        <time>1970-01-01T00:35:15.000Z</time>
      </trkpt>
      <trkpt lat="42.726505" lon="0.771021">
        <ele>1151.2</ele>
        <time>1970-01-01T00:35:19.000Z</time>
      </trkpt>
      <trkpt lat="42.726515" lon="0.77079">
        <ele>1150</ele>
        <time>1970-01-01T00:35:24.000Z</time>
      </trkpt>
      <trkpt lat="42.726556" lon="0.770485">
        <ele>1148.8</ele>
        <time>1970-01-01T00:35:28.000Z</time>
      </trkpt>
      <trkpt lat="42.726659" lon="0.770126">
        <ele>1147.8</ele>
        <time>1970-01-01T00:35:33.000Z</time>
      </trkpt>
      <trkpt lat="42.726693" lon="0.770035">
        <ele>1146.4</ele>
        <time>1970-01-01T00:35:35.000Z</time>
      </trkpt>
      <trkpt lat="42.726753" lon="0.769884">
        <ele>1145.4</ele>
        <time>1970-01-01T00:35:40.000Z</time>
      </trkpt>
      <trkpt lat="42.726784" lon="0.769781">
        <ele>1145</ele>
        <time>1970-01-01T00:35:42.000Z</time>
      </trkpt>
      <trkpt lat="42.726828" lon="0.769633">
        <ele>1144.2</ele>
        <time>1970-01-01T00:35:44.000Z</time>
      </trkpt>
      <trkpt lat="42.726919" lon="0.769376">
        <ele>1142.6</ele>
        <time>1970-01-01T00:35:47.000Z</time>
      </trkpt>
      <trkpt lat="42.726938" lon="0.769277">
        <ele>1142.2</ele>
        <time>1970-01-01T00:35:48.000Z</time>
      </trkpt>
      <trkpt lat="42.726984" lon="0.769094">
        <ele>1141</ele>
        <time>1970-01-01T00:35:50.000Z</time>
      </trkpt>
      <trkpt lat="42.727043" lon="0.768912">
        <ele>1139.6</ele>
        <time>1970-01-01T00:35:52.000Z</time>
      </trkpt>
      <trkpt lat="42.727091" lon="0.768823">
        <ele>1138.8</ele>
        <time>1970-01-01T00:35:53.000Z</time>
      </trkpt>
      <trkpt lat="42.727135" lon="0.768729">
        <ele>1138.2</ele>
        <time>1970-01-01T00:35:54.000Z</time>
      </trkpt>
      <trkpt lat="42.727184" lon="0.768644">
        <ele>1137.6</ele>
        <time>1970-01-01T00:35:55.000Z</time>
      </trkpt>
      <trkpt lat="42.727269" lon="0.768509">
        <ele>1136.8</ele>
        <time>1970-01-01T00:35:57.000Z</time>
      </trkpt>
      <trkpt lat="42.727309" lon="0.768464">
        <ele>1136.6</ele>
        <time>1970-01-01T00:35:58.000Z</time>
      </trkpt>
      <trkpt lat="42.727426" lon="0.768352">
        <ele>1136.2</ele>
        <time>1970-01-01T00:36:03.000Z</time>
      </trkpt>
      <trkpt lat="42.727526" lon="0.768234">
        <ele>1135.8</ele>
        <time>1970-01-01T00:36:09.000Z</time>
      </trkpt>
      <trkpt lat="42.727574" lon="0.768259">
        <ele>1135.6</ele>
        <time>1970-01-01T00:36:12.000Z</time>
      </trkpt>
      <trkpt lat="42.727606" lon="0.768341">
        <ele>1134.4</ele>
        <time>1970-01-01T00:36:15.000Z</time>
      </trkpt>
      <trkpt lat="42.72762" lon="0.768431">
        <ele>1132.6</ele>
        <time>1970-01-01T00:36:18.000Z</time>
      </trkpt>
      <trkpt lat="42.727608" lon="0.768515">
        <ele>1131.4</ele>
        <time>1970-01-01T00:36:20.000Z</time>
      </trkpt>
      <trkpt lat="42.727588" lon="0.768635">
        <ele>1130.2</ele>
        <time>1970-01-01T00:36:23.000Z</time>
      </trkpt>
      <trkpt lat="42.727547" lon="0.768746">
        <ele>1129.2</ele>
        <time>1970-01-01T00:36:26.000Z</time>
      </trkpt>
      <trkpt lat="42.727478" lon="0.768947">
        <ele>1128</ele>
        <time>1970-01-01T00:36:29.000Z</time>
      </trkpt>
      <trkpt lat="42.727399" lon="0.769202">
        <ele>1127.4</ele>
        <time>1970-01-01T00:36:33.000Z</time>
      </trkpt>
      <trkpt lat="42.727369" lon="0.76938">
        <ele>1126.8</ele>
        <time>1970-01-01T00:36:36.000Z</time>
      </trkpt>
      <trkpt lat="42.727299" lon="0.769654">
        <ele>1126.6</ele>
        <time>1970-01-01T00:36:47.000Z</time>
      </trkpt>
      <trkpt lat="42.727267" lon="0.769606">
        <ele>1126.6</ele>
        <time>1970-01-01T00:37:44.000Z</time>
      </trkpt>
      <trkpt lat="42.72726" lon="0.769645">
        <ele>1126.6</ele>
        <time>1970-01-01T00:37:46.000Z</time>
      </trkpt>
      <trkpt lat="42.727313" lon="0.769756">
        <ele>1125.8</ele>
        <time>1970-01-01T00:37:50.000Z</time>
      </trkpt>
      <trkpt lat="42.727349" lon="0.76982">
        <ele>1124.8</ele>
        <time>1970-01-01T00:37:52.000Z</time>
      </trkpt>
      <trkpt lat="42.727383" lon="0.769877">
        <ele>1123</ele>
        <time>1970-01-01T00:37:54.000Z</time>
      </trkpt>
      <trkpt lat="42.727416" lon="0.76994">
        <ele>1121</ele>
        <time>1970-01-01T00:37:56.000Z</time>
      </trkpt>
      <trkpt lat="42.72746" lon="0.770012">
        <ele>1119.8</ele>
        <time>1970-01-01T00:37:58.000Z</time>
      </trkpt>
      <trkpt lat="42.727484" lon="0.770078">
        <ele>1118.4</ele>
        <time>1970-01-01T00:38:00.000Z</time>
      </trkpt>
      <trkpt lat="42.727518" lon="0.770132">
        <ele>1117.4</ele>
        <time>1970-01-01T00:38:02.000Z</time>
      </trkpt>
      <trkpt lat="42.727549" lon="0.770186">
        <ele>1116</ele>
        <time>1970-01-01T00:38:04.000Z</time>
      </trkpt>
      <trkpt lat="42.727576" lon="0.770245">
        <ele>1114.6</ele>
        <time>1970-01-01T00:38:06.000Z</time>
      </trkpt>
      <trkpt lat="42.727603" lon="0.77032">
        <ele>1113.2</ele>
        <time>1970-01-01T00:38:08.000Z</time>
      </trkpt>
      <trkpt lat="42.727627" lon="0.770412">
        <ele>1111.8</ele>
        <time>1970-01-01T00:38:10.000Z</time>
      </trkpt>
      <trkpt lat="42.72763" lon="0.770524">
        <ele>1110.4</ele>
        <time>1970-01-01T00:38:12.000Z</time>
      </trkpt>
      <trkpt lat="42.727632" lon="0.770579">
        <ele>1109.2</ele>
        <time>1970-01-01T00:38:13.000Z</time>
      </trkpt>
      <trkpt lat="42.727644" lon="0.770656">
        <ele>1107.8</ele>
        <time>1970-01-01T00:38:15.000Z</time>
      </trkpt>
      <trkpt lat="42.72766" lon="0.770712">
        <ele>1106.2</ele>
        <time>1970-01-01T00:38:17.000Z</time>
      </trkpt>
      <trkpt lat="42.727681" lon="0.770787">
        <ele>1105.2</ele>
        <time>1970-01-01T00:38:19.000Z</time>
      </trkpt>
      <trkpt lat="42.727691" lon="0.770855">
        <ele>1103</ele>
        <time>1970-01-01T00:38:21.000Z</time>
      </trkpt>
      <trkpt lat="42.727695" lon="0.77091">
        <ele>1101.8</ele>
        <time>1970-01-01T00:38:23.000Z</time>
      </trkpt>
      <trkpt lat="42.7277" lon="0.770952">
        <ele>1100.6</ele>
        <time>1970-01-01T00:38:25.000Z</time>
      </trkpt>
      <trkpt lat="42.727711" lon="0.771043">
        <ele>1099.2</ele>
        <time>1970-01-01T00:38:28.000Z</time>
      </trkpt>
      <trkpt lat="42.727727" lon="0.771078">
        <ele>1097.8</ele>
        <time>1970-01-01T00:38:30.000Z</time>
      </trkpt>
      <trkpt lat="42.727733" lon="0.771157">
        <ele>1096.4</ele>
        <time>1970-01-01T00:38:34.000Z</time>
      </trkpt>
      <trkpt lat="42.727726" lon="0.771203">
        <ele>1095.2</ele>
        <time>1970-01-01T00:38:36.000Z</time>
      </trkpt>
      <trkpt lat="42.727737" lon="0.771265">
        <ele>1094.2</ele>
        <time>1970-01-01T00:38:38.000Z</time>
      </trkpt>
      <trkpt lat="42.727745" lon="0.771315">
        <ele>1092.8</ele>
        <time>1970-01-01T00:38:40.000Z</time>
      </trkpt>
      <trkpt lat="42.72775" lon="0.771372">
        <ele>1091.4</ele>
        <time>1970-01-01T00:38:42.000Z</time>
      </trkpt>
      <trkpt lat="42.727771" lon="0.77144">
        <ele>1090</ele>
        <time>1970-01-01T00:38:45.000Z</time>
      </trkpt>
      <trkpt lat="42.727792" lon="0.771451">
        <ele>1089</ele>
        <time>1970-01-01T00:38:48.000Z</time>
      </trkpt>
      <trkpt lat="42.727799" lon="0.771444">
        <ele>1088.8</ele>
        <time>1970-01-01T00:38:50.000Z</time>
      </trkpt>
      <trkpt lat="42.727816" lon="0.771407">
        <ele>1086.2</ele>
        <time>1970-01-01T00:39:14.000Z</time>
      </trkpt>
      <trkpt lat="42.727848" lon="0.771356">
        <ele>1084.8</ele>
        <time>1970-01-01T00:39:17.000Z</time>
      </trkpt>
      <trkpt lat="42.727874" lon="0.771325">
        <ele>1083.6</ele>
        <time>1970-01-01T00:39:19.000Z</time>
      </trkpt>
      <trkpt lat="42.727907" lon="0.77129">
        <ele>1082</ele>
        <time>1970-01-01T00:39:22.000Z</time>
      </trkpt>
      <trkpt lat="42.727935" lon="0.771264">
        <ele>1080.6</ele>
        <time>1970-01-01T00:39:24.000Z</time>
      </trkpt>
      <trkpt lat="42.727963" lon="0.771231">
        <ele>1079.4</ele>
        <time>1970-01-01T00:39:26.000Z</time>
      </trkpt>
      <trkpt lat="42.728003" lon="0.771149">
        <ele>1078</ele>
        <time>1970-01-01T00:39:29.000Z</time>
      </trkpt>
      <trkpt lat="42.728017" lon="0.771066">
        <ele>1076.4</ele>
        <time>1970-01-01T00:39:31.000Z</time>
      </trkpt>
      <trkpt lat="42.728054" lon="0.770969">
        <ele>1075.2</ele>
        <time>1970-01-01T00:39:34.000Z</time>
      </trkpt>
      <trkpt lat="42.728095" lon="0.770918">
        <ele>1074</ele>
        <time>1970-01-01T00:39:36.000Z</time>
      </trkpt>
      <trkpt lat="42.728123" lon="0.770877">
        <ele>1072.6</ele>
        <time>1970-01-01T00:39:38.000Z</time>
      </trkpt>
      <trkpt lat="42.728148" lon="0.770853">
        <ele>1071.6</ele>
        <time>1970-01-01T00:39:40.000Z</time>
      </trkpt>
      <trkpt lat="42.7282" lon="0.770815">
        <ele>1070.2</ele>
        <time>1970-01-01T00:39:43.000Z</time>
      </trkpt>
      <trkpt lat="42.728252" lon="0.770762">
        <ele>1069.2</ele>
        <time>1970-01-01T00:39:46.000Z</time>
      </trkpt>
      <trkpt lat="42.72831" lon="0.770731">
        <ele>1067.6</ele>
        <time>1970-01-01T00:39:48.000Z</time>
      </trkpt>
      <trkpt lat="42.728374" lon="0.77071">
        <ele>1065.8</ele>
        <time>1970-01-01T00:39:50.000Z</time>
      </trkpt>
      <trkpt lat="42.728441" lon="0.770672">
        <ele>1064.2</ele>
        <time>1970-01-01T00:39:52.000Z</time>
      </trkpt>
      <trkpt lat="42.728488" lon="0.770618">
        <ele>1062.6</ele>
        <time>1970-01-01T00:39:54.000Z</time>
      </trkpt>
      <trkpt lat="42.728533" lon="0.770562">
        <ele>1061.4</ele>
        <time>1970-01-01T00:39:56.000Z</time>
      </trkpt>
      <trkpt lat="42.728561" lon="0.770506">
        <ele>1060.2</ele>
        <time>1970-01-01T00:39:58.000Z</time>
      </trkpt>
      <trkpt lat="42.72858" lon="0.770447">
        <ele>1059.2</ele>
        <time>1970-01-01T00:40:02.000Z</time>
      </trkpt>
      <trkpt lat="42.728609" lon="0.770395">
        <ele>1058.6</ele>
        <time>1970-01-01T00:40:56.000Z</time>
      </trkpt>
      <trkpt lat="42.728694" lon="0.770224">
        <ele>1057.2</ele>
        <time>1970-01-01T00:41:00.000Z</time>
      </trkpt>
      <trkpt lat="42.728726" lon="0.770104">
        <ele>1056.4</ele>
        <time>1970-01-01T00:41:02.000Z</time>
      </trkpt>
      <trkpt lat="42.728742" lon="0.770043">
        <ele>1056</ele>
        <time>1970-01-01T00:41:03.000Z</time>
      </trkpt>
      <trkpt lat="42.728802" lon="0.769879">
        <ele>1054.8</ele>
        <time>1970-01-01T00:41:06.000Z</time>
      </trkpt>
      <trkpt lat="42.72892" lon="0.76954">
        <ele>1053.6</ele>
        <time>1970-01-01T00:41:12.000Z</time>
      </trkpt>
      <trkpt lat="42.729052" lon="0.768994">
        <ele>1053</ele>
        <time>1970-01-01T00:41:24.000Z</time>
      </trkpt>
      <trkpt lat="42.729088" lon="0.769104">
        <ele>1051.4</ele>
        <time>1970-01-01T00:41:29.000Z</time>
      </trkpt>
      <trkpt lat="42.729088" lon="0.769209">
        <ele>1049.6</ele>
        <time>1970-01-01T00:41:31.000Z</time>
      </trkpt>
      <trkpt lat="42.729097" lon="0.769297">
        <ele>1048.4</ele>
        <time>1970-01-01T00:41:33.000Z</time>
      </trkpt>
      <trkpt lat="42.729118" lon="0.769394">
        <ele>1047</ele>
        <time>1970-01-01T00:41:35.000Z</time>
      </trkpt>
      <trkpt lat="42.729129" lon="0.769456">
        <ele>1045.8</ele>
        <time>1970-01-01T00:41:36.000Z</time>
      </trkpt>
      <trkpt lat="42.729145" lon="0.769514">
        <ele>1044.8</ele>
        <time>1970-01-01T00:41:37.000Z</time>
      </trkpt>
      <trkpt lat="42.729166" lon="0.769574">
        <ele>1044</ele>
        <time>1970-01-01T00:41:38.000Z</time>
      </trkpt>
      <trkpt lat="42.729186" lon="0.769632">
        <ele>1043</ele>
        <time>1970-01-01T00:41:39.000Z</time>
      </trkpt>
      <trkpt lat="42.729223" lon="0.769718">
        <ele>1041.4</ele>
        <time>1970-01-01T00:41:41.000Z</time>
      </trkpt>
      <trkpt lat="42.729249" lon="0.769818">
        <ele>1040</ele>
        <time>1970-01-01T00:41:43.000Z</time>
      </trkpt>
      <trkpt lat="42.729257" lon="0.769871">
        <ele>1038.8</ele>
        <time>1970-01-01T00:41:44.000Z</time>
      </trkpt>
      <trkpt lat="42.729267" lon="0.769918">
        <ele>1037.8</ele>
        <time>1970-01-01T00:41:45.000Z</time>
      </trkpt>
      <trkpt lat="42.7293" lon="0.770008">
        <ele>1036.4</ele>
        <time>1970-01-01T00:41:47.000Z</time>
      </trkpt>
      <trkpt lat="42.729341" lon="0.770128">
        <ele>1035</ele>
        <time>1970-01-01T00:41:49.000Z</time>
      </trkpt>
      <trkpt lat="42.729378" lon="0.770282">
        <ele>1033.6</ele>
        <time>1970-01-01T00:41:51.000Z</time>
      </trkpt>
      <trkpt lat="42.729418" lon="0.770451">
        <ele>1031.8</ele>
        <time>1970-01-01T00:41:53.000Z</time>
      </trkpt>
      <trkpt lat="42.729437" lon="0.770541">
        <ele>1030.8</ele>
        <time>1970-01-01T00:41:54.000Z</time>
      </trkpt>
      <trkpt lat="42.729459" lon="0.770622">
        <ele>1030.2</ele>
        <time>1970-01-01T00:41:55.000Z</time>
      </trkpt>
      <trkpt lat="42.72948" lon="0.770687">
        <ele>1029.4</ele>
        <time>1970-01-01T00:41:56.000Z</time>
      </trkpt>
      <trkpt lat="42.729518" lon="0.770826">
        <ele>1028.2</ele>
        <time>1970-01-01T00:41:58.000Z</time>
      </trkpt>
      <trkpt lat="42.729508" lon="0.771041">
        <ele>1026.8</ele>
        <time>1970-01-01T00:42:01.000Z</time>
      </trkpt>
      <trkpt lat="42.729515" lon="0.771198">
        <ele>1026.2</ele>
        <time>1970-01-01T00:42:03.000Z</time>
      </trkpt>
      <trkpt lat="42.729526" lon="0.771276">
        <ele>1025.8</ele>
        <time>1970-01-01T00:42:04.000Z</time>
      </trkpt>
      <trkpt lat="42.729541" lon="0.771353">
        <ele>1024.4</ele>
        <time>1970-01-01T00:42:05.000Z</time>
      </trkpt>
      <trkpt lat="42.729584" lon="0.771539">
        <ele>1022.2</ele>
        <time>1970-01-01T00:42:07.000Z</time>
      </trkpt>
      <trkpt lat="42.729641" lon="0.77174">
        <ele>1020.2</ele>
        <time>1970-01-01T00:42:09.000Z</time>
      </trkpt>
      <trkpt lat="42.729672" lon="0.771817">
        <ele>1019</ele>
        <time>1970-01-01T00:42:10.000Z</time>
      </trkpt>
      <trkpt lat="42.729733" lon="0.771937">
        <ele>1017.2</ele>
        <time>1970-01-01T00:42:12.000Z</time>
      </trkpt>
      <trkpt lat="42.72977" lon="0.77204">
        <ele>1015.4</ele>
        <time>1970-01-01T00:42:14.000Z</time>
      </trkpt>
      <trkpt lat="42.729775" lon="0.772177">
        <ele>1013.6</ele>
        <time>1970-01-01T00:42:16.000Z</time>
      </trkpt>
      <trkpt lat="42.729768" lon="0.772342">
        <ele>1012.2</ele>
        <time>1970-01-01T00:42:18.000Z</time>
      </trkpt>
      <trkpt lat="42.729771" lon="0.772414">
        <ele>1010.6</ele>
        <time>1970-01-01T00:42:19.000Z</time>
      </trkpt>
      <trkpt lat="42.729784" lon="0.772478">
        <ele>1009.4</ele>
        <time>1970-01-01T00:42:20.000Z</time>
      </trkpt>
      <trkpt lat="42.729808" lon="0.772607">
        <ele>1008</ele>
        <time>1970-01-01T00:42:22.000Z</time>
      </trkpt>
      <trkpt lat="42.729824" lon="0.772846">
        <ele>1006.2</ele>
        <time>1970-01-01T00:42:25.000Z</time>
      </trkpt>
      <trkpt lat="42.729832" lon="0.772931">
        <ele>1005.4</ele>
        <time>1970-01-01T00:42:26.000Z</time>
      </trkpt>
      <trkpt lat="42.729842" lon="0.773013">
        <ele>1004.2</ele>
        <time>1970-01-01T00:42:27.000Z</time>
      </trkpt>
      <trkpt lat="42.729854" lon="0.773092">
        <ele>1003</ele>
        <time>1970-01-01T00:42:28.000Z</time>
      </trkpt>
      <trkpt lat="42.729865" lon="0.773179">
        <ele>1002.4</ele>
        <time>1970-01-01T00:42:29.000Z</time>
      </trkpt>
      <trkpt lat="42.729863" lon="0.773266">
        <ele>1001.8</ele>
        <time>1970-01-01T00:42:30.000Z</time>
      </trkpt>
      <trkpt lat="42.72987" lon="0.773535">
        <ele>1000.4</ele>
        <time>1970-01-01T00:42:33.000Z</time>
      </trkpt>
      <trkpt lat="42.729866" lon="0.773771">
        <ele>999</ele>
        <time>1970-01-01T00:42:36.000Z</time>
      </trkpt>
      <trkpt lat="42.729842" lon="0.773818">
        <ele>997.8</ele>
        <time>1970-01-01T00:42:40.000Z</time>
      </trkpt>
      <trkpt lat="42.729827" lon="0.773888">
        <ele>995.2</ele>
        <time>1970-01-01T00:47:02.000Z</time>
      </trkpt>
      <trkpt lat="42.72978" lon="0.774033">
        <ele>994.4</ele>
        <time>1970-01-01T00:47:05.000Z</time>
      </trkpt>
      <trkpt lat="42.729754" lon="0.774104">
        <ele>993.8</ele>
        <time>1970-01-01T00:47:06.000Z</time>
      </trkpt>
      <trkpt lat="42.729722" lon="0.774248">
        <ele>992.6</ele>
        <time>1970-01-01T00:47:08.000Z</time>
      </trkpt>
      <trkpt lat="42.729703" lon="0.774425">
        <ele>990.8</ele>
        <time>1970-01-01T00:47:10.000Z</time>
      </trkpt>
      <trkpt lat="42.729685" lon="0.774597">
        <ele>989.2</ele>
        <time>1970-01-01T00:47:12.000Z</time>
      </trkpt>
      <trkpt lat="42.729669" lon="0.774713">
        <ele>987.6</ele>
        <time>1970-01-01T00:47:14.000Z</time>
      </trkpt>
      <trkpt lat="42.729648" lon="0.774815">
        <ele>985.8</ele>
        <time>1970-01-01T00:47:16.000Z</time>
      </trkpt>
      <trkpt lat="42.729633" lon="0.77487">
        <ele>984.8</ele>
        <time>1970-01-01T00:47:17.000Z</time>
      </trkpt>
      <trkpt lat="42.729614" lon="0.774966">
        <ele>983.2</ele>
        <time>1970-01-01T00:47:19.000Z</time>
      </trkpt>
      <trkpt lat="42.729603" lon="0.775039">
        <ele>981.8</ele>
        <time>1970-01-01T00:47:21.000Z</time>
      </trkpt>
      <trkpt lat="42.729583" lon="0.775118">
        <ele>980.6</ele>
        <time>1970-01-01T00:47:23.000Z</time>
      </trkpt>
      <trkpt lat="42.729568" lon="0.775219">
        <ele>979.2</ele>
        <time>1970-01-01T00:47:25.000Z</time>
      </trkpt>
      <trkpt lat="42.729531" lon="0.775314">
        <ele>977</ele>
        <time>1970-01-01T00:47:27.000Z</time>
      </trkpt>
      <trkpt lat="42.729497" lon="0.775384">
        <ele>975.6</ele>
        <time>1970-01-01T00:47:29.000Z</time>
      </trkpt>
      <trkpt lat="42.729482" lon="0.775416">
        <ele>974.4</ele>
        <time>1970-01-01T00:47:31.000Z</time>
      </trkpt>
      <trkpt lat="42.729452" lon="0.775475">
        <ele>973</ele>
        <time>1970-01-01T00:47:58.000Z</time>
      </trkpt>
      <trkpt lat="42.729421" lon="0.775529">
        <ele>972.2</ele>
        <time>1970-01-01T00:48:00.000Z</time>
      </trkpt>
      <trkpt lat="42.729395" lon="0.775604">
        <ele>971</ele>
        <time>1970-01-01T00:48:02.000Z</time>
      </trkpt>
      <trkpt lat="42.729358" lon="0.775665">
        <ele>969.8</ele>
        <time>1970-01-01T00:48:04.000Z</time>
      </trkpt>
      <trkpt lat="42.729325" lon="0.775702">
        <ele>968</ele>
        <time>1970-01-01T00:48:06.000Z</time>
      </trkpt>
      <trkpt lat="42.729288" lon="0.775732">
        <ele>966.8</ele>
        <time>1970-01-01T00:48:08.000Z</time>
      </trkpt>
      <trkpt lat="42.729251" lon="0.775766">
        <ele>965.4</ele>
        <time>1970-01-01T00:48:10.000Z</time>
      </trkpt>
      <trkpt lat="42.72921" lon="0.775824">
        <ele>963.8</ele>
        <time>1970-01-01T00:48:12.000Z</time>
      </trkpt>
      <trkpt lat="42.729172" lon="0.775884">
        <ele>962.4</ele>
        <time>1970-01-01T00:48:14.000Z</time>
      </trkpt>
      <trkpt lat="42.729138" lon="0.77594">
        <ele>961.4</ele>
        <time>1970-01-01T00:48:16.000Z</time>
      </trkpt>
      <trkpt lat="42.729115" lon="0.776004">
        <ele>959.4</ele>
        <time>1970-01-01T00:48:18.000Z</time>
      </trkpt>
      <trkpt lat="42.7291" lon="0.776076">
        <ele>958.2</ele>
        <time>1970-01-01T00:48:20.000Z</time>
      </trkpt>
      <trkpt lat="42.729094" lon="0.776141">
        <ele>956.8</ele>
        <time>1970-01-01T00:48:22.000Z</time>
      </trkpt>
      <trkpt lat="42.729076" lon="0.776217">
        <ele>954.8</ele>
        <time>1970-01-01T00:48:24.000Z</time>
      </trkpt>
      <trkpt lat="42.729054" lon="0.776289">
        <ele>953.4</ele>
        <time>1970-01-01T00:48:26.000Z</time>
      </trkpt>
      <trkpt lat="42.729047" lon="0.776319">
        <ele>952.2</ele>
        <time>1970-01-01T00:48:27.000Z</time>
      </trkpt>
      <trkpt lat="42.729039" lon="0.776351">
        <ele>951.2</ele>
        <time>1970-01-01T00:48:28.000Z</time>
      </trkpt>
      <trkpt lat="42.72903" lon="0.776391">
        <ele>949.8</ele>
        <time>1970-01-01T00:48:29.000Z</time>
      </trkpt>
      <trkpt lat="42.729016" lon="0.776482">
        <ele>948.2</ele>
        <time>1970-01-01T00:48:31.000Z</time>
      </trkpt>
      <trkpt lat="42.729001" lon="0.776557">
        <ele>946.6</ele>
        <time>1970-01-01T00:48:33.000Z</time>
      </trkpt>
      <trkpt lat="42.728989" lon="0.776654">
        <ele>945.4</ele>
        <time>1970-01-01T00:48:35.000Z</time>
      </trkpt>
      <trkpt lat="42.728975" lon="0.776756">
        <ele>944</ele>
        <time>1970-01-01T00:48:37.000Z</time>
      </trkpt>
      <trkpt lat="42.728954" lon="0.776873">
        <ele>942.4</ele>
        <time>1970-01-01T00:48:39.000Z</time>
      </trkpt>
      <trkpt lat="42.728922" lon="0.777002">
        <ele>941</ele>
        <time>1970-01-01T00:48:41.000Z</time>
      </trkpt>
      <trkpt lat="42.72891" lon="0.777075">
        <ele>940.4</ele>
        <time>1970-01-01T00:48:42.000Z</time>
      </trkpt>
      <trkpt lat="42.728901" lon="0.777148">
        <ele>939.8</ele>
        <time>1970-01-01T00:48:43.000Z</time>
      </trkpt>
      <trkpt lat="42.728886" lon="0.777215">
        <ele>938.8</ele>
        <time>1970-01-01T00:48:44.000Z</time>
      </trkpt>
      <trkpt lat="42.728873" lon="0.777284">
        <ele>937.6</ele>
        <time>1970-01-01T00:48:45.000Z</time>
      </trkpt>
      <trkpt lat="42.728859" lon="0.777343">
        <ele>936.4</ele>
        <time>1970-01-01T00:48:46.000Z</time>
      </trkpt>
      <trkpt lat="42.728833" lon="0.777448">
        <ele>934.2</ele>
        <time>1970-01-01T00:48:48.000Z</time>
      </trkpt>
      <trkpt lat="42.728819" lon="0.777555">
        <ele>932.2</ele>
        <time>1970-01-01T00:48:50.000Z</time>
      </trkpt>
      <trkpt lat="42.72879" lon="0.77767">
        <ele>930.6</ele>
        <time>1970-01-01T00:48:52.000Z</time>
      </trkpt>
      <trkpt lat="42.72878" lon="0.777734">
        <ele>929.8</ele>
        <time>1970-01-01T00:48:53.000Z</time>
      </trkpt>
      <trkpt lat="42.728775" lon="0.777792">
        <ele>929</ele>
        <time>1970-01-01T00:48:54.000Z</time>
      </trkpt>
      <trkpt lat="42.728781" lon="0.777824">
        <ele>927.6</ele>
        <time>1970-01-01T00:48:55.000Z</time>
      </trkpt>
      <trkpt lat="42.7288" lon="0.777841">
        <ele>926.4</ele>
        <time>1970-01-01T00:48:57.000Z</time>
      </trkpt>
      <trkpt lat="42.728829" lon="0.777828">
        <ele>925</ele>
        <time>1970-01-01T00:49:00.000Z</time>
      </trkpt>
      <trkpt lat="42.728843" lon="0.777817">
        <ele>923.8</ele>
        <time>1970-01-01T00:49:02.000Z</time>
      </trkpt>
      <trkpt lat="42.728849" lon="0.7778">
        <ele>923.4</ele>
        <time>1970-01-01T00:49:03.000Z</time>
      </trkpt>
      <trkpt lat="42.728869" lon="0.777781">
        <ele>922.8</ele>
        <time>1970-01-01T00:49:04.000Z</time>
      </trkpt>
      <trkpt lat="42.728927" lon="0.777729">
        <ele>921.8</ele>
        <time>1970-01-01T00:49:06.000Z</time>
      </trkpt>
      <trkpt lat="42.728995" lon="0.77767">
        <ele>920</ele>
        <time>1970-01-01T00:49:08.000Z</time>
      </trkpt>
      <trkpt lat="42.729072" lon="0.777607">
        <ele>917.6</ele>
        <time>1970-01-01T00:49:10.000Z</time>
      </trkpt>
      <trkpt lat="42.729105" lon="0.777572">
        <ele>916.6</ele>
        <time>1970-01-01T00:49:11.000Z</time>
      </trkpt>
      <trkpt lat="42.729134" lon="0.777531">
        <ele>915.6</ele>
        <time>1970-01-01T00:49:12.000Z</time>
      </trkpt>
      <trkpt lat="42.729162" lon="0.777495">
        <ele>914.4</ele>
        <time>1970-01-01T00:49:13.000Z</time>
      </trkpt>
      <trkpt lat="42.729215" lon="0.777436">
        <ele>913</ele>
        <time>1970-01-01T00:49:15.000Z</time>
      </trkpt>
      <trkpt lat="42.729248" lon="0.777413">
        <ele>911.6</ele>
        <time>1970-01-01T00:49:17.000Z</time>
      </trkpt>
      <trkpt lat="42.729253" lon="0.77741">
        <ele>911.2</ele>
        <time>1970-01-01T00:49:18.000Z</time>
      </trkpt>
      <trkpt lat="42.729317" lon="0.777392">
        <ele>910</ele>
        <time>1970-01-01T00:49:23.000Z</time>
      </trkpt>
      <trkpt lat="42.729422" lon="0.77735">
        <ele>908.2</ele>
        <time>1970-01-01T00:49:26.000Z</time>
      </trkpt>
      <trkpt lat="42.72947" lon="0.777322">
        <ele>906.8</ele>
        <time>1970-01-01T00:49:28.000Z</time>
      </trkpt>
      <trkpt lat="42.729486" lon="0.777312">
        <ele>905.6</ele>
        <time>1970-01-01T00:49:30.000Z</time>
      </trkpt>
      <trkpt lat="42.729546" lon="0.777271">
        <ele>905.2</ele>
        <time>1970-01-01T00:51:55.000Z</time>
      </trkpt>
      <trkpt lat="42.729652" lon="0.777146">
        <ele>903.6</ele>
        <time>1970-01-01T00:51:59.000Z</time>
      </trkpt>
      <trkpt lat="42.729689" lon="0.777108">
        <ele>902.2</ele>
        <time>1970-01-01T00:52:00.000Z</time>
      </trkpt>
      <trkpt lat="42.729767" lon="0.777">
        <ele>901</ele>
        <time>1970-01-01T00:52:02.000Z</time>
      </trkpt>
      <trkpt lat="42.729833" lon="0.776864">
        <ele>900</ele>
        <time>1970-01-01T00:52:04.000Z</time>
      </trkpt>
      <trkpt lat="42.729862" lon="0.776804">
        <ele>899.6</ele>
        <time>1970-01-01T00:52:05.000Z</time>
      </trkpt>
      <trkpt lat="42.729922" lon="0.776733">
        <ele>898</ele>
        <time>1970-01-01T00:52:07.000Z</time>
      </trkpt>
      <trkpt lat="42.729955" lon="0.776744">
        <ele>897.4</ele>
        <time>1970-01-01T00:52:08.000Z</time>
      </trkpt>
      <trkpt lat="42.730017" lon="0.776804">
        <ele>896.4</ele>
        <time>1970-01-01T00:52:10.000Z</time>
      </trkpt>
      <trkpt lat="42.730074" lon="0.776876">
        <ele>895.6</ele>
        <time>1970-01-01T00:52:12.000Z</time>
      </trkpt>
      <trkpt lat="42.730095" lon="0.776895">
        <ele>895</ele>
        <time>1970-01-01T00:52:13.000Z</time>
      </trkpt>
      <trkpt lat="42.730115" lon="0.776899">
        <ele>894.6</ele>
        <time>1970-01-01T00:52:15.000Z</time>
      </trkpt>
      <trkpt lat="42.730155" lon="0.776954">
        <ele>894.4</ele>
        <time>1970-01-01T00:52:21.000Z</time>
      </trkpt>
      <trkpt lat="42.730356" lon="0.777154">
        <ele>895.8</ele>
        <time>1970-01-01T00:52:31.000Z</time>
      </trkpt>
      <trkpt lat="42.730534" lon="0.777224">
        <ele>895.8</ele>
        <time>1970-01-01T00:52:38.000Z</time>
      </trkpt>
      <trkpt lat="42.730598" lon="0.777109">
        <ele>896.6</ele>
        <time>1970-01-01T00:52:42.000Z</time>
      </trkpt>
      <trkpt lat="42.730689" lon="0.776874">
        <ele>897.8</ele>
        <time>1970-01-01T00:52:49.000Z</time>
      </trkpt>
      <trkpt lat="42.730848" lon="0.776727">
        <ele>899</ele>
        <time>1970-01-01T00:52:56.000Z</time>
      </trkpt>
      <trkpt lat="42.730965" lon="0.776657">
        <ele>900.2</ele>
        <time>1970-01-01T00:53:01.000Z</time>
      </trkpt>
      <trkpt lat="42.73108" lon="0.776575">
        <ele>901.4</ele>
        <time>1970-01-01T00:53:06.000Z</time>
      </trkpt>
      <trkpt lat="42.731182" lon="0.776578">
        <ele>902.6</ele>
        <time>1970-01-01T00:53:11.000Z</time>
      </trkpt>
      <trkpt lat="42.731207" lon="0.776589">
        <ele>903.6</ele>
        <time>1970-01-01T00:53:15.000Z</time>
      </trkpt>
      <trkpt lat="42.731255" lon="0.776624">
        <ele>903.6</ele>
        <time>1970-01-01T00:53:23.000Z</time>
      </trkpt>
      <trkpt lat="42.731279" lon="0.776618">
        <ele>903.6</ele>
        <time>1970-01-01T00:53:24.000Z</time>
      </trkpt>
      <trkpt lat="42.731327" lon="0.776574">
        <ele>903.6</ele>
        <time>1970-01-01T00:53:26.000Z</time>
      </trkpt>
      <trkpt lat="42.731766" lon="0.776119">
        <ele>903.8</ele>
        <time>1970-01-01T00:53:40.000Z</time>
      </trkpt>
      <trkpt lat="42.732215" lon="0.775708">
        <ele>904</ele>
        <time>1970-01-01T00:53:51.000Z</time>
      </trkpt>
      <trkpt lat="42.732632" lon="0.775209">
        <ele>903.2</ele>
        <time>1970-01-01T00:54:01.000Z</time>
      </trkpt>
      <trkpt lat="42.732983" lon="0.774582">
        <ele>902.4</ele>
        <time>1970-01-01T00:54:11.000Z</time>
      </trkpt>
      <trkpt lat="42.733009" lon="0.774512">
        <ele>902.4</ele>
        <time>1970-01-01T00:54:12.000Z</time>
      </trkpt>
      <trkpt lat="42.73319" lon="0.77392">
        <ele>901.4</ele>
        <time>1970-01-01T00:54:20.000Z</time>
      </trkpt>
      <trkpt lat="42.733275" lon="0.773705">
        <ele>901.8</ele>
        <time>1970-01-01T00:54:24.000Z</time>
      </trkpt>
      <trkpt lat="42.733299" lon="0.773635">
        <ele>903</ele>
        <time>1970-01-01T00:54:27.000Z</time>
      </trkpt>
      <trkpt lat="42.733315" lon="0.773593">
        <ele>904.2</ele>
        <time>1970-01-01T00:54:29.000Z</time>
      </trkpt>
      <trkpt lat="42.733338" lon="0.773482">
        <ele>905.2</ele>
        <time>1970-01-01T00:54:33.000Z</time>
      </trkpt>
      <trkpt lat="42.733405" lon="0.773254">
        <ele>906.4</ele>
        <time>1970-01-01T00:54:41.000Z</time>
      </trkpt>
      <trkpt lat="42.733437" lon="0.773118">
        <ele>907.6</ele>
        <time>1970-01-01T00:54:45.000Z</time>
      </trkpt>
      <trkpt lat="42.733487" lon="0.772923">
        <ele>908.6</ele>
        <time>1970-01-01T00:54:51.000Z</time>
      </trkpt>
      <trkpt lat="42.73352" lon="0.772815">
        <ele>909.8</ele>
        <time>1970-01-01T00:54:55.000Z</time>
      </trkpt>
      <trkpt lat="42.733558" lon="0.772679">
        <ele>911</ele>
        <time>1970-01-01T00:55:00.000Z</time>
      </trkpt>
      <trkpt lat="42.73359" lon="0.772536">
        <ele>912.2</ele>
        <time>1970-01-01T00:55:05.000Z</time>
      </trkpt>
      <trkpt lat="42.733646" lon="0.772384">
        <ele>913.2</ele>
        <time>1970-01-01T00:55:11.000Z</time>
      </trkpt>
      <trkpt lat="42.73368" lon="0.772269">
        <ele>914.2</ele>
        <time>1970-01-01T00:55:16.000Z</time>
      </trkpt>
      <trkpt lat="42.733873" lon="0.771578">
        <ele>915.2</ele>
        <time>1970-01-01T00:55:38.000Z</time>
      </trkpt>
      <trkpt lat="42.734044" lon="0.77116">
        <ele>916.2</ele>
        <time>1970-01-01T00:55:52.000Z</time>
      </trkpt>
      <trkpt lat="42.734124" lon="0.770893">
        <ele>917.4</ele>
        <time>1970-01-01T00:56:00.000Z</time>
      </trkpt>
      <trkpt lat="42.734167" lon="0.77074">
        <ele>918.4</ele>
        <time>1970-01-01T00:56:05.000Z</time>
      </trkpt>
      <trkpt lat="42.734197" lon="0.770617">
        <ele>919.6</ele>
        <time>1970-01-01T00:56:09.000Z</time>
      </trkpt>
      <trkpt lat="42.734246" lon="0.770438">
        <ele>920.8</ele>
        <time>1970-01-01T00:56:15.000Z</time>
      </trkpt>
      <trkpt lat="42.734289" lon="0.770241">
        <ele>922</ele>
        <time>1970-01-01T00:56:21.000Z</time>
      </trkpt>
      <trkpt lat="42.734344" lon="0.770045">
        <ele>923</ele>
        <time>1970-01-01T00:56:27.000Z</time>
      </trkpt>
      <trkpt lat="42.734412" lon="0.769866">
        <ele>924.2</ele>
        <time>1970-01-01T00:56:33.000Z</time>
      </trkpt>
      <trkpt lat="42.734423" lon="0.769835">
        <ele>924.4</ele>
        <time>1970-01-01T00:56:34.000Z</time>
      </trkpt>
      <trkpt lat="42.734517" lon="0.769606">
        <ele>925.2</ele>
        <time>1970-01-01T00:56:42.000Z</time>
      </trkpt>
      <trkpt lat="42.73468" lon="0.769138">
        <ele>926.2</ele>
        <time>1970-01-01T00:56:57.000Z</time>
      </trkpt>
      <trkpt lat="42.734928" lon="0.768443">
        <ele>927.2</ele>
        <time>1970-01-01T00:57:16.000Z</time>
      </trkpt>
      <trkpt lat="42.735016" lon="0.76825">
        <ele>926.6</ele>
        <time>1970-01-01T00:57:20.000Z</time>
      </trkpt>
      <trkpt lat="42.735063" lon="0.768126">
        <ele>926</ele>
        <time>1970-01-01T00:57:22.000Z</time>
      </trkpt>
      <trkpt lat="42.73512" lon="0.768008">
        <ele>924.8</ele>
        <time>1970-01-01T00:57:24.000Z</time>
      </trkpt>
      <trkpt lat="42.735178" lon="0.767889">
        <ele>923.6</ele>
        <time>1970-01-01T00:57:26.000Z</time>
      </trkpt>
      <trkpt lat="42.735204" lon="0.767833">
        <ele>923.2</ele>
        <time>1970-01-01T00:57:27.000Z</time>
      </trkpt>
      <trkpt lat="42.735251" lon="0.767732">
        <ele>922.6</ele>
        <time>1970-01-01T00:57:29.000Z</time>
      </trkpt>
      <trkpt lat="42.735343" lon="0.767623">
        <ele>921.2</ele>
        <time>1970-01-01T00:57:32.000Z</time>
      </trkpt>
      <trkpt lat="42.735465" lon="0.767488">
        <ele>920.2</ele>
        <time>1970-01-01T00:57:35.000Z</time>
      </trkpt>
      <trkpt lat="42.735502" lon="0.767435">
        <ele>919.8</ele>
        <time>1970-01-01T00:57:36.000Z</time>
      </trkpt>
      <trkpt lat="42.73558" lon="0.767312">
        <ele>919</ele>
        <time>1970-01-01T00:57:38.000Z</time>
      </trkpt>
      <trkpt lat="42.735797" lon="0.767032">
        <ele>917.8</ele>
        <time>1970-01-01T00:57:43.000Z</time>
      </trkpt>
      <trkpt lat="42.735841" lon="0.766992">
        <ele>917.8</ele>
        <time>1970-01-01T00:57:44.000Z</time>
      </trkpt>
      <trkpt lat="42.735945" lon="0.766862">
        <ele>917.2</ele>
        <time>1970-01-01T00:57:47.000Z</time>
      </trkpt>
      <trkpt lat="42.736289" lon="0.766419">
        <ele>918.2</ele>
        <time>1970-01-01T00:57:58.000Z</time>
      </trkpt>
      <trkpt lat="42.736427" lon="0.7662">
        <ele>918.4</ele>
        <time>1970-01-01T00:58:03.000Z</time>
      </trkpt>
      <trkpt lat="42.73657" lon="0.765945">
        <ele>919</ele>
        <time>1970-01-01T00:58:09.000Z</time>
      </trkpt>
      <trkpt lat="42.736688" lon="0.765771">
        <ele>920.4</ele>
        <time>1970-01-01T00:58:14.000Z</time>
      </trkpt>
      <trkpt lat="42.736747" lon="0.765669">
        <ele>921.4</ele>
        <time>1970-01-01T00:58:17.000Z</time>
      </trkpt>
      <trkpt lat="42.736824" lon="0.765504">
        <ele>922.6</ele>
        <time>1970-01-01T00:58:22.000Z</time>
      </trkpt>
      <trkpt lat="42.736895" lon="0.765379">
        <ele>923.8</ele>
        <time>1970-01-01T00:58:26.000Z</time>
      </trkpt>
      <trkpt lat="42.73697" lon="0.765272">
        <ele>925</ele>
        <time>1970-01-01T00:58:30.000Z</time>
      </trkpt>
      <trkpt lat="42.737031" lon="0.765158">
        <ele>926.2</ele>
        <time>1970-01-01T00:58:34.000Z</time>
      </trkpt>
      <trkpt lat="42.737083" lon="0.765056">
        <ele>927.2</ele>
        <time>1970-01-01T00:58:38.000Z</time>
      </trkpt>
      <trkpt lat="42.737121" lon="0.764975">
        <ele>928.6</ele>
        <time>1970-01-01T00:58:42.000Z</time>
      </trkpt>
      <trkpt lat="42.737142" lon="0.764909">
        <ele>929.8</ele>
        <time>1970-01-01T00:58:45.000Z</time>
      </trkpt>
      <trkpt lat="42.73717" lon="0.764787">
        <ele>931.2</ele>
        <time>1970-01-01T00:58:50.000Z</time>
      </trkpt>
      <trkpt lat="42.737187" lon="0.764715">
        <ele>932.2</ele>
        <time>1970-01-01T00:58:53.000Z</time>
      </trkpt>
      <trkpt lat="42.737219" lon="0.764613">
        <ele>933.4</ele>
        <time>1970-01-01T00:58:57.000Z</time>
      </trkpt>
      <trkpt lat="42.73725" lon="0.764453">
        <ele>934.8</ele>
        <time>1970-01-01T00:59:03.000Z</time>
      </trkpt>
      <trkpt lat="42.737277" lon="0.764336">
        <ele>935.8</ele>
        <time>1970-01-01T00:59:08.000Z</time>
      </trkpt>
      <trkpt lat="42.73731" lon="0.764223">
        <ele>937</ele>
        <time>1970-01-01T00:59:13.000Z</time>
      </trkpt>
      <trkpt lat="42.737325" lon="0.764153">
        <ele>938</ele>
        <time>1970-01-01T00:59:17.000Z</time>
      </trkpt>
      <trkpt lat="42.737329" lon="0.764035">
        <ele>939.2</ele>
        <time>1970-01-01T00:59:22.000Z</time>
      </trkpt>
      <trkpt lat="42.737334" lon="0.763968">
        <ele>940.4</ele>
        <time>1970-01-01T00:59:25.000Z</time>
      </trkpt>
      <trkpt lat="42.737333" lon="0.763844">
        <ele>941.6</ele>
        <time>1970-01-01T00:59:30.000Z</time>
      </trkpt>
      <trkpt lat="42.737333" lon="0.763669">
        <ele>942.6</ele>
        <time>1970-01-01T00:59:37.000Z</time>
      </trkpt>
      <trkpt lat="42.737357" lon="0.763535">
        <ele>943.8</ele>
        <time>1970-01-01T00:59:43.000Z</time>
      </trkpt>
      <trkpt lat="42.737377" lon="0.7635">
        <ele>944.4</ele>
        <time>1970-01-01T00:59:45.000Z</time>
      </trkpt>
      <trkpt lat="42.737394" lon="0.763462">
        <ele>944.8</ele>
        <time>1970-01-01T00:59:47.000Z</time>
      </trkpt>
      <trkpt lat="42.737437" lon="0.763369">
        <ele>946</ele>
        <time>1970-01-01T00:59:52.000Z</time>
      </trkpt>
      <trkpt lat="42.737473" lon="0.763299">
        <ele>947.4</ele>
        <time>1970-01-01T00:59:56.000Z</time>
      </trkpt>
      <trkpt lat="42.737509" lon="0.763222">
        <ele>948.6</ele>
        <time>1970-01-01T01:00:00.000Z</time>
      </trkpt>
      <trkpt lat="42.737541" lon="0.763145">
        <ele>949.8</ele>
        <time>1970-01-01T01:00:04.000Z</time>
      </trkpt>
      <trkpt lat="42.737587" lon="0.763009">
        <ele>951.2</ele>
        <time>1970-01-01T01:00:11.000Z</time>
      </trkpt>
      <trkpt lat="42.737613" lon="0.762943">
        <ele>952.2</ele>
        <time>1970-01-01T01:00:15.000Z</time>
      </trkpt>
      <trkpt lat="42.73764" lon="0.762842">
        <ele>953.6</ele>
        <time>1970-01-01T01:00:20.000Z</time>
      </trkpt>
      <trkpt lat="42.737673" lon="0.762775">
        <ele>954.8</ele>
        <time>1970-01-01T01:00:24.000Z</time>
      </trkpt>
      <trkpt lat="42.737696" lon="0.762725">
        <ele>956</ele>
        <time>1970-01-01T01:00:27.000Z</time>
      </trkpt>
      <trkpt lat="42.737717" lon="0.762705">
        <ele>956.6</ele>
        <time>1970-01-01T01:00:29.000Z</time>
      </trkpt>
      <trkpt lat="42.737751" lon="0.76268">
        <ele>957</ele>
        <time>1970-01-01T01:00:32.000Z</time>
      </trkpt>
      <trkpt lat="42.737812" lon="0.762616">
        <ele>956.8</ele>
        <time>1970-01-01T01:00:36.000Z</time>
      </trkpt>
      <trkpt lat="42.737822" lon="0.762585">
        <ele>956.6</ele>
        <time>1970-01-01T01:00:40.000Z</time>
      </trkpt>
      <trkpt lat="42.737752" lon="0.76275">
        <ele>957.2</ele>
        <time>1970-01-01T01:00:50.000Z</time>
      </trkpt>
      <trkpt lat="42.737725" lon="0.762961">
        <ele>958</ele>
        <time>1970-01-01T01:01:04.000Z</time>
      </trkpt>
      <trkpt lat="42.73774" lon="0.763034">
        <ele>958.6</ele>
        <time>1970-01-01T01:01:15.000Z</time>
      </trkpt>
      <trkpt lat="42.737747" lon="0.762949">
        <ele>958.4</ele>
        <time>1970-01-01T01:01:19.000Z</time>
      </trkpt>
      <trkpt lat="42.737727" lon="0.763032">
        <ele>958.2</ele>
        <time>1970-01-01T01:01:27.000Z</time>
      </trkpt>
      <trkpt lat="42.73776" lon="0.763156">
        <ele>959.2</ele>
        <time>1970-01-01T01:01:36.000Z</time>
      </trkpt>
      <trkpt lat="42.737785" lon="0.763226">
        <ele>959.8</ele>
        <time>1970-01-01T01:01:40.000Z</time>
      </trkpt>
      <trkpt lat="42.737786" lon="0.763294">
        <ele>960.2</ele>
        <time>1970-01-01T01:01:43.000Z</time>
      </trkpt>
      <trkpt lat="42.737816" lon="0.763405">
        <ele>961.2</ele>
        <time>1970-01-01T01:01:48.000Z</time>
      </trkpt>
      <trkpt lat="42.737907" lon="0.763459">
        <ele>962.2</ele>
        <time>1970-01-01T01:01:53.000Z</time>
      </trkpt>
      <trkpt lat="42.737928" lon="0.763451">
        <ele>962.4</ele>
        <time>1970-01-01T01:01:54.000Z</time>
      </trkpt>
      <trkpt lat="42.738031" lon="0.763222">
        <ele>963.4</ele>
        <time>1970-01-01T01:02:04.000Z</time>
      </trkpt>
      <trkpt lat="42.738039" lon="0.762523">
        <ele>964.4</ele>
        <time>1970-01-01T01:02:26.000Z</time>
      </trkpt>
      <trkpt lat="42.738136" lon="0.762355">
        <ele>965.6</ele>
        <time>1970-01-01T01:02:33.000Z</time>
      </trkpt>
      <trkpt lat="42.738324" lon="0.762111">
        <ele>965.6</ele>
        <time>1970-01-01T01:02:48.000Z</time>
      </trkpt>
      <trkpt lat="42.738332" lon="0.76208">
        <ele>965.6</ele>
        <time>1970-01-01T01:03:04.000Z</time>
      </trkpt>
      <trkpt lat="42.738572" lon="0.761607">
        <ele>966.8</ele>
        <time>1970-01-01T01:03:20.000Z</time>
      </trkpt>
      <trkpt lat="42.738658" lon="0.761545">
        <ele>968</ele>
        <time>1970-01-01T01:03:24.000Z</time>
      </trkpt>
      <trkpt lat="42.738742" lon="0.761494">
        <ele>969</ele>
        <time>1970-01-01T01:03:28.000Z</time>
      </trkpt>
      <trkpt lat="42.738823" lon="0.761426">
        <ele>970.2</ele>
        <time>1970-01-01T01:03:32.000Z</time>
      </trkpt>
      <trkpt lat="42.738889" lon="0.761346">
        <ele>971.4</ele>
        <time>1970-01-01T01:03:36.000Z</time>
      </trkpt>
      <trkpt lat="42.73895" lon="0.761273">
        <ele>972.4</ele>
        <time>1970-01-01T01:03:40.000Z</time>
      </trkpt>
      <trkpt lat="42.739025" lon="0.761182">
        <ele>973.6</ele>
        <time>1970-01-01T01:03:45.000Z</time>
      </trkpt>
      <trkpt lat="42.739071" lon="0.761064">
        <ele>974.8</ele>
        <time>1970-01-01T01:03:50.000Z</time>
      </trkpt>
      <trkpt lat="42.739075" lon="0.761036">
        <ele>974.8</ele>
        <time>1970-01-01T01:03:51.000Z</time>
      </trkpt>
      <trkpt lat="42.739102" lon="0.760865">
        <ele>975.8</ele>
        <time>1970-01-01T01:03:57.000Z</time>
      </trkpt>
      <trkpt lat="42.739171" lon="0.760563">
        <ele>976.8</ele>
        <time>1970-01-01T01:04:07.000Z</time>
      </trkpt>
      <trkpt lat="42.739267" lon="0.760258">
        <ele>976.2</ele>
        <time>1970-01-01T01:04:14.000Z</time>
      </trkpt>
      <trkpt lat="42.739329" lon="0.760154">
        <ele>975.8</ele>
        <time>1970-01-01T01:04:16.000Z</time>
      </trkpt>
      <trkpt lat="42.739499" lon="0.759948">
        <ele>974.8</ele>
        <time>1970-01-01T01:04:20.000Z</time>
      </trkpt>
      <trkpt lat="42.739541" lon="0.75989">
        <ele>974.4</ele>
        <time>1970-01-01T01:04:21.000Z</time>
      </trkpt>
      <trkpt lat="42.739629" lon="0.75967">
        <ele>973.6</ele>
        <time>1970-01-01T01:04:24.000Z</time>
      </trkpt>
      <trkpt lat="42.739651" lon="0.759595">
        <ele>973.4</ele>
        <time>1970-01-01T01:04:25.000Z</time>
      </trkpt>
      <trkpt lat="42.739668" lon="0.759519">
        <ele>973.2</ele>
        <time>1970-01-01T01:04:26.000Z</time>
      </trkpt>
      <trkpt lat="42.739688" lon="0.759276">
        <ele>972.4</ele>
        <time>1970-01-01T01:04:29.000Z</time>
      </trkpt>
      <trkpt lat="42.739703" lon="0.758922">
        <ele>971.4</ele>
        <time>1970-01-01T01:04:33.000Z</time>
      </trkpt>
      <trkpt lat="42.739727" lon="0.758738">
        <ele>970.8</ele>
        <time>1970-01-01T01:04:35.000Z</time>
      </trkpt>
      <trkpt lat="42.739784" lon="0.758561">
        <ele>970</ele>
        <time>1970-01-01T01:04:37.000Z</time>
      </trkpt>
      <trkpt lat="42.740013" lon="0.758">
        <ele>968.8</ele>
        <time>1970-01-01T01:04:44.000Z</time>
      </trkpt>
      <trkpt lat="42.740051" lon="0.757922">
        <ele>968.6</ele>
        <time>1970-01-01T01:04:45.000Z</time>
      </trkpt>
      <trkpt lat="42.74014" lon="0.757779">
        <ele>968.4</ele>
        <time>1970-01-01T01:04:47.000Z</time>
      </trkpt>
      <trkpt lat="42.740618" lon="0.757326">
        <ele>967.8</ele>
        <time>1970-01-01T01:04:56.000Z</time>
      </trkpt>
      <trkpt lat="42.740779" lon="0.757184">
        <ele>967.8</ele>
        <time>1970-01-01T01:04:59.000Z</time>
      </trkpt>
      <trkpt lat="42.741093" lon="0.756957">
        <ele>966.8</ele>
        <time>1970-01-01T01:05:04.000Z</time>
      </trkpt>
      <trkpt lat="42.741168" lon="0.756925">
        <ele>966.4</ele>
        <time>1970-01-01T01:05:05.000Z</time>
      </trkpt>
      <trkpt lat="42.741413" lon="0.75691">
        <ele>965.2</ele>
        <time>1970-01-01T01:05:08.000Z</time>
      </trkpt>
      <trkpt lat="42.741583" lon="0.75693">
        <ele>964.4</ele>
        <time>1970-01-01T01:05:10.000Z</time>
      </trkpt>
      <trkpt lat="42.741668" lon="0.75697">
        <ele>964</ele>
        <time>1970-01-01T01:05:11.000Z</time>
      </trkpt>
      <trkpt lat="42.741821" lon="0.757089">
        <ele>962.8</ele>
        <time>1970-01-01T01:05:13.000Z</time>
      </trkpt>
      <trkpt lat="42.741899" lon="0.757146">
        <ele>962.4</ele>
        <time>1970-01-01T01:05:14.000Z</time>
      </trkpt>
      <trkpt lat="42.741987" lon="0.757185">
        <ele>961.6</ele>
        <time>1970-01-01T01:05:15.000Z</time>
      </trkpt>
      <trkpt lat="42.742182" lon="0.757211">
        <ele>960.4</ele>
        <time>1970-01-01T01:05:17.000Z</time>
      </trkpt>
      <trkpt lat="42.74239" lon="0.757202">
        <ele>959.2</ele>
        <time>1970-01-01T01:05:19.000Z</time>
      </trkpt>
      <trkpt lat="42.742595" lon="0.757173">
        <ele>958</ele>
        <time>1970-01-01T01:05:21.000Z</time>
      </trkpt>
      <trkpt lat="42.742693" lon="0.757169">
        <ele>957.4</ele>
        <time>1970-01-01T01:05:22.000Z</time>
      </trkpt>
      <trkpt lat="42.742865" lon="0.757213">
        <ele>956.8</ele>
        <time>1970-01-01T01:05:24.000Z</time>
      </trkpt>
      <trkpt lat="42.743184" lon="0.75715">
        <ele>956</ele>
        <time>1970-01-01T01:05:28.000Z</time>
      </trkpt>
      <trkpt lat="42.74332" lon="0.757109">
        <ele>956</ele>
        <time>1970-01-01T01:05:30.000Z</time>
      </trkpt>
      <trkpt lat="42.74345" lon="0.757198">
        <ele>955.6</ele>
        <time>1970-01-01T01:05:32.000Z</time>
      </trkpt>
      <trkpt lat="42.743541" lon="0.757575">
        <ele>955</ele>
        <time>1970-01-01T01:05:36.000Z</time>
      </trkpt>
      <trkpt lat="42.743559" lon="0.757679">
        <ele>954.8</ele>
        <time>1970-01-01T01:05:37.000Z</time>
      </trkpt>
      <trkpt lat="42.743589" lon="0.757783">
        <ele>954.4</ele>
        <time>1970-01-01T01:05:38.000Z</time>
      </trkpt>
      <trkpt lat="42.743655" lon="0.758132">
        <ele>952.6</ele>
        <time>1970-01-01T01:05:41.000Z</time>
      </trkpt>
      <trkpt lat="42.743739" lon="0.758359">
        <ele>951.2</ele>
        <time>1970-01-01T01:05:43.000Z</time>
      </trkpt>
      <trkpt lat="42.74386" lon="0.75851">
        <ele>949.2</ele>
        <time>1970-01-01T01:05:45.000Z</time>
      </trkpt>
      <trkpt lat="42.743939" lon="0.758576">
        <ele>948.6</ele>
        <time>1970-01-01T01:05:46.000Z</time>
      </trkpt>
      <trkpt lat="42.74401" lon="0.758655">
        <ele>947.8</ele>
        <time>1970-01-01T01:05:47.000Z</time>
      </trkpt>
      <trkpt lat="42.744082" lon="0.758738">
        <ele>947.2</ele>
        <time>1970-01-01T01:05:48.000Z</time>
      </trkpt>
      <trkpt lat="42.744137" lon="0.758837">
        <ele>946.6</ele>
        <time>1970-01-01T01:05:49.000Z</time>
      </trkpt>
      <trkpt lat="42.744238" lon="0.759049">
        <ele>945.6</ele>
        <time>1970-01-01T01:05:51.000Z</time>
      </trkpt>
      <trkpt lat="42.744403" lon="0.759369">
        <ele>944.2</ele>
        <time>1970-01-01T01:05:54.000Z</time>
      </trkpt>
      <trkpt lat="42.744532" lon="0.759574">
        <ele>942.8</ele>
        <time>1970-01-01T01:05:56.000Z</time>
      </trkpt>
      <trkpt lat="42.744606" lon="0.759667">
        <ele>942.2</ele>
        <time>1970-01-01T01:05:57.000Z</time>
      </trkpt>
      <trkpt lat="42.74468" lon="0.759749">
        <ele>941.4</ele>
        <time>1970-01-01T01:05:58.000Z</time>
      </trkpt>
      <trkpt lat="42.744847" lon="0.759901">
        <ele>939.6</ele>
        <time>1970-01-01T01:06:00.000Z</time>
      </trkpt>
      <trkpt lat="42.745016" lon="0.760032">
        <ele>937.8</ele>
        <time>1970-01-01T01:06:02.000Z</time>
      </trkpt>
      <trkpt lat="42.745104" lon="0.760069">
        <ele>936.8</ele>
        <time>1970-01-01T01:06:03.000Z</time>
      </trkpt>
      <trkpt lat="42.745201" lon="0.760069">
        <ele>935.2</ele>
        <time>1970-01-01T01:06:04.000Z</time>
      </trkpt>
      <trkpt lat="42.745414" lon="0.760046">
        <ele>933.4</ele>
        <time>1970-01-01T01:06:06.000Z</time>
      </trkpt>
      <trkpt lat="42.745533" lon="0.760025">
        <ele>932.2</ele>
        <time>1970-01-01T01:06:07.000Z</time>
      </trkpt>
      <trkpt lat="42.745653" lon="0.760004">
        <ele>931</ele>
        <time>1970-01-01T01:06:08.000Z</time>
      </trkpt>
      <trkpt lat="42.745769" lon="0.759983">
        <ele>929.8</ele>
        <time>1970-01-01T01:06:09.000Z</time>
      </trkpt>
      <trkpt lat="42.745998" lon="0.759915">
        <ele>928.2</ele>
        <time>1970-01-01T01:06:11.000Z</time>
      </trkpt>
      <trkpt lat="42.746107" lon="0.759852">
        <ele>927.2</ele>
        <time>1970-01-01T01:06:12.000Z</time>
      </trkpt>
      <trkpt lat="42.7463" lon="0.759722">
        <ele>926</ele>
        <time>1970-01-01T01:06:14.000Z</time>
      </trkpt>
      <trkpt lat="42.746596" lon="0.759605">
        <ele>924.8</ele>
        <time>1970-01-01T01:06:17.000Z</time>
      </trkpt>
      <trkpt lat="42.746674" lon="0.759587">
        <ele>924.4</ele>
        <time>1970-01-01T01:06:18.000Z</time>
      </trkpt>
      <trkpt lat="42.746737" lon="0.759568">
        <ele>923.8</ele>
        <time>1970-01-01T01:06:19.000Z</time>
      </trkpt>
      <trkpt lat="42.746834" lon="0.759488">
        <ele>922.6</ele>
        <time>1970-01-01T01:06:22.000Z</time>
      </trkpt>
      <trkpt lat="42.746984" lon="0.759496">
        <ele>922.2</ele>
        <time>1970-01-01T01:06:30.000Z</time>
      </trkpt>
      <trkpt lat="42.747459" lon="0.759906">
        <ele>922.8</ele>
        <time>1970-01-01T01:06:46.000Z</time>
      </trkpt>
      <trkpt lat="42.747635" lon="0.760002">
        <ele>923.8</ele>
        <time>1970-01-01T01:06:51.000Z</time>
      </trkpt>
      <trkpt lat="42.747774" lon="0.760076">
        <ele>924.6</ele>
        <time>1970-01-01T01:06:56.000Z</time>
      </trkpt>
      <trkpt lat="42.747868" lon="0.760141">
        <ele>925.8</ele>
        <time>1970-01-01T01:07:00.000Z</time>
      </trkpt>
      <trkpt lat="42.747952" lon="0.760197">
        <ele>926.8</ele>
        <time>1970-01-01T01:07:04.000Z</time>
      </trkpt>
      <trkpt lat="42.748057" lon="0.760291">
        <ele>928</ele>
        <time>1970-01-01T01:07:09.000Z</time>
      </trkpt>
      <trkpt lat="42.748149" lon="0.760389">
        <ele>929</ele>
        <time>1970-01-01T01:07:14.000Z</time>
      </trkpt>
      <trkpt lat="42.748208" lon="0.760475">
        <ele>929.8</ele>
        <time>1970-01-01T01:07:19.000Z</time>
      </trkpt>
      <trkpt lat="42.748267" lon="0.760585">
        <ele>930.8</ele>
        <time>1970-01-01T01:07:24.000Z</time>
      </trkpt>
      <trkpt lat="42.748281" lon="0.760581">
        <ele>930.8</ele>
        <time>1970-01-01T01:07:26.000Z</time>
      </trkpt>
      <trkpt lat="42.748333" lon="0.760665">
        <ele>931.4</ele>
        <time>1970-01-01T01:07:35.000Z</time>
      </trkpt>
      <trkpt lat="42.74841" lon="0.760755">
        <ele>932.2</ele>
        <time>1970-01-01T01:07:40.000Z</time>
      </trkpt>
      <trkpt lat="42.748473" lon="0.760847">
        <ele>933</ele>
        <time>1970-01-01T01:07:45.000Z</time>
      </trkpt>
      <trkpt lat="42.748552" lon="0.760932">
        <ele>934</ele>
        <time>1970-01-01T01:07:50.000Z</time>
      </trkpt>
      <trkpt lat="42.748609" lon="0.761009">
        <ele>935.2</ele>
        <time>1970-01-01T01:07:54.000Z</time>
      </trkpt>
      <trkpt lat="42.748728" lon="0.761152">
        <ele>936.2</ele>
        <time>1970-01-01T01:08:01.000Z</time>
      </trkpt>
      <trkpt lat="42.748854" lon="0.7613">
        <ele>937</ele>
        <time>1970-01-01T01:08:08.000Z</time>
      </trkpt>
      <trkpt lat="42.749013" lon="0.761511">
        <ele>938</ele>
        <time>1970-01-01T01:08:16.000Z</time>
      </trkpt>
      <trkpt lat="42.749113" lon="0.761687">
        <ele>939</ele>
        <time>1970-01-01T01:08:21.000Z</time>
      </trkpt>
      <trkpt lat="42.74921" lon="0.761839">
        <ele>940</ele>
        <time>1970-01-01T01:08:26.000Z</time>
      </trkpt>
      <trkpt lat="42.749282" lon="0.761957">
        <ele>941.2</ele>
        <time>1970-01-01T01:08:30.000Z</time>
      </trkpt>
      <trkpt lat="42.749386" lon="0.762143">
        <ele>942.2</ele>
        <time>1970-01-01T01:08:36.000Z</time>
      </trkpt>
      <trkpt lat="42.749495" lon="0.76231">
        <ele>943.4</ele>
        <time>1970-01-01T01:08:42.000Z</time>
      </trkpt>
      <trkpt lat="42.749701" lon="0.76251">
        <ele>944.8</ele>
        <time>1970-01-01T01:08:51.000Z</time>
      </trkpt>
      <trkpt lat="42.749901" lon="0.762538">
        <ele>946</ele>
        <time>1970-01-01T01:08:59.000Z</time>
      </trkpt>
      <trkpt lat="42.750118" lon="0.762454">
        <ele>947.2</ele>
        <time>1970-01-01T01:09:07.000Z</time>
      </trkpt>
      <trkpt lat="42.7503" lon="0.762419">
        <ele>948.6</ele>
        <time>1970-01-01T01:09:14.000Z</time>
      </trkpt>
      <trkpt lat="42.750614" lon="0.762234">
        <ele>950.2</ele>
        <time>1970-01-01T01:09:26.000Z</time>
      </trkpt>
      <trkpt lat="42.750846" lon="0.761924">
        <ele>951.6</ele>
        <time>1970-01-01T01:09:36.000Z</time>
      </trkpt>
      <trkpt lat="42.750992" lon="0.761637">
        <ele>953</ele>
        <time>1970-01-01T01:09:44.000Z</time>
      </trkpt>
      <trkpt lat="42.751089" lon="0.761471">
        <ele>954</ele>
        <time>1970-01-01T01:09:50.000Z</time>
      </trkpt>
      <trkpt lat="42.751273" lon="0.761412">
        <ele>955.2</ele>
        <time>1970-01-01T01:09:58.000Z</time>
      </trkpt>
      <trkpt lat="42.751512" lon="0.761727">
        <ele>956.2</ele>
        <time>1970-01-01T01:10:08.000Z</time>
      </trkpt>
      <trkpt lat="42.751546" lon="0.761897">
        <ele>957.4</ele>
        <time>1970-01-01T01:10:12.000Z</time>
      </trkpt>
      <trkpt lat="42.751572" lon="0.762085">
        <ele>958.6</ele>
        <time>1970-01-01T01:10:17.000Z</time>
      </trkpt>
      <trkpt lat="42.75159" lon="0.762174">
        <ele>959.4</ele>
        <time>1970-01-01T01:10:20.000Z</time>
      </trkpt>
      <trkpt lat="42.751604" lon="0.762194">
        <ele>959.8</ele>
        <time>1970-01-01T01:10:21.000Z</time>
      </trkpt>
      <trkpt lat="42.751714" lon="0.762292">
        <ele>960.6</ele>
        <time>1970-01-01T01:10:27.000Z</time>
      </trkpt>
      <trkpt lat="42.75188" lon="0.762356">
        <ele>961.8</ele>
        <time>1970-01-01T01:10:35.000Z</time>
      </trkpt>
      <trkpt lat="42.751969" lon="0.762355">
        <ele>962.8</ele>
        <time>1970-01-01T01:10:39.000Z</time>
      </trkpt>
      <trkpt lat="42.752112" lon="0.76232">
        <ele>963.6</ele>
        <time>1970-01-01T01:10:45.000Z</time>
      </trkpt>
      <trkpt lat="42.752237" lon="0.762282">
        <ele>964.6</ele>
        <time>1970-01-01T01:10:50.000Z</time>
      </trkpt>
      <trkpt lat="42.752365" lon="0.762232">
        <ele>965.4</ele>
        <time>1970-01-01T01:10:55.000Z</time>
      </trkpt>
      <trkpt lat="42.752526" lon="0.762176">
        <ele>966.2</ele>
        <time>1970-01-01T01:11:01.000Z</time>
      </trkpt>
      <trkpt lat="42.752647" lon="0.762155">
        <ele>967.2</ele>
        <time>1970-01-01T01:11:06.000Z</time>
      </trkpt>
      <trkpt lat="42.752742" lon="0.762133">
        <ele>968</ele>
        <time>1970-01-01T01:11:10.000Z</time>
      </trkpt>
      <trkpt lat="42.752845" lon="0.762079">
        <ele>968.6</ele>
        <time>1970-01-01T01:11:15.000Z</time>
      </trkpt>
      <trkpt lat="42.752929" lon="0.762059">
        <ele>969.8</ele>
        <time>1970-01-01T01:11:19.000Z</time>
      </trkpt>
      <trkpt lat="42.753016" lon="0.762057">
        <ele>970.6</ele>
        <time>1970-01-01T01:11:23.000Z</time>
      </trkpt>
      <trkpt lat="42.753101" lon="0.762095">
        <ele>971.4</ele>
        <time>1970-01-01T01:11:28.000Z</time>
      </trkpt>
      <trkpt lat="42.753122" lon="0.762131">
        <ele>972.2</ele>
        <time>1970-01-01T01:11:30.000Z</time>
      </trkpt>
      <trkpt lat="42.753171" lon="0.762209">
        <ele>972.8</ele>
        <time>1970-01-01T01:11:34.000Z</time>
      </trkpt>
      <trkpt lat="42.753238" lon="0.762322">
        <ele>973.4</ele>
        <time>1970-01-01T01:11:40.000Z</time>
      </trkpt>
      <trkpt lat="42.75331" lon="0.762458">
        <ele>974</ele>
        <time>1970-01-01T01:11:45.000Z</time>
      </trkpt>
      <trkpt lat="42.753392" lon="0.76256">
        <ele>974.8</ele>
        <time>1970-01-01T01:11:49.000Z</time>
      </trkpt>
      <trkpt lat="42.753472" lon="0.762667">
        <ele>975.6</ele>
        <time>1970-01-01T01:11:53.000Z</time>
      </trkpt>
      <trkpt lat="42.753531" lon="0.762769">
        <ele>976.2</ele>
        <time>1970-01-01T01:11:57.000Z</time>
      </trkpt>
      <trkpt lat="42.753602" lon="0.762901">
        <ele>977</ele>
        <time>1970-01-01T01:12:02.000Z</time>
      </trkpt>
      <trkpt lat="42.753657" lon="0.763016">
        <ele>978</ele>
        <time>1970-01-01T01:12:06.000Z</time>
      </trkpt>
      <trkpt lat="42.753689" lon="0.763104">
        <ele>978.6</ele>
        <time>1970-01-01T01:12:09.000Z</time>
      </trkpt>
      <trkpt lat="42.75373" lon="0.76325">
        <ele>979.2</ele>
        <time>1970-01-01T01:12:14.000Z</time>
      </trkpt>
      <trkpt lat="42.75378" lon="0.763353">
        <ele>979.8</ele>
        <time>1970-01-01T01:12:18.000Z</time>
      </trkpt>
      <trkpt lat="42.753827" lon="0.763459">
        <ele>980.6</ele>
        <time>1970-01-01T01:12:22.000Z</time>
      </trkpt>
      <trkpt lat="42.753869" lon="0.763532">
        <ele>981.4</ele>
        <time>1970-01-01T01:12:25.000Z</time>
      </trkpt>
      <trkpt lat="42.753929" lon="0.763637">
        <ele>982.2</ele>
        <time>1970-01-01T01:12:29.000Z</time>
      </trkpt>
      <trkpt lat="42.753967" lon="0.763679">
        <ele>983.2</ele>
        <time>1970-01-01T01:12:31.000Z</time>
      </trkpt>
      <trkpt lat="42.754031" lon="0.763742">
        <ele>983.8</ele>
        <time>1970-01-01T01:12:34.000Z</time>
      </trkpt>
      <trkpt lat="42.754103" lon="0.763821">
        <ele>984.8</ele>
        <time>1970-01-01T01:12:38.000Z</time>
      </trkpt>
      <trkpt lat="42.754166" lon="0.763937">
        <ele>985.6</ele>
        <time>1970-01-01T01:12:42.000Z</time>
      </trkpt>
      <trkpt lat="42.7543" lon="0.764052">
        <ele>986</ele>
        <time>1970-01-01T01:12:48.000Z</time>
      </trkpt>
      <trkpt lat="42.754344" lon="0.764071">
        <ele>986.2</ele>
        <time>1970-01-01T01:12:52.000Z</time>
      </trkpt>
      <trkpt lat="42.754359" lon="0.764073">
        <ele>986.4</ele>
        <time>1970-01-01T01:12:53.000Z</time>
      </trkpt>
      <trkpt lat="42.754428" lon="0.7641">
        <ele>986.8</ele>
        <time>1970-01-01T01:12:57.000Z</time>
      </trkpt>
      <trkpt lat="42.75453" lon="0.764172">
        <ele>985.8</ele>
        <time>1970-01-01T01:13:07.000Z</time>
      </trkpt>
      <trkpt lat="42.754635" lon="0.764201">
        <ele>985.8</ele>
        <time>1970-01-01T01:13:18.000Z</time>
      </trkpt>
      <trkpt lat="42.754701" lon="0.764114">
        <ele>986.4</ele>
        <time>1970-01-01T01:13:24.000Z</time>
      </trkpt>
      <trkpt lat="42.754701" lon="0.764113">
        <ele>986.4</ele>
        <time>1970-01-01T01:13:25.000Z</time>
      </trkpt>
      <trkpt lat="42.754734" lon="0.764094">
        <ele>986.8</ele>
        <time>1970-01-01T01:17:03.000Z</time>
      </trkpt>
      <trkpt lat="42.754782" lon="0.763992">
        <ele>987</ele>
        <time>1970-01-01T01:17:09.000Z</time>
      </trkpt>
      <trkpt lat="42.754486" lon="0.764149">
        <ele>987.2</ele>
        <time>1970-01-01T01:22:38.000Z</time>
      </trkpt>
      <trkpt lat="42.754271" lon="0.764077">
        <ele>987.2</ele>
        <time>1970-01-01T01:22:49.000Z</time>
      </trkpt>
      <trkpt lat="42.754258" lon="0.764167">
        <ele>988.2</ele>
        <time>1970-01-01T01:22:53.000Z</time>
      </trkpt>
      <trkpt lat="42.754258" lon="0.764217">
        <ele>988.8</ele>
        <time>1970-01-01T01:22:55.000Z</time>
      </trkpt>
      <trkpt lat="42.754258" lon="0.764269">
        <ele>989</ele>
        <time>1970-01-01T01:22:57.000Z</time>
      </trkpt>
      <trkpt lat="42.754253" lon="0.764373">
        <ele>989.8</ele>
        <time>1970-01-01T01:23:01.000Z</time>
      </trkpt>
      <trkpt lat="42.754241" lon="0.764486">
        <ele>990.8</ele>
        <time>1970-01-01T01:23:05.000Z</time>
      </trkpt>
      <trkpt lat="42.754242" lon="0.764568">
        <ele>991.6</ele>
        <time>1970-01-01T01:23:08.000Z</time>
      </trkpt>
      <trkpt lat="42.754249" lon="0.764698">
        <ele>992.6</ele>
        <time>1970-01-01T01:23:13.000Z</time>
      </trkpt>
      <trkpt lat="42.754258" lon="0.764776">
        <ele>993.4</ele>
        <time>1970-01-01T01:23:16.000Z</time>
      </trkpt>
      <trkpt lat="42.75428" lon="0.764882">
        <ele>994.2</ele>
        <time>1970-01-01T01:23:20.000Z</time>
      </trkpt>
      <trkpt lat="42.75433" lon="0.765011">
        <ele>995</ele>
        <time>1970-01-01T01:23:25.000Z</time>
      </trkpt>
      <trkpt lat="42.754377" lon="0.765127">
        <ele>995.8</ele>
        <time>1970-01-01T01:23:30.000Z</time>
      </trkpt>
      <trkpt lat="42.754413" lon="0.76522">
        <ele>996.6</ele>
        <time>1970-01-01T01:23:34.000Z</time>
      </trkpt>
      <trkpt lat="42.754439" lon="0.765291">
        <ele>997.2</ele>
        <time>1970-01-01T01:23:37.000Z</time>
      </trkpt>
      <trkpt lat="42.754469" lon="0.765392">
        <ele>997.8</ele>
        <time>1970-01-01T01:23:41.000Z</time>
      </trkpt>
      <trkpt lat="42.754501" lon="0.765526">
        <ele>998.8</ele>
        <time>1970-01-01T01:23:46.000Z</time>
      </trkpt>
      <trkpt lat="42.754526" lon="0.765632">
        <ele>999.4</ele>
        <time>1970-01-01T01:23:50.000Z</time>
      </trkpt>
      <trkpt lat="42.754551" lon="0.765735">
        <ele>1000.2</ele>
        <time>1970-01-01T01:23:54.000Z</time>
      </trkpt>
      <trkpt lat="42.754562" lon="0.765809">
        <ele>1001</ele>
        <time>1970-01-01T01:23:57.000Z</time>
      </trkpt>
      <trkpt lat="42.75458" lon="0.76591">
        <ele>1001.8</ele>
        <time>1970-01-01T01:24:01.000Z</time>
      </trkpt>
      <trkpt lat="42.754599" lon="0.76601">
        <ele>1002.6</ele>
        <time>1970-01-01T01:24:05.000Z</time>
      </trkpt>
      <trkpt lat="42.754637" lon="0.766165">
        <ele>1003.4</ele>
        <time>1970-01-01T01:24:11.000Z</time>
      </trkpt>
      <trkpt lat="42.754668" lon="0.766248">
        <ele>1004</ele>
        <time>1970-01-01T01:24:14.000Z</time>
      </trkpt>
      <trkpt lat="42.75471" lon="0.766352">
        <ele>1004.6</ele>
        <time>1970-01-01T01:24:18.000Z</time>
      </trkpt>
      <trkpt lat="42.754761" lon="0.766478">
        <ele>1005.4</ele>
        <time>1970-01-01T01:24:23.000Z</time>
      </trkpt>
      <trkpt lat="42.754799" lon="0.766599">
        <ele>1006.2</ele>
        <time>1970-01-01T01:24:28.000Z</time>
      </trkpt>
      <trkpt lat="42.754815" lon="0.766732">
        <ele>1007.2</ele>
        <time>1970-01-01T01:24:33.000Z</time>
      </trkpt>
      <trkpt lat="42.754817" lon="0.766851">
        <ele>1008</ele>
        <time>1970-01-01T01:24:37.000Z</time>
      </trkpt>
      <trkpt lat="42.754831" lon="0.767015">
        <ele>1008.6</ele>
        <time>1970-01-01T01:24:42.000Z</time>
      </trkpt>
      <trkpt lat="42.754858" lon="0.767141">
        <ele>1009.2</ele>
        <time>1970-01-01T01:24:46.000Z</time>
      </trkpt>
      <trkpt lat="42.754906" lon="0.767247">
        <ele>1010.2</ele>
        <time>1970-01-01T01:24:50.000Z</time>
      </trkpt>
      <trkpt lat="42.754982" lon="0.767393">
        <ele>1011</ele>
        <time>1970-01-01T01:24:55.000Z</time>
      </trkpt>
      <trkpt lat="42.75505" lon="0.767487">
        <ele>1011.8</ele>
        <time>1970-01-01T01:24:59.000Z</time>
      </trkpt>
      <trkpt lat="42.755171" lon="0.767626">
        <ele>1012.2</ele>
        <time>1970-01-01T01:25:06.000Z</time>
      </trkpt>
      <trkpt lat="42.755299" lon="0.767743">
        <ele>1013</ele>
        <time>1970-01-01T01:25:12.000Z</time>
      </trkpt>
      <trkpt lat="42.755441" lon="0.767837">
        <ele>1013.6</ele>
        <time>1970-01-01T01:25:18.000Z</time>
      </trkpt>
      <trkpt lat="42.755594" lon="0.767893">
        <ele>1014.4</ele>
        <time>1970-01-01T01:25:24.000Z</time>
      </trkpt>
      <trkpt lat="42.75575" lon="0.767976">
        <ele>1014.8</ele>
        <time>1970-01-01T01:25:31.000Z</time>
      </trkpt>
      <trkpt lat="42.755831" lon="0.768099">
        <ele>1015.6</ele>
        <time>1970-01-01T01:25:35.000Z</time>
      </trkpt>
      <trkpt lat="42.755897" lon="0.768216">
        <ele>1016.4</ele>
        <time>1970-01-01T01:25:39.000Z</time>
      </trkpt>
      <trkpt lat="42.755954" lon="0.768313">
        <ele>1017.2</ele>
        <time>1970-01-01T01:25:43.000Z</time>
      </trkpt>
      <trkpt lat="42.755999" lon="0.768391">
        <ele>1018</ele>
        <time>1970-01-01T01:25:46.000Z</time>
      </trkpt>
      <trkpt lat="42.756085" lon="0.768542">
        <ele>1018.8</ele>
        <time>1970-01-01T01:25:52.000Z</time>
      </trkpt>
      <trkpt lat="42.756127" lon="0.768676">
        <ele>1019.4</ele>
        <time>1970-01-01T01:25:56.000Z</time>
      </trkpt>
      <trkpt lat="42.756214" lon="0.768872">
        <ele>1020.4</ele>
        <time>1970-01-01T01:26:03.000Z</time>
      </trkpt>
      <trkpt lat="42.756268" lon="0.768951">
        <ele>1020.6</ele>
        <time>1970-01-01T01:26:07.000Z</time>
      </trkpt>
      <trkpt lat="42.756302" lon="0.768986">
        <ele>1021.2</ele>
        <time>1970-01-01T01:26:09.000Z</time>
      </trkpt>
      <trkpt lat="42.756351" lon="0.76904">
        <ele>1022.2</ele>
        <time>1970-01-01T01:26:12.000Z</time>
      </trkpt>
      <trkpt lat="42.756464" lon="0.769162">
        <ele>1023</ele>
        <time>1970-01-01T01:26:17.000Z</time>
      </trkpt>
      <trkpt lat="42.756544" lon="0.769256">
        <ele>1023.8</ele>
        <time>1970-01-01T01:26:21.000Z</time>
      </trkpt>
      <trkpt lat="42.756617" lon="0.769379">
        <ele>1024.8</ele>
        <time>1970-01-01T01:26:26.000Z</time>
      </trkpt>
      <trkpt lat="42.756663" lon="0.769457">
        <ele>1025.6</ele>
        <time>1970-01-01T01:26:29.000Z</time>
      </trkpt>
      <trkpt lat="42.756743" lon="0.76959">
        <ele>1026.8</ele>
        <time>1970-01-01T01:26:34.000Z</time>
      </trkpt>
      <trkpt lat="42.756794" lon="0.769682">
        <ele>1027.6</ele>
        <time>1970-01-01T01:26:37.000Z</time>
      </trkpt>
      <trkpt lat="42.756846" lon="0.769763">
        <ele>1028.6</ele>
        <time>1970-01-01T01:26:40.000Z</time>
      </trkpt>
      <trkpt lat="42.756919" lon="0.769896">
        <ele>1029.4</ele>
        <time>1970-01-01T01:26:44.000Z</time>
      </trkpt>
      <trkpt lat="42.756975" lon="0.769987">
        <ele>1030.4</ele>
        <time>1970-01-01T01:26:47.000Z</time>
      </trkpt>
      <trkpt lat="42.757038" lon="0.770095">
        <ele>1031.2</ele>
        <time>1970-01-01T01:26:51.000Z</time>
      </trkpt>
      <trkpt lat="42.757083" lon="0.770191">
        <ele>1032</ele>
        <time>1970-01-01T01:26:54.000Z</time>
      </trkpt>
      <trkpt lat="42.75712" lon="0.770301">
        <ele>1033</ele>
        <time>1970-01-01T01:26:57.000Z</time>
      </trkpt>
      <trkpt lat="42.757156" lon="0.770479">
        <ele>1034</ele>
        <time>1970-01-01T01:27:02.000Z</time>
      </trkpt>
      <trkpt lat="42.757185" lon="0.770623">
        <ele>1035</ele>
        <time>1970-01-01T01:27:06.000Z</time>
      </trkpt>
      <trkpt lat="42.757227" lon="0.770804">
        <ele>1035.8</ele>
        <time>1970-01-01T01:27:11.000Z</time>
      </trkpt>
      <trkpt lat="42.757289" lon="0.771037">
        <ele>1036.4</ele>
        <time>1970-01-01T01:27:17.000Z</time>
      </trkpt>
      <trkpt lat="42.757389" lon="0.77123">
        <ele>1037</ele>
        <time>1970-01-01T01:27:23.000Z</time>
      </trkpt>
      <trkpt lat="42.757575" lon="0.771467">
        <ele>1038</ele>
        <time>1970-01-01T01:27:33.000Z</time>
      </trkpt>
      <trkpt lat="42.757627" lon="0.771545">
        <ele>1038.8</ele>
        <time>1970-01-01T01:27:36.000Z</time>
      </trkpt>
      <trkpt lat="42.75768" lon="0.771648">
        <ele>1039.6</ele>
        <time>1970-01-01T01:27:40.000Z</time>
      </trkpt>
      <trkpt lat="42.757714" lon="0.771755">
        <ele>1040.6</ele>
        <time>1970-01-01T01:27:44.000Z</time>
      </trkpt>
      <trkpt lat="42.757759" lon="0.771843">
        <ele>1042</ele>
        <time>1970-01-01T01:27:48.000Z</time>
      </trkpt>
      <trkpt lat="42.757795" lon="0.771917">
        <ele>1042.8</ele>
        <time>1970-01-01T01:27:51.000Z</time>
      </trkpt>
      <trkpt lat="42.757851" lon="0.772004">
        <ele>1043.8</ele>
        <time>1970-01-01T01:27:55.000Z</time>
      </trkpt>
      <trkpt lat="42.757911" lon="0.772063">
        <ele>1044.8</ele>
        <time>1970-01-01T01:27:58.000Z</time>
      </trkpt>
      <trkpt lat="42.757945" lon="0.772092">
        <ele>1045.4</ele>
        <time>1970-01-01T01:28:00.000Z</time>
      </trkpt>
      <trkpt lat="42.757986" lon="0.772137">
        <ele>1045.8</ele>
        <time>1970-01-01T01:28:02.000Z</time>
      </trkpt>
      <trkpt lat="42.758031" lon="0.772229">
        <ele>1046.6</ele>
        <time>1970-01-01T01:28:07.000Z</time>
      </trkpt>
      <trkpt lat="42.758127" lon="0.772327">
        <ele>1047.6</ele>
        <time>1970-01-01T01:28:14.000Z</time>
      </trkpt>
      <trkpt lat="42.758142" lon="0.772346">
        <ele>1048.4</ele>
        <time>1970-01-01T01:28:21.000Z</time>
      </trkpt>
      <trkpt lat="42.758295" lon="0.772444">
        <ele>1049.4</ele>
        <time>1970-01-01T01:28:28.000Z</time>
      </trkpt>
      <trkpt lat="42.758482" lon="0.772454">
        <ele>1050.4</ele>
        <time>1970-01-01T01:28:35.000Z</time>
      </trkpt>
      <trkpt lat="42.758659" lon="0.772507">
        <ele>1051.4</ele>
        <time>1970-01-01T01:28:41.000Z</time>
      </trkpt>
      <trkpt lat="42.758861" lon="0.772514">
        <ele>1052.4</ele>
        <time>1970-01-01T01:28:49.000Z</time>
      </trkpt>
      <trkpt lat="42.759091" lon="0.772504">
        <ele>1053.4</ele>
        <time>1970-01-01T01:28:56.000Z</time>
      </trkpt>
      <trkpt lat="42.759306" lon="0.772551">
        <ele>1054.8</ele>
        <time>1970-01-01T01:29:03.000Z</time>
      </trkpt>
      <trkpt lat="42.759466" lon="0.772632">
        <ele>1056</ele>
        <time>1970-01-01T01:29:09.000Z</time>
      </trkpt>
      <trkpt lat="42.759773" lon="0.772563">
        <ele>1057.6</ele>
        <time>1970-01-01T01:29:23.000Z</time>
      </trkpt>
      <trkpt lat="42.759817" lon="0.772494">
        <ele>1058</ele>
        <time>1970-01-01T01:29:29.000Z</time>
      </trkpt>
      <trkpt lat="42.759658" lon="0.772226">
        <ele>1058.8</ele>
        <time>1970-01-01T01:29:42.000Z</time>
      </trkpt>
      <trkpt lat="42.759669" lon="0.772103">
        <ele>1059.4</ele>
        <time>1970-01-01T01:29:45.000Z</time>
      </trkpt>
      <trkpt lat="42.759775" lon="0.772037">
        <ele>1060.8</ele>
        <time>1970-01-01T01:29:50.000Z</time>
      </trkpt>
      <trkpt lat="42.75982" lon="0.772056">
        <ele>1061.2</ele>
        <time>1970-01-01T01:29:52.000Z</time>
      </trkpt>
      <trkpt lat="42.759885" lon="0.772092">
        <ele>1062.2</ele>
        <time>1970-01-01T01:29:55.000Z</time>
      </trkpt>
      <trkpt lat="42.75998" lon="0.772144">
        <ele>1063.4</ele>
        <time>1970-01-01T01:30:00.000Z</time>
      </trkpt>
      <trkpt lat="42.760076" lon="0.772177">
        <ele>1064.6</ele>
        <time>1970-01-01T01:30:05.000Z</time>
      </trkpt>
      <trkpt lat="42.760148" lon="0.772202">
        <ele>1066</ele>
        <time>1970-01-01T01:30:09.000Z</time>
      </trkpt>
      <trkpt lat="42.760265" lon="0.77228">
        <ele>1067.6</ele>
        <time>1970-01-01T01:30:15.000Z</time>
      </trkpt>
      <trkpt lat="42.760323" lon="0.772341">
        <ele>1068.8</ele>
        <time>1970-01-01T01:30:18.000Z</time>
      </trkpt>
      <trkpt lat="42.760426" lon="0.772461">
        <ele>1070</ele>
        <time>1970-01-01T01:30:24.000Z</time>
      </trkpt>
      <trkpt lat="42.760483" lon="0.772543">
        <ele>1071.2</ele>
        <time>1970-01-01T01:30:28.000Z</time>
      </trkpt>
      <trkpt lat="42.760549" lon="0.772701">
        <ele>1072.8</ele>
        <time>1970-01-01T01:30:35.000Z</time>
      </trkpt>
      <trkpt lat="42.760616" lon="0.772819">
        <ele>1074.2</ele>
        <time>1970-01-01T01:30:40.000Z</time>
      </trkpt>
      <trkpt lat="42.760704" lon="0.772891">
        <ele>1075.4</ele>
        <time>1970-01-01T01:30:45.000Z</time>
      </trkpt>
      <trkpt lat="42.760785" lon="0.772757">
        <ele>1076.8</ele>
        <time>1970-01-01T01:30:52.000Z</time>
      </trkpt>
      <trkpt lat="42.760725" lon="0.772599">
        <ele>1078.4</ele>
        <time>1970-01-01T01:30:58.000Z</time>
      </trkpt>
      <trkpt lat="42.760643" lon="0.772446">
        <ele>1079.8</ele>
        <time>1970-01-01T01:31:05.000Z</time>
      </trkpt>
      <trkpt lat="42.760571" lon="0.772294">
        <ele>1081.2</ele>
        <time>1970-01-01T01:31:12.000Z</time>
      </trkpt>
      <trkpt lat="42.760515" lon="0.772175">
        <ele>1082.6</ele>
        <time>1970-01-01T01:31:17.000Z</time>
      </trkpt>
      <trkpt lat="42.760426" lon="0.772004">
        <ele>1084</ele>
        <time>1970-01-01T01:31:24.000Z</time>
      </trkpt>
      <trkpt lat="42.760351" lon="0.771894">
        <ele>1085.2</ele>
        <time>1970-01-01T01:31:29.000Z</time>
      </trkpt>
      <trkpt lat="42.760228" lon="0.77176">
        <ele>1086.8</ele>
        <time>1970-01-01T01:31:36.000Z</time>
      </trkpt>
      <trkpt lat="42.76013" lon="0.771701">
        <ele>1088</ele>
        <time>1970-01-01T01:31:41.000Z</time>
      </trkpt>
      <trkpt lat="42.760122" lon="0.771678">
        <ele>1088</ele>
        <time>1970-01-01T01:31:42.000Z</time>
      </trkpt>
      <trkpt lat="42.760173" lon="0.771586">
        <ele>1089.4</ele>
        <time>1970-01-01T01:31:47.000Z</time>
      </trkpt>
      <trkpt lat="42.760215" lon="0.771602">
        <ele>1089.8</ele>
        <time>1970-01-01T01:31:49.000Z</time>
      </trkpt>
      <trkpt lat="42.760292" lon="0.771658">
        <ele>1090.8</ele>
        <time>1970-01-01T01:31:53.000Z</time>
      </trkpt>
      <trkpt lat="42.760389" lon="0.771738">
        <ele>1092.2</ele>
        <time>1970-01-01T01:31:58.000Z</time>
      </trkpt>
      <trkpt lat="42.760497" lon="0.771881">
        <ele>1093.6</ele>
        <time>1970-01-01T01:32:05.000Z</time>
      </trkpt>
      <trkpt lat="42.760607" lon="0.77199">
        <ele>1095</ele>
        <time>1970-01-01T01:32:12.000Z</time>
      </trkpt>
      <trkpt lat="42.760623" lon="0.771998">
        <ele>1095</ele>
        <time>1970-01-01T01:32:13.000Z</time>
      </trkpt>
      <trkpt lat="42.760708" lon="0.772062">
        <ele>1096.2</ele>
        <time>1970-01-01T01:32:18.000Z</time>
      </trkpt>
      <trkpt lat="42.760811" lon="0.772152">
        <ele>1097.8</ele>
        <time>1970-01-01T01:32:24.000Z</time>
      </trkpt>
      <trkpt lat="42.760895" lon="0.772223">
        <ele>1099.2</ele>
        <time>1970-01-01T01:32:29.000Z</time>
      </trkpt>
      <trkpt lat="42.760985" lon="0.772314">
        <ele>1100.6</ele>
        <time>1970-01-01T01:32:35.000Z</time>
      </trkpt>
      <trkpt lat="42.76105" lon="0.772366">
        <ele>1102</ele>
        <time>1970-01-01T01:32:39.000Z</time>
      </trkpt>
      <trkpt lat="42.76114" lon="0.772384">
        <ele>1103.2</ele>
        <time>1970-01-01T01:32:44.000Z</time>
      </trkpt>
      <trkpt lat="42.761258" lon="0.772404">
        <ele>1104.4</ele>
        <time>1970-01-01T01:32:51.000Z</time>
      </trkpt>
      <trkpt lat="42.761369" lon="0.772414">
        <ele>1105.8</ele>
        <time>1970-01-01T01:32:58.000Z</time>
      </trkpt>
      <trkpt lat="42.761479" lon="0.772487">
        <ele>1107.2</ele>
        <time>1970-01-01T01:33:05.000Z</time>
      </trkpt>
      <trkpt lat="42.761583" lon="0.772589">
        <ele>1108.8</ele>
        <time>1970-01-01T01:33:12.000Z</time>
      </trkpt>
      <trkpt lat="42.761689" lon="0.772661">
        <ele>1110</ele>
        <time>1970-01-01T01:33:19.000Z</time>
      </trkpt>
      <trkpt lat="42.761773" lon="0.772721">
        <ele>1111.4</ele>
        <time>1970-01-01T01:33:24.000Z</time>
      </trkpt>
      <trkpt lat="42.761868" lon="0.772788">
        <ele>1112.8</ele>
        <time>1970-01-01T01:33:30.000Z</time>
      </trkpt>
      <trkpt lat="42.761973" lon="0.772888">
        <ele>1114</ele>
        <time>1970-01-01T01:33:37.000Z</time>
      </trkpt>
      <trkpt lat="42.762028" lon="0.772956">
        <ele>1115.6</ele>
        <time>1970-01-01T01:33:41.000Z</time>
      </trkpt>
      <trkpt lat="42.762103" lon="0.773044">
        <ele>1116.8</ele>
        <time>1970-01-01T01:33:47.000Z</time>
      </trkpt>
      <trkpt lat="42.762186" lon="0.773134">
        <ele>1118.2</ele>
        <time>1970-01-01T01:33:53.000Z</time>
      </trkpt>
      <trkpt lat="42.762256" lon="0.773212">
        <ele>1119.6</ele>
        <time>1970-01-01T01:33:58.000Z</time>
      </trkpt>
      <trkpt lat="42.762361" lon="0.773284">
        <ele>1121</ele>
        <time>1970-01-01T01:34:05.000Z</time>
      </trkpt>
      <trkpt lat="42.762438" lon="0.773376">
        <ele>1122.2</ele>
        <time>1970-01-01T01:34:11.000Z</time>
      </trkpt>
      <trkpt lat="42.762498" lon="0.773465">
        <ele>1123.4</ele>
        <time>1970-01-01T01:34:16.000Z</time>
      </trkpt>
      <trkpt lat="42.762569" lon="0.773565">
        <ele>1124.8</ele>
        <time>1970-01-01T01:34:21.000Z</time>
      </trkpt>
      <trkpt lat="42.762685" lon="0.773652">
        <ele>1126</ele>
        <time>1970-01-01T01:34:28.000Z</time>
      </trkpt>
      <trkpt lat="42.762772" lon="0.773728">
        <ele>1127.4</ele>
        <time>1970-01-01T01:34:33.000Z</time>
      </trkpt>
      <trkpt lat="42.762835" lon="0.773733">
        <ele>1128</ele>
        <time>1970-01-01T01:34:37.000Z</time>
      </trkpt>
      <trkpt lat="42.762855" lon="0.773697">
        <ele>1128.8</ele>
        <time>1970-01-01T01:34:39.000Z</time>
      </trkpt>
      <trkpt lat="42.762759" lon="0.77354">
        <ele>1129.8</ele>
        <time>1970-01-01T01:34:56.000Z</time>
      </trkpt>
      <trkpt lat="42.76274" lon="0.773513">
        <ele>1130.2</ele>
        <time>1970-01-01T01:34:59.000Z</time>
      </trkpt>
      <trkpt lat="42.762712" lon="0.773463">
        <ele>1130.8</ele>
        <time>1970-01-01T01:35:03.000Z</time>
      </trkpt>
      <trkpt lat="42.762675" lon="0.773433">
        <ele>1131</ele>
        <time>1970-01-01T01:35:07.000Z</time>
      </trkpt>
      <trkpt lat="42.762579" lon="0.773297">
        <ele>1132.2</ele>
        <time>1970-01-01T01:35:19.000Z</time>
      </trkpt>
      <trkpt lat="42.762506" lon="0.773163">
        <ele>1133.8</ele>
        <time>1970-01-01T01:35:29.000Z</time>
      </trkpt>
      <trkpt lat="42.762459" lon="0.773023">
        <ele>1135.4</ele>
        <time>1970-01-01T01:35:39.000Z</time>
      </trkpt>
      <trkpt lat="42.762382" lon="0.772734">
        <ele>1137</ele>
        <time>1970-01-01T01:35:56.000Z</time>
      </trkpt>
      <trkpt lat="42.762273" lon="0.772448">
        <ele>1138.8</ele>
        <time>1970-01-01T01:36:09.000Z</time>
      </trkpt>
      <trkpt lat="42.762136" lon="0.77229">
        <ele>1140</ele>
        <time>1970-01-01T01:36:17.000Z</time>
      </trkpt>
      <trkpt lat="42.762007" lon="0.772176">
        <ele>1141.4</ele>
        <time>1970-01-01T01:36:24.000Z</time>
      </trkpt>
      <trkpt lat="42.761886" lon="0.772107">
        <ele>1142.8</ele>
        <time>1970-01-01T01:36:30.000Z</time>
      </trkpt>
      <trkpt lat="42.761742" lon="0.771889">
        <ele>1144.4</ele>
        <time>1970-01-01T01:36:40.000Z</time>
      </trkpt>
      <trkpt lat="42.761392" lon="0.771385">
        <ele>1146</ele>
        <time>1970-01-01T01:36:58.000Z</time>
      </trkpt>
      <trkpt lat="42.761194" lon="0.771177">
        <ele>1147.6</ele>
        <time>1970-01-01T01:37:07.000Z</time>
      </trkpt>
      <trkpt lat="42.761099" lon="0.771067">
        <ele>1148.8</ele>
        <time>1970-01-01T01:37:12.000Z</time>
      </trkpt>
      <trkpt lat="42.76099" lon="0.770895">
        <ele>1150.2</ele>
        <time>1970-01-01T01:37:19.000Z</time>
      </trkpt>
      <trkpt lat="42.760875" lon="0.770732">
        <ele>1151.6</ele>
        <time>1970-01-01T01:37:26.000Z</time>
      </trkpt>
      <trkpt lat="42.760729" lon="0.770633">
        <ele>1153</ele>
        <time>1970-01-01T01:37:33.000Z</time>
      </trkpt>
      <trkpt lat="42.760557" lon="0.770562">
        <ele>1154.4</ele>
        <time>1970-01-01T01:37:41.000Z</time>
      </trkpt>
      <trkpt lat="42.7604" lon="0.770534">
        <ele>1155.8</ele>
        <time>1970-01-01T01:37:48.000Z</time>
      </trkpt>
      <trkpt lat="42.760223" lon="0.770514">
        <ele>1157.4</ele>
        <time>1970-01-01T01:37:55.000Z</time>
      </trkpt>
      <trkpt lat="42.760111" lon="0.770514">
        <ele>1158.4</ele>
        <time>1970-01-01T01:38:00.000Z</time>
      </trkpt>
      <trkpt lat="42.759985" lon="0.770501">
        <ele>1159.8</ele>
        <time>1970-01-01T01:38:06.000Z</time>
      </trkpt>
      <trkpt lat="42.759887" lon="0.770467">
        <ele>1161.2</ele>
        <time>1970-01-01T01:38:11.000Z</time>
      </trkpt>
      <trkpt lat="42.759755" lon="0.770386">
        <ele>1162.6</ele>
        <time>1970-01-01T01:38:18.000Z</time>
      </trkpt>
      <trkpt lat="42.759657" lon="0.770259">
        <ele>1164</ele>
        <time>1970-01-01T01:38:25.000Z</time>
      </trkpt>
      <trkpt lat="42.759569" lon="0.770119">
        <ele>1165.4</ele>
        <time>1970-01-01T01:38:32.000Z</time>
      </trkpt>
      <trkpt lat="42.759499" lon="0.769983">
        <ele>1166.6</ele>
        <time>1970-01-01T01:38:38.000Z</time>
      </trkpt>
      <trkpt lat="42.759454" lon="0.769828">
        <ele>1168</ele>
        <time>1970-01-01T01:38:44.000Z</time>
      </trkpt>
      <trkpt lat="42.759377" lon="0.769656">
        <ele>1169.6</ele>
        <time>1970-01-01T01:38:51.000Z</time>
      </trkpt>
      <trkpt lat="42.759306" lon="0.769447">
        <ele>1171</ele>
        <time>1970-01-01T01:38:59.000Z</time>
      </trkpt>
      <trkpt lat="42.759223" lon="0.769206">
        <ele>1172.6</ele>
        <time>1970-01-01T01:39:08.000Z</time>
      </trkpt>
      <trkpt lat="42.759124" lon="0.768747">
        <ele>1174.2</ele>
        <time>1970-01-01T01:39:22.000Z</time>
      </trkpt>
      <trkpt lat="42.75875" lon="0.768275">
        <ele>1175.8</ele>
        <time>1970-01-01T01:39:40.000Z</time>
      </trkpt>
      <trkpt lat="42.758652" lon="0.767818">
        <ele>1177.6</ele>
        <time>1970-01-01T01:39:53.000Z</time>
      </trkpt>
      <trkpt lat="42.758654" lon="0.767671">
        <ele>1178.6</ele>
        <time>1970-01-01T01:39:57.000Z</time>
      </trkpt>
      <trkpt lat="42.758633" lon="0.767495">
        <ele>1180</ele>
        <time>1970-01-01T01:40:02.000Z</time>
      </trkpt>
      <trkpt lat="42.75861" lon="0.767331">
        <ele>1181.4</ele>
        <time>1970-01-01T01:40:07.000Z</time>
      </trkpt>
      <trkpt lat="42.758585" lon="0.767184">
        <ele>1182.8</ele>
        <time>1970-01-01T01:40:12.000Z</time>
      </trkpt>
      <trkpt lat="42.75856" lon="0.767047">
        <ele>1184</ele>
        <time>1970-01-01T01:40:17.000Z</time>
      </trkpt>
      <trkpt lat="42.758539" lon="0.766935">
        <ele>1185.4</ele>
        <time>1970-01-01T01:40:21.000Z</time>
      </trkpt>
      <trkpt lat="42.758511" lon="0.766795">
        <ele>1186.8</ele>
        <time>1970-01-01T01:40:26.000Z</time>
      </trkpt>
      <trkpt lat="42.758505" lon="0.766646">
        <ele>1188</ele>
        <time>1970-01-01T01:40:31.000Z</time>
      </trkpt>
      <trkpt lat="42.758532" lon="0.766453">
        <ele>1189.2</ele>
        <time>1970-01-01T01:40:38.000Z</time>
      </trkpt>
      <trkpt lat="42.758563" lon="0.766309">
        <ele>1190.4</ele>
        <time>1970-01-01T01:40:44.000Z</time>
      </trkpt>
      <trkpt lat="42.758595" lon="0.766162">
        <ele>1191.8</ele>
        <time>1970-01-01T01:40:50.000Z</time>
      </trkpt>
      <trkpt lat="42.758646" lon="0.765999">
        <ele>1193.2</ele>
        <time>1970-01-01T01:40:57.000Z</time>
      </trkpt>
      <trkpt lat="42.758671" lon="0.765907">
        <ele>1194.4</ele>
        <time>1970-01-01T01:41:01.000Z</time>
      </trkpt>
      <trkpt lat="42.758694" lon="0.765787">
        <ele>1195.8</ele>
        <time>1970-01-01T01:41:06.000Z</time>
      </trkpt>
      <trkpt lat="42.758702" lon="0.765688">
        <ele>1197.2</ele>
        <time>1970-01-01T01:41:10.000Z</time>
      </trkpt>
      <trkpt lat="42.758698" lon="0.765563">
        <ele>1198.4</ele>
        <time>1970-01-01T01:41:15.000Z</time>
      </trkpt>
      <trkpt lat="42.758679" lon="0.76544">
        <ele>1199.6</ele>
        <time>1970-01-01T01:41:21.000Z</time>
      </trkpt>
      <trkpt lat="42.758661" lon="0.765292">
        <ele>1201</ele>
        <time>1970-01-01T01:41:27.000Z</time>
      </trkpt>
      <trkpt lat="42.758635" lon="0.765107">
        <ele>1202.2</ele>
        <time>1970-01-01T01:41:34.000Z</time>
      </trkpt>
      <trkpt lat="42.758585" lon="0.764911">
        <ele>1203.8</ele>
        <time>1970-01-01T01:41:42.000Z</time>
      </trkpt>
      <trkpt lat="42.758586" lon="0.764783">
        <ele>1205</ele>
        <time>1970-01-01T01:41:47.000Z</time>
      </trkpt>
      <trkpt lat="42.758649" lon="0.764643">
        <ele>1206.4</ele>
        <time>1970-01-01T01:41:53.000Z</time>
      </trkpt>
      <trkpt lat="42.758755" lon="0.764499">
        <ele>1207.8</ele>
        <time>1970-01-01T01:42:01.000Z</time>
      </trkpt>
      <trkpt lat="42.758976" lon="0.764271">
        <ele>1209.2</ele>
        <time>1970-01-01T01:42:13.000Z</time>
      </trkpt>
      <trkpt lat="42.758986" lon="0.764211">
        <ele>1209.6</ele>
        <time>1970-01-01T01:42:15.000Z</time>
      </trkpt>
      <trkpt lat="42.758817" lon="0.764042">
        <ele>1210.2</ele>
        <time>1970-01-01T01:42:23.000Z</time>
      </trkpt>
      <trkpt lat="42.758685" lon="0.76401">
        <ele>1210.8</ele>
        <time>1970-01-01T01:42:27.000Z</time>
      </trkpt>
      <trkpt lat="42.758501" lon="0.763967">
        <ele>1212</ele>
        <time>1970-01-01T01:42:33.000Z</time>
      </trkpt>
      <trkpt lat="42.758355" lon="0.763929">
        <ele>1213.4</ele>
        <time>1970-01-01T01:42:38.000Z</time>
      </trkpt>
      <trkpt lat="42.758245" lon="0.763907">
        <ele>1214.4</ele>
        <time>1970-01-01T01:42:42.000Z</time>
      </trkpt>
      <trkpt lat="42.758149" lon="0.763892">
        <ele>1215.8</ele>
        <time>1970-01-01T01:42:46.000Z</time>
      </trkpt>
      <trkpt lat="42.758064" lon="0.763855">
        <ele>1217</ele>
        <time>1970-01-01T01:42:50.000Z</time>
      </trkpt>
      <trkpt lat="42.7579" lon="0.763691">
        <ele>1218.4</ele>
        <time>1970-01-01T01:42:58.000Z</time>
      </trkpt>
      <trkpt lat="42.757814" lon="0.763565">
        <ele>1219.6</ele>
        <time>1970-01-01T01:43:03.000Z</time>
      </trkpt>
      <trkpt lat="42.757676" lon="0.763327">
        <ele>1221.2</ele>
        <time>1970-01-01T01:43:12.000Z</time>
      </trkpt>
      <trkpt lat="42.75762" lon="0.763072">
        <ele>1222.4</ele>
        <time>1970-01-01T01:43:20.000Z</time>
      </trkpt>
      <trkpt lat="42.757628" lon="0.762881">
        <ele>1223.6</ele>
        <time>1970-01-01T01:43:26.000Z</time>
      </trkpt>
      <trkpt lat="42.757631" lon="0.762725">
        <ele>1225</ele>
        <time>1970-01-01T01:43:31.000Z</time>
      </trkpt>
      <trkpt lat="42.757627" lon="0.762548">
        <ele>1226.4</ele>
        <time>1970-01-01T01:43:37.000Z</time>
      </trkpt>
      <trkpt lat="42.757622" lon="0.762324">
        <ele>1227.6</ele>
        <time>1970-01-01T01:43:44.000Z</time>
      </trkpt>
      <trkpt lat="42.757592" lon="0.762085">
        <ele>1228.8</ele>
        <time>1970-01-01T01:43:52.000Z</time>
      </trkpt>
      <trkpt lat="42.757575" lon="0.761835">
        <ele>1230.4</ele>
        <time>1970-01-01T01:44:00.000Z</time>
      </trkpt>
      <trkpt lat="42.75752" lon="0.761782">
        <ele>1231</ele>
        <time>1970-01-01T01:44:03.000Z</time>
      </trkpt>
      <trkpt lat="42.757478" lon="0.761777">
        <ele>1231.4</ele>
        <time>1970-01-01T01:44:05.000Z</time>
      </trkpt>
      <trkpt lat="42.757346" lon="0.761817">
        <ele>1232.8</ele>
        <time>1970-01-01T01:44:11.000Z</time>
      </trkpt>
      <trkpt lat="42.757103" lon="0.761814">
        <ele>1234.2</ele>
        <time>1970-01-01T01:44:22.000Z</time>
      </trkpt>
      <trkpt lat="42.757015" lon="0.76167">
        <ele>1235.4</ele>
        <time>1970-01-01T01:44:28.000Z</time>
      </trkpt>
      <trkpt lat="42.756948" lon="0.761521">
        <ele>1236.8</ele>
        <time>1970-01-01T01:44:34.000Z</time>
      </trkpt>
      <trkpt lat="42.756872" lon="0.761344">
        <ele>1238.2</ele>
        <time>1970-01-01T01:44:41.000Z</time>
      </trkpt>
      <trkpt lat="42.756769" lon="0.76096">
        <ele>1239.6</ele>
        <time>1970-01-01T01:44:53.000Z</time>
      </trkpt>
      <trkpt lat="42.756626" lon="0.760665">
        <ele>1241</ele>
        <time>1970-01-01T01:45:03.000Z</time>
      </trkpt>
      <trkpt lat="42.756355" lon="0.760522">
        <ele>1242.6</ele>
        <time>1970-01-01T01:45:14.000Z</time>
      </trkpt>
      <trkpt lat="42.756134" lon="0.760509">
        <ele>1243.8</ele>
        <time>1970-01-01T01:45:22.000Z</time>
      </trkpt>
      <trkpt lat="42.755808" lon="0.759988">
        <ele>1245.4</ele>
        <time>1970-01-01T01:45:35.000Z</time>
      </trkpt>
      <trkpt lat="42.755638" lon="0.759612">
        <ele>1246.2</ele>
        <time>1970-01-01T01:45:42.000Z</time>
      </trkpt>
      <trkpt lat="42.75559" lon="0.75934">
        <ele>1246</ele>
        <time>1970-01-01T01:45:46.000Z</time>
      </trkpt>
      <trkpt lat="42.755678" lon="0.758896">
        <ele>1244.8</ele>
        <time>1970-01-01T01:45:52.000Z</time>
      </trkpt>
      <trkpt lat="42.755623" lon="0.758572">
        <ele>1244</ele>
        <time>1970-01-01T01:45:57.000Z</time>
      </trkpt>
      <trkpt lat="42.755326" lon="0.758431">
        <ele>1243.4</ele>
        <time>1970-01-01T01:46:02.000Z</time>
      </trkpt>
      <trkpt lat="42.755134" lon="0.7583">
        <ele>1243.2</ele>
        <time>1970-01-01T01:46:05.000Z</time>
      </trkpt>
      <trkpt lat="42.755083" lon="0.75825">
        <ele>1243</ele>
        <time>1970-01-01T01:46:06.000Z</time>
      </trkpt>
      <trkpt lat="42.755029" lon="0.758218">
        <ele>1243.2</ele>
        <time>1970-01-01T01:46:07.000Z</time>
      </trkpt>
      <trkpt lat="42.754744" lon="0.758355">
        <ele>1242.8</ele>
        <time>1970-01-01T01:46:12.000Z</time>
      </trkpt>
      <trkpt lat="42.754676" lon="0.758369">
        <ele>1242.6</ele>
        <time>1970-01-01T01:46:13.000Z</time>
      </trkpt>
      <trkpt lat="42.754609" lon="0.758374">
        <ele>1242.4</ele>
        <time>1970-01-01T01:46:14.000Z</time>
      </trkpt>
      <trkpt lat="42.754403" lon="0.758104">
        <ele>1241.6</ele>
        <time>1970-01-01T01:46:19.000Z</time>
      </trkpt>
      <trkpt lat="42.754353" lon="0.757943">
        <ele>1241.6</ele>
        <time>1970-01-01T01:46:21.000Z</time>
      </trkpt>
      <trkpt lat="42.754299" lon="0.757782">
        <ele>1241.2</ele>
        <time>1970-01-01T01:46:23.000Z</time>
      </trkpt>
      <trkpt lat="42.753982" lon="0.757613">
        <ele>1240.6</ele>
        <time>1970-01-01T01:46:29.000Z</time>
      </trkpt>
      <trkpt lat="42.753846" lon="0.757621">
        <ele>1240.4</ele>
        <time>1970-01-01T01:46:31.000Z</time>
      </trkpt>
      <trkpt lat="42.75377" lon="0.757626">
        <ele>1240.2</ele>
        <time>1970-01-01T01:46:32.000Z</time>
      </trkpt>
      <trkpt lat="42.753693" lon="0.757611">
        <ele>1239.2</ele>
        <time>1970-01-01T01:46:33.000Z</time>
      </trkpt>
      <trkpt lat="42.753542" lon="0.757516">
        <ele>1238</ele>
        <time>1970-01-01T01:46:35.000Z</time>
      </trkpt>
      <trkpt lat="42.753376" lon="0.757397">
        <ele>1236.8</ele>
        <time>1970-01-01T01:46:37.000Z</time>
      </trkpt>
      <trkpt lat="42.753207" lon="0.757262">
        <ele>1235.8</ele>
        <time>1970-01-01T01:46:39.000Z</time>
      </trkpt>
      <trkpt lat="42.75303" lon="0.75711">
        <ele>1235</ele>
        <time>1970-01-01T01:46:41.000Z</time>
      </trkpt>
      <trkpt lat="42.752935" lon="0.757061">
        <ele>1234.6</ele>
        <time>1970-01-01T01:46:42.000Z</time>
      </trkpt>
      <trkpt lat="42.752741" lon="0.756966">
        <ele>1233.4</ele>
        <time>1970-01-01T01:46:44.000Z</time>
      </trkpt>
      <trkpt lat="42.752443" lon="0.75683">
        <ele>1232.4</ele>
        <time>1970-01-01T01:46:47.000Z</time>
      </trkpt>
      <trkpt lat="42.752065" lon="0.7567">
        <ele>1231.8</ele>
        <time>1970-01-01T01:46:51.000Z</time>
      </trkpt>
      <trkpt lat="42.75184" lon="0.756373">
        <ele>1231.4</ele>
        <time>1970-01-01T01:46:55.000Z</time>
      </trkpt>
      <trkpt lat="42.751545" lon="0.755704">
        <ele>1232.4</ele>
        <time>1970-01-01T01:47:02.000Z</time>
      </trkpt>
      <trkpt lat="42.751525" lon="0.755614">
        <ele>1233</ele>
        <time>1970-01-01T01:47:03.000Z</time>
      </trkpt>
      <trkpt lat="42.751525" lon="0.755456">
        <ele>1234</ele>
        <time>1970-01-01T01:47:05.000Z</time>
      </trkpt>
      <trkpt lat="42.751532" lon="0.75524">
        <ele>1235.2</ele>
        <time>1970-01-01T01:47:08.000Z</time>
      </trkpt>
      <trkpt lat="42.75153" lon="0.755178">
        <ele>1235.6</ele>
        <time>1970-01-01T01:47:09.000Z</time>
      </trkpt>
      <trkpt lat="42.751532" lon="0.754966">
        <ele>1236.6</ele>
        <time>1970-01-01T01:47:13.000Z</time>
      </trkpt>
      <trkpt lat="42.751546" lon="0.754813">
        <ele>1237.8</ele>
        <time>1970-01-01T01:47:17.000Z</time>
      </trkpt>
      <trkpt lat="42.751569" lon="0.754633">
        <ele>1239.2</ele>
        <time>1970-01-01T01:47:22.000Z</time>
      </trkpt>
      <trkpt lat="42.75155" lon="0.754506">
        <ele>1239.8</ele>
        <time>1970-01-01T01:47:26.000Z</time>
      </trkpt>
      <trkpt lat="42.751485" lon="0.754454">
        <ele>1240.4</ele>
        <time>1970-01-01T01:47:29.000Z</time>
      </trkpt>
      <trkpt lat="42.751432" lon="0.754445">
        <ele>1240.8</ele>
        <time>1970-01-01T01:47:31.000Z</time>
      </trkpt>
      <trkpt lat="42.750888" lon="0.754607">
        <ele>1241.2</ele>
        <time>1970-01-01T01:47:46.000Z</time>
      </trkpt>
      <trkpt lat="42.750848" lon="0.754625">
        <ele>1241.2</ele>
        <time>1970-01-01T01:47:47.000Z</time>
      </trkpt>
      <trkpt lat="42.750716" lon="0.754665">
        <ele>1241.4</ele>
        <time>1970-01-01T01:47:50.000Z</time>
      </trkpt>
      <trkpt lat="42.750536" lon="0.754614">
        <ele>1242</ele>
        <time>1970-01-01T01:47:54.000Z</time>
      </trkpt>
      <trkpt lat="42.750442" lon="0.754607">
        <ele>1242.2</ele>
        <time>1970-01-01T01:47:56.000Z</time>
      </trkpt>
      <trkpt lat="42.750354" lon="0.754597">
        <ele>1242.4</ele>
        <time>1970-01-01T01:47:58.000Z</time>
      </trkpt>
      <trkpt lat="42.750166" lon="0.75447">
        <ele>1243.6</ele>
        <time>1970-01-01T01:48:03.000Z</time>
      </trkpt>
      <trkpt lat="42.750045" lon="0.754342">
        <ele>1245</ele>
        <time>1970-01-01T01:48:07.000Z</time>
      </trkpt>
      <trkpt lat="42.749911" lon="0.754204">
        <ele>1246.4</ele>
        <time>1970-01-01T01:48:12.000Z</time>
      </trkpt>
      <trkpt lat="42.749796" lon="0.75413">
        <ele>1247.4</ele>
        <time>1970-01-01T01:48:16.000Z</time>
      </trkpt>
      <trkpt lat="42.749655" lon="0.754047">
        <ele>1248.8</ele>
        <time>1970-01-01T01:48:21.000Z</time>
      </trkpt>
      <trkpt lat="42.749451" lon="0.753905">
        <ele>1250</ele>
        <time>1970-01-01T01:48:29.000Z</time>
      </trkpt>
      <trkpt lat="42.749265" lon="0.753721">
        <ele>1251.2</ele>
        <time>1970-01-01T01:48:37.000Z</time>
      </trkpt>
      <trkpt lat="42.749241" lon="0.753696">
        <ele>1251.4</ele>
        <time>1970-01-01T01:48:38.000Z</time>
      </trkpt>
      <trkpt lat="42.749005" lon="0.753366">
        <ele>1250.4</ele>
        <time>1970-01-01T01:48:46.000Z</time>
      </trkpt>
      <trkpt lat="42.748812" lon="0.753136">
        <ele>1249.2</ele>
        <time>1970-01-01T01:48:50.000Z</time>
      </trkpt>
      <trkpt lat="42.748509" lon="0.752767">
        <ele>1248.2</ele>
        <time>1970-01-01T01:48:55.000Z</time>
      </trkpt>
      <trkpt lat="42.748233" lon="0.752463">
        <ele>1247.2</ele>
        <time>1970-01-01T01:48:59.000Z</time>
      </trkpt>
      <trkpt lat="42.747746" lon="0.751979">
        <ele>1248</ele>
        <time>1970-01-01T01:49:06.000Z</time>
      </trkpt>
      <trkpt lat="42.747623" lon="0.751852">
        <ele>1248.8</ele>
        <time>1970-01-01T01:49:08.000Z</time>
      </trkpt>
      <trkpt lat="42.747405" lon="0.751623">
        <ele>1249.8</ele>
        <time>1970-01-01T01:49:12.000Z</time>
      </trkpt>
      <trkpt lat="42.747201" lon="0.751441">
        <ele>1251.4</ele>
        <time>1970-01-01T01:49:17.000Z</time>
      </trkpt>
      <trkpt lat="42.747083" lon="0.751319">
        <ele>1252.4</ele>
        <time>1970-01-01T01:49:21.000Z</time>
      </trkpt>
      <trkpt lat="42.747016" lon="0.751224">
        <ele>1253.8</ele>
        <time>1970-01-01T01:49:25.000Z</time>
      </trkpt>
      <trkpt lat="42.746941" lon="0.751092">
        <ele>1255.2</ele>
        <time>1970-01-01T01:49:31.000Z</time>
      </trkpt>
      <trkpt lat="42.746895" lon="0.750931">
        <ele>1256.6</ele>
        <time>1970-01-01T01:49:37.000Z</time>
      </trkpt>
      <trkpt lat="42.746829" lon="0.750731">
        <ele>1257.8</ele>
        <time>1970-01-01T01:49:44.000Z</time>
      </trkpt>
      <trkpt lat="42.746797" lon="0.750585">
        <ele>1259</ele>
        <time>1970-01-01T01:49:49.000Z</time>
      </trkpt>
      <trkpt lat="42.746757" lon="0.750406">
        <ele>1260.2</ele>
        <time>1970-01-01T01:49:55.000Z</time>
      </trkpt>
      <trkpt lat="42.746662" lon="0.750151">
        <ele>1261.8</ele>
        <time>1970-01-01T01:50:05.000Z</time>
      </trkpt>
      <trkpt lat="42.746553" lon="0.750047">
        <ele>1263.2</ele>
        <time>1970-01-01T01:50:12.000Z</time>
      </trkpt>
      <trkpt lat="42.746491" lon="0.749873">
        <ele>1264.4</ele>
        <time>1970-01-01T01:50:18.000Z</time>
      </trkpt>
      <trkpt lat="42.746457" lon="0.749638">
        <ele>1265.8</ele>
        <time>1970-01-01T01:50:26.000Z</time>
      </trkpt>
      <trkpt lat="42.746464" lon="0.749522">
        <ele>1267</ele>
        <time>1970-01-01T01:50:31.000Z</time>
      </trkpt>
      <trkpt lat="42.746476" lon="0.749251">
        <ele>1268.4</ele>
        <time>1970-01-01T01:50:40.000Z</time>
      </trkpt>
      <trkpt lat="42.7465" lon="0.74905">
        <ele>1269.6</ele>
        <time>1970-01-01T01:50:47.000Z</time>
      </trkpt>
      <trkpt lat="42.746509" lon="0.748546">
        <ele>1271</ele>
        <time>1970-01-01T01:51:02.000Z</time>
      </trkpt>
      <trkpt lat="42.746549" lon="0.74809">
        <ele>1272.4</ele>
        <time>1970-01-01T01:51:13.000Z</time>
      </trkpt>
      <trkpt lat="42.746639" lon="0.74758">
        <ele>1272.4</ele>
        <time>1970-01-01T01:51:22.000Z</time>
      </trkpt>
      <trkpt lat="42.746714" lon="0.746892">
        <ele>1271.8</ele>
        <time>1970-01-01T01:51:31.000Z</time>
      </trkpt>
      <trkpt lat="42.746725" lon="0.746678">
        <ele>1270.6</ele>
        <time>1970-01-01T01:51:33.000Z</time>
      </trkpt>
      <trkpt lat="42.746737" lon="0.746451">
        <ele>1269.6</ele>
        <time>1970-01-01T01:51:35.000Z</time>
      </trkpt>
      <trkpt lat="42.746781" lon="0.746106">
        <ele>1268.2</ele>
        <time>1970-01-01T01:51:38.000Z</time>
      </trkpt>
      <trkpt lat="42.746817" lon="0.745871">
        <ele>1267</ele>
        <time>1970-01-01T01:51:40.000Z</time>
      </trkpt>
      <trkpt lat="42.746865" lon="0.745493">
        <ele>1265.4</ele>
        <time>1970-01-01T01:51:43.000Z</time>
      </trkpt>
      <trkpt lat="42.746897" lon="0.745224">
        <ele>1264</ele>
        <time>1970-01-01T01:51:45.000Z</time>
      </trkpt>
      <trkpt lat="42.746946" lon="0.744931">
        <ele>1262.4</ele>
        <time>1970-01-01T01:51:48.000Z</time>
      </trkpt>
      <trkpt lat="42.746942" lon="0.74486">
        <ele>1261.2</ele>
        <time>1970-01-01T01:51:49.000Z</time>
      </trkpt>
      <trkpt lat="42.746849" lon="0.744782">
        <ele>1259.8</ele>
        <time>1970-01-01T01:51:51.000Z</time>
      </trkpt>
      <trkpt lat="42.74675" lon="0.744826">
        <ele>1258.4</ele>
        <time>1970-01-01T01:51:53.000Z</time>
      </trkpt>
      <trkpt lat="42.746676" lon="0.744999">
        <ele>1257.2</ele>
        <time>1970-01-01T01:51:55.000Z</time>
      </trkpt>
      <trkpt lat="42.746631" lon="0.745077">
        <ele>1256.6</ele>
        <time>1970-01-01T01:51:56.000Z</time>
      </trkpt>
      <trkpt lat="42.746575" lon="0.745138">
        <ele>1256</ele>
        <time>1970-01-01T01:51:57.000Z</time>
      </trkpt>
      <trkpt lat="42.746447" lon="0.745249">
        <ele>1255</ele>
        <time>1970-01-01T01:51:59.000Z</time>
      </trkpt>
      <trkpt lat="42.746385" lon="0.745286">
        <ele>1254.4</ele>
        <time>1970-01-01T01:52:00.000Z</time>
      </trkpt>
      <trkpt lat="42.746331" lon="0.745301">
        <ele>1254</ele>
        <time>1970-01-01T01:52:01.000Z</time>
      </trkpt>
      <trkpt lat="42.746244" lon="0.745244">
        <ele>1252.8</ele>
        <time>1970-01-01T01:52:03.000Z</time>
      </trkpt>
      <trkpt lat="42.746265" lon="0.744967">
        <ele>1250.8</ele>
        <time>1970-01-01T01:52:06.000Z</time>
      </trkpt>
      <trkpt lat="42.746355" lon="0.744762">
        <ele>1249.4</ele>
        <time>1970-01-01T01:52:08.000Z</time>
      </trkpt>
      <trkpt lat="42.74642" lon="0.744519">
        <ele>1247.8</ele>
        <time>1970-01-01T01:52:10.000Z</time>
      </trkpt>
      <trkpt lat="42.746471" lon="0.74425">
        <ele>1246.4</ele>
        <time>1970-01-01T01:52:12.000Z</time>
      </trkpt>
      <trkpt lat="42.746522" lon="0.743964">
        <ele>1245</ele>
        <time>1970-01-01T01:52:14.000Z</time>
      </trkpt>
      <trkpt lat="42.74655" lon="0.74383">
        <ele>1243.8</ele>
        <time>1970-01-01T01:52:15.000Z</time>
      </trkpt>
      <trkpt lat="42.746585" lon="0.743576">
        <ele>1242.6</ele>
        <time>1970-01-01T01:52:17.000Z</time>
      </trkpt>
      <trkpt lat="42.746559" lon="0.743327">
        <ele>1241</ele>
        <time>1970-01-01T01:52:19.000Z</time>
      </trkpt>
      <trkpt lat="42.746428" lon="0.743007">
        <ele>1240.2</ele>
        <time>1970-01-01T01:52:22.000Z</time>
      </trkpt>
      <trkpt lat="42.746385" lon="0.742903">
        <ele>1240.2</ele>
        <time>1970-01-01T01:52:23.000Z</time>
      </trkpt>
      <trkpt lat="42.74609" lon="0.742185">
        <ele>1241.2</ele>
        <time>1970-01-01T01:52:30.000Z</time>
      </trkpt>
      <trkpt lat="42.746016" lon="0.74197">
        <ele>1241.4</ele>
        <time>1970-01-01T01:52:32.000Z</time>
      </trkpt>
      <trkpt lat="42.745911" lon="0.741689">
        <ele>1242.6</ele>
        <time>1970-01-01T01:52:35.000Z</time>
      </trkpt>
      <trkpt lat="42.745811" lon="0.741179">
        <ele>1244</ele>
        <time>1970-01-01T01:52:41.000Z</time>
      </trkpt>
      <trkpt lat="42.745776" lon="0.740908">
        <ele>1243.6</ele>
        <time>1970-01-01T01:52:44.000Z</time>
      </trkpt>
      <trkpt lat="42.745664" lon="0.740632">
        <ele>1243</ele>
        <time>1970-01-01T01:52:47.000Z</time>
      </trkpt>
      <trkpt lat="42.745462" lon="0.740199">
        <ele>1242</ele>
        <time>1970-01-01T01:52:52.000Z</time>
      </trkpt>
      <trkpt lat="42.745353" lon="0.739453">
        <ele>1241.8</ele>
        <time>1970-01-01T01:53:00.000Z</time>
      </trkpt>
      <trkpt lat="42.745239" lon="0.73901">
        <ele>1243.6</ele>
        <time>1970-01-01T01:53:07.000Z</time>
      </trkpt>
      <trkpt lat="42.745181" lon="0.738642">
        <ele>1244.8</ele>
        <time>1970-01-01T01:53:13.000Z</time>
      </trkpt>
      <trkpt lat="42.745175" lon="0.738577">
        <ele>1244.8</ele>
        <time>1970-01-01T01:53:14.000Z</time>
      </trkpt>
      <trkpt lat="42.745185" lon="0.738338">
        <ele>1245.8</ele>
        <time>1970-01-01T01:53:18.000Z</time>
      </trkpt>
      <trkpt lat="42.745201" lon="0.738228">
        <ele>1246.2</ele>
        <time>1970-01-01T01:53:20.000Z</time>
      </trkpt>
      <trkpt lat="42.745231" lon="0.738111">
        <ele>1246.2</ele>
        <time>1970-01-01T01:53:22.000Z</time>
      </trkpt>
      <trkpt lat="42.745326" lon="0.737757">
        <ele>1245.2</ele>
        <time>1970-01-01T01:53:27.000Z</time>
      </trkpt>
      <trkpt lat="42.745377" lon="0.73714">
        <ele>1245.6</ele>
        <time>1970-01-01T01:53:35.000Z</time>
      </trkpt>
      <trkpt lat="42.745413" lon="0.736927">
        <ele>1245.8</ele>
        <time>1970-01-01T01:53:38.000Z</time>
      </trkpt>
      <trkpt lat="42.745448" lon="0.736744">
        <ele>1246.6</ele>
        <time>1970-01-01T01:53:41.000Z</time>
      </trkpt>
      <trkpt lat="42.745515" lon="0.736225">
        <ele>1248</ele>
        <time>1970-01-01T01:53:50.000Z</time>
      </trkpt>
      <trkpt lat="42.745551" lon="0.735698">
        <ele>1249.4</ele>
        <time>1970-01-01T01:54:00.000Z</time>
      </trkpt>
      <trkpt lat="42.745556" lon="0.735374">
        <ele>1250.4</ele>
        <time>1970-01-01T01:54:06.000Z</time>
      </trkpt>
      <trkpt lat="42.745573" lon="0.735206">
        <ele>1250.8</ele>
        <time>1970-01-01T01:54:09.000Z</time>
      </trkpt>
      <trkpt lat="42.745621" lon="0.734455">
        <ele>1251.2</ele>
        <time>1970-01-01T01:54:21.000Z</time>
      </trkpt>
      <trkpt lat="42.745612" lon="0.733975">
        <ele>1251.8</ele>
        <time>1970-01-01T01:54:28.000Z</time>
      </trkpt>
      <trkpt lat="42.745699" lon="0.73368">
        <ele>1252.2</ele>
        <time>1970-01-01T01:54:33.000Z</time>
      </trkpt>
      <trkpt lat="42.745729" lon="0.733494">
        <ele>1253.6</ele>
        <time>1970-01-01T01:54:37.000Z</time>
      </trkpt>
      <trkpt lat="42.745702" lon="0.73335">
        <ele>1255</ele>
        <time>1970-01-01T01:54:41.000Z</time>
      </trkpt>
      <trkpt lat="42.745667" lon="0.733236">
        <ele>1256.2</ele>
        <time>1970-01-01T01:54:44.000Z</time>
      </trkpt>
      <trkpt lat="42.745643" lon="0.733119">
        <ele>1257.2</ele>
        <time>1970-01-01T01:54:47.000Z</time>
      </trkpt>
      <trkpt lat="42.745622" lon="0.732783">
        <ele>1258.2</ele>
        <time>1970-01-01T01:54:54.000Z</time>
      </trkpt>
      <trkpt lat="42.745715" lon="0.732327">
        <ele>1256.2</ele>
        <time>1970-01-01T01:55:00.000Z</time>
      </trkpt>
      <trkpt lat="42.745772" lon="0.732185">
        <ele>1254.4</ele>
        <time>1970-01-01T01:55:02.000Z</time>
      </trkpt>
      <trkpt lat="42.745845" lon="0.732036">
        <ele>1253.2</ele>
        <time>1970-01-01T01:55:04.000Z</time>
      </trkpt>
      <trkpt lat="42.745898" lon="0.731918">
        <ele>1251.8</ele>
        <time>1970-01-01T01:55:06.000Z</time>
      </trkpt>
      <trkpt lat="42.745918" lon="0.731864">
        <ele>1251</ele>
        <time>1970-01-01T01:55:07.000Z</time>
      </trkpt>
      <trkpt lat="42.745939" lon="0.731806">
        <ele>1250.4</ele>
        <time>1970-01-01T01:55:08.000Z</time>
      </trkpt>
      <trkpt lat="42.746003" lon="0.731615">
        <ele>1249.2</ele>
        <time>1970-01-01T01:55:11.000Z</time>
      </trkpt>
      <trkpt lat="42.746083" lon="0.731372">
        <ele>1247.8</ele>
        <time>1970-01-01T01:55:14.000Z</time>
      </trkpt>
      <trkpt lat="42.746156" lon="0.731073">
        <ele>1246.8</ele>
        <time>1970-01-01T01:55:17.000Z</time>
      </trkpt>
      <trkpt lat="42.746203" lon="0.730861">
        <ele>1245.4</ele>
        <time>1970-01-01T01:55:19.000Z</time>
      </trkpt>
      <trkpt lat="42.746223" lon="0.730635">
        <ele>1244.4</ele>
        <time>1970-01-01T01:55:21.000Z</time>
      </trkpt>
      <trkpt lat="42.746224" lon="0.730529">
        <ele>1244</ele>
        <time>1970-01-01T01:55:22.000Z</time>
      </trkpt>
      <trkpt lat="42.746227" lon="0.730366">
        <ele>1243</ele>
        <time>1970-01-01T01:55:24.000Z</time>
      </trkpt>
      <trkpt lat="42.746227" lon="0.730244">
        <ele>1242</ele>
        <time>1970-01-01T01:55:26.000Z</time>
      </trkpt>
      <trkpt lat="42.746258" lon="0.730084">
        <ele>1241.2</ele>
        <time>1970-01-01T01:55:30.000Z</time>
      </trkpt>
      <trkpt lat="42.746259" lon="0.730063">
        <ele>1241.2</ele>
        <time>1970-01-01T01:55:32.000Z</time>
      </trkpt>
      <trkpt lat="42.746256" lon="0.729956">
        <ele>1241</ele>
        <time>1970-01-01T01:58:12.000Z</time>
      </trkpt>
      <trkpt lat="42.746316" lon="0.729547">
        <ele>1241.6</ele>
        <time>1970-01-01T01:58:27.000Z</time>
      </trkpt>
      <trkpt lat="42.746337" lon="0.729523">
        <ele>1241.6</ele>
        <time>1970-01-01T01:58:31.000Z</time>
      </trkpt>
      <trkpt lat="42.746365" lon="0.729477">
        <ele>1241.6</ele>
        <time>1970-01-01T01:59:07.000Z</time>
      </trkpt>
      <trkpt lat="42.7467" lon="0.729171">
        <ele>1241.8</ele>
        <time>1970-01-01T01:59:18.000Z</time>
      </trkpt>
      <trkpt lat="42.746927" lon="0.728803">
        <ele>1241.6</ele>
        <time>1970-01-01T01:59:27.000Z</time>
      </trkpt>
      <trkpt lat="42.747108" lon="0.728501">
        <ele>1241.8</ele>
        <time>1970-01-01T01:59:34.000Z</time>
      </trkpt>
      <trkpt lat="42.747287" lon="0.728158">
        <ele>1243</ele>
        <time>1970-01-01T01:59:43.000Z</time>
      </trkpt>
      <trkpt lat="42.747361" lon="0.727874">
        <ele>1244</ele>
        <time>1970-01-01T01:59:50.000Z</time>
      </trkpt>
      <trkpt lat="42.747401" lon="0.727344">
        <ele>1245.6</ele>
        <time>1970-01-01T02:00:02.000Z</time>
      </trkpt>
      <trkpt lat="42.747404" lon="0.727227">
        <ele>1246.8</ele>
        <time>1970-01-01T02:00:07.000Z</time>
      </trkpt>
      <trkpt lat="42.747389" lon="0.727097">
        <ele>1247.8</ele>
        <time>1970-01-01T02:00:13.000Z</time>
      </trkpt>
      <trkpt lat="42.74744" lon="0.726921">
        <ele>1247.4</ele>
        <time>1970-01-01T02:00:19.000Z</time>
      </trkpt>
      <trkpt lat="42.747578" lon="0.726548">
        <ele>1246.4</ele>
        <time>1970-01-01T02:00:30.000Z</time>
      </trkpt>
      <trkpt lat="42.747636" lon="0.726503">
        <ele>1246</ele>
        <time>1970-01-01T02:00:33.000Z</time>
      </trkpt>
      <trkpt lat="42.747665" lon="0.72647">
        <ele>1246</ele>
        <time>1970-01-01T02:00:35.000Z</time>
      </trkpt>
      <trkpt lat="42.747727" lon="0.726303">
        <ele>1245</ele>
        <time>1970-01-01T02:00:40.000Z</time>
      </trkpt>
      <trkpt lat="42.747844" lon="0.726138">
        <ele>1244.6</ele>
        <time>1970-01-01T02:00:47.000Z</time>
      </trkpt>
      <trkpt lat="42.747859" lon="0.726102">
        <ele>1244.6</ele>
        <time>1970-01-01T02:00:50.000Z</time>
      </trkpt>
      <trkpt lat="42.747896" lon="0.726026">
        <ele>1247.6</ele>
        <time>1970-01-01T02:20:50.000Z</time>
      </trkpt>
      <trkpt lat="42.747959" lon="0.725387">
        <ele>1248.2</ele>
        <time>1970-01-01T02:21:14.000Z</time>
      </trkpt>
      <trkpt lat="42.748049" lon="0.725115">
        <ele>1246.8</ele>
        <time>1970-01-01T02:21:18.000Z</time>
      </trkpt>
      <trkpt lat="42.748122" lon="0.724865">
        <ele>1245.4</ele>
        <time>1970-01-01T02:21:21.000Z</time>
      </trkpt>
      <trkpt lat="42.748389" lon="0.724331">
        <ele>1246.8</ele>
        <time>1970-01-01T02:21:34.000Z</time>
      </trkpt>
      <trkpt lat="42.748541" lon="0.724079">
        <ele>1247.6</ele>
        <time>1970-01-01T02:21:41.000Z</time>
      </trkpt>
      <trkpt lat="42.748562" lon="0.724031">
        <ele>1247.8</ele>
        <time>1970-01-01T02:21:42.000Z</time>
      </trkpt>
      <trkpt lat="42.748727" lon="0.723657">
        <ele>1249</ele>
        <time>1970-01-01T02:21:51.000Z</time>
      </trkpt>
      <trkpt lat="42.748886" lon="0.72325">
        <ele>1250</ele>
        <time>1970-01-01T02:22:00.000Z</time>
      </trkpt>
      <trkpt lat="42.74901" lon="0.722665">
        <ele>1251.4</ele>
        <time>1970-01-01T02:22:12.000Z</time>
      </trkpt>
      <trkpt lat="42.749068" lon="0.722435">
        <ele>1252.6</ele>
        <time>1970-01-01T02:22:17.000Z</time>
      </trkpt>
      <trkpt lat="42.749105" lon="0.722247">
        <ele>1253.8</ele>
        <time>1970-01-01T02:22:21.000Z</time>
      </trkpt>
      <trkpt lat="42.749191" lon="0.721909">
        <ele>1255</ele>
        <time>1970-01-01T02:22:30.000Z</time>
      </trkpt>
      <trkpt lat="42.749369" lon="0.721214">
        <ele>1255</ele>
        <time>1970-01-01T02:22:47.000Z</time>
      </trkpt>
      <trkpt lat="42.749472" lon="0.720966">
        <ele>1254.4</ele>
        <time>1970-01-01T02:22:51.000Z</time>
      </trkpt>
      <trkpt lat="42.749496" lon="0.720895">
        <ele>1254</ele>
        <time>1970-01-01T02:22:52.000Z</time>
      </trkpt>
      <trkpt lat="42.749613" lon="0.720416">
        <ele>1253</ele>
        <time>1970-01-01T02:22:58.000Z</time>
      </trkpt>
      <trkpt lat="42.749715" lon="0.720094">
        <ele>1252</ele>
        <time>1970-01-01T02:23:02.000Z</time>
      </trkpt>
      <trkpt lat="42.749836" lon="0.719359">
        <ele>1252</ele>
        <time>1970-01-01T02:23:11.000Z</time>
      </trkpt>
      <trkpt lat="42.749909" lon="0.718589">
        <ele>1252.8</ele>
        <time>1970-01-01T02:23:20.000Z</time>
      </trkpt>
      <trkpt lat="42.749945" lon="0.718159">
        <ele>1253.2</ele>
        <time>1970-01-01T02:23:25.000Z</time>
      </trkpt>
      <trkpt lat="42.749972" lon="0.717425">
        <ele>1254.4</ele>
        <time>1970-01-01T02:23:36.000Z</time>
      </trkpt>
      <trkpt lat="42.749985" lon="0.717141">
        <ele>1254</ele>
        <time>1970-01-01T02:23:40.000Z</time>
      </trkpt>
      <trkpt lat="42.750032" lon="0.716577">
        <ele>1252.4</ele>
        <time>1970-01-01T02:23:46.000Z</time>
      </trkpt>
      <trkpt lat="42.750157" lon="0.716438">
        <ele>1251.2</ele>
        <time>1970-01-01T02:23:48.000Z</time>
      </trkpt>
      <trkpt lat="42.750314" lon="0.71636">
        <ele>1250</ele>
        <time>1970-01-01T02:23:50.000Z</time>
      </trkpt>
      <trkpt lat="42.75053" lon="0.716263">
        <ele>1249.2</ele>
        <time>1970-01-01T02:23:53.000Z</time>
      </trkpt>
      <trkpt lat="42.751027" lon="0.716187">
        <ele>1248.2</ele>
        <time>1970-01-01T02:24:00.000Z</time>
      </trkpt>
      <trkpt lat="42.75124" lon="0.716139">
        <ele>1247.6</ele>
        <time>1970-01-01T02:24:03.000Z</time>
      </trkpt>
      <trkpt lat="42.751358" lon="0.715904">
        <ele>1247</ele>
        <time>1970-01-01T02:24:06.000Z</time>
      </trkpt>
      <trkpt lat="42.751299" lon="0.715641">
        <ele>1246.6</ele>
        <time>1970-01-01T02:24:09.000Z</time>
      </trkpt>
      <trkpt lat="42.751198" lon="0.715237">
        <ele>1246.2</ele>
        <time>1970-01-01T02:24:14.000Z</time>
      </trkpt>
      <trkpt lat="42.751191" lon="0.715153">
        <ele>1246</ele>
        <time>1970-01-01T02:24:15.000Z</time>
      </trkpt>
      <trkpt lat="42.751271" lon="0.714872">
        <ele>1244.8</ele>
        <time>1970-01-01T02:24:18.000Z</time>
      </trkpt>
      <trkpt lat="42.751322" lon="0.714776">
        <ele>1244.2</ele>
        <time>1970-01-01T02:24:19.000Z</time>
      </trkpt>
      <trkpt lat="42.751379" lon="0.714685">
        <ele>1243.6</ele>
        <time>1970-01-01T02:24:20.000Z</time>
      </trkpt>
      <trkpt lat="42.751488" lon="0.714565">
        <ele>1242.2</ele>
        <time>1970-01-01T02:24:22.000Z</time>
      </trkpt>
      <trkpt lat="42.75156" lon="0.714523">
        <ele>1240.8</ele>
        <time>1970-01-01T02:24:24.000Z</time>
      </trkpt>
      <trkpt lat="42.751576" lon="0.714509">
        <ele>1239.6</ele>
        <time>1970-01-01T02:24:26.000Z</time>
      </trkpt>
      <trkpt lat="42.751575" lon="0.71451">
        <ele>1239.4</ele>
        <time>1970-01-01T02:24:27.000Z</time>
      </trkpt>
      <trkpt lat="42.751543" lon="0.714496">
        <ele>1239.2</ele>
        <time>1970-01-01T02:24:31.000Z</time>
      </trkpt>
      <trkpt lat="42.751465" lon="0.714618">
        <ele>1239.8</ele>
        <time>1970-01-01T02:24:40.000Z</time>
      </trkpt>
      <trkpt lat="42.751335" lon="0.714757">
        <ele>1241</ele>
        <time>1970-01-01T02:24:48.000Z</time>
      </trkpt>
      <trkpt lat="42.751233" lon="0.714946">
        <ele>1242</ele>
        <time>1970-01-01T02:24:54.000Z</time>
      </trkpt>
      <trkpt lat="42.751172" lon="0.71513">
        <ele>1243.4</ele>
        <time>1970-01-01T02:24:59.000Z</time>
      </trkpt>
      <trkpt lat="42.751185" lon="0.715244">
        <ele>1244.4</ele>
        <time>1970-01-01T02:25:02.000Z</time>
      </trkpt>
      <trkpt lat="42.751219" lon="0.715301">
        <ele>1244.8</ele>
        <time>1970-01-01T02:25:04.000Z</time>
      </trkpt>
      <trkpt lat="42.751283" lon="0.715242">
        <ele>1245.6</ele>
        <time>1970-01-01T02:25:08.000Z</time>
      </trkpt>
      <trkpt lat="42.751375" lon="0.715082">
        <ele>1246.8</ele>
        <time>1970-01-01T02:25:15.000Z</time>
      </trkpt>
      <trkpt lat="42.751481" lon="0.714998">
        <ele>1248</ele>
        <time>1970-01-01T02:25:21.000Z</time>
      </trkpt>
      <trkpt lat="42.751621" lon="0.714913">
        <ele>1249</ele>
        <time>1970-01-01T02:25:28.000Z</time>
      </trkpt>
      <trkpt lat="42.751773" lon="0.714839">
        <ele>1250.4</ele>
        <time>1970-01-01T02:25:35.000Z</time>
      </trkpt>
      <trkpt lat="42.751894" lon="0.714839">
        <ele>1251.6</ele>
        <time>1970-01-01T02:25:40.000Z</time>
      </trkpt>
      <trkpt lat="42.751944" lon="0.71492">
        <ele>1252.4</ele>
        <time>1970-01-01T02:25:44.000Z</time>
      </trkpt>
      <trkpt lat="42.751944" lon="0.714947">
        <ele>1252.6</ele>
        <time>1970-01-01T02:25:45.000Z</time>
      </trkpt>
      <trkpt lat="42.751891" lon="0.71502">
        <ele>1253.6</ele>
        <time>1970-01-01T02:25:49.000Z</time>
      </trkpt>
      <trkpt lat="42.751867" lon="0.715032">
        <ele>1253.8</ele>
        <time>1970-01-01T02:25:50.000Z</time>
      </trkpt>
      <trkpt lat="42.75168" lon="0.7151">
        <ele>1255</ele>
        <time>1970-01-01T02:25:58.000Z</time>
      </trkpt>
      <trkpt lat="42.751588" lon="0.715196">
        <ele>1256.2</ele>
        <time>1970-01-01T02:26:03.000Z</time>
      </trkpt>
      <trkpt lat="42.751551" lon="0.715234">
        <ele>1256.4</ele>
        <time>1970-01-01T02:26:05.000Z</time>
      </trkpt>
      <trkpt lat="42.751495" lon="0.715338">
        <ele>1257.2</ele>
        <time>1970-01-01T02:26:09.000Z</time>
      </trkpt>
      <trkpt lat="42.751475" lon="0.715605">
        <ele>1258.4</ele>
        <time>1970-01-01T02:26:18.000Z</time>
      </trkpt>
      <trkpt lat="42.751534" lon="0.715742">
        <ele>1259.6</ele>
        <time>1970-01-01T02:26:23.000Z</time>
      </trkpt>
      <trkpt lat="42.751611" lon="0.715991">
        <ele>1260.6</ele>
        <time>1970-01-01T02:26:31.000Z</time>
      </trkpt>
      <trkpt lat="42.751584" lon="0.716315">
        <ele>1262</ele>
        <time>1970-01-01T02:26:40.000Z</time>
      </trkpt>
      <trkpt lat="42.751574" lon="0.716518">
        <ele>1263.2</ele>
        <time>1970-01-01T02:26:47.000Z</time>
      </trkpt>
      <trkpt lat="42.751703" lon="0.71649">
        <ele>1264.4</ele>
        <time>1970-01-01T02:26:54.000Z</time>
      </trkpt>
      <trkpt lat="42.751721" lon="0.716096">
        <ele>1265.4</ele>
        <time>1970-01-01T02:27:05.000Z</time>
      </trkpt>
      <trkpt lat="42.751703" lon="0.715827">
        <ele>1266.8</ele>
        <time>1970-01-01T02:27:12.000Z</time>
      </trkpt>
      <trkpt lat="42.75179" lon="0.715599">
        <ele>1268</ele>
        <time>1970-01-01T02:27:19.000Z</time>
      </trkpt>
      <trkpt lat="42.751942" lon="0.715494">
        <ele>1269</ele>
        <time>1970-01-01T02:27:25.000Z</time>
      </trkpt>
      <trkpt lat="42.752093" lon="0.715388">
        <ele>1270.2</ele>
        <time>1970-01-01T02:27:31.000Z</time>
      </trkpt>
      <trkpt lat="42.752224" lon="0.715241">
        <ele>1271.4</ele>
        <time>1970-01-01T02:27:37.000Z</time>
      </trkpt>
      <trkpt lat="42.752315" lon="0.715101">
        <ele>1272.6</ele>
        <time>1970-01-01T02:27:42.000Z</time>
      </trkpt>
      <trkpt lat="42.752405" lon="0.714967">
        <ele>1273.6</ele>
        <time>1970-01-01T02:27:47.000Z</time>
      </trkpt>
      <trkpt lat="42.752576" lon="0.714755">
        <ele>1274.6</ele>
        <time>1970-01-01T02:27:55.000Z</time>
      </trkpt>
      <trkpt lat="42.753055" lon="0.71462">
        <ele>1275.8</ele>
        <time>1970-01-01T02:28:10.000Z</time>
      </trkpt>
      <trkpt lat="42.753467" lon="0.714578">
        <ele>1277.2</ele>
        <time>1970-01-01T02:28:22.000Z</time>
      </trkpt>
      <trkpt lat="42.753652" lon="0.714556">
        <ele>1278.2</ele>
        <time>1970-01-01T02:28:28.000Z</time>
      </trkpt>
      <trkpt lat="42.753802" lon="0.714539">
        <ele>1279.6</ele>
        <time>1970-01-01T02:28:33.000Z</time>
      </trkpt>
      <trkpt lat="42.75399" lon="0.714414">
        <ele>1280.8</ele>
        <time>1970-01-01T02:28:40.000Z</time>
      </trkpt>
      <trkpt lat="42.754078" lon="0.714378">
        <ele>1281.8</ele>
        <time>1970-01-01T02:28:43.000Z</time>
      </trkpt>
      <trkpt lat="42.75423" lon="0.714334">
        <ele>1283</ele>
        <time>1970-01-01T02:28:48.000Z</time>
      </trkpt>
      <trkpt lat="42.754408" lon="0.714277">
        <ele>1284.2</ele>
        <time>1970-01-01T02:28:54.000Z</time>
      </trkpt>
      <trkpt lat="42.754564" lon="0.71422">
        <ele>1285.4</ele>
        <time>1970-01-01T02:29:00.000Z</time>
      </trkpt>
      <trkpt lat="42.754768" lon="0.714172">
        <ele>1286.4</ele>
        <time>1970-01-01T02:29:08.000Z</time>
      </trkpt>
      <trkpt lat="42.754987" lon="0.714087">
        <ele>1287.6</ele>
        <time>1970-01-01T02:29:17.000Z</time>
      </trkpt>
      <trkpt lat="42.755097" lon="0.714001">
        <ele>1288.8</ele>
        <time>1970-01-01T02:29:22.000Z</time>
      </trkpt>
      <trkpt lat="42.755199" lon="0.71389">
        <ele>1290</ele>
        <time>1970-01-01T02:29:27.000Z</time>
      </trkpt>
      <trkpt lat="42.755342" lon="0.713763">
        <ele>1291</ele>
        <time>1970-01-01T02:29:34.000Z</time>
      </trkpt>
      <trkpt lat="42.755523" lon="0.713658">
        <ele>1292.2</ele>
        <time>1970-01-01T02:29:42.000Z</time>
      </trkpt>
      <trkpt lat="42.755651" lon="0.71358">
        <ele>1293.4</ele>
        <time>1970-01-01T02:29:48.000Z</time>
      </trkpt>
      <trkpt lat="42.755778" lon="0.713488">
        <ele>1294.4</ele>
        <time>1970-01-01T02:29:54.000Z</time>
      </trkpt>
      <trkpt lat="42.755895" lon="0.713446">
        <ele>1295.4</ele>
        <time>1970-01-01T02:29:59.000Z</time>
      </trkpt>
      <trkpt lat="42.756047" lon="0.713422">
        <ele>1296.4</ele>
        <time>1970-01-01T02:30:05.000Z</time>
      </trkpt>
      <trkpt lat="42.756194" lon="0.71339">
        <ele>1297.8</ele>
        <time>1970-01-01T02:30:11.000Z</time>
      </trkpt>
      <trkpt lat="42.756267" lon="0.713368">
        <ele>1298.2</ele>
        <time>1970-01-01T02:30:14.000Z</time>
      </trkpt>
      <trkpt lat="42.756389" lon="0.713303">
        <ele>1298.8</ele>
        <time>1970-01-01T02:30:19.000Z</time>
      </trkpt>
      <trkpt lat="42.756508" lon="0.7132">
        <ele>1300</ele>
        <time>1970-01-01T02:30:24.000Z</time>
      </trkpt>
      <trkpt lat="42.756612" lon="0.713088">
        <ele>1301.2</ele>
        <time>1970-01-01T02:30:29.000Z</time>
      </trkpt>
      <trkpt lat="42.756732" lon="0.712941">
        <ele>1302.2</ele>
        <time>1970-01-01T02:30:35.000Z</time>
      </trkpt>
      <trkpt lat="42.756855" lon="0.712754">
        <ele>1303.2</ele>
        <time>1970-01-01T02:30:42.000Z</time>
      </trkpt>
      <trkpt lat="42.756961" lon="0.712552">
        <ele>1304.2</ele>
        <time>1970-01-01T02:30:49.000Z</time>
      </trkpt>
      <trkpt lat="42.757117" lon="0.712131">
        <ele>1303.8</ele>
        <time>1970-01-01T02:31:00.000Z</time>
      </trkpt>
      <trkpt lat="42.757304" lon="0.71198">
        <ele>1303.4</ele>
        <time>1970-01-01T02:31:06.000Z</time>
      </trkpt>
      <trkpt lat="42.757416" lon="0.711855">
        <ele>1303</ele>
        <time>1970-01-01T02:31:09.000Z</time>
      </trkpt>
      <trkpt lat="42.757526" lon="0.71168">
        <ele>1302.2</ele>
        <time>1970-01-01T02:31:12.000Z</time>
      </trkpt>
      <trkpt lat="42.757633" lon="0.711466">
        <ele>1301.2</ele>
        <time>1970-01-01T02:31:15.000Z</time>
      </trkpt>
      <trkpt lat="42.757762" lon="0.71114">
        <ele>1300.2</ele>
        <time>1970-01-01T02:31:19.000Z</time>
      </trkpt>
      <trkpt lat="42.757778" lon="0.710877">
        <ele>1299.2</ele>
        <time>1970-01-01T02:31:22.000Z</time>
      </trkpt>
      <trkpt lat="42.757774" lon="0.710088">
        <ele>1298.6</ele>
        <time>1970-01-01T02:31:32.000Z</time>
      </trkpt>
      <trkpt lat="42.757956" lon="0.709392">
        <ele>1299.8</ele>
        <time>1970-01-01T02:31:42.000Z</time>
      </trkpt>
      <trkpt lat="42.758111" lon="0.708787">
        <ele>1299.2</ele>
        <time>1970-01-01T02:31:50.000Z</time>
      </trkpt>
      <trkpt lat="42.758292" lon="0.708478">
        <ele>1297.8</ele>
        <time>1970-01-01T02:31:54.000Z</time>
      </trkpt>
      <trkpt lat="42.758338" lon="0.708175">
        <ele>1296.6</ele>
        <time>1970-01-01T02:31:57.000Z</time>
      </trkpt>
      <trkpt lat="42.758234" lon="0.707858">
        <ele>1295.4</ele>
        <time>1970-01-01T02:32:00.000Z</time>
      </trkpt>
      <trkpt lat="42.758204" lon="0.707744">
        <ele>1294.8</ele>
        <time>1970-01-01T02:32:01.000Z</time>
      </trkpt>
      <trkpt lat="42.758176" lon="0.70763">
        <ele>1294.4</ele>
        <time>1970-01-01T02:32:02.000Z</time>
      </trkpt>
      <trkpt lat="42.758135" lon="0.7074">
        <ele>1293.8</ele>
        <time>1970-01-01T02:32:04.000Z</time>
      </trkpt>
      <trkpt lat="42.758128" lon="0.707294">
        <ele>1293.4</ele>
        <time>1970-01-01T02:32:05.000Z</time>
      </trkpt>
      <trkpt lat="42.758199" lon="0.707079">
        <ele>1292.2</ele>
        <time>1970-01-01T02:32:08.000Z</time>
      </trkpt>
      <trkpt lat="42.758506" lon="0.707072">
        <ele>1291.8</ele>
        <time>1970-01-01T02:32:14.000Z</time>
      </trkpt>
      <trkpt lat="42.758615" lon="0.707076">
        <ele>1291.6</ele>
        <time>1970-01-01T02:32:16.000Z</time>
      </trkpt>
      <trkpt lat="42.75911" lon="0.707149">
        <ele>1292</ele>
        <time>1970-01-01T02:32:25.000Z</time>
      </trkpt>
      <trkpt lat="42.759292" lon="0.707208">
        <ele>1291.4</ele>
        <time>1970-01-01T02:32:28.000Z</time>
      </trkpt>
      <trkpt lat="42.759358" lon="0.707221">
        <ele>1291.2</ele>
        <time>1970-01-01T02:32:29.000Z</time>
      </trkpt>
      <trkpt lat="42.759953" lon="0.707291">
        <ele>1290.8</ele>
        <time>1970-01-01T02:32:38.000Z</time>
      </trkpt>
      <trkpt lat="42.760284" lon="0.707294">
        <ele>1292</ele>
        <time>1970-01-01T02:32:44.000Z</time>
      </trkpt>
      <trkpt lat="42.760384" lon="0.707266">
        <ele>1292.2</ele>
        <time>1970-01-01T02:32:46.000Z</time>
      </trkpt>
      <trkpt lat="42.760867" lon="0.707001">
        <ele>1292</ele>
        <time>1970-01-01T02:32:55.000Z</time>
      </trkpt>
      <trkpt lat="42.760979" lon="0.70686">
        <ele>1291.2</ele>
        <time>1970-01-01T02:32:57.000Z</time>
      </trkpt>
      <trkpt lat="42.76107" lon="0.706679">
        <ele>1290.4</ele>
        <time>1970-01-01T02:32:59.000Z</time>
      </trkpt>
      <trkpt lat="42.761109" lon="0.706581">
        <ele>1290</ele>
        <time>1970-01-01T02:33:00.000Z</time>
      </trkpt>
      <trkpt lat="42.761175" lon="0.706377">
        <ele>1289.4</ele>
        <time>1970-01-01T02:33:02.000Z</time>
      </trkpt>
      <trkpt lat="42.761224" lon="0.706186">
        <ele>1289</ele>
        <time>1970-01-01T02:33:04.000Z</time>
      </trkpt>
      <trkpt lat="42.761405" lon="0.705461">
        <ele>1288.6</ele>
        <time>1970-01-01T02:33:13.000Z</time>
      </trkpt>
      <trkpt lat="42.761432" lon="0.705393">
        <ele>1288.6</ele>
        <time>1970-01-01T02:33:14.000Z</time>
      </trkpt>
      <trkpt lat="42.761676" lon="0.705019">
        <ele>1288.2</ele>
        <time>1970-01-01T02:33:20.000Z</time>
      </trkpt>
      <trkpt lat="42.761872" lon="0.704765">
        <ele>1288.2</ele>
        <time>1970-01-01T02:33:24.000Z</time>
      </trkpt>
      <trkpt lat="42.762046" lon="0.704637">
        <ele>1287.8</ele>
        <time>1970-01-01T02:33:27.000Z</time>
      </trkpt>
      <trkpt lat="42.762539" lon="0.704255">
        <ele>1287.6</ele>
        <time>1970-01-01T02:33:35.000Z</time>
      </trkpt>
      <trkpt lat="42.762817" lon="0.703835">
        <ele>1289.2</ele>
        <time>1970-01-01T02:33:46.000Z</time>
      </trkpt>
      <trkpt lat="42.762881" lon="0.7037">
        <ele>1290.4</ele>
        <time>1970-01-01T02:33:50.000Z</time>
      </trkpt>
      <trkpt lat="42.762941" lon="0.703467">
        <ele>1291.6</ele>
        <time>1970-01-01T02:33:56.000Z</time>
      </trkpt>
      <trkpt lat="42.763003" lon="0.70319">
        <ele>1292.6</ele>
        <time>1970-01-01T02:34:03.000Z</time>
      </trkpt>
      <trkpt lat="42.763047" lon="0.703022">
        <ele>1293.8</ele>
        <time>1970-01-01T02:34:08.000Z</time>
      </trkpt>
      <trkpt lat="42.76309" lon="0.702894">
        <ele>1295</ele>
        <time>1970-01-01T02:34:12.000Z</time>
      </trkpt>
      <trkpt lat="42.763156" lon="0.702698">
        <ele>1296.2</ele>
        <time>1970-01-01T02:34:18.000Z</time>
      </trkpt>
      <trkpt lat="42.763212" lon="0.702559">
        <ele>1297.4</ele>
        <time>1970-01-01T02:34:23.000Z</time>
      </trkpt>
      <trkpt lat="42.763261" lon="0.702453">
        <ele>1298.6</ele>
        <time>1970-01-01T02:34:27.000Z</time>
      </trkpt>
      <trkpt lat="42.763329" lon="0.702332">
        <ele>1299.6</ele>
        <time>1970-01-01T02:34:32.000Z</time>
      </trkpt>
      <trkpt lat="42.763386" lon="0.702241">
        <ele>1300.6</ele>
        <time>1970-01-01T02:34:36.000Z</time>
      </trkpt>
      <trkpt lat="42.763461" lon="0.702141">
        <ele>1301.8</ele>
        <time>1970-01-01T02:34:41.000Z</time>
      </trkpt>
      <trkpt lat="42.763539" lon="0.702046">
        <ele>1302.8</ele>
        <time>1970-01-01T02:34:46.000Z</time>
      </trkpt>
      <trkpt lat="42.763621" lon="0.701969">
        <ele>1304</ele>
        <time>1970-01-01T02:34:51.000Z</time>
      </trkpt>
      <trkpt lat="42.763699" lon="0.701897">
        <ele>1305.2</ele>
        <time>1970-01-01T02:34:56.000Z</time>
      </trkpt>
      <trkpt lat="42.763716" lon="0.701887">
        <ele>1305.4</ele>
        <time>1970-01-01T02:34:57.000Z</time>
      </trkpt>
      <trkpt lat="42.763764" lon="0.701855">
        <ele>1306.2</ele>
        <time>1970-01-01T02:35:00.000Z</time>
      </trkpt>
      <trkpt lat="42.763857" lon="0.701787">
        <ele>1307.4</ele>
        <time>1970-01-01T02:35:05.000Z</time>
      </trkpt>
      <trkpt lat="42.763939" lon="0.701739">
        <ele>1308.4</ele>
        <time>1970-01-01T02:35:09.000Z</time>
      </trkpt>
      <trkpt lat="42.764028" lon="0.701685">
        <ele>1309.2</ele>
        <time>1970-01-01T02:35:13.000Z</time>
      </trkpt>
      <trkpt lat="42.764144" lon="0.701588">
        <ele>1310.2</ele>
        <time>1970-01-01T02:35:19.000Z</time>
      </trkpt>
      <trkpt lat="42.764251" lon="0.701483">
        <ele>1311.4</ele>
        <time>1970-01-01T02:35:25.000Z</time>
      </trkpt>
      <trkpt lat="42.764305" lon="0.701443">
        <ele>1311.8</ele>
        <time>1970-01-01T02:35:29.000Z</time>
      </trkpt>
      <trkpt lat="42.764399" lon="0.701468">
        <ele>1311.8</ele>
        <time>1970-01-01T02:35:36.000Z</time>
      </trkpt>
      <trkpt lat="42.764299" lon="0.701391">
        <ele>1311.4</ele>
        <time>1970-01-01T02:35:45.000Z</time>
      </trkpt>
      <trkpt lat="42.764264" lon="0.70138">
        <ele>1310.8</ele>
        <time>1970-01-01T02:35:48.000Z</time>
      </trkpt>
      <trkpt lat="42.764243" lon="0.701392">
        <ele>1310.4</ele>
        <time>1970-01-01T02:35:50.000Z</time>
      </trkpt>
      <trkpt lat="42.764244" lon="0.701403">
        <ele>1310</ele>
        <time>1970-01-01T02:35:53.000Z</time>
      </trkpt>
      <trkpt lat="42.764321" lon="0.701441">
        <ele>1311.6</ele>
        <time>1970-01-01T02:37:41.000Z</time>
      </trkpt>
      <trkpt lat="42.764499" lon="0.7015">
        <ele>1311.4</ele>
        <time>1970-01-01T02:37:46.000Z</time>
      </trkpt>
      <trkpt lat="42.764655" lon="0.70171">
        <ele>1310.6</ele>
        <time>1970-01-01T02:37:50.000Z</time>
      </trkpt>
      <trkpt lat="42.764745" lon="0.701858">
        <ele>1310.2</ele>
        <time>1970-01-01T02:37:52.000Z</time>
      </trkpt>
      <trkpt lat="42.764803" lon="0.701919">
        <ele>1310</ele>
        <time>1970-01-01T02:37:53.000Z</time>
      </trkpt>
      <trkpt lat="42.765123" lon="0.701833">
        <ele>1309</ele>
        <time>1970-01-01T02:37:58.000Z</time>
      </trkpt>
      <trkpt lat="42.765186" lon="0.701792">
        <ele>1309.2</ele>
        <time>1970-01-01T02:37:59.000Z</time>
      </trkpt>
      <trkpt lat="42.765259" lon="0.701753">
        <ele>1308.8</ele>
        <time>1970-01-01T02:38:00.000Z</time>
      </trkpt>
      <trkpt lat="42.765489" lon="0.701646">
        <ele>1307.4</ele>
        <time>1970-01-01T02:38:03.000Z</time>
      </trkpt>
      <trkpt lat="42.765644" lon="0.701558">
        <ele>1306</ele>
        <time>1970-01-01T02:38:05.000Z</time>
      </trkpt>
      <trkpt lat="42.765725" lon="0.701499">
        <ele>1305.2</ele>
        <time>1970-01-01T02:38:06.000Z</time>
      </trkpt>
      <trkpt lat="42.765806" lon="0.701433">
        <ele>1304.4</ele>
        <time>1970-01-01T02:38:07.000Z</time>
      </trkpt>
      <trkpt lat="42.766028" lon="0.701244">
        <ele>1303.2</ele>
        <time>1970-01-01T02:38:10.000Z</time>
      </trkpt>
      <trkpt lat="42.766233" lon="0.70075">
        <ele>1302</ele>
        <time>1970-01-01T02:38:15.000Z</time>
      </trkpt>
      <trkpt lat="42.766279" lon="0.700653">
        <ele>1301.6</ele>
        <time>1970-01-01T02:38:16.000Z</time>
      </trkpt>
      <trkpt lat="42.766408" lon="0.700495">
        <ele>1301</ele>
        <time>1970-01-01T02:38:18.000Z</time>
      </trkpt>
      <trkpt lat="42.766819" lon="0.699969">
        <ele>1300.2</ele>
        <time>1970-01-01T02:38:25.000Z</time>
      </trkpt>
      <trkpt lat="42.76709" lon="0.699706">
        <ele>1300.4</ele>
        <time>1970-01-01T02:38:30.000Z</time>
      </trkpt>
      <trkpt lat="42.767206" lon="0.69962">
        <ele>1300.4</ele>
        <time>1970-01-01T02:38:32.000Z</time>
      </trkpt>
      <trkpt lat="42.76762" lon="0.69919">
        <ele>1299.8</ele>
        <time>1970-01-01T02:38:39.000Z</time>
      </trkpt>
      <trkpt lat="42.767796" lon="0.699149">
        <ele>1298.4</ele>
        <time>1970-01-01T02:38:41.000Z</time>
      </trkpt>
      <trkpt lat="42.767981" lon="0.699174">
        <ele>1296.8</ele>
        <time>1970-01-01T02:38:43.000Z</time>
      </trkpt>
      <trkpt lat="42.768076" lon="0.699182">
        <ele>1296</ele>
        <time>1970-01-01T02:38:44.000Z</time>
      </trkpt>
      <trkpt lat="42.768173" lon="0.699174">
        <ele>1295</ele>
        <time>1970-01-01T02:38:45.000Z</time>
      </trkpt>
      <trkpt lat="42.768274" lon="0.699162">
        <ele>1294</ele>
        <time>1970-01-01T02:38:46.000Z</time>
      </trkpt>
      <trkpt lat="42.768485" lon="0.699139">
        <ele>1292.2</ele>
        <time>1970-01-01T02:38:48.000Z</time>
      </trkpt>
      <trkpt lat="42.768692" lon="0.699114">
        <ele>1290.6</ele>
        <time>1970-01-01T02:38:50.000Z</time>
      </trkpt>
      <trkpt lat="42.768788" lon="0.699115">
        <ele>1289.6</ele>
        <time>1970-01-01T02:38:51.000Z</time>
      </trkpt>
      <trkpt lat="42.768879" lon="0.699147">
        <ele>1288.6</ele>
        <time>1970-01-01T02:38:52.000Z</time>
      </trkpt>
      <trkpt lat="42.768964" lon="0.699203">
        <ele>1287</ele>
        <time>1970-01-01T02:38:53.000Z</time>
      </trkpt>
      <trkpt lat="42.769041" lon="0.699281">
        <ele>1286</ele>
        <time>1970-01-01T02:38:54.000Z</time>
      </trkpt>
      <trkpt lat="42.769166" lon="0.699478">
        <ele>1284</ele>
        <time>1970-01-01T02:38:56.000Z</time>
      </trkpt>
      <trkpt lat="42.769307" lon="0.699654">
        <ele>1282.2</ele>
        <time>1970-01-01T02:38:58.000Z</time>
      </trkpt>
      <trkpt lat="42.769473" lon="0.699776">
        <ele>1280.6</ele>
        <time>1970-01-01T02:39:00.000Z</time>
      </trkpt>
      <trkpt lat="42.769722" lon="0.699977">
        <ele>1279.4</ele>
        <time>1970-01-01T02:39:03.000Z</time>
      </trkpt>
      <trkpt lat="42.769814" lon="0.700053">
        <ele>1278.4</ele>
        <time>1970-01-01T02:39:04.000Z</time>
      </trkpt>
      <trkpt lat="42.769899" lon="0.700129">
        <ele>1277.2</ele>
        <time>1970-01-01T02:39:05.000Z</time>
      </trkpt>
      <trkpt lat="42.770075" lon="0.700274">
        <ele>1275.8</ele>
        <time>1970-01-01T02:39:07.000Z</time>
      </trkpt>
      <trkpt lat="42.770247" lon="0.700395">
        <ele>1274.6</ele>
        <time>1970-01-01T02:39:09.000Z</time>
      </trkpt>
      <trkpt lat="42.770314" lon="0.700469">
        <ele>1274</ele>
        <time>1970-01-01T02:39:10.000Z</time>
      </trkpt>
      <trkpt lat="42.770413" lon="0.700612">
        <ele>1273.4</ele>
        <time>1970-01-01T02:39:12.000Z</time>
      </trkpt>
      <trkpt lat="42.770488" lon="0.700881">
        <ele>1271.8</ele>
        <time>1970-01-01T02:39:15.000Z</time>
      </trkpt>
      <trkpt lat="42.770499" lon="0.701095">
        <ele>1270.8</ele>
        <time>1970-01-01T02:39:17.000Z</time>
      </trkpt>
      <trkpt lat="42.770495" lon="0.70133">
        <ele>1269.8</ele>
        <time>1970-01-01T02:39:19.000Z</time>
      </trkpt>
      <trkpt lat="42.7705" lon="0.701454">
        <ele>1269.4</ele>
        <time>1970-01-01T02:39:20.000Z</time>
      </trkpt>
      <trkpt lat="42.770563" lon="0.701664">
        <ele>1267.8</ele>
        <time>1970-01-01T02:39:22.000Z</time>
      </trkpt>
      <trkpt lat="42.770674" lon="0.701834">
        <ele>1266.6</ele>
        <time>1970-01-01T02:39:24.000Z</time>
      </trkpt>
      <trkpt lat="42.770748" lon="0.701915">
        <ele>1265.8</ele>
        <time>1970-01-01T02:39:25.000Z</time>
      </trkpt>
      <trkpt lat="42.77082" lon="0.701997">
        <ele>1265</ele>
        <time>1970-01-01T02:39:26.000Z</time>
      </trkpt>
      <trkpt lat="42.770969" lon="0.702148">
        <ele>1263.2</ele>
        <time>1970-01-01T02:39:28.000Z</time>
      </trkpt>
      <trkpt lat="42.771043" lon="0.702196">
        <ele>1262.2</ele>
        <time>1970-01-01T02:39:29.000Z</time>
      </trkpt>
      <trkpt lat="42.77112" lon="0.702213">
        <ele>1261</ele>
        <time>1970-01-01T02:39:30.000Z</time>
      </trkpt>
      <trkpt lat="42.771192" lon="0.702238">
        <ele>1259.2</ele>
        <time>1970-01-01T02:39:31.000Z</time>
      </trkpt>
      <trkpt lat="42.771269" lon="0.702283">
        <ele>1258.2</ele>
        <time>1970-01-01T02:39:32.000Z</time>
      </trkpt>
      <trkpt lat="42.771334" lon="0.702351">
        <ele>1257.2</ele>
        <time>1970-01-01T02:39:33.000Z</time>
      </trkpt>
      <trkpt lat="42.771389" lon="0.702429">
        <ele>1256.2</ele>
        <time>1970-01-01T02:39:34.000Z</time>
      </trkpt>
      <trkpt lat="42.771447" lon="0.702498">
        <ele>1255.6</ele>
        <time>1970-01-01T02:39:35.000Z</time>
      </trkpt>
      <trkpt lat="42.77156" lon="0.702583">
        <ele>1253.8</ele>
        <time>1970-01-01T02:39:37.000Z</time>
      </trkpt>
      <trkpt lat="42.771617" lon="0.702616">
        <ele>1252.8</ele>
        <time>1970-01-01T02:39:38.000Z</time>
      </trkpt>
      <trkpt lat="42.771668" lon="0.702654">
        <ele>1251.8</ele>
        <time>1970-01-01T02:39:39.000Z</time>
      </trkpt>
      <trkpt lat="42.771713" lon="0.702704">
        <ele>1251.2</ele>
        <time>1970-01-01T02:39:40.000Z</time>
      </trkpt>
      <trkpt lat="42.771768" lon="0.70284">
        <ele>1250</ele>
        <time>1970-01-01T02:39:42.000Z</time>
      </trkpt>
      <trkpt lat="42.771786" lon="0.702906">
        <ele>1249.6</ele>
        <time>1970-01-01T02:39:43.000Z</time>
      </trkpt>
      <trkpt lat="42.771801" lon="0.702958">
        <ele>1249</ele>
        <time>1970-01-01T02:39:44.000Z</time>
      </trkpt>
      <trkpt lat="42.771829" lon="0.703006">
        <ele>1247.6</ele>
        <time>1970-01-01T02:39:46.000Z</time>
      </trkpt>
      <trkpt lat="42.771873" lon="0.703054">
        <ele>1246.2</ele>
        <time>1970-01-01T02:39:49.000Z</time>
      </trkpt>
      <trkpt lat="42.771943" lon="0.703088">
        <ele>1245.8</ele>
        <time>1970-01-01T02:39:51.000Z</time>
      </trkpt>
      <trkpt lat="42.771996" lon="0.703109">
        <ele>1245.2</ele>
        <time>1970-01-01T02:39:52.000Z</time>
      </trkpt>
      <trkpt lat="42.772188" lon="0.703199">
        <ele>1244.2</ele>
        <time>1970-01-01T02:39:55.000Z</time>
      </trkpt>
      <trkpt lat="42.772257" lon="0.703251">
        <ele>1244</ele>
        <time>1970-01-01T02:39:56.000Z</time>
      </trkpt>
      <trkpt lat="42.772384" lon="0.703389">
        <ele>1242.8</ele>
        <time>1970-01-01T02:39:58.000Z</time>
      </trkpt>
      <trkpt lat="42.772521" lon="0.703542">
        <ele>1241.2</ele>
        <time>1970-01-01T02:40:00.000Z</time>
      </trkpt>
      <trkpt lat="42.77265" lon="0.703686">
        <ele>1239.8</ele>
        <time>1970-01-01T02:40:02.000Z</time>
      </trkpt>
      <trkpt lat="42.772763" lon="0.703772">
        <ele>1238.8</ele>
        <time>1970-01-01T02:40:04.000Z</time>
      </trkpt>
      <trkpt lat="42.772843" lon="0.703722">
        <ele>1237.2</ele>
        <time>1970-01-01T02:40:06.000Z</time>
      </trkpt>
      <trkpt lat="42.772835" lon="0.703572">
        <ele>1236</ele>
        <time>1970-01-01T02:40:08.000Z</time>
      </trkpt>
      <trkpt lat="42.772739" lon="0.70342">
        <ele>1234.8</ele>
        <time>1970-01-01T02:40:10.000Z</time>
      </trkpt>
      <trkpt lat="42.772674" lon="0.703346">
        <ele>1234.2</ele>
        <time>1970-01-01T02:40:11.000Z</time>
      </trkpt>
      <trkpt lat="42.772604" lon="0.703267">
        <ele>1233.2</ele>
        <time>1970-01-01T02:40:12.000Z</time>
      </trkpt>
      <trkpt lat="42.772536" lon="0.703175">
        <ele>1232.6</ele>
        <time>1970-01-01T02:40:13.000Z</time>
      </trkpt>
      <trkpt lat="42.77248" lon="0.70306">
        <ele>1232</ele>
        <time>1970-01-01T02:40:14.000Z</time>
      </trkpt>
      <trkpt lat="42.772434" lon="0.702933">
        <ele>1230.8</ele>
        <time>1970-01-01T02:40:15.000Z</time>
      </trkpt>
      <trkpt lat="42.772322" lon="0.702704">
        <ele>1229.2</ele>
        <time>1970-01-01T02:40:17.000Z</time>
      </trkpt>
      <trkpt lat="42.772191" lon="0.702499">
        <ele>1227.4</ele>
        <time>1970-01-01T02:40:19.000Z</time>
      </trkpt>
      <trkpt lat="42.772136" lon="0.702394">
        <ele>1226.2</ele>
        <time>1970-01-01T02:40:20.000Z</time>
      </trkpt>
      <trkpt lat="42.772095" lon="0.70228">
        <ele>1225</ele>
        <time>1970-01-01T02:40:21.000Z</time>
      </trkpt>
      <trkpt lat="42.77206" lon="0.702152">
        <ele>1223.8</ele>
        <time>1970-01-01T02:40:22.000Z</time>
      </trkpt>
      <trkpt lat="42.772046" lon="0.702016">
        <ele>1222.4</ele>
        <time>1970-01-01T02:40:23.000Z</time>
      </trkpt>
      <trkpt lat="42.772051" lon="0.701882">
        <ele>1220.8</ele>
        <time>1970-01-01T02:40:24.000Z</time>
      </trkpt>
      <trkpt lat="42.772056" lon="0.701753">
        <ele>1219.6</ele>
        <time>1970-01-01T02:40:25.000Z</time>
      </trkpt>
      <trkpt lat="42.77205" lon="0.701619">
        <ele>1218.4</ele>
        <time>1970-01-01T02:40:26.000Z</time>
      </trkpt>
      <trkpt lat="42.772034" lon="0.701482">
        <ele>1217.4</ele>
        <time>1970-01-01T02:40:27.000Z</time>
      </trkpt>
      <trkpt lat="42.771962" lon="0.701207">
        <ele>1215.4</ele>
        <time>1970-01-01T02:40:29.000Z</time>
      </trkpt>
      <trkpt lat="42.771916" lon="0.70107">
        <ele>1214.4</ele>
        <time>1970-01-01T02:40:30.000Z</time>
      </trkpt>
      <trkpt lat="42.771867" lon="0.700936">
        <ele>1213.2</ele>
        <time>1970-01-01T02:40:31.000Z</time>
      </trkpt>
      <trkpt lat="42.771766" lon="0.700677">
        <ele>1210.8</ele>
        <time>1970-01-01T02:40:33.000Z</time>
      </trkpt>
      <trkpt lat="42.771656" lon="0.700474">
        <ele>1209.4</ele>
        <time>1970-01-01T02:40:35.000Z</time>
      </trkpt>
      <trkpt lat="42.771617" lon="0.700384">
        <ele>1208.4</ele>
        <time>1970-01-01T02:40:36.000Z</time>
      </trkpt>
      <trkpt lat="42.77159" lon="0.700291">
        <ele>1207.2</ele>
        <time>1970-01-01T02:40:37.000Z</time>
      </trkpt>
      <trkpt lat="42.771502" lon="0.700123">
        <ele>1205.6</ele>
        <time>1970-01-01T02:40:39.000Z</time>
      </trkpt>
      <trkpt lat="42.771362" lon="0.699983">
        <ele>1203.6</ele>
        <time>1970-01-01T02:40:41.000Z</time>
      </trkpt>
      <trkpt lat="42.771296" lon="0.699912">
        <ele>1202.8</ele>
        <time>1970-01-01T02:40:42.000Z</time>
      </trkpt>
      <trkpt lat="42.77123" lon="0.699827">
        <ele>1202</ele>
        <time>1970-01-01T02:40:43.000Z</time>
      </trkpt>
      <trkpt lat="42.771087" lon="0.699605">
        <ele>1200</ele>
        <time>1970-01-01T02:40:45.000Z</time>
      </trkpt>
      <trkpt lat="42.771031" lon="0.69947">
        <ele>1199.2</ele>
        <time>1970-01-01T02:40:46.000Z</time>
      </trkpt>
      <trkpt lat="42.770991" lon="0.699328">
        <ele>1198.2</ele>
        <time>1970-01-01T02:40:47.000Z</time>
      </trkpt>
      <trkpt lat="42.77095" lon="0.699195">
        <ele>1197.2</ele>
        <time>1970-01-01T02:40:48.000Z</time>
      </trkpt>
      <trkpt lat="42.770925" lon="0.699068">
        <ele>1196.2</ele>
        <time>1970-01-01T02:40:49.000Z</time>
      </trkpt>
      <trkpt lat="42.770925" lon="0.698958">
        <ele>1194.6</ele>
        <time>1970-01-01T02:40:50.000Z</time>
      </trkpt>
      <trkpt lat="42.77093" lon="0.698853">
        <ele>1193.4</ele>
        <time>1970-01-01T02:40:51.000Z</time>
      </trkpt>
      <trkpt lat="42.77097" lon="0.698637">
        <ele>1191.8</ele>
        <time>1970-01-01T02:40:53.000Z</time>
      </trkpt>
      <trkpt lat="42.770947" lon="0.698408">
        <ele>1190.6</ele>
        <time>1970-01-01T02:40:55.000Z</time>
      </trkpt>
      <trkpt lat="42.770856" lon="0.698176">
        <ele>1189.2</ele>
        <time>1970-01-01T02:40:57.000Z</time>
      </trkpt>
      <trkpt lat="42.770799" lon="0.698046">
        <ele>1188</ele>
        <time>1970-01-01T02:40:58.000Z</time>
      </trkpt>
      <trkpt lat="42.770753" lon="0.697907">
        <ele>1186.6</ele>
        <time>1970-01-01T02:40:59.000Z</time>
      </trkpt>
      <trkpt lat="42.770719" lon="0.697758">
        <ele>1185.4</ele>
        <time>1970-01-01T02:41:00.000Z</time>
      </trkpt>
      <trkpt lat="42.770704" lon="0.697604">
        <ele>1184.4</ele>
        <time>1970-01-01T02:41:01.000Z</time>
      </trkpt>
      <trkpt lat="42.770698" lon="0.69745">
        <ele>1183.2</ele>
        <time>1970-01-01T02:41:02.000Z</time>
      </trkpt>
      <trkpt lat="42.770706" lon="0.697308">
        <ele>1182</ele>
        <time>1970-01-01T02:41:03.000Z</time>
      </trkpt>
      <trkpt lat="42.77072" lon="0.697194">
        <ele>1180.6</ele>
        <time>1970-01-01T02:41:04.000Z</time>
      </trkpt>
      <trkpt lat="42.770738" lon="0.697087">
        <ele>1179</ele>
        <time>1970-01-01T02:41:05.000Z</time>
      </trkpt>
      <trkpt lat="42.770749" lon="0.696992">
        <ele>1177.8</ele>
        <time>1970-01-01T02:41:06.000Z</time>
      </trkpt>
      <trkpt lat="42.770741" lon="0.696911">
        <ele>1176.6</ele>
        <time>1970-01-01T02:41:07.000Z</time>
      </trkpt>
      <trkpt lat="42.770665" lon="0.696795">
        <ele>1175.2</ele>
        <time>1970-01-01T02:41:09.000Z</time>
      </trkpt>
      <trkpt lat="42.770562" lon="0.696668">
        <ele>1174</ele>
        <time>1970-01-01T02:41:11.000Z</time>
      </trkpt>
      <trkpt lat="42.770445" lon="0.696523">
        <ele>1172.6</ele>
        <time>1970-01-01T02:41:13.000Z</time>
      </trkpt>
      <trkpt lat="42.770285" lon="0.696389">
        <ele>1171.2</ele>
        <time>1970-01-01T02:41:15.000Z</time>
      </trkpt>
      <trkpt lat="42.770201" lon="0.696318">
        <ele>1170</ele>
        <time>1970-01-01T02:41:16.000Z</time>
      </trkpt>
      <trkpt lat="42.770019" lon="0.696163">
        <ele>1168.8</ele>
        <time>1970-01-01T02:41:18.000Z</time>
      </trkpt>
      <trkpt lat="42.769931" lon="0.696069">
        <ele>1167.6</ele>
        <time>1970-01-01T02:41:19.000Z</time>
      </trkpt>
      <trkpt lat="42.769755" lon="0.695864">
        <ele>1165.4</ele>
        <time>1970-01-01T02:41:21.000Z</time>
      </trkpt>
      <trkpt lat="42.769551" lon="0.695681">
        <ele>1163.4</ele>
        <time>1970-01-01T02:41:23.000Z</time>
      </trkpt>
      <trkpt lat="42.769381" lon="0.695519">
        <ele>1161.2</ele>
        <time>1970-01-01T02:41:25.000Z</time>
      </trkpt>
      <trkpt lat="42.769315" lon="0.695448">
        <ele>1159.6</ele>
        <time>1970-01-01T02:41:26.000Z</time>
      </trkpt>
      <trkpt lat="42.769268" lon="0.695367">
        <ele>1158.6</ele>
        <time>1970-01-01T02:41:27.000Z</time>
      </trkpt>
      <trkpt lat="42.769235" lon="0.695265">
        <ele>1157.4</ele>
        <time>1970-01-01T02:41:28.000Z</time>
      </trkpt>
      <trkpt lat="42.769198" lon="0.695155">
        <ele>1156.2</ele>
        <time>1970-01-01T02:41:29.000Z</time>
      </trkpt>
      <trkpt lat="42.769145" lon="0.695047">
        <ele>1155.4</ele>
        <time>1970-01-01T02:41:30.000Z</time>
      </trkpt>
      <trkpt lat="42.76908" lon="0.694961">
        <ele>1154.8</ele>
        <time>1970-01-01T02:41:31.000Z</time>
      </trkpt>
      <trkpt lat="42.768899" lon="0.694835">
        <ele>1153.4</ele>
        <time>1970-01-01T02:41:33.000Z</time>
      </trkpt>
      <trkpt lat="42.768794" lon="0.694799">
        <ele>1152.4</ele>
        <time>1970-01-01T02:41:34.000Z</time>
      </trkpt>
      <trkpt lat="42.768679" lon="0.694823">
        <ele>1151.4</ele>
        <time>1970-01-01T02:41:35.000Z</time>
      </trkpt>
      <trkpt lat="42.768462" lon="0.694944">
        <ele>1149</ele>
        <time>1970-01-01T02:41:37.000Z</time>
      </trkpt>
      <trkpt lat="42.768369" lon="0.695016">
        <ele>1147.8</ele>
        <time>1970-01-01T02:41:38.000Z</time>
      </trkpt>
      <trkpt lat="42.768231" lon="0.695103">
        <ele>1146</ele>
        <time>1970-01-01T02:41:40.000Z</time>
      </trkpt>
      <trkpt lat="42.768128" lon="0.695067">
        <ele>1144.8</ele>
        <time>1970-01-01T02:41:42.000Z</time>
      </trkpt>
      <trkpt lat="42.768092" lon="0.694849">
        <ele>1143.6</ele>
        <time>1970-01-01T02:41:45.000Z</time>
      </trkpt>
      <trkpt lat="42.768204" lon="0.694653">
        <ele>1142.4</ele>
        <time>1970-01-01T02:41:48.000Z</time>
      </trkpt>
      <trkpt lat="42.768335" lon="0.694535">
        <ele>1141.4</ele>
        <time>1970-01-01T02:41:50.000Z</time>
      </trkpt>
      <trkpt lat="42.76841" lon="0.694486">
        <ele>1140.4</ele>
        <time>1970-01-01T02:41:51.000Z</time>
      </trkpt>
      <trkpt lat="42.768497" lon="0.694448">
        <ele>1139.6</ele>
        <time>1970-01-01T02:41:52.000Z</time>
      </trkpt>
      <trkpt lat="42.768683" lon="0.694429">
        <ele>1137.8</ele>
        <time>1970-01-01T02:41:54.000Z</time>
      </trkpt>
      <trkpt lat="42.768774" lon="0.694461">
        <ele>1136.8</ele>
        <time>1970-01-01T02:41:55.000Z</time>
      </trkpt>
      <trkpt lat="42.768951" lon="0.694589">
        <ele>1135.2</ele>
        <time>1970-01-01T02:41:57.000Z</time>
      </trkpt>
      <trkpt lat="42.769034" lon="0.694649">
        <ele>1134.2</ele>
        <time>1970-01-01T02:41:58.000Z</time>
      </trkpt>
      <trkpt lat="42.769119" lon="0.694678">
        <ele>1132.8</ele>
        <time>1970-01-01T02:41:59.000Z</time>
      </trkpt>
      <trkpt lat="42.769208" lon="0.694702">
        <ele>1131.2</ele>
        <time>1970-01-01T02:42:00.000Z</time>
      </trkpt>
      <trkpt lat="42.769296" lon="0.694734">
        <ele>1130</ele>
        <time>1970-01-01T02:42:01.000Z</time>
      </trkpt>
      <trkpt lat="42.769393" lon="0.694774">
        <ele>1129</ele>
        <time>1970-01-01T02:42:02.000Z</time>
      </trkpt>
      <trkpt lat="42.769497" lon="0.69483">
        <ele>1128</ele>
        <time>1970-01-01T02:42:03.000Z</time>
      </trkpt>
      <trkpt lat="42.769597" lon="0.694886">
        <ele>1127.2</ele>
        <time>1970-01-01T02:42:04.000Z</time>
      </trkpt>
      <trkpt lat="42.769705" lon="0.694947">
        <ele>1126</ele>
        <time>1970-01-01T02:42:05.000Z</time>
      </trkpt>
      <trkpt lat="42.769912" lon="0.695065">
        <ele>1123.6</ele>
        <time>1970-01-01T02:42:07.000Z</time>
      </trkpt>
      <trkpt lat="42.769998" lon="0.695149">
        <ele>1122.4</ele>
        <time>1970-01-01T02:42:08.000Z</time>
      </trkpt>
      <trkpt lat="42.770078" lon="0.695246">
        <ele>1121</ele>
        <time>1970-01-01T02:42:09.000Z</time>
      </trkpt>
      <trkpt lat="42.770148" lon="0.695344">
        <ele>1119.8</ele>
        <time>1970-01-01T02:42:10.000Z</time>
      </trkpt>
      <trkpt lat="42.770213" lon="0.69544">
        <ele>1118.8</ele>
        <time>1970-01-01T02:42:11.000Z</time>
      </trkpt>
      <trkpt lat="42.770348" lon="0.695609">
        <ele>1117.2</ele>
        <time>1970-01-01T02:42:13.000Z</time>
      </trkpt>
      <trkpt lat="42.770424" lon="0.695671">
        <ele>1116</ele>
        <time>1970-01-01T02:42:14.000Z</time>
      </trkpt>
      <trkpt lat="42.770615" lon="0.695763">
        <ele>1114.2</ele>
        <time>1970-01-01T02:42:16.000Z</time>
      </trkpt>
      <trkpt lat="42.770712" lon="0.695797">
        <ele>1113.2</ele>
        <time>1970-01-01T02:42:17.000Z</time>
      </trkpt>
      <trkpt lat="42.770806" lon="0.695816">
        <ele>1112</ele>
        <time>1970-01-01T02:42:18.000Z</time>
      </trkpt>
      <trkpt lat="42.77089" lon="0.695824">
        <ele>1111</ele>
        <time>1970-01-01T02:42:19.000Z</time>
      </trkpt>
      <trkpt lat="42.770953" lon="0.695825">
        <ele>1110.2</ele>
        <time>1970-01-01T02:42:20.000Z</time>
      </trkpt>
      <trkpt lat="42.77102" lon="0.695845">
        <ele>1109.4</ele>
        <time>1970-01-01T02:42:21.000Z</time>
      </trkpt>
      <trkpt lat="42.77114" lon="0.695961">
        <ele>1107.8</ele>
        <time>1970-01-01T02:42:23.000Z</time>
      </trkpt>
      <trkpt lat="42.771259" lon="0.696117">
        <ele>1106</ele>
        <time>1970-01-01T02:42:25.000Z</time>
      </trkpt>
      <trkpt lat="42.771323" lon="0.696207">
        <ele>1104.2</ele>
        <time>1970-01-01T02:42:26.000Z</time>
      </trkpt>
      <trkpt lat="42.77147" lon="0.696385">
        <ele>1102.6</ele>
        <time>1970-01-01T02:42:28.000Z</time>
      </trkpt>
      <trkpt lat="42.771618" lon="0.696567">
        <ele>1101.4</ele>
        <time>1970-01-01T02:42:30.000Z</time>
      </trkpt>
      <trkpt lat="42.771668" lon="0.696657">
        <ele>1100.4</ele>
        <time>1970-01-01T02:42:31.000Z</time>
      </trkpt>
      <trkpt lat="42.771714" lon="0.69674">
        <ele>1099.6</ele>
        <time>1970-01-01T02:42:32.000Z</time>
      </trkpt>
      <trkpt lat="42.771757" lon="0.696812">
        <ele>1098.6</ele>
        <time>1970-01-01T02:42:33.000Z</time>
      </trkpt>
      <trkpt lat="42.771789" lon="0.696851">
        <ele>1097.6</ele>
        <time>1970-01-01T02:42:34.000Z</time>
      </trkpt>
      <trkpt lat="42.771813" lon="0.69685">
        <ele>1096.4</ele>
        <time>1970-01-01T02:42:35.000Z</time>
      </trkpt>
      <trkpt lat="42.771844" lon="0.696789">
        <ele>1095</ele>
        <time>1970-01-01T02:42:37.000Z</time>
      </trkpt>
      <trkpt lat="42.771761" lon="0.69659">
        <ele>1093.6</ele>
        <time>1970-01-01T02:42:40.000Z</time>
      </trkpt>
      <trkpt lat="42.771726" lon="0.696509">
        <ele>1093.2</ele>
        <time>1970-01-01T02:42:41.000Z</time>
      </trkpt>
      <trkpt lat="42.771683" lon="0.696418">
        <ele>1092.6</ele>
        <time>1970-01-01T02:42:42.000Z</time>
      </trkpt>
      <trkpt lat="42.771582" lon="0.696229">
        <ele>1091</ele>
        <time>1970-01-01T02:42:44.000Z</time>
      </trkpt>
      <trkpt lat="42.771465" lon="0.696038">
        <ele>1089.6</ele>
        <time>1970-01-01T02:42:46.000Z</time>
      </trkpt>
      <trkpt lat="42.77134" lon="0.695817">
        <ele>1088.2</ele>
        <time>1970-01-01T02:42:48.000Z</time>
      </trkpt>
      <trkpt lat="42.771207" lon="0.695577">
        <ele>1086.2</ele>
        <time>1970-01-01T02:42:50.000Z</time>
      </trkpt>
      <trkpt lat="42.771128" lon="0.695474">
        <ele>1085.6</ele>
        <time>1970-01-01T02:42:51.000Z</time>
      </trkpt>
      <trkpt lat="42.771044" lon="0.695384">
        <ele>1084.8</ele>
        <time>1970-01-01T02:42:52.000Z</time>
      </trkpt>
      <trkpt lat="42.770969" lon="0.695291">
        <ele>1083.8</ele>
        <time>1970-01-01T02:42:53.000Z</time>
      </trkpt>
      <trkpt lat="42.770903" lon="0.695188">
        <ele>1082.8</ele>
        <time>1970-01-01T02:42:54.000Z</time>
      </trkpt>
      <trkpt lat="42.770838" lon="0.695075">
        <ele>1082</ele>
        <time>1970-01-01T02:42:55.000Z</time>
      </trkpt>
      <trkpt lat="42.770749" lon="0.694813">
        <ele>1080.2</ele>
        <time>1970-01-01T02:42:57.000Z</time>
      </trkpt>
      <trkpt lat="42.770652" lon="0.694587">
        <ele>1078.6</ele>
        <time>1970-01-01T02:42:59.000Z</time>
      </trkpt>
      <trkpt lat="42.770592" lon="0.694501">
        <ele>1077.4</ele>
        <time>1970-01-01T02:43:00.000Z</time>
      </trkpt>
      <trkpt lat="42.770535" lon="0.694433">
        <ele>1076.2</ele>
        <time>1970-01-01T02:43:01.000Z</time>
      </trkpt>
      <trkpt lat="42.770487" lon="0.69438">
        <ele>1074.8</ele>
        <time>1970-01-01T02:43:02.000Z</time>
      </trkpt>
      <trkpt lat="42.770471" lon="0.694332">
        <ele>1073.8</ele>
        <time>1970-01-01T02:43:03.000Z</time>
      </trkpt>
      <trkpt lat="42.770501" lon="0.694268">
        <ele>1072</ele>
        <time>1970-01-01T02:43:05.000Z</time>
      </trkpt>
      <trkpt lat="42.770609" lon="0.694303">
        <ele>1071</ele>
        <time>1970-01-01T02:43:07.000Z</time>
      </trkpt>
      <trkpt lat="42.770711" lon="0.694446">
        <ele>1069.6</ele>
        <time>1970-01-01T02:43:09.000Z</time>
      </trkpt>
      <trkpt lat="42.77076" lon="0.694547">
        <ele>1068.6</ele>
        <time>1970-01-01T02:43:10.000Z</time>
      </trkpt>
      <trkpt lat="42.770805" lon="0.694649">
        <ele>1067.8</ele>
        <time>1970-01-01T02:43:11.000Z</time>
      </trkpt>
      <trkpt lat="42.770861" lon="0.694749">
        <ele>1067</ele>
        <time>1970-01-01T02:43:12.000Z</time>
      </trkpt>
      <trkpt lat="42.770978" lon="0.694914">
        <ele>1065.4</ele>
        <time>1970-01-01T02:43:14.000Z</time>
      </trkpt>
      <trkpt lat="42.77106" lon="0.694975">
        <ele>1064.4</ele>
        <time>1970-01-01T02:43:15.000Z</time>
      </trkpt>
      <trkpt lat="42.771152" lon="0.695029">
        <ele>1063.8</ele>
        <time>1970-01-01T02:43:16.000Z</time>
      </trkpt>
      <trkpt lat="42.771334" lon="0.695121">
        <ele>1062.2</ele>
        <time>1970-01-01T02:43:18.000Z</time>
      </trkpt>
      <trkpt lat="42.771431" lon="0.695173">
        <ele>1061.2</ele>
        <time>1970-01-01T02:43:19.000Z</time>
      </trkpt>
      <trkpt lat="42.771598" lon="0.695319">
        <ele>1059</ele>
        <time>1970-01-01T02:43:21.000Z</time>
      </trkpt>
      <trkpt lat="42.771695" lon="0.695389">
        <ele>1057.8</ele>
        <time>1970-01-01T02:43:22.000Z</time>
      </trkpt>
      <trkpt lat="42.771792" lon="0.695472">
        <ele>1056.8</ele>
        <time>1970-01-01T02:43:23.000Z</time>
      </trkpt>
      <trkpt lat="42.771892" lon="0.695576">
        <ele>1055.4</ele>
        <time>1970-01-01T02:43:24.000Z</time>
      </trkpt>
      <trkpt lat="42.771988" lon="0.695688">
        <ele>1054.2</ele>
        <time>1970-01-01T02:43:25.000Z</time>
      </trkpt>
      <trkpt lat="42.772133" lon="0.695916">
        <ele>1052.4</ele>
        <time>1970-01-01T02:43:27.000Z</time>
      </trkpt>
      <trkpt lat="42.772191" lon="0.696007">
        <ele>1051.2</ele>
        <time>1970-01-01T02:43:28.000Z</time>
      </trkpt>
      <trkpt lat="42.772245" lon="0.696066">
        <ele>1050.4</ele>
        <time>1970-01-01T02:43:29.000Z</time>
      </trkpt>
      <trkpt lat="42.772303" lon="0.696089">
        <ele>1049.6</ele>
        <time>1970-01-01T02:43:30.000Z</time>
      </trkpt>
      <trkpt lat="42.772368" lon="0.696023">
        <ele>1048.4</ele>
        <time>1970-01-01T02:43:32.000Z</time>
      </trkpt>
      <trkpt lat="42.772343" lon="0.695848">
        <ele>1047.2</ele>
        <time>1970-01-01T02:43:34.000Z</time>
      </trkpt>
      <trkpt lat="42.77227" lon="0.69565">
        <ele>1046</ele>
        <time>1970-01-01T02:43:36.000Z</time>
      </trkpt>
      <trkpt lat="42.772188" lon="0.695416">
        <ele>1044.4</ele>
        <time>1970-01-01T02:43:38.000Z</time>
      </trkpt>
      <trkpt lat="42.77211" lon="0.695164">
        <ele>1042.6</ele>
        <time>1970-01-01T02:43:40.000Z</time>
      </trkpt>
      <trkpt lat="42.772071" lon="0.695044">
        <ele>1041.6</ele>
        <time>1970-01-01T02:43:41.000Z</time>
      </trkpt>
      <trkpt lat="42.772016" lon="0.694949">
        <ele>1040.8</ele>
        <time>1970-01-01T02:43:42.000Z</time>
      </trkpt>
      <trkpt lat="42.771864" lon="0.694814">
        <ele>1039</ele>
        <time>1970-01-01T02:43:44.000Z</time>
      </trkpt>
      <trkpt lat="42.771773" lon="0.694747">
        <ele>1037.6</ele>
        <time>1970-01-01T02:43:45.000Z</time>
      </trkpt>
      <trkpt lat="42.771575" lon="0.69458">
        <ele>1036</ele>
        <time>1970-01-01T02:43:47.000Z</time>
      </trkpt>
      <trkpt lat="42.771482" lon="0.694483">
        <ele>1034.6</ele>
        <time>1970-01-01T02:43:48.000Z</time>
      </trkpt>
      <trkpt lat="42.771396" lon="0.694388">
        <ele>1033.4</ele>
        <time>1970-01-01T02:43:49.000Z</time>
      </trkpt>
      <trkpt lat="42.771319" lon="0.694304">
        <ele>1032.2</ele>
        <time>1970-01-01T02:43:50.000Z</time>
      </trkpt>
      <trkpt lat="42.771206" lon="0.694178">
        <ele>1030.6</ele>
        <time>1970-01-01T02:43:52.000Z</time>
      </trkpt>
      <trkpt lat="42.771197" lon="0.694123">
        <ele>1029.4</ele>
        <time>1970-01-01T02:43:53.000Z</time>
      </trkpt>
      <trkpt lat="42.771205" lon="0.694068">
        <ele>1028.2</ele>
        <time>1970-01-01T02:43:54.000Z</time>
      </trkpt>
      <trkpt lat="42.771284" lon="0.694041">
        <ele>1026.6</ele>
        <time>1970-01-01T02:43:56.000Z</time>
      </trkpt>
      <trkpt lat="42.771384" lon="0.694147">
        <ele>1025.4</ele>
        <time>1970-01-01T02:43:58.000Z</time>
      </trkpt>
      <trkpt lat="42.771517" lon="0.694283">
        <ele>1024.2</ele>
        <time>1970-01-01T02:44:00.000Z</time>
      </trkpt>
      <trkpt lat="42.771683" lon="0.694362">
        <ele>1022.8</ele>
        <time>1970-01-01T02:44:02.000Z</time>
      </trkpt>
      <trkpt lat="42.771893" lon="0.6944">
        <ele>1021.4</ele>
        <time>1970-01-01T02:44:04.000Z</time>
      </trkpt>
      <trkpt lat="42.772095" lon="0.694442">
        <ele>1019.6</ele>
        <time>1970-01-01T02:44:06.000Z</time>
      </trkpt>
      <trkpt lat="42.772193" lon="0.694484">
        <ele>1018.4</ele>
        <time>1970-01-01T02:44:07.000Z</time>
      </trkpt>
      <trkpt lat="42.772275" lon="0.694554">
        <ele>1017.4</ele>
        <time>1970-01-01T02:44:08.000Z</time>
      </trkpt>
      <trkpt lat="42.772423" lon="0.694742">
        <ele>1016</ele>
        <time>1970-01-01T02:44:10.000Z</time>
      </trkpt>
      <trkpt lat="42.772575" lon="0.694959">
        <ele>1014</ele>
        <time>1970-01-01T02:44:12.000Z</time>
      </trkpt>
      <trkpt lat="42.772687" lon="0.695226">
        <ele>1012.2</ele>
        <time>1970-01-01T02:44:14.000Z</time>
      </trkpt>
      <trkpt lat="42.772727" lon="0.695368">
        <ele>1011.2</ele>
        <time>1970-01-01T02:44:15.000Z</time>
      </trkpt>
      <trkpt lat="42.772768" lon="0.695499">
        <ele>1010.2</ele>
        <time>1970-01-01T02:44:16.000Z</time>
      </trkpt>
      <trkpt lat="42.77281" lon="0.695608">
        <ele>1009</ele>
        <time>1970-01-01T02:44:17.000Z</time>
      </trkpt>
      <trkpt lat="42.772858" lon="0.69569">
        <ele>1007.8</ele>
        <time>1970-01-01T02:44:18.000Z</time>
      </trkpt>
      <trkpt lat="42.772911" lon="0.695751">
        <ele>1006.8</ele>
        <time>1970-01-01T02:44:19.000Z</time>
      </trkpt>
      <trkpt lat="42.772969" lon="0.695795">
        <ele>1005.4</ele>
        <time>1970-01-01T02:44:20.000Z</time>
      </trkpt>
      <trkpt lat="42.77303" lon="0.695834">
        <ele>1004.6</ele>
        <time>1970-01-01T02:44:21.000Z</time>
      </trkpt>
      <trkpt lat="42.773097" lon="0.695868">
        <ele>1003.6</ele>
        <time>1970-01-01T02:44:22.000Z</time>
      </trkpt>
      <trkpt lat="42.773256" lon="0.695935">
        <ele>1001.6</ele>
        <time>1970-01-01T02:44:24.000Z</time>
      </trkpt>
      <trkpt lat="42.773334" lon="0.695979">
        <ele>1000.6</ele>
        <time>1970-01-01T02:44:25.000Z</time>
      </trkpt>
      <trkpt lat="42.77349" lon="0.696108">
        <ele>998.6</ele>
        <time>1970-01-01T02:44:27.000Z</time>
      </trkpt>
      <trkpt lat="42.773569" lon="0.696188">
        <ele>997.6</ele>
        <time>1970-01-01T02:44:28.000Z</time>
      </trkpt>
      <trkpt lat="42.773648" lon="0.696273">
        <ele>996.4</ele>
        <time>1970-01-01T02:44:29.000Z</time>
      </trkpt>
      <trkpt lat="42.773812" lon="0.696463">
        <ele>994.8</ele>
        <time>1970-01-01T02:44:31.000Z</time>
      </trkpt>
      <trkpt lat="42.773975" lon="0.696681">
        <ele>993</ele>
        <time>1970-01-01T02:44:33.000Z</time>
      </trkpt>
      <trkpt lat="42.77406" lon="0.696785">
        <ele>991.6</ele>
        <time>1970-01-01T02:44:34.000Z</time>
      </trkpt>
      <trkpt lat="42.774131" lon="0.696895">
        <ele>990.4</ele>
        <time>1970-01-01T02:44:35.000Z</time>
      </trkpt>
      <trkpt lat="42.774186" lon="0.697009">
        <ele>989.4</ele>
        <time>1970-01-01T02:44:36.000Z</time>
      </trkpt>
      <trkpt lat="42.77423" lon="0.697131">
        <ele>988</ele>
        <time>1970-01-01T02:44:37.000Z</time>
      </trkpt>
      <trkpt lat="42.774273" lon="0.697252">
        <ele>986.6</ele>
        <time>1970-01-01T02:44:38.000Z</time>
      </trkpt>
      <trkpt lat="42.77437" lon="0.697476">
        <ele>984.2</ele>
        <time>1970-01-01T02:44:40.000Z</time>
      </trkpt>
      <trkpt lat="42.774428" lon="0.697568">
        <ele>983.2</ele>
        <time>1970-01-01T02:44:41.000Z</time>
      </trkpt>
      <trkpt lat="42.774526" lon="0.697731">
        <ele>981.6</ele>
        <time>1970-01-01T02:44:43.000Z</time>
      </trkpt>
      <trkpt lat="42.774578" lon="0.69792">
        <ele>980.4</ele>
        <time>1970-01-01T02:44:45.000Z</time>
      </trkpt>
      <trkpt lat="42.774594" lon="0.69803">
        <ele>979.6</ele>
        <time>1970-01-01T02:44:46.000Z</time>
      </trkpt>
      <trkpt lat="42.774618" lon="0.698141">
        <ele>979</ele>
        <time>1970-01-01T02:44:47.000Z</time>
      </trkpt>
      <trkpt lat="42.77468" lon="0.698336">
        <ele>977.2</ele>
        <time>1970-01-01T02:44:49.000Z</time>
      </trkpt>
      <trkpt lat="42.774789" lon="0.698466">
        <ele>975.8</ele>
        <time>1970-01-01T02:44:51.000Z</time>
      </trkpt>
      <trkpt lat="42.774915" lon="0.69858">
        <ele>974.4</ele>
        <time>1970-01-01T02:44:53.000Z</time>
      </trkpt>
      <trkpt lat="42.774983" lon="0.698732">
        <ele>972.6</ele>
        <time>1970-01-01T02:44:55.000Z</time>
      </trkpt>
      <trkpt lat="42.774981" lon="0.698826">
        <ele>971.4</ele>
        <time>1970-01-01T02:44:56.000Z</time>
      </trkpt>
      <trkpt lat="42.774978" lon="0.698931">
        <ele>970.6</ele>
        <time>1970-01-01T02:44:57.000Z</time>
      </trkpt>
      <trkpt lat="42.774988" lon="0.699038">
        <ele>970</ele>
        <time>1970-01-01T02:44:58.000Z</time>
      </trkpt>
      <trkpt lat="42.775023" lon="0.699229">
        <ele>968.4</ele>
        <time>1970-01-01T02:45:00.000Z</time>
      </trkpt>
      <trkpt lat="42.775096" lon="0.699334">
        <ele>966.6</ele>
        <time>1970-01-01T02:45:02.000Z</time>
      </trkpt>
      <trkpt lat="42.775181" lon="0.699321">
        <ele>965</ele>
        <time>1970-01-01T02:45:04.000Z</time>
      </trkpt>
      <trkpt lat="42.775173" lon="0.699174">
        <ele>964</ele>
        <time>1970-01-01T02:45:06.000Z</time>
      </trkpt>
      <trkpt lat="42.775157" lon="0.698996">
        <ele>962.4</ele>
        <time>1970-01-01T02:45:08.000Z</time>
      </trkpt>
      <trkpt lat="42.77518" lon="0.698789">
        <ele>961.6</ele>
        <time>1970-01-01T02:45:10.000Z</time>
      </trkpt>
      <trkpt lat="42.775166" lon="0.698563">
        <ele>960.2</ele>
        <time>1970-01-01T02:45:12.000Z</time>
      </trkpt>
      <trkpt lat="42.775107" lon="0.698324">
        <ele>958.4</ele>
        <time>1970-01-01T02:45:14.000Z</time>
      </trkpt>
      <trkpt lat="42.775056" lon="0.69812">
        <ele>956.6</ele>
        <time>1970-01-01T02:45:16.000Z</time>
      </trkpt>
      <trkpt lat="42.775066" lon="0.697924">
        <ele>954.6</ele>
        <time>1970-01-01T02:45:18.000Z</time>
      </trkpt>
      <trkpt lat="42.775125" lon="0.697733">
        <ele>953.2</ele>
        <time>1970-01-01T02:45:20.000Z</time>
      </trkpt>
      <trkpt lat="42.775141" lon="0.697631">
        <ele>952.4</ele>
        <time>1970-01-01T02:45:21.000Z</time>
      </trkpt>
      <trkpt lat="42.775135" lon="0.697519">
        <ele>951.6</ele>
        <time>1970-01-01T02:45:22.000Z</time>
      </trkpt>
      <trkpt lat="42.775084" lon="0.697285">
        <ele>950.2</ele>
        <time>1970-01-01T02:45:24.000Z</time>
      </trkpt>
      <trkpt lat="42.77501" lon="0.697042">
        <ele>948.6</ele>
        <time>1970-01-01T02:45:26.000Z</time>
      </trkpt>
      <trkpt lat="42.774917" lon="0.696787">
        <ele>947.4</ele>
        <time>1970-01-01T02:45:28.000Z</time>
      </trkpt>
      <trkpt lat="42.774825" lon="0.696516">
        <ele>945.4</ele>
        <time>1970-01-01T02:45:30.000Z</time>
      </trkpt>
      <trkpt lat="42.774759" lon="0.696239">
        <ele>943.4</ele>
        <time>1970-01-01T02:45:32.000Z</time>
      </trkpt>
      <trkpt lat="42.77473" lon="0.696092">
        <ele>942.2</ele>
        <time>1970-01-01T02:45:33.000Z</time>
      </trkpt>
      <trkpt lat="42.774708" lon="0.695941">
        <ele>941</ele>
        <time>1970-01-01T02:45:34.000Z</time>
      </trkpt>
      <trkpt lat="42.774691" lon="0.695788">
        <ele>939.6</ele>
        <time>1970-01-01T02:45:35.000Z</time>
      </trkpt>
      <trkpt lat="42.774684" lon="0.695634">
        <ele>938.6</ele>
        <time>1970-01-01T02:45:36.000Z</time>
      </trkpt>
      <trkpt lat="42.774655" lon="0.695363">
        <ele>936.8</ele>
        <time>1970-01-01T02:45:38.000Z</time>
      </trkpt>
      <trkpt lat="42.774636" lon="0.695258">
        <ele>935.6</ele>
        <time>1970-01-01T02:45:39.000Z</time>
      </trkpt>
      <trkpt lat="42.774631" lon="0.69517">
        <ele>934.6</ele>
        <time>1970-01-01T02:45:40.000Z</time>
      </trkpt>
      <trkpt lat="42.77467" lon="0.695074">
        <ele>932.8</ele>
        <time>1970-01-01T02:45:42.000Z</time>
      </trkpt>
      <trkpt lat="42.774733" lon="0.695128">
        <ele>931.4</ele>
        <time>1970-01-01T02:45:44.000Z</time>
      </trkpt>
      <trkpt lat="42.774765" lon="0.69529">
        <ele>930</ele>
        <time>1970-01-01T02:45:46.000Z</time>
      </trkpt>
      <trkpt lat="42.774774" lon="0.695386">
        <ele>929.4</ele>
        <time>1970-01-01T02:45:47.000Z</time>
      </trkpt>
      <trkpt lat="42.774789" lon="0.695486">
        <ele>928.8</ele>
        <time>1970-01-01T02:45:48.000Z</time>
      </trkpt>
      <trkpt lat="42.774837" lon="0.695687">
        <ele>928</ele>
        <time>1970-01-01T02:45:50.000Z</time>
      </trkpt>
      <trkpt lat="42.774877" lon="0.69579">
        <ele>927.4</ele>
        <time>1970-01-01T02:45:51.000Z</time>
      </trkpt>
      <trkpt lat="42.774978" lon="0.695986">
        <ele>926.2</ele>
        <time>1970-01-01T02:45:53.000Z</time>
      </trkpt>
      <trkpt lat="42.775109" lon="0.696174">
        <ele>924.6</ele>
        <time>1970-01-01T02:45:55.000Z</time>
      </trkpt>
      <trkpt lat="42.775182" lon="0.696267">
        <ele>923</ele>
        <time>1970-01-01T02:45:56.000Z</time>
      </trkpt>
      <trkpt lat="42.775254" lon="0.696348">
        <ele>922</ele>
        <time>1970-01-01T02:45:57.000Z</time>
      </trkpt>
      <trkpt lat="42.77542" lon="0.696462">
        <ele>920.6</ele>
        <time>1970-01-01T02:45:59.000Z</time>
      </trkpt>
      <trkpt lat="42.77562" lon="0.696528">
        <ele>918.8</ele>
        <time>1970-01-01T02:46:01.000Z</time>
      </trkpt>
      <trkpt lat="42.775721" lon="0.696571">
        <ele>918.2</ele>
        <time>1970-01-01T02:46:02.000Z</time>
      </trkpt>
      <trkpt lat="42.775817" lon="0.696635">
        <ele>917.2</ele>
        <time>1970-01-01T02:46:03.000Z</time>
      </trkpt>
      <trkpt lat="42.775906" lon="0.696718">
        <ele>916</ele>
        <time>1970-01-01T02:46:04.000Z</time>
      </trkpt>
      <trkpt lat="42.775979" lon="0.696818">
        <ele>914.4</ele>
        <time>1970-01-01T02:46:05.000Z</time>
      </trkpt>
      <trkpt lat="42.776036" lon="0.696928">
        <ele>913</ele>
        <time>1970-01-01T02:46:06.000Z</time>
      </trkpt>
      <trkpt lat="42.776081" lon="0.697045">
        <ele>911.8</ele>
        <time>1970-01-01T02:46:07.000Z</time>
      </trkpt>
      <trkpt lat="42.776116" lon="0.697169">
        <ele>910.4</ele>
        <time>1970-01-01T02:46:08.000Z</time>
      </trkpt>
      <trkpt lat="42.77616" lon="0.697415">
        <ele>909</ele>
        <time>1970-01-01T02:46:10.000Z</time>
      </trkpt>
      <trkpt lat="42.776168" lon="0.697643">
        <ele>907.6</ele>
        <time>1970-01-01T02:46:12.000Z</time>
      </trkpt>
      <trkpt lat="42.776145" lon="0.697886">
        <ele>906</ele>
        <time>1970-01-01T02:46:14.000Z</time>
      </trkpt>
      <trkpt lat="42.776118" lon="0.698117">
        <ele>904.4</ele>
        <time>1970-01-01T02:46:16.000Z</time>
      </trkpt>
      <trkpt lat="42.776111" lon="0.69821">
        <ele>903.4</ele>
        <time>1970-01-01T02:46:17.000Z</time>
      </trkpt>
      <trkpt lat="42.776117" lon="0.698281">
        <ele>902.8</ele>
        <time>1970-01-01T02:46:18.000Z</time>
      </trkpt>
      <trkpt lat="42.776178" lon="0.698348">
        <ele>901.4</ele>
        <time>1970-01-01T02:46:20.000Z</time>
      </trkpt>
      <trkpt lat="42.776233" lon="0.698269">
        <ele>899.8</ele>
        <time>1970-01-01T02:46:22.000Z</time>
      </trkpt>
      <trkpt lat="42.77627" lon="0.698069">
        <ele>898.4</ele>
        <time>1970-01-01T02:46:24.000Z</time>
      </trkpt>
      <trkpt lat="42.776304" lon="0.697955">
        <ele>897.4</ele>
        <time>1970-01-01T02:46:25.000Z</time>
      </trkpt>
      <trkpt lat="42.776341" lon="0.697837">
        <ele>896.6</ele>
        <time>1970-01-01T02:46:26.000Z</time>
      </trkpt>
      <trkpt lat="42.776432" lon="0.697591">
        <ele>895</ele>
        <time>1970-01-01T02:46:28.000Z</time>
      </trkpt>
      <trkpt lat="42.776463" lon="0.697458">
        <ele>894.2</ele>
        <time>1970-01-01T02:46:29.000Z</time>
      </trkpt>
      <trkpt lat="42.776481" lon="0.697315">
        <ele>893.6</ele>
        <time>1970-01-01T02:46:30.000Z</time>
      </trkpt>
      <trkpt lat="42.776478" lon="0.697018">
        <ele>891.8</ele>
        <time>1970-01-01T02:46:32.000Z</time>
      </trkpt>
      <trkpt lat="42.776457" lon="0.696726">
        <ele>890.6</ele>
        <time>1970-01-01T02:46:34.000Z</time>
      </trkpt>
      <trkpt lat="42.776386" lon="0.696446">
        <ele>889.4</ele>
        <time>1970-01-01T02:46:36.000Z</time>
      </trkpt>
      <trkpt lat="42.776189" lon="0.696084">
        <ele>887.8</ele>
        <time>1970-01-01T02:46:39.000Z</time>
      </trkpt>
      <trkpt lat="42.776115" lon="0.695967">
        <ele>887</ele>
        <time>1970-01-01T02:46:40.000Z</time>
      </trkpt>
      <trkpt lat="42.776045" lon="0.695853">
        <ele>886</ele>
        <time>1970-01-01T02:46:41.000Z</time>
      </trkpt>
      <trkpt lat="42.775981" lon="0.695741">
        <ele>884.6</ele>
        <time>1970-01-01T02:46:42.000Z</time>
      </trkpt>
      <trkpt lat="42.775921" lon="0.695631">
        <ele>883.2</ele>
        <time>1970-01-01T02:46:43.000Z</time>
      </trkpt>
      <trkpt lat="42.775873" lon="0.695521">
        <ele>882</ele>
        <time>1970-01-01T02:46:44.000Z</time>
      </trkpt>
      <trkpt lat="42.775855" lon="0.695268">
        <ele>880</ele>
        <time>1970-01-01T02:46:46.000Z</time>
      </trkpt>
      <trkpt lat="42.775863" lon="0.695134">
        <ele>878.8</ele>
        <time>1970-01-01T02:46:47.000Z</time>
      </trkpt>
      <trkpt lat="42.775886" lon="0.69487">
        <ele>877</ele>
        <time>1970-01-01T02:46:49.000Z</time>
      </trkpt>
      <trkpt lat="42.775903" lon="0.694733">
        <ele>876.6</ele>
        <time>1970-01-01T02:46:50.000Z</time>
      </trkpt>
      <trkpt lat="42.775919" lon="0.694598">
        <ele>876</ele>
        <time>1970-01-01T02:46:51.000Z</time>
      </trkpt>
      <trkpt lat="42.775928" lon="0.694352">
        <ele>874.4</ele>
        <time>1970-01-01T02:46:53.000Z</time>
      </trkpt>
      <trkpt lat="42.775894" lon="0.694122">
        <ele>873.2</ele>
        <time>1970-01-01T02:46:55.000Z</time>
      </trkpt>
      <trkpt lat="42.775826" lon="0.693903">
        <ele>872</ele>
        <time>1970-01-01T02:46:57.000Z</time>
      </trkpt>
      <trkpt lat="42.775785" lon="0.693791">
        <ele>871.6</ele>
        <time>1970-01-01T02:46:58.000Z</time>
      </trkpt>
      <trkpt lat="42.775685" lon="0.693571">
        <ele>870.6</ele>
        <time>1970-01-01T02:47:00.000Z</time>
      </trkpt>
      <trkpt lat="42.775567" lon="0.693376">
        <ele>869.6</ele>
        <time>1970-01-01T02:47:02.000Z</time>
      </trkpt>
      <trkpt lat="42.775421" lon="0.693205">
        <ele>868.4</ele>
        <time>1970-01-01T02:47:04.000Z</time>
      </trkpt>
      <trkpt lat="42.775264" lon="0.693019">
        <ele>866.8</ele>
        <time>1970-01-01T02:47:06.000Z</time>
      </trkpt>
      <trkpt lat="42.775123" lon="0.692813">
        <ele>864.8</ele>
        <time>1970-01-01T02:47:08.000Z</time>
      </trkpt>
      <trkpt lat="42.774982" lon="0.692645">
        <ele>863.2</ele>
        <time>1970-01-01T02:47:10.000Z</time>
      </trkpt>
      <trkpt lat="42.774733" lon="0.69254">
        <ele>862.2</ele>
        <time>1970-01-01T02:47:13.000Z</time>
      </trkpt>
      <trkpt lat="42.774585" lon="0.692545">
        <ele>861.2</ele>
        <time>1970-01-01T02:47:15.000Z</time>
      </trkpt>
      <trkpt lat="42.774507" lon="0.692476">
        <ele>859.8</ele>
        <time>1970-01-01T02:47:17.000Z</time>
      </trkpt>
      <trkpt lat="42.774569" lon="0.692362">
        <ele>858.2</ele>
        <time>1970-01-01T02:47:19.000Z</time>
      </trkpt>
      <trkpt lat="42.774694" lon="0.692332">
        <ele>856.8</ele>
        <time>1970-01-01T02:47:21.000Z</time>
      </trkpt>
      <trkpt lat="42.774859" lon="0.692303">
        <ele>855.4</ele>
        <time>1970-01-01T02:47:23.000Z</time>
      </trkpt>
      <trkpt lat="42.774951" lon="0.692277">
        <ele>854.6</ele>
        <time>1970-01-01T02:47:24.000Z</time>
      </trkpt>
      <trkpt lat="42.775043" lon="0.692258">
        <ele>853.8</ele>
        <time>1970-01-01T02:47:25.000Z</time>
      </trkpt>
      <trkpt lat="42.775136" lon="0.692264">
        <ele>852.8</ele>
        <time>1970-01-01T02:47:26.000Z</time>
      </trkpt>
      <trkpt lat="42.775234" lon="0.692313">
        <ele>851.8</ele>
        <time>1970-01-01T02:47:27.000Z</time>
      </trkpt>
      <trkpt lat="42.77543" lon="0.692427">
        <ele>850</ele>
        <time>1970-01-01T02:47:29.000Z</time>
      </trkpt>
      <trkpt lat="42.775523" lon="0.692482">
        <ele>848.8</ele>
        <time>1970-01-01T02:47:30.000Z</time>
      </trkpt>
      <trkpt lat="42.775616" lon="0.692552">
        <ele>847.8</ele>
        <time>1970-01-01T02:47:31.000Z</time>
      </trkpt>
      <trkpt lat="42.775693" lon="0.69264">
        <ele>847.2</ele>
        <time>1970-01-01T02:47:32.000Z</time>
      </trkpt>
      <trkpt lat="42.775756" lon="0.692744">
        <ele>846.2</ele>
        <time>1970-01-01T02:47:33.000Z</time>
      </trkpt>
      <trkpt lat="42.775877" lon="0.69296">
        <ele>844.6</ele>
        <time>1970-01-01T02:47:35.000Z</time>
      </trkpt>
      <trkpt lat="42.77603" lon="0.693126">
        <ele>842.6</ele>
        <time>1970-01-01T02:47:37.000Z</time>
      </trkpt>
      <trkpt lat="42.776194" lon="0.693292">
        <ele>840.4</ele>
        <time>1970-01-01T02:47:39.000Z</time>
      </trkpt>
      <trkpt lat="42.776275" lon="0.693393">
        <ele>839.4</ele>
        <time>1970-01-01T02:47:40.000Z</time>
      </trkpt>
      <trkpt lat="42.776359" lon="0.693499">
        <ele>837.8</ele>
        <time>1970-01-01T02:47:41.000Z</time>
      </trkpt>
      <trkpt lat="42.776434" lon="0.693605">
        <ele>836.4</ele>
        <time>1970-01-01T02:47:42.000Z</time>
      </trkpt>
      <trkpt lat="42.776485" lon="0.693726">
        <ele>835.4</ele>
        <time>1970-01-01T02:47:43.000Z</time>
      </trkpt>
      <trkpt lat="42.776531" lon="0.693856">
        <ele>834</ele>
        <time>1970-01-01T02:47:44.000Z</time>
      </trkpt>
      <trkpt lat="42.776564" lon="0.693994">
        <ele>832.6</ele>
        <time>1970-01-01T02:47:45.000Z</time>
      </trkpt>
      <trkpt lat="42.776585" lon="0.694144">
        <ele>831.4</ele>
        <time>1970-01-01T02:47:46.000Z</time>
      </trkpt>
      <trkpt lat="42.776609" lon="0.6943">
        <ele>830.2</ele>
        <time>1970-01-01T02:47:47.000Z</time>
      </trkpt>
      <trkpt lat="42.77664" lon="0.694455">
        <ele>829.2</ele>
        <time>1970-01-01T02:47:48.000Z</time>
      </trkpt>
      <trkpt lat="42.776683" lon="0.694605">
        <ele>827.8</ele>
        <time>1970-01-01T02:47:49.000Z</time>
      </trkpt>
      <trkpt lat="42.776744" lon="0.694746">
        <ele>826.2</ele>
        <time>1970-01-01T02:47:50.000Z</time>
      </trkpt>
      <trkpt lat="42.776815" lon="0.694872">
        <ele>825</ele>
        <time>1970-01-01T02:47:51.000Z</time>
      </trkpt>
      <trkpt lat="42.777014" lon="0.69507">
        <ele>823.4</ele>
        <time>1970-01-01T02:47:53.000Z</time>
      </trkpt>
      <trkpt lat="42.777194" lon="0.69525">
        <ele>822</ele>
        <time>1970-01-01T02:47:55.000Z</time>
      </trkpt>
      <trkpt lat="42.777354" lon="0.695378">
        <ele>820.8</ele>
        <time>1970-01-01T02:47:57.000Z</time>
      </trkpt>
      <trkpt lat="42.777523" lon="0.695478">
        <ele>820.2</ele>
        <time>1970-01-01T02:48:00.000Z</time>
      </trkpt>
      <trkpt lat="42.777566" lon="0.695518">
        <ele>820</ele>
        <time>1970-01-01T02:48:01.000Z</time>
      </trkpt>
      <trkpt lat="42.777631" lon="0.695646">
        <ele>819</ele>
        <time>1970-01-01T02:48:03.000Z</time>
      </trkpt>
      <trkpt lat="42.77767" lon="0.695768">
        <ele>817.2</ele>
        <time>1970-01-01T02:48:05.000Z</time>
      </trkpt>
      <trkpt lat="42.777694" lon="0.695839">
        <ele>816.2</ele>
        <time>1970-01-01T02:48:07.000Z</time>
      </trkpt>
      <trkpt lat="42.777716" lon="0.69588">
        <ele>814.8</ele>
        <time>1970-01-01T02:48:09.000Z</time>
      </trkpt>
      <trkpt lat="42.777819" lon="0.696038">
        <ele>813.8</ele>
        <time>1970-01-01T02:48:13.000Z</time>
      </trkpt>
      <trkpt lat="42.7779" lon="0.696163">
        <ele>812.4</ele>
        <time>1970-01-01T02:48:15.000Z</time>
      </trkpt>
      <trkpt lat="42.778005" lon="0.696304">
        <ele>810.6</ele>
        <time>1970-01-01T02:48:17.000Z</time>
      </trkpt>
      <trkpt lat="42.7781" lon="0.696453">
        <ele>809.6</ele>
        <time>1970-01-01T02:48:19.000Z</time>
      </trkpt>
      <trkpt lat="42.778155" lon="0.696506">
        <ele>808.8</ele>
        <time>1970-01-01T02:48:20.000Z</time>
      </trkpt>
      <trkpt lat="42.778198" lon="0.696544">
        <ele>807.6</ele>
        <time>1970-01-01T02:48:21.000Z</time>
      </trkpt>
      <trkpt lat="42.778284" lon="0.696611">
        <ele>805.8</ele>
        <time>1970-01-01T02:48:23.000Z</time>
      </trkpt>
      <trkpt lat="42.778339" lon="0.696641">
        <ele>805.2</ele>
        <time>1970-01-01T02:48:24.000Z</time>
      </trkpt>
      <trkpt lat="42.778404" lon="0.696655">
        <ele>804.4</ele>
        <time>1970-01-01T02:48:25.000Z</time>
      </trkpt>
      <trkpt lat="42.778522" lon="0.696632">
        <ele>803.2</ele>
        <time>1970-01-01T02:48:27.000Z</time>
      </trkpt>
      <trkpt lat="42.778643" lon="0.696518">
        <ele>802</ele>
        <time>1970-01-01T02:48:29.000Z</time>
      </trkpt>
      <trkpt lat="42.778705" lon="0.696439">
        <ele>801.4</ele>
        <time>1970-01-01T02:48:30.000Z</time>
      </trkpt>
      <trkpt lat="42.778767" lon="0.696365">
        <ele>800.8</ele>
        <time>1970-01-01T02:48:31.000Z</time>
      </trkpt>
      <trkpt lat="42.778842" lon="0.696299">
        <ele>800.4</ele>
        <time>1970-01-01T02:48:32.000Z</time>
      </trkpt>
      <trkpt lat="42.779001" lon="0.69621">
        <ele>799</ele>
        <time>1970-01-01T02:48:34.000Z</time>
      </trkpt>
      <trkpt lat="42.779174" lon="0.696233">
        <ele>797.6</ele>
        <time>1970-01-01T02:48:36.000Z</time>
      </trkpt>
      <trkpt lat="42.77936" lon="0.696332">
        <ele>795.6</ele>
        <time>1970-01-01T02:48:38.000Z</time>
      </trkpt>
      <trkpt lat="42.779455" lon="0.6964">
        <ele>794.8</ele>
        <time>1970-01-01T02:48:39.000Z</time>
      </trkpt>
      <trkpt lat="42.779551" lon="0.696473">
        <ele>794</ele>
        <time>1970-01-01T02:48:40.000Z</time>
      </trkpt>
      <trkpt lat="42.779647" lon="0.696551">
        <ele>793</ele>
        <time>1970-01-01T02:48:41.000Z</time>
      </trkpt>
      <trkpt lat="42.779745" lon="0.696632">
        <ele>791.6</ele>
        <time>1970-01-01T02:48:42.000Z</time>
      </trkpt>
      <trkpt lat="42.779842" lon="0.696716">
        <ele>790.4</ele>
        <time>1970-01-01T02:48:43.000Z</time>
      </trkpt>
      <trkpt lat="42.780035" lon="0.696907">
        <ele>788.4</ele>
        <time>1970-01-01T02:48:45.000Z</time>
      </trkpt>
      <trkpt lat="42.780129" lon="0.697008">
        <ele>787.2</ele>
        <time>1970-01-01T02:48:46.000Z</time>
      </trkpt>
      <trkpt lat="42.780221" lon="0.6971">
        <ele>785.8</ele>
        <time>1970-01-01T02:48:47.000Z</time>
      </trkpt>
      <trkpt lat="42.780317" lon="0.697174">
        <ele>784.6</ele>
        <time>1970-01-01T02:48:48.000Z</time>
      </trkpt>
      <trkpt lat="42.780422" lon="0.697233">
        <ele>783.6</ele>
        <time>1970-01-01T02:48:49.000Z</time>
      </trkpt>
      <trkpt lat="42.780532" lon="0.697286">
        <ele>782.6</ele>
        <time>1970-01-01T02:48:50.000Z</time>
      </trkpt>
      <trkpt lat="42.780641" lon="0.69734">
        <ele>781.4</ele>
        <time>1970-01-01T02:48:51.000Z</time>
      </trkpt>
      <trkpt lat="42.780751" lon="0.697402">
        <ele>780</ele>
        <time>1970-01-01T02:48:52.000Z</time>
      </trkpt>
      <trkpt lat="42.780871" lon="0.697458">
        <ele>778.4</ele>
        <time>1970-01-01T02:48:53.000Z</time>
      </trkpt>
      <trkpt lat="42.780984" lon="0.697499">
        <ele>777</ele>
        <time>1970-01-01T02:48:54.000Z</time>
      </trkpt>
      <trkpt lat="42.781091" lon="0.697523">
        <ele>775.4</ele>
        <time>1970-01-01T02:48:55.000Z</time>
      </trkpt>
      <trkpt lat="42.781204" lon="0.697522">
        <ele>774</ele>
        <time>1970-01-01T02:48:56.000Z</time>
      </trkpt>
      <trkpt lat="42.781434" lon="0.697476">
        <ele>772.2</ele>
        <time>1970-01-01T02:48:58.000Z</time>
      </trkpt>
      <trkpt lat="42.781672" lon="0.697443">
        <ele>770.6</ele>
        <time>1970-01-01T02:49:00.000Z</time>
      </trkpt>
      <trkpt lat="42.781796" lon="0.697433">
        <ele>769.2</ele>
        <time>1970-01-01T02:49:01.000Z</time>
      </trkpt>
      <trkpt lat="42.781921" lon="0.697426">
        <ele>768</ele>
        <time>1970-01-01T02:49:02.000Z</time>
      </trkpt>
      <trkpt lat="42.782047" lon="0.69742">
        <ele>766.8</ele>
        <time>1970-01-01T02:49:03.000Z</time>
      </trkpt>
      <trkpt lat="42.782176" lon="0.697412">
        <ele>765.6</ele>
        <time>1970-01-01T02:49:04.000Z</time>
      </trkpt>
      <trkpt lat="42.782306" lon="0.697401">
        <ele>764.4</ele>
        <time>1970-01-01T02:49:05.000Z</time>
      </trkpt>
      <trkpt lat="42.782438" lon="0.69739">
        <ele>763.2</ele>
        <time>1970-01-01T02:49:06.000Z</time>
      </trkpt>
      <trkpt lat="42.782704" lon="0.697377">
        <ele>761.4</ele>
        <time>1970-01-01T02:49:08.000Z</time>
      </trkpt>
      <trkpt lat="42.782826" lon="0.697372">
        <ele>760</ele>
        <time>1970-01-01T02:49:09.000Z</time>
      </trkpt>
      <trkpt lat="42.782929" lon="0.69737">
        <ele>758.6</ele>
        <time>1970-01-01T02:49:10.000Z</time>
      </trkpt>
      <trkpt lat="42.783017" lon="0.697367">
        <ele>757.2</ele>
        <time>1970-01-01T02:49:11.000Z</time>
      </trkpt>
      <trkpt lat="42.783095" lon="0.697353">
        <ele>755.6</ele>
        <time>1970-01-01T02:49:12.000Z</time>
      </trkpt>
      <trkpt lat="42.783174" lon="0.697327">
        <ele>754.4</ele>
        <time>1970-01-01T02:49:13.000Z</time>
      </trkpt>
      <trkpt lat="42.783324" lon="0.697261">
        <ele>753</ele>
        <time>1970-01-01T02:49:15.000Z</time>
      </trkpt>
      <trkpt lat="42.783476" lon="0.697312">
        <ele>751</ele>
        <time>1970-01-01T02:49:17.000Z</time>
      </trkpt>
      <trkpt lat="42.783537" lon="0.697338">
        <ele>749.8</ele>
        <time>1970-01-01T02:49:18.000Z</time>
      </trkpt>
      <trkpt lat="42.783586" lon="0.697358">
        <ele>748.6</ele>
        <time>1970-01-01T02:49:19.000Z</time>
      </trkpt>
      <trkpt lat="42.783624" lon="0.697371">
        <ele>747.6</ele>
        <time>1970-01-01T02:49:20.000Z</time>
      </trkpt>
      <trkpt lat="42.783651" lon="0.697377">
        <ele>746.2</ele>
        <time>1970-01-01T02:49:22.000Z</time>
      </trkpt>
      <trkpt lat="42.783657" lon="0.697377">
        <ele>745.8</ele>
        <time>1970-01-01T02:49:23.000Z</time>
      </trkpt>
      <trkpt lat="42.783714" lon="0.697394">
        <ele>744.8</ele>
        <time>1970-01-01T02:49:35.000Z</time>
      </trkpt>
      <trkpt lat="42.783799" lon="0.697436">
        <ele>744.6</ele>
        <time>1970-01-01T02:49:37.000Z</time>
      </trkpt>
      <trkpt lat="42.783948" lon="0.697445">
        <ele>743.8</ele>
        <time>1970-01-01T02:49:40.000Z</time>
      </trkpt>
      <trkpt lat="42.784099" lon="0.697383">
        <ele>743.2</ele>
        <time>1970-01-01T02:49:43.000Z</time>
      </trkpt>
      <trkpt lat="42.784142" lon="0.697357">
        <ele>743</ele>
        <time>1970-01-01T02:49:44.000Z</time>
      </trkpt>
      <trkpt lat="42.784281" lon="0.697274">
        <ele>743</ele>
        <time>1970-01-01T02:49:48.000Z</time>
      </trkpt>
      <trkpt lat="42.784777" lon="0.696903">
        <ele>742.6</ele>
        <time>1970-01-01T02:50:02.000Z</time>
      </trkpt>
      <trkpt lat="42.784963" lon="0.69673">
        <ele>742</ele>
        <time>1970-01-01T02:50:08.000Z</time>
      </trkpt>
      <trkpt lat="42.785078" lon="0.696621">
        <ele>741.2</ele>
        <time>1970-01-01T02:50:13.000Z</time>
      </trkpt>
      <trkpt lat="42.785081" lon="0.69662">
        <ele>741.2</ele>
        <time>1970-01-01T02:50:15.000Z</time>
      </trkpt>
      <trkpt lat="42.785119" lon="0.696588">
        <ele>741.6</ele>
        <time>1970-01-01T02:51:18.000Z</time>
      </trkpt>
      <trkpt lat="42.785136" lon="0.696573">
        <ele>741.6</ele>
        <time>1970-01-01T02:51:19.000Z</time>
      </trkpt>
      <trkpt lat="42.785395" lon="0.696364">
        <ele>741</ele>
        <time>1970-01-01T02:51:28.000Z</time>
      </trkpt>
      <trkpt lat="42.785571" lon="0.69623">
        <ele>740</ele>
        <time>1970-01-01T02:51:33.000Z</time>
      </trkpt>
      <trkpt lat="42.785611" lon="0.696209">
        <ele>740</ele>
        <time>1970-01-01T02:51:34.000Z</time>
      </trkpt>
      <trkpt lat="42.785867" lon="0.696095">
        <ele>739</ele>
        <time>1970-01-01T02:51:39.000Z</time>
      </trkpt>
      <trkpt lat="42.785997" lon="0.696036">
        <ele>737.8</ele>
        <time>1970-01-01T02:51:41.000Z</time>
      </trkpt>
      <trkpt lat="42.786062" lon="0.695991">
        <ele>737.6</ele>
        <time>1970-01-01T02:51:42.000Z</time>
      </trkpt>
      <trkpt lat="42.786235" lon="0.69581">
        <ele>736.6</ele>
        <time>1970-01-01T02:51:45.000Z</time>
      </trkpt>
      <trkpt lat="42.786285" lon="0.695745">
        <ele>736</ele>
        <time>1970-01-01T02:51:46.000Z</time>
      </trkpt>
      <trkpt lat="42.786384" lon="0.695631">
        <ele>735</ele>
        <time>1970-01-01T02:51:48.000Z</time>
      </trkpt>
      <trkpt lat="42.786434" lon="0.695584">
        <ele>733.8</ele>
        <time>1970-01-01T02:51:49.000Z</time>
      </trkpt>
      <trkpt lat="42.786531" lon="0.6955">
        <ele>732.2</ele>
        <time>1970-01-01T02:51:51.000Z</time>
      </trkpt>
      <trkpt lat="42.786571" lon="0.695447">
        <ele>731.4</ele>
        <time>1970-01-01T02:51:52.000Z</time>
      </trkpt>
      <trkpt lat="42.786583" lon="0.695372">
        <ele>730.8</ele>
        <time>1970-01-01T02:51:53.000Z</time>
      </trkpt>
      <trkpt lat="42.786509" lon="0.69528">
        <ele>729.4</ele>
        <time>1970-01-01T02:51:55.000Z</time>
      </trkpt>
      <trkpt lat="42.786377" lon="0.695277">
        <ele>728.2</ele>
        <time>1970-01-01T02:51:57.000Z</time>
      </trkpt>
      <trkpt lat="42.786233" lon="0.695278">
        <ele>727.2</ele>
        <time>1970-01-01T02:51:59.000Z</time>
      </trkpt>
      <trkpt lat="42.786164" lon="0.695269">
        <ele>726.8</ele>
        <time>1970-01-01T02:52:00.000Z</time>
      </trkpt>
      <trkpt lat="42.786101" lon="0.69524">
        <ele>726.2</ele>
        <time>1970-01-01T02:52:01.000Z</time>
      </trkpt>
      <trkpt lat="42.786009" lon="0.6951">
        <ele>725.2</ele>
        <time>1970-01-01T02:52:03.000Z</time>
      </trkpt>
      <trkpt lat="42.785978" lon="0.695011">
        <ele>724.8</ele>
        <time>1970-01-01T02:52:04.000Z</time>
      </trkpt>
      <trkpt lat="42.785884" lon="0.694735">
        <ele>724</ele>
        <time>1970-01-01T02:52:07.000Z</time>
      </trkpt>
      <trkpt lat="42.785805" lon="0.694466">
        <ele>723.2</ele>
        <time>1970-01-01T02:52:10.000Z</time>
      </trkpt>
      <trkpt lat="42.785795" lon="0.694384">
        <ele>722.8</ele>
        <time>1970-01-01T02:52:11.000Z</time>
      </trkpt>
      <trkpt lat="42.785774" lon="0.693967">
        <ele>721.8</ele>
        <time>1970-01-01T02:52:18.000Z</time>
      </trkpt>
      <trkpt lat="42.785687" lon="0.693862">
        <ele>721.4</ele>
        <time>1970-01-01T02:52:21.000Z</time>
      </trkpt>
      <trkpt lat="42.785615" lon="0.693813">
        <ele>721.4</ele>
        <time>1970-01-01T02:52:23.000Z</time>
      </trkpt>
      <trkpt lat="42.785247" lon="0.693568">
        <ele>722.2</ele>
        <time>1970-01-01T02:52:34.000Z</time>
      </trkpt>
      <trkpt lat="42.785172" lon="0.693488">
        <ele>722.4</ele>
        <time>1970-01-01T02:52:42.000Z</time>
      </trkpt>
      <trkpt lat="42.785207" lon="0.693339">
        <ele>722.4</ele>
        <time>1970-01-01T02:52:46.000Z</time>
      </trkpt>
      <trkpt lat="42.785301" lon="0.692864">
        <ele>722</ele>
        <time>1970-01-01T02:53:00.000Z</time>
      </trkpt>
      <trkpt lat="42.785287" lon="0.69282">
        <ele>721.6</ele>
        <time>1970-01-01T02:53:09.000Z</time>
      </trkpt>
      <trkpt lat="42.784743" lon="0.692641">
        <ele>722</ele>
        <time>1970-01-01T02:53:26.000Z</time>
      </trkpt>
      <trkpt lat="42.784698" lon="0.692631">
        <ele>722</ele>
        <time>1970-01-01T02:53:27.000Z</time>
      </trkpt>
      <trkpt lat="42.784125" lon="0.692455">
        <ele>722.8</ele>
        <time>1970-01-01T02:53:39.000Z</time>
      </trkpt>
      <trkpt lat="42.783972" lon="0.692417">
        <ele>723.2</ele>
        <time>1970-01-01T02:53:42.000Z</time>
      </trkpt>
      <trkpt lat="42.783448" lon="0.692101">
        <ele>723.8</ele>
        <time>1970-01-01T02:53:53.000Z</time>
      </trkpt>
      <trkpt lat="42.782978" lon="0.691704">
        <ele>724.2</ele>
        <time>1970-01-01T02:54:03.000Z</time>
      </trkpt>
      <trkpt lat="42.782791" lon="0.69156">
        <ele>724.6</ele>
        <time>1970-01-01T02:54:07.000Z</time>
      </trkpt>
      <trkpt lat="42.782353" lon="0.691209">
        <ele>725.2</ele>
        <time>1970-01-01T02:54:17.000Z</time>
      </trkpt>
      <trkpt lat="42.782192" lon="0.69108">
        <ele>726</ele>
        <time>1970-01-01T02:54:21.000Z</time>
      </trkpt>
      <trkpt lat="42.781921" lon="0.69087">
        <ele>727</ele>
        <time>1970-01-01T02:54:28.000Z</time>
      </trkpt>
      <trkpt lat="42.781515" lon="0.690535">
        <ele>728.4</ele>
        <time>1970-01-01T02:54:40.000Z</time>
      </trkpt>
      <trkpt lat="42.781186" lon="0.690287">
        <ele>729.6</ele>
        <time>1970-01-01T02:54:50.000Z</time>
      </trkpt>
      <trkpt lat="42.780978" lon="0.690142">
        <ele>730.8</ele>
        <time>1970-01-01T02:54:57.000Z</time>
      </trkpt>
      <trkpt lat="42.780796" lon="0.689831">
        <ele>732</ele>
        <time>1970-01-01T02:55:06.000Z</time>
      </trkpt>
      <trkpt lat="42.780767" lon="0.689677">
        <ele>733</ele>
        <time>1970-01-01T02:55:10.000Z</time>
      </trkpt>
      <trkpt lat="42.780722" lon="0.689479">
        <ele>734.4</ele>
        <time>1970-01-01T02:55:15.000Z</time>
      </trkpt>
      <trkpt lat="42.780628" lon="0.689329">
        <ele>735.4</ele>
        <time>1970-01-01T02:55:20.000Z</time>
      </trkpt>
      <trkpt lat="42.780449" lon="0.689206">
        <ele>736.6</ele>
        <time>1970-01-01T02:55:27.000Z</time>
      </trkpt>
      <trkpt lat="42.780266" lon="0.689161">
        <ele>737.8</ele>
        <time>1970-01-01T02:55:33.000Z</time>
      </trkpt>
      <trkpt lat="42.780176" lon="0.689142">
        <ele>738.6</ele>
        <time>1970-01-01T02:55:36.000Z</time>
      </trkpt>
      <trkpt lat="42.780144" lon="0.689136">
        <ele>738.8</ele>
        <time>1970-01-01T02:55:37.000Z</time>
      </trkpt>
      <trkpt lat="42.779966" lon="0.689102">
        <ele>740</ele>
        <time>1970-01-01T02:55:43.000Z</time>
      </trkpt>
      <trkpt lat="42.779754" lon="0.689008">
        <ele>741.2</ele>
        <time>1970-01-01T02:55:51.000Z</time>
      </trkpt>
      <trkpt lat="42.779622" lon="0.688908">
        <ele>742.4</ele>
        <time>1970-01-01T02:55:56.000Z</time>
      </trkpt>
      <trkpt lat="42.779445" lon="0.688738">
        <ele>743.4</ele>
        <time>1970-01-01T02:56:03.000Z</time>
      </trkpt>
      <trkpt lat="42.779304" lon="0.688583">
        <ele>744.4</ele>
        <time>1970-01-01T02:56:09.000Z</time>
      </trkpt>
      <trkpt lat="42.779176" lon="0.688397">
        <ele>745.8</ele>
        <time>1970-01-01T02:56:15.000Z</time>
      </trkpt>
      <trkpt lat="42.779109" lon="0.688213">
        <ele>746.8</ele>
        <time>1970-01-01T02:56:20.000Z</time>
      </trkpt>
      <trkpt lat="42.779031" lon="0.687989">
        <ele>748.2</ele>
        <time>1970-01-01T02:56:26.000Z</time>
      </trkpt>
      <trkpt lat="42.778952" lon="0.687702">
        <ele>749.4</ele>
        <time>1970-01-01T02:56:33.000Z</time>
      </trkpt>
      <trkpt lat="42.778911" lon="0.687454">
        <ele>750.6</ele>
        <time>1970-01-01T02:56:39.000Z</time>
      </trkpt>
      <trkpt lat="42.778897" lon="0.687176">
        <ele>751.8</ele>
        <time>1970-01-01T02:56:46.000Z</time>
      </trkpt>
      <trkpt lat="42.778894" lon="0.686851">
        <ele>753</ele>
        <time>1970-01-01T02:56:54.000Z</time>
      </trkpt>
      <trkpt lat="42.778891" lon="0.686654">
        <ele>754.2</ele>
        <time>1970-01-01T02:56:59.000Z</time>
      </trkpt>
      <trkpt lat="42.778886" lon="0.686487">
        <ele>754.6</ele>
        <time>1970-01-01T02:57:03.000Z</time>
      </trkpt>
      <trkpt lat="42.77888" lon="0.686403">
        <ele>755.2</ele>
        <time>1970-01-01T02:57:05.000Z</time>
      </trkpt>
      <trkpt lat="42.778849" lon="0.68616">
        <ele>756.4</ele>
        <time>1970-01-01T02:57:11.000Z</time>
      </trkpt>
      <trkpt lat="42.77882" lon="0.685963">
        <ele>757.4</ele>
        <time>1970-01-01T02:57:16.000Z</time>
      </trkpt>
      <trkpt lat="42.778742" lon="0.685707">
        <ele>758.8</ele>
        <time>1970-01-01T02:57:23.000Z</time>
      </trkpt>
      <trkpt lat="42.778572" lon="0.685536">
        <ele>760</ele>
        <time>1970-01-01T02:57:30.000Z</time>
      </trkpt>
      <trkpt lat="42.778434" lon="0.685444">
        <ele>761.2</ele>
        <time>1970-01-01T02:57:35.000Z</time>
      </trkpt>
      <trkpt lat="42.778275" lon="0.685334">
        <ele>762.4</ele>
        <time>1970-01-01T02:57:41.000Z</time>
      </trkpt>
      <trkpt lat="42.778124" lon="0.685197">
        <ele>763.6</ele>
        <time>1970-01-01T02:57:47.000Z</time>
      </trkpt>
      <trkpt lat="42.778014" lon="0.68512">
        <ele>764.8</ele>
        <time>1970-01-01T02:57:51.000Z</time>
      </trkpt>
      <trkpt lat="42.777826" lon="0.684994">
        <ele>765.8</ele>
        <time>1970-01-01T02:57:58.000Z</time>
      </trkpt>
      <trkpt lat="42.777555" lon="0.68489">
        <ele>767</ele>
        <time>1970-01-01T02:58:07.000Z</time>
      </trkpt>
      <trkpt lat="42.777303" lon="0.684856">
        <ele>768.4</ele>
        <time>1970-01-01T02:58:15.000Z</time>
      </trkpt>
      <trkpt lat="42.777102" lon="0.684779">
        <ele>769.6</ele>
        <time>1970-01-01T02:58:22.000Z</time>
      </trkpt>
      <trkpt lat="42.776939" lon="0.684677">
        <ele>770.8</ele>
        <time>1970-01-01T02:58:28.000Z</time>
      </trkpt>
      <trkpt lat="42.77683" lon="0.684599">
        <ele>772</ele>
        <time>1970-01-01T02:58:32.000Z</time>
      </trkpt>
      <trkpt lat="42.776693" lon="0.684507">
        <ele>773.2</ele>
        <time>1970-01-01T02:58:37.000Z</time>
      </trkpt>
      <trkpt lat="42.776638" lon="0.684468">
        <ele>773.6</ele>
        <time>1970-01-01T02:58:39.000Z</time>
      </trkpt>
      <trkpt lat="42.776557" lon="0.684424">
        <ele>774.4</ele>
        <time>1970-01-01T02:58:42.000Z</time>
      </trkpt>
      <trkpt lat="42.776379" lon="0.684324">
        <ele>775.4</ele>
        <time>1970-01-01T02:58:48.000Z</time>
      </trkpt>
      <trkpt lat="42.776244" lon="0.684239">
        <ele>776.8</ele>
        <time>1970-01-01T02:58:53.000Z</time>
      </trkpt>
      <trkpt lat="42.776128" lon="0.684176">
        <ele>777.8</ele>
        <time>1970-01-01T02:58:57.000Z</time>
      </trkpt>
      <trkpt lat="42.775915" lon="0.6841">
        <ele>779.2</ele>
        <time>1970-01-01T02:59:04.000Z</time>
      </trkpt>
      <trkpt lat="42.775732" lon="0.684078">
        <ele>780.2</ele>
        <time>1970-01-01T02:59:10.000Z</time>
      </trkpt>
      <trkpt lat="42.775586" lon="0.684058">
        <ele>781.4</ele>
        <time>1970-01-01T02:59:15.000Z</time>
      </trkpt>
      <trkpt lat="42.775428" lon="0.68402">
        <ele>782.6</ele>
        <time>1970-01-01T02:59:21.000Z</time>
      </trkpt>
      <trkpt lat="42.775298" lon="0.68398">
        <ele>783.8</ele>
        <time>1970-01-01T02:59:26.000Z</time>
      </trkpt>
      <trkpt lat="42.775116" lon="0.683915">
        <ele>785.2</ele>
        <time>1970-01-01T02:59:33.000Z</time>
      </trkpt>
      <trkpt lat="42.774895" lon="0.683935">
        <ele>786.2</ele>
        <time>1970-01-01T02:59:40.000Z</time>
      </trkpt>
      <trkpt lat="42.774673" lon="0.683972">
        <ele>787.6</ele>
        <time>1970-01-01T02:59:47.000Z</time>
      </trkpt>
      <trkpt lat="42.774492" lon="0.683974">
        <ele>788.6</ele>
        <time>1970-01-01T02:59:53.000Z</time>
      </trkpt>
      <trkpt lat="42.774365" lon="0.683944">
        <ele>789.8</ele>
        <time>1970-01-01T02:59:57.000Z</time>
      </trkpt>
      <trkpt lat="42.774162" lon="0.683904">
        <ele>791.2</ele>
        <time>1970-01-01T03:00:03.000Z</time>
      </trkpt>
      <trkpt lat="42.773996" lon="0.683902">
        <ele>792.4</ele>
        <time>1970-01-01T03:00:08.000Z</time>
      </trkpt>
      <trkpt lat="42.773822" lon="0.683896">
        <ele>793.4</ele>
        <time>1970-01-01T03:00:14.000Z</time>
      </trkpt>
      <trkpt lat="42.773632" lon="0.683927">
        <ele>794.6</ele>
        <time>1970-01-01T03:00:20.000Z</time>
      </trkpt>
      <trkpt lat="42.773409" lon="0.683913">
        <ele>795.8</ele>
        <time>1970-01-01T03:00:27.000Z</time>
      </trkpt>
      <trkpt lat="42.773349" lon="0.683899">
        <ele>796.2</ele>
        <time>1970-01-01T03:00:29.000Z</time>
      </trkpt>
      <trkpt lat="42.773232" lon="0.683845">
        <ele>797</ele>
        <time>1970-01-01T03:00:33.000Z</time>
      </trkpt>
      <trkpt lat="42.773088" lon="0.683774">
        <ele>798.2</ele>
        <time>1970-01-01T03:00:38.000Z</time>
      </trkpt>
      <trkpt lat="42.772984" lon="0.683718">
        <ele>799.6</ele>
        <time>1970-01-01T03:00:42.000Z</time>
      </trkpt>
      <trkpt lat="42.772854" lon="0.683676">
        <ele>800.8</ele>
        <time>1970-01-01T03:00:47.000Z</time>
      </trkpt>
      <trkpt lat="42.772707" lon="0.683672">
        <ele>801.8</ele>
        <time>1970-01-01T03:00:53.000Z</time>
      </trkpt>
      <trkpt lat="42.772554" lon="0.683652">
        <ele>803</ele>
        <time>1970-01-01T03:00:59.000Z</time>
      </trkpt>
      <trkpt lat="42.772405" lon="0.683584">
        <ele>804.2</ele>
        <time>1970-01-01T03:01:05.000Z</time>
      </trkpt>
      <trkpt lat="42.772248" lon="0.683478">
        <ele>805.4</ele>
        <time>1970-01-01T03:01:12.000Z</time>
      </trkpt>
      <trkpt lat="42.77213" lon="0.683443">
        <ele>806.6</ele>
        <time>1970-01-01T03:01:17.000Z</time>
      </trkpt>
      <trkpt lat="42.771934" lon="0.683493">
        <ele>807.8</ele>
        <time>1970-01-01T03:01:25.000Z</time>
      </trkpt>
      <trkpt lat="42.771793" lon="0.683554">
        <ele>809</ele>
        <time>1970-01-01T03:01:31.000Z</time>
      </trkpt>
      <trkpt lat="42.771674" lon="0.683545">
        <ele>810.2</ele>
        <time>1970-01-01T03:01:36.000Z</time>
      </trkpt>
      <trkpt lat="42.771649" lon="0.683506">
        <ele>811</ele>
        <time>1970-01-01T03:01:38.000Z</time>
      </trkpt>
      <trkpt lat="42.771643" lon="0.683481">
        <ele>811.2</ele>
        <time>1970-01-01T03:01:39.000Z</time>
      </trkpt>
      <trkpt lat="42.771651" lon="0.683366">
        <ele>812.4</ele>
        <time>1970-01-01T03:01:43.000Z</time>
      </trkpt>
      <trkpt lat="42.771689" lon="0.683308">
        <ele>813.4</ele>
        <time>1970-01-01T03:01:46.000Z</time>
      </trkpt>
      <trkpt lat="42.771763" lon="0.683237">
        <ele>814.4</ele>
        <time>1970-01-01T03:01:50.000Z</time>
      </trkpt>
      <trkpt lat="42.7718" lon="0.683209">
        <ele>814.8</ele>
        <time>1970-01-01T03:01:52.000Z</time>
      </trkpt>
      <trkpt lat="42.771953" lon="0.683147">
        <ele>816</ele>
        <time>1970-01-01T03:01:59.000Z</time>
      </trkpt>
      <trkpt lat="42.77214" lon="0.683155">
        <ele>817</ele>
        <time>1970-01-01T03:02:06.000Z</time>
      </trkpt>
      <trkpt lat="42.772304" lon="0.683157">
        <ele>818.4</ele>
        <time>1970-01-01T03:02:13.000Z</time>
      </trkpt>
      <trkpt lat="42.772396" lon="0.683176">
        <ele>819.4</ele>
        <time>1970-01-01T03:02:17.000Z</time>
      </trkpt>
      <trkpt lat="42.772593" lon="0.683247">
        <ele>820.6</ele>
        <time>1970-01-01T03:02:25.000Z</time>
      </trkpt>
      <trkpt lat="42.772757" lon="0.683318">
        <ele>821.6</ele>
        <time>1970-01-01T03:02:31.000Z</time>
      </trkpt>
      <trkpt lat="42.772932" lon="0.683392">
        <ele>822.8</ele>
        <time>1970-01-01T03:02:37.000Z</time>
      </trkpt>
      <trkpt lat="42.773269" lon="0.683518">
        <ele>824</ele>
        <time>1970-01-01T03:02:48.000Z</time>
      </trkpt>
      <trkpt lat="42.773408" lon="0.683493">
        <ele>824.2</ele>
        <time>1970-01-01T03:02:52.000Z</time>
      </trkpt>
      <trkpt lat="42.773701" lon="0.683396">
        <ele>825</ele>
        <time>1970-01-01T03:03:00.000Z</time>
      </trkpt>
      <trkpt lat="42.774051" lon="0.683072">
        <ele>826.4</ele>
        <time>1970-01-01T03:03:11.000Z</time>
      </trkpt>
      <trkpt lat="42.774126" lon="0.682988">
        <ele>827.4</ele>
        <time>1970-01-01T03:03:14.000Z</time>
      </trkpt>
      <trkpt lat="42.774362" lon="0.68292">
        <ele>828.6</ele>
        <time>1970-01-01T03:03:22.000Z</time>
      </trkpt>
      <trkpt lat="42.774523" lon="0.682913">
        <ele>829.8</ele>
        <time>1970-01-01T03:03:27.000Z</time>
      </trkpt>
      <trkpt lat="42.774705" lon="0.682914">
        <ele>830.8</ele>
        <time>1970-01-01T03:03:33.000Z</time>
      </trkpt>
      <trkpt lat="42.774831" lon="0.682896">
        <ele>831.8</ele>
        <time>1970-01-01T03:03:37.000Z</time>
      </trkpt>
      <trkpt lat="42.774985" lon="0.682869">
        <ele>833</ele>
        <time>1970-01-01T03:03:42.000Z</time>
      </trkpt>
      <trkpt lat="42.775198" lon="0.682818">
        <ele>834.2</ele>
        <time>1970-01-01T03:03:49.000Z</time>
      </trkpt>
      <trkpt lat="42.77534" lon="0.682774">
        <ele>835.2</ele>
        <time>1970-01-01T03:03:54.000Z</time>
      </trkpt>
      <trkpt lat="42.775449" lon="0.682757">
        <ele>836.4</ele>
        <time>1970-01-01T03:03:58.000Z</time>
      </trkpt>
      <trkpt lat="42.775575" lon="0.682757">
        <ele>837.6</ele>
        <time>1970-01-01T03:04:03.000Z</time>
      </trkpt>
      <trkpt lat="42.775725" lon="0.682723">
        <ele>839</ele>
        <time>1970-01-01T03:04:08.000Z</time>
      </trkpt>
      <trkpt lat="42.775877" lon="0.682682">
        <ele>840</ele>
        <time>1970-01-01T03:04:14.000Z</time>
      </trkpt>
      <trkpt lat="42.775958" lon="0.682674">
        <ele>841.2</ele>
        <time>1970-01-01T03:04:17.000Z</time>
      </trkpt>
      <trkpt lat="42.776157" lon="0.682776">
        <ele>842.4</ele>
        <time>1970-01-01T03:04:25.000Z</time>
      </trkpt>
      <trkpt lat="42.776278" lon="0.682873">
        <ele>843.4</ele>
        <time>1970-01-01T03:04:30.000Z</time>
      </trkpt>
      <trkpt lat="42.776384" lon="0.682909">
        <ele>844.4</ele>
        <time>1970-01-01T03:04:34.000Z</time>
      </trkpt>
      <trkpt lat="42.776484" lon="0.682952">
        <ele>845.6</ele>
        <time>1970-01-01T03:04:38.000Z</time>
      </trkpt>
      <trkpt lat="42.776669" lon="0.683004">
        <ele>846.6</ele>
        <time>1970-01-01T03:04:45.000Z</time>
      </trkpt>
      <trkpt lat="42.776768" lon="0.683024">
        <ele>847.6</ele>
        <time>1970-01-01T03:04:49.000Z</time>
      </trkpt>
      <trkpt lat="42.776925" lon="0.683054">
        <ele>848.8</ele>
        <time>1970-01-01T03:04:55.000Z</time>
      </trkpt>
      <trkpt lat="42.777063" lon="0.683084">
        <ele>850</ele>
        <time>1970-01-01T03:05:00.000Z</time>
      </trkpt>
      <trkpt lat="42.777198" lon="0.683148">
        <ele>851.2</ele>
        <time>1970-01-01T03:05:06.000Z</time>
      </trkpt>
      <trkpt lat="42.777309" lon="0.683187">
        <ele>852.2</ele>
        <time>1970-01-01T03:05:11.000Z</time>
      </trkpt>
      <trkpt lat="42.777485" lon="0.683186">
        <ele>853.4</ele>
        <time>1970-01-01T03:05:18.000Z</time>
      </trkpt>
      <trkpt lat="42.777631" lon="0.68319">
        <ele>854.6</ele>
        <time>1970-01-01T03:05:23.000Z</time>
      </trkpt>
      <trkpt lat="42.777822" lon="0.683263">
        <ele>856</ele>
        <time>1970-01-01T03:05:31.000Z</time>
      </trkpt>
      <trkpt lat="42.77804" lon="0.683485">
        <ele>857</ele>
        <time>1970-01-01T03:05:40.000Z</time>
      </trkpt>
      <trkpt lat="42.778249" lon="0.683613">
        <ele>857.2</ele>
        <time>1970-01-01T03:05:46.000Z</time>
      </trkpt>
      <trkpt lat="42.778422" lon="0.683589">
        <ele>857.2</ele>
        <time>1970-01-01T03:05:50.000Z</time>
      </trkpt>
      <trkpt lat="42.778609" lon="0.683517">
        <ele>857</ele>
        <time>1970-01-01T03:05:54.000Z</time>
      </trkpt>
      <trkpt lat="42.778814" lon="0.683507">
        <ele>857</ele>
        <time>1970-01-01T03:05:58.000Z</time>
      </trkpt>
      <trkpt lat="42.779319" lon="0.683523">
        <ele>857.8</ele>
        <time>1970-01-01T03:06:08.000Z</time>
      </trkpt>
      <trkpt lat="42.779539" lon="0.683465">
        <ele>858.4</ele>
        <time>1970-01-01T03:06:13.000Z</time>
      </trkpt>
      <trkpt lat="42.77962" lon="0.683424">
        <ele>858.8</ele>
        <time>1970-01-01T03:06:15.000Z</time>
      </trkpt>
      <trkpt lat="42.779727" lon="0.683338">
        <ele>859.6</ele>
        <time>1970-01-01T03:06:18.000Z</time>
      </trkpt>
      <trkpt lat="42.779823" lon="0.68314">
        <ele>860.8</ele>
        <time>1970-01-01T03:06:24.000Z</time>
      </trkpt>
      <trkpt lat="42.77979" lon="0.683034">
        <ele>861.8</ele>
        <time>1970-01-01T03:06:28.000Z</time>
      </trkpt>
      <trkpt lat="42.779685" lon="0.682919">
        <ele>863</ele>
        <time>1970-01-01T03:06:33.000Z</time>
      </trkpt>
      <trkpt lat="42.779546" lon="0.682917">
        <ele>864.2</ele>
        <time>1970-01-01T03:06:38.000Z</time>
      </trkpt>
      <trkpt lat="42.779379" lon="0.683066">
        <ele>865.6</ele>
        <time>1970-01-01T03:06:44.000Z</time>
      </trkpt>
      <trkpt lat="42.779261" lon="0.683163">
        <ele>866.6</ele>
        <time>1970-01-01T03:06:49.000Z</time>
      </trkpt>
      <trkpt lat="42.779062" lon="0.683187">
        <ele>868</ele>
        <time>1970-01-01T03:06:55.000Z</time>
      </trkpt>
      <trkpt lat="42.77885" lon="0.683166">
        <ele>869</ele>
        <time>1970-01-01T03:07:01.000Z</time>
      </trkpt>
      <trkpt lat="42.778702" lon="0.683153">
        <ele>870.2</ele>
        <time>1970-01-01T03:07:06.000Z</time>
      </trkpt>
      <trkpt lat="42.778481" lon="0.683167">
        <ele>871.6</ele>
        <time>1970-01-01T03:07:13.000Z</time>
      </trkpt>
      <trkpt lat="42.778332" lon="0.68319">
        <ele>872.8</ele>
        <time>1970-01-01T03:07:18.000Z</time>
      </trkpt>
      <trkpt lat="42.778172" lon="0.683143">
        <ele>873.8</ele>
        <time>1970-01-01T03:07:24.000Z</time>
      </trkpt>
      <trkpt lat="42.778073" lon="0.683074">
        <ele>874.8</ele>
        <time>1970-01-01T03:07:28.000Z</time>
      </trkpt>
      <trkpt lat="42.777913" lon="0.682934">
        <ele>876</ele>
        <time>1970-01-01T03:07:34.000Z</time>
      </trkpt>
      <trkpt lat="42.777776" lon="0.682835">
        <ele>877.2</ele>
        <time>1970-01-01T03:07:39.000Z</time>
      </trkpt>
      <trkpt lat="42.777633" lon="0.682784">
        <ele>878.6</ele>
        <time>1970-01-01T03:07:44.000Z</time>
      </trkpt>
      <trkpt lat="42.77749" lon="0.682771">
        <ele>879.6</ele>
        <time>1970-01-01T03:07:49.000Z</time>
      </trkpt>
      <trkpt lat="42.777273" lon="0.68272">
        <ele>881.4</ele>
        <time>1970-01-01T03:07:57.000Z</time>
      </trkpt>
      <trkpt lat="42.777148" lon="0.682625">
        <ele>882.4</ele>
        <time>1970-01-01T03:08:02.000Z</time>
      </trkpt>
      <trkpt lat="42.777042" lon="0.682508">
        <ele>883.4</ele>
        <time>1970-01-01T03:08:07.000Z</time>
      </trkpt>
      <trkpt lat="42.776862" lon="0.682421">
        <ele>884.4</ele>
        <time>1970-01-01T03:08:14.000Z</time>
      </trkpt>
      <trkpt lat="42.776711" lon="0.682384">
        <ele>885.8</ele>
        <time>1970-01-01T03:08:19.000Z</time>
      </trkpt>
      <trkpt lat="42.776545" lon="0.682221">
        <ele>886.8</ele>
        <time>1970-01-01T03:08:26.000Z</time>
      </trkpt>
      <trkpt lat="42.776435" lon="0.682048">
        <ele>888.2</ele>
        <time>1970-01-01T03:08:32.000Z</time>
      </trkpt>
      <trkpt lat="42.776318" lon="0.681882">
        <ele>889.4</ele>
        <time>1970-01-01T03:08:38.000Z</time>
      </trkpt>
      <trkpt lat="42.776196" lon="0.681749">
        <ele>890.4</ele>
        <time>1970-01-01T03:08:44.000Z</time>
      </trkpt>
      <trkpt lat="42.776086" lon="0.681648">
        <ele>891.4</ele>
        <time>1970-01-01T03:08:49.000Z</time>
      </trkpt>
      <trkpt lat="42.775887" lon="0.68155">
        <ele>893</ele>
        <time>1970-01-01T03:08:57.000Z</time>
      </trkpt>
      <trkpt lat="42.77578" lon="0.681465">
        <ele>894</ele>
        <time>1970-01-01T03:09:02.000Z</time>
      </trkpt>
      <trkpt lat="42.775636" lon="0.68139">
        <ele>895.2</ele>
        <time>1970-01-01T03:09:08.000Z</time>
      </trkpt>
      <trkpt lat="42.775415" lon="0.681327">
        <ele>896.6</ele>
        <time>1970-01-01T03:09:17.000Z</time>
      </trkpt>
      <trkpt lat="42.77523" lon="0.681283">
        <ele>897.6</ele>
        <time>1970-01-01T03:09:24.000Z</time>
      </trkpt>
      <trkpt lat="42.775109" lon="0.681233">
        <ele>898.6</ele>
        <time>1970-01-01T03:09:29.000Z</time>
      </trkpt>
      <trkpt lat="42.774956" lon="0.681161">
        <ele>900</ele>
        <time>1970-01-01T03:09:35.000Z</time>
      </trkpt>
      <trkpt lat="42.774853" lon="0.681106">
        <ele>901</ele>
        <time>1970-01-01T03:09:39.000Z</time>
      </trkpt>
      <trkpt lat="42.774695" lon="0.681073">
        <ele>902.2</ele>
        <time>1970-01-01T03:09:45.000Z</time>
      </trkpt>
      <trkpt lat="42.774536" lon="0.68106">
        <ele>903.4</ele>
        <time>1970-01-01T03:09:51.000Z</time>
      </trkpt>
      <trkpt lat="42.774409" lon="0.681056">
        <ele>904.6</ele>
        <time>1970-01-01T03:09:56.000Z</time>
      </trkpt>
      <trkpt lat="42.774277" lon="0.681036">
        <ele>905.6</ele>
        <time>1970-01-01T03:10:01.000Z</time>
      </trkpt>
      <trkpt lat="42.774146" lon="0.681039">
        <ele>906.8</ele>
        <time>1970-01-01T03:10:06.000Z</time>
      </trkpt>
      <trkpt lat="42.77404" lon="0.681009">
        <ele>908</ele>
        <time>1970-01-01T03:10:11.000Z</time>
      </trkpt>
      <trkpt lat="42.773867" lon="0.681005">
        <ele>909.2</ele>
        <time>1970-01-01T03:10:18.000Z</time>
      </trkpt>
      <trkpt lat="42.773741" lon="0.680998">
        <ele>910.2</ele>
        <time>1970-01-01T03:10:23.000Z</time>
      </trkpt>
      <trkpt lat="42.773611" lon="0.68097">
        <ele>911.4</ele>
        <time>1970-01-01T03:10:29.000Z</time>
      </trkpt>
      <trkpt lat="42.77344" lon="0.68099">
        <ele>912.6</ele>
        <time>1970-01-01T03:10:36.000Z</time>
      </trkpt>
      <trkpt lat="42.773268" lon="0.681021">
        <ele>913.8</ele>
        <time>1970-01-01T03:10:43.000Z</time>
      </trkpt>
      <trkpt lat="42.77316" lon="0.680958">
        <ele>914.8</ele>
        <time>1970-01-01T03:10:48.000Z</time>
      </trkpt>
      <trkpt lat="42.773132" lon="0.680865">
        <ele>915.6</ele>
        <time>1970-01-01T03:10:51.000Z</time>
      </trkpt>
      <trkpt lat="42.773134" lon="0.680832">
        <ele>915.8</ele>
        <time>1970-01-01T03:10:52.000Z</time>
      </trkpt>
      <trkpt lat="42.77318" lon="0.680737">
        <ele>917</ele>
        <time>1970-01-01T03:10:56.000Z</time>
      </trkpt>
      <trkpt lat="42.773197" lon="0.680722">
        <ele>917.2</ele>
        <time>1970-01-01T03:10:57.000Z</time>
      </trkpt>
      <trkpt lat="42.773256" lon="0.680701">
        <ele>918.4</ele>
        <time>1970-01-01T03:11:00.000Z</time>
      </trkpt>
      <trkpt lat="42.773277" lon="0.680699">
        <ele>918.6</ele>
        <time>1970-01-01T03:11:01.000Z</time>
      </trkpt>
      <trkpt lat="42.773376" lon="0.680721">
        <ele>919.4</ele>
        <time>1970-01-01T03:11:05.000Z</time>
      </trkpt>
      <trkpt lat="42.773584" lon="0.680773">
        <ele>920.6</ele>
        <time>1970-01-01T03:11:13.000Z</time>
      </trkpt>
      <trkpt lat="42.773749" lon="0.680731">
        <ele>921.6</ele>
        <time>1970-01-01T03:11:20.000Z</time>
      </trkpt>
      <trkpt lat="42.773941" lon="0.68068">
        <ele>922.8</ele>
        <time>1970-01-01T03:11:28.000Z</time>
      </trkpt>
      <trkpt lat="42.774081" lon="0.680632">
        <ele>923.8</ele>
        <time>1970-01-01T03:11:34.000Z</time>
      </trkpt>
      <trkpt lat="42.774221" lon="0.680597">
        <ele>925.2</ele>
        <time>1970-01-01T03:11:39.000Z</time>
      </trkpt>
      <trkpt lat="42.774349" lon="0.680609">
        <ele>926.2</ele>
        <time>1970-01-01T03:11:44.000Z</time>
      </trkpt>
      <trkpt lat="42.774514" lon="0.680653">
        <ele>927.4</ele>
        <time>1970-01-01T03:11:50.000Z</time>
      </trkpt>
      <trkpt lat="42.774636" lon="0.680633">
        <ele>928.6</ele>
        <time>1970-01-01T03:11:55.000Z</time>
      </trkpt>
      <trkpt lat="42.774801" lon="0.680577">
        <ele>929.6</ele>
        <time>1970-01-01T03:12:01.000Z</time>
      </trkpt>
      <trkpt lat="42.774949" lon="0.680541">
        <ele>931</ele>
        <time>1970-01-01T03:12:07.000Z</time>
      </trkpt>
      <trkpt lat="42.775069" lon="0.680577">
        <ele>932</ele>
        <time>1970-01-01T03:12:12.000Z</time>
      </trkpt>
      <trkpt lat="42.775219" lon="0.680601">
        <ele>933.4</ele>
        <time>1970-01-01T03:12:18.000Z</time>
      </trkpt>
      <trkpt lat="42.775313" lon="0.680561">
        <ele>934.4</ele>
        <time>1970-01-01T03:12:22.000Z</time>
      </trkpt>
      <trkpt lat="42.775438" lon="0.680484">
        <ele>935.4</ele>
        <time>1970-01-01T03:12:27.000Z</time>
      </trkpt>
      <trkpt lat="42.775553" lon="0.68042">
        <ele>936.4</ele>
        <time>1970-01-01T03:12:32.000Z</time>
      </trkpt>
      <trkpt lat="42.775708" lon="0.680423">
        <ele>937.6</ele>
        <time>1970-01-01T03:12:38.000Z</time>
      </trkpt>
      <trkpt lat="42.775828" lon="0.680436">
        <ele>938.6</ele>
        <time>1970-01-01T03:12:43.000Z</time>
      </trkpt>
      <trkpt lat="42.775958" lon="0.68043">
        <ele>940</ele>
        <time>1970-01-01T03:12:49.000Z</time>
      </trkpt>
      <trkpt lat="42.776095" lon="0.680441">
        <ele>941</ele>
        <time>1970-01-01T03:12:54.000Z</time>
      </trkpt>
      <trkpt lat="42.776206" lon="0.680473">
        <ele>941.8</ele>
        <time>1970-01-01T03:12:59.000Z</time>
      </trkpt>
      <trkpt lat="42.776339" lon="0.68051">
        <ele>943</ele>
        <time>1970-01-01T03:13:04.000Z</time>
      </trkpt>
      <trkpt lat="42.776503" lon="0.680617">
        <ele>944</ele>
        <time>1970-01-01T03:13:11.000Z</time>
      </trkpt>
      <trkpt lat="42.776627" lon="0.680751">
        <ele>945</ele>
        <time>1970-01-01T03:13:17.000Z</time>
      </trkpt>
      <trkpt lat="42.776719" lon="0.680825">
        <ele>946.2</ele>
        <time>1970-01-01T03:13:21.000Z</time>
      </trkpt>
      <trkpt lat="42.776831" lon="0.68096">
        <ele>947.4</ele>
        <time>1970-01-01T03:13:27.000Z</time>
      </trkpt>
      <trkpt lat="42.776957" lon="0.681145">
        <ele>948.4</ele>
        <time>1970-01-01T03:13:34.000Z</time>
      </trkpt>
      <trkpt lat="42.777086" lon="0.68131">
        <ele>949.6</ele>
        <time>1970-01-01T03:13:41.000Z</time>
      </trkpt>
      <trkpt lat="42.777234" lon="0.681432">
        <ele>951</ele>
        <time>1970-01-01T03:13:48.000Z</time>
      </trkpt>
      <trkpt lat="42.777384" lon="0.681563">
        <ele>952</ele>
        <time>1970-01-01T03:13:55.000Z</time>
      </trkpt>
      <trkpt lat="42.777507" lon="0.681657">
        <ele>953</ele>
        <time>1970-01-01T03:14:00.000Z</time>
      </trkpt>
      <trkpt lat="42.777648" lon="0.681684">
        <ele>954.4</ele>
        <time>1970-01-01T03:14:06.000Z</time>
      </trkpt>
      <trkpt lat="42.7778" lon="0.681631">
        <ele>955.6</ele>
        <time>1970-01-01T03:14:12.000Z</time>
      </trkpt>
      <trkpt lat="42.777995" lon="0.68153">
        <ele>956.8</ele>
        <time>1970-01-01T03:14:21.000Z</time>
      </trkpt>
      <trkpt lat="42.778157" lon="0.681511">
        <ele>958</ele>
        <time>1970-01-01T03:14:28.000Z</time>
      </trkpt>
      <trkpt lat="42.778305" lon="0.681476">
        <ele>959</ele>
        <time>1970-01-01T03:14:34.000Z</time>
      </trkpt>
      <trkpt lat="42.778443" lon="0.681409">
        <ele>960.4</ele>
        <time>1970-01-01T03:14:40.000Z</time>
      </trkpt>
      <trkpt lat="42.778585" lon="0.68134">
        <ele>961.6</ele>
        <time>1970-01-01T03:14:46.000Z</time>
      </trkpt>
      <trkpt lat="42.778695" lon="0.681287">
        <ele>962.6</ele>
        <time>1970-01-01T03:14:52.000Z</time>
      </trkpt>
      <trkpt lat="42.778844" lon="0.681222">
        <ele>963.6</ele>
        <time>1970-01-01T03:14:59.000Z</time>
      </trkpt>
      <trkpt lat="42.778983" lon="0.681175">
        <ele>964.8</ele>
        <time>1970-01-01T03:15:05.000Z</time>
      </trkpt>
      <trkpt lat="42.779101" lon="0.681105">
        <ele>965.8</ele>
        <time>1970-01-01T03:15:10.000Z</time>
      </trkpt>
      <trkpt lat="42.779258" lon="0.681037">
        <ele>966.8</ele>
        <time>1970-01-01T03:15:16.000Z</time>
      </trkpt>
      <trkpt lat="42.779375" lon="0.680949">
        <ele>968</ele>
        <time>1970-01-01T03:15:21.000Z</time>
      </trkpt>
      <trkpt lat="42.779493" lon="0.680879">
        <ele>969.2</ele>
        <time>1970-01-01T03:15:26.000Z</time>
      </trkpt>
      <trkpt lat="42.779648" lon="0.680776">
        <ele>970.4</ele>
        <time>1970-01-01T03:15:31.000Z</time>
      </trkpt>
      <trkpt lat="42.779798" lon="0.68061">
        <ele>971.2</ele>
        <time>1970-01-01T03:15:38.000Z</time>
      </trkpt>
      <trkpt lat="42.779887" lon="0.680492">
        <ele>972.4</ele>
        <time>1970-01-01T03:15:43.000Z</time>
      </trkpt>
      <trkpt lat="42.780017" lon="0.680307">
        <ele>973.4</ele>
        <time>1970-01-01T03:15:50.000Z</time>
      </trkpt>
      <trkpt lat="42.7801" lon="0.680167">
        <ele>974.2</ele>
        <time>1970-01-01T03:15:55.000Z</time>
      </trkpt>
      <trkpt lat="42.780175" lon="0.680012">
        <ele>975.4</ele>
        <time>1970-01-01T03:16:01.000Z</time>
      </trkpt>
      <trkpt lat="42.780242" lon="0.679887">
        <ele>976.4</ele>
        <time>1970-01-01T03:16:06.000Z</time>
      </trkpt>
      <trkpt lat="42.780344" lon="0.679756">
        <ele>977.6</ele>
        <time>1970-01-01T03:16:12.000Z</time>
      </trkpt>
      <trkpt lat="42.780524" lon="0.679591">
        <ele>979</ele>
        <time>1970-01-01T03:16:21.000Z</time>
      </trkpt>
      <trkpt lat="42.780635" lon="0.679509">
        <ele>980</ele>
        <time>1970-01-01T03:16:26.000Z</time>
      </trkpt>
      <trkpt lat="42.780744" lon="0.679411">
        <ele>981</ele>
        <time>1970-01-01T03:16:32.000Z</time>
      </trkpt>
      <trkpt lat="42.780872" lon="0.679317">
        <ele>982.2</ele>
        <time>1970-01-01T03:16:38.000Z</time>
      </trkpt>
      <trkpt lat="42.780967" lon="0.679207">
        <ele>983.2</ele>
        <time>1970-01-01T03:16:43.000Z</time>
      </trkpt>
      <trkpt lat="42.781081" lon="0.679002">
        <ele>984.4</ele>
        <time>1970-01-01T03:16:50.000Z</time>
      </trkpt>
      <trkpt lat="42.781178" lon="0.678822">
        <ele>985.6</ele>
        <time>1970-01-01T03:16:56.000Z</time>
      </trkpt>
      <trkpt lat="42.781252" lon="0.678642">
        <ele>986.6</ele>
        <time>1970-01-01T03:17:02.000Z</time>
      </trkpt>
      <trkpt lat="42.781304" lon="0.6785">
        <ele>987.8</ele>
        <time>1970-01-01T03:17:07.000Z</time>
      </trkpt>
      <trkpt lat="42.781316" lon="0.678346">
        <ele>988.8</ele>
        <time>1970-01-01T03:17:12.000Z</time>
      </trkpt>
      <trkpt lat="42.781244" lon="0.678255">
        <ele>990.2</ele>
        <time>1970-01-01T03:17:17.000Z</time>
      </trkpt>
      <trkpt lat="42.781115" lon="0.678235">
        <ele>991.2</ele>
        <time>1970-01-01T03:17:22.000Z</time>
      </trkpt>
      <trkpt lat="42.780997" lon="0.678296">
        <ele>992.4</ele>
        <time>1970-01-01T03:17:27.000Z</time>
      </trkpt>
      <trkpt lat="42.780935" lon="0.678405">
        <ele>993.4</ele>
        <time>1970-01-01T03:17:32.000Z</time>
      </trkpt>
      <trkpt lat="42.780886" lon="0.678684">
        <ele>994.4</ele>
        <time>1970-01-01T03:17:40.000Z</time>
      </trkpt>
      <trkpt lat="42.780822" lon="0.678867">
        <ele>995.4</ele>
        <time>1970-01-01T03:17:46.000Z</time>
      </trkpt>
      <trkpt lat="42.780742" lon="0.678991">
        <ele>996.6</ele>
        <time>1970-01-01T03:17:51.000Z</time>
      </trkpt>
      <trkpt lat="42.780608" lon="0.679085">
        <ele>997.8</ele>
        <time>1970-01-01T03:17:57.000Z</time>
      </trkpt>
      <trkpt lat="42.780497" lon="0.679139">
        <ele>999.2</ele>
        <time>1970-01-01T03:18:02.000Z</time>
      </trkpt>
      <trkpt lat="42.780383" lon="0.679155">
        <ele>1000.2</ele>
        <time>1970-01-01T03:18:07.000Z</time>
      </trkpt>
      <trkpt lat="42.780263" lon="0.679205">
        <ele>1001.4</ele>
        <time>1970-01-01T03:18:12.000Z</time>
      </trkpt>
      <trkpt lat="42.780198" lon="0.679234">
        <ele>1002</ele>
        <time>1970-01-01T03:18:15.000Z</time>
      </trkpt>
      <trkpt lat="42.780156" lon="0.679251">
        <ele>1002.2</ele>
        <time>1970-01-01T03:18:17.000Z</time>
      </trkpt>
      <trkpt lat="42.780133" lon="0.679268">
        <ele>1002.4</ele>
        <time>1970-01-01T03:18:18.000Z</time>
      </trkpt>
      <trkpt lat="42.78" lon="0.67933">
        <ele>1003.6</ele>
        <time>1970-01-01T03:18:24.000Z</time>
      </trkpt>
      <trkpt lat="42.779895" lon="0.679387">
        <ele>1004.6</ele>
        <time>1970-01-01T03:18:29.000Z</time>
      </trkpt>
      <trkpt lat="42.779783" lon="0.679423">
        <ele>1006</ele>
        <time>1970-01-01T03:18:34.000Z</time>
      </trkpt>
      <trkpt lat="42.779651" lon="0.679479">
        <ele>1007.2</ele>
        <time>1970-01-01T03:18:40.000Z</time>
      </trkpt>
      <trkpt lat="42.779559" lon="0.679522">
        <ele>1008.2</ele>
        <time>1970-01-01T03:18:44.000Z</time>
      </trkpt>
      <trkpt lat="42.779447" lon="0.679564">
        <ele>1009.2</ele>
        <time>1970-01-01T03:18:49.000Z</time>
      </trkpt>
      <trkpt lat="42.779311" lon="0.679626">
        <ele>1010.6</ele>
        <time>1970-01-01T03:18:55.000Z</time>
      </trkpt>
      <trkpt lat="42.779174" lon="0.679691">
        <ele>1011.6</ele>
        <time>1970-01-01T03:19:01.000Z</time>
      </trkpt>
      <trkpt lat="42.779069" lon="0.679734">
        <ele>1012.6</ele>
        <time>1970-01-01T03:19:06.000Z</time>
      </trkpt>
      <trkpt lat="42.77894" lon="0.679785">
        <ele>1014</ele>
        <time>1970-01-01T03:19:12.000Z</time>
      </trkpt>
      <trkpt lat="42.778831" lon="0.679805">
        <ele>1015.2</ele>
        <time>1970-01-01T03:19:17.000Z</time>
      </trkpt>
      <trkpt lat="42.778722" lon="0.679834">
        <ele>1016.4</ele>
        <time>1970-01-01T03:19:22.000Z</time>
      </trkpt>
      <trkpt lat="42.778559" lon="0.679963">
        <ele>1017.8</ele>
        <time>1970-01-01T03:19:30.000Z</time>
      </trkpt>
      <trkpt lat="42.778453" lon="0.680077">
        <ele>1018.8</ele>
        <time>1970-01-01T03:19:36.000Z</time>
      </trkpt>
      <trkpt lat="42.778352" lon="0.680192">
        <ele>1019.8</ele>
        <time>1970-01-01T03:19:42.000Z</time>
      </trkpt>
      <trkpt lat="42.778277" lon="0.680276">
        <ele>1021.2</ele>
        <time>1970-01-01T03:19:47.000Z</time>
      </trkpt>
      <trkpt lat="42.778202" lon="0.680322">
        <ele>1022.4</ele>
        <time>1970-01-01T03:19:52.000Z</time>
      </trkpt>
      <trkpt lat="42.778105" lon="0.680322">
        <ele>1023.4</ele>
        <time>1970-01-01T03:19:57.000Z</time>
      </trkpt>
      <trkpt lat="42.778071" lon="0.680307">
        <ele>1023.8</ele>
        <time>1970-01-01T03:19:59.000Z</time>
      </trkpt>
      <trkpt lat="42.77806" lon="0.680295">
        <ele>1024.4</ele>
        <time>1970-01-01T03:20:00.000Z</time>
      </trkpt>
      <trkpt lat="42.778026" lon="0.680228">
        <ele>1025.4</ele>
        <time>1970-01-01T03:20:04.000Z</time>
      </trkpt>
      <trkpt lat="42.778025" lon="0.680175">
        <ele>1026</ele>
        <time>1970-01-01T03:20:06.000Z</time>
      </trkpt>
      <trkpt lat="42.778025" lon="0.680074">
        <ele>1026.8</ele>
        <time>1970-01-01T03:20:09.000Z</time>
      </trkpt>
      <trkpt lat="42.778038" lon="0.679937">
        <ele>1028</ele>
        <time>1970-01-01T03:20:14.000Z</time>
      </trkpt>
      <trkpt lat="42.778038" lon="0.679771">
        <ele>1029</ele>
        <time>1970-01-01T03:20:20.000Z</time>
      </trkpt>
      <trkpt lat="42.777995" lon="0.679643">
        <ele>1030</ele>
        <time>1970-01-01T03:20:26.000Z</time>
      </trkpt>
      <trkpt lat="42.777891" lon="0.679503">
        <ele>1031.2</ele>
        <time>1970-01-01T03:20:33.000Z</time>
      </trkpt>
      <trkpt lat="42.777825" lon="0.679386">
        <ele>1032.2</ele>
        <time>1970-01-01T03:20:40.000Z</time>
      </trkpt>
      <trkpt lat="42.777791" lon="0.679363">
        <ele>1032.8</ele>
        <time>1970-01-01T03:20:44.000Z</time>
      </trkpt>
      <trkpt lat="42.77788" lon="0.679598">
        <ele>1032.2</ele>
        <time>1970-01-01T03:20:50.000Z</time>
      </trkpt>
      <trkpt lat="42.777969" lon="0.679791">
        <ele>1030.6</ele>
        <time>1970-01-01T03:20:53.000Z</time>
      </trkpt>
      <trkpt lat="42.777995" lon="0.680011">
        <ele>1029.4</ele>
        <time>1970-01-01T03:20:56.000Z</time>
      </trkpt>
      <trkpt lat="42.777981" lon="0.680144">
        <ele>1027.8</ele>
        <time>1970-01-01T03:20:58.000Z</time>
      </trkpt>
      <trkpt lat="42.77797" lon="0.680203">
        <ele>1027.4</ele>
        <time>1970-01-01T03:20:59.000Z</time>
      </trkpt>
      <trkpt lat="42.777949" lon="0.680303">
        <ele>1026.8</ele>
        <time>1970-01-01T03:21:01.000Z</time>
      </trkpt>
      <trkpt lat="42.777938" lon="0.680381">
        <ele>1025.8</ele>
        <time>1970-01-01T03:21:05.000Z</time>
      </trkpt>
      <trkpt lat="42.77791" lon="0.680309">
        <ele>1025</ele>
        <time>1970-01-01T03:31:37.000Z</time>
      </trkpt>
      <trkpt lat="42.777943" lon="0.680185">
        <ele>1025.4</ele>
        <time>1970-01-01T03:31:42.000Z</time>
      </trkpt>
      <trkpt lat="42.77799" lon="0.680086">
        <ele>1026</ele>
        <time>1970-01-01T03:31:46.000Z</time>
      </trkpt>
      <trkpt lat="42.778019" lon="0.67995">
        <ele>1027.2</ele>
        <time>1970-01-01T03:31:51.000Z</time>
      </trkpt>
      <trkpt lat="42.778017" lon="0.679808">
        <ele>1028.2</ele>
        <time>1970-01-01T03:31:56.000Z</time>
      </trkpt>
      <trkpt lat="42.777966" lon="0.679661">
        <ele>1029.4</ele>
        <time>1970-01-01T03:32:03.000Z</time>
      </trkpt>
      <trkpt lat="42.777897" lon="0.679538">
        <ele>1030.4</ele>
        <time>1970-01-01T03:32:09.000Z</time>
      </trkpt>
      <trkpt lat="42.777825" lon="0.67941">
        <ele>1031.4</ele>
        <time>1970-01-01T03:32:16.000Z</time>
      </trkpt>
      <trkpt lat="42.777821" lon="0.679351">
        <ele>1032</ele>
        <time>1970-01-01T03:32:19.000Z</time>
      </trkpt>
      <trkpt lat="42.777849" lon="0.679313">
        <ele>1032.6</ele>
        <time>1970-01-01T03:32:22.000Z</time>
      </trkpt>
      <trkpt lat="42.777881" lon="0.679302">
        <ele>1033.2</ele>
        <time>1970-01-01T03:32:25.000Z</time>
      </trkpt>
      <trkpt lat="42.777908" lon="0.679298">
        <ele>1033.6</ele>
        <time>1970-01-01T03:32:27.000Z</time>
      </trkpt>
      <trkpt lat="42.777966" lon="0.67933">
        <ele>1034.8</ele>
        <time>1970-01-01T03:32:31.000Z</time>
      </trkpt>
      <trkpt lat="42.778051" lon="0.67943">
        <ele>1035.8</ele>
        <time>1970-01-01T03:32:37.000Z</time>
      </trkpt>
      <trkpt lat="42.778139" lon="0.679467">
        <ele>1037</ele>
        <time>1970-01-01T03:32:43.000Z</time>
      </trkpt>
      <trkpt lat="42.778149" lon="0.679462">
        <ele>1037.4</ele>
        <time>1970-01-01T03:32:44.000Z</time>
      </trkpt>
      <trkpt lat="42.778192" lon="0.67944">
        <ele>1038.2</ele>
        <time>1970-01-01T03:32:48.000Z</time>
      </trkpt>
      <trkpt lat="42.778267" lon="0.679379">
        <ele>1039.2</ele>
        <time>1970-01-01T03:32:54.000Z</time>
      </trkpt>
      <trkpt lat="42.778315" lon="0.679338">
        <ele>1039.8</ele>
        <time>1970-01-01T03:32:58.000Z</time>
      </trkpt>
      <trkpt lat="42.778372" lon="0.679299">
        <ele>1040.4</ele>
        <time>1970-01-01T03:33:04.000Z</time>
      </trkpt>
      <trkpt lat="42.778425" lon="0.679288">
        <ele>1040.8</ele>
        <time>1970-01-01T03:33:10.000Z</time>
      </trkpt>
      <trkpt lat="42.778428" lon="0.679283">
        <ele>1040.6</ele>
        <time>1970-01-01T03:33:12.000Z</time>
      </trkpt>
      <trkpt lat="42.778547" lon="0.679125">
        <ele>1040.8</ele>
        <time>1970-01-01T03:53:41.000Z</time>
      </trkpt>
      <trkpt lat="42.778607" lon="0.679061">
        <ele>1041.8</ele>
        <time>1970-01-01T03:53:47.000Z</time>
      </trkpt>
      <trkpt lat="42.778706" lon="0.678982">
        <ele>1043</ele>
        <time>1970-01-01T03:53:56.000Z</time>
      </trkpt>
      <trkpt lat="42.778729" lon="0.678964">
        <ele>1043.4</ele>
        <time>1970-01-01T03:53:58.000Z</time>
      </trkpt>
      <trkpt lat="42.778793" lon="0.678886">
        <ele>1044.2</ele>
        <time>1970-01-01T03:54:05.000Z</time>
      </trkpt>
      <trkpt lat="42.77885" lon="0.678839">
        <ele>1045.2</ele>
        <time>1970-01-01T03:54:10.000Z</time>
      </trkpt>
      <trkpt lat="42.77886" lon="0.678829">
        <ele>1045.4</ele>
        <time>1970-01-01T03:54:11.000Z</time>
      </trkpt>
      <trkpt lat="42.778882" lon="0.67881">
        <ele>1046</ele>
        <time>1970-01-01T03:54:13.000Z</time>
      </trkpt>
      <trkpt lat="42.778918" lon="0.678791">
        <ele>1046.6</ele>
        <time>1970-01-01T03:54:16.000Z</time>
      </trkpt>
      <trkpt lat="42.77899" lon="0.678754">
        <ele>1047.6</ele>
        <time>1970-01-01T03:54:22.000Z</time>
      </trkpt>
      <trkpt lat="42.779049" lon="0.678725">
        <ele>1048.6</ele>
        <time>1970-01-01T03:54:27.000Z</time>
      </trkpt>
      <trkpt lat="42.779098" lon="0.678698">
        <ele>1049</ele>
        <time>1970-01-01T03:54:32.000Z</time>
      </trkpt>
      <trkpt lat="42.779124" lon="0.678663">
        <ele>1049.8</ele>
        <time>1970-01-01T03:54:35.000Z</time>
      </trkpt>
      <trkpt lat="42.779205" lon="0.678593">
        <ele>1050.8</ele>
        <time>1970-01-01T03:54:44.000Z</time>
      </trkpt>
      <trkpt lat="42.77921" lon="0.678579">
        <ele>1051</ele>
        <time>1970-01-01T03:54:45.000Z</time>
      </trkpt>
      <trkpt lat="42.779226" lon="0.678557">
        <ele>1051.2</ele>
        <time>1970-01-01T03:54:47.000Z</time>
      </trkpt>
      <trkpt lat="42.779284" lon="0.678496">
        <ele>1052</ele>
        <time>1970-01-01T03:54:53.000Z</time>
      </trkpt>
      <trkpt lat="42.779343" lon="0.678427">
        <ele>1053.2</ele>
        <time>1970-01-01T03:54:59.000Z</time>
      </trkpt>
      <trkpt lat="42.779442" lon="0.67831">
        <ele>1054.4</ele>
        <time>1970-01-01T03:55:09.000Z</time>
      </trkpt>
      <trkpt lat="42.7795" lon="0.678245">
        <ele>1055.4</ele>
        <time>1970-01-01T03:55:15.000Z</time>
      </trkpt>
      <trkpt lat="42.779548" lon="0.678188">
        <ele>1056</ele>
        <time>1970-01-01T03:55:20.000Z</time>
      </trkpt>
      <trkpt lat="42.779581" lon="0.678136">
        <ele>1056.6</ele>
        <time>1970-01-01T03:55:24.000Z</time>
      </trkpt>
      <trkpt lat="42.779641" lon="0.678045">
        <ele>1057.8</ele>
        <time>1970-01-01T03:55:31.000Z</time>
      </trkpt>
      <trkpt lat="42.77967" lon="0.677994">
        <ele>1058.8</ele>
        <time>1970-01-01T03:55:35.000Z</time>
      </trkpt>
      <trkpt lat="42.779745" lon="0.67786">
        <ele>1060</ele>
        <time>1970-01-01T03:55:45.000Z</time>
      </trkpt>
      <trkpt lat="42.779752" lon="0.677846">
        <ele>1060.2</ele>
        <time>1970-01-01T03:55:46.000Z</time>
      </trkpt>
      <trkpt lat="42.779781" lon="0.677789">
        <ele>1060.6</ele>
        <time>1970-01-01T03:55:50.000Z</time>
      </trkpt>
      <trkpt lat="42.779802" lon="0.677747">
        <ele>1061.2</ele>
        <time>1970-01-01T03:55:53.000Z</time>
      </trkpt>
      <trkpt lat="42.779835" lon="0.677647">
        <ele>1062.2</ele>
        <time>1970-01-01T03:55:59.000Z</time>
      </trkpt>
      <trkpt lat="42.779878" lon="0.677551">
        <ele>1063.4</ele>
        <time>1970-01-01T03:56:05.000Z</time>
      </trkpt>
      <trkpt lat="42.779936" lon="0.677443">
        <ele>1064.6</ele>
        <time>1970-01-01T03:56:12.000Z</time>
      </trkpt>
      <trkpt lat="42.779963" lon="0.677397">
        <ele>1065</ele>
        <time>1970-01-01T03:56:15.000Z</time>
      </trkpt>
      <trkpt lat="42.779993" lon="0.677341">
        <ele>1065.6</ele>
        <time>1970-01-01T03:56:19.000Z</time>
      </trkpt>
      <trkpt lat="42.779999" lon="0.677325">
        <ele>1065.8</ele>
        <time>1970-01-01T03:56:20.000Z</time>
      </trkpt>
      <trkpt lat="42.780031" lon="0.677249">
        <ele>1066.6</ele>
        <time>1970-01-01T03:56:25.000Z</time>
      </trkpt>
      <trkpt lat="42.780051" lon="0.677179">
        <ele>1067.2</ele>
        <time>1970-01-01T03:56:29.000Z</time>
      </trkpt>
      <trkpt lat="42.780057" lon="0.677143">
        <ele>1067.8</ele>
        <time>1970-01-01T03:56:31.000Z</time>
      </trkpt>
      <trkpt lat="42.780089" lon="0.677074">
        <ele>1068.8</ele>
        <time>1970-01-01T03:56:35.000Z</time>
      </trkpt>
      <trkpt lat="42.780132" lon="0.676949">
        <ele>1069.8</ele>
        <time>1970-01-01T03:56:42.000Z</time>
      </trkpt>
      <trkpt lat="42.780197" lon="0.676829">
        <ele>1071.2</ele>
        <time>1970-01-01T03:56:50.000Z</time>
      </trkpt>
      <trkpt lat="42.780252" lon="0.676723">
        <ele>1072</ele>
        <time>1970-01-01T03:56:57.000Z</time>
      </trkpt>
      <trkpt lat="42.780285" lon="0.676641">
        <ele>1073</ele>
        <time>1970-01-01T03:57:02.000Z</time>
      </trkpt>
      <trkpt lat="42.780299" lon="0.676624">
        <ele>1073.2</ele>
        <time>1970-01-01T03:57:03.000Z</time>
      </trkpt>
      <trkpt lat="42.780379" lon="0.676475">
        <ele>1074.2</ele>
        <time>1970-01-01T03:57:11.000Z</time>
      </trkpt>
      <trkpt lat="42.780433" lon="0.676264">
        <ele>1075.2</ele>
        <time>1970-01-01T03:57:20.000Z</time>
      </trkpt>
      <trkpt lat="42.780414" lon="0.676059">
        <ele>1076</ele>
        <time>1970-01-01T03:57:28.000Z</time>
      </trkpt>
      <trkpt lat="42.780425" lon="0.675876">
        <ele>1077.4</ele>
        <time>1970-01-01T03:57:36.000Z</time>
      </trkpt>
      <trkpt lat="42.780446" lon="0.675789">
        <ele>1078.4</ele>
        <time>1970-01-01T03:57:40.000Z</time>
      </trkpt>
      <trkpt lat="42.78046" lon="0.6757">
        <ele>1079.4</ele>
        <time>1970-01-01T03:57:45.000Z</time>
      </trkpt>
      <trkpt lat="42.780464" lon="0.675606">
        <ele>1080</ele>
        <time>1970-01-01T03:57:50.000Z</time>
      </trkpt>
      <trkpt lat="42.780438" lon="0.675503">
        <ele>1080.4</ele>
        <time>1970-01-01T03:57:54.000Z</time>
      </trkpt>
      <trkpt lat="42.78039" lon="0.675015">
        <ele>1081.2</ele>
        <time>1970-01-01T03:58:12.000Z</time>
      </trkpt>
      <trkpt lat="42.780365" lon="0.674749">
        <ele>1082.4</ele>
        <time>1970-01-01T03:58:22.000Z</time>
      </trkpt>
      <trkpt lat="42.780378" lon="0.674443">
        <ele>1083.4</ele>
        <time>1970-01-01T03:58:33.000Z</time>
      </trkpt>
      <trkpt lat="42.780421" lon="0.674195">
        <ele>1084.4</ele>
        <time>1970-01-01T03:58:43.000Z</time>
      </trkpt>
      <trkpt lat="42.780548" lon="0.673912">
        <ele>1085.6</ele>
        <time>1970-01-01T03:58:55.000Z</time>
      </trkpt>
      <trkpt lat="42.780574" lon="0.67373">
        <ele>1086.6</ele>
        <time>1970-01-01T03:59:02.000Z</time>
      </trkpt>
      <trkpt lat="42.78049" lon="0.673465">
        <ele>1087.6</ele>
        <time>1970-01-01T03:59:14.000Z</time>
      </trkpt>
      <trkpt lat="42.780495" lon="0.673407">
        <ele>1087.6</ele>
        <time>1970-01-01T03:59:16.000Z</time>
      </trkpt>
      <trkpt lat="42.780512" lon="0.673302">
        <ele>1088.4</ele>
        <time>1970-01-01T03:59:20.000Z</time>
      </trkpt>
      <trkpt lat="42.780519" lon="0.673242">
        <ele>1088.8</ele>
        <time>1970-01-01T03:59:22.000Z</time>
      </trkpt>
      <trkpt lat="42.780489" lon="0.672938">
        <ele>1089.6</ele>
        <time>1970-01-01T03:59:31.000Z</time>
      </trkpt>
      <trkpt lat="42.7806" lon="0.672658">
        <ele>1090.8</ele>
        <time>1970-01-01T03:59:42.000Z</time>
      </trkpt>
      <trkpt lat="42.780624" lon="0.672614">
        <ele>1091.2</ele>
        <time>1970-01-01T03:59:44.000Z</time>
      </trkpt>
      <trkpt lat="42.780653" lon="0.672547">
        <ele>1091.8</ele>
        <time>1970-01-01T03:59:47.000Z</time>
      </trkpt>
      <trkpt lat="42.780683" lon="0.672368">
        <ele>1093</ele>
        <time>1970-01-01T03:59:54.000Z</time>
      </trkpt>
      <trkpt lat="42.780708" lon="0.672199">
        <ele>1094.2</ele>
        <time>1970-01-01T04:00:01.000Z</time>
      </trkpt>
      <trkpt lat="42.780724" lon="0.672069">
        <ele>1095.2</ele>
        <time>1970-01-01T04:00:07.000Z</time>
      </trkpt>
      <trkpt lat="42.780762" lon="0.6719">
        <ele>1096.4</ele>
        <time>1970-01-01T04:00:15.000Z</time>
      </trkpt>
      <trkpt lat="42.780763" lon="0.671745">
        <ele>1097.6</ele>
        <time>1970-01-01T04:00:22.000Z</time>
      </trkpt>
      <trkpt lat="42.780735" lon="0.67165">
        <ele>1098.6</ele>
        <time>1970-01-01T04:00:27.000Z</time>
      </trkpt>
      <trkpt lat="42.780703" lon="0.671557">
        <ele>1099.6</ele>
        <time>1970-01-01T04:00:32.000Z</time>
      </trkpt>
      <trkpt lat="42.780673" lon="0.67148">
        <ele>1100.6</ele>
        <time>1970-01-01T04:00:36.000Z</time>
      </trkpt>
      <trkpt lat="42.780656" lon="0.671329">
        <ele>1101.6</ele>
        <time>1970-01-01T04:00:43.000Z</time>
      </trkpt>
      <trkpt lat="42.780669" lon="0.671268">
        <ele>1102.2</ele>
        <time>1970-01-01T04:00:47.000Z</time>
      </trkpt>
      <trkpt lat="42.780836" lon="0.671143">
        <ele>1102.6</ele>
        <time>1970-01-01T04:00:57.000Z</time>
      </trkpt>
      <trkpt lat="42.780853" lon="0.671089">
        <ele>1102.8</ele>
        <time>1970-01-01T04:00:59.000Z</time>
      </trkpt>
      <trkpt lat="42.781197" lon="0.670667">
        <ele>1103.8</ele>
        <time>1970-01-01T04:01:22.000Z</time>
      </trkpt>
      <trkpt lat="42.781289" lon="0.670522">
        <ele>1104.8</ele>
        <time>1970-01-01T04:01:29.000Z</time>
      </trkpt>
      <trkpt lat="42.781345" lon="0.670325">
        <ele>1106</ele>
        <time>1970-01-01T04:01:36.000Z</time>
      </trkpt>
      <trkpt lat="42.781378" lon="0.670188">
        <ele>1107.2</ele>
        <time>1970-01-01T04:01:41.000Z</time>
      </trkpt>
      <trkpt lat="42.781418" lon="0.670056">
        <ele>1108.2</ele>
        <time>1970-01-01T04:01:46.000Z</time>
      </trkpt>
      <trkpt lat="42.781475" lon="0.669904">
        <ele>1109.4</ele>
        <time>1970-01-01T04:01:52.000Z</time>
      </trkpt>
      <trkpt lat="42.78158" lon="0.669676">
        <ele>1110.6</ele>
        <time>1970-01-01T04:02:02.000Z</time>
      </trkpt>
      <trkpt lat="42.781634" lon="0.669572">
        <ele>1111.8</ele>
        <time>1970-01-01T04:02:07.000Z</time>
      </trkpt>
      <trkpt lat="42.781667" lon="0.669517">
        <ele>1112.2</ele>
        <time>1970-01-01T04:02:10.000Z</time>
      </trkpt>
      <trkpt lat="42.781721" lon="0.669422">
        <ele>1113</ele>
        <time>1970-01-01T04:02:15.000Z</time>
      </trkpt>
      <trkpt lat="42.78178" lon="0.669334">
        <ele>1114</ele>
        <time>1970-01-01T04:02:20.000Z</time>
      </trkpt>
      <trkpt lat="42.781838" lon="0.669221">
        <ele>1115</ele>
        <time>1970-01-01T04:02:26.000Z</time>
      </trkpt>
      <trkpt lat="42.781924" lon="0.669081">
        <ele>1116</ele>
        <time>1970-01-01T04:02:34.000Z</time>
      </trkpt>
      <trkpt lat="42.781984" lon="0.668961">
        <ele>1117</ele>
        <time>1970-01-01T04:02:40.000Z</time>
      </trkpt>
      <trkpt lat="42.782042" lon="0.668856">
        <ele>1118.2</ele>
        <time>1970-01-01T04:02:45.000Z</time>
      </trkpt>
      <trkpt lat="42.782109" lon="0.668744">
        <ele>1119.2</ele>
        <time>1970-01-01T04:02:51.000Z</time>
      </trkpt>
      <trkpt lat="42.782124" lon="0.66873">
        <ele>1119.2</ele>
        <time>1970-01-01T04:02:52.000Z</time>
      </trkpt>
      <trkpt lat="42.782207" lon="0.66864">
        <ele>1120.4</ele>
        <time>1970-01-01T04:02:59.000Z</time>
      </trkpt>
      <trkpt lat="42.782313" lon="0.668528">
        <ele>1121.4</ele>
        <time>1970-01-01T04:03:07.000Z</time>
      </trkpt>
      <trkpt lat="42.782413" lon="0.668402">
        <ele>1122.4</ele>
        <time>1970-01-01T04:03:15.000Z</time>
      </trkpt>
      <trkpt lat="42.782503" lon="0.668272">
        <ele>1123.6</ele>
        <time>1970-01-01T04:03:24.000Z</time>
      </trkpt>
      <trkpt lat="42.782554" lon="0.668219">
        <ele>1123.8</ele>
        <time>1970-01-01T04:03:28.000Z</time>
      </trkpt>
      <trkpt lat="42.782588" lon="0.668195">
        <ele>1124.2</ele>
        <time>1970-01-01T04:03:31.000Z</time>
      </trkpt>
      <trkpt lat="42.782653" lon="0.668144">
        <ele>1124.6</ele>
        <time>1970-01-01T04:03:36.000Z</time>
      </trkpt>
      <trkpt lat="42.782751" lon="0.668031">
        <ele>1125.8</ele>
        <time>1970-01-01T04:03:43.000Z</time>
      </trkpt>
      <trkpt lat="42.782917" lon="0.667783">
        <ele>1126.8</ele>
        <time>1970-01-01T04:03:56.000Z</time>
      </trkpt>
      <trkpt lat="42.78298" lon="0.667703">
        <ele>1127.8</ele>
        <time>1970-01-01T04:04:01.000Z</time>
      </trkpt>
      <trkpt lat="42.783093" lon="0.667536">
        <ele>1129</ele>
        <time>1970-01-01T04:04:11.000Z</time>
      </trkpt>
      <trkpt lat="42.783203" lon="0.667252">
        <ele>1130</ele>
        <time>1970-01-01T04:04:24.000Z</time>
      </trkpt>
      <trkpt lat="42.78337" lon="0.667107">
        <ele>1131.2</ele>
        <time>1970-01-01T04:04:35.000Z</time>
      </trkpt>
      <trkpt lat="42.783389" lon="0.667118">
        <ele>1131.2</ele>
        <time>1970-01-01T04:04:36.000Z</time>
      </trkpt>
      <trkpt lat="42.783432" lon="0.667203">
        <ele>1131.4</ele>
        <time>1970-01-01T04:04:40.000Z</time>
      </trkpt>
      <trkpt lat="42.783569" lon="0.667402">
        <ele>1132.2</ele>
        <time>1970-01-01T04:04:50.000Z</time>
      </trkpt>
      <trkpt lat="42.783665" lon="0.667494">
        <ele>1132.8</ele>
        <time>1970-01-01T04:04:55.000Z</time>
      </trkpt>
      <trkpt lat="42.7838" lon="0.667573">
        <ele>1133.2</ele>
        <time>1970-01-01T04:05:02.000Z</time>
      </trkpt>
      <trkpt lat="42.783909" lon="0.667791">
        <ele>1134.2</ele>
        <time>1970-01-01T04:05:12.000Z</time>
      </trkpt>
      <trkpt lat="42.784004" lon="0.66794">
        <ele>1135</ele>
        <time>1970-01-01T04:05:20.000Z</time>
      </trkpt>
      <trkpt lat="42.783993" lon="0.668072">
        <ele>1135.2</ele>
        <time>1970-01-01T04:05:25.000Z</time>
      </trkpt>
      <trkpt lat="42.783925" lon="0.668206">
        <ele>1134.8</ele>
        <time>1970-01-01T04:05:30.000Z</time>
      </trkpt>
      <trkpt lat="42.783848" lon="0.668614">
        <ele>1133</ele>
        <time>1970-01-01T04:05:38.000Z</time>
      </trkpt>
      <trkpt lat="42.783809" lon="0.668965">
        <ele>1131.8</ele>
        <time>1970-01-01T04:05:43.000Z</time>
      </trkpt>
      <trkpt lat="42.783803" lon="0.669185">
        <ele>1131.2</ele>
        <time>1970-01-01T04:05:46.000Z</time>
      </trkpt>
      <trkpt lat="42.783819" lon="0.669317">
        <ele>1130.6</ele>
        <time>1970-01-01T04:05:48.000Z</time>
      </trkpt>
      <trkpt lat="42.783773" lon="0.669624">
        <ele>1129.6</ele>
        <time>1970-01-01T04:05:54.000Z</time>
      </trkpt>
      <trkpt lat="42.783828" lon="0.66993">
        <ele>1128.2</ele>
        <time>1970-01-01T04:05:58.000Z</time>
      </trkpt>
      <trkpt lat="42.783995" lon="0.670662">
        <ele>1128.6</ele>
        <time>1970-01-01T04:06:12.000Z</time>
      </trkpt>
      <trkpt lat="42.784024" lon="0.670795">
        <ele>1129.4</ele>
        <time>1970-01-01T04:06:16.000Z</time>
      </trkpt>
      <trkpt lat="42.784054" lon="0.670938">
        <ele>1130.4</ele>
        <time>1970-01-01T04:06:21.000Z</time>
      </trkpt>
      <trkpt lat="42.784076" lon="0.671061">
        <ele>1131.4</ele>
        <time>1970-01-01T04:06:26.000Z</time>
      </trkpt>
      <trkpt lat="42.784107" lon="0.671245">
        <ele>1132.4</ele>
        <time>1970-01-01T04:06:33.000Z</time>
      </trkpt>
      <trkpt lat="42.784133" lon="0.671342">
        <ele>1133.4</ele>
        <time>1970-01-01T04:06:37.000Z</time>
      </trkpt>
      <trkpt lat="42.784185" lon="0.671518">
        <ele>1134.6</ele>
        <time>1970-01-01T04:06:45.000Z</time>
      </trkpt>
      <trkpt lat="42.784201" lon="0.671557">
        <ele>1134.8</ele>
        <time>1970-01-01T04:06:47.000Z</time>
      </trkpt>
      <trkpt lat="42.784215" lon="0.671587">
        <ele>1135.2</ele>
        <time>1970-01-01T04:06:50.000Z</time>
      </trkpt>
      <trkpt lat="42.784261" lon="0.671702">
        <ele>1136.4</ele>
        <time>1970-01-01T04:07:11.000Z</time>
      </trkpt>
      <trkpt lat="42.784301" lon="0.671916">
        <ele>1137.6</ele>
        <time>1970-01-01T04:07:18.000Z</time>
      </trkpt>
      <trkpt lat="42.784335" lon="0.67206">
        <ele>1138.4</ele>
        <time>1970-01-01T04:07:23.000Z</time>
      </trkpt>
      <trkpt lat="42.784372" lon="0.672177">
        <ele>1139.2</ele>
        <time>1970-01-01T04:07:27.000Z</time>
      </trkpt>
      <trkpt lat="42.784394" lon="0.672232">
        <ele>1139.6</ele>
        <time>1970-01-01T04:07:29.000Z</time>
      </trkpt>
      <trkpt lat="42.784443" lon="0.672401">
        <ele>1140.6</ele>
        <time>1970-01-01T04:07:35.000Z</time>
      </trkpt>
      <trkpt lat="42.784472" lon="0.672503">
        <ele>1141.8</ele>
        <time>1970-01-01T04:07:39.000Z</time>
      </trkpt>
      <trkpt lat="42.784508" lon="0.672607">
        <ele>1142.4</ele>
        <time>1970-01-01T04:07:43.000Z</time>
      </trkpt>
      <trkpt lat="42.784527" lon="0.672649">
        <ele>1143</ele>
        <time>1970-01-01T04:07:45.000Z</time>
      </trkpt>
      <trkpt lat="42.7846" lon="0.672753">
        <ele>1144.2</ele>
        <time>1970-01-01T04:07:50.000Z</time>
      </trkpt>
      <trkpt lat="42.784665" lon="0.672863">
        <ele>1145.4</ele>
        <time>1970-01-01T04:07:55.000Z</time>
      </trkpt>
      <trkpt lat="42.784709" lon="0.67293">
        <ele>1146.8</ele>
        <time>1970-01-01T04:07:59.000Z</time>
      </trkpt>
      <trkpt lat="42.784793" lon="0.673014">
        <ele>1147.8</ele>
        <time>1970-01-01T04:08:05.000Z</time>
      </trkpt>
      <trkpt lat="42.784848" lon="0.673056">
        <ele>1148.6</ele>
        <time>1970-01-01T04:08:09.000Z</time>
      </trkpt>
      <trkpt lat="42.784893" lon="0.673086">
        <ele>1149.2</ele>
        <time>1970-01-01T04:08:12.000Z</time>
      </trkpt>
      <trkpt lat="42.784952" lon="0.673147">
        <ele>1149.8</ele>
        <time>1970-01-01T04:08:16.000Z</time>
      </trkpt>
      <trkpt lat="42.785008" lon="0.673195">
        <ele>1151</ele>
        <time>1970-01-01T04:08:20.000Z</time>
      </trkpt>
      <trkpt lat="42.785092" lon="0.673259">
        <ele>1152</ele>
        <time>1970-01-01T04:08:26.000Z</time>
      </trkpt>
      <trkpt lat="42.785167" lon="0.673302">
        <ele>1153.2</ele>
        <time>1970-01-01T04:08:31.000Z</time>
      </trkpt>
      <trkpt lat="42.785264" lon="0.673365">
        <ele>1154.2</ele>
        <time>1970-01-01T04:08:38.000Z</time>
      </trkpt>
      <trkpt lat="42.785347" lon="0.673389">
        <ele>1155.4</ele>
        <time>1970-01-01T04:08:43.000Z</time>
      </trkpt>
      <trkpt lat="42.785453" lon="0.67343">
        <ele>1156.6</ele>
        <time>1970-01-01T04:08:50.000Z</time>
      </trkpt>
      <trkpt lat="42.785474" lon="0.673435">
        <ele>1156.8</ele>
        <time>1970-01-01T04:08:52.000Z</time>
      </trkpt>
      <trkpt lat="42.785542" lon="0.673443">
        <ele>1157.6</ele>
        <time>1970-01-01T04:08:56.000Z</time>
      </trkpt>
      <trkpt lat="42.78556" lon="0.673451">
        <ele>1157.6</ele>
        <time>1970-01-01T04:08:57.000Z</time>
      </trkpt>
      <trkpt lat="42.785649" lon="0.673494">
        <ele>1158.8</ele>
        <time>1970-01-01T04:09:03.000Z</time>
      </trkpt>
      <trkpt lat="42.785747" lon="0.673598">
        <ele>1159.8</ele>
        <time>1970-01-01T04:09:10.000Z</time>
      </trkpt>
      <trkpt lat="42.785859" lon="0.673711">
        <ele>1161</ele>
        <time>1970-01-01T04:09:18.000Z</time>
      </trkpt>
      <trkpt lat="42.785924" lon="0.673786">
        <ele>1162.2</ele>
        <time>1970-01-01T04:09:23.000Z</time>
      </trkpt>
      <trkpt lat="42.786039" lon="0.673911">
        <ele>1163.2</ele>
        <time>1970-01-01T04:09:31.000Z</time>
      </trkpt>
      <trkpt lat="42.786125" lon="0.674044">
        <ele>1164.4</ele>
        <time>1970-01-01T04:09:38.000Z</time>
      </trkpt>
      <trkpt lat="42.786221" lon="0.674171">
        <ele>1165.4</ele>
        <time>1970-01-01T04:09:46.000Z</time>
      </trkpt>
      <trkpt lat="42.78629" lon="0.674245">
        <ele>1166.2</ele>
        <time>1970-01-01T04:09:51.000Z</time>
      </trkpt>
      <trkpt lat="42.786325" lon="0.674283">
        <ele>1166.6</ele>
        <time>1970-01-01T04:09:54.000Z</time>
      </trkpt>
      <trkpt lat="42.786336" lon="0.674298">
        <ele>1166.6</ele>
        <time>1970-01-01T04:09:55.000Z</time>
      </trkpt>
      <trkpt lat="42.786392" lon="0.674364">
        <ele>1167.8</ele>
        <time>1970-01-01T04:10:00.000Z</time>
      </trkpt>
      <trkpt lat="42.786494" lon="0.674442">
        <ele>1168.8</ele>
        <time>1970-01-01T04:10:07.000Z</time>
      </trkpt>
      <trkpt lat="42.786575" lon="0.674497">
        <ele>1169.8</ele>
        <time>1970-01-01T04:10:13.000Z</time>
      </trkpt>
      <trkpt lat="42.78667" lon="0.674544">
        <ele>1171</ele>
        <time>1970-01-01T04:10:19.000Z</time>
      </trkpt>
      <trkpt lat="42.786808" lon="0.674506">
        <ele>1172</ele>
        <time>1970-01-01T04:10:27.000Z</time>
      </trkpt>
      <trkpt lat="42.786885" lon="0.674455">
        <ele>1173</ele>
        <time>1970-01-01T04:10:32.000Z</time>
      </trkpt>
      <trkpt lat="42.786994" lon="0.674404">
        <ele>1174.2</ele>
        <time>1970-01-01T04:10:38.000Z</time>
      </trkpt>
      <trkpt lat="42.787061" lon="0.674379">
        <ele>1175.2</ele>
        <time>1970-01-01T04:10:43.000Z</time>
      </trkpt>
      <trkpt lat="42.787169" lon="0.674379">
        <ele>1176.6</ele>
        <time>1970-01-01T04:10:50.000Z</time>
      </trkpt>
      <trkpt lat="42.787274" lon="0.674353">
        <ele>1177.6</ele>
        <time>1970-01-01T04:10:56.000Z</time>
      </trkpt>
      <trkpt lat="42.787307" lon="0.674351">
        <ele>1177.6</ele>
        <time>1970-01-01T04:10:58.000Z</time>
      </trkpt>
      <trkpt lat="42.787359" lon="0.674389">
        <ele>1178.8</ele>
        <time>1970-01-01T04:11:01.000Z</time>
      </trkpt>
      <trkpt lat="42.787461" lon="0.674466">
        <ele>1180</ele>
        <time>1970-01-01T04:11:08.000Z</time>
      </trkpt>
      <trkpt lat="42.787583" lon="0.67449">
        <ele>1180.8</ele>
        <time>1970-01-01T04:11:14.000Z</time>
      </trkpt>
      <trkpt lat="42.787615" lon="0.674499">
        <ele>1181</ele>
        <time>1970-01-01T04:11:16.000Z</time>
      </trkpt>
      <trkpt lat="42.787691" lon="0.67451">
        <ele>1182</ele>
        <time>1970-01-01T04:11:20.000Z</time>
      </trkpt>
      <trkpt lat="42.787741" lon="0.674499">
        <ele>1183</ele>
        <time>1970-01-01T04:11:23.000Z</time>
      </trkpt>
      <trkpt lat="42.787824" lon="0.674432">
        <ele>1184</ele>
        <time>1970-01-01T04:11:29.000Z</time>
      </trkpt>
      <trkpt lat="42.787917" lon="0.674374">
        <ele>1185</ele>
        <time>1970-01-01T04:11:35.000Z</time>
      </trkpt>
      <trkpt lat="42.78799" lon="0.674361">
        <ele>1186</ele>
        <time>1970-01-01T04:11:39.000Z</time>
      </trkpt>
      <trkpt lat="42.788038" lon="0.674334">
        <ele>1187</ele>
        <time>1970-01-01T04:11:43.000Z</time>
      </trkpt>
      <trkpt lat="42.788136" lon="0.674267">
        <ele>1188.2</ele>
        <time>1970-01-01T04:11:49.000Z</time>
      </trkpt>
      <trkpt lat="42.788266" lon="0.674148">
        <ele>1189.4</ele>
        <time>1970-01-01T04:11:58.000Z</time>
      </trkpt>
      <trkpt lat="42.788313" lon="0.674088">
        <ele>1190.6</ele>
        <time>1970-01-01T04:12:02.000Z</time>
      </trkpt>
      <trkpt lat="42.788362" lon="0.67399">
        <ele>1191</ele>
        <time>1970-01-01T04:12:08.000Z</time>
      </trkpt>
      <trkpt lat="42.788451" lon="0.673981">
        <ele>1191.4</ele>
        <time>1970-01-01T04:12:13.000Z</time>
      </trkpt>
      <trkpt lat="42.788526" lon="0.674069">
        <ele>1192.8</ele>
        <time>1970-01-01T04:12:19.000Z</time>
      </trkpt>
      <trkpt lat="42.788587" lon="0.674229">
        <ele>1193.8</ele>
        <time>1970-01-01T04:12:28.000Z</time>
      </trkpt>
      <trkpt lat="42.78861" lon="0.674385">
        <ele>1194.8</ele>
        <time>1970-01-01T04:12:35.000Z</time>
      </trkpt>
      <trkpt lat="42.78863" lon="0.674512">
        <ele>1195.6</ele>
        <time>1970-01-01T04:12:45.000Z</time>
      </trkpt>
      <trkpt lat="42.788622" lon="0.674525">
        <ele>1195.8</ele>
        <time>1970-01-01T04:12:46.000Z</time>
      </trkpt>
      <trkpt lat="42.788597" lon="0.674592">
        <ele>1196.2</ele>
        <time>1970-01-01T04:12:49.000Z</time>
      </trkpt>
      <trkpt lat="42.788569" lon="0.674702">
        <ele>1197</ele>
        <time>1970-01-01T04:12:54.000Z</time>
      </trkpt>
      <trkpt lat="42.78855" lon="0.674902">
        <ele>1198</ele>
        <time>1970-01-01T04:13:02.000Z</time>
      </trkpt>
      <trkpt lat="42.788546" lon="0.675112">
        <ele>1199</ele>
        <time>1970-01-01T04:13:10.000Z</time>
      </trkpt>
      <trkpt lat="42.788535" lon="0.675289">
        <ele>1200</ele>
        <time>1970-01-01T04:13:17.000Z</time>
      </trkpt>
      <trkpt lat="42.788551" lon="0.675381">
        <ele>1200.6</ele>
        <time>1970-01-01T04:13:21.000Z</time>
      </trkpt>
      <trkpt lat="42.788541" lon="0.67544">
        <ele>1201.2</ele>
        <time>1970-01-01T04:13:24.000Z</time>
      </trkpt>
      <trkpt lat="42.788525" lon="0.675569">
        <ele>1202</ele>
        <time>1970-01-01T04:13:30.000Z</time>
      </trkpt>
      <trkpt lat="42.788523" lon="0.675591">
        <ele>1202</ele>
        <time>1970-01-01T04:13:31.000Z</time>
      </trkpt>
      <trkpt lat="42.788522" lon="0.67561">
        <ele>1202.2</ele>
        <time>1970-01-01T04:13:32.000Z</time>
      </trkpt>
      <trkpt lat="42.788503" lon="0.675804">
        <ele>1203.4</ele>
        <time>1970-01-01T04:13:40.000Z</time>
      </trkpt>
      <trkpt lat="42.788479" lon="0.67601">
        <ele>1204.4</ele>
        <time>1970-01-01T04:13:48.000Z</time>
      </trkpt>
      <trkpt lat="42.788474" lon="0.676175">
        <ele>1205.4</ele>
        <time>1970-01-01T04:13:55.000Z</time>
      </trkpt>
      <trkpt lat="42.788476" lon="0.676289">
        <ele>1206.6</ele>
        <time>1970-01-01T04:14:00.000Z</time>
      </trkpt>
      <trkpt lat="42.788479" lon="0.67633">
        <ele>1206.8</ele>
        <time>1970-01-01T04:14:02.000Z</time>
      </trkpt>
      <trkpt lat="42.78849" lon="0.676443">
        <ele>1207.8</ele>
        <time>1970-01-01T04:14:07.000Z</time>
      </trkpt>
      <trkpt lat="42.788496" lon="0.676571">
        <ele>1208.8</ele>
        <time>1970-01-01T04:14:13.000Z</time>
      </trkpt>
      <trkpt lat="42.788499" lon="0.676747">
        <ele>1210</ele>
        <time>1970-01-01T04:14:20.000Z</time>
      </trkpt>
      <trkpt lat="42.788518" lon="0.67689">
        <ele>1211</ele>
        <time>1970-01-01T04:14:26.000Z</time>
      </trkpt>
      <trkpt lat="42.788552" lon="0.677058">
        <ele>1212.2</ele>
        <time>1970-01-01T04:14:33.000Z</time>
      </trkpt>
      <trkpt lat="42.788589" lon="0.677205">
        <ele>1213</ele>
        <time>1970-01-01T04:14:40.000Z</time>
      </trkpt>
      <trkpt lat="42.788615" lon="0.67728">
        <ele>1214</ele>
        <time>1970-01-01T04:14:44.000Z</time>
      </trkpt>
      <trkpt lat="42.788658" lon="0.677418">
        <ele>1215.2</ele>
        <time>1970-01-01T04:14:51.000Z</time>
      </trkpt>
      <trkpt lat="42.7887" lon="0.677554">
        <ele>1216.2</ele>
        <time>1970-01-01T04:14:57.000Z</time>
      </trkpt>
      <trkpt lat="42.788742" lon="0.677718">
        <ele>1217.4</ele>
        <time>1970-01-01T04:15:05.000Z</time>
      </trkpt>
      <trkpt lat="42.788759" lon="0.677863">
        <ele>1218.4</ele>
        <time>1970-01-01T04:15:12.000Z</time>
      </trkpt>
      <trkpt lat="42.788781" lon="0.678032">
        <ele>1219.6</ele>
        <time>1970-01-01T04:15:19.000Z</time>
      </trkpt>
      <trkpt lat="42.788813" lon="0.678175">
        <ele>1220.6</ele>
        <time>1970-01-01T04:15:26.000Z</time>
      </trkpt>
      <trkpt lat="42.788839" lon="0.678307">
        <ele>1221.8</ele>
        <time>1970-01-01T04:15:33.000Z</time>
      </trkpt>
      <trkpt lat="42.788907" lon="0.678402">
        <ele>1222.8</ele>
        <time>1970-01-01T04:15:39.000Z</time>
      </trkpt>
      <trkpt lat="42.788923" lon="0.678402">
        <ele>1223.2</ele>
        <time>1970-01-01T04:15:40.000Z</time>
      </trkpt>
      <trkpt lat="42.788987" lon="0.678391">
        <ele>1224.2</ele>
        <time>1970-01-01T04:15:44.000Z</time>
      </trkpt>
      <trkpt lat="42.789069" lon="0.678329">
        <ele>1225.2</ele>
        <time>1970-01-01T04:15:51.000Z</time>
      </trkpt>
      <trkpt lat="42.789155" lon="0.678241">
        <ele>1226.2</ele>
        <time>1970-01-01T04:15:58.000Z</time>
      </trkpt>
      <trkpt lat="42.789195" lon="0.678214">
        <ele>1226.8</ele>
        <time>1970-01-01T04:16:01.000Z</time>
      </trkpt>
      <trkpt lat="42.78923" lon="0.678182">
        <ele>1227.6</ele>
        <time>1970-01-01T04:16:04.000Z</time>
      </trkpt>
      <trkpt lat="42.789296" lon="0.678131">
        <ele>1228.6</ele>
        <time>1970-01-01T04:16:09.000Z</time>
      </trkpt>
      <trkpt lat="42.789369" lon="0.678109">
        <ele>1229.6</ele>
        <time>1970-01-01T04:16:14.000Z</time>
      </trkpt>
      <trkpt lat="42.789453" lon="0.678095">
        <ele>1230.8</ele>
        <time>1970-01-01T04:16:20.000Z</time>
      </trkpt>
      <trkpt lat="42.789541" lon="0.678038">
        <ele>1232</ele>
        <time>1970-01-01T04:16:27.000Z</time>
      </trkpt>
      <trkpt lat="42.78961" lon="0.677963">
        <ele>1233</ele>
        <time>1970-01-01T04:16:33.000Z</time>
      </trkpt>
      <trkpt lat="42.789691" lon="0.677869">
        <ele>1234.4</ele>
        <time>1970-01-01T04:16:40.000Z</time>
      </trkpt>
      <trkpt lat="42.78977" lon="0.677839">
        <ele>1235.2</ele>
        <time>1970-01-01T04:16:46.000Z</time>
      </trkpt>
      <trkpt lat="42.789788" lon="0.677846">
        <ele>1235.4</ele>
        <time>1970-01-01T04:16:47.000Z</time>
      </trkpt>
      <trkpt lat="42.789843" lon="0.677847">
        <ele>1235.8</ele>
        <time>1970-01-01T04:16:50.000Z</time>
      </trkpt>
      <trkpt lat="42.789909" lon="0.677813">
        <ele>1236.6</ele>
        <time>1970-01-01T04:16:54.000Z</time>
      </trkpt>
      <trkpt lat="42.790012" lon="0.677733">
        <ele>1237.8</ele>
        <time>1970-01-01T04:17:01.000Z</time>
      </trkpt>
      <trkpt lat="42.790183" lon="0.677631">
        <ele>1238.8</ele>
        <time>1970-01-01T04:17:12.000Z</time>
      </trkpt>
      <trkpt lat="42.790349" lon="0.677588">
        <ele>1239.6</ele>
        <time>1970-01-01T04:17:22.000Z</time>
      </trkpt>
      <trkpt lat="42.790501" lon="0.677555">
        <ele>1240.6</ele>
        <time>1970-01-01T04:17:31.000Z</time>
      </trkpt>
      <trkpt lat="42.790647" lon="0.677539">
        <ele>1241.8</ele>
        <time>1970-01-01T04:17:40.000Z</time>
      </trkpt>
      <trkpt lat="42.790739" lon="0.677522">
        <ele>1242.8</ele>
        <time>1970-01-01T04:17:45.000Z</time>
      </trkpt>
      <trkpt lat="42.790823" lon="0.677508">
        <ele>1243.8</ele>
        <time>1970-01-01T04:17:50.000Z</time>
      </trkpt>
      <trkpt lat="42.790889" lon="0.677444">
        <ele>1245</ele>
        <time>1970-01-01T04:17:56.000Z</time>
      </trkpt>
      <trkpt lat="42.790996" lon="0.677354">
        <ele>1246.2</ele>
        <time>1970-01-01T04:18:03.000Z</time>
      </trkpt>
      <trkpt lat="42.791095" lon="0.677289">
        <ele>1247</ele>
        <time>1970-01-01T04:18:09.000Z</time>
      </trkpt>
      <trkpt lat="42.791109" lon="0.677273">
        <ele>1247</ele>
        <time>1970-01-01T04:18:10.000Z</time>
      </trkpt>
      <trkpt lat="42.791299" lon="0.677107">
        <ele>1248.4</ele>
        <time>1970-01-01T04:18:22.000Z</time>
      </trkpt>
      <trkpt lat="42.791349" lon="0.677074">
        <ele>1249</ele>
        <time>1970-01-01T04:18:25.000Z</time>
      </trkpt>
      <trkpt lat="42.791474" lon="0.677046">
        <ele>1249.4</ele>
        <time>1970-01-01T04:18:31.000Z</time>
      </trkpt>
      <trkpt lat="42.791785" lon="0.676783">
        <ele>1250.2</ele>
        <time>1970-01-01T04:18:47.000Z</time>
      </trkpt>
      <trkpt lat="42.792089" lon="0.676837">
        <ele>1251</ele>
        <time>1970-01-01T04:18:59.000Z</time>
      </trkpt>
      <trkpt lat="42.792125" lon="0.676755">
        <ele>1251.2</ele>
        <time>1970-01-01T04:19:02.000Z</time>
      </trkpt>
      <trkpt lat="42.792042" lon="0.67662">
        <ele>1252</ele>
        <time>1970-01-01T04:19:09.000Z</time>
      </trkpt>
      <trkpt lat="42.792005" lon="0.676604">
        <ele>1252.4</ele>
        <time>1970-01-01T04:19:11.000Z</time>
      </trkpt>
      <trkpt lat="42.791845" lon="0.676615">
        <ele>1253.6</ele>
        <time>1970-01-01T04:19:19.000Z</time>
      </trkpt>
      <trkpt lat="42.791772" lon="0.676641">
        <ele>1254.6</ele>
        <time>1970-01-01T04:19:23.000Z</time>
      </trkpt>
      <trkpt lat="42.791663" lon="0.676722">
        <ele>1255.8</ele>
        <time>1970-01-01T04:19:30.000Z</time>
      </trkpt>
      <trkpt lat="42.791639" lon="0.676753">
        <ele>1256.4</ele>
        <time>1970-01-01T04:19:32.000Z</time>
      </trkpt>
      <trkpt lat="42.7916" lon="0.676796">
        <ele>1256.8</ele>
        <time>1970-01-01T04:19:35.000Z</time>
      </trkpt>
      <trkpt lat="42.791516" lon="0.676866">
        <ele>1257.8</ele>
        <time>1970-01-01T04:19:40.000Z</time>
      </trkpt>
      <trkpt lat="42.791485" lon="0.676886">
        <ele>1258.4</ele>
        <time>1970-01-01T04:19:42.000Z</time>
      </trkpt>
      <trkpt lat="42.791431" lon="0.676919">
        <ele>1259</ele>
        <time>1970-01-01T04:19:45.000Z</time>
      </trkpt>
      <trkpt lat="42.791345" lon="0.676928">
        <ele>1260.4</ele>
        <time>1970-01-01T04:19:50.000Z</time>
      </trkpt>
      <trkpt lat="42.791232" lon="0.676964">
        <ele>1261.4</ele>
        <time>1970-01-01T04:19:57.000Z</time>
      </trkpt>
      <trkpt lat="42.791149" lon="0.676995">
        <ele>1262.6</ele>
        <time>1970-01-01T04:20:03.000Z</time>
      </trkpt>
      <trkpt lat="42.791062" lon="0.677086">
        <ele>1263.6</ele>
        <time>1970-01-01T04:20:09.000Z</time>
      </trkpt>
      <trkpt lat="42.790988" lon="0.677147">
        <ele>1264.6</ele>
        <time>1970-01-01T04:20:14.000Z</time>
      </trkpt>
      <trkpt lat="42.790862" lon="0.677174">
        <ele>1265.4</ele>
        <time>1970-01-01T04:20:22.000Z</time>
      </trkpt>
      <trkpt lat="42.79076" lon="0.677181">
        <ele>1266.6</ele>
        <time>1970-01-01T04:20:28.000Z</time>
      </trkpt>
      <trkpt lat="42.79068" lon="0.677197">
        <ele>1267.6</ele>
        <time>1970-01-01T04:20:34.000Z</time>
      </trkpt>
      <trkpt lat="42.790576" lon="0.677182">
        <ele>1268.6</ele>
        <time>1970-01-01T04:20:41.000Z</time>
      </trkpt>
      <trkpt lat="42.790442" lon="0.677155">
        <ele>1269.4</ele>
        <time>1970-01-01T04:20:47.000Z</time>
      </trkpt>
      <trkpt lat="42.79027" lon="0.677131">
        <ele>1270.4</ele>
        <time>1970-01-01T04:20:55.000Z</time>
      </trkpt>
      <trkpt lat="42.79001" lon="0.677073">
        <ele>1271.4</ele>
        <time>1970-01-01T04:21:07.000Z</time>
      </trkpt>
      <trkpt lat="42.789641" lon="0.67686">
        <ele>1272.6</ele>
        <time>1970-01-01T04:21:23.000Z</time>
      </trkpt>
      <trkpt lat="42.789523" lon="0.67664">
        <ele>1273.6</ele>
        <time>1970-01-01T04:21:32.000Z</time>
      </trkpt>
      <trkpt lat="42.789513" lon="0.6765">
        <ele>1274.8</ele>
        <time>1970-01-01T04:21:37.000Z</time>
      </trkpt>
      <trkpt lat="42.78954" lon="0.676304">
        <ele>1276.2</ele>
        <time>1970-01-01T04:21:44.000Z</time>
      </trkpt>
      <trkpt lat="42.789606" lon="0.676109">
        <ele>1277.4</ele>
        <time>1970-01-01T04:21:52.000Z</time>
      </trkpt>
      <trkpt lat="42.789614" lon="0.676087">
        <ele>1277.6</ele>
        <time>1970-01-01T04:21:53.000Z</time>
      </trkpt>
      <trkpt lat="42.78964" lon="0.675938">
        <ele>1278.4</ele>
        <time>1970-01-01T04:21:59.000Z</time>
      </trkpt>
      <trkpt lat="42.789646" lon="0.675784">
        <ele>1279.6</ele>
        <time>1970-01-01T04:22:05.000Z</time>
      </trkpt>
      <trkpt lat="42.789665" lon="0.675589">
        <ele>1280.8</ele>
        <time>1970-01-01T04:22:13.000Z</time>
      </trkpt>
      <trkpt lat="42.789672" lon="0.675451">
        <ele>1281.8</ele>
        <time>1970-01-01T04:22:19.000Z</time>
      </trkpt>
      <trkpt lat="42.789696" lon="0.675336">
        <ele>1282.8</ele>
        <time>1970-01-01T04:22:24.000Z</time>
      </trkpt>
      <trkpt lat="42.789728" lon="0.675207">
        <ele>1284</ele>
        <time>1970-01-01T04:22:30.000Z</time>
      </trkpt>
      <trkpt lat="42.789764" lon="0.675056">
        <ele>1285.2</ele>
        <time>1970-01-01T04:22:37.000Z</time>
      </trkpt>
      <trkpt lat="42.789805" lon="0.674888">
        <ele>1286.2</ele>
        <time>1970-01-01T04:22:44.000Z</time>
      </trkpt>
      <trkpt lat="42.789877" lon="0.674843">
        <ele>1287.6</ele>
        <time>1970-01-01T04:22:49.000Z</time>
      </trkpt>
      <trkpt lat="42.789925" lon="0.674887">
        <ele>1288.4</ele>
        <time>1970-01-01T04:22:53.000Z</time>
      </trkpt>
      <trkpt lat="42.78993" lon="0.674931">
        <ele>1288.6</ele>
        <time>1970-01-01T04:22:55.000Z</time>
      </trkpt>
      <trkpt lat="42.789915" lon="0.675019">
        <ele>1289.2</ele>
        <time>1970-01-01T04:22:59.000Z</time>
      </trkpt>
      <trkpt lat="42.789906" lon="0.675061">
        <ele>1289.6</ele>
        <time>1970-01-01T04:23:01.000Z</time>
      </trkpt>
      <trkpt lat="42.789872" lon="0.67518">
        <ele>1290.8</ele>
        <time>1970-01-01T04:23:06.000Z</time>
      </trkpt>
      <trkpt lat="42.78984" lon="0.675338">
        <ele>1291.8</ele>
        <time>1970-01-01T04:23:12.000Z</time>
      </trkpt>
      <trkpt lat="42.789862" lon="0.675503">
        <ele>1292.8</ele>
        <time>1970-01-01T04:23:18.000Z</time>
      </trkpt>
      <trkpt lat="42.789912" lon="0.675672">
        <ele>1294</ele>
        <time>1970-01-01T04:23:25.000Z</time>
      </trkpt>
      <trkpt lat="42.789964" lon="0.675801">
        <ele>1295.2</ele>
        <time>1970-01-01T04:23:31.000Z</time>
      </trkpt>
      <trkpt lat="42.790026" lon="0.67595">
        <ele>1296.2</ele>
        <time>1970-01-01T04:23:38.000Z</time>
      </trkpt>
      <trkpt lat="42.790072" lon="0.676088">
        <ele>1297.2</ele>
        <time>1970-01-01T04:23:44.000Z</time>
      </trkpt>
      <trkpt lat="42.790089" lon="0.676133">
        <ele>1297.8</ele>
        <time>1970-01-01T04:23:46.000Z</time>
      </trkpt>
      <trkpt lat="42.790127" lon="0.676194">
        <ele>1298.4</ele>
        <time>1970-01-01T04:23:49.000Z</time>
      </trkpt>
      <trkpt lat="42.790217" lon="0.676194">
        <ele>1299.4</ele>
        <time>1970-01-01T04:23:55.000Z</time>
      </trkpt>
      <trkpt lat="42.790237" lon="0.676018">
        <ele>1300.4</ele>
        <time>1970-01-01T04:24:03.000Z</time>
      </trkpt>
      <trkpt lat="42.790196" lon="0.675945">
        <ele>1301.2</ele>
        <time>1970-01-01T04:24:07.000Z</time>
      </trkpt>
      <trkpt lat="42.790176" lon="0.675912">
        <ele>1301.6</ele>
        <time>1970-01-01T04:24:09.000Z</time>
      </trkpt>
      <trkpt lat="42.790119" lon="0.67573">
        <ele>1302.4</ele>
        <time>1970-01-01T04:24:18.000Z</time>
      </trkpt>
      <trkpt lat="42.790115" lon="0.675528">
        <ele>1303.6</ele>
        <time>1970-01-01T04:24:27.000Z</time>
      </trkpt>
      <trkpt lat="42.790121" lon="0.675347">
        <ele>1304.8</ele>
        <time>1970-01-01T04:24:35.000Z</time>
      </trkpt>
      <trkpt lat="42.790128" lon="0.675154">
        <ele>1305.8</ele>
        <time>1970-01-01T04:24:43.000Z</time>
      </trkpt>
      <trkpt lat="42.790143" lon="0.675012">
        <ele>1307</ele>
        <time>1970-01-01T04:24:49.000Z</time>
      </trkpt>
      <trkpt lat="42.790168" lon="0.674861">
        <ele>1308</ele>
        <time>1970-01-01T04:24:56.000Z</time>
      </trkpt>
      <trkpt lat="42.790181" lon="0.674723">
        <ele>1309</ele>
        <time>1970-01-01T04:25:02.000Z</time>
      </trkpt>
      <trkpt lat="42.79019" lon="0.674577">
        <ele>1310</ele>
        <time>1970-01-01T04:25:08.000Z</time>
      </trkpt>
      <trkpt lat="42.790202" lon="0.67442">
        <ele>1311</ele>
        <time>1970-01-01T04:25:15.000Z</time>
      </trkpt>
      <trkpt lat="42.79021" lon="0.674264">
        <ele>1312</ele>
        <time>1970-01-01T04:25:22.000Z</time>
      </trkpt>
      <trkpt lat="42.790209" lon="0.674079">
        <ele>1313.2</ele>
        <time>1970-01-01T04:25:29.000Z</time>
      </trkpt>
      <trkpt lat="42.790228" lon="0.673913">
        <ele>1314.4</ele>
        <time>1970-01-01T04:25:36.000Z</time>
      </trkpt>
      <trkpt lat="42.790228" lon="0.673717">
        <ele>1315.6</ele>
        <time>1970-01-01T04:25:43.000Z</time>
      </trkpt>
      <trkpt lat="42.790221" lon="0.673643">
        <ele>1316</ele>
        <time>1970-01-01T04:25:46.000Z</time>
      </trkpt>
      <trkpt lat="42.790212" lon="0.673579">
        <ele>1316.6</ele>
        <time>1970-01-01T04:25:49.000Z</time>
      </trkpt>
      <trkpt lat="42.790201" lon="0.673425">
        <ele>1317.6</ele>
        <time>1970-01-01T04:25:56.000Z</time>
      </trkpt>
      <trkpt lat="42.790165" lon="0.673219">
        <ele>1318.6</ele>
        <time>1970-01-01T04:26:05.000Z</time>
      </trkpt>
      <trkpt lat="42.790167" lon="0.67319">
        <ele>1319</ele>
        <time>1970-01-01T04:26:06.000Z</time>
      </trkpt>
      <trkpt lat="42.790148" lon="0.673089">
        <ele>1319.6</ele>
        <time>1970-01-01T04:26:10.000Z</time>
      </trkpt>
      <trkpt lat="42.790111" lon="0.672799">
        <ele>1320.8</ele>
        <time>1970-01-01T04:26:22.000Z</time>
      </trkpt>
      <trkpt lat="42.790087" lon="0.672664">
        <ele>1321.8</ele>
        <time>1970-01-01T04:26:27.000Z</time>
      </trkpt>
      <trkpt lat="42.790065" lon="0.672454">
        <ele>1322.8</ele>
        <time>1970-01-01T04:26:36.000Z</time>
      </trkpt>
      <trkpt lat="42.790069" lon="0.672281">
        <ele>1324</ele>
        <time>1970-01-01T04:26:43.000Z</time>
      </trkpt>
      <trkpt lat="42.790076" lon="0.672157">
        <ele>1325</ele>
        <time>1970-01-01T04:26:48.000Z</time>
      </trkpt>
      <trkpt lat="42.790057" lon="0.672029">
        <ele>1326</ele>
        <time>1970-01-01T04:26:54.000Z</time>
      </trkpt>
      <trkpt lat="42.790046" lon="0.671894">
        <ele>1327.2</ele>
        <time>1970-01-01T04:27:00.000Z</time>
      </trkpt>
      <trkpt lat="42.790041" lon="0.671737">
        <ele>1328.4</ele>
        <time>1970-01-01T04:27:07.000Z</time>
      </trkpt>
      <trkpt lat="42.790045" lon="0.671633">
        <ele>1329.2</ele>
        <time>1970-01-01T04:27:12.000Z</time>
      </trkpt>
      <trkpt lat="42.790066" lon="0.671458">
        <ele>1330.6</ele>
        <time>1970-01-01T04:27:20.000Z</time>
      </trkpt>
      <trkpt lat="42.790024" lon="0.671325">
        <ele>1331.2</ele>
        <time>1970-01-01T04:27:27.000Z</time>
      </trkpt>
      <trkpt lat="42.789931" lon="0.671343">
        <ele>1331.6</ele>
        <time>1970-01-01T04:27:32.000Z</time>
      </trkpt>
      <trkpt lat="42.789433" lon="0.671383">
        <ele>1332.6</ele>
        <time>1970-01-01T04:27:54.000Z</time>
      </trkpt>
      <trkpt lat="42.789309" lon="0.67137">
        <ele>1333.6</ele>
        <time>1970-01-01T04:28:01.000Z</time>
      </trkpt>
      <trkpt lat="42.789193" lon="0.671254">
        <ele>1334.6</ele>
        <time>1970-01-01T04:28:09.000Z</time>
      </trkpt>
      <trkpt lat="42.789129" lon="0.671179">
        <ele>1335.8</ele>
        <time>1970-01-01T04:28:14.000Z</time>
      </trkpt>
      <trkpt lat="42.78908" lon="0.67108">
        <ele>1336.8</ele>
        <time>1970-01-01T04:28:19.000Z</time>
      </trkpt>
      <trkpt lat="42.788972" lon="0.671028">
        <ele>1337.8</ele>
        <time>1970-01-01T04:28:26.000Z</time>
      </trkpt>
      <trkpt lat="42.788911" lon="0.671022">
        <ele>1339</ele>
        <time>1970-01-01T04:28:31.000Z</time>
      </trkpt>
      <trkpt lat="42.788822" lon="0.671009">
        <ele>1340.2</ele>
        <time>1970-01-01T04:28:38.000Z</time>
      </trkpt>
      <trkpt lat="42.788702" lon="0.670957">
        <ele>1341.4</ele>
        <time>1970-01-01T04:28:45.000Z</time>
      </trkpt>
      <trkpt lat="42.788537" lon="0.670943">
        <ele>1342.4</ele>
        <time>1970-01-01T04:28:53.000Z</time>
      </trkpt>
      <trkpt lat="42.788355" lon="0.670999">
        <ele>1343.6</ele>
        <time>1970-01-01T04:29:00.000Z</time>
      </trkpt>
      <trkpt lat="42.78818" lon="0.671096">
        <ele>1344.2</ele>
        <time>1970-01-01T04:29:07.000Z</time>
      </trkpt>
      <trkpt lat="42.788163" lon="0.671097">
        <ele>1344.4</ele>
        <time>1970-01-01T04:29:08.000Z</time>
      </trkpt>
      <trkpt lat="42.787985" lon="0.671117">
        <ele>1345.4</ele>
        <time>1970-01-01T04:29:16.000Z</time>
      </trkpt>
      <trkpt lat="42.787836" lon="0.671109">
        <ele>1346.2</ele>
        <time>1970-01-01T04:29:23.000Z</time>
      </trkpt>
      <trkpt lat="42.787698" lon="0.670994">
        <ele>1347.4</ele>
        <time>1970-01-01T04:29:30.000Z</time>
      </trkpt>
      <trkpt lat="42.787508" lon="0.670783">
        <ele>1348.4</ele>
        <time>1970-01-01T04:29:40.000Z</time>
      </trkpt>
      <trkpt lat="42.787407" lon="0.670611">
        <ele>1349.4</ele>
        <time>1970-01-01T04:29:48.000Z</time>
      </trkpt>
      <trkpt lat="42.787373" lon="0.670414">
        <ele>1350.2</ele>
        <time>1970-01-01T04:29:55.000Z</time>
      </trkpt>
      <trkpt lat="42.787321" lon="0.67029">
        <ele>1351.4</ele>
        <time>1970-01-01T04:30:00.000Z</time>
      </trkpt>
      <trkpt lat="42.787276" lon="0.670067">
        <ele>1352.6</ele>
        <time>1970-01-01T04:30:08.000Z</time>
      </trkpt>
      <trkpt lat="42.787264" lon="0.669802">
        <ele>1353.6</ele>
        <time>1970-01-01T04:30:16.000Z</time>
      </trkpt>
      <trkpt lat="42.787296" lon="0.66958">
        <ele>1354.8</ele>
        <time>1970-01-01T04:30:24.000Z</time>
      </trkpt>
      <trkpt lat="42.787364" lon="0.669263">
        <ele>1355.8</ele>
        <time>1970-01-01T04:30:35.000Z</time>
      </trkpt>
      <trkpt lat="42.787431" lon="0.668875">
        <ele>1357</ele>
        <time>1970-01-01T04:30:48.000Z</time>
      </trkpt>
      <trkpt lat="42.787479" lon="0.668745">
        <ele>1358</ele>
        <time>1970-01-01T04:30:53.000Z</time>
      </trkpt>
      <trkpt lat="42.787696" lon="0.668438">
        <ele>1359</ele>
        <time>1970-01-01T04:31:08.000Z</time>
      </trkpt>
      <trkpt lat="42.787823" lon="0.668332">
        <ele>1360.2</ele>
        <time>1970-01-01T04:31:14.000Z</time>
      </trkpt>
      <trkpt lat="42.788033" lon="0.668029">
        <ele>1361.8</ele>
        <time>1970-01-01T04:31:27.000Z</time>
      </trkpt>
      <trkpt lat="42.788193" lon="0.66788">
        <ele>1363</ele>
        <time>1970-01-01T04:31:36.000Z</time>
      </trkpt>
      <trkpt lat="42.788356" lon="0.667658">
        <ele>1364</ele>
        <time>1970-01-01T04:31:46.000Z</time>
      </trkpt>
      <trkpt lat="42.788634" lon="0.667209">
        <ele>1365</ele>
        <time>1970-01-01T04:32:01.000Z</time>
      </trkpt>
      <trkpt lat="42.788875" lon="0.666832">
        <ele>1366</ele>
        <time>1970-01-01T04:32:14.000Z</time>
      </trkpt>
      <trkpt lat="42.78923" lon="0.666458">
        <ele>1367</ele>
        <time>1970-01-01T04:32:31.000Z</time>
      </trkpt>
      <trkpt lat="42.78962" lon="0.666259">
        <ele>1367.2</ele>
        <time>1970-01-01T04:32:46.000Z</time>
      </trkpt>
      <trkpt lat="42.789552" lon="0.666051">
        <ele>1366.6</ele>
        <time>1970-01-01T04:32:53.000Z</time>
      </trkpt>
      <trkpt lat="42.789512" lon="0.665889">
        <ele>1366.2</ele>
        <time>1970-01-01T04:32:58.000Z</time>
      </trkpt>
      <trkpt lat="42.789692" lon="0.665456">
        <ele>1367.4</ele>
        <time>1970-01-01T04:33:12.000Z</time>
      </trkpt>
      <trkpt lat="42.78973" lon="0.665252">
        <ele>1367.4</ele>
        <time>1970-01-01T04:33:17.000Z</time>
      </trkpt>
      <trkpt lat="42.78937" lon="0.66483">
        <ele>1366.2</ele>
        <time>1970-01-01T04:33:32.000Z</time>
      </trkpt>
      <trkpt lat="42.78938" lon="0.664494">
        <ele>1366.6</ele>
        <time>1970-01-01T04:33:43.000Z</time>
      </trkpt>
      <trkpt lat="42.789361" lon="0.664585">
        <ele>1366.6</ele>
        <time>1970-01-01T04:34:01.000Z</time>
      </trkpt>
      <trkpt lat="42.789437" lon="0.664873">
        <ele>1366.2</ele>
        <time>1970-01-01T04:34:12.000Z</time>
      </trkpt>
      <trkpt lat="42.78939" lon="0.664477">
        <ele>1366.4</ele>
        <time>1970-01-01T04:34:26.000Z</time>
      </trkpt>
      <trkpt lat="42.789334" lon="0.664403">
        <ele>1366.4</ele>
        <time>1970-01-01T04:34:32.000Z</time>
      </trkpt>
      <trkpt lat="42.789266" lon="0.664396">
        <ele>1366.6</ele>
        <time>1970-01-01T04:34:38.000Z</time>
      </trkpt>
      <trkpt lat="42.789276" lon="0.664407">
        <ele>1366.8</ele>
        <time>1970-01-01T04:34:41.000Z</time>
      </trkpt>
      <trkpt lat="42.789353" lon="0.664412">
        <ele>1366.6</ele>
        <time>1970-01-01T04:34:46.000Z</time>
      </trkpt>
      <trkpt lat="42.789402" lon="0.664531">
        <ele>1366.8</ele>
        <time>1970-01-01T04:34:54.000Z</time>
      </trkpt>
      <trkpt lat="42.789363" lon="0.664399">
        <ele>1366.6</ele>
        <time>1970-01-01T04:36:06.000Z</time>
      </trkpt>
      <trkpt lat="42.789262" lon="0.664389">
        <ele>1366.6</ele>
        <time>1970-01-01T04:36:11.000Z</time>
      </trkpt>
      <trkpt lat="42.789239" lon="0.664393">
        <ele>1366.8</ele>
        <time>1970-01-01T04:36:12.000Z</time>
      </trkpt>
      <trkpt lat="42.788842" lon="0.663969">
        <ele>1366.6</ele>
        <time>1970-01-01T04:36:33.000Z</time>
      </trkpt>
      <trkpt lat="42.788603" lon="0.663286">
        <ele>1366.2</ele>
        <time>1970-01-01T04:36:51.000Z</time>
      </trkpt>
      <trkpt lat="42.78846" lon="0.662853">
        <ele>1365.4</ele>
        <time>1970-01-01T04:37:02.000Z</time>
      </trkpt>
      <trkpt lat="42.788136" lon="0.662251">
        <ele>1365.8</ele>
        <time>1970-01-01T04:37:17.000Z</time>
      </trkpt>
      <trkpt lat="42.788063" lon="0.661914">
        <ele>1366.8</ele>
        <time>1970-01-01T04:37:24.000Z</time>
      </trkpt>
      <trkpt lat="42.788022" lon="0.661898">
        <ele>1366.8</ele>
        <time>1970-01-01T04:37:25.000Z</time>
      </trkpt>
      <trkpt lat="42.787738" lon="0.662142">
        <ele>1367.6</ele>
        <time>1970-01-01T04:37:34.000Z</time>
      </trkpt>
      <trkpt lat="42.787428" lon="0.662489">
        <ele>1366.8</ele>
        <time>1970-01-01T04:37:43.000Z</time>
      </trkpt>
      <trkpt lat="42.787215" lon="0.662535">
        <ele>1365.8</ele>
        <time>1970-01-01T04:37:47.000Z</time>
      </trkpt>
      <trkpt lat="42.787018" lon="0.662539">
        <ele>1365.4</ele>
        <time>1970-01-01T04:37:51.000Z</time>
      </trkpt>
      <trkpt lat="42.786864" lon="0.662322">
        <ele>1365.2</ele>
        <time>1970-01-01T04:37:56.000Z</time>
      </trkpt>
      <trkpt lat="42.786709" lon="0.6616">
        <ele>1366.2</ele>
        <time>1970-01-01T04:38:10.000Z</time>
      </trkpt>
      <trkpt lat="42.786653" lon="0.661334">
        <ele>1366.6</ele>
        <time>1970-01-01T04:38:15.000Z</time>
      </trkpt>
      <trkpt lat="42.786508" lon="0.661359">
        <ele>1366.8</ele>
        <time>1970-01-01T04:38:19.000Z</time>
      </trkpt>
      <trkpt lat="42.786355" lon="0.661442">
        <ele>1366.8</ele>
        <time>1970-01-01T04:38:23.000Z</time>
      </trkpt>
      <trkpt lat="42.786171" lon="0.661293">
        <ele>1366.2</ele>
        <time>1970-01-01T04:38:28.000Z</time>
      </trkpt>
      <trkpt lat="42.785736" lon="0.66157">
        <ele>1365.8</ele>
        <time>1970-01-01T04:38:41.000Z</time>
      </trkpt>
      <trkpt lat="42.785662" lon="0.661642">
        <ele>1365.4</ele>
        <time>1970-01-01T04:38:43.000Z</time>
      </trkpt>
      <trkpt lat="42.785543" lon="0.661724">
        <ele>1365</ele>
        <time>1970-01-01T04:38:46.000Z</time>
      </trkpt>
      <trkpt lat="42.785293" lon="0.661841">
        <ele>1364.8</ele>
        <time>1970-01-01T04:38:52.000Z</time>
      </trkpt>
      <trkpt lat="42.784953" lon="0.661936">
        <ele>1365</ele>
        <time>1970-01-01T04:39:00.000Z</time>
      </trkpt>
      <trkpt lat="42.784723" lon="0.661805">
        <ele>1364.8</ele>
        <time>1970-01-01T04:39:06.000Z</time>
      </trkpt>
      <trkpt lat="42.784668" lon="0.661724">
        <ele>1364.6</ele>
        <time>1970-01-01T04:39:08.000Z</time>
      </trkpt>
      <trkpt lat="42.784376" lon="0.661058">
        <ele>1365.6</ele>
        <time>1970-01-01T04:39:27.000Z</time>
      </trkpt>
      <trkpt lat="42.784338" lon="0.660847">
        <ele>1366.2</ele>
        <time>1970-01-01T04:39:32.000Z</time>
      </trkpt>
      <trkpt lat="42.784054" lon="0.660293">
        <ele>1365.4</ele>
        <time>1970-01-01T04:39:48.000Z</time>
      </trkpt>
      <trkpt lat="42.783932" lon="0.660299">
        <ele>1365</ele>
        <time>1970-01-01T04:39:51.000Z</time>
      </trkpt>
      <trkpt lat="42.783807" lon="0.66033">
        <ele>1364.6</ele>
        <time>1970-01-01T04:39:54.000Z</time>
      </trkpt>
      <trkpt lat="42.78361" lon="0.660284">
        <ele>1364.2</ele>
        <time>1970-01-01T04:39:58.000Z</time>
      </trkpt>
      <trkpt lat="42.78335" lon="0.660177">
        <ele>1364.2</ele>
        <time>1970-01-01T04:40:04.000Z</time>
      </trkpt>
      <trkpt lat="42.783257" lon="0.660108">
        <ele>1363.8</ele>
        <time>1970-01-01T04:40:06.000Z</time>
      </trkpt>
      <trkpt lat="42.783169" lon="0.660017">
        <ele>1363.8</ele>
        <time>1970-01-01T04:40:08.000Z</time>
      </trkpt>
      <trkpt lat="42.783127" lon="0.659983">
        <ele>1363.6</ele>
        <time>1970-01-01T04:40:09.000Z</time>
      </trkpt>
      <trkpt lat="42.782914" lon="0.659935">
        <ele>1363.4</ele>
        <time>1970-01-01T04:40:13.000Z</time>
      </trkpt>
      <trkpt lat="42.782813" lon="0.659912">
        <ele>1363.2</ele>
        <time>1970-01-01T04:40:15.000Z</time>
      </trkpt>
      <trkpt lat="42.782719" lon="0.659849">
        <ele>1362.6</ele>
        <time>1970-01-01T04:40:17.000Z</time>
      </trkpt>
      <trkpt lat="42.782546" lon="0.659746">
        <ele>1361.8</ele>
        <time>1970-01-01T04:40:20.000Z</time>
      </trkpt>
      <trkpt lat="42.782488" lon="0.659728">
        <ele>1361.4</ele>
        <time>1970-01-01T04:40:21.000Z</time>
      </trkpt>
      <trkpt lat="42.782256" lon="0.659741">
        <ele>1360.4</ele>
        <time>1970-01-01T04:40:25.000Z</time>
      </trkpt>
      <trkpt lat="42.78195" lon="0.659938">
        <ele>1359.4</ele>
        <time>1970-01-01T04:40:31.000Z</time>
      </trkpt>
      <trkpt lat="42.78189" lon="0.660056">
        <ele>1359.2</ele>
        <time>1970-01-01T04:40:33.000Z</time>
      </trkpt>
      <trkpt lat="42.781814" lon="0.660158">
        <ele>1359</ele>
        <time>1970-01-01T04:40:35.000Z</time>
      </trkpt>
      <trkpt lat="42.781453" lon="0.660164">
        <ele>1358.2</ele>
        <time>1970-01-01T04:40:43.000Z</time>
      </trkpt>
      <trkpt lat="42.781299" lon="0.6604">
        <ele>1357.4</ele>
        <time>1970-01-01T04:40:48.000Z</time>
      </trkpt>
      <trkpt lat="42.781245" lon="0.660507">
        <ele>1357.2</ele>
        <time>1970-01-01T04:40:50.000Z</time>
      </trkpt>
      <trkpt lat="42.781027" lon="0.66068">
        <ele>1357.6</ele>
        <time>1970-01-01T04:40:56.000Z</time>
      </trkpt>
      <trkpt lat="42.780797" lon="0.660926">
        <ele>1358.2</ele>
        <time>1970-01-01T04:41:05.000Z</time>
      </trkpt>
      <trkpt lat="42.780795" lon="0.660936">
        <ele>1358.2</ele>
        <time>1970-01-01T04:41:06.000Z</time>
      </trkpt>
      <trkpt lat="42.780779" lon="0.660942">
        <ele>1358.2</ele>
        <time>1970-01-01T04:41:29.000Z</time>
      </trkpt>
      <trkpt lat="42.780682" lon="0.660881">
        <ele>1358.2</ele>
        <time>1970-01-01T04:41:33.000Z</time>
      </trkpt>
      <trkpt lat="42.780538" lon="0.66082">
        <ele>1358.2</ele>
        <time>1970-01-01T04:41:37.000Z</time>
      </trkpt>
      <trkpt lat="42.780043" lon="0.660743">
        <ele>1356.6</ele>
        <time>1970-01-01T04:41:47.000Z</time>
      </trkpt>
      <trkpt lat="42.780053" lon="0.661084">
        <ele>1356.4</ele>
        <time>1970-01-01T04:41:53.000Z</time>
      </trkpt>
      <trkpt lat="42.780065" lon="0.661157">
        <ele>1356.6</ele>
        <time>1970-01-01T04:41:54.000Z</time>
      </trkpt>
      <trkpt lat="42.77983" lon="0.661396">
        <ele>1357.6</ele>
        <time>1970-01-01T04:42:03.000Z</time>
      </trkpt>
      <trkpt lat="42.779804" lon="0.661401">
        <ele>1357.8</ele>
        <time>1970-01-01T04:42:04.000Z</time>
      </trkpt>
      <trkpt lat="42.779368" lon="0.661738">
        <ele>1357.4</ele>
        <time>1970-01-01T04:42:19.000Z</time>
      </trkpt>
      <trkpt lat="42.779325" lon="0.662062">
        <ele>1356.6</ele>
        <time>1970-01-01T04:42:24.000Z</time>
      </trkpt>
      <trkpt lat="42.779324" lon="0.662204">
        <ele>1356</ele>
        <time>1970-01-01T04:42:26.000Z</time>
      </trkpt>
      <trkpt lat="42.779343" lon="0.662353">
        <ele>1355.6</ele>
        <time>1970-01-01T04:42:28.000Z</time>
      </trkpt>
      <trkpt lat="42.779396" lon="0.662595">
        <ele>1354.2</ele>
        <time>1970-01-01T04:42:31.000Z</time>
      </trkpt>
      <trkpt lat="42.779441" lon="0.662774">
        <ele>1353.6</ele>
        <time>1970-01-01T04:42:33.000Z</time>
      </trkpt>
      <trkpt lat="42.779451" lon="0.662865">
        <ele>1353</ele>
        <time>1970-01-01T04:42:34.000Z</time>
      </trkpt>
      <trkpt lat="42.779376" lon="0.663264">
        <ele>1352.6</ele>
        <time>1970-01-01T04:42:39.000Z</time>
      </trkpt>
      <trkpt lat="42.779326" lon="0.66342">
        <ele>1352</ele>
        <time>1970-01-01T04:42:41.000Z</time>
      </trkpt>
      <trkpt lat="42.779263" lon="0.66385">
        <ele>1351</ele>
        <time>1970-01-01T04:42:46.000Z</time>
      </trkpt>
      <trkpt lat="42.779244" lon="0.664083">
        <ele>1350.2</ele>
        <time>1970-01-01T04:42:49.000Z</time>
      </trkpt>
      <trkpt lat="42.779218" lon="0.664401">
        <ele>1349.6</ele>
        <time>1970-01-01T04:42:53.000Z</time>
      </trkpt>
      <trkpt lat="42.779183" lon="0.66475">
        <ele>1348.6</ele>
        <time>1970-01-01T04:42:57.000Z</time>
      </trkpt>
      <trkpt lat="42.779156" lon="0.664921">
        <ele>1348</ele>
        <time>1970-01-01T04:42:59.000Z</time>
      </trkpt>
      <trkpt lat="42.779107" lon="0.665092">
        <ele>1347.2</ele>
        <time>1970-01-01T04:43:01.000Z</time>
      </trkpt>
      <trkpt lat="42.778976" lon="0.665435">
        <ele>1346</ele>
        <time>1970-01-01T04:43:05.000Z</time>
      </trkpt>
      <trkpt lat="42.778952" lon="0.665526">
        <ele>1345.8</ele>
        <time>1970-01-01T04:43:06.000Z</time>
      </trkpt>
      <trkpt lat="42.778886" lon="0.665892">
        <ele>1345</ele>
        <time>1970-01-01T04:43:10.000Z</time>
      </trkpt>
      <trkpt lat="42.778819" lon="0.666211">
        <ele>1344.4</ele>
        <time>1970-01-01T04:43:14.000Z</time>
      </trkpt>
      <trkpt lat="42.77868" lon="0.666654">
        <ele>1344.6</ele>
        <time>1970-01-01T04:43:21.000Z</time>
      </trkpt>
      <trkpt lat="42.778477" lon="0.666962">
        <ele>1344.4</ele>
        <time>1970-01-01T04:43:28.000Z</time>
      </trkpt>
      <trkpt lat="42.778374" lon="0.667118">
        <ele>1344.2</ele>
        <time>1970-01-01T04:43:31.000Z</time>
      </trkpt>
      <trkpt lat="42.778285" lon="0.667208">
        <ele>1344.2</ele>
        <time>1970-01-01T04:43:33.000Z</time>
      </trkpt>
      <trkpt lat="42.77806" lon="0.667287">
        <ele>1343.8</ele>
        <time>1970-01-01T04:43:37.000Z</time>
      </trkpt>
      <trkpt lat="42.777932" lon="0.667311">
        <ele>1343.4</ele>
        <time>1970-01-01T04:43:39.000Z</time>
      </trkpt>
      <trkpt lat="42.777718" lon="0.667504">
        <ele>1343.2</ele>
        <time>1970-01-01T04:43:43.000Z</time>
      </trkpt>
      <trkpt lat="42.777617" lon="0.667593">
        <ele>1343</ele>
        <time>1970-01-01T04:43:45.000Z</time>
      </trkpt>
      <trkpt lat="42.77726" lon="0.667817">
        <ele>1341.8</ele>
        <time>1970-01-01T04:43:51.000Z</time>
      </trkpt>
      <trkpt lat="42.77721" lon="0.667857">
        <ele>1341.8</ele>
        <time>1970-01-01T04:43:52.000Z</time>
      </trkpt>
      <trkpt lat="42.777165" lon="0.667903">
        <ele>1341.8</ele>
        <time>1970-01-01T04:43:53.000Z</time>
      </trkpt>
      <trkpt lat="42.777079" lon="0.668006">
        <ele>1341.8</ele>
        <time>1970-01-01T04:43:55.000Z</time>
      </trkpt>
      <trkpt lat="42.776907" lon="0.668239">
        <ele>1341.6</ele>
        <time>1970-01-01T04:43:59.000Z</time>
      </trkpt>
      <trkpt lat="42.776815" lon="0.668415">
        <ele>1341.4</ele>
        <time>1970-01-01T04:44:02.000Z</time>
      </trkpt>
      <trkpt lat="42.776565" lon="0.668771">
        <ele>1340.4</ele>
        <time>1970-01-01T04:44:09.000Z</time>
      </trkpt>
      <trkpt lat="42.776581" lon="0.669011">
        <ele>1340.6</ele>
        <time>1970-01-01T04:44:13.000Z</time>
      </trkpt>
      <trkpt lat="42.776593" lon="0.669128">
        <ele>1340.6</ele>
        <time>1970-01-01T04:44:15.000Z</time>
      </trkpt>
      <trkpt lat="42.77655" lon="0.669415">
        <ele>1340.4</ele>
        <time>1970-01-01T04:44:19.000Z</time>
      </trkpt>
      <trkpt lat="42.77648" lon="0.669653">
        <ele>1339.4</ele>
        <time>1970-01-01T04:44:22.000Z</time>
      </trkpt>
      <trkpt lat="42.776474" lon="0.669742">
        <ele>1339</ele>
        <time>1970-01-01T04:44:23.000Z</time>
      </trkpt>
      <trkpt lat="42.77647" lon="0.670111">
        <ele>1338.2</ele>
        <time>1970-01-01T04:44:27.000Z</time>
      </trkpt>
      <trkpt lat="42.776442" lon="0.670388">
        <ele>1337</ele>
        <time>1970-01-01T04:44:30.000Z</time>
      </trkpt>
      <trkpt lat="42.776417" lon="0.670472">
        <ele>1336.8</ele>
        <time>1970-01-01T04:44:31.000Z</time>
      </trkpt>
      <trkpt lat="42.776332" lon="0.670709">
        <ele>1336.2</ele>
        <time>1970-01-01T04:44:34.000Z</time>
      </trkpt>
      <trkpt lat="42.776123" lon="0.670874">
        <ele>1335.6</ele>
        <time>1970-01-01T04:44:38.000Z</time>
      </trkpt>
      <trkpt lat="42.776009" lon="0.67096">
        <ele>1335.4</ele>
        <time>1970-01-01T04:44:40.000Z</time>
      </trkpt>
      <trkpt lat="42.775846" lon="0.671188">
        <ele>1334.8</ele>
        <time>1970-01-01T04:44:44.000Z</time>
      </trkpt>
      <trkpt lat="42.775784" lon="0.671325">
        <ele>1334.4</ele>
        <time>1970-01-01T04:44:46.000Z</time>
      </trkpt>
      <trkpt lat="42.775698" lon="0.67145">
        <ele>1333.8</ele>
        <time>1970-01-01T04:44:48.000Z</time>
      </trkpt>
      <trkpt lat="42.775601" lon="0.671537">
        <ele>1333.2</ele>
        <time>1970-01-01T04:44:50.000Z</time>
      </trkpt>
      <trkpt lat="42.775496" lon="0.671632">
        <ele>1332.4</ele>
        <time>1970-01-01T04:44:52.000Z</time>
      </trkpt>
      <trkpt lat="42.775442" lon="0.671692">
        <ele>1332</ele>
        <time>1970-01-01T04:44:53.000Z</time>
      </trkpt>
      <trkpt lat="42.775275" lon="0.671886">
        <ele>1331</ele>
        <time>1970-01-01T04:44:56.000Z</time>
      </trkpt>
      <trkpt lat="42.775097" lon="0.672101">
        <ele>1329.6</ele>
        <time>1970-01-01T04:44:59.000Z</time>
      </trkpt>
      <trkpt lat="42.77493" lon="0.672287">
        <ele>1328</ele>
        <time>1970-01-01T04:45:02.000Z</time>
      </trkpt>
      <trkpt lat="42.774874" lon="0.672337">
        <ele>1327.6</ele>
        <time>1970-01-01T04:45:03.000Z</time>
      </trkpt>
      <trkpt lat="42.774816" lon="0.672367">
        <ele>1326.6</ele>
        <time>1970-01-01T04:45:04.000Z</time>
      </trkpt>
      <trkpt lat="42.774695" lon="0.672394">
        <ele>1325.6</ele>
        <time>1970-01-01T04:45:06.000Z</time>
      </trkpt>
      <trkpt lat="42.774494" lon="0.672302">
        <ele>1324.2</ele>
        <time>1970-01-01T04:45:09.000Z</time>
      </trkpt>
      <trkpt lat="42.774363" lon="0.672212">
        <ele>1323.2</ele>
        <time>1970-01-01T04:45:11.000Z</time>
      </trkpt>
      <trkpt lat="42.774297" lon="0.672169">
        <ele>1322.6</ele>
        <time>1970-01-01T04:45:12.000Z</time>
      </trkpt>
      <trkpt lat="42.774125" lon="0.672039">
        <ele>1321.4</ele>
        <time>1970-01-01T04:45:15.000Z</time>
      </trkpt>
      <trkpt lat="42.774037" lon="0.671947">
        <ele>1320.2</ele>
        <time>1970-01-01T04:45:17.000Z</time>
      </trkpt>
      <trkpt lat="42.773971" lon="0.671911">
        <ele>1319</ele>
        <time>1970-01-01T04:45:19.000Z</time>
      </trkpt>
      <trkpt lat="42.773804" lon="0.671915">
        <ele>1317.8</ele>
        <time>1970-01-01T04:45:24.000Z</time>
      </trkpt>
      <trkpt lat="42.773544" lon="0.671896">
        <ele>1316.6</ele>
        <time>1970-01-01T04:45:29.000Z</time>
      </trkpt>
      <trkpt lat="42.773382" lon="0.671845">
        <ele>1315.6</ele>
        <time>1970-01-01T04:45:32.000Z</time>
      </trkpt>
      <trkpt lat="42.773331" lon="0.671802">
        <ele>1315.2</ele>
        <time>1970-01-01T04:45:33.000Z</time>
      </trkpt>
      <trkpt lat="42.773229" lon="0.671696">
        <ele>1314</ele>
        <time>1970-01-01T04:45:35.000Z</time>
      </trkpt>
      <trkpt lat="42.773167" lon="0.671632">
        <ele>1313.6</ele>
        <time>1970-01-01T04:45:36.000Z</time>
      </trkpt>
      <trkpt lat="42.773097" lon="0.671586">
        <ele>1312.8</ele>
        <time>1970-01-01T04:45:37.000Z</time>
      </trkpt>
      <trkpt lat="42.772943" lon="0.671513">
        <ele>1311.6</ele>
        <time>1970-01-01T04:45:39.000Z</time>
      </trkpt>
      <trkpt lat="42.772801" lon="0.671433">
        <ele>1311</ele>
        <time>1970-01-01T04:45:41.000Z</time>
      </trkpt>
      <trkpt lat="42.772695" lon="0.671324">
        <ele>1310.6</ele>
        <time>1970-01-01T04:45:43.000Z</time>
      </trkpt>
      <trkpt lat="42.772574" lon="0.670875">
        <ele>1310</ele>
        <time>1970-01-01T04:45:49.000Z</time>
      </trkpt>
      <trkpt lat="42.772477" lon="0.670628">
        <ele>1309.8</ele>
        <time>1970-01-01T04:45:53.000Z</time>
      </trkpt>
      <trkpt lat="42.772425" lon="0.670295">
        <ele>1310.4</ele>
        <time>1970-01-01T04:45:59.000Z</time>
      </trkpt>
      <trkpt lat="42.772428" lon="0.670048">
        <ele>1310.6</ele>
        <time>1970-01-01T04:46:03.000Z</time>
      </trkpt>
      <trkpt lat="42.772427" lon="0.669977">
        <ele>1310.6</ele>
        <time>1970-01-01T04:46:04.000Z</time>
      </trkpt>
      <trkpt lat="42.772351" lon="0.669514">
        <ele>1309</ele>
        <time>1970-01-01T04:46:10.000Z</time>
      </trkpt>
      <trkpt lat="42.772324" lon="0.669435">
        <ele>1308.8</ele>
        <time>1970-01-01T04:46:11.000Z</time>
      </trkpt>
      <trkpt lat="42.772217" lon="0.66921">
        <ele>1308</ele>
        <time>1970-01-01T04:46:14.000Z</time>
      </trkpt>
      <trkpt lat="42.772125" lon="0.668981">
        <ele>1307.4</ele>
        <time>1970-01-01T04:46:17.000Z</time>
      </trkpt>
      <trkpt lat="42.772057" lon="0.668759">
        <ele>1306.6</ele>
        <time>1970-01-01T04:46:20.000Z</time>
      </trkpt>
      <trkpt lat="42.771921" lon="0.668235">
        <ele>1305.4</ele>
        <time>1970-01-01T04:46:26.000Z</time>
      </trkpt>
      <trkpt lat="42.771868" lon="0.668061">
        <ele>1305.2</ele>
        <time>1970-01-01T04:46:28.000Z</time>
      </trkpt>
      <trkpt lat="42.771833" lon="0.667889">
        <ele>1305</ele>
        <time>1970-01-01T04:46:30.000Z</time>
      </trkpt>
      <trkpt lat="42.771749" lon="0.667546">
        <ele>1304.2</ele>
        <time>1970-01-01T04:46:34.000Z</time>
      </trkpt>
      <trkpt lat="42.77152" lon="0.666848">
        <ele>1303.8</ele>
        <time>1970-01-01T04:46:43.000Z</time>
      </trkpt>
      <trkpt lat="42.771455" lon="0.66663">
        <ele>1303.6</ele>
        <time>1970-01-01T04:46:46.000Z</time>
      </trkpt>
      <trkpt lat="42.771404" lon="0.666281">
        <ele>1303.4</ele>
        <time>1970-01-01T04:46:51.000Z</time>
      </trkpt>
      <trkpt lat="42.771393" lon="0.665916">
        <ele>1303.2</ele>
        <time>1970-01-01T04:46:56.000Z</time>
      </trkpt>
      <trkpt lat="42.77139" lon="0.665754">
        <ele>1303.2</ele>
        <time>1970-01-01T04:46:58.000Z</time>
      </trkpt>
      <trkpt lat="42.771241" lon="0.665365">
        <ele>1302.6</ele>
        <time>1970-01-01T04:47:03.000Z</time>
      </trkpt>
      <trkpt lat="42.77116" lon="0.665213">
        <ele>1302.2</ele>
        <time>1970-01-01T04:47:05.000Z</time>
      </trkpt>
      <trkpt lat="42.771134" lon="0.665125">
        <ele>1302</ele>
        <time>1970-01-01T04:47:06.000Z</time>
      </trkpt>
      <trkpt lat="42.77114" lon="0.66457">
        <ele>1300.8</ele>
        <time>1970-01-01T04:47:12.000Z</time>
      </trkpt>
      <trkpt lat="42.771145" lon="0.664479">
        <ele>1300.4</ele>
        <time>1970-01-01T04:47:13.000Z</time>
      </trkpt>
      <trkpt lat="42.771129" lon="0.664317">
        <ele>1299.8</ele>
        <time>1970-01-01T04:47:15.000Z</time>
      </trkpt>
      <trkpt lat="42.770992" lon="0.664083">
        <ele>1299.6</ele>
        <time>1970-01-01T04:47:19.000Z</time>
      </trkpt>
      <trkpt lat="42.770958" lon="0.664028">
        <ele>1299.6</ele>
        <time>1970-01-01T04:47:20.000Z</time>
      </trkpt>
      <trkpt lat="42.770809" lon="0.663542">
        <ele>1299.2</ele>
        <time>1970-01-01T04:47:26.000Z</time>
      </trkpt>
      <trkpt lat="42.770732" lon="0.663414">
        <ele>1298.8</ele>
        <time>1970-01-01T04:47:28.000Z</time>
      </trkpt>
      <trkpt lat="42.770638" lon="0.663341">
        <ele>1298.6</ele>
        <time>1970-01-01T04:47:30.000Z</time>
      </trkpt>
      <trkpt lat="42.770594" lon="0.663295">
        <ele>1298.6</ele>
        <time>1970-01-01T04:47:31.000Z</time>
      </trkpt>
      <trkpt lat="42.770489" lon="0.663121">
        <ele>1298.6</ele>
        <time>1970-01-01T04:47:34.000Z</time>
      </trkpt>
      <trkpt lat="42.770291" lon="0.662841">
        <ele>1298.2</ele>
        <time>1970-01-01T04:47:39.000Z</time>
      </trkpt>
      <trkpt lat="42.770198" lon="0.662822">
        <ele>1297.8</ele>
        <time>1970-01-01T04:47:41.000Z</time>
      </trkpt>
      <trkpt lat="42.769944" lon="0.662552">
        <ele>1297</ele>
        <time>1970-01-01T04:47:52.000Z</time>
      </trkpt>
      <trkpt lat="42.769942" lon="0.662479">
        <ele>1296.8</ele>
        <time>1970-01-01T04:47:53.000Z</time>
      </trkpt>
      <trkpt lat="42.769866" lon="0.662277">
        <ele>1295.6</ele>
        <time>1970-01-01T04:47:56.000Z</time>
      </trkpt>
      <trkpt lat="42.769739" lon="0.662231">
        <ele>1294.4</ele>
        <time>1970-01-01T04:47:58.000Z</time>
      </trkpt>
      <trkpt lat="42.769536" lon="0.662317">
        <ele>1293.2</ele>
        <time>1970-01-01T04:48:01.000Z</time>
      </trkpt>
      <trkpt lat="42.769416" lon="0.662366">
        <ele>1291.8</ele>
        <time>1970-01-01T04:48:03.000Z</time>
      </trkpt>
      <trkpt lat="42.769339" lon="0.662305">
        <ele>1290.8</ele>
        <time>1970-01-01T04:48:05.000Z</time>
      </trkpt>
      <trkpt lat="42.769319" lon="0.662111">
        <ele>1289.8</ele>
        <time>1970-01-01T04:48:08.000Z</time>
      </trkpt>
      <trkpt lat="42.769324" lon="0.662032">
        <ele>1289.6</ele>
        <time>1970-01-01T04:48:09.000Z</time>
      </trkpt>
      <trkpt lat="42.769325" lon="0.661948">
        <ele>1289.4</ele>
        <time>1970-01-01T04:48:10.000Z</time>
      </trkpt>
      <trkpt lat="42.769246" lon="0.661704">
        <ele>1288.6</ele>
        <time>1970-01-01T04:48:13.000Z</time>
      </trkpt>
      <trkpt lat="42.76913" lon="0.661445">
        <ele>1287.2</ele>
        <time>1970-01-01T04:48:16.000Z</time>
      </trkpt>
      <trkpt lat="42.769054" lon="0.661251">
        <ele>1285.6</ele>
        <time>1970-01-01T04:48:18.000Z</time>
      </trkpt>
      <trkpt lat="42.768938" lon="0.661078">
        <ele>1284</ele>
        <time>1970-01-01T04:48:20.000Z</time>
      </trkpt>
      <trkpt lat="42.768891" lon="0.660986">
        <ele>1283.4</ele>
        <time>1970-01-01T04:48:21.000Z</time>
      </trkpt>
      <trkpt lat="42.768854" lon="0.660808">
        <ele>1282.2</ele>
        <time>1970-01-01T04:48:23.000Z</time>
      </trkpt>
      <trkpt lat="42.768886" lon="0.660635">
        <ele>1281.4</ele>
        <time>1970-01-01T04:48:25.000Z</time>
      </trkpt>
      <trkpt lat="42.768909" lon="0.660544">
        <ele>1281</ele>
        <time>1970-01-01T04:48:26.000Z</time>
      </trkpt>
      <trkpt lat="42.76898" lon="0.660273">
        <ele>1279.8</ele>
        <time>1970-01-01T04:48:29.000Z</time>
      </trkpt>
      <trkpt lat="42.768996" lon="0.660188">
        <ele>1279.4</ele>
        <time>1970-01-01T04:48:30.000Z</time>
      </trkpt>
      <trkpt lat="42.769004" lon="0.66009">
        <ele>1278.8</ele>
        <time>1970-01-01T04:48:32.000Z</time>
      </trkpt>
      <trkpt lat="42.769009" lon="0.660005">
        <ele>1278.8</ele>
        <time>1970-01-01T04:48:36.000Z</time>
      </trkpt>
      <trkpt lat="42.769116" lon="0.659996">
        <ele>1279</ele>
        <time>1970-01-01T04:48:48.000Z</time>
      </trkpt>
      <trkpt lat="42.769115" lon="0.659996">
        <ele>1279</ele>
        <time>1970-01-01T04:48:50.000Z</time>
      </trkpt>
      <trkpt lat="42.769093" lon="0.65997">
        <ele>1279</ele>
        <time>1970-01-01T04:49:18.000Z</time>
      </trkpt>
      <trkpt lat="42.768944" lon="0.659924">
        <ele>1278.6</ele>
        <time>1970-01-01T04:49:25.000Z</time>
      </trkpt>
      <trkpt lat="42.768925" lon="0.659921">
        <ele>1278.6</ele>
        <time>1970-01-01T04:49:26.000Z</time>
      </trkpt>
      <trkpt lat="42.768921" lon="0.659944">
        <ele>1278.4</ele>
        <time>1970-01-01T04:49:29.000Z</time>
      </trkpt>
      <trkpt lat="42.769171" lon="0.6601">
        <ele>1278.4</ele>
        <time>1970-01-01T05:00:27.000Z</time>
      </trkpt>
      <trkpt lat="42.768991" lon="0.659956">
        <ele>1278.4</ele>
        <time>1970-01-01T05:00:41.000Z</time>
      </trkpt>
      <trkpt lat="42.769077" lon="0.660066">
        <ele>1278.8</ele>
        <time>1970-01-01T05:00:49.000Z</time>
      </trkpt>
      <trkpt lat="42.769534" lon="0.66015">
        <ele>1278.4</ele>
        <time>1970-01-01T05:01:02.000Z</time>
      </trkpt>
      <trkpt lat="42.7697" lon="0.660206">
        <ele>1278.4</ele>
        <time>1970-01-01T05:01:06.000Z</time>
      </trkpt>
      <trkpt lat="42.769822" lon="0.66045">
        <ele>1277.2</ele>
        <time>1970-01-01T05:01:10.000Z</time>
      </trkpt>
      <trkpt lat="42.769884" lon="0.660633">
        <ele>1276</ele>
        <time>1970-01-01T05:01:12.000Z</time>
      </trkpt>
      <trkpt lat="42.769962" lon="0.660841">
        <ele>1275</ele>
        <time>1970-01-01T05:01:14.000Z</time>
      </trkpt>
      <trkpt lat="42.770057" lon="0.661062">
        <ele>1273.2</ele>
        <time>1970-01-01T05:01:16.000Z</time>
      </trkpt>
      <trkpt lat="42.770154" lon="0.661257">
        <ele>1271.8</ele>
        <time>1970-01-01T05:01:18.000Z</time>
      </trkpt>
      <trkpt lat="42.770206" lon="0.661311">
        <ele>1270.4</ele>
        <time>1970-01-01T05:01:19.000Z</time>
      </trkpt>
      <trkpt lat="42.770311" lon="0.66129">
        <ele>1268.8</ele>
        <time>1970-01-01T05:01:21.000Z</time>
      </trkpt>
      <trkpt lat="42.770267" lon="0.661076">
        <ele>1267.2</ele>
        <time>1970-01-01T05:01:24.000Z</time>
      </trkpt>
      <trkpt lat="42.770229" lon="0.660999">
        <ele>1266.8</ele>
        <time>1970-01-01T05:01:25.000Z</time>
      </trkpt>
      <trkpt lat="42.770192" lon="0.660913">
        <ele>1266.2</ele>
        <time>1970-01-01T05:01:26.000Z</time>
      </trkpt>
      <trkpt lat="42.770159" lon="0.660812">
        <ele>1265.8</ele>
        <time>1970-01-01T05:01:27.000Z</time>
      </trkpt>
      <trkpt lat="42.770152" lon="0.660594">
        <ele>1264.6</ele>
        <time>1970-01-01T05:01:29.000Z</time>
      </trkpt>
      <trkpt lat="42.77023" lon="0.660403">
        <ele>1263</ele>
        <time>1970-01-01T05:01:31.000Z</time>
      </trkpt>
      <trkpt lat="42.770362" lon="0.660269">
        <ele>1261.6</ele>
        <time>1970-01-01T05:01:33.000Z</time>
      </trkpt>
      <trkpt lat="42.770522" lon="0.660258">
        <ele>1259.6</ele>
        <time>1970-01-01T05:01:35.000Z</time>
      </trkpt>
      <trkpt lat="42.770592" lon="0.66031">
        <ele>1258.2</ele>
        <time>1970-01-01T05:01:36.000Z</time>
      </trkpt>
      <trkpt lat="42.770644" lon="0.660395">
        <ele>1256.8</ele>
        <time>1970-01-01T05:01:37.000Z</time>
      </trkpt>
      <trkpt lat="42.770675" lon="0.660511">
        <ele>1255.8</ele>
        <time>1970-01-01T05:01:38.000Z</time>
      </trkpt>
      <trkpt lat="42.770703" lon="0.66063">
        <ele>1255</ele>
        <time>1970-01-01T05:01:39.000Z</time>
      </trkpt>
      <trkpt lat="42.770728" lon="0.660761">
        <ele>1254.2</ele>
        <time>1970-01-01T05:01:40.000Z</time>
      </trkpt>
      <trkpt lat="42.770755" lon="0.660895">
        <ele>1253.2</ele>
        <time>1970-01-01T05:01:41.000Z</time>
      </trkpt>
      <trkpt lat="42.770786" lon="0.661022">
        <ele>1252.2</ele>
        <time>1970-01-01T05:01:42.000Z</time>
      </trkpt>
      <trkpt lat="42.770829" lon="0.661139">
        <ele>1250.8</ele>
        <time>1970-01-01T05:01:43.000Z</time>
      </trkpt>
      <trkpt lat="42.770897" lon="0.661241">
        <ele>1249.4</ele>
        <time>1970-01-01T05:01:44.000Z</time>
      </trkpt>
      <trkpt lat="42.770972" lon="0.661339">
        <ele>1248.2</ele>
        <time>1970-01-01T05:01:45.000Z</time>
      </trkpt>
      <trkpt lat="42.771046" lon="0.661433">
        <ele>1247.4</ele>
        <time>1970-01-01T05:01:46.000Z</time>
      </trkpt>
      <trkpt lat="42.771128" lon="0.661525">
        <ele>1246.4</ele>
        <time>1970-01-01T05:01:47.000Z</time>
      </trkpt>
      <trkpt lat="42.771213" lon="0.661599">
        <ele>1245.2</ele>
        <time>1970-01-01T05:01:48.000Z</time>
      </trkpt>
      <trkpt lat="42.771314" lon="0.661631">
        <ele>1244</ele>
        <time>1970-01-01T05:01:49.000Z</time>
      </trkpt>
      <trkpt lat="42.771418" lon="0.66164">
        <ele>1242.8</ele>
        <time>1970-01-01T05:01:50.000Z</time>
      </trkpt>
      <trkpt lat="42.771525" lon="0.66162">
        <ele>1241.8</ele>
        <time>1970-01-01T05:01:51.000Z</time>
      </trkpt>
      <trkpt lat="42.771631" lon="0.661582">
        <ele>1240.6</ele>
        <time>1970-01-01T05:01:52.000Z</time>
      </trkpt>
      <trkpt lat="42.771839" lon="0.661468">
        <ele>1239.2</ele>
        <time>1970-01-01T05:01:54.000Z</time>
      </trkpt>
      <trkpt lat="42.771934" lon="0.661403">
        <ele>1238.2</ele>
        <time>1970-01-01T05:01:55.000Z</time>
      </trkpt>
      <trkpt lat="42.772014" lon="0.66133">
        <ele>1237.2</ele>
        <time>1970-01-01T05:01:56.000Z</time>
      </trkpt>
      <trkpt lat="42.772087" lon="0.661275">
        <ele>1236.2</ele>
        <time>1970-01-01T05:01:57.000Z</time>
      </trkpt>
      <trkpt lat="42.772166" lon="0.661248">
        <ele>1234.8</ele>
        <time>1970-01-01T05:01:58.000Z</time>
      </trkpt>
      <trkpt lat="42.772249" lon="0.661258">
        <ele>1233</ele>
        <time>1970-01-01T05:01:59.000Z</time>
      </trkpt>
      <trkpt lat="42.772331" lon="0.661282">
        <ele>1231.8</ele>
        <time>1970-01-01T05:02:00.000Z</time>
      </trkpt>
      <trkpt lat="42.772415" lon="0.6613">
        <ele>1230.6</ele>
        <time>1970-01-01T05:02:01.000Z</time>
      </trkpt>
      <trkpt lat="42.772498" lon="0.66129">
        <ele>1229.6</ele>
        <time>1970-01-01T05:02:02.000Z</time>
      </trkpt>
      <trkpt lat="42.772616" lon="0.661176">
        <ele>1228.4</ele>
        <time>1970-01-01T05:02:04.000Z</time>
      </trkpt>
      <trkpt lat="42.772615" lon="0.660827">
        <ele>1227</ele>
        <time>1970-01-01T05:02:07.000Z</time>
      </trkpt>
      <trkpt lat="42.772606" lon="0.660573">
        <ele>1225.6</ele>
        <time>1970-01-01T05:02:09.000Z</time>
      </trkpt>
      <trkpt lat="42.772591" lon="0.660297">
        <ele>1224</ele>
        <time>1970-01-01T05:02:11.000Z</time>
      </trkpt>
      <trkpt lat="42.772571" lon="0.659997">
        <ele>1222.6</ele>
        <time>1970-01-01T05:02:13.000Z</time>
      </trkpt>
      <trkpt lat="42.772567" lon="0.659669">
        <ele>1220.6</ele>
        <time>1970-01-01T05:02:15.000Z</time>
      </trkpt>
      <trkpt lat="42.772543" lon="0.659329">
        <ele>1219</ele>
        <time>1970-01-01T05:02:17.000Z</time>
      </trkpt>
      <trkpt lat="42.772522" lon="0.659155">
        <ele>1217.8</ele>
        <time>1970-01-01T05:02:18.000Z</time>
      </trkpt>
      <trkpt lat="42.772495" lon="0.65898">
        <ele>1216</ele>
        <time>1970-01-01T05:02:19.000Z</time>
      </trkpt>
      <trkpt lat="42.77247" lon="0.658799">
        <ele>1213.6</ele>
        <time>1970-01-01T05:02:20.000Z</time>
      </trkpt>
      <trkpt lat="42.772448" lon="0.658615">
        <ele>1212.2</ele>
        <time>1970-01-01T05:02:21.000Z</time>
      </trkpt>
      <trkpt lat="42.77243" lon="0.65843">
        <ele>1211</ele>
        <time>1970-01-01T05:02:22.000Z</time>
      </trkpt>
      <trkpt lat="42.77241" lon="0.658253">
        <ele>1209.4</ele>
        <time>1970-01-01T05:02:23.000Z</time>
      </trkpt>
      <trkpt lat="42.772393" lon="0.658091">
        <ele>1207.6</ele>
        <time>1970-01-01T05:02:24.000Z</time>
      </trkpt>
      <trkpt lat="42.772377" lon="0.657943">
        <ele>1205.6</ele>
        <time>1970-01-01T05:02:25.000Z</time>
      </trkpt>
      <trkpt lat="42.772363" lon="0.657811">
        <ele>1204</ele>
        <time>1970-01-01T05:02:26.000Z</time>
      </trkpt>
      <trkpt lat="42.772348" lon="0.657695">
        <ele>1202.4</ele>
        <time>1970-01-01T05:02:27.000Z</time>
      </trkpt>
      <trkpt lat="42.772339" lon="0.657588">
        <ele>1200.6</ele>
        <time>1970-01-01T05:02:28.000Z</time>
      </trkpt>
      <trkpt lat="42.772325" lon="0.657492">
        <ele>1199.2</ele>
        <time>1970-01-01T05:02:29.000Z</time>
      </trkpt>
      <trkpt lat="42.772301" lon="0.657411">
        <ele>1198.2</ele>
        <time>1970-01-01T05:02:30.000Z</time>
      </trkpt>
      <trkpt lat="42.772277" lon="0.657337">
        <ele>1197.4</ele>
        <time>1970-01-01T05:02:31.000Z</time>
      </trkpt>
      <trkpt lat="42.772212" lon="0.657186">
        <ele>1196</ele>
        <time>1970-01-01T05:02:33.000Z</time>
      </trkpt>
      <trkpt lat="42.772177" lon="0.6571">
        <ele>1195.4</ele>
        <time>1970-01-01T05:02:34.000Z</time>
      </trkpt>
      <trkpt lat="42.772128" lon="0.657016">
        <ele>1194.8</ele>
        <time>1970-01-01T05:02:35.000Z</time>
      </trkpt>
      <trkpt lat="42.77204" lon="0.656814">
        <ele>1193</ele>
        <time>1970-01-01T05:02:37.000Z</time>
      </trkpt>
      <trkpt lat="42.771989" lon="0.656701">
        <ele>1191.8</ele>
        <time>1970-01-01T05:02:38.000Z</time>
      </trkpt>
      <trkpt lat="42.771836" lon="0.656512">
        <ele>1190.2</ele>
        <time>1970-01-01T05:02:40.000Z</time>
      </trkpt>
      <trkpt lat="42.77166" lon="0.656373">
        <ele>1188.6</ele>
        <time>1970-01-01T05:02:42.000Z</time>
      </trkpt>
      <trkpt lat="42.771589" lon="0.656272">
        <ele>1187.4</ele>
        <time>1970-01-01T05:02:43.000Z</time>
      </trkpt>
      <trkpt lat="42.771542" lon="0.656145">
        <ele>1186</ele>
        <time>1970-01-01T05:02:44.000Z</time>
      </trkpt>
      <trkpt lat="42.771516" lon="0.656004">
        <ele>1184.8</ele>
        <time>1970-01-01T05:02:45.000Z</time>
      </trkpt>
      <trkpt lat="42.771505" lon="0.655853">
        <ele>1183.2</ele>
        <time>1970-01-01T05:02:46.000Z</time>
      </trkpt>
      <trkpt lat="42.771501" lon="0.655697">
        <ele>1182.2</ele>
        <time>1970-01-01T05:02:47.000Z</time>
      </trkpt>
      <trkpt lat="42.771499" lon="0.655537">
        <ele>1181.2</ele>
        <time>1970-01-01T05:02:48.000Z</time>
      </trkpt>
      <trkpt lat="42.771499" lon="0.655376">
        <ele>1180</ele>
        <time>1970-01-01T05:02:49.000Z</time>
      </trkpt>
      <trkpt lat="42.771503" lon="0.655211">
        <ele>1179</ele>
        <time>1970-01-01T05:02:50.000Z</time>
      </trkpt>
      <trkpt lat="42.771508" lon="0.655043">
        <ele>1177.4</ele>
        <time>1970-01-01T05:02:51.000Z</time>
      </trkpt>
      <trkpt lat="42.771513" lon="0.654873">
        <ele>1176.4</ele>
        <time>1970-01-01T05:02:52.000Z</time>
      </trkpt>
      <trkpt lat="42.771526" lon="0.654696">
        <ele>1175.2</ele>
        <time>1970-01-01T05:02:53.000Z</time>
      </trkpt>
      <trkpt lat="42.771531" lon="0.654519">
        <ele>1174.2</ele>
        <time>1970-01-01T05:02:54.000Z</time>
      </trkpt>
      <trkpt lat="42.771533" lon="0.65434">
        <ele>1172.8</ele>
        <time>1970-01-01T05:02:55.000Z</time>
      </trkpt>
      <trkpt lat="42.771536" lon="0.654157">
        <ele>1171.6</ele>
        <time>1970-01-01T05:02:56.000Z</time>
      </trkpt>
      <trkpt lat="42.771536" lon="0.653973">
        <ele>1170.2</ele>
        <time>1970-01-01T05:02:57.000Z</time>
      </trkpt>
      <trkpt lat="42.771536" lon="0.653785">
        <ele>1168.6</ele>
        <time>1970-01-01T05:02:58.000Z</time>
      </trkpt>
      <trkpt lat="42.771531" lon="0.653596">
        <ele>1167.4</ele>
        <time>1970-01-01T05:02:59.000Z</time>
      </trkpt>
      <trkpt lat="42.771521" lon="0.653406">
        <ele>1166.4</ele>
        <time>1970-01-01T05:03:00.000Z</time>
      </trkpt>
      <trkpt lat="42.771504" lon="0.653217">
        <ele>1165.4</ele>
        <time>1970-01-01T05:03:01.000Z</time>
      </trkpt>
      <trkpt lat="42.771487" lon="0.653027">
        <ele>1164</ele>
        <time>1970-01-01T05:03:02.000Z</time>
      </trkpt>
      <trkpt lat="42.771473" lon="0.652838">
        <ele>1162.6</ele>
        <time>1970-01-01T05:03:03.000Z</time>
      </trkpt>
      <trkpt lat="42.771458" lon="0.652653">
        <ele>1161</ele>
        <time>1970-01-01T05:03:04.000Z</time>
      </trkpt>
      <trkpt lat="42.771446" lon="0.652479">
        <ele>1159.4</ele>
        <time>1970-01-01T05:03:05.000Z</time>
      </trkpt>
      <trkpt lat="42.771439" lon="0.652309">
        <ele>1157.6</ele>
        <time>1970-01-01T05:03:06.000Z</time>
      </trkpt>
      <trkpt lat="42.771442" lon="0.652135">
        <ele>1156.2</ele>
        <time>1970-01-01T05:03:07.000Z</time>
      </trkpt>
      <trkpt lat="42.771455" lon="0.65196">
        <ele>1154.8</ele>
        <time>1970-01-01T05:03:08.000Z</time>
      </trkpt>
      <trkpt lat="42.771475" lon="0.651784">
        <ele>1153.6</ele>
        <time>1970-01-01T05:03:09.000Z</time>
      </trkpt>
      <trkpt lat="42.771493" lon="0.651605">
        <ele>1152.4</ele>
        <time>1970-01-01T05:03:10.000Z</time>
      </trkpt>
      <trkpt lat="42.771513" lon="0.651428">
        <ele>1151</ele>
        <time>1970-01-01T05:03:11.000Z</time>
      </trkpt>
      <trkpt lat="42.771546" lon="0.651252">
        <ele>1148.8</ele>
        <time>1970-01-01T05:03:12.000Z</time>
      </trkpt>
      <trkpt lat="42.771589" lon="0.651081">
        <ele>1147.2</ele>
        <time>1970-01-01T05:03:13.000Z</time>
      </trkpt>
      <trkpt lat="42.771632" lon="0.650913">
        <ele>1145.8</ele>
        <time>1970-01-01T05:03:14.000Z</time>
      </trkpt>
      <trkpt lat="42.77166" lon="0.650738">
        <ele>1144.4</ele>
        <time>1970-01-01T05:03:15.000Z</time>
      </trkpt>
      <trkpt lat="42.771678" lon="0.65055">
        <ele>1143.4</ele>
        <time>1970-01-01T05:03:16.000Z</time>
      </trkpt>
      <trkpt lat="42.771692" lon="0.650358">
        <ele>1142</ele>
        <time>1970-01-01T05:03:17.000Z</time>
      </trkpt>
      <trkpt lat="42.771709" lon="0.650167">
        <ele>1140.8</ele>
        <time>1970-01-01T05:03:18.000Z</time>
      </trkpt>
      <trkpt lat="42.771729" lon="0.649978">
        <ele>1139.2</ele>
        <time>1970-01-01T05:03:19.000Z</time>
      </trkpt>
      <trkpt lat="42.771752" lon="0.649787">
        <ele>1138</ele>
        <time>1970-01-01T05:03:20.000Z</time>
      </trkpt>
      <trkpt lat="42.771772" lon="0.649591">
        <ele>1136.2</ele>
        <time>1970-01-01T05:03:21.000Z</time>
      </trkpt>
      <trkpt lat="42.771785" lon="0.649392">
        <ele>1134.6</ele>
        <time>1970-01-01T05:03:22.000Z</time>
      </trkpt>
      <trkpt lat="42.771792" lon="0.649194">
        <ele>1133.2</ele>
        <time>1970-01-01T05:03:23.000Z</time>
      </trkpt>
      <trkpt lat="42.771798" lon="0.648996">
        <ele>1132</ele>
        <time>1970-01-01T05:03:24.000Z</time>
      </trkpt>
      <trkpt lat="42.771806" lon="0.648802">
        <ele>1130.6</ele>
        <time>1970-01-01T05:03:25.000Z</time>
      </trkpt>
      <trkpt lat="42.771815" lon="0.648603">
        <ele>1129.2</ele>
        <time>1970-01-01T05:03:26.000Z</time>
      </trkpt>
      <trkpt lat="42.771818" lon="0.648403">
        <ele>1128</ele>
        <time>1970-01-01T05:03:27.000Z</time>
      </trkpt>
      <trkpt lat="42.771815" lon="0.648202">
        <ele>1126.8</ele>
        <time>1970-01-01T05:03:28.000Z</time>
      </trkpt>
      <trkpt lat="42.771798" lon="0.648001">
        <ele>1125</ele>
        <time>1970-01-01T05:03:29.000Z</time>
      </trkpt>
      <trkpt lat="42.771765" lon="0.647809">
        <ele>1123</ele>
        <time>1970-01-01T05:03:30.000Z</time>
      </trkpt>
      <trkpt lat="42.771729" lon="0.647627">
        <ele>1121.6</ele>
        <time>1970-01-01T05:03:31.000Z</time>
      </trkpt>
      <trkpt lat="42.771716" lon="0.647445">
        <ele>1119.8</ele>
        <time>1970-01-01T05:03:32.000Z</time>
      </trkpt>
      <trkpt lat="42.771727" lon="0.647261">
        <ele>1118.4</ele>
        <time>1970-01-01T05:03:33.000Z</time>
      </trkpt>
      <trkpt lat="42.771749" lon="0.647089">
        <ele>1117</ele>
        <time>1970-01-01T05:03:34.000Z</time>
      </trkpt>
      <trkpt lat="42.771774" lon="0.646939">
        <ele>1115.4</ele>
        <time>1970-01-01T05:03:35.000Z</time>
      </trkpt>
      <trkpt lat="42.77179" lon="0.646815">
        <ele>1114.2</ele>
        <time>1970-01-01T05:03:36.000Z</time>
      </trkpt>
      <trkpt lat="42.771794" lon="0.646718">
        <ele>1112.8</ele>
        <time>1970-01-01T05:03:37.000Z</time>
      </trkpt>
      <trkpt lat="42.771749" lon="0.646574">
        <ele>1110.2</ele>
        <time>1970-01-01T05:03:39.000Z</time>
      </trkpt>
      <trkpt lat="42.771651" lon="0.646591">
        <ele>1108.8</ele>
        <time>1970-01-01T05:03:41.000Z</time>
      </trkpt>
      <trkpt lat="42.771573" lon="0.646821">
        <ele>1107</ele>
        <time>1970-01-01T05:03:44.000Z</time>
      </trkpt>
      <trkpt lat="42.771563" lon="0.646935">
        <ele>1106.4</ele>
        <time>1970-01-01T05:03:45.000Z</time>
      </trkpt>
      <trkpt lat="42.771557" lon="0.647052">
        <ele>1105.8</ele>
        <time>1970-01-01T05:03:46.000Z</time>
      </trkpt>
      <trkpt lat="42.771544" lon="0.647168">
        <ele>1104.8</ele>
        <time>1970-01-01T05:03:47.000Z</time>
      </trkpt>
      <trkpt lat="42.771518" lon="0.647419">
        <ele>1103.4</ele>
        <time>1970-01-01T05:03:49.000Z</time>
      </trkpt>
      <trkpt lat="42.771499" lon="0.647691">
        <ele>1101.6</ele>
        <time>1970-01-01T05:03:51.000Z</time>
      </trkpt>
      <trkpt lat="42.771491" lon="0.647838">
        <ele>1100.6</ele>
        <time>1970-01-01T05:03:52.000Z</time>
      </trkpt>
      <trkpt lat="42.771473" lon="0.647986">
        <ele>1099.4</ele>
        <time>1970-01-01T05:03:53.000Z</time>
      </trkpt>
      <trkpt lat="42.771413" lon="0.648302">
        <ele>1097.4</ele>
        <time>1970-01-01T05:03:55.000Z</time>
      </trkpt>
      <trkpt lat="42.771372" lon="0.648459">
        <ele>1096.2</ele>
        <time>1970-01-01T05:03:56.000Z</time>
      </trkpt>
      <trkpt lat="42.771273" lon="0.648787">
        <ele>1094.4</ele>
        <time>1970-01-01T05:03:58.000Z</time>
      </trkpt>
      <trkpt lat="42.771221" lon="0.648957">
        <ele>1092.8</ele>
        <time>1970-01-01T05:03:59.000Z</time>
      </trkpt>
      <trkpt lat="42.771168" lon="0.64913">
        <ele>1091.4</ele>
        <time>1970-01-01T05:04:00.000Z</time>
      </trkpt>
      <trkpt lat="42.771122" lon="0.649308">
        <ele>1090.2</ele>
        <time>1970-01-01T05:04:01.000Z</time>
      </trkpt>
      <trkpt lat="42.771076" lon="0.649488">
        <ele>1089</ele>
        <time>1970-01-01T05:04:02.000Z</time>
      </trkpt>
      <trkpt lat="42.771026" lon="0.649674">
        <ele>1088</ele>
        <time>1970-01-01T05:04:03.000Z</time>
      </trkpt>
      <trkpt lat="42.770977" lon="0.649859">
        <ele>1086.8</ele>
        <time>1970-01-01T05:04:04.000Z</time>
      </trkpt>
      <trkpt lat="42.770933" lon="0.650043">
        <ele>1085</ele>
        <time>1970-01-01T05:04:05.000Z</time>
      </trkpt>
      <trkpt lat="42.770896" lon="0.650235">
        <ele>1083.6</ele>
        <time>1970-01-01T05:04:06.000Z</time>
      </trkpt>
      <trkpt lat="42.770853" lon="0.650417">
        <ele>1082.4</ele>
        <time>1970-01-01T05:04:07.000Z</time>
      </trkpt>
      <trkpt lat="42.770808" lon="0.650608">
        <ele>1081.2</ele>
        <time>1970-01-01T05:04:08.000Z</time>
      </trkpt>
      <trkpt lat="42.770762" lon="0.650793">
        <ele>1080</ele>
        <time>1970-01-01T05:04:09.000Z</time>
      </trkpt>
      <trkpt lat="42.7707" lon="0.650962">
        <ele>1079</ele>
        <time>1970-01-01T05:04:10.000Z</time>
      </trkpt>
      <trkpt lat="42.770625" lon="0.651117">
        <ele>1077.6</ele>
        <time>1970-01-01T05:04:11.000Z</time>
      </trkpt>
      <trkpt lat="42.770561" lon="0.651277">
        <ele>1075.8</ele>
        <time>1970-01-01T05:04:12.000Z</time>
      </trkpt>
      <trkpt lat="42.770511" lon="0.651453">
        <ele>1074.2</ele>
        <time>1970-01-01T05:04:13.000Z</time>
      </trkpt>
      <trkpt lat="42.770471" lon="0.651632">
        <ele>1072.4</ele>
        <time>1970-01-01T05:04:14.000Z</time>
      </trkpt>
      <trkpt lat="42.77044" lon="0.651802">
        <ele>1071.4</ele>
        <time>1970-01-01T05:04:15.000Z</time>
      </trkpt>
      <trkpt lat="42.770419" lon="0.651949">
        <ele>1070.2</ele>
        <time>1970-01-01T05:04:16.000Z</time>
      </trkpt>
      <trkpt lat="42.770403" lon="0.652064">
        <ele>1068.8</ele>
        <time>1970-01-01T05:04:17.000Z</time>
      </trkpt>
      <trkpt lat="42.770367" lon="0.652155">
        <ele>1067.6</ele>
        <time>1970-01-01T05:04:18.000Z</time>
      </trkpt>
      <trkpt lat="42.770314" lon="0.652199">
        <ele>1066.4</ele>
        <time>1970-01-01T05:04:19.000Z</time>
      </trkpt>
      <trkpt lat="42.770276" lon="0.652176">
        <ele>1065</ele>
        <time>1970-01-01T05:04:20.000Z</time>
      </trkpt>
      <trkpt lat="42.770253" lon="0.652112">
        <ele>1063.8</ele>
        <time>1970-01-01T05:04:21.000Z</time>
      </trkpt>
      <trkpt lat="42.770272" lon="0.65203">
        <ele>1062.2</ele>
        <time>1970-01-01T05:04:22.000Z</time>
      </trkpt>
      <trkpt lat="42.770321" lon="0.65188">
        <ele>1061</ele>
        <time>1970-01-01T05:04:24.000Z</time>
      </trkpt>
      <trkpt lat="42.770348" lon="0.651798">
        <ele>1060.6</ele>
        <time>1970-01-01T05:04:25.000Z</time>
      </trkpt>
      <trkpt lat="42.770384" lon="0.651613">
        <ele>1059.8</ele>
        <time>1970-01-01T05:04:27.000Z</time>
      </trkpt>
      <trkpt lat="42.770399" lon="0.651431">
        <ele>1059</ele>
        <time>1970-01-01T05:04:29.000Z</time>
      </trkpt>
      <trkpt lat="42.770401" lon="0.651349">
        <ele>1058.2</ele>
        <time>1970-01-01T05:04:30.000Z</time>
      </trkpt>
      <trkpt lat="42.770401" lon="0.651194">
        <ele>1057</ele>
        <time>1970-01-01T05:04:32.000Z</time>
      </trkpt>
      <trkpt lat="42.770421" lon="0.651009">
        <ele>1055.6</ele>
        <time>1970-01-01T05:04:34.000Z</time>
      </trkpt>
      <trkpt lat="42.77048" lon="0.650801">
        <ele>1054.4</ele>
        <time>1970-01-01T05:04:36.000Z</time>
      </trkpt>
      <trkpt lat="42.770489" lon="0.650682">
        <ele>1053.4</ele>
        <time>1970-01-01T05:04:37.000Z</time>
      </trkpt>
      <trkpt lat="42.770494" lon="0.650558">
        <ele>1052.8</ele>
        <time>1970-01-01T05:04:38.000Z</time>
      </trkpt>
      <trkpt lat="42.770487" lon="0.650296">
        <ele>1051</ele>
        <time>1970-01-01T05:04:40.000Z</time>
      </trkpt>
      <trkpt lat="42.77049" lon="0.65">
        <ele>1049.2</ele>
        <time>1970-01-01T05:04:42.000Z</time>
      </trkpt>
      <trkpt lat="42.77047" lon="0.649678">
        <ele>1047.6</ele>
        <time>1970-01-01T05:04:44.000Z</time>
      </trkpt>
      <trkpt lat="42.770454" lon="0.649509">
        <ele>1046.2</ele>
        <time>1970-01-01T05:04:45.000Z</time>
      </trkpt>
      <trkpt lat="42.770421" lon="0.649163">
        <ele>1044.2</ele>
        <time>1970-01-01T05:04:47.000Z</time>
      </trkpt>
      <trkpt lat="42.770406" lon="0.648989">
        <ele>1043.2</ele>
        <time>1970-01-01T05:04:48.000Z</time>
      </trkpt>
      <trkpt lat="42.770386" lon="0.648825">
        <ele>1041.6</ele>
        <time>1970-01-01T05:04:49.000Z</time>
      </trkpt>
      <trkpt lat="42.770353" lon="0.648676">
        <ele>1039.8</ele>
        <time>1970-01-01T05:04:50.000Z</time>
      </trkpt>
      <trkpt lat="42.770299" lon="0.648536">
        <ele>1038.2</ele>
        <time>1970-01-01T05:04:51.000Z</time>
      </trkpt>
      <trkpt lat="42.770239" lon="0.648415">
        <ele>1037.2</ele>
        <time>1970-01-01T05:04:52.000Z</time>
      </trkpt>
      <trkpt lat="42.770163" lon="0.648303">
        <ele>1036</ele>
        <time>1970-01-01T05:04:53.000Z</time>
      </trkpt>
      <trkpt lat="42.770076" lon="0.648206">
        <ele>1035</ele>
        <time>1970-01-01T05:04:54.000Z</time>
      </trkpt>
      <trkpt lat="42.769864" lon="0.648053">
        <ele>1033.2</ele>
        <time>1970-01-01T05:04:56.000Z</time>
      </trkpt>
      <trkpt lat="42.769763" lon="0.647998">
        <ele>1032.4</ele>
        <time>1970-01-01T05:04:57.000Z</time>
      </trkpt>
      <trkpt lat="42.76967" lon="0.647944">
        <ele>1031</ele>
        <time>1970-01-01T05:04:58.000Z</time>
      </trkpt>
      <trkpt lat="42.769595" lon="0.647867">
        <ele>1029.8</ele>
        <time>1970-01-01T05:04:59.000Z</time>
      </trkpt>
      <trkpt lat="42.76954" lon="0.64776">
        <ele>1028.6</ele>
        <time>1970-01-01T05:05:00.000Z</time>
      </trkpt>
      <trkpt lat="42.769487" lon="0.647643">
        <ele>1027.4</ele>
        <time>1970-01-01T05:05:01.000Z</time>
      </trkpt>
      <trkpt lat="42.769431" lon="0.647522">
        <ele>1026.4</ele>
        <time>1970-01-01T05:05:02.000Z</time>
      </trkpt>
      <trkpt lat="42.769316" lon="0.647264">
        <ele>1024.8</ele>
        <time>1970-01-01T05:05:04.000Z</time>
      </trkpt>
      <trkpt lat="42.769185" lon="0.647009">
        <ele>1022.6</ele>
        <time>1970-01-01T05:05:06.000Z</time>
      </trkpt>
      <trkpt lat="42.769116" lon="0.646886">
        <ele>1021.6</ele>
        <time>1970-01-01T05:05:07.000Z</time>
      </trkpt>
      <trkpt lat="42.768974" lon="0.64664">
        <ele>1020.4</ele>
        <time>1970-01-01T05:05:09.000Z</time>
      </trkpt>
      <trkpt lat="42.768831" lon="0.646383">
        <ele>1018.6</ele>
        <time>1970-01-01T05:05:11.000Z</time>
      </trkpt>
      <trkpt lat="42.768695" lon="0.646123">
        <ele>1016.6</ele>
        <time>1970-01-01T05:05:13.000Z</time>
      </trkpt>
      <trkpt lat="42.768642" lon="0.645991">
        <ele>1015.4</ele>
        <time>1970-01-01T05:05:14.000Z</time>
      </trkpt>
      <trkpt lat="42.76861" lon="0.645845">
        <ele>1014</ele>
        <time>1970-01-01T05:05:15.000Z</time>
      </trkpt>
      <trkpt lat="42.768598" lon="0.64569">
        <ele>1012.4</ele>
        <time>1970-01-01T05:05:16.000Z</time>
      </trkpt>
      <trkpt lat="42.768597" lon="0.645526">
        <ele>1011.2</ele>
        <time>1970-01-01T05:05:17.000Z</time>
      </trkpt>
      <trkpt lat="42.768598" lon="0.645358">
        <ele>1009.6</ele>
        <time>1970-01-01T05:05:18.000Z</time>
      </trkpt>
      <trkpt lat="42.768595" lon="0.645189">
        <ele>1008.4</ele>
        <time>1970-01-01T05:05:19.000Z</time>
      </trkpt>
      <trkpt lat="42.768595" lon="0.644852">
        <ele>1006.2</ele>
        <time>1970-01-01T05:05:21.000Z</time>
      </trkpt>
      <trkpt lat="42.768594" lon="0.644675">
        <ele>1004.8</ele>
        <time>1970-01-01T05:05:22.000Z</time>
      </trkpt>
      <trkpt lat="42.768588" lon="0.644492">
        <ele>1003.6</ele>
        <time>1970-01-01T05:05:23.000Z</time>
      </trkpt>
      <trkpt lat="42.768589" lon="0.644304">
        <ele>1002</ele>
        <time>1970-01-01T05:05:24.000Z</time>
      </trkpt>
      <trkpt lat="42.768606" lon="0.643917">
        <ele>999.8</ele>
        <time>1970-01-01T05:05:26.000Z</time>
      </trkpt>
      <trkpt lat="42.76863" lon="0.643718">
        <ele>998</ele>
        <time>1970-01-01T05:05:27.000Z</time>
      </trkpt>
      <trkpt lat="42.768662" lon="0.643527">
        <ele>996.8</ele>
        <time>1970-01-01T05:05:28.000Z</time>
      </trkpt>
      <trkpt lat="42.768696" lon="0.643335">
        <ele>995.6</ele>
        <time>1970-01-01T05:05:29.000Z</time>
      </trkpt>
      <trkpt lat="42.768729" lon="0.643145">
        <ele>994.2</ele>
        <time>1970-01-01T05:05:30.000Z</time>
      </trkpt>
      <trkpt lat="42.768764" lon="0.642951">
        <ele>993</ele>
        <time>1970-01-01T05:05:31.000Z</time>
      </trkpt>
      <trkpt lat="42.768808" lon="0.642766">
        <ele>991.6</ele>
        <time>1970-01-01T05:05:32.000Z</time>
      </trkpt>
      <trkpt lat="42.768866" lon="0.642589">
        <ele>989.8</ele>
        <time>1970-01-01T05:05:33.000Z</time>
      </trkpt>
      <trkpt lat="42.76894" lon="0.642427">
        <ele>988.4</ele>
        <time>1970-01-01T05:05:34.000Z</time>
      </trkpt>
      <trkpt lat="42.769015" lon="0.642277">
        <ele>987</ele>
        <time>1970-01-01T05:05:35.000Z</time>
      </trkpt>
      <trkpt lat="42.769085" lon="0.642153">
        <ele>986</ele>
        <time>1970-01-01T05:05:36.000Z</time>
      </trkpt>
      <trkpt lat="42.769151" lon="0.642057">
        <ele>984.2</ele>
        <time>1970-01-01T05:05:37.000Z</time>
      </trkpt>
      <trkpt lat="42.769202" lon="0.641982">
        <ele>982.8</ele>
        <time>1970-01-01T05:05:38.000Z</time>
      </trkpt>
      <trkpt lat="42.769225" lon="0.641904">
        <ele>981.8</ele>
        <time>1970-01-01T05:05:39.000Z</time>
      </trkpt>
      <trkpt lat="42.769216" lon="0.641838">
        <ele>980.6</ele>
        <time>1970-01-01T05:05:40.000Z</time>
      </trkpt>
      <trkpt lat="42.769182" lon="0.64178">
        <ele>979.4</ele>
        <time>1970-01-01T05:05:41.000Z</time>
      </trkpt>
      <trkpt lat="42.769093" lon="0.641721">
        <ele>978</ele>
        <time>1970-01-01T05:05:43.000Z</time>
      </trkpt>
      <trkpt lat="42.769036" lon="0.64174">
        <ele>977</ele>
        <time>1970-01-01T05:05:45.000Z</time>
      </trkpt>
      <trkpt lat="42.768942" lon="0.641779">
        <ele>976</ele>
        <time>1970-01-01T05:05:49.000Z</time>
      </trkpt>
      <trkpt lat="42.768926" lon="0.641789">
        <ele>975.6</ele>
        <time>1970-01-01T05:05:50.000Z</time>
      </trkpt>
      <trkpt lat="42.768867" lon="0.641822">
        <ele>974.8</ele>
        <time>1970-01-01T05:05:53.000Z</time>
      </trkpt>
      <trkpt lat="42.768681" lon="0.64191">
        <ele>973.8</ele>
        <time>1970-01-01T05:06:00.000Z</time>
      </trkpt>
      <trkpt lat="42.768495" lon="0.641994">
        <ele>972.8</ele>
        <time>1970-01-01T05:06:04.000Z</time>
      </trkpt>
      <trkpt lat="42.768441" lon="0.642032">
        <ele>972.4</ele>
        <time>1970-01-01T05:06:05.000Z</time>
      </trkpt>
      <trkpt lat="42.768283" lon="0.642163">
        <ele>971.4</ele>
        <time>1970-01-01T05:06:08.000Z</time>
      </trkpt>
      <trkpt lat="42.768171" lon="0.641973">
        <ele>970</ele>
        <time>1970-01-01T05:06:11.000Z</time>
      </trkpt>
      <trkpt lat="42.768233" lon="0.64177">
        <ele>968.4</ele>
        <time>1970-01-01T05:06:13.000Z</time>
      </trkpt>
      <trkpt lat="42.768271" lon="0.641666">
        <ele>967.8</ele>
        <time>1970-01-01T05:06:14.000Z</time>
      </trkpt>
      <trkpt lat="42.768313" lon="0.641571">
        <ele>967.4</ele>
        <time>1970-01-01T05:06:15.000Z</time>
      </trkpt>
      <trkpt lat="42.768375" lon="0.64143">
        <ele>965.8</ele>
        <time>1970-01-01T05:06:17.000Z</time>
      </trkpt>
      <trkpt lat="42.768403" lon="0.641373">
        <ele>964.4</ele>
        <time>1970-01-01T05:06:19.000Z</time>
      </trkpt>
      <trkpt lat="42.768406" lon="0.641368">
        <ele>963.8</ele>
        <time>1970-01-01T05:06:21.000Z</time>
      </trkpt>
      <trkpt lat="42.768359" lon="0.641379">
        <ele>963.8</ele>
        <time>1970-01-01T05:06:28.000Z</time>
      </trkpt>
      <trkpt lat="42.768331" lon="0.641442">
        <ele>964.2</ele>
        <time>1970-01-01T05:06:35.000Z</time>
      </trkpt>
      <trkpt lat="42.7683" lon="0.641552">
        <ele>964.8</ele>
        <time>1970-01-01T05:06:44.000Z</time>
      </trkpt>
      <trkpt lat="42.768267" lon="0.641623">
        <ele>965.4</ele>
        <time>1970-01-01T05:06:48.000Z</time>
      </trkpt>
      <trkpt lat="42.768248" lon="0.64167">
        <ele>965.6</ele>
        <time>1970-01-01T05:06:50.000Z</time>
      </trkpt>
      <trkpt lat="42.768191" lon="0.641834">
        <ele>966.8</ele>
        <time>1970-01-01T05:06:57.000Z</time>
      </trkpt>
      <trkpt lat="42.768145" lon="0.641999">
        <ele>967.8</ele>
        <time>1970-01-01T05:07:04.000Z</time>
      </trkpt>
      <trkpt lat="42.768069" lon="0.642221">
        <ele>969.2</ele>
        <time>1970-01-01T05:07:14.000Z</time>
      </trkpt>
      <trkpt lat="42.767978" lon="0.642391">
        <ele>970.2</ele>
        <time>1970-01-01T05:07:21.000Z</time>
      </trkpt>
      <trkpt lat="42.767845" lon="0.642696">
        <ele>971.4</ele>
        <time>1970-01-01T05:07:32.000Z</time>
      </trkpt>
      <trkpt lat="42.767714" lon="0.642955">
        <ele>972.4</ele>
        <time>1970-01-01T05:07:42.000Z</time>
      </trkpt>
      <trkpt lat="42.767497" lon="0.643174">
        <ele>973.6</ele>
        <time>1970-01-01T05:07:54.000Z</time>
      </trkpt>
      <trkpt lat="42.76732" lon="0.643255">
        <ele>974.2</ele>
        <time>1970-01-01T05:08:03.000Z</time>
      </trkpt>
      <trkpt lat="42.767228" lon="0.643207">
        <ele>974.4</ele>
        <time>1970-01-01T05:08:07.000Z</time>
      </trkpt>
      <trkpt lat="42.767194" lon="0.643164">
        <ele>974.8</ele>
        <time>1970-01-01T05:08:09.000Z</time>
      </trkpt>
      <trkpt lat="42.767101" lon="0.642941">
        <ele>975.8</ele>
        <time>1970-01-01T05:08:18.000Z</time>
      </trkpt>
      <trkpt lat="42.767059" lon="0.642847">
        <ele>976.8</ele>
        <time>1970-01-01T05:08:23.000Z</time>
      </trkpt>
      <trkpt lat="42.766991" lon="0.642687">
        <ele>977.8</ele>
        <time>1970-01-01T05:08:30.000Z</time>
      </trkpt>
      <trkpt lat="42.766954" lon="0.642453">
        <ele>979</ele>
        <time>1970-01-01T05:08:38.000Z</time>
      </trkpt>
      <trkpt lat="42.76697" lon="0.642314">
        <ele>980</ele>
        <time>1970-01-01T05:08:43.000Z</time>
      </trkpt>
      <trkpt lat="42.766934" lon="0.642134">
        <ele>981.4</ele>
        <time>1970-01-01T05:08:51.000Z</time>
      </trkpt>
      <trkpt lat="42.766932" lon="0.642107">
        <ele>981.4</ele>
        <time>1970-01-01T05:08:52.000Z</time>
      </trkpt>
      <trkpt lat="42.766941" lon="0.642042">
        <ele>981.8</ele>
        <time>1970-01-01T05:08:56.000Z</time>
      </trkpt>
      <trkpt lat="42.766908" lon="0.64191">
        <ele>981.8</ele>
        <time>1970-01-01T05:15:38.000Z</time>
      </trkpt>
      <trkpt lat="42.766765" lon="0.641695">
        <ele>983.4</ele>
        <time>1970-01-01T05:15:49.000Z</time>
      </trkpt>
      <trkpt lat="42.766642" lon="0.641566">
        <ele>984.4</ele>
        <time>1970-01-01T05:15:57.000Z</time>
      </trkpt>
      <trkpt lat="42.766504" lon="0.641495">
        <ele>985.4</ele>
        <time>1970-01-01T05:16:05.000Z</time>
      </trkpt>
      <trkpt lat="42.766383" lon="0.641415">
        <ele>986.8</ele>
        <time>1970-01-01T05:16:12.000Z</time>
      </trkpt>
      <trkpt lat="42.766326" lon="0.641318">
        <ele>987.8</ele>
        <time>1970-01-01T05:16:17.000Z</time>
      </trkpt>
      <trkpt lat="42.76622" lon="0.641153">
        <ele>989.2</ele>
        <time>1970-01-01T05:16:25.000Z</time>
      </trkpt>
      <trkpt lat="42.766165" lon="0.641056">
        <ele>990.2</ele>
        <time>1970-01-01T05:16:30.000Z</time>
      </trkpt>
      <trkpt lat="42.76611" lon="0.640846">
        <ele>991.2</ele>
        <time>1970-01-01T05:16:38.000Z</time>
      </trkpt>
      <trkpt lat="42.766093" lon="0.640575">
        <ele>992.4</ele>
        <time>1970-01-01T05:16:48.000Z</time>
      </trkpt>
      <trkpt lat="42.766097" lon="0.639846">
        <ele>992.2</ele>
        <time>1970-01-01T05:17:06.000Z</time>
      </trkpt>
      <trkpt lat="42.76608" lon="0.639728">
        <ele>991.6</ele>
        <time>1970-01-01T05:17:08.000Z</time>
      </trkpt>
      <trkpt lat="42.766088" lon="0.639583">
        <ele>991.4</ele>
        <time>1970-01-01T05:17:10.000Z</time>
      </trkpt>
      <trkpt lat="42.766113" lon="0.639344">
        <ele>990.4</ele>
        <time>1970-01-01T05:17:13.000Z</time>
      </trkpt>
      <trkpt lat="42.766117" lon="0.63927">
        <ele>990.2</ele>
        <time>1970-01-01T05:17:14.000Z</time>
      </trkpt>
      <trkpt lat="42.76614" lon="0.638969">
        <ele>989.8</ele>
        <time>1970-01-01T05:17:18.000Z</time>
      </trkpt>
      <trkpt lat="42.766161" lon="0.63877">
        <ele>989.6</ele>
        <time>1970-01-01T05:17:21.000Z</time>
      </trkpt>
      <trkpt lat="42.766202" lon="0.638257">
        <ele>989.2</ele>
        <time>1970-01-01T05:17:28.000Z</time>
      </trkpt>
      <trkpt lat="42.766188" lon="0.637763">
        <ele>988</ele>
        <time>1970-01-01T05:17:35.000Z</time>
      </trkpt>
      <trkpt lat="42.766264" lon="0.637604">
        <ele>988</ele>
        <time>1970-01-01T05:17:38.000Z</time>
      </trkpt>
      <trkpt lat="42.766394" lon="0.637261">
        <ele>989.2</ele>
        <time>1970-01-01T05:17:45.000Z</time>
      </trkpt>
      <trkpt lat="42.766397" lon="0.637034">
        <ele>990.4</ele>
        <time>1970-01-01T05:17:50.000Z</time>
      </trkpt>
      <trkpt lat="42.766412" lon="0.636876">
        <ele>991.4</ele>
        <time>1970-01-01T05:17:54.000Z</time>
      </trkpt>
      <trkpt lat="42.766408" lon="0.636717">
        <ele>992.6</ele>
        <time>1970-01-01T05:17:58.000Z</time>
      </trkpt>
      <trkpt lat="42.766379" lon="0.636453">
        <ele>993.6</ele>
        <time>1970-01-01T05:18:04.000Z</time>
      </trkpt>
      <trkpt lat="42.76638" lon="0.636165">
        <ele>994.6</ele>
        <time>1970-01-01T05:18:11.000Z</time>
      </trkpt>
      <trkpt lat="42.766556" lon="0.635444">
        <ele>994.8</ele>
        <time>1970-01-01T05:18:27.000Z</time>
      </trkpt>
      <trkpt lat="42.766572" lon="0.634695">
        <ele>995.4</ele>
        <time>1970-01-01T05:18:42.000Z</time>
      </trkpt>
      <trkpt lat="42.766554" lon="0.634598">
        <ele>995.8</ele>
        <time>1970-01-01T05:18:44.000Z</time>
      </trkpt>
      <trkpt lat="42.766603" lon="0.634142">
        <ele>997</ele>
        <time>1970-01-01T05:18:54.000Z</time>
      </trkpt>
      <trkpt lat="42.766668" lon="0.633935">
        <ele>998</ele>
        <time>1970-01-01T05:19:00.000Z</time>
      </trkpt>
      <trkpt lat="42.766706" lon="0.633758">
        <ele>999.4</ele>
        <time>1970-01-01T05:19:06.000Z</time>
      </trkpt>
      <trkpt lat="42.766737" lon="0.633612">
        <ele>1000.4</ele>
        <time>1970-01-01T05:19:12.000Z</time>
      </trkpt>
      <trkpt lat="42.766777" lon="0.633492">
        <ele>1001.4</ele>
        <time>1970-01-01T05:19:17.000Z</time>
      </trkpt>
      <trkpt lat="42.766834" lon="0.633365">
        <ele>1002.4</ele>
        <time>1970-01-01T05:19:23.000Z</time>
      </trkpt>
      <trkpt lat="42.766884" lon="0.633263">
        <ele>1003.6</ele>
        <time>1970-01-01T05:19:28.000Z</time>
      </trkpt>
      <trkpt lat="42.766903" lon="0.633175">
        <ele>1004.6</ele>
        <time>1970-01-01T05:19:32.000Z</time>
      </trkpt>
      <trkpt lat="42.766938" lon="0.633069">
        <ele>1005.6</ele>
        <time>1970-01-01T05:19:37.000Z</time>
      </trkpt>
      <trkpt lat="42.766986" lon="0.632966">
        <ele>1006.8</ele>
        <time>1970-01-01T05:19:42.000Z</time>
      </trkpt>
      <trkpt lat="42.76702" lon="0.632846">
        <ele>1007.8</ele>
        <time>1970-01-01T05:19:47.000Z</time>
      </trkpt>
      <trkpt lat="42.767074" lon="0.632754">
        <ele>1008.8</ele>
        <time>1970-01-01T05:19:52.000Z</time>
      </trkpt>
      <trkpt lat="42.76714" lon="0.632597">
        <ele>1010</ele>
        <time>1970-01-01T05:19:59.000Z</time>
      </trkpt>
      <trkpt lat="42.767193" lon="0.632401">
        <ele>1011</ele>
        <time>1970-01-01T05:20:07.000Z</time>
      </trkpt>
      <trkpt lat="42.767202" lon="0.63233">
        <ele>1011.6</ele>
        <time>1970-01-01T05:20:10.000Z</time>
      </trkpt>
      <trkpt lat="42.767208" lon="0.63226">
        <ele>1012.2</ele>
        <time>1970-01-01T05:20:13.000Z</time>
      </trkpt>
      <trkpt lat="42.767222" lon="0.632128">
        <ele>1013.2</ele>
        <time>1970-01-01T05:20:19.000Z</time>
      </trkpt>
      <trkpt lat="42.767268" lon="0.631937">
        <ele>1014.4</ele>
        <time>1970-01-01T05:20:28.000Z</time>
      </trkpt>
      <trkpt lat="42.767329" lon="0.631775">
        <ele>1015.6</ele>
        <time>1970-01-01T05:20:36.000Z</time>
      </trkpt>
      <trkpt lat="42.767373" lon="0.631525">
        <ele>1016.6</ele>
        <time>1970-01-01T05:20:46.000Z</time>
      </trkpt>
      <trkpt lat="42.767394" lon="0.631333">
        <ele>1017.6</ele>
        <time>1970-01-01T05:20:53.000Z</time>
      </trkpt>
      <trkpt lat="42.767424" lon="0.631192">
        <ele>1018.8</ele>
        <time>1970-01-01T05:20:59.000Z</time>
      </trkpt>
      <trkpt lat="42.767448" lon="0.631089">
        <ele>1020</ele>
        <time>1970-01-01T05:21:04.000Z</time>
      </trkpt>
      <trkpt lat="42.767472" lon="0.630967">
        <ele>1021</ele>
        <time>1970-01-01T05:21:09.000Z</time>
      </trkpt>
      <trkpt lat="42.76748" lon="0.630834">
        <ele>1022.4</ele>
        <time>1970-01-01T05:21:14.000Z</time>
      </trkpt>
      <trkpt lat="42.76751" lon="0.630718">
        <ele>1023.4</ele>
        <time>1970-01-01T05:21:19.000Z</time>
      </trkpt>
      <trkpt lat="42.767504" lon="0.63056">
        <ele>1024.8</ele>
        <time>1970-01-01T05:21:26.000Z</time>
      </trkpt>
      <trkpt lat="42.767525" lon="0.630477">
        <ele>1025.8</ele>
        <time>1970-01-01T05:21:30.000Z</time>
      </trkpt>
      <trkpt lat="42.767561" lon="0.630274">
        <ele>1026.8</ele>
        <time>1970-01-01T05:21:38.000Z</time>
      </trkpt>
      <trkpt lat="42.767591" lon="0.630156">
        <ele>1028</ele>
        <time>1970-01-01T05:21:43.000Z</time>
      </trkpt>
      <trkpt lat="42.76759" lon="0.630027">
        <ele>1029.2</ele>
        <time>1970-01-01T05:21:49.000Z</time>
      </trkpt>
      <trkpt lat="42.767575" lon="0.629926">
        <ele>1030.2</ele>
        <time>1970-01-01T05:21:54.000Z</time>
      </trkpt>
      <trkpt lat="42.767534" lon="0.629789">
        <ele>1031.4</ele>
        <time>1970-01-01T05:22:01.000Z</time>
      </trkpt>
      <trkpt lat="42.767542" lon="0.629687">
        <ele>1032</ele>
        <time>1970-01-01T05:22:05.000Z</time>
      </trkpt>
      <trkpt lat="42.767563" lon="0.62961">
        <ele>1032.4</ele>
        <time>1970-01-01T05:22:08.000Z</time>
      </trkpt>
      <trkpt lat="42.767564" lon="0.629586">
        <ele>1032.8</ele>
        <time>1970-01-01T05:22:09.000Z</time>
      </trkpt>
      <trkpt lat="42.767572" lon="0.629514">
        <ele>1033.6</ele>
        <time>1970-01-01T05:22:12.000Z</time>
      </trkpt>
      <trkpt lat="42.767593" lon="0.629363">
        <ele>1034.8</ele>
        <time>1970-01-01T05:22:18.000Z</time>
      </trkpt>
      <trkpt lat="42.767588" lon="0.629195">
        <ele>1036</ele>
        <time>1970-01-01T05:22:25.000Z</time>
      </trkpt>
      <trkpt lat="42.7676" lon="0.629063">
        <ele>1037</ele>
        <time>1970-01-01T05:22:31.000Z</time>
      </trkpt>
      <trkpt lat="42.767615" lon="0.628875">
        <ele>1038.2</ele>
        <time>1970-01-01T05:22:40.000Z</time>
      </trkpt>
      <trkpt lat="42.767632" lon="0.628702">
        <ele>1039.2</ele>
        <time>1970-01-01T05:22:50.000Z</time>
      </trkpt>
      <trkpt lat="42.767648" lon="0.628542">
        <ele>1040.4</ele>
        <time>1970-01-01T05:22:59.000Z</time>
      </trkpt>
      <trkpt lat="42.767684" lon="0.6284">
        <ele>1041.2</ele>
        <time>1970-01-01T05:23:07.000Z</time>
      </trkpt>
      <trkpt lat="42.767679" lon="0.628364">
        <ele>1041.6</ele>
        <time>1970-01-01T05:23:09.000Z</time>
      </trkpt>
      <trkpt lat="42.767672" lon="0.628307">
        <ele>1042.2</ele>
        <time>1970-01-01T05:23:12.000Z</time>
      </trkpt>
      <trkpt lat="42.767672" lon="0.628267">
        <ele>1042.8</ele>
        <time>1970-01-01T05:23:14.000Z</time>
      </trkpt>
      <trkpt lat="42.76769" lon="0.628105">
        <ele>1044</ele>
        <time>1970-01-01T05:23:22.000Z</time>
      </trkpt>
      <trkpt lat="42.767688" lon="0.627985">
        <ele>1045</ele>
        <time>1970-01-01T05:23:29.000Z</time>
      </trkpt>
      <trkpt lat="42.767681" lon="0.627969">
        <ele>1045.2</ele>
        <time>1970-01-01T05:23:30.000Z</time>
      </trkpt>
      <trkpt lat="42.767668" lon="0.62788">
        <ele>1046</ele>
        <time>1970-01-01T05:23:35.000Z</time>
      </trkpt>
      <trkpt lat="42.767639" lon="0.627794">
        <ele>1047.2</ele>
        <time>1970-01-01T05:23:40.000Z</time>
      </trkpt>
      <trkpt lat="42.767609" lon="0.627596">
        <ele>1048.6</ele>
        <time>1970-01-01T05:23:49.000Z</time>
      </trkpt>
      <trkpt lat="42.767604" lon="0.627471">
        <ele>1049.6</ele>
        <time>1970-01-01T05:23:55.000Z</time>
      </trkpt>
      <trkpt lat="42.767565" lon="0.627356">
        <ele>1050.8</ele>
        <time>1970-01-01T05:24:01.000Z</time>
      </trkpt>
      <trkpt lat="42.767523" lon="0.627225">
        <ele>1051.8</ele>
        <time>1970-01-01T05:24:08.000Z</time>
      </trkpt>
      <trkpt lat="42.767478" lon="0.627115">
        <ele>1053</ele>
        <time>1970-01-01T05:24:13.000Z</time>
      </trkpt>
      <trkpt lat="42.76744" lon="0.626972">
        <ele>1053.8</ele>
        <time>1970-01-01T05:24:19.000Z</time>
      </trkpt>
      <trkpt lat="42.767435" lon="0.626952">
        <ele>1054</ele>
        <time>1970-01-01T05:24:20.000Z</time>
      </trkpt>
      <trkpt lat="42.76743" lon="0.626777">
        <ele>1055.2</ele>
        <time>1970-01-01T05:24:27.000Z</time>
      </trkpt>
      <trkpt lat="42.767431" lon="0.626641">
        <ele>1056.2</ele>
        <time>1970-01-01T05:24:33.000Z</time>
      </trkpt>
      <trkpt lat="42.767424" lon="0.626498">
        <ele>1057.2</ele>
        <time>1970-01-01T05:24:39.000Z</time>
      </trkpt>
      <trkpt lat="42.767409" lon="0.626279">
        <ele>1058.4</ele>
        <time>1970-01-01T05:24:48.000Z</time>
      </trkpt>
      <trkpt lat="42.767386" lon="0.626172">
        <ele>1059.6</ele>
        <time>1970-01-01T05:24:53.000Z</time>
      </trkpt>
      <trkpt lat="42.767323" lon="0.625996">
        <ele>1060.6</ele>
        <time>1970-01-01T05:25:01.000Z</time>
      </trkpt>
      <trkpt lat="42.767166" lon="0.625868">
        <ele>1061.8</ele>
        <time>1970-01-01T05:25:11.000Z</time>
      </trkpt>
      <trkpt lat="42.767009" lon="0.625758">
        <ele>1062.8</ele>
        <time>1970-01-01T05:25:21.000Z</time>
      </trkpt>
      <trkpt lat="42.766888" lon="0.625647">
        <ele>1064</ele>
        <time>1970-01-01T05:25:29.000Z</time>
      </trkpt>
      <trkpt lat="42.76678" lon="0.625566">
        <ele>1065</ele>
        <time>1970-01-01T05:25:36.000Z</time>
      </trkpt>
      <trkpt lat="42.766673" lon="0.625487">
        <ele>1066</ele>
        <time>1970-01-01T05:25:43.000Z</time>
      </trkpt>
      <trkpt lat="42.766531" lon="0.625377">
        <ele>1067</ele>
        <time>1970-01-01T05:25:51.000Z</time>
      </trkpt>
      <trkpt lat="42.766412" lon="0.625316">
        <ele>1068</ele>
        <time>1970-01-01T05:25:58.000Z</time>
      </trkpt>
      <trkpt lat="42.766324" lon="0.625262">
        <ele>1069.2</ele>
        <time>1970-01-01T05:26:03.000Z</time>
      </trkpt>
      <trkpt lat="42.766231" lon="0.625164">
        <ele>1070.2</ele>
        <time>1970-01-01T05:26:09.000Z</time>
      </trkpt>
      <trkpt lat="42.766164" lon="0.625079">
        <ele>1071.4</ele>
        <time>1970-01-01T05:26:14.000Z</time>
      </trkpt>
      <trkpt lat="42.7661" lon="0.624996">
        <ele>1072.8</ele>
        <time>1970-01-01T05:26:19.000Z</time>
      </trkpt>
      <trkpt lat="42.765988" lon="0.62491">
        <ele>1073.8</ele>
        <time>1970-01-01T05:26:26.000Z</time>
      </trkpt>
      <trkpt lat="42.765822" lon="0.624912">
        <ele>1074.6</ele>
        <time>1970-01-01T05:26:36.000Z</time>
      </trkpt>
      <trkpt lat="42.765796" lon="0.624907">
        <ele>1074.8</ele>
        <time>1970-01-01T05:26:38.000Z</time>
      </trkpt>
      <trkpt lat="42.765983" lon="0.624836">
        <ele>1073.2</ele>
        <time>1970-01-01T05:26:56.000Z</time>
      </trkpt>
      <trkpt lat="42.765953" lon="0.624785">
        <ele>1071.6</ele>
        <time>1970-01-01T05:26:59.000Z</time>
      </trkpt>
      <trkpt lat="42.765907" lon="0.624749">
        <ele>1070.2</ele>
        <time>1970-01-01T05:27:01.000Z</time>
      </trkpt>
      <trkpt lat="42.765887" lon="0.624735">
        <ele>1069.2</ele>
        <time>1970-01-01T05:27:02.000Z</time>
      </trkpt>
      <trkpt lat="42.765866" lon="0.624716">
        <ele>1068</ele>
        <time>1970-01-01T05:27:03.000Z</time>
      </trkpt>
      <trkpt lat="42.765847" lon="0.62469">
        <ele>1066.8</ele>
        <time>1970-01-01T05:27:04.000Z</time>
      </trkpt>
      <trkpt lat="42.765799" lon="0.624628">
        <ele>1065.6</ele>
        <time>1970-01-01T05:27:06.000Z</time>
      </trkpt>
      <trkpt lat="42.765734" lon="0.624528">
        <ele>1064.6</ele>
        <time>1970-01-01T05:27:09.000Z</time>
      </trkpt>
      <trkpt lat="42.76547" lon="0.624222">
        <ele>1063.8</ele>
        <time>1970-01-01T05:27:21.000Z</time>
      </trkpt>
      <trkpt lat="42.765427" lon="0.624208">
        <ele>1063.2</ele>
        <time>1970-01-01T05:27:22.000Z</time>
      </trkpt>
      <trkpt lat="42.765381" lon="0.624182">
        <ele>1062.6</ele>
        <time>1970-01-01T05:27:23.000Z</time>
      </trkpt>
      <trkpt lat="42.765336" lon="0.624147">
        <ele>1062</ele>
        <time>1970-01-01T05:27:24.000Z</time>
      </trkpt>
      <trkpt lat="42.765254" lon="0.624065">
        <ele>1060.2</ele>
        <time>1970-01-01T05:27:26.000Z</time>
      </trkpt>
      <trkpt lat="42.765224" lon="0.624023">
        <ele>1059</ele>
        <time>1970-01-01T05:27:27.000Z</time>
      </trkpt>
      <trkpt lat="42.765179" lon="0.623949">
        <ele>1056.8</ele>
        <time>1970-01-01T05:27:29.000Z</time>
      </trkpt>
      <trkpt lat="42.765135" lon="0.623864">
        <ele>1054.6</ele>
        <time>1970-01-01T05:27:31.000Z</time>
      </trkpt>
      <trkpt lat="42.765111" lon="0.623823">
        <ele>1053.4</ele>
        <time>1970-01-01T05:27:32.000Z</time>
      </trkpt>
      <trkpt lat="42.765078" lon="0.623727">
        <ele>1051.2</ele>
        <time>1970-01-01T05:27:34.000Z</time>
      </trkpt>
      <trkpt lat="42.765067" lon="0.623681">
        <ele>1050</ele>
        <time>1970-01-01T05:27:35.000Z</time>
      </trkpt>
      <trkpt lat="42.765056" lon="0.623632">
        <ele>1049</ele>
        <time>1970-01-01T05:27:36.000Z</time>
      </trkpt>
      <trkpt lat="42.765043" lon="0.623583">
        <ele>1047.8</ele>
        <time>1970-01-01T05:27:37.000Z</time>
      </trkpt>
      <trkpt lat="42.765022" lon="0.623541">
        <ele>1046.4</ele>
        <time>1970-01-01T05:27:38.000Z</time>
      </trkpt>
      <trkpt lat="42.764994" lon="0.623493">
        <ele>1045.2</ele>
        <time>1970-01-01T05:27:39.000Z</time>
      </trkpt>
      <trkpt lat="42.764926" lon="0.6234">
        <ele>1043.4</ele>
        <time>1970-01-01T05:27:41.000Z</time>
      </trkpt>
      <trkpt lat="42.76489" lon="0.623358">
        <ele>1042.2</ele>
        <time>1970-01-01T05:27:42.000Z</time>
      </trkpt>
      <trkpt lat="42.764821" lon="0.623266">
        <ele>1040.4</ele>
        <time>1970-01-01T05:27:44.000Z</time>
      </trkpt>
      <trkpt lat="42.76476" lon="0.623164">
        <ele>1039.2</ele>
        <time>1970-01-01T05:27:46.000Z</time>
      </trkpt>
      <trkpt lat="42.764734" lon="0.62311">
        <ele>1038</ele>
        <time>1970-01-01T05:27:47.000Z</time>
      </trkpt>
      <trkpt lat="42.764701" lon="0.62299">
        <ele>1036.4</ele>
        <time>1970-01-01T05:27:49.000Z</time>
      </trkpt>
      <trkpt lat="42.764684" lon="0.622937">
        <ele>1035.2</ele>
        <time>1970-01-01T05:27:50.000Z</time>
      </trkpt>
      <trkpt lat="42.764667" lon="0.622894">
        <ele>1034.2</ele>
        <time>1970-01-01T05:27:51.000Z</time>
      </trkpt>
      <trkpt lat="42.764642" lon="0.622803">
        <ele>1032.6</ele>
        <time>1970-01-01T05:27:53.000Z</time>
      </trkpt>
      <trkpt lat="42.764596" lon="0.622702">
        <ele>1031.4</ele>
        <time>1970-01-01T05:27:55.000Z</time>
      </trkpt>
      <trkpt lat="42.764572" lon="0.622584">
        <ele>1029.6</ele>
        <time>1970-01-01T05:27:57.000Z</time>
      </trkpt>
      <trkpt lat="42.764542" lon="0.622457">
        <ele>1028.4</ele>
        <time>1970-01-01T05:27:59.000Z</time>
      </trkpt>
      <trkpt lat="42.764534" lon="0.622386">
        <ele>1027.6</ele>
        <time>1970-01-01T05:28:00.000Z</time>
      </trkpt>
      <trkpt lat="42.764538" lon="0.622318">
        <ele>1027</ele>
        <time>1970-01-01T05:28:01.000Z</time>
      </trkpt>
      <trkpt lat="42.764539" lon="0.622198">
        <ele>1025.4</ele>
        <time>1970-01-01T05:28:03.000Z</time>
      </trkpt>
      <trkpt lat="42.764518" lon="0.622072">
        <ele>1023.8</ele>
        <time>1970-01-01T05:28:05.000Z</time>
      </trkpt>
      <trkpt lat="42.764518" lon="0.622013">
        <ele>1022.6</ele>
        <time>1970-01-01T05:28:06.000Z</time>
      </trkpt>
      <trkpt lat="42.764521" lon="0.621914">
        <ele>1021</ele>
        <time>1970-01-01T05:28:08.000Z</time>
      </trkpt>
      <trkpt lat="42.76452" lon="0.621823">
        <ele>1019.4</ele>
        <time>1970-01-01T05:28:10.000Z</time>
      </trkpt>
      <trkpt lat="42.764541" lon="0.621704">
        <ele>1018.2</ele>
        <time>1970-01-01T05:28:13.000Z</time>
      </trkpt>
      <trkpt lat="42.764553" lon="0.621651">
        <ele>1017.8</ele>
        <time>1970-01-01T05:28:14.000Z</time>
      </trkpt>
      <trkpt lat="42.76457" lon="0.621583">
        <ele>1017.2</ele>
        <time>1970-01-01T05:28:15.000Z</time>
      </trkpt>
      <trkpt lat="42.764596" lon="0.621503">
        <ele>1016.6</ele>
        <time>1970-01-01T05:28:16.000Z</time>
      </trkpt>
      <trkpt lat="42.76462" lon="0.621418">
        <ele>1015.4</ele>
        <time>1970-01-01T05:28:17.000Z</time>
      </trkpt>
      <trkpt lat="42.764669" lon="0.621271">
        <ele>1013.4</ele>
        <time>1970-01-01T05:28:19.000Z</time>
      </trkpt>
      <trkpt lat="42.764682" lon="0.621239">
        <ele>1012.2</ele>
        <time>1970-01-01T05:28:20.000Z</time>
      </trkpt>
      <trkpt lat="42.764669" lon="0.62113">
        <ele>1010</ele>
        <time>1970-01-01T05:28:22.000Z</time>
      </trkpt>
      <trkpt lat="42.764662" lon="0.621071">
        <ele>1009.2</ele>
        <time>1970-01-01T05:28:23.000Z</time>
      </trkpt>
      <trkpt lat="42.764649" lon="0.621019">
        <ele>1008.2</ele>
        <time>1970-01-01T05:28:24.000Z</time>
      </trkpt>
      <trkpt lat="42.764585" lon="0.620911">
        <ele>1006.8</ele>
        <time>1970-01-01T05:28:26.000Z</time>
      </trkpt>
      <trkpt lat="42.764529" lon="0.620746">
        <ele>1004.6</ele>
        <time>1970-01-01T05:28:28.000Z</time>
      </trkpt>
      <trkpt lat="42.764509" lon="0.620656">
        <ele>1003.6</ele>
        <time>1970-01-01T05:28:29.000Z</time>
      </trkpt>
      <trkpt lat="42.764495" lon="0.620569">
        <ele>1002.2</ele>
        <time>1970-01-01T05:28:30.000Z</time>
      </trkpt>
      <trkpt lat="42.764487" lon="0.620492">
        <ele>1001</ele>
        <time>1970-01-01T05:28:31.000Z</time>
      </trkpt>
      <trkpt lat="42.764474" lon="0.620426">
        <ele>1000</ele>
        <time>1970-01-01T05:28:32.000Z</time>
      </trkpt>
      <trkpt lat="42.764446" lon="0.620365">
        <ele>998.6</ele>
        <time>1970-01-01T05:28:33.000Z</time>
      </trkpt>
      <trkpt lat="42.764414" lon="0.620238">
        <ele>997</ele>
        <time>1970-01-01T05:28:35.000Z</time>
      </trkpt>
      <trkpt lat="42.764415" lon="0.620099">
        <ele>995.2</ele>
        <time>1970-01-01T05:28:37.000Z</time>
      </trkpt>
      <trkpt lat="42.764434" lon="0.619998">
        <ele>993.6</ele>
        <time>1970-01-01T05:28:39.000Z</time>
      </trkpt>
      <trkpt lat="42.764453" lon="0.619917">
        <ele>992.4</ele>
        <time>1970-01-01T05:28:41.000Z</time>
      </trkpt>
      <trkpt lat="42.764471" lon="0.619868">
        <ele>991.2</ele>
        <time>1970-01-01T05:28:42.000Z</time>
      </trkpt>
      <trkpt lat="42.764498" lon="0.619746">
        <ele>989.8</ele>
        <time>1970-01-01T05:28:44.000Z</time>
      </trkpt>
      <trkpt lat="42.764513" lon="0.619663">
        <ele>988.6</ele>
        <time>1970-01-01T05:28:45.000Z</time>
      </trkpt>
      <trkpt lat="42.764546" lon="0.619498">
        <ele>987</ele>
        <time>1970-01-01T05:28:47.000Z</time>
      </trkpt>
      <trkpt lat="42.764558" lon="0.61942">
        <ele>986</ele>
        <time>1970-01-01T05:28:48.000Z</time>
      </trkpt>
      <trkpt lat="42.764585" lon="0.619228">
        <ele>984.6</ele>
        <time>1970-01-01T05:28:50.000Z</time>
      </trkpt>
      <trkpt lat="42.764607" lon="0.61903">
        <ele>982.8</ele>
        <time>1970-01-01T05:28:52.000Z</time>
      </trkpt>
      <trkpt lat="42.764612" lon="0.618949">
        <ele>981.6</ele>
        <time>1970-01-01T05:28:53.000Z</time>
      </trkpt>
      <trkpt lat="42.764608" lon="0.618874">
        <ele>980.4</ele>
        <time>1970-01-01T05:28:54.000Z</time>
      </trkpt>
      <trkpt lat="42.764598" lon="0.618806">
        <ele>979.4</ele>
        <time>1970-01-01T05:28:55.000Z</time>
      </trkpt>
      <trkpt lat="42.764551" lon="0.618694">
        <ele>976.8</ele>
        <time>1970-01-01T05:28:57.000Z</time>
      </trkpt>
      <trkpt lat="42.764506" lon="0.61865">
        <ele>975.6</ele>
        <time>1970-01-01T05:28:58.000Z</time>
      </trkpt>
      <trkpt lat="42.764479" lon="0.618608">
        <ele>974.4</ele>
        <time>1970-01-01T05:28:59.000Z</time>
      </trkpt>
      <trkpt lat="42.764465" lon="0.618552">
        <ele>973</ele>
        <time>1970-01-01T05:29:00.000Z</time>
      </trkpt>
      <trkpt lat="42.764442" lon="0.618451">
        <ele>971.2</ele>
        <time>1970-01-01T05:29:02.000Z</time>
      </trkpt>
      <trkpt lat="42.76443" lon="0.618403">
        <ele>970.2</ele>
        <time>1970-01-01T05:29:03.000Z</time>
      </trkpt>
      <trkpt lat="42.764416" lon="0.618333">
        <ele>968.8</ele>
        <time>1970-01-01T05:29:05.000Z</time>
      </trkpt>
      <trkpt lat="42.764398" lon="0.618204">
        <ele>967</ele>
        <time>1970-01-01T05:29:09.000Z</time>
      </trkpt>
      <trkpt lat="42.764385" lon="0.618117">
        <ele>965.8</ele>
        <time>1970-01-01T05:29:11.000Z</time>
      </trkpt>
      <trkpt lat="42.764385" lon="0.618062">
        <ele>965.2</ele>
        <time>1970-01-01T05:29:12.000Z</time>
      </trkpt>
      <trkpt lat="42.764384" lon="0.617998">
        <ele>964.2</ele>
        <time>1970-01-01T05:29:13.000Z</time>
      </trkpt>
      <trkpt lat="42.764391" lon="0.617932">
        <ele>963.2</ele>
        <time>1970-01-01T05:29:14.000Z</time>
      </trkpt>
      <trkpt lat="42.764412" lon="0.617819">
        <ele>962</ele>
        <time>1970-01-01T05:29:16.000Z</time>
      </trkpt>
      <trkpt lat="42.764432" lon="0.617709">
        <ele>960.8</ele>
        <time>1970-01-01T05:29:18.000Z</time>
      </trkpt>
      <trkpt lat="42.764427" lon="0.617591">
        <ele>960</ele>
        <time>1970-01-01T05:29:20.000Z</time>
      </trkpt>
      <trkpt lat="42.764421" lon="0.617533">
        <ele>959</ele>
        <time>1970-01-01T05:29:21.000Z</time>
      </trkpt>
      <trkpt lat="42.76443" lon="0.617465">
        <ele>958.2</ele>
        <time>1970-01-01T05:29:22.000Z</time>
      </trkpt>
      <trkpt lat="42.764435" lon="0.617392">
        <ele>956.8</ele>
        <time>1970-01-01T05:29:23.000Z</time>
      </trkpt>
      <trkpt lat="42.764429" lon="0.617325">
        <ele>955.8</ele>
        <time>1970-01-01T05:29:24.000Z</time>
      </trkpt>
      <trkpt lat="42.764413" lon="0.617178">
        <ele>953.8</ele>
        <time>1970-01-01T05:29:26.000Z</time>
      </trkpt>
      <trkpt lat="42.764403" lon="0.61711">
        <ele>952.6</ele>
        <time>1970-01-01T05:29:27.000Z</time>
      </trkpt>
      <trkpt lat="42.764389" lon="0.617042">
        <ele>951.8</ele>
        <time>1970-01-01T05:29:28.000Z</time>
      </trkpt>
      <trkpt lat="42.76438" lon="0.616972">
        <ele>950.8</ele>
        <time>1970-01-01T05:29:29.000Z</time>
      </trkpt>
      <trkpt lat="42.764371" lon="0.616819">
        <ele>949.2</ele>
        <time>1970-01-01T05:29:31.000Z</time>
      </trkpt>
      <trkpt lat="42.764377" lon="0.616728">
        <ele>948</ele>
        <time>1970-01-01T05:29:32.000Z</time>
      </trkpt>
      <trkpt lat="42.764398" lon="0.616547">
        <ele>946</ele>
        <time>1970-01-01T05:29:34.000Z</time>
      </trkpt>
      <trkpt lat="42.764401" lon="0.616463">
        <ele>944.8</ele>
        <time>1970-01-01T05:29:35.000Z</time>
      </trkpt>
      <trkpt lat="42.764409" lon="0.616375">
        <ele>943.8</ele>
        <time>1970-01-01T05:29:36.000Z</time>
      </trkpt>
      <trkpt lat="42.764417" lon="0.616293">
        <ele>942.8</ele>
        <time>1970-01-01T05:29:37.000Z</time>
      </trkpt>
      <trkpt lat="42.764429" lon="0.616141">
        <ele>941</ele>
        <time>1970-01-01T05:29:39.000Z</time>
      </trkpt>
      <trkpt lat="42.764428" lon="0.616089">
        <ele>939.8</ele>
        <time>1970-01-01T05:29:40.000Z</time>
      </trkpt>
      <trkpt lat="42.76443" lon="0.616028">
        <ele>938.4</ele>
        <time>1970-01-01T05:29:42.000Z</time>
      </trkpt>
      <trkpt lat="42.764435" lon="0.616016">
        <ele>937.6</ele>
        <time>1970-01-01T05:29:44.000Z</time>
      </trkpt>
      <trkpt lat="42.764448" lon="0.616088">
        <ele>938</ele>
        <time>1970-01-01T05:30:16.000Z</time>
      </trkpt>
      <trkpt lat="42.764417" lon="0.61617">
        <ele>939.2</ele>
        <time>1970-01-01T05:30:21.000Z</time>
      </trkpt>
      <trkpt lat="42.764405" lon="0.616169">
        <ele>939.4</ele>
        <time>1970-01-01T05:30:22.000Z</time>
      </trkpt>
      <trkpt lat="42.764403" lon="0.616111">
        <ele>939.2</ele>
        <time>1970-01-01T05:30:25.000Z</time>
      </trkpt>
      <trkpt lat="42.764405" lon="0.616029">
        <ele>938</ele>
        <time>1970-01-01T05:30:27.000Z</time>
      </trkpt>
      <trkpt lat="42.76441" lon="0.615914">
        <ele>937</ele>
        <time>1970-01-01T05:30:29.000Z</time>
      </trkpt>
      <trkpt lat="42.764434" lon="0.615742">
        <ele>935.6</ele>
        <time>1970-01-01T05:30:31.000Z</time>
      </trkpt>
      <trkpt lat="42.76445" lon="0.615558">
        <ele>933.8</ele>
        <time>1970-01-01T05:30:33.000Z</time>
      </trkpt>
      <trkpt lat="42.764462" lon="0.615464">
        <ele>932.4</ele>
        <time>1970-01-01T05:30:34.000Z</time>
      </trkpt>
      <trkpt lat="42.764472" lon="0.615364">
        <ele>931.2</ele>
        <time>1970-01-01T05:30:35.000Z</time>
      </trkpt>
      <trkpt lat="42.764492" lon="0.615271">
        <ele>930.4</ele>
        <time>1970-01-01T05:30:36.000Z</time>
      </trkpt>
      <trkpt lat="42.764502" lon="0.615187">
        <ele>929.2</ele>
        <time>1970-01-01T05:30:37.000Z</time>
      </trkpt>
      <trkpt lat="42.764505" lon="0.615093">
        <ele>928.2</ele>
        <time>1970-01-01T05:30:38.000Z</time>
      </trkpt>
      <trkpt lat="42.764508" lon="0.614906">
        <ele>926.8</ele>
        <time>1970-01-01T05:30:40.000Z</time>
      </trkpt>
      <trkpt lat="42.764514" lon="0.614749">
        <ele>924.8</ele>
        <time>1970-01-01T05:30:42.000Z</time>
      </trkpt>
      <trkpt lat="42.764509" lon="0.614687">
        <ele>924</ele>
        <time>1970-01-01T05:30:43.000Z</time>
      </trkpt>
      <trkpt lat="42.764505" lon="0.614634">
        <ele>923</ele>
        <time>1970-01-01T05:30:44.000Z</time>
      </trkpt>
      <trkpt lat="42.764525" lon="0.614565">
        <ele>921.4</ele>
        <time>1970-01-01T05:30:46.000Z</time>
      </trkpt>
      <trkpt lat="42.764543" lon="0.614556">
        <ele>920.2</ele>
        <time>1970-01-01T05:30:47.000Z</time>
      </trkpt>
      <trkpt lat="42.76457" lon="0.61457">
        <ele>919</ele>
        <time>1970-01-01T05:30:49.000Z</time>
      </trkpt>
      <trkpt lat="42.764655" lon="0.614576">
        <ele>917.6</ele>
        <time>1970-01-01T05:30:52.000Z</time>
      </trkpt>
      <trkpt lat="42.764688" lon="0.614573">
        <ele>916.8</ele>
        <time>1970-01-01T05:30:53.000Z</time>
      </trkpt>
      <trkpt lat="42.764715" lon="0.614567">
        <ele>916.2</ele>
        <time>1970-01-01T05:30:54.000Z</time>
      </trkpt>
      <trkpt lat="42.764775" lon="0.61455">
        <ele>914.6</ele>
        <time>1970-01-01T05:30:56.000Z</time>
      </trkpt>
      <trkpt lat="42.764776" lon="0.614485">
        <ele>913.2</ele>
        <time>1970-01-01T05:30:58.000Z</time>
      </trkpt>
      <trkpt lat="42.764741" lon="0.614415">
        <ele>911.8</ele>
        <time>1970-01-01T05:31:00.000Z</time>
      </trkpt>
      <trkpt lat="42.764703" lon="0.614357">
        <ele>910.8</ele>
        <time>1970-01-01T05:31:01.000Z</time>
      </trkpt>
      <trkpt lat="42.764671" lon="0.6143">
        <ele>910.2</ele>
        <time>1970-01-01T05:31:02.000Z</time>
      </trkpt>
      <trkpt lat="42.764642" lon="0.61424">
        <ele>909.4</ele>
        <time>1970-01-01T05:31:03.000Z</time>
      </trkpt>
      <trkpt lat="42.764634" lon="0.614185">
        <ele>908.6</ele>
        <time>1970-01-01T05:31:04.000Z</time>
      </trkpt>
      <trkpt lat="42.76461" lon="0.61406">
        <ele>907.2</ele>
        <time>1970-01-01T05:31:06.000Z</time>
      </trkpt>
      <trkpt lat="42.764587" lon="0.61395">
        <ele>905</ele>
        <time>1970-01-01T05:31:08.000Z</time>
      </trkpt>
      <trkpt lat="42.764554" lon="0.613823">
        <ele>903.4</ele>
        <time>1970-01-01T05:31:10.000Z</time>
      </trkpt>
      <trkpt lat="42.76454" lon="0.613772">
        <ele>902.4</ele>
        <time>1970-01-01T05:31:11.000Z</time>
      </trkpt>
      <trkpt lat="42.76453" lon="0.613728">
        <ele>901</ele>
        <time>1970-01-01T05:31:12.000Z</time>
      </trkpt>
      <trkpt lat="42.764528" lon="0.613685">
        <ele>900</ele>
        <time>1970-01-01T05:31:13.000Z</time>
      </trkpt>
      <trkpt lat="42.764539" lon="0.613655">
        <ele>899.2</ele>
        <time>1970-01-01T05:31:14.000Z</time>
      </trkpt>
      <trkpt lat="42.764553" lon="0.613638">
        <ele>898.4</ele>
        <time>1970-01-01T05:31:15.000Z</time>
      </trkpt>
      <trkpt lat="42.764598" lon="0.613646">
        <ele>896.6</ele>
        <time>1970-01-01T05:31:17.000Z</time>
      </trkpt>
      <trkpt lat="42.764629" lon="0.613655">
        <ele>895.8</ele>
        <time>1970-01-01T05:31:18.000Z</time>
      </trkpt>
      <trkpt lat="42.764671" lon="0.613661">
        <ele>895</ele>
        <time>1970-01-01T05:31:19.000Z</time>
      </trkpt>
      <trkpt lat="42.764731" lon="0.613645">
        <ele>893.4</ele>
        <time>1970-01-01T05:31:21.000Z</time>
      </trkpt>
      <trkpt lat="42.764809" lon="0.61358">
        <ele>892.2</ele>
        <time>1970-01-01T05:31:23.000Z</time>
      </trkpt>
      <trkpt lat="42.764876" lon="0.613532">
        <ele>890.4</ele>
        <time>1970-01-01T05:31:25.000Z</time>
      </trkpt>
      <trkpt lat="42.7649" lon="0.613526">
        <ele>889.4</ele>
        <time>1970-01-01T05:31:26.000Z</time>
      </trkpt>
      <trkpt lat="42.764932" lon="0.613518">
        <ele>888.2</ele>
        <time>1970-01-01T05:31:29.000Z</time>
      </trkpt>
      <trkpt lat="42.764938" lon="0.613514">
        <ele>888</ele>
        <time>1970-01-01T05:31:30.000Z</time>
      </trkpt>
      <trkpt lat="42.764959" lon="0.613536">
        <ele>887.8</ele>
        <time>1970-01-01T05:32:06.000Z</time>
      </trkpt>
      <trkpt lat="42.764992" lon="0.613592">
        <ele>887.2</ele>
        <time>1970-01-01T05:32:08.000Z</time>
      </trkpt>
      <trkpt lat="42.765036" lon="0.613695">
        <ele>885.8</ele>
        <time>1970-01-01T05:32:10.000Z</time>
      </trkpt>
      <trkpt lat="42.765062" lon="0.613754">
        <ele>884.4</ele>
        <time>1970-01-01T05:32:11.000Z</time>
      </trkpt>
      <trkpt lat="42.765086" lon="0.613806">
        <ele>883.2</ele>
        <time>1970-01-01T05:32:12.000Z</time>
      </trkpt>
      <trkpt lat="42.765108" lon="0.613851">
        <ele>882.2</ele>
        <time>1970-01-01T05:32:13.000Z</time>
      </trkpt>
      <trkpt lat="42.765137" lon="0.613894">
        <ele>881.2</ele>
        <time>1970-01-01T05:32:15.000Z</time>
      </trkpt>
      <trkpt lat="42.765154" lon="0.613895">
        <ele>880.6</ele>
        <time>1970-01-01T05:32:17.000Z</time>
      </trkpt>
      <trkpt lat="42.765215" lon="0.613931">
        <ele>879.4</ele>
        <time>1970-01-01T05:32:37.000Z</time>
      </trkpt>
      <trkpt lat="42.765255" lon="0.613967">
        <ele>877.6</ele>
        <time>1970-01-01T05:32:39.000Z</time>
      </trkpt>
      <trkpt lat="42.765293" lon="0.614013">
        <ele>876.4</ele>
        <time>1970-01-01T05:32:41.000Z</time>
      </trkpt>
      <trkpt lat="42.765327" lon="0.614065">
        <ele>875</ele>
        <time>1970-01-01T05:32:43.000Z</time>
      </trkpt>
      <trkpt lat="42.765341" lon="0.614108">
        <ele>873.8</ele>
        <time>1970-01-01T05:32:45.000Z</time>
      </trkpt>
      <trkpt lat="42.765362" lon="0.614171">
        <ele>872.4</ele>
        <time>1970-01-01T05:32:49.000Z</time>
      </trkpt>
      <trkpt lat="42.765366" lon="0.614175">
        <ele>872</ele>
        <time>1970-01-01T05:32:50.000Z</time>
      </trkpt>
      <trkpt lat="42.765425" lon="0.614168">
        <ele>870.8</ele>
        <time>1970-01-01T05:34:23.000Z</time>
      </trkpt>
      <trkpt lat="42.765438" lon="0.61413">
        <ele>870.2</ele>
        <time>1970-01-01T05:34:25.000Z</time>
      </trkpt>
      <trkpt lat="42.765446" lon="0.614095">
        <ele>869.6</ele>
        <time>1970-01-01T05:34:27.000Z</time>
      </trkpt>
      <trkpt lat="42.765443" lon="0.614029">
        <ele>868.4</ele>
        <time>1970-01-01T05:34:31.000Z</time>
      </trkpt>
      <trkpt lat="42.765436" lon="0.614016">
        <ele>868</ele>
        <time>1970-01-01T05:34:34.000Z</time>
      </trkpt>
      <trkpt lat="42.765432" lon="0.613941">
        <ele>866.8</ele>
        <time>1970-01-01T05:34:55.000Z</time>
      </trkpt>
      <trkpt lat="42.765416" lon="0.613867">
        <ele>865.8</ele>
        <time>1970-01-01T05:34:58.000Z</time>
      </trkpt>
      <trkpt lat="42.7654" lon="0.613822">
        <ele>864.6</ele>
        <time>1970-01-01T05:35:00.000Z</time>
      </trkpt>
      <trkpt lat="42.765385" lon="0.613761">
        <ele>863.4</ele>
        <time>1970-01-01T05:35:03.000Z</time>
      </trkpt>
      <trkpt lat="42.76536" lon="0.613693">
        <ele>862.2</ele>
        <time>1970-01-01T05:35:06.000Z</time>
      </trkpt>
      <trkpt lat="42.765341" lon="0.613646">
        <ele>861.2</ele>
        <time>1970-01-01T05:35:08.000Z</time>
      </trkpt>
      <trkpt lat="42.765321" lon="0.613523">
        <ele>859.8</ele>
        <time>1970-01-01T05:35:11.000Z</time>
      </trkpt>
      <trkpt lat="42.765305" lon="0.613457">
        <ele>858.4</ele>
        <time>1970-01-01T05:35:13.000Z</time>
      </trkpt>
      <trkpt lat="42.765311" lon="0.613437">
        <ele>857.4</ele>
        <time>1970-01-01T05:35:16.000Z</time>
      </trkpt>
      <trkpt lat="42.765325" lon="0.613318">
        <ele>855.4</ele>
        <time>1970-01-01T05:35:38.000Z</time>
      </trkpt>
      <trkpt lat="42.765328" lon="0.613281">
        <ele>854.2</ele>
        <time>1970-01-01T05:35:40.000Z</time>
      </trkpt>
      <trkpt lat="42.765325" lon="0.613236">
        <ele>853.2</ele>
        <time>1970-01-01T05:35:45.000Z</time>
      </trkpt>
      <trkpt lat="42.765323" lon="0.613222">
        <ele>853.2</ele>
        <time>1970-01-01T05:35:47.000Z</time>
      </trkpt>
      <trkpt lat="42.765373" lon="0.613123">
        <ele>848.2</ele>
        <time>1970-01-01T05:35:59.000Z</time>
      </trkpt>
      <trkpt lat="42.765373" lon="0.613072">
        <ele>847</ele>
        <time>1970-01-01T05:36:01.000Z</time>
      </trkpt>
      <trkpt lat="42.765396" lon="0.61304">
        <ele>846</ele>
        <time>1970-01-01T05:36:05.000Z</time>
      </trkpt>
      <trkpt lat="42.765463" lon="0.613126">
        <ele>843.6</ele>
        <time>1970-01-01T05:37:55.000Z</time>
      </trkpt>
      <trkpt lat="42.765502" lon="0.61316">
        <ele>842.2</ele>
        <time>1970-01-01T05:37:58.000Z</time>
      </trkpt>
      <trkpt lat="42.765539" lon="0.613188">
        <ele>841.2</ele>
        <time>1970-01-01T05:38:00.000Z</time>
      </trkpt>
      <trkpt lat="42.765595" lon="0.613258">
        <ele>840</ele>
        <time>1970-01-01T05:38:02.000Z</time>
      </trkpt>
      <trkpt lat="42.765642" lon="0.613314">
        <ele>838.2</ele>
        <time>1970-01-01T05:38:04.000Z</time>
      </trkpt>
      <trkpt lat="42.765682" lon="0.61337">
        <ele>836.6</ele>
        <time>1970-01-01T05:38:06.000Z</time>
      </trkpt>
      <trkpt lat="42.765714" lon="0.613391">
        <ele>835.4</ele>
        <time>1970-01-01T05:38:08.000Z</time>
      </trkpt>
      <trkpt lat="42.765738" lon="0.613361">
        <ele>834.2</ele>
        <time>1970-01-01T05:38:11.000Z</time>
      </trkpt>
      <trkpt lat="42.765735" lon="0.613309">
        <ele>832.8</ele>
        <time>1970-01-01T05:38:15.000Z</time>
      </trkpt>
      <trkpt lat="42.765731" lon="0.613299">
        <ele>832</ele>
        <time>1970-01-01T05:38:18.000Z</time>
      </trkpt>
      <trkpt lat="42.765738" lon="0.613197">
        <ele>830.2</ele>
        <time>1970-01-01T05:38:59.000Z</time>
      </trkpt>
      <trkpt lat="42.765717" lon="0.613107">
        <ele>828.8</ele>
        <time>1970-01-01T05:39:02.000Z</time>
      </trkpt>
      <trkpt lat="42.765696" lon="0.613057">
        <ele>827.6</ele>
        <time>1970-01-01T05:39:04.000Z</time>
      </trkpt>
      <trkpt lat="42.765679" lon="0.612975">
        <ele>825.8</ele>
        <time>1970-01-01T05:39:07.000Z</time>
      </trkpt>
      <trkpt lat="42.765724" lon="0.61294">
        <ele>824.6</ele>
        <time>1970-01-01T05:39:11.000Z</time>
      </trkpt>
      <trkpt lat="42.765744" lon="0.612933">
        <ele>823.4</ele>
        <time>1970-01-01T05:39:13.000Z</time>
      </trkpt>
      <trkpt lat="42.765758" lon="0.612933">
        <ele>822.8</ele>
        <time>1970-01-01T05:39:14.000Z</time>
      </trkpt>
      <trkpt lat="42.765786" lon="0.612937">
        <ele>822.2</ele>
        <time>1970-01-01T05:39:16.000Z</time>
      </trkpt>
      <trkpt lat="42.765812" lon="0.612934">
        <ele>822</ele>
        <time>1970-01-01T05:39:17.000Z</time>
      </trkpt>
      <trkpt lat="42.765896" lon="0.612928">
        <ele>820.4</ele>
        <time>1970-01-01T05:39:20.000Z</time>
      </trkpt>
      <trkpt lat="42.765967" lon="0.612957">
        <ele>819</ele>
        <time>1970-01-01T05:39:23.000Z</time>
      </trkpt>
      <trkpt lat="42.766048" lon="0.61301">
        <ele>818</ele>
        <time>1970-01-01T05:39:26.000Z</time>
      </trkpt>
      <trkpt lat="42.766063" lon="0.613016">
        <ele>817.6</ele>
        <time>1970-01-01T05:39:27.000Z</time>
      </trkpt>
      <trkpt lat="42.766089" lon="0.612997">
        <ele>816.4</ele>
        <time>1970-01-01T05:39:29.000Z</time>
      </trkpt>
      <trkpt lat="42.766098" lon="0.612985">
        <ele>815</ele>
        <time>1970-01-01T05:39:31.000Z</time>
      </trkpt>
      <trkpt lat="42.766106" lon="0.612979">
        <ele>814.2</ele>
        <time>1970-01-01T05:39:33.000Z</time>
      </trkpt>
      <trkpt lat="42.766167" lon="0.612809">
        <ele>807.6</ele>
        <time>1970-01-01T05:40:21.000Z</time>
      </trkpt>
      <trkpt lat="42.766169" lon="0.612736">
        <ele>806.4</ele>
        <time>1970-01-01T05:40:23.000Z</time>
      </trkpt>
      <trkpt lat="42.766185" lon="0.612638">
        <ele>805.2</ele>
        <time>1970-01-01T05:40:25.000Z</time>
      </trkpt>
      <trkpt lat="42.766194" lon="0.612562">
        <ele>803.8</ele>
        <time>1970-01-01T05:40:27.000Z</time>
      </trkpt>
      <trkpt lat="42.7662" lon="0.612472">
        <ele>802.6</ele>
        <time>1970-01-01T05:40:29.000Z</time>
      </trkpt>
      <trkpt lat="42.766189" lon="0.612394">
        <ele>800.6</ele>
        <time>1970-01-01T05:40:31.000Z</time>
      </trkpt>
      <trkpt lat="42.766193" lon="0.612292">
        <ele>798.8</ele>
        <time>1970-01-01T05:40:33.000Z</time>
      </trkpt>
      <trkpt lat="42.766204" lon="0.612259">
        <ele>798</ele>
        <time>1970-01-01T05:40:34.000Z</time>
      </trkpt>
      <trkpt lat="42.766223" lon="0.612219">
        <ele>797.4</ele>
        <time>1970-01-01T05:40:35.000Z</time>
      </trkpt>
      <trkpt lat="42.766276" lon="0.612162">
        <ele>796.4</ele>
        <time>1970-01-01T05:40:37.000Z</time>
      </trkpt>
      <trkpt lat="42.766313" lon="0.612087">
        <ele>795.2</ele>
        <time>1970-01-01T05:40:40.000Z</time>
      </trkpt>
      <trkpt lat="42.766262" lon="0.61205">
        <ele>794</ele>
        <time>1970-01-01T05:40:43.000Z</time>
      </trkpt>
      <trkpt lat="42.766238" lon="0.612039">
        <ele>793.4</ele>
        <time>1970-01-01T05:40:44.000Z</time>
      </trkpt>
      <trkpt lat="42.766152" lon="0.611991">
        <ele>792.6</ele>
        <time>1970-01-01T05:40:47.000Z</time>
      </trkpt>
      <trkpt lat="42.766088" lon="0.611954">
        <ele>791.6</ele>
        <time>1970-01-01T05:40:49.000Z</time>
      </trkpt>
      <trkpt lat="42.766022" lon="0.611893">
        <ele>790.4</ele>
        <time>1970-01-01T05:40:51.000Z</time>
      </trkpt>
      <trkpt lat="42.765989" lon="0.611831">
        <ele>788.8</ele>
        <time>1970-01-01T05:40:53.000Z</time>
      </trkpt>
      <trkpt lat="42.766013" lon="0.61179">
        <ele>788</ele>
        <time>1970-01-01T05:40:56.000Z</time>
      </trkpt>
      <trkpt lat="42.766028" lon="0.611789">
        <ele>787.6</ele>
        <time>1970-01-01T05:40:57.000Z</time>
      </trkpt>
      <trkpt lat="42.766103" lon="0.611736">
        <ele>786.4</ele>
        <time>1970-01-01T05:41:01.000Z</time>
      </trkpt>
      <trkpt lat="42.766071" lon="0.611695">
        <ele>785.2</ele>
        <time>1970-01-01T05:41:04.000Z</time>
      </trkpt>
      <trkpt lat="42.766046" lon="0.61168">
        <ele>784.8</ele>
        <time>1970-01-01T05:41:05.000Z</time>
      </trkpt>
      <trkpt lat="42.765995" lon="0.611643">
        <ele>784</ele>
        <time>1970-01-01T05:41:07.000Z</time>
      </trkpt>
      <trkpt lat="42.765932" lon="0.611581">
        <ele>782</ele>
        <time>1970-01-01T05:41:09.000Z</time>
      </trkpt>
      <trkpt lat="42.765868" lon="0.611516">
        <ele>780</ele>
        <time>1970-01-01T05:41:11.000Z</time>
      </trkpt>
      <trkpt lat="42.765843" lon="0.61149">
        <ele>779</ele>
        <time>1970-01-01T05:41:12.000Z</time>
      </trkpt>
      <trkpt lat="42.765789" lon="0.611446">
        <ele>777.4</ele>
        <time>1970-01-01T05:41:14.000Z</time>
      </trkpt>
      <trkpt lat="42.765777" lon="0.611425">
        <ele>776.2</ele>
        <time>1970-01-01T05:41:15.000Z</time>
      </trkpt>
      <trkpt lat="42.765781" lon="0.611405">
        <ele>775.2</ele>
        <time>1970-01-01T05:41:16.000Z</time>
      </trkpt>
      <trkpt lat="42.765791" lon="0.611387">
        <ele>774.4</ele>
        <time>1970-01-01T05:41:17.000Z</time>
      </trkpt>
      <trkpt lat="42.765805" lon="0.611371">
        <ele>773.8</ele>
        <time>1970-01-01T05:41:18.000Z</time>
      </trkpt>
      <trkpt lat="42.765831" lon="0.61135">
        <ele>772.8</ele>
        <time>1970-01-01T05:41:20.000Z</time>
      </trkpt>
      <trkpt lat="42.765839" lon="0.611345">
        <ele>772.4</ele>
        <time>1970-01-01T05:41:21.000Z</time>
      </trkpt>
      <trkpt lat="42.765847" lon="0.611337">
        <ele>771.8</ele>
        <time>1970-01-01T05:41:22.000Z</time>
      </trkpt>
      <trkpt lat="42.765878" lon="0.611322">
        <ele>770.6</ele>
        <time>1970-01-01T05:41:24.000Z</time>
      </trkpt>
      <trkpt lat="42.765926" lon="0.611291">
        <ele>769.2</ele>
        <time>1970-01-01T05:41:26.000Z</time>
      </trkpt>
      <trkpt lat="42.765976" lon="0.611251">
        <ele>767.8</ele>
        <time>1970-01-01T05:41:28.000Z</time>
      </trkpt>
      <trkpt lat="42.766046" lon="0.611222">
        <ele>766.4</ele>
        <time>1970-01-01T05:41:30.000Z</time>
      </trkpt>
      <trkpt lat="42.766117" lon="0.611194">
        <ele>765</ele>
        <time>1970-01-01T05:41:32.000Z</time>
      </trkpt>
      <trkpt lat="42.766191" lon="0.611167">
        <ele>763.8</ele>
        <time>1970-01-01T05:41:34.000Z</time>
      </trkpt>
      <trkpt lat="42.76628" lon="0.61114">
        <ele>762.6</ele>
        <time>1970-01-01T05:41:36.000Z</time>
      </trkpt>
      <trkpt lat="42.76636" lon="0.611115">
        <ele>761.2</ele>
        <time>1970-01-01T05:41:38.000Z</time>
      </trkpt>
      <trkpt lat="42.766426" lon="0.611106">
        <ele>759.6</ele>
        <time>1970-01-01T05:41:40.000Z</time>
      </trkpt>
      <trkpt lat="42.766509" lon="0.611144">
        <ele>758.2</ele>
        <time>1970-01-01T05:41:43.000Z</time>
      </trkpt>
      <trkpt lat="42.766544" lon="0.61118">
        <ele>757.8</ele>
        <time>1970-01-01T05:41:44.000Z</time>
      </trkpt>
      <trkpt lat="42.766578" lon="0.611217">
        <ele>756</ele>
        <time>1970-01-01T05:41:54.000Z</time>
      </trkpt>
      <trkpt lat="42.766612" lon="0.611253">
        <ele>755.4</ele>
        <time>1970-01-01T05:41:55.000Z</time>
      </trkpt>
      <trkpt lat="42.766657" lon="0.61131">
        <ele>754.8</ele>
        <time>1970-01-01T05:41:56.000Z</time>
      </trkpt>
      <trkpt lat="42.766741" lon="0.611422">
        <ele>753.2</ele>
        <time>1970-01-01T05:41:58.000Z</time>
      </trkpt>
      <trkpt lat="42.76683" lon="0.611569">
        <ele>752.2</ele>
        <time>1970-01-01T05:42:00.000Z</time>
      </trkpt>
      <trkpt lat="42.766876" lon="0.611717">
        <ele>751.2</ele>
        <time>1970-01-01T05:42:02.000Z</time>
      </trkpt>
      <trkpt lat="42.766891" lon="0.611834">
        <ele>750</ele>
        <time>1970-01-01T05:42:04.000Z</time>
      </trkpt>
      <trkpt lat="42.766929" lon="0.61198">
        <ele>748.4</ele>
        <time>1970-01-01T05:42:07.000Z</time>
      </trkpt>
      <trkpt lat="42.766938" lon="0.612023">
        <ele>747.2</ele>
        <time>1970-01-01T05:42:08.000Z</time>
      </trkpt>
      <trkpt lat="42.766948" lon="0.612067">
        <ele>746</ele>
        <time>1970-01-01T05:42:09.000Z</time>
      </trkpt>
      <trkpt lat="42.766962" lon="0.612148">
        <ele>744.2</ele>
        <time>1970-01-01T05:42:11.000Z</time>
      </trkpt>
      <trkpt lat="42.766982" lon="0.612224">
        <ele>742.6</ele>
        <time>1970-01-01T05:42:13.000Z</time>
      </trkpt>
      <trkpt lat="42.76701" lon="0.612312">
        <ele>740.8</ele>
        <time>1970-01-01T05:42:15.000Z</time>
      </trkpt>
      <trkpt lat="42.767045" lon="0.612398">
        <ele>739.6</ele>
        <time>1970-01-01T05:42:17.000Z</time>
      </trkpt>
      <trkpt lat="42.767083" lon="0.612497">
        <ele>738.4</ele>
        <time>1970-01-01T05:42:19.000Z</time>
      </trkpt>
      <trkpt lat="42.767116" lon="0.612598">
        <ele>736.4</ele>
        <time>1970-01-01T05:42:21.000Z</time>
      </trkpt>
      <trkpt lat="42.767127" lon="0.612644">
        <ele>735.2</ele>
        <time>1970-01-01T05:42:22.000Z</time>
      </trkpt>
      <trkpt lat="42.767141" lon="0.612746">
        <ele>734</ele>
        <time>1970-01-01T05:42:24.000Z</time>
      </trkpt>
      <trkpt lat="42.767158" lon="0.612812">
        <ele>732</ele>
        <time>1970-01-01T05:42:26.000Z</time>
      </trkpt>
      <trkpt lat="42.767174" lon="0.61282">
        <ele>730.6</ele>
        <time>1970-01-01T05:42:27.000Z</time>
      </trkpt>
      <trkpt lat="42.767209" lon="0.612804">
        <ele>729.4</ele>
        <time>1970-01-01T05:42:29.000Z</time>
      </trkpt>
      <trkpt lat="42.76725" lon="0.612723">
        <ele>728</ele>
        <time>1970-01-01T05:42:32.000Z</time>
      </trkpt>
      <trkpt lat="42.767262" lon="0.612702">
        <ele>727.2</ele>
        <time>1970-01-01T05:42:33.000Z</time>
      </trkpt>
      <trkpt lat="42.767273" lon="0.612683">
        <ele>726.6</ele>
        <time>1970-01-01T05:42:34.000Z</time>
      </trkpt>
      <trkpt lat="42.76731" lon="0.612617">
        <ele>725.4</ele>
        <time>1970-01-01T05:42:37.000Z</time>
      </trkpt>
      <trkpt lat="42.767323" lon="0.612568">
        <ele>724.8</ele>
        <time>1970-01-01T05:42:39.000Z</time>
      </trkpt>
      <trkpt lat="42.767316" lon="0.612547">
        <ele>724.4</ele>
        <time>1970-01-01T05:42:41.000Z</time>
      </trkpt>
      <trkpt lat="42.767306" lon="0.612545">
        <ele>724.2</ele>
        <time>1970-01-01T05:42:42.000Z</time>
      </trkpt>
      <trkpt lat="42.767326" lon="0.612451">
        <ele>722.8</ele>
        <time>1970-01-01T05:43:22.000Z</time>
      </trkpt>
      <trkpt lat="42.767349" lon="0.612354">
        <ele>721.6</ele>
        <time>1970-01-01T05:43:24.000Z</time>
      </trkpt>
      <trkpt lat="42.767393" lon="0.612208">
        <ele>720.4</ele>
        <time>1970-01-01T05:43:26.000Z</time>
      </trkpt>
      <trkpt lat="42.767488" lon="0.612032">
        <ele>718.4</ele>
        <time>1970-01-01T05:43:28.000Z</time>
      </trkpt>
      <trkpt lat="42.767577" lon="0.611892">
        <ele>716.8</ele>
        <time>1970-01-01T05:43:30.000Z</time>
      </trkpt>
      <trkpt lat="42.76764" lon="0.611791">
        <ele>714.8</ele>
        <time>1970-01-01T05:43:32.000Z</time>
      </trkpt>
      <trkpt lat="42.767677" lon="0.611708">
        <ele>713.4</ele>
        <time>1970-01-01T05:43:34.000Z</time>
      </trkpt>
      <trkpt lat="42.767717" lon="0.611607">
        <ele>712.2</ele>
        <time>1970-01-01T05:43:37.000Z</time>
      </trkpt>
      <trkpt lat="42.767773" lon="0.611499">
        <ele>711.6</ele>
        <time>1970-01-01T05:43:39.000Z</time>
      </trkpt>
      <trkpt lat="42.767812" lon="0.611439">
        <ele>711</ele>
        <time>1970-01-01T05:43:40.000Z</time>
      </trkpt>
      <trkpt lat="42.767902" lon="0.611341">
        <ele>710</ele>
        <time>1970-01-01T05:43:42.000Z</time>
      </trkpt>
      <trkpt lat="42.768018" lon="0.611307">
        <ele>708</ele>
        <time>1970-01-01T05:43:44.000Z</time>
      </trkpt>
      <trkpt lat="42.768076" lon="0.61127">
        <ele>707.2</ele>
        <time>1970-01-01T05:43:45.000Z</time>
      </trkpt>
      <trkpt lat="42.768127" lon="0.611222">
        <ele>706.8</ele>
        <time>1970-01-01T05:43:46.000Z</time>
      </trkpt>
      <trkpt lat="42.768236" lon="0.61094">
        <ele>705.8</ele>
        <time>1970-01-01T05:43:50.000Z</time>
      </trkpt>
      <trkpt lat="42.768345" lon="0.610583">
        <ele>704</ele>
        <time>1970-01-01T05:43:54.000Z</time>
      </trkpt>
      <trkpt lat="42.768386" lon="0.610504">
        <ele>703.4</ele>
        <time>1970-01-01T05:43:55.000Z</time>
      </trkpt>
      <trkpt lat="42.768421" lon="0.610422">
        <ele>702.8</ele>
        <time>1970-01-01T05:43:56.000Z</time>
      </trkpt>
      <trkpt lat="42.768448" lon="0.610336">
        <ele>702.4</ele>
        <time>1970-01-01T05:43:57.000Z</time>
      </trkpt>
      <trkpt lat="42.768504" lon="0.610159">
        <ele>701.6</ele>
        <time>1970-01-01T05:43:59.000Z</time>
      </trkpt>
      <trkpt lat="42.768594" lon="0.60986">
        <ele>700.2</ele>
        <time>1970-01-01T05:44:02.000Z</time>
      </trkpt>
      <trkpt lat="42.768664" lon="0.609658">
        <ele>699</ele>
        <time>1970-01-01T05:44:04.000Z</time>
      </trkpt>
      <trkpt lat="42.768741" lon="0.609357">
        <ele>698</ele>
        <time>1970-01-01T05:44:07.000Z</time>
      </trkpt>
      <trkpt lat="42.768812" lon="0.608972">
        <ele>697</ele>
        <time>1970-01-01T05:44:11.000Z</time>
      </trkpt>
      <trkpt lat="42.768911" lon="0.60864">
        <ele>696.6</ele>
        <time>1970-01-01T05:44:15.000Z</time>
      </trkpt>
      <trkpt lat="42.769124" lon="0.608371">
        <ele>696.4</ele>
        <time>1970-01-01T05:44:20.000Z</time>
      </trkpt>
      <trkpt lat="42.769446" lon="0.608101">
        <ele>698.2</ele>
        <time>1970-01-01T05:44:30.000Z</time>
      </trkpt>
      <trkpt lat="42.76946" lon="0.608091">
        <ele>698.4</ele>
        <time>1970-01-01T05:44:33.000Z</time>
      </trkpt>
      <trkpt lat="42.769518" lon="0.608102">
        <ele>698.4</ele>
        <time>1970-01-01T05:46:45.000Z</time>
      </trkpt>
      <trkpt lat="42.769623" lon="0.608107">
        <ele>698.2</ele>
        <time>1970-01-01T05:46:48.000Z</time>
      </trkpt>
      <trkpt lat="42.769919" lon="0.607936">
        <ele>697.6</ele>
        <time>1970-01-01T05:46:55.000Z</time>
      </trkpt>
      <trkpt lat="42.770398" lon="0.607536">
        <ele>697.6</ele>
        <time>1970-01-01T05:47:06.000Z</time>
      </trkpt>
      <trkpt lat="42.770442" lon="0.607499">
        <ele>697.6</ele>
        <time>1970-01-01T05:47:07.000Z</time>
      </trkpt>
      <trkpt lat="42.770525" lon="0.607429">
        <ele>697.4</ele>
        <time>1970-01-01T05:47:09.000Z</time>
      </trkpt>
      <trkpt lat="42.771" lon="0.607058">
        <ele>696.8</ele>
        <time>1970-01-01T05:47:19.000Z</time>
      </trkpt>
      <trkpt lat="42.771054" lon="0.607008">
        <ele>696.6</ele>
        <time>1970-01-01T05:47:20.000Z</time>
      </trkpt>
      <trkpt lat="42.771328" lon="0.606743">
        <ele>695.4</ele>
        <time>1970-01-01T05:47:25.000Z</time>
      </trkpt>
      <trkpt lat="42.77151" lon="0.606579">
        <ele>694.4</ele>
        <time>1970-01-01T05:47:28.000Z</time>
      </trkpt>
      <trkpt lat="42.771685" lon="0.606388">
        <ele>693.6</ele>
        <time>1970-01-01T05:47:31.000Z</time>
      </trkpt>
      <trkpt lat="42.771786" lon="0.606235">
        <ele>693</ele>
        <time>1970-01-01T05:47:33.000Z</time>
      </trkpt>
      <trkpt lat="42.771883" lon="0.606079">
        <ele>691.6</ele>
        <time>1970-01-01T05:47:35.000Z</time>
      </trkpt>
      <trkpt lat="42.771964" lon="0.605944">
        <ele>690.6</ele>
        <time>1970-01-01T05:47:37.000Z</time>
      </trkpt>
      <trkpt lat="42.77206" lon="0.6058">
        <ele>689.6</ele>
        <time>1970-01-01T05:47:42.000Z</time>
      </trkpt>
      <trkpt lat="42.7721" lon="0.605736">
        <ele>689.2</ele>
        <time>1970-01-01T05:47:50.000Z</time>
      </trkpt>
      <trkpt lat="42.772233" lon="0.605619">
        <ele>688.8</ele>
        <time>1970-01-01T05:47:54.000Z</time>
      </trkpt>
      <trkpt lat="42.772338" lon="0.605604">
        <ele>688.6</ele>
        <time>1970-01-01T05:47:56.000Z</time>
      </trkpt>
      <trkpt lat="42.772567" lon="0.6057">
        <ele>687.6</ele>
        <time>1970-01-01T05:48:00.000Z</time>
      </trkpt>
      <trkpt lat="42.772723" lon="0.605901">
        <ele>686.4</ele>
        <time>1970-01-01T05:48:03.000Z</time>
      </trkpt>
      <trkpt lat="42.772798" lon="0.606074">
        <ele>685.2</ele>
        <time>1970-01-01T05:48:05.000Z</time>
      </trkpt>
      <trkpt lat="42.772832" lon="0.606157">
        <ele>684.6</ele>
        <time>1970-01-01T05:48:06.000Z</time>
      </trkpt>
      <trkpt lat="42.772905" lon="0.606308">
        <ele>683.4</ele>
        <time>1970-01-01T05:48:08.000Z</time>
      </trkpt>
      <trkpt lat="42.773024" lon="0.606395">
        <ele>682</ele>
        <time>1970-01-01T05:48:10.000Z</time>
      </trkpt>
      <trkpt lat="42.773256" lon="0.606332">
        <ele>680.6</ele>
        <time>1970-01-01T05:48:13.000Z</time>
      </trkpt>
      <trkpt lat="42.773459" lon="0.606108">
        <ele>678.8</ele>
        <time>1970-01-01T05:48:16.000Z</time>
      </trkpt>
      <trkpt lat="42.773601" lon="0.605943">
        <ele>677.4</ele>
        <time>1970-01-01T05:48:18.000Z</time>
      </trkpt>
      <trkpt lat="42.773741" lon="0.605804">
        <ele>675.8</ele>
        <time>1970-01-01T05:48:20.000Z</time>
      </trkpt>
      <trkpt lat="42.773886" lon="0.605686">
        <ele>674.8</ele>
        <time>1970-01-01T05:48:22.000Z</time>
      </trkpt>
      <trkpt lat="42.774045" lon="0.605557">
        <ele>673.6</ele>
        <time>1970-01-01T05:48:24.000Z</time>
      </trkpt>
      <trkpt lat="42.774216" lon="0.60542">
        <ele>672.4</ele>
        <time>1970-01-01T05:48:26.000Z</time>
      </trkpt>
      <trkpt lat="42.774306" lon="0.605352">
        <ele>671.2</ele>
        <time>1970-01-01T05:48:27.000Z</time>
      </trkpt>
      <trkpt lat="42.774493" lon="0.605211">
        <ele>669.8</ele>
        <time>1970-01-01T05:48:29.000Z</time>
      </trkpt>
      <trkpt lat="42.774694" lon="0.605078">
        <ele>668.4</ele>
        <time>1970-01-01T05:48:31.000Z</time>
      </trkpt>
      <trkpt lat="42.774909" lon="0.60496">
        <ele>667</ele>
        <time>1970-01-01T05:48:33.000Z</time>
      </trkpt>
      <trkpt lat="42.775131" lon="0.604845">
        <ele>665</ele>
        <time>1970-01-01T05:48:35.000Z</time>
      </trkpt>
      <trkpt lat="42.775352" lon="0.604736">
        <ele>663.4</ele>
        <time>1970-01-01T05:48:37.000Z</time>
      </trkpt>
      <trkpt lat="42.775652" lon="0.604579">
        <ele>662.4</ele>
        <time>1970-01-01T05:48:40.000Z</time>
      </trkpt>
      <trkpt lat="42.776149" lon="0.604338">
        <ele>661.4</ele>
        <time>1970-01-01T05:48:46.000Z</time>
      </trkpt>
      <trkpt lat="42.776458" lon="0.604229">
        <ele>660.4</ele>
        <time>1970-01-01T05:48:50.000Z</time>
      </trkpt>
      <trkpt lat="42.776692" lon="0.604155">
        <ele>659.4</ele>
        <time>1970-01-01T05:48:53.000Z</time>
      </trkpt>
      <trkpt lat="42.776914" lon="0.604068">
        <ele>658</ele>
        <time>1970-01-01T05:48:56.000Z</time>
      </trkpt>
      <trkpt lat="42.777283" lon="0.603909">
        <ele>657</ele>
        <time>1970-01-01T05:49:01.000Z</time>
      </trkpt>
      <trkpt lat="42.77765" lon="0.603711">
        <ele>656</ele>
        <time>1970-01-01T05:49:06.000Z</time>
      </trkpt>
      <trkpt lat="42.777898" lon="0.603609">
        <ele>654.8</ele>
        <time>1970-01-01T05:49:10.000Z</time>
      </trkpt>
      <trkpt lat="42.77797" lon="0.603575">
        <ele>654</ele>
        <time>1970-01-01T05:49:14.000Z</time>
      </trkpt>
      <trkpt lat="42.778346" lon="0.603402">
        <ele>653</ele>
        <time>1970-01-01T05:49:25.000Z</time>
      </trkpt>
      <trkpt lat="42.778713" lon="0.603221">
        <ele>652</ele>
        <time>1970-01-01T05:49:33.000Z</time>
      </trkpt>
      <trkpt lat="42.779273" lon="0.602954">
        <ele>651</ele>
        <time>1970-01-01T05:49:44.000Z</time>
      </trkpt>
      <trkpt lat="42.779328" lon="0.602927">
        <ele>651</ele>
        <time>1970-01-01T05:49:45.000Z</time>
      </trkpt>
      <trkpt lat="42.779848" lon="0.602685">
        <ele>650</ele>
        <time>1970-01-01T05:49:54.000Z</time>
      </trkpt>
      <trkpt lat="42.779907" lon="0.602659">
        <ele>649.8</ele>
        <time>1970-01-01T05:49:55.000Z</time>
      </trkpt>
      <trkpt lat="42.780192" lon="0.602525">
        <ele>649</ele>
        <time>1970-01-01T05:50:00.000Z</time>
      </trkpt>
      <trkpt lat="42.780589" lon="0.602382">
        <ele>647.8</ele>
        <time>1970-01-01T05:50:07.000Z</time>
      </trkpt>
      <trkpt lat="42.780942" lon="0.602234">
        <ele>646.8</ele>
        <time>1970-01-01T05:50:13.000Z</time>
      </trkpt>
      <trkpt lat="42.78124" lon="0.602093">
        <ele>646</ele>
        <time>1970-01-01T05:50:18.000Z</time>
      </trkpt>
      <trkpt lat="42.781363" lon="0.60204">
        <ele>645.6</ele>
        <time>1970-01-01T05:50:20.000Z</time>
      </trkpt>
      <trkpt lat="42.781925" lon="0.601839">
        <ele>645</ele>
        <time>1970-01-01T05:50:29.000Z</time>
      </trkpt>
      <trkpt lat="42.781987" lon="0.601826">
        <ele>645</ele>
        <time>1970-01-01T05:50:30.000Z</time>
      </trkpt>
      <trkpt lat="42.782526" lon="0.601761">
        <ele>644.2</ele>
        <time>1970-01-01T05:50:39.000Z</time>
      </trkpt>
      <trkpt lat="42.782571" lon="0.60176">
        <ele>644</ele>
        <time>1970-01-01T05:50:40.000Z</time>
      </trkpt>
      <trkpt lat="42.782688" lon="0.601703">
        <ele>643.6</ele>
        <time>1970-01-01T05:50:45.000Z</time>
      </trkpt>
      <trkpt lat="42.782699" lon="0.601145">
        <ele>643.2</ele>
        <time>1970-01-01T05:50:56.000Z</time>
      </trkpt>
      <trkpt lat="42.782701" lon="0.601083">
        <ele>643</ele>
        <time>1970-01-01T05:50:57.000Z</time>
      </trkpt>
      <trkpt lat="42.782709" lon="0.600332">
        <ele>643</ele>
        <time>1970-01-01T05:51:08.000Z</time>
      </trkpt>
      <trkpt lat="42.782712" lon="0.599574">
        <ele>643</ele>
        <time>1970-01-01T05:51:18.000Z</time>
      </trkpt>
      <trkpt lat="42.782709" lon="0.598808">
        <ele>642.8</ele>
        <time>1970-01-01T05:51:28.000Z</time>
      </trkpt>
      <trkpt lat="42.782711" lon="0.598446">
        <ele>643.2</ele>
        <time>1970-01-01T05:51:33.000Z</time>
      </trkpt>
      <trkpt lat="42.782707" lon="0.598202">
        <ele>642.4</ele>
        <time>1970-01-01T05:51:36.000Z</time>
      </trkpt>
      <trkpt lat="42.782714" lon="0.59745">
        <ele>642</ele>
        <time>1970-01-01T05:51:46.000Z</time>
      </trkpt>
      <trkpt lat="42.782917" lon="0.596981">
        <ele>641.8</ele>
        <time>1970-01-01T05:51:59.000Z</time>
      </trkpt>
      <trkpt lat="42.783107" lon="0.596852">
        <ele>641.6</ele>
        <time>1970-01-01T05:52:04.000Z</time>
      </trkpt>
      <trkpt lat="42.783614" lon="0.596545">
        <ele>640.6</ele>
        <time>1970-01-01T05:52:17.000Z</time>
      </trkpt>
      <trkpt lat="42.783658" lon="0.596519">
        <ele>640.6</ele>
        <time>1970-01-01T05:52:18.000Z</time>
      </trkpt>
      <trkpt lat="42.784151" lon="0.59615">
        <ele>639.8</ele>
        <time>1970-01-01T05:52:29.000Z</time>
      </trkpt>
      <trkpt lat="42.784374" lon="0.595984">
        <ele>639.4</ele>
        <time>1970-01-01T05:52:34.000Z</time>
      </trkpt>
      <trkpt lat="42.784717" lon="0.59574">
        <ele>639.2</ele>
        <time>1970-01-01T05:52:41.000Z</time>
      </trkpt>
      <trkpt lat="42.785017" lon="0.59553">
        <ele>638.8</ele>
        <time>1970-01-01T05:52:46.000Z</time>
      </trkpt>
      <trkpt lat="42.785132" lon="0.595496">
        <ele>638.8</ele>
        <time>1970-01-01T05:52:49.000Z</time>
      </trkpt>
      <trkpt lat="42.785408" lon="0.595343">
        <ele>638</ele>
        <time>1970-01-01T05:52:57.000Z</time>
      </trkpt>
      <trkpt lat="42.78543" lon="0.595245">
        <ele>638</ele>
        <time>1970-01-01T05:53:00.000Z</time>
      </trkpt>
      <trkpt lat="42.785613" lon="0.595141">
        <ele>638</ele>
        <time>1970-01-01T05:53:07.000Z</time>
      </trkpt>
      <trkpt lat="42.785719" lon="0.595067">
        <ele>637.8</ele>
        <time>1970-01-01T05:53:13.000Z</time>
      </trkpt>
      <trkpt lat="42.785765" lon="0.594321">
        <ele>638.6</ele>
        <time>1970-01-01T05:53:32.000Z</time>
      </trkpt>
      <trkpt lat="42.78574" lon="0.594239">
        <ele>638.6</ele>
        <time>1970-01-01T05:53:34.000Z</time>
      </trkpt>
      <trkpt lat="42.786135" lon="0.593893">
        <ele>638.6</ele>
        <time>1970-01-01T05:53:53.000Z</time>
      </trkpt>
      <trkpt lat="42.786653" lon="0.593627">
        <ele>638.2</ele>
        <time>1970-01-01T05:54:10.000Z</time>
      </trkpt>
      <trkpt lat="42.787003" lon="0.593448">
        <ele>637.8</ele>
        <time>1970-01-01T05:54:20.000Z</time>
      </trkpt>
      <trkpt lat="42.787518" lon="0.593152">
        <ele>637.2</ele>
        <time>1970-01-01T05:54:37.000Z</time>
      </trkpt>
      <trkpt lat="42.787609" lon="0.593093">
        <ele>637.2</ele>
        <time>1970-01-01T05:54:40.000Z</time>
      </trkpt>
      <trkpt lat="42.788134" lon="0.592804">
        <ele>636.8</ele>
        <time>1970-01-01T05:54:53.000Z</time>
      </trkpt>
      <trkpt lat="42.788586" lon="0.592542">
        <ele>636.4</ele>
        <time>1970-01-01T05:55:06.000Z</time>
      </trkpt>
      <trkpt lat="42.788786" lon="0.592456">
        <ele>636</ele>
        <time>1970-01-01T05:55:12.000Z</time>
      </trkpt>
      <trkpt lat="42.788909" lon="0.592421">
        <ele>636</ele>
        <time>1970-01-01T05:55:17.000Z</time>
      </trkpt>
      <trkpt lat="42.789425" lon="0.592123">
        <ele>635.8</ele>
        <time>1970-01-01T05:55:32.000Z</time>
      </trkpt>
      <trkpt lat="42.789729" lon="0.591971">
        <ele>636.2</ele>
        <time>1970-01-01T05:55:43.000Z</time>
      </trkpt>
      <trkpt lat="42.789794" lon="0.591924">
        <ele>636</ele>
        <time>1970-01-01T06:01:04.000Z</time>
      </trkpt>
      <trkpt lat="42.790287" lon="0.591605">
        <ele>636.6</ele>
        <time>1970-01-01T06:01:29.000Z</time>
      </trkpt>
      <trkpt lat="42.790327" lon="0.591576">
        <ele>636.6</ele>
        <time>1970-01-01T06:01:32.000Z</time>
      </trkpt>
      <trkpt lat="42.790405" lon="0.591573">
        <ele>637</ele>
        <time>1970-01-01T06:01:36.000Z</time>
      </trkpt>
      <trkpt lat="42.790494" lon="0.591528">
        <ele>637.6</ele>
        <time>1970-01-01T06:01:45.000Z</time>
      </trkpt>
      <trkpt lat="42.792232" lon="0.593013">
        <ele>650.2</ele>
        <time>1970-01-01T00:00:00.000Z</time>
      </trkpt>
      <trkpt lat="42.792248" lon="0.593469">
        <ele>649.2</ele>
        <time>1970-01-01T00:00:14.000Z</time>
      </trkpt>
      <trkpt lat="42.792246" lon="0.593588">
        <ele>649.4</ele>
        <time>1970-01-01T00:00:20.000Z</time>
      </trkpt>
      <trkpt lat="42.792259" lon="0.593525">
        <ele>649.2</ele>
        <time>1970-01-01T00:00:27.000Z</time>
      </trkpt>
      <trkpt lat="42.792205" lon="0.592776">
        <ele>649.8</ele>
        <time>1970-01-01T00:00:46.000Z</time>
      </trkpt>
      <trkpt lat="42.792174" lon="0.59233">
        <ele>650.2</ele>
        <time>1970-01-01T00:00:55.000Z</time>
      </trkpt>
      <trkpt lat="42.792141" lon="0.591733">
        <ele>651.2</ele>
        <time>1970-01-01T00:01:07.000Z</time>
      </trkpt>
      <trkpt lat="42.79214" lon="0.591567">
        <ele>651.4</ele>
        <time>1970-01-01T00:01:14.000Z</time>
      </trkpt>
      <trkpt lat="42.792165" lon="0.591574">
        <ele>651.6</ele>
        <time>1970-01-01T00:01:20.000Z</time>
      </trkpt>
      <trkpt lat="42.792264" lon="0.591607">
        <ele>651.4</ele>
        <time>1970-01-01T00:01:29.000Z</time>
      </trkpt>
      <trkpt lat="42.792154" lon="0.591556">
        <ele>651.4</ele>
        <time>1970-01-01T00:03:04.000Z</time>
      </trkpt>
      <trkpt lat="42.792081" lon="0.591429">
        <ele>651.4</ele>
        <time>1970-01-01T00:03:09.000Z</time>
      </trkpt>
      <trkpt lat="42.791853" lon="0.591225">
        <ele>652</ele>
        <time>1970-01-01T00:03:16.000Z</time>
      </trkpt>
      <trkpt lat="42.791659" lon="0.591139">
        <ele>651.2</ele>
        <time>1970-01-01T00:03:21.000Z</time>
      </trkpt>
      <trkpt lat="42.79145" lon="0.591136">
        <ele>651</ele>
        <time>1970-01-01T00:03:26.000Z</time>
      </trkpt>
      <trkpt lat="42.791044" lon="0.591134">
        <ele>651.2</ele>
        <time>1970-01-01T00:03:42.000Z</time>
      </trkpt>
      <trkpt lat="42.791137" lon="0.591106">
        <ele>650.8</ele>
        <time>1970-01-01T00:05:22.000Z</time>
      </trkpt>
      <trkpt lat="42.791317" lon="0.591097">
        <ele>651</ele>
        <time>1970-01-01T00:05:29.000Z</time>
      </trkpt>
      <trkpt lat="42.791791" lon="0.591166">
        <ele>651.2</ele>
        <time>1970-01-01T00:05:42.000Z</time>
      </trkpt>
      <trkpt lat="42.791979" lon="0.591344">
        <ele>651.4</ele>
        <time>1970-01-01T00:05:50.000Z</time>
      </trkpt>
      <trkpt lat="42.792019" lon="0.591381">
        <ele>651.2</ele>
        <time>1970-01-01T00:06:15.000Z</time>
      </trkpt>
      <trkpt lat="42.792034" lon="0.59141">
        <ele>651.2</ele>
        <time>1970-01-01T00:06:17.000Z</time>
      </trkpt>
      <trkpt lat="42.792052" lon="0.591449">
        <ele>651.2</ele>
        <time>1970-01-01T00:06:22.000Z</time>
      </trkpt>
      <trkpt lat="42.792116" lon="0.591484">
        <ele>651.2</ele>
        <time>1970-01-01T00:06:33.000Z</time>
      </trkpt>
      <trkpt lat="42.792249" lon="0.591609">
        <ele>651</ele>
        <time>1970-01-01T00:06:44.000Z</time>
      </trkpt>
      <trkpt lat="42.792256" lon="0.591552">
        <ele>650.8</ele>
        <time>1970-01-01T00:06:50.000Z</time>
      </trkpt>
      <trkpt lat="42.792128" lon="0.591451">
        <ele>651.2</ele>
        <time>1970-01-01T00:06:58.000Z</time>
      </trkpt>
      <trkpt lat="42.791623" lon="0.591202">
        <ele>651</ele>
        <time>1970-01-01T00:07:25.000Z</time>
      </trkpt>
      <trkpt lat="42.791388" lon="0.591106">
        <ele>650.8</ele>
        <time>1970-01-01T00:07:40.000Z</time>
      </trkpt>
      <trkpt lat="42.791445" lon="0.591094">
        <ele>651</ele>
        <time>1970-01-01T00:08:05.000Z</time>
      </trkpt>
      <trkpt lat="42.791571" lon="0.5911">
        <ele>651.2</ele>
        <time>1970-01-01T00:08:09.000Z</time>
      </trkpt>
      <trkpt lat="42.791808" lon="0.591125">
        <ele>651.2</ele>
        <time>1970-01-01T00:08:15.000Z</time>
      </trkpt>
      <trkpt lat="42.791956" lon="0.59125">
        <ele>651.4</ele>
        <time>1970-01-01T00:08:19.000Z</time>
      </trkpt>
      <trkpt lat="42.79205" lon="0.591357">
        <ele>651.4</ele>
        <time>1970-01-01T00:08:25.000Z</time>
      </trkpt>
      <trkpt lat="42.792071" lon="0.591339">
        <ele>651.4</ele>
        <time>1970-01-01T00:08:50.000Z</time>
      </trkpt>
      <trkpt lat="42.792005" lon="0.591247">
        <ele>651.2</ele>
        <time>1970-01-01T00:08:54.000Z</time>
      </trkpt>
      <trkpt lat="42.79195" lon="0.591194">
        <ele>651.4</ele>
        <time>1970-01-01T00:08:56.000Z</time>
      </trkpt>
      <trkpt lat="42.791743" lon="0.59108">
        <ele>651.4</ele>
        <time>1970-01-01T00:09:02.000Z</time>
      </trkpt>
      <trkpt lat="42.791451" lon="0.591098">
        <ele>651.2</ele>
        <time>1970-01-01T00:09:09.000Z</time>
      </trkpt>
      <trkpt lat="42.79135" lon="0.590847">
        <ele>651.4</ele>
        <time>1970-01-01T00:09:17.000Z</time>
      </trkpt>
      <trkpt lat="42.791498" lon="0.590174">
        <ele>652.4</ele>
        <time>1970-01-01T00:09:32.000Z</time>
      </trkpt>
      <trkpt lat="42.791631" lon="0.589413">
        <ele>653.6</ele>
        <time>1970-01-01T00:09:48.000Z</time>
      </trkpt>
      <trkpt lat="42.791637" lon="0.589359">
        <ele>653.6</ele>
        <time>1970-01-01T00:09:49.000Z</time>
      </trkpt>
      <trkpt lat="42.791765" lon="0.588607">
        <ele>654.6</ele>
        <time>1970-01-01T00:10:06.000Z</time>
      </trkpt>
      <trkpt lat="42.79181" lon="0.588257">
        <ele>654.8</ele>
        <time>1970-01-01T00:10:14.000Z</time>
      </trkpt>
      <trkpt lat="42.791901" lon="0.587641">
        <ele>656.2</ele>
        <time>1970-01-01T00:10:28.000Z</time>
      </trkpt>
      <trkpt lat="42.791963" lon="0.587334">
        <ele>657.4</ele>
        <time>1970-01-01T00:10:35.000Z</time>
      </trkpt>
      <trkpt lat="42.792088" lon="0.586617">
        <ele>658.4</ele>
        <time>1970-01-01T00:10:50.000Z</time>
      </trkpt>
      <trkpt lat="42.792109" lon="0.58647">
        <ele>658.6</ele>
        <time>1970-01-01T00:10:53.000Z</time>
      </trkpt>
      <trkpt lat="42.792179" lon="0.586046">
        <ele>659.6</ele>
        <time>1970-01-01T00:11:02.000Z</time>
      </trkpt>
      <trkpt lat="42.792251" lon="0.58557">
        <ele>660.2</ele>
        <time>1970-01-01T00:11:12.000Z</time>
      </trkpt>
      <trkpt lat="42.792281" lon="0.585366">
        <ele>660.6</ele>
        <time>1970-01-01T00:11:16.000Z</time>
      </trkpt>
      <trkpt lat="42.792294" lon="0.585269">
        <ele>661</ele>
        <time>1970-01-01T00:11:18.000Z</time>
      </trkpt>
      <trkpt lat="42.792394" lon="0.584626">
        <ele>662.2</ele>
        <time>1970-01-01T00:11:32.000Z</time>
      </trkpt>
      <trkpt lat="42.792439" lon="0.584284">
        <ele>663.4</ele>
        <time>1970-01-01T00:11:39.000Z</time>
      </trkpt>
      <trkpt lat="42.792529" lon="0.583749">
        <ele>664.4</ele>
        <time>1970-01-01T00:11:50.000Z</time>
      </trkpt>
      <trkpt lat="42.792608" lon="0.583333">
        <ele>665.6</ele>
        <time>1970-01-01T00:11:59.000Z</time>
      </trkpt>
      <trkpt lat="42.792612" lon="0.583302">
        <ele>665.8</ele>
        <time>1970-01-01T00:12:02.000Z</time>
      </trkpt>
      <trkpt lat="42.792615" lon="0.583267">
        <ele>665.6</ele>
        <time>1970-01-01T00:12:34.000Z</time>
      </trkpt>
      <trkpt lat="42.792649" lon="0.583015">
        <ele>666.6</ele>
        <time>1970-01-01T00:12:46.000Z</time>
      </trkpt>
      <trkpt lat="42.792627" lon="0.58311">
        <ele>666.4</ele>
        <time>1970-01-01T00:14:05.000Z</time>
      </trkpt>
      <trkpt lat="42.792632" lon="0.583223">
        <ele>666.2</ele>
        <time>1970-01-01T00:14:13.000Z</time>
      </trkpt>
      <trkpt lat="42.792638" lon="0.583152">
        <ele>666.6</ele>
        <time>1970-01-01T00:17:03.000Z</time>
      </trkpt>
      <trkpt lat="42.792707" lon="0.582673">
        <ele>667.6</ele>
        <time>1970-01-01T00:17:16.000Z</time>
      </trkpt>
      <trkpt lat="42.792772" lon="0.582278">
        <ele>668.8</ele>
        <time>1970-01-01T00:17:25.000Z</time>
      </trkpt>
      <trkpt lat="42.792798" lon="0.581991">
        <ele>670.2</ele>
        <time>1970-01-01T00:17:31.000Z</time>
      </trkpt>
      <trkpt lat="42.792853" lon="0.58159">
        <ele>671.2</ele>
        <time>1970-01-01T00:17:40.000Z</time>
      </trkpt>
      <trkpt lat="42.792913" lon="0.581215">
        <ele>672.2</ele>
        <time>1970-01-01T00:17:48.000Z</time>
      </trkpt>
      <trkpt lat="42.792971" lon="0.580863">
        <ele>673.4</ele>
        <time>1970-01-01T00:17:56.000Z</time>
      </trkpt>
      <trkpt lat="42.793107" lon="0.580454">
        <ele>674.6</ele>
        <time>1970-01-01T00:18:06.000Z</time>
      </trkpt>
      <trkpt lat="42.79324" lon="0.580152">
        <ele>675.8</ele>
        <time>1970-01-01T00:18:14.000Z</time>
      </trkpt>
      <trkpt lat="42.793419" lon="0.579816">
        <ele>676.8</ele>
        <time>1970-01-01T00:18:23.000Z</time>
      </trkpt>
      <trkpt lat="42.793557" lon="0.579536">
        <ele>677.8</ele>
        <time>1970-01-01T00:18:31.000Z</time>
      </trkpt>
      <trkpt lat="42.793675" lon="0.579244">
        <ele>679</ele>
        <time>1970-01-01T00:18:39.000Z</time>
      </trkpt>
      <trkpt lat="42.793743" lon="0.57907">
        <ele>680.4</ele>
        <time>1970-01-01T00:18:44.000Z</time>
      </trkpt>
      <trkpt lat="42.793745" lon="0.578666">
        <ele>681.4</ele>
        <time>1970-01-01T00:18:56.000Z</time>
      </trkpt>
      <trkpt lat="42.793762" lon="0.57832">
        <ele>682.6</ele>
        <time>1970-01-01T00:19:07.000Z</time>
      </trkpt>
      <trkpt lat="42.793874" lon="0.577961">
        <ele>683.6</ele>
        <time>1970-01-01T00:19:18.000Z</time>
      </trkpt>
      <trkpt lat="42.793979" lon="0.577706">
        <ele>685</ele>
        <time>1970-01-01T00:19:27.000Z</time>
      </trkpt>
      <trkpt lat="42.794033" lon="0.577545">
        <ele>686.2</ele>
        <time>1970-01-01T00:19:33.000Z</time>
      </trkpt>
      <trkpt lat="42.794058" lon="0.577443">
        <ele>687.2</ele>
        <time>1970-01-01T00:19:37.000Z</time>
      </trkpt>
      <trkpt lat="42.794059" lon="0.577417">
        <ele>687.4</ele>
        <time>1970-01-01T00:19:38.000Z</time>
      </trkpt>
      <trkpt lat="42.794055" lon="0.577323">
        <ele>688.2</ele>
        <time>1970-01-01T00:19:42.000Z</time>
      </trkpt>
      <trkpt lat="42.794059" lon="0.577302">
        <ele>688.4</ele>
        <time>1970-01-01T00:19:43.000Z</time>
      </trkpt>
      <trkpt lat="42.794062" lon="0.577185">
        <ele>689.6</ele>
        <time>1970-01-01T00:19:48.000Z</time>
      </trkpt>
      <trkpt lat="42.794067" lon="0.577069">
        <ele>690.8</ele>
        <time>1970-01-01T00:19:53.000Z</time>
      </trkpt>
      <trkpt lat="42.794074" lon="0.576974">
        <ele>691.8</ele>
        <time>1970-01-01T00:19:57.000Z</time>
      </trkpt>
      <trkpt lat="42.794095" lon="0.576914">
        <ele>692.6</ele>
        <time>1970-01-01T00:20:00.000Z</time>
      </trkpt>
      <trkpt lat="42.794098" lon="0.576892">
        <ele>693</ele>
        <time>1970-01-01T00:20:01.000Z</time>
      </trkpt>
      <trkpt lat="42.794103" lon="0.57683">
        <ele>694</ele>
        <time>1970-01-01T00:20:04.000Z</time>
      </trkpt>
      <trkpt lat="42.79409" lon="0.576786">
        <ele>694.4</ele>
        <time>1970-01-01T00:20:06.000Z</time>
      </trkpt>
      <trkpt lat="42.794086" lon="0.576761">
        <ele>694.6</ele>
        <time>1970-01-01T00:20:07.000Z</time>
      </trkpt>
      <trkpt lat="42.794089" lon="0.576713">
        <ele>695</ele>
        <time>1970-01-01T00:20:09.000Z</time>
      </trkpt>
      <trkpt lat="42.794097" lon="0.576627">
        <ele>696</ele>
        <time>1970-01-01T00:20:13.000Z</time>
      </trkpt>
      <trkpt lat="42.794093" lon="0.576517">
        <ele>697.2</ele>
        <time>1970-01-01T00:20:19.000Z</time>
      </trkpt>
      <trkpt lat="42.794091" lon="0.576453">
        <ele>698.2</ele>
        <time>1970-01-01T00:20:23.000Z</time>
      </trkpt>
      <trkpt lat="42.794103" lon="0.576396">
        <ele>699.2</ele>
        <time>1970-01-01T00:20:27.000Z</time>
      </trkpt>
      <trkpt lat="42.794104" lon="0.576291">
        <ele>700.4</ele>
        <time>1970-01-01T00:20:33.000Z</time>
      </trkpt>
      <trkpt lat="42.794117" lon="0.576219">
        <ele>701.4</ele>
        <time>1970-01-01T00:20:37.000Z</time>
      </trkpt>
      <trkpt lat="42.794129" lon="0.576102">
        <ele>702.6</ele>
        <time>1970-01-01T00:20:43.000Z</time>
      </trkpt>
      <trkpt lat="42.79413" lon="0.576083">
        <ele>702.8</ele>
        <time>1970-01-01T00:20:44.000Z</time>
      </trkpt>
      <trkpt lat="42.794149" lon="0.576007">
        <ele>703.6</ele>
        <time>1970-01-01T00:20:48.000Z</time>
      </trkpt>
      <trkpt lat="42.794169" lon="0.5759">
        <ele>704.4</ele>
        <time>1970-01-01T00:20:54.000Z</time>
      </trkpt>
      <trkpt lat="42.794163" lon="0.575774">
        <ele>705.6</ele>
        <time>1970-01-01T00:21:01.000Z</time>
      </trkpt>
      <trkpt lat="42.794143" lon="0.575708">
        <ele>706.8</ele>
        <time>1970-01-01T00:21:06.000Z</time>
      </trkpt>
      <trkpt lat="42.794145" lon="0.575693">
        <ele>707</ele>
        <time>1970-01-01T00:21:07.000Z</time>
      </trkpt>
      <trkpt lat="42.794154" lon="0.575612">
        <ele>707.8</ele>
        <time>1970-01-01T00:21:12.000Z</time>
      </trkpt>
      <trkpt lat="42.794164" lon="0.575535">
        <ele>709</ele>
        <time>1970-01-01T00:21:17.000Z</time>
      </trkpt>
      <trkpt lat="42.794172" lon="0.575458">
        <ele>710</ele>
        <time>1970-01-01T00:21:22.000Z</time>
      </trkpt>
      <trkpt lat="42.794163" lon="0.575435">
        <ele>710.2</ele>
        <time>1970-01-01T00:21:23.000Z</time>
      </trkpt>
      <trkpt lat="42.794097" lon="0.575317">
        <ele>711.2</ele>
        <time>1970-01-01T00:21:33.000Z</time>
      </trkpt>
      <trkpt lat="42.794094" lon="0.575306">
        <ele>711.2</ele>
        <time>1970-01-01T00:21:34.000Z</time>
      </trkpt>
      <trkpt lat="42.794095" lon="0.57524">
        <ele>711.8</ele>
        <time>1970-01-01T00:21:39.000Z</time>
      </trkpt>
      <trkpt lat="42.794107" lon="0.575209">
        <ele>712</ele>
        <time>1970-01-01T00:21:41.000Z</time>
      </trkpt>
      <trkpt lat="42.794108" lon="0.575195">
        <ele>712.2</ele>
        <time>1970-01-01T00:21:42.000Z</time>
      </trkpt>
      <trkpt lat="42.794102" lon="0.575166">
        <ele>712.4</ele>
        <time>1970-01-01T00:21:47.000Z</time>
      </trkpt>
      <trkpt lat="42.794112" lon="0.5752">
        <ele>712.4</ele>
        <time>1970-01-01T00:22:04.000Z</time>
      </trkpt>
      <trkpt lat="42.794073" lon="0.5754">
        <ele>711.6</ele>
        <time>1970-01-01T00:22:13.000Z</time>
      </trkpt>
      <trkpt lat="42.794042" lon="0.575509">
        <ele>712.6</ele>
        <time>1970-01-01T00:22:19.000Z</time>
      </trkpt>
      <trkpt lat="42.794019" lon="0.575512">
        <ele>712.8</ele>
        <time>1970-01-01T00:22:21.000Z</time>
      </trkpt>
      <trkpt lat="42.793993" lon="0.575456">
        <ele>713.8</ele>
        <time>1970-01-01T00:22:25.000Z</time>
      </trkpt>
      <trkpt lat="42.794009" lon="0.575403">
        <ele>714.8</ele>
        <time>1970-01-01T00:22:29.000Z</time>
      </trkpt>
      <trkpt lat="42.794021" lon="0.57531">
        <ele>715.8</ele>
        <time>1970-01-01T00:22:35.000Z</time>
      </trkpt>
      <trkpt lat="42.794029" lon="0.57526">
        <ele>717</ele>
        <time>1970-01-01T00:22:38.000Z</time>
      </trkpt>
      <trkpt lat="42.794016" lon="0.575182">
        <ele>718</ele>
        <time>1970-01-01T00:22:43.000Z</time>
      </trkpt>
      <trkpt lat="42.794002" lon="0.575163">
        <ele>718.6</ele>
        <time>1970-01-01T00:22:45.000Z</time>
      </trkpt>
      <trkpt lat="42.793982" lon="0.575158">
        <ele>718.8</ele>
        <time>1970-01-01T00:22:47.000Z</time>
      </trkpt>
      <trkpt lat="42.793964" lon="0.575163">
        <ele>719</ele>
        <time>1970-01-01T00:22:49.000Z</time>
      </trkpt>
      <trkpt lat="42.793948" lon="0.575179">
        <ele>719.6</ele>
        <time>1970-01-01T00:22:51.000Z</time>
      </trkpt>
      <trkpt lat="42.793926" lon="0.575199">
        <ele>720</ele>
        <time>1970-01-01T00:22:54.000Z</time>
      </trkpt>
      <trkpt lat="42.793923" lon="0.575219">
        <ele>720.6</ele>
        <time>1970-01-01T00:22:56.000Z</time>
      </trkpt>
      <trkpt lat="42.793919" lon="0.575253">
        <ele>721.2</ele>
        <time>1970-01-01T00:22:59.000Z</time>
      </trkpt>
      <trkpt lat="42.793913" lon="0.575264">
        <ele>721.4</ele>
        <time>1970-01-01T00:23:00.000Z</time>
      </trkpt>
      <trkpt lat="42.793903" lon="0.575326">
        <ele>722.2</ele>
        <time>1970-01-01T00:23:05.000Z</time>
      </trkpt>
      <trkpt lat="42.793891" lon="0.575393">
        <ele>723</ele>
        <time>1970-01-01T00:23:11.000Z</time>
      </trkpt>
      <trkpt lat="42.793891" lon="0.575348">
        <ele>722.4</ele>
        <time>1970-01-01T00:23:33.000Z</time>
      </trkpt>
      <trkpt lat="42.793921" lon="0.575235">
        <ele>720.8</ele>
        <time>1970-01-01T00:23:36.000Z</time>
      </trkpt>
      <trkpt lat="42.793947" lon="0.575183">
        <ele>719.8</ele>
        <time>1970-01-01T00:23:38.000Z</time>
      </trkpt>
      <trkpt lat="42.793995" lon="0.575217">
        <ele>718</ele>
        <time>1970-01-01T00:23:42.000Z</time>
      </trkpt>
      <trkpt lat="42.793993" lon="0.575275">
        <ele>717.4</ele>
        <time>1970-01-01T00:23:44.000Z</time>
      </trkpt>
      <trkpt lat="42.793985" lon="0.575311">
        <ele>717</ele>
        <time>1970-01-01T00:23:45.000Z</time>
      </trkpt>
      <trkpt lat="42.793964" lon="0.5754">
        <ele>715.8</ele>
        <time>1970-01-01T00:23:47.000Z</time>
      </trkpt>
      <trkpt lat="42.793971" lon="0.575496">
        <ele>714.6</ele>
        <time>1970-01-01T00:23:49.000Z</time>
      </trkpt>
      <trkpt lat="42.793987" lon="0.575527">
        <ele>713.8</ele>
        <time>1970-01-01T00:23:50.000Z</time>
      </trkpt>
      <trkpt lat="42.794012" lon="0.575523">
        <ele>713</ele>
        <time>1970-01-01T00:23:51.000Z</time>
      </trkpt>
      <trkpt lat="42.794066" lon="0.575407">
        <ele>711.6</ele>
        <time>1970-01-01T00:23:54.000Z</time>
      </trkpt>
      <trkpt lat="42.794082" lon="0.575348">
        <ele>711.4</ele>
        <time>1970-01-01T00:23:55.000Z</time>
      </trkpt>
      <trkpt lat="42.794099" lon="0.575286">
        <ele>711.2</ele>
        <time>1970-01-01T00:23:56.000Z</time>
      </trkpt>
      <trkpt lat="42.794102" lon="0.575159">
        <ele>712</ele>
        <time>1970-01-01T00:24:00.000Z</time>
      </trkpt>
      <trkpt lat="42.794072" lon="0.575076">
        <ele>712.8</ele>
        <time>1970-01-01T00:24:06.000Z</time>
      </trkpt>
      <trkpt lat="42.794061" lon="0.575065">
        <ele>712.8</ele>
        <time>1970-01-01T00:24:09.000Z</time>
      </trkpt>
      <trkpt lat="42.794114" lon="0.574961">
        <ele>713.2</ele>
        <time>1970-01-01T00:25:18.000Z</time>
      </trkpt>
      <trkpt lat="42.794129" lon="0.574903">
        <ele>713.4</ele>
        <time>1970-01-01T00:25:24.000Z</time>
      </trkpt>
      <trkpt lat="42.794206" lon="0.574787">
        <ele>713.6</ele>
        <time>1970-01-01T00:25:38.000Z</time>
      </trkpt>
      <trkpt lat="42.794273" lon="0.574678">
        <ele>713.8</ele>
        <time>1970-01-01T00:25:43.000Z</time>
      </trkpt>
      <trkpt lat="42.794294" lon="0.574631">
        <ele>715</ele>
        <time>1970-01-01T00:25:46.000Z</time>
      </trkpt>
      <trkpt lat="42.794331" lon="0.57459">
        <ele>716.2</ele>
        <time>1970-01-01T00:25:50.000Z</time>
      </trkpt>
      <trkpt lat="42.794339" lon="0.574578">
        <ele>716.4</ele>
        <time>1970-01-01T00:25:51.000Z</time>
      </trkpt>
      <trkpt lat="42.794356" lon="0.574542">
        <ele>717.4</ele>
        <time>1970-01-01T00:25:54.000Z</time>
      </trkpt>
      <trkpt lat="42.794407" lon="0.57448">
        <ele>718.6</ele>
        <time>1970-01-01T00:26:00.000Z</time>
      </trkpt>
      <trkpt lat="42.794436" lon="0.574444">
        <ele>719.6</ele>
        <time>1970-01-01T00:26:03.000Z</time>
      </trkpt>
      <trkpt lat="42.794457" lon="0.574426">
        <ele>720.8</ele>
        <time>1970-01-01T00:26:05.000Z</time>
      </trkpt>
      <trkpt lat="42.794501" lon="0.574406">
        <ele>721.8</ele>
        <time>1970-01-01T00:26:09.000Z</time>
      </trkpt>
      <trkpt lat="42.794524" lon="0.574366">
        <ele>723</ele>
        <time>1970-01-01T00:26:13.000Z</time>
      </trkpt>
      <trkpt lat="42.794559" lon="0.574302">
        <ele>724</ele>
        <time>1970-01-01T00:26:18.000Z</time>
      </trkpt>
      <trkpt lat="42.794588" lon="0.574261">
        <ele>725.4</ele>
        <time>1970-01-01T00:26:21.000Z</time>
      </trkpt>
      <trkpt lat="42.794625" lon="0.574225">
        <ele>726.4</ele>
        <time>1970-01-01T00:26:24.000Z</time>
      </trkpt>
      <trkpt lat="42.79465" lon="0.574182">
        <ele>727.2</ele>
        <time>1970-01-01T00:26:27.000Z</time>
      </trkpt>
      <trkpt lat="42.794681" lon="0.574153">
        <ele>728.6</ele>
        <time>1970-01-01T00:26:30.000Z</time>
      </trkpt>
      <trkpt lat="42.794723" lon="0.574097">
        <ele>729.8</ele>
        <time>1970-01-01T00:26:34.000Z</time>
      </trkpt>
      <trkpt lat="42.794766" lon="0.574025">
        <ele>731</ele>
        <time>1970-01-01T00:26:39.000Z</time>
      </trkpt>
      <trkpt lat="42.794775" lon="0.574016">
        <ele>731.2</ele>
        <time>1970-01-01T00:26:40.000Z</time>
      </trkpt>
      <trkpt lat="42.794803" lon="0.57399">
        <ele>732</ele>
        <time>1970-01-01T00:26:43.000Z</time>
      </trkpt>
      <trkpt lat="42.794844" lon="0.573963">
        <ele>733.2</ele>
        <time>1970-01-01T00:26:47.000Z</time>
      </trkpt>
      <trkpt lat="42.794898" lon="0.573928">
        <ele>734.4</ele>
        <time>1970-01-01T00:26:52.000Z</time>
      </trkpt>
      <trkpt lat="42.794912" lon="0.573921">
        <ele>735.2</ele>
        <time>1970-01-01T00:26:55.000Z</time>
      </trkpt>
      <trkpt lat="42.795133" lon="0.573346">
        <ele>744.4</ele>
        <time>1970-01-01T00:27:53.000Z</time>
      </trkpt>
      <trkpt lat="42.79529" lon="0.573044">
        <ele>745.2</ele>
        <time>1970-01-01T00:28:08.000Z</time>
      </trkpt>
      <trkpt lat="42.795298" lon="0.573027">
        <ele>745.2</ele>
        <time>1970-01-01T00:28:09.000Z</time>
      </trkpt>
      <trkpt lat="42.795392" lon="0.572868">
        <ele>746.2</ele>
        <time>1970-01-01T00:28:17.000Z</time>
      </trkpt>
      <trkpt lat="42.795402" lon="0.572855">
        <ele>746.2</ele>
        <time>1970-01-01T00:28:18.000Z</time>
      </trkpt>
      <trkpt lat="42.795412" lon="0.572845">
        <ele>746.4</ele>
        <time>1970-01-01T00:28:20.000Z</time>
      </trkpt>
      <trkpt lat="42.795543" lon="0.572668">
        <ele>747</ele>
        <time>1970-01-01T00:29:19.000Z</time>
      </trkpt>
      <trkpt lat="42.795556" lon="0.572595">
        <ele>748.2</ele>
        <time>1970-01-01T00:29:22.000Z</time>
      </trkpt>
      <trkpt lat="42.79556" lon="0.572416">
        <ele>749.2</ele>
        <time>1970-01-01T00:29:28.000Z</time>
      </trkpt>
      <trkpt lat="42.795502" lon="0.571896">
        <ele>750.4</ele>
        <time>1970-01-01T00:29:43.000Z</time>
      </trkpt>
      <trkpt lat="42.795472" lon="0.571785">
        <ele>751.2</ele>
        <time>1970-01-01T00:29:47.000Z</time>
      </trkpt>
      <trkpt lat="42.795446" lon="0.571739">
        <ele>751.4</ele>
        <time>1970-01-01T00:29:49.000Z</time>
      </trkpt>
      <trkpt lat="42.795417" lon="0.571484">
        <ele>752.6</ele>
        <time>1970-01-01T00:29:58.000Z</time>
      </trkpt>
      <trkpt lat="42.795406" lon="0.571384">
        <ele>753.6</ele>
        <time>1970-01-01T00:30:02.000Z</time>
      </trkpt>
      <trkpt lat="42.795402" lon="0.571308">
        <ele>754.8</ele>
        <time>1970-01-01T00:30:05.000Z</time>
      </trkpt>
      <trkpt lat="42.795395" lon="0.571209">
        <ele>756</ele>
        <time>1970-01-01T00:30:09.000Z</time>
      </trkpt>
      <trkpt lat="42.795397" lon="0.571133">
        <ele>757.2</ele>
        <time>1970-01-01T00:30:13.000Z</time>
      </trkpt>
      <trkpt lat="42.795396" lon="0.571079">
        <ele>758.6</ele>
        <time>1970-01-01T00:30:16.000Z</time>
      </trkpt>
      <trkpt lat="42.795398" lon="0.571045">
        <ele>759.6</ele>
        <time>1970-01-01T00:30:18.000Z</time>
      </trkpt>
      <trkpt lat="42.795401" lon="0.570999">
        <ele>760.8</ele>
        <time>1970-01-01T00:30:22.000Z</time>
      </trkpt>
      <trkpt lat="42.795358" lon="0.570526">
        <ele>766.4</ele>
        <time>1970-01-01T00:30:59.000Z</time>
      </trkpt>
      <trkpt lat="42.795278" lon="0.570247">
        <ele>767.4</ele>
        <time>1970-01-01T00:31:13.000Z</time>
      </trkpt>
      <trkpt lat="42.795273" lon="0.570242">
        <ele>767.6</ele>
        <time>1970-01-01T00:31:14.000Z</time>
      </trkpt>
      <trkpt lat="42.795344" lon="0.569495">
        <ele>776.8</ele>
        <time>1970-01-01T00:32:02.000Z</time>
      </trkpt>
      <trkpt lat="42.795414" lon="0.569249">
        <ele>776.4</ele>
        <time>1970-01-01T00:32:13.000Z</time>
      </trkpt>
      <trkpt lat="42.795444" lon="0.569048">
        <ele>776.8</ele>
        <time>1970-01-01T00:33:04.000Z</time>
      </trkpt>
      <trkpt lat="42.795501" lon="0.56888">
        <ele>777</ele>
        <time>1970-01-01T00:33:11.000Z</time>
      </trkpt>
      <trkpt lat="42.795667" lon="0.568157">
        <ele>776.8</ele>
        <time>1970-01-01T00:33:30.000Z</time>
      </trkpt>
      <trkpt lat="42.795966" lon="0.567508">
        <ele>777.2</ele>
        <time>1970-01-01T00:33:45.000Z</time>
      </trkpt>
      <trkpt lat="42.796059" lon="0.566973">
        <ele>776.4</ele>
        <time>1970-01-01T00:33:56.000Z</time>
      </trkpt>
      <trkpt lat="42.796092" lon="0.566957">
        <ele>776.6</ele>
        <time>1970-01-01T00:33:58.000Z</time>
      </trkpt>
      <trkpt lat="42.796209" lon="0.566927">
        <ele>776.8</ele>
        <time>1970-01-01T00:34:06.000Z</time>
      </trkpt>
      <trkpt lat="42.796478" lon="0.566695">
        <ele>779.8</ele>
        <time>1970-01-01T00:34:38.000Z</time>
      </trkpt>
      <trkpt lat="42.796533" lon="0.566614">
        <ele>779.6</ele>
        <time>1970-01-01T00:34:44.000Z</time>
      </trkpt>
      <trkpt lat="42.796588" lon="0.566536">
        <ele>780</ele>
        <time>1970-01-01T00:35:07.000Z</time>
      </trkpt>
      <trkpt lat="42.796658" lon="0.56638">
        <ele>780.4</ele>
        <time>1970-01-01T00:35:14.000Z</time>
      </trkpt>
      <trkpt lat="42.796676" lon="0.566342">
        <ele>781.4</ele>
        <time>1970-01-01T00:35:16.000Z</time>
      </trkpt>
      <trkpt lat="42.796696" lon="0.566287">
        <ele>782.4</ele>
        <time>1970-01-01T00:35:19.000Z</time>
      </trkpt>
      <trkpt lat="42.796754" lon="0.566111">
        <ele>783.4</ele>
        <time>1970-01-01T00:35:27.000Z</time>
      </trkpt>
      <trkpt lat="42.796796" lon="0.566037">
        <ele>783.4</ele>
        <time>1970-01-01T00:35:32.000Z</time>
      </trkpt>
      <trkpt lat="42.796833" lon="0.565949">
        <ele>782</ele>
        <time>1970-01-01T00:35:35.000Z</time>
      </trkpt>
      <trkpt lat="42.796858" lon="0.565891">
        <ele>781.2</ele>
        <time>1970-01-01T00:35:37.000Z</time>
      </trkpt>
      <trkpt lat="42.796891" lon="0.565813">
        <ele>780.8</ele>
        <time>1970-01-01T00:35:39.000Z</time>
      </trkpt>
      <trkpt lat="42.796926" lon="0.565718">
        <ele>779.6</ele>
        <time>1970-01-01T00:35:41.000Z</time>
      </trkpt>
      <trkpt lat="42.796947" lon="0.565683">
        <ele>778.6</ele>
        <time>1970-01-01T00:35:42.000Z</time>
      </trkpt>
      <trkpt lat="42.796989" lon="0.565643">
        <ele>777.4</ele>
        <time>1970-01-01T00:35:44.000Z</time>
      </trkpt>
      <trkpt lat="42.797117" lon="0.565616">
        <ele>776.2</ele>
        <time>1970-01-01T00:35:49.000Z</time>
      </trkpt>
      <trkpt lat="42.797162" lon="0.565615">
        <ele>775.6</ele>
        <time>1970-01-01T00:35:51.000Z</time>
      </trkpt>
      <trkpt lat="42.797208" lon="0.565579">
        <ele>775.2</ele>
        <time>1970-01-01T00:35:54.000Z</time>
      </trkpt>
      <trkpt lat="42.797301" lon="0.565555">
        <ele>774.2</ele>
        <time>1970-01-01T00:35:57.000Z</time>
      </trkpt>
      <trkpt lat="42.797446" lon="0.565507">
        <ele>775.8</ele>
        <time>1970-01-01T00:36:04.000Z</time>
      </trkpt>
      <trkpt lat="42.797819" lon="0.565609">
        <ele>775.4</ele>
        <time>1970-01-01T00:36:50.000Z</time>
      </trkpt>
      <trkpt lat="42.797873" lon="0.565619">
        <ele>776</ele>
        <time>1970-01-01T00:36:54.000Z</time>
      </trkpt>
      <trkpt lat="42.798408" lon="0.565714">
        <ele>776.8</ele>
        <time>1970-01-01T00:37:14.000Z</time>
      </trkpt>
      <trkpt lat="42.798608" lon="0.565721">
        <ele>778.2</ele>
        <time>1970-01-01T00:37:21.000Z</time>
      </trkpt>
      <trkpt lat="42.798635" lon="0.565716">
        <ele>779.4</ele>
        <time>1970-01-01T00:37:23.000Z</time>
      </trkpt>
      <trkpt lat="42.798655" lon="0.565706">
        <ele>779.8</ele>
        <time>1970-01-01T00:37:25.000Z</time>
      </trkpt>
      <trkpt lat="42.798851" lon="0.565693">
        <ele>780.4</ele>
        <time>1970-01-01T00:37:43.000Z</time>
      </trkpt>
      <trkpt lat="42.799292" lon="0.565635">
        <ele>780.2</ele>
        <time>1970-01-01T00:37:58.000Z</time>
      </trkpt>
      <trkpt lat="42.799534" lon="0.565416">
        <ele>781.6</ele>
        <time>1970-01-01T00:38:10.000Z</time>
      </trkpt>
      <trkpt lat="42.799596" lon="0.565342">
        <ele>782.8</ele>
        <time>1970-01-01T00:38:14.000Z</time>
      </trkpt>
      <trkpt lat="42.799651" lon="0.565296">
        <ele>784</ele>
        <time>1970-01-01T00:38:17.000Z</time>
      </trkpt>
      <trkpt lat="42.799698" lon="0.565261">
        <ele>785.4</ele>
        <time>1970-01-01T00:38:20.000Z</time>
      </trkpt>
      <trkpt lat="42.79973" lon="0.565225">
        <ele>786.4</ele>
        <time>1970-01-01T00:38:23.000Z</time>
      </trkpt>
      <trkpt lat="42.799773" lon="0.565182">
        <ele>787.4</ele>
        <time>1970-01-01T00:38:26.000Z</time>
      </trkpt>
      <trkpt lat="42.799818" lon="0.565147">
        <ele>788.2</ele>
        <time>1970-01-01T00:38:29.000Z</time>
      </trkpt>
      <trkpt lat="42.799833" lon="0.565135">
        <ele>788.6</ele>
        <time>1970-01-01T00:38:30.000Z</time>
      </trkpt>
      <trkpt lat="42.799837" lon="0.565119">
        <ele>789</ele>
        <time>1970-01-01T00:38:31.000Z</time>
      </trkpt>
      <trkpt lat="42.799846" lon="0.565063">
        <ele>790</ele>
        <time>1970-01-01T00:38:34.000Z</time>
      </trkpt>
      <trkpt lat="42.799863" lon="0.565012">
        <ele>791.4</ele>
        <time>1970-01-01T00:38:37.000Z</time>
      </trkpt>
      <trkpt lat="42.79989" lon="0.56499">
        <ele>792.2</ele>
        <time>1970-01-01T00:38:41.000Z</time>
      </trkpt>
      <trkpt lat="42.800191" lon="0.564929">
        <ele>804.8</ele>
        <time>1970-01-01T00:40:52.000Z</time>
      </trkpt>
      <trkpt lat="42.800344" lon="0.564829">
        <ele>805.8</ele>
        <time>1970-01-01T00:41:00.000Z</time>
      </trkpt>
      <trkpt lat="42.800459" lon="0.564734">
        <ele>806.8</ele>
        <time>1970-01-01T00:41:07.000Z</time>
      </trkpt>
      <trkpt lat="42.800836" lon="0.564416">
        <ele>807.6</ele>
        <time>1970-01-01T00:41:27.000Z</time>
      </trkpt>
      <trkpt lat="42.80093" lon="0.564376">
        <ele>808.6</ele>
        <time>1970-01-01T00:41:33.000Z</time>
      </trkpt>
      <trkpt lat="42.80101" lon="0.564335">
        <ele>809.6</ele>
        <time>1970-01-01T00:41:39.000Z</time>
      </trkpt>
      <trkpt lat="42.801095" lon="0.564266">
        <ele>810.6</ele>
        <time>1970-01-01T00:41:46.000Z</time>
      </trkpt>
      <trkpt lat="42.801143" lon="0.564241">
        <ele>811.2</ele>
        <time>1970-01-01T00:41:49.000Z</time>
      </trkpt>
      <trkpt lat="42.801187" lon="0.564228">
        <ele>811.8</ele>
        <time>1970-01-01T00:41:52.000Z</time>
      </trkpt>
      <trkpt lat="42.8013" lon="0.564145">
        <ele>812.8</ele>
        <time>1970-01-01T00:42:00.000Z</time>
      </trkpt>
      <trkpt lat="42.801496" lon="0.563899">
        <ele>813.6</ele>
        <time>1970-01-01T00:42:17.000Z</time>
      </trkpt>
      <trkpt lat="42.801525" lon="0.563777">
        <ele>813.8</ele>
        <time>1970-01-01T00:42:22.000Z</time>
      </trkpt>
      <trkpt lat="42.801529" lon="0.563754">
        <ele>814</ele>
        <time>1970-01-01T00:42:23.000Z</time>
      </trkpt>
      <trkpt lat="42.801554" lon="0.563702">
        <ele>814.6</ele>
        <time>1970-01-01T00:42:26.000Z</time>
      </trkpt>
      <trkpt lat="42.801574" lon="0.563668">
        <ele>815.2</ele>
        <time>1970-01-01T00:42:28.000Z</time>
      </trkpt>
      <trkpt lat="42.801608" lon="0.563625">
        <ele>815.8</ele>
        <time>1970-01-01T00:42:31.000Z</time>
      </trkpt>
      <trkpt lat="42.801634" lon="0.563591">
        <ele>816.2</ele>
        <time>1970-01-01T00:42:33.000Z</time>
      </trkpt>
      <trkpt lat="42.801645" lon="0.563544">
        <ele>817</ele>
        <time>1970-01-01T00:42:37.000Z</time>
      </trkpt>
      <trkpt lat="42.801485" lon="0.56355">
        <ele>819.8</ele>
        <time>1970-01-01T00:43:51.000Z</time>
      </trkpt>
      <trkpt lat="42.801434" lon="0.563596">
        <ele>820.8</ele>
        <time>1970-01-01T00:43:56.000Z</time>
      </trkpt>
      <trkpt lat="42.801394" lon="0.563647">
        <ele>821.8</ele>
        <time>1970-01-01T00:44:01.000Z</time>
      </trkpt>
      <trkpt lat="42.801359" lon="0.56371">
        <ele>823</ele>
        <time>1970-01-01T00:44:06.000Z</time>
      </trkpt>
      <trkpt lat="42.801298" lon="0.563751">
        <ele>824.2</ele>
        <time>1970-01-01T00:44:11.000Z</time>
      </trkpt>
      <trkpt lat="42.801221" lon="0.563799">
        <ele>825.4</ele>
        <time>1970-01-01T00:44:17.000Z</time>
      </trkpt>
      <trkpt lat="42.801121" lon="0.563839">
        <ele>826.4</ele>
        <time>1970-01-01T00:44:24.000Z</time>
      </trkpt>
      <trkpt lat="42.800866" lon="0.563909">
        <ele>827.6</ele>
        <time>1970-01-01T00:44:39.000Z</time>
      </trkpt>
      <trkpt lat="42.800642" lon="0.563968">
        <ele>828.8</ele>
        <time>1970-01-01T00:44:51.000Z</time>
      </trkpt>
      <trkpt lat="42.800269" lon="0.56411">
        <ele>830</ele>
        <time>1970-01-01T00:45:10.000Z</time>
      </trkpt>
      <trkpt lat="42.799743" lon="0.56428">
        <ele>830</ele>
        <time>1970-01-01T00:45:28.000Z</time>
      </trkpt>
      <trkpt lat="42.799573" lon="0.564451">
        <ele>831.2</ele>
        <time>1970-01-01T00:45:36.000Z</time>
      </trkpt>
      <trkpt lat="42.79932" lon="0.564613">
        <ele>832.4</ele>
        <time>1970-01-01T00:45:46.000Z</time>
      </trkpt>
      <trkpt lat="42.799201" lon="0.564697">
        <ele>833.6</ele>
        <time>1970-01-01T00:45:51.000Z</time>
      </trkpt>
      <trkpt lat="42.799043" lon="0.564754">
        <ele>835</ele>
        <time>1970-01-01T00:45:58.000Z</time>
      </trkpt>
      <trkpt lat="42.798788" lon="0.564832">
        <ele>836</ele>
        <time>1970-01-01T00:46:08.000Z</time>
      </trkpt>
      <trkpt lat="42.798626" lon="0.56485">
        <ele>837.6</ele>
        <time>1970-01-01T00:46:15.000Z</time>
      </trkpt>
      <trkpt lat="42.79852" lon="0.564842">
        <ele>839.2</ele>
        <time>1970-01-01T00:46:20.000Z</time>
      </trkpt>
      <trkpt lat="42.798485" lon="0.564844">
        <ele>839.6</ele>
        <time>1970-01-01T00:46:22.000Z</time>
      </trkpt>
      <trkpt lat="42.798347" lon="0.564793">
        <ele>840.2</ele>
        <time>1970-01-01T00:46:30.000Z</time>
      </trkpt>
      <trkpt lat="42.798331" lon="0.564783">
        <ele>840.2</ele>
        <time>1970-01-01T00:46:31.000Z</time>
      </trkpt>
      <trkpt lat="42.798167" lon="0.564611">
        <ele>841.6</ele>
        <time>1970-01-01T00:46:44.000Z</time>
      </trkpt>
      <trkpt lat="42.798043" lon="0.564471">
        <ele>842.6</ele>
        <time>1970-01-01T00:46:53.000Z</time>
      </trkpt>
      <trkpt lat="42.79798" lon="0.56438">
        <ele>844</ele>
        <time>1970-01-01T00:46:59.000Z</time>
      </trkpt>
      <trkpt lat="42.797919" lon="0.564267">
        <ele>845</ele>
        <time>1970-01-01T00:47:06.000Z</time>
      </trkpt>
      <trkpt lat="42.797898" lon="0.564199">
        <ele>846</ele>
        <time>1970-01-01T00:47:10.000Z</time>
      </trkpt>
      <trkpt lat="42.797835" lon="0.564081">
        <ele>847.2</ele>
        <time>1970-01-01T00:47:17.000Z</time>
      </trkpt>
      <trkpt lat="42.79786" lon="0.56409">
        <ele>848.2</ele>
        <time>1970-01-01T00:47:24.000Z</time>
      </trkpt>
      <trkpt lat="42.797877" lon="0.564102">
        <ele>848.4</ele>
        <time>1970-01-01T00:47:26.000Z</time>
      </trkpt>
      <trkpt lat="42.797906" lon="0.564112">
        <ele>849.2</ele>
        <time>1970-01-01T00:47:30.000Z</time>
      </trkpt>
      <trkpt lat="42.797949" lon="0.564135">
        <ele>850.4</ele>
        <time>1970-01-01T00:47:35.000Z</time>
      </trkpt>
      <trkpt lat="42.79799" lon="0.564166">
        <ele>851.4</ele>
        <time>1970-01-01T00:47:40.000Z</time>
      </trkpt>
      <trkpt lat="42.798051" lon="0.564183">
        <ele>852.6</ele>
        <time>1970-01-01T00:47:46.000Z</time>
      </trkpt>
      <trkpt lat="42.798094" lon="0.564173">
        <ele>853.8</ele>
        <time>1970-01-01T00:47:50.000Z</time>
      </trkpt>
      <trkpt lat="42.798108" lon="0.564173">
        <ele>854.2</ele>
        <time>1970-01-01T00:47:51.000Z</time>
      </trkpt>
      <trkpt lat="42.798135" lon="0.56417">
        <ele>854.8</ele>
        <time>1970-01-01T00:47:53.000Z</time>
      </trkpt>
      <trkpt lat="42.798173" lon="0.564162">
        <ele>856</ele>
        <time>1970-01-01T00:47:57.000Z</time>
      </trkpt>
      <trkpt lat="42.798224" lon="0.564147">
        <ele>857.2</ele>
        <time>1970-01-01T00:48:02.000Z</time>
      </trkpt>
      <trkpt lat="42.7983" lon="0.564148">
        <ele>858</ele>
        <time>1970-01-01T00:48:10.000Z</time>
      </trkpt>
      <trkpt lat="42.798356" lon="0.564182">
        <ele>858.2</ele>
        <time>1970-01-01T00:48:53.000Z</time>
      </trkpt>
      <trkpt lat="42.798622" lon="0.564272">
        <ele>858.2</ele>
        <time>1970-01-01T00:49:06.000Z</time>
      </trkpt>
      <trkpt lat="42.798634" lon="0.564265">
        <ele>858.4</ele>
        <time>1970-01-01T00:49:07.000Z</time>
      </trkpt>
      <trkpt lat="42.798661" lon="0.564206">
        <ele>859.6</ele>
        <time>1970-01-01T00:49:11.000Z</time>
      </trkpt>
      <trkpt lat="42.798675" lon="0.564175">
        <ele>860.2</ele>
        <time>1970-01-01T00:49:13.000Z</time>
      </trkpt>
      <trkpt lat="42.798691" lon="0.564154">
        <ele>860.8</ele>
        <time>1970-01-01T00:49:15.000Z</time>
      </trkpt>
      <trkpt lat="42.79873" lon="0.564099">
        <ele>862.2</ele>
        <time>1970-01-01T00:49:19.000Z</time>
      </trkpt>
      <trkpt lat="42.798774" lon="0.564046">
        <ele>863.2</ele>
        <time>1970-01-01T00:49:25.000Z</time>
      </trkpt>
      <trkpt lat="42.79877" lon="0.563962">
        <ele>864.2</ele>
        <time>1970-01-01T00:49:31.000Z</time>
      </trkpt>
      <trkpt lat="42.798797" lon="0.563898">
        <ele>865.4</ele>
        <time>1970-01-01T00:49:37.000Z</time>
      </trkpt>
      <trkpt lat="42.798795" lon="0.563827">
        <ele>866.6</ele>
        <time>1970-01-01T00:49:42.000Z</time>
      </trkpt>
      <trkpt lat="42.798785" lon="0.563773">
        <ele>867.8</ele>
        <time>1970-01-01T00:49:46.000Z</time>
      </trkpt>
      <trkpt lat="42.798793" lon="0.563719">
        <ele>868.8</ele>
        <time>1970-01-01T00:49:50.000Z</time>
      </trkpt>
      <trkpt lat="42.798832" lon="0.563643">
        <ele>870</ele>
        <time>1970-01-01T00:49:56.000Z</time>
      </trkpt>
      <trkpt lat="42.798841" lon="0.56363">
        <ele>870.2</ele>
        <time>1970-01-01T00:49:57.000Z</time>
      </trkpt>
      <trkpt lat="42.798879" lon="0.563571">
        <ele>871.4</ele>
        <time>1970-01-01T00:50:02.000Z</time>
      </trkpt>
      <trkpt lat="42.798927" lon="0.56351">
        <ele>871.8</ele>
        <time>1970-01-01T00:50:11.000Z</time>
      </trkpt>
      <trkpt lat="42.79901" lon="0.56348">
        <ele>872</ele>
        <time>1970-01-01T00:50:37.000Z</time>
      </trkpt>
      <trkpt lat="42.799046" lon="0.563461">
        <ele>871.8</ele>
        <time>1970-01-01T00:50:39.000Z</time>
      </trkpt>
      <trkpt lat="42.799485" lon="0.563213">
        <ele>872.6</ele>
        <time>1970-01-01T00:51:00.000Z</time>
      </trkpt>
      <trkpt lat="42.799618" lon="0.563138">
        <ele>873.6</ele>
        <time>1970-01-01T00:51:07.000Z</time>
      </trkpt>
      <trkpt lat="42.79974" lon="0.563071">
        <ele>874.8</ele>
        <time>1970-01-01T00:51:13.000Z</time>
      </trkpt>
      <trkpt lat="42.799841" lon="0.563026">
        <ele>875.8</ele>
        <time>1970-01-01T00:51:18.000Z</time>
      </trkpt>
      <trkpt lat="42.799935" lon="0.563028">
        <ele>877</ele>
        <time>1970-01-01T00:51:22.000Z</time>
      </trkpt>
      <trkpt lat="42.800062" lon="0.563044">
        <ele>878</ele>
        <time>1970-01-01T00:51:27.000Z</time>
      </trkpt>
      <trkpt lat="42.800475" lon="0.562756">
        <ele>879.2</ele>
        <time>1970-01-01T00:51:42.000Z</time>
      </trkpt>
      <trkpt lat="42.800512" lon="0.562699">
        <ele>880.2</ele>
        <time>1970-01-01T00:51:45.000Z</time>
      </trkpt>
      <trkpt lat="42.800585" lon="0.56256">
        <ele>881.2</ele>
        <time>1970-01-01T00:51:51.000Z</time>
      </trkpt>
      <trkpt lat="42.800645" lon="0.56244">
        <ele>882.4</ele>
        <time>1970-01-01T00:51:56.000Z</time>
      </trkpt>
      <trkpt lat="42.800666" lon="0.562354">
        <ele>883.4</ele>
        <time>1970-01-01T00:52:00.000Z</time>
      </trkpt>
      <trkpt lat="42.800677" lon="0.562332">
        <ele>883.6</ele>
        <time>1970-01-01T00:52:01.000Z</time>
      </trkpt>
      <trkpt lat="42.800711" lon="0.562249">
        <ele>884.4</ele>
        <time>1970-01-01T00:52:05.000Z</time>
      </trkpt>
      <trkpt lat="42.800747" lon="0.562171">
        <ele>885.6</ele>
        <time>1970-01-01T00:52:09.000Z</time>
      </trkpt>
      <trkpt lat="42.800763" lon="0.562103">
        <ele>886.8</ele>
        <time>1970-01-01T00:52:12.000Z</time>
      </trkpt>
      <trkpt lat="42.800798" lon="0.56201">
        <ele>887.8</ele>
        <time>1970-01-01T00:52:17.000Z</time>
      </trkpt>
      <trkpt lat="42.80083" lon="0.561868">
        <ele>889</ele>
        <time>1970-01-01T00:52:23.000Z</time>
      </trkpt>
      <trkpt lat="42.800901" lon="0.561667">
        <ele>890</ele>
        <time>1970-01-01T00:52:32.000Z</time>
      </trkpt>
      <trkpt lat="42.800995" lon="0.561453">
        <ele>891.2</ele>
        <time>1970-01-01T00:52:42.000Z</time>
      </trkpt>
      <trkpt lat="42.801055" lon="0.561258">
        <ele>892.4</ele>
        <time>1970-01-01T00:52:50.000Z</time>
      </trkpt>
      <trkpt lat="42.801103" lon="0.561156">
        <ele>893.6</ele>
        <time>1970-01-01T00:52:57.000Z</time>
      </trkpt>
      <trkpt lat="42.801159" lon="0.561053">
        <ele>894.8</ele>
        <time>1970-01-01T00:53:04.000Z</time>
      </trkpt>
      <trkpt lat="42.8012" lon="0.560973">
        <ele>895.8</ele>
        <time>1970-01-01T00:53:09.000Z</time>
      </trkpt>
      <trkpt lat="42.801249" lon="0.560834">
        <ele>896.8</ele>
        <time>1970-01-01T00:53:16.000Z</time>
      </trkpt>
      <trkpt lat="42.801313" lon="0.560667">
        <ele>898</ele>
        <time>1970-01-01T00:53:24.000Z</time>
      </trkpt>
      <trkpt lat="42.801319" lon="0.560647">
        <ele>898</ele>
        <time>1970-01-01T00:53:25.000Z</time>
      </trkpt>
      <trkpt lat="42.801348" lon="0.560582">
        <ele>899</ele>
        <time>1970-01-01T00:53:30.000Z</time>
      </trkpt>
      <trkpt lat="42.801365" lon="0.560556">
        <ele>899.2</ele>
        <time>1970-01-01T00:53:32.000Z</time>
      </trkpt>
      <trkpt lat="42.801414" lon="0.560461">
        <ele>900.2</ele>
        <time>1970-01-01T00:53:38.000Z</time>
      </trkpt>
      <trkpt lat="42.801529" lon="0.560299">
        <ele>901.2</ele>
        <time>1970-01-01T00:53:48.000Z</time>
      </trkpt>
      <trkpt lat="42.801618" lon="0.56005">
        <ele>902.2</ele>
        <time>1970-01-01T00:54:00.000Z</time>
      </trkpt>
      <trkpt lat="42.801686" lon="0.55986">
        <ele>903.4</ele>
        <time>1970-01-01T00:54:08.000Z</time>
      </trkpt>
      <trkpt lat="42.801747" lon="0.559741">
        <ele>904.4</ele>
        <time>1970-01-01T00:54:14.000Z</time>
      </trkpt>
      <trkpt lat="42.801839" lon="0.559571">
        <ele>905.4</ele>
        <time>1970-01-01T00:54:22.000Z</time>
      </trkpt>
      <trkpt lat="42.801898" lon="0.559395">
        <ele>906.6</ele>
        <time>1970-01-01T00:54:30.000Z</time>
      </trkpt>
      <trkpt lat="42.80194" lon="0.559277">
        <ele>907.8</ele>
        <time>1970-01-01T00:54:36.000Z</time>
      </trkpt>
      <trkpt lat="42.802022" lon="0.55903">
        <ele>908.8</ele>
        <time>1970-01-01T00:54:46.000Z</time>
      </trkpt>
      <trkpt lat="42.802049" lon="0.558916">
        <ele>910</ele>
        <time>1970-01-01T00:54:51.000Z</time>
      </trkpt>
      <trkpt lat="42.802105" lon="0.558777">
        <ele>911</ele>
        <time>1970-01-01T00:54:57.000Z</time>
      </trkpt>
      <trkpt lat="42.802139" lon="0.558589">
        <ele>912</ele>
        <time>1970-01-01T00:55:04.000Z</time>
      </trkpt>
      <trkpt lat="42.802146" lon="0.55856">
        <ele>912</ele>
        <time>1970-01-01T00:55:05.000Z</time>
      </trkpt>
      <trkpt lat="42.802238" lon="0.558259">
        <ele>913.2</ele>
        <time>1970-01-01T00:55:17.000Z</time>
      </trkpt>
      <trkpt lat="42.802276" lon="0.55816">
        <ele>913.4</ele>
        <time>1970-01-01T00:55:21.000Z</time>
      </trkpt>
      <trkpt lat="42.802329" lon="0.55806">
        <ele>914</ele>
        <time>1970-01-01T00:55:25.000Z</time>
      </trkpt>
      <trkpt lat="42.802367" lon="0.557971">
        <ele>914.4</ele>
        <time>1970-01-01T00:55:28.000Z</time>
      </trkpt>
      <trkpt lat="42.802422" lon="0.557787">
        <ele>915.6</ele>
        <time>1970-01-01T00:55:34.000Z</time>
      </trkpt>
      <trkpt lat="42.802447" lon="0.557615">
        <ele>916.6</ele>
        <time>1970-01-01T00:55:40.000Z</time>
      </trkpt>
      <trkpt lat="42.802487" lon="0.557352">
        <ele>917.8</ele>
        <time>1970-01-01T00:55:50.000Z</time>
      </trkpt>
      <trkpt lat="42.802496" lon="0.557053">
        <ele>919</ele>
        <time>1970-01-01T00:56:00.000Z</time>
      </trkpt>
      <trkpt lat="42.80249" lon="0.556916">
        <ele>920</ele>
        <time>1970-01-01T00:56:05.000Z</time>
      </trkpt>
      <trkpt lat="42.802485" lon="0.556777">
        <ele>921.2</ele>
        <time>1970-01-01T00:56:11.000Z</time>
      </trkpt>
      <trkpt lat="42.802486" lon="0.556627">
        <ele>922.2</ele>
        <time>1970-01-01T00:56:17.000Z</time>
      </trkpt>
      <trkpt lat="42.80249" lon="0.556504">
        <ele>923.4</ele>
        <time>1970-01-01T00:56:22.000Z</time>
      </trkpt>
      <trkpt lat="42.802489" lon="0.55636">
        <ele>924.6</ele>
        <time>1970-01-01T00:56:28.000Z</time>
      </trkpt>
      <trkpt lat="42.802493" lon="0.556232">
        <ele>925.6</ele>
        <time>1970-01-01T00:56:33.000Z</time>
      </trkpt>
      <trkpt lat="42.802514" lon="0.556045">
        <ele>926.6</ele>
        <time>1970-01-01T00:56:40.000Z</time>
      </trkpt>
      <trkpt lat="42.802545" lon="0.555804">
        <ele>927.8</ele>
        <time>1970-01-01T00:56:49.000Z</time>
      </trkpt>
      <trkpt lat="42.802696" lon="0.555104">
        <ele>927</ele>
        <time>1970-01-01T00:57:12.000Z</time>
      </trkpt>
      <trkpt lat="42.802814" lon="0.554833">
        <ele>925.8</ele>
        <time>1970-01-01T00:57:17.000Z</time>
      </trkpt>
      <trkpt lat="42.802888" lon="0.554646">
        <ele>924.6</ele>
        <time>1970-01-01T00:57:20.000Z</time>
      </trkpt>
      <trkpt lat="42.802962" lon="0.554434">
        <ele>923.8</ele>
        <time>1970-01-01T00:57:23.000Z</time>
      </trkpt>
      <trkpt lat="42.803066" lon="0.554125">
        <ele>923</ele>
        <time>1970-01-01T00:57:27.000Z</time>
      </trkpt>
      <trkpt lat="42.80311" lon="0.553961">
        <ele>922.6</ele>
        <time>1970-01-01T00:57:29.000Z</time>
      </trkpt>
      <trkpt lat="42.803159" lon="0.553699">
        <ele>921.2</ele>
        <time>1970-01-01T00:57:32.000Z</time>
      </trkpt>
      <trkpt lat="42.803202" lon="0.553318">
        <ele>920</ele>
        <time>1970-01-01T00:57:36.000Z</time>
      </trkpt>
      <trkpt lat="42.803205" lon="0.553125">
        <ele>918.8</ele>
        <time>1970-01-01T00:57:38.000Z</time>
      </trkpt>
      <trkpt lat="42.803149" lon="0.552956">
        <ele>917.8</ele>
        <time>1970-01-01T00:57:40.000Z</time>
      </trkpt>
      <trkpt lat="42.803035" lon="0.552833">
        <ele>916.2</ele>
        <time>1970-01-01T00:57:42.000Z</time>
      </trkpt>
      <trkpt lat="42.80293" lon="0.552725">
        <ele>914.4</ele>
        <time>1970-01-01T00:57:44.000Z</time>
      </trkpt>
      <trkpt lat="42.802885" lon="0.55267">
        <ele>913.6</ele>
        <time>1970-01-01T00:57:45.000Z</time>
      </trkpt>
      <trkpt lat="42.80285" lon="0.552602">
        <ele>912.8</ele>
        <time>1970-01-01T00:57:46.000Z</time>
      </trkpt>
      <trkpt lat="42.802792" lon="0.552435">
        <ele>911.4</ele>
        <time>1970-01-01T00:57:48.000Z</time>
      </trkpt>
      <trkpt lat="42.802767" lon="0.552221">
        <ele>910.2</ele>
        <time>1970-01-01T00:57:50.000Z</time>
      </trkpt>
      <trkpt lat="42.802791" lon="0.551967">
        <ele>909.2</ele>
        <time>1970-01-01T00:57:52.000Z</time>
      </trkpt>
      <trkpt lat="42.802813" lon="0.55183">
        <ele>908.4</ele>
        <time>1970-01-01T00:57:53.000Z</time>
      </trkpt>
      <trkpt lat="42.802828" lon="0.551687">
        <ele>907</ele>
        <time>1970-01-01T00:57:54.000Z</time>
      </trkpt>
      <trkpt lat="42.802834" lon="0.551549">
        <ele>905.2</ele>
        <time>1970-01-01T00:57:55.000Z</time>
      </trkpt>
      <trkpt lat="42.802844" lon="0.551421">
        <ele>903.8</ele>
        <time>1970-01-01T00:57:56.000Z</time>
      </trkpt>
      <trkpt lat="42.802875" lon="0.551299">
        <ele>902.6</ele>
        <time>1970-01-01T00:57:57.000Z</time>
      </trkpt>
      <trkpt lat="42.802923" lon="0.551186">
        <ele>901.8</ele>
        <time>1970-01-01T00:57:58.000Z</time>
      </trkpt>
      <trkpt lat="42.803021" lon="0.550962">
        <ele>900</ele>
        <time>1970-01-01T00:58:00.000Z</time>
      </trkpt>
      <trkpt lat="42.8031" lon="0.550738">
        <ele>898.2</ele>
        <time>1970-01-01T00:58:02.000Z</time>
      </trkpt>
      <trkpt lat="42.803139" lon="0.550622">
        <ele>897.2</ele>
        <time>1970-01-01T00:58:03.000Z</time>
      </trkpt>
      <trkpt lat="42.803166" lon="0.550507">
        <ele>895.8</ele>
        <time>1970-01-01T00:58:04.000Z</time>
      </trkpt>
      <trkpt lat="42.803198" lon="0.550288">
        <ele>894</ele>
        <time>1970-01-01T00:58:06.000Z</time>
      </trkpt>
      <trkpt lat="42.803288" lon="0.550096">
        <ele>892.4</ele>
        <time>1970-01-01T00:58:08.000Z</time>
      </trkpt>
      <trkpt lat="42.803431" lon="0.549956">
        <ele>890.8</ele>
        <time>1970-01-01T00:58:10.000Z</time>
      </trkpt>
      <trkpt lat="42.803496" lon="0.549878">
        <ele>889.6</ele>
        <time>1970-01-01T00:58:11.000Z</time>
      </trkpt>
      <trkpt lat="42.803579" lon="0.549666">
        <ele>887.4</ele>
        <time>1970-01-01T00:58:13.000Z</time>
      </trkpt>
      <trkpt lat="42.803651" lon="0.549424">
        <ele>886</ele>
        <time>1970-01-01T00:58:15.000Z</time>
      </trkpt>
      <trkpt lat="42.803691" lon="0.549318">
        <ele>884.8</ele>
        <time>1970-01-01T00:58:16.000Z</time>
      </trkpt>
      <trkpt lat="42.803739" lon="0.549225">
        <ele>883.6</ele>
        <time>1970-01-01T00:58:17.000Z</time>
      </trkpt>
      <trkpt lat="42.803859" lon="0.549072">
        <ele>882.4</ele>
        <time>1970-01-01T00:58:19.000Z</time>
      </trkpt>
      <trkpt lat="42.803922" lon="0.548995">
        <ele>882</ele>
        <time>1970-01-01T00:58:20.000Z</time>
      </trkpt>
      <trkpt lat="42.803979" lon="0.548913">
        <ele>881.6</ele>
        <time>1970-01-01T00:58:21.000Z</time>
      </trkpt>
      <trkpt lat="42.804028" lon="0.548822">
        <ele>881</ele>
        <time>1970-01-01T00:58:22.000Z</time>
      </trkpt>
      <trkpt lat="42.804155" lon="0.548531">
        <ele>879.6</ele>
        <time>1970-01-01T00:58:25.000Z</time>
      </trkpt>
      <trkpt lat="42.804214" lon="0.548316">
        <ele>878.4</ele>
        <time>1970-01-01T00:58:27.000Z</time>
      </trkpt>
      <trkpt lat="42.80427" lon="0.548079">
        <ele>877.4</ele>
        <time>1970-01-01T00:58:29.000Z</time>
      </trkpt>
      <trkpt lat="42.8043" lon="0.547957">
        <ele>876.2</ele>
        <time>1970-01-01T00:58:30.000Z</time>
      </trkpt>
      <trkpt lat="42.804369" lon="0.547718">
        <ele>874.6</ele>
        <time>1970-01-01T00:58:32.000Z</time>
      </trkpt>
      <trkpt lat="42.804399" lon="0.547603">
        <ele>873.4</ele>
        <time>1970-01-01T00:58:33.000Z</time>
      </trkpt>
      <trkpt lat="42.804405" lon="0.547484">
        <ele>872.4</ele>
        <time>1970-01-01T00:58:34.000Z</time>
      </trkpt>
      <trkpt lat="42.804379" lon="0.547263">
        <ele>870.8</ele>
        <time>1970-01-01T00:58:36.000Z</time>
      </trkpt>
      <trkpt lat="42.804364" lon="0.54716">
        <ele>870.2</ele>
        <time>1970-01-01T00:58:37.000Z</time>
      </trkpt>
      <trkpt lat="42.804352" lon="0.547063">
        <ele>869.6</ele>
        <time>1970-01-01T00:58:38.000Z</time>
      </trkpt>
      <trkpt lat="42.804351" lon="0.54697">
        <ele>869</ele>
        <time>1970-01-01T00:58:39.000Z</time>
      </trkpt>
      <trkpt lat="42.80437" lon="0.546801">
        <ele>868.4</ele>
        <time>1970-01-01T00:58:41.000Z</time>
      </trkpt>
      <trkpt lat="42.804459" lon="0.546402">
        <ele>868.4</ele>
        <time>1970-01-01T00:58:47.000Z</time>
      </trkpt>
      <trkpt lat="42.804396" lon="0.54617">
        <ele>869.4</ele>
        <time>1970-01-01T00:58:58.000Z</time>
      </trkpt>
      <trkpt lat="42.804368" lon="0.546044">
        <ele>869.4</ele>
        <time>1970-01-01T01:00:18.000Z</time>
      </trkpt>
      <trkpt lat="42.804303" lon="0.545893">
        <ele>870.4</ele>
        <time>1970-01-01T01:00:25.000Z</time>
      </trkpt>
      <trkpt lat="42.804294" lon="0.545628">
        <ele>871</ele>
        <time>1970-01-01T01:00:34.000Z</time>
      </trkpt>
      <trkpt lat="42.804371" lon="0.545589">
        <ele>871.2</ele>
        <time>1970-01-01T01:00:38.000Z</time>
      </trkpt>
      <trkpt lat="42.804391" lon="0.545587">
        <ele>871.4</ele>
        <time>1970-01-01T01:00:39.000Z</time>
      </trkpt>
      <trkpt lat="42.804484" lon="0.545583">
        <ele>871.4</ele>
        <time>1970-01-01T01:00:44.000Z</time>
      </trkpt>
      <trkpt lat="42.80459" lon="0.545426">
        <ele>872.4</ele>
        <time>1970-01-01T01:00:55.000Z</time>
      </trkpt>
      <trkpt lat="42.804613" lon="0.545274">
        <ele>873.6</ele>
        <time>1970-01-01T01:01:02.000Z</time>
      </trkpt>
      <trkpt lat="42.804612" lon="0.545227">
        <ele>874.2</ele>
        <time>1970-01-01T01:01:04.000Z</time>
      </trkpt>
      <trkpt lat="42.804614" lon="0.545148">
        <ele>874.8</ele>
        <time>1970-01-01T01:01:07.000Z</time>
      </trkpt>
      <trkpt lat="42.804621" lon="0.54504">
        <ele>876</ele>
        <time>1970-01-01T01:01:11.000Z</time>
      </trkpt>
      <trkpt lat="42.804642" lon="0.544913">
        <ele>877</ele>
        <time>1970-01-01T01:01:16.000Z</time>
      </trkpt>
      <trkpt lat="42.804694" lon="0.544811">
        <ele>878.2</ele>
        <time>1970-01-01T01:01:21.000Z</time>
      </trkpt>
      <trkpt lat="42.804738" lon="0.544706">
        <ele>879.4</ele>
        <time>1970-01-01T01:01:26.000Z</time>
      </trkpt>
      <trkpt lat="42.80482" lon="0.544572">
        <ele>880.6</ele>
        <time>1970-01-01T01:01:33.000Z</time>
      </trkpt>
      <trkpt lat="42.804885" lon="0.54442">
        <ele>881.8</ele>
        <time>1970-01-01T01:01:40.000Z</time>
      </trkpt>
      <trkpt lat="42.804962" lon="0.544338">
        <ele>883</ele>
        <time>1970-01-01T01:01:46.000Z</time>
      </trkpt>
      <trkpt lat="42.805009" lon="0.544374">
        <ele>884</ele>
        <time>1970-01-01T01:01:50.000Z</time>
      </trkpt>
      <trkpt lat="42.804965" lon="0.544474">
        <ele>885.4</ele>
        <time>1970-01-01T01:01:55.000Z</time>
      </trkpt>
      <trkpt lat="42.804934" lon="0.54462">
        <ele>886.6</ele>
        <time>1970-01-01T01:02:02.000Z</time>
      </trkpt>
      <trkpt lat="42.804928" lon="0.544771">
        <ele>887.6</ele>
        <time>1970-01-01T01:02:09.000Z</time>
      </trkpt>
      <trkpt lat="42.804931" lon="0.544875">
        <ele>888.8</ele>
        <time>1970-01-01T01:02:14.000Z</time>
      </trkpt>
      <trkpt lat="42.804943" lon="0.544979">
        <ele>890</ele>
        <time>1970-01-01T01:02:19.000Z</time>
      </trkpt>
      <trkpt lat="42.804945" lon="0.545001">
        <ele>890.2</ele>
        <time>1970-01-01T01:02:20.000Z</time>
      </trkpt>
      <trkpt lat="42.804963" lon="0.545079">
        <ele>890.6</ele>
        <time>1970-01-01T01:02:24.000Z</time>
      </trkpt>
      <trkpt lat="42.804972" lon="0.545122">
        <ele>891</ele>
        <time>1970-01-01T01:02:26.000Z</time>
      </trkpt>
      <trkpt lat="42.805007" lon="0.545318">
        <ele>892</ele>
        <time>1970-01-01T01:02:35.000Z</time>
      </trkpt>
      <trkpt lat="42.805042" lon="0.545437">
        <ele>893</ele>
        <time>1970-01-01T01:02:41.000Z</time>
      </trkpt>
      <trkpt lat="42.805101" lon="0.545562">
        <ele>894.4</ele>
        <time>1970-01-01T01:02:48.000Z</time>
      </trkpt>
      <trkpt lat="42.805159" lon="0.545648">
        <ele>895.4</ele>
        <time>1970-01-01T01:02:54.000Z</time>
      </trkpt>
      <trkpt lat="42.805217" lon="0.545735">
        <ele>896.6</ele>
        <time>1970-01-01T01:03:00.000Z</time>
      </trkpt>
      <trkpt lat="42.805278" lon="0.545811">
        <ele>898</ele>
        <time>1970-01-01T01:03:06.000Z</time>
      </trkpt>
      <trkpt lat="42.805333" lon="0.545875">
        <ele>899.2</ele>
        <time>1970-01-01T01:03:11.000Z</time>
      </trkpt>
      <trkpt lat="42.805406" lon="0.545957">
        <ele>900.4</ele>
        <time>1970-01-01T01:03:17.000Z</time>
      </trkpt>
      <trkpt lat="42.805459" lon="0.546035">
        <ele>901.4</ele>
        <time>1970-01-01T01:03:22.000Z</time>
      </trkpt>
      <trkpt lat="42.805511" lon="0.546165">
        <ele>902.6</ele>
        <time>1970-01-01T01:03:29.000Z</time>
      </trkpt>
      <trkpt lat="42.805531" lon="0.546342">
        <ele>903.6</ele>
        <time>1970-01-01T01:03:37.000Z</time>
      </trkpt>
      <trkpt lat="42.80556" lon="0.546453">
        <ele>905</ele>
        <time>1970-01-01T01:03:42.000Z</time>
      </trkpt>
      <trkpt lat="42.805592" lon="0.546628">
        <ele>906.2</ele>
        <time>1970-01-01T01:03:50.000Z</time>
      </trkpt>
      <trkpt lat="42.80563" lon="0.546731">
        <ele>907.2</ele>
        <time>1970-01-01T01:03:55.000Z</time>
      </trkpt>
      <trkpt lat="42.805719" lon="0.546883">
        <ele>908.2</ele>
        <time>1970-01-01T01:04:03.000Z</time>
      </trkpt>
      <trkpt lat="42.805814" lon="0.547049">
        <ele>909.4</ele>
        <time>1970-01-01T01:04:12.000Z</time>
      </trkpt>
      <trkpt lat="42.805858" lon="0.547118">
        <ele>910</ele>
        <time>1970-01-01T01:04:16.000Z</time>
      </trkpt>
      <trkpt lat="42.805886" lon="0.547143">
        <ele>910.4</ele>
        <time>1970-01-01T01:04:18.000Z</time>
      </trkpt>
      <trkpt lat="42.805962" lon="0.547216">
        <ele>911.4</ele>
        <time>1970-01-01T01:04:24.000Z</time>
      </trkpt>
      <trkpt lat="42.806057" lon="0.547289">
        <ele>912.6</ele>
        <time>1970-01-01T01:04:31.000Z</time>
      </trkpt>
      <trkpt lat="42.806107" lon="0.547323">
        <ele>913.6</ele>
        <time>1970-01-01T01:04:35.000Z</time>
      </trkpt>
      <trkpt lat="42.806187" lon="0.54738">
        <ele>914.8</ele>
        <time>1970-01-01T01:04:41.000Z</time>
      </trkpt>
      <trkpt lat="42.80624" lon="0.547451">
        <ele>916</ele>
        <time>1970-01-01T01:04:46.000Z</time>
      </trkpt>
      <trkpt lat="42.80628" lon="0.547581">
        <ele>917</ele>
        <time>1970-01-01T01:04:52.000Z</time>
      </trkpt>
      <trkpt lat="42.806304" lon="0.547671">
        <ele>918.2</ele>
        <time>1970-01-01T01:04:56.000Z</time>
      </trkpt>
      <trkpt lat="42.806313" lon="0.547863">
        <ele>919.4</ele>
        <time>1970-01-01T01:05:04.000Z</time>
      </trkpt>
      <trkpt lat="42.806325" lon="0.548001">
        <ele>920.6</ele>
        <time>1970-01-01T01:05:10.000Z</time>
      </trkpt>
      <trkpt lat="42.806323" lon="0.548156">
        <ele>921.6</ele>
        <time>1970-01-01T01:05:17.000Z</time>
      </trkpt>
      <trkpt lat="42.80627" lon="0.548317">
        <ele>922.8</ele>
        <time>1970-01-01T01:05:25.000Z</time>
      </trkpt>
      <trkpt lat="42.806254" lon="0.548356">
        <ele>923</ele>
        <time>1970-01-01T01:05:27.000Z</time>
      </trkpt>
      <trkpt lat="42.806223" lon="0.548456">
        <ele>924</ele>
        <time>1970-01-01T01:05:32.000Z</time>
      </trkpt>
      <trkpt lat="42.806205" lon="0.548598">
        <ele>925.2</ele>
        <time>1970-01-01T01:05:39.000Z</time>
      </trkpt>
      <trkpt lat="42.806239" lon="0.548662">
        <ele>926</ele>
        <time>1970-01-01T01:05:43.000Z</time>
      </trkpt>
      <trkpt lat="42.806259" lon="0.548673">
        <ele>926.2</ele>
        <time>1970-01-01T01:05:46.000Z</time>
      </trkpt>
      <trkpt lat="42.806274" lon="0.54868">
        <ele>926.4</ele>
        <time>1970-01-01T01:05:48.000Z</time>
      </trkpt>
      <trkpt lat="42.806314" lon="0.548579">
        <ele>926.8</ele>
        <time>1970-01-01T01:05:53.000Z</time>
      </trkpt>
      <trkpt lat="42.806325" lon="0.548496">
        <ele>927.6</ele>
        <time>1970-01-01T01:05:56.000Z</time>
      </trkpt>
      <trkpt lat="42.806361" lon="0.548372">
        <ele>928.6</ele>
        <time>1970-01-01T01:06:01.000Z</time>
      </trkpt>
      <trkpt lat="42.806414" lon="0.548247">
        <ele>929.8</ele>
        <time>1970-01-01T01:06:06.000Z</time>
      </trkpt>
      <trkpt lat="42.806468" lon="0.54808">
        <ele>931</ele>
        <time>1970-01-01T01:06:13.000Z</time>
      </trkpt>
      <trkpt lat="42.80651" lon="0.547992">
        <ele>931.8</ele>
        <time>1970-01-01T01:06:18.000Z</time>
      </trkpt>
      <trkpt lat="42.806525" lon="0.548">
        <ele>932</ele>
        <time>1970-01-01T01:06:19.000Z</time>
      </trkpt>
      <trkpt lat="42.806492" lon="0.548152">
        <ele>933</ele>
        <time>1970-01-01T01:06:26.000Z</time>
      </trkpt>
      <trkpt lat="42.806467" lon="0.548299">
        <ele>934.6</ele>
        <time>1970-01-01T01:06:33.000Z</time>
      </trkpt>
      <trkpt lat="42.806469" lon="0.548321">
        <ele>935</ele>
        <time>1970-01-01T01:06:34.000Z</time>
      </trkpt>
      <trkpt lat="42.806474" lon="0.548362">
        <ele>935.6</ele>
        <time>1970-01-01T01:06:36.000Z</time>
      </trkpt>
      <trkpt lat="42.806505" lon="0.548412">
        <ele>936.8</ele>
        <time>1970-01-01T01:06:40.000Z</time>
      </trkpt>
      <trkpt lat="42.806516" lon="0.548416">
        <ele>937</ele>
        <time>1970-01-01T01:06:41.000Z</time>
      </trkpt>
      <trkpt lat="42.806554" lon="0.548418">
        <ele>937.8</ele>
        <time>1970-01-01T01:06:44.000Z</time>
      </trkpt>
      <trkpt lat="42.806577" lon="0.54842">
        <ele>938.4</ele>
        <time>1970-01-01T01:06:46.000Z</time>
      </trkpt>
      <trkpt lat="42.806587" lon="0.548421">
        <ele>938.8</ele>
        <time>1970-01-01T01:06:47.000Z</time>
      </trkpt>
      <trkpt lat="42.806627" lon="0.548423">
        <ele>940.2</ele>
        <time>1970-01-01T01:06:50.000Z</time>
      </trkpt>
      <trkpt lat="42.806678" lon="0.548422">
        <ele>941.4</ele>
        <time>1970-01-01T01:06:54.000Z</time>
      </trkpt>
      <trkpt lat="42.806739" lon="0.548414">
        <ele>942.8</ele>
        <time>1970-01-01T01:06:59.000Z</time>
      </trkpt>
      <trkpt lat="42.806804" lon="0.548468">
        <ele>944</ele>
        <time>1970-01-01T01:07:05.000Z</time>
      </trkpt>
      <trkpt lat="42.806823" lon="0.548551">
        <ele>945.2</ele>
        <time>1970-01-01T01:07:09.000Z</time>
      </trkpt>
      <trkpt lat="42.80686" lon="0.548668">
        <ele>946.6</ele>
        <time>1970-01-01T01:07:15.000Z</time>
      </trkpt>
      <trkpt lat="42.806888" lon="0.548783">
        <ele>947.6</ele>
        <time>1970-01-01T01:07:21.000Z</time>
      </trkpt>
      <trkpt lat="42.806894" lon="0.548803">
        <ele>947.8</ele>
        <time>1970-01-01T01:07:22.000Z</time>
      </trkpt>
      <trkpt lat="42.806912" lon="0.548918">
        <ele>948.6</ele>
        <time>1970-01-01T01:07:28.000Z</time>
      </trkpt>
      <trkpt lat="42.806942" lon="0.549035">
        <ele>950</ele>
        <time>1970-01-01T01:07:34.000Z</time>
      </trkpt>
      <trkpt lat="42.806965" lon="0.549156">
        <ele>951</ele>
        <time>1970-01-01T01:07:40.000Z</time>
      </trkpt>
      <trkpt lat="42.806998" lon="0.549323">
        <ele>952.2</ele>
        <time>1970-01-01T01:07:49.000Z</time>
      </trkpt>
      <trkpt lat="42.807029" lon="0.549449">
        <ele>953.2</ele>
        <time>1970-01-01T01:07:56.000Z</time>
      </trkpt>
      <trkpt lat="42.807057" lon="0.549611">
        <ele>954.4</ele>
        <time>1970-01-01T01:08:04.000Z</time>
      </trkpt>
      <trkpt lat="42.807069" lon="0.549692">
        <ele>955</ele>
        <time>1970-01-01T01:08:10.000Z</time>
      </trkpt>
      <trkpt lat="42.807103" lon="0.549778">
        <ele>955.8</ele>
        <time>1970-01-01T01:09:05.000Z</time>
      </trkpt>
      <trkpt lat="42.807118" lon="0.549874">
        <ele>956.4</ele>
        <time>1970-01-01T01:09:09.000Z</time>
      </trkpt>
      <trkpt lat="42.807134" lon="0.549945">
        <ele>956.8</ele>
        <time>1970-01-01T01:09:12.000Z</time>
      </trkpt>
      <trkpt lat="42.807161" lon="0.550072">
        <ele>958</ele>
        <time>1970-01-01T01:09:17.000Z</time>
      </trkpt>
      <trkpt lat="42.807181" lon="0.55016">
        <ele>958.8</ele>
        <time>1970-01-01T01:09:23.000Z</time>
      </trkpt>
      <trkpt lat="42.807204" lon="0.55022">
        <ele>959.2</ele>
        <time>1970-01-01T01:09:53.000Z</time>
      </trkpt>
      <trkpt lat="42.807206" lon="0.550244">
        <ele>959.6</ele>
        <time>1970-01-01T01:09:54.000Z</time>
      </trkpt>
      <trkpt lat="42.807226" lon="0.55038">
        <ele>960.6</ele>
        <time>1970-01-01T01:09:59.000Z</time>
      </trkpt>
      <trkpt lat="42.807242" lon="0.550504">
        <ele>961.6</ele>
        <time>1970-01-01T01:10:04.000Z</time>
      </trkpt>
      <trkpt lat="42.807278" lon="0.550727">
        <ele>962.6</ele>
        <time>1970-01-01T01:10:12.000Z</time>
      </trkpt>
      <trkpt lat="42.807301" lon="0.550908">
        <ele>963.8</ele>
        <time>1970-01-01T01:10:19.000Z</time>
      </trkpt>
      <trkpt lat="42.807321" lon="0.551056">
        <ele>964.8</ele>
        <time>1970-01-01T01:10:24.000Z</time>
      </trkpt>
      <trkpt lat="42.807335" lon="0.551195">
        <ele>965.8</ele>
        <time>1970-01-01T01:10:29.000Z</time>
      </trkpt>
      <trkpt lat="42.807352" lon="0.551302">
        <ele>967</ele>
        <time>1970-01-01T01:10:33.000Z</time>
      </trkpt>
      <trkpt lat="42.807365" lon="0.55141">
        <ele>968.2</ele>
        <time>1970-01-01T01:10:37.000Z</time>
      </trkpt>
      <trkpt lat="42.807379" lon="0.551514">
        <ele>969.6</ele>
        <time>1970-01-01T01:10:41.000Z</time>
      </trkpt>
      <trkpt lat="42.807396" lon="0.551636">
        <ele>970.8</ele>
        <time>1970-01-01T01:10:46.000Z</time>
      </trkpt>
      <trkpt lat="42.807414" lon="0.551758">
        <ele>972</ele>
        <time>1970-01-01T01:10:51.000Z</time>
      </trkpt>
      <trkpt lat="42.807427" lon="0.551884">
        <ele>973.4</ele>
        <time>1970-01-01T01:10:56.000Z</time>
      </trkpt>
      <trkpt lat="42.80745" lon="0.552008">
        <ele>974.4</ele>
        <time>1970-01-01T01:11:01.000Z</time>
      </trkpt>
      <trkpt lat="42.807465" lon="0.552143">
        <ele>975.4</ele>
        <time>1970-01-01T01:11:06.000Z</time>
      </trkpt>
      <trkpt lat="42.807477" lon="0.552328">
        <ele>976.4</ele>
        <time>1970-01-01T01:11:13.000Z</time>
      </trkpt>
      <trkpt lat="42.807493" lon="0.55246">
        <ele>977.8</ele>
        <time>1970-01-01T01:11:18.000Z</time>
      </trkpt>
      <trkpt lat="42.807508" lon="0.552611">
        <ele>978.6</ele>
        <time>1970-01-01T01:11:26.000Z</time>
      </trkpt>
      <trkpt lat="42.807515" lon="0.552645">
        <ele>978.6</ele>
        <time>1970-01-01T01:12:24.000Z</time>
      </trkpt>
      <trkpt lat="42.807571" lon="0.552896">
        <ele>979</ele>
        <time>1970-01-01T01:12:34.000Z</time>
      </trkpt>
      <trkpt lat="42.807606" lon="0.553008">
        <ele>980</ele>
        <time>1970-01-01T01:12:39.000Z</time>
      </trkpt>
      <trkpt lat="42.807651" lon="0.553137">
        <ele>981.4</ele>
        <time>1970-01-01T01:12:45.000Z</time>
      </trkpt>
      <trkpt lat="42.807685" lon="0.553249">
        <ele>982.6</ele>
        <time>1970-01-01T01:12:51.000Z</time>
      </trkpt>
      <trkpt lat="42.807714" lon="0.55336">
        <ele>983.6</ele>
        <time>1970-01-01T01:12:57.000Z</time>
      </trkpt>
      <trkpt lat="42.807738" lon="0.553483">
        <ele>984.6</ele>
        <time>1970-01-01T01:13:03.000Z</time>
      </trkpt>
      <trkpt lat="42.807753" lon="0.553576">
        <ele>985</ele>
        <time>1970-01-01T01:13:07.000Z</time>
      </trkpt>
      <trkpt lat="42.807774" lon="0.553758">
        <ele>985.8</ele>
        <time>1970-01-01T01:13:15.000Z</time>
      </trkpt>
      <trkpt lat="42.807793" lon="0.553869">
        <ele>987</ele>
        <time>1970-01-01T01:13:21.000Z</time>
      </trkpt>
      <trkpt lat="42.807808" lon="0.553989">
        <ele>988.2</ele>
        <time>1970-01-01T01:13:27.000Z</time>
      </trkpt>
      <trkpt lat="42.807834" lon="0.554209">
        <ele>989.4</ele>
        <time>1970-01-01T01:13:38.000Z</time>
      </trkpt>
      <trkpt lat="42.807851" lon="0.554389">
        <ele>990.6</ele>
        <time>1970-01-01T01:13:46.000Z</time>
      </trkpt>
      <trkpt lat="42.807867" lon="0.554506">
        <ele>991.6</ele>
        <time>1970-01-01T01:13:54.000Z</time>
      </trkpt>
      <trkpt lat="42.807875" lon="0.554639">
        <ele>992.4</ele>
        <time>1970-01-01T01:14:08.000Z</time>
      </trkpt>
      <trkpt lat="42.807877" lon="0.554659">
        <ele>992.6</ele>
        <time>1970-01-01T01:14:09.000Z</time>
      </trkpt>
      <trkpt lat="42.807905" lon="0.554784">
        <ele>993.8</ele>
        <time>1970-01-01T01:14:16.000Z</time>
      </trkpt>
      <trkpt lat="42.807912" lon="0.554801">
        <ele>994.4</ele>
        <time>1970-01-01T01:14:19.000Z</time>
      </trkpt>
      <trkpt lat="42.807927" lon="0.554883">
        <ele>995.4</ele>
        <time>1970-01-01T01:14:25.000Z</time>
      </trkpt>
      <trkpt lat="42.807943" lon="0.554948">
        <ele>996.6</ele>
        <time>1970-01-01T01:14:29.000Z</time>
      </trkpt>
      <trkpt lat="42.807961" lon="0.555026">
        <ele>997.8</ele>
        <time>1970-01-01T01:14:33.000Z</time>
      </trkpt>
      <trkpt lat="42.807976" lon="0.555081">
        <ele>998.8</ele>
        <time>1970-01-01T01:14:36.000Z</time>
      </trkpt>
      <trkpt lat="42.807989" lon="0.555138">
        <ele>1000</ele>
        <time>1970-01-01T01:14:39.000Z</time>
      </trkpt>
      <trkpt lat="42.808016" lon="0.555225">
        <ele>1001</ele>
        <time>1970-01-01T01:14:44.000Z</time>
      </trkpt>
      <trkpt lat="42.808041" lon="0.555313">
        <ele>1002.2</ele>
        <time>1970-01-01T01:14:49.000Z</time>
      </trkpt>
      <trkpt lat="42.808053" lon="0.555371">
        <ele>1003.2</ele>
        <time>1970-01-01T01:14:53.000Z</time>
      </trkpt>
      <trkpt lat="42.808066" lon="0.555428">
        <ele>1004.4</ele>
        <time>1970-01-01T01:14:57.000Z</time>
      </trkpt>
      <trkpt lat="42.808075" lon="0.555477">
        <ele>1005.4</ele>
        <time>1970-01-01T01:15:00.000Z</time>
      </trkpt>
      <trkpt lat="42.808092" lon="0.555536">
        <ele>1006.6</ele>
        <time>1970-01-01T01:15:04.000Z</time>
      </trkpt>
      <trkpt lat="42.808106" lon="0.555602">
        <ele>1007.6</ele>
        <time>1970-01-01T01:15:08.000Z</time>
      </trkpt>
      <trkpt lat="42.80812" lon="0.555692">
        <ele>1008.8</ele>
        <time>1970-01-01T01:15:14.000Z</time>
      </trkpt>
      <trkpt lat="42.808136" lon="0.555783">
        <ele>1010.4</ele>
        <time>1970-01-01T01:15:20.000Z</time>
      </trkpt>
      <trkpt lat="42.808153" lon="0.555902">
        <ele>1011.4</ele>
        <time>1970-01-01T01:15:27.000Z</time>
      </trkpt>
      <trkpt lat="42.808164" lon="0.556008">
        <ele>1012.6</ele>
        <time>1970-01-01T01:15:33.000Z</time>
      </trkpt>
      <trkpt lat="42.808188" lon="0.556082">
        <ele>1013.6</ele>
        <time>1970-01-01T01:15:38.000Z</time>
      </trkpt>
      <trkpt lat="42.808238" lon="0.556188">
        <ele>1014.8</ele>
        <time>1970-01-01T01:15:46.000Z</time>
      </trkpt>
      <trkpt lat="42.808286" lon="0.556282">
        <ele>1016</ele>
        <time>1970-01-01T01:15:53.000Z</time>
      </trkpt>
      <trkpt lat="42.808343" lon="0.556373">
        <ele>1017</ele>
        <time>1970-01-01T01:16:00.000Z</time>
      </trkpt>
      <trkpt lat="42.808394" lon="0.556456">
        <ele>1018.4</ele>
        <time>1970-01-01T01:16:07.000Z</time>
      </trkpt>
      <trkpt lat="42.808422" lon="0.556503">
        <ele>1019.6</ele>
        <time>1970-01-01T01:16:11.000Z</time>
      </trkpt>
      <trkpt lat="42.808479" lon="0.556621">
        <ele>1020.8</ele>
        <time>1970-01-01T01:16:19.000Z</time>
      </trkpt>
      <trkpt lat="42.808492" lon="0.556708">
        <ele>1022</ele>
        <time>1970-01-01T01:16:24.000Z</time>
      </trkpt>
      <trkpt lat="42.808504" lon="0.55682">
        <ele>1023</ele>
        <time>1970-01-01T01:16:30.000Z</time>
      </trkpt>
      <trkpt lat="42.808515" lon="0.556974">
        <ele>1024.2</ele>
        <time>1970-01-01T01:16:38.000Z</time>
      </trkpt>
      <trkpt lat="42.808514" lon="0.557023">
        <ele>1025.4</ele>
        <time>1970-01-01T01:16:41.000Z</time>
      </trkpt>
      <trkpt lat="42.808519" lon="0.55703">
        <ele>1025.6</ele>
        <time>1970-01-01T01:16:44.000Z</time>
      </trkpt>
      <trkpt lat="42.808538" lon="0.557051">
        <ele>1025.2</ele>
        <time>1970-01-01T01:21:13.000Z</time>
      </trkpt>
      <trkpt lat="42.808971" lon="0.55731">
        <ele>1024</ele>
        <time>1970-01-01T01:21:28.000Z</time>
      </trkpt>
      <trkpt lat="42.809066" lon="0.557325">
        <ele>1023.6</ele>
        <time>1970-01-01T01:21:30.000Z</time>
      </trkpt>
      <trkpt lat="42.809292" lon="0.55733">
        <ele>1022.8</ele>
        <time>1970-01-01T01:21:34.000Z</time>
      </trkpt>
      <trkpt lat="42.809856" lon="0.557329">
        <ele>1023.8</ele>
        <time>1970-01-01T01:21:49.000Z</time>
      </trkpt>
      <trkpt lat="42.809886" lon="0.55731">
        <ele>1024</ele>
        <time>1970-01-01T01:21:50.000Z</time>
      </trkpt>
      <trkpt lat="42.809959" lon="0.55725">
        <ele>1024.4</ele>
        <time>1970-01-01T01:21:54.000Z</time>
      </trkpt>
      <trkpt lat="42.810258" lon="0.556882">
        <ele>1022.8</ele>
        <time>1970-01-01T01:22:08.000Z</time>
      </trkpt>
      <trkpt lat="42.810504" lon="0.556665">
        <ele>1022.6</ele>
        <time>1970-01-01T01:22:15.000Z</time>
      </trkpt>
      <trkpt lat="42.811007" lon="0.556371">
        <ele>1022.8</ele>
        <time>1970-01-01T01:22:28.000Z</time>
      </trkpt>
      <trkpt lat="42.811493" lon="0.556032">
        <ele>1022.6</ele>
        <time>1970-01-01T01:22:39.000Z</time>
      </trkpt>
      <trkpt lat="42.811589" lon="0.555978">
        <ele>1022.6</ele>
        <time>1970-01-01T01:22:41.000Z</time>
      </trkpt>
      <trkpt lat="42.81183" lon="0.555802">
        <ele>1022.2</ele>
        <time>1970-01-01T01:22:46.000Z</time>
      </trkpt>
      <trkpt lat="42.811981" lon="0.555748">
        <ele>1022.4</ele>
        <time>1970-01-01T01:22:49.000Z</time>
      </trkpt>
      <trkpt lat="42.812389" lon="0.555506">
        <ele>1021.8</ele>
        <time>1970-01-01T01:22:57.000Z</time>
      </trkpt>
      <trkpt lat="42.812631" lon="0.555363">
        <ele>1021.2</ele>
        <time>1970-01-01T01:23:09.000Z</time>
      </trkpt>
      <trkpt lat="42.8127" lon="0.555336">
        <ele>1021</ele>
        <time>1970-01-01T01:23:20.000Z</time>
      </trkpt>
      <trkpt lat="42.813181" lon="0.554947">
        <ele>1020.4</ele>
        <time>1970-01-01T01:23:38.000Z</time>
      </trkpt>
      <trkpt lat="42.813651" lon="0.554532">
        <ele>1021.2</ele>
        <time>1970-01-01T01:23:53.000Z</time>
      </trkpt>
      <trkpt lat="42.813928" lon="0.554416">
        <ele>1020.8</ele>
        <time>1970-01-01T01:23:59.000Z</time>
      </trkpt>
      <trkpt lat="42.814067" lon="0.554337">
        <ele>1020.8</ele>
        <time>1970-01-01T01:24:02.000Z</time>
      </trkpt>
      <trkpt lat="42.814155" lon="0.554277">
        <ele>1021</ele>
        <time>1970-01-01T01:24:04.000Z</time>
      </trkpt>
      <trkpt lat="42.81446" lon="0.554117">
        <ele>1020.2</ele>
        <time>1970-01-01T01:24:13.000Z</time>
      </trkpt>
      <trkpt lat="42.815025" lon="0.55397">
        <ele>1018.6</ele>
        <time>1970-01-01T01:24:26.000Z</time>
      </trkpt>
      <trkpt lat="42.815133" lon="0.553939">
        <ele>1018.6</ele>
        <time>1970-01-01T01:24:28.000Z</time>
      </trkpt>
      <trkpt lat="42.815298" lon="0.553872">
        <ele>1017.8</ele>
        <time>1970-01-01T01:24:31.000Z</time>
      </trkpt>
      <trkpt lat="42.815345" lon="0.553844">
        <ele>1017.4</ele>
        <time>1970-01-01T01:24:32.000Z</time>
      </trkpt>
      <trkpt lat="42.815484" lon="0.553595">
        <ele>1018.2</ele>
        <time>1970-01-01T01:24:43.000Z</time>
      </trkpt>
      <trkpt lat="42.81554" lon="0.553506">
        <ele>1019</ele>
        <time>1970-01-01T01:24:47.000Z</time>
      </trkpt>
      <trkpt lat="42.815607" lon="0.553404">
        <ele>1020</ele>
        <time>1970-01-01T01:24:52.000Z</time>
      </trkpt>
      <trkpt lat="42.815683" lon="0.553278">
        <ele>1021</ele>
        <time>1970-01-01T01:24:58.000Z</time>
      </trkpt>
      <trkpt lat="42.815756" lon="0.553188">
        <ele>1021.8</ele>
        <time>1970-01-01T01:25:03.000Z</time>
      </trkpt>
      <trkpt lat="42.815829" lon="0.553063">
        <ele>1023</ele>
        <time>1970-01-01T01:25:09.000Z</time>
      </trkpt>
      <trkpt lat="42.815894" lon="0.552963">
        <ele>1023.8</ele>
        <time>1970-01-01T01:25:14.000Z</time>
      </trkpt>
      <trkpt lat="42.815971" lon="0.552838">
        <ele>1024.8</ele>
        <time>1970-01-01T01:25:20.000Z</time>
      </trkpt>
      <trkpt lat="42.816043" lon="0.552751">
        <ele>1026</ele>
        <time>1970-01-01T01:25:25.000Z</time>
      </trkpt>
      <trkpt lat="42.8161" lon="0.55268">
        <ele>1027.2</ele>
        <time>1970-01-01T01:25:29.000Z</time>
      </trkpt>
      <trkpt lat="42.816167" lon="0.552587">
        <ele>1028.2</ele>
        <time>1970-01-01T01:25:34.000Z</time>
      </trkpt>
      <trkpt lat="42.816181" lon="0.55257">
        <ele>1028.6</ele>
        <time>1970-01-01T01:25:35.000Z</time>
      </trkpt>
      <trkpt lat="42.816254" lon="0.552483">
        <ele>1029.2</ele>
        <time>1970-01-01T01:25:40.000Z</time>
      </trkpt>
      <trkpt lat="42.816354" lon="0.552401">
        <ele>1030.2</ele>
        <time>1970-01-01T01:25:46.000Z</time>
      </trkpt>
      <trkpt lat="42.816436" lon="0.552334">
        <ele>1031.4</ele>
        <time>1970-01-01T01:25:51.000Z</time>
      </trkpt>
      <trkpt lat="42.816525" lon="0.552272">
        <ele>1032.6</ele>
        <time>1970-01-01T01:25:56.000Z</time>
      </trkpt>
      <trkpt lat="42.816632" lon="0.552195">
        <ele>1033.8</ele>
        <time>1970-01-01T01:26:02.000Z</time>
      </trkpt>
      <trkpt lat="42.816712" lon="0.552121">
        <ele>1034.8</ele>
        <time>1970-01-01T01:26:07.000Z</time>
      </trkpt>
      <trkpt lat="42.816788" lon="0.552039">
        <ele>1035.8</ele>
        <time>1970-01-01T01:26:12.000Z</time>
      </trkpt>
      <trkpt lat="42.81687" lon="0.551922">
        <ele>1037</ele>
        <time>1970-01-01T01:26:18.000Z</time>
      </trkpt>
      <trkpt lat="42.816937" lon="0.551828">
        <ele>1038.2</ele>
        <time>1970-01-01T01:26:23.000Z</time>
      </trkpt>
      <trkpt lat="42.817018" lon="0.551714">
        <ele>1039.4</ele>
        <time>1970-01-01T01:26:29.000Z</time>
      </trkpt>
      <trkpt lat="42.81711" lon="0.551585">
        <ele>1040.4</ele>
        <time>1970-01-01T01:26:36.000Z</time>
      </trkpt>
      <trkpt lat="42.81716" lon="0.551516">
        <ele>1041.4</ele>
        <time>1970-01-01T01:26:40.000Z</time>
      </trkpt>
      <trkpt lat="42.817209" lon="0.551442">
        <ele>1042.6</ele>
        <time>1970-01-01T01:26:44.000Z</time>
      </trkpt>
      <trkpt lat="42.817275" lon="0.551361">
        <ele>1043.6</ele>
        <time>1970-01-01T01:26:49.000Z</time>
      </trkpt>
      <trkpt lat="42.817319" lon="0.551252">
        <ele>1044.8</ele>
        <time>1970-01-01T01:26:54.000Z</time>
      </trkpt>
      <trkpt lat="42.817368" lon="0.551157">
        <ele>1046</ele>
        <time>1970-01-01T01:26:59.000Z</time>
      </trkpt>
      <trkpt lat="42.817404" lon="0.55108">
        <ele>1047</ele>
        <time>1970-01-01T01:27:03.000Z</time>
      </trkpt>
      <trkpt lat="42.817438" lon="0.550941">
        <ele>1048</ele>
        <time>1970-01-01T01:27:09.000Z</time>
      </trkpt>
      <trkpt lat="42.817472" lon="0.55083">
        <ele>1049.2</ele>
        <time>1970-01-01T01:27:14.000Z</time>
      </trkpt>
      <trkpt lat="42.817555" lon="0.550701">
        <ele>1050.2</ele>
        <time>1970-01-01T01:27:21.000Z</time>
      </trkpt>
      <trkpt lat="42.81763" lon="0.550625">
        <ele>1051.4</ele>
        <time>1970-01-01T01:27:26.000Z</time>
      </trkpt>
      <trkpt lat="42.817727" lon="0.550531">
        <ele>1052.8</ele>
        <time>1970-01-01T01:27:33.000Z</time>
      </trkpt>
      <trkpt lat="42.817763" lon="0.550434">
        <ele>1053.2</ele>
        <time>1970-01-01T01:27:37.000Z</time>
      </trkpt>
      <trkpt lat="42.817759" lon="0.550323">
        <ele>1053.8</ele>
        <time>1970-01-01T01:27:41.000Z</time>
      </trkpt>
      <trkpt lat="42.817783" lon="0.550206">
        <ele>1055</ele>
        <time>1970-01-01T01:27:46.000Z</time>
      </trkpt>
      <trkpt lat="42.817821" lon="0.550026">
        <ele>1056</ele>
        <time>1970-01-01T01:27:54.000Z</time>
      </trkpt>
      <trkpt lat="42.817887" lon="0.549997">
        <ele>1056.6</ele>
        <time>1970-01-01T01:28:00.000Z</time>
      </trkpt>
      <trkpt lat="42.817936" lon="0.549951">
        <ele>1057</ele>
        <time>1970-01-01T01:28:04.000Z</time>
      </trkpt>
      <trkpt lat="42.817963" lon="0.549942">
        <ele>1057.6</ele>
        <time>1970-01-01T01:28:06.000Z</time>
      </trkpt>
      <trkpt lat="42.818024" lon="0.549939">
        <ele>1058.2</ele>
        <time>1970-01-01T01:28:10.000Z</time>
      </trkpt>
      <trkpt lat="42.818268" lon="0.549847">
        <ele>1059.6</ele>
        <time>1970-01-01T01:28:23.000Z</time>
      </trkpt>
      <trkpt lat="42.81838" lon="0.549744">
        <ele>1060.6</ele>
        <time>1970-01-01T01:28:31.000Z</time>
      </trkpt>
      <trkpt lat="42.81847" lon="0.549657">
        <ele>1061.6</ele>
        <time>1970-01-01T01:28:40.000Z</time>
      </trkpt>
      <trkpt lat="42.818594" lon="0.549599">
        <ele>1061.8</ele>
        <time>1970-01-01T01:28:50.000Z</time>
      </trkpt>
      <trkpt lat="42.818612" lon="0.549604">
        <ele>1061.8</ele>
        <time>1970-01-01T01:28:53.000Z</time>
      </trkpt>
      <trkpt lat="42.818655" lon="0.549582">
        <ele>1061.8</ele>
        <time>1970-01-01T01:28:58.000Z</time>
      </trkpt>
      <trkpt lat="42.819171" lon="0.549323">
        <ele>1061.6</ele>
        <time>1970-01-01T01:29:17.000Z</time>
      </trkpt>
      <trkpt lat="42.819355" lon="0.549171">
        <ele>1062.8</ele>
        <time>1970-01-01T01:29:25.000Z</time>
      </trkpt>
      <trkpt lat="42.819559" lon="0.548946">
        <ele>1064</ele>
        <time>1970-01-01T01:29:34.000Z</time>
      </trkpt>
      <trkpt lat="42.819757" lon="0.548833">
        <ele>1065</ele>
        <time>1970-01-01T01:29:42.000Z</time>
      </trkpt>
      <trkpt lat="42.819954" lon="0.548662">
        <ele>1065.8</ele>
        <time>1970-01-01T01:29:51.000Z</time>
      </trkpt>
      <trkpt lat="42.820273" lon="0.548334">
        <ele>1066.8</ele>
        <time>1970-01-01T01:30:05.000Z</time>
      </trkpt>
      <trkpt lat="42.820695" lon="0.548126">
        <ele>1067</ele>
        <time>1970-01-01T01:30:19.000Z</time>
      </trkpt>
      <trkpt lat="42.820863" lon="0.548016">
        <ele>1068</ele>
        <time>1970-01-01T01:30:26.000Z</time>
      </trkpt>
      <trkpt lat="42.820966" lon="0.547909">
        <ele>1069</ele>
        <time>1970-01-01T01:30:31.000Z</time>
      </trkpt>
      <trkpt lat="42.821066" lon="0.547854">
        <ele>1070</ele>
        <time>1970-01-01T01:30:36.000Z</time>
      </trkpt>
      <trkpt lat="42.821188" lon="0.547752">
        <ele>1071</ele>
        <time>1970-01-01T01:30:43.000Z</time>
      </trkpt>
      <trkpt lat="42.821206" lon="0.547736">
        <ele>1071.2</ele>
        <time>1970-01-01T01:30:44.000Z</time>
      </trkpt>
      <trkpt lat="42.821308" lon="0.54762">
        <ele>1072</ele>
        <time>1970-01-01T01:30:50.000Z</time>
      </trkpt>
      <trkpt lat="42.821356" lon="0.547557">
        <ele>1073.2</ele>
        <time>1970-01-01T01:30:54.000Z</time>
      </trkpt>
      <trkpt lat="42.821423" lon="0.547484">
        <ele>1074.4</ele>
        <time>1970-01-01T01:30:59.000Z</time>
      </trkpt>
      <trkpt lat="42.821478" lon="0.547464">
        <ele>1075.4</ele>
        <time>1970-01-01T01:31:04.000Z</time>
      </trkpt>
      <trkpt lat="42.821493" lon="0.547454">
        <ele>1075.6</ele>
        <time>1970-01-01T01:31:05.000Z</time>
      </trkpt>
      <trkpt lat="42.822366" lon="0.546654">
        <ele>1091.2</ele>
        <time>1970-01-01T01:32:18.000Z</time>
      </trkpt>
      <trkpt lat="42.822452" lon="0.54655">
        <ele>1091</ele>
        <time>1970-01-01T01:32:24.000Z</time>
      </trkpt>
      <trkpt lat="42.82259" lon="0.546406">
        <ele>1091</ele>
        <time>1970-01-01T01:32:33.000Z</time>
      </trkpt>
      <trkpt lat="42.822654" lon="0.546391">
        <ele>1092.2</ele>
        <time>1970-01-01T01:32:37.000Z</time>
      </trkpt>
      <trkpt lat="42.822724" lon="0.546358">
        <ele>1093.2</ele>
        <time>1970-01-01T01:32:42.000Z</time>
      </trkpt>
      <trkpt lat="42.822771" lon="0.546334">
        <ele>1094.4</ele>
        <time>1970-01-01T01:32:45.000Z</time>
      </trkpt>
      <trkpt lat="42.822835" lon="0.5463">
        <ele>1095.4</ele>
        <time>1970-01-01T01:32:49.000Z</time>
      </trkpt>
      <trkpt lat="42.822893" lon="0.546278">
        <ele>1096.4</ele>
        <time>1970-01-01T01:32:53.000Z</time>
      </trkpt>
      <trkpt lat="42.822941" lon="0.546249">
        <ele>1097.2</ele>
        <time>1970-01-01T01:32:57.000Z</time>
      </trkpt>
      <trkpt lat="42.822986" lon="0.546211">
        <ele>1098.4</ele>
        <time>1970-01-01T01:33:01.000Z</time>
      </trkpt>
      <trkpt lat="42.823044" lon="0.546178">
        <ele>1099.8</ele>
        <time>1970-01-01T01:33:05.000Z</time>
      </trkpt>
      <trkpt lat="42.823094" lon="0.546143">
        <ele>1100.6</ele>
        <time>1970-01-01T01:33:08.000Z</time>
      </trkpt>
      <trkpt lat="42.823109" lon="0.546132">
        <ele>1100.8</ele>
        <time>1970-01-01T01:33:09.000Z</time>
      </trkpt>
      <trkpt lat="42.823148" lon="0.546112">
        <ele>1101.6</ele>
        <time>1970-01-01T01:33:12.000Z</time>
      </trkpt>
      <trkpt lat="42.823178" lon="0.546104">
        <ele>1102</ele>
        <time>1970-01-01T01:33:14.000Z</time>
      </trkpt>
      <trkpt lat="42.823313" lon="0.546124">
        <ele>1103</ele>
        <time>1970-01-01T01:33:24.000Z</time>
      </trkpt>
      <trkpt lat="42.82349" lon="0.546152">
        <ele>1102.8</ele>
        <time>1970-01-01T01:33:33.000Z</time>
      </trkpt>
      <trkpt lat="42.823569" lon="0.546139">
        <ele>1102.8</ele>
        <time>1970-01-01T01:33:37.000Z</time>
      </trkpt>
      <trkpt lat="42.8239" lon="0.5461">
        <ele>1103.8</ele>
        <time>1970-01-01T01:33:56.000Z</time>
      </trkpt>
      <trkpt lat="42.824012" lon="0.546129">
        <ele>1103.4</ele>
        <time>1970-01-01T01:34:39.000Z</time>
      </trkpt>
      <trkpt lat="42.824159" lon="0.546197">
        <ele>1101</ele>
        <time>1970-01-01T01:34:43.000Z</time>
      </trkpt>
      <trkpt lat="42.824209" lon="0.546197">
        <ele>1100.2</ele>
        <time>1970-01-01T01:34:44.000Z</time>
      </trkpt>
      <trkpt lat="42.824266" lon="0.546183">
        <ele>1099.6</ele>
        <time>1970-01-01T01:34:45.000Z</time>
      </trkpt>
      <trkpt lat="42.824368" lon="0.546123">
        <ele>1098.4</ele>
        <time>1970-01-01T01:34:47.000Z</time>
      </trkpt>
      <trkpt lat="42.824413" lon="0.546096">
        <ele>1098</ele>
        <time>1970-01-01T01:34:48.000Z</time>
      </trkpt>
      <trkpt lat="42.824475" lon="0.546082">
        <ele>1097.4</ele>
        <time>1970-01-01T01:34:50.000Z</time>
      </trkpt>
      <trkpt lat="42.82453" lon="0.546194">
        <ele>1096.4</ele>
        <time>1970-01-01T01:34:53.000Z</time>
      </trkpt>
      <trkpt lat="42.82455" lon="0.546272">
        <ele>1095.8</ele>
        <time>1970-01-01T01:34:55.000Z</time>
      </trkpt>
      <trkpt lat="42.824572" lon="0.54628">
        <ele>1095.6</ele>
        <time>1970-01-01T01:34:57.000Z</time>
      </trkpt>
      <trkpt lat="42.824587" lon="0.546345">
        <ele>1095.2</ele>
        <time>1970-01-01T01:35:24.000Z</time>
      </trkpt>
      <trkpt lat="42.824612" lon="0.546477">
        <ele>1093.8</ele>
        <time>1970-01-01T01:35:27.000Z</time>
      </trkpt>
      <trkpt lat="42.824631" lon="0.546529">
        <ele>1093.4</ele>
        <time>1970-01-01T01:35:28.000Z</time>
      </trkpt>
      <trkpt lat="42.824688" lon="0.546643">
        <ele>1092.6</ele>
        <time>1970-01-01T01:35:30.000Z</time>
      </trkpt>
      <trkpt lat="42.824763" lon="0.546766">
        <ele>1091.6</ele>
        <time>1970-01-01T01:35:32.000Z</time>
      </trkpt>
      <trkpt lat="42.824803" lon="0.546836">
        <ele>1091</ele>
        <time>1970-01-01T01:35:33.000Z</time>
      </trkpt>
      <trkpt lat="42.824927" lon="0.547041">
        <ele>1089.8</ele>
        <time>1970-01-01T01:35:36.000Z</time>
      </trkpt>
      <trkpt lat="42.82499" lon="0.547153">
        <ele>1088.6</ele>
        <time>1970-01-01T01:35:38.000Z</time>
      </trkpt>
      <trkpt lat="42.825039" lon="0.547205">
        <ele>1087.6</ele>
        <time>1970-01-01T01:35:40.000Z</time>
      </trkpt>
      <trkpt lat="42.82508" lon="0.547204">
        <ele>1087.2</ele>
        <time>1970-01-01T01:35:42.000Z</time>
      </trkpt>
      <trkpt lat="42.825175" lon="0.547141">
        <ele>1088.6</ele>
        <time>1970-01-01T01:35:48.000Z</time>
      </trkpt>
      <trkpt lat="42.825217" lon="0.547101">
        <ele>1089.8</ele>
        <time>1970-01-01T01:35:51.000Z</time>
      </trkpt>
      <trkpt lat="42.825311" lon="0.547013">
        <ele>1091</ele>
        <time>1970-01-01T01:35:57.000Z</time>
      </trkpt>
      <trkpt lat="42.82542" lon="0.546936">
        <ele>1092.2</ele>
        <time>1970-01-01T01:36:04.000Z</time>
      </trkpt>
      <trkpt lat="42.825469" lon="0.546892">
        <ele>1093</ele>
        <time>1970-01-01T01:36:07.000Z</time>
      </trkpt>
      <trkpt lat="42.825565" lon="0.546817">
        <ele>1094</ele>
        <time>1970-01-01T01:36:13.000Z</time>
      </trkpt>
      <trkpt lat="42.825653" lon="0.546771">
        <ele>1095</ele>
        <time>1970-01-01T01:36:18.000Z</time>
      </trkpt>
      <trkpt lat="42.825794" lon="0.546707">
        <ele>1096.2</ele>
        <time>1970-01-01T01:36:26.000Z</time>
      </trkpt>
      <trkpt lat="42.825818" lon="0.546705">
        <ele>1096.4</ele>
        <time>1970-01-01T01:36:27.000Z</time>
      </trkpt>
      <trkpt lat="42.826056" lon="0.5469">
        <ele>1097</ele>
        <time>1970-01-01T01:36:38.000Z</time>
      </trkpt>
      <trkpt lat="42.826459" lon="0.547234">
        <ele>1096.6</ele>
        <time>1970-01-01T01:36:59.000Z</time>
      </trkpt>
      <trkpt lat="42.826575" lon="0.547242">
        <ele>1098</ele>
        <time>1970-01-01T01:37:15.000Z</time>
      </trkpt>
      <trkpt lat="42.826668" lon="0.547291">
        <ele>1099</ele>
        <time>1970-01-01T01:37:20.000Z</time>
      </trkpt>
      <trkpt lat="42.826812" lon="0.547354">
        <ele>1100.6</ele>
        <time>1970-01-01T01:37:27.000Z</time>
      </trkpt>
      <trkpt lat="42.826883" lon="0.547368">
        <ele>1102</ele>
        <time>1970-01-01T01:37:30.000Z</time>
      </trkpt>
      <trkpt lat="42.82701" lon="0.547359">
        <ele>1103</ele>
        <time>1970-01-01T01:37:36.000Z</time>
      </trkpt>
      <trkpt lat="42.827145" lon="0.547317">
        <ele>1104</ele>
        <time>1970-01-01T01:37:43.000Z</time>
      </trkpt>
      <trkpt lat="42.827163" lon="0.547322">
        <ele>1104.2</ele>
        <time>1970-01-01T01:37:44.000Z</time>
      </trkpt>
      <trkpt lat="42.827244" lon="0.547334">
        <ele>1105.2</ele>
        <time>1970-01-01T01:37:48.000Z</time>
      </trkpt>
      <trkpt lat="42.827332" lon="0.547354">
        <ele>1106.6</ele>
        <time>1970-01-01T01:37:53.000Z</time>
      </trkpt>
      <trkpt lat="42.827415" lon="0.547374">
        <ele>1107.6</ele>
        <time>1970-01-01T01:37:57.000Z</time>
      </trkpt>
      <trkpt lat="42.827482" lon="0.547394">
        <ele>1109</ele>
        <time>1970-01-01T01:38:01.000Z</time>
      </trkpt>
      <trkpt lat="42.827568" lon="0.54741">
        <ele>1110</ele>
        <time>1970-01-01T01:38:06.000Z</time>
      </trkpt>
      <trkpt lat="42.82764" lon="0.547395">
        <ele>1111</ele>
        <time>1970-01-01T01:38:10.000Z</time>
      </trkpt>
      <trkpt lat="42.827717" lon="0.547382">
        <ele>1112.2</ele>
        <time>1970-01-01T01:38:14.000Z</time>
      </trkpt>
      <trkpt lat="42.827809" lon="0.547364">
        <ele>1113.6</ele>
        <time>1970-01-01T01:38:19.000Z</time>
      </trkpt>
      <trkpt lat="42.827904" lon="0.547359">
        <ele>1114.6</ele>
        <time>1970-01-01T01:38:25.000Z</time>
      </trkpt>
      <trkpt lat="42.828037" lon="0.547366">
        <ele>1115.6</ele>
        <time>1970-01-01T01:38:33.000Z</time>
      </trkpt>
      <trkpt lat="42.828553" lon="0.547151">
        <ele>1115.2</ele>
        <time>1970-01-01T01:39:01.000Z</time>
      </trkpt>
      <trkpt lat="42.829095" lon="0.547153">
        <ele>1114.2</ele>
        <time>1970-01-01T01:39:19.000Z</time>
      </trkpt>
      <trkpt lat="42.829142" lon="0.547167">
        <ele>1114</ele>
        <time>1970-01-01T01:39:20.000Z</time>
      </trkpt>
      <trkpt lat="42.829584" lon="0.547299">
        <ele>1115</ele>
        <time>1970-01-01T01:39:31.000Z</time>
      </trkpt>
      <trkpt lat="42.8297" lon="0.54732">
        <ele>1116</ele>
        <time>1970-01-01T01:39:35.000Z</time>
      </trkpt>
      <trkpt lat="42.830238" lon="0.547426">
        <ele>1117</ele>
        <time>1970-01-01T01:39:49.000Z</time>
      </trkpt>
      <trkpt lat="42.830303" lon="0.547429">
        <ele>1117.2</ele>
        <time>1970-01-01T01:39:51.000Z</time>
      </trkpt>
      <trkpt lat="42.830511" lon="0.547408">
        <ele>1118.2</ele>
        <time>1970-01-01T01:39:57.000Z</time>
      </trkpt>
      <trkpt lat="42.830659" lon="0.547346">
        <ele>1119.6</ele>
        <time>1970-01-01T01:40:03.000Z</time>
      </trkpt>
      <trkpt lat="42.830675" lon="0.547331">
        <ele>1119.8</ele>
        <time>1970-01-01T01:40:04.000Z</time>
      </trkpt>
      <trkpt lat="42.83071" lon="0.5473">
        <ele>1120.4</ele>
        <time>1970-01-01T01:40:06.000Z</time>
      </trkpt>
      <trkpt lat="42.830726" lon="0.54728">
        <ele>1120.8</ele>
        <time>1970-01-01T01:40:07.000Z</time>
      </trkpt>
      <trkpt lat="42.830785" lon="0.547226">
        <ele>1121.8</ele>
        <time>1970-01-01T01:40:10.000Z</time>
      </trkpt>
      <trkpt lat="42.830799" lon="0.547206">
        <ele>1122</ele>
        <time>1970-01-01T01:40:11.000Z</time>
      </trkpt>
      <trkpt lat="42.830845" lon="0.547153">
        <ele>1123.2</ele>
        <time>1970-01-01T01:40:14.000Z</time>
      </trkpt>
      <trkpt lat="42.83088" lon="0.547108">
        <ele>1124.4</ele>
        <time>1970-01-01T01:40:17.000Z</time>
      </trkpt>
      <trkpt lat="42.830942" lon="0.547049">
        <ele>1125.6</ele>
        <time>1970-01-01T01:40:21.000Z</time>
      </trkpt>
      <trkpt lat="42.831" lon="0.54699">
        <ele>1126.8</ele>
        <time>1970-01-01T01:40:26.000Z</time>
      </trkpt>
      <trkpt lat="42.831039" lon="0.54697">
        <ele>1128</ele>
        <time>1970-01-01T01:40:29.000Z</time>
      </trkpt>
      <trkpt lat="42.831067" lon="0.546966">
        <ele>1128.4</ele>
        <time>1970-01-01T01:40:31.000Z</time>
      </trkpt>
      <trkpt lat="42.83113" lon="0.546983">
        <ele>1129</ele>
        <time>1970-01-01T01:40:36.000Z</time>
      </trkpt>
      <trkpt lat="42.831362" lon="0.54709">
        <ele>1130.4</ele>
        <time>1970-01-01T01:40:48.000Z</time>
      </trkpt>
      <trkpt lat="42.831486" lon="0.547127">
        <ele>1131.6</ele>
        <time>1970-01-01T01:40:55.000Z</time>
      </trkpt>
      <trkpt lat="42.831626" lon="0.547164">
        <ele>1132.8</ele>
        <time>1970-01-01T01:41:03.000Z</time>
      </trkpt>
      <trkpt lat="42.83174" lon="0.547177">
        <ele>1133.8</ele>
        <time>1970-01-01T01:41:10.000Z</time>
      </trkpt>
      <trkpt lat="42.831838" lon="0.547184">
        <ele>1134.8</ele>
        <time>1970-01-01T01:41:15.000Z</time>
      </trkpt>
      <trkpt lat="42.831862" lon="0.547188">
        <ele>1135</ele>
        <time>1970-01-01T01:41:16.000Z</time>
      </trkpt>
      <trkpt lat="42.831932" lon="0.5472">
        <ele>1135.6</ele>
        <time>1970-01-01T01:41:20.000Z</time>
      </trkpt>
      <trkpt lat="42.831965" lon="0.547208">
        <ele>1135.8</ele>
        <time>1970-01-01T01:41:22.000Z</time>
      </trkpt>
      <trkpt lat="42.832103" lon="0.547242">
        <ele>1137</ele>
        <time>1970-01-01T01:41:29.000Z</time>
      </trkpt>
      <trkpt lat="42.832287" lon="0.547285">
        <ele>1138</ele>
        <time>1970-01-01T01:41:40.000Z</time>
      </trkpt>
      <trkpt lat="42.832421" lon="0.547271">
        <ele>1139</ele>
        <time>1970-01-01T01:41:49.000Z</time>
      </trkpt>
      <trkpt lat="42.832581" lon="0.547255">
        <ele>1140</ele>
        <time>1970-01-01T01:41:58.000Z</time>
      </trkpt>
      <trkpt lat="42.8326" lon="0.547258">
        <ele>1140</ele>
        <time>1970-01-01T01:41:59.000Z</time>
      </trkpt>
      <trkpt lat="42.832927" lon="0.547283">
        <ele>1140.6</ele>
        <time>1970-01-01T01:42:16.000Z</time>
      </trkpt>
      <trkpt lat="42.833448" lon="0.547052">
        <ele>1139.4</ele>
        <time>1970-01-01T01:42:41.000Z</time>
      </trkpt>
      <trkpt lat="42.833827" lon="0.546607">
        <ele>1141</ele>
        <time>1970-01-01T01:43:00.000Z</time>
      </trkpt>
      <trkpt lat="42.833878" lon="0.54646">
        <ele>1142</ele>
        <time>1970-01-01T01:43:05.000Z</time>
      </trkpt>
      <trkpt lat="42.833929" lon="0.5463">
        <ele>1143.2</ele>
        <time>1970-01-01T01:43:10.000Z</time>
      </trkpt>
      <trkpt lat="42.834262" lon="0.545914">
        <ele>1144.4</ele>
        <time>1970-01-01T01:43:27.000Z</time>
      </trkpt>
      <trkpt lat="42.834318" lon="0.545778">
        <ele>1145.6</ele>
        <time>1970-01-01T01:43:32.000Z</time>
      </trkpt>
      <trkpt lat="42.834385" lon="0.545646">
        <ele>1146.2</ele>
        <time>1970-01-01T01:43:37.000Z</time>
      </trkpt>
      <trkpt lat="42.834398" lon="0.545626">
        <ele>1146.6</ele>
        <time>1970-01-01T01:43:38.000Z</time>
      </trkpt>
      <trkpt lat="42.834453" lon="0.545528">
        <ele>1147.8</ele>
        <time>1970-01-01T01:43:43.000Z</time>
      </trkpt>
      <trkpt lat="42.834505" lon="0.545445">
        <ele>1149</ele>
        <time>1970-01-01T01:43:47.000Z</time>
      </trkpt>
      <trkpt lat="42.834556" lon="0.545347">
        <ele>1150.2</ele>
        <time>1970-01-01T01:43:52.000Z</time>
      </trkpt>
      <trkpt lat="42.834648" lon="0.545172">
        <ele>1151.4</ele>
        <time>1970-01-01T01:44:01.000Z</time>
      </trkpt>
      <trkpt lat="42.834689" lon="0.545118">
        <ele>1151.6</ele>
        <time>1970-01-01T01:44:04.000Z</time>
      </trkpt>
      <trkpt lat="42.834814" lon="0.544944">
        <ele>1152.4</ele>
        <time>1970-01-01T01:44:11.000Z</time>
      </trkpt>
      <trkpt lat="42.834849" lon="0.544875">
        <ele>1152.8</ele>
        <time>1970-01-01T01:44:14.000Z</time>
      </trkpt>
      <trkpt lat="42.834897" lon="0.544812">
        <ele>1153.4</ele>
        <time>1970-01-01T01:44:17.000Z</time>
      </trkpt>
      <trkpt lat="42.834949" lon="0.544756">
        <ele>1154.2</ele>
        <time>1970-01-01T01:44:20.000Z</time>
      </trkpt>
      <trkpt lat="42.834972" lon="0.54471">
        <ele>1154.6</ele>
        <time>1970-01-01T01:44:22.000Z</time>
      </trkpt>
      <trkpt lat="42.835011" lon="0.544589">
        <ele>1155.8</ele>
        <time>1970-01-01T01:44:27.000Z</time>
      </trkpt>
      <trkpt lat="42.835025" lon="0.544564">
        <ele>1156.2</ele>
        <time>1970-01-01T01:44:28.000Z</time>
      </trkpt>
      <trkpt lat="42.835064" lon="0.544497">
        <ele>1157</ele>
        <time>1970-01-01T01:44:31.000Z</time>
      </trkpt>
      <trkpt lat="42.835116" lon="0.544372">
        <ele>1158</ele>
        <time>1970-01-01T01:44:36.000Z</time>
      </trkpt>
      <trkpt lat="42.835212" lon="0.544167">
        <ele>1158.8</ele>
        <time>1970-01-01T01:44:43.000Z</time>
      </trkpt>
      <trkpt lat="42.835464" lon="0.543854">
        <ele>1159.4</ele>
        <time>1970-01-01T01:44:57.000Z</time>
      </trkpt>
      <trkpt lat="42.835517" lon="0.543824">
        <ele>1159.8</ele>
        <time>1970-01-01T01:45:00.000Z</time>
      </trkpt>
      <trkpt lat="42.83571" lon="0.543783">
        <ele>1159.4</ele>
        <time>1970-01-01T01:45:09.000Z</time>
      </trkpt>
      <trkpt lat="42.83625" lon="0.5437">
        <ele>1160.2</ele>
        <time>1970-01-01T01:45:31.000Z</time>
      </trkpt>
      <trkpt lat="42.836353" lon="0.543639">
        <ele>1161</ele>
        <time>1970-01-01T01:45:36.000Z</time>
      </trkpt>
      <trkpt lat="42.836435" lon="0.543589">
        <ele>1162.2</ele>
        <time>1970-01-01T01:45:40.000Z</time>
      </trkpt>
      <trkpt lat="42.836563" lon="0.5435">
        <ele>1163.2</ele>
        <time>1970-01-01T01:45:46.000Z</time>
      </trkpt>
      <trkpt lat="42.836894" lon="0.543211">
        <ele>1164.2</ele>
        <time>1970-01-01T01:46:02.000Z</time>
      </trkpt>
      <trkpt lat="42.837004" lon="0.543105">
        <ele>1165.2</ele>
        <time>1970-01-01T01:46:08.000Z</time>
      </trkpt>
      <trkpt lat="42.837142" lon="0.542991">
        <ele>1166.2</ele>
        <time>1970-01-01T01:46:15.000Z</time>
      </trkpt>
      <trkpt lat="42.837286" lon="0.542929">
        <ele>1167.2</ele>
        <time>1970-01-01T01:46:22.000Z</time>
      </trkpt>
      <trkpt lat="42.83741" lon="0.542894">
        <ele>1168.2</ele>
        <time>1970-01-01T01:46:29.000Z</time>
      </trkpt>
      <trkpt lat="42.837707" lon="0.542487">
        <ele>1169.6</ele>
        <time>1970-01-01T01:46:46.000Z</time>
      </trkpt>
      <trkpt lat="42.838002" lon="0.541843">
        <ele>1170.2</ele>
        <time>1970-01-01T01:47:06.000Z</time>
      </trkpt>
      <trkpt lat="42.838415" lon="0.541402">
        <ele>1168.6</ele>
        <time>1970-01-01T01:47:24.000Z</time>
      </trkpt>
      <trkpt lat="42.838607" lon="0.541196">
        <ele>1167.6</ele>
        <time>1970-01-01T01:47:28.000Z</time>
      </trkpt>
      <trkpt lat="42.838779" lon="0.541079">
        <ele>1166.4</ele>
        <time>1970-01-01T01:47:31.000Z</time>
      </trkpt>
      <trkpt lat="42.838837" lon="0.541055">
        <ele>1166</ele>
        <time>1970-01-01T01:47:32.000Z</time>
      </trkpt>
      <trkpt lat="42.839115" lon="0.541065">
        <ele>1165.4</ele>
        <time>1970-01-01T01:47:38.000Z</time>
      </trkpt>
      <trkpt lat="42.839153" lon="0.54104">
        <ele>1165.2</ele>
        <time>1970-01-01T01:47:39.000Z</time>
      </trkpt>
      <trkpt lat="42.839258" lon="0.540887">
        <ele>1165</ele>
        <time>1970-01-01T01:47:43.000Z</time>
      </trkpt>
      <trkpt lat="42.839387" lon="0.5404">
        <ele>1165.2</ele>
        <time>1970-01-01T01:48:06.000Z</time>
      </trkpt>
      <trkpt lat="42.839316" lon="0.540276">
        <ele>1166.6</ele>
        <time>1970-01-01T01:48:14.000Z</time>
      </trkpt>
      <trkpt lat="42.839266" lon="0.540219">
        <ele>1168</ele>
        <time>1970-01-01T01:48:19.000Z</time>
      </trkpt>
      <trkpt lat="42.839249" lon="0.540163">
        <ele>1169</ele>
        <time>1970-01-01T01:48:23.000Z</time>
      </trkpt>
      <trkpt lat="42.839232" lon="0.540082">
        <ele>1170.4</ele>
        <time>1970-01-01T01:48:28.000Z</time>
      </trkpt>
      <trkpt lat="42.839225" lon="0.540017">
        <ele>1171.4</ele>
        <time>1970-01-01T01:48:33.000Z</time>
      </trkpt>
      <trkpt lat="42.839235" lon="0.539972">
        <ele>1172.2</ele>
        <time>1970-01-01T01:48:38.000Z</time>
      </trkpt>
      <trkpt lat="42.83948" lon="0.538795">
        <ele>1189.6</ele>
        <time>1970-01-01T01:50:06.000Z</time>
      </trkpt>
      <trkpt lat="42.839555" lon="0.538583">
        <ele>1190</ele>
        <time>1970-01-01T01:50:21.000Z</time>
      </trkpt>
      <trkpt lat="42.839567" lon="0.538543">
        <ele>1189.6</ele>
        <time>1970-01-01T01:51:14.000Z</time>
      </trkpt>
      <trkpt lat="42.839792" lon="0.538105">
        <ele>1188.8</ele>
        <time>1970-01-01T01:51:28.000Z</time>
      </trkpt>
      <trkpt lat="42.839929" lon="0.537764">
        <ele>1187.6</ele>
        <time>1970-01-01T01:51:34.000Z</time>
      </trkpt>
      <trkpt lat="42.840032" lon="0.537514">
        <ele>1186.8</ele>
        <time>1970-01-01T01:51:38.000Z</time>
      </trkpt>
      <trkpt lat="42.840065" lon="0.537461">
        <ele>1186.6</ele>
        <time>1970-01-01T01:51:39.000Z</time>
      </trkpt>
      <trkpt lat="42.840504" lon="0.537014">
        <ele>1186</ele>
        <time>1970-01-01T01:51:52.000Z</time>
      </trkpt>
      <trkpt lat="42.840842" lon="0.53656">
        <ele>1187.8</ele>
        <time>1970-01-01T01:52:06.000Z</time>
      </trkpt>
      <trkpt lat="42.841097" lon="0.535994">
        <ele>1189</ele>
        <time>1970-01-01T01:52:21.000Z</time>
      </trkpt>
      <trkpt lat="42.841155" lon="0.53586">
        <ele>1190.2</ele>
        <time>1970-01-01T01:52:25.000Z</time>
      </trkpt>
      <trkpt lat="42.841243" lon="0.535605">
        <ele>1191.6</ele>
        <time>1970-01-01T01:52:33.000Z</time>
      </trkpt>
      <trkpt lat="42.841321" lon="0.535259">
        <ele>1192.6</ele>
        <time>1970-01-01T01:52:44.000Z</time>
      </trkpt>
      <trkpt lat="42.841384" lon="0.53504">
        <ele>1193.8</ele>
        <time>1970-01-01T01:52:52.000Z</time>
      </trkpt>
      <trkpt lat="42.841428" lon="0.534884">
        <ele>1194.8</ele>
        <time>1970-01-01T01:52:58.000Z</time>
      </trkpt>
      <trkpt lat="42.841473" lon="0.534758">
        <ele>1196</ele>
        <time>1970-01-01T01:53:03.000Z</time>
      </trkpt>
      <trkpt lat="42.841548" lon="0.534552">
        <ele>1197.2</ele>
        <time>1970-01-01T01:53:11.000Z</time>
      </trkpt>
      <trkpt lat="42.841607" lon="0.534398">
        <ele>1198.2</ele>
        <time>1970-01-01T01:53:17.000Z</time>
      </trkpt>
      <trkpt lat="42.841713" lon="0.534194">
        <ele>1199.4</ele>
        <time>1970-01-01T01:53:26.000Z</time>
      </trkpt>
      <trkpt lat="42.841817" lon="0.53401">
        <ele>1200.6</ele>
        <time>1970-01-01T01:53:34.000Z</time>
      </trkpt>
      <trkpt lat="42.841889" lon="0.533871">
        <ele>1201.8</ele>
        <time>1970-01-01T01:53:40.000Z</time>
      </trkpt>
      <trkpt lat="42.841947" lon="0.53377">
        <ele>1202.8</ele>
        <time>1970-01-01T01:53:46.000Z</time>
      </trkpt>
      <trkpt lat="42.842012" lon="0.533681">
        <ele>1203.8</ele>
        <time>1970-01-01T01:53:51.000Z</time>
      </trkpt>
      <trkpt lat="42.842045" lon="0.533636">
        <ele>1204</ele>
        <time>1970-01-01T01:53:53.000Z</time>
      </trkpt>
      <trkpt lat="42.842091" lon="0.533579">
        <ele>1204.8</ele>
        <time>1970-01-01T01:53:56.000Z</time>
      </trkpt>
      <trkpt lat="42.842104" lon="0.533564">
        <ele>1205</ele>
        <time>1970-01-01T01:53:57.000Z</time>
      </trkpt>
      <trkpt lat="42.84216" lon="0.533469">
        <ele>1205.6</ele>
        <time>1970-01-01T01:54:01.000Z</time>
      </trkpt>
      <trkpt lat="42.842209" lon="0.5334">
        <ele>1206</ele>
        <time>1970-01-01T01:54:04.000Z</time>
      </trkpt>
      <trkpt lat="42.842243" lon="0.533282">
        <ele>1206.2</ele>
        <time>1970-01-01T01:54:08.000Z</time>
      </trkpt>
      <trkpt lat="42.842312" lon="0.533063">
        <ele>1207.2</ele>
        <time>1970-01-01T01:54:15.000Z</time>
      </trkpt>
      <trkpt lat="42.842539" lon="0.532485">
        <ele>1208.2</ele>
        <time>1970-01-01T01:54:35.000Z</time>
      </trkpt>
      <trkpt lat="42.842745" lon="0.531862">
        <ele>1209.4</ele>
        <time>1970-01-01T01:54:54.000Z</time>
      </trkpt>
      <trkpt lat="42.842822" lon="0.531428">
        <ele>1210.4</ele>
        <time>1970-01-01T01:55:07.000Z</time>
      </trkpt>
      <trkpt lat="42.842873" lon="0.531207">
        <ele>1211.4</ele>
        <time>1970-01-01T01:55:14.000Z</time>
      </trkpt>
      <trkpt lat="42.842975" lon="0.530935">
        <ele>1212.4</ele>
        <time>1970-01-01T01:55:23.000Z</time>
      </trkpt>
      <trkpt lat="42.843216" lon="0.530675">
        <ele>1211.2</ele>
        <time>1970-01-01T01:55:33.000Z</time>
      </trkpt>
      <trkpt lat="42.843262" lon="0.530662">
        <ele>1210</ele>
        <time>1970-01-01T01:55:34.000Z</time>
      </trkpt>
      <trkpt lat="42.843372" lon="0.530633">
        <ele>1208.6</ele>
        <time>1970-01-01T01:55:36.000Z</time>
      </trkpt>
      <trkpt lat="42.843434" lon="0.530613">
        <ele>1207.8</ele>
        <time>1970-01-01T01:55:37.000Z</time>
      </trkpt>
      <trkpt lat="42.84349" lon="0.530592">
        <ele>1206.8</ele>
        <time>1970-01-01T01:55:38.000Z</time>
      </trkpt>
      <trkpt lat="42.843535" lon="0.530571">
        <ele>1205.8</ele>
        <time>1970-01-01T01:55:39.000Z</time>
      </trkpt>
      <trkpt lat="42.84358" lon="0.530547">
        <ele>1204.8</ele>
        <time>1970-01-01T01:55:40.000Z</time>
      </trkpt>
      <trkpt lat="42.843631" lon="0.53052">
        <ele>1203.8</ele>
        <time>1970-01-01T01:55:41.000Z</time>
      </trkpt>
      <trkpt lat="42.84368" lon="0.53048">
        <ele>1202.8</ele>
        <time>1970-01-01T01:55:42.000Z</time>
      </trkpt>
      <trkpt lat="42.843732" lon="0.53042">
        <ele>1202.4</ele>
        <time>1970-01-01T01:55:43.000Z</time>
      </trkpt>
      <trkpt lat="42.843873" lon="0.530254">
        <ele>1200.4</ele>
        <time>1970-01-01T01:55:46.000Z</time>
      </trkpt>
      <trkpt lat="42.843959" lon="0.530276">
        <ele>1199</ele>
        <time>1970-01-01T01:55:48.000Z</time>
      </trkpt>
      <trkpt lat="42.844007" lon="0.530397">
        <ele>1198</ele>
        <time>1970-01-01T01:55:50.000Z</time>
      </trkpt>
      <trkpt lat="42.843994" lon="0.530623">
        <ele>1197</ele>
        <time>1970-01-01T01:55:53.000Z</time>
      </trkpt>
      <trkpt lat="42.843985" lon="0.530704">
        <ele>1196.8</ele>
        <time>1970-01-01T01:55:54.000Z</time>
      </trkpt>
      <trkpt lat="42.843966" lon="0.530853">
        <ele>1195.6</ele>
        <time>1970-01-01T01:55:56.000Z</time>
      </trkpt>
      <trkpt lat="42.843964" lon="0.530911">
        <ele>1194.6</ele>
        <time>1970-01-01T01:55:58.000Z</time>
      </trkpt>
      <trkpt lat="42.843966" lon="0.530913">
        <ele>1194.2</ele>
        <time>1970-01-01T01:55:59.000Z</time>
      </trkpt>
      <trkpt lat="42.843981" lon="0.53076">
        <ele>1194</ele>
        <time>1970-01-01T01:56:08.000Z</time>
      </trkpt>
      <trkpt lat="42.843997" lon="0.530561">
        <ele>1195.8</ele>
        <time>1970-01-01T01:56:17.000Z</time>
      </trkpt>
      <trkpt lat="42.843997" lon="0.53056">
        <ele>1196</ele>
        <time>1970-01-01T01:56:18.000Z</time>
      </trkpt>
      <trkpt lat="42.843982" lon="0.530479">
        <ele>1195.2</ele>
        <time>1970-01-01T02:00:54.000Z</time>
      </trkpt>
      <trkpt lat="42.843984" lon="0.530374">
        <ele>1195.8</ele>
        <time>1970-01-01T02:01:01.000Z</time>
      </trkpt>
      <trkpt lat="42.843969" lon="0.53029">
        <ele>1195.8</ele>
        <time>1970-01-01T02:01:13.000Z</time>
      </trkpt>
      <trkpt lat="42.843914" lon="0.53026">
        <ele>1196.2</ele>
        <time>1970-01-01T02:01:17.000Z</time>
      </trkpt>
      <trkpt lat="42.843847" lon="0.530309">
        <ele>1197.4</ele>
        <time>1970-01-01T02:01:22.000Z</time>
      </trkpt>
      <trkpt lat="42.843806" lon="0.530383">
        <ele>1198.2</ele>
        <time>1970-01-01T02:01:26.000Z</time>
      </trkpt>
      <trkpt lat="42.843781" lon="0.530418">
        <ele>1198.6</ele>
        <time>1970-01-01T02:01:28.000Z</time>
      </trkpt>
      <trkpt lat="42.843724" lon="0.530503">
        <ele>1199.6</ele>
        <time>1970-01-01T02:01:33.000Z</time>
      </trkpt>
      <trkpt lat="42.843663" lon="0.530568">
        <ele>1200.8</ele>
        <time>1970-01-01T02:01:38.000Z</time>
      </trkpt>
      <trkpt lat="42.843642" lon="0.530602">
        <ele>1201.2</ele>
        <time>1970-01-01T02:01:40.000Z</time>
      </trkpt>
      <trkpt lat="42.8436" lon="0.53059">
        <ele>1201.8</ele>
        <time>1970-01-01T02:01:43.000Z</time>
      </trkpt>
      <trkpt lat="42.843639" lon="0.530497">
        <ele>1201.8</ele>
        <time>1970-01-01T02:01:48.000Z</time>
      </trkpt>
      <trkpt lat="42.843649" lon="0.530477">
        <ele>1201.8</ele>
        <time>1970-01-01T02:01:51.000Z</time>
      </trkpt>
      <trkpt lat="42.843702" lon="0.530413">
        <ele>1202</ele>
        <time>1970-01-01T02:02:05.000Z</time>
      </trkpt>
      <trkpt lat="42.843741" lon="0.530219">
        <ele>1203.2</ele>
        <time>1970-01-01T02:02:15.000Z</time>
      </trkpt>
      <trkpt lat="42.843746" lon="0.530121">
        <ele>1204.2</ele>
        <time>1970-01-01T02:02:20.000Z</time>
      </trkpt>
      <trkpt lat="42.843763" lon="0.529925">
        <ele>1205.2</ele>
        <time>1970-01-01T02:02:28.000Z</time>
      </trkpt>
      <trkpt lat="42.843772" lon="0.52982">
        <ele>1206.2</ele>
        <time>1970-01-01T02:02:33.000Z</time>
      </trkpt>
      <trkpt lat="42.843787" lon="0.529727">
        <ele>1207.4</ele>
        <time>1970-01-01T02:02:37.000Z</time>
      </trkpt>
      <trkpt lat="42.843793" lon="0.529582">
        <ele>1208.4</ele>
        <time>1970-01-01T02:02:43.000Z</time>
      </trkpt>
      <trkpt lat="42.843792" lon="0.52946">
        <ele>1209.6</ele>
        <time>1970-01-01T02:02:48.000Z</time>
      </trkpt>
      <trkpt lat="42.84379" lon="0.529368">
        <ele>1210.8</ele>
        <time>1970-01-01T02:02:52.000Z</time>
      </trkpt>
      <trkpt lat="42.843799" lon="0.529234">
        <ele>1211.8</ele>
        <time>1970-01-01T02:02:58.000Z</time>
      </trkpt>
      <trkpt lat="42.843832" lon="0.529119">
        <ele>1212.4</ele>
        <time>1970-01-01T02:03:03.000Z</time>
      </trkpt>
      <trkpt lat="42.843869" lon="0.529002">
        <ele>1213</ele>
        <time>1970-01-01T02:03:08.000Z</time>
      </trkpt>
      <trkpt lat="42.843962" lon="0.528768">
        <ele>1214</ele>
        <time>1970-01-01T02:03:19.000Z</time>
      </trkpt>
      <trkpt lat="42.844021" lon="0.52863">
        <ele>1215.4</ele>
        <time>1970-01-01T02:03:26.000Z</time>
      </trkpt>
      <trkpt lat="42.844114" lon="0.528366">
        <ele>1216.4</ele>
        <time>1970-01-01T02:03:39.000Z</time>
      </trkpt>
      <trkpt lat="42.844219" lon="0.528156">
        <ele>1217.4</ele>
        <time>1970-01-01T02:03:50.000Z</time>
      </trkpt>
      <trkpt lat="42.844325" lon="0.527915">
        <ele>1218.6</ele>
        <time>1970-01-01T02:04:02.000Z</time>
      </trkpt>
      <trkpt lat="42.844384" lon="0.527802">
        <ele>1219.6</ele>
        <time>1970-01-01T02:04:08.000Z</time>
      </trkpt>
      <trkpt lat="42.844514" lon="0.527566">
        <ele>1220.8</ele>
        <time>1970-01-01T02:04:20.000Z</time>
      </trkpt>
      <trkpt lat="42.844624" lon="0.527327">
        <ele>1222</ele>
        <time>1970-01-01T02:04:31.000Z</time>
      </trkpt>
      <trkpt lat="42.844713" lon="0.52712">
        <ele>1223</ele>
        <time>1970-01-01T02:04:40.000Z</time>
      </trkpt>
      <trkpt lat="42.844771" lon="0.526586">
        <ele>1224.2</ele>
        <time>1970-01-01T02:05:00.000Z</time>
      </trkpt>
      <trkpt lat="42.844624" lon="0.526167">
        <ele>1225.4</ele>
        <time>1970-01-01T02:05:13.000Z</time>
      </trkpt>
      <trkpt lat="42.844561" lon="0.525986">
        <ele>1225.2</ele>
        <time>1970-01-01T02:05:17.000Z</time>
      </trkpt>
      <trkpt lat="42.844479" lon="0.525774">
        <ele>1224.4</ele>
        <time>1970-01-01T02:05:21.000Z</time>
      </trkpt>
      <trkpt lat="42.84447" lon="0.525745">
        <ele>1224.2</ele>
        <time>1970-01-01T02:05:22.000Z</time>
      </trkpt>
      <trkpt lat="42.844474" lon="0.525714">
        <ele>1224.2</ele>
        <time>1970-01-01T02:05:23.000Z</time>
      </trkpt>
      <trkpt lat="42.84453" lon="0.525631">
        <ele>1224.2</ele>
        <time>1970-01-01T02:05:29.000Z</time>
      </trkpt>
      <trkpt lat="42.844844" lon="0.525586">
        <ele>1225.4</ele>
        <time>1970-01-01T02:05:44.000Z</time>
      </trkpt>
      <trkpt lat="42.844998" lon="0.525442">
        <ele>1226.4</ele>
        <time>1970-01-01T02:05:52.000Z</time>
      </trkpt>
      <trkpt lat="42.845092" lon="0.525154">
        <ele>1227.4</ele>
        <time>1970-01-01T02:06:02.000Z</time>
      </trkpt>
      <trkpt lat="42.845434" lon="0.524595">
        <ele>1228.4</ele>
        <time>1970-01-01T02:06:22.000Z</time>
      </trkpt>
      <trkpt lat="42.845518" lon="0.524519">
        <ele>1229.6</ele>
        <time>1970-01-01T02:06:26.000Z</time>
      </trkpt>
      <trkpt lat="42.845569" lon="0.524466">
        <ele>1230.6</ele>
        <time>1970-01-01T02:06:29.000Z</time>
      </trkpt>
      <trkpt lat="42.845782" lon="0.524202">
        <ele>1231.4</ele>
        <time>1970-01-01T02:06:43.000Z</time>
      </trkpt>
      <trkpt lat="42.8458" lon="0.524177">
        <ele>1231.6</ele>
        <time>1970-01-01T02:07:24.000Z</time>
      </trkpt>
      <trkpt lat="42.84584" lon="0.524121">
        <ele>1231.8</ele>
        <time>1970-01-01T02:07:27.000Z</time>
      </trkpt>
      <trkpt lat="42.846143" lon="0.523692">
        <ele>1232.8</ele>
        <time>1970-01-01T02:07:41.000Z</time>
      </trkpt>
      <trkpt lat="42.846311" lon="0.523479">
        <ele>1233.8</ele>
        <time>1970-01-01T02:07:48.000Z</time>
      </trkpt>
      <trkpt lat="42.846527" lon="0.523183">
        <ele>1235</ele>
        <time>1970-01-01T02:07:57.000Z</time>
      </trkpt>
      <trkpt lat="42.846785" lon="0.522924">
        <ele>1236</ele>
        <time>1970-01-01T02:08:06.000Z</time>
      </trkpt>
      <trkpt lat="42.846967" lon="0.522702">
        <ele>1237</ele>
        <time>1970-01-01T02:08:13.000Z</time>
      </trkpt>
      <trkpt lat="42.847066" lon="0.522587">
        <ele>1237.2</ele>
        <time>1970-01-01T02:08:19.000Z</time>
      </trkpt>
      <trkpt lat="42.847105" lon="0.522555">
        <ele>1237.6</ele>
        <time>1970-01-01T02:08:36.000Z</time>
      </trkpt>
      <trkpt lat="42.84761" lon="0.522281">
        <ele>1238</ele>
        <time>1970-01-01T02:08:52.000Z</time>
      </trkpt>
      <trkpt lat="42.847685" lon="0.522236">
        <ele>1238</ele>
        <time>1970-01-01T02:08:54.000Z</time>
      </trkpt>
      <trkpt lat="42.847911" lon="0.521927">
        <ele>1236</ele>
        <time>1970-01-01T02:08:59.000Z</time>
      </trkpt>
      <trkpt lat="42.848082" lon="0.521766">
        <ele>1234.8</ele>
        <time>1970-01-01T02:09:02.000Z</time>
      </trkpt>
      <trkpt lat="42.848142" lon="0.521724">
        <ele>1234.4</ele>
        <time>1970-01-01T02:09:03.000Z</time>
      </trkpt>
      <trkpt lat="42.848358" lon="0.521626">
        <ele>1233.8</ele>
        <time>1970-01-01T02:09:06.000Z</time>
      </trkpt>
      <trkpt lat="42.848529" lon="0.521559">
        <ele>1232.2</ele>
        <time>1970-01-01T02:09:08.000Z</time>
      </trkpt>
      <trkpt lat="42.848701" lon="0.521443">
        <ele>1230.8</ele>
        <time>1970-01-01T02:09:10.000Z</time>
      </trkpt>
      <trkpt lat="42.848846" lon="0.52129">
        <ele>1229.2</ele>
        <time>1970-01-01T02:09:12.000Z</time>
      </trkpt>
      <trkpt lat="42.849041" lon="0.521105">
        <ele>1227.6</ele>
        <time>1970-01-01T02:09:15.000Z</time>
      </trkpt>
      <trkpt lat="42.849073" lon="0.521031">
        <ele>1227</ele>
        <time>1970-01-01T02:09:16.000Z</time>
      </trkpt>
      <trkpt lat="42.84913" lon="0.520896">
        <ele>1226.6</ele>
        <time>1970-01-01T02:09:18.000Z</time>
      </trkpt>
      <trkpt lat="42.849208" lon="0.520732">
        <ele>1227.6</ele>
        <time>1970-01-01T02:09:22.000Z</time>
      </trkpt>
      <trkpt lat="42.849283" lon="0.52056">
        <ele>1228.8</ele>
        <time>1970-01-01T02:09:28.000Z</time>
      </trkpt>
      <trkpt lat="42.84935" lon="0.520433">
        <ele>1230</ele>
        <time>1970-01-01T02:09:32.000Z</time>
      </trkpt>
      <trkpt lat="42.849482" lon="0.520255">
        <ele>1231</ele>
        <time>1970-01-01T02:09:38.000Z</time>
      </trkpt>
      <trkpt lat="42.849604" lon="0.520127">
        <ele>1232.2</ele>
        <time>1970-01-01T02:09:43.000Z</time>
      </trkpt>
      <trkpt lat="42.849722" lon="0.519912">
        <ele>1233.2</ele>
        <time>1970-01-01T02:09:50.000Z</time>
      </trkpt>
      <trkpt lat="42.849811" lon="0.519697">
        <ele>1234.2</ele>
        <time>1970-01-01T02:09:56.000Z</time>
      </trkpt>
      <trkpt lat="42.849882" lon="0.519403">
        <ele>1235.4</ele>
        <time>1970-01-01T02:10:04.000Z</time>
      </trkpt>
      <trkpt lat="42.849909" lon="0.51926">
        <ele>1236.6</ele>
        <time>1970-01-01T02:10:09.000Z</time>
      </trkpt>
      <trkpt lat="42.849984" lon="0.519095">
        <ele>1237.6</ele>
        <time>1970-01-01T02:10:17.000Z</time>
      </trkpt>
      <trkpt lat="42.850058" lon="0.51894">
        <ele>1238.8</ele>
        <time>1970-01-01T02:10:23.000Z</time>
      </trkpt>
      <trkpt lat="42.850122" lon="0.518808">
        <ele>1239.8</ele>
        <time>1970-01-01T02:10:29.000Z</time>
      </trkpt>
      <trkpt lat="42.85022" lon="0.518578">
        <ele>1240.8</ele>
        <time>1970-01-01T02:10:39.000Z</time>
      </trkpt>
      <trkpt lat="42.850304" lon="0.518348">
        <ele>1241.8</ele>
        <time>1970-01-01T02:10:48.000Z</time>
      </trkpt>
      <trkpt lat="42.850352" lon="0.518174">
        <ele>1242.8</ele>
        <time>1970-01-01T02:10:56.000Z</time>
      </trkpt>
      <trkpt lat="42.850427" lon="0.517996">
        <ele>1244</ele>
        <time>1970-01-01T02:11:03.000Z</time>
      </trkpt>
      <trkpt lat="42.850784" lon="0.517625">
        <ele>1244.8</ele>
        <time>1970-01-01T02:11:22.000Z</time>
      </trkpt>
      <trkpt lat="42.850939" lon="0.517569">
        <ele>1244.6</ele>
        <time>1970-01-01T02:11:27.000Z</time>
      </trkpt>
      <trkpt lat="42.851029" lon="0.517488">
        <ele>1243.6</ele>
        <time>1970-01-01T02:11:29.000Z</time>
      </trkpt>
      <trkpt lat="42.851138" lon="0.517365">
        <ele>1242</ele>
        <time>1970-01-01T02:11:31.000Z</time>
      </trkpt>
      <trkpt lat="42.851249" lon="0.517211">
        <ele>1240.6</ele>
        <time>1970-01-01T02:11:33.000Z</time>
      </trkpt>
      <trkpt lat="42.851354" lon="0.517096">
        <ele>1239.2</ele>
        <time>1970-01-01T02:11:35.000Z</time>
      </trkpt>
      <trkpt lat="42.851402" lon="0.517068">
        <ele>1238.8</ele>
        <time>1970-01-01T02:11:36.000Z</time>
      </trkpt>
      <trkpt lat="42.851497" lon="0.517094">
        <ele>1238.2</ele>
        <time>1970-01-01T02:11:38.000Z</time>
      </trkpt>
      <trkpt lat="42.851611" lon="0.51724">
        <ele>1238</ele>
        <time>1970-01-01T02:11:42.000Z</time>
      </trkpt>
      <trkpt lat="42.851718" lon="0.51749">
        <ele>1239.4</ele>
        <time>1970-01-01T02:11:51.000Z</time>
      </trkpt>
      <trkpt lat="42.851745" lon="0.517633">
        <ele>1240.4</ele>
        <time>1970-01-01T02:11:56.000Z</time>
      </trkpt>
      <trkpt lat="42.851796" lon="0.51776">
        <ele>1241.8</ele>
        <time>1970-01-01T02:12:01.000Z</time>
      </trkpt>
      <trkpt lat="42.851826" lon="0.517826">
        <ele>1242.8</ele>
        <time>1970-01-01T02:12:04.000Z</time>
      </trkpt>
      <trkpt lat="42.851906" lon="0.517942">
        <ele>1244</ele>
        <time>1970-01-01T02:12:10.000Z</time>
      </trkpt>
      <trkpt lat="42.851976" lon="0.518014">
        <ele>1245.2</ele>
        <time>1970-01-01T02:12:15.000Z</time>
      </trkpt>
      <trkpt lat="42.852058" lon="0.518073">
        <ele>1246.2</ele>
        <time>1970-01-01T02:12:20.000Z</time>
      </trkpt>
      <trkpt lat="42.852113" lon="0.518122">
        <ele>1247.4</ele>
        <time>1970-01-01T02:12:24.000Z</time>
      </trkpt>
      <trkpt lat="42.85215" lon="0.518133">
        <ele>1248.2</ele>
        <time>1970-01-01T02:12:28.000Z</time>
      </trkpt>
      <trkpt lat="42.852082" lon="0.517961">
        <ele>1248.6</ele>
        <time>1970-01-01T02:12:35.000Z</time>
      </trkpt>
      <trkpt lat="42.85205" lon="0.517752">
        <ele>1248.8</ele>
        <time>1970-01-01T02:12:41.000Z</time>
      </trkpt>
      <trkpt lat="42.852093" lon="0.517342">
        <ele>1249.8</ele>
        <time>1970-01-01T02:12:53.000Z</time>
      </trkpt>
      <trkpt lat="42.852261" lon="0.516942">
        <ele>1250.8</ele>
        <time>1970-01-01T02:13:07.000Z</time>
      </trkpt>
      <trkpt lat="42.852368" lon="0.516747">
        <ele>1252</ele>
        <time>1970-01-01T02:13:14.000Z</time>
      </trkpt>
      <trkpt lat="42.852506" lon="0.516511">
        <ele>1253</ele>
        <time>1970-01-01T02:13:23.000Z</time>
      </trkpt>
      <trkpt lat="42.852559" lon="0.516403">
        <ele>1254</ele>
        <time>1970-01-01T02:13:27.000Z</time>
      </trkpt>
      <trkpt lat="42.852665" lon="0.516238">
        <ele>1255</ele>
        <time>1970-01-01T02:13:34.000Z</time>
      </trkpt>
      <trkpt lat="42.852766" lon="0.516114">
        <ele>1256</ele>
        <time>1970-01-01T02:13:40.000Z</time>
      </trkpt>
      <trkpt lat="42.853018" lon="0.515786">
        <ele>1256.6</ele>
        <time>1970-01-01T02:13:52.000Z</time>
      </trkpt>
      <trkpt lat="42.8531" lon="0.515646">
        <ele>1256.4</ele>
        <time>1970-01-01T02:13:55.000Z</time>
      </trkpt>
      <trkpt lat="42.853219" lon="0.515135">
        <ele>1255.6</ele>
        <time>1970-01-01T02:14:07.000Z</time>
      </trkpt>
      <trkpt lat="42.853221" lon="0.515004">
        <ele>1255</ele>
        <time>1970-01-01T02:14:10.000Z</time>
      </trkpt>
      <trkpt lat="42.85322" lon="0.51477">
        <ele>1253.6</ele>
        <time>1970-01-01T02:14:13.000Z</time>
      </trkpt>
      <trkpt lat="42.853144" lon="0.51447">
        <ele>1252.4</ele>
        <time>1970-01-01T02:14:16.000Z</time>
      </trkpt>
      <trkpt lat="42.853099" lon="0.514247">
        <ele>1251.4</ele>
        <time>1970-01-01T02:14:18.000Z</time>
      </trkpt>
      <trkpt lat="42.853054" lon="0.514061">
        <ele>1250</ele>
        <time>1970-01-01T02:14:20.000Z</time>
      </trkpt>
      <trkpt lat="42.852942" lon="0.513936">
        <ele>1248.6</ele>
        <time>1970-01-01T02:14:23.000Z</time>
      </trkpt>
      <trkpt lat="42.852875" lon="0.513899">
        <ele>1248.2</ele>
        <time>1970-01-01T02:14:25.000Z</time>
      </trkpt>
      <trkpt lat="42.852735" lon="0.513785">
        <ele>1249.2</ele>
        <time>1970-01-01T02:14:37.000Z</time>
      </trkpt>
      <trkpt lat="42.85282" lon="0.513669">
        <ele>1249.4</ele>
        <time>1970-01-01T02:14:44.000Z</time>
      </trkpt>
      <trkpt lat="42.852824" lon="0.513646">
        <ele>1249.8</ele>
        <time>1970-01-01T02:14:45.000Z</time>
      </trkpt>
      <trkpt lat="42.852825" lon="0.513551">
        <ele>1251</ele>
        <time>1970-01-01T02:14:50.000Z</time>
      </trkpt>
      <trkpt lat="42.852816" lon="0.513507">
        <ele>1252</ele>
        <time>1970-01-01T02:14:53.000Z</time>
      </trkpt>
      <trkpt lat="42.852808" lon="0.513478">
        <ele>1253</ele>
        <time>1970-01-01T02:14:55.000Z</time>
      </trkpt>
      <trkpt lat="42.852792" lon="0.513425">
        <ele>1254</ele>
        <time>1970-01-01T02:14:59.000Z</time>
      </trkpt>
      <trkpt lat="42.85279" lon="0.513423">
        <ele>1254.2</ele>
        <time>1970-01-01T02:15:00.000Z</time>
      </trkpt>
      <trkpt lat="42.852692" lon="0.513187">
        <ele>1258.4</ele>
        <time>1970-01-01T02:15:39.000Z</time>
      </trkpt>
      <trkpt lat="42.852667" lon="0.513138">
        <ele>1259.6</ele>
        <time>1970-01-01T02:15:42.000Z</time>
      </trkpt>
      <trkpt lat="42.852651" lon="0.51308">
        <ele>1260.6</ele>
        <time>1970-01-01T02:15:46.000Z</time>
      </trkpt>
      <trkpt lat="42.852639" lon="0.513008">
        <ele>1261.6</ele>
        <time>1970-01-01T02:15:51.000Z</time>
      </trkpt>
      <trkpt lat="42.852639" lon="0.512937">
        <ele>1262.8</ele>
        <time>1970-01-01T02:15:56.000Z</time>
      </trkpt>
      <trkpt lat="42.852645" lon="0.512914">
        <ele>1263.2</ele>
        <time>1970-01-01T02:15:59.000Z</time>
      </trkpt>
      <trkpt lat="42.852648" lon="0.512755">
        <ele>1265.6</ele>
        <time>1970-01-01T02:17:20.000Z</time>
      </trkpt>
      <trkpt lat="42.852665" lon="0.51269">
        <ele>1266.8</ele>
        <time>1970-01-01T02:17:24.000Z</time>
      </trkpt>
      <trkpt lat="42.852681" lon="0.51259">
        <ele>1267.8</ele>
        <time>1970-01-01T02:17:30.000Z</time>
      </trkpt>
      <trkpt lat="42.852684" lon="0.512548">
        <ele>1268.8</ele>
        <time>1970-01-01T02:17:33.000Z</time>
      </trkpt>
      <trkpt lat="42.852688" lon="0.512534">
        <ele>1269</ele>
        <time>1970-01-01T02:17:34.000Z</time>
      </trkpt>
      <trkpt lat="42.852697" lon="0.512509">
        <ele>1269.4</ele>
        <time>1970-01-01T02:17:36.000Z</time>
      </trkpt>
      <trkpt lat="42.852703" lon="0.512462">
        <ele>1270.2</ele>
        <time>1970-01-01T02:17:39.000Z</time>
      </trkpt>
      <trkpt lat="42.852712" lon="0.512415">
        <ele>1271.4</ele>
        <time>1970-01-01T02:17:42.000Z</time>
      </trkpt>
      <trkpt lat="42.852724" lon="0.512356">
        <ele>1272.4</ele>
        <time>1970-01-01T02:17:46.000Z</time>
      </trkpt>
      <trkpt lat="42.852725" lon="0.512251">
        <ele>1273.6</ele>
        <time>1970-01-01T02:17:52.000Z</time>
      </trkpt>
      <trkpt lat="42.852725" lon="0.512211">
        <ele>1274.2</ele>
        <time>1970-01-01T02:17:55.000Z</time>
      </trkpt>
      <trkpt lat="42.852725" lon="0.512186">
        <ele>1274.6</ele>
        <time>1970-01-01T02:17:57.000Z</time>
      </trkpt>
      <trkpt lat="42.852721" lon="0.512112">
        <ele>1275.8</ele>
        <time>1970-01-01T02:18:02.000Z</time>
      </trkpt>
      <trkpt lat="42.85272" lon="0.512047">
        <ele>1277</ele>
        <time>1970-01-01T02:18:07.000Z</time>
      </trkpt>
      <trkpt lat="42.85272" lon="0.512033">
        <ele>1277.2</ele>
        <time>1970-01-01T02:18:08.000Z</time>
      </trkpt>
      <trkpt lat="42.852718" lon="0.511977">
        <ele>1278.2</ele>
        <time>1970-01-01T02:18:12.000Z</time>
      </trkpt>
      <trkpt lat="42.852724" lon="0.511896">
        <ele>1279.4</ele>
        <time>1970-01-01T02:18:17.000Z</time>
      </trkpt>
      <trkpt lat="42.852726" lon="0.511819">
        <ele>1280.6</ele>
        <time>1970-01-01T02:18:22.000Z</time>
      </trkpt>
      <trkpt lat="42.852724" lon="0.511772">
        <ele>1281.8</ele>
        <time>1970-01-01T02:18:26.000Z</time>
      </trkpt>
      <trkpt lat="42.852723" lon="0.51171">
        <ele>1283</ele>
        <time>1970-01-01T02:18:31.000Z</time>
      </trkpt>
      <trkpt lat="42.852725" lon="0.511639">
        <ele>1284.2</ele>
        <time>1970-01-01T02:18:36.000Z</time>
      </trkpt>
      <trkpt lat="42.852739" lon="0.511548">
        <ele>1285.6</ele>
        <time>1970-01-01T02:18:43.000Z</time>
      </trkpt>
      <trkpt lat="42.852765" lon="0.511492">
        <ele>1286</ele>
        <time>1970-01-01T02:18:47.000Z</time>
      </trkpt>
      <trkpt lat="42.852788" lon="0.511459">
        <ele>1286.6</ele>
        <time>1970-01-01T02:18:50.000Z</time>
      </trkpt>
      <trkpt lat="42.852803" lon="0.511436">
        <ele>1287.2</ele>
        <time>1970-01-01T02:18:52.000Z</time>
      </trkpt>
      <trkpt lat="42.852807" lon="0.511417">
        <ele>1287.2</ele>
        <time>1970-01-01T02:18:54.000Z</time>
      </trkpt>
      <trkpt lat="42.852835" lon="0.510958">
        <ele>1292.2</ele>
        <time>1970-01-01T02:19:48.000Z</time>
      </trkpt>
      <trkpt lat="42.852839" lon="0.510847">
        <ele>1293.2</ele>
        <time>1970-01-01T02:19:54.000Z</time>
      </trkpt>
      <trkpt lat="42.85284" lon="0.510773">
        <ele>1294.2</ele>
        <time>1970-01-01T02:19:59.000Z</time>
      </trkpt>
      <trkpt lat="42.852855" lon="0.510671">
        <ele>1295.4</ele>
        <time>1970-01-01T02:20:06.000Z</time>
      </trkpt>
      <trkpt lat="42.8529" lon="0.510575">
        <ele>1296.4</ele>
        <time>1970-01-01T02:20:13.000Z</time>
      </trkpt>
      <trkpt lat="42.852958" lon="0.510371">
        <ele>1298</ele>
        <time>1970-01-01T02:20:23.000Z</time>
      </trkpt>
      <trkpt lat="42.853011" lon="0.510228">
        <ele>1299</ele>
        <time>1970-01-01T02:20:30.000Z</time>
      </trkpt>
      <trkpt lat="42.853114" lon="0.509896">
        <ele>1300</ele>
        <time>1970-01-01T02:20:44.000Z</time>
      </trkpt>
      <trkpt lat="42.85323" lon="0.509223">
        <ele>1301</ele>
        <time>1970-01-01T02:21:20.000Z</time>
      </trkpt>
      <trkpt lat="42.85328" lon="0.508877">
        <ele>1302</ele>
        <time>1970-01-01T02:21:34.000Z</time>
      </trkpt>
      <trkpt lat="42.853372" lon="0.508495">
        <ele>1301</ele>
        <time>1970-01-01T02:21:43.000Z</time>
      </trkpt>
      <trkpt lat="42.853772" lon="0.507959">
        <ele>1300.4</ele>
        <time>1970-01-01T02:22:02.000Z</time>
      </trkpt>
      <trkpt lat="42.853917" lon="0.507665">
        <ele>1300.4</ele>
        <time>1970-01-01T02:22:14.000Z</time>
      </trkpt>
      <trkpt lat="42.853939" lon="0.507634">
        <ele>1300.2</ele>
        <time>1970-01-01T02:23:15.000Z</time>
      </trkpt>
      <trkpt lat="42.853955" lon="0.507611">
        <ele>1300</ele>
        <time>1970-01-01T02:23:16.000Z</time>
      </trkpt>
      <trkpt lat="42.8542" lon="0.507267">
        <ele>1299</ele>
        <time>1970-01-01T02:23:27.000Z</time>
      </trkpt>
      <trkpt lat="42.854419" lon="0.507029">
        <ele>1300</ele>
        <time>1970-01-01T02:23:37.000Z</time>
      </trkpt>
      <trkpt lat="42.854455" lon="0.506937">
        <ele>1300.2</ele>
        <time>1970-01-01T02:23:41.000Z</time>
      </trkpt>
      <trkpt lat="42.854388" lon="0.506775">
        <ele>1298.4</ele>
        <time>1970-01-01T02:23:46.000Z</time>
      </trkpt>
      <trkpt lat="42.854332" lon="0.506601">
        <ele>1297.4</ele>
        <time>1970-01-01T02:23:51.000Z</time>
      </trkpt>
      <trkpt lat="42.854397" lon="0.506569">
        <ele>1297.8</ele>
        <time>1970-01-01T02:23:57.000Z</time>
      </trkpt>
      <trkpt lat="42.854506" lon="0.506543">
        <ele>1299.4</ele>
        <time>1970-01-01T02:24:02.000Z</time>
      </trkpt>
      <trkpt lat="42.854774" lon="0.506171">
        <ele>1300.6</ele>
        <time>1970-01-01T02:24:18.000Z</time>
      </trkpt>
      <trkpt lat="42.854885" lon="0.505807">
        <ele>1301.6</ele>
        <time>1970-01-01T02:24:32.000Z</time>
      </trkpt>
      <trkpt lat="42.854951" lon="0.505664">
        <ele>1302.8</ele>
        <time>1970-01-01T02:24:39.000Z</time>
      </trkpt>
      <trkpt lat="42.855009" lon="0.505514">
        <ele>1303.8</ele>
        <time>1970-01-01T02:24:46.000Z</time>
      </trkpt>
      <trkpt lat="42.855082" lon="0.505335">
        <ele>1304.8</ele>
        <time>1970-01-01T02:24:54.000Z</time>
      </trkpt>
      <trkpt lat="42.85516" lon="0.505115">
        <ele>1305.8</ele>
        <time>1970-01-01T02:25:04.000Z</time>
      </trkpt>
      <trkpt lat="42.855215" lon="0.504948">
        <ele>1307</ele>
        <time>1970-01-01T02:25:11.000Z</time>
      </trkpt>
      <trkpt lat="42.855282" lon="0.50473">
        <ele>1308</ele>
        <time>1970-01-01T02:25:20.000Z</time>
      </trkpt>
      <trkpt lat="42.855342" lon="0.504544">
        <ele>1309.2</ele>
        <time>1970-01-01T02:25:28.000Z</time>
      </trkpt>
      <trkpt lat="42.855379" lon="0.504457">
        <ele>1309.8</ele>
        <time>1970-01-01T02:25:32.000Z</time>
      </trkpt>
      <trkpt lat="42.855396" lon="0.504413">
        <ele>1310.2</ele>
        <time>1970-01-01T02:25:34.000Z</time>
      </trkpt>
      <trkpt lat="42.855486" lon="0.504256">
        <ele>1311.4</ele>
        <time>1970-01-01T02:25:42.000Z</time>
      </trkpt>
      <trkpt lat="42.855559" lon="0.504125">
        <ele>1312.4</ele>
        <time>1970-01-01T02:25:48.000Z</time>
      </trkpt>
      <trkpt lat="42.855634" lon="0.50392">
        <ele>1313.4</ele>
        <time>1970-01-01T02:25:56.000Z</time>
      </trkpt>
      <trkpt lat="42.855682" lon="0.503731">
        <ele>1314.4</ele>
        <time>1970-01-01T02:26:03.000Z</time>
      </trkpt>
      <trkpt lat="42.855721" lon="0.503553">
        <ele>1315.4</ele>
        <time>1970-01-01T02:26:10.000Z</time>
      </trkpt>
      <trkpt lat="42.855752" lon="0.503365">
        <ele>1316.6</ele>
        <time>1970-01-01T02:26:17.000Z</time>
      </trkpt>
      <trkpt lat="42.8558" lon="0.503133">
        <ele>1317.6</ele>
        <time>1970-01-01T02:26:26.000Z</time>
      </trkpt>
      <trkpt lat="42.855871" lon="0.502951">
        <ele>1318.8</ele>
        <time>1970-01-01T02:26:34.000Z</time>
      </trkpt>
      <trkpt lat="42.855963" lon="0.502767">
        <ele>1319.8</ele>
        <time>1970-01-01T02:26:42.000Z</time>
      </trkpt>
      <trkpt lat="42.856022" lon="0.502641">
        <ele>1320.8</ele>
        <time>1970-01-01T02:26:47.000Z</time>
      </trkpt>
      <trkpt lat="42.856109" lon="0.502399">
        <ele>1321.4</ele>
        <time>1970-01-01T02:26:55.000Z</time>
      </trkpt>
      <trkpt lat="42.856163" lon="0.502236">
        <ele>1322</ele>
        <time>1970-01-01T02:27:00.000Z</time>
      </trkpt>
      <trkpt lat="42.856321" lon="0.501956">
        <ele>1323</ele>
        <time>1970-01-01T02:27:10.000Z</time>
      </trkpt>
      <trkpt lat="42.856478" lon="0.501822">
        <ele>1324.2</ele>
        <time>1970-01-01T02:27:17.000Z</time>
      </trkpt>
      <trkpt lat="42.856656" lon="0.501684">
        <ele>1325.4</ele>
        <time>1970-01-01T02:27:25.000Z</time>
      </trkpt>
      <trkpt lat="42.856792" lon="0.501404">
        <ele>1326.4</ele>
        <time>1970-01-01T02:27:35.000Z</time>
      </trkpt>
      <trkpt lat="42.856879" lon="0.500713">
        <ele>1326.6</ele>
        <time>1970-01-01T02:27:51.000Z</time>
      </trkpt>
      <trkpt lat="42.856983" lon="0.500418">
        <ele>1325</ele>
        <time>1970-01-01T02:27:55.000Z</time>
      </trkpt>
      <trkpt lat="42.857062" lon="0.500255">
        <ele>1324</ele>
        <time>1970-01-01T02:27:57.000Z</time>
      </trkpt>
      <trkpt lat="42.857101" lon="0.500165">
        <ele>1323.4</ele>
        <time>1970-01-01T02:27:58.000Z</time>
      </trkpt>
      <trkpt lat="42.857199" lon="0.499999">
        <ele>1322.2</ele>
        <time>1970-01-01T02:28:00.000Z</time>
      </trkpt>
      <trkpt lat="42.857298" lon="0.499822">
        <ele>1321</ele>
        <time>1970-01-01T02:28:02.000Z</time>
      </trkpt>
      <trkpt lat="42.857383" lon="0.499608">
        <ele>1319.8</ele>
        <time>1970-01-01T02:28:04.000Z</time>
      </trkpt>
      <trkpt lat="42.857463" lon="0.499386">
        <ele>1317.8</ele>
        <time>1970-01-01T02:28:06.000Z</time>
      </trkpt>
      <trkpt lat="42.857515" lon="0.499158">
        <ele>1316</ele>
        <time>1970-01-01T02:28:08.000Z</time>
      </trkpt>
      <trkpt lat="42.857554" lon="0.498958">
        <ele>1314.6</ele>
        <time>1970-01-01T02:28:10.000Z</time>
      </trkpt>
      <trkpt lat="42.857584" lon="0.498868">
        <ele>1313.8</ele>
        <time>1970-01-01T02:28:11.000Z</time>
      </trkpt>
      <trkpt lat="42.857616" lon="0.498788">
        <ele>1313.2</ele>
        <time>1970-01-01T02:28:12.000Z</time>
      </trkpt>
      <trkpt lat="42.857783" lon="0.498536">
        <ele>1312.2</ele>
        <time>1970-01-01T02:28:16.000Z</time>
      </trkpt>
      <trkpt lat="42.857826" lon="0.49848">
        <ele>1312</ele>
        <time>1970-01-01T02:28:17.000Z</time>
      </trkpt>
      <trkpt lat="42.857995" lon="0.498242">
        <ele>1311</ele>
        <time>1970-01-01T02:28:21.000Z</time>
      </trkpt>
      <trkpt lat="42.858079" lon="0.498146">
        <ele>1310.6</ele>
        <time>1970-01-01T02:28:23.000Z</time>
      </trkpt>
      <trkpt lat="42.858217" lon="0.498037">
        <ele>1310.6</ele>
        <time>1970-01-01T02:28:26.000Z</time>
      </trkpt>
      <trkpt lat="42.858312" lon="0.49776">
        <ele>1311.4</ele>
        <time>1970-01-01T02:28:33.000Z</time>
      </trkpt>
      <trkpt lat="42.858341" lon="0.497551">
        <ele>1311.8</ele>
        <time>1970-01-01T02:28:39.000Z</time>
      </trkpt>
      <trkpt lat="42.858466" lon="0.497356">
        <ele>1313</ele>
        <time>1970-01-01T02:28:47.000Z</time>
      </trkpt>
      <trkpt lat="42.858488" lon="0.497355">
        <ele>1313.2</ele>
        <time>1970-01-01T02:28:48.000Z</time>
      </trkpt>
      <trkpt lat="42.858538" lon="0.49742">
        <ele>1313.6</ele>
        <time>1970-01-01T02:28:53.000Z</time>
      </trkpt>
      <trkpt lat="42.858496" lon="0.49751">
        <ele>1314</ele>
        <time>1970-01-01T02:28:57.000Z</time>
      </trkpt>
      <trkpt lat="42.858469" lon="0.49771">
        <ele>1315.2</ele>
        <time>1970-01-01T02:29:05.000Z</time>
      </trkpt>
      <trkpt lat="42.858474" lon="0.497996">
        <ele>1316.2</ele>
        <time>1970-01-01T02:29:16.000Z</time>
      </trkpt>
      <trkpt lat="42.858485" lon="0.498084">
        <ele>1316.6</ele>
        <time>1970-01-01T02:29:20.000Z</time>
      </trkpt>
      <trkpt lat="42.858497" lon="0.498114">
        <ele>1316.6</ele>
        <time>1970-01-01T02:29:22.000Z</time>
      </trkpt>
      <trkpt lat="42.858479" lon="0.498235">
        <ele>1317</ele>
        <time>1970-01-01T02:29:27.000Z</time>
      </trkpt>
      <trkpt lat="42.858525" lon="0.498486">
        <ele>1318</ele>
        <time>1970-01-01T02:29:37.000Z</time>
      </trkpt>
      <trkpt lat="42.858559" lon="0.498673">
        <ele>1319.2</ele>
        <time>1970-01-01T02:29:44.000Z</time>
      </trkpt>
      <trkpt lat="42.85858" lon="0.49885">
        <ele>1320.4</ele>
        <time>1970-01-01T02:29:50.000Z</time>
      </trkpt>
      <trkpt lat="42.858585" lon="0.499053">
        <ele>1321.4</ele>
        <time>1970-01-01T02:29:57.000Z</time>
      </trkpt>
      <trkpt lat="42.85858" lon="0.499191">
        <ele>1322.6</ele>
        <time>1970-01-01T02:30:02.000Z</time>
      </trkpt>
      <trkpt lat="42.858581" lon="0.499323">
        <ele>1324</ele>
        <time>1970-01-01T02:30:07.000Z</time>
      </trkpt>
      <trkpt lat="42.858577" lon="0.49945">
        <ele>1325</ele>
        <time>1970-01-01T02:30:12.000Z</time>
      </trkpt>
      <trkpt lat="42.858554" lon="0.499585">
        <ele>1325.6</ele>
        <time>1970-01-01T02:30:25.000Z</time>
      </trkpt>
      <trkpt lat="42.858574" lon="0.499582">
        <ele>1325</ele>
        <time>1970-01-01T02:44:49.000Z</time>
      </trkpt>
      <trkpt lat="42.858611" lon="0.499821">
        <ele>1326</ele>
        <time>1970-01-01T02:44:59.000Z</time>
      </trkpt>
      <trkpt lat="42.858614" lon="0.499964">
        <ele>1327.2</ele>
        <time>1970-01-01T02:45:04.000Z</time>
      </trkpt>
      <trkpt lat="42.858633" lon="0.500244">
        <ele>1328.2</ele>
        <time>1970-01-01T02:45:14.000Z</time>
      </trkpt>
      <trkpt lat="42.858639" lon="0.500469">
        <ele>1329.2</ele>
        <time>1970-01-01T02:45:23.000Z</time>
      </trkpt>
      <trkpt lat="42.858651" lon="0.500618">
        <ele>1330.2</ele>
        <time>1970-01-01T02:45:29.000Z</time>
      </trkpt>
      <trkpt lat="42.858752" lon="0.500948">
        <ele>1330.6</ele>
        <time>1970-01-01T02:45:42.000Z</time>
      </trkpt>
      <trkpt lat="42.858728" lon="0.501066">
        <ele>1331.2</ele>
        <time>1970-01-01T02:45:46.000Z</time>
      </trkpt>
      <trkpt lat="42.858721" lon="0.501098">
        <ele>1331.2</ele>
        <time>1970-01-01T02:45:47.000Z</time>
      </trkpt>
      <trkpt lat="42.858706" lon="0.501632">
        <ele>1332.4</ele>
        <time>1970-01-01T02:46:03.000Z</time>
      </trkpt>
      <trkpt lat="42.858718" lon="0.501809">
        <ele>1333.4</ele>
        <time>1970-01-01T02:46:08.000Z</time>
      </trkpt>
      <trkpt lat="42.858737" lon="0.502249">
        <ele>1334.4</ele>
        <time>1970-01-01T02:46:20.000Z</time>
      </trkpt>
      <trkpt lat="42.85874" lon="0.502565">
        <ele>1335.6</ele>
        <time>1970-01-01T02:46:29.000Z</time>
      </trkpt>
      <trkpt lat="42.858748" lon="0.502883">
        <ele>1336.6</ele>
        <time>1970-01-01T02:46:38.000Z</time>
      </trkpt>
      <trkpt lat="42.858742" lon="0.503198">
        <ele>1337.6</ele>
        <time>1970-01-01T02:46:47.000Z</time>
      </trkpt>
      <trkpt lat="42.858721" lon="0.503377">
        <ele>1338.8</ele>
        <time>1970-01-01T02:46:52.000Z</time>
      </trkpt>
      <trkpt lat="42.858709" lon="0.503654">
        <ele>1340</ele>
        <time>1970-01-01T02:47:00.000Z</time>
      </trkpt>
      <trkpt lat="42.858694" lon="0.50389">
        <ele>1341.2</ele>
        <time>1970-01-01T02:47:07.000Z</time>
      </trkpt>
      <trkpt lat="42.858663" lon="0.504232">
        <ele>1342.2</ele>
        <time>1970-01-01T02:47:17.000Z</time>
      </trkpt>
      <trkpt lat="42.858598" lon="0.504406">
        <ele>1343.2</ele>
        <time>1970-01-01T02:47:23.000Z</time>
      </trkpt>
      <trkpt lat="42.85854" lon="0.504528">
        <ele>1344.4</ele>
        <time>1970-01-01T02:47:28.000Z</time>
      </trkpt>
      <trkpt lat="42.858466" lon="0.504666">
        <ele>1345.4</ele>
        <time>1970-01-01T02:47:34.000Z</time>
      </trkpt>
      <trkpt lat="42.858396" lon="0.504801">
        <ele>1346.6</ele>
        <time>1970-01-01T02:47:40.000Z</time>
      </trkpt>
      <trkpt lat="42.858336" lon="0.504913">
        <ele>1347.6</ele>
        <time>1970-01-01T02:47:45.000Z</time>
      </trkpt>
      <trkpt lat="42.858265" lon="0.505075">
        <ele>1348.8</ele>
        <time>1970-01-01T02:47:52.000Z</time>
      </trkpt>
      <trkpt lat="42.858213" lon="0.505195">
        <ele>1350</ele>
        <time>1970-01-01T02:47:57.000Z</time>
      </trkpt>
      <trkpt lat="42.858165" lon="0.505353">
        <ele>1351</ele>
        <time>1970-01-01T02:48:03.000Z</time>
      </trkpt>
      <trkpt lat="42.85812" lon="0.505483">
        <ele>1352</ele>
        <time>1970-01-01T02:48:08.000Z</time>
      </trkpt>
      <trkpt lat="42.858059" lon="0.505671">
        <ele>1353.2</ele>
        <time>1970-01-01T02:48:15.000Z</time>
      </trkpt>
      <trkpt lat="42.858004" lon="0.505825">
        <ele>1354.2</ele>
        <time>1970-01-01T02:48:21.000Z</time>
      </trkpt>
      <trkpt lat="42.857965" lon="0.505954">
        <ele>1355.2</ele>
        <time>1970-01-01T02:48:26.000Z</time>
      </trkpt>
      <trkpt lat="42.857879" lon="0.506169">
        <ele>1356.2</ele>
        <time>1970-01-01T02:48:35.000Z</time>
      </trkpt>
      <trkpt lat="42.857805" lon="0.506369">
        <ele>1357.2</ele>
        <time>1970-01-01T02:48:43.000Z</time>
      </trkpt>
      <trkpt lat="42.857764" lon="0.506468">
        <ele>1358.6</ele>
        <time>1970-01-01T02:48:47.000Z</time>
      </trkpt>
      <trkpt lat="42.857697" lon="0.506644">
        <ele>1359.6</ele>
        <time>1970-01-01T02:48:54.000Z</time>
      </trkpt>
      <trkpt lat="42.857654" lon="0.506773">
        <ele>1360.6</ele>
        <time>1970-01-01T02:48:59.000Z</time>
      </trkpt>
      <trkpt lat="42.857587" lon="0.506952">
        <ele>1362</ele>
        <time>1970-01-01T02:49:06.000Z</time>
      </trkpt>
      <trkpt lat="42.857518" lon="0.507155">
        <ele>1363.2</ele>
        <time>1970-01-01T02:49:14.000Z</time>
      </trkpt>
      <trkpt lat="42.857467" lon="0.507306">
        <ele>1364.2</ele>
        <time>1970-01-01T02:49:20.000Z</time>
      </trkpt>
      <trkpt lat="42.857423" lon="0.507464">
        <ele>1365.2</ele>
        <time>1970-01-01T02:49:26.000Z</time>
      </trkpt>
      <trkpt lat="42.857358" lon="0.507646">
        <ele>1366.2</ele>
        <time>1970-01-01T02:49:33.000Z</time>
      </trkpt>
      <trkpt lat="42.857305" lon="0.507828">
        <ele>1367.2</ele>
        <time>1970-01-01T02:49:40.000Z</time>
      </trkpt>
      <trkpt lat="42.857255" lon="0.508016">
        <ele>1368.4</ele>
        <time>1970-01-01T02:49:47.000Z</time>
      </trkpt>
      <trkpt lat="42.8572" lon="0.508177">
        <ele>1369.4</ele>
        <time>1970-01-01T02:49:53.000Z</time>
      </trkpt>
      <trkpt lat="42.857142" lon="0.508337">
        <ele>1370.6</ele>
        <time>1970-01-01T02:49:59.000Z</time>
      </trkpt>
      <trkpt lat="42.857091" lon="0.508494">
        <ele>1371.6</ele>
        <time>1970-01-01T02:50:05.000Z</time>
      </trkpt>
      <trkpt lat="42.857043" lon="0.50865">
        <ele>1372.6</ele>
        <time>1970-01-01T02:50:11.000Z</time>
      </trkpt>
      <trkpt lat="42.857003" lon="0.50878">
        <ele>1373.6</ele>
        <time>1970-01-01T02:50:16.000Z</time>
      </trkpt>
      <trkpt lat="42.85694" lon="0.508969">
        <ele>1374.6</ele>
        <time>1970-01-01T02:50:23.000Z</time>
      </trkpt>
      <trkpt lat="42.856887" lon="0.509132">
        <ele>1375.8</ele>
        <time>1970-01-01T02:50:29.000Z</time>
      </trkpt>
      <trkpt lat="42.856849" lon="0.509272">
        <ele>1376.8</ele>
        <time>1970-01-01T02:50:34.000Z</time>
      </trkpt>
      <trkpt lat="42.856797" lon="0.509465">
        <ele>1377.8</ele>
        <time>1970-01-01T02:50:41.000Z</time>
      </trkpt>
      <trkpt lat="42.856745" lon="0.509601">
        <ele>1379</ele>
        <time>1970-01-01T02:50:47.000Z</time>
      </trkpt>
      <trkpt lat="42.856698" lon="0.509748">
        <ele>1380.2</ele>
        <time>1970-01-01T02:50:53.000Z</time>
      </trkpt>
      <trkpt lat="42.85664" lon="0.509904">
        <ele>1381.2</ele>
        <time>1970-01-01T02:50:59.000Z</time>
      </trkpt>
      <trkpt lat="42.856582" lon="0.510062">
        <ele>1382.4</ele>
        <time>1970-01-01T02:51:05.000Z</time>
      </trkpt>
      <trkpt lat="42.856536" lon="0.510188">
        <ele>1383.4</ele>
        <time>1970-01-01T02:51:10.000Z</time>
      </trkpt>
      <trkpt lat="42.856481" lon="0.51035">
        <ele>1384.6</ele>
        <time>1970-01-01T02:51:16.000Z</time>
      </trkpt>
      <trkpt lat="42.856403" lon="0.510563">
        <ele>1385.4</ele>
        <time>1970-01-01T02:51:24.000Z</time>
      </trkpt>
      <trkpt lat="42.856375" lon="0.510776">
        <ele>1386.4</ele>
        <time>1970-01-01T02:51:31.000Z</time>
      </trkpt>
      <trkpt lat="42.856355" lon="0.511026">
        <ele>1387.6</ele>
        <time>1970-01-01T02:51:39.000Z</time>
      </trkpt>
      <trkpt lat="42.856342" lon="0.511206">
        <ele>1388.6</ele>
        <time>1970-01-01T02:51:45.000Z</time>
      </trkpt>
      <trkpt lat="42.856317" lon="0.511443">
        <ele>1389.8</ele>
        <time>1970-01-01T02:51:53.000Z</time>
      </trkpt>
      <trkpt lat="42.856312" lon="0.511652">
        <ele>1390.8</ele>
        <time>1970-01-01T02:52:00.000Z</time>
      </trkpt>
      <trkpt lat="42.856295" lon="0.511925">
        <ele>1391.8</ele>
        <time>1970-01-01T02:52:09.000Z</time>
      </trkpt>
      <trkpt lat="42.856281" lon="0.512076">
        <ele>1392.8</ele>
        <time>1970-01-01T02:52:14.000Z</time>
      </trkpt>
      <trkpt lat="42.856266" lon="0.512231">
        <ele>1394.2</ele>
        <time>1970-01-01T02:52:19.000Z</time>
      </trkpt>
      <trkpt lat="42.856248" lon="0.512416">
        <ele>1395.2</ele>
        <time>1970-01-01T02:52:25.000Z</time>
      </trkpt>
      <trkpt lat="42.856237" lon="0.512541">
        <ele>1396.2</ele>
        <time>1970-01-01T02:52:29.000Z</time>
      </trkpt>
      <trkpt lat="42.856216" lon="0.512788">
        <ele>1397.4</ele>
        <time>1970-01-01T02:52:37.000Z</time>
      </trkpt>
      <trkpt lat="42.856199" lon="0.513006">
        <ele>1398.8</ele>
        <time>1970-01-01T02:52:44.000Z</time>
      </trkpt>
      <trkpt lat="42.856184" lon="0.513187">
        <ele>1399.8</ele>
        <time>1970-01-01T02:52:50.000Z</time>
      </trkpt>
      <trkpt lat="42.856169" lon="0.513432">
        <ele>1400.8</ele>
        <time>1970-01-01T02:52:58.000Z</time>
      </trkpt>
      <trkpt lat="42.856161" lon="0.513758">
        <ele>1401.8</ele>
        <time>1970-01-01T02:53:08.000Z</time>
      </trkpt>
      <trkpt lat="42.856373" lon="0.514061">
        <ele>1403</ele>
        <time>1970-01-01T02:53:21.000Z</time>
      </trkpt>
      <trkpt lat="42.856559" lon="0.513916">
        <ele>1403.8</ele>
        <time>1970-01-01T02:53:30.000Z</time>
      </trkpt>
      <trkpt lat="42.856567" lon="0.513885">
        <ele>1404</ele>
        <time>1970-01-01T02:53:31.000Z</time>
      </trkpt>
      <trkpt lat="42.856612" lon="0.513741">
        <ele>1404.4</ele>
        <time>1970-01-01T02:53:36.000Z</time>
      </trkpt>
      <trkpt lat="42.856685" lon="0.513658">
        <ele>1405</ele>
        <time>1970-01-01T02:53:40.000Z</time>
      </trkpt>
      <trkpt lat="42.856748" lon="0.513561">
        <ele>1406.2</ele>
        <time>1970-01-01T02:53:45.000Z</time>
      </trkpt>
      <trkpt lat="42.856794" lon="0.513491">
        <ele>1407.2</ele>
        <time>1970-01-01T02:53:49.000Z</time>
      </trkpt>
      <trkpt lat="42.85688" lon="0.513429">
        <ele>1408.4</ele>
        <time>1970-01-01T02:53:55.000Z</time>
      </trkpt>
      <trkpt lat="42.856947" lon="0.513379">
        <ele>1409.4</ele>
        <time>1970-01-01T02:54:00.000Z</time>
      </trkpt>
      <trkpt lat="42.857025" lon="0.513301">
        <ele>1410.6</ele>
        <time>1970-01-01T02:54:06.000Z</time>
      </trkpt>
      <trkpt lat="42.857071" lon="0.513255">
        <ele>1411.8</ele>
        <time>1970-01-01T02:54:10.000Z</time>
      </trkpt>
      <trkpt lat="42.857148" lon="0.513189">
        <ele>1413</ele>
        <time>1970-01-01T02:54:16.000Z</time>
      </trkpt>
      <trkpt lat="42.857209" lon="0.513144">
        <ele>1414</ele>
        <time>1970-01-01T02:54:21.000Z</time>
      </trkpt>
      <trkpt lat="42.857286" lon="0.513094">
        <ele>1415.2</ele>
        <time>1970-01-01T02:54:27.000Z</time>
      </trkpt>
      <trkpt lat="42.857351" lon="0.513054">
        <ele>1416</ele>
        <time>1970-01-01T02:54:32.000Z</time>
      </trkpt>
      <trkpt lat="42.857441" lon="0.512999">
        <ele>1417</ele>
        <time>1970-01-01T02:54:39.000Z</time>
      </trkpt>
      <trkpt lat="42.857557" lon="0.512941">
        <ele>1418</ele>
        <time>1970-01-01T02:54:47.000Z</time>
      </trkpt>
      <trkpt lat="42.857654" lon="0.512888">
        <ele>1419.2</ele>
        <time>1970-01-01T02:54:54.000Z</time>
      </trkpt>
      <trkpt lat="42.857739" lon="0.512857">
        <ele>1420.4</ele>
        <time>1970-01-01T02:55:00.000Z</time>
      </trkpt>
      <trkpt lat="42.857835" lon="0.512826">
        <ele>1421.4</ele>
        <time>1970-01-01T02:55:07.000Z</time>
      </trkpt>
      <trkpt lat="42.8579" lon="0.512796">
        <ele>1422.6</ele>
        <time>1970-01-01T02:55:12.000Z</time>
      </trkpt>
      <trkpt lat="42.858" lon="0.512726">
        <ele>1423.8</ele>
        <time>1970-01-01T02:55:19.000Z</time>
      </trkpt>
      <trkpt lat="42.85803" lon="0.512718">
        <ele>1424</ele>
        <time>1970-01-01T02:55:21.000Z</time>
      </trkpt>
      <trkpt lat="42.858107" lon="0.512894">
        <ele>1424.4</ele>
        <time>1970-01-01T02:55:30.000Z</time>
      </trkpt>
      <trkpt lat="42.857902" lon="0.513578">
        <ele>1423.6</ele>
        <time>1970-01-01T02:55:47.000Z</time>
      </trkpt>
      <trkpt lat="42.857832" lon="0.51407">
        <ele>1422.8</ele>
        <time>1970-01-01T02:55:58.000Z</time>
      </trkpt>
      <trkpt lat="42.857765" lon="0.514815">
        <ele>1423</ele>
        <time>1970-01-01T02:56:14.000Z</time>
      </trkpt>
      <trkpt lat="42.857846" lon="0.515536">
        <ele>1424.2</ele>
        <time>1970-01-01T02:56:32.000Z</time>
      </trkpt>
      <trkpt lat="42.857782" lon="0.515699">
        <ele>1424.4</ele>
        <time>1970-01-01T02:56:36.000Z</time>
      </trkpt>
      <trkpt lat="42.857491" lon="0.516331">
        <ele>1424.8</ele>
        <time>1970-01-01T02:56:50.000Z</time>
      </trkpt>
      <trkpt lat="42.857425" lon="0.516536">
        <ele>1425</ele>
        <time>1970-01-01T02:56:54.000Z</time>
      </trkpt>
      <trkpt lat="42.857422" lon="0.516896">
        <ele>1425</ele>
        <time>1970-01-01T02:57:01.000Z</time>
      </trkpt>
      <trkpt lat="42.857558" lon="0.517265">
        <ele>1425.4</ele>
        <time>1970-01-01T02:57:09.000Z</time>
      </trkpt>
      <trkpt lat="42.857746" lon="0.51792">
        <ele>1426.4</ele>
        <time>1970-01-01T02:57:22.000Z</time>
      </trkpt>
      <trkpt lat="42.857955" lon="0.518413">
        <ele>1427.4</ele>
        <time>1970-01-01T02:57:33.000Z</time>
      </trkpt>
      <trkpt lat="42.858006" lon="0.518496">
        <ele>1427.6</ele>
        <time>1970-01-01T02:57:35.000Z</time>
      </trkpt>
      <trkpt lat="42.858275" lon="0.518699">
        <ele>1427.4</ele>
        <time>1970-01-01T02:57:43.000Z</time>
      </trkpt>
      <trkpt lat="42.858418" lon="0.519261">
        <ele>1428.4</ele>
        <time>1970-01-01T02:57:58.000Z</time>
      </trkpt>
      <trkpt lat="42.858423" lon="0.519387">
        <ele>1428.8</ele>
        <time>1970-01-01T02:58:01.000Z</time>
      </trkpt>
      <trkpt lat="42.858455" lon="0.519626">
        <ele>1429.6</ele>
        <time>1970-01-01T02:58:07.000Z</time>
      </trkpt>
      <trkpt lat="42.858567" lon="0.520006">
        <ele>1429.8</ele>
        <time>1970-01-01T02:58:15.000Z</time>
      </trkpt>
      <trkpt lat="42.858635" lon="0.520181">
        <ele>1429.2</ele>
        <time>1970-01-01T02:58:18.000Z</time>
      </trkpt>
      <trkpt lat="42.85873" lon="0.520399">
        <ele>1428.8</ele>
        <time>1970-01-01T02:58:22.000Z</time>
      </trkpt>
      <trkpt lat="42.859061" lon="0.521004">
        <ele>1429.4</ele>
        <time>1970-01-01T02:58:37.000Z</time>
      </trkpt>
      <trkpt lat="42.85933" lon="0.521342">
        <ele>1430.2</ele>
        <time>1970-01-01T02:58:48.000Z</time>
      </trkpt>
      <trkpt lat="42.859327" lon="0.521407">
        <ele>1430.6</ele>
        <time>1970-01-01T02:58:50.000Z</time>
      </trkpt>
      <trkpt lat="42.859225" lon="0.521483">
        <ele>1431.6</ele>
        <time>1970-01-01T02:58:57.000Z</time>
      </trkpt>
      <trkpt lat="42.859135" lon="0.521516">
        <ele>1432.8</ele>
        <time>1970-01-01T02:59:02.000Z</time>
      </trkpt>
      <trkpt lat="42.859116" lon="0.521519">
        <ele>1433.2</ele>
        <time>1970-01-01T02:59:03.000Z</time>
      </trkpt>
      <trkpt lat="42.859024" lon="0.52154">
        <ele>1434</ele>
        <time>1970-01-01T02:59:08.000Z</time>
      </trkpt>
      <trkpt lat="42.858951" lon="0.521553">
        <ele>1435.2</ele>
        <time>1970-01-01T02:59:12.000Z</time>
      </trkpt>
      <trkpt lat="42.858863" lon="0.521581">
        <ele>1436.2</ele>
        <time>1970-01-01T02:59:17.000Z</time>
      </trkpt>
      <trkpt lat="42.858759" lon="0.521601">
        <ele>1437.2</ele>
        <time>1970-01-01T02:59:23.000Z</time>
      </trkpt>
      <trkpt lat="42.858663" lon="0.521621">
        <ele>1438.4</ele>
        <time>1970-01-01T02:59:29.000Z</time>
      </trkpt>
      <trkpt lat="42.858579" lon="0.521654">
        <ele>1439.4</ele>
        <time>1970-01-01T02:59:34.000Z</time>
      </trkpt>
      <trkpt lat="42.858475" lon="0.521687">
        <ele>1440.4</ele>
        <time>1970-01-01T02:59:40.000Z</time>
      </trkpt>
      <trkpt lat="42.858374" lon="0.521712">
        <ele>1441.6</ele>
        <time>1970-01-01T02:59:46.000Z</time>
      </trkpt>
      <trkpt lat="42.858266" lon="0.521743">
        <ele>1442.6</ele>
        <time>1970-01-01T02:59:52.000Z</time>
      </trkpt>
      <trkpt lat="42.858162" lon="0.521748">
        <ele>1443.8</ele>
        <time>1970-01-01T02:59:57.000Z</time>
      </trkpt>
      <trkpt lat="42.858047" lon="0.521769">
        <ele>1444.6</ele>
        <time>1970-01-01T03:00:03.000Z</time>
      </trkpt>
      <trkpt lat="42.857935" lon="0.521789">
        <ele>1445.8</ele>
        <time>1970-01-01T03:00:09.000Z</time>
      </trkpt>
      <trkpt lat="42.857823" lon="0.521808">
        <ele>1447</ele>
        <time>1970-01-01T03:00:15.000Z</time>
      </trkpt>
      <trkpt lat="42.857718" lon="0.521839">
        <ele>1448</ele>
        <time>1970-01-01T03:00:22.000Z</time>
      </trkpt>
      <trkpt lat="42.857627" lon="0.521854">
        <ele>1448.8</ele>
        <time>1970-01-01T03:00:28.000Z</time>
      </trkpt>
      <trkpt lat="42.857538" lon="0.521875">
        <ele>1450</ele>
        <time>1970-01-01T03:00:35.000Z</time>
      </trkpt>
      <trkpt lat="42.857432" lon="0.521917">
        <ele>1451</ele>
        <time>1970-01-01T03:00:42.000Z</time>
      </trkpt>
      <trkpt lat="42.857418" lon="0.521918">
        <ele>1451.2</ele>
        <time>1970-01-01T03:00:43.000Z</time>
      </trkpt>
      <trkpt lat="42.857319" lon="0.521934">
        <ele>1452</ele>
        <time>1970-01-01T03:00:50.000Z</time>
      </trkpt>
      <trkpt lat="42.857247" lon="0.521973">
        <ele>1453</ele>
        <time>1970-01-01T03:00:55.000Z</time>
      </trkpt>
      <trkpt lat="42.85715" lon="0.522029">
        <ele>1454.2</ele>
        <time>1970-01-01T03:01:02.000Z</time>
      </trkpt>
      <trkpt lat="42.857037" lon="0.522089">
        <ele>1455</ele>
        <time>1970-01-01T03:01:09.000Z</time>
      </trkpt>
      <trkpt lat="42.856945" lon="0.52215">
        <ele>1456.2</ele>
        <time>1970-01-01T03:01:15.000Z</time>
      </trkpt>
      <trkpt lat="42.856867" lon="0.5222">
        <ele>1457.2</ele>
        <time>1970-01-01T03:01:20.000Z</time>
      </trkpt>
      <trkpt lat="42.856753" lon="0.522287">
        <ele>1458.2</ele>
        <time>1970-01-01T03:01:28.000Z</time>
      </trkpt>
      <trkpt lat="42.856676" lon="0.522366">
        <ele>1459.4</ele>
        <time>1970-01-01T03:01:33.000Z</time>
      </trkpt>
      <trkpt lat="42.856644" lon="0.522391">
        <ele>1459.8</ele>
        <time>1970-01-01T03:01:35.000Z</time>
      </trkpt>
      <trkpt lat="42.856558" lon="0.52244">
        <ele>1460.2</ele>
        <time>1970-01-01T03:01:40.000Z</time>
      </trkpt>
      <trkpt lat="42.856459" lon="0.52252">
        <ele>1461.4</ele>
        <time>1970-01-01T03:01:46.000Z</time>
      </trkpt>
      <trkpt lat="42.856329" lon="0.522629">
        <ele>1462.2</ele>
        <time>1970-01-01T03:01:54.000Z</time>
      </trkpt>
      <trkpt lat="42.856219" lon="0.52272">
        <ele>1463.2</ele>
        <time>1970-01-01T03:02:01.000Z</time>
      </trkpt>
      <trkpt lat="42.856145" lon="0.522789">
        <ele>1464.4</ele>
        <time>1970-01-01T03:02:06.000Z</time>
      </trkpt>
      <trkpt lat="42.856072" lon="0.522855">
        <ele>1465.4</ele>
        <time>1970-01-01T03:02:11.000Z</time>
      </trkpt>
      <trkpt lat="42.856001" lon="0.522913">
        <ele>1466.4</ele>
        <time>1970-01-01T03:02:16.000Z</time>
      </trkpt>
      <trkpt lat="42.855934" lon="0.522975">
        <ele>1467.4</ele>
        <time>1970-01-01T03:02:21.000Z</time>
      </trkpt>
      <trkpt lat="42.855856" lon="0.523061">
        <ele>1468.4</ele>
        <time>1970-01-01T03:02:27.000Z</time>
      </trkpt>
      <trkpt lat="42.85584" lon="0.523075">
        <ele>1468.4</ele>
        <time>1970-01-01T03:02:28.000Z</time>
      </trkpt>
      <trkpt lat="42.855795" lon="0.52311">
        <ele>1469.4</ele>
        <time>1970-01-01T03:02:31.000Z</time>
      </trkpt>
      <trkpt lat="42.855744" lon="0.523196">
        <ele>1470.4</ele>
        <time>1970-01-01T03:02:36.000Z</time>
      </trkpt>
      <trkpt lat="42.855681" lon="0.52329">
        <ele>1471.6</ele>
        <time>1970-01-01T03:02:41.000Z</time>
      </trkpt>
      <trkpt lat="42.85562" lon="0.523393">
        <ele>1472.4</ele>
        <time>1970-01-01T03:02:46.000Z</time>
      </trkpt>
      <trkpt lat="42.855571" lon="0.523511">
        <ele>1473.6</ele>
        <time>1970-01-01T03:02:52.000Z</time>
      </trkpt>
      <trkpt lat="42.855544" lon="0.523603">
        <ele>1474.6</ele>
        <time>1970-01-01T03:02:57.000Z</time>
      </trkpt>
      <trkpt lat="42.855551" lon="0.523679">
        <ele>1475</ele>
        <time>1970-01-01T03:03:01.000Z</time>
      </trkpt>
      <trkpt lat="42.855584" lon="0.523684">
        <ele>1475.2</ele>
        <time>1970-01-01T03:03:05.000Z</time>
      </trkpt>
      <trkpt lat="42.855623" lon="0.523748">
        <ele>1475.6</ele>
        <time>1970-01-01T03:04:38.000Z</time>
      </trkpt>
      <trkpt lat="42.855714" lon="0.523829">
        <ele>1476.6</ele>
        <time>1970-01-01T03:04:44.000Z</time>
      </trkpt>
      <trkpt lat="42.855752" lon="0.523879">
        <ele>1477.2</ele>
        <time>1970-01-01T03:04:47.000Z</time>
      </trkpt>
      <trkpt lat="42.855768" lon="0.523948">
        <ele>1477.8</ele>
        <time>1970-01-01T03:04:50.000Z</time>
      </trkpt>
      <trkpt lat="42.85577" lon="0.523972">
        <ele>1477.8</ele>
        <time>1970-01-01T03:04:51.000Z</time>
      </trkpt>
      <trkpt lat="42.855786" lon="0.524065">
        <ele>1478.8</ele>
        <time>1970-01-01T03:04:55.000Z</time>
      </trkpt>
      <trkpt lat="42.855823" lon="0.524166">
        <ele>1479.8</ele>
        <time>1970-01-01T03:05:00.000Z</time>
      </trkpt>
      <trkpt lat="42.855871" lon="0.524254">
        <ele>1480.8</ele>
        <time>1970-01-01T03:05:05.000Z</time>
      </trkpt>
      <trkpt lat="42.85591" lon="0.524344">
        <ele>1481.8</ele>
        <time>1970-01-01T03:05:10.000Z</time>
      </trkpt>
      <trkpt lat="42.855944" lon="0.524441">
        <ele>1482.8</ele>
        <time>1970-01-01T03:05:15.000Z</time>
      </trkpt>
      <trkpt lat="42.855986" lon="0.524562">
        <ele>1484</ele>
        <time>1970-01-01T03:05:21.000Z</time>
      </trkpt>
      <trkpt lat="42.856005" lon="0.524664">
        <ele>1485.2</ele>
        <time>1970-01-01T03:05:26.000Z</time>
      </trkpt>
      <trkpt lat="42.856036" lon="0.524794">
        <ele>1486.4</ele>
        <time>1970-01-01T03:05:32.000Z</time>
      </trkpt>
      <trkpt lat="42.856101" lon="0.524934">
        <ele>1487.4</ele>
        <time>1970-01-01T03:05:39.000Z</time>
      </trkpt>
      <trkpt lat="42.85615" lon="0.524999">
        <ele>1488.4</ele>
        <time>1970-01-01T03:05:43.000Z</time>
      </trkpt>
      <trkpt lat="42.856217" lon="0.525073">
        <ele>1489.4</ele>
        <time>1970-01-01T03:05:48.000Z</time>
      </trkpt>
      <trkpt lat="42.856282" lon="0.525164">
        <ele>1490.4</ele>
        <time>1970-01-01T03:05:54.000Z</time>
      </trkpt>
      <trkpt lat="42.856331" lon="0.525225">
        <ele>1491.6</ele>
        <time>1970-01-01T03:05:59.000Z</time>
      </trkpt>
      <trkpt lat="42.856397" lon="0.525301">
        <ele>1492.8</ele>
        <time>1970-01-01T03:06:04.000Z</time>
      </trkpt>
      <trkpt lat="42.856498" lon="0.525413">
        <ele>1493.8</ele>
        <time>1970-01-01T03:06:11.000Z</time>
      </trkpt>
      <trkpt lat="42.856583" lon="0.525473">
        <ele>1494.8</ele>
        <time>1970-01-01T03:06:16.000Z</time>
      </trkpt>
      <trkpt lat="42.856691" lon="0.525552">
        <ele>1496</ele>
        <time>1970-01-01T03:06:22.000Z</time>
      </trkpt>
      <trkpt lat="42.856776" lon="0.525812">
        <ele>1497</ele>
        <time>1970-01-01T03:06:32.000Z</time>
      </trkpt>
      <trkpt lat="42.856756" lon="0.525973">
        <ele>1498</ele>
        <time>1970-01-01T03:06:37.000Z</time>
      </trkpt>
      <trkpt lat="42.856735" lon="0.526307">
        <ele>1499</ele>
        <time>1970-01-01T03:06:47.000Z</time>
      </trkpt>
      <trkpt lat="42.856768" lon="0.526376">
        <ele>1499.4</ele>
        <time>1970-01-01T03:06:50.000Z</time>
      </trkpt>
      <trkpt lat="42.856817" lon="0.526346">
        <ele>1500</ele>
        <time>1970-01-01T03:06:53.000Z</time>
      </trkpt>
      <trkpt lat="42.85683" lon="0.526241">
        <ele>1501</ele>
        <time>1970-01-01T03:06:57.000Z</time>
      </trkpt>
      <trkpt lat="42.856828" lon="0.526101">
        <ele>1502.2</ele>
        <time>1970-01-01T03:07:02.000Z</time>
      </trkpt>
      <trkpt lat="42.85684" lon="0.525987">
        <ele>1503.4</ele>
        <time>1970-01-01T03:07:06.000Z</time>
      </trkpt>
      <trkpt lat="42.856865" lon="0.525875">
        <ele>1504.6</ele>
        <time>1970-01-01T03:07:12.000Z</time>
      </trkpt>
      <trkpt lat="42.856886" lon="0.525807">
        <ele>1505.4</ele>
        <time>1970-01-01T03:07:36.000Z</time>
      </trkpt>
      <trkpt lat="42.856897" lon="0.525794">
        <ele>1505.4</ele>
        <time>1970-01-01T03:07:37.000Z</time>
      </trkpt>
      <trkpt lat="42.856945" lon="0.52568">
        <ele>1506.6</ele>
        <time>1970-01-01T03:07:43.000Z</time>
      </trkpt>
      <trkpt lat="42.856946" lon="0.525591">
        <ele>1507.4</ele>
        <time>1970-01-01T03:07:47.000Z</time>
      </trkpt>
      <trkpt lat="42.856942" lon="0.525568">
        <ele>1507.6</ele>
        <time>1970-01-01T03:07:48.000Z</time>
      </trkpt>
      <trkpt lat="42.856899" lon="0.525444">
        <ele>1508.8</ele>
        <time>1970-01-01T03:07:54.000Z</time>
      </trkpt>
      <trkpt lat="42.856823" lon="0.525319">
        <ele>1509.8</ele>
        <time>1970-01-01T03:08:01.000Z</time>
      </trkpt>
      <trkpt lat="42.856759" lon="0.525237">
        <ele>1511</ele>
        <time>1970-01-01T03:08:06.000Z</time>
      </trkpt>
      <trkpt lat="42.856683" lon="0.525141">
        <ele>1512</ele>
        <time>1970-01-01T03:08:12.000Z</time>
      </trkpt>
      <trkpt lat="42.856621" lon="0.525015">
        <ele>1513.2</ele>
        <time>1970-01-01T03:08:19.000Z</time>
      </trkpt>
      <trkpt lat="42.856601" lon="0.524986">
        <ele>1513.6</ele>
        <time>1970-01-01T03:08:23.000Z</time>
      </trkpt>
      <trkpt lat="42.856578" lon="0.524918">
        <ele>1513.8</ele>
        <time>1970-01-01T03:12:03.000Z</time>
      </trkpt>
      <trkpt lat="42.856516" lon="0.524739">
        <ele>1514.8</ele>
        <time>1970-01-01T03:12:13.000Z</time>
      </trkpt>
      <trkpt lat="42.856475" lon="0.52457">
        <ele>1515.8</ele>
        <time>1970-01-01T03:12:21.000Z</time>
      </trkpt>
      <trkpt lat="42.856459" lon="0.524411">
        <ele>1516.8</ele>
        <time>1970-01-01T03:12:28.000Z</time>
      </trkpt>
      <trkpt lat="42.856438" lon="0.524267">
        <ele>1518</ele>
        <time>1970-01-01T03:12:35.000Z</time>
      </trkpt>
      <trkpt lat="42.856432" lon="0.524152">
        <ele>1519</ele>
        <time>1970-01-01T03:12:41.000Z</time>
      </trkpt>
      <trkpt lat="42.856433" lon="0.524118">
        <ele>1519.6</ele>
        <time>1970-01-01T03:12:43.000Z</time>
      </trkpt>
      <trkpt lat="42.856433" lon="0.524065">
        <ele>1520.2</ele>
        <time>1970-01-01T03:12:46.000Z</time>
      </trkpt>
      <trkpt lat="42.856434" lon="0.524047">
        <ele>1520.4</ele>
        <time>1970-01-01T03:12:47.000Z</time>
      </trkpt>
      <trkpt lat="42.856444" lon="0.523976">
        <ele>1521</ele>
        <time>1970-01-01T03:12:51.000Z</time>
      </trkpt>
      <trkpt lat="42.856458" lon="0.523928">
        <ele>1521.4</ele>
        <time>1970-01-01T03:12:54.000Z</time>
      </trkpt>
      <trkpt lat="42.856493" lon="0.523854">
        <ele>1522.2</ele>
        <time>1970-01-01T03:12:59.000Z</time>
      </trkpt>
      <trkpt lat="42.856503" lon="0.523842">
        <ele>1522.4</ele>
        <time>1970-01-01T03:13:00.000Z</time>
      </trkpt>
      <trkpt lat="42.856585" lon="0.52378">
        <ele>1523.4</ele>
        <time>1970-01-01T03:13:07.000Z</time>
      </trkpt>
      <trkpt lat="42.856664" lon="0.523736">
        <ele>1524.4</ele>
        <time>1970-01-01T03:13:13.000Z</time>
      </trkpt>
      <trkpt lat="42.856739" lon="0.523697">
        <ele>1525.4</ele>
        <time>1970-01-01T03:13:19.000Z</time>
      </trkpt>
      <trkpt lat="42.856849" lon="0.523647">
        <ele>1526.6</ele>
        <time>1970-01-01T03:13:27.000Z</time>
      </trkpt>
      <trkpt lat="42.857003" lon="0.5236">
        <ele>1527.6</ele>
        <time>1970-01-01T03:13:37.000Z</time>
      </trkpt>
      <trkpt lat="42.857107" lon="0.523557">
        <ele>1528.8</ele>
        <time>1970-01-01T03:13:44.000Z</time>
      </trkpt>
      <trkpt lat="42.857293" lon="0.523474">
        <ele>1530</ele>
        <time>1970-01-01T03:13:55.000Z</time>
      </trkpt>
      <trkpt lat="42.857396" lon="0.523429">
        <ele>1531.2</ele>
        <time>1970-01-01T03:14:01.000Z</time>
      </trkpt>
      <trkpt lat="42.857521" lon="0.523371">
        <ele>1532.2</ele>
        <time>1970-01-01T03:14:09.000Z</time>
      </trkpt>
      <trkpt lat="42.857628" lon="0.523334">
        <ele>1533.2</ele>
        <time>1970-01-01T03:14:16.000Z</time>
      </trkpt>
      <trkpt lat="42.857672" lon="0.523325">
        <ele>1534.2</ele>
        <time>1970-01-01T03:14:19.000Z</time>
      </trkpt>
      <trkpt lat="42.857749" lon="0.523326">
        <ele>1535.4</ele>
        <time>1970-01-01T03:14:24.000Z</time>
      </trkpt>
      <trkpt lat="42.85782" lon="0.523322">
        <ele>1536.4</ele>
        <time>1970-01-01T03:14:29.000Z</time>
      </trkpt>
      <trkpt lat="42.857914" lon="0.523369">
        <ele>1537.6</ele>
        <time>1970-01-01T03:14:36.000Z</time>
      </trkpt>
      <trkpt lat="42.858017" lon="0.523387">
        <ele>1538.8</ele>
        <time>1970-01-01T03:14:43.000Z</time>
      </trkpt>
      <trkpt lat="42.858092" lon="0.523407">
        <ele>1540</ele>
        <time>1970-01-01T03:14:49.000Z</time>
      </trkpt>
      <trkpt lat="42.858096" lon="0.523496">
        <ele>1541.2</ele>
        <time>1970-01-01T03:14:54.000Z</time>
      </trkpt>
      <trkpt lat="42.858064" lon="0.523535">
        <ele>1541.8</ele>
        <time>1970-01-01T03:14:57.000Z</time>
      </trkpt>
      <trkpt lat="42.857994" lon="0.523553">
        <ele>1542.2</ele>
        <time>1970-01-01T03:15:02.000Z</time>
      </trkpt>
      <trkpt lat="42.857932" lon="0.523561">
        <ele>1543.2</ele>
        <time>1970-01-01T03:15:07.000Z</time>
      </trkpt>
      <trkpt lat="42.857841" lon="0.523607">
        <ele>1544.4</ele>
        <time>1970-01-01T03:15:14.000Z</time>
      </trkpt>
      <trkpt lat="42.857793" lon="0.523636">
        <ele>1545.2</ele>
        <time>1970-01-01T03:15:18.000Z</time>
      </trkpt>
      <trkpt lat="42.857689" lon="0.52367">
        <ele>1546.2</ele>
        <time>1970-01-01T03:15:25.000Z</time>
      </trkpt>
      <trkpt lat="42.857583" lon="0.523708">
        <ele>1547.4</ele>
        <time>1970-01-01T03:15:32.000Z</time>
      </trkpt>
      <trkpt lat="42.857534" lon="0.523759">
        <ele>1548.4</ele>
        <time>1970-01-01T03:15:36.000Z</time>
      </trkpt>
      <trkpt lat="42.857522" lon="0.523772">
        <ele>1548.6</ele>
        <time>1970-01-01T03:15:37.000Z</time>
      </trkpt>
      <trkpt lat="42.857436" lon="0.523828">
        <ele>1549.6</ele>
        <time>1970-01-01T03:15:43.000Z</time>
      </trkpt>
      <trkpt lat="42.857357" lon="0.523906">
        <ele>1550.6</ele>
        <time>1970-01-01T03:15:49.000Z</time>
      </trkpt>
      <trkpt lat="42.857282" lon="0.523996">
        <ele>1551.6</ele>
        <time>1970-01-01T03:15:55.000Z</time>
      </trkpt>
      <trkpt lat="42.857205" lon="0.524107">
        <ele>1552.6</ele>
        <time>1970-01-01T03:16:02.000Z</time>
      </trkpt>
      <trkpt lat="42.857157" lon="0.524298">
        <ele>1553.8</ele>
        <time>1970-01-01T03:16:11.000Z</time>
      </trkpt>
      <trkpt lat="42.857166" lon="0.524423">
        <ele>1554.6</ele>
        <time>1970-01-01T03:16:17.000Z</time>
      </trkpt>
      <trkpt lat="42.857174" lon="0.524441">
        <ele>1555</ele>
        <time>1970-01-01T03:16:18.000Z</time>
      </trkpt>
      <trkpt lat="42.85724" lon="0.524484">
        <ele>1555.8</ele>
        <time>1970-01-01T03:16:23.000Z</time>
      </trkpt>
      <trkpt lat="42.857282" lon="0.524464">
        <ele>1556.2</ele>
        <time>1970-01-01T03:16:26.000Z</time>
      </trkpt>
      <trkpt lat="42.857305" lon="0.524435">
        <ele>1556.8</ele>
        <time>1970-01-01T03:16:28.000Z</time>
      </trkpt>
      <trkpt lat="42.857334" lon="0.524385">
        <ele>1557.6</ele>
        <time>1970-01-01T03:16:31.000Z</time>
      </trkpt>
      <trkpt lat="42.857348" lon="0.524377">
        <ele>1557.8</ele>
        <time>1970-01-01T03:16:32.000Z</time>
      </trkpt>
      <trkpt lat="42.857387" lon="0.524346">
        <ele>1558.4</ele>
        <time>1970-01-01T03:16:35.000Z</time>
      </trkpt>
      <trkpt lat="42.857424" lon="0.524312">
        <ele>1559</ele>
        <time>1970-01-01T03:16:38.000Z</time>
      </trkpt>
      <trkpt lat="42.857492" lon="0.524263">
        <ele>1560</ele>
        <time>1970-01-01T03:16:43.000Z</time>
      </trkpt>
      <trkpt lat="42.857539" lon="0.524215">
        <ele>1561</ele>
        <time>1970-01-01T03:16:47.000Z</time>
      </trkpt>
      <trkpt lat="42.857657" lon="0.524155">
        <ele>1562.2</ele>
        <time>1970-01-01T03:16:55.000Z</time>
      </trkpt>
      <trkpt lat="42.857765" lon="0.524123">
        <ele>1563.2</ele>
        <time>1970-01-01T03:17:02.000Z</time>
      </trkpt>
      <trkpt lat="42.857841" lon="0.524109">
        <ele>1564.2</ele>
        <time>1970-01-01T03:17:07.000Z</time>
      </trkpt>
      <trkpt lat="42.857959" lon="0.524094">
        <ele>1565.4</ele>
        <time>1970-01-01T03:17:15.000Z</time>
      </trkpt>
      <trkpt lat="42.858032" lon="0.524083">
        <ele>1566.4</ele>
        <time>1970-01-01T03:17:20.000Z</time>
      </trkpt>
      <trkpt lat="42.858105" lon="0.524056">
        <ele>1567.4</ele>
        <time>1970-01-01T03:17:25.000Z</time>
      </trkpt>
      <trkpt lat="42.858204" lon="0.524033">
        <ele>1568.4</ele>
        <time>1970-01-01T03:17:32.000Z</time>
      </trkpt>
      <trkpt lat="42.858218" lon="0.52404">
        <ele>1568.6</ele>
        <time>1970-01-01T03:17:33.000Z</time>
      </trkpt>
      <trkpt lat="42.858248" lon="0.524148">
        <ele>1569.8</ele>
        <time>1970-01-01T03:17:39.000Z</time>
      </trkpt>
      <trkpt lat="42.85821" lon="0.524183">
        <ele>1570</ele>
        <time>1970-01-01T03:17:42.000Z</time>
      </trkpt>
      <trkpt lat="42.858165" lon="0.524209">
        <ele>1570.6</ele>
        <time>1970-01-01T03:17:45.000Z</time>
      </trkpt>
      <trkpt lat="42.858005" lon="0.5243">
        <ele>1572</ele>
        <time>1970-01-01T03:17:55.000Z</time>
      </trkpt>
      <trkpt lat="42.857929" lon="0.52441">
        <ele>1572.8</ele>
        <time>1970-01-01T03:18:01.000Z</time>
      </trkpt>
      <trkpt lat="42.857868" lon="0.524553">
        <ele>1574</ele>
        <time>1970-01-01T03:18:08.000Z</time>
      </trkpt>
      <trkpt lat="42.857862" lon="0.524749">
        <ele>1575</ele>
        <time>1970-01-01T03:18:17.000Z</time>
      </trkpt>
      <trkpt lat="42.857922" lon="0.524779">
        <ele>1576.2</ele>
        <time>1970-01-01T03:18:21.000Z</time>
      </trkpt>
      <trkpt lat="42.857938" lon="0.524778">
        <ele>1576.4</ele>
        <time>1970-01-01T03:18:22.000Z</time>
      </trkpt>
      <trkpt lat="42.857981" lon="0.524755">
        <ele>1577.2</ele>
        <time>1970-01-01T03:18:25.000Z</time>
      </trkpt>
      <trkpt lat="42.85804" lon="0.524654">
        <ele>1578.4</ele>
        <time>1970-01-01T03:18:31.000Z</time>
      </trkpt>
      <trkpt lat="42.858106" lon="0.524576">
        <ele>1579.4</ele>
        <time>1970-01-01T03:18:37.000Z</time>
      </trkpt>
      <trkpt lat="42.858143" lon="0.524545">
        <ele>1580.4</ele>
        <time>1970-01-01T03:18:40.000Z</time>
      </trkpt>
      <trkpt lat="42.858197" lon="0.524518">
        <ele>1581.4</ele>
        <time>1970-01-01T03:18:44.000Z</time>
      </trkpt>
      <trkpt lat="42.858287" lon="0.524492">
        <ele>1582.4</ele>
        <time>1970-01-01T03:18:50.000Z</time>
      </trkpt>
      <trkpt lat="42.858361" lon="0.524472">
        <ele>1583.4</ele>
        <time>1970-01-01T03:18:55.000Z</time>
      </trkpt>
      <trkpt lat="42.858433" lon="0.524453">
        <ele>1584.6</ele>
        <time>1970-01-01T03:19:00.000Z</time>
      </trkpt>
      <trkpt lat="42.858542" lon="0.524454">
        <ele>1585.6</ele>
        <time>1970-01-01T03:19:07.000Z</time>
      </trkpt>
      <trkpt lat="42.858621" lon="0.524466">
        <ele>1586.6</ele>
        <time>1970-01-01T03:19:12.000Z</time>
      </trkpt>
      <trkpt lat="42.85873" lon="0.524475">
        <ele>1587.8</ele>
        <time>1970-01-01T03:19:19.000Z</time>
      </trkpt>
      <trkpt lat="42.858842" lon="0.524496">
        <ele>1588.6</ele>
        <time>1970-01-01T03:19:26.000Z</time>
      </trkpt>
      <trkpt lat="42.858935" lon="0.524514">
        <ele>1589.6</ele>
        <time>1970-01-01T03:19:32.000Z</time>
      </trkpt>
      <trkpt lat="42.859013" lon="0.524536">
        <ele>1590.8</ele>
        <time>1970-01-01T03:19:37.000Z</time>
      </trkpt>
      <trkpt lat="42.859149" lon="0.52456">
        <ele>1592</ele>
        <time>1970-01-01T03:19:46.000Z</time>
      </trkpt>
      <trkpt lat="42.859233" lon="0.524618">
        <ele>1593.2</ele>
        <time>1970-01-01T03:19:52.000Z</time>
      </trkpt>
      <trkpt lat="42.859342" lon="0.524695">
        <ele>1594.2</ele>
        <time>1970-01-01T03:20:00.000Z</time>
      </trkpt>
      <trkpt lat="42.859437" lon="0.524797">
        <ele>1595.4</ele>
        <time>1970-01-01T03:20:08.000Z</time>
      </trkpt>
      <trkpt lat="42.859522" lon="0.524889">
        <ele>1596.4</ele>
        <time>1970-01-01T03:20:15.000Z</time>
      </trkpt>
      <trkpt lat="42.859553" lon="0.524939">
        <ele>1597.2</ele>
        <time>1970-01-01T03:20:18.000Z</time>
      </trkpt>
      <trkpt lat="42.859571" lon="0.524971">
        <ele>1597.6</ele>
        <time>1970-01-01T03:20:20.000Z</time>
      </trkpt>
      <trkpt lat="42.859653" lon="0.525067">
        <ele>1598.6</ele>
        <time>1970-01-01T03:20:27.000Z</time>
      </trkpt>
      <trkpt lat="42.859733" lon="0.52516">
        <ele>1599.6</ele>
        <time>1970-01-01T03:20:34.000Z</time>
      </trkpt>
      <trkpt lat="42.859811" lon="0.525221">
        <ele>1600.8</ele>
        <time>1970-01-01T03:20:40.000Z</time>
      </trkpt>
      <trkpt lat="42.859877" lon="0.525296">
        <ele>1602</ele>
        <time>1970-01-01T03:20:46.000Z</time>
      </trkpt>
      <trkpt lat="42.859943" lon="0.52537">
        <ele>1602.8</ele>
        <time>1970-01-01T03:20:52.000Z</time>
      </trkpt>
      <trkpt lat="42.860015" lon="0.525436">
        <ele>1604</ele>
        <time>1970-01-01T03:20:58.000Z</time>
      </trkpt>
      <trkpt lat="42.860102" lon="0.525506">
        <ele>1605</ele>
        <time>1970-01-01T03:21:05.000Z</time>
      </trkpt>
      <trkpt lat="42.860167" lon="0.525555">
        <ele>1606</ele>
        <time>1970-01-01T03:21:10.000Z</time>
      </trkpt>
      <trkpt lat="42.860281" lon="0.525623">
        <ele>1607</ele>
        <time>1970-01-01T03:21:18.000Z</time>
      </trkpt>
      <trkpt lat="42.860357" lon="0.525666">
        <ele>1608</ele>
        <time>1970-01-01T03:21:23.000Z</time>
      </trkpt>
      <trkpt lat="42.860372" lon="0.525674">
        <ele>1608.2</ele>
        <time>1970-01-01T03:21:24.000Z</time>
      </trkpt>
      <trkpt lat="42.860472" lon="0.525735">
        <ele>1609.2</ele>
        <time>1970-01-01T03:21:31.000Z</time>
      </trkpt>
      <trkpt lat="42.860568" lon="0.525843">
        <ele>1610.4</ele>
        <time>1970-01-01T03:21:39.000Z</time>
      </trkpt>
      <trkpt lat="42.86066" lon="0.525897">
        <ele>1611.4</ele>
        <time>1970-01-01T03:21:45.000Z</time>
      </trkpt>
      <trkpt lat="42.860773" lon="0.52598">
        <ele>1612.4</ele>
        <time>1970-01-01T03:21:53.000Z</time>
      </trkpt>
      <trkpt lat="42.860836" lon="0.526051">
        <ele>1613.6</ele>
        <time>1970-01-01T03:21:58.000Z</time>
      </trkpt>
      <trkpt lat="42.86089" lon="0.526161">
        <ele>1614.4</ele>
        <time>1970-01-01T03:22:04.000Z</time>
      </trkpt>
      <trkpt lat="42.860958" lon="0.526301">
        <ele>1615.8</ele>
        <time>1970-01-01T03:22:12.000Z</time>
      </trkpt>
      <trkpt lat="42.860986" lon="0.526345">
        <ele>1616.4</ele>
        <time>1970-01-01T03:22:15.000Z</time>
      </trkpt>
      <trkpt lat="42.861024" lon="0.526378">
        <ele>1616.8</ele>
        <time>1970-01-01T03:22:18.000Z</time>
      </trkpt>
      <trkpt lat="42.861095" lon="0.526398">
        <ele>1618.2</ele>
        <time>1970-01-01T03:22:23.000Z</time>
      </trkpt>
      <trkpt lat="42.861158" lon="0.526396">
        <ele>1619</ele>
        <time>1970-01-01T03:22:27.000Z</time>
      </trkpt>
      <trkpt lat="42.861174" lon="0.526399">
        <ele>1619.2</ele>
        <time>1970-01-01T03:22:28.000Z</time>
      </trkpt>
      <trkpt lat="42.861265" lon="0.526391">
        <ele>1620.2</ele>
        <time>1970-01-01T03:22:34.000Z</time>
      </trkpt>
      <trkpt lat="42.861324" lon="0.526377">
        <ele>1620.8</ele>
        <time>1970-01-01T03:22:38.000Z</time>
      </trkpt>
      <trkpt lat="42.861353" lon="0.526371">
        <ele>1621.4</ele>
        <time>1970-01-01T03:22:40.000Z</time>
      </trkpt>
      <trkpt lat="42.861424" lon="0.526338">
        <ele>1622.6</ele>
        <time>1970-01-01T03:22:45.000Z</time>
      </trkpt>
      <trkpt lat="42.861519" lon="0.526307">
        <ele>1623.6</ele>
        <time>1970-01-01T03:22:51.000Z</time>
      </trkpt>
      <trkpt lat="42.861643" lon="0.52619">
        <ele>1624.8</ele>
        <time>1970-01-01T03:23:00.000Z</time>
      </trkpt>
      <trkpt lat="42.861682" lon="0.526035">
        <ele>1625.6</ele>
        <time>1970-01-01T03:23:07.000Z</time>
      </trkpt>
      <trkpt lat="42.861697" lon="0.525794">
        <ele>1626.8</ele>
        <time>1970-01-01T03:23:17.000Z</time>
      </trkpt>
      <trkpt lat="42.861702" lon="0.525726">
        <ele>1627.2</ele>
        <time>1970-01-01T03:23:20.000Z</time>
      </trkpt>
      <trkpt lat="42.861694" lon="0.525721">
        <ele>1627.4</ele>
        <time>1970-01-01T03:23:23.000Z</time>
      </trkpt>
      <trkpt lat="42.861717" lon="0.525668">
        <ele>1627.2</ele>
        <time>1970-01-01T03:24:04.000Z</time>
      </trkpt>
      <trkpt lat="42.861743" lon="0.525658">
        <ele>1627.4</ele>
        <time>1970-01-01T03:24:06.000Z</time>
      </trkpt>
      <trkpt lat="42.861833" lon="0.525587">
        <ele>1628.2</ele>
        <time>1970-01-01T03:24:13.000Z</time>
      </trkpt>
      <trkpt lat="42.861868" lon="0.525566">
        <ele>1628.4</ele>
        <time>1970-01-01T03:24:16.000Z</time>
      </trkpt>
      <trkpt lat="42.861979" lon="0.525503">
        <ele>1629.6</ele>
        <time>1970-01-01T03:24:24.000Z</time>
      </trkpt>
      <trkpt lat="42.862091" lon="0.525445">
        <ele>1630.8</ele>
        <time>1970-01-01T03:24:32.000Z</time>
      </trkpt>
      <trkpt lat="42.862168" lon="0.525396">
        <ele>1631.6</ele>
        <time>1970-01-01T03:24:38.000Z</time>
      </trkpt>
      <trkpt lat="42.862236" lon="0.52536">
        <ele>1632.6</ele>
        <time>1970-01-01T03:24:43.000Z</time>
      </trkpt>
      <trkpt lat="42.862301" lon="0.525315">
        <ele>1633.6</ele>
        <time>1970-01-01T03:24:48.000Z</time>
      </trkpt>
      <trkpt lat="42.862355" lon="0.525286">
        <ele>1634.8</ele>
        <time>1970-01-01T03:24:52.000Z</time>
      </trkpt>
      <trkpt lat="42.862436" lon="0.525249">
        <ele>1635.6</ele>
        <time>1970-01-01T03:24:58.000Z</time>
      </trkpt>
      <trkpt lat="42.862474" lon="0.525237">
        <ele>1636.6</ele>
        <time>1970-01-01T03:25:02.000Z</time>
      </trkpt>
      <trkpt lat="42.862516" lon="0.525255">
        <ele>1637.2</ele>
        <time>1970-01-01T03:25:34.000Z</time>
      </trkpt>
      <trkpt lat="42.862631" lon="0.525315">
        <ele>1638.2</ele>
        <time>1970-01-01T03:25:41.000Z</time>
      </trkpt>
      <trkpt lat="42.862698" lon="0.525337">
        <ele>1639.4</ele>
        <time>1970-01-01T03:25:45.000Z</time>
      </trkpt>
      <trkpt lat="42.862852" lon="0.525392">
        <ele>1640.4</ele>
        <time>1970-01-01T03:25:54.000Z</time>
      </trkpt>
      <trkpt lat="42.863021" lon="0.525411">
        <ele>1641.2</ele>
        <time>1970-01-01T03:26:03.000Z</time>
      </trkpt>
      <trkpt lat="42.863152" lon="0.525397">
        <ele>1642.4</ele>
        <time>1970-01-01T03:26:10.000Z</time>
      </trkpt>
      <trkpt lat="42.863194" lon="0.525353">
        <ele>1642.8</ele>
        <time>1970-01-01T03:26:13.000Z</time>
      </trkpt>
      <trkpt lat="42.86323" lon="0.525269">
        <ele>1643.6</ele>
        <time>1970-01-01T03:26:17.000Z</time>
      </trkpt>
      <trkpt lat="42.86325" lon="0.525198">
        <ele>1644.6</ele>
        <time>1970-01-01T03:26:20.000Z</time>
      </trkpt>
      <trkpt lat="42.863254" lon="0.525104">
        <ele>1645.6</ele>
        <time>1970-01-01T03:26:25.000Z</time>
      </trkpt>
      <trkpt lat="42.863253" lon="0.525033">
        <ele>1646.2</ele>
        <time>1970-01-01T03:26:30.000Z</time>
      </trkpt>
      <trkpt lat="42.863252" lon="0.525033">
        <ele>1646.2</ele>
        <time>1970-01-01T03:26:31.000Z</time>
      </trkpt>
      <trkpt lat="42.863252" lon="0.52501">
        <ele>1646.6</ele>
        <time>1970-01-01T03:27:15.000Z</time>
      </trkpt>
      <trkpt lat="42.863262" lon="0.524809">
        <ele>1647.6</ele>
        <time>1970-01-01T03:27:23.000Z</time>
      </trkpt>
      <trkpt lat="42.863265" lon="0.524669">
        <ele>1648.8</ele>
        <time>1970-01-01T03:27:28.000Z</time>
      </trkpt>
      <trkpt lat="42.863299" lon="0.524415">
        <ele>1649.8</ele>
        <time>1970-01-01T03:27:36.000Z</time>
      </trkpt>
      <trkpt lat="42.863334" lon="0.52429">
        <ele>1651</ele>
        <time>1970-01-01T03:27:42.000Z</time>
      </trkpt>
      <trkpt lat="42.863376" lon="0.524212">
        <ele>1651.8</ele>
        <time>1970-01-01T03:27:47.000Z</time>
      </trkpt>
      <trkpt lat="42.863412" lon="0.524102">
        <ele>1653</ele>
        <time>1970-01-01T03:27:54.000Z</time>
      </trkpt>
      <trkpt lat="42.863418" lon="0.524075">
        <ele>1653.4</ele>
        <time>1970-01-01T03:27:56.000Z</time>
      </trkpt>
      <trkpt lat="42.863443" lon="0.524017">
        <ele>1654.2</ele>
        <time>1970-01-01T03:28:00.000Z</time>
      </trkpt>
      <trkpt lat="42.863486" lon="0.523893">
        <ele>1655.2</ele>
        <time>1970-01-01T03:28:08.000Z</time>
      </trkpt>
      <trkpt lat="42.86353" lon="0.523782">
        <ele>1656.2</ele>
        <time>1970-01-01T03:28:15.000Z</time>
      </trkpt>
      <trkpt lat="42.863619" lon="0.523502">
        <ele>1657.2</ele>
        <time>1970-01-01T03:28:27.000Z</time>
      </trkpt>
      <trkpt lat="42.863683" lon="0.523325">
        <ele>1658.2</ele>
        <time>1970-01-01T03:28:35.000Z</time>
      </trkpt>
      <trkpt lat="42.863733" lon="0.523214">
        <ele>1659.4</ele>
        <time>1970-01-01T03:28:41.000Z</time>
      </trkpt>
      <trkpt lat="42.863803" lon="0.52305">
        <ele>1660.6</ele>
        <time>1970-01-01T03:28:50.000Z</time>
      </trkpt>
      <trkpt lat="42.863852" lon="0.52294">
        <ele>1661.6</ele>
        <time>1970-01-01T03:28:56.000Z</time>
      </trkpt>
      <trkpt lat="42.863893" lon="0.522855">
        <ele>1662.4</ele>
        <time>1970-01-01T03:29:01.000Z</time>
      </trkpt>
      <trkpt lat="42.86396" lon="0.522745">
        <ele>1663.6</ele>
        <time>1970-01-01T03:29:08.000Z</time>
      </trkpt>
      <trkpt lat="42.864019" lon="0.522645">
        <ele>1664.8</ele>
        <time>1970-01-01T03:29:14.000Z</time>
      </trkpt>
      <trkpt lat="42.864083" lon="0.522519">
        <ele>1666</ele>
        <time>1970-01-01T03:29:21.000Z</time>
      </trkpt>
      <trkpt lat="42.864145" lon="0.522408">
        <ele>1667</ele>
        <time>1970-01-01T03:29:27.000Z</time>
      </trkpt>
      <trkpt lat="42.864207" lon="0.522308">
        <ele>1668</ele>
        <time>1970-01-01T03:29:33.000Z</time>
      </trkpt>
      <trkpt lat="42.864281" lon="0.522188">
        <ele>1669.2</ele>
        <time>1970-01-01T03:29:40.000Z</time>
      </trkpt>
      <trkpt lat="42.864338" lon="0.522085">
        <ele>1670.4</ele>
        <time>1970-01-01T03:29:46.000Z</time>
      </trkpt>
      <trkpt lat="42.864397" lon="0.521987">
        <ele>1671.4</ele>
        <time>1970-01-01T03:29:52.000Z</time>
      </trkpt>
      <trkpt lat="42.86446" lon="0.521898">
        <ele>1672.6</ele>
        <time>1970-01-01T03:29:58.000Z</time>
      </trkpt>
      <trkpt lat="42.864496" lon="0.521832">
        <ele>1673.6</ele>
        <time>1970-01-01T03:30:02.000Z</time>
      </trkpt>
      <trkpt lat="42.864564" lon="0.521727">
        <ele>1674.4</ele>
        <time>1970-01-01T03:30:09.000Z</time>
      </trkpt>
      <trkpt lat="42.864614" lon="0.521623">
        <ele>1675.6</ele>
        <time>1970-01-01T03:30:15.000Z</time>
      </trkpt>
      <trkpt lat="42.864669" lon="0.521525">
        <ele>1676.6</ele>
        <time>1970-01-01T03:30:21.000Z</time>
      </trkpt>
      <trkpt lat="42.864722" lon="0.521409">
        <ele>1677.8</ele>
        <time>1970-01-01T03:30:28.000Z</time>
      </trkpt>
      <trkpt lat="42.864763" lon="0.52133">
        <ele>1678.8</ele>
        <time>1970-01-01T03:30:33.000Z</time>
      </trkpt>
      <trkpt lat="42.864822" lon="0.521179">
        <ele>1680</ele>
        <time>1970-01-01T03:30:42.000Z</time>
      </trkpt>
      <trkpt lat="42.864871" lon="0.521081">
        <ele>1681.2</ele>
        <time>1970-01-01T03:30:48.000Z</time>
      </trkpt>
      <trkpt lat="42.864934" lon="0.521009">
        <ele>1682.4</ele>
        <time>1970-01-01T03:30:54.000Z</time>
      </trkpt>
      <trkpt lat="42.865008" lon="0.520912">
        <ele>1683.6</ele>
        <time>1970-01-01T03:31:02.000Z</time>
      </trkpt>
      <trkpt lat="42.865079" lon="0.520818">
        <ele>1684.6</ele>
        <time>1970-01-01T03:31:09.000Z</time>
      </trkpt>
      <trkpt lat="42.865093" lon="0.520691">
        <ele>1685.6</ele>
        <time>1970-01-01T03:31:15.000Z</time>
      </trkpt>
      <trkpt lat="42.865067" lon="0.52053">
        <ele>1686.6</ele>
        <time>1970-01-01T03:31:23.000Z</time>
      </trkpt>
      <trkpt lat="42.864997" lon="0.52031">
        <ele>1687.6</ele>
        <time>1970-01-01T03:31:33.000Z</time>
      </trkpt>
      <trkpt lat="42.864932" lon="0.520117">
        <ele>1688.6</ele>
        <time>1970-01-01T03:31:42.000Z</time>
      </trkpt>
      <trkpt lat="42.86487" lon="0.519945">
        <ele>1689.6</ele>
        <time>1970-01-01T03:31:50.000Z</time>
      </trkpt>
      <trkpt lat="42.864806" lon="0.519723">
        <ele>1690.8</ele>
        <time>1970-01-01T03:32:00.000Z</time>
      </trkpt>
      <trkpt lat="42.864734" lon="0.519589">
        <ele>1691.8</ele>
        <time>1970-01-01T03:32:07.000Z</time>
      </trkpt>
      <trkpt lat="42.864589" lon="0.519543">
        <ele>1693</ele>
        <time>1970-01-01T03:32:15.000Z</time>
      </trkpt>
      <trkpt lat="42.864356" lon="0.519513">
        <ele>1693.8</ele>
        <time>1970-01-01T03:32:26.000Z</time>
      </trkpt>
      <trkpt lat="42.86418" lon="0.519297">
        <ele>1694.8</ele>
        <time>1970-01-01T03:32:37.000Z</time>
      </trkpt>
      <trkpt lat="42.864111" lon="0.519172">
        <ele>1695.2</ele>
        <time>1970-01-01T03:32:44.000Z</time>
      </trkpt>
      <trkpt lat="42.864089" lon="0.519124">
        <ele>1695.8</ele>
        <time>1970-01-01T03:32:47.000Z</time>
      </trkpt>
      <trkpt lat="42.864066" lon="0.519087">
        <ele>1695.8</ele>
        <time>1970-01-01T03:32:49.000Z</time>
      </trkpt>
      <trkpt lat="42.864032" lon="0.51905">
        <ele>1696.2</ele>
        <time>1970-01-01T03:32:54.000Z</time>
      </trkpt>
      <trkpt lat="42.864016" lon="0.519051">
        <ele>1696.2</ele>
        <time>1970-01-01T03:33:41.000Z</time>
      </trkpt>
      <trkpt lat="42.863963" lon="0.519022">
        <ele>1696.4</ele>
        <time>1970-01-01T03:33:44.000Z</time>
      </trkpt>
      <trkpt lat="42.863805" lon="0.519002">
        <ele>1697.6</ele>
        <time>1970-01-01T03:33:53.000Z</time>
      </trkpt>
      <trkpt lat="42.863656" lon="0.519012">
        <ele>1698.8</ele>
        <time>1970-01-01T03:34:01.000Z</time>
      </trkpt>
      <trkpt lat="42.863515" lon="0.518886">
        <ele>1699.8</ele>
        <time>1970-01-01T03:34:10.000Z</time>
      </trkpt>
      <trkpt lat="42.863351" lon="0.518614">
        <ele>1701</ele>
        <time>1970-01-01T03:34:24.000Z</time>
      </trkpt>
      <trkpt lat="42.863313" lon="0.518428">
        <ele>1701.4</ele>
        <time>1970-01-01T03:34:34.000Z</time>
      </trkpt>
      <trkpt lat="42.863387" lon="0.518448">
        <ele>1702.2</ele>
        <time>1970-01-01T03:35:07.000Z</time>
      </trkpt>
      <trkpt lat="42.863473" lon="0.518603">
        <ele>1703.4</ele>
        <time>1970-01-01T03:35:14.000Z</time>
      </trkpt>
      <trkpt lat="42.863596" lon="0.518741">
        <ele>1704.4</ele>
        <time>1970-01-01T03:35:21.000Z</time>
      </trkpt>
      <trkpt lat="42.863708" lon="0.518759">
        <ele>1705.6</ele>
        <time>1970-01-01T03:35:26.000Z</time>
      </trkpt>
      <trkpt lat="42.863802" lon="0.518692">
        <ele>1706.8</ele>
        <time>1970-01-01T03:35:31.000Z</time>
      </trkpt>
      <trkpt lat="42.86391" lon="0.518601">
        <ele>1707.8</ele>
        <time>1970-01-01T03:35:38.000Z</time>
      </trkpt>
      <trkpt lat="42.864054" lon="0.518482">
        <ele>1708.8</ele>
        <time>1970-01-01T03:35:45.000Z</time>
      </trkpt>
      <trkpt lat="42.864229" lon="0.518329">
        <ele>1709.8</ele>
        <time>1970-01-01T03:35:53.000Z</time>
      </trkpt>
      <trkpt lat="42.864413" lon="0.5182">
        <ele>1710.6</ele>
        <time>1970-01-01T03:36:02.000Z</time>
      </trkpt>
      <trkpt lat="42.864567" lon="0.518104">
        <ele>1711.8</ele>
        <time>1970-01-01T03:36:12.000Z</time>
      </trkpt>
      <trkpt lat="42.86469" lon="0.518023">
        <ele>1713</ele>
        <time>1970-01-01T03:36:20.000Z</time>
      </trkpt>
      <trkpt lat="42.864767" lon="0.517973">
        <ele>1713.8</ele>
        <time>1970-01-01T03:36:26.000Z</time>
      </trkpt>
      <trkpt lat="42.864875" lon="0.517895">
        <ele>1715</ele>
        <time>1970-01-01T03:36:33.000Z</time>
      </trkpt>
      <trkpt lat="42.864992" lon="0.517816">
        <ele>1716</ele>
        <time>1970-01-01T03:36:40.000Z</time>
      </trkpt>
      <trkpt lat="42.865074" lon="0.517749">
        <ele>1717</ele>
        <time>1970-01-01T03:36:45.000Z</time>
      </trkpt>
      <trkpt lat="42.865169" lon="0.51767">
        <ele>1718.2</ele>
        <time>1970-01-01T03:36:51.000Z</time>
      </trkpt>
      <trkpt lat="42.865325" lon="0.517534">
        <ele>1719</ele>
        <time>1970-01-01T03:37:00.000Z</time>
      </trkpt>
      <trkpt lat="42.865391" lon="0.517478">
        <ele>1719.6</ele>
        <time>1970-01-01T03:37:04.000Z</time>
      </trkpt>
      <trkpt lat="42.865543" lon="0.517326">
        <ele>1720.2</ele>
        <time>1970-01-01T03:37:14.000Z</time>
      </trkpt>
      <trkpt lat="42.865695" lon="0.517192">
        <ele>1721.2</ele>
        <time>1970-01-01T03:37:23.000Z</time>
      </trkpt>
      <trkpt lat="42.865811" lon="0.517078">
        <ele>1722.4</ele>
        <time>1970-01-01T03:37:30.000Z</time>
      </trkpt>
      <trkpt lat="42.86595" lon="0.516936">
        <ele>1723.2</ele>
        <time>1970-01-01T03:37:38.000Z</time>
      </trkpt>
      <trkpt lat="42.866068" lon="0.516816">
        <ele>1724.4</ele>
        <time>1970-01-01T03:37:45.000Z</time>
      </trkpt>
      <trkpt lat="42.866174" lon="0.516705">
        <ele>1725.4</ele>
        <time>1970-01-01T03:37:52.000Z</time>
      </trkpt>
      <trkpt lat="42.866269" lon="0.516625">
        <ele>1726.4</ele>
        <time>1970-01-01T03:37:58.000Z</time>
      </trkpt>
      <trkpt lat="42.866341" lon="0.516576">
        <ele>1727.4</ele>
        <time>1970-01-01T03:38:02.000Z</time>
      </trkpt>
      <trkpt lat="42.866444" lon="0.516492">
        <ele>1728.6</ele>
        <time>1970-01-01T03:38:08.000Z</time>
      </trkpt>
      <trkpt lat="42.86655" lon="0.51644">
        <ele>1729.8</ele>
        <time>1970-01-01T03:38:14.000Z</time>
      </trkpt>
      <trkpt lat="42.866687" lon="0.516417">
        <ele>1730.8</ele>
        <time>1970-01-01T03:38:21.000Z</time>
      </trkpt>
      <trkpt lat="42.866924" lon="0.516444">
        <ele>1731.8</ele>
        <time>1970-01-01T03:38:32.000Z</time>
      </trkpt>
      <trkpt lat="42.867122" lon="0.516489">
        <ele>1732.6</ele>
        <time>1970-01-01T03:38:44.000Z</time>
      </trkpt>
      <trkpt lat="42.867169" lon="0.516502">
        <ele>1732.8</ele>
        <time>1970-01-01T03:38:51.000Z</time>
      </trkpt>
      <trkpt lat="42.867184" lon="0.516505">
        <ele>1733</ele>
        <time>1970-01-01T03:38:54.000Z</time>
      </trkpt>
      <trkpt lat="42.867179" lon="0.516483">
        <ele>1733.4</ele>
        <time>1970-01-01T03:39:51.000Z</time>
      </trkpt>
      <trkpt lat="42.867059" lon="0.516469">
        <ele>1732.8</ele>
        <time>1970-01-01T03:39:56.000Z</time>
      </trkpt>
      <trkpt lat="42.867044" lon="0.516474">
        <ele>1732.6</ele>
        <time>1970-01-01T03:39:57.000Z</time>
      </trkpt>
      <trkpt lat="42.867054" lon="0.516489">
        <ele>1732.6</ele>
        <time>1970-01-01T03:40:00.000Z</time>
      </trkpt>
      <trkpt lat="42.867113" lon="0.516484">
        <ele>1732.8</ele>
        <time>1970-01-01T03:40:04.000Z</time>
      </trkpt>
      <trkpt lat="42.867233" lon="0.516493">
        <ele>1733.4</ele>
        <time>1970-01-01T03:40:13.000Z</time>
      </trkpt>
      <trkpt lat="42.867271" lon="0.516508">
        <ele>1733.2</ele>
        <time>1970-01-01T03:41:30.000Z</time>
      </trkpt>
      <trkpt lat="42.867376" lon="0.516509">
        <ele>1734.2</ele>
        <time>1970-01-01T03:41:34.000Z</time>
      </trkpt>
      <trkpt lat="42.867455" lon="0.516522">
        <ele>1735</ele>
        <time>1970-01-01T03:41:38.000Z</time>
      </trkpt>
      <trkpt lat="42.867535" lon="0.516548">
        <ele>1736</ele>
        <time>1970-01-01T03:41:43.000Z</time>
      </trkpt>
      <trkpt lat="42.867565" lon="0.516559">
        <ele>1736.4</ele>
        <time>1970-01-01T03:41:45.000Z</time>
      </trkpt>
      <trkpt lat="42.867616" lon="0.516563">
        <ele>1737.4</ele>
        <time>1970-01-01T03:41:48.000Z</time>
      </trkpt>
      <trkpt lat="42.867726" lon="0.516573">
        <ele>1738.4</ele>
        <time>1970-01-01T03:41:54.000Z</time>
      </trkpt>
      <trkpt lat="42.867834" lon="0.516578">
        <ele>1739.6</ele>
        <time>1970-01-01T03:42:00.000Z</time>
      </trkpt>
      <trkpt lat="42.868071" lon="0.516631">
        <ele>1740.8</ele>
        <time>1970-01-01T03:42:12.000Z</time>
      </trkpt>
      <trkpt lat="42.868278" lon="0.516676">
        <ele>1741.6</ele>
        <time>1970-01-01T03:42:22.000Z</time>
      </trkpt>
      <trkpt lat="42.868395" lon="0.516696">
        <ele>1742.8</ele>
        <time>1970-01-01T03:42:28.000Z</time>
      </trkpt>
      <trkpt lat="42.868487" lon="0.516709">
        <ele>1744</ele>
        <time>1970-01-01T03:42:33.000Z</time>
      </trkpt>
      <trkpt lat="42.868592" lon="0.516724">
        <ele>1745.2</ele>
        <time>1970-01-01T03:42:39.000Z</time>
      </trkpt>
      <trkpt lat="42.868725" lon="0.516745">
        <ele>1746.2</ele>
        <time>1970-01-01T03:42:46.000Z</time>
      </trkpt>
      <trkpt lat="42.868802" lon="0.516769">
        <ele>1747.4</ele>
        <time>1970-01-01T03:42:50.000Z</time>
      </trkpt>
      <trkpt lat="42.86898" lon="0.516848">
        <ele>1748.4</ele>
        <time>1970-01-01T03:43:00.000Z</time>
      </trkpt>
      <trkpt lat="42.869147" lon="0.516967">
        <ele>1749.2</ele>
        <time>1970-01-01T03:43:09.000Z</time>
      </trkpt>
      <trkpt lat="42.869187" lon="0.516981">
        <ele>1749.2</ele>
        <time>1970-01-01T03:43:11.000Z</time>
      </trkpt>
      <trkpt lat="42.8694" lon="0.51695">
        <ele>1749</ele>
        <time>1970-01-01T03:43:21.000Z</time>
      </trkpt>
      <trkpt lat="42.869428" lon="0.517067">
        <ele>1748.8</ele>
        <time>1970-01-01T03:43:26.000Z</time>
      </trkpt>
      <trkpt lat="42.869419" lon="0.517183">
        <ele>1748.8</ele>
        <time>1970-01-01T03:43:32.000Z</time>
      </trkpt>
      <trkpt lat="42.869413" lon="0.517214">
        <ele>1748.6</ele>
        <time>1970-01-01T03:44:03.000Z</time>
      </trkpt>
      <trkpt lat="42.869347" lon="0.517804">
        <ele>1750</ele>
        <time>1970-01-01T03:44:19.000Z</time>
      </trkpt>
      <trkpt lat="42.869322" lon="0.518056">
        <ele>1751.2</ele>
        <time>1970-01-01T03:44:27.000Z</time>
      </trkpt>
      <trkpt lat="42.869296" lon="0.518271">
        <ele>1752.2</ele>
        <time>1970-01-01T03:44:34.000Z</time>
      </trkpt>
      <trkpt lat="42.869286" lon="0.518401">
        <ele>1753.4</ele>
        <time>1970-01-01T03:44:38.000Z</time>
      </trkpt>
      <trkpt lat="42.869294" lon="0.518541">
        <ele>1754.2</ele>
        <time>1970-01-01T03:44:43.000Z</time>
      </trkpt>
      <trkpt lat="42.869291" lon="0.518571">
        <ele>1754.4</ele>
        <time>1970-01-01T03:44:44.000Z</time>
      </trkpt>
      <trkpt lat="42.869285" lon="0.518691">
        <ele>1755.2</ele>
        <time>1970-01-01T03:44:48.000Z</time>
      </trkpt>
      <trkpt lat="42.869283" lon="0.51893">
        <ele>1756.4</ele>
        <time>1970-01-01T03:44:56.000Z</time>
      </trkpt>
      <trkpt lat="42.869312" lon="0.519098">
        <ele>1757.6</ele>
        <time>1970-01-01T03:45:02.000Z</time>
      </trkpt>
      <trkpt lat="42.869342" lon="0.519271">
        <ele>1758.6</ele>
        <time>1970-01-01T03:45:08.000Z</time>
      </trkpt>
      <trkpt lat="42.869382" lon="0.51948">
        <ele>1759.6</ele>
        <time>1970-01-01T03:45:15.000Z</time>
      </trkpt>
      <trkpt lat="42.869473" lon="0.519839">
        <ele>1760.4</ele>
        <time>1970-01-01T03:45:27.000Z</time>
      </trkpt>
      <trkpt lat="42.869518" lon="0.519954">
        <ele>1761.6</ele>
        <time>1970-01-01T03:45:32.000Z</time>
      </trkpt>
      <trkpt lat="42.869572" lon="0.520059">
        <ele>1762.6</ele>
        <time>1970-01-01T03:45:37.000Z</time>
      </trkpt>
      <trkpt lat="42.86963" lon="0.520148">
        <ele>1763.8</ele>
        <time>1970-01-01T03:45:42.000Z</time>
      </trkpt>
      <trkpt lat="42.86971" lon="0.520281">
        <ele>1765</ele>
        <time>1970-01-01T03:45:49.000Z</time>
      </trkpt>
      <trkpt lat="42.869769" lon="0.520381">
        <ele>1766</ele>
        <time>1970-01-01T03:45:54.000Z</time>
      </trkpt>
      <trkpt lat="42.869863" lon="0.520534">
        <ele>1767.2</ele>
        <time>1970-01-01T03:46:02.000Z</time>
      </trkpt>
      <trkpt lat="42.869922" lon="0.520645">
        <ele>1768.6</ele>
        <time>1970-01-01T03:46:08.000Z</time>
      </trkpt>
      <trkpt lat="42.869978" lon="0.520717">
        <ele>1769.6</ele>
        <time>1970-01-01T03:46:12.000Z</time>
      </trkpt>
      <trkpt lat="42.870071" lon="0.520881">
        <ele>1770.8</ele>
        <time>1970-01-01T03:46:20.000Z</time>
      </trkpt>
      <trkpt lat="42.870174" lon="0.521044">
        <ele>1771.8</ele>
        <time>1970-01-01T03:46:28.000Z</time>
      </trkpt>
      <trkpt lat="42.870241" lon="0.521167">
        <ele>1772.8</ele>
        <time>1970-01-01T03:46:34.000Z</time>
      </trkpt>
      <trkpt lat="42.870302" lon="0.52127">
        <ele>1773.8</ele>
        <time>1970-01-01T03:46:39.000Z</time>
      </trkpt>
      <trkpt lat="42.870422" lon="0.521478">
        <ele>1775</ele>
        <time>1970-01-01T03:46:48.000Z</time>
      </trkpt>
      <trkpt lat="42.870506" lon="0.521677">
        <ele>1776</ele>
        <time>1970-01-01T03:46:56.000Z</time>
      </trkpt>
      <trkpt lat="42.87051" lon="0.521888">
        <ele>1776.8</ele>
        <time>1970-01-01T03:47:04.000Z</time>
      </trkpt>
      <trkpt lat="42.870454" lon="0.521951">
        <ele>1777.6</ele>
        <time>1970-01-01T03:47:08.000Z</time>
      </trkpt>
      <trkpt lat="42.870398" lon="0.521944">
        <ele>1778</ele>
        <time>1970-01-01T03:47:11.000Z</time>
      </trkpt>
      <trkpt lat="42.870348" lon="0.521901">
        <ele>1778.6</ele>
        <time>1970-01-01T03:47:14.000Z</time>
      </trkpt>
      <trkpt lat="42.870322" lon="0.521864">
        <ele>1779.2</ele>
        <time>1970-01-01T03:47:16.000Z</time>
      </trkpt>
      <trkpt lat="42.870212" lon="0.521727">
        <ele>1780</ele>
        <time>1970-01-01T03:47:24.000Z</time>
      </trkpt>
      <trkpt lat="42.870066" lon="0.521701">
        <ele>1781</ele>
        <time>1970-01-01T03:47:33.000Z</time>
      </trkpt>
      <trkpt lat="42.86995" lon="0.521744">
        <ele>1782</ele>
        <time>1970-01-01T03:47:40.000Z</time>
      </trkpt>
      <trkpt lat="42.869825" lon="0.521789">
        <ele>1783.2</ele>
        <time>1970-01-01T03:47:47.000Z</time>
      </trkpt>
      <trkpt lat="42.869751" lon="0.521808">
        <ele>1784.4</ele>
        <time>1970-01-01T03:47:51.000Z</time>
      </trkpt>
      <trkpt lat="42.869616" lon="0.521809">
        <ele>1785.4</ele>
        <time>1970-01-01T03:47:58.000Z</time>
      </trkpt>
      <trkpt lat="42.869519" lon="0.521796">
        <ele>1786.4</ele>
        <time>1970-01-01T03:48:03.000Z</time>
      </trkpt>
      <trkpt lat="42.869423" lon="0.521791">
        <ele>1787.4</ele>
        <time>1970-01-01T03:48:08.000Z</time>
      </trkpt>
      <trkpt lat="42.86933" lon="0.521797">
        <ele>1788.4</ele>
        <time>1970-01-01T03:48:13.000Z</time>
      </trkpt>
      <trkpt lat="42.869233" lon="0.521798">
        <ele>1789.6</ele>
        <time>1970-01-01T03:48:18.000Z</time>
      </trkpt>
      <trkpt lat="42.869126" lon="0.521819">
        <ele>1790.4</ele>
        <time>1970-01-01T03:48:24.000Z</time>
      </trkpt>
      <trkpt lat="42.869041" lon="0.521847">
        <ele>1791.4</ele>
        <time>1970-01-01T03:48:29.000Z</time>
      </trkpt>
      <trkpt lat="42.868976" lon="0.521869">
        <ele>1792.4</ele>
        <time>1970-01-01T03:48:33.000Z</time>
      </trkpt>
      <trkpt lat="42.868863" lon="0.521854">
        <ele>1793.6</ele>
        <time>1970-01-01T03:48:41.000Z</time>
      </trkpt>
      <trkpt lat="42.868764" lon="0.52173">
        <ele>1794.8</ele>
        <time>1970-01-01T03:48:51.000Z</time>
      </trkpt>
      <trkpt lat="42.868616" lon="0.521675">
        <ele>1795.6</ele>
        <time>1970-01-01T03:49:01.000Z</time>
      </trkpt>
      <trkpt lat="42.868568" lon="0.521663">
        <ele>1795.8</ele>
        <time>1970-01-01T03:49:05.000Z</time>
      </trkpt>
      <trkpt lat="42.868452" lon="0.521664">
        <ele>1796.8</ele>
        <time>1970-01-01T03:49:12.000Z</time>
      </trkpt>
      <trkpt lat="42.868436" lon="0.521661">
        <ele>1797</ele>
        <time>1970-01-01T03:49:13.000Z</time>
      </trkpt>
      <trkpt lat="42.8683" lon="0.521676">
        <ele>1797.8</ele>
        <time>1970-01-01T03:49:21.000Z</time>
      </trkpt>
      <trkpt lat="42.868241" lon="0.52169">
        <ele>1798.6</ele>
        <time>1970-01-01T03:49:25.000Z</time>
      </trkpt>
      <trkpt lat="42.868225" lon="0.521691">
        <ele>1799</ele>
        <time>1970-01-01T03:49:26.000Z</time>
      </trkpt>
      <trkpt lat="42.868107" lon="0.521714">
        <ele>1800.2</ele>
        <time>1970-01-01T03:49:33.000Z</time>
      </trkpt>
      <trkpt lat="42.867987" lon="0.521744">
        <ele>1801.4</ele>
        <time>1970-01-01T03:49:40.000Z</time>
      </trkpt>
      <trkpt lat="42.8679" lon="0.521762">
        <ele>1802.6</ele>
        <time>1970-01-01T03:49:45.000Z</time>
      </trkpt>
      <trkpt lat="42.867795" lon="0.521789">
        <ele>1803.6</ele>
        <time>1970-01-01T03:49:51.000Z</time>
      </trkpt>
      <trkpt lat="42.867692" lon="0.52184">
        <ele>1804.6</ele>
        <time>1970-01-01T03:49:57.000Z</time>
      </trkpt>
      <trkpt lat="42.867594" lon="0.521909">
        <ele>1805.8</ele>
        <time>1970-01-01T03:50:03.000Z</time>
      </trkpt>
      <trkpt lat="42.867491" lon="0.521999">
        <ele>1807</ele>
        <time>1970-01-01T03:50:10.000Z</time>
      </trkpt>
      <trkpt lat="42.867387" lon="0.522111">
        <ele>1808.2</ele>
        <time>1970-01-01T03:50:17.000Z</time>
      </trkpt>
      <trkpt lat="42.867316" lon="0.522202">
        <ele>1809.2</ele>
        <time>1970-01-01T03:50:22.000Z</time>
      </trkpt>
      <trkpt lat="42.867237" lon="0.52232">
        <ele>1810.4</ele>
        <time>1970-01-01T03:50:28.000Z</time>
      </trkpt>
      <trkpt lat="42.867193" lon="0.522425">
        <ele>1811.2</ele>
        <time>1970-01-01T03:50:33.000Z</time>
      </trkpt>
      <trkpt lat="42.867105" lon="0.522611">
        <ele>1812.4</ele>
        <time>1970-01-01T03:50:41.000Z</time>
      </trkpt>
      <trkpt lat="42.867032" lon="0.522775">
        <ele>1813.4</ele>
        <time>1970-01-01T03:50:48.000Z</time>
      </trkpt>
      <trkpt lat="42.866952" lon="0.52293">
        <ele>1814.6</ele>
        <time>1970-01-01T03:50:55.000Z</time>
      </trkpt>
      <trkpt lat="42.866788" lon="0.523236">
        <ele>1815.6</ele>
        <time>1970-01-01T03:51:08.000Z</time>
      </trkpt>
      <trkpt lat="42.866728" lon="0.523398">
        <ele>1816.2</ele>
        <time>1970-01-01T03:51:16.000Z</time>
      </trkpt>
      <trkpt lat="42.866716" lon="0.523422">
        <ele>1816.6</ele>
        <time>1970-01-01T03:51:22.000Z</time>
      </trkpt>
      <trkpt lat="42.86652" lon="0.52397">
        <ele>1817.4</ele>
        <time>1970-01-01T03:51:39.000Z</time>
      </trkpt>
      <trkpt lat="42.866299" lon="0.524535">
        <ele>1818.6</ele>
        <time>1970-01-01T03:51:55.000Z</time>
      </trkpt>
      <trkpt lat="42.866223" lon="0.524705">
        <ele>1818.6</ele>
        <time>1970-01-01T03:51:59.000Z</time>
      </trkpt>
      <trkpt lat="42.866076" lon="0.525133">
        <ele>1818.2</ele>
        <time>1970-01-01T03:52:09.000Z</time>
      </trkpt>
      <trkpt lat="42.866057" lon="0.52518">
        <ele>1818.4</ele>
        <time>1970-01-01T03:52:46.000Z</time>
      </trkpt>
      <trkpt lat="42.865903" lon="0.525889">
        <ele>1818</ele>
        <time>1970-01-01T03:52:59.000Z</time>
      </trkpt>
      <trkpt lat="42.865801" lon="0.526276">
        <ele>1817.8</ele>
        <time>1970-01-01T03:53:05.000Z</time>
      </trkpt>
      <trkpt lat="42.865534" lon="0.526809">
        <ele>1817.8</ele>
        <time>1970-01-01T03:53:15.000Z</time>
      </trkpt>
      <trkpt lat="42.865395" lon="0.527268">
        <ele>1816.2</ele>
        <time>1970-01-01T03:53:22.000Z</time>
      </trkpt>
      <trkpt lat="42.865301" lon="0.527421">
        <ele>1814.2</ele>
        <time>1970-01-01T03:53:24.000Z</time>
      </trkpt>
      <trkpt lat="42.865258" lon="0.527509">
        <ele>1813.2</ele>
        <time>1970-01-01T03:53:25.000Z</time>
      </trkpt>
      <trkpt lat="42.865179" lon="0.527703">
        <ele>1811.6</ele>
        <time>1970-01-01T03:53:27.000Z</time>
      </trkpt>
      <trkpt lat="42.865145" lon="0.527812">
        <ele>1810.8</ele>
        <time>1970-01-01T03:53:28.000Z</time>
      </trkpt>
      <trkpt lat="42.865116" lon="0.527925">
        <ele>1810.2</ele>
        <time>1970-01-01T03:53:29.000Z</time>
      </trkpt>
      <trkpt lat="42.865073" lon="0.528164">
        <ele>1809</ele>
        <time>1970-01-01T03:53:31.000Z</time>
      </trkpt>
      <trkpt lat="42.865058" lon="0.528285">
        <ele>1808.4</ele>
        <time>1970-01-01T03:53:32.000Z</time>
      </trkpt>
      <trkpt lat="42.865049" lon="0.528402">
        <ele>1807.4</ele>
        <time>1970-01-01T03:53:33.000Z</time>
      </trkpt>
      <trkpt lat="42.865023" lon="0.528619">
        <ele>1804.8</ele>
        <time>1970-01-01T03:53:35.000Z</time>
      </trkpt>
      <trkpt lat="42.865002" lon="0.528725">
        <ele>1803.8</ele>
        <time>1970-01-01T03:53:36.000Z</time>
      </trkpt>
      <trkpt lat="42.864967" lon="0.528932">
        <ele>1802.2</ele>
        <time>1970-01-01T03:53:38.000Z</time>
      </trkpt>
      <trkpt lat="42.864906" lon="0.529236">
        <ele>1801</ele>
        <time>1970-01-01T03:53:41.000Z</time>
      </trkpt>
      <trkpt lat="42.864891" lon="0.529331">
        <ele>1800.4</ele>
        <time>1970-01-01T03:53:42.000Z</time>
      </trkpt>
      <trkpt lat="42.864885" lon="0.529418">
        <ele>1800</ele>
        <time>1970-01-01T03:53:43.000Z</time>
      </trkpt>
      <trkpt lat="42.864881" lon="0.529651">
        <ele>1798.2</ele>
        <time>1970-01-01T03:53:46.000Z</time>
      </trkpt>
      <trkpt lat="42.864873" lon="0.529718">
        <ele>1797.2</ele>
        <time>1970-01-01T03:53:47.000Z</time>
      </trkpt>
      <trkpt lat="42.864809" lon="0.529853">
        <ele>1795.2</ele>
        <time>1970-01-01T03:53:49.000Z</time>
      </trkpt>
      <trkpt lat="42.864763" lon="0.529926">
        <ele>1794.2</ele>
        <time>1970-01-01T03:53:50.000Z</time>
      </trkpt>
      <trkpt lat="42.864611" lon="0.530154">
        <ele>1793</ele>
        <time>1970-01-01T03:53:53.000Z</time>
      </trkpt>
      <trkpt lat="42.864462" lon="0.530366">
        <ele>1792</ele>
        <time>1970-01-01T03:53:56.000Z</time>
      </trkpt>
      <trkpt lat="42.864353" lon="0.530749">
        <ele>1792.8</ele>
        <time>1970-01-01T03:54:04.000Z</time>
      </trkpt>
      <trkpt lat="42.864353" lon="0.53077">
        <ele>1792.8</ele>
        <time>1970-01-01T03:54:18.000Z</time>
      </trkpt>
      <trkpt lat="42.864321" lon="0.53102">
        <ele>1793.8</ele>
        <time>1970-01-01T03:54:25.000Z</time>
      </trkpt>
      <trkpt lat="42.864244" lon="0.531391">
        <ele>1794.2</ele>
        <time>1970-01-01T03:54:33.000Z</time>
      </trkpt>
      <trkpt lat="42.8642" lon="0.531498">
        <ele>1794</ele>
        <time>1970-01-01T03:54:35.000Z</time>
      </trkpt>
      <trkpt lat="42.864134" lon="0.531745">
        <ele>1793.6</ele>
        <time>1970-01-01T03:54:39.000Z</time>
      </trkpt>
      <trkpt lat="42.86411" lon="0.532186">
        <ele>1792.4</ele>
        <time>1970-01-01T03:54:45.000Z</time>
      </trkpt>
      <trkpt lat="42.864172" lon="0.532964">
        <ele>1792</ele>
        <time>1970-01-01T03:54:56.000Z</time>
      </trkpt>
      <trkpt lat="42.864171" lon="0.533033">
        <ele>1792.2</ele>
        <time>1970-01-01T03:54:57.000Z</time>
      </trkpt>
      <trkpt lat="42.864128" lon="0.533275">
        <ele>1792.4</ele>
        <time>1970-01-01T03:55:01.000Z</time>
      </trkpt>
      <trkpt lat="42.863802" lon="0.533857">
        <ele>1792.6</ele>
        <time>1970-01-01T03:55:12.000Z</time>
      </trkpt>
      <trkpt lat="42.863678" lon="0.534034">
        <ele>1792.2</ele>
        <time>1970-01-01T03:55:15.000Z</time>
      </trkpt>
      <trkpt lat="42.863484" lon="0.534484">
        <ele>1791</ele>
        <time>1970-01-01T03:55:21.000Z</time>
      </trkpt>
      <trkpt lat="42.863427" lon="0.534659">
        <ele>1790</ele>
        <time>1970-01-01T03:55:23.000Z</time>
      </trkpt>
      <trkpt lat="42.863404" lon="0.534751">
        <ele>1789.8</ele>
        <time>1970-01-01T03:55:24.000Z</time>
      </trkpt>
      <trkpt lat="42.863365" lon="0.534934">
        <ele>1789.4</ele>
        <time>1970-01-01T03:55:26.000Z</time>
      </trkpt>
      <trkpt lat="42.863327" lon="0.535202">
        <ele>1789</ele>
        <time>1970-01-01T03:55:29.000Z</time>
      </trkpt>
      <trkpt lat="42.86328" lon="0.535452">
        <ele>1788.6</ele>
        <time>1970-01-01T03:55:32.000Z</time>
      </trkpt>
      <trkpt lat="42.863223" lon="0.53572">
        <ele>1787.4</ele>
        <time>1970-01-01T03:55:35.000Z</time>
      </trkpt>
      <trkpt lat="42.863188" lon="0.536026">
        <ele>1786.6</ele>
        <time>1970-01-01T03:55:38.000Z</time>
      </trkpt>
      <trkpt lat="42.86319" lon="0.536134">
        <ele>1786.2</ele>
        <time>1970-01-01T03:55:39.000Z</time>
      </trkpt>
      <trkpt lat="42.863222" lon="0.536465">
        <ele>1784.4</ele>
        <time>1970-01-01T03:55:42.000Z</time>
      </trkpt>
      <trkpt lat="42.86326" lon="0.536688">
        <ele>1782.8</ele>
        <time>1970-01-01T03:55:44.000Z</time>
      </trkpt>
      <trkpt lat="42.863311" lon="0.536895">
        <ele>1781.2</ele>
        <time>1970-01-01T03:55:46.000Z</time>
      </trkpt>
      <trkpt lat="42.863339" lon="0.536976">
        <ele>1780.4</ele>
        <time>1970-01-01T03:55:47.000Z</time>
      </trkpt>
      <trkpt lat="42.863376" lon="0.537039">
        <ele>1779.6</ele>
        <time>1970-01-01T03:55:48.000Z</time>
      </trkpt>
      <trkpt lat="42.863465" lon="0.537154">
        <ele>1777.8</ele>
        <time>1970-01-01T03:55:50.000Z</time>
      </trkpt>
      <trkpt lat="42.863563" lon="0.537325">
        <ele>1776</ele>
        <time>1970-01-01T03:55:52.000Z</time>
      </trkpt>
      <trkpt lat="42.863615" lon="0.53742">
        <ele>1774.4</ele>
        <time>1970-01-01T03:55:53.000Z</time>
      </trkpt>
      <trkpt lat="42.863664" lon="0.537519">
        <ele>1773.4</ele>
        <time>1970-01-01T03:55:54.000Z</time>
      </trkpt>
      <trkpt lat="42.863711" lon="0.537623">
        <ele>1772.8</ele>
        <time>1970-01-01T03:55:55.000Z</time>
      </trkpt>
      <trkpt lat="42.863805" lon="0.537826">
        <ele>1771.4</ele>
        <time>1970-01-01T03:55:57.000Z</time>
      </trkpt>
      <trkpt lat="42.863892" lon="0.538033">
        <ele>1770.4</ele>
        <time>1970-01-01T03:55:59.000Z</time>
      </trkpt>
      <trkpt lat="42.863971" lon="0.538231">
        <ele>1769</ele>
        <time>1970-01-01T03:56:01.000Z</time>
      </trkpt>
      <trkpt lat="42.864019" lon="0.538422">
        <ele>1767.2</ele>
        <time>1970-01-01T03:56:03.000Z</time>
      </trkpt>
      <trkpt lat="42.864007" lon="0.538502">
        <ele>1766</ele>
        <time>1970-01-01T03:56:04.000Z</time>
      </trkpt>
      <trkpt lat="42.86394" lon="0.538576">
        <ele>1764.8</ele>
        <time>1970-01-01T03:56:06.000Z</time>
      </trkpt>
      <trkpt lat="42.863853" lon="0.538603">
        <ele>1764.4</ele>
        <time>1970-01-01T03:56:08.000Z</time>
      </trkpt>
      <trkpt lat="42.863762" lon="0.538638">
        <ele>1764</ele>
        <time>1970-01-01T03:56:10.000Z</time>
      </trkpt>
      <trkpt lat="42.863683" lon="0.538735">
        <ele>1763.4</ele>
        <time>1970-01-01T03:56:12.000Z</time>
      </trkpt>
      <trkpt lat="42.863621" lon="0.538875">
        <ele>1762.4</ele>
        <time>1970-01-01T03:56:14.000Z</time>
      </trkpt>
      <trkpt lat="42.863546" lon="0.539032">
        <ele>1761.8</ele>
        <time>1970-01-01T03:56:16.000Z</time>
      </trkpt>
      <trkpt lat="42.863495" lon="0.539107">
        <ele>1761.2</ele>
        <time>1970-01-01T03:56:17.000Z</time>
      </trkpt>
      <trkpt lat="42.86337" lon="0.539239">
        <ele>1760.2</ele>
        <time>1970-01-01T03:56:19.000Z</time>
      </trkpt>
      <trkpt lat="42.863237" lon="0.53932">
        <ele>1759.2</ele>
        <time>1970-01-01T03:56:21.000Z</time>
      </trkpt>
      <trkpt lat="42.863192" lon="0.539366">
        <ele>1758.4</ele>
        <time>1970-01-01T03:56:22.000Z</time>
      </trkpt>
      <trkpt lat="42.863176" lon="0.539432">
        <ele>1757.8</ele>
        <time>1970-01-01T03:56:23.000Z</time>
      </trkpt>
      <trkpt lat="42.863259" lon="0.539571">
        <ele>1756.4</ele>
        <time>1970-01-01T03:56:26.000Z</time>
      </trkpt>
      <trkpt lat="42.863402" lon="0.539589">
        <ele>1755.6</ele>
        <time>1970-01-01T03:56:29.000Z</time>
      </trkpt>
      <trkpt lat="42.863453" lon="0.539594">
        <ele>1755.4</ele>
        <time>1970-01-01T03:56:30.000Z</time>
      </trkpt>
      <trkpt lat="42.86362" lon="0.539634">
        <ele>1754</ele>
        <time>1970-01-01T03:56:33.000Z</time>
      </trkpt>
      <trkpt lat="42.863747" lon="0.539675">
        <ele>1752.8</ele>
        <time>1970-01-01T03:56:35.000Z</time>
      </trkpt>
      <trkpt lat="42.863813" lon="0.539707">
        <ele>1752</ele>
        <time>1970-01-01T03:56:36.000Z</time>
      </trkpt>
      <trkpt lat="42.863879" lon="0.539749">
        <ele>1751.8</ele>
        <time>1970-01-01T03:56:37.000Z</time>
      </trkpt>
      <trkpt lat="42.863946" lon="0.539788">
        <ele>1751.4</ele>
        <time>1970-01-01T03:56:38.000Z</time>
      </trkpt>
      <trkpt lat="42.864074" lon="0.539842">
        <ele>1750.6</ele>
        <time>1970-01-01T03:56:40.000Z</time>
      </trkpt>
      <trkpt lat="42.864122" lon="0.539865">
        <ele>1750</ele>
        <time>1970-01-01T03:56:41.000Z</time>
      </trkpt>
      <trkpt lat="42.864163" lon="0.539897">
        <ele>1749.4</ele>
        <time>1970-01-01T03:56:42.000Z</time>
      </trkpt>
      <trkpt lat="42.864235" lon="0.539978">
        <ele>1748.4</ele>
        <time>1970-01-01T03:56:44.000Z</time>
      </trkpt>
      <trkpt lat="42.864267" lon="0.540006">
        <ele>1747.2</ele>
        <time>1970-01-01T03:56:45.000Z</time>
      </trkpt>
      <trkpt lat="42.86431" lon="0.540042">
        <ele>1746.2</ele>
        <time>1970-01-01T03:56:47.000Z</time>
      </trkpt>
      <trkpt lat="42.864327" lon="0.54005">
        <ele>1745.8</ele>
        <time>1970-01-01T03:56:48.000Z</time>
      </trkpt>
      <trkpt lat="42.864385" lon="0.540078">
        <ele>1745</ele>
        <time>1970-01-01T03:56:51.000Z</time>
      </trkpt>
      <trkpt lat="42.864537" lon="0.540194">
        <ele>1743.8</ele>
        <time>1970-01-01T03:56:56.000Z</time>
      </trkpt>
      <trkpt lat="42.864571" lon="0.540228">
        <ele>1743.6</ele>
        <time>1970-01-01T03:56:57.000Z</time>
      </trkpt>
      <trkpt lat="42.864721" lon="0.540373">
        <ele>1743.2</ele>
        <time>1970-01-01T03:57:01.000Z</time>
      </trkpt>
      <trkpt lat="42.865215" lon="0.540688">
        <ele>1744.6</ele>
        <time>1970-01-01T03:57:18.000Z</time>
      </trkpt>
      <trkpt lat="42.865488" lon="0.540765">
        <ele>1745.8</ele>
        <time>1970-01-01T03:57:26.000Z</time>
      </trkpt>
      <trkpt lat="42.866006" lon="0.541036">
        <ele>1746.8</ele>
        <time>1970-01-01T03:57:42.000Z</time>
      </trkpt>
      <trkpt lat="42.866146" lon="0.541116">
        <ele>1746.8</ele>
        <time>1970-01-01T03:57:46.000Z</time>
      </trkpt>
      <trkpt lat="42.866616" lon="0.541506">
        <ele>1746.6</ele>
        <time>1970-01-01T03:58:00.000Z</time>
      </trkpt>
      <trkpt lat="42.867049" lon="0.542">
        <ele>1747.2</ele>
        <time>1970-01-01T03:58:15.000Z</time>
      </trkpt>
      <trkpt lat="42.867216" lon="0.54222">
        <ele>1747.6</ele>
        <time>1970-01-01T03:58:21.000Z</time>
      </trkpt>
      <trkpt lat="42.867581" lon="0.542814">
        <ele>1748.2</ele>
        <time>1970-01-01T03:58:36.000Z</time>
      </trkpt>
      <trkpt lat="42.867833" lon="0.54347">
        <ele>1747.6</ele>
        <time>1970-01-01T03:58:51.000Z</time>
      </trkpt>
      <trkpt lat="42.868066" lon="0.544155">
        <ele>1747.2</ele>
        <time>1970-01-01T03:59:06.000Z</time>
      </trkpt>
      <trkpt lat="42.868086" lon="0.544212">
        <ele>1747</ele>
        <time>1970-01-01T03:59:07.000Z</time>
      </trkpt>
      <trkpt lat="42.868191" lon="0.544504">
        <ele>1746.4</ele>
        <time>1970-01-01T03:59:12.000Z</time>
      </trkpt>
      <trkpt lat="42.868264" lon="0.544742">
        <ele>1746.2</ele>
        <time>1970-01-01T03:59:16.000Z</time>
      </trkpt>
      <trkpt lat="42.868314" lon="0.545245">
        <ele>1746.4</ele>
        <time>1970-01-01T03:59:24.000Z</time>
      </trkpt>
      <trkpt lat="42.868298" lon="0.54551">
        <ele>1746.8</ele>
        <time>1970-01-01T03:59:29.000Z</time>
      </trkpt>
      <trkpt lat="42.868279" lon="0.545871">
        <ele>1745.2</ele>
        <time>1970-01-01T03:59:34.000Z</time>
      </trkpt>
      <trkpt lat="42.868255" lon="0.545963">
        <ele>1744.8</ele>
        <time>1970-01-01T03:59:35.000Z</time>
      </trkpt>
      <trkpt lat="42.868238" lon="0.546066">
        <ele>1744</ele>
        <time>1970-01-01T03:59:36.000Z</time>
      </trkpt>
      <trkpt lat="42.868237" lon="0.546303">
        <ele>1742.6</ele>
        <time>1970-01-01T03:59:38.000Z</time>
      </trkpt>
      <trkpt lat="42.868253" lon="0.546564">
        <ele>1741.2</ele>
        <time>1970-01-01T03:59:40.000Z</time>
      </trkpt>
      <trkpt lat="42.868261" lon="0.546821">
        <ele>1739.6</ele>
        <time>1970-01-01T03:59:42.000Z</time>
      </trkpt>
      <trkpt lat="42.868263" lon="0.546955">
        <ele>1738.2</ele>
        <time>1970-01-01T03:59:43.000Z</time>
      </trkpt>
      <trkpt lat="42.868263" lon="0.547092">
        <ele>1737</ele>
        <time>1970-01-01T03:59:44.000Z</time>
      </trkpt>
      <trkpt lat="42.868269" lon="0.547232">
        <ele>1736.4</ele>
        <time>1970-01-01T03:59:45.000Z</time>
      </trkpt>
      <trkpt lat="42.868283" lon="0.547369">
        <ele>1735.6</ele>
        <time>1970-01-01T03:59:46.000Z</time>
      </trkpt>
      <trkpt lat="42.868305" lon="0.547496">
        <ele>1734.4</ele>
        <time>1970-01-01T03:59:47.000Z</time>
      </trkpt>
      <trkpt lat="42.868367" lon="0.547727">
        <ele>1732.6</ele>
        <time>1970-01-01T03:59:49.000Z</time>
      </trkpt>
      <trkpt lat="42.868408" lon="0.547815">
        <ele>1731</ele>
        <time>1970-01-01T03:59:50.000Z</time>
      </trkpt>
      <trkpt lat="42.868522" lon="0.54795">
        <ele>1729.4</ele>
        <time>1970-01-01T03:59:52.000Z</time>
      </trkpt>
      <trkpt lat="42.86866" lon="0.548043">
        <ele>1727.8</ele>
        <time>1970-01-01T03:59:54.000Z</time>
      </trkpt>
      <trkpt lat="42.868882" lon="0.548224">
        <ele>1726</ele>
        <time>1970-01-01T03:59:57.000Z</time>
      </trkpt>
      <trkpt lat="42.868999" lon="0.548387">
        <ele>1724.8</ele>
        <time>1970-01-01T03:59:59.000Z</time>
      </trkpt>
      <trkpt lat="42.869106" lon="0.548521">
        <ele>1724.6</ele>
        <time>1970-01-01T04:00:01.000Z</time>
      </trkpt>
      <trkpt lat="42.869291" lon="0.548696">
        <ele>1724.6</ele>
        <time>1970-01-01T04:00:05.000Z</time>
      </trkpt>
      <trkpt lat="42.869425" lon="0.548882">
        <ele>1725</ele>
        <time>1970-01-01T04:00:12.000Z</time>
      </trkpt>
      <trkpt lat="42.86945" lon="0.548902">
        <ele>1725</ele>
        <time>1970-01-01T04:03:32.000Z</time>
      </trkpt>
      <trkpt lat="42.869719" lon="0.549272">
        <ele>1725.2</ele>
        <time>1970-01-01T04:03:43.000Z</time>
      </trkpt>
      <trkpt lat="42.870058" lon="0.549766">
        <ele>1724.8</ele>
        <time>1970-01-01T04:03:53.000Z</time>
      </trkpt>
      <trkpt lat="42.870273" lon="0.550026">
        <ele>1724</ele>
        <time>1970-01-01T04:03:58.000Z</time>
      </trkpt>
      <trkpt lat="42.870369" lon="0.550108">
        <ele>1724</ele>
        <time>1970-01-01T04:04:00.000Z</time>
      </trkpt>
      <trkpt lat="42.870512" lon="0.550225">
        <ele>1723.4</ele>
        <time>1970-01-01T04:04:03.000Z</time>
      </trkpt>
      <trkpt lat="42.870595" lon="0.550349">
        <ele>1722.8</ele>
        <time>1970-01-01T04:04:05.000Z</time>
      </trkpt>
      <trkpt lat="42.870681" lon="0.550483">
        <ele>1722.4</ele>
        <time>1970-01-01T04:04:07.000Z</time>
      </trkpt>
      <trkpt lat="42.870957" lon="0.550845">
        <ele>1722.2</ele>
        <time>1970-01-01T04:04:14.000Z</time>
      </trkpt>
      <trkpt lat="42.8711" lon="0.551142">
        <ele>1722.6</ele>
        <time>1970-01-01T04:04:19.000Z</time>
      </trkpt>
      <trkpt lat="42.871502" lon="0.551554">
        <ele>1722.6</ele>
        <time>1970-01-01T04:04:28.000Z</time>
      </trkpt>
      <trkpt lat="42.871627" lon="0.552079">
        <ele>1722</ele>
        <time>1970-01-01T04:04:35.000Z</time>
      </trkpt>
      <trkpt lat="42.871625" lon="0.552141">
        <ele>1722.2</ele>
        <time>1970-01-01T04:04:36.000Z</time>
      </trkpt>
      <trkpt lat="42.871538" lon="0.551997">
        <ele>1723.6</ele>
        <time>1970-01-01T04:04:46.000Z</time>
      </trkpt>
      <trkpt lat="42.871528" lon="0.55188">
        <ele>1724</ele>
        <time>1970-01-01T04:04:49.000Z</time>
      </trkpt>
      <trkpt lat="42.871422" lon="0.551689">
        <ele>1725</ele>
        <time>1970-01-01T04:04:55.000Z</time>
      </trkpt>
      <trkpt lat="42.871317" lon="0.55163">
        <ele>1726</ele>
        <time>1970-01-01T04:04:59.000Z</time>
      </trkpt>
      <trkpt lat="42.871239" lon="0.551595">
        <ele>1727.4</ele>
        <time>1970-01-01T04:05:02.000Z</time>
      </trkpt>
      <trkpt lat="42.871119" lon="0.551557">
        <ele>1728.6</ele>
        <time>1970-01-01T04:05:07.000Z</time>
      </trkpt>
      <trkpt lat="42.871019" lon="0.551483">
        <ele>1729.6</ele>
        <time>1970-01-01T04:05:12.000Z</time>
      </trkpt>
      <trkpt lat="42.870937" lon="0.551387">
        <ele>1730.8</ele>
        <time>1970-01-01T04:05:17.000Z</time>
      </trkpt>
      <trkpt lat="42.870878" lon="0.551272">
        <ele>1731.8</ele>
        <time>1970-01-01T04:05:22.000Z</time>
      </trkpt>
      <trkpt lat="42.870821" lon="0.551184">
        <ele>1733.2</ele>
        <time>1970-01-01T04:05:26.000Z</time>
      </trkpt>
      <trkpt lat="42.870725" lon="0.551074">
        <ele>1734.4</ele>
        <time>1970-01-01T04:05:32.000Z</time>
      </trkpt>
      <trkpt lat="42.870628" lon="0.550986">
        <ele>1735.6</ele>
        <time>1970-01-01T04:05:38.000Z</time>
      </trkpt>
      <trkpt lat="42.870587" lon="0.550915">
        <ele>1736.6</ele>
        <time>1970-01-01T04:05:42.000Z</time>
      </trkpt>
      <trkpt lat="42.870515" lon="0.550816">
        <ele>1737.6</ele>
        <time>1970-01-01T04:05:48.000Z</time>
      </trkpt>
      <trkpt lat="42.870439" lon="0.550712">
        <ele>1738.8</ele>
        <time>1970-01-01T04:05:54.000Z</time>
      </trkpt>
      <trkpt lat="42.870361" lon="0.550633">
        <ele>1740</ele>
        <time>1970-01-01T04:06:00.000Z</time>
      </trkpt>
      <trkpt lat="42.870285" lon="0.55059">
        <ele>1741</ele>
        <time>1970-01-01T04:06:05.000Z</time>
      </trkpt>
      <trkpt lat="42.870206" lon="0.550568">
        <ele>1742</ele>
        <time>1970-01-01T04:06:10.000Z</time>
      </trkpt>
      <trkpt lat="42.870094" lon="0.550511">
        <ele>1743</ele>
        <time>1970-01-01T04:06:17.000Z</time>
      </trkpt>
      <trkpt lat="42.87" lon="0.550441">
        <ele>1744.2</ele>
        <time>1970-01-01T04:06:23.000Z</time>
      </trkpt>
      <trkpt lat="42.869914" lon="0.55036">
        <ele>1745.2</ele>
        <time>1970-01-01T04:06:29.000Z</time>
      </trkpt>
      <trkpt lat="42.869813" lon="0.550258">
        <ele>1746.6</ele>
        <time>1970-01-01T04:06:36.000Z</time>
      </trkpt>
      <trkpt lat="42.869738" lon="0.550195">
        <ele>1747.6</ele>
        <time>1970-01-01T04:06:41.000Z</time>
      </trkpt>
      <trkpt lat="42.869667" lon="0.550117">
        <ele>1748.8</ele>
        <time>1970-01-01T04:06:46.000Z</time>
      </trkpt>
      <trkpt lat="42.869568" lon="0.550013">
        <ele>1749.8</ele>
        <time>1970-01-01T04:06:53.000Z</time>
      </trkpt>
      <trkpt lat="42.86948" lon="0.549917">
        <ele>1750.8</ele>
        <time>1970-01-01T04:06:59.000Z</time>
      </trkpt>
      <trkpt lat="42.869399" lon="0.549836">
        <ele>1751.8</ele>
        <time>1970-01-01T04:07:06.000Z</time>
      </trkpt>
      <trkpt lat="42.869296" lon="0.549722">
        <ele>1752.8</ele>
        <time>1970-01-01T04:07:16.000Z</time>
      </trkpt>
      <trkpt lat="42.869243" lon="0.549776">
        <ele>1753.6</ele>
        <time>1970-01-01T04:07:23.000Z</time>
      </trkpt>
      <trkpt lat="42.869241" lon="0.54981">
        <ele>1753.8</ele>
        <time>1970-01-01T04:07:25.000Z</time>
      </trkpt>
      <trkpt lat="42.86925" lon="0.549845">
        <ele>1754.2</ele>
        <time>1970-01-01T04:07:27.000Z</time>
      </trkpt>
      <trkpt lat="42.869339" lon="0.54996">
        <ele>1754.8</ele>
        <time>1970-01-01T04:07:34.000Z</time>
      </trkpt>
      <trkpt lat="42.869449" lon="0.550142">
        <ele>1755.8</ele>
        <time>1970-01-01T04:07:44.000Z</time>
      </trkpt>
      <trkpt lat="42.86952" lon="0.550327">
        <ele>1756.8</ele>
        <time>1970-01-01T04:07:52.000Z</time>
      </trkpt>
      <trkpt lat="42.869581" lon="0.550492">
        <ele>1757.8</ele>
        <time>1970-01-01T04:07:59.000Z</time>
      </trkpt>
      <trkpt lat="42.869645" lon="0.550643">
        <ele>1759</ele>
        <time>1970-01-01T04:08:06.000Z</time>
      </trkpt>
      <trkpt lat="42.869684" lon="0.550785">
        <ele>1760</ele>
        <time>1970-01-01T04:08:12.000Z</time>
      </trkpt>
      <trkpt lat="42.869689" lon="0.550905">
        <ele>1761</ele>
        <time>1970-01-01T04:08:17.000Z</time>
      </trkpt>
      <trkpt lat="42.869698" lon="0.551021">
        <ele>1762.2</ele>
        <time>1970-01-01T04:08:22.000Z</time>
      </trkpt>
      <trkpt lat="42.869685" lon="0.551189">
        <ele>1763.2</ele>
        <time>1970-01-01T04:08:33.000Z</time>
      </trkpt>
      <trkpt lat="42.869267" lon="0.551537">
        <ele>1762.8</ele>
        <time>1970-01-01T04:08:55.000Z</time>
      </trkpt>
      <trkpt lat="42.869118" lon="0.551647">
        <ele>1762.2</ele>
        <time>1970-01-01T04:09:06.000Z</time>
      </trkpt>
      <trkpt lat="42.868787" lon="0.552119">
        <ele>1763.2</ele>
        <time>1970-01-01T04:09:23.000Z</time>
      </trkpt>
      <trkpt lat="42.868709" lon="0.552226">
        <ele>1763.6</ele>
        <time>1970-01-01T04:09:27.000Z</time>
      </trkpt>
      <trkpt lat="42.868602" lon="0.55217">
        <ele>1764</ele>
        <time>1970-01-01T04:09:31.000Z</time>
      </trkpt>
      <trkpt lat="42.868552" lon="0.552094">
        <ele>1764</ele>
        <time>1970-01-01T04:09:33.000Z</time>
      </trkpt>
      <trkpt lat="42.868213" lon="0.551483">
        <ele>1763.2</ele>
        <time>1970-01-01T04:09:47.000Z</time>
      </trkpt>
      <trkpt lat="42.868143" lon="0.551405">
        <ele>1762.8</ele>
        <time>1970-01-01T04:09:49.000Z</time>
      </trkpt>
      <trkpt lat="42.868104" lon="0.551371">
        <ele>1762.6</ele>
        <time>1970-01-01T04:09:50.000Z</time>
      </trkpt>
      <trkpt lat="42.867931" lon="0.55127">
        <ele>1762.4</ele>
        <time>1970-01-01T04:09:54.000Z</time>
      </trkpt>
      <trkpt lat="42.8678" lon="0.55116">
        <ele>1762.4</ele>
        <time>1970-01-01T04:09:57.000Z</time>
      </trkpt>
      <trkpt lat="42.867449" lon="0.551136">
        <ele>1764</ele>
        <time>1970-01-01T04:10:05.000Z</time>
      </trkpt>
      <trkpt lat="42.867415" lon="0.551054">
        <ele>1764.6</ele>
        <time>1970-01-01T04:10:07.000Z</time>
      </trkpt>
      <trkpt lat="42.867389" lon="0.550967">
        <ele>1765.2</ele>
        <time>1970-01-01T04:10:09.000Z</time>
      </trkpt>
      <trkpt lat="42.86734" lon="0.550799">
        <ele>1766.4</ele>
        <time>1970-01-01T04:10:13.000Z</time>
      </trkpt>
      <trkpt lat="42.867221" lon="0.550618">
        <ele>1767.4</ele>
        <time>1970-01-01T04:10:18.000Z</time>
      </trkpt>
      <trkpt lat="42.867045" lon="0.550621">
        <ele>1767.2</ele>
        <time>1970-01-01T04:10:22.000Z</time>
      </trkpt>
      <trkpt lat="42.867001" lon="0.55063">
        <ele>1767.2</ele>
        <time>1970-01-01T04:10:23.000Z</time>
      </trkpt>
      <trkpt lat="42.866873" lon="0.550585">
        <ele>1767.4</ele>
        <time>1970-01-01T04:10:26.000Z</time>
      </trkpt>
      <trkpt lat="42.866832" lon="0.550566">
        <ele>1767.6</ele>
        <time>1970-01-01T04:10:27.000Z</time>
      </trkpt>
      <trkpt lat="42.866413" lon="0.550589">
        <ele>1768.6</ele>
        <time>1970-01-01T04:10:38.000Z</time>
      </trkpt>
      <trkpt lat="42.866091" lon="0.550819">
        <ele>1769.6</ele>
        <time>1970-01-01T04:10:49.000Z</time>
      </trkpt>
      <trkpt lat="42.865732" lon="0.551036">
        <ele>1769.8</ele>
        <time>1970-01-01T04:11:00.000Z</time>
      </trkpt>
      <trkpt lat="42.865511" lon="0.551399">
        <ele>1769</ele>
        <time>1970-01-01T04:11:08.000Z</time>
      </trkpt>
      <trkpt lat="42.86541" lon="0.551512">
        <ele>1768.2</ele>
        <time>1970-01-01T04:11:10.000Z</time>
      </trkpt>
      <trkpt lat="42.865275" lon="0.551759">
        <ele>1766.8</ele>
        <time>1970-01-01T04:11:13.000Z</time>
      </trkpt>
      <trkpt lat="42.865179" lon="0.55193">
        <ele>1765.6</ele>
        <time>1970-01-01T04:11:15.000Z</time>
      </trkpt>
      <trkpt lat="42.865125" lon="0.552013">
        <ele>1764.6</ele>
        <time>1970-01-01T04:11:16.000Z</time>
      </trkpt>
      <trkpt lat="42.865069" lon="0.552098">
        <ele>1763.4</ele>
        <time>1970-01-01T04:11:17.000Z</time>
      </trkpt>
      <trkpt lat="42.865016" lon="0.552192">
        <ele>1762.6</ele>
        <time>1970-01-01T04:11:18.000Z</time>
      </trkpt>
      <trkpt lat="42.864969" lon="0.552295">
        <ele>1762</ele>
        <time>1970-01-01T04:11:19.000Z</time>
      </trkpt>
      <trkpt lat="42.864873" lon="0.552505">
        <ele>1760.8</ele>
        <time>1970-01-01T04:11:21.000Z</time>
      </trkpt>
      <trkpt lat="42.864836" lon="0.552613">
        <ele>1760</ele>
        <time>1970-01-01T04:11:22.000Z</time>
      </trkpt>
      <trkpt lat="42.8648" lon="0.552723">
        <ele>1759.6</ele>
        <time>1970-01-01T04:11:23.000Z</time>
      </trkpt>
      <trkpt lat="42.864715" lon="0.552896">
        <ele>1757.8</ele>
        <time>1970-01-01T04:11:25.000Z</time>
      </trkpt>
      <trkpt lat="42.864592" lon="0.553009">
        <ele>1756.6</ele>
        <time>1970-01-01T04:11:27.000Z</time>
      </trkpt>
      <trkpt lat="42.864459" lon="0.553115">
        <ele>1755.2</ele>
        <time>1970-01-01T04:11:29.000Z</time>
      </trkpt>
      <trkpt lat="42.864392" lon="0.553155">
        <ele>1755</ele>
        <time>1970-01-01T04:11:30.000Z</time>
      </trkpt>
      <trkpt lat="42.864141" lon="0.553238">
        <ele>1754.2</ele>
        <time>1970-01-01T04:11:34.000Z</time>
      </trkpt>
      <trkpt lat="42.864086" lon="0.55326">
        <ele>1754</ele>
        <time>1970-01-01T04:11:35.000Z</time>
      </trkpt>
      <trkpt lat="42.863909" lon="0.553413">
        <ele>1754.2</ele>
        <time>1970-01-01T04:11:39.000Z</time>
      </trkpt>
      <trkpt lat="42.863601" lon="0.553719">
        <ele>1755.4</ele>
        <time>1970-01-01T04:11:47.000Z</time>
      </trkpt>
      <trkpt lat="42.863196" lon="0.55409">
        <ele>1756.4</ele>
        <time>1970-01-01T04:11:58.000Z</time>
      </trkpt>
      <trkpt lat="42.863132" lon="0.554161">
        <ele>1756.6</ele>
        <time>1970-01-01T04:12:00.000Z</time>
      </trkpt>
      <trkpt lat="42.863039" lon="0.554355">
        <ele>1756.6</ele>
        <time>1970-01-01T04:12:04.000Z</time>
      </trkpt>
      <trkpt lat="42.863026" lon="0.554409">
        <ele>1756.6</ele>
        <time>1970-01-01T04:12:05.000Z</time>
      </trkpt>
      <trkpt lat="42.862998" lon="0.55469">
        <ele>1757</ele>
        <time>1970-01-01T04:12:10.000Z</time>
      </trkpt>
      <trkpt lat="42.862786" lon="0.5551">
        <ele>1757.2</ele>
        <time>1970-01-01T04:12:18.000Z</time>
      </trkpt>
      <trkpt lat="42.862696" lon="0.555356">
        <ele>1757</ele>
        <time>1970-01-01T04:12:22.000Z</time>
      </trkpt>
      <trkpt lat="42.862995" lon="0.55582">
        <ele>1757</ele>
        <time>1970-01-01T04:12:33.000Z</time>
      </trkpt>
      <trkpt lat="42.863392" lon="0.555959">
        <ele>1755</ele>
        <time>1970-01-01T04:12:40.000Z</time>
      </trkpt>
      <trkpt lat="42.863522" lon="0.556057">
        <ele>1753.8</ele>
        <time>1970-01-01T04:12:42.000Z</time>
      </trkpt>
      <trkpt lat="42.863596" lon="0.556104">
        <ele>1753.2</ele>
        <time>1970-01-01T04:12:43.000Z</time>
      </trkpt>
      <trkpt lat="42.863671" lon="0.556148">
        <ele>1752.6</ele>
        <time>1970-01-01T04:12:44.000Z</time>
      </trkpt>
      <trkpt lat="42.863818" lon="0.556211">
        <ele>1751.6</ele>
        <time>1970-01-01T04:12:46.000Z</time>
      </trkpt>
      <trkpt lat="42.863975" lon="0.556257">
        <ele>1750.2</ele>
        <time>1970-01-01T04:12:48.000Z</time>
      </trkpt>
      <trkpt lat="42.864051" lon="0.556281">
        <ele>1749.4</ele>
        <time>1970-01-01T04:12:49.000Z</time>
      </trkpt>
      <trkpt lat="42.864119" lon="0.556318">
        <ele>1748.6</ele>
        <time>1970-01-01T04:12:50.000Z</time>
      </trkpt>
      <trkpt lat="42.864234" lon="0.556433">
        <ele>1746.6</ele>
        <time>1970-01-01T04:12:52.000Z</time>
      </trkpt>
      <trkpt lat="42.864318" lon="0.556596">
        <ele>1745</ele>
        <time>1970-01-01T04:12:54.000Z</time>
      </trkpt>
      <trkpt lat="42.864357" lon="0.556678">
        <ele>1744</ele>
        <time>1970-01-01T04:12:55.000Z</time>
      </trkpt>
      <trkpt lat="42.864387" lon="0.556755">
        <ele>1743.2</ele>
        <time>1970-01-01T04:12:56.000Z</time>
      </trkpt>
      <trkpt lat="42.864447" lon="0.556912">
        <ele>1742</ele>
        <time>1970-01-01T04:12:58.000Z</time>
      </trkpt>
      <trkpt lat="42.864485" lon="0.556991">
        <ele>1741.8</ele>
        <time>1970-01-01T04:12:59.000Z</time>
      </trkpt>
      <trkpt lat="42.864569" lon="0.557131">
        <ele>1740.8</ele>
        <time>1970-01-01T04:13:01.000Z</time>
      </trkpt>
      <trkpt lat="42.864603" lon="0.557187">
        <ele>1740.2</ele>
        <time>1970-01-01T04:13:02.000Z</time>
      </trkpt>
      <trkpt lat="42.86464" lon="0.557237">
        <ele>1739.6</ele>
        <time>1970-01-01T04:13:03.000Z</time>
      </trkpt>
      <trkpt lat="42.864762" lon="0.557392">
        <ele>1738.6</ele>
        <time>1970-01-01T04:13:06.000Z</time>
      </trkpt>
      <trkpt lat="42.864928" lon="0.557516">
        <ele>1737.4</ele>
        <time>1970-01-01T04:13:09.000Z</time>
      </trkpt>
      <trkpt lat="42.865054" lon="0.557567">
        <ele>1736.6</ele>
        <time>1970-01-01T04:13:11.000Z</time>
      </trkpt>
      <trkpt lat="42.865119" lon="0.557558">
        <ele>1736.2</ele>
        <time>1970-01-01T04:13:12.000Z</time>
      </trkpt>
      <trkpt lat="42.865302" lon="0.55747">
        <ele>1735</ele>
        <time>1970-01-01T04:13:15.000Z</time>
      </trkpt>
      <trkpt lat="42.865443" lon="0.557495">
        <ele>1734</ele>
        <time>1970-01-01T04:13:17.000Z</time>
      </trkpt>
      <trkpt lat="42.86552" lon="0.5575">
        <ele>1732.6</ele>
        <time>1970-01-01T04:13:18.000Z</time>
      </trkpt>
      <trkpt lat="42.865665" lon="0.557475">
        <ele>1730.8</ele>
        <time>1970-01-01T04:13:20.000Z</time>
      </trkpt>
      <trkpt lat="42.865809" lon="0.557488">
        <ele>1729.4</ele>
        <time>1970-01-01T04:13:22.000Z</time>
      </trkpt>
      <trkpt lat="42.865887" lon="0.557509">
        <ele>1728.4</ele>
        <time>1970-01-01T04:13:23.000Z</time>
      </trkpt>
      <trkpt lat="42.865969" lon="0.557534">
        <ele>1727.2</ele>
        <time>1970-01-01T04:13:24.000Z</time>
      </trkpt>
      <trkpt lat="42.866045" lon="0.557566">
        <ele>1726.4</ele>
        <time>1970-01-01T04:13:25.000Z</time>
      </trkpt>
      <trkpt lat="42.866108" lon="0.557609">
        <ele>1726</ele>
        <time>1970-01-01T04:13:26.000Z</time>
      </trkpt>
      <trkpt lat="42.866191" lon="0.557742">
        <ele>1724.4</ele>
        <time>1970-01-01T04:13:28.000Z</time>
      </trkpt>
      <trkpt lat="42.86624" lon="0.557906">
        <ele>1723.2</ele>
        <time>1970-01-01T04:13:30.000Z</time>
      </trkpt>
      <trkpt lat="42.866302" lon="0.558066">
        <ele>1722.4</ele>
        <time>1970-01-01T04:13:32.000Z</time>
      </trkpt>
      <trkpt lat="42.86637" lon="0.558212">
        <ele>1722.2</ele>
        <time>1970-01-01T04:13:34.000Z</time>
      </trkpt>
      <trkpt lat="42.866577" lon="0.558391">
        <ele>1722.6</ele>
        <time>1970-01-01T04:13:38.000Z</time>
      </trkpt>
      <trkpt lat="42.866748" lon="0.558502">
        <ele>1722.2</ele>
        <time>1970-01-01T04:13:41.000Z</time>
      </trkpt>
      <trkpt lat="42.866803" lon="0.558554">
        <ele>1722</ele>
        <time>1970-01-01T04:13:42.000Z</time>
      </trkpt>
      <trkpt lat="42.866907" lon="0.558663">
        <ele>1721.6</ele>
        <time>1970-01-01T04:13:44.000Z</time>
      </trkpt>
      <trkpt lat="42.867142" lon="0.559339">
        <ele>1722.8</ele>
        <time>1970-01-01T04:13:54.000Z</time>
      </trkpt>
      <trkpt lat="42.867184" lon="0.559577">
        <ele>1722.8</ele>
        <time>1970-01-01T04:13:58.000Z</time>
      </trkpt>
      <trkpt lat="42.867174" lon="0.559855">
        <ele>1724</ele>
        <time>1970-01-01T04:14:04.000Z</time>
      </trkpt>
      <trkpt lat="42.866963" lon="0.559999">
        <ele>1723.6</ele>
        <time>1970-01-01T04:14:10.000Z</time>
      </trkpt>
      <trkpt lat="42.866852" lon="0.560179">
        <ele>1723.2</ele>
        <time>1970-01-01T04:14:14.000Z</time>
      </trkpt>
      <trkpt lat="42.866825" lon="0.560231">
        <ele>1722.8</ele>
        <time>1970-01-01T04:14:15.000Z</time>
      </trkpt>
      <trkpt lat="42.866795" lon="0.560283">
        <ele>1722.8</ele>
        <time>1970-01-01T04:14:16.000Z</time>
      </trkpt>
      <trkpt lat="42.866675" lon="0.560461">
        <ele>1721.8</ele>
        <time>1970-01-01T04:14:21.000Z</time>
      </trkpt>
      <trkpt lat="42.86655" lon="0.560599">
        <ele>1720.8</ele>
        <time>1970-01-01T04:14:27.000Z</time>
      </trkpt>
      <trkpt lat="42.866414" lon="0.560768">
        <ele>1719.6</ele>
        <time>1970-01-01T04:14:31.000Z</time>
      </trkpt>
      <trkpt lat="42.866333" lon="0.560886">
        <ele>1719</ele>
        <time>1970-01-01T04:14:33.000Z</time>
      </trkpt>
      <trkpt lat="42.866304" lon="0.560963">
        <ele>1718.6</ele>
        <time>1970-01-01T04:14:34.000Z</time>
      </trkpt>
      <trkpt lat="42.866255" lon="0.561335">
        <ele>1717.2</ele>
        <time>1970-01-01T04:14:38.000Z</time>
      </trkpt>
      <trkpt lat="42.866157" lon="0.561872">
        <ele>1716.2</ele>
        <time>1970-01-01T04:14:44.000Z</time>
      </trkpt>
      <trkpt lat="42.86608" lon="0.562018">
        <ele>1715.6</ele>
        <time>1970-01-01T04:14:46.000Z</time>
      </trkpt>
      <trkpt lat="42.866043" lon="0.562095">
        <ele>1715.4</ele>
        <time>1970-01-01T04:14:47.000Z</time>
      </trkpt>
      <trkpt lat="42.865978" lon="0.562258">
        <ele>1714.8</ele>
        <time>1970-01-01T04:14:49.000Z</time>
      </trkpt>
      <trkpt lat="42.865932" lon="0.562432">
        <ele>1714</ele>
        <time>1970-01-01T04:14:51.000Z</time>
      </trkpt>
      <trkpt lat="42.865926" lon="0.562525">
        <ele>1713.8</ele>
        <time>1970-01-01T04:14:52.000Z</time>
      </trkpt>
      <trkpt lat="42.865993" lon="0.562778">
        <ele>1712.4</ele>
        <time>1970-01-01T04:14:55.000Z</time>
      </trkpt>
      <trkpt lat="42.866026" lon="0.56295">
        <ele>1712.2</ele>
        <time>1970-01-01T04:14:57.000Z</time>
      </trkpt>
      <trkpt lat="42.866036" lon="0.563038">
        <ele>1712</ele>
        <time>1970-01-01T04:14:58.000Z</time>
      </trkpt>
      <trkpt lat="42.865976" lon="0.563419">
        <ele>1711.4</ele>
        <time>1970-01-01T04:15:03.000Z</time>
      </trkpt>
      <trkpt lat="42.866041" lon="0.56371">
        <ele>1710.2</ele>
        <time>1970-01-01T04:15:07.000Z</time>
      </trkpt>
      <trkpt lat="42.866211" lon="0.563846">
        <ele>1708.8</ele>
        <time>1970-01-01T04:15:10.000Z</time>
      </trkpt>
      <trkpt lat="42.866474" lon="0.563817">
        <ele>1707.8</ele>
        <time>1970-01-01T04:15:14.000Z</time>
      </trkpt>
      <trkpt lat="42.866653" lon="0.563869">
        <ele>1706.8</ele>
        <time>1970-01-01T04:15:17.000Z</time>
      </trkpt>
      <trkpt lat="42.866717" lon="0.563883">
        <ele>1706.4</ele>
        <time>1970-01-01T04:15:18.000Z</time>
      </trkpt>
      <trkpt lat="42.86678" lon="0.563902">
        <ele>1705.8</ele>
        <time>1970-01-01T04:15:19.000Z</time>
      </trkpt>
      <trkpt lat="42.866844" lon="0.563937">
        <ele>1705.2</ele>
        <time>1970-01-01T04:15:20.000Z</time>
      </trkpt>
      <trkpt lat="42.867007" lon="0.564197">
        <ele>1704.2</ele>
        <time>1970-01-01T04:15:24.000Z</time>
      </trkpt>
      <trkpt lat="42.867439" lon="0.564431">
        <ele>1703.8</ele>
        <time>1970-01-01T04:15:34.000Z</time>
      </trkpt>
      <trkpt lat="42.867503" lon="0.564414">
        <ele>1703.4</ele>
        <time>1970-01-01T04:15:35.000Z</time>
      </trkpt>
      <trkpt lat="42.86757" lon="0.56442">
        <ele>1702.8</ele>
        <time>1970-01-01T04:15:36.000Z</time>
      </trkpt>
      <trkpt lat="42.867714" lon="0.564463">
        <ele>1701.4</ele>
        <time>1970-01-01T04:15:38.000Z</time>
      </trkpt>
      <trkpt lat="42.867938" lon="0.56444">
        <ele>1700.4</ele>
        <time>1970-01-01T04:15:41.000Z</time>
      </trkpt>
      <trkpt lat="42.868247" lon="0.564558">
        <ele>1700.4</ele>
        <time>1970-01-01T04:15:47.000Z</time>
      </trkpt>
      <trkpt lat="42.868507" lon="0.564681">
        <ele>1701</ele>
        <time>1970-01-01T04:15:54.000Z</time>
      </trkpt>
      <trkpt lat="42.868725" lon="0.564825">
        <ele>1700.4</ele>
        <time>1970-01-01T04:15:59.000Z</time>
      </trkpt>
      <trkpt lat="42.869075" lon="0.565182">
        <ele>1699.6</ele>
        <time>1970-01-01T04:16:08.000Z</time>
      </trkpt>
      <trkpt lat="42.869223" lon="0.565378">
        <ele>1699.4</ele>
        <time>1970-01-01T04:16:12.000Z</time>
      </trkpt>
      <trkpt lat="42.869267" lon="0.565433">
        <ele>1699.2</ele>
        <time>1970-01-01T04:16:13.000Z</time>
      </trkpt>
      <trkpt lat="42.869423" lon="0.565574">
        <ele>1698.6</ele>
        <time>1970-01-01T04:16:16.000Z</time>
      </trkpt>
      <trkpt lat="42.869485" lon="0.565603">
        <ele>1698.4</ele>
        <time>1970-01-01T04:16:17.000Z</time>
      </trkpt>
      <trkpt lat="42.869614" lon="0.565659">
        <ele>1697.6</ele>
        <time>1970-01-01T04:16:19.000Z</time>
      </trkpt>
      <trkpt lat="42.869685" lon="0.565697">
        <ele>1697</ele>
        <time>1970-01-01T04:16:20.000Z</time>
      </trkpt>
      <trkpt lat="42.869842" lon="0.565784">
        <ele>1695.6</ele>
        <time>1970-01-01T04:16:22.000Z</time>
      </trkpt>
      <trkpt lat="42.87009" lon="0.565925">
        <ele>1694.4</ele>
        <time>1970-01-01T04:16:25.000Z</time>
      </trkpt>
      <trkpt lat="42.870318" lon="0.566036">
        <ele>1693.2</ele>
        <time>1970-01-01T04:16:28.000Z</time>
      </trkpt>
      <trkpt lat="42.870595" lon="0.566162">
        <ele>1692.2</ele>
        <time>1970-01-01T04:16:32.000Z</time>
      </trkpt>
      <trkpt lat="42.870662" lon="0.566186">
        <ele>1691.8</ele>
        <time>1970-01-01T04:16:33.000Z</time>
      </trkpt>
      <trkpt lat="42.870941" lon="0.566252">
        <ele>1690.8</ele>
        <time>1970-01-01T04:16:37.000Z</time>
      </trkpt>
      <trkpt lat="42.871018" lon="0.566259">
        <ele>1690.4</ele>
        <time>1970-01-01T04:16:38.000Z</time>
      </trkpt>
      <trkpt lat="42.871167" lon="0.566262">
        <ele>1689.8</ele>
        <time>1970-01-01T04:16:40.000Z</time>
      </trkpt>
      <trkpt lat="42.871242" lon="0.566251">
        <ele>1689.4</ele>
        <time>1970-01-01T04:16:41.000Z</time>
      </trkpt>
      <trkpt lat="42.871486" lon="0.566222">
        <ele>1687.8</ele>
        <time>1970-01-01T04:16:44.000Z</time>
      </trkpt>
      <trkpt lat="42.871565" lon="0.56622">
        <ele>1687</ele>
        <time>1970-01-01T04:16:45.000Z</time>
      </trkpt>
      <trkpt lat="42.871639" lon="0.566228">
        <ele>1686.2</ele>
        <time>1970-01-01T04:16:46.000Z</time>
      </trkpt>
      <trkpt lat="42.871788" lon="0.566273">
        <ele>1684.4</ele>
        <time>1970-01-01T04:16:48.000Z</time>
      </trkpt>
      <trkpt lat="42.871933" lon="0.566319">
        <ele>1682.4</ele>
        <time>1970-01-01T04:16:50.000Z</time>
      </trkpt>
      <trkpt lat="42.872084" lon="0.566378">
        <ele>1680.8</ele>
        <time>1970-01-01T04:16:52.000Z</time>
      </trkpt>
      <trkpt lat="42.87223" lon="0.566438">
        <ele>1679.2</ele>
        <time>1970-01-01T04:16:54.000Z</time>
      </trkpt>
      <trkpt lat="42.872332" lon="0.566493">
        <ele>1677.4</ele>
        <time>1970-01-01T04:16:56.000Z</time>
      </trkpt>
      <trkpt lat="42.872391" lon="0.566558">
        <ele>1676</ele>
        <time>1970-01-01T04:16:58.000Z</time>
      </trkpt>
      <trkpt lat="42.872445" lon="0.566645">
        <ele>1675</ele>
        <time>1970-01-01T04:17:00.000Z</time>
      </trkpt>
      <trkpt lat="42.872461" lon="0.566705">
        <ele>1674.8</ele>
        <time>1970-01-01T04:17:01.000Z</time>
      </trkpt>
      <trkpt lat="42.872387" lon="0.566998">
        <ele>1673.6</ele>
        <time>1970-01-01T04:17:05.000Z</time>
      </trkpt>
      <trkpt lat="42.872352" lon="0.567183">
        <ele>1672.6</ele>
        <time>1970-01-01T04:17:07.000Z</time>
      </trkpt>
      <trkpt lat="42.872344" lon="0.567288">
        <ele>1672.2</ele>
        <time>1970-01-01T04:17:08.000Z</time>
      </trkpt>
      <trkpt lat="42.87235" lon="0.567513">
        <ele>1671.2</ele>
        <time>1970-01-01T04:17:10.000Z</time>
      </trkpt>
      <trkpt lat="42.872343" lon="0.567709">
        <ele>1670</ele>
        <time>1970-01-01T04:17:12.000Z</time>
      </trkpt>
      <trkpt lat="42.87229" lon="0.567881">
        <ele>1669</ele>
        <time>1970-01-01T04:17:14.000Z</time>
      </trkpt>
      <trkpt lat="42.872147" lon="0.56813">
        <ele>1668</ele>
        <time>1970-01-01T04:17:18.000Z</time>
      </trkpt>
      <trkpt lat="42.872131" lon="0.568154">
        <ele>1667.6</ele>
        <time>1970-01-01T04:17:19.000Z</time>
      </trkpt>
      <trkpt lat="42.872128" lon="0.568158">
        <ele>1667.4</ele>
        <time>1970-01-01T04:17:21.000Z</time>
      </trkpt>
      <trkpt lat="42.872108" lon="0.56819">
        <ele>1667.4</ele>
        <time>1970-01-01T04:18:37.000Z</time>
      </trkpt>
      <trkpt lat="42.872002" lon="0.568335">
        <ele>1667</ele>
        <time>1970-01-01T04:18:42.000Z</time>
      </trkpt>
      <trkpt lat="42.871902" lon="0.56836">
        <ele>1666.4</ele>
        <time>1970-01-01T04:18:44.000Z</time>
      </trkpt>
      <trkpt lat="42.871706" lon="0.568387">
        <ele>1665.4</ele>
        <time>1970-01-01T04:18:47.000Z</time>
      </trkpt>
      <trkpt lat="42.871574" lon="0.568479">
        <ele>1664.6</ele>
        <time>1970-01-01T04:18:49.000Z</time>
      </trkpt>
      <trkpt lat="42.871507" lon="0.568535">
        <ele>1664</ele>
        <time>1970-01-01T04:18:50.000Z</time>
      </trkpt>
      <trkpt lat="42.871379" lon="0.568663">
        <ele>1662.6</ele>
        <time>1970-01-01T04:18:52.000Z</time>
      </trkpt>
      <trkpt lat="42.871285" lon="0.568851">
        <ele>1661</ele>
        <time>1970-01-01T04:18:54.000Z</time>
      </trkpt>
      <trkpt lat="42.871229" lon="0.569079">
        <ele>1659.4</ele>
        <time>1970-01-01T04:18:56.000Z</time>
      </trkpt>
      <trkpt lat="42.871206" lon="0.569185">
        <ele>1658.4</ele>
        <time>1970-01-01T04:18:57.000Z</time>
      </trkpt>
      <trkpt lat="42.87118" lon="0.569266">
        <ele>1657.4</ele>
        <time>1970-01-01T04:18:58.000Z</time>
      </trkpt>
      <trkpt lat="42.871147" lon="0.569324">
        <ele>1656.4</ele>
        <time>1970-01-01T04:18:59.000Z</time>
      </trkpt>
      <trkpt lat="42.871012" lon="0.569425">
        <ele>1655.4</ele>
        <time>1970-01-01T04:19:02.000Z</time>
      </trkpt>
      <trkpt lat="42.870816" lon="0.569629">
        <ele>1654</ele>
        <time>1970-01-01T04:19:06.000Z</time>
      </trkpt>
      <trkpt lat="42.870768" lon="0.569838">
        <ele>1652.8</ele>
        <time>1970-01-01T04:19:08.000Z</time>
      </trkpt>
      <trkpt lat="42.870755" lon="0.569954">
        <ele>1651.6</ele>
        <time>1970-01-01T04:19:09.000Z</time>
      </trkpt>
      <trkpt lat="42.870719" lon="0.570187">
        <ele>1650.2</ele>
        <time>1970-01-01T04:19:11.000Z</time>
      </trkpt>
      <trkpt lat="42.870661" lon="0.570391">
        <ele>1649</ele>
        <time>1970-01-01T04:19:13.000Z</time>
      </trkpt>
      <trkpt lat="42.870586" lon="0.570572">
        <ele>1648</ele>
        <time>1970-01-01T04:19:15.000Z</time>
      </trkpt>
      <trkpt lat="42.870539" lon="0.570779">
        <ele>1646.8</ele>
        <time>1970-01-01T04:19:17.000Z</time>
      </trkpt>
      <trkpt lat="42.870509" lon="0.571135">
        <ele>1645</ele>
        <time>1970-01-01T04:19:20.000Z</time>
      </trkpt>
      <trkpt lat="42.87051" lon="0.571268">
        <ele>1643.8</ele>
        <time>1970-01-01T04:19:21.000Z</time>
      </trkpt>
      <trkpt lat="42.870524" lon="0.571402">
        <ele>1642.8</ele>
        <time>1970-01-01T04:19:22.000Z</time>
      </trkpt>
      <trkpt lat="42.87055" lon="0.57153">
        <ele>1642.4</ele>
        <time>1970-01-01T04:19:23.000Z</time>
      </trkpt>
      <trkpt lat="42.870621" lon="0.571774">
        <ele>1641.2</ele>
        <time>1970-01-01T04:19:25.000Z</time>
      </trkpt>
      <trkpt lat="42.870742" lon="0.571973">
        <ele>1639.6</ele>
        <time>1970-01-01T04:19:27.000Z</time>
      </trkpt>
      <trkpt lat="42.870817" lon="0.57205">
        <ele>1638.4</ele>
        <time>1970-01-01T04:19:28.000Z</time>
      </trkpt>
      <trkpt lat="42.870891" lon="0.572109">
        <ele>1637.6</ele>
        <time>1970-01-01T04:19:29.000Z</time>
      </trkpt>
      <trkpt lat="42.870957" lon="0.572164">
        <ele>1636.6</ele>
        <time>1970-01-01T04:19:30.000Z</time>
      </trkpt>
      <trkpt lat="42.871089" lon="0.572273">
        <ele>1635.2</ele>
        <time>1970-01-01T04:19:32.000Z</time>
      </trkpt>
      <trkpt lat="42.871161" lon="0.572319">
        <ele>1634</ele>
        <time>1970-01-01T04:19:33.000Z</time>
      </trkpt>
      <trkpt lat="42.87132" lon="0.572372">
        <ele>1632.2</ele>
        <time>1970-01-01T04:19:35.000Z</time>
      </trkpt>
      <trkpt lat="42.871483" lon="0.57237">
        <ele>1631.2</ele>
        <time>1970-01-01T04:19:37.000Z</time>
      </trkpt>
      <trkpt lat="42.871559" lon="0.57235">
        <ele>1630.6</ele>
        <time>1970-01-01T04:19:38.000Z</time>
      </trkpt>
      <trkpt lat="42.871628" lon="0.572332">
        <ele>1629.6</ele>
        <time>1970-01-01T04:19:39.000Z</time>
      </trkpt>
      <trkpt lat="42.871686" lon="0.572319">
        <ele>1628.4</ele>
        <time>1970-01-01T04:19:40.000Z</time>
      </trkpt>
      <trkpt lat="42.871734" lon="0.572311">
        <ele>1627.4</ele>
        <time>1970-01-01T04:19:41.000Z</time>
      </trkpt>
      <trkpt lat="42.871808" lon="0.572299">
        <ele>1625.6</ele>
        <time>1970-01-01T04:19:43.000Z</time>
      </trkpt>
      <trkpt lat="42.871844" lon="0.572297">
        <ele>1624.4</ele>
        <time>1970-01-01T04:19:45.000Z</time>
      </trkpt>
      <trkpt lat="42.871999" lon="0.572318">
        <ele>1623.4</ele>
        <time>1970-01-01T04:19:49.000Z</time>
      </trkpt>
      <trkpt lat="42.872184" lon="0.572346">
        <ele>1622.4</ele>
        <time>1970-01-01T04:19:52.000Z</time>
      </trkpt>
      <trkpt lat="42.87225" lon="0.572367">
        <ele>1622.2</ele>
        <time>1970-01-01T04:19:53.000Z</time>
      </trkpt>
      <trkpt lat="42.872503" lon="0.572471">
        <ele>1621.2</ele>
        <time>1970-01-01T04:19:57.000Z</time>
      </trkpt>
      <trkpt lat="42.872704" lon="0.572571">
        <ele>1620</ele>
        <time>1970-01-01T04:20:00.000Z</time>
      </trkpt>
      <trkpt lat="42.872777" lon="0.572608">
        <ele>1619.6</ele>
        <time>1970-01-01T04:20:01.000Z</time>
      </trkpt>
      <trkpt lat="42.872943" lon="0.572684">
        <ele>1618.6</ele>
        <time>1970-01-01T04:20:03.000Z</time>
      </trkpt>
      <trkpt lat="42.873025" lon="0.572729">
        <ele>1617.8</ele>
        <time>1970-01-01T04:20:04.000Z</time>
      </trkpt>
      <trkpt lat="42.873107" lon="0.572773">
        <ele>1617</ele>
        <time>1970-01-01T04:20:05.000Z</time>
      </trkpt>
      <trkpt lat="42.873284" lon="0.572808">
        <ele>1615.4</ele>
        <time>1970-01-01T04:20:07.000Z</time>
      </trkpt>
      <trkpt lat="42.873466" lon="0.572839">
        <ele>1613.4</ele>
        <time>1970-01-01T04:20:09.000Z</time>
      </trkpt>
      <trkpt lat="42.873561" lon="0.572846">
        <ele>1612.2</ele>
        <time>1970-01-01T04:20:10.000Z</time>
      </trkpt>
      <trkpt lat="42.87366" lon="0.57285">
        <ele>1610.6</ele>
        <time>1970-01-01T04:20:11.000Z</time>
      </trkpt>
      <trkpt lat="42.873862" lon="0.572862">
        <ele>1609.2</ele>
        <time>1970-01-01T04:20:13.000Z</time>
      </trkpt>
      <trkpt lat="42.874071" lon="0.572869">
        <ele>1607.6</ele>
        <time>1970-01-01T04:20:15.000Z</time>
      </trkpt>
      <trkpt lat="42.874273" lon="0.572853">
        <ele>1606</ele>
        <time>1970-01-01T04:20:17.000Z</time>
      </trkpt>
      <trkpt lat="42.874368" lon="0.572831">
        <ele>1605</ele>
        <time>1970-01-01T04:20:18.000Z</time>
      </trkpt>
      <trkpt lat="42.874465" lon="0.572798">
        <ele>1603.8</ele>
        <time>1970-01-01T04:20:19.000Z</time>
      </trkpt>
      <trkpt lat="42.874564" lon="0.572755">
        <ele>1602.2</ele>
        <time>1970-01-01T04:20:20.000Z</time>
      </trkpt>
      <trkpt lat="42.87466" lon="0.572706">
        <ele>1601.2</ele>
        <time>1970-01-01T04:20:21.000Z</time>
      </trkpt>
      <trkpt lat="42.874834" lon="0.572596">
        <ele>1599.4</ele>
        <time>1970-01-01T04:20:23.000Z</time>
      </trkpt>
      <trkpt lat="42.874985" lon="0.572511">
        <ele>1597.6</ele>
        <time>1970-01-01T04:20:25.000Z</time>
      </trkpt>
      <trkpt lat="42.875048" lon="0.572486">
        <ele>1596.6</ele>
        <time>1970-01-01T04:20:26.000Z</time>
      </trkpt>
      <trkpt lat="42.875165" lon="0.572456">
        <ele>1594.2</ele>
        <time>1970-01-01T04:20:28.000Z</time>
      </trkpt>
      <trkpt lat="42.875216" lon="0.572447">
        <ele>1593</ele>
        <time>1970-01-01T04:20:29.000Z</time>
      </trkpt>
      <trkpt lat="42.875306" lon="0.572443">
        <ele>1591.2</ele>
        <time>1970-01-01T04:20:31.000Z</time>
      </trkpt>
      <trkpt lat="42.875359" lon="0.572451">
        <ele>1589.8</ele>
        <time>1970-01-01T04:20:33.000Z</time>
      </trkpt>
      <trkpt lat="42.875391" lon="0.572447">
        <ele>1588.8</ele>
        <time>1970-01-01T04:20:37.000Z</time>
      </trkpt>
      <trkpt lat="42.875424" lon="0.572456">
        <ele>1588.2</ele>
        <time>1970-01-01T04:20:43.000Z</time>
      </trkpt>
      <trkpt lat="42.87548" lon="0.572485">
        <ele>1587.8</ele>
        <time>1970-01-01T04:20:45.000Z</time>
      </trkpt>
      <trkpt lat="42.875533" lon="0.572528">
        <ele>1587.2</ele>
        <time>1970-01-01T04:20:47.000Z</time>
      </trkpt>
      <trkpt lat="42.875536" lon="0.5727">
        <ele>1587.2</ele>
        <time>1970-01-01T04:20:53.000Z</time>
      </trkpt>
      <trkpt lat="42.87551" lon="0.572917">
        <ele>1586.8</ele>
        <time>1970-01-01T04:21:01.000Z</time>
      </trkpt>
      <trkpt lat="42.875504" lon="0.572944">
        <ele>1586.4</ele>
        <time>1970-01-01T04:21:04.000Z</time>
      </trkpt>
      <trkpt lat="42.875502" lon="0.572992">
        <ele>1586.2</ele>
        <time>1970-01-01T04:22:32.000Z</time>
      </trkpt>
      <trkpt lat="42.875495" lon="0.573078">
        <ele>1586</ele>
        <time>1970-01-01T04:22:37.000Z</time>
      </trkpt>
      <trkpt lat="42.875865" lon="0.573133">
        <ele>1567.4</ele>
        <time>1970-01-01T04:23:59.000Z</time>
      </trkpt>
      <trkpt lat="42.875883" lon="0.573095">
        <ele>1566</ele>
        <time>1970-01-01T04:24:01.000Z</time>
      </trkpt>
      <trkpt lat="42.8759" lon="0.573068">
        <ele>1565</ele>
        <time>1970-01-01T04:24:03.000Z</time>
      </trkpt>
      <trkpt lat="42.875906" lon="0.573035">
        <ele>1563.8</ele>
        <time>1970-01-01T04:24:06.000Z</time>
      </trkpt>
      <trkpt lat="42.875906" lon="0.573032">
        <ele>1563.4</ele>
        <time>1970-01-01T04:24:07.000Z</time>
      </trkpt>
      <trkpt lat="42.876005" lon="0.572983">
        <ele>1559</ele>
        <time>1970-01-01T04:24:22.000Z</time>
      </trkpt>
      <trkpt lat="42.876038" lon="0.572983">
        <ele>1557.8</ele>
        <time>1970-01-01T04:24:24.000Z</time>
      </trkpt>
      <trkpt lat="42.876056" lon="0.57298">
        <ele>1556.8</ele>
        <time>1970-01-01T04:24:25.000Z</time>
      </trkpt>
      <trkpt lat="42.876085" lon="0.572978">
        <ele>1555.8</ele>
        <time>1970-01-01T04:24:27.000Z</time>
      </trkpt>
      <trkpt lat="42.876101" lon="0.572962">
        <ele>1554.6</ele>
        <time>1970-01-01T04:24:30.000Z</time>
      </trkpt>
      <trkpt lat="42.876101" lon="0.572957">
        <ele>1554.6</ele>
        <time>1970-01-01T04:24:31.000Z</time>
      </trkpt>
      <trkpt lat="42.876927" lon="0.572773">
        <ele>1517.2</ele>
        <time>1970-01-01T04:26:06.000Z</time>
      </trkpt>
      <trkpt lat="42.876908" lon="0.572758">
        <ele>1516.6</ele>
        <time>1970-01-01T04:26:07.000Z</time>
      </trkpt>
      <trkpt lat="42.876917" lon="0.572751">
        <ele>1515.8</ele>
        <time>1970-01-01T04:26:08.000Z</time>
      </trkpt>
      <trkpt lat="42.876941" lon="0.572751">
        <ele>1514.6</ele>
        <time>1970-01-01T04:26:10.000Z</time>
      </trkpt>
      <trkpt lat="42.876952" lon="0.57275">
        <ele>1514</ele>
        <time>1970-01-01T04:26:11.000Z</time>
      </trkpt>
      <trkpt lat="42.876964" lon="0.572752">
        <ele>1513.4</ele>
        <time>1970-01-01T04:26:12.000Z</time>
      </trkpt>
      <trkpt lat="42.876976" lon="0.572756">
        <ele>1513</ele>
        <time>1970-01-01T04:26:13.000Z</time>
      </trkpt>
      <trkpt lat="42.877" lon="0.572754">
        <ele>1512.2</ele>
        <time>1970-01-01T04:26:15.000Z</time>
      </trkpt>
      <trkpt lat="42.877023" lon="0.572758">
        <ele>1511</ele>
        <time>1970-01-01T04:26:17.000Z</time>
      </trkpt>
      <trkpt lat="42.877049" lon="0.572759">
        <ele>1510</ele>
        <time>1970-01-01T04:26:19.000Z</time>
      </trkpt>
      <trkpt lat="42.877077" lon="0.572756">
        <ele>1508.6</ele>
        <time>1970-01-01T04:26:21.000Z</time>
      </trkpt>
      <trkpt lat="42.877101" lon="0.572753">
        <ele>1507.6</ele>
        <time>1970-01-01T04:26:23.000Z</time>
      </trkpt>
      <trkpt lat="42.877147" lon="0.572748">
        <ele>1505.8</ele>
        <time>1970-01-01T04:26:26.000Z</time>
      </trkpt>
      <trkpt lat="42.87716" lon="0.572743">
        <ele>1504.8</ele>
        <time>1970-01-01T04:26:27.000Z</time>
      </trkpt>
      <trkpt lat="42.877182" lon="0.572734">
        <ele>1503.6</ele>
        <time>1970-01-01T04:26:29.000Z</time>
      </trkpt>
      <trkpt lat="42.877208" lon="0.572712">
        <ele>1502.4</ele>
        <time>1970-01-01T04:26:32.000Z</time>
      </trkpt>
      <trkpt lat="42.877233" lon="0.572701">
        <ele>1501</ele>
        <time>1970-01-01T04:26:36.000Z</time>
      </trkpt>
      <trkpt lat="42.877235" lon="0.572686">
        <ele>1500.8</ele>
        <time>1970-01-01T04:26:38.000Z</time>
      </trkpt>
      <trkpt lat="42.877234" lon="0.572642">
        <ele>1500.6</ele>
        <time>1970-01-01T04:26:43.000Z</time>
      </trkpt>
      <trkpt lat="42.877257" lon="0.572601">
        <ele>1500</ele>
        <time>1970-01-01T04:27:56.000Z</time>
      </trkpt>
      <trkpt lat="42.877289" lon="0.572488">
        <ele>1498.2</ele>
        <time>1970-01-01T04:27:59.000Z</time>
      </trkpt>
      <trkpt lat="42.877307" lon="0.572401">
        <ele>1496.8</ele>
        <time>1970-01-01T04:28:01.000Z</time>
      </trkpt>
      <trkpt lat="42.877309" lon="0.572305">
        <ele>1495.6</ele>
        <time>1970-01-01T04:28:03.000Z</time>
      </trkpt>
      <trkpt lat="42.877308" lon="0.572214">
        <ele>1494</ele>
        <time>1970-01-01T04:28:05.000Z</time>
      </trkpt>
      <trkpt lat="42.87732" lon="0.57211">
        <ele>1492.6</ele>
        <time>1970-01-01T04:28:07.000Z</time>
      </trkpt>
      <trkpt lat="42.877334" lon="0.571979">
        <ele>1491.6</ele>
        <time>1970-01-01T04:28:09.000Z</time>
      </trkpt>
      <trkpt lat="42.877337" lon="0.571912">
        <ele>1491</ele>
        <time>1970-01-01T04:28:10.000Z</time>
      </trkpt>
      <trkpt lat="42.877336" lon="0.571852">
        <ele>1490.2</ele>
        <time>1970-01-01T04:28:11.000Z</time>
      </trkpt>
      <trkpt lat="42.877338" lon="0.571801">
        <ele>1489.2</ele>
        <time>1970-01-01T04:28:12.000Z</time>
      </trkpt>
      <trkpt lat="42.877339" lon="0.571755">
        <ele>1488.2</ele>
        <time>1970-01-01T04:28:13.000Z</time>
      </trkpt>
      <trkpt lat="42.877343" lon="0.571685">
        <ele>1487</ele>
        <time>1970-01-01T04:28:15.000Z</time>
      </trkpt>
      <trkpt lat="42.877338" lon="0.571629">
        <ele>1485.6</ele>
        <time>1970-01-01T04:28:17.000Z</time>
      </trkpt>
      <trkpt lat="42.877328" lon="0.571536">
        <ele>1484.6</ele>
        <time>1970-01-01T04:28:19.000Z</time>
      </trkpt>
      <trkpt lat="42.877316" lon="0.571446">
        <ele>1483.4</ele>
        <time>1970-01-01T04:28:21.000Z</time>
      </trkpt>
      <trkpt lat="42.877293" lon="0.571348">
        <ele>1482.2</ele>
        <time>1970-01-01T04:28:23.000Z</time>
      </trkpt>
      <trkpt lat="42.877259" lon="0.571259">
        <ele>1480.8</ele>
        <time>1970-01-01T04:28:25.000Z</time>
      </trkpt>
      <trkpt lat="42.87723" lon="0.571159">
        <ele>1479.4</ele>
        <time>1970-01-01T04:28:27.000Z</time>
      </trkpt>
      <trkpt lat="42.877196" lon="0.571031">
        <ele>1477.6</ele>
        <time>1970-01-01T04:28:29.000Z</time>
      </trkpt>
      <trkpt lat="42.877172" lon="0.570973">
        <ele>1476.4</ele>
        <time>1970-01-01T04:28:30.000Z</time>
      </trkpt>
      <trkpt lat="42.877146" lon="0.57092">
        <ele>1475.2</ele>
        <time>1970-01-01T04:28:31.000Z</time>
      </trkpt>
      <trkpt lat="42.877104" lon="0.570834">
        <ele>1473.8</ele>
        <time>1970-01-01T04:28:33.000Z</time>
      </trkpt>
      <trkpt lat="42.877067" lon="0.570793">
        <ele>1472.4</ele>
        <time>1970-01-01T04:28:35.000Z</time>
      </trkpt>
      <trkpt lat="42.877032" lon="0.570772">
        <ele>1471.4</ele>
        <time>1970-01-01T04:28:38.000Z</time>
      </trkpt>
      <trkpt lat="42.876981" lon="0.570655">
        <ele>1469.4</ele>
        <time>1970-01-01T04:28:44.000Z</time>
      </trkpt>
      <trkpt lat="42.876928" lon="0.570583">
        <ele>1467.8</ele>
        <time>1970-01-01T04:28:47.000Z</time>
      </trkpt>
      <trkpt lat="42.876907" lon="0.570548">
        <ele>1467.2</ele>
        <time>1970-01-01T04:28:48.000Z</time>
      </trkpt>
      <trkpt lat="42.876865" lon="0.570479">
        <ele>1466.4</ele>
        <time>1970-01-01T04:28:50.000Z</time>
      </trkpt>
      <trkpt lat="42.876823" lon="0.570411">
        <ele>1465</ele>
        <time>1970-01-01T04:28:52.000Z</time>
      </trkpt>
      <trkpt lat="42.876787" lon="0.570357">
        <ele>1463.6</ele>
        <time>1970-01-01T04:28:54.000Z</time>
      </trkpt>
      <trkpt lat="42.876758" lon="0.570297">
        <ele>1462.4</ele>
        <time>1970-01-01T04:28:56.000Z</time>
      </trkpt>
      <trkpt lat="42.876732" lon="0.570245">
        <ele>1461.4</ele>
        <time>1970-01-01T04:28:58.000Z</time>
      </trkpt>
      <trkpt lat="42.876701" lon="0.570194">
        <ele>1460.2</ele>
        <time>1970-01-01T04:29:01.000Z</time>
      </trkpt>
      <trkpt lat="42.876666" lon="0.570129">
        <ele>1459</ele>
        <time>1970-01-01T04:29:03.000Z</time>
      </trkpt>
      <trkpt lat="42.876617" lon="0.570086">
        <ele>1457</ele>
        <time>1970-01-01T04:29:05.000Z</time>
      </trkpt>
      <trkpt lat="42.876573" lon="0.570037">
        <ele>1455.4</ele>
        <time>1970-01-01T04:29:07.000Z</time>
      </trkpt>
      <trkpt lat="42.87653" lon="0.569971">
        <ele>1454.2</ele>
        <time>1970-01-01T04:29:09.000Z</time>
      </trkpt>
      <trkpt lat="42.876485" lon="0.569894">
        <ele>1452.8</ele>
        <time>1970-01-01T04:29:11.000Z</time>
      </trkpt>
      <trkpt lat="42.87642" lon="0.569817">
        <ele>1452</ele>
        <time>1970-01-01T04:29:13.000Z</time>
      </trkpt>
      <trkpt lat="42.876373" lon="0.569768">
        <ele>1451.4</ele>
        <time>1970-01-01T04:29:14.000Z</time>
      </trkpt>
      <trkpt lat="42.876277" lon="0.569675">
        <ele>1450.2</ele>
        <time>1970-01-01T04:29:16.000Z</time>
      </trkpt>
      <trkpt lat="42.876247" lon="0.569638">
        <ele>1449.2</ele>
        <time>1970-01-01T04:29:17.000Z</time>
      </trkpt>
      <trkpt lat="42.876215" lon="0.569608">
        <ele>1447.8</ele>
        <time>1970-01-01T04:29:19.000Z</time>
      </trkpt>
      <trkpt lat="42.876201" lon="0.569595">
        <ele>1447.2</ele>
        <time>1970-01-01T04:29:21.000Z</time>
      </trkpt>
      <trkpt lat="42.876125" lon="0.569371">
        <ele>1446.8</ele>
        <time>1970-01-01T04:29:39.000Z</time>
      </trkpt>
      <trkpt lat="42.876509" lon="0.569161">
        <ele>1445.6</ele>
        <time>1970-01-01T04:29:55.000Z</time>
      </trkpt>
      <trkpt lat="42.876541" lon="0.569133">
        <ele>1444.4</ele>
        <time>1970-01-01T04:29:57.000Z</time>
      </trkpt>
      <trkpt lat="42.876585" lon="0.569111">
        <ele>1443.2</ele>
        <time>1970-01-01T04:29:59.000Z</time>
      </trkpt>
      <trkpt lat="42.876625" lon="0.569089">
        <ele>1441.6</ele>
        <time>1970-01-01T04:30:01.000Z</time>
      </trkpt>
      <trkpt lat="42.87666" lon="0.56907">
        <ele>1440.2</ele>
        <time>1970-01-01T04:30:03.000Z</time>
      </trkpt>
      <trkpt lat="42.876707" lon="0.569033">
        <ele>1438.4</ele>
        <time>1970-01-01T04:30:05.000Z</time>
      </trkpt>
      <trkpt lat="42.876751" lon="0.568991">
        <ele>1436.4</ele>
        <time>1970-01-01T04:30:07.000Z</time>
      </trkpt>
      <trkpt lat="42.876787" lon="0.568951">
        <ele>1435.2</ele>
        <time>1970-01-01T04:30:09.000Z</time>
      </trkpt>
      <trkpt lat="42.876826" lon="0.568912">
        <ele>1434</ele>
        <time>1970-01-01T04:30:11.000Z</time>
      </trkpt>
      <trkpt lat="42.87688" lon="0.568861">
        <ele>1432.4</ele>
        <time>1970-01-01T04:30:13.000Z</time>
      </trkpt>
      <trkpt lat="42.876929" lon="0.568817">
        <ele>1430.8</ele>
        <time>1970-01-01T04:30:15.000Z</time>
      </trkpt>
      <trkpt lat="42.876969" lon="0.568764">
        <ele>1429.2</ele>
        <time>1970-01-01T04:30:17.000Z</time>
      </trkpt>
      <trkpt lat="42.877018" lon="0.568728">
        <ele>1427.8</ele>
        <time>1970-01-01T04:30:19.000Z</time>
      </trkpt>
      <trkpt lat="42.877078" lon="0.56868">
        <ele>1426</ele>
        <time>1970-01-01T04:30:21.000Z</time>
      </trkpt>
      <trkpt lat="42.877129" lon="0.568662">
        <ele>1424.8</ele>
        <time>1970-01-01T04:30:23.000Z</time>
      </trkpt>
      <trkpt lat="42.877151" lon="0.568676">
        <ele>1423.2</ele>
        <time>1970-01-01T04:30:24.000Z</time>
      </trkpt>
      <trkpt lat="42.877179" lon="0.568739">
        <ele>1421.6</ele>
        <time>1970-01-01T04:30:26.000Z</time>
      </trkpt>
      <trkpt lat="42.877211" lon="0.568802">
        <ele>1420.4</ele>
        <time>1970-01-01T04:30:28.000Z</time>
      </trkpt>
      <trkpt lat="42.877265" lon="0.568821">
        <ele>1419.2</ele>
        <time>1970-01-01T04:30:30.000Z</time>
      </trkpt>
      <trkpt lat="42.877329" lon="0.568774">
        <ele>1418.2</ele>
        <time>1970-01-01T04:30:32.000Z</time>
      </trkpt>
      <trkpt lat="42.877375" lon="0.568685">
        <ele>1416.6</ele>
        <time>1970-01-01T04:30:34.000Z</time>
      </trkpt>
      <trkpt lat="42.877395" lon="0.568634">
        <ele>1415.4</ele>
        <time>1970-01-01T04:30:35.000Z</time>
      </trkpt>
      <trkpt lat="42.877443" lon="0.568564">
        <ele>1413.4</ele>
        <time>1970-01-01T04:30:37.000Z</time>
      </trkpt>
      <trkpt lat="42.877483" lon="0.568555">
        <ele>1412.6</ele>
        <time>1970-01-01T04:30:38.000Z</time>
      </trkpt>
      <trkpt lat="42.877524" lon="0.568557">
        <ele>1411.4</ele>
        <time>1970-01-01T04:30:39.000Z</time>
      </trkpt>
      <trkpt lat="42.877559" lon="0.568569">
        <ele>1410.4</ele>
        <time>1970-01-01T04:30:40.000Z</time>
      </trkpt>
      <trkpt lat="42.877609" lon="0.56862">
        <ele>1408.2</ele>
        <time>1970-01-01T04:30:42.000Z</time>
      </trkpt>
      <trkpt lat="42.877648" lon="0.568714">
        <ele>1406.4</ele>
        <time>1970-01-01T04:30:44.000Z</time>
      </trkpt>
      <trkpt lat="42.877656" lon="0.568771">
        <ele>1405.4</ele>
        <time>1970-01-01T04:30:45.000Z</time>
      </trkpt>
      <trkpt lat="42.877659" lon="0.568823">
        <ele>1404.2</ele>
        <time>1970-01-01T04:30:46.000Z</time>
      </trkpt>
      <trkpt lat="42.877663" lon="0.568863">
        <ele>1403.2</ele>
        <time>1970-01-01T04:30:47.000Z</time>
      </trkpt>
      <trkpt lat="42.877656" lon="0.56892">
        <ele>1401.6</ele>
        <time>1970-01-01T04:30:49.000Z</time>
      </trkpt>
      <trkpt lat="42.877661" lon="0.568966">
        <ele>1400.2</ele>
        <time>1970-01-01T04:30:51.000Z</time>
      </trkpt>
      <trkpt lat="42.877677" lon="0.568986">
        <ele>1398.6</ele>
        <time>1970-01-01T04:30:53.000Z</time>
      </trkpt>
      <trkpt lat="42.877703" lon="0.569003">
        <ele>1397.4</ele>
        <time>1970-01-01T04:30:55.000Z</time>
      </trkpt>
      <trkpt lat="42.877727" lon="0.569002">
        <ele>1396.2</ele>
        <time>1970-01-01T04:30:57.000Z</time>
      </trkpt>
      <trkpt lat="42.877749" lon="0.568992">
        <ele>1395.2</ele>
        <time>1970-01-01T04:30:59.000Z</time>
      </trkpt>
      <trkpt lat="42.877786" lon="0.568974">
        <ele>1393.8</ele>
        <time>1970-01-01T04:31:02.000Z</time>
      </trkpt>
      <trkpt lat="42.87781" lon="0.568943">
        <ele>1392.6</ele>
        <time>1970-01-01T04:31:04.000Z</time>
      </trkpt>
      <trkpt lat="42.87784" lon="0.56891">
        <ele>1391.4</ele>
        <time>1970-01-01T04:31:07.000Z</time>
      </trkpt>
      <trkpt lat="42.877867" lon="0.568888">
        <ele>1390.6</ele>
        <time>1970-01-01T04:31:09.000Z</time>
      </trkpt>
      <trkpt lat="42.877877" lon="0.568869">
        <ele>1390</ele>
        <time>1970-01-01T04:31:10.000Z</time>
      </trkpt>
      <trkpt lat="42.8779" lon="0.56883">
        <ele>1389</ele>
        <time>1970-01-01T04:31:12.000Z</time>
      </trkpt>
      <trkpt lat="42.877929" lon="0.568787">
        <ele>1387.8</ele>
        <time>1970-01-01T04:31:15.000Z</time>
      </trkpt>
      <trkpt lat="42.87795" lon="0.56875">
        <ele>1386.6</ele>
        <time>1970-01-01T04:31:18.000Z</time>
      </trkpt>
      <trkpt lat="42.877963" lon="0.568728">
        <ele>1385.4</ele>
        <time>1970-01-01T04:31:21.000Z</time>
      </trkpt>
      <trkpt lat="42.878025" lon="0.568604">
        <ele>1382.4</ele>
        <time>1970-01-01T04:31:30.000Z</time>
      </trkpt>
      <trkpt lat="42.87805" lon="0.568565">
        <ele>1381.4</ele>
        <time>1970-01-01T04:31:32.000Z</time>
      </trkpt>
      <trkpt lat="42.878058" lon="0.568538">
        <ele>1380.8</ele>
        <time>1970-01-01T04:31:33.000Z</time>
      </trkpt>
      <trkpt lat="42.878064" lon="0.568506">
        <ele>1380.4</ele>
        <time>1970-01-01T04:31:34.000Z</time>
      </trkpt>
      <trkpt lat="42.878086" lon="0.568388">
        <ele>1378.8</ele>
        <time>1970-01-01T04:31:37.000Z</time>
      </trkpt>
      <trkpt lat="42.878121" lon="0.568303">
        <ele>1377.4</ele>
        <time>1970-01-01T04:31:39.000Z</time>
      </trkpt>
      <trkpt lat="42.878141" lon="0.568216">
        <ele>1376</ele>
        <time>1970-01-01T04:31:42.000Z</time>
      </trkpt>
      <trkpt lat="42.87814" lon="0.568212">
        <ele>1375.2</ele>
        <time>1970-01-01T04:31:45.000Z</time>
      </trkpt>
      <trkpt lat="42.878172" lon="0.568165">
        <ele>1374.6</ele>
        <time>1970-01-01T04:32:35.000Z</time>
      </trkpt>
      <trkpt lat="42.87826" lon="0.568017">
        <ele>1373.2</ele>
        <time>1970-01-01T04:32:39.000Z</time>
      </trkpt>
      <trkpt lat="42.878316" lon="0.567942">
        <ele>1372</ele>
        <time>1970-01-01T04:32:41.000Z</time>
      </trkpt>
      <trkpt lat="42.878375" lon="0.567849">
        <ele>1370.4</ele>
        <time>1970-01-01T04:32:43.000Z</time>
      </trkpt>
      <trkpt lat="42.878435" lon="0.567736">
        <ele>1368.6</ele>
        <time>1970-01-01T04:32:45.000Z</time>
      </trkpt>
      <trkpt lat="42.878493" lon="0.56762">
        <ele>1367</ele>
        <time>1970-01-01T04:32:47.000Z</time>
      </trkpt>
      <trkpt lat="42.878545" lon="0.567502">
        <ele>1365.4</ele>
        <time>1970-01-01T04:32:49.000Z</time>
      </trkpt>
      <trkpt lat="42.8786" lon="0.56734">
        <ele>1363.8</ele>
        <time>1970-01-01T04:32:52.000Z</time>
      </trkpt>
      <trkpt lat="42.878629" lon="0.56723">
        <ele>1362.4</ele>
        <time>1970-01-01T04:32:54.000Z</time>
      </trkpt>
      <trkpt lat="42.878667" lon="0.567125">
        <ele>1361</ele>
        <time>1970-01-01T04:32:56.000Z</time>
      </trkpt>
      <trkpt lat="42.878696" lon="0.567013">
        <ele>1359.8</ele>
        <time>1970-01-01T04:32:58.000Z</time>
      </trkpt>
      <trkpt lat="42.878745" lon="0.56687">
        <ele>1358.8</ele>
        <time>1970-01-01T04:33:01.000Z</time>
      </trkpt>
      <trkpt lat="42.878876" lon="0.566715">
        <ele>1357.6</ele>
        <time>1970-01-01T04:33:06.000Z</time>
      </trkpt>
      <trkpt lat="42.879088" lon="0.56654">
        <ele>1356.4</ele>
        <time>1970-01-01T04:33:12.000Z</time>
      </trkpt>
      <trkpt lat="42.879103" lon="0.566501">
        <ele>1356</ele>
        <time>1970-01-01T04:33:13.000Z</time>
      </trkpt>
      <trkpt lat="42.879128" lon="0.566417">
        <ele>1355.4</ele>
        <time>1970-01-01T04:33:15.000Z</time>
      </trkpt>
      <trkpt lat="42.87911" lon="0.566239">
        <ele>1353.8</ele>
        <time>1970-01-01T04:33:18.000Z</time>
      </trkpt>
      <trkpt lat="42.879097" lon="0.566166">
        <ele>1352.6</ele>
        <time>1970-01-01T04:33:19.000Z</time>
      </trkpt>
      <trkpt lat="42.87908" lon="0.566084">
        <ele>1351.4</ele>
        <time>1970-01-01T04:33:20.000Z</time>
      </trkpt>
      <trkpt lat="42.879036" lon="0.565905">
        <ele>1349.8</ele>
        <time>1970-01-01T04:33:22.000Z</time>
      </trkpt>
      <trkpt lat="42.879011" lon="0.565814">
        <ele>1348.2</ele>
        <time>1970-01-01T04:33:23.000Z</time>
      </trkpt>
      <trkpt lat="42.878983" lon="0.565739">
        <ele>1346.8</ele>
        <time>1970-01-01T04:33:24.000Z</time>
      </trkpt>
      <trkpt lat="42.878953" lon="0.565683">
        <ele>1345.6</ele>
        <time>1970-01-01T04:33:25.000Z</time>
      </trkpt>
      <trkpt lat="42.878907" lon="0.565579">
        <ele>1343.8</ele>
        <time>1970-01-01T04:33:27.000Z</time>
      </trkpt>
      <trkpt lat="42.878823" lon="0.565387">
        <ele>1342.2</ele>
        <time>1970-01-01T04:33:30.000Z</time>
      </trkpt>
      <trkpt lat="42.878785" lon="0.565254">
        <ele>1340.6</ele>
        <time>1970-01-01T04:33:32.000Z</time>
      </trkpt>
      <trkpt lat="42.878768" lon="0.565129">
        <ele>1338.6</ele>
        <time>1970-01-01T04:33:34.000Z</time>
      </trkpt>
      <trkpt lat="42.878764" lon="0.56507">
        <ele>1337.6</ele>
        <time>1970-01-01T04:33:35.000Z</time>
      </trkpt>
      <trkpt lat="42.878762" lon="0.565015">
        <ele>1336.2</ele>
        <time>1970-01-01T04:33:36.000Z</time>
      </trkpt>
      <trkpt lat="42.878758" lon="0.564962">
        <ele>1334.8</ele>
        <time>1970-01-01T04:33:37.000Z</time>
      </trkpt>
      <trkpt lat="42.878754" lon="0.564909">
        <ele>1333.8</ele>
        <time>1970-01-01T04:33:38.000Z</time>
      </trkpt>
      <trkpt lat="42.878742" lon="0.564791">
        <ele>1331.6</ele>
        <time>1970-01-01T04:33:40.000Z</time>
      </trkpt>
      <trkpt lat="42.878723" lon="0.56467">
        <ele>1329.6</ele>
        <time>1970-01-01T04:33:42.000Z</time>
      </trkpt>
      <trkpt lat="42.878713" lon="0.564558">
        <ele>1327.8</ele>
        <time>1970-01-01T04:33:44.000Z</time>
      </trkpt>
      <trkpt lat="42.878698" lon="0.564452">
        <ele>1325.8</ele>
        <time>1970-01-01T04:33:46.000Z</time>
      </trkpt>
      <trkpt lat="42.878688" lon="0.564385">
        <ele>1324.2</ele>
        <time>1970-01-01T04:33:48.000Z</time>
      </trkpt>
      <trkpt lat="42.878666" lon="0.564273">
        <ele>1322.8</ele>
        <time>1970-01-01T04:33:51.000Z</time>
      </trkpt>
      <trkpt lat="42.87865" lon="0.564174">
        <ele>1321.6</ele>
        <time>1970-01-01T04:33:53.000Z</time>
      </trkpt>
      <trkpt lat="42.878645" lon="0.564054">
        <ele>1319.8</ele>
        <time>1970-01-01T04:33:55.000Z</time>
      </trkpt>
      <trkpt lat="42.878628" lon="0.563945">
        <ele>1318.2</ele>
        <time>1970-01-01T04:33:57.000Z</time>
      </trkpt>
      <trkpt lat="42.878591" lon="0.56385">
        <ele>1316.8</ele>
        <time>1970-01-01T04:33:59.000Z</time>
      </trkpt>
      <trkpt lat="42.878568" lon="0.56375">
        <ele>1315.8</ele>
        <time>1970-01-01T04:34:01.000Z</time>
      </trkpt>
      <trkpt lat="42.878574" lon="0.56368">
        <ele>1314.6</ele>
        <time>1970-01-01T04:34:03.000Z</time>
      </trkpt>
      <trkpt lat="42.878594" lon="0.563586">
        <ele>1313</ele>
        <time>1970-01-01T04:34:06.000Z</time>
      </trkpt>
      <trkpt lat="42.878579" lon="0.5635">
        <ele>1311.6</ele>
        <time>1970-01-01T04:34:09.000Z</time>
      </trkpt>
      <trkpt lat="42.878558" lon="0.563436">
        <ele>1310.2</ele>
        <time>1970-01-01T04:34:12.000Z</time>
      </trkpt>
      <trkpt lat="42.878536" lon="0.563371">
        <ele>1309</ele>
        <time>1970-01-01T04:34:15.000Z</time>
      </trkpt>
      <trkpt lat="42.878496" lon="0.563268">
        <ele>1308</ele>
        <time>1970-01-01T04:34:18.000Z</time>
      </trkpt>
      <trkpt lat="42.878463" lon="0.563158">
        <ele>1306.8</ele>
        <time>1970-01-01T04:34:21.000Z</time>
      </trkpt>
      <trkpt lat="42.878413" lon="0.563066">
        <ele>1305.4</ele>
        <time>1970-01-01T04:34:24.000Z</time>
      </trkpt>
      <trkpt lat="42.878407" lon="0.563039">
        <ele>1305</ele>
        <time>1970-01-01T04:34:25.000Z</time>
      </trkpt>
      <trkpt lat="42.878413" lon="0.563016">
        <ele>1304.2</ele>
        <time>1970-01-01T04:34:26.000Z</time>
      </trkpt>
      <trkpt lat="42.878442" lon="0.563007">
        <ele>1303.2</ele>
        <time>1970-01-01T04:34:28.000Z</time>
      </trkpt>
      <trkpt lat="42.878456" lon="0.563011">
        <ele>1302.8</ele>
        <time>1970-01-01T04:34:29.000Z</time>
      </trkpt>
      <trkpt lat="42.878499" lon="0.56304">
        <ele>1302.2</ele>
        <time>1970-01-01T04:34:32.000Z</time>
      </trkpt>
      <trkpt lat="42.878524" lon="0.563048">
        <ele>1301.4</ele>
        <time>1970-01-01T04:34:36.000Z</time>
      </trkpt>
      <trkpt lat="42.878579" lon="0.563098">
        <ele>1300.2</ele>
        <time>1970-01-01T04:34:49.000Z</time>
      </trkpt>
      <trkpt lat="42.878689" lon="0.56322">
        <ele>1299</ele>
        <time>1970-01-01T04:34:52.000Z</time>
      </trkpt>
      <trkpt lat="42.878778" lon="0.563328">
        <ele>1298</ele>
        <time>1970-01-01T04:34:54.000Z</time>
      </trkpt>
      <trkpt lat="42.878857" lon="0.563422">
        <ele>1296.6</ele>
        <time>1970-01-01T04:34:56.000Z</time>
      </trkpt>
      <trkpt lat="42.878887" lon="0.563478">
        <ele>1295.6</ele>
        <time>1970-01-01T04:34:57.000Z</time>
      </trkpt>
      <trkpt lat="42.878925" lon="0.563584">
        <ele>1294</ele>
        <time>1970-01-01T04:34:59.000Z</time>
      </trkpt>
      <trkpt lat="42.878955" lon="0.563663">
        <ele>1293</ele>
        <time>1970-01-01T04:35:01.000Z</time>
      </trkpt>
      <trkpt lat="42.878997" lon="0.563767">
        <ele>1291.8</ele>
        <time>1970-01-01T04:35:04.000Z</time>
      </trkpt>
      <trkpt lat="42.879011" lon="0.56381">
        <ele>1290.6</ele>
        <time>1970-01-01T04:35:06.000Z</time>
      </trkpt>
      <trkpt lat="42.879018" lon="0.563816">
        <ele>1290.2</ele>
        <time>1970-01-01T04:35:08.000Z</time>
      </trkpt>
      <trkpt lat="42.8791" lon="0.563934">
        <ele>1288.4</ele>
        <time>1970-01-01T04:35:21.000Z</time>
      </trkpt>
      <trkpt lat="42.879133" lon="0.563996">
        <ele>1287.6</ele>
        <time>1970-01-01T04:35:23.000Z</time>
      </trkpt>
      <trkpt lat="42.87915" lon="0.564032">
        <ele>1287.4</ele>
        <time>1970-01-01T04:35:24.000Z</time>
      </trkpt>
      <trkpt lat="42.879216" lon="0.564167">
        <ele>1286.4</ele>
        <time>1970-01-01T04:35:27.000Z</time>
      </trkpt>
      <trkpt lat="42.879241" lon="0.564216">
        <ele>1285.8</ele>
        <time>1970-01-01T04:35:28.000Z</time>
      </trkpt>
      <trkpt lat="42.879264" lon="0.56426">
        <ele>1285</ele>
        <time>1970-01-01T04:35:29.000Z</time>
      </trkpt>
      <trkpt lat="42.879315" lon="0.564364">
        <ele>1283.4</ele>
        <time>1970-01-01T04:35:32.000Z</time>
      </trkpt>
      <trkpt lat="42.879348" lon="0.564424">
        <ele>1282.2</ele>
        <time>1970-01-01T04:35:34.000Z</time>
      </trkpt>
      <trkpt lat="42.87939" lon="0.564513">
        <ele>1281</ele>
        <time>1970-01-01T04:35:36.000Z</time>
      </trkpt>
      <trkpt lat="42.879449" lon="0.564611">
        <ele>1279.6</ele>
        <time>1970-01-01T04:35:38.000Z</time>
      </trkpt>
      <trkpt lat="42.879527" lon="0.56472">
        <ele>1278</ele>
        <time>1970-01-01T04:35:40.000Z</time>
      </trkpt>
      <trkpt lat="42.879583" lon="0.564836">
        <ele>1276.4</ele>
        <time>1970-01-01T04:35:42.000Z</time>
      </trkpt>
      <trkpt lat="42.879616" lon="0.564906">
        <ele>1275</ele>
        <time>1970-01-01T04:35:45.000Z</time>
      </trkpt>
      <trkpt lat="42.879622" lon="0.564916">
        <ele>1274.8</ele>
        <time>1970-01-01T04:35:46.000Z</time>
      </trkpt>
      <trkpt lat="42.879676" lon="0.565031">
        <ele>1274.6</ele>
        <time>1970-01-01T04:35:55.000Z</time>
      </trkpt>
      <trkpt lat="42.879769" lon="0.565202">
        <ele>1274</ele>
        <time>1970-01-01T04:36:01.000Z</time>
      </trkpt>
      <trkpt lat="42.879837" lon="0.565279">
        <ele>1273</ele>
        <time>1970-01-01T04:36:08.000Z</time>
      </trkpt>
      <trkpt lat="42.879915" lon="0.565398">
        <ele>1272.4</ele>
        <time>1970-01-01T04:36:31.000Z</time>
      </trkpt>
      <trkpt lat="42.879973" lon="0.565497">
        <ele>1272</ele>
        <time>1970-01-01T04:36:35.000Z</time>
      </trkpt>
      <trkpt lat="42.880104" lon="0.565709">
        <ele>1271</ele>
        <time>1970-01-01T04:36:40.000Z</time>
      </trkpt>
      <trkpt lat="42.880142" lon="0.565763">
        <ele>1270.6</ele>
        <time>1970-01-01T04:36:41.000Z</time>
      </trkpt>
      <trkpt lat="42.880181" lon="0.565822">
        <ele>1269.8</ele>
        <time>1970-01-01T04:36:42.000Z</time>
      </trkpt>
      <trkpt lat="42.880218" lon="0.565889">
        <ele>1268.6</ele>
        <time>1970-01-01T04:36:43.000Z</time>
      </trkpt>
      <trkpt lat="42.880273" lon="0.565992">
        <ele>1267.4</ele>
        <time>1970-01-01T04:36:45.000Z</time>
      </trkpt>
      <trkpt lat="42.880297" lon="0.56606">
        <ele>1267</ele>
        <time>1970-01-01T04:36:47.000Z</time>
      </trkpt>
      <trkpt lat="42.880281" lon="0.566171">
        <ele>1266.8</ele>
        <time>1970-01-01T04:36:53.000Z</time>
      </trkpt>
      <trkpt lat="42.880264" lon="0.566214">
        <ele>1266.6</ele>
        <time>1970-01-01T04:37:09.000Z</time>
      </trkpt>
      <trkpt lat="42.88025" lon="0.566289">
        <ele>1266.2</ele>
        <time>1970-01-01T04:37:11.000Z</time>
      </trkpt>
      <trkpt lat="42.880234" lon="0.566401">
        <ele>1265.4</ele>
        <time>1970-01-01T04:37:13.000Z</time>
      </trkpt>
      <trkpt lat="42.880207" lon="0.566537">
        <ele>1264.2</ele>
        <time>1970-01-01T04:37:15.000Z</time>
      </trkpt>
      <trkpt lat="42.880175" lon="0.566673">
        <ele>1263.2</ele>
        <time>1970-01-01T04:37:17.000Z</time>
      </trkpt>
      <trkpt lat="42.880176" lon="0.566759">
        <ele>1261.8</ele>
        <time>1970-01-01T04:37:19.000Z</time>
      </trkpt>
      <trkpt lat="42.880225" lon="0.566821">
        <ele>1260.8</ele>
        <time>1970-01-01T04:37:24.000Z</time>
      </trkpt>
      <trkpt lat="42.880381" lon="0.566847">
        <ele>1260.4</ele>
        <time>1970-01-01T04:37:31.000Z</time>
      </trkpt>
      <trkpt lat="42.880462" lon="0.566859">
        <ele>1259.6</ele>
        <time>1970-01-01T04:37:35.000Z</time>
      </trkpt>
      <trkpt lat="42.880516" lon="0.566857">
        <ele>1258.6</ele>
        <time>1970-01-01T04:37:39.000Z</time>
      </trkpt>
      <trkpt lat="42.880551" lon="0.566864">
        <ele>1258.4</ele>
        <time>1970-01-01T04:37:49.000Z</time>
      </trkpt>
      <trkpt lat="42.880694" lon="0.566845">
        <ele>1257</ele>
        <time>1970-01-01T04:37:53.000Z</time>
      </trkpt>
      <trkpt lat="42.880764" lon="0.566838">
        <ele>1255.6</ele>
        <time>1970-01-01T04:37:55.000Z</time>
      </trkpt>
      <trkpt lat="42.880858" lon="0.566802">
        <ele>1254.6</ele>
        <time>1970-01-01T04:37:58.000Z</time>
      </trkpt>
      <trkpt lat="42.881173" lon="0.566884">
        <ele>1253.4</ele>
        <time>1970-01-01T04:38:06.000Z</time>
      </trkpt>
      <trkpt lat="42.881335" lon="0.566844">
        <ele>1252</ele>
        <time>1970-01-01T04:38:10.000Z</time>
      </trkpt>
      <trkpt lat="42.881371" lon="0.566837">
        <ele>1251</ele>
        <time>1970-01-01T04:38:11.000Z</time>
      </trkpt>
      <trkpt lat="42.881426" lon="0.566826">
        <ele>1249.8</ele>
        <time>1970-01-01T04:38:13.000Z</time>
      </trkpt>
      <trkpt lat="42.881454" lon="0.566809">
        <ele>1248.8</ele>
        <time>1970-01-01T04:38:15.000Z</time>
      </trkpt>
      <trkpt lat="42.881458" lon="0.566791">
        <ele>1248.6</ele>
        <time>1970-01-01T04:38:16.000Z</time>
      </trkpt>
      <trkpt lat="42.881426" lon="0.566755">
        <ele>1247.8</ele>
        <time>1970-01-01T04:38:19.000Z</time>
      </trkpt>
      <trkpt lat="42.881415" lon="0.566755">
        <ele>1247.6</ele>
        <time>1970-01-01T04:38:21.000Z</time>
      </trkpt>
      <trkpt lat="42.881386" lon="0.566747">
        <ele>1247.2</ele>
        <time>1970-01-01T04:38:38.000Z</time>
      </trkpt>
      <trkpt lat="42.881235" lon="0.566714">
        <ele>1246.4</ele>
        <time>1970-01-01T04:38:42.000Z</time>
      </trkpt>
      <trkpt lat="42.881123" lon="0.566719">
        <ele>1246</ele>
        <time>1970-01-01T04:38:44.000Z</time>
      </trkpt>
      <trkpt lat="42.880936" lon="0.566606">
        <ele>1244.4</ele>
        <time>1970-01-01T04:38:47.000Z</time>
      </trkpt>
      <trkpt lat="42.880786" lon="0.56651">
        <ele>1242.8</ele>
        <time>1970-01-01T04:38:49.000Z</time>
      </trkpt>
      <trkpt lat="42.880653" lon="0.56643">
        <ele>1240.6</ele>
        <time>1970-01-01T04:38:51.000Z</time>
      </trkpt>
      <trkpt lat="42.880617" lon="0.566362">
        <ele>1239.6</ele>
        <time>1970-01-01T04:38:52.000Z</time>
      </trkpt>
      <trkpt lat="42.880608" lon="0.566204">
        <ele>1237.8</ele>
        <time>1970-01-01T04:38:54.000Z</time>
      </trkpt>
      <trkpt lat="42.880642" lon="0.566033">
        <ele>1236.8</ele>
        <time>1970-01-01T04:38:56.000Z</time>
      </trkpt>
      <trkpt lat="42.880662" lon="0.565939">
        <ele>1236.2</ele>
        <time>1970-01-01T04:38:57.000Z</time>
      </trkpt>
      <trkpt lat="42.880706" lon="0.565635">
        <ele>1234.2</ele>
        <time>1970-01-01T04:39:00.000Z</time>
      </trkpt>
      <trkpt lat="42.880666" lon="0.56543">
        <ele>1232.4</ele>
        <time>1970-01-01T04:39:02.000Z</time>
      </trkpt>
      <trkpt lat="42.880628" lon="0.565327">
        <ele>1231.4</ele>
        <time>1970-01-01T04:39:03.000Z</time>
      </trkpt>
      <trkpt lat="42.880577" lon="0.565222">
        <ele>1230.2</ele>
        <time>1970-01-01T04:39:04.000Z</time>
      </trkpt>
      <trkpt lat="42.880523" lon="0.565119">
        <ele>1229.4</ele>
        <time>1970-01-01T04:39:05.000Z</time>
      </trkpt>
      <trkpt lat="42.880466" lon="0.56501">
        <ele>1228</ele>
        <time>1970-01-01T04:39:06.000Z</time>
      </trkpt>
      <trkpt lat="42.880413" lon="0.564898">
        <ele>1227</ele>
        <time>1970-01-01T04:39:07.000Z</time>
      </trkpt>
      <trkpt lat="42.880315" lon="0.564653">
        <ele>1225.2</ele>
        <time>1970-01-01T04:39:09.000Z</time>
      </trkpt>
      <trkpt lat="42.880236" lon="0.5644">
        <ele>1223</ele>
        <time>1970-01-01T04:39:11.000Z</time>
      </trkpt>
      <trkpt lat="42.880194" lon="0.564288">
        <ele>1222</ele>
        <time>1970-01-01T04:39:12.000Z</time>
      </trkpt>
      <trkpt lat="42.880119" lon="0.564073">
        <ele>1220.4</ele>
        <time>1970-01-01T04:39:14.000Z</time>
      </trkpt>
      <trkpt lat="42.880093" lon="0.563965">
        <ele>1219.2</ele>
        <time>1970-01-01T04:39:15.000Z</time>
      </trkpt>
      <trkpt lat="42.880057" lon="0.563737">
        <ele>1217.4</ele>
        <time>1970-01-01T04:39:17.000Z</time>
      </trkpt>
      <trkpt lat="42.880052" lon="0.563619">
        <ele>1216.6</ele>
        <time>1970-01-01T04:39:18.000Z</time>
      </trkpt>
      <trkpt lat="42.880063" lon="0.563496">
        <ele>1216</ele>
        <time>1970-01-01T04:39:19.000Z</time>
      </trkpt>
      <trkpt lat="42.880068" lon="0.563258">
        <ele>1214.6</ele>
        <time>1970-01-01T04:39:21.000Z</time>
      </trkpt>
      <trkpt lat="42.880046" lon="0.563087">
        <ele>1212.6</ele>
        <time>1970-01-01T04:39:23.000Z</time>
      </trkpt>
      <trkpt lat="42.880063" lon="0.563003">
        <ele>1211</ele>
        <time>1970-01-01T04:39:25.000Z</time>
      </trkpt>
      <trkpt lat="42.880072" lon="0.562985">
        <ele>1210.4</ele>
        <time>1970-01-01T04:39:26.000Z</time>
      </trkpt>
      <trkpt lat="42.880066" lon="0.562972">
        <ele>1209.8</ele>
        <time>1970-01-01T04:39:29.000Z</time>
      </trkpt>
      <trkpt lat="42.880065" lon="0.562975">
        <ele>1209.8</ele>
        <time>1970-01-01T04:39:30.000Z</time>
      </trkpt>
      <trkpt lat="42.880098" lon="0.562994">
        <ele>1209.8</ele>
        <time>1970-01-01T04:44:41.000Z</time>
      </trkpt>
      <trkpt lat="42.880273" lon="0.563053">
        <ele>1208.6</ele>
        <time>1970-01-01T04:44:46.000Z</time>
      </trkpt>
      <trkpt lat="42.880322" lon="0.563091">
        <ele>1208</ele>
        <time>1970-01-01T04:44:47.000Z</time>
      </trkpt>
      <trkpt lat="42.880498" lon="0.563201">
        <ele>1207</ele>
        <time>1970-01-01T04:44:50.000Z</time>
      </trkpt>
      <trkpt lat="42.880619" lon="0.563193">
        <ele>1205.4</ele>
        <time>1970-01-01T04:44:52.000Z</time>
      </trkpt>
      <trkpt lat="42.880734" lon="0.563148">
        <ele>1204</ele>
        <time>1970-01-01T04:44:54.000Z</time>
      </trkpt>
      <trkpt lat="42.880868" lon="0.5631">
        <ele>1203</ele>
        <time>1970-01-01T04:44:56.000Z</time>
      </trkpt>
      <trkpt lat="42.880939" lon="0.5631">
        <ele>1202.4</ele>
        <time>1970-01-01T04:44:57.000Z</time>
      </trkpt>
      <trkpt lat="42.881094" lon="0.563075">
        <ele>1201.4</ele>
        <time>1970-01-01T04:44:59.000Z</time>
      </trkpt>
      <trkpt lat="42.881256" lon="0.563047">
        <ele>1199.6</ele>
        <time>1970-01-01T04:45:01.000Z</time>
      </trkpt>
      <trkpt lat="42.881443" lon="0.562999">
        <ele>1198.6</ele>
        <time>1970-01-01T04:45:03.000Z</time>
      </trkpt>
      <trkpt lat="42.881638" lon="0.562906">
        <ele>1196.4</ele>
        <time>1970-01-01T04:45:05.000Z</time>
      </trkpt>
      <trkpt lat="42.881846" lon="0.562845">
        <ele>1194.4</ele>
        <time>1970-01-01T04:45:07.000Z</time>
      </trkpt>
      <trkpt lat="42.882046" lon="0.562796">
        <ele>1192.6</ele>
        <time>1970-01-01T04:45:09.000Z</time>
      </trkpt>
      <trkpt lat="42.882244" lon="0.562739">
        <ele>1190.8</ele>
        <time>1970-01-01T04:45:11.000Z</time>
      </trkpt>
      <trkpt lat="42.88244" lon="0.562631">
        <ele>1188.8</ele>
        <time>1970-01-01T04:45:13.000Z</time>
      </trkpt>
      <trkpt lat="42.882533" lon="0.562572">
        <ele>1187.2</ele>
        <time>1970-01-01T04:45:14.000Z</time>
      </trkpt>
      <trkpt lat="42.882628" lon="0.562542">
        <ele>1186</ele>
        <time>1970-01-01T04:45:15.000Z</time>
      </trkpt>
      <trkpt lat="42.882723" lon="0.562515">
        <ele>1184.8</ele>
        <time>1970-01-01T04:45:16.000Z</time>
      </trkpt>
      <trkpt lat="42.88291" lon="0.56246">
        <ele>1182.6</ele>
        <time>1970-01-01T04:45:18.000Z</time>
      </trkpt>
      <trkpt lat="42.883073" lon="0.562344">
        <ele>1180.8</ele>
        <time>1970-01-01T04:45:20.000Z</time>
      </trkpt>
      <trkpt lat="42.883195" lon="0.562177">
        <ele>1179.4</ele>
        <time>1970-01-01T04:45:22.000Z</time>
      </trkpt>
      <trkpt lat="42.883384" lon="0.56204">
        <ele>1179</ele>
        <time>1970-01-01T04:45:25.000Z</time>
      </trkpt>
      <trkpt lat="42.883487" lon="0.561994">
        <ele>1178.8</ele>
        <time>1970-01-01T04:45:27.000Z</time>
      </trkpt>
      <trkpt lat="42.883578" lon="0.561886">
        <ele>1178.4</ele>
        <time>1970-01-01T04:45:30.000Z</time>
      </trkpt>
      <trkpt lat="42.883584" lon="0.561866">
        <ele>1178</ele>
        <time>1970-01-01T04:45:32.000Z</time>
      </trkpt>
      <trkpt lat="42.883615" lon="0.561826">
        <ele>1177.6</ele>
        <time>1970-01-01T04:45:49.000Z</time>
      </trkpt>
      <trkpt lat="42.883643" lon="0.561733">
        <ele>1177.4</ele>
        <time>1970-01-01T04:45:51.000Z</time>
      </trkpt>
      <trkpt lat="42.883632" lon="0.561439">
        <ele>1176.2</ele>
        <time>1970-01-01T04:45:55.000Z</time>
      </trkpt>
      <trkpt lat="42.883629" lon="0.561352">
        <ele>1175.6</ele>
        <time>1970-01-01T04:45:56.000Z</time>
      </trkpt>
      <trkpt lat="42.883637" lon="0.561264">
        <ele>1174.8</ele>
        <time>1970-01-01T04:45:57.000Z</time>
      </trkpt>
      <trkpt lat="42.88369" lon="0.561084">
        <ele>1173.8</ele>
        <time>1970-01-01T04:45:59.000Z</time>
      </trkpt>
      <trkpt lat="42.883773" lon="0.56091">
        <ele>1172.2</ele>
        <time>1970-01-01T04:46:01.000Z</time>
      </trkpt>
      <trkpt lat="42.883853" lon="0.560736">
        <ele>1171.2</ele>
        <time>1970-01-01T04:46:03.000Z</time>
      </trkpt>
      <trkpt lat="42.883936" lon="0.560542">
        <ele>1169.6</ele>
        <time>1970-01-01T04:46:05.000Z</time>
      </trkpt>
      <trkpt lat="42.88403" lon="0.560338">
        <ele>1168</ele>
        <time>1970-01-01T04:46:07.000Z</time>
      </trkpt>
      <trkpt lat="42.884142" lon="0.560148">
        <ele>1166.2</ele>
        <time>1970-01-01T04:46:09.000Z</time>
      </trkpt>
      <trkpt lat="42.884291" lon="0.560007">
        <ele>1165</ele>
        <time>1970-01-01T04:46:11.000Z</time>
      </trkpt>
      <trkpt lat="42.884404" lon="0.559829">
        <ele>1163</ele>
        <time>1970-01-01T04:46:13.000Z</time>
      </trkpt>
      <trkpt lat="42.884469" lon="0.559604">
        <ele>1160.8</ele>
        <time>1970-01-01T04:46:15.000Z</time>
      </trkpt>
      <trkpt lat="42.884588" lon="0.559416">
        <ele>1159.2</ele>
        <time>1970-01-01T04:46:17.000Z</time>
      </trkpt>
      <trkpt lat="42.884766" lon="0.559304">
        <ele>1158</ele>
        <time>1970-01-01T04:46:19.000Z</time>
      </trkpt>
      <trkpt lat="42.884863" lon="0.559262">
        <ele>1157.4</ele>
        <time>1970-01-01T04:46:20.000Z</time>
      </trkpt>
      <trkpt lat="42.884953" lon="0.559214">
        <ele>1156.2</ele>
        <time>1970-01-01T04:46:21.000Z</time>
      </trkpt>
      <trkpt lat="42.885045" lon="0.559163">
        <ele>1155</ele>
        <time>1970-01-01T04:46:22.000Z</time>
      </trkpt>
      <trkpt lat="42.88514" lon="0.559119">
        <ele>1153.6</ele>
        <time>1970-01-01T04:46:23.000Z</time>
      </trkpt>
      <trkpt lat="42.885346" lon="0.559045">
        <ele>1151.6</ele>
        <time>1970-01-01T04:46:25.000Z</time>
      </trkpt>
      <trkpt lat="42.885447" lon="0.558996">
        <ele>1150.6</ele>
        <time>1970-01-01T04:46:26.000Z</time>
      </trkpt>
      <trkpt lat="42.885626" lon="0.558886">
        <ele>1148.6</ele>
        <time>1970-01-01T04:46:28.000Z</time>
      </trkpt>
      <trkpt lat="42.885695" lon="0.558837">
        <ele>1147.4</ele>
        <time>1970-01-01T04:46:29.000Z</time>
      </trkpt>
      <trkpt lat="42.885744" lon="0.558779">
        <ele>1146.2</ele>
        <time>1970-01-01T04:46:30.000Z</time>
      </trkpt>
      <trkpt lat="42.88578" lon="0.558705">
        <ele>1145</ele>
        <time>1970-01-01T04:46:31.000Z</time>
      </trkpt>
      <trkpt lat="42.885795" lon="0.558622">
        <ele>1144</ele>
        <time>1970-01-01T04:46:32.000Z</time>
      </trkpt>
      <trkpt lat="42.885775" lon="0.55843">
        <ele>1142.4</ele>
        <time>1970-01-01T04:46:34.000Z</time>
      </trkpt>
      <trkpt lat="42.885708" lon="0.558232">
        <ele>1141.4</ele>
        <time>1970-01-01T04:46:36.000Z</time>
      </trkpt>
      <trkpt lat="42.885669" lon="0.558129">
        <ele>1140.8</ele>
        <time>1970-01-01T04:46:37.000Z</time>
      </trkpt>
      <trkpt lat="42.885636" lon="0.558021">
        <ele>1139.6</ele>
        <time>1970-01-01T04:46:38.000Z</time>
      </trkpt>
      <trkpt lat="42.885611" lon="0.557782">
        <ele>1138</ele>
        <time>1970-01-01T04:46:40.000Z</time>
      </trkpt>
      <trkpt lat="42.885584" lon="0.557538">
        <ele>1136</ele>
        <time>1970-01-01T04:46:42.000Z</time>
      </trkpt>
      <trkpt lat="42.885527" lon="0.557329">
        <ele>1134.4</ele>
        <time>1970-01-01T04:46:44.000Z</time>
      </trkpt>
      <trkpt lat="42.885532" lon="0.557125">
        <ele>1132.8</ele>
        <time>1970-01-01T04:46:46.000Z</time>
      </trkpt>
      <trkpt lat="42.885611" lon="0.556954">
        <ele>1131.2</ele>
        <time>1970-01-01T04:46:48.000Z</time>
      </trkpt>
      <trkpt lat="42.885745" lon="0.55687">
        <ele>1129.6</ele>
        <time>1970-01-01T04:46:50.000Z</time>
      </trkpt>
      <trkpt lat="42.88591" lon="0.556848">
        <ele>1128.2</ele>
        <time>1970-01-01T04:46:52.000Z</time>
      </trkpt>
      <trkpt lat="42.886089" lon="0.556794">
        <ele>1126.6</ele>
        <time>1970-01-01T04:46:54.000Z</time>
      </trkpt>
      <trkpt lat="42.886305" lon="0.556778">
        <ele>1125.2</ele>
        <time>1970-01-01T04:46:56.000Z</time>
      </trkpt>
      <trkpt lat="42.886408" lon="0.556774">
        <ele>1123.8</ele>
        <time>1970-01-01T04:46:57.000Z</time>
      </trkpt>
      <trkpt lat="42.886515" lon="0.556763">
        <ele>1122.6</ele>
        <time>1970-01-01T04:46:58.000Z</time>
      </trkpt>
      <trkpt lat="42.886613" lon="0.556731">
        <ele>1121</ele>
        <time>1970-01-01T04:46:59.000Z</time>
      </trkpt>
      <trkpt lat="42.886706" lon="0.556695">
        <ele>1119.2</ele>
        <time>1970-01-01T04:47:00.000Z</time>
      </trkpt>
      <trkpt lat="42.886805" lon="0.556656">
        <ele>1117.4</ele>
        <time>1970-01-01T04:47:01.000Z</time>
      </trkpt>
      <trkpt lat="42.886988" lon="0.556593">
        <ele>1115.4</ele>
        <time>1970-01-01T04:47:03.000Z</time>
      </trkpt>
      <trkpt lat="42.887053" lon="0.556549">
        <ele>1113.8</ele>
        <time>1970-01-01T04:47:04.000Z</time>
      </trkpt>
      <trkpt lat="42.88712" lon="0.556497">
        <ele>1111.8</ele>
        <time>1970-01-01T04:47:05.000Z</time>
      </trkpt>
      <trkpt lat="42.887188" lon="0.556435">
        <ele>1110.2</ele>
        <time>1970-01-01T04:47:06.000Z</time>
      </trkpt>
      <trkpt lat="42.887324" lon="0.556307">
        <ele>1108.4</ele>
        <time>1970-01-01T04:47:08.000Z</time>
      </trkpt>
      <trkpt lat="42.887447" lon="0.556196">
        <ele>1106</ele>
        <time>1970-01-01T04:47:10.000Z</time>
      </trkpt>
      <trkpt lat="42.887502" lon="0.556142">
        <ele>1104.8</ele>
        <time>1970-01-01T04:47:11.000Z</time>
      </trkpt>
      <trkpt lat="42.887554" lon="0.556097">
        <ele>1104</ele>
        <time>1970-01-01T04:47:12.000Z</time>
      </trkpt>
      <trkpt lat="42.887601" lon="0.556054">
        <ele>1103</ele>
        <time>1970-01-01T04:47:13.000Z</time>
      </trkpt>
      <trkpt lat="42.887688" lon="0.555975">
        <ele>1101.4</ele>
        <time>1970-01-01T04:47:15.000Z</time>
      </trkpt>
      <trkpt lat="42.887785" lon="0.555892">
        <ele>1100.2</ele>
        <time>1970-01-01T04:47:17.000Z</time>
      </trkpt>
      <trkpt lat="42.887838" lon="0.555858">
        <ele>1099.6</ele>
        <time>1970-01-01T04:47:18.000Z</time>
      </trkpt>
      <trkpt lat="42.88789" lon="0.555834">
        <ele>1098.8</ele>
        <time>1970-01-01T04:47:19.000Z</time>
      </trkpt>
      <trkpt lat="42.888005" lon="0.555777">
        <ele>1097.4</ele>
        <time>1970-01-01T04:47:21.000Z</time>
      </trkpt>
      <trkpt lat="42.888139" lon="0.555713">
        <ele>1096.2</ele>
        <time>1970-01-01T04:47:23.000Z</time>
      </trkpt>
      <trkpt lat="42.888209" lon="0.555678">
        <ele>1095</ele>
        <time>1970-01-01T04:47:24.000Z</time>
      </trkpt>
      <trkpt lat="42.888359" lon="0.555596">
        <ele>1093.2</ele>
        <time>1970-01-01T04:47:26.000Z</time>
      </trkpt>
      <trkpt lat="42.888441" lon="0.555565">
        <ele>1092.2</ele>
        <time>1970-01-01T04:47:27.000Z</time>
      </trkpt>
      <trkpt lat="42.888523" lon="0.555543">
        <ele>1091.4</ele>
        <time>1970-01-01T04:47:28.000Z</time>
      </trkpt>
      <trkpt lat="42.888695" lon="0.555457">
        <ele>1089.8</ele>
        <time>1970-01-01T04:47:30.000Z</time>
      </trkpt>
      <trkpt lat="42.888778" lon="0.555381">
        <ele>1088.2</ele>
        <time>1970-01-01T04:47:31.000Z</time>
      </trkpt>
      <trkpt lat="42.888855" lon="0.555298">
        <ele>1086.8</ele>
        <time>1970-01-01T04:47:32.000Z</time>
      </trkpt>
      <trkpt lat="42.888991" lon="0.555116">
        <ele>1084.8</ele>
        <time>1970-01-01T04:47:34.000Z</time>
      </trkpt>
      <trkpt lat="42.889051" lon="0.555035">
        <ele>1082.8</ele>
        <time>1970-01-01T04:47:35.000Z</time>
      </trkpt>
      <trkpt lat="42.889111" lon="0.554969">
        <ele>1081</ele>
        <time>1970-01-01T04:47:36.000Z</time>
      </trkpt>
      <trkpt lat="42.889164" lon="0.554896">
        <ele>1079.6</ele>
        <time>1970-01-01T04:47:37.000Z</time>
      </trkpt>
      <trkpt lat="42.889206" lon="0.554721">
        <ele>1077.6</ele>
        <time>1970-01-01T04:47:39.000Z</time>
      </trkpt>
      <trkpt lat="42.889194" lon="0.554634">
        <ele>1076.4</ele>
        <time>1970-01-01T04:47:40.000Z</time>
      </trkpt>
      <trkpt lat="42.88916" lon="0.554551">
        <ele>1075.2</ele>
        <time>1970-01-01T04:47:41.000Z</time>
      </trkpt>
      <trkpt lat="42.889107" lon="0.554365">
        <ele>1074</ele>
        <time>1970-01-01T04:47:43.000Z</time>
      </trkpt>
      <trkpt lat="42.889119" lon="0.554162">
        <ele>1072.8</ele>
        <time>1970-01-01T04:47:45.000Z</time>
      </trkpt>
      <trkpt lat="42.889231" lon="0.553807">
        <ele>1072</ele>
        <time>1970-01-01T04:47:49.000Z</time>
      </trkpt>
      <trkpt lat="42.889267" lon="0.553559">
        <ele>1071.8</ele>
        <time>1970-01-01T04:47:52.000Z</time>
      </trkpt>
      <trkpt lat="42.889271" lon="0.553323">
        <ele>1071</ele>
        <time>1970-01-01T04:47:55.000Z</time>
      </trkpt>
      <trkpt lat="42.889192" lon="0.553121">
        <ele>1069.8</ele>
        <time>1970-01-01T04:47:58.000Z</time>
      </trkpt>
      <trkpt lat="42.889024" lon="0.552974">
        <ele>1068.6</ele>
        <time>1970-01-01T04:48:01.000Z</time>
      </trkpt>
      <trkpt lat="42.888984" lon="0.552912">
        <ele>1068</ele>
        <time>1970-01-01T04:48:02.000Z</time>
      </trkpt>
      <trkpt lat="42.888967" lon="0.552843">
        <ele>1067.6</ele>
        <time>1970-01-01T04:48:03.000Z</time>
      </trkpt>
      <trkpt lat="42.889006" lon="0.55273">
        <ele>1066.2</ele>
        <time>1970-01-01T04:48:05.000Z</time>
      </trkpt>
      <trkpt lat="42.889086" lon="0.55271">
        <ele>1065.2</ele>
        <time>1970-01-01T04:48:07.000Z</time>
      </trkpt>
      <trkpt lat="42.889182" lon="0.552727">
        <ele>1063.8</ele>
        <time>1970-01-01T04:48:10.000Z</time>
      </trkpt>
      <trkpt lat="42.889249" lon="0.552741">
        <ele>1062.8</ele>
        <time>1970-01-01T04:48:12.000Z</time>
      </trkpt>
      <trkpt lat="42.889419" lon="0.552801">
        <ele>1061.4</ele>
        <time>1970-01-01T04:48:15.000Z</time>
      </trkpt>
      <trkpt lat="42.889579" lon="0.552853">
        <ele>1059.8</ele>
        <time>1970-01-01T04:48:17.000Z</time>
      </trkpt>
      <trkpt lat="42.889757" lon="0.552858">
        <ele>1058.4</ele>
        <time>1970-01-01T04:48:19.000Z</time>
      </trkpt>
      <trkpt lat="42.889949" lon="0.55287">
        <ele>1056.6</ele>
        <time>1970-01-01T04:48:21.000Z</time>
      </trkpt>
      <trkpt lat="42.890032" lon="0.552898">
        <ele>1055.2</ele>
        <time>1970-01-01T04:48:22.000Z</time>
      </trkpt>
      <trkpt lat="42.890102" lon="0.552944">
        <ele>1054</ele>
        <time>1970-01-01T04:48:23.000Z</time>
      </trkpt>
      <trkpt lat="42.890154" lon="0.553018">
        <ele>1052.2</ele>
        <time>1970-01-01T04:48:24.000Z</time>
      </trkpt>
      <trkpt lat="42.890186" lon="0.55311">
        <ele>1050.6</ele>
        <time>1970-01-01T04:48:25.000Z</time>
      </trkpt>
      <trkpt lat="42.890205" lon="0.5532">
        <ele>1049.2</ele>
        <time>1970-01-01T04:48:26.000Z</time>
      </trkpt>
      <trkpt lat="42.89023" lon="0.553266">
        <ele>1048.4</ele>
        <time>1970-01-01T04:48:27.000Z</time>
      </trkpt>
      <trkpt lat="42.890289" lon="0.553303">
        <ele>1046.6</ele>
        <time>1970-01-01T04:48:29.000Z</time>
      </trkpt>
      <trkpt lat="42.890343" lon="0.553241">
        <ele>1045.6</ele>
        <time>1970-01-01T04:48:31.000Z</time>
      </trkpt>
      <trkpt lat="42.890336" lon="0.553044">
        <ele>1044.4</ele>
        <time>1970-01-01T04:48:34.000Z</time>
      </trkpt>
      <trkpt lat="42.890283" lon="0.552882">
        <ele>1043.8</ele>
        <time>1970-01-01T04:48:36.000Z</time>
      </trkpt>
      <trkpt lat="42.890212" lon="0.552695">
        <ele>1042.8</ele>
        <time>1970-01-01T04:48:38.000Z</time>
      </trkpt>
      <trkpt lat="42.890134" lon="0.55252">
        <ele>1041</ele>
        <time>1970-01-01T04:48:40.000Z</time>
      </trkpt>
      <trkpt lat="42.89" lon="0.552448">
        <ele>1039.6</ele>
        <time>1970-01-01T04:48:42.000Z</time>
      </trkpt>
      <trkpt lat="42.889847" lon="0.552447">
        <ele>1038.2</ele>
        <time>1970-01-01T04:48:44.000Z</time>
      </trkpt>
      <trkpt lat="42.889764" lon="0.552454">
        <ele>1037.2</ele>
        <time>1970-01-01T04:48:45.000Z</time>
      </trkpt>
      <trkpt lat="42.889671" lon="0.552453">
        <ele>1036.4</ele>
        <time>1970-01-01T04:48:46.000Z</time>
      </trkpt>
      <trkpt lat="42.889491" lon="0.552364">
        <ele>1035</ele>
        <time>1970-01-01T04:48:48.000Z</time>
      </trkpt>
      <trkpt lat="42.889331" lon="0.552224">
        <ele>1033</ele>
        <time>1970-01-01T04:48:50.000Z</time>
      </trkpt>
      <trkpt lat="42.889259" lon="0.552163">
        <ele>1031.4</ele>
        <time>1970-01-01T04:48:51.000Z</time>
      </trkpt>
      <trkpt lat="42.889192" lon="0.552103">
        <ele>1030.4</ele>
        <time>1970-01-01T04:48:52.000Z</time>
      </trkpt>
      <trkpt lat="42.889136" lon="0.552024">
        <ele>1029</ele>
        <time>1970-01-01T04:48:53.000Z</time>
      </trkpt>
      <trkpt lat="42.88908" lon="0.551797">
        <ele>1027.6</ele>
        <time>1970-01-01T04:48:55.000Z</time>
      </trkpt>
      <trkpt lat="42.889037" lon="0.551536">
        <ele>1026.4</ele>
        <time>1970-01-01T04:48:57.000Z</time>
      </trkpt>
      <trkpt lat="42.888992" lon="0.551275">
        <ele>1024.2</ele>
        <time>1970-01-01T04:48:59.000Z</time>
      </trkpt>
      <trkpt lat="42.888978" lon="0.551138">
        <ele>1022.8</ele>
        <time>1970-01-01T04:49:00.000Z</time>
      </trkpt>
      <trkpt lat="42.888958" lon="0.551">
        <ele>1021.6</ele>
        <time>1970-01-01T04:49:01.000Z</time>
      </trkpt>
      <trkpt lat="42.888935" lon="0.550857">
        <ele>1020.2</ele>
        <time>1970-01-01T04:49:02.000Z</time>
      </trkpt>
      <trkpt lat="42.888908" lon="0.550709">
        <ele>1019</ele>
        <time>1970-01-01T04:49:03.000Z</time>
      </trkpt>
      <trkpt lat="42.888869" lon="0.550566">
        <ele>1017.6</ele>
        <time>1970-01-01T04:49:04.000Z</time>
      </trkpt>
      <trkpt lat="42.888795" lon="0.550295">
        <ele>1015.2</ele>
        <time>1970-01-01T04:49:06.000Z</time>
      </trkpt>
      <trkpt lat="42.88877" lon="0.550188">
        <ele>1013.6</ele>
        <time>1970-01-01T04:49:07.000Z</time>
      </trkpt>
      <trkpt lat="42.88876" lon="0.550108">
        <ele>1011.8</ele>
        <time>1970-01-01T04:49:08.000Z</time>
      </trkpt>
      <trkpt lat="42.888767" lon="0.550028">
        <ele>1010.8</ele>
        <time>1970-01-01T04:49:09.000Z</time>
      </trkpt>
      <trkpt lat="42.888797" lon="0.549964">
        <ele>1009.6</ele>
        <time>1970-01-01T04:49:10.000Z</time>
      </trkpt>
      <trkpt lat="42.888936" lon="0.549914">
        <ele>1008.6</ele>
        <time>1970-01-01T04:49:13.000Z</time>
      </trkpt>
      <trkpt lat="42.889006" lon="0.549971">
        <ele>1008.6</ele>
        <time>1970-01-01T04:49:15.000Z</time>
      </trkpt>
      <trkpt lat="42.889077" lon="0.550054">
        <ele>1008.4</ele>
        <time>1970-01-01T04:49:20.000Z</time>
      </trkpt>
      <trkpt lat="42.889057" lon="0.550025">
        <ele>1008.4</ele>
        <time>1970-01-01T04:49:26.000Z</time>
      </trkpt>
      <trkpt lat="42.888867" lon="0.549959">
        <ele>1008</ele>
        <time>1970-01-01T04:49:33.000Z</time>
      </trkpt>
      <trkpt lat="42.88886" lon="0.549986">
        <ele>1008</ele>
        <time>1970-01-01T04:49:36.000Z</time>
      </trkpt>
      <trkpt lat="42.888902" lon="0.549967">
        <ele>1007.8</ele>
        <time>1970-01-01T04:49:49.000Z</time>
      </trkpt>
      <trkpt lat="42.889007" lon="0.549989">
        <ele>1007.8</ele>
        <time>1970-01-01T04:49:52.000Z</time>
      </trkpt>
      <trkpt lat="42.889078" lon="0.55005">
        <ele>1008.2</ele>
        <time>1970-01-01T04:49:55.000Z</time>
      </trkpt>
      <trkpt lat="42.88934" lon="0.550429">
        <ele>1008.6</ele>
        <time>1970-01-01T04:50:09.000Z</time>
      </trkpt>
      <trkpt lat="42.889457" lon="0.550604">
        <ele>1008.8</ele>
        <time>1970-01-01T04:50:13.000Z</time>
      </trkpt>
      <trkpt lat="42.889608" lon="0.550848">
        <ele>1008.8</ele>
        <time>1970-01-01T04:50:18.000Z</time>
      </trkpt>
      <trkpt lat="42.889886" lon="0.551234">
        <ele>1008.4</ele>
        <time>1970-01-01T04:50:27.000Z</time>
      </trkpt>
      <trkpt lat="42.889997" lon="0.551208">
        <ele>1008</ele>
        <time>1970-01-01T04:50:29.000Z</time>
      </trkpt>
      <trkpt lat="42.890054" lon="0.551186">
        <ele>1008</ele>
        <time>1970-01-01T04:50:30.000Z</time>
      </trkpt>
      <trkpt lat="42.890249" lon="0.551123">
        <ele>1007</ele>
        <time>1970-01-01T04:50:33.000Z</time>
      </trkpt>
      <trkpt lat="42.890328" lon="0.551121">
        <ele>1006.6</ele>
        <time>1970-01-01T04:50:34.000Z</time>
      </trkpt>
      <trkpt lat="42.89047" lon="0.551193">
        <ele>1005</ele>
        <time>1970-01-01T04:50:36.000Z</time>
      </trkpt>
      <trkpt lat="42.890608" lon="0.551336">
        <ele>1004.4</ele>
        <time>1970-01-01T04:50:38.000Z</time>
      </trkpt>
      <trkpt lat="42.890682" lon="0.55141">
        <ele>1003.8</ele>
        <time>1970-01-01T04:50:39.000Z</time>
      </trkpt>
      <trkpt lat="42.890753" lon="0.551499">
        <ele>1003</ele>
        <time>1970-01-01T04:50:40.000Z</time>
      </trkpt>
      <trkpt lat="42.890817" lon="0.551601">
        <ele>1002.2</ele>
        <time>1970-01-01T04:50:41.000Z</time>
      </trkpt>
      <trkpt lat="42.890945" lon="0.551837">
        <ele>1000.8</ele>
        <time>1970-01-01T04:50:43.000Z</time>
      </trkpt>
      <trkpt lat="42.89102" lon="0.551939">
        <ele>1000</ele>
        <time>1970-01-01T04:50:44.000Z</time>
      </trkpt>
      <trkpt lat="42.891097" lon="0.55204">
        <ele>999</ele>
        <time>1970-01-01T04:50:45.000Z</time>
      </trkpt>
      <trkpt lat="42.891239" lon="0.552234">
        <ele>997</ele>
        <time>1970-01-01T04:50:47.000Z</time>
      </trkpt>
      <trkpt lat="42.891397" lon="0.55241">
        <ele>995</ele>
        <time>1970-01-01T04:50:49.000Z</time>
      </trkpt>
      <trkpt lat="42.891558" lon="0.55259">
        <ele>993.8</ele>
        <time>1970-01-01T04:50:51.000Z</time>
      </trkpt>
      <trkpt lat="42.891627" lon="0.552706">
        <ele>992.2</ele>
        <time>1970-01-01T04:50:52.000Z</time>
      </trkpt>
      <trkpt lat="42.891746" lon="0.552962">
        <ele>990.6</ele>
        <time>1970-01-01T04:50:54.000Z</time>
      </trkpt>
      <trkpt lat="42.891807" lon="0.553087">
        <ele>989.6</ele>
        <time>1970-01-01T04:50:55.000Z</time>
      </trkpt>
      <trkpt lat="42.891931" lon="0.553345">
        <ele>987.8</ele>
        <time>1970-01-01T04:50:57.000Z</time>
      </trkpt>
      <trkpt lat="42.891977" lon="0.553485">
        <ele>986.6</ele>
        <time>1970-01-01T04:50:58.000Z</time>
      </trkpt>
      <trkpt lat="42.892013" lon="0.553629">
        <ele>985.4</ele>
        <time>1970-01-01T04:50:59.000Z</time>
      </trkpt>
      <trkpt lat="42.892036" lon="0.553766">
        <ele>983.8</ele>
        <time>1970-01-01T04:51:00.000Z</time>
      </trkpt>
      <trkpt lat="42.892054" lon="0.553891">
        <ele>982</ele>
        <time>1970-01-01T04:51:01.000Z</time>
      </trkpt>
      <trkpt lat="42.892108" lon="0.554124">
        <ele>980.6</ele>
        <time>1970-01-01T04:51:03.000Z</time>
      </trkpt>
      <trkpt lat="42.892163" lon="0.554347">
        <ele>978.2</ele>
        <time>1970-01-01T04:51:05.000Z</time>
      </trkpt>
      <trkpt lat="42.892186" lon="0.554456">
        <ele>977.2</ele>
        <time>1970-01-01T04:51:06.000Z</time>
      </trkpt>
      <trkpt lat="42.892199" lon="0.554548">
        <ele>976</ele>
        <time>1970-01-01T04:51:07.000Z</time>
      </trkpt>
      <trkpt lat="42.892227" lon="0.55462">
        <ele>975</ele>
        <time>1970-01-01T04:51:08.000Z</time>
      </trkpt>
      <trkpt lat="42.892303" lon="0.554743">
        <ele>973.2</ele>
        <time>1970-01-01T04:51:10.000Z</time>
      </trkpt>
      <trkpt lat="42.892422" lon="0.554869">
        <ele>971.8</ele>
        <time>1970-01-01T04:51:12.000Z</time>
      </trkpt>
      <trkpt lat="42.892486" lon="0.55494">
        <ele>970.8</ele>
        <time>1970-01-01T04:51:13.000Z</time>
      </trkpt>
      <trkpt lat="42.892552" lon="0.555007">
        <ele>969.4</ele>
        <time>1970-01-01T04:51:14.000Z</time>
      </trkpt>
      <trkpt lat="42.89263" lon="0.555049">
        <ele>968.2</ele>
        <time>1970-01-01T04:51:15.000Z</time>
      </trkpt>
      <trkpt lat="42.892707" lon="0.555092">
        <ele>967.2</ele>
        <time>1970-01-01T04:51:16.000Z</time>
      </trkpt>
      <trkpt lat="42.892858" lon="0.555185">
        <ele>965</ele>
        <time>1970-01-01T04:51:18.000Z</time>
      </trkpt>
      <trkpt lat="42.892924" lon="0.555228">
        <ele>963.4</ele>
        <time>1970-01-01T04:51:19.000Z</time>
      </trkpt>
      <trkpt lat="42.892984" lon="0.55528">
        <ele>962</ele>
        <time>1970-01-01T04:51:20.000Z</time>
      </trkpt>
      <trkpt lat="42.893038" lon="0.555337">
        <ele>960.8</ele>
        <time>1970-01-01T04:51:21.000Z</time>
      </trkpt>
      <trkpt lat="42.893093" lon="0.555398">
        <ele>959.6</ele>
        <time>1970-01-01T04:51:22.000Z</time>
      </trkpt>
      <trkpt lat="42.893146" lon="0.555467">
        <ele>958.6</ele>
        <time>1970-01-01T04:51:23.000Z</time>
      </trkpt>
      <trkpt lat="42.893203" lon="0.555535">
        <ele>957.4</ele>
        <time>1970-01-01T04:51:24.000Z</time>
      </trkpt>
      <trkpt lat="42.893268" lon="0.555588">
        <ele>956.4</ele>
        <time>1970-01-01T04:51:25.000Z</time>
      </trkpt>
      <trkpt lat="42.89342" lon="0.55566">
        <ele>954.6</ele>
        <time>1970-01-01T04:51:27.000Z</time>
      </trkpt>
      <trkpt lat="42.893505" lon="0.555682">
        <ele>953</ele>
        <time>1970-01-01T04:51:28.000Z</time>
      </trkpt>
      <trkpt lat="42.893585" lon="0.555703">
        <ele>951.8</ele>
        <time>1970-01-01T04:51:29.000Z</time>
      </trkpt>
      <trkpt lat="42.893662" lon="0.555725">
        <ele>950.6</ele>
        <time>1970-01-01T04:51:30.000Z</time>
      </trkpt>
      <trkpt lat="42.893735" lon="0.555737">
        <ele>949.6</ele>
        <time>1970-01-01T04:51:31.000Z</time>
      </trkpt>
      <trkpt lat="42.893806" lon="0.555744">
        <ele>948.4</ele>
        <time>1970-01-01T04:51:32.000Z</time>
      </trkpt>
      <trkpt lat="42.893873" lon="0.555737">
        <ele>947.4</ele>
        <time>1970-01-01T04:51:33.000Z</time>
      </trkpt>
      <trkpt lat="42.893939" lon="0.555713">
        <ele>946.8</ele>
        <time>1970-01-01T04:51:34.000Z</time>
      </trkpt>
      <trkpt lat="42.894077" lon="0.555686">
        <ele>945.8</ele>
        <time>1970-01-01T04:51:36.000Z</time>
      </trkpt>
      <trkpt lat="42.894214" lon="0.555689">
        <ele>945.2</ele>
        <time>1970-01-01T04:51:38.000Z</time>
      </trkpt>
      <trkpt lat="42.894355" lon="0.555707">
        <ele>944.4</ele>
        <time>1970-01-01T04:51:40.000Z</time>
      </trkpt>
      <trkpt lat="42.894619" lon="0.555746">
        <ele>943</ele>
        <time>1970-01-01T04:51:44.000Z</time>
      </trkpt>
      <trkpt lat="42.894893" lon="0.555748">
        <ele>942</ele>
        <time>1970-01-01T04:51:48.000Z</time>
      </trkpt>
      <trkpt lat="42.895171" lon="0.5557">
        <ele>940.6</ele>
        <time>1970-01-01T04:51:52.000Z</time>
      </trkpt>
      <trkpt lat="42.895358" lon="0.555653">
        <ele>939.8</ele>
        <time>1970-01-01T04:51:55.000Z</time>
      </trkpt>
      <trkpt lat="42.895423" lon="0.555668">
        <ele>939.6</ele>
        <time>1970-01-01T04:51:56.000Z</time>
      </trkpt>
      <trkpt lat="42.895633" lon="0.555827">
        <ele>938.6</ele>
        <time>1970-01-01T04:51:59.000Z</time>
      </trkpt>
      <trkpt lat="42.895745" lon="0.555981">
        <ele>937.8</ele>
        <time>1970-01-01T04:52:01.000Z</time>
      </trkpt>
      <trkpt lat="42.895865" lon="0.556115">
        <ele>937.2</ele>
        <time>1970-01-01T04:52:03.000Z</time>
      </trkpt>
      <trkpt lat="42.895932" lon="0.556159">
        <ele>937</ele>
        <time>1970-01-01T04:52:04.000Z</time>
      </trkpt>
      <trkpt lat="42.896153" lon="0.556147">
        <ele>936</ele>
        <time>1970-01-01T04:52:07.000Z</time>
      </trkpt>
      <trkpt lat="42.896332" lon="0.55591">
        <ele>934.8</ele>
        <time>1970-01-01T04:52:10.000Z</time>
      </trkpt>
      <trkpt lat="42.896386" lon="0.555833">
        <ele>934.4</ele>
        <time>1970-01-01T04:52:11.000Z</time>
      </trkpt>
      <trkpt lat="42.896445" lon="0.555766">
        <ele>933.8</ele>
        <time>1970-01-01T04:52:12.000Z</time>
      </trkpt>
      <trkpt lat="42.896517" lon="0.555753">
        <ele>933.4</ele>
        <time>1970-01-01T04:52:13.000Z</time>
      </trkpt>
      <trkpt lat="42.896656" lon="0.555738">
        <ele>932.4</ele>
        <time>1970-01-01T04:52:15.000Z</time>
      </trkpt>
      <trkpt lat="42.896733" lon="0.555744">
        <ele>931.8</ele>
        <time>1970-01-01T04:52:16.000Z</time>
      </trkpt>
      <trkpt lat="42.896809" lon="0.55576">
        <ele>931.2</ele>
        <time>1970-01-01T04:52:17.000Z</time>
      </trkpt>
      <trkpt lat="42.896952" lon="0.555789">
        <ele>930</ele>
        <time>1970-01-01T04:52:19.000Z</time>
      </trkpt>
      <trkpt lat="42.897015" lon="0.555822">
        <ele>929.4</ele>
        <time>1970-01-01T04:52:20.000Z</time>
      </trkpt>
      <trkpt lat="42.89708" lon="0.555877">
        <ele>928.4</ele>
        <time>1970-01-01T04:52:21.000Z</time>
      </trkpt>
      <trkpt lat="42.897203" lon="0.556026">
        <ele>926.8</ele>
        <time>1970-01-01T04:52:23.000Z</time>
      </trkpt>
      <trkpt lat="42.897348" lon="0.556137">
        <ele>925.6</ele>
        <time>1970-01-01T04:52:25.000Z</time>
      </trkpt>
      <trkpt lat="42.897504" lon="0.556167">
        <ele>924</ele>
        <time>1970-01-01T04:52:27.000Z</time>
      </trkpt>
      <trkpt lat="42.897662" lon="0.556188">
        <ele>922.2</ele>
        <time>1970-01-01T04:52:29.000Z</time>
      </trkpt>
      <trkpt lat="42.897824" lon="0.556206">
        <ele>920.8</ele>
        <time>1970-01-01T04:52:31.000Z</time>
      </trkpt>
      <trkpt lat="42.897986" lon="0.556224">
        <ele>920.4</ele>
        <time>1970-01-01T04:52:33.000Z</time>
      </trkpt>
      <trkpt lat="42.898141" lon="0.556203">
        <ele>919.6</ele>
        <time>1970-01-01T04:52:35.000Z</time>
      </trkpt>
      <trkpt lat="42.898364" lon="0.556184">
        <ele>918.6</ele>
        <time>1970-01-01T04:52:38.000Z</time>
      </trkpt>
      <trkpt lat="42.898582" lon="0.556198">
        <ele>917.4</ele>
        <time>1970-01-01T04:52:41.000Z</time>
      </trkpt>
      <trkpt lat="42.898828" lon="0.556155">
        <ele>916.4</ele>
        <time>1970-01-01T04:52:44.000Z</time>
      </trkpt>
      <trkpt lat="42.899047" lon="0.556016">
        <ele>915</ele>
        <time>1970-01-01T04:52:47.000Z</time>
      </trkpt>
      <trkpt lat="42.899265" lon="0.555885">
        <ele>913.8</ele>
        <time>1970-01-01T04:52:50.000Z</time>
      </trkpt>
      <trkpt lat="42.89948" lon="0.555755">
        <ele>912.2</ele>
        <time>1970-01-01T04:52:53.000Z</time>
      </trkpt>
      <trkpt lat="42.899624" lon="0.555713">
        <ele>911</ele>
        <time>1970-01-01T04:52:55.000Z</time>
      </trkpt>
      <trkpt lat="42.899699" lon="0.555716">
        <ele>910.4</ele>
        <time>1970-01-01T04:52:56.000Z</time>
      </trkpt>
      <trkpt lat="42.89985" lon="0.555772">
        <ele>910</ele>
        <time>1970-01-01T04:52:58.000Z</time>
      </trkpt>
      <trkpt lat="42.900043" lon="0.555964">
        <ele>908.8</ele>
        <time>1970-01-01T04:53:01.000Z</time>
      </trkpt>
      <trkpt lat="42.900107" lon="0.556037">
        <ele>908.2</ele>
        <time>1970-01-01T04:53:02.000Z</time>
      </trkpt>
      <trkpt lat="42.900247" lon="0.556163">
        <ele>906.8</ele>
        <time>1970-01-01T04:53:04.000Z</time>
      </trkpt>
      <trkpt lat="42.900429" lon="0.556202">
        <ele>905.6</ele>
        <time>1970-01-01T04:53:06.000Z</time>
      </trkpt>
      <trkpt lat="42.900693" lon="0.556163">
        <ele>904.2</ele>
        <time>1970-01-01T04:53:09.000Z</time>
      </trkpt>
      <trkpt lat="42.900764" lon="0.556147">
        <ele>903.6</ele>
        <time>1970-01-01T04:53:10.000Z</time>
      </trkpt>
      <trkpt lat="42.900835" lon="0.556098">
        <ele>903</ele>
        <time>1970-01-01T04:53:11.000Z</time>
      </trkpt>
      <trkpt lat="42.90088" lon="0.556063">
        <ele>902.2</ele>
        <time>1970-01-01T04:53:12.000Z</time>
      </trkpt>
      <trkpt lat="42.900913" lon="0.556018">
        <ele>901.6</ele>
        <time>1970-01-01T04:53:13.000Z</time>
      </trkpt>
      <trkpt lat="42.900962" lon="0.555923">
        <ele>900.6</ele>
        <time>1970-01-01T04:53:15.000Z</time>
      </trkpt>
      <trkpt lat="42.900996" lon="0.555772">
        <ele>899.4</ele>
        <time>1970-01-01T04:53:19.000Z</time>
      </trkpt>
      <trkpt lat="42.900998" lon="0.555599">
        <ele>898.2</ele>
        <time>1970-01-01T04:53:24.000Z</time>
      </trkpt>
      <trkpt lat="42.900995" lon="0.555448">
        <ele>897</ele>
        <time>1970-01-01T04:53:27.000Z</time>
      </trkpt>
      <trkpt lat="42.90099" lon="0.555182">
        <ele>895.8</ele>
        <time>1970-01-01T04:53:31.000Z</time>
      </trkpt>
      <trkpt lat="42.901" lon="0.555032">
        <ele>895.2</ele>
        <time>1970-01-01T04:53:33.000Z</time>
      </trkpt>
      <trkpt lat="42.90102" lon="0.554879">
        <ele>894.8</ele>
        <time>1970-01-01T04:53:35.000Z</time>
      </trkpt>
      <trkpt lat="42.901077" lon="0.554664">
        <ele>894</ele>
        <time>1970-01-01T04:53:38.000Z</time>
      </trkpt>
      <trkpt lat="42.901112" lon="0.55459">
        <ele>893.6</ele>
        <time>1970-01-01T04:53:39.000Z</time>
      </trkpt>
      <trkpt lat="42.90126" lon="0.554364">
        <ele>892.8</ele>
        <time>1970-01-01T04:53:42.000Z</time>
      </trkpt>
      <trkpt lat="42.901326" lon="0.554306">
        <ele>892.6</ele>
        <time>1970-01-01T04:53:43.000Z</time>
      </trkpt>
      <trkpt lat="42.901599" lon="0.554219">
        <ele>891.2</ele>
        <time>1970-01-01T04:53:47.000Z</time>
      </trkpt>
      <trkpt lat="42.90174" lon="0.554241">
        <ele>890.8</ele>
        <time>1970-01-01T04:53:49.000Z</time>
      </trkpt>
      <trkpt lat="42.901808" lon="0.554235">
        <ele>890.8</ele>
        <time>1970-01-01T04:53:50.000Z</time>
      </trkpt>
      <trkpt lat="42.901986" lon="0.554118">
        <ele>890.2</ele>
        <time>1970-01-01T04:53:53.000Z</time>
      </trkpt>
      <trkpt lat="42.902096" lon="0.553853">
        <ele>889.4</ele>
        <time>1970-01-01T04:53:56.000Z</time>
      </trkpt>
      <trkpt lat="42.902129" lon="0.553774">
        <ele>889.2</ele>
        <time>1970-01-01T04:53:57.000Z</time>
      </trkpt>
      <trkpt lat="42.902165" lon="0.553693">
        <ele>889</ele>
        <time>1970-01-01T04:53:58.000Z</time>
      </trkpt>
      <trkpt lat="42.90233" lon="0.553476">
        <ele>888</ele>
        <time>1970-01-01T04:54:01.000Z</time>
      </trkpt>
      <trkpt lat="42.902562" lon="0.553376">
        <ele>886.8</ele>
        <time>1970-01-01T04:54:04.000Z</time>
      </trkpt>
      <trkpt lat="42.902734" lon="0.553374">
        <ele>886.2</ele>
        <time>1970-01-01T04:54:06.000Z</time>
      </trkpt>
      <trkpt lat="42.902822" lon="0.553378">
        <ele>885.4</ele>
        <time>1970-01-01T04:54:07.000Z</time>
      </trkpt>
      <trkpt lat="42.903" lon="0.553378">
        <ele>884</ele>
        <time>1970-01-01T04:54:09.000Z</time>
      </trkpt>
      <trkpt lat="42.903229" lon="0.55338">
        <ele>882.4</ele>
        <time>1970-01-01T04:54:12.000Z</time>
      </trkpt>
      <trkpt lat="42.903329" lon="0.553432">
        <ele>881.2</ele>
        <time>1970-01-01T04:54:14.000Z</time>
      </trkpt>
      <trkpt lat="42.903379" lon="0.553638">
        <ele>880</ele>
        <time>1970-01-01T04:54:17.000Z</time>
      </trkpt>
      <trkpt lat="42.903674" lon="0.553693">
        <ele>878.8</ele>
        <time>1970-01-01T04:54:23.000Z</time>
      </trkpt>
      <trkpt lat="42.90373" lon="0.553655">
        <ele>878.4</ele>
        <time>1970-01-01T04:54:24.000Z</time>
      </trkpt>
      <trkpt lat="42.903893" lon="0.553544">
        <ele>877.4</ele>
        <time>1970-01-01T04:54:27.000Z</time>
      </trkpt>
      <trkpt lat="42.904082" lon="0.553381">
        <ele>876.2</ele>
        <time>1970-01-01T04:54:30.000Z</time>
      </trkpt>
      <trkpt lat="42.904271" lon="0.553227">
        <ele>875</ele>
        <time>1970-01-01T04:54:33.000Z</time>
      </trkpt>
      <trkpt lat="42.904451" lon="0.553058">
        <ele>874</ele>
        <time>1970-01-01T04:54:36.000Z</time>
      </trkpt>
      <trkpt lat="42.904498" lon="0.552994">
        <ele>873.8</ele>
        <time>1970-01-01T04:54:37.000Z</time>
      </trkpt>
      <trkpt lat="42.904693" lon="0.552669">
        <ele>872.6</ele>
        <time>1970-01-01T04:54:41.000Z</time>
      </trkpt>
      <trkpt lat="42.904888" lon="0.552542">
        <ele>871.4</ele>
        <time>1970-01-01T04:54:44.000Z</time>
      </trkpt>
      <trkpt lat="42.90496" lon="0.552503">
        <ele>871.2</ele>
        <time>1970-01-01T04:54:45.000Z</time>
      </trkpt>
      <trkpt lat="42.905095" lon="0.552407">
        <ele>870.6</ele>
        <time>1970-01-01T04:54:47.000Z</time>
      </trkpt>
      <trkpt lat="42.905158" lon="0.552348">
        <ele>870.2</ele>
        <time>1970-01-01T04:54:48.000Z</time>
      </trkpt>
      <trkpt lat="42.905397" lon="0.55211">
        <ele>869.4</ele>
        <time>1970-01-01T04:54:52.000Z</time>
      </trkpt>
      <trkpt lat="42.905465" lon="0.552081">
        <ele>869.2</ele>
        <time>1970-01-01T04:54:53.000Z</time>
      </trkpt>
      <trkpt lat="42.905853" lon="0.551991">
        <ele>868.2</ele>
        <time>1970-01-01T04:54:59.000Z</time>
      </trkpt>
      <trkpt lat="42.906048" lon="0.551921">
        <ele>867.4</ele>
        <time>1970-01-01T04:55:02.000Z</time>
      </trkpt>
      <trkpt lat="42.906113" lon="0.551917">
        <ele>867</ele>
        <time>1970-01-01T04:55:03.000Z</time>
      </trkpt>
      <trkpt lat="42.906328" lon="0.551893">
        <ele>865.8</ele>
        <time>1970-01-01T04:55:06.000Z</time>
      </trkpt>
      <trkpt lat="42.906645" lon="0.551679">
        <ele>865</ele>
        <time>1970-01-01T04:55:11.000Z</time>
      </trkpt>
      <trkpt lat="42.906753" lon="0.551565">
        <ele>864.6</ele>
        <time>1970-01-01T04:55:13.000Z</time>
      </trkpt>
      <trkpt lat="42.906952" lon="0.551324">
        <ele>863.6</ele>
        <time>1970-01-01T04:55:17.000Z</time>
      </trkpt>
      <trkpt lat="42.907144" lon="0.551188">
        <ele>862.2</ele>
        <time>1970-01-01T04:55:20.000Z</time>
      </trkpt>
      <trkpt lat="42.907215" lon="0.551148">
        <ele>861.6</ele>
        <time>1970-01-01T04:55:21.000Z</time>
      </trkpt>
      <trkpt lat="42.907289" lon="0.551121">
        <ele>861</ele>
        <time>1970-01-01T04:55:22.000Z</time>
      </trkpt>
      <trkpt lat="42.907521" lon="0.551064">
        <ele>860</ele>
        <time>1970-01-01T04:55:25.000Z</time>
      </trkpt>
      <trkpt lat="42.907737" lon="0.55104">
        <ele>858.8</ele>
        <time>1970-01-01T04:55:28.000Z</time>
      </trkpt>
      <trkpt lat="42.907887" lon="0.551082">
        <ele>857.6</ele>
        <time>1970-01-01T04:55:30.000Z</time>
      </trkpt>
      <trkpt lat="42.908053" lon="0.551181">
        <ele>856.2</ele>
        <time>1970-01-01T04:55:32.000Z</time>
      </trkpt>
      <trkpt lat="42.908135" lon="0.55124">
        <ele>855</ele>
        <time>1970-01-01T04:55:33.000Z</time>
      </trkpt>
      <trkpt lat="42.908214" lon="0.551325">
        <ele>854.4</ele>
        <time>1970-01-01T04:55:34.000Z</time>
      </trkpt>
      <trkpt lat="42.908292" lon="0.551448">
        <ele>854</ele>
        <time>1970-01-01T04:55:35.000Z</time>
      </trkpt>
      <trkpt lat="42.908489" lon="0.551804">
        <ele>852.6</ele>
        <time>1970-01-01T04:55:38.000Z</time>
      </trkpt>
      <trkpt lat="42.908602" lon="0.551991">
        <ele>850.2</ele>
        <time>1970-01-01T04:55:40.000Z</time>
      </trkpt>
      <trkpt lat="42.90874" lon="0.552086">
        <ele>848.8</ele>
        <time>1970-01-01T04:55:42.000Z</time>
      </trkpt>
      <trkpt lat="42.908863" lon="0.552155">
        <ele>847.8</ele>
        <time>1970-01-01T04:55:44.000Z</time>
      </trkpt>
      <trkpt lat="42.908984" lon="0.552218">
        <ele>846.8</ele>
        <time>1970-01-01T04:55:46.000Z</time>
      </trkpt>
      <trkpt lat="42.909114" lon="0.552227">
        <ele>845.4</ele>
        <time>1970-01-01T04:55:48.000Z</time>
      </trkpt>
      <trkpt lat="42.909222" lon="0.55222">
        <ele>844.6</ele>
        <time>1970-01-01T04:55:50.000Z</time>
      </trkpt>
      <trkpt lat="42.909267" lon="0.552222">
        <ele>844.2</ele>
        <time>1970-01-01T04:55:51.000Z</time>
      </trkpt>
      <trkpt lat="42.909346" lon="0.552246">
        <ele>843.8</ele>
        <time>1970-01-01T04:55:53.000Z</time>
      </trkpt>
      <trkpt lat="42.909418" lon="0.552298">
        <ele>843.2</ele>
        <time>1970-01-01T04:55:55.000Z</time>
      </trkpt>
      <trkpt lat="42.90949" lon="0.552368">
        <ele>842.8</ele>
        <time>1970-01-01T04:55:57.000Z</time>
      </trkpt>
      <trkpt lat="42.909714" lon="0.552674">
        <ele>841.8</ele>
        <time>1970-01-01T04:56:02.000Z</time>
      </trkpt>
      <trkpt lat="42.90986" lon="0.552907">
        <ele>840.6</ele>
        <time>1970-01-01T04:56:05.000Z</time>
      </trkpt>
      <trkpt lat="42.909951" lon="0.553087">
        <ele>839.2</ele>
        <time>1970-01-01T04:56:07.000Z</time>
      </trkpt>
      <trkpt lat="42.910043" lon="0.553283">
        <ele>837.2</ele>
        <time>1970-01-01T04:56:09.000Z</time>
      </trkpt>
      <trkpt lat="42.910089" lon="0.553378">
        <ele>836.2</ele>
        <time>1970-01-01T04:56:10.000Z</time>
      </trkpt>
      <trkpt lat="42.910141" lon="0.55346">
        <ele>834.8</ele>
        <time>1970-01-01T04:56:11.000Z</time>
      </trkpt>
      <trkpt lat="42.910196" lon="0.553518">
        <ele>833.6</ele>
        <time>1970-01-01T04:56:12.000Z</time>
      </trkpt>
      <trkpt lat="42.910252" lon="0.553568">
        <ele>832.4</ele>
        <time>1970-01-01T04:56:13.000Z</time>
      </trkpt>
      <trkpt lat="42.910307" lon="0.553611">
        <ele>830.8</ele>
        <time>1970-01-01T04:56:14.000Z</time>
      </trkpt>
      <trkpt lat="42.910367" lon="0.553635">
        <ele>829.2</ele>
        <time>1970-01-01T04:56:15.000Z</time>
      </trkpt>
      <trkpt lat="42.910504" lon="0.553566">
        <ele>827.8</ele>
        <time>1970-01-01T04:56:17.000Z</time>
      </trkpt>
      <trkpt lat="42.910635" lon="0.55349">
        <ele>825.8</ele>
        <time>1970-01-01T04:56:19.000Z</time>
      </trkpt>
      <trkpt lat="42.910757" lon="0.553407">
        <ele>824</ele>
        <time>1970-01-01T04:56:21.000Z</time>
      </trkpt>
      <trkpt lat="42.910872" lon="0.553327">
        <ele>821.6</ele>
        <time>1970-01-01T04:56:23.000Z</time>
      </trkpt>
      <trkpt lat="42.910932" lon="0.553312">
        <ele>820.4</ele>
        <time>1970-01-01T04:56:24.000Z</time>
      </trkpt>
      <trkpt lat="42.911074" lon="0.553322">
        <ele>818.6</ele>
        <time>1970-01-01T04:56:26.000Z</time>
      </trkpt>
      <trkpt lat="42.911214" lon="0.553369">
        <ele>817.6</ele>
        <time>1970-01-01T04:56:28.000Z</time>
      </trkpt>
      <trkpt lat="42.911281" lon="0.553384">
        <ele>816.4</ele>
        <time>1970-01-01T04:56:29.000Z</time>
      </trkpt>
      <trkpt lat="42.911414" lon="0.55346">
        <ele>814.8</ele>
        <time>1970-01-01T04:56:31.000Z</time>
      </trkpt>
      <trkpt lat="42.911547" lon="0.553577">
        <ele>813.4</ele>
        <time>1970-01-01T04:56:33.000Z</time>
      </trkpt>
      <trkpt lat="42.911668" lon="0.553739">
        <ele>812.2</ele>
        <time>1970-01-01T04:56:35.000Z</time>
      </trkpt>
      <trkpt lat="42.911792" lon="0.554044">
        <ele>810.8</ele>
        <time>1970-01-01T04:56:38.000Z</time>
      </trkpt>
      <trkpt lat="42.911903" lon="0.55434">
        <ele>809.6</ele>
        <time>1970-01-01T04:56:41.000Z</time>
      </trkpt>
      <trkpt lat="42.912014" lon="0.554625">
        <ele>808.2</ele>
        <time>1970-01-01T04:56:44.000Z</time>
      </trkpt>
      <trkpt lat="42.912219" lon="0.555044">
        <ele>807.2</ele>
        <time>1970-01-01T04:56:49.000Z</time>
      </trkpt>
      <trkpt lat="42.912343" lon="0.555371">
        <ele>806</ele>
        <time>1970-01-01T04:56:53.000Z</time>
      </trkpt>
      <trkpt lat="42.912457" lon="0.55563">
        <ele>805</ele>
        <time>1970-01-01T04:56:57.000Z</time>
      </trkpt>
      <trkpt lat="42.912535" lon="0.555735">
        <ele>804.8</ele>
        <time>1970-01-01T04:56:59.000Z</time>
      </trkpt>
      <trkpt lat="42.91273" lon="0.555842">
        <ele>804.2</ele>
        <time>1970-01-01T04:57:03.000Z</time>
      </trkpt>
      <trkpt lat="42.912791" lon="0.555861">
        <ele>804</ele>
        <time>1970-01-01T04:57:04.000Z</time>
      </trkpt>
      <trkpt lat="42.913027" lon="0.555949">
        <ele>802.8</ele>
        <time>1970-01-01T04:57:08.000Z</time>
      </trkpt>
      <trkpt lat="42.91322" lon="0.55626">
        <ele>801.6</ele>
        <time>1970-01-01T04:57:12.000Z</time>
      </trkpt>
      <trkpt lat="42.913266" lon="0.55636">
        <ele>801.4</ele>
        <time>1970-01-01T04:57:13.000Z</time>
      </trkpt>
      <trkpt lat="42.913353" lon="0.556572">
        <ele>799.6</ele>
        <time>1970-01-01T04:57:15.000Z</time>
      </trkpt>
      <trkpt lat="42.913403" lon="0.556676">
        <ele>798.2</ele>
        <time>1970-01-01T04:57:16.000Z</time>
      </trkpt>
      <trkpt lat="42.913521" lon="0.556878">
        <ele>796.2</ele>
        <time>1970-01-01T04:57:18.000Z</time>
      </trkpt>
      <trkpt lat="42.913698" lon="0.557027">
        <ele>794.4</ele>
        <time>1970-01-01T04:57:20.000Z</time>
      </trkpt>
      <trkpt lat="42.913851" lon="0.557174">
        <ele>792.4</ele>
        <time>1970-01-01T04:57:22.000Z</time>
      </trkpt>
      <trkpt lat="42.913917" lon="0.557241">
        <ele>791.4</ele>
        <time>1970-01-01T04:57:23.000Z</time>
      </trkpt>
      <trkpt lat="42.913982" lon="0.557302">
        <ele>790</ele>
        <time>1970-01-01T04:57:24.000Z</time>
      </trkpt>
      <trkpt lat="42.914061" lon="0.557341">
        <ele>789.2</ele>
        <time>1970-01-01T04:57:25.000Z</time>
      </trkpt>
      <trkpt lat="42.914151" lon="0.557373">
        <ele>788.2</ele>
        <time>1970-01-01T04:57:26.000Z</time>
      </trkpt>
      <trkpt lat="42.914322" lon="0.557428">
        <ele>786.6</ele>
        <time>1970-01-01T04:57:28.000Z</time>
      </trkpt>
      <trkpt lat="42.914399" lon="0.557462">
        <ele>785.4</ele>
        <time>1970-01-01T04:57:29.000Z</time>
      </trkpt>
      <trkpt lat="42.914547" lon="0.557548">
        <ele>784</ele>
        <time>1970-01-01T04:57:31.000Z</time>
      </trkpt>
      <trkpt lat="42.914694" lon="0.557671">
        <ele>782.8</ele>
        <time>1970-01-01T04:57:33.000Z</time>
      </trkpt>
      <trkpt lat="42.914907" lon="0.557859">
        <ele>781.6</ele>
        <time>1970-01-01T04:57:36.000Z</time>
      </trkpt>
      <trkpt lat="42.914964" lon="0.557936">
        <ele>781.2</ele>
        <time>1970-01-01T04:57:37.000Z</time>
      </trkpt>
      <trkpt lat="42.915145" lon="0.55827">
        <ele>780.4</ele>
        <time>1970-01-01T04:57:41.000Z</time>
      </trkpt>
      <trkpt lat="42.915386" lon="0.558642">
        <ele>779.6</ele>
        <time>1970-01-01T04:57:48.000Z</time>
      </trkpt>
      <trkpt lat="42.915533" lon="0.558928">
        <ele>778.6</ele>
        <time>1970-01-01T04:57:53.000Z</time>
      </trkpt>
      <trkpt lat="42.915691" lon="0.559169">
        <ele>777.2</ele>
        <time>1970-01-01T04:57:57.000Z</time>
      </trkpt>
      <trkpt lat="42.915974" lon="0.559395">
        <ele>776.2</ele>
        <time>1970-01-01T04:58:02.000Z</time>
      </trkpt>
      <trkpt lat="42.916213" lon="0.559541">
        <ele>775.4</ele>
        <time>1970-01-01T04:58:06.000Z</time>
      </trkpt>
      <trkpt lat="42.916311" lon="0.559601">
        <ele>775.4</ele>
        <time>1970-01-01T04:58:08.000Z</time>
      </trkpt>
      <trkpt lat="42.916585" lon="0.560194">
        <ele>777.8</ele>
        <time>1970-01-01T04:58:25.000Z</time>
      </trkpt>
      <trkpt lat="42.916945" lon="0.560742">
        <ele>779</ele>
        <time>1970-01-01T04:58:44.000Z</time>
      </trkpt>
      <trkpt lat="42.917191" lon="0.56094">
        <ele>780.2</ele>
        <time>1970-01-01T04:58:56.000Z</time>
      </trkpt>
      <trkpt lat="42.917405" lon="0.561028">
        <ele>779</ele>
        <time>1970-01-01T04:59:02.000Z</time>
      </trkpt>
      <trkpt lat="42.917622" lon="0.56112">
        <ele>777.8</ele>
        <time>1970-01-01T04:59:06.000Z</time>
      </trkpt>
      <trkpt lat="42.91782" lon="0.561175">
        <ele>776.8</ele>
        <time>1970-01-01T04:59:09.000Z</time>
      </trkpt>
      <trkpt lat="42.91804" lon="0.561177">
        <ele>775.4</ele>
        <time>1970-01-01T04:59:12.000Z</time>
      </trkpt>
      <trkpt lat="42.918116" lon="0.561165">
        <ele>775.2</ele>
        <time>1970-01-01T04:59:13.000Z</time>
      </trkpt>
      <trkpt lat="42.91841" lon="0.561094">
        <ele>774.4</ele>
        <time>1970-01-01T04:59:17.000Z</time>
      </trkpt>
      <trkpt lat="42.918608" lon="0.561035">
        <ele>773.4</ele>
        <time>1970-01-01T04:59:20.000Z</time>
      </trkpt>
      <trkpt lat="42.918984" lon="0.560961">
        <ele>772.4</ele>
        <time>1970-01-01T04:59:26.000Z</time>
      </trkpt>
      <trkpt lat="42.91923" lon="0.560892">
        <ele>771.4</ele>
        <time>1970-01-01T04:59:30.000Z</time>
      </trkpt>
      <trkpt lat="42.919352" lon="0.560875">
        <ele>771</ele>
        <time>1970-01-01T04:59:32.000Z</time>
      </trkpt>
      <trkpt lat="42.919539" lon="0.560883">
        <ele>770.6</ele>
        <time>1970-01-01T04:59:35.000Z</time>
      </trkpt>
      <trkpt lat="42.919601" lon="0.560899">
        <ele>770.2</ele>
        <time>1970-01-01T04:59:36.000Z</time>
      </trkpt>
      <trkpt lat="42.919726" lon="0.560943">
        <ele>769</ele>
        <time>1970-01-01T04:59:38.000Z</time>
      </trkpt>
      <trkpt lat="42.919927" lon="0.561044">
        <ele>767.6</ele>
        <time>1970-01-01T04:59:41.000Z</time>
      </trkpt>
      <trkpt lat="42.920118" lon="0.561141">
        <ele>766.4</ele>
        <time>1970-01-01T04:59:44.000Z</time>
      </trkpt>
      <trkpt lat="42.920185" lon="0.561161">
        <ele>766</ele>
        <time>1970-01-01T04:59:45.000Z</time>
      </trkpt>
      <trkpt lat="42.920252" lon="0.561167">
        <ele>765.4</ele>
        <time>1970-01-01T04:59:46.000Z</time>
      </trkpt>
      <trkpt lat="42.920383" lon="0.561098">
        <ele>764.4</ele>
        <time>1970-01-01T04:59:48.000Z</time>
      </trkpt>
      <trkpt lat="42.920487" lon="0.560934">
        <ele>763.2</ele>
        <time>1970-01-01T04:59:50.000Z</time>
      </trkpt>
      <trkpt lat="42.920532" lon="0.560837">
        <ele>762.6</ele>
        <time>1970-01-01T04:59:51.000Z</time>
      </trkpt>
      <trkpt lat="42.920577" lon="0.560736">
        <ele>761.8</ele>
        <time>1970-01-01T04:59:52.000Z</time>
      </trkpt>
      <trkpt lat="42.920668" lon="0.560533">
        <ele>760.6</ele>
        <time>1970-01-01T04:59:54.000Z</time>
      </trkpt>
      <trkpt lat="42.920718" lon="0.560442">
        <ele>760.4</ele>
        <time>1970-01-01T04:59:55.000Z</time>
      </trkpt>
      <trkpt lat="42.920843" lon="0.56031">
        <ele>759.2</ele>
        <time>1970-01-01T04:59:57.000Z</time>
      </trkpt>
      <trkpt lat="42.920983" lon="0.560257">
        <ele>759.2</ele>
        <time>1970-01-01T04:59:59.000Z</time>
      </trkpt>
      <trkpt lat="42.921045" lon="0.560228">
        <ele>759.2</ele>
        <time>1970-01-01T05:00:00.000Z</time>
      </trkpt>
      <trkpt lat="42.921099" lon="0.560193">
        <ele>759</ele>
        <time>1970-01-01T05:00:01.000Z</time>
      </trkpt>
      <trkpt lat="42.921386" lon="0.559862">
        <ele>758.2</ele>
        <time>1970-01-01T05:00:10.000Z</time>
      </trkpt>
      <trkpt lat="42.921434" lon="0.559863">
        <ele>757.8</ele>
        <time>1970-01-01T05:00:11.000Z</time>
      </trkpt>
      <trkpt lat="42.921581" lon="0.559855">
        <ele>757</ele>
        <time>1970-01-01T05:00:14.000Z</time>
      </trkpt>
      <trkpt lat="42.921793" lon="0.559799">
        <ele>755.6</ele>
        <time>1970-01-01T05:00:18.000Z</time>
      </trkpt>
      <trkpt lat="42.921847" lon="0.559778">
        <ele>755.4</ele>
        <time>1970-01-01T05:00:19.000Z</time>
      </trkpt>
      <trkpt lat="42.922044" lon="0.559657">
        <ele>754.8</ele>
        <time>1970-01-01T05:00:23.000Z</time>
      </trkpt>
      <trkpt lat="42.922124" lon="0.559589">
        <ele>754.6</ele>
        <time>1970-01-01T05:00:25.000Z</time>
      </trkpt>
      <trkpt lat="42.922249" lon="0.558888">
        <ele>754.4</ele>
        <time>1970-01-01T05:00:42.000Z</time>
      </trkpt>
      <trkpt lat="42.922766" lon="0.558768">
        <ele>755.6</ele>
        <time>1970-01-01T05:01:00.000Z</time>
      </trkpt>
      <trkpt lat="42.923301" lon="0.558574">
        <ele>756</ele>
        <time>1970-01-01T05:01:12.000Z</time>
      </trkpt>
      <trkpt lat="42.923779" lon="0.55842">
        <ele>756.6</ele>
        <time>1970-01-01T05:01:22.000Z</time>
      </trkpt>
      <trkpt lat="42.924354" lon="0.558227">
        <ele>756.6</ele>
        <time>1970-01-01T05:01:33.000Z</time>
      </trkpt>
      <trkpt lat="42.924851" lon="0.55814">
        <ele>756.8</ele>
        <time>1970-01-01T05:01:42.000Z</time>
      </trkpt>
      <trkpt lat="42.92522" lon="0.558211">
        <ele>757.2</ele>
        <time>1970-01-01T05:01:48.000Z</time>
      </trkpt>
      <trkpt lat="42.925449" lon="0.558111">
        <ele>757.4</ele>
        <time>1970-01-01T05:01:52.000Z</time>
      </trkpt>
      <trkpt lat="42.925884" lon="0.557815">
        <ele>756</ele>
        <time>1970-01-01T05:02:00.000Z</time>
      </trkpt>
      <trkpt lat="42.925939" lon="0.557793">
        <ele>755.8</ele>
        <time>1970-01-01T05:02:01.000Z</time>
      </trkpt>
      <trkpt lat="42.926254" lon="0.557838">
        <ele>755</ele>
        <time>1970-01-01T05:02:07.000Z</time>
      </trkpt>
      <trkpt lat="42.926304" lon="0.557867">
        <ele>755</ele>
        <time>1970-01-01T05:02:08.000Z</time>
      </trkpt>
      <trkpt lat="42.926405" lon="0.557897">
        <ele>754.8</ele>
        <time>1970-01-01T05:02:10.000Z</time>
      </trkpt>
      <trkpt lat="42.926504" lon="0.557895">
        <ele>754.6</ele>
        <time>1970-01-01T05:02:12.000Z</time>
      </trkpt>
      <trkpt lat="42.927042" lon="0.557807">
        <ele>755</ele>
        <time>1970-01-01T05:02:24.000Z</time>
      </trkpt>
      <trkpt lat="42.927576" lon="0.557586">
        <ele>755.2</ele>
        <time>1970-01-01T05:02:38.000Z</time>
      </trkpt>
      <trkpt lat="42.927842" lon="0.557481">
        <ele>755</ele>
        <time>1970-01-01T05:02:44.000Z</time>
      </trkpt>
      <trkpt lat="42.928287" lon="0.557483">
        <ele>756.2</ele>
        <time>1970-01-01T05:02:55.000Z</time>
      </trkpt>
      <trkpt lat="42.928452" lon="0.557551">
        <ele>757.2</ele>
        <time>1970-01-01T05:03:00.000Z</time>
      </trkpt>
      <trkpt lat="42.928579" lon="0.55757">
        <ele>758.2</ele>
        <time>1970-01-01T05:03:04.000Z</time>
      </trkpt>
      <trkpt lat="42.928773" lon="0.557596">
        <ele>759.6</ele>
        <time>1970-01-01T05:03:11.000Z</time>
      </trkpt>
      <trkpt lat="42.929184" lon="0.55779">
        <ele>759.2</ele>
        <time>1970-01-01T05:03:23.000Z</time>
      </trkpt>
      <trkpt lat="42.929313" lon="0.557836">
        <ele>758.4</ele>
        <time>1970-01-01T05:03:27.000Z</time>
      </trkpt>
      <trkpt lat="42.929449" lon="0.557825">
        <ele>757.8</ele>
        <time>1970-01-01T05:03:35.000Z</time>
      </trkpt>
      <trkpt lat="42.929444" lon="0.557812">
        <ele>757.8</ele>
        <time>1970-01-01T05:03:37.000Z</time>
      </trkpt>
      <trkpt lat="42.929439" lon="0.55786">
        <ele>760</ele>
        <time>1970-01-01T05:38:29.000Z</time>
      </trkpt>
      <trkpt lat="42.929897" lon="0.557755">
        <ele>759</ele>
        <time>1970-01-01T05:38:44.000Z</time>
      </trkpt>
      <trkpt lat="42.930098" lon="0.557687">
        <ele>757.8</ele>
        <time>1970-01-01T05:38:49.000Z</time>
      </trkpt>
      <trkpt lat="42.930232" lon="0.557691">
        <ele>756.6</ele>
        <time>1970-01-01T05:38:53.000Z</time>
      </trkpt>
      <trkpt lat="42.930414" lon="0.557734">
        <ele>755.4</ele>
        <time>1970-01-01T05:38:58.000Z</time>
      </trkpt>
      <trkpt lat="42.930533" lon="0.557781">
        <ele>754.2</ele>
        <time>1970-01-01T05:39:01.000Z</time>
      </trkpt>
      <trkpt lat="42.930684" lon="0.557854">
        <ele>753.2</ele>
        <time>1970-01-01T05:39:05.000Z</time>
      </trkpt>
      <trkpt lat="42.930798" lon="0.557904">
        <ele>752</ele>
        <time>1970-01-01T05:39:08.000Z</time>
      </trkpt>
      <trkpt lat="42.930931" lon="0.557969">
        <ele>751</ele>
        <time>1970-01-01T05:39:12.000Z</time>
      </trkpt>
      <trkpt lat="42.931101" lon="0.557993">
        <ele>750</ele>
        <time>1970-01-01T05:39:17.000Z</time>
      </trkpt>
      <trkpt lat="42.931234" lon="0.558002">
        <ele>749</ele>
        <time>1970-01-01T05:39:22.000Z</time>
      </trkpt>
      <trkpt lat="42.931114" lon="0.557966">
        <ele>749.2</ele>
        <time>1970-01-01T05:39:28.000Z</time>
      </trkpt>
      <trkpt lat="42.930743" lon="0.557889">
        <ele>751</ele>
        <time>1970-01-01T05:39:40.000Z</time>
      </trkpt>
      <trkpt lat="42.930607" lon="0.557822">
        <ele>752.2</ele>
        <time>1970-01-01T05:39:45.000Z</time>
      </trkpt>
      <trkpt lat="42.930471" lon="0.557754">
        <ele>753.6</ele>
        <time>1970-01-01T05:39:50.000Z</time>
      </trkpt>
      <trkpt lat="42.930335" lon="0.557711">
        <ele>754.6</ele>
        <time>1970-01-01T05:39:55.000Z</time>
      </trkpt>
      <trkpt lat="42.930204" lon="0.557695">
        <ele>755.6</ele>
        <time>1970-01-01T05:40:00.000Z</time>
      </trkpt>
      <trkpt lat="42.930063" lon="0.557682">
        <ele>756.8</ele>
        <time>1970-01-01T05:40:06.000Z</time>
      </trkpt>
      <trkpt lat="42.929939" lon="0.557703">
        <ele>757.8</ele>
        <time>1970-01-01T05:40:11.000Z</time>
      </trkpt>
      <trkpt lat="42.929748" lon="0.557765">
        <ele>758.8</ele>
        <time>1970-01-01T05:40:19.000Z</time>
      </trkpt>
      <trkpt lat="42.929407" lon="0.557823">
        <ele>760.2</ele>
        <time>1970-01-01T05:40:33.000Z</time>
      </trkpt>
      <trkpt lat="42.929348" lon="0.557793">
        <ele>760.4</ele>
        <time>1970-01-01T05:40:37.000Z</time>
      </trkpt>
      <trkpt lat="42.929349" lon="0.557723">
        <ele>760.6</ele>
        <time>1970-01-01T05:40:41.000Z</time>
      </trkpt>
      <trkpt lat="42.929376" lon="0.557786">
        <ele>760.4</ele>
        <time>1970-01-01T05:51:20.000Z</time>
      </trkpt>
      <trkpt lat="42.929477" lon="0.557772">
        <ele>760.2</ele>
        <time>1970-01-01T05:51:24.000Z</time>
      </trkpt>
      <trkpt lat="42.929591" lon="0.557722">
        <ele>759.6</ele>
        <time>1970-01-01T05:51:30.000Z</time>
      </trkpt>
      <trkpt lat="42.929616" lon="0.557714">
        <ele>759.4</ele>
        <time>1970-01-01T05:52:45.000Z</time>
      </trkpt>
      <trkpt lat="42.929727" lon="0.557698">
        <ele>759.2</ele>
        <time>1970-01-01T05:52:50.000Z</time>
      </trkpt>
      <trkpt lat="42.929884" lon="0.557659">
        <ele>758.8</ele>
        <time>1970-01-01T05:52:54.000Z</time>
      </trkpt>
      <trkpt lat="42.929933" lon="0.557652">
        <ele>758.6</ele>
        <time>1970-01-01T05:52:55.000Z</time>
      </trkpt>
      <trkpt lat="42.930162" lon="0.557617">
        <ele>757.6</ele>
        <time>1970-01-01T05:52:59.000Z</time>
      </trkpt>
      <trkpt lat="42.930225" lon="0.557626">
        <ele>757.2</ele>
        <time>1970-01-01T05:53:00.000Z</time>
      </trkpt>
      <trkpt lat="42.93035" lon="0.55766">
        <ele>756.2</ele>
        <time>1970-01-01T05:53:02.000Z</time>
      </trkpt>
      <trkpt lat="42.930414" lon="0.557684">
        <ele>755.6</ele>
        <time>1970-01-01T05:53:03.000Z</time>
      </trkpt>
      <trkpt lat="42.930543" lon="0.557738">
        <ele>755</ele>
        <time>1970-01-01T05:53:05.000Z</time>
      </trkpt>
      <trkpt lat="42.93067" lon="0.557799">
        <ele>754</ele>
        <time>1970-01-01T05:53:07.000Z</time>
      </trkpt>
      <trkpt lat="42.930726" lon="0.557835">
        <ele>753.6</ele>
        <time>1970-01-01T05:53:08.000Z</time>
      </trkpt>
      <trkpt lat="42.930772" lon="0.557867">
        <ele>752.8</ele>
        <time>1970-01-01T05:53:09.000Z</time>
      </trkpt>
      <trkpt lat="42.930814" lon="0.557887">
        <ele>752.2</ele>
        <time>1970-01-01T05:53:10.000Z</time>
      </trkpt>
      <trkpt lat="42.93086" lon="0.557898">
        <ele>751.6</ele>
        <time>1970-01-01T05:53:11.000Z</time>
      </trkpt>
      <trkpt lat="42.931196" lon="0.557944">
        <ele>750.4</ele>
        <time>1970-01-01T05:53:17.000Z</time>
      </trkpt>
      <trkpt lat="42.931384" lon="0.557965">
        <ele>749.2</ele>
        <time>1970-01-01T05:53:20.000Z</time>
      </trkpt>
      <trkpt lat="42.931643" lon="0.558022">
        <ele>748.2</ele>
        <time>1970-01-01T05:53:24.000Z</time>
      </trkpt>
      <trkpt lat="42.931766" lon="0.558069">
        <ele>747</ele>
        <time>1970-01-01T05:53:27.000Z</time>
      </trkpt>
      <trkpt lat="42.93185" lon="0.558085">
        <ele>746.2</ele>
        <time>1970-01-01T05:53:34.000Z</time>
      </trkpt>
      <trkpt lat="42.93196" lon="0.558107">
        <ele>747.6</ele>
        <time>1970-01-01T05:54:02.000Z</time>
      </trkpt>
      <trkpt lat="42.931985" lon="0.558119">
        <ele>748</ele>
        <time>1970-01-01T05:54:04.000Z</time>
      </trkpt>
      <trkpt lat="42.932086" lon="0.558192">
        <ele>749.2</ele>
        <time>1970-01-01T05:54:12.000Z</time>
      </trkpt>
      <trkpt lat="42.932122" lon="0.558218">
        <ele>749.8</ele>
        <time>1970-01-01T05:54:15.000Z</time>
      </trkpt>
      <trkpt lat="42.932165" lon="0.558238">
        <ele>750.4</ele>
        <time>1970-01-01T05:54:19.000Z</time>
      </trkpt>
      <trkpt lat="42.932225" lon="0.558281">
        <ele>751.4</ele>
        <time>1970-01-01T05:54:26.000Z</time>
      </trkpt>
      <trkpt lat="42.932226" lon="0.558281">
        <ele>751.4</ele>
        <time>1970-01-01T05:54:27.000Z</time>
      </trkpt>
      <trkpt lat="42.932275" lon="0.558337">
        <ele>752.2</ele>
        <time>1970-01-01T05:54:47.000Z</time>
      </trkpt>
      <trkpt lat="42.932286" lon="0.558349">
        <ele>752.4</ele>
        <time>1970-01-01T05:54:48.000Z</time>
      </trkpt>
      <trkpt lat="42.932368" lon="0.558414">
        <ele>753.6</ele>
        <time>1970-01-01T05:54:54.000Z</time>
      </trkpt>
      <trkpt lat="42.932452" lon="0.558511">
        <ele>754.8</ele>
        <time>1970-01-01T05:55:01.000Z</time>
      </trkpt>
      <trkpt lat="42.932487" lon="0.558593">
        <ele>755.8</ele>
        <time>1970-01-01T05:55:05.000Z</time>
      </trkpt>
      <trkpt lat="42.932571" lon="0.558721">
        <ele>757</ele>
        <time>1970-01-01T05:55:12.000Z</time>
      </trkpt>
      <trkpt lat="42.932619" lon="0.558787">
        <ele>758.4</ele>
        <time>1970-01-01T05:55:16.000Z</time>
      </trkpt>
      <trkpt lat="42.932687" lon="0.558852">
        <ele>759.4</ele>
        <time>1970-01-01T05:55:21.000Z</time>
      </trkpt>
      <trkpt lat="42.932737" lon="0.558887">
        <ele>760.4</ele>
        <time>1970-01-01T05:55:25.000Z</time>
      </trkpt>
      <trkpt lat="42.932814" lon="0.558953">
        <ele>761.8</ele>
        <time>1970-01-01T05:55:31.000Z</time>
      </trkpt>
      <trkpt lat="42.932863" lon="0.559017">
        <ele>763</ele>
        <time>1970-01-01T05:55:36.000Z</time>
      </trkpt>
      <trkpt lat="42.932895" lon="0.559078">
        <ele>764.2</ele>
        <time>1970-01-01T05:55:40.000Z</time>
      </trkpt>
      <trkpt lat="42.932907" lon="0.559101">
        <ele>764.8</ele>
        <time>1970-01-01T05:55:42.000Z</time>
      </trkpt>
      <trkpt lat="42.932915" lon="0.559103">
        <ele>765.4</ele>
        <time>1970-01-01T05:55:45.000Z</time>
      </trkpt>
      <trkpt lat="42.932954" lon="0.559336">
        <ele>767.4</ele>
        <time>1970-01-01T05:56:01.000Z</time>
      </trkpt>
      <trkpt lat="42.932996" lon="0.559422">
        <ele>768.6</ele>
        <time>1970-01-01T05:56:06.000Z</time>
      </trkpt>
      <trkpt lat="42.933055" lon="0.559483">
        <ele>769.6</ele>
        <time>1970-01-01T05:56:11.000Z</time>
      </trkpt>
      <trkpt lat="42.933109" lon="0.559545">
        <ele>770.8</ele>
        <time>1970-01-01T05:56:16.000Z</time>
      </trkpt>
      <trkpt lat="42.933161" lon="0.559603">
        <ele>772</ele>
        <time>1970-01-01T05:56:21.000Z</time>
      </trkpt>
      <trkpt lat="42.933193" lon="0.559635">
        <ele>773.2</ele>
        <time>1970-01-01T05:56:24.000Z</time>
      </trkpt>
      <trkpt lat="42.933247" lon="0.559659">
        <ele>774.2</ele>
        <time>1970-01-01T05:56:28.000Z</time>
      </trkpt>
      <trkpt lat="42.933342" lon="0.5597">
        <ele>775.4</ele>
        <time>1970-01-01T05:56:35.000Z</time>
      </trkpt>
      <trkpt lat="42.933424" lon="0.559746">
        <ele>776.4</ele>
        <time>1970-01-01T05:56:41.000Z</time>
      </trkpt>
      <trkpt lat="42.933487" lon="0.559782">
        <ele>777.6</ele>
        <time>1970-01-01T05:56:46.000Z</time>
      </trkpt>
      <trkpt lat="42.933509" lon="0.559796">
        <ele>778</ele>
        <time>1970-01-01T05:56:48.000Z</time>
      </trkpt>
      <trkpt lat="42.933534" lon="0.559798">
        <ele>778.6</ele>
        <time>1970-01-01T05:56:50.000Z</time>
      </trkpt>
      <trkpt lat="42.933614" lon="0.559827">
        <ele>780</ele>
        <time>1970-01-01T05:56:56.000Z</time>
      </trkpt>
      <trkpt lat="42.933742" lon="0.559825">
        <ele>781</ele>
        <time>1970-01-01T05:57:05.000Z</time>
      </trkpt>
      <trkpt lat="42.93377" lon="0.559817">
        <ele>781.2</ele>
        <time>1970-01-01T05:57:07.000Z</time>
      </trkpt>
      <trkpt lat="42.933842" lon="0.559824">
        <ele>782</ele>
        <time>1970-01-01T05:57:12.000Z</time>
      </trkpt>
      <trkpt lat="42.93394" lon="0.559806">
        <ele>783</ele>
        <time>1970-01-01T05:57:19.000Z</time>
      </trkpt>
      <trkpt lat="42.934109" lon="0.559792">
        <ele>784</ele>
        <time>1970-01-01T05:57:30.000Z</time>
      </trkpt>
      <trkpt lat="42.934122" lon="0.559797">
        <ele>784</ele>
        <time>1970-01-01T05:57:31.000Z</time>
      </trkpt>
      <trkpt lat="42.9347" lon="0.559834">
        <ele>783.4</ele>
        <time>1970-01-01T05:57:51.000Z</time>
      </trkpt>
      <trkpt lat="42.9349" lon="0.559843">
        <ele>783.2</ele>
        <time>1970-01-01T05:57:56.000Z</time>
      </trkpt>
      <trkpt lat="42.935426" lon="0.559808">
        <ele>784.2</ele>
        <time>1970-01-01T05:58:13.000Z</time>
      </trkpt>
      <trkpt lat="42.935639" lon="0.55974">
        <ele>785.4</ele>
        <time>1970-01-01T05:58:22.000Z</time>
      </trkpt>
      <trkpt lat="42.93599" lon="0.559577">
        <ele>786.6</ele>
        <time>1970-01-01T05:58:37.000Z</time>
      </trkpt>
      <trkpt lat="42.936498" lon="0.559243">
        <ele>787.2</ele>
        <time>1970-01-01T05:58:57.000Z</time>
      </trkpt>
      <trkpt lat="42.936563" lon="0.559185">
        <ele>787.2</ele>
        <time>1970-01-01T05:58:59.000Z</time>
      </trkpt>
      <trkpt lat="42.936966" lon="0.558604">
        <ele>785.8</ele>
        <time>1970-01-01T05:59:12.000Z</time>
      </trkpt>
      <trkpt lat="42.937007" lon="0.558547">
        <ele>785.6</ele>
        <time>1970-01-01T05:59:13.000Z</time>
      </trkpt>
      <trkpt lat="42.93713" lon="0.558351">
        <ele>784.6</ele>
        <time>1970-01-01T05:59:16.000Z</time>
      </trkpt>
      <trkpt lat="42.937205" lon="0.558176">
        <ele>783.6</ele>
        <time>1970-01-01T05:59:18.000Z</time>
      </trkpt>
      <trkpt lat="42.937279" lon="0.557967">
        <ele>782</ele>
        <time>1970-01-01T05:59:20.000Z</time>
      </trkpt>
      <trkpt lat="42.937376" lon="0.557797">
        <ele>781.2</ele>
        <time>1970-01-01T05:59:22.000Z</time>
      </trkpt>
      <trkpt lat="42.937434" lon="0.557754">
        <ele>781.2</ele>
        <time>1970-01-01T05:59:23.000Z</time>
      </trkpt>
      <trkpt lat="42.937747" lon="0.55778">
        <ele>780.6</ele>
        <time>1970-01-01T05:59:28.000Z</time>
      </trkpt>
      <trkpt lat="42.938028" lon="0.557848">
        <ele>780.2</ele>
        <time>1970-01-01T05:59:33.000Z</time>
      </trkpt>
      <trkpt lat="42.938209" lon="0.55804">
        <ele>780.6</ele>
        <time>1970-01-01T05:59:38.000Z</time>
      </trkpt>
      <trkpt lat="42.938386" lon="0.558286">
        <ele>782.4</ele>
        <time>1970-01-01T05:59:45.000Z</time>
      </trkpt>
      <trkpt lat="42.93852" lon="0.558435">
        <ele>783.4</ele>
        <time>1970-01-01T05:59:50.000Z</time>
      </trkpt>
      <trkpt lat="42.938928" lon="0.558699">
        <ele>784.4</ele>
        <time>1970-01-01T06:00:02.000Z</time>
      </trkpt>
      <trkpt lat="42.939431" lon="0.559061">
        <ele>784.8</ele>
        <time>1970-01-01T06:00:18.000Z</time>
      </trkpt>
      <trkpt lat="42.939991" lon="0.559186">
        <ele>784.8</ele>
        <time>1970-01-01T06:00:31.000Z</time>
      </trkpt>
      <trkpt lat="42.940443" lon="0.559359">
        <ele>784.6</ele>
        <time>1970-01-01T06:00:42.000Z</time>
      </trkpt>
      <trkpt lat="42.940837" lon="0.559472">
        <ele>783.4</ele>
        <time>1970-01-01T06:00:50.000Z</time>
      </trkpt>
      <trkpt lat="42.940991" lon="0.559561">
        <ele>783</ele>
        <time>1970-01-01T06:00:53.000Z</time>
      </trkpt>
      <trkpt lat="42.94109" lon="0.559652">
        <ele>782.2</ele>
        <time>1970-01-01T06:00:55.000Z</time>
      </trkpt>
      <trkpt lat="42.941251" lon="0.559812">
        <ele>781.2</ele>
        <time>1970-01-01T06:00:58.000Z</time>
      </trkpt>
      <trkpt lat="42.94131" lon="0.559868">
        <ele>781</ele>
        <time>1970-01-01T06:00:59.000Z</time>
      </trkpt>
      <trkpt lat="42.941451" lon="0.559959">
        <ele>779.6</ele>
        <time>1970-01-01T06:01:01.000Z</time>
      </trkpt>
      <trkpt lat="42.941617" lon="0.560033">
        <ele>778</ele>
        <time>1970-01-01T06:01:03.000Z</time>
      </trkpt>
      <trkpt lat="42.941798" lon="0.560114">
        <ele>776.6</ele>
        <time>1970-01-01T06:01:05.000Z</time>
      </trkpt>
      <trkpt lat="42.941986" lon="0.560193">
        <ele>774.8</ele>
        <time>1970-01-01T06:01:07.000Z</time>
      </trkpt>
      <trkpt lat="42.942075" lon="0.560223">
        <ele>774</ele>
        <time>1970-01-01T06:01:08.000Z</time>
      </trkpt>
      <trkpt lat="42.942161" lon="0.560234">
        <ele>772.6</ele>
        <time>1970-01-01T06:01:09.000Z</time>
      </trkpt>
      <trkpt lat="42.942319" lon="0.560229">
        <ele>771.2</ele>
        <time>1970-01-01T06:01:11.000Z</time>
      </trkpt>
      <trkpt lat="42.942394" lon="0.560228">
        <ele>770</ele>
        <time>1970-01-01T06:01:12.000Z</time>
      </trkpt>
      <trkpt lat="42.942544" lon="0.56023">
        <ele>768.6</ele>
        <time>1970-01-01T06:01:14.000Z</time>
      </trkpt>
      <trkpt lat="42.9427" lon="0.560233">
        <ele>767.6</ele>
        <time>1970-01-01T06:01:16.000Z</time>
      </trkpt>
      <trkpt lat="42.942922" lon="0.560257">
        <ele>766</ele>
        <time>1970-01-01T06:01:19.000Z</time>
      </trkpt>
      <trkpt lat="42.943068" lon="0.560289">
        <ele>764.4</ele>
        <time>1970-01-01T06:01:21.000Z</time>
      </trkpt>
      <trkpt lat="42.94322" lon="0.560338">
        <ele>763.4</ele>
        <time>1970-01-01T06:01:23.000Z</time>
      </trkpt>
      <trkpt lat="42.943447" lon="0.560408">
        <ele>761.8</ele>
        <time>1970-01-01T06:01:26.000Z</time>
      </trkpt>
      <trkpt lat="42.943586" lon="0.560473">
        <ele>760.8</ele>
        <time>1970-01-01T06:01:28.000Z</time>
      </trkpt>
      <trkpt lat="42.943711" lon="0.560536">
        <ele>759.4</ele>
        <time>1970-01-01T06:01:30.000Z</time>
      </trkpt>
      <trkpt lat="42.94383" lon="0.560594">
        <ele>758</ele>
        <time>1970-01-01T06:01:32.000Z</time>
      </trkpt>
      <trkpt lat="42.94389" lon="0.560621">
        <ele>756.8</ele>
        <time>1970-01-01T06:01:33.000Z</time>
      </trkpt>
      <trkpt lat="42.943999" lon="0.560666">
        <ele>755.2</ele>
        <time>1970-01-01T06:01:35.000Z</time>
      </trkpt>
      <trkpt lat="42.944099" lon="0.560707">
        <ele>753</ele>
        <time>1970-01-01T06:01:37.000Z</time>
      </trkpt>
      <trkpt lat="42.944139" lon="0.560736">
        <ele>751.8</ele>
        <time>1970-01-01T06:01:38.000Z</time>
      </trkpt>
      <trkpt lat="42.944201" lon="0.560827">
        <ele>750.2</ele>
        <time>1970-01-01T06:01:40.000Z</time>
      </trkpt>
      <trkpt lat="42.944235" lon="0.560876">
        <ele>749</ele>
        <time>1970-01-01T06:01:41.000Z</time>
      </trkpt>
      <trkpt lat="42.944316" lon="0.560972">
        <ele>747.4</ele>
        <time>1970-01-01T06:01:43.000Z</time>
      </trkpt>
      <trkpt lat="42.944361" lon="0.561013">
        <ele>747</ele>
        <time>1970-01-01T06:01:44.000Z</time>
      </trkpt>
      <trkpt lat="42.944411" lon="0.561048">
        <ele>746.2</ele>
        <time>1970-01-01T06:01:45.000Z</time>
      </trkpt>
      <trkpt lat="42.944458" lon="0.561083">
        <ele>744.8</ele>
        <time>1970-01-01T06:01:46.000Z</time>
      </trkpt>
      <trkpt lat="42.944533" lon="0.561152">
        <ele>743</ele>
        <time>1970-01-01T06:01:48.000Z</time>
      </trkpt>
      <trkpt lat="42.944592" lon="0.561211">
        <ele>741.6</ele>
        <time>1970-01-01T06:01:50.000Z</time>
      </trkpt>
      <trkpt lat="42.944662" lon="0.561234">
        <ele>740.4</ele>
        <time>1970-01-01T06:01:52.000Z</time>
      </trkpt>
      <trkpt lat="42.944743" lon="0.561217">
        <ele>739.6</ele>
        <time>1970-01-01T06:01:54.000Z</time>
      </trkpt>
      <trkpt lat="42.944833" lon="0.561199">
        <ele>738.4</ele>
        <time>1970-01-01T06:01:58.000Z</time>
      </trkpt>
      <trkpt lat="42.944853" lon="0.56122">
        <ele>738</ele>
        <time>1970-01-01T06:02:00.000Z</time>
      </trkpt>
      <trkpt lat="42.944895" lon="0.561332">
        <ele>737</ele>
        <time>1970-01-01T06:02:03.000Z</time>
      </trkpt>
      <trkpt lat="42.94493" lon="0.561413">
        <ele>735.8</ele>
        <time>1970-01-01T06:02:05.000Z</time>
      </trkpt>
      <trkpt lat="42.944943" lon="0.561551">
        <ele>734.4</ele>
        <time>1970-01-01T06:02:08.000Z</time>
      </trkpt>
      <trkpt lat="42.944944" lon="0.561656">
        <ele>733.6</ele>
        <time>1970-01-01T06:02:10.000Z</time>
      </trkpt>
      <trkpt lat="42.944957" lon="0.561718">
        <ele>733.2</ele>
        <time>1970-01-01T06:02:11.000Z</time>
      </trkpt>
      <trkpt lat="42.944972" lon="0.561785">
        <ele>732.2</ele>
        <time>1970-01-01T06:02:12.000Z</time>
      </trkpt>
      <trkpt lat="42.944997" lon="0.561927">
        <ele>730.8</ele>
        <time>1970-01-01T06:02:14.000Z</time>
      </trkpt>
      <trkpt lat="42.94504" lon="0.562031">
        <ele>729.4</ele>
        <time>1970-01-01T06:02:16.000Z</time>
      </trkpt>
      <trkpt lat="42.945097" lon="0.562116">
        <ele>728</ele>
        <time>1970-01-01T06:02:18.000Z</time>
      </trkpt>
      <trkpt lat="42.945153" lon="0.562212">
        <ele>726.8</ele>
        <time>1970-01-01T06:02:20.000Z</time>
      </trkpt>
      <trkpt lat="42.945203" lon="0.562302">
        <ele>725.4</ele>
        <time>1970-01-01T06:02:22.000Z</time>
      </trkpt>
      <trkpt lat="42.945243" lon="0.562379">
        <ele>724.2</ele>
        <time>1970-01-01T06:02:24.000Z</time>
      </trkpt>
      <trkpt lat="42.945273" lon="0.562419">
        <ele>723.2</ele>
        <time>1970-01-01T06:02:26.000Z</time>
      </trkpt>
      <trkpt lat="42.945294" lon="0.56242">
        <ele>722.6</ele>
        <time>1970-01-01T06:02:28.000Z</time>
      </trkpt>
      <trkpt lat="42.945374" lon="0.562305">
        <ele>722</ele>
        <time>1970-01-01T06:02:32.000Z</time>
      </trkpt>
      <trkpt lat="42.945397" lon="0.562255">
        <ele>721.8</ele>
        <time>1970-01-01T06:02:33.000Z</time>
      </trkpt>
      <trkpt lat="42.945441" lon="0.562126">
        <ele>721</ele>
        <time>1970-01-01T06:02:36.000Z</time>
      </trkpt>
      <trkpt lat="42.945453" lon="0.562019">
        <ele>720.8</ele>
        <time>1970-01-01T06:02:41.000Z</time>
      </trkpt>
      <trkpt lat="42.9454" lon="0.562122">
        <ele>720.8</ele>
        <time>1970-01-01T06:02:50.000Z</time>
      </trkpt>
      <trkpt lat="42.945366" lon="0.562204">
        <ele>721</ele>
        <time>1970-01-01T06:03:04.000Z</time>
      </trkpt>
      <trkpt lat="42.945279" lon="0.562303">
        <ele>722</ele>
        <time>1970-01-01T06:03:09.000Z</time>
      </trkpt>
      <trkpt lat="42.945156" lon="0.562591">
        <ele>721.2</ele>
        <time>1970-01-01T06:03:17.000Z</time>
      </trkpt>
      <trkpt lat="42.945131" lon="0.562642">
        <ele>720.8</ele>
        <time>1970-01-01T06:03:18.000Z</time>
      </trkpt>
      <trkpt lat="42.944999" lon="0.562815">
        <ele>719.8</ele>
        <time>1970-01-01T06:03:22.000Z</time>
      </trkpt>
      <trkpt lat="42.944909" lon="0.562905">
        <ele>718.6</ele>
        <time>1970-01-01T06:03:25.000Z</time>
      </trkpt>
      <trkpt lat="42.944805" lon="0.562973">
        <ele>717.8</ele>
        <time>1970-01-01T06:03:28.000Z</time>
      </trkpt>
      <trkpt lat="42.944759" lon="0.562983">
        <ele>717.4</ele>
        <time>1970-01-01T06:03:29.000Z</time>
      </trkpt>
      <trkpt lat="42.94466" lon="0.563019">
        <ele>717</ele>
        <time>1970-01-01T06:03:31.000Z</time>
      </trkpt>
      <trkpt lat="42.944554" lon="0.563086">
        <ele>716.4</ele>
        <time>1970-01-01T06:03:33.000Z</time>
      </trkpt>
      <trkpt lat="42.944443" lon="0.563217">
        <ele>715.2</ele>
        <time>1970-01-01T06:03:36.000Z</time>
      </trkpt>
      <trkpt lat="42.944475" lon="0.563301">
        <ele>714</ele>
        <time>1970-01-01T06:03:40.000Z</time>
      </trkpt>
      <trkpt lat="42.944504" lon="0.563292">
        <ele>713.8</ele>
        <time>1970-01-01T06:03:41.000Z</time>
      </trkpt>
      <trkpt lat="42.944542" lon="0.563283">
        <ele>713.4</ele>
        <time>1970-01-01T06:03:42.000Z</time>
      </trkpt>
      <trkpt lat="42.94464" lon="0.56328">
        <ele>712.8</ele>
        <time>1970-01-01T06:03:44.000Z</time>
      </trkpt>
      <trkpt lat="42.94489" lon="0.563307">
        <ele>711.4</ele>
        <time>1970-01-01T06:03:48.000Z</time>
      </trkpt>
      <trkpt lat="42.945014" lon="0.563321">
        <ele>710.4</ele>
        <time>1970-01-01T06:03:50.000Z</time>
      </trkpt>
      <trkpt lat="42.945107" lon="0.563401">
        <ele>709.2</ele>
        <time>1970-01-01T06:03:52.000Z</time>
      </trkpt>
      <trkpt lat="42.945165" lon="0.56355">
        <ele>708.2</ele>
        <time>1970-01-01T06:03:54.000Z</time>
      </trkpt>
      <trkpt lat="42.945287" lon="0.563628">
        <ele>706.6</ele>
        <time>1970-01-01T06:03:56.000Z</time>
      </trkpt>
      <trkpt lat="42.945429" lon="0.563602">
        <ele>705.2</ele>
        <time>1970-01-01T06:03:58.000Z</time>
      </trkpt>
      <trkpt lat="42.945496" lon="0.563572">
        <ele>705</ele>
        <time>1970-01-01T06:03:59.000Z</time>
      </trkpt>
      <trkpt lat="42.945836" lon="0.563449">
        <ele>704</ele>
        <time>1970-01-01T06:04:04.000Z</time>
      </trkpt>
      <trkpt lat="42.946173" lon="0.563409">
        <ele>703</ele>
        <time>1970-01-01T06:04:09.000Z</time>
      </trkpt>
      <trkpt lat="42.946309" lon="0.563407">
        <ele>702.4</ele>
        <time>1970-01-01T06:04:11.000Z</time>
      </trkpt>
      <trkpt lat="42.946381" lon="0.563382">
        <ele>702</ele>
        <time>1970-01-01T06:04:12.000Z</time>
      </trkpt>
      <trkpt lat="42.94653" lon="0.563302">
        <ele>700.8</ele>
        <time>1970-01-01T06:04:14.000Z</time>
      </trkpt>
      <trkpt lat="42.946688" lon="0.563187">
        <ele>699.4</ele>
        <time>1970-01-01T06:04:16.000Z</time>
      </trkpt>
      <trkpt lat="42.946849" lon="0.563034">
        <ele>698.2</ele>
        <time>1970-01-01T06:04:18.000Z</time>
      </trkpt>
      <trkpt lat="42.946989" lon="0.562838">
        <ele>696.6</ele>
        <time>1970-01-01T06:04:20.000Z</time>
      </trkpt>
      <trkpt lat="42.947059" lon="0.562739">
        <ele>695.4</ele>
        <time>1970-01-01T06:04:21.000Z</time>
      </trkpt>
      <trkpt lat="42.947132" lon="0.562655">
        <ele>694.4</ele>
        <time>1970-01-01T06:04:22.000Z</time>
      </trkpt>
      <trkpt lat="42.94721" lon="0.562585">
        <ele>693.2</ele>
        <time>1970-01-01T06:04:23.000Z</time>
      </trkpt>
      <trkpt lat="42.947384" lon="0.562487">
        <ele>691.4</ele>
        <time>1970-01-01T06:04:25.000Z</time>
      </trkpt>
      <trkpt lat="42.947576" lon="0.562479">
        <ele>689.6</ele>
        <time>1970-01-01T06:04:27.000Z</time>
      </trkpt>
      <trkpt lat="42.947743" lon="0.562561">
        <ele>688.2</ele>
        <time>1970-01-01T06:04:29.000Z</time>
      </trkpt>
      <trkpt lat="42.947819" lon="0.562696">
        <ele>686.6</ele>
        <time>1970-01-01T06:04:31.000Z</time>
      </trkpt>
      <trkpt lat="42.947819" lon="0.562761">
        <ele>685.4</ele>
        <time>1970-01-01T06:04:32.000Z</time>
      </trkpt>
      <trkpt lat="42.947709" lon="0.562938">
        <ele>684</ele>
        <time>1970-01-01T06:04:35.000Z</time>
      </trkpt>
      <trkpt lat="42.947638" lon="0.563067">
        <ele>682.8</ele>
        <time>1970-01-01T06:04:37.000Z</time>
      </trkpt>
      <trkpt lat="42.947664" lon="0.563235">
        <ele>681.6</ele>
        <time>1970-01-01T06:04:39.000Z</time>
      </trkpt>
      <trkpt lat="42.947749" lon="0.563394">
        <ele>680.2</ele>
        <time>1970-01-01T06:04:41.000Z</time>
      </trkpt>
      <trkpt lat="42.947879" lon="0.563518">
        <ele>679.2</ele>
        <time>1970-01-01T06:04:43.000Z</time>
      </trkpt>
      <trkpt lat="42.947955" lon="0.563573">
        <ele>678.6</ele>
        <time>1970-01-01T06:04:44.000Z</time>
      </trkpt>
      <trkpt lat="42.948032" lon="0.563634">
        <ele>677.6</ele>
        <time>1970-01-01T06:04:45.000Z</time>
      </trkpt>
      <trkpt lat="42.948191" lon="0.563774">
        <ele>676</ele>
        <time>1970-01-01T06:04:47.000Z</time>
      </trkpt>
      <trkpt lat="42.948278" lon="0.563835">
        <ele>675.2</ele>
        <time>1970-01-01T06:04:48.000Z</time>
      </trkpt>
      <trkpt lat="42.948368" lon="0.563874">
        <ele>673.8</ele>
        <time>1970-01-01T06:04:49.000Z</time>
      </trkpt>
      <trkpt lat="42.948513" lon="0.563943">
        <ele>671.8</ele>
        <time>1970-01-01T06:04:51.000Z</time>
      </trkpt>
      <trkpt lat="42.948579" lon="0.564037">
        <ele>669.8</ele>
        <time>1970-01-01T06:04:53.000Z</time>
      </trkpt>
      <trkpt lat="42.948584" lon="0.564116">
        <ele>668.8</ele>
        <time>1970-01-01T06:04:55.000Z</time>
      </trkpt>
      <trkpt lat="42.948572" lon="0.564161">
        <ele>668</ele>
        <time>1970-01-01T06:04:57.000Z</time>
      </trkpt>
      <trkpt lat="42.948565" lon="0.564181">
        <ele>667.8</ele>
        <time>1970-01-01T06:04:58.000Z</time>
      </trkpt>
      <trkpt lat="42.948512" lon="0.564344">
        <ele>666.8</ele>
        <time>1970-01-01T06:05:03.000Z</time>
      </trkpt>
      <trkpt lat="42.948522" lon="0.56439">
        <ele>666.4</ele>
        <time>1970-01-01T06:05:04.000Z</time>
      </trkpt>
      <trkpt lat="42.948591" lon="0.564454">
        <ele>665</ele>
        <time>1970-01-01T06:05:06.000Z</time>
      </trkpt>
      <trkpt lat="42.948713" lon="0.564414">
        <ele>663.8</ele>
        <time>1970-01-01T06:05:08.000Z</time>
      </trkpt>
      <trkpt lat="42.94887" lon="0.564325">
        <ele>663</ele>
        <time>1970-01-01T06:05:10.000Z</time>
      </trkpt>
      <trkpt lat="42.948954" lon="0.564279">
        <ele>662.4</ele>
        <time>1970-01-01T06:05:11.000Z</time>
      </trkpt>
      <trkpt lat="42.949037" lon="0.564252">
        <ele>661.2</ele>
        <time>1970-01-01T06:05:12.000Z</time>
      </trkpt>
      <trkpt lat="42.949204" lon="0.564277">
        <ele>659.8</ele>
        <time>1970-01-01T06:05:14.000Z</time>
      </trkpt>
      <trkpt lat="42.949298" lon="0.564289">
        <ele>658.6</ele>
        <time>1970-01-01T06:05:15.000Z</time>
      </trkpt>
      <trkpt lat="42.949499" lon="0.564299">
        <ele>656.6</ele>
        <time>1970-01-01T06:05:17.000Z</time>
      </trkpt>
      <trkpt lat="42.94971" lon="0.564317">
        <ele>655</ele>
        <time>1970-01-01T06:05:19.000Z</time>
      </trkpt>
      <trkpt lat="42.949913" lon="0.564324">
        <ele>653</ele>
        <time>1970-01-01T06:05:21.000Z</time>
      </trkpt>
      <trkpt lat="42.950063" lon="0.564338">
        <ele>650.6</ele>
        <time>1970-01-01T06:05:23.000Z</time>
      </trkpt>
      <trkpt lat="42.950117" lon="0.564365">
        <ele>649.4</ele>
        <time>1970-01-01T06:05:24.000Z</time>
      </trkpt>
      <trkpt lat="42.950174" lon="0.564461">
        <ele>647.8</ele>
        <time>1970-01-01T06:05:26.000Z</time>
      </trkpt>
      <trkpt lat="42.950149" lon="0.564583">
        <ele>646.6</ele>
        <time>1970-01-01T06:05:28.000Z</time>
      </trkpt>
      <trkpt lat="42.950014" lon="0.564722">
        <ele>645.6</ele>
        <time>1970-01-01T06:05:31.000Z</time>
      </trkpt>
      <trkpt lat="42.949903" lon="0.564893">
        <ele>644.4</ele>
        <time>1970-01-01T06:05:34.000Z</time>
      </trkpt>
      <trkpt lat="42.949918" lon="0.565001">
        <ele>643.2</ele>
        <time>1970-01-01T06:05:36.000Z</time>
      </trkpt>
      <trkpt lat="42.950034" lon="0.564997">
        <ele>642</ele>
        <time>1970-01-01T06:05:38.000Z</time>
      </trkpt>
      <trkpt lat="42.950108" lon="0.564966">
        <ele>641.6</ele>
        <time>1970-01-01T06:05:39.000Z</time>
      </trkpt>
      <trkpt lat="42.950185" lon="0.56494">
        <ele>641</ele>
        <time>1970-01-01T06:05:40.000Z</time>
      </trkpt>
      <trkpt lat="42.950265" lon="0.564927">
        <ele>640</ele>
        <time>1970-01-01T06:05:41.000Z</time>
      </trkpt>
      <trkpt lat="42.950348" lon="0.564927">
        <ele>639.4</ele>
        <time>1970-01-01T06:05:42.000Z</time>
      </trkpt>
      <trkpt lat="42.950522" lon="0.564935">
        <ele>638</ele>
        <time>1970-01-01T06:05:44.000Z</time>
      </trkpt>
      <trkpt lat="42.950708" lon="0.564959">
        <ele>636.8</ele>
        <time>1970-01-01T06:05:46.000Z</time>
      </trkpt>
      <trkpt lat="42.9509" lon="0.565014">
        <ele>634.8</ele>
        <time>1970-01-01T06:05:48.000Z</time>
      </trkpt>
      <trkpt lat="42.951108" lon="0.565084">
        <ele>633</ele>
        <time>1970-01-01T06:05:50.000Z</time>
      </trkpt>
      <trkpt lat="42.951309" lon="0.56514">
        <ele>631.8</ele>
        <time>1970-01-01T06:05:52.000Z</time>
      </trkpt>
      <trkpt lat="42.951506" lon="0.56519">
        <ele>630.6</ele>
        <time>1970-01-01T06:05:54.000Z</time>
      </trkpt>
      <trkpt lat="42.951695" lon="0.565232">
        <ele>629.4</ele>
        <time>1970-01-01T06:05:56.000Z</time>
      </trkpt>
      <trkpt lat="42.951879" lon="0.565273">
        <ele>628.2</ele>
        <time>1970-01-01T06:05:58.000Z</time>
      </trkpt>
      <trkpt lat="42.952064" lon="0.565313">
        <ele>627</ele>
        <time>1970-01-01T06:06:00.000Z</time>
      </trkpt>
      <trkpt lat="42.952332" lon="0.56539">
        <ele>625.6</ele>
        <time>1970-01-01T06:06:03.000Z</time>
      </trkpt>
      <trkpt lat="42.952588" lon="0.565453">
        <ele>624.4</ele>
        <time>1970-01-01T06:06:06.000Z</time>
      </trkpt>
      <trkpt lat="42.95283" lon="0.565504">
        <ele>623.2</ele>
        <time>1970-01-01T06:06:09.000Z</time>
      </trkpt>
      <trkpt lat="42.953079" lon="0.565527">
        <ele>622</ele>
        <time>1970-01-01T06:06:12.000Z</time>
      </trkpt>
      <trkpt lat="42.953317" lon="0.565543">
        <ele>621</ele>
        <time>1970-01-01T06:06:15.000Z</time>
      </trkpt>
      <trkpt lat="42.953398" lon="0.565554">
        <ele>620.4</ele>
        <time>1970-01-01T06:06:16.000Z</time>
      </trkpt>
      <trkpt lat="42.953734" lon="0.565595">
        <ele>619.2</ele>
        <time>1970-01-01T06:06:20.000Z</time>
      </trkpt>
      <trkpt lat="42.954097" lon="0.56564">
        <ele>618</ele>
        <time>1970-01-01T06:06:25.000Z</time>
      </trkpt>
      <trkpt lat="42.954434" lon="0.565686">
        <ele>617.4</ele>
        <time>1970-01-01T06:06:30.000Z</time>
      </trkpt>
      <trkpt lat="42.954562" lon="0.565742">
        <ele>617</ele>
        <time>1970-01-01T06:06:32.000Z</time>
      </trkpt>
      <trkpt lat="42.954632" lon="0.56576">
        <ele>616.6</ele>
        <time>1970-01-01T06:06:33.000Z</time>
      </trkpt>
      <trkpt lat="42.955036" lon="0.565762">
        <ele>616.2</ele>
        <time>1970-01-01T06:06:41.000Z</time>
      </trkpt>
      <trkpt lat="42.955151" lon="0.565768">
        <ele>615.8</ele>
        <time>1970-01-01T06:06:43.000Z</time>
      </trkpt>
      <trkpt lat="42.955363" lon="0.565772">
        <ele>614.6</ele>
        <time>1970-01-01T06:06:46.000Z</time>
      </trkpt>
      <trkpt lat="42.955509" lon="0.565789">
        <ele>613.4</ele>
        <time>1970-01-01T06:06:48.000Z</time>
      </trkpt>
      <trkpt lat="42.956062" lon="0.565878">
        <ele>612.6</ele>
        <time>1970-01-01T06:06:56.000Z</time>
      </trkpt>
      <trkpt lat="42.956658" lon="0.565938">
        <ele>612.4</ele>
        <time>1970-01-01T06:07:07.000Z</time>
      </trkpt>
      <trkpt lat="42.956899" lon="0.565968">
        <ele>611.2</ele>
        <time>1970-01-01T06:07:10.000Z</time>
      </trkpt>
      <trkpt lat="42.957073" lon="0.565972">
        <ele>610.2</ele>
        <time>1970-01-01T06:07:12.000Z</time>
      </trkpt>
      <trkpt lat="42.957256" lon="0.565954">
        <ele>608.2</ele>
        <time>1970-01-01T06:07:14.000Z</time>
      </trkpt>
      <trkpt lat="42.957345" lon="0.565944">
        <ele>606.6</ele>
        <time>1970-01-01T06:07:15.000Z</time>
      </trkpt>
      <trkpt lat="42.957434" lon="0.565946">
        <ele>605.2</ele>
        <time>1970-01-01T06:07:16.000Z</time>
      </trkpt>
      <trkpt lat="42.957526" lon="0.565959">
        <ele>603.2</ele>
        <time>1970-01-01T06:07:17.000Z</time>
      </trkpt>
      <trkpt lat="42.957609" lon="0.565985">
        <ele>602.2</ele>
        <time>1970-01-01T06:07:18.000Z</time>
      </trkpt>
      <trkpt lat="42.957684" lon="0.566028">
        <ele>601</ele>
        <time>1970-01-01T06:07:19.000Z</time>
      </trkpt>
      <trkpt lat="42.957818" lon="0.566142">
        <ele>599</ele>
        <time>1970-01-01T06:07:21.000Z</time>
      </trkpt>
      <trkpt lat="42.957926" lon="0.566276">
        <ele>597.8</ele>
        <time>1970-01-01T06:07:23.000Z</time>
      </trkpt>
      <trkpt lat="42.957983" lon="0.566329">
        <ele>597</ele>
        <time>1970-01-01T06:07:24.000Z</time>
      </trkpt>
      <trkpt lat="42.958042" lon="0.566371">
        <ele>595.8</ele>
        <time>1970-01-01T06:07:25.000Z</time>
      </trkpt>
      <trkpt lat="42.958143" lon="0.566424">
        <ele>594.6</ele>
        <time>1970-01-01T06:07:27.000Z</time>
      </trkpt>
      <trkpt lat="42.958241" lon="0.566427">
        <ele>593.4</ele>
        <time>1970-01-01T06:07:30.000Z</time>
      </trkpt>
      <trkpt lat="42.958353" lon="0.566455">
        <ele>592</ele>
        <time>1970-01-01T06:07:34.000Z</time>
      </trkpt>
      <trkpt lat="42.958424" lon="0.566546">
        <ele>591</ele>
        <time>1970-01-01T06:07:37.000Z</time>
      </trkpt>
      <trkpt lat="42.958473" lon="0.566627">
        <ele>589.8</ele>
        <time>1970-01-01T06:07:39.000Z</time>
      </trkpt>
      <trkpt lat="42.958531" lon="0.566707">
        <ele>588.4</ele>
        <time>1970-01-01T06:07:41.000Z</time>
      </trkpt>
      <trkpt lat="42.958562" lon="0.566797">
        <ele>586.8</ele>
        <time>1970-01-01T06:07:43.000Z</time>
      </trkpt>
      <trkpt lat="42.958555" lon="0.566894">
        <ele>585.8</ele>
        <time>1970-01-01T06:07:45.000Z</time>
      </trkpt>
      <trkpt lat="42.958504" lon="0.567087">
        <ele>585.2</ele>
        <time>1970-01-01T06:07:49.000Z</time>
      </trkpt>
      <trkpt lat="42.95849" lon="0.567184">
        <ele>585.6</ele>
        <time>1970-01-01T06:07:53.000Z</time>
      </trkpt>
      <trkpt lat="42.958571" lon="0.567278">
        <ele>585</ele>
        <time>1970-01-01T06:07:57.000Z</time>
      </trkpt>
      <trkpt lat="42.958644" lon="0.567327">
        <ele>584.6</ele>
        <time>1970-01-01T06:07:59.000Z</time>
      </trkpt>
      <trkpt lat="42.958875" lon="0.567427">
        <ele>583.4</ele>
        <time>1970-01-01T06:08:04.000Z</time>
      </trkpt>
      <trkpt lat="42.959039" lon="0.567411">
        <ele>583.2</ele>
        <time>1970-01-01T06:08:07.000Z</time>
      </trkpt>
      <trkpt lat="42.959142" lon="0.567412">
        <ele>583.4</ele>
        <time>1970-01-01T06:08:09.000Z</time>
      </trkpt>
      <trkpt lat="42.95939" lon="0.56755">
        <ele>582.6</ele>
        <time>1970-01-01T06:08:16.000Z</time>
      </trkpt>
      <trkpt lat="42.959443" lon="0.567496">
        <ele>582.6</ele>
        <time>1970-01-01T06:08:19.000Z</time>
      </trkpt>
      <trkpt lat="42.959749" lon="0.567167">
        <ele>583.8</ele>
        <time>1970-01-01T06:08:32.000Z</time>
      </trkpt>
      <trkpt lat="42.959809" lon="0.567068">
        <ele>585</ele>
        <time>1970-01-01T06:08:36.000Z</time>
      </trkpt>
      <trkpt lat="42.959898" lon="0.566906">
        <ele>586</ele>
        <time>1970-01-01T06:08:42.000Z</time>
      </trkpt>
      <trkpt lat="42.959946" lon="0.566788">
        <ele>587</ele>
        <time>1970-01-01T06:08:46.000Z</time>
      </trkpt>
      <trkpt lat="42.960004" lon="0.566631">
        <ele>588.4</ele>
        <time>1970-01-01T06:08:52.000Z</time>
      </trkpt>
      <trkpt lat="42.960084" lon="0.566462">
        <ele>589.4</ele>
        <time>1970-01-01T06:08:59.000Z</time>
      </trkpt>
      <trkpt lat="42.960154" lon="0.566356">
        <ele>590.8</ele>
        <time>1970-01-01T06:09:04.000Z</time>
      </trkpt>
      <trkpt lat="42.960242" lon="0.566229">
        <ele>592</ele>
        <time>1970-01-01T06:09:10.000Z</time>
      </trkpt>
      <trkpt lat="42.960362" lon="0.566095">
        <ele>593</ele>
        <time>1970-01-01T06:09:17.000Z</time>
      </trkpt>
      <trkpt lat="42.960456" lon="0.566033">
        <ele>594</ele>
        <time>1970-01-01T06:09:23.000Z</time>
      </trkpt>
      <trkpt lat="42.960663" lon="0.565989">
        <ele>595.4</ele>
        <time>1970-01-01T06:09:33.000Z</time>
      </trkpt>
      <trkpt lat="42.960795" lon="0.565858">
        <ele>596.4</ele>
        <time>1970-01-01T06:09:41.000Z</time>
      </trkpt>
      <trkpt lat="42.960877" lon="0.565773">
        <ele>597.2</ele>
        <time>1970-01-01T06:09:48.000Z</time>
      </trkpt>
      <trkpt lat="42.960829" lon="0.565649">
        <ele>598.6</ele>
        <time>1970-01-01T06:17:27.000Z</time>
      </trkpt>
      <trkpt lat="42.960871" lon="0.565719">
        <ele>598</ele>
        <time>1970-01-01T06:17:35.000Z</time>
      </trkpt>
      <trkpt lat="42.960873" lon="0.565773">
        <ele>597.8</ele>
        <time>1970-01-01T06:21:05.000Z</time>
      </trkpt>
      <trkpt lat="42.961143" lon="0.565886">
        <ele>597.8</ele>
        <time>1970-01-01T06:21:14.000Z</time>
      </trkpt>
      <trkpt lat="42.961258" lon="0.565957">
        <ele>597.6</ele>
        <time>1970-01-01T06:21:17.000Z</time>
      </trkpt>
      <trkpt lat="42.961575" lon="0.566208">
        <ele>597.4</ele>
        <time>1970-01-01T06:21:25.000Z</time>
      </trkpt>
      <trkpt lat="42.961716" lon="0.566448">
        <ele>597</ele>
        <time>1970-01-01T06:21:29.000Z</time>
      </trkpt>
      <trkpt lat="42.961786" lon="0.566578">
        <ele>596.8</ele>
        <time>1970-01-01T06:21:31.000Z</time>
      </trkpt>
      <trkpt lat="42.961927" lon="0.566757">
        <ele>595.8</ele>
        <time>1970-01-01T06:21:34.000Z</time>
      </trkpt>
      <trkpt lat="42.961991" lon="0.566806">
        <ele>595.4</ele>
        <time>1970-01-01T06:21:35.000Z</time>
      </trkpt>
      <trkpt lat="42.962265" lon="0.566962">
        <ele>594.4</ele>
        <time>1970-01-01T06:21:39.000Z</time>
      </trkpt>
      <trkpt lat="42.962482" lon="0.567084">
        <ele>593.2</ele>
        <time>1970-01-01T06:21:42.000Z</time>
      </trkpt>
      <trkpt lat="42.962709" lon="0.567227">
        <ele>592.4</ele>
        <time>1970-01-01T06:21:45.000Z</time>
      </trkpt>
      <trkpt lat="42.962924" lon="0.567393">
        <ele>591.2</ele>
        <time>1970-01-01T06:21:48.000Z</time>
      </trkpt>
      <trkpt lat="42.96338" lon="0.567731">
        <ele>590.4</ele>
        <time>1970-01-01T06:21:55.000Z</time>
      </trkpt>
      <trkpt lat="42.963748" lon="0.568277">
        <ele>592.4</ele>
        <time>1970-01-01T06:22:06.000Z</time>
      </trkpt>
      <trkpt lat="42.963898" lon="0.56846">
        <ele>593.6</ele>
        <time>1970-01-01T06:22:14.000Z</time>
      </trkpt>
      <trkpt lat="42.963905" lon="0.568416">
        <ele>593.4</ele>
        <time>1970-01-01T06:22:17.000Z</time>
      </trkpt>
      <trkpt lat="42.96387" lon="0.56834">
        <ele>593.8</ele>
        <time>1970-01-01T06:22:25.000Z</time>
      </trkpt>
      <trkpt lat="42.963901" lon="0.568355">
        <ele>594.4</ele>
        <time>1970-01-01T06:22:27.000Z</time>
      </trkpt>
      <trkpt lat="42.963936" lon="0.568371">
        <ele>595</ele>
        <time>1970-01-01T06:22:29.000Z</time>
      </trkpt>
      <trkpt lat="42.964006" lon="0.568369">
        <ele>596</ele>
        <time>1970-01-01T06:22:33.000Z</time>
      </trkpt>
      <trkpt lat="42.964068" lon="0.56836">
        <ele>597</ele>
        <time>1970-01-01T06:22:36.000Z</time>
      </trkpt>
      <trkpt lat="42.964168" lon="0.568362">
        <ele>598.2</ele>
        <time>1970-01-01T06:22:41.000Z</time>
      </trkpt>
      <trkpt lat="42.964253" lon="0.568366">
        <ele>599.4</ele>
        <time>1970-01-01T06:22:45.000Z</time>
      </trkpt>
      <trkpt lat="42.964461" lon="0.568541">
        <ele>600.8</ele>
        <time>1970-01-01T06:22:55.000Z</time>
      </trkpt>
      <trkpt lat="42.964945" lon="0.568898">
        <ele>600.6</ele>
        <time>1970-01-01T06:23:14.000Z</time>
      </trkpt>
      <trkpt lat="42.965167" lon="0.569035">
        <ele>599.6</ele>
        <time>1970-01-01T06:23:18.000Z</time>
      </trkpt>
      <trkpt lat="42.965612" lon="0.569504">
        <ele>599.2</ele>
        <time>1970-01-01T06:23:29.000Z</time>
      </trkpt>
      <trkpt lat="42.96573" lon="0.569697">
        <ele>598.4</ele>
        <time>1970-01-01T06:23:33.000Z</time>
      </trkpt>
      <trkpt lat="42.965816" lon="0.569828">
        <ele>597.8</ele>
        <time>1970-01-01T06:23:35.000Z</time>
      </trkpt>
      <trkpt lat="42.965867" lon="0.569902">
        <ele>597.4</ele>
        <time>1970-01-01T06:23:36.000Z</time>
      </trkpt>
      <trkpt lat="42.965923" lon="0.569969">
        <ele>597.2</ele>
        <time>1970-01-01T06:23:37.000Z</time>
      </trkpt>
      <trkpt lat="42.966192" lon="0.570245">
        <ele>598.6</ele>
        <time>1970-01-01T06:23:44.000Z</time>
      </trkpt>
      <trkpt lat="42.966312" lon="0.570415">
        <ele>599.6</ele>
        <time>1970-01-01T06:23:49.000Z</time>
      </trkpt>
      <trkpt lat="42.966689" lon="0.57079">
        <ele>600.6</ele>
        <time>1970-01-01T06:24:05.000Z</time>
      </trkpt>
      <trkpt lat="42.966961" lon="0.571106">
        <ele>601.6</ele>
        <time>1970-01-01T06:24:18.000Z</time>
      </trkpt>
      <trkpt lat="42.967163" lon="0.57128">
        <ele>602.6</ele>
        <time>1970-01-01T06:24:26.000Z</time>
      </trkpt>
      <trkpt lat="42.967269" lon="0.571361">
        <ele>602.6</ele>
        <time>1970-01-01T06:24:29.000Z</time>
      </trkpt>
      <trkpt lat="42.967501" lon="0.571505">
        <ele>602</ele>
        <time>1970-01-01T06:24:34.000Z</time>
      </trkpt>
      <trkpt lat="42.967617" lon="0.571548">
        <ele>601.4</ele>
        <time>1970-01-01T06:24:36.000Z</time>
      </trkpt>
      <trkpt lat="42.967793" lon="0.571656">
        <ele>601.2</ele>
        <time>1970-01-01T06:24:40.000Z</time>
      </trkpt>
      <trkpt lat="42.967866" lon="0.571833">
        <ele>600.2</ele>
        <time>1970-01-01T06:24:43.000Z</time>
      </trkpt>
      <trkpt lat="42.967899" lon="0.571903">
        <ele>599.4</ele>
        <time>1970-01-01T06:24:44.000Z</time>
      </trkpt>
      <trkpt lat="42.967934" lon="0.571957">
        <ele>598.6</ele>
        <time>1970-01-01T06:24:45.000Z</time>
      </trkpt>
      <trkpt lat="42.968036" lon="0.572016">
        <ele>597.4</ele>
        <time>1970-01-01T06:24:47.000Z</time>
      </trkpt>
      <trkpt lat="42.968096" lon="0.572035">
        <ele>596.2</ele>
        <time>1970-01-01T06:24:48.000Z</time>
      </trkpt>
      <trkpt lat="42.968142" lon="0.572078">
        <ele>595.8</ele>
        <time>1970-01-01T06:24:49.000Z</time>
      </trkpt>
      <trkpt lat="42.968251" lon="0.572231">
        <ele>594</ele>
        <time>1970-01-01T06:24:52.000Z</time>
      </trkpt>
      <trkpt lat="42.968301" lon="0.57225">
        <ele>593.6</ele>
        <time>1970-01-01T06:24:53.000Z</time>
      </trkpt>
      <trkpt lat="42.968399" lon="0.572304">
        <ele>592.6</ele>
        <time>1970-01-01T06:24:55.000Z</time>
      </trkpt>
      <trkpt lat="42.968455" lon="0.572345">
        <ele>592</ele>
        <time>1970-01-01T06:24:58.000Z</time>
      </trkpt>
      <trkpt lat="42.968486" lon="0.572384">
        <ele>591.4</ele>
        <time>1970-01-01T06:25:02.000Z</time>
      </trkpt>
      <trkpt lat="42.968621" lon="0.572448">
        <ele>592.4</ele>
        <time>1970-01-01T06:25:16.000Z</time>
      </trkpt>
      <trkpt lat="42.96864" lon="0.572451">
        <ele>592.6</ele>
        <time>1970-01-01T06:25:17.000Z</time>
      </trkpt>
      <trkpt lat="42.968753" lon="0.572523">
        <ele>593.6</ele>
        <time>1970-01-01T06:25:22.000Z</time>
      </trkpt>
      <trkpt lat="42.968831" lon="0.572561">
        <ele>594.4</ele>
        <time>1970-01-01T06:25:26.000Z</time>
      </trkpt>
      <trkpt lat="42.968847" lon="0.572577">
        <ele>594.4</ele>
        <time>1970-01-01T06:25:27.000Z</time>
      </trkpt>
      <trkpt lat="42.9692" lon="0.572998">
        <ele>594.8</ele>
        <time>1970-01-01T06:25:39.000Z</time>
      </trkpt>
      <trkpt lat="42.969299" lon="0.573092">
        <ele>596</ele>
        <time>1970-01-01T06:25:43.000Z</time>
      </trkpt>
      <trkpt lat="42.969439" lon="0.573254">
        <ele>597.2</ele>
        <time>1970-01-01T06:25:49.000Z</time>
      </trkpt>
      <trkpt lat="42.969476" lon="0.573324">
        <ele>598.4</ele>
        <time>1970-01-01T06:25:52.000Z</time>
      </trkpt>
      <trkpt lat="42.969547" lon="0.573399">
        <ele>599.6</ele>
        <time>1970-01-01T06:25:56.000Z</time>
      </trkpt>
      <trkpt lat="42.969597" lon="0.573457">
        <ele>600.2</ele>
        <time>1970-01-01T06:26:01.000Z</time>
      </trkpt>
      <trkpt lat="42.969663" lon="0.573484">
        <ele>601</ele>
        <time>1970-01-01T06:26:12.000Z</time>
      </trkpt>
      <trkpt lat="42.969759" lon="0.573563">
        <ele>602.2</ele>
        <time>1970-01-01T06:26:17.000Z</time>
      </trkpt>
      <trkpt lat="42.969782" lon="0.573575">
        <ele>602.6</ele>
        <time>1970-01-01T06:26:18.000Z</time>
      </trkpt>
      <trkpt lat="42.969829" lon="0.573603">
        <ele>603.2</ele>
        <time>1970-01-01T06:26:20.000Z</time>
      </trkpt>
      <trkpt lat="42.969991" lon="0.573719">
        <ele>604.4</ele>
        <time>1970-01-01T06:26:27.000Z</time>
      </trkpt>
      <trkpt lat="42.97012" lon="0.573826">
        <ele>605.4</ele>
        <time>1970-01-01T06:26:33.000Z</time>
      </trkpt>
      <trkpt lat="42.970186" lon="0.573893">
        <ele>606</ele>
        <time>1970-01-01T06:26:37.000Z</time>
      </trkpt>
      <trkpt lat="42.970209" lon="0.573937">
        <ele>606.6</ele>
        <time>1970-01-01T06:26:39.000Z</time>
      </trkpt>
      <trkpt lat="42.970259" lon="0.573978">
        <ele>607.6</ele>
        <time>1970-01-01T06:26:42.000Z</time>
      </trkpt>
      <trkpt lat="42.970309" lon="0.574024">
        <ele>608.6</ele>
        <time>1970-01-01T06:26:45.000Z</time>
      </trkpt>
      <trkpt lat="42.970395" lon="0.574082">
        <ele>609.8</ele>
        <time>1970-01-01T06:26:50.000Z</time>
      </trkpt>
      <trkpt lat="42.970476" lon="0.574133">
        <ele>610.8</ele>
        <time>1970-01-01T06:26:55.000Z</time>
      </trkpt>
      <trkpt lat="42.970539" lon="0.574146">
        <ele>612.2</ele>
        <time>1970-01-01T06:26:59.000Z</time>
      </trkpt>
      <trkpt lat="42.970614" lon="0.574179">
        <ele>613.4</ele>
        <time>1970-01-01T06:27:03.000Z</time>
      </trkpt>
      <trkpt lat="42.970675" lon="0.574223">
        <ele>614.4</ele>
        <time>1970-01-01T06:27:07.000Z</time>
      </trkpt>
      <trkpt lat="42.970791" lon="0.574304">
        <ele>615.4</ele>
        <time>1970-01-01T06:27:14.000Z</time>
      </trkpt>
      <trkpt lat="42.970901" lon="0.574381">
        <ele>616.6</ele>
        <time>1970-01-01T06:27:20.000Z</time>
      </trkpt>
      <trkpt lat="42.970971" lon="0.574404">
        <ele>617.8</ele>
        <time>1970-01-01T06:27:24.000Z</time>
      </trkpt>
      <trkpt lat="42.971045" lon="0.574449">
        <ele>619.2</ele>
        <time>1970-01-01T06:27:28.000Z</time>
      </trkpt>
      <trkpt lat="42.971098" lon="0.574486">
        <ele>620.2</ele>
        <time>1970-01-01T06:27:31.000Z</time>
      </trkpt>
      <trkpt lat="42.971147" lon="0.574524">
        <ele>621.4</ele>
        <time>1970-01-01T06:27:35.000Z</time>
      </trkpt>
      <trkpt lat="42.971157" lon="0.574538">
        <ele>621.6</ele>
        <time>1970-01-01T06:27:36.000Z</time>
      </trkpt>
      <trkpt lat="42.971202" lon="0.574621">
        <ele>622</ele>
        <time>1970-01-01T06:27:43.000Z</time>
      </trkpt>
      <trkpt lat="42.97124" lon="0.574716">
        <ele>621.2</ele>
        <time>1970-01-01T06:27:48.000Z</time>
      </trkpt>
      <trkpt lat="42.97126" lon="0.574741">
        <ele>620.6</ele>
        <time>1970-01-01T06:27:52.000Z</time>
      </trkpt>
      <trkpt lat="42.97129" lon="0.574776">
        <ele>620.4</ele>
        <time>1970-01-01T06:28:15.000Z</time>
      </trkpt>
      <trkpt lat="42.97148" lon="0.574932">
        <ele>621.4</ele>
        <time>1970-01-01T06:28:26.000Z</time>
      </trkpt>
      <trkpt lat="42.971831" lon="0.575072">
        <ele>621.2</ele>
        <time>1970-01-01T06:28:36.000Z</time>
      </trkpt>
      <trkpt lat="42.971936" lon="0.575085">
        <ele>620.4</ele>
        <time>1970-01-01T06:28:38.000Z</time>
      </trkpt>
      <trkpt lat="42.97202" lon="0.575121">
        <ele>619.8</ele>
        <time>1970-01-01T06:28:40.000Z</time>
      </trkpt>
      <trkpt lat="42.97251" lon="0.575173">
        <ele>621.6</ele>
        <time>1970-01-01T06:28:55.000Z</time>
      </trkpt>
      <trkpt lat="42.972586" lon="0.575172">
        <ele>622.6</ele>
        <time>1970-01-01T06:28:58.000Z</time>
      </trkpt>
      <trkpt lat="42.972769" lon="0.575091">
        <ele>623.8</ele>
        <time>1970-01-01T06:29:05.000Z</time>
      </trkpt>
      <trkpt lat="42.972837" lon="0.575047">
        <ele>624.8</ele>
        <time>1970-01-01T06:29:08.000Z</time>
      </trkpt>
      <trkpt lat="42.972922" lon="0.574988">
        <ele>626.2</ele>
        <time>1970-01-01T06:29:12.000Z</time>
      </trkpt>
      <trkpt lat="42.973468" lon="0.574895">
        <ele>627</ele>
        <time>1970-01-01T06:29:27.000Z</time>
      </trkpt>
      <trkpt lat="42.973658" lon="0.574818">
        <ele>627</ele>
        <time>1970-01-01T06:29:34.000Z</time>
      </trkpt>
      <trkpt lat="42.973699" lon="0.574808">
        <ele>627</ele>
        <time>1970-01-01T06:30:19.000Z</time>
      </trkpt>
      <trkpt lat="42.974058" lon="0.57439">
        <ele>624.8</ele>
        <time>1970-01-01T06:30:35.000Z</time>
      </trkpt>
      <trkpt lat="42.974092" lon="0.574376">
        <ele>623.4</ele>
        <time>1970-01-01T06:30:38.000Z</time>
      </trkpt>
      <trkpt lat="42.974096" lon="0.574379">
        <ele>623.2</ele>
        <time>1970-01-01T06:30:39.000Z</time>
      </trkpt>
      <trkpt lat="42.974155" lon="0.574505">
        <ele>621</ele>
        <time>1970-01-01T06:30:47.000Z</time>
      </trkpt>
      <trkpt lat="42.974201" lon="0.57456">
        <ele>619.8</ele>
        <time>1970-01-01T06:30:50.000Z</time>
      </trkpt>
      <trkpt lat="42.974217" lon="0.574568">
        <ele>619.4</ele>
        <time>1970-01-01T06:30:51.000Z</time>
      </trkpt>
      <trkpt lat="42.974251" lon="0.574574">
        <ele>618.8</ele>
        <time>1970-01-01T06:30:53.000Z</time>
      </trkpt>
      <trkpt lat="42.97433" lon="0.574527">
        <ele>617.4</ele>
        <time>1970-01-01T06:30:56.000Z</time>
      </trkpt>
      <trkpt lat="42.974511" lon="0.574446">
        <ele>616.4</ele>
        <time>1970-01-01T06:31:02.000Z</time>
      </trkpt>
      <trkpt lat="42.974716" lon="0.574357">
        <ele>616.2</ele>
        <time>1970-01-01T06:31:08.000Z</time>
      </trkpt>
      <trkpt lat="42.974876" lon="0.574289">
        <ele>615.8</ele>
        <time>1970-01-01T06:31:12.000Z</time>
      </trkpt>
      <trkpt lat="42.975053" lon="0.574283">
        <ele>615.8</ele>
        <time>1970-01-01T06:31:17.000Z</time>
      </trkpt>
      <trkpt lat="42.97524" lon="0.574344">
        <ele>616.8</ele>
        <time>1970-01-01T06:31:25.000Z</time>
      </trkpt>
      <trkpt lat="42.975414" lon="0.57424">
        <ele>616.6</ele>
        <time>1970-01-01T06:31:31.000Z</time>
      </trkpt>
      <trkpt lat="42.975487" lon="0.57414">
        <ele>615.2</ele>
        <time>1970-01-01T06:31:33.000Z</time>
      </trkpt>
      <trkpt lat="42.97554" lon="0.574036">
        <ele>613.8</ele>
        <time>1970-01-01T06:31:35.000Z</time>
      </trkpt>
      <trkpt lat="42.975571" lon="0.573991">
        <ele>612.8</ele>
        <time>1970-01-01T06:31:36.000Z</time>
      </trkpt>
      <trkpt lat="42.975602" lon="0.573962">
        <ele>612</ele>
        <time>1970-01-01T06:31:37.000Z</time>
      </trkpt>
      <trkpt lat="42.975623" lon="0.573943">
        <ele>611</ele>
        <time>1970-01-01T06:31:38.000Z</time>
      </trkpt>
      <trkpt lat="42.975662" lon="0.573872">
        <ele>609.8</ele>
        <time>1970-01-01T06:31:41.000Z</time>
      </trkpt>
      <trkpt lat="42.975686" lon="0.573825">
        <ele>609.2</ele>
        <time>1970-01-01T06:31:51.000Z</time>
      </trkpt>
      <trkpt lat="42.975709" lon="0.573778">
        <ele>608.8</ele>
        <time>1970-01-01T06:31:52.000Z</time>
      </trkpt>
      <trkpt lat="42.97575" lon="0.573705">
        <ele>607.8</ele>
        <time>1970-01-01T06:31:54.000Z</time>
      </trkpt>
      <trkpt lat="42.975813" lon="0.57364">
        <ele>606.2</ele>
        <time>1970-01-01T06:31:56.000Z</time>
      </trkpt>
      <trkpt lat="42.975854" lon="0.573582">
        <ele>605</ele>
        <time>1970-01-01T06:31:58.000Z</time>
      </trkpt>
      <trkpt lat="42.975908" lon="0.573548">
        <ele>603.8</ele>
        <time>1970-01-01T06:32:00.000Z</time>
      </trkpt>
      <trkpt lat="42.975957" lon="0.573526">
        <ele>602.4</ele>
        <time>1970-01-01T06:32:02.000Z</time>
      </trkpt>
      <trkpt lat="42.976004" lon="0.573508">
        <ele>601</ele>
        <time>1970-01-01T06:32:04.000Z</time>
      </trkpt>
      <trkpt lat="42.976027" lon="0.573497">
        <ele>600</ele>
        <time>1970-01-01T06:32:05.000Z</time>
      </trkpt>
      <trkpt lat="42.976071" lon="0.57349">
        <ele>598</ele>
        <time>1970-01-01T06:32:07.000Z</time>
      </trkpt>
      <trkpt lat="42.976117" lon="0.573485">
        <ele>596.4</ele>
        <time>1970-01-01T06:32:09.000Z</time>
      </trkpt>
      <trkpt lat="42.976176" lon="0.573504">
        <ele>594.8</ele>
        <time>1970-01-01T06:32:11.000Z</time>
      </trkpt>
      <trkpt lat="42.976225" lon="0.57352">
        <ele>593</ele>
        <time>1970-01-01T06:32:13.000Z</time>
      </trkpt>
      <trkpt lat="42.97628" lon="0.573546">
        <ele>591.4</ele>
        <time>1970-01-01T06:32:15.000Z</time>
      </trkpt>
      <trkpt lat="42.976327" lon="0.573573">
        <ele>589.8</ele>
        <time>1970-01-01T06:32:17.000Z</time>
      </trkpt>
      <trkpt lat="42.976374" lon="0.573604">
        <ele>588.6</ele>
        <time>1970-01-01T06:32:19.000Z</time>
      </trkpt>
      <trkpt lat="42.97642" lon="0.573633">
        <ele>587</ele>
        <time>1970-01-01T06:32:21.000Z</time>
      </trkpt>
      <trkpt lat="42.976478" lon="0.573656">
        <ele>585.4</ele>
        <time>1970-01-01T06:32:23.000Z</time>
      </trkpt>
      <trkpt lat="42.976511" lon="0.57367">
        <ele>584.2</ele>
        <time>1970-01-01T06:32:25.000Z</time>
      </trkpt>
      <trkpt lat="42.97655" lon="0.573659">
        <ele>582.8</ele>
        <time>1970-01-01T06:32:28.000Z</time>
      </trkpt>
      <trkpt lat="42.976615" lon="0.573644">
        <ele>582.2</ele>
        <time>1970-01-01T06:32:37.000Z</time>
      </trkpt>
      <trkpt lat="42.976638" lon="0.573639">
        <ele>581.2</ele>
        <time>1970-01-01T06:32:38.000Z</time>
      </trkpt>
      <trkpt lat="42.976688" lon="0.573663">
        <ele>579.8</ele>
        <time>1970-01-01T06:32:40.000Z</time>
      </trkpt>
      <trkpt lat="42.976738" lon="0.573732">
        <ele>578.8</ele>
        <time>1970-01-01T06:32:42.000Z</time>
      </trkpt>
      <trkpt lat="42.976813" lon="0.573822">
        <ele>577.4</ele>
        <time>1970-01-01T06:32:44.000Z</time>
      </trkpt>
      <trkpt lat="42.976916" lon="0.57393">
        <ele>576</ele>
        <time>1970-01-01T06:32:46.000Z</time>
      </trkpt>
      <trkpt lat="42.976979" lon="0.573965">
        <ele>575.4</ele>
        <time>1970-01-01T06:32:47.000Z</time>
      </trkpt>
      <trkpt lat="42.977035" lon="0.573991">
        <ele>575</ele>
        <time>1970-01-01T06:32:48.000Z</time>
      </trkpt>
      <trkpt lat="42.977266" lon="0.574062">
        <ele>573.6</ele>
        <time>1970-01-01T06:32:51.000Z</time>
      </trkpt>
      <trkpt lat="42.97737" lon="0.574128">
        <ele>572</ele>
        <time>1970-01-01T06:32:54.000Z</time>
      </trkpt>
      <trkpt lat="42.977626" lon="0.57456">
        <ele>571.6</ele>
        <time>1970-01-01T06:33:07.000Z</time>
      </trkpt>
      <trkpt lat="42.977685" lon="0.574607">
        <ele>571</ele>
        <time>1970-01-01T06:33:09.000Z</time>
      </trkpt>
      <trkpt lat="42.977884" lon="0.574433">
        <ele>570.2</ele>
        <time>1970-01-01T06:33:15.000Z</time>
      </trkpt>
      <trkpt lat="42.977936" lon="0.574358">
        <ele>570</ele>
        <time>1970-01-01T06:33:17.000Z</time>
      </trkpt>
      <trkpt lat="42.978311" lon="0.573798">
        <ele>569.6</ele>
        <time>1970-01-01T06:33:33.000Z</time>
      </trkpt>
      <trkpt lat="42.978466" lon="0.573647">
        <ele>569.4</ele>
        <time>1970-01-01T06:33:38.000Z</time>
      </trkpt>
      <trkpt lat="42.97866" lon="0.573526">
        <ele>569.6</ele>
        <time>1970-01-01T06:33:43.000Z</time>
      </trkpt>
      <trkpt lat="42.979033" lon="0.572954">
        <ele>570.2</ele>
        <time>1970-01-01T06:33:55.000Z</time>
      </trkpt>
      <trkpt lat="42.979312" lon="0.572446">
        <ele>571.2</ele>
        <time>1970-01-01T06:34:10.000Z</time>
      </trkpt>
      <trkpt lat="42.979465" lon="0.571955">
        <ele>572.4</ele>
        <time>1970-01-01T06:34:21.000Z</time>
      </trkpt>
      <trkpt lat="42.979553" lon="0.571759">
        <ele>573.6</ele>
        <time>1970-01-01T06:34:26.000Z</time>
      </trkpt>
      <trkpt lat="42.979614" lon="0.571615">
        <ele>574.6</ele>
        <time>1970-01-01T06:34:30.000Z</time>
      </trkpt>
      <trkpt lat="42.98006" lon="0.571114">
        <ele>575.6</ele>
        <time>1970-01-01T06:34:46.000Z</time>
      </trkpt>
      <trkpt lat="42.980269" lon="0.570847">
        <ele>576.2</ele>
        <time>1970-01-01T06:34:53.000Z</time>
      </trkpt>
      <trkpt lat="42.980433" lon="0.570521">
        <ele>577.2</ele>
        <time>1970-01-01T06:35:01.000Z</time>
      </trkpt>
      <trkpt lat="42.980582" lon="0.570339">
        <ele>578.6</ele>
        <time>1970-01-01T06:35:07.000Z</time>
      </trkpt>
      <trkpt lat="42.980778" lon="0.570244">
        <ele>579.6</ele>
        <time>1970-01-01T06:35:13.000Z</time>
      </trkpt>
      <trkpt lat="42.981091" lon="0.569897">
        <ele>580.8</ele>
        <time>1970-01-01T06:35:24.000Z</time>
      </trkpt>
      <trkpt lat="42.981146" lon="0.569772">
        <ele>581.8</ele>
        <time>1970-01-01T06:35:28.000Z</time>
      </trkpt>
      <trkpt lat="42.981227" lon="0.569589">
        <ele>583</ele>
        <time>1970-01-01T06:35:35.000Z</time>
      </trkpt>
      <trkpt lat="42.981282" lon="0.569472">
        <ele>584.4</ele>
        <time>1970-01-01T06:35:40.000Z</time>
      </trkpt>
      <trkpt lat="42.981332" lon="0.569402">
        <ele>586</ele>
        <time>1970-01-01T06:35:43.000Z</time>
      </trkpt>
      <trkpt lat="42.981367" lon="0.569276">
        <ele>587.2</ele>
        <time>1970-01-01T06:35:47.000Z</time>
      </trkpt>
      <trkpt lat="42.981406" lon="0.569173">
        <ele>588.4</ele>
        <time>1970-01-01T06:35:51.000Z</time>
      </trkpt>
      <trkpt lat="42.981477" lon="0.56902">
        <ele>589.4</ele>
        <time>1970-01-01T06:35:56.000Z</time>
      </trkpt>
      <trkpt lat="42.981686" lon="0.568722">
        <ele>590.6</ele>
        <time>1970-01-01T06:36:07.000Z</time>
      </trkpt>
      <trkpt lat="42.981858" lon="0.568526">
        <ele>591.8</ele>
        <time>1970-01-01T06:36:15.000Z</time>
      </trkpt>
      <trkpt lat="42.982016" lon="0.568344">
        <ele>592.8</ele>
        <time>1970-01-01T06:36:22.000Z</time>
      </trkpt>
      <trkpt lat="42.982094" lon="0.568234">
        <ele>594</ele>
        <time>1970-01-01T06:36:26.000Z</time>
      </trkpt>
      <trkpt lat="42.982182" lon="0.568096">
        <ele>595</ele>
        <time>1970-01-01T06:36:31.000Z</time>
      </trkpt>
      <trkpt lat="42.982274" lon="0.567967">
        <ele>596.2</ele>
        <time>1970-01-01T06:36:36.000Z</time>
      </trkpt>
      <trkpt lat="42.982666" lon="0.56744">
        <ele>596.6</ele>
        <time>1970-01-01T06:36:54.000Z</time>
      </trkpt>
      <trkpt lat="42.982856" lon="0.567221">
        <ele>595.6</ele>
        <time>1970-01-01T06:37:01.000Z</time>
      </trkpt>
      <trkpt lat="42.983024" lon="0.567029">
        <ele>595.4</ele>
        <time>1970-01-01T06:37:06.000Z</time>
      </trkpt>
      <trkpt lat="42.983516" lon="0.566594">
        <ele>594.4</ele>
        <time>1970-01-01T06:37:19.000Z</time>
      </trkpt>
      <trkpt lat="42.983835" lon="0.56631">
        <ele>593.6</ele>
        <time>1970-01-01T06:37:26.000Z</time>
      </trkpt>
      <trkpt lat="42.983878" lon="0.566252">
        <ele>593.4</ele>
        <time>1970-01-01T06:37:27.000Z</time>
      </trkpt>
      <trkpt lat="42.984094" lon="0.565918">
        <ele>592.2</ele>
        <time>1970-01-01T06:37:32.000Z</time>
      </trkpt>
      <trkpt lat="42.984294" lon="0.565529">
        <ele>591</ele>
        <time>1970-01-01T06:37:37.000Z</time>
      </trkpt>
      <trkpt lat="42.98464" lon="0.564896">
        <ele>592</ele>
        <time>1970-01-01T06:37:48.000Z</time>
      </trkpt>
      <trkpt lat="42.984701" lon="0.564806">
        <ele>592.6</ele>
        <time>1970-01-01T06:37:50.000Z</time>
      </trkpt>
      <trkpt lat="42.984774" lon="0.564745">
        <ele>593</ele>
        <time>1970-01-01T06:37:52.000Z</time>
      </trkpt>
      <trkpt lat="42.984981" lon="0.5647">
        <ele>594</ele>
        <time>1970-01-01T06:37:57.000Z</time>
      </trkpt>
      <trkpt lat="42.985024" lon="0.564697">
        <ele>594</ele>
        <time>1970-01-01T06:37:58.000Z</time>
      </trkpt>
      <trkpt lat="42.985134" lon="0.564668">
        <ele>593.6</ele>
        <time>1970-01-01T06:38:00.000Z</time>
      </trkpt>
      <trkpt lat="42.985359" lon="0.564443">
        <ele>591.8</ele>
        <time>1970-01-01T06:38:04.000Z</time>
      </trkpt>
      <trkpt lat="42.985415" lon="0.564381">
        <ele>591.4</ele>
        <time>1970-01-01T06:38:05.000Z</time>
      </trkpt>
      <trkpt lat="42.985629" lon="0.564302">
        <ele>590.6</ele>
        <time>1970-01-01T06:38:08.000Z</time>
      </trkpt>
      <trkpt lat="42.985804" lon="0.564329">
        <ele>589.6</ele>
        <time>1970-01-01T06:38:10.000Z</time>
      </trkpt>
      <trkpt lat="42.985896" lon="0.564346">
        <ele>589.2</ele>
        <time>1970-01-01T06:38:11.000Z</time>
      </trkpt>
      <trkpt lat="42.986082" lon="0.564386">
        <ele>587.8</ele>
        <time>1970-01-01T06:38:13.000Z</time>
      </trkpt>
      <trkpt lat="42.986424" lon="0.56442">
        <ele>586.8</ele>
        <time>1970-01-01T06:38:17.000Z</time>
      </trkpt>
      <trkpt lat="42.986633" lon="0.564266">
        <ele>587.6</ele>
        <time>1970-01-01T06:38:22.000Z</time>
      </trkpt>
      <trkpt lat="42.986734" lon="0.564282">
        <ele>589.2</ele>
        <time>1970-01-01T06:38:26.000Z</time>
      </trkpt>
      <trkpt lat="42.986813" lon="0.564364">
        <ele>590.4</ele>
        <time>1970-01-01T06:38:30.000Z</time>
      </trkpt>
      <trkpt lat="42.986898" lon="0.564438">
        <ele>591.8</ele>
        <time>1970-01-01T06:38:34.000Z</time>
      </trkpt>
      <trkpt lat="42.987016" lon="0.564502">
        <ele>593</ele>
        <time>1970-01-01T06:38:39.000Z</time>
      </trkpt>
      <trkpt lat="42.987114" lon="0.564512">
        <ele>594.2</ele>
        <time>1970-01-01T06:38:43.000Z</time>
      </trkpt>
      <trkpt lat="42.987203" lon="0.564502">
        <ele>595.2</ele>
        <time>1970-01-01T06:38:47.000Z</time>
      </trkpt>
      <trkpt lat="42.987296" lon="0.564499">
        <ele>596.2</ele>
        <time>1970-01-01T06:38:51.000Z</time>
      </trkpt>
      <trkpt lat="42.987416" lon="0.564489">
        <ele>597.4</ele>
        <time>1970-01-01T06:38:56.000Z</time>
      </trkpt>
      <trkpt lat="42.987535" lon="0.564486">
        <ele>598.6</ele>
        <time>1970-01-01T06:39:01.000Z</time>
      </trkpt>
      <trkpt lat="42.987618" lon="0.56445">
        <ele>599.8</ele>
        <time>1970-01-01T06:39:05.000Z</time>
      </trkpt>
      <trkpt lat="42.987678" lon="0.564348">
        <ele>601</ele>
        <time>1970-01-01T06:39:09.000Z</time>
      </trkpt>
      <trkpt lat="42.987705" lon="0.564219">
        <ele>602</ele>
        <time>1970-01-01T06:39:13.000Z</time>
      </trkpt>
      <trkpt lat="42.987722" lon="0.564074">
        <ele>603.2</ele>
        <time>1970-01-01T06:39:18.000Z</time>
      </trkpt>
      <trkpt lat="42.987739" lon="0.56398">
        <ele>604.4</ele>
        <time>1970-01-01T06:39:22.000Z</time>
      </trkpt>
      <trkpt lat="42.98775" lon="0.563942">
        <ele>604.8</ele>
        <time>1970-01-01T06:39:24.000Z</time>
      </trkpt>
      <trkpt lat="42.987714" lon="0.56391">
        <ele>605.2</ele>
        <time>1970-01-01T06:39:30.000Z</time>
      </trkpt>
      <trkpt lat="42.987694" lon="0.56399">
        <ele>604.8</ele>
        <time>1970-01-01T06:39:35.000Z</time>
      </trkpt>
      <trkpt lat="42.987721" lon="0.564037">
        <ele>604.2</ele>
        <time>1970-01-01T06:39:39.000Z</time>
      </trkpt>
      <trkpt lat="42.987683" lon="0.563857">
        <ele>605.4</ele>
        <time>1970-01-01T06:39:48.000Z</time>
      </trkpt>
      <trkpt lat="42.987665" lon="0.563838">
        <ele>605.4</ele>
        <time>1970-01-01T06:39:49.000Z</time>
      </trkpt>
      <trkpt lat="42.987493" lon="0.563594">
        <ele>606.6</ele>
        <time>1970-01-01T06:39:59.000Z</time>
      </trkpt>
      <trkpt lat="42.98726" lon="0.562956">
        <ele>607.6</ele>
        <time>1970-01-01T06:40:18.000Z</time>
      </trkpt>
      <trkpt lat="42.987273" lon="0.562856">
        <ele>607.8</ele>
        <time>1970-01-01T06:40:21.000Z</time>
      </trkpt>
      <trkpt lat="42.987289" lon="0.562095">
        <ele>609.2</ele>
        <time>1970-01-01T06:40:41.000Z</time>
      </trkpt>
      <trkpt lat="42.987165" lon="0.561583">
        <ele>610.2</ele>
        <time>1970-01-01T06:40:55.000Z</time>
      </trkpt>
      <trkpt lat="42.987094" lon="0.561285">
        <ele>611.4</ele>
        <time>1970-01-01T06:41:04.000Z</time>
      </trkpt>
      <trkpt lat="42.987062" lon="0.560978">
        <ele>612.6</ele>
        <time>1970-01-01T06:41:13.000Z</time>
      </trkpt>
      <trkpt lat="42.987145" lon="0.560739">
        <ele>613.6</ele>
        <time>1970-01-01T06:41:23.000Z</time>
      </trkpt>
      <trkpt lat="42.987197" lon="0.560659">
        <ele>614.6</ele>
        <time>1970-01-01T06:41:28.000Z</time>
      </trkpt>
      <trkpt lat="42.987207" lon="0.560642">
        <ele>614.8</ele>
        <time>1970-01-01T06:41:29.000Z</time>
      </trkpt>
      <trkpt lat="42.987276" lon="0.56052">
        <ele>616.2</ele>
        <time>1970-01-01T06:41:35.000Z</time>
      </trkpt>
      <trkpt lat="42.987342" lon="0.56041">
        <ele>617.2</ele>
        <time>1970-01-01T06:41:40.000Z</time>
      </trkpt>
      <trkpt lat="42.987393" lon="0.560322">
        <ele>618.2</ele>
        <time>1970-01-01T06:41:44.000Z</time>
      </trkpt>
      <trkpt lat="42.987476" lon="0.560196">
        <ele>619.4</ele>
        <time>1970-01-01T06:41:50.000Z</time>
      </trkpt>
      <trkpt lat="42.987547" lon="0.560106">
        <ele>620.4</ele>
        <time>1970-01-01T06:41:55.000Z</time>
      </trkpt>
      <trkpt lat="42.987628" lon="0.559989">
        <ele>621.6</ele>
        <time>1970-01-01T06:42:01.000Z</time>
      </trkpt>
      <trkpt lat="42.987688" lon="0.559917">
        <ele>622.8</ele>
        <time>1970-01-01T06:42:05.000Z</time>
      </trkpt>
      <trkpt lat="42.987764" lon="0.559804">
        <ele>624</ele>
        <time>1970-01-01T06:42:11.000Z</time>
      </trkpt>
      <trkpt lat="42.987835" lon="0.559675">
        <ele>625.2</ele>
        <time>1970-01-01T06:42:17.000Z</time>
      </trkpt>
      <trkpt lat="42.987898" lon="0.55955">
        <ele>626.2</ele>
        <time>1970-01-01T06:42:22.000Z</time>
      </trkpt>
      <trkpt lat="42.988" lon="0.55936">
        <ele>627.2</ele>
        <time>1970-01-01T06:42:30.000Z</time>
      </trkpt>
      <trkpt lat="42.988059" lon="0.559238">
        <ele>628.4</ele>
        <time>1970-01-01T06:42:35.000Z</time>
      </trkpt>
      <trkpt lat="42.988142" lon="0.559111">
        <ele>629.6</ele>
        <time>1970-01-01T06:42:41.000Z</time>
      </trkpt>
      <trkpt lat="42.988212" lon="0.559006">
        <ele>630.8</ele>
        <time>1970-01-01T06:42:46.000Z</time>
      </trkpt>
      <trkpt lat="42.988279" lon="0.55889">
        <ele>632</ele>
        <time>1970-01-01T06:42:51.000Z</time>
      </trkpt>
      <trkpt lat="42.988337" lon="0.558771">
        <ele>633</ele>
        <time>1970-01-01T06:42:56.000Z</time>
      </trkpt>
      <trkpt lat="42.988369" lon="0.558665">
        <ele>634.4</ele>
        <time>1970-01-01T06:43:00.000Z</time>
      </trkpt>
      <trkpt lat="42.988393" lon="0.558556">
        <ele>635.4</ele>
        <time>1970-01-01T06:43:04.000Z</time>
      </trkpt>
      <trkpt lat="42.98841" lon="0.558422">
        <ele>636.6</ele>
        <time>1970-01-01T06:43:09.000Z</time>
      </trkpt>
      <trkpt lat="42.988495" lon="0.558103">
        <ele>637.6</ele>
        <time>1970-01-01T06:43:20.000Z</time>
      </trkpt>
      <trkpt lat="42.988722" lon="0.557672">
        <ele>638.8</ele>
        <time>1970-01-01T06:43:36.000Z</time>
      </trkpt>
      <trkpt lat="42.989009" lon="0.557153">
        <ele>639.8</ele>
        <time>1970-01-01T06:43:54.000Z</time>
      </trkpt>
      <trkpt lat="42.989107" lon="0.55699">
        <ele>640.8</ele>
        <time>1970-01-01T06:44:01.000Z</time>
      </trkpt>
      <trkpt lat="42.989157" lon="0.556869">
        <ele>642</ele>
        <time>1970-01-01T06:44:06.000Z</time>
      </trkpt>
      <trkpt lat="42.989221" lon="0.556694">
        <ele>643</ele>
        <time>1970-01-01T06:44:13.000Z</time>
      </trkpt>
      <trkpt lat="42.989314" lon="0.55644">
        <ele>644</ele>
        <time>1970-01-01T06:44:23.000Z</time>
      </trkpt>
      <trkpt lat="42.989348" lon="0.556365">
        <ele>645.2</ele>
        <time>1970-01-01T06:44:26.000Z</time>
      </trkpt>
      <trkpt lat="42.989405" lon="0.556238">
        <ele>646.2</ele>
        <time>1970-01-01T06:44:31.000Z</time>
      </trkpt>
      <trkpt lat="42.989464" lon="0.556117">
        <ele>647.2</ele>
        <time>1970-01-01T06:44:36.000Z</time>
      </trkpt>
      <trkpt lat="42.989521" lon="0.555995">
        <ele>648.4</ele>
        <time>1970-01-01T06:44:41.000Z</time>
      </trkpt>
      <trkpt lat="42.989577" lon="0.555957">
        <ele>649.6</ele>
        <time>1970-01-01T06:44:44.000Z</time>
      </trkpt>
      <trkpt lat="42.989637" lon="0.555988">
        <ele>650.2</ele>
        <time>1970-01-01T06:44:47.000Z</time>
      </trkpt>
      <trkpt lat="42.989655" lon="0.556043">
        <ele>650.8</ele>
        <time>1970-01-01T06:44:49.000Z</time>
      </trkpt>
      <trkpt lat="42.989631" lon="0.556159">
        <ele>651.2</ele>
        <time>1970-01-01T06:44:53.000Z</time>
      </trkpt>
      <trkpt lat="42.989603" lon="0.556287">
        <ele>651.8</ele>
        <time>1970-01-01T06:44:57.000Z</time>
      </trkpt>
      <trkpt lat="42.989572" lon="0.55652">
        <ele>653</ele>
        <time>1970-01-01T06:45:04.000Z</time>
      </trkpt>
      <trkpt lat="42.989486" lon="0.557052">
        <ele>654.2</ele>
        <time>1970-01-01T06:45:18.000Z</time>
      </trkpt>
      <trkpt lat="42.989676" lon="0.557553">
        <ele>655.2</ele>
        <time>1970-01-01T06:45:31.000Z</time>
      </trkpt>
      <trkpt lat="42.989611" lon="0.557868">
        <ele>656.4</ele>
        <time>1970-01-01T06:45:39.000Z</time>
      </trkpt>
      <trkpt lat="42.989494" lon="0.558133">
        <ele>657.4</ele>
        <time>1970-01-01T06:45:46.000Z</time>
      </trkpt>
      <trkpt lat="42.98941" lon="0.558756">
        <ele>658.4</ele>
        <time>1970-01-01T06:46:00.000Z</time>
      </trkpt>
      <trkpt lat="42.989467" lon="0.558957">
        <ele>659.4</ele>
        <time>1970-01-01T06:46:05.000Z</time>
      </trkpt>
      <trkpt lat="42.98955" lon="0.559392">
        <ele>660.6</ele>
        <time>1970-01-01T06:46:15.000Z</time>
      </trkpt>
      <trkpt lat="42.989698" lon="0.559658">
        <ele>661.8</ele>
        <time>1970-01-01T06:46:23.000Z</time>
      </trkpt>
      <trkpt lat="42.989782" lon="0.559685">
        <ele>662.8</ele>
        <time>1970-01-01T06:46:26.000Z</time>
      </trkpt>
      <trkpt lat="42.989891" lon="0.559676">
        <ele>664</ele>
        <time>1970-01-01T06:46:30.000Z</time>
      </trkpt>
      <trkpt lat="42.990015" lon="0.559611">
        <ele>665.4</ele>
        <time>1970-01-01T06:46:35.000Z</time>
      </trkpt>
      <trkpt lat="42.990084" lon="0.5595">
        <ele>666.6</ele>
        <time>1970-01-01T06:46:39.000Z</time>
      </trkpt>
      <trkpt lat="42.990135" lon="0.559376">
        <ele>668</ele>
        <time>1970-01-01T06:46:43.000Z</time>
      </trkpt>
      <trkpt lat="42.990173" lon="0.559288">
        <ele>669</ele>
        <time>1970-01-01T06:46:46.000Z</time>
      </trkpt>
      <trkpt lat="42.990255" lon="0.559148">
        <ele>670.2</ele>
        <time>1970-01-01T06:46:51.000Z</time>
      </trkpt>
      <trkpt lat="42.990352" lon="0.559021">
        <ele>671.2</ele>
        <time>1970-01-01T06:46:56.000Z</time>
      </trkpt>
      <trkpt lat="42.990518" lon="0.558855">
        <ele>672.6</ele>
        <time>1970-01-01T06:47:04.000Z</time>
      </trkpt>
      <trkpt lat="42.990668" lon="0.558703">
        <ele>673.6</ele>
        <time>1970-01-01T06:47:11.000Z</time>
      </trkpt>
      <trkpt lat="42.990813" lon="0.558546">
        <ele>674.8</ele>
        <time>1970-01-01T06:47:18.000Z</time>
      </trkpt>
      <trkpt lat="42.990923" lon="0.558377">
        <ele>675.8</ele>
        <time>1970-01-01T06:47:25.000Z</time>
      </trkpt>
      <trkpt lat="42.991033" lon="0.558192">
        <ele>677</ele>
        <time>1970-01-01T06:47:32.000Z</time>
      </trkpt>
      <trkpt lat="42.991147" lon="0.558026">
        <ele>678</ele>
        <time>1970-01-01T06:47:39.000Z</time>
      </trkpt>
      <trkpt lat="42.991263" lon="0.55781">
        <ele>679.2</ele>
        <time>1970-01-01T06:47:47.000Z</time>
      </trkpt>
      <trkpt lat="42.991356" lon="0.557657">
        <ele>680.6</ele>
        <time>1970-01-01T06:47:53.000Z</time>
      </trkpt>
      <trkpt lat="42.991415" lon="0.557521">
        <ele>681.6</ele>
        <time>1970-01-01T06:47:58.000Z</time>
      </trkpt>
      <trkpt lat="42.991479" lon="0.557392">
        <ele>682.6</ele>
        <time>1970-01-01T06:48:03.000Z</time>
      </trkpt>
      <trkpt lat="42.991527" lon="0.557339">
        <ele>683.8</ele>
        <time>1970-01-01T06:48:06.000Z</time>
      </trkpt>
      <trkpt lat="42.991607" lon="0.55731">
        <ele>684.8</ele>
        <time>1970-01-01T06:48:10.000Z</time>
      </trkpt>
      <trkpt lat="42.991718" lon="0.557307">
        <ele>685.8</ele>
        <time>1970-01-01T06:48:15.000Z</time>
      </trkpt>
      <trkpt lat="42.991942" lon="0.55731">
        <ele>687</ele>
        <time>1970-01-01T06:48:24.000Z</time>
      </trkpt>
      <trkpt lat="42.992182" lon="0.557378">
        <ele>688.2</ele>
        <time>1970-01-01T06:48:34.000Z</time>
      </trkpt>
      <trkpt lat="42.992351" lon="0.557482">
        <ele>689.2</ele>
        <time>1970-01-01T06:48:42.000Z</time>
      </trkpt>
      <trkpt lat="42.99249" lon="0.557557">
        <ele>690.2</ele>
        <time>1970-01-01T06:48:48.000Z</time>
      </trkpt>
      <trkpt lat="42.992673" lon="0.557639">
        <ele>691.2</ele>
        <time>1970-01-01T06:48:56.000Z</time>
      </trkpt>
      <trkpt lat="42.992805" lon="0.557569">
        <ele>692.4</ele>
        <time>1970-01-01T06:49:03.000Z</time>
      </trkpt>
      <trkpt lat="42.992818" lon="0.557488">
        <ele>693.4</ele>
        <time>1970-01-01T06:49:06.000Z</time>
      </trkpt>
      <trkpt lat="42.992809" lon="0.55746">
        <ele>693.6</ele>
        <time>1970-01-01T06:49:07.000Z</time>
      </trkpt>
      <trkpt lat="42.992715" lon="0.557373">
        <ele>693.8</ele>
        <time>1970-01-01T06:49:12.000Z</time>
      </trkpt>
      <trkpt lat="42.992648" lon="0.557327">
        <ele>694.4</ele>
        <time>1970-01-01T06:49:15.000Z</time>
      </trkpt>
      <trkpt lat="42.992493" lon="0.557175">
        <ele>695.6</ele>
        <time>1970-01-01T06:49:23.000Z</time>
      </trkpt>
      <trkpt lat="42.992381" lon="0.557018">
        <ele>696.6</ele>
        <time>1970-01-01T06:49:30.000Z</time>
      </trkpt>
      <trkpt lat="42.992249" lon="0.556798">
        <ele>697.6</ele>
        <time>1970-01-01T06:49:38.000Z</time>
      </trkpt>
      <trkpt lat="42.992133" lon="0.556629">
        <ele>698.8</ele>
        <time>1970-01-01T06:49:45.000Z</time>
      </trkpt>
      <trkpt lat="42.992045" lon="0.556522">
        <ele>699.8</ele>
        <time>1970-01-01T06:49:50.000Z</time>
      </trkpt>
      <trkpt lat="42.991942" lon="0.5564">
        <ele>701</ele>
        <time>1970-01-01T06:49:56.000Z</time>
      </trkpt>
      <trkpt lat="42.991882" lon="0.556314">
        <ele>702.2</ele>
        <time>1970-01-01T06:50:00.000Z</time>
      </trkpt>
      <trkpt lat="42.99184" lon="0.556179">
        <ele>703.2</ele>
        <time>1970-01-01T06:50:05.000Z</time>
      </trkpt>
      <trkpt lat="42.991858" lon="0.556066">
        <ele>704.4</ele>
        <time>1970-01-01T06:50:09.000Z</time>
      </trkpt>
      <trkpt lat="42.991934" lon="0.555963">
        <ele>705.4</ele>
        <time>1970-01-01T06:50:14.000Z</time>
      </trkpt>
      <trkpt lat="42.992112" lon="0.555965">
        <ele>706.6</ele>
        <time>1970-01-01T06:50:22.000Z</time>
      </trkpt>
      <trkpt lat="42.992249" lon="0.555982">
        <ele>707.6</ele>
        <time>1970-01-01T06:50:28.000Z</time>
      </trkpt>
      <trkpt lat="42.992355" lon="0.556026">
        <ele>708.6</ele>
        <time>1970-01-01T06:50:33.000Z</time>
      </trkpt>
      <trkpt lat="42.992436" lon="0.556088">
        <ele>709.8</ele>
        <time>1970-01-01T06:50:37.000Z</time>
      </trkpt>
      <trkpt lat="42.992605" lon="0.556206">
        <ele>711</ele>
        <time>1970-01-01T06:50:45.000Z</time>
      </trkpt>
      <trkpt lat="42.992725" lon="0.556292">
        <ele>712.2</ele>
        <time>1970-01-01T06:50:51.000Z</time>
      </trkpt>
      <trkpt lat="42.992845" lon="0.556391">
        <ele>713.2</ele>
        <time>1970-01-01T06:50:57.000Z</time>
      </trkpt>
      <trkpt lat="42.993041" lon="0.5564">
        <ele>714.2</ele>
        <time>1970-01-01T06:51:06.000Z</time>
      </trkpt>
      <trkpt lat="42.99307" lon="0.556218">
        <ele>715.2</ele>
        <time>1970-01-01T06:51:13.000Z</time>
      </trkpt>
      <trkpt lat="42.993033" lon="0.556116">
        <ele>716.4</ele>
        <time>1970-01-01T06:51:17.000Z</time>
      </trkpt>
      <trkpt lat="42.992969" lon="0.555993">
        <ele>717.4</ele>
        <time>1970-01-01T06:51:22.000Z</time>
      </trkpt>
      <trkpt lat="42.992925" lon="0.555888">
        <ele>718.4</ele>
        <time>1970-01-01T06:51:26.000Z</time>
      </trkpt>
      <trkpt lat="42.992878" lon="0.555715">
        <ele>719.4</ele>
        <time>1970-01-01T06:51:32.000Z</time>
      </trkpt>
      <trkpt lat="42.992881" lon="0.555591">
        <ele>720.4</ele>
        <time>1970-01-01T06:51:36.000Z</time>
      </trkpt>
      <trkpt lat="42.992917" lon="0.55549">
        <ele>721.6</ele>
        <time>1970-01-01T06:51:40.000Z</time>
      </trkpt>
      <trkpt lat="42.992988" lon="0.555392">
        <ele>722.8</ele>
        <time>1970-01-01T06:51:45.000Z</time>
      </trkpt>
      <trkpt lat="42.993039" lon="0.555343">
        <ele>724</ele>
        <time>1970-01-01T06:51:48.000Z</time>
      </trkpt>
      <trkpt lat="42.99311" lon="0.55524">
        <ele>725.2</ele>
        <time>1970-01-01T06:51:53.000Z</time>
      </trkpt>
      <trkpt lat="42.993181" lon="0.555137">
        <ele>726.2</ele>
        <time>1970-01-01T06:51:58.000Z</time>
      </trkpt>
      <trkpt lat="42.993259" lon="0.555031">
        <ele>727.6</ele>
        <time>1970-01-01T06:52:03.000Z</time>
      </trkpt>
      <trkpt lat="42.993322" lon="0.554938">
        <ele>728.8</ele>
        <time>1970-01-01T06:52:07.000Z</time>
      </trkpt>
      <trkpt lat="42.993419" lon="0.554753">
        <ele>730</ele>
        <time>1970-01-01T06:52:14.000Z</time>
      </trkpt>
      <trkpt lat="42.993545" lon="0.554478">
        <ele>731</ele>
        <time>1970-01-01T06:52:26.000Z</time>
      </trkpt>
      <trkpt lat="42.993544" lon="0.554478">
        <ele>731</ele>
        <time>1970-01-01T06:52:27.000Z</time>
      </trkpt>
      <trkpt lat="42.993567" lon="0.554394">
        <ele>731.6</ele>
        <time>1970-01-01T06:52:37.000Z</time>
      </trkpt>
      <trkpt lat="42.993603" lon="0.554245">
        <ele>732</ele>
        <time>1970-01-01T06:52:44.000Z</time>
      </trkpt>
      <trkpt lat="42.99377" lon="0.553839">
        <ele>733</ele>
        <time>1970-01-01T06:53:01.000Z</time>
      </trkpt>
      <trkpt lat="42.993999" lon="0.553528">
        <ele>734</ele>
        <time>1970-01-01T06:53:15.000Z</time>
      </trkpt>
      <trkpt lat="42.99429" lon="0.55323">
        <ele>735.2</ele>
        <time>1970-01-01T06:53:30.000Z</time>
      </trkpt>
      <trkpt lat="42.994411" lon="0.553169">
        <ele>736</ele>
        <time>1970-01-01T06:53:37.000Z</time>
      </trkpt>
      <trkpt lat="42.994562" lon="0.553097">
        <ele>737.4</ele>
        <time>1970-01-01T06:53:46.000Z</time>
      </trkpt>
      <trkpt lat="42.994631" lon="0.553054">
        <ele>738.4</ele>
        <time>1970-01-01T06:53:50.000Z</time>
      </trkpt>
      <trkpt lat="42.994705" lon="0.552986">
        <ele>739.6</ele>
        <time>1970-01-01T06:53:55.000Z</time>
      </trkpt>
      <trkpt lat="42.99478" lon="0.552885">
        <ele>740.8</ele>
        <time>1970-01-01T06:54:00.000Z</time>
      </trkpt>
      <trkpt lat="42.994834" lon="0.552712">
        <ele>742</ele>
        <time>1970-01-01T06:54:07.000Z</time>
      </trkpt>
      <trkpt lat="42.994881" lon="0.552531">
        <ele>743</ele>
        <time>1970-01-01T06:54:15.000Z</time>
      </trkpt>
      <trkpt lat="42.994905" lon="0.552262">
        <ele>744.2</ele>
        <time>1970-01-01T06:54:25.000Z</time>
      </trkpt>
      <trkpt lat="42.994969" lon="0.552024">
        <ele>745.2</ele>
        <time>1970-01-01T06:54:34.000Z</time>
      </trkpt>
      <trkpt lat="42.995061" lon="0.551715">
        <ele>746.2</ele>
        <time>1970-01-01T06:54:46.000Z</time>
      </trkpt>
      <trkpt lat="42.995084" lon="0.551563">
        <ele>747.2</ele>
        <time>1970-01-01T06:54:51.000Z</time>
      </trkpt>
      <trkpt lat="42.995105" lon="0.551277">
        <ele>748.4</ele>
        <time>1970-01-01T06:54:59.000Z</time>
      </trkpt>
      <trkpt lat="42.995141" lon="0.55114">
        <ele>748.8</ele>
        <time>1970-01-01T06:55:03.000Z</time>
      </trkpt>
      <trkpt lat="42.995209" lon="0.551154">
        <ele>749.4</ele>
        <time>1970-01-01T06:55:06.000Z</time>
      </trkpt>
      <trkpt lat="42.995224" lon="0.55129">
        <ele>750</ele>
        <time>1970-01-01T06:55:10.000Z</time>
      </trkpt>
      <trkpt lat="42.995227" lon="0.551426">
        <ele>750.6</ele>
        <time>1970-01-01T06:55:14.000Z</time>
      </trkpt>
      <trkpt lat="42.995235" lon="0.551589">
        <ele>751.4</ele>
        <time>1970-01-01T06:55:19.000Z</time>
      </trkpt>
      <trkpt lat="42.995245" lon="0.551854">
        <ele>752.6</ele>
        <time>1970-01-01T06:55:27.000Z</time>
      </trkpt>
      <trkpt lat="42.995243" lon="0.551947">
        <ele>753.8</ele>
        <time>1970-01-01T06:55:30.000Z</time>
      </trkpt>
      <trkpt lat="42.995253" lon="0.552117">
        <ele>754.8</ele>
        <time>1970-01-01T06:55:36.000Z</time>
      </trkpt>
      <trkpt lat="42.995279" lon="0.552282">
        <ele>756</ele>
        <time>1970-01-01T06:55:42.000Z</time>
      </trkpt>
      <trkpt lat="42.995282" lon="0.55245">
        <ele>757</ele>
        <time>1970-01-01T06:55:48.000Z</time>
      </trkpt>
      <trkpt lat="42.995301" lon="0.552627">
        <ele>758.2</ele>
        <time>1970-01-01T06:55:54.000Z</time>
      </trkpt>
      <trkpt lat="42.995312" lon="0.55281">
        <ele>759.2</ele>
        <time>1970-01-01T06:56:00.000Z</time>
      </trkpt>
      <trkpt lat="42.995327" lon="0.552997">
        <ele>760.4</ele>
        <time>1970-01-01T06:56:06.000Z</time>
      </trkpt>
      <trkpt lat="42.995338" lon="0.553151">
        <ele>761.4</ele>
        <time>1970-01-01T06:56:11.000Z</time>
      </trkpt>
      <trkpt lat="42.995347" lon="0.553303">
        <ele>762.4</ele>
        <time>1970-01-01T06:56:16.000Z</time>
      </trkpt>
      <trkpt lat="42.995355" lon="0.55346">
        <ele>763.4</ele>
        <time>1970-01-01T06:56:21.000Z</time>
      </trkpt>
      <trkpt lat="42.995372" lon="0.553667">
        <ele>764.8</ele>
        <time>1970-01-01T06:56:28.000Z</time>
      </trkpt>
      <trkpt lat="42.99538" lon="0.553849">
        <ele>765.8</ele>
        <time>1970-01-01T06:56:34.000Z</time>
      </trkpt>
      <trkpt lat="42.995388" lon="0.554034">
        <ele>767</ele>
        <time>1970-01-01T06:56:40.000Z</time>
      </trkpt>
      <trkpt lat="42.995371" lon="0.55421">
        <ele>768</ele>
        <time>1970-01-01T06:56:46.000Z</time>
      </trkpt>
      <trkpt lat="42.995399" lon="0.554341">
        <ele>769</ele>
        <time>1970-01-01T06:56:52.000Z</time>
      </trkpt>
      <trkpt lat="42.995475" lon="0.554269">
        <ele>769.8</ele>
        <time>1970-01-01T06:56:58.000Z</time>
      </trkpt>
      <trkpt lat="42.995487" lon="0.554201">
        <ele>770</ele>
        <time>1970-01-01T06:57:01.000Z</time>
      </trkpt>
      <trkpt lat="42.995513" lon="0.554">
        <ele>771.4</ele>
        <time>1970-01-01T06:57:09.000Z</time>
      </trkpt>
      <trkpt lat="42.995549" lon="0.55381">
        <ele>772.4</ele>
        <time>1970-01-01T06:57:16.000Z</time>
      </trkpt>
      <trkpt lat="42.995579" lon="0.553642">
        <ele>773.2</ele>
        <time>1970-01-01T06:57:22.000Z</time>
      </trkpt>
      <trkpt lat="42.99562" lon="0.55347">
        <ele>774.2</ele>
        <time>1970-01-01T06:57:28.000Z</time>
      </trkpt>
      <trkpt lat="42.995674" lon="0.553268">
        <ele>775.4</ele>
        <time>1970-01-01T06:57:35.000Z</time>
      </trkpt>
      <trkpt lat="42.995719" lon="0.553097">
        <ele>776.4</ele>
        <time>1970-01-01T06:57:41.000Z</time>
      </trkpt>
      <trkpt lat="42.995771" lon="0.552904">
        <ele>777.4</ele>
        <time>1970-01-01T06:57:48.000Z</time>
      </trkpt>
      <trkpt lat="42.995826" lon="0.552711">
        <ele>778.4</ele>
        <time>1970-01-01T06:57:55.000Z</time>
      </trkpt>
      <trkpt lat="42.995883" lon="0.552511">
        <ele>779.6</ele>
        <time>1970-01-01T06:58:02.000Z</time>
      </trkpt>
      <trkpt lat="42.995937" lon="0.55232">
        <ele>780.8</ele>
        <time>1970-01-01T06:58:09.000Z</time>
      </trkpt>
      <trkpt lat="42.995993" lon="0.552127">
        <ele>782</ele>
        <time>1970-01-01T06:58:16.000Z</time>
      </trkpt>
      <trkpt lat="42.996043" lon="0.551963">
        <ele>783</ele>
        <time>1970-01-01T06:58:22.000Z</time>
      </trkpt>
      <trkpt lat="42.996089" lon="0.551796">
        <ele>784.2</ele>
        <time>1970-01-01T06:58:28.000Z</time>
      </trkpt>
      <trkpt lat="42.996156" lon="0.551613">
        <ele>785.4</ele>
        <time>1970-01-01T06:58:35.000Z</time>
      </trkpt>
      <trkpt lat="42.996223" lon="0.551461">
        <ele>786.6</ele>
        <time>1970-01-01T06:58:41.000Z</time>
      </trkpt>
      <trkpt lat="42.996312" lon="0.551244">
        <ele>787.8</ele>
        <time>1970-01-01T06:58:49.000Z</time>
      </trkpt>
      <trkpt lat="42.996371" lon="0.55108">
        <ele>789</ele>
        <time>1970-01-01T06:58:55.000Z</time>
      </trkpt>
      <trkpt lat="42.99642" lon="0.550906">
        <ele>790</ele>
        <time>1970-01-01T06:59:01.000Z</time>
      </trkpt>
      <trkpt lat="42.996465" lon="0.550728">
        <ele>791.4</ele>
        <time>1970-01-01T06:59:07.000Z</time>
      </trkpt>
      <trkpt lat="42.996511" lon="0.550509">
        <ele>792.4</ele>
        <time>1970-01-01T06:59:14.000Z</time>
      </trkpt>
      <trkpt lat="42.996565" lon="0.550262">
        <ele>793.4</ele>
        <time>1970-01-01T06:59:22.000Z</time>
      </trkpt>
      <trkpt lat="42.996611" lon="0.550055">
        <ele>794.6</ele>
        <time>1970-01-01T06:59:29.000Z</time>
      </trkpt>
      <trkpt lat="42.996684" lon="0.549795">
        <ele>795.8</ele>
        <time>1970-01-01T06:59:38.000Z</time>
      </trkpt>
      <trkpt lat="42.99675" lon="0.549565">
        <ele>796.8</ele>
        <time>1970-01-01T06:59:46.000Z</time>
      </trkpt>
      <trkpt lat="42.996797" lon="0.549423">
        <ele>797.8</ele>
        <time>1970-01-01T06:59:51.000Z</time>
      </trkpt>
      <trkpt lat="42.996881" lon="0.549193">
        <ele>798.8</ele>
        <time>1970-01-01T06:59:59.000Z</time>
      </trkpt>
      <trkpt lat="42.996957" lon="0.548965">
        <ele>800</ele>
        <time>1970-01-01T07:00:07.000Z</time>
      </trkpt>
      <trkpt lat="42.997022" lon="0.54876">
        <ele>801</ele>
        <time>1970-01-01T07:00:14.000Z</time>
      </trkpt>
      <trkpt lat="42.997089" lon="0.548531">
        <ele>802.2</ele>
        <time>1970-01-01T07:00:22.000Z</time>
      </trkpt>
      <trkpt lat="42.997147" lon="0.548328">
        <ele>803.2</ele>
        <time>1970-01-01T07:00:29.000Z</time>
      </trkpt>
      <trkpt lat="42.997186" lon="0.548171">
        <ele>804.4</ele>
        <time>1970-01-01T07:00:34.000Z</time>
      </trkpt>
      <trkpt lat="42.99725" lon="0.547948">
        <ele>805.4</ele>
        <time>1970-01-01T07:00:41.000Z</time>
      </trkpt>
      <trkpt lat="42.997302" lon="0.547754">
        <ele>806.6</ele>
        <time>1970-01-01T07:00:47.000Z</time>
      </trkpt>
      <trkpt lat="42.997326" lon="0.547551">
        <ele>807.6</ele>
        <time>1970-01-01T07:00:53.000Z</time>
      </trkpt>
      <trkpt lat="42.997358" lon="0.547321">
        <ele>808.6</ele>
        <time>1970-01-01T07:01:00.000Z</time>
      </trkpt>
      <trkpt lat="42.997401" lon="0.54708">
        <ele>809.6</ele>
        <time>1970-01-01T07:01:07.000Z</time>
      </trkpt>
      <trkpt lat="42.997439" lon="0.546786">
        <ele>810.8</ele>
        <time>1970-01-01T07:01:15.000Z</time>
      </trkpt>
      <trkpt lat="42.997469" lon="0.546455">
        <ele>811.8</ele>
        <time>1970-01-01T07:01:24.000Z</time>
      </trkpt>
      <trkpt lat="42.997492" lon="0.546193">
        <ele>812.8</ele>
        <time>1970-01-01T07:01:31.000Z</time>
      </trkpt>
      <trkpt lat="42.997518" lon="0.545941">
        <ele>813.8</ele>
        <time>1970-01-01T07:01:38.000Z</time>
      </trkpt>
      <trkpt lat="42.997539" lon="0.545661">
        <ele>815</ele>
        <time>1970-01-01T07:01:46.000Z</time>
      </trkpt>
      <trkpt lat="42.997552" lon="0.545453">
        <ele>816</ele>
        <time>1970-01-01T07:01:52.000Z</time>
      </trkpt>
      <trkpt lat="42.997553" lon="0.545216">
        <ele>817</ele>
        <time>1970-01-01T07:01:59.000Z</time>
      </trkpt>
      <trkpt lat="42.997554" lon="0.545109">
        <ele>817.4</ele>
        <time>1970-01-01T07:02:02.000Z</time>
      </trkpt>
      <trkpt lat="42.99756" lon="0.544903">
        <ele>818.2</ele>
        <time>1970-01-01T07:02:08.000Z</time>
      </trkpt>
      <trkpt lat="42.997565" lon="0.544734">
        <ele>819.2</ele>
        <time>1970-01-01T07:02:13.000Z</time>
      </trkpt>
      <trkpt lat="42.997562" lon="0.544486">
        <ele>820.2</ele>
        <time>1970-01-01T07:02:20.000Z</time>
      </trkpt>
      <trkpt lat="42.99757" lon="0.544148">
        <ele>821.2</ele>
        <time>1970-01-01T07:02:29.000Z</time>
      </trkpt>
      <trkpt lat="42.997549" lon="0.543937">
        <ele>822.2</ele>
        <time>1970-01-01T07:02:35.000Z</time>
      </trkpt>
      <trkpt lat="42.997514" lon="0.543818">
        <ele>823.4</ele>
        <time>1970-01-01T07:02:39.000Z</time>
      </trkpt>
      <trkpt lat="42.997486" lon="0.543695">
        <ele>824.6</ele>
        <time>1970-01-01T07:02:43.000Z</time>
      </trkpt>
      <trkpt lat="42.997451" lon="0.543467">
        <ele>825.8</ele>
        <time>1970-01-01T07:02:50.000Z</time>
      </trkpt>
      <trkpt lat="42.997433" lon="0.543339">
        <ele>826.8</ele>
        <time>1970-01-01T07:02:54.000Z</time>
      </trkpt>
      <trkpt lat="42.997419" lon="0.543146">
        <ele>828</ele>
        <time>1970-01-01T07:03:00.000Z</time>
      </trkpt>
      <trkpt lat="42.997394" lon="0.542945">
        <ele>829</ele>
        <time>1970-01-01T07:03:06.000Z</time>
      </trkpt>
      <trkpt lat="42.997375" lon="0.542747">
        <ele>830</ele>
        <time>1970-01-01T07:03:12.000Z</time>
      </trkpt>
      <trkpt lat="42.997362" lon="0.542549">
        <ele>831</ele>
        <time>1970-01-01T07:03:18.000Z</time>
      </trkpt>
      <trkpt lat="42.997367" lon="0.542386">
        <ele>832.2</ele>
        <time>1970-01-01T07:03:23.000Z</time>
      </trkpt>
      <trkpt lat="42.997374" lon="0.542223">
        <ele>833.2</ele>
        <time>1970-01-01T07:03:28.000Z</time>
      </trkpt>
      <trkpt lat="42.997384" lon="0.542129">
        <ele>834.4</ele>
        <time>1970-01-01T07:03:31.000Z</time>
      </trkpt>
      <trkpt lat="42.997395" lon="0.541974">
        <ele>835.6</ele>
        <time>1970-01-01T07:03:36.000Z</time>
      </trkpt>
      <trkpt lat="42.99741" lon="0.541851">
        <ele>836.6</ele>
        <time>1970-01-01T07:03:40.000Z</time>
      </trkpt>
      <trkpt lat="42.997429" lon="0.541698">
        <ele>837.8</ele>
        <time>1970-01-01T07:03:45.000Z</time>
      </trkpt>
      <trkpt lat="42.997455" lon="0.541542">
        <ele>839</ele>
        <time>1970-01-01T07:03:50.000Z</time>
      </trkpt>
      <trkpt lat="42.997479" lon="0.541382">
        <ele>840</ele>
        <time>1970-01-01T07:03:55.000Z</time>
      </trkpt>
      <trkpt lat="42.997504" lon="0.541186">
        <ele>841</ele>
        <time>1970-01-01T07:04:01.000Z</time>
      </trkpt>
      <trkpt lat="42.997533" lon="0.540986">
        <ele>842.2</ele>
        <time>1970-01-01T07:04:07.000Z</time>
      </trkpt>
      <trkpt lat="42.997567" lon="0.54067">
        <ele>843.4</ele>
        <time>1970-01-01T07:04:16.000Z</time>
      </trkpt>
      <trkpt lat="42.997584" lon="0.540501">
        <ele>844.4</ele>
        <time>1970-01-01T07:04:21.000Z</time>
      </trkpt>
      <trkpt lat="42.997662" lon="0.539977">
        <ele>845.2</ele>
        <time>1970-01-01T07:04:34.000Z</time>
      </trkpt>
      <trkpt lat="42.997666" lon="0.539682">
        <ele>846.2</ele>
        <time>1970-01-01T07:04:42.000Z</time>
      </trkpt>
      <trkpt lat="42.997661" lon="0.539602">
        <ele>846.6</ele>
        <time>1970-01-01T07:04:45.000Z</time>
      </trkpt>
      <trkpt lat="42.997744" lon="0.539622">
        <ele>846.2</ele>
        <time>1970-01-01T07:04:53.000Z</time>
      </trkpt>
      <trkpt lat="42.998047" lon="0.539088">
        <ele>845.6</ele>
        <time>1970-01-01T07:05:10.000Z</time>
      </trkpt>
      <trkpt lat="42.998091" lon="0.538985">
        <ele>845.4</ele>
        <time>1970-01-01T07:05:12.000Z</time>
      </trkpt>
      <trkpt lat="42.998144" lon="0.538875">
        <ele>845.2</ele>
        <time>1970-01-01T07:05:14.000Z</time>
      </trkpt>
      <trkpt lat="42.998175" lon="0.538822">
        <ele>845</ele>
        <time>1970-01-01T07:05:15.000Z</time>
      </trkpt>
      <trkpt lat="42.998389" lon="0.538667">
        <ele>844.4</ele>
        <time>1970-01-01T07:05:20.000Z</time>
      </trkpt>
      <trkpt lat="42.998903" lon="0.538426">
        <ele>845.8</ele>
        <time>1970-01-01T07:05:35.000Z</time>
      </trkpt>
      <trkpt lat="42.999132" lon="0.538179">
        <ele>845.2</ele>
        <time>1970-01-01T07:05:41.000Z</time>
      </trkpt>
      <trkpt lat="42.999261" lon="0.537976">
        <ele>843.8</ele>
        <time>1970-01-01T07:05:44.000Z</time>
      </trkpt>
      <trkpt lat="42.999311" lon="0.537902">
        <ele>843.2</ele>
        <time>1970-01-01T07:05:45.000Z</time>
      </trkpt>
      <trkpt lat="42.999369" lon="0.537834">
        <ele>842.6</ele>
        <time>1970-01-01T07:05:46.000Z</time>
      </trkpt>
      <trkpt lat="42.999496" lon="0.537696">
        <ele>841</ele>
        <time>1970-01-01T07:05:48.000Z</time>
      </trkpt>
      <trkpt lat="42.999633" lon="0.537553">
        <ele>839.8</ele>
        <time>1970-01-01T07:05:50.000Z</time>
      </trkpt>
      <trkpt lat="42.999708" lon="0.537487">
        <ele>839.2</ele>
        <time>1970-01-01T07:05:51.000Z</time>
      </trkpt>
      <trkpt lat="42.999787" lon="0.537419">
        <ele>838.2</ele>
        <time>1970-01-01T07:05:52.000Z</time>
      </trkpt>
      <trkpt lat="42.999951" lon="0.537287">
        <ele>837</ele>
        <time>1970-01-01T07:05:54.000Z</time>
      </trkpt>
      <trkpt lat="43.000123" lon="0.537157">
        <ele>836</ele>
        <time>1970-01-01T07:05:56.000Z</time>
      </trkpt>
      <trkpt lat="43.000303" lon="0.537028">
        <ele>834.6</ele>
        <time>1970-01-01T07:05:58.000Z</time>
      </trkpt>
      <trkpt lat="43.000396" lon="0.536966">
        <ele>833.6</ele>
        <time>1970-01-01T07:05:59.000Z</time>
      </trkpt>
      <trkpt lat="43.000583" lon="0.536835">
        <ele>831.6</ele>
        <time>1970-01-01T07:06:01.000Z</time>
      </trkpt>
      <trkpt lat="43.000761" lon="0.536685">
        <ele>830</ele>
        <time>1970-01-01T07:06:03.000Z</time>
      </trkpt>
      <trkpt lat="43.000936" lon="0.536514">
        <ele>828</ele>
        <time>1970-01-01T07:06:05.000Z</time>
      </trkpt>
      <trkpt lat="43.001102" lon="0.536316">
        <ele>826.2</ele>
        <time>1970-01-01T07:06:07.000Z</time>
      </trkpt>
      <trkpt lat="43.001269" lon="0.536096">
        <ele>824.2</ele>
        <time>1970-01-01T07:06:09.000Z</time>
      </trkpt>
      <trkpt lat="43.00135" lon="0.535979">
        <ele>823</ele>
        <time>1970-01-01T07:06:10.000Z</time>
      </trkpt>
      <trkpt lat="43.001503" lon="0.535734">
        <ele>821.2</ele>
        <time>1970-01-01T07:06:12.000Z</time>
      </trkpt>
      <trkpt lat="43.001652" lon="0.535482">
        <ele>819.8</ele>
        <time>1970-01-01T07:06:14.000Z</time>
      </trkpt>
      <trkpt lat="43.001718" lon="0.535351">
        <ele>819.4</ele>
        <time>1970-01-01T07:06:15.000Z</time>
      </trkpt>
      <trkpt lat="43.001773" lon="0.535205">
        <ele>818.2</ele>
        <time>1970-01-01T07:06:16.000Z</time>
      </trkpt>
      <trkpt lat="43.001875" lon="0.534915">
        <ele>816.6</ele>
        <time>1970-01-01T07:06:18.000Z</time>
      </trkpt>
      <trkpt lat="43.001965" lon="0.534647">
        <ele>814.8</ele>
        <time>1970-01-01T07:06:20.000Z</time>
      </trkpt>
      <trkpt lat="43.002002" lon="0.534524">
        <ele>813.6</ele>
        <time>1970-01-01T07:06:21.000Z</time>
      </trkpt>
      <trkpt lat="43.002032" lon="0.53441">
        <ele>812.2</ele>
        <time>1970-01-01T07:06:22.000Z</time>
      </trkpt>
      <trkpt lat="43.002078" lon="0.53421">
        <ele>810.4</ele>
        <time>1970-01-01T07:06:24.000Z</time>
      </trkpt>
      <trkpt lat="43.002125" lon="0.534036">
        <ele>808.8</ele>
        <time>1970-01-01T07:06:26.000Z</time>
      </trkpt>
      <trkpt lat="43.002157" lon="0.533955">
        <ele>808.2</ele>
        <time>1970-01-01T07:06:27.000Z</time>
      </trkpt>
      <trkpt lat="43.002194" lon="0.533882">
        <ele>807.6</ele>
        <time>1970-01-01T07:06:28.000Z</time>
      </trkpt>
      <trkpt lat="43.002297" lon="0.533809">
        <ele>806.4</ele>
        <time>1970-01-01T07:06:30.000Z</time>
      </trkpt>
      <trkpt lat="43.002439" lon="0.533923">
        <ele>805.2</ele>
        <time>1970-01-01T07:06:33.000Z</time>
      </trkpt>
      <trkpt lat="43.002498" lon="0.534034">
        <ele>804.2</ele>
        <time>1970-01-01T07:06:35.000Z</time>
      </trkpt>
      <trkpt lat="43.002523" lon="0.534071">
        <ele>802.8</ele>
        <time>1970-01-01T07:06:37.000Z</time>
      </trkpt>
      <trkpt lat="43.002519" lon="0.534076">
        <ele>802.6</ele>
        <time>1970-01-01T07:06:38.000Z</time>
      </trkpt>
      <trkpt lat="43.00245" lon="0.533987">
        <ele>803.2</ele>
        <time>1970-01-01T07:08:07.000Z</time>
      </trkpt>
      <trkpt lat="43.00242" lon="0.533932">
        <ele>803.6</ele>
        <time>1970-01-01T07:08:10.000Z</time>
      </trkpt>
      <trkpt lat="43.002347" lon="0.533857">
        <ele>804.6</ele>
        <time>1970-01-01T07:08:15.000Z</time>
      </trkpt>
      <trkpt lat="43.00231" lon="0.533829">
        <ele>805.4</ele>
        <time>1970-01-01T07:08:20.000Z</time>
      </trkpt>
      <trkpt lat="43.002345" lon="0.533864">
        <ele>805</ele>
        <time>1970-01-01T07:08:39.000Z</time>
      </trkpt>
      <trkpt lat="43.002481" lon="0.534071">
        <ele>803.6</ele>
        <time>1970-01-01T07:08:44.000Z</time>
      </trkpt>
      <trkpt lat="43.002505" lon="0.534125">
        <ele>803.4</ele>
        <time>1970-01-01T07:08:45.000Z</time>
      </trkpt>
      <trkpt lat="43.002523" lon="0.534185">
        <ele>802.8</ele>
        <time>1970-01-01T07:08:46.000Z</time>
      </trkpt>
      <trkpt lat="43.002533" lon="0.534243">
        <ele>801.8</ele>
        <time>1970-01-01T07:08:47.000Z</time>
      </trkpt>
      <trkpt lat="43.002551" lon="0.534364">
        <ele>800.4</ele>
        <time>1970-01-01T07:08:50.000Z</time>
      </trkpt>
      <trkpt lat="43.002561" lon="0.534409">
        <ele>799.2</ele>
        <time>1970-01-01T07:08:53.000Z</time>
      </trkpt>
      <trkpt lat="43.002568" lon="0.534485">
        <ele>798.8</ele>
        <time>1970-01-01T07:08:58.000Z</time>
      </trkpt>
      <trkpt lat="43.002579" lon="0.534667">
        <ele>798</ele>
        <time>1970-01-01T07:09:01.000Z</time>
      </trkpt>
      <trkpt lat="43.0026" lon="0.534891">
        <ele>796.6</ele>
        <time>1970-01-01T07:09:04.000Z</time>
      </trkpt>
      <trkpt lat="43.002639" lon="0.535065">
        <ele>795.2</ele>
        <time>1970-01-01T07:09:06.000Z</time>
      </trkpt>
      <trkpt lat="43.002664" lon="0.535168">
        <ele>794.4</ele>
        <time>1970-01-01T07:09:07.000Z</time>
      </trkpt>
      <trkpt lat="43.002697" lon="0.535275">
        <ele>793.8</ele>
        <time>1970-01-01T07:09:08.000Z</time>
      </trkpt>
      <trkpt lat="43.002775" lon="0.535494">
        <ele>792.6</ele>
        <time>1970-01-01T07:09:10.000Z</time>
      </trkpt>
      <trkpt lat="43.002849" lon="0.535729">
        <ele>790.8</ele>
        <time>1970-01-01T07:09:12.000Z</time>
      </trkpt>
      <trkpt lat="43.00289" lon="0.535845">
        <ele>789.8</ele>
        <time>1970-01-01T07:09:13.000Z</time>
      </trkpt>
      <trkpt lat="43.002984" lon="0.536081">
        <ele>788.4</ele>
        <time>1970-01-01T07:09:15.000Z</time>
      </trkpt>
      <trkpt lat="43.003084" lon="0.536303">
        <ele>786.6</ele>
        <time>1970-01-01T07:09:17.000Z</time>
      </trkpt>
      <trkpt lat="43.003228" lon="0.536478">
        <ele>785.4</ele>
        <time>1970-01-01T07:09:19.000Z</time>
      </trkpt>
      <trkpt lat="43.003408" lon="0.536602">
        <ele>783.4</ele>
        <time>1970-01-01T07:09:21.000Z</time>
      </trkpt>
      <trkpt lat="43.003512" lon="0.536637">
        <ele>782.4</ele>
        <time>1970-01-01T07:09:22.000Z</time>
      </trkpt>
      <trkpt lat="43.003628" lon="0.536657">
        <ele>781.2</ele>
        <time>1970-01-01T07:09:23.000Z</time>
      </trkpt>
      <trkpt lat="43.003739" lon="0.536669">
        <ele>780.2</ele>
        <time>1970-01-01T07:09:24.000Z</time>
      </trkpt>
      <trkpt lat="43.00384" lon="0.536684">
        <ele>779.2</ele>
        <time>1970-01-01T07:09:25.000Z</time>
      </trkpt>
      <trkpt lat="43.003936" lon="0.536719">
        <ele>778.2</ele>
        <time>1970-01-01T07:09:26.000Z</time>
      </trkpt>
      <trkpt lat="43.004002" lon="0.536778">
        <ele>777.2</ele>
        <time>1970-01-01T07:09:27.000Z</time>
      </trkpt>
      <trkpt lat="43.004047" lon="0.536853">
        <ele>776</ele>
        <time>1970-01-01T07:09:28.000Z</time>
      </trkpt>
      <trkpt lat="43.004072" lon="0.53696">
        <ele>775</ele>
        <time>1970-01-01T07:09:29.000Z</time>
      </trkpt>
      <trkpt lat="43.004105" lon="0.537066">
        <ele>773.4</ele>
        <time>1970-01-01T07:09:30.000Z</time>
      </trkpt>
      <trkpt lat="43.004196" lon="0.537264">
        <ele>772</ele>
        <time>1970-01-01T07:09:32.000Z</time>
      </trkpt>
      <trkpt lat="43.004333" lon="0.537422">
        <ele>770.2</ele>
        <time>1970-01-01T07:09:34.000Z</time>
      </trkpt>
      <trkpt lat="43.00441" lon="0.537493">
        <ele>769.6</ele>
        <time>1970-01-01T07:09:35.000Z</time>
      </trkpt>
      <trkpt lat="43.004487" lon="0.537564">
        <ele>768.6</ele>
        <time>1970-01-01T07:09:36.000Z</time>
      </trkpt>
      <trkpt lat="43.004659" lon="0.5377">
        <ele>767.4</ele>
        <time>1970-01-01T07:09:38.000Z</time>
      </trkpt>
      <trkpt lat="43.004745" lon="0.53777">
        <ele>765.8</ele>
        <time>1970-01-01T07:09:39.000Z</time>
      </trkpt>
      <trkpt lat="43.004908" lon="0.53793">
        <ele>764</ele>
        <time>1970-01-01T07:09:41.000Z</time>
      </trkpt>
      <trkpt lat="43.00502" lon="0.538128">
        <ele>762</ele>
        <time>1970-01-01T07:09:43.000Z</time>
      </trkpt>
      <trkpt lat="43.005053" lon="0.53825">
        <ele>760.8</ele>
        <time>1970-01-01T07:09:44.000Z</time>
      </trkpt>
      <trkpt lat="43.005074" lon="0.538385">
        <ele>759.6</ele>
        <time>1970-01-01T07:09:45.000Z</time>
      </trkpt>
      <trkpt lat="43.005111" lon="0.538677">
        <ele>757.6</ele>
        <time>1970-01-01T07:09:47.000Z</time>
      </trkpt>
      <trkpt lat="43.005163" lon="0.538973">
        <ele>756</ele>
        <time>1970-01-01T07:09:49.000Z</time>
      </trkpt>
      <trkpt lat="43.005203" lon="0.539275">
        <ele>754</ele>
        <time>1970-01-01T07:09:51.000Z</time>
      </trkpt>
      <trkpt lat="43.005221" lon="0.539588">
        <ele>752.6</ele>
        <time>1970-01-01T07:09:53.000Z</time>
      </trkpt>
      <trkpt lat="43.005256" lon="0.539895">
        <ele>751</ele>
        <time>1970-01-01T07:09:55.000Z</time>
      </trkpt>
      <trkpt lat="43.005286" lon="0.540046">
        <ele>749.4</ele>
        <time>1970-01-01T07:09:56.000Z</time>
      </trkpt>
      <trkpt lat="43.005324" lon="0.540189">
        <ele>748</ele>
        <time>1970-01-01T07:09:57.000Z</time>
      </trkpt>
      <trkpt lat="43.005369" lon="0.54033">
        <ele>747</ele>
        <time>1970-01-01T07:09:58.000Z</time>
      </trkpt>
      <trkpt lat="43.005405" lon="0.540457">
        <ele>745.8</ele>
        <time>1970-01-01T07:09:59.000Z</time>
      </trkpt>
      <trkpt lat="43.005444" lon="0.540542">
        <ele>744.2</ele>
        <time>1970-01-01T07:10:00.000Z</time>
      </trkpt>
      <trkpt lat="43.005504" lon="0.540592">
        <ele>742.6</ele>
        <time>1970-01-01T07:10:01.000Z</time>
      </trkpt>
      <trkpt lat="43.005565" lon="0.540603">
        <ele>741.4</ele>
        <time>1970-01-01T07:10:02.000Z</time>
      </trkpt>
      <trkpt lat="43.005696" lon="0.540544">
        <ele>739.6</ele>
        <time>1970-01-01T07:10:04.000Z</time>
      </trkpt>
      <trkpt lat="43.005748" lon="0.540481">
        <ele>738.2</ele>
        <time>1970-01-01T07:10:05.000Z</time>
      </trkpt>
      <trkpt lat="43.005804" lon="0.54041">
        <ele>737.6</ele>
        <time>1970-01-01T07:10:06.000Z</time>
      </trkpt>
      <trkpt lat="43.005868" lon="0.540346">
        <ele>737.2</ele>
        <time>1970-01-01T07:10:07.000Z</time>
      </trkpt>
      <trkpt lat="43.005931" lon="0.540286">
        <ele>736.6</ele>
        <time>1970-01-01T07:10:08.000Z</time>
      </trkpt>
      <trkpt lat="43.005997" lon="0.540228">
        <ele>735.8</ele>
        <time>1970-01-01T07:10:09.000Z</time>
      </trkpt>
      <trkpt lat="43.006068" lon="0.540177">
        <ele>734.6</ele>
        <time>1970-01-01T07:10:10.000Z</time>
      </trkpt>
      <trkpt lat="43.006133" lon="0.540121">
        <ele>733.6</ele>
        <time>1970-01-01T07:10:11.000Z</time>
      </trkpt>
      <trkpt lat="43.006272" lon="0.54">
        <ele>731.6</ele>
        <time>1970-01-01T07:10:13.000Z</time>
      </trkpt>
      <trkpt lat="43.006416" lon="0.539868">
        <ele>730</ele>
        <time>1970-01-01T07:10:15.000Z</time>
      </trkpt>
      <trkpt lat="43.006512" lon="0.539765">
        <ele>728.4</ele>
        <time>1970-01-01T07:10:17.000Z</time>
      </trkpt>
      <trkpt lat="43.006558" lon="0.539748">
        <ele>726.8</ele>
        <time>1970-01-01T07:10:19.000Z</time>
      </trkpt>
      <trkpt lat="43.00663" lon="0.53973">
        <ele>725.8</ele>
        <time>1970-01-01T07:10:22.000Z</time>
      </trkpt>
      <trkpt lat="43.006703" lon="0.539732">
        <ele>725</ele>
        <time>1970-01-01T07:10:24.000Z</time>
      </trkpt>
      <trkpt lat="43.006805" lon="0.539768">
        <ele>724.6</ele>
        <time>1970-01-01T07:10:26.000Z</time>
      </trkpt>
      <trkpt lat="43.007005" lon="0.539881">
        <ele>723</ele>
        <time>1970-01-01T07:10:29.000Z</time>
      </trkpt>
      <trkpt lat="43.007159" lon="0.539951">
        <ele>721.6</ele>
        <time>1970-01-01T07:10:31.000Z</time>
      </trkpt>
      <trkpt lat="43.007322" lon="0.540011">
        <ele>720.2</ele>
        <time>1970-01-01T07:10:33.000Z</time>
      </trkpt>
      <trkpt lat="43.007493" lon="0.540078">
        <ele>718.8</ele>
        <time>1970-01-01T07:10:35.000Z</time>
      </trkpt>
      <trkpt lat="43.007769" lon="0.540151">
        <ele>717.4</ele>
        <time>1970-01-01T07:10:38.000Z</time>
      </trkpt>
      <trkpt lat="43.007957" lon="0.540199">
        <ele>715</ele>
        <time>1970-01-01T07:10:40.000Z</time>
      </trkpt>
      <trkpt lat="43.008045" lon="0.540215">
        <ele>714</ele>
        <time>1970-01-01T07:10:41.000Z</time>
      </trkpt>
      <trkpt lat="43.008131" lon="0.540212">
        <ele>712.8</ele>
        <time>1970-01-01T07:10:42.000Z</time>
      </trkpt>
      <trkpt lat="43.008204" lon="0.540171">
        <ele>711.8</ele>
        <time>1970-01-01T07:10:43.000Z</time>
      </trkpt>
      <trkpt lat="43.008276" lon="0.540104">
        <ele>710.6</ele>
        <time>1970-01-01T07:10:44.000Z</time>
      </trkpt>
      <trkpt lat="43.008347" lon="0.539909">
        <ele>709</ele>
        <time>1970-01-01T07:10:46.000Z</time>
      </trkpt>
      <trkpt lat="43.008422" lon="0.539744">
        <ele>707.2</ele>
        <time>1970-01-01T07:10:48.000Z</time>
      </trkpt>
      <trkpt lat="43.008519" lon="0.539704">
        <ele>705.4</ele>
        <time>1970-01-01T07:10:50.000Z</time>
      </trkpt>
      <trkpt lat="43.008635" lon="0.539796">
        <ele>704</ele>
        <time>1970-01-01T07:10:52.000Z</time>
      </trkpt>
      <trkpt lat="43.008698" lon="0.539856">
        <ele>703</ele>
        <time>1970-01-01T07:10:53.000Z</time>
      </trkpt>
      <trkpt lat="43.008756" lon="0.539931">
        <ele>702.2</ele>
        <time>1970-01-01T07:10:54.000Z</time>
      </trkpt>
      <trkpt lat="43.008871" lon="0.540103">
        <ele>701.2</ele>
        <time>1970-01-01T07:10:56.000Z</time>
      </trkpt>
      <trkpt lat="43.008983" lon="0.540295">
        <ele>699.8</ele>
        <time>1970-01-01T07:10:58.000Z</time>
      </trkpt>
      <trkpt lat="43.009076" lon="0.540508">
        <ele>698</ele>
        <time>1970-01-01T07:11:00.000Z</time>
      </trkpt>
      <trkpt lat="43.009155" lon="0.540745">
        <ele>696.6</ele>
        <time>1970-01-01T07:11:02.000Z</time>
      </trkpt>
      <trkpt lat="43.009183" lon="0.540872">
        <ele>695.8</ele>
        <time>1970-01-01T07:11:03.000Z</time>
      </trkpt>
      <trkpt lat="43.009207" lon="0.541005">
        <ele>695.2</ele>
        <time>1970-01-01T07:11:04.000Z</time>
      </trkpt>
      <trkpt lat="43.009256" lon="0.541286">
        <ele>693.4</ele>
        <time>1970-01-01T07:11:06.000Z</time>
      </trkpt>
      <trkpt lat="43.009288" lon="0.541581">
        <ele>691.6</ele>
        <time>1970-01-01T07:11:08.000Z</time>
      </trkpt>
      <trkpt lat="43.009293" lon="0.541739">
        <ele>690.6</ele>
        <time>1970-01-01T07:11:09.000Z</time>
      </trkpt>
      <trkpt lat="43.009287" lon="0.541897">
        <ele>689</ele>
        <time>1970-01-01T07:11:10.000Z</time>
      </trkpt>
      <trkpt lat="43.009265" lon="0.542206">
        <ele>687.6</ele>
        <time>1970-01-01T07:11:12.000Z</time>
      </trkpt>
      <trkpt lat="43.009228" lon="0.542518">
        <ele>685.2</ele>
        <time>1970-01-01T07:11:14.000Z</time>
      </trkpt>
      <trkpt lat="43.009202" lon="0.542665">
        <ele>684</ele>
        <time>1970-01-01T07:11:15.000Z</time>
      </trkpt>
      <trkpt lat="43.009171" lon="0.542804">
        <ele>682.8</ele>
        <time>1970-01-01T07:11:16.000Z</time>
      </trkpt>
      <trkpt lat="43.009143" lon="0.542941">
        <ele>681.8</ele>
        <time>1970-01-01T07:11:17.000Z</time>
      </trkpt>
      <trkpt lat="43.009117" lon="0.543079">
        <ele>680.8</ele>
        <time>1970-01-01T07:11:18.000Z</time>
      </trkpt>
      <trkpt lat="43.009091" lon="0.543223">
        <ele>679.8</ele>
        <time>1970-01-01T07:11:19.000Z</time>
      </trkpt>
      <trkpt lat="43.009046" lon="0.54349">
        <ele>678.2</ele>
        <time>1970-01-01T07:11:21.000Z</time>
      </trkpt>
      <trkpt lat="43.009023" lon="0.543581">
        <ele>677</ele>
        <time>1970-01-01T07:11:22.000Z</time>
      </trkpt>
      <trkpt lat="43.009002" lon="0.543653">
        <ele>675</ele>
        <time>1970-01-01T07:11:23.000Z</time>
      </trkpt>
      <trkpt lat="43.008978" lon="0.543705">
        <ele>673.6</ele>
        <time>1970-01-01T07:11:24.000Z</time>
      </trkpt>
      <trkpt lat="43.008941" lon="0.543804">
        <ele>672.2</ele>
        <time>1970-01-01T07:11:26.000Z</time>
      </trkpt>
      <trkpt lat="43.008914" lon="0.543895">
        <ele>671.2</ele>
        <time>1970-01-01T07:11:28.000Z</time>
      </trkpt>
      <trkpt lat="43.008871" lon="0.544043">
        <ele>670.4</ele>
        <time>1970-01-01T07:11:31.000Z</time>
      </trkpt>
      <trkpt lat="43.00886" lon="0.544101">
        <ele>669.8</ele>
        <time>1970-01-01T07:11:32.000Z</time>
      </trkpt>
      <trkpt lat="43.008843" lon="0.544388">
        <ele>668.4</ele>
        <time>1970-01-01T07:11:36.000Z</time>
      </trkpt>
      <trkpt lat="43.008849" lon="0.544567">
        <ele>667.8</ele>
        <time>1970-01-01T07:11:38.000Z</time>
      </trkpt>
      <trkpt lat="43.008838" lon="0.544778">
        <ele>666.8</ele>
        <time>1970-01-01T07:11:40.000Z</time>
      </trkpt>
      <trkpt lat="43.008815" lon="0.545011">
        <ele>665.6</ele>
        <time>1970-01-01T07:11:42.000Z</time>
      </trkpt>
      <trkpt lat="43.008805" lon="0.54514">
        <ele>664.4</ele>
        <time>1970-01-01T07:11:43.000Z</time>
      </trkpt>
      <trkpt lat="43.008806" lon="0.545267">
        <ele>663.6</ele>
        <time>1970-01-01T07:11:44.000Z</time>
      </trkpt>
      <trkpt lat="43.008821" lon="0.54539">
        <ele>662.2</ele>
        <time>1970-01-01T07:11:45.000Z</time>
      </trkpt>
      <trkpt lat="43.00892" lon="0.545588">
        <ele>661</ele>
        <time>1970-01-01T07:11:47.000Z</time>
      </trkpt>
      <trkpt lat="43.009069" lon="0.545736">
        <ele>660</ele>
        <time>1970-01-01T07:11:49.000Z</time>
      </trkpt>
      <trkpt lat="43.009144" lon="0.545812">
        <ele>659.4</ele>
        <time>1970-01-01T07:11:50.000Z</time>
      </trkpt>
      <trkpt lat="43.009229" lon="0.545887">
        <ele>658.2</ele>
        <time>1970-01-01T07:11:51.000Z</time>
      </trkpt>
      <trkpt lat="43.009313" lon="0.545953">
        <ele>656.8</ele>
        <time>1970-01-01T07:11:52.000Z</time>
      </trkpt>
      <trkpt lat="43.009402" lon="0.54601">
        <ele>655.8</ele>
        <time>1970-01-01T07:11:53.000Z</time>
      </trkpt>
      <trkpt lat="43.009585" lon="0.546104">
        <ele>654</ele>
        <time>1970-01-01T07:11:55.000Z</time>
      </trkpt>
      <trkpt lat="43.009644" lon="0.546165">
        <ele>652.8</ele>
        <time>1970-01-01T07:11:56.000Z</time>
      </trkpt>
      <trkpt lat="43.0097" lon="0.546236">
        <ele>651.6</ele>
        <time>1970-01-01T07:11:57.000Z</time>
      </trkpt>
      <trkpt lat="43.009757" lon="0.546287">
        <ele>650.2</ele>
        <time>1970-01-01T07:11:58.000Z</time>
      </trkpt>
      <trkpt lat="43.009822" lon="0.546311">
        <ele>649</ele>
        <time>1970-01-01T07:11:59.000Z</time>
      </trkpt>
      <trkpt lat="43.009942" lon="0.546255">
        <ele>647.8</ele>
        <time>1970-01-01T07:12:01.000Z</time>
      </trkpt>
      <trkpt lat="43.010017" lon="0.546059">
        <ele>646.4</ele>
        <time>1970-01-01T07:12:03.000Z</time>
      </trkpt>
      <trkpt lat="43.010053" lon="0.545828">
        <ele>645</ele>
        <time>1970-01-01T07:12:05.000Z</time>
      </trkpt>
      <trkpt lat="43.010132" lon="0.545625">
        <ele>643.8</ele>
        <time>1970-01-01T07:12:07.000Z</time>
      </trkpt>
      <trkpt lat="43.010282" lon="0.545498">
        <ele>642.6</ele>
        <time>1970-01-01T07:12:09.000Z</time>
      </trkpt>
      <trkpt lat="43.010459" lon="0.545395">
        <ele>641</ele>
        <time>1970-01-01T07:12:11.000Z</time>
      </trkpt>
      <trkpt lat="43.010644" lon="0.54529">
        <ele>639.2</ele>
        <time>1970-01-01T07:12:13.000Z</time>
      </trkpt>
      <trkpt lat="43.010842" lon="0.545187">
        <ele>637.4</ele>
        <time>1970-01-01T07:12:15.000Z</time>
      </trkpt>
      <trkpt lat="43.011042" lon="0.545114">
        <ele>636.2</ele>
        <time>1970-01-01T07:12:17.000Z</time>
      </trkpt>
      <trkpt lat="43.011237" lon="0.545099">
        <ele>633.8</ele>
        <time>1970-01-01T07:12:19.000Z</time>
      </trkpt>
      <trkpt lat="43.011437" lon="0.545088">
        <ele>632.2</ele>
        <time>1970-01-01T07:12:21.000Z</time>
      </trkpt>
      <trkpt lat="43.011633" lon="0.545027">
        <ele>631</ele>
        <time>1970-01-01T07:12:23.000Z</time>
      </trkpt>
      <trkpt lat="43.011778" lon="0.544947">
        <ele>629.8</ele>
        <time>1970-01-01T07:12:25.000Z</time>
      </trkpt>
      <trkpt lat="43.011847" lon="0.544893">
        <ele>629</ele>
        <time>1970-01-01T07:12:29.000Z</time>
      </trkpt>
      <trkpt lat="43.011889" lon="0.544846">
        <ele>628.4</ele>
        <time>1970-01-01T07:12:35.000Z</time>
      </trkpt>
      <trkpt lat="43.012043" lon="0.544693">
        <ele>628.8</ele>
        <time>1970-01-01T07:12:40.000Z</time>
      </trkpt>
      <trkpt lat="43.01256" lon="0.544401">
        <ele>628.8</ele>
        <time>1970-01-01T07:12:50.000Z</time>
      </trkpt>
      <trkpt lat="43.013124" lon="0.544119">
        <ele>628.6</ele>
        <time>1970-01-01T07:12:59.000Z</time>
      </trkpt>
      <trkpt lat="43.013675" lon="0.543968">
        <ele>629</ele>
        <time>1970-01-01T07:13:08.000Z</time>
      </trkpt>
      <trkpt lat="43.013735" lon="0.543968">
        <ele>629</ele>
        <time>1970-01-01T07:13:09.000Z</time>
      </trkpt>
      <trkpt lat="43.013962" lon="0.544001">
        <ele>629</ele>
        <time>1970-01-01T07:13:13.000Z</time>
      </trkpt>
      <trkpt lat="43.014184" lon="0.544109">
        <ele>629</ele>
        <time>1970-01-01T07:13:17.000Z</time>
      </trkpt>
      <trkpt lat="43.014331" lon="0.544357">
        <ele>629</ele>
        <time>1970-01-01T07:13:21.000Z</time>
      </trkpt>
      <trkpt lat="43.014355" lon="0.544421">
        <ele>629</ele>
        <time>1970-01-01T07:13:22.000Z</time>
      </trkpt>
      <trkpt lat="43.014368" lon="0.544489">
        <ele>629.2</ele>
        <time>1970-01-01T07:13:23.000Z</time>
      </trkpt>
      <trkpt lat="43.014374" lon="0.544674">
        <ele>629.6</ele>
        <time>1970-01-01T07:13:26.000Z</time>
      </trkpt>
      <trkpt lat="43.014408" lon="0.545023">
        <ele>630.2</ele>
        <time>1970-01-01T07:13:33.000Z</time>
      </trkpt>
      <trkpt lat="43.014468" lon="0.54516">
        <ele>630</ele>
        <time>1970-01-01T07:13:36.000Z</time>
      </trkpt>
      <trkpt lat="43.014581" lon="0.545353">
        <ele>629.2</ele>
        <time>1970-01-01T07:13:40.000Z</time>
      </trkpt>
      <trkpt lat="43.014625" lon="0.54547">
        <ele>628.4</ele>
        <time>1970-01-01T07:13:42.000Z</time>
      </trkpt>
      <trkpt lat="43.014689" lon="0.545669">
        <ele>628</ele>
        <time>1970-01-01T07:13:45.000Z</time>
      </trkpt>
      <trkpt lat="43.014713" lon="0.545731">
        <ele>627.8</ele>
        <time>1970-01-01T07:13:46.000Z</time>
      </trkpt>
      <trkpt lat="43.014813" lon="0.5459">
        <ele>627.2</ele>
        <time>1970-01-01T07:13:49.000Z</time>
      </trkpt>
      <trkpt lat="43.014919" lon="0.546091">
        <ele>626.6</ele>
        <time>1970-01-01T07:13:52.000Z</time>
      </trkpt>
      <trkpt lat="43.015046" lon="0.546294">
        <ele>625.8</ele>
        <time>1970-01-01T07:13:55.000Z</time>
      </trkpt>
      <trkpt lat="43.015098" lon="0.546353">
        <ele>625.2</ele>
        <time>1970-01-01T07:13:56.000Z</time>
      </trkpt>
      <trkpt lat="43.01537" lon="0.546525">
        <ele>624.2</ele>
        <time>1970-01-01T07:14:00.000Z</time>
      </trkpt>
      <trkpt lat="43.015608" lon="0.54668">
        <ele>623</ele>
        <time>1970-01-01T07:14:04.000Z</time>
      </trkpt>
      <trkpt lat="43.015656" lon="0.546731">
        <ele>622.8</ele>
        <time>1970-01-01T07:14:05.000Z</time>
      </trkpt>
      <trkpt lat="43.015866" lon="0.546989">
        <ele>621.8</ele>
        <time>1970-01-01T07:14:10.000Z</time>
      </trkpt>
      <trkpt lat="43.015941" lon="0.547062">
        <ele>621.6</ele>
        <time>1970-01-01T07:14:12.000Z</time>
      </trkpt>
      <trkpt lat="43.016328" lon="0.547033">
        <ele>621.4</ele>
        <time>1970-01-01T07:14:21.000Z</time>
      </trkpt>
      <trkpt lat="43.016525" lon="0.546896">
        <ele>621.8</ele>
        <time>1970-01-01T07:14:26.000Z</time>
      </trkpt>
      <trkpt lat="43.016853" lon="0.546515">
        <ele>620.6</ele>
        <time>1970-01-01T07:14:34.000Z</time>
      </trkpt>
      <trkpt lat="43.016984" lon="0.546348">
        <ele>619.8</ele>
        <time>1970-01-01T07:14:37.000Z</time>
      </trkpt>
      <trkpt lat="43.017031" lon="0.546291">
        <ele>619.2</ele>
        <time>1970-01-01T07:14:38.000Z</time>
      </trkpt>
      <trkpt lat="43.017292" lon="0.546021">
        <ele>617.8</ele>
        <time>1970-01-01T07:14:43.000Z</time>
      </trkpt>
      <trkpt lat="43.017482" lon="0.545881">
        <ele>617.2</ele>
        <time>1970-01-01T07:14:46.000Z</time>
      </trkpt>
      <trkpt lat="43.01755" lon="0.545849">
        <ele>616.8</ele>
        <time>1970-01-01T07:14:47.000Z</time>
      </trkpt>
      <trkpt lat="43.01777" lon="0.545824">
        <ele>616</ele>
        <time>1970-01-01T07:14:50.000Z</time>
      </trkpt>
      <trkpt lat="43.017906" lon="0.545818">
        <ele>615.4</ele>
        <time>1970-01-01T07:14:52.000Z</time>
      </trkpt>
      <trkpt lat="43.018031" lon="0.545791">
        <ele>615</ele>
        <time>1970-01-01T07:14:54.000Z</time>
      </trkpt>
      <trkpt lat="43.018223" lon="0.545693">
        <ele>614.4</ele>
        <time>1970-01-01T07:14:57.000Z</time>
      </trkpt>
      <trkpt lat="43.018343" lon="0.545627">
        <ele>613.6</ele>
        <time>1970-01-01T07:14:59.000Z</time>
      </trkpt>
      <trkpt lat="43.01841" lon="0.545597">
        <ele>613.2</ele>
        <time>1970-01-01T07:15:00.000Z</time>
      </trkpt>
      <trkpt lat="43.018553" lon="0.545563">
        <ele>612</ele>
        <time>1970-01-01T07:15:02.000Z</time>
      </trkpt>
      <trkpt lat="43.018732" lon="0.545718">
        <ele>610.8</ele>
        <time>1970-01-01T07:15:05.000Z</time>
      </trkpt>
      <trkpt lat="43.018794" lon="0.545993">
        <ele>609.6</ele>
        <time>1970-01-01T07:15:08.000Z</time>
      </trkpt>
      <trkpt lat="43.018839" lon="0.546187">
        <ele>608.4</ele>
        <time>1970-01-01T07:15:10.000Z</time>
      </trkpt>
      <trkpt lat="43.018904" lon="0.546369">
        <ele>607.6</ele>
        <time>1970-01-01T07:15:12.000Z</time>
      </trkpt>
      <trkpt lat="43.018947" lon="0.546437">
        <ele>607.2</ele>
        <time>1970-01-01T07:15:13.000Z</time>
      </trkpt>
      <trkpt lat="43.019054" lon="0.546484">
        <ele>606</ele>
        <time>1970-01-01T07:15:15.000Z</time>
      </trkpt>
      <trkpt lat="43.019156" lon="0.546452">
        <ele>605</ele>
        <time>1970-01-01T07:15:17.000Z</time>
      </trkpt>
      <trkpt lat="43.019256" lon="0.546392">
        <ele>604.4</ele>
        <time>1970-01-01T07:15:19.000Z</time>
      </trkpt>
      <trkpt lat="43.019309" lon="0.546339">
        <ele>604</ele>
        <time>1970-01-01T07:15:20.000Z</time>
      </trkpt>
      <trkpt lat="43.01936" lon="0.546268">
        <ele>603.8</ele>
        <time>1970-01-01T07:15:21.000Z</time>
      </trkpt>
      <trkpt lat="43.019445" lon="0.546129">
        <ele>602.8</ele>
        <time>1970-01-01T07:15:23.000Z</time>
      </trkpt>
      <trkpt lat="43.019487" lon="0.546058">
        <ele>602.2</ele>
        <time>1970-01-01T07:15:24.000Z</time>
      </trkpt>
      <trkpt lat="43.01954" lon="0.54599">
        <ele>601.8</ele>
        <time>1970-01-01T07:15:25.000Z</time>
      </trkpt>
      <trkpt lat="43.019664" lon="0.545875">
        <ele>600.4</ele>
        <time>1970-01-01T07:15:27.000Z</time>
      </trkpt>
      <trkpt lat="43.019879" lon="0.545715">
        <ele>599.2</ele>
        <time>1970-01-01T07:15:30.000Z</time>
      </trkpt>
      <trkpt lat="43.020049" lon="0.545632">
        <ele>598</ele>
        <time>1970-01-01T07:15:32.000Z</time>
      </trkpt>
      <trkpt lat="43.020226" lon="0.545551">
        <ele>596.4</ele>
        <time>1970-01-01T07:15:34.000Z</time>
      </trkpt>
      <trkpt lat="43.020407" lon="0.545508">
        <ele>594.6</ele>
        <time>1970-01-01T07:15:36.000Z</time>
      </trkpt>
      <trkpt lat="43.020497" lon="0.545498">
        <ele>594.2</ele>
        <time>1970-01-01T07:15:37.000Z</time>
      </trkpt>
      <trkpt lat="43.020585" lon="0.545497">
        <ele>593.6</ele>
        <time>1970-01-01T07:15:38.000Z</time>
      </trkpt>
      <trkpt lat="43.020772" lon="0.545508">
        <ele>592</ele>
        <time>1970-01-01T07:15:40.000Z</time>
      </trkpt>
      <trkpt lat="43.020963" lon="0.545548">
        <ele>590.6</ele>
        <time>1970-01-01T07:15:42.000Z</time>
      </trkpt>
      <trkpt lat="43.021248" lon="0.54564">
        <ele>588.8</ele>
        <time>1970-01-01T07:15:45.000Z</time>
      </trkpt>
      <trkpt lat="43.021445" lon="0.545674">
        <ele>587.2</ele>
        <time>1970-01-01T07:15:47.000Z</time>
      </trkpt>
      <trkpt lat="43.021642" lon="0.545681">
        <ele>585.8</ele>
        <time>1970-01-01T07:15:49.000Z</time>
      </trkpt>
      <trkpt lat="43.021851" lon="0.545723">
        <ele>584.4</ele>
        <time>1970-01-01T07:15:51.000Z</time>
      </trkpt>
      <trkpt lat="43.021953" lon="0.545765">
        <ele>583.2</ele>
        <time>1970-01-01T07:15:52.000Z</time>
      </trkpt>
      <trkpt lat="43.022058" lon="0.545807">
        <ele>581.8</ele>
        <time>1970-01-01T07:15:53.000Z</time>
      </trkpt>
      <trkpt lat="43.022257" lon="0.545899">
        <ele>580.2</ele>
        <time>1970-01-01T07:15:55.000Z</time>
      </trkpt>
      <trkpt lat="43.022358" lon="0.545939">
        <ele>579.2</ele>
        <time>1970-01-01T07:15:56.000Z</time>
      </trkpt>
      <trkpt lat="43.022563" lon="0.545967">
        <ele>577.8</ele>
        <time>1970-01-01T07:15:58.000Z</time>
      </trkpt>
      <trkpt lat="43.022782" lon="0.545993">
        <ele>576</ele>
        <time>1970-01-01T07:16:00.000Z</time>
      </trkpt>
      <trkpt lat="43.023017" lon="0.546065">
        <ele>573.8</ele>
        <time>1970-01-01T07:16:02.000Z</time>
      </trkpt>
      <trkpt lat="43.023133" lon="0.546109">
        <ele>572.6</ele>
        <time>1970-01-01T07:16:03.000Z</time>
      </trkpt>
      <trkpt lat="43.023248" lon="0.546154">
        <ele>571.6</ele>
        <time>1970-01-01T07:16:04.000Z</time>
      </trkpt>
      <trkpt lat="43.023476" lon="0.546255">
        <ele>570</ele>
        <time>1970-01-01T07:16:06.000Z</time>
      </trkpt>
      <trkpt lat="43.023699" lon="0.546361">
        <ele>568.2</ele>
        <time>1970-01-01T07:16:08.000Z</time>
      </trkpt>
      <trkpt lat="43.023802" lon="0.546413">
        <ele>567.2</ele>
        <time>1970-01-01T07:16:09.000Z</time>
      </trkpt>
      <trkpt lat="43.023898" lon="0.546466">
        <ele>565.8</ele>
        <time>1970-01-01T07:16:10.000Z</time>
      </trkpt>
      <trkpt lat="43.023992" lon="0.546521">
        <ele>563.2</ele>
        <time>1970-01-01T07:16:11.000Z</time>
      </trkpt>
      <trkpt lat="43.024077" lon="0.54658">
        <ele>561.8</ele>
        <time>1970-01-01T07:16:12.000Z</time>
      </trkpt>
      <trkpt lat="43.024158" lon="0.546646">
        <ele>560.6</ele>
        <time>1970-01-01T07:16:13.000Z</time>
      </trkpt>
      <trkpt lat="43.024235" lon="0.546712">
        <ele>559.4</ele>
        <time>1970-01-01T07:16:14.000Z</time>
      </trkpt>
      <trkpt lat="43.024303" lon="0.546784">
        <ele>558.4</ele>
        <time>1970-01-01T07:16:15.000Z</time>
      </trkpt>
      <trkpt lat="43.024372" lon="0.546851">
        <ele>557.4</ele>
        <time>1970-01-01T07:16:16.000Z</time>
      </trkpt>
      <trkpt lat="43.024503" lon="0.546983">
        <ele>555.8</ele>
        <time>1970-01-01T07:16:18.000Z</time>
      </trkpt>
      <trkpt lat="43.024646" lon="0.547146">
        <ele>554.2</ele>
        <time>1970-01-01T07:16:20.000Z</time>
      </trkpt>
      <trkpt lat="43.024717" lon="0.547228">
        <ele>553.2</ele>
        <time>1970-01-01T07:16:21.000Z</time>
      </trkpt>
      <trkpt lat="43.024779" lon="0.547309">
        <ele>551.8</ele>
        <time>1970-01-01T07:16:22.000Z</time>
      </trkpt>
      <trkpt lat="43.024832" lon="0.547388">
        <ele>550.8</ele>
        <time>1970-01-01T07:16:23.000Z</time>
      </trkpt>
      <trkpt lat="43.024912" lon="0.54756">
        <ele>549.2</ele>
        <time>1970-01-01T07:16:25.000Z</time>
      </trkpt>
      <trkpt lat="43.024966" lon="0.547761">
        <ele>548</ele>
        <time>1970-01-01T07:16:27.000Z</time>
      </trkpt>
      <trkpt lat="43.02504" lon="0.547982">
        <ele>546.2</ele>
        <time>1970-01-01T07:16:29.000Z</time>
      </trkpt>
      <trkpt lat="43.025112" lon="0.548183">
        <ele>545.2</ele>
        <time>1970-01-01T07:16:31.000Z</time>
      </trkpt>
      <trkpt lat="43.025132" lon="0.548255">
        <ele>544</ele>
        <time>1970-01-01T07:16:32.000Z</time>
      </trkpt>
      <trkpt lat="43.025166" lon="0.548342">
        <ele>542.6</ele>
        <time>1970-01-01T07:16:34.000Z</time>
      </trkpt>
      <trkpt lat="43.025245" lon="0.548298">
        <ele>541.4</ele>
        <time>1970-01-01T07:16:37.000Z</time>
      </trkpt>
      <trkpt lat="43.025192" lon="0.548108">
        <ele>540.6</ele>
        <time>1970-01-01T07:16:41.000Z</time>
      </trkpt>
      <trkpt lat="43.025144" lon="0.547991">
        <ele>540.4</ele>
        <time>1970-01-01T07:16:43.000Z</time>
      </trkpt>
      <trkpt lat="43.025096" lon="0.547752">
        <ele>539</ele>
        <time>1970-01-01T07:16:47.000Z</time>
      </trkpt>
      <trkpt lat="43.025141" lon="0.547519">
        <ele>537.4</ele>
        <time>1970-01-01T07:16:50.000Z</time>
      </trkpt>
      <trkpt lat="43.025153" lon="0.547428">
        <ele>536.8</ele>
        <time>1970-01-01T07:16:51.000Z</time>
      </trkpt>
      <trkpt lat="43.025161" lon="0.547327">
        <ele>536</ele>
        <time>1970-01-01T07:16:52.000Z</time>
      </trkpt>
      <trkpt lat="43.025174" lon="0.547104">
        <ele>534.4</ele>
        <time>1970-01-01T07:16:54.000Z</time>
      </trkpt>
      <trkpt lat="43.025163" lon="0.546997">
        <ele>532.8</ele>
        <time>1970-01-01T07:16:55.000Z</time>
      </trkpt>
      <trkpt lat="43.025145" lon="0.546895">
        <ele>531.4</ele>
        <time>1970-01-01T07:16:56.000Z</time>
      </trkpt>
      <trkpt lat="43.025117" lon="0.546807">
        <ele>530</ele>
        <time>1970-01-01T07:16:57.000Z</time>
      </trkpt>
      <trkpt lat="43.025045" lon="0.546659">
        <ele>528.6</ele>
        <time>1970-01-01T07:16:59.000Z</time>
      </trkpt>
      <trkpt lat="43.025001" lon="0.546588">
        <ele>528</ele>
        <time>1970-01-01T07:17:00.000Z</time>
      </trkpt>
      <trkpt lat="43.024956" lon="0.546508">
        <ele>527.2</ele>
        <time>1970-01-01T07:17:01.000Z</time>
      </trkpt>
      <trkpt lat="43.024817" lon="0.54627">
        <ele>525.6</ele>
        <time>1970-01-01T07:17:04.000Z</time>
      </trkpt>
      <trkpt lat="43.024779" lon="0.546188">
        <ele>525.2</ele>
        <time>1970-01-01T07:17:05.000Z</time>
      </trkpt>
      <trkpt lat="43.024733" lon="0.545999">
        <ele>524.2</ele>
        <time>1970-01-01T07:17:07.000Z</time>
      </trkpt>
      <trkpt lat="43.024679" lon="0.5457">
        <ele>523</ele>
        <time>1970-01-01T07:17:10.000Z</time>
      </trkpt>
      <trkpt lat="43.02461" lon="0.545355">
        <ele>523</ele>
        <time>1970-01-01T07:17:14.000Z</time>
      </trkpt>
      <trkpt lat="43.024577" lon="0.544968">
        <ele>523.8</ele>
        <time>1970-01-01T07:17:19.000Z</time>
      </trkpt>
      <trkpt lat="43.024421" lon="0.544696">
        <ele>524.2</ele>
        <time>1970-01-01T07:17:24.000Z</time>
      </trkpt>
      <trkpt lat="43.024387" lon="0.544652">
        <ele>524.2</ele>
        <time>1970-01-01T07:17:25.000Z</time>
      </trkpt>
      <trkpt lat="43.024261" lon="0.544476">
        <ele>524.4</ele>
        <time>1970-01-01T07:17:29.000Z</time>
      </trkpt>
      <trkpt lat="43.023761" lon="0.544153">
        <ele>525.6</ele>
        <time>1970-01-01T07:17:43.000Z</time>
      </trkpt>
      <trkpt lat="43.023339" lon="0.543954">
        <ele>526.8</ele>
        <time>1970-01-01T07:17:55.000Z</time>
      </trkpt>
      <trkpt lat="43.02298" lon="0.543676">
        <ele>528</ele>
        <time>1970-01-01T07:18:06.000Z</time>
      </trkpt>
      <trkpt lat="43.022798" lon="0.543398">
        <ele>529</ele>
        <time>1970-01-01T07:18:14.000Z</time>
      </trkpt>
      <trkpt lat="43.022823" lon="0.543144">
        <ele>529.2</ele>
        <time>1970-01-01T07:18:20.000Z</time>
      </trkpt>
      <trkpt lat="43.02288" lon="0.543131">
        <ele>529</ele>
        <time>1970-01-01T07:18:24.000Z</time>
      </trkpt>
      <trkpt lat="43.022935" lon="0.543105">
        <ele>529.4</ele>
        <time>1970-01-01T07:18:29.000Z</time>
      </trkpt>
      <trkpt lat="43.022961" lon="0.543071">
        <ele>529.4</ele>
        <time>1970-01-01T07:18:31.000Z</time>
      </trkpt>
      <trkpt lat="43.023016" lon="0.543026">
        <ele>530</ele>
        <time>1970-01-01T07:18:35.000Z</time>
      </trkpt>
      <trkpt lat="43.023042" lon="0.543002">
        <ele>530.4</ele>
        <time>1970-01-01T07:18:37.000Z</time>
      </trkpt>
      <trkpt lat="43.023097" lon="0.542932">
        <ele>531.4</ele>
        <time>1970-01-01T07:18:41.000Z</time>
      </trkpt>
      <trkpt lat="43.023151" lon="0.542871">
        <ele>532.8</ele>
        <time>1970-01-01T07:18:46.000Z</time>
      </trkpt>
      <trkpt lat="43.023166" lon="0.542826">
        <ele>534</ele>
        <time>1970-01-01T07:18:49.000Z</time>
      </trkpt>
      <trkpt lat="43.023144" lon="0.542762">
        <ele>535</ele>
        <time>1970-01-01T07:18:53.000Z</time>
      </trkpt>
      <trkpt lat="43.023139" lon="0.542677">
        <ele>536.4</ele>
        <time>1970-01-01T07:18:57.000Z</time>
      </trkpt>
      <trkpt lat="43.023137" lon="0.542587">
        <ele>537.4</ele>
        <time>1970-01-01T07:19:01.000Z</time>
      </trkpt>
      <trkpt lat="43.023107" lon="0.542472">
        <ele>538.4</ele>
        <time>1970-01-01T07:19:07.000Z</time>
      </trkpt>
      <trkpt lat="43.023077" lon="0.542353">
        <ele>538</ele>
        <time>1970-01-01T07:19:12.000Z</time>
      </trkpt>
      <trkpt lat="43.023059" lon="0.54212">
        <ele>537.8</ele>
        <time>1970-01-01T07:19:19.000Z</time>
      </trkpt>
      <trkpt lat="43.023007" lon="0.541991">
        <ele>538</ele>
        <time>1970-01-01T07:19:24.000Z</time>
      </trkpt>
      <trkpt lat="43.022814" lon="0.541924">
        <ele>540.2</ele>
        <time>1970-01-01T07:19:36.000Z</time>
      </trkpt>
      <trkpt lat="43.022744" lon="0.541915">
        <ele>541.4</ele>
        <time>1970-01-01T07:19:41.000Z</time>
      </trkpt>
      <trkpt lat="43.022614" lon="0.541886">
        <ele>542.4</ele>
        <time>1970-01-01T07:19:49.000Z</time>
      </trkpt>
      <trkpt lat="43.022237" lon="0.541759">
        <ele>541.4</ele>
        <time>1970-01-01T07:20:03.000Z</time>
      </trkpt>
      <trkpt lat="43.022049" lon="0.541647">
        <ele>541.8</ele>
        <time>1970-01-01T07:20:14.000Z</time>
      </trkpt>
      <trkpt lat="43.021957" lon="0.541478">
        <ele>544.2</ele>
        <time>1970-01-01T07:21:42.000Z</time>
      </trkpt>
      <trkpt lat="43.021595" lon="0.540994">
        <ele>545.4</ele>
        <time>1970-01-01T07:21:56.000Z</time>
      </trkpt>
      <trkpt lat="43.02136" lon="0.540838">
        <ele>546.6</ele>
        <time>1970-01-01T07:22:04.000Z</time>
      </trkpt>
      <trkpt lat="43.021194" lon="0.540688">
        <ele>547.6</ele>
        <time>1970-01-01T07:22:11.000Z</time>
      </trkpt>
      <trkpt lat="43.021154" lon="0.540655">
        <ele>547.8</ele>
        <time>1970-01-01T07:22:13.000Z</time>
      </trkpt>
      <trkpt lat="43.021067" lon="0.540547">
        <ele>549</ele>
        <time>1970-01-01T07:22:18.000Z</time>
      </trkpt>
      <trkpt lat="43.020902" lon="0.54046">
        <ele>550.4</ele>
        <time>1970-01-01T07:22:27.000Z</time>
      </trkpt>
      <trkpt lat="43.02079" lon="0.540347">
        <ele>551.4</ele>
        <time>1970-01-01T07:22:35.000Z</time>
      </trkpt>
      <trkpt lat="43.020718" lon="0.54031">
        <ele>552.6</ele>
        <time>1970-01-01T07:22:39.000Z</time>
      </trkpt>
      <trkpt lat="43.020618" lon="0.540227">
        <ele>554</ele>
        <time>1970-01-01T07:22:45.000Z</time>
      </trkpt>
      <trkpt lat="43.020513" lon="0.540134">
        <ele>555</ele>
        <time>1970-01-01T07:22:52.000Z</time>
      </trkpt>
      <trkpt lat="43.020363" lon="0.540037">
        <ele>556.2</ele>
        <time>1970-01-01T07:23:05.000Z</time>
      </trkpt>
      <trkpt lat="43.020347" lon="0.540031">
        <ele>556.4</ele>
        <time>1970-01-01T07:23:06.000Z</time>
      </trkpt>
      <trkpt lat="43.020256" lon="0.539989">
        <ele>557.2</ele>
        <time>1970-01-01T07:23:12.000Z</time>
      </trkpt>
      <trkpt lat="43.020182" lon="0.539952">
        <ele>558.6</ele>
        <time>1970-01-01T07:23:17.000Z</time>
      </trkpt>
      <trkpt lat="43.020077" lon="0.539899">
        <ele>559.6</ele>
        <time>1970-01-01T07:23:26.000Z</time>
      </trkpt>
      <trkpt lat="43.020041" lon="0.539887">
        <ele>560.8</ele>
        <time>1970-01-01T07:23:32.000Z</time>
      </trkpt>
      <trkpt lat="43.018598" lon="0.537638">
        <ele>619.2</ele>
        <time>1970-01-01T07:29:42.000Z</time>
      </trkpt>
      <trkpt lat="43.018516" lon="0.537555">
        <ele>619.4</ele>
        <time>1970-01-01T07:29:48.000Z</time>
      </trkpt>
      <trkpt lat="43.018482" lon="0.537527">
        <ele>619.4</ele>
        <time>1970-01-01T07:29:50.000Z</time>
      </trkpt>
      <trkpt lat="43.018414" lon="0.537438">
        <ele>619.8</ele>
        <time>1970-01-01T07:29:55.000Z</time>
      </trkpt>
      <trkpt lat="43.018267" lon="0.537381">
        <ele>620</ele>
        <time>1970-01-01T07:30:03.000Z</time>
      </trkpt>
      <trkpt lat="43.018138" lon="0.537288">
        <ele>620.4</ele>
        <time>1970-01-01T07:30:10.000Z</time>
      </trkpt>
      <trkpt lat="43.01809" lon="0.537238">
        <ele>620.8</ele>
        <time>1970-01-01T07:30:14.000Z</time>
      </trkpt>
      <trkpt lat="43.018013" lon="0.537177">
        <ele>621.6</ele>
        <time>1970-01-01T07:30:19.000Z</time>
      </trkpt>
      <trkpt lat="43.017907" lon="0.537037">
        <ele>622.8</ele>
        <time>1970-01-01T07:30:28.000Z</time>
      </trkpt>
      <trkpt lat="43.01786" lon="0.53697">
        <ele>623.8</ele>
        <time>1970-01-01T07:30:32.000Z</time>
      </trkpt>
      <trkpt lat="43.017836" lon="0.536912">
        <ele>624.8</ele>
        <time>1970-01-01T07:30:36.000Z</time>
      </trkpt>
      <trkpt lat="43.017825" lon="0.536875">
        <ele>626</ele>
        <time>1970-01-01T07:30:39.000Z</time>
      </trkpt>
      <trkpt lat="43.0178" lon="0.536835">
        <ele>627.2</ele>
        <time>1970-01-01T07:30:41.000Z</time>
      </trkpt>
      <trkpt lat="43.017794" lon="0.536809">
        <ele>627.6</ele>
        <time>1970-01-01T07:30:42.000Z</time>
      </trkpt>
      <trkpt lat="43.017782" lon="0.536711">
        <ele>628.6</ele>
        <time>1970-01-01T07:30:46.000Z</time>
      </trkpt>
      <trkpt lat="43.01777" lon="0.536611">
        <ele>629.6</ele>
        <time>1970-01-01T07:30:51.000Z</time>
      </trkpt>
      <trkpt lat="43.017766" lon="0.536502">
        <ele>630.8</ele>
        <time>1970-01-01T07:30:56.000Z</time>
      </trkpt>
      <trkpt lat="43.017784" lon="0.536442">
        <ele>631.6</ele>
        <time>1970-01-01T07:31:00.000Z</time>
      </trkpt>
      <trkpt lat="43.017794" lon="0.536429">
        <ele>631.8</ele>
        <time>1970-01-01T07:31:01.000Z</time>
      </trkpt>
      <trkpt lat="43.017827" lon="0.536387">
        <ele>632.8</ele>
        <time>1970-01-01T07:31:04.000Z</time>
      </trkpt>
      <trkpt lat="43.017879" lon="0.5363">
        <ele>634</ele>
        <time>1970-01-01T07:31:10.000Z</time>
      </trkpt>
      <trkpt lat="43.017902" lon="0.536224">
        <ele>635</ele>
        <time>1970-01-01T07:31:15.000Z</time>
      </trkpt>
      <trkpt lat="43.017916" lon="0.536198">
        <ele>635.4</ele>
        <time>1970-01-01T07:31:17.000Z</time>
      </trkpt>
      <trkpt lat="43.017932" lon="0.536158">
        <ele>636.2</ele>
        <time>1970-01-01T07:31:21.000Z</time>
      </trkpt>
      <trkpt lat="43.017982" lon="0.53608">
        <ele>637.2</ele>
        <time>1970-01-01T07:31:27.000Z</time>
      </trkpt>
      <trkpt lat="43.018036" lon="0.536021">
        <ele>638.4</ele>
        <time>1970-01-01T07:31:32.000Z</time>
      </trkpt>
      <trkpt lat="43.018094" lon="0.535962">
        <ele>639.6</ele>
        <time>1970-01-01T07:31:38.000Z</time>
      </trkpt>
      <trkpt lat="43.018142" lon="0.53594">
        <ele>640.6</ele>
        <time>1970-01-01T07:31:43.000Z</time>
      </trkpt>
      <trkpt lat="43.018186" lon="0.535926">
        <ele>641.2</ele>
        <time>1970-01-01T07:31:49.000Z</time>
      </trkpt>
      <trkpt lat="43.018179" lon="0.535732">
        <ele>641.4</ele>
        <time>1970-01-01T07:36:33.000Z</time>
      </trkpt>
      <trkpt lat="43.018041" lon="0.53564">
        <ele>640.2</ele>
        <time>1970-01-01T07:36:43.000Z</time>
      </trkpt>
      <trkpt lat="43.017879" lon="0.535728">
        <ele>639.2</ele>
        <time>1970-01-01T07:36:52.000Z</time>
      </trkpt>
      <trkpt lat="43.017843" lon="0.535736">
        <ele>638.8</ele>
        <time>1970-01-01T07:36:54.000Z</time>
      </trkpt>
      <trkpt lat="43.017724" lon="0.53581">
        <ele>638.2</ele>
        <time>1970-01-01T07:37:01.000Z</time>
      </trkpt>
      <trkpt lat="43.017639" lon="0.53592">
        <ele>637</ele>
        <time>1970-01-01T07:37:06.000Z</time>
      </trkpt>
      <trkpt lat="43.017585" lon="0.536023">
        <ele>635.4</ele>
        <time>1970-01-01T07:37:10.000Z</time>
      </trkpt>
      <trkpt lat="43.017539" lon="0.536167">
        <ele>634.2</ele>
        <time>1970-01-01T07:37:14.000Z</time>
      </trkpt>
      <trkpt lat="43.017505" lon="0.536286">
        <ele>632.8</ele>
        <time>1970-01-01T07:37:17.000Z</time>
      </trkpt>
      <trkpt lat="43.017471" lon="0.536358">
        <ele>631.8</ele>
        <time>1970-01-01T07:37:19.000Z</time>
      </trkpt>
      <trkpt lat="43.01744" lon="0.53643">
        <ele>630.8</ele>
        <time>1970-01-01T07:37:21.000Z</time>
      </trkpt>
      <trkpt lat="43.017382" lon="0.536525">
        <ele>629.2</ele>
        <time>1970-01-01T07:37:24.000Z</time>
      </trkpt>
      <trkpt lat="43.017346" lon="0.536577">
        <ele>628</ele>
        <time>1970-01-01T07:37:26.000Z</time>
      </trkpt>
      <trkpt lat="43.017305" lon="0.536611">
        <ele>626.8</ele>
        <time>1970-01-01T07:37:30.000Z</time>
      </trkpt>
      <trkpt lat="43.017229" lon="0.536612">
        <ele>623.4</ele>
        <time>1970-01-01T07:38:17.000Z</time>
      </trkpt>
      <trkpt lat="43.017118" lon="0.536627">
        <ele>622</ele>
        <time>1970-01-01T07:38:20.000Z</time>
      </trkpt>
      <trkpt lat="43.01705" lon="0.536627">
        <ele>620.6</ele>
        <time>1970-01-01T07:38:22.000Z</time>
      </trkpt>
      <trkpt lat="43.016942" lon="0.536602">
        <ele>619.4</ele>
        <time>1970-01-01T07:38:25.000Z</time>
      </trkpt>
      <trkpt lat="43.01686" lon="0.536533">
        <ele>618.4</ele>
        <time>1970-01-01T07:38:28.000Z</time>
      </trkpt>
      <trkpt lat="43.016795" lon="0.536505">
        <ele>617</ele>
        <time>1970-01-01T07:38:30.000Z</time>
      </trkpt>
      <trkpt lat="43.016726" lon="0.536492">
        <ele>615.8</ele>
        <time>1970-01-01T07:38:32.000Z</time>
      </trkpt>
      <trkpt lat="43.016583" lon="0.536487">
        <ele>614.6</ele>
        <time>1970-01-01T07:38:35.000Z</time>
      </trkpt>
      <trkpt lat="43.016433" lon="0.536507">
        <ele>613.2</ele>
        <time>1970-01-01T07:38:38.000Z</time>
      </trkpt>
      <trkpt lat="43.016291" lon="0.536539">
        <ele>611.4</ele>
        <time>1970-01-01T07:38:41.000Z</time>
      </trkpt>
      <trkpt lat="43.016208" lon="0.536567">
        <ele>610</ele>
        <time>1970-01-01T07:38:43.000Z</time>
      </trkpt>
      <trkpt lat="43.016143" lon="0.536587">
        <ele>609</ele>
        <time>1970-01-01T07:38:45.000Z</time>
      </trkpt>
      <trkpt lat="43.016013" lon="0.536639">
        <ele>607.6</ele>
        <time>1970-01-01T07:38:49.000Z</time>
      </trkpt>
      <trkpt lat="43.015954" lon="0.536663">
        <ele>607.2</ele>
        <time>1970-01-01T07:38:53.000Z</time>
      </trkpt>
      <trkpt lat="43.016211" lon="0.53662">
        <ele>614.4</ele>
        <time>1970-01-01T07:42:55.000Z</time>
      </trkpt>
      <trkpt lat="43.016367" lon="0.536604">
        <ele>615.4</ele>
        <time>1970-01-01T07:43:01.000Z</time>
      </trkpt>
      <trkpt lat="43.016455" lon="0.536592">
        <ele>616.6</ele>
        <time>1970-01-01T07:43:05.000Z</time>
      </trkpt>
      <trkpt lat="43.016529" lon="0.53661">
        <ele>617.6</ele>
        <time>1970-01-01T07:43:08.000Z</time>
      </trkpt>
      <trkpt lat="43.016602" lon="0.536621">
        <ele>618</ele>
        <time>1970-01-01T07:43:12.000Z</time>
      </trkpt>
      <trkpt lat="43.016891" lon="0.534576">
        <ele>645.8</ele>
        <time>1970-01-01T07:48:16.000Z</time>
      </trkpt>
      <trkpt lat="43.017008" lon="0.534401">
        <ele>645</ele>
        <time>1970-01-01T07:48:23.000Z</time>
      </trkpt>
      <trkpt lat="43.017094" lon="0.534295">
        <ele>643.6</ele>
        <time>1970-01-01T07:48:27.000Z</time>
      </trkpt>
      <trkpt lat="43.017145" lon="0.534214">
        <ele>642</ele>
        <time>1970-01-01T07:48:30.000Z</time>
      </trkpt>
      <trkpt lat="43.017166" lon="0.53415">
        <ele>641</ele>
        <time>1970-01-01T07:48:33.000Z</time>
      </trkpt>
      <trkpt lat="43.017173" lon="0.534115">
        <ele>640.2</ele>
        <time>1970-01-01T07:48:35.000Z</time>
      </trkpt>
      <trkpt lat="43.017179" lon="0.534099">
        <ele>639.8</ele>
        <time>1970-01-01T07:48:36.000Z</time>
      </trkpt>
      <trkpt lat="43.017204" lon="0.534034">
        <ele>638.8</ele>
        <time>1970-01-01T07:48:39.000Z</time>
      </trkpt>
      <trkpt lat="43.017253" lon="0.533987">
        <ele>637.6</ele>
        <time>1970-01-01T07:48:42.000Z</time>
      </trkpt>
      <trkpt lat="43.017274" lon="0.53397">
        <ele>637.2</ele>
        <time>1970-01-01T07:48:43.000Z</time>
      </trkpt>
      <trkpt lat="43.017289" lon="0.53395">
        <ele>636.6</ele>
        <time>1970-01-01T07:48:44.000Z</time>
      </trkpt>
      <trkpt lat="43.017325" lon="0.533864">
        <ele>635.4</ele>
        <time>1970-01-01T07:48:47.000Z</time>
      </trkpt>
      <trkpt lat="43.017354" lon="0.533796">
        <ele>634</ele>
        <time>1970-01-01T07:48:49.000Z</time>
      </trkpt>
      <trkpt lat="43.017377" lon="0.533752">
        <ele>632.6</ele>
        <time>1970-01-01T07:48:51.000Z</time>
      </trkpt>
      <trkpt lat="43.017391" lon="0.533737">
        <ele>631.8</ele>
        <time>1970-01-01T07:48:52.000Z</time>
      </trkpt>
      <trkpt lat="43.017403" lon="0.533727">
        <ele>631.4</ele>
        <time>1970-01-01T07:48:53.000Z</time>
      </trkpt>
      <trkpt lat="43.017443" lon="0.533691">
        <ele>629.4</ele>
        <time>1970-01-01T07:48:56.000Z</time>
      </trkpt>
      <trkpt lat="43.017428" lon="0.533641">
        <ele>628.4</ele>
        <time>1970-01-01T07:49:00.000Z</time>
      </trkpt>
      <trkpt lat="43.017431" lon="0.533636">
        <ele>628.4</ele>
        <time>1970-01-01T07:49:01.000Z</time>
      </trkpt>
      <trkpt lat="43.017384" lon="0.533586">
        <ele>627.4</ele>
        <time>1970-01-01T07:49:11.000Z</time>
      </trkpt>
      <trkpt lat="43.017198" lon="0.533463">
        <ele>626.4</ele>
        <time>1970-01-01T07:49:17.000Z</time>
      </trkpt>
      <trkpt lat="43.017068" lon="0.533379">
        <ele>626</ele>
        <time>1970-01-01T07:49:20.000Z</time>
      </trkpt>
      <trkpt lat="43.016962" lon="0.533307">
        <ele>625</ele>
        <time>1970-01-01T07:49:22.000Z</time>
      </trkpt>
      <trkpt lat="43.016844" lon="0.533269">
        <ele>623.8</ele>
        <time>1970-01-01T07:49:24.000Z</time>
      </trkpt>
      <trkpt lat="43.016677" lon="0.533216">
        <ele>622.2</ele>
        <time>1970-01-01T07:49:27.000Z</time>
      </trkpt>
      <trkpt lat="43.016558" lon="0.533182">
        <ele>621</ele>
        <time>1970-01-01T07:49:29.000Z</time>
      </trkpt>
      <trkpt lat="43.016437" lon="0.533132">
        <ele>620</ele>
        <time>1970-01-01T07:49:31.000Z</time>
      </trkpt>
      <trkpt lat="43.016335" lon="0.5331">
        <ele>618.8</ele>
        <time>1970-01-01T07:49:33.000Z</time>
      </trkpt>
      <trkpt lat="43.01628" lon="0.53305">
        <ele>618.2</ele>
        <time>1970-01-01T07:49:35.000Z</time>
      </trkpt>
      <trkpt lat="43.016287" lon="0.533005">
        <ele>617.4</ele>
        <time>1970-01-01T07:49:37.000Z</time>
      </trkpt>
      <trkpt lat="43.016426" lon="0.533038">
        <ele>616.4</ele>
        <time>1970-01-01T07:49:44.000Z</time>
      </trkpt>
      <trkpt lat="43.016487" lon="0.533027">
        <ele>616</ele>
        <time>1970-01-01T07:49:47.000Z</time>
      </trkpt>
      <trkpt lat="43.016582" lon="0.533004">
        <ele>615.4</ele>
        <time>1970-01-01T07:49:52.000Z</time>
      </trkpt>
      <trkpt lat="43.016858" lon="0.532948">
        <ele>614.2</ele>
        <time>1970-01-01T07:50:00.000Z</time>
      </trkpt>
      <trkpt lat="43.017015" lon="0.532926">
        <ele>613</ele>
        <time>1970-01-01T07:50:03.000Z</time>
      </trkpt>
      <trkpt lat="43.017123" lon="0.532891">
        <ele>611.2</ele>
        <time>1970-01-01T07:50:05.000Z</time>
      </trkpt>
      <trkpt lat="43.017228" lon="0.532848">
        <ele>609.4</ele>
        <time>1970-01-01T07:50:07.000Z</time>
      </trkpt>
      <trkpt lat="43.017285" lon="0.532836">
        <ele>608.6</ele>
        <time>1970-01-01T07:50:08.000Z</time>
      </trkpt>
      <trkpt lat="43.017345" lon="0.532829">
        <ele>607.6</ele>
        <time>1970-01-01T07:50:09.000Z</time>
      </trkpt>
      <trkpt lat="43.017408" lon="0.532817">
        <ele>606.6</ele>
        <time>1970-01-01T07:50:10.000Z</time>
      </trkpt>
      <trkpt lat="43.017547" lon="0.532789">
        <ele>605.4</ele>
        <time>1970-01-01T07:50:12.000Z</time>
      </trkpt>
      <trkpt lat="43.017691" lon="0.532779">
        <ele>603.6</ele>
        <time>1970-01-01T07:50:14.000Z</time>
      </trkpt>
      <trkpt lat="43.01782" lon="0.53277">
        <ele>602.4</ele>
        <time>1970-01-01T07:50:16.000Z</time>
      </trkpt>
      <trkpt lat="43.017875" lon="0.532758">
        <ele>601.4</ele>
        <time>1970-01-01T07:50:17.000Z</time>
      </trkpt>
      <trkpt lat="43.017964" lon="0.532735">
        <ele>600</ele>
        <time>1970-01-01T07:50:19.000Z</time>
      </trkpt>
      <trkpt lat="43.018053" lon="0.532709">
        <ele>598.2</ele>
        <time>1970-01-01T07:50:21.000Z</time>
      </trkpt>
      <trkpt lat="43.018096" lon="0.532684">
        <ele>597.2</ele>
        <time>1970-01-01T07:50:22.000Z</time>
      </trkpt>
      <trkpt lat="43.018175" lon="0.532621">
        <ele>596</ele>
        <time>1970-01-01T07:50:25.000Z</time>
      </trkpt>
      <trkpt lat="43.018183" lon="0.532579">
        <ele>595.4</ele>
        <time>1970-01-01T07:50:29.000Z</time>
      </trkpt>
      <trkpt lat="43.018201" lon="0.53254">
        <ele>594.8</ele>
        <time>1970-01-01T07:51:26.000Z</time>
      </trkpt>
      <trkpt lat="43.018244" lon="0.532487">
        <ele>594.4</ele>
        <time>1970-01-01T07:51:28.000Z</time>
      </trkpt>
      <trkpt lat="43.018271" lon="0.532446">
        <ele>594.2</ele>
        <time>1970-01-01T07:51:29.000Z</time>
      </trkpt>
      <trkpt lat="43.018339" lon="0.532346">
        <ele>593.4</ele>
        <time>1970-01-01T07:51:31.000Z</time>
      </trkpt>
      <trkpt lat="43.018397" lon="0.532248">
        <ele>592</ele>
        <time>1970-01-01T07:51:33.000Z</time>
      </trkpt>
      <trkpt lat="43.018493" lon="0.532127">
        <ele>590.4</ele>
        <time>1970-01-01T07:51:36.000Z</time>
      </trkpt>
      <trkpt lat="43.018577" lon="0.532016">
        <ele>589</ele>
        <time>1970-01-01T07:51:38.000Z</time>
      </trkpt>
      <trkpt lat="43.018622" lon="0.531958">
        <ele>588.6</ele>
        <time>1970-01-01T07:51:39.000Z</time>
      </trkpt>
      <trkpt lat="43.018664" lon="0.531897">
        <ele>588</ele>
        <time>1970-01-01T07:51:40.000Z</time>
      </trkpt>
      <trkpt lat="43.018741" lon="0.531775">
        <ele>586.4</ele>
        <time>1970-01-01T07:51:42.000Z</time>
      </trkpt>
      <trkpt lat="43.018825" lon="0.531649">
        <ele>585.2</ele>
        <time>1970-01-01T07:51:44.000Z</time>
      </trkpt>
      <trkpt lat="43.018915" lon="0.531527">
        <ele>583.6</ele>
        <time>1970-01-01T07:51:46.000Z</time>
      </trkpt>
      <trkpt lat="43.019034" lon="0.531375">
        <ele>582.2</ele>
        <time>1970-01-01T07:51:49.000Z</time>
      </trkpt>
      <trkpt lat="43.019182" lon="0.531222">
        <ele>581.2</ele>
        <time>1970-01-01T07:51:53.000Z</time>
      </trkpt>
      <trkpt lat="43.019519" lon="0.53085">
        <ele>579.8</ele>
        <time>1970-01-01T07:52:04.000Z</time>
      </trkpt>
      <trkpt lat="43.019685" lon="0.530639">
        <ele>578.2</ele>
        <time>1970-01-01T07:52:08.000Z</time>
      </trkpt>
      <trkpt lat="43.019818" lon="0.530445">
        <ele>577</ele>
        <time>1970-01-01T07:52:11.000Z</time>
      </trkpt>
      <trkpt lat="43.019934" lon="0.530249">
        <ele>575.4</ele>
        <time>1970-01-01T07:52:14.000Z</time>
      </trkpt>
      <trkpt lat="43.020018" lon="0.53012">
        <ele>573.8</ele>
        <time>1970-01-01T07:52:16.000Z</time>
      </trkpt>
      <trkpt lat="43.020067" lon="0.530055">
        <ele>572.8</ele>
        <time>1970-01-01T07:52:17.000Z</time>
      </trkpt>
      <trkpt lat="43.020167" lon="0.529917">
        <ele>571.6</ele>
        <time>1970-01-01T07:52:19.000Z</time>
      </trkpt>
      <trkpt lat="43.020265" lon="0.529776">
        <ele>570.2</ele>
        <time>1970-01-01T07:52:21.000Z</time>
      </trkpt>
      <trkpt lat="43.020382" lon="0.529644">
        <ele>569.2</ele>
        <time>1970-01-01T07:52:23.000Z</time>
      </trkpt>
      <trkpt lat="43.020517" lon="0.529513">
        <ele>567.4</ele>
        <time>1970-01-01T07:52:25.000Z</time>
      </trkpt>
      <trkpt lat="43.020655" lon="0.529389">
        <ele>565.8</ele>
        <time>1970-01-01T07:52:27.000Z</time>
      </trkpt>
      <trkpt lat="43.020722" lon="0.529346">
        <ele>564.6</ele>
        <time>1970-01-01T07:52:28.000Z</time>
      </trkpt>
      <trkpt lat="43.020786" lon="0.529316">
        <ele>563</ele>
        <time>1970-01-01T07:52:29.000Z</time>
      </trkpt>
      <trkpt lat="43.020838" lon="0.529285">
        <ele>561.8</ele>
        <time>1970-01-01T07:52:30.000Z</time>
      </trkpt>
      <trkpt lat="43.020884" lon="0.529258">
        <ele>560.4</ele>
        <time>1970-01-01T07:52:32.000Z</time>
      </trkpt>
      <trkpt lat="43.020887" lon="0.529259">
        <ele>560.2</ele>
        <time>1970-01-01T07:52:33.000Z</time>
      </trkpt>
      <trkpt lat="43.020958" lon="0.529255">
        <ele>559</ele>
        <time>1970-01-01T07:53:12.000Z</time>
      </trkpt>
      <trkpt lat="43.021138" lon="0.529182">
        <ele>558</ele>
        <time>1970-01-01T07:53:17.000Z</time>
      </trkpt>
      <trkpt lat="43.021245" lon="0.529126">
        <ele>556.8</ele>
        <time>1970-01-01T07:53:19.000Z</time>
      </trkpt>
      <trkpt lat="43.021375" lon="0.529053">
        <ele>555.2</ele>
        <time>1970-01-01T07:53:21.000Z</time>
      </trkpt>
      <trkpt lat="43.021501" lon="0.528994">
        <ele>553.8</ele>
        <time>1970-01-01T07:53:23.000Z</time>
      </trkpt>
      <trkpt lat="43.021655" lon="0.528929">
        <ele>552.4</ele>
        <time>1970-01-01T07:53:26.000Z</time>
      </trkpt>
      <trkpt lat="43.021821" lon="0.528858">
        <ele>551.2</ele>
        <time>1970-01-01T07:53:29.000Z</time>
      </trkpt>
      <trkpt lat="43.022182" lon="0.528647">
        <ele>550.2</ele>
        <time>1970-01-01T07:53:35.000Z</time>
      </trkpt>
      <trkpt lat="43.022378" lon="0.528497">
        <ele>549</ele>
        <time>1970-01-01T07:53:38.000Z</time>
      </trkpt>
      <trkpt lat="43.022526" lon="0.528381">
        <ele>547.6</ele>
        <time>1970-01-01T07:53:40.000Z</time>
      </trkpt>
      <trkpt lat="43.022685" lon="0.528253">
        <ele>546.4</ele>
        <time>1970-01-01T07:53:42.000Z</time>
      </trkpt>
      <trkpt lat="43.022843" lon="0.5281">
        <ele>544.4</ele>
        <time>1970-01-01T07:53:44.000Z</time>
      </trkpt>
      <trkpt lat="43.022922" lon="0.528013">
        <ele>543.4</ele>
        <time>1970-01-01T07:53:45.000Z</time>
      </trkpt>
      <trkpt lat="43.023007" lon="0.527933">
        <ele>542.4</ele>
        <time>1970-01-01T07:53:46.000Z</time>
      </trkpt>
      <trkpt lat="43.023206" lon="0.527822">
        <ele>540.4</ele>
        <time>1970-01-01T07:53:48.000Z</time>
      </trkpt>
      <trkpt lat="43.023404" lon="0.527762">
        <ele>539.2</ele>
        <time>1970-01-01T07:53:50.000Z</time>
      </trkpt>
      <trkpt lat="43.023501" lon="0.527749">
        <ele>538.8</ele>
        <time>1970-01-01T07:53:51.000Z</time>
      </trkpt>
      <trkpt lat="43.023857" lon="0.527775">
        <ele>538</ele>
        <time>1970-01-01T07:53:55.000Z</time>
      </trkpt>
      <trkpt lat="43.023946" lon="0.527781">
        <ele>537.6</ele>
        <time>1970-01-01T07:53:56.000Z</time>
      </trkpt>
      <trkpt lat="43.024277" lon="0.527712">
        <ele>536.8</ele>
        <time>1970-01-01T07:54:00.000Z</time>
      </trkpt>
      <trkpt lat="43.024644" lon="0.527636">
        <ele>536.2</ele>
        <time>1970-01-01T07:54:05.000Z</time>
      </trkpt>
      <trkpt lat="43.025158" lon="0.527355">
        <ele>536.2</ele>
        <time>1970-01-01T07:54:14.000Z</time>
      </trkpt>
      <trkpt lat="43.025466" lon="0.527302">
        <ele>535.6</ele>
        <time>1970-01-01T07:54:19.000Z</time>
      </trkpt>
      <trkpt lat="43.02577" lon="0.527324">
        <ele>534.4</ele>
        <time>1970-01-01T07:54:23.000Z</time>
      </trkpt>
      <trkpt lat="43.025937" lon="0.527354">
        <ele>533.2</ele>
        <time>1970-01-01T07:54:25.000Z</time>
      </trkpt>
      <trkpt lat="43.026197" lon="0.527387">
        <ele>532</ele>
        <time>1970-01-01T07:54:28.000Z</time>
      </trkpt>
      <trkpt lat="43.026659" lon="0.527337">
        <ele>530.8</ele>
        <time>1970-01-01T07:54:34.000Z</time>
      </trkpt>
      <trkpt lat="43.027243" lon="0.527256">
        <ele>531</ele>
        <time>1970-01-01T07:54:43.000Z</time>
      </trkpt>
      <trkpt lat="43.027601" lon="0.527221">
        <ele>532</ele>
        <time>1970-01-01T07:54:50.000Z</time>
      </trkpt>
      <trkpt lat="43.027944" lon="0.527227">
        <ele>533</ele>
        <time>1970-01-01T07:54:58.000Z</time>
      </trkpt>
      <trkpt lat="43.028486" lon="0.527233">
        <ele>533.2</ele>
        <time>1970-01-01T07:55:10.000Z</time>
      </trkpt>
      <trkpt lat="43.029052" lon="0.527219">
        <ele>532.8</ele>
        <time>1970-01-01T07:55:20.000Z</time>
      </trkpt>
      <trkpt lat="43.029375" lon="0.527212">
        <ele>532.6</ele>
        <time>1970-01-01T07:55:26.000Z</time>
      </trkpt>
      <trkpt lat="43.02967" lon="0.527202">
        <ele>533</ele>
        <time>1970-01-01T07:55:32.000Z</time>
      </trkpt>
      <trkpt lat="43.029967" lon="0.527382">
        <ele>534.4</ele>
        <time>1970-01-01T07:55:41.000Z</time>
      </trkpt>
      <trkpt lat="43.030495" lon="0.52721">
        <ele>535.2</ele>
        <time>1970-01-01T07:55:59.000Z</time>
      </trkpt>
      <trkpt lat="43.030706" lon="0.527104">
        <ele>535.4</ele>
        <time>1970-01-01T07:56:04.000Z</time>
      </trkpt>
      <trkpt lat="43.031125" lon="0.526796">
        <ele>536</ele>
        <time>1970-01-01T07:56:15.000Z</time>
      </trkpt>
      <trkpt lat="43.03121" lon="0.526753">
        <ele>535.8</ele>
        <time>1970-01-01T07:56:17.000Z</time>
      </trkpt>
      <trkpt lat="43.031428" lon="0.526695">
        <ele>535</ele>
        <time>1970-01-01T07:56:21.000Z</time>
      </trkpt>
      <trkpt lat="43.031621" lon="0.526626">
        <ele>535.4</ele>
        <time>1970-01-01T07:56:26.000Z</time>
      </trkpt>
      <trkpt lat="43.031792" lon="0.526455">
        <ele>536.6</ele>
        <time>1970-01-01T07:56:32.000Z</time>
      </trkpt>
      <trkpt lat="43.032236" lon="0.525971">
        <ele>536</ele>
        <time>1970-01-01T07:56:46.000Z</time>
      </trkpt>
      <trkpt lat="43.032329" lon="0.525905">
        <ele>535.4</ele>
        <time>1970-01-01T07:56:48.000Z</time>
      </trkpt>
      <trkpt lat="43.032537" lon="0.525737">
        <ele>534.4</ele>
        <time>1970-01-01T07:56:52.000Z</time>
      </trkpt>
      <trkpt lat="43.032786" lon="0.525578">
        <ele>532.8</ele>
        <time>1970-01-01T07:56:56.000Z</time>
      </trkpt>
      <trkpt lat="43.032905" lon="0.525477">
        <ele>532</ele>
        <time>1970-01-01T07:56:58.000Z</time>
      </trkpt>
      <trkpt lat="43.032948" lon="0.525408">
        <ele>531.6</ele>
        <time>1970-01-01T07:56:59.000Z</time>
      </trkpt>
      <trkpt lat="43.033033" lon="0.525225">
        <ele>530.4</ele>
        <time>1970-01-01T07:57:02.000Z</time>
      </trkpt>
      <trkpt lat="43.033267" lon="0.525144">
        <ele>530.2</ele>
        <time>1970-01-01T07:57:08.000Z</time>
      </trkpt>
      <trkpt lat="43.033591" lon="0.525094">
        <ele>530</ele>
        <time>1970-01-01T07:57:15.000Z</time>
      </trkpt>
      <trkpt lat="43.034148" lon="0.524878">
        <ele>529.6</ele>
        <time>1970-01-01T07:57:26.000Z</time>
      </trkpt>
      <trkpt lat="43.034709" lon="0.524645">
        <ele>529.6</ele>
        <time>1970-01-01T07:57:37.000Z</time>
      </trkpt>
      <trkpt lat="43.034818" lon="0.524595">
        <ele>529.4</ele>
        <time>1970-01-01T07:57:39.000Z</time>
      </trkpt>
      <trkpt lat="43.035092" lon="0.524486">
        <ele>529</ele>
        <time>1970-01-01T07:57:44.000Z</time>
      </trkpt>
      <trkpt lat="43.035513" lon="0.524324">
        <ele>528.4</ele>
        <time>1970-01-01T07:57:52.000Z</time>
      </trkpt>
      <trkpt lat="43.035899" lon="0.524134">
        <ele>528.2</ele>
        <time>1970-01-01T07:58:00.000Z</time>
      </trkpt>
      <trkpt lat="43.0364" lon="0.523791">
        <ele>527.8</ele>
        <time>1970-01-01T07:58:11.000Z</time>
      </trkpt>
      <trkpt lat="43.036916" lon="0.523512">
        <ele>528.2</ele>
        <time>1970-01-01T07:58:22.000Z</time>
      </trkpt>
      <trkpt lat="43.037423" lon="0.523162">
        <ele>528</ele>
        <time>1970-01-01T07:58:34.000Z</time>
      </trkpt>
      <trkpt lat="43.037535" lon="0.523087">
        <ele>527.8</ele>
        <time>1970-01-01T07:58:41.000Z</time>
      </trkpt>
      <trkpt lat="43.037554" lon="0.523066">
        <ele>527.6</ele>
        <time>1970-01-01T08:00:24.000Z</time>
      </trkpt>
      <trkpt lat="43.038092" lon="0.522942">
        <ele>526.8</ele>
        <time>1970-01-01T08:00:38.000Z</time>
      </trkpt>
      <trkpt lat="43.038214" lon="0.52293">
        <ele>526.6</ele>
        <time>1970-01-01T08:00:40.000Z</time>
      </trkpt>
      <trkpt lat="43.038644" lon="0.522911">
        <ele>525.4</ele>
        <time>1970-01-01T08:00:47.000Z</time>
      </trkpt>
      <trkpt lat="43.039058" lon="0.522871">
        <ele>524.4</ele>
        <time>1970-01-01T08:00:54.000Z</time>
      </trkpt>
      <trkpt lat="43.039521" lon="0.52283">
        <ele>523.4</ele>
        <time>1970-01-01T08:01:02.000Z</time>
      </trkpt>
      <trkpt lat="43.039907" lon="0.52283">
        <ele>522.4</ele>
        <time>1970-01-01T08:01:08.000Z</time>
      </trkpt>
      <trkpt lat="43.040267" lon="0.522834">
        <ele>521.2</ele>
        <time>1970-01-01T08:01:13.000Z</time>
      </trkpt>
      <trkpt lat="43.040807" lon="0.522843">
        <ele>520.2</ele>
        <time>1970-01-01T08:01:20.000Z</time>
      </trkpt>
      <trkpt lat="43.041231" lon="0.522837">
        <ele>519</ele>
        <time>1970-01-01T08:01:26.000Z</time>
      </trkpt>
      <trkpt lat="43.041304" lon="0.522608">
        <ele>517.8</ele>
        <time>1970-01-01T08:01:30.000Z</time>
      </trkpt>
      <trkpt lat="43.041307" lon="0.522536">
        <ele>516.6</ele>
        <time>1970-01-01T08:01:33.000Z</time>
      </trkpt>
      <trkpt lat="43.041306" lon="0.522537">
        <ele>516.6</ele>
        <time>1970-01-01T08:01:34.000Z</time>
      </trkpt>
      <trkpt lat="43.041307" lon="0.522477">
        <ele>516.6</ele>
        <time>1970-01-01T08:01:45.000Z</time>
      </trkpt>
      <trkpt lat="43.041292" lon="0.522366">
        <ele>515.8</ele>
        <time>1970-01-01T08:01:47.000Z</time>
      </trkpt>
      <trkpt lat="43.041276" lon="0.522298">
        <ele>515.4</ele>
        <time>1970-01-01T08:01:48.000Z</time>
      </trkpt>
      <trkpt lat="43.041253" lon="0.522221">
        <ele>514.8</ele>
        <time>1970-01-01T08:01:49.000Z</time>
      </trkpt>
      <trkpt lat="43.041179" lon="0.521965">
        <ele>513.6</ele>
        <time>1970-01-01T08:01:52.000Z</time>
      </trkpt>
      <trkpt lat="43.041223" lon="0.521436">
        <ele>514.8</ele>
        <time>1970-01-01T08:02:00.000Z</time>
      </trkpt>
      <trkpt lat="43.041224" lon="0.521293">
        <ele>515.8</ele>
        <time>1970-01-01T08:02:03.000Z</time>
      </trkpt>
      <trkpt lat="43.041195" lon="0.521045">
        <ele>517</ele>
        <time>1970-01-01T08:02:08.000Z</time>
      </trkpt>
      <trkpt lat="43.041165" lon="0.520819">
        <ele>518</ele>
        <time>1970-01-01T08:02:12.000Z</time>
      </trkpt>
      <trkpt lat="43.041149" lon="0.520768">
        <ele>518</ele>
        <time>1970-01-01T08:02:13.000Z</time>
      </trkpt>
      <trkpt lat="43.041055" lon="0.520458">
        <ele>519</ele>
        <time>1970-01-01T08:02:19.000Z</time>
      </trkpt>
      <trkpt lat="43.040942" lon="0.520141">
        <ele>520.2</ele>
        <time>1970-01-01T08:02:26.000Z</time>
      </trkpt>
      <trkpt lat="43.040794" lon="0.51998">
        <ele>521.2</ele>
        <time>1970-01-01T08:02:32.000Z</time>
      </trkpt>
      <trkpt lat="43.04065" lon="0.519892">
        <ele>522.6</ele>
        <time>1970-01-01T08:02:37.000Z</time>
      </trkpt>
      <trkpt lat="43.040572" lon="0.519793">
        <ele>523.8</ele>
        <time>1970-01-01T08:02:41.000Z</time>
      </trkpt>
      <trkpt lat="43.040531" lon="0.519708">
        <ele>524.8</ele>
        <time>1970-01-01T08:02:44.000Z</time>
      </trkpt>
      <trkpt lat="43.040494" lon="0.519614">
        <ele>526</ele>
        <time>1970-01-01T08:02:47.000Z</time>
      </trkpt>
      <trkpt lat="43.040464" lon="0.519436">
        <ele>527</ele>
        <time>1970-01-01T08:02:52.000Z</time>
      </trkpt>
      <trkpt lat="43.040657" lon="0.519009">
        <ele>528</ele>
        <time>1970-01-01T08:03:03.000Z</time>
      </trkpt>
      <trkpt lat="43.040683" lon="0.518867">
        <ele>528.4</ele>
        <time>1970-01-01T08:03:06.000Z</time>
      </trkpt>
      <trkpt lat="43.040573" lon="0.518772">
        <ele>528.6</ele>
        <time>1970-01-01T08:03:10.000Z</time>
      </trkpt>
      <trkpt lat="43.040146" lon="0.518598">
        <ele>526.8</ele>
        <time>1970-01-01T08:03:18.000Z</time>
      </trkpt>
      <trkpt lat="43.039974" lon="0.518549">
        <ele>525.2</ele>
        <time>1970-01-01T08:03:20.000Z</time>
      </trkpt>
      <trkpt lat="43.039789" lon="0.518513">
        <ele>524.2</ele>
        <time>1970-01-01T08:03:22.000Z</time>
      </trkpt>
      <trkpt lat="43.039239" lon="0.518372">
        <ele>524.2</ele>
        <time>1970-01-01T08:03:30.000Z</time>
      </trkpt>
      <trkpt lat="43.039057" lon="0.518314">
        <ele>525.2</ele>
        <time>1970-01-01T08:03:34.000Z</time>
      </trkpt>
      <trkpt lat="43.039017" lon="0.518298">
        <ele>525.6</ele>
        <time>1970-01-01T08:03:35.000Z</time>
      </trkpt>
      <trkpt lat="43.038944" lon="0.518255">
        <ele>526.4</ele>
        <time>1970-01-01T08:03:37.000Z</time>
      </trkpt>
      <trkpt lat="43.038725" lon="0.51797">
        <ele>527.4</ele>
        <time>1970-01-01T08:03:45.000Z</time>
      </trkpt>
      <trkpt lat="43.038492" lon="0.51728">
        <ele>528.2</ele>
        <time>1970-01-01T08:03:58.000Z</time>
      </trkpt>
      <trkpt lat="43.038424" lon="0.517067">
        <ele>528.4</ele>
        <time>1970-01-01T08:04:02.000Z</time>
      </trkpt>
      <trkpt lat="43.03851" lon="0.516838">
        <ele>528.6</ele>
        <time>1970-01-01T08:04:07.000Z</time>
      </trkpt>
      <trkpt lat="43.038973" lon="0.516361">
        <ele>528.4</ele>
        <time>1970-01-01T08:04:19.000Z</time>
      </trkpt>
      <trkpt lat="43.039441" lon="0.515872">
        <ele>528</ele>
        <time>1970-01-01T08:04:29.000Z</time>
      </trkpt>
      <trkpt lat="43.039535" lon="0.515739">
        <ele>527.4</ele>
        <time>1970-01-01T08:04:31.000Z</time>
      </trkpt>
      <trkpt lat="43.03978" lon="0.515382">
        <ele>526.4</ele>
        <time>1970-01-01T08:04:36.000Z</time>
      </trkpt>
      <trkpt lat="43.040106" lon="0.514761">
        <ele>525.8</ele>
        <time>1970-01-01T08:04:44.000Z</time>
      </trkpt>
      <trkpt lat="43.040176" lon="0.514605">
        <ele>525.8</ele>
        <time>1970-01-01T08:04:46.000Z</time>
      </trkpt>
      <trkpt lat="43.040516" lon="0.514392">
        <ele>525.4</ele>
        <time>1970-01-01T08:04:52.000Z</time>
      </trkpt>
      <trkpt lat="43.041074" lon="0.514207">
        <ele>526</ele>
        <time>1970-01-01T08:05:02.000Z</time>
      </trkpt>
      <trkpt lat="43.041619" lon="0.513926">
        <ele>526.4</ele>
        <time>1970-01-01T08:05:13.000Z</time>
      </trkpt>
      <trkpt lat="43.042092" lon="0.513723">
        <ele>527.6</ele>
        <time>1970-01-01T08:05:23.000Z</time>
      </trkpt>
      <trkpt lat="43.04254" lon="0.513509">
        <ele>528.8</ele>
        <time>1970-01-01T08:05:33.000Z</time>
      </trkpt>
      <trkpt lat="43.042858" lon="0.513357">
        <ele>529.8</ele>
        <time>1970-01-01T08:05:40.000Z</time>
      </trkpt>
      <trkpt lat="43.043172" lon="0.513206">
        <ele>531</ele>
        <time>1970-01-01T08:05:47.000Z</time>
      </trkpt>
      <trkpt lat="43.043466" lon="0.513052">
        <ele>532.2</ele>
        <time>1970-01-01T08:05:54.000Z</time>
      </trkpt>
      <trkpt lat="43.043655" lon="0.512942">
        <ele>533.4</ele>
        <time>1970-01-01T08:05:59.000Z</time>
      </trkpt>
      <trkpt lat="43.044178" lon="0.512678">
        <ele>534.2</ele>
        <time>1970-01-01T08:06:13.000Z</time>
      </trkpt>
      <trkpt lat="43.044294" lon="0.512643">
        <ele>534.4</ele>
        <time>1970-01-01T08:06:16.000Z</time>
      </trkpt>
      <trkpt lat="43.044491" lon="0.512602">
        <ele>535.6</ele>
        <time>1970-01-01T08:06:21.000Z</time>
      </trkpt>
      <trkpt lat="43.044727" lon="0.512506">
        <ele>536.4</ele>
        <time>1970-01-01T08:06:27.000Z</time>
      </trkpt>
      <trkpt lat="43.044799" lon="0.512445">
        <ele>536.6</ele>
        <time>1970-01-01T08:06:29.000Z</time>
      </trkpt>
      <trkpt lat="43.044911" lon="0.512273">
        <ele>537</ele>
        <time>1970-01-01T08:06:33.000Z</time>
      </trkpt>
      <trkpt lat="43.04519" lon="0.511844">
        <ele>537.8</ele>
        <time>1970-01-01T08:06:43.000Z</time>
      </trkpt>
      <trkpt lat="43.045264" lon="0.511783">
        <ele>537.8</ele>
        <time>1970-01-01T08:06:45.000Z</time>
      </trkpt>
      <trkpt lat="43.045781" lon="0.511536">
        <ele>538.2</ele>
        <time>1970-01-01T08:06:57.000Z</time>
      </trkpt>
      <trkpt lat="43.045903" lon="0.511443">
        <ele>538.4</ele>
        <time>1970-01-01T08:07:00.000Z</time>
      </trkpt>
      <trkpt lat="43.046279" lon="0.510875">
        <ele>538</ele>
        <time>1970-01-01T08:07:11.000Z</time>
      </trkpt>
      <trkpt lat="43.046346" lon="0.510753">
        <ele>537.8</ele>
        <time>1970-01-01T08:07:13.000Z</time>
      </trkpt>
      <trkpt lat="43.046571" lon="0.510511">
        <ele>537</ele>
        <time>1970-01-01T08:07:18.000Z</time>
      </trkpt>
      <trkpt lat="43.046902" lon="0.510208">
        <ele>535.8</ele>
        <time>1970-01-01T08:07:25.000Z</time>
      </trkpt>
      <trkpt lat="43.047182" lon="0.509872">
        <ele>534.8</ele>
        <time>1970-01-01T08:07:31.000Z</time>
      </trkpt>
      <trkpt lat="43.047222" lon="0.509798">
        <ele>534.8</ele>
        <time>1970-01-01T08:07:32.000Z</time>
      </trkpt>
      <trkpt lat="43.047403" lon="0.509425">
        <ele>533.6</ele>
        <time>1970-01-01T08:07:37.000Z</time>
      </trkpt>
      <trkpt lat="43.04771" lon="0.508963">
        <ele>532.4</ele>
        <time>1970-01-01T08:07:44.000Z</time>
      </trkpt>
      <trkpt lat="43.04787" lon="0.508749">
        <ele>531.4</ele>
        <time>1970-01-01T08:07:47.000Z</time>
      </trkpt>
      <trkpt lat="43.048034" lon="0.508525">
        <ele>530</ele>
        <time>1970-01-01T08:07:50.000Z</time>
      </trkpt>
      <trkpt lat="43.048194" lon="0.508289">
        <ele>529</ele>
        <time>1970-01-01T08:07:53.000Z</time>
      </trkpt>
      <trkpt lat="43.048369" lon="0.508061">
        <ele>527.8</ele>
        <time>1970-01-01T08:07:56.000Z</time>
      </trkpt>
      <trkpt lat="43.04862" lon="0.507755">
        <ele>526.2</ele>
        <time>1970-01-01T08:08:00.000Z</time>
      </trkpt>
      <trkpt lat="43.048759" lon="0.5076">
        <ele>524.8</ele>
        <time>1970-01-01T08:08:02.000Z</time>
      </trkpt>
      <trkpt lat="43.048907" lon="0.507445">
        <ele>523.6</ele>
        <time>1970-01-01T08:08:04.000Z</time>
      </trkpt>
      <trkpt lat="43.049057" lon="0.507284">
        <ele>522.2</ele>
        <time>1970-01-01T08:08:06.000Z</time>
      </trkpt>
      <trkpt lat="43.049262" lon="0.507021">
        <ele>520.8</ele>
        <time>1970-01-01T08:08:09.000Z</time>
      </trkpt>
      <trkpt lat="43.049464" lon="0.506782">
        <ele>519.8</ele>
        <time>1970-01-01T08:08:12.000Z</time>
      </trkpt>
      <trkpt lat="43.049786" lon="0.506468">
        <ele>518.8</ele>
        <time>1970-01-01T08:08:17.000Z</time>
      </trkpt>
      <trkpt lat="43.049883" lon="0.506319">
        <ele>519</ele>
        <time>1970-01-01T08:08:19.000Z</time>
      </trkpt>
      <trkpt lat="43.05025" lon="0.50585">
        <ele>518</ele>
        <time>1970-01-01T08:08:26.000Z</time>
      </trkpt>
      <trkpt lat="43.050543" lon="0.505658">
        <ele>516.6</ele>
        <time>1970-01-01T08:08:30.000Z</time>
      </trkpt>
      <trkpt lat="43.050689" lon="0.505563">
        <ele>515.2</ele>
        <time>1970-01-01T08:08:32.000Z</time>
      </trkpt>
      <trkpt lat="43.050753" lon="0.505507">
        <ele>514.4</ele>
        <time>1970-01-01T08:08:33.000Z</time>
      </trkpt>
      <trkpt lat="43.050808" lon="0.505436">
        <ele>513.6</ele>
        <time>1970-01-01T08:08:34.000Z</time>
      </trkpt>
      <trkpt lat="43.050894" lon="0.505271">
        <ele>512</ele>
        <time>1970-01-01T08:08:36.000Z</time>
      </trkpt>
      <trkpt lat="43.050983" lon="0.505123">
        <ele>510.4</ele>
        <time>1970-01-01T08:08:38.000Z</time>
      </trkpt>
      <trkpt lat="43.051036" lon="0.505061">
        <ele>509.6</ele>
        <time>1970-01-01T08:08:39.000Z</time>
      </trkpt>
      <trkpt lat="43.051095" lon="0.505008">
        <ele>508.8</ele>
        <time>1970-01-01T08:08:40.000Z</time>
      </trkpt>
      <trkpt lat="43.051226" lon="0.504943">
        <ele>507.2</ele>
        <time>1970-01-01T08:08:42.000Z</time>
      </trkpt>
      <trkpt lat="43.051377" lon="0.504934">
        <ele>505.8</ele>
        <time>1970-01-01T08:08:44.000Z</time>
      </trkpt>
      <trkpt lat="43.051513" lon="0.505016">
        <ele>504.2</ele>
        <time>1970-01-01T08:08:46.000Z</time>
      </trkpt>
      <trkpt lat="43.051587" lon="0.505067">
        <ele>503.6</ele>
        <time>1970-01-01T08:08:47.000Z</time>
      </trkpt>
      <trkpt lat="43.051664" lon="0.505124">
        <ele>503.2</ele>
        <time>1970-01-01T08:08:48.000Z</time>
      </trkpt>
      <trkpt lat="43.051832" lon="0.505221">
        <ele>502</ele>
        <time>1970-01-01T08:08:50.000Z</time>
      </trkpt>
      <trkpt lat="43.052009" lon="0.505311">
        <ele>500.8</ele>
        <time>1970-01-01T08:08:52.000Z</time>
      </trkpt>
      <trkpt lat="43.052091" lon="0.50537">
        <ele>500.2</ele>
        <time>1970-01-01T08:08:53.000Z</time>
      </trkpt>
      <trkpt lat="43.05217" lon="0.50544">
        <ele>499.4</ele>
        <time>1970-01-01T08:08:54.000Z</time>
      </trkpt>
      <trkpt lat="43.052316" lon="0.505621">
        <ele>497.6</ele>
        <time>1970-01-01T08:08:56.000Z</time>
      </trkpt>
      <trkpt lat="43.052385" lon="0.505734">
        <ele>497</ele>
        <time>1970-01-01T08:08:57.000Z</time>
      </trkpt>
      <trkpt lat="43.052451" lon="0.505858">
        <ele>496.4</ele>
        <time>1970-01-01T08:08:58.000Z</time>
      </trkpt>
      <trkpt lat="43.052579" lon="0.506098">
        <ele>495</ele>
        <time>1970-01-01T08:09:00.000Z</time>
      </trkpt>
      <trkpt lat="43.052704" lon="0.506356">
        <ele>493.4</ele>
        <time>1970-01-01T08:09:02.000Z</time>
      </trkpt>
      <trkpt lat="43.052851" lon="0.506541">
        <ele>491.2</ele>
        <time>1970-01-01T08:09:04.000Z</time>
      </trkpt>
      <trkpt lat="43.052997" lon="0.506676">
        <ele>489.6</ele>
        <time>1970-01-01T08:09:06.000Z</time>
      </trkpt>
      <trkpt lat="43.053095" lon="0.506845">
        <ele>488.2</ele>
        <time>1970-01-01T08:09:08.000Z</time>
      </trkpt>
      <trkpt lat="43.053135" lon="0.507066">
        <ele>487.4</ele>
        <time>1970-01-01T08:09:10.000Z</time>
      </trkpt>
      <trkpt lat="43.053149" lon="0.507179">
        <ele>487</ele>
        <time>1970-01-01T08:09:11.000Z</time>
      </trkpt>
      <trkpt lat="43.053182" lon="0.507506">
        <ele>485.8</ele>
        <time>1970-01-01T08:09:14.000Z</time>
      </trkpt>
      <trkpt lat="43.053238" lon="0.507836">
        <ele>484.6</ele>
        <time>1970-01-01T08:09:17.000Z</time>
      </trkpt>
      <trkpt lat="43.05327" lon="0.507944">
        <ele>484.2</ele>
        <time>1970-01-01T08:09:18.000Z</time>
      </trkpt>
      <trkpt lat="43.053368" lon="0.508126">
        <ele>483.2</ele>
        <time>1970-01-01T08:09:20.000Z</time>
      </trkpt>
      <trkpt lat="43.05351" lon="0.508265">
        <ele>482</ele>
        <time>1970-01-01T08:09:22.000Z</time>
      </trkpt>
      <trkpt lat="43.053595" lon="0.508325">
        <ele>481.4</ele>
        <time>1970-01-01T08:09:23.000Z</time>
      </trkpt>
      <trkpt lat="43.053676" lon="0.508393">
        <ele>480.6</ele>
        <time>1970-01-01T08:09:24.000Z</time>
      </trkpt>
      <trkpt lat="43.053845" lon="0.508541">
        <ele>479.2</ele>
        <time>1970-01-01T08:09:26.000Z</time>
      </trkpt>
      <trkpt lat="43.054017" lon="0.508681">
        <ele>477.8</ele>
        <time>1970-01-01T08:09:28.000Z</time>
      </trkpt>
      <trkpt lat="43.054183" lon="0.508803">
        <ele>475.8</ele>
        <time>1970-01-01T08:09:30.000Z</time>
      </trkpt>
      <trkpt lat="43.054262" lon="0.508848">
        <ele>474.8</ele>
        <time>1970-01-01T08:09:31.000Z</time>
      </trkpt>
      <trkpt lat="43.054338" lon="0.508869">
        <ele>474.2</ele>
        <time>1970-01-01T08:09:32.000Z</time>
      </trkpt>
      <trkpt lat="43.054502" lon="0.508781">
        <ele>472.8</ele>
        <time>1970-01-01T08:09:35.000Z</time>
      </trkpt>
      <trkpt lat="43.054825" lon="0.508822">
        <ele>471.6</ele>
        <time>1970-01-01T08:09:42.000Z</time>
      </trkpt>
      <trkpt lat="43.054996" lon="0.50897">
        <ele>470.6</ele>
        <time>1970-01-01T08:09:45.000Z</time>
      </trkpt>
      <trkpt lat="43.055245" lon="0.509275">
        <ele>469.8</ele>
        <time>1970-01-01T08:09:50.000Z</time>
      </trkpt>
      <trkpt lat="43.055569" lon="0.509583">
        <ele>471.8</ele>
        <time>1970-01-01T08:10:00.000Z</time>
      </trkpt>
      <trkpt lat="43.055695" lon="0.509707">
        <ele>472.8</ele>
        <time>1970-01-01T08:10:05.000Z</time>
      </trkpt>
      <trkpt lat="43.055803" lon="0.50976">
        <ele>474</ele>
        <time>1970-01-01T08:10:09.000Z</time>
      </trkpt>
      <trkpt lat="43.055848" lon="0.509769">
        <ele>474.2</ele>
        <time>1970-01-01T08:10:11.000Z</time>
      </trkpt>
      <trkpt lat="43.056004" lon="0.509857">
        <ele>475.2</ele>
        <time>1970-01-01T08:10:17.000Z</time>
      </trkpt>
      <trkpt lat="43.056289" lon="0.509965">
        <ele>476.2</ele>
        <time>1970-01-01T08:10:27.000Z</time>
      </trkpt>
      <trkpt lat="43.056506" lon="0.509927">
        <ele>477.2</ele>
        <time>1970-01-01T08:10:37.000Z</time>
      </trkpt>
      <trkpt lat="43.056598" lon="0.509849">
        <ele>478.2</ele>
        <time>1970-01-01T08:10:42.000Z</time>
      </trkpt>
      <trkpt lat="43.056723" lon="0.509748">
        <ele>479.4</ele>
        <time>1970-01-01T08:10:50.000Z</time>
      </trkpt>
      <trkpt lat="43.056854" lon="0.509665">
        <ele>480.6</ele>
        <time>1970-01-01T08:10:58.000Z</time>
      </trkpt>
      <trkpt lat="43.056923" lon="0.509661">
        <ele>480.8</ele>
        <time>1970-01-01T08:11:03.000Z</time>
      </trkpt>
      <trkpt lat="43.056957" lon="0.509693">
        <ele>481</ele>
        <time>1970-01-01T08:11:09.000Z</time>
      </trkpt>
      <trkpt lat="43.056948" lon="0.509642">
        <ele>480.8</ele>
        <time>1970-01-01T08:11:23.000Z</time>
      </trkpt>
      <trkpt lat="43.05689" lon="0.509626">
        <ele>481</ele>
        <time>1970-01-01T08:11:33.000Z</time>
      </trkpt>
      <trkpt lat="43.056801" lon="0.509709">
        <ele>480.4</ele>
        <time>1970-01-01T08:11:40.000Z</time>
      </trkpt>
      <trkpt lat="43.056797" lon="0.509738">
        <ele>480.4</ele>
        <time>1970-01-01T08:11:43.000Z</time>
      </trkpt>
      <trkpt lat="43.056817" lon="0.50982">
        <ele>480.4</ele>
        <time>1970-01-01T08:11:55.000Z</time>
      </trkpt>
      <trkpt lat="43.056819" lon="0.509861">
        <ele>480.2</ele>
        <time>1970-01-01T08:11:57.000Z</time>
      </trkpt>
      <trkpt lat="43.056784" lon="0.510036">
        <ele>479.6</ele>
        <time>1970-01-01T08:12:06.000Z</time>
      </trkpt>
      <trkpt lat="43.056787" lon="0.510061">
        <ele>479.4</ele>
        <time>1970-01-01T08:12:07.000Z</time>
      </trkpt>
      <trkpt lat="43.056866" lon="0.510203">
        <ele>479.8</ele>
        <time>1970-01-01T08:12:18.000Z</time>
      </trkpt>
      <trkpt lat="43.05681" lon="0.509667">
        <ele>481.6</ele>
        <time>1970-01-01T00:00:00.000Z</time>
      </trkpt>
      <trkpt lat="43.056824" lon="0.509656">
        <ele>483.2</ele>
        <time>1970-01-01T00:00:01.000Z</time>
      </trkpt>
      <trkpt lat="43.057285" lon="0.510046">
        <ele>482.6</ele>
        <time>1970-01-01T00:00:24.000Z</time>
      </trkpt>
      <trkpt lat="43.057357" lon="0.51015">
        <ele>482.2</ele>
        <time>1970-01-01T00:00:27.000Z</time>
      </trkpt>
      <trkpt lat="43.057752" lon="0.51072">
        <ele>481.6</ele>
        <time>1970-01-01T00:00:42.000Z</time>
      </trkpt>
      <trkpt lat="43.058151" lon="0.511242">
        <ele>481.8</ele>
        <time>1970-01-01T00:00:56.000Z</time>
      </trkpt>
      <trkpt lat="43.058526" lon="0.511847">
        <ele>482.2</ele>
        <time>1970-01-01T00:01:10.000Z</time>
      </trkpt>
      <trkpt lat="43.058912" lon="0.512351">
        <ele>481</ele>
        <time>1970-01-01T00:01:21.000Z</time>
      </trkpt>
      <trkpt lat="43.059365" lon="0.512802">
        <ele>480.6</ele>
        <time>1970-01-01T00:01:32.000Z</time>
      </trkpt>
      <trkpt lat="43.059519" lon="0.512933">
        <ele>480.6</ele>
        <time>1970-01-01T00:01:36.000Z</time>
      </trkpt>
      <trkpt lat="43.059958" lon="0.513081">
        <ele>480</ele>
        <time>1970-01-01T00:01:46.000Z</time>
      </trkpt>
      <trkpt lat="43.060527" lon="0.513204">
        <ele>480.6</ele>
        <time>1970-01-01T00:01:58.000Z</time>
      </trkpt>
      <trkpt lat="43.061054" lon="0.51345">
        <ele>480.8</ele>
        <time>1970-01-01T00:02:10.000Z</time>
      </trkpt>
      <trkpt lat="43.061544" lon="0.513777">
        <ele>481.2</ele>
        <time>1970-01-01T00:02:22.000Z</time>
      </trkpt>
      <trkpt lat="43.061855" lon="0.513912">
        <ele>481.2</ele>
        <time>1970-01-01T00:02:29.000Z</time>
      </trkpt>
      <trkpt lat="43.062397" lon="0.514118">
        <ele>480.8</ele>
        <time>1970-01-01T00:02:41.000Z</time>
      </trkpt>
      <trkpt lat="43.06293" lon="0.514474">
        <ele>479.4</ele>
        <time>1970-01-01T00:02:52.000Z</time>
      </trkpt>
      <trkpt lat="43.062978" lon="0.514522">
        <ele>479.2</ele>
        <time>1970-01-01T00:02:53.000Z</time>
      </trkpt>
      <trkpt lat="43.063235" lon="0.514862">
        <ele>478.4</ele>
        <time>1970-01-01T00:02:59.000Z</time>
      </trkpt>
      <trkpt lat="43.063536" lon="0.515486">
        <ele>477.6</ele>
        <time>1970-01-01T00:03:08.000Z</time>
      </trkpt>
      <trkpt lat="43.063833" lon="0.516146">
        <ele>477.4</ele>
        <time>1970-01-01T00:03:18.000Z</time>
      </trkpt>
      <trkpt lat="43.064295" lon="0.516639">
        <ele>478</ele>
        <time>1970-01-01T00:03:29.000Z</time>
      </trkpt>
      <trkpt lat="43.06451" lon="0.516837">
        <ele>478.4</ele>
        <time>1970-01-01T00:03:34.000Z</time>
      </trkpt>
      <trkpt lat="43.064912" lon="0.517336">
        <ele>478.6</ele>
        <time>1970-01-01T00:03:45.000Z</time>
      </trkpt>
      <trkpt lat="43.065118" lon="0.517624">
        <ele>478</ele>
        <time>1970-01-01T00:03:54.000Z</time>
      </trkpt>
      <trkpt lat="43.06516" lon="0.517665">
        <ele>477.4</ele>
        <time>1970-01-01T00:05:21.000Z</time>
      </trkpt>
      <trkpt lat="43.065551" lon="0.518175">
        <ele>477</ele>
        <time>1970-01-01T00:05:36.000Z</time>
      </trkpt>
      <trkpt lat="43.065815" lon="0.518539">
        <ele>476.6</ele>
        <time>1970-01-01T00:05:43.000Z</time>
      </trkpt>
      <trkpt lat="43.066011" lon="0.518761">
        <ele>475.4</ele>
        <time>1970-01-01T00:05:47.000Z</time>
      </trkpt>
      <trkpt lat="43.066192" lon="0.518924">
        <ele>474.4</ele>
        <time>1970-01-01T00:05:50.000Z</time>
      </trkpt>
      <trkpt lat="43.066311" lon="0.51903">
        <ele>473.2</ele>
        <time>1970-01-01T00:05:52.000Z</time>
      </trkpt>
      <trkpt lat="43.066451" lon="0.519104">
        <ele>472.2</ele>
        <time>1970-01-01T00:05:54.000Z</time>
      </trkpt>
      <trkpt lat="43.066607" lon="0.51912">
        <ele>470.8</ele>
        <time>1970-01-01T00:05:56.000Z</time>
      </trkpt>
      <trkpt lat="43.066756" lon="0.519068">
        <ele>469.6</ele>
        <time>1970-01-01T00:05:58.000Z</time>
      </trkpt>
      <trkpt lat="43.066827" lon="0.519033">
        <ele>469</ele>
        <time>1970-01-01T00:05:59.000Z</time>
      </trkpt>
      <trkpt lat="43.066898" lon="0.519007">
        <ele>468</ele>
        <time>1970-01-01T00:06:00.000Z</time>
      </trkpt>
      <trkpt lat="43.067041" lon="0.518987">
        <ele>466.6</ele>
        <time>1970-01-01T00:06:02.000Z</time>
      </trkpt>
      <trkpt lat="43.067324" lon="0.519121">
        <ele>465.6</ele>
        <time>1970-01-01T00:06:07.000Z</time>
      </trkpt>
      <trkpt lat="43.067355" lon="0.519158">
        <ele>465.6</ele>
        <time>1970-01-01T00:06:08.000Z</time>
      </trkpt>
      <trkpt lat="43.067574" lon="0.519366">
        <ele>465</ele>
        <time>1970-01-01T00:06:20.000Z</time>
      </trkpt>
      <trkpt lat="43.067497" lon="0.519292">
        <ele>464.8</ele>
        <time>1970-01-01T00:06:25.000Z</time>
      </trkpt>
      <trkpt lat="43.067165" lon="0.519047">
        <ele>464.8</ele>
        <time>1970-01-01T00:06:38.000Z</time>
      </trkpt>
      <trkpt lat="43.067148" lon="0.519085">
        <ele>464.6</ele>
        <time>1970-01-01T00:06:39.000Z</time>
      </trkpt>
      <trkpt lat="43.06714" lon="0.519268">
        <ele>463.6</ele>
        <time>1970-01-01T00:06:42.000Z</time>
      </trkpt>
      <trkpt lat="43.067148" lon="0.5195">
        <ele>462.2</ele>
        <time>1970-01-01T00:06:45.000Z</time>
      </trkpt>
      <trkpt lat="43.067157" lon="0.519671">
        <ele>461.2</ele>
        <time>1970-01-01T00:06:47.000Z</time>
      </trkpt>
      <trkpt lat="43.067162" lon="0.519855">
        <ele>460</ele>
        <time>1970-01-01T00:06:49.000Z</time>
      </trkpt>
      <trkpt lat="43.067155" lon="0.520054">
        <ele>458.6</ele>
        <time>1970-01-01T00:06:51.000Z</time>
      </trkpt>
      <trkpt lat="43.067141" lon="0.520263">
        <ele>457.2</ele>
        <time>1970-01-01T00:06:53.000Z</time>
      </trkpt>
      <trkpt lat="43.067129" lon="0.520478">
        <ele>456</ele>
        <time>1970-01-01T00:06:55.000Z</time>
      </trkpt>
      <trkpt lat="43.067113" lon="0.520674">
        <ele>454.8</ele>
        <time>1970-01-01T00:06:57.000Z</time>
      </trkpt>
      <trkpt lat="43.067099" lon="0.520749">
        <ele>454.6</ele>
        <time>1970-01-01T00:06:58.000Z</time>
      </trkpt>
      <trkpt lat="43.066944" lon="0.520863">
        <ele>454</ele>
        <time>1970-01-01T00:07:04.000Z</time>
      </trkpt>
      <trkpt lat="43.066625" lon="0.520921">
        <ele>453.8</ele>
        <time>1970-01-01T00:07:13.000Z</time>
      </trkpt>
      <trkpt lat="43.066553" lon="0.520995">
        <ele>453.8</ele>
        <time>1970-01-01T00:07:17.000Z</time>
      </trkpt>
      <trkpt lat="43.066572" lon="0.520925">
        <ele>453.6</ele>
        <time>1970-01-01T00:07:28.000Z</time>
      </trkpt>
      <trkpt lat="43.066078" lon="0.521265">
        <ele>454</ele>
        <time>1970-01-01T00:07:43.000Z</time>
      </trkpt>
      <trkpt lat="43.065555" lon="0.521541">
        <ele>454</ele>
        <time>1970-01-01T00:07:56.000Z</time>
      </trkpt>
      <trkpt lat="43.065008" lon="0.52178">
        <ele>454.4</ele>
        <time>1970-01-01T00:08:08.000Z</time>
      </trkpt>
      <trkpt lat="43.06473" lon="0.521981">
        <ele>455.2</ele>
        <time>1970-01-01T00:08:15.000Z</time>
      </trkpt>
      <trkpt lat="43.064499" lon="0.522193">
        <ele>456.2</ele>
        <time>1970-01-01T00:08:22.000Z</time>
      </trkpt>
      <trkpt lat="43.064015" lon="0.522623">
        <ele>456.8</ele>
        <time>1970-01-01T00:08:35.000Z</time>
      </trkpt>
      <trkpt lat="43.063834" lon="0.52273">
        <ele>457.4</ele>
        <time>1970-01-01T00:08:40.000Z</time>
      </trkpt>
      <trkpt lat="43.063557" lon="0.522841">
        <ele>458.6</ele>
        <time>1970-01-01T00:08:49.000Z</time>
      </trkpt>
      <trkpt lat="43.06337" lon="0.522928">
        <ele>459.6</ele>
        <time>1970-01-01T00:08:57.000Z</time>
      </trkpt>
      <trkpt lat="43.063226" lon="0.52303">
        <ele>460.8</ele>
        <time>1970-01-01T00:09:04.000Z</time>
      </trkpt>
      <trkpt lat="43.063116" lon="0.523109">
        <ele>462</ele>
        <time>1970-01-01T00:09:09.000Z</time>
      </trkpt>
      <trkpt lat="43.063" lon="0.523212">
        <ele>463</ele>
        <time>1970-01-01T00:09:14.000Z</time>
      </trkpt>
      <trkpt lat="43.062909" lon="0.523328">
        <ele>464.2</ele>
        <time>1970-01-01T00:09:19.000Z</time>
      </trkpt>
      <trkpt lat="43.062834" lon="0.523482">
        <ele>465.4</ele>
        <time>1970-01-01T00:09:24.000Z</time>
      </trkpt>
      <trkpt lat="43.062735" lon="0.523657">
        <ele>466.6</ele>
        <time>1970-01-01T00:09:30.000Z</time>
      </trkpt>
      <trkpt lat="43.062625" lon="0.523879">
        <ele>467.6</ele>
        <time>1970-01-01T00:09:37.000Z</time>
      </trkpt>
      <trkpt lat="43.062518" lon="0.52411">
        <ele>469</ele>
        <time>1970-01-01T00:09:44.000Z</time>
      </trkpt>
      <trkpt lat="43.062376" lon="0.524406">
        <ele>470</ele>
        <time>1970-01-01T00:09:53.000Z</time>
      </trkpt>
      <trkpt lat="43.062236" lon="0.524646">
        <ele>471.2</ele>
        <time>1970-01-01T00:10:01.000Z</time>
      </trkpt>
      <trkpt lat="43.06207" lon="0.52495">
        <ele>472.2</ele>
        <time>1970-01-01T00:10:10.000Z</time>
      </trkpt>
      <trkpt lat="43.06188" lon="0.525325">
        <ele>473.2</ele>
        <time>1970-01-01T00:10:21.000Z</time>
      </trkpt>
      <trkpt lat="43.061616" lon="0.52554">
        <ele>474.6</ele>
        <time>1970-01-01T00:10:32.000Z</time>
      </trkpt>
      <trkpt lat="43.061357" lon="0.525557">
        <ele>475.8</ele>
        <time>1970-01-01T00:10:42.000Z</time>
      </trkpt>
      <trkpt lat="43.061286" lon="0.52562">
        <ele>476.6</ele>
        <time>1970-01-01T00:10:46.000Z</time>
      </trkpt>
      <trkpt lat="43.061261" lon="0.525716">
        <ele>477</ele>
        <time>1970-01-01T00:10:49.000Z</time>
      </trkpt>
      <trkpt lat="43.061234" lon="0.525895">
        <ele>478.2</ele>
        <time>1970-01-01T00:10:55.000Z</time>
      </trkpt>
      <trkpt lat="43.061206" lon="0.526037">
        <ele>479.2</ele>
        <time>1970-01-01T00:11:00.000Z</time>
      </trkpt>
      <trkpt lat="43.061171" lon="0.526173">
        <ele>480.4</ele>
        <time>1970-01-01T00:11:06.000Z</time>
      </trkpt>
      <trkpt lat="43.061163" lon="0.526196">
        <ele>480.6</ele>
        <time>1970-01-01T00:11:07.000Z</time>
      </trkpt>
      <trkpt lat="43.061108" lon="0.526299">
        <ele>481.6</ele>
        <time>1970-01-01T00:11:12.000Z</time>
      </trkpt>
      <trkpt lat="43.061036" lon="0.526437">
        <ele>482.8</ele>
        <time>1970-01-01T00:11:17.000Z</time>
      </trkpt>
      <trkpt lat="43.060976" lon="0.526548">
        <ele>484</ele>
        <time>1970-01-01T00:11:22.000Z</time>
      </trkpt>
      <trkpt lat="43.06092" lon="0.526648">
        <ele>485</ele>
        <time>1970-01-01T00:11:27.000Z</time>
      </trkpt>
      <trkpt lat="43.060866" lon="0.526744">
        <ele>486.2</ele>
        <time>1970-01-01T00:11:31.000Z</time>
      </trkpt>
      <trkpt lat="43.060813" lon="0.52683">
        <ele>487.4</ele>
        <time>1970-01-01T00:11:35.000Z</time>
      </trkpt>
      <trkpt lat="43.060752" lon="0.526929">
        <ele>488.6</ele>
        <time>1970-01-01T00:11:40.000Z</time>
      </trkpt>
      <trkpt lat="43.060708" lon="0.527026">
        <ele>489.8</ele>
        <time>1970-01-01T00:11:44.000Z</time>
      </trkpt>
      <trkpt lat="43.060666" lon="0.527122">
        <ele>490.8</ele>
        <time>1970-01-01T00:11:48.000Z</time>
      </trkpt>
      <trkpt lat="43.060622" lon="0.527234">
        <ele>491.8</ele>
        <time>1970-01-01T00:11:52.000Z</time>
      </trkpt>
      <trkpt lat="43.060582" lon="0.52734">
        <ele>492.8</ele>
        <time>1970-01-01T00:11:56.000Z</time>
      </trkpt>
      <trkpt lat="43.060549" lon="0.527464">
        <ele>493.8</ele>
        <time>1970-01-01T00:12:00.000Z</time>
      </trkpt>
      <trkpt lat="43.060512" lon="0.527632">
        <ele>494.6</ele>
        <time>1970-01-01T00:12:05.000Z</time>
      </trkpt>
      <trkpt lat="43.060501" lon="0.527667">
        <ele>495</ele>
        <time>1970-01-01T00:12:06.000Z</time>
      </trkpt>
      <trkpt lat="43.060473" lon="0.527784">
        <ele>495.8</ele>
        <time>1970-01-01T00:12:10.000Z</time>
      </trkpt>
      <trkpt lat="43.060418" lon="0.528008">
        <ele>497</ele>
        <time>1970-01-01T00:12:18.000Z</time>
      </trkpt>
      <trkpt lat="43.060388" lon="0.528134">
        <ele>498</ele>
        <time>1970-01-01T00:12:23.000Z</time>
      </trkpt>
      <trkpt lat="43.060337" lon="0.528279">
        <ele>499.2</ele>
        <time>1970-01-01T00:12:29.000Z</time>
      </trkpt>
      <trkpt lat="43.060264" lon="0.528423">
        <ele>500.2</ele>
        <time>1970-01-01T00:12:35.000Z</time>
      </trkpt>
      <trkpt lat="43.060183" lon="0.528555">
        <ele>501.2</ele>
        <time>1970-01-01T00:12:41.000Z</time>
      </trkpt>
      <trkpt lat="43.060089" lon="0.528716">
        <ele>502.4</ele>
        <time>1970-01-01T00:12:49.000Z</time>
      </trkpt>
      <trkpt lat="43.06002" lon="0.528875">
        <ele>503.2</ele>
        <time>1970-01-01T00:12:57.000Z</time>
      </trkpt>
      <trkpt lat="43.060022" lon="0.528901">
        <ele>503.4</ele>
        <time>1970-01-01T00:12:58.000Z</time>
      </trkpt>
      <trkpt lat="43.060034" lon="0.529147">
        <ele>504.4</ele>
        <time>1970-01-01T00:13:07.000Z</time>
      </trkpt>
      <trkpt lat="43.060081" lon="0.52938">
        <ele>505.8</ele>
        <time>1970-01-01T00:13:16.000Z</time>
      </trkpt>
      <trkpt lat="43.060151" lon="0.529732">
        <ele>506.8</ele>
        <time>1970-01-01T00:13:28.000Z</time>
      </trkpt>
      <trkpt lat="43.060049" lon="0.530255">
        <ele>507.8</ele>
        <time>1970-01-01T00:13:45.000Z</time>
      </trkpt>
      <trkpt lat="43.059536" lon="0.530521">
        <ele>508.6</ele>
        <time>1970-01-01T00:14:06.000Z</time>
      </trkpt>
      <trkpt lat="43.059475" lon="0.530545">
        <ele>509</ele>
        <time>1970-01-01T00:14:08.000Z</time>
      </trkpt>
      <trkpt lat="43.059023" lon="0.530743">
        <ele>510</ele>
        <time>1970-01-01T00:14:23.000Z</time>
      </trkpt>
      <trkpt lat="43.058956" lon="0.530813">
        <ele>510.4</ele>
        <time>1970-01-01T00:14:26.000Z</time>
      </trkpt>
      <trkpt lat="43.059065" lon="0.531066">
        <ele>510</ele>
        <time>1970-01-01T00:14:35.000Z</time>
      </trkpt>
      <trkpt lat="43.059099" lon="0.531108">
        <ele>509.8</ele>
        <time>1970-01-01T00:14:38.000Z</time>
      </trkpt>
      <trkpt lat="43.059093" lon="0.531065">
        <ele>509.8</ele>
        <time>1970-01-01T00:14:43.000Z</time>
      </trkpt>
      <trkpt lat="43.059027" lon="0.530972">
        <ele>509.8</ele>
        <time>1970-01-01T00:14:48.000Z</time>
      </trkpt>
      <trkpt lat="43.059008" lon="0.531103">
        <ele>510.2</ele>
        <time>1970-01-01T00:14:57.000Z</time>
      </trkpt>
      <trkpt lat="43.058986" lon="0.531401">
        <ele>510.8</ele>
        <time>1970-01-01T00:15:14.000Z</time>
      </trkpt>
      <trkpt lat="43.058974" lon="0.531492">
        <ele>510.8</ele>
        <time>1970-01-01T00:15:18.000Z</time>
      </trkpt>
      <trkpt lat="43.058848" lon="0.53224">
        <ele>509.8</ele>
        <time>1970-01-01T00:15:37.000Z</time>
      </trkpt>
      <trkpt lat="43.05883" lon="0.532387">
        <ele>509.6</ele>
        <time>1970-01-01T00:15:40.000Z</time>
      </trkpt>
      <trkpt lat="43.058772" lon="0.533116">
        <ele>509.2</ele>
        <time>1970-01-01T00:15:54.000Z</time>
      </trkpt>
      <trkpt lat="43.058818" lon="0.533863">
        <ele>510.4</ele>
        <time>1970-01-01T00:16:12.000Z</time>
      </trkpt>
      <trkpt lat="43.058773" lon="0.534409">
        <ele>511</ele>
        <time>1970-01-01T00:16:25.000Z</time>
      </trkpt>
      <trkpt lat="43.058671" lon="0.534808">
        <ele>512.2</ele>
        <time>1970-01-01T00:16:34.000Z</time>
      </trkpt>
      <trkpt lat="43.058612" lon="0.535041">
        <ele>513.4</ele>
        <time>1970-01-01T00:16:40.000Z</time>
      </trkpt>
      <trkpt lat="43.058557" lon="0.535288">
        <ele>514.4</ele>
        <time>1970-01-01T00:16:47.000Z</time>
      </trkpt>
      <trkpt lat="43.05855" lon="0.535482">
        <ele>514.8</ele>
        <time>1970-01-01T00:16:55.000Z</time>
      </trkpt>
      <trkpt lat="43.05862" lon="0.535573">
        <ele>514.4</ele>
        <time>1970-01-01T00:17:04.000Z</time>
      </trkpt>
      <trkpt lat="43.058671" lon="0.535631">
        <ele>514.2</ele>
        <time>1970-01-01T00:17:27.000Z</time>
      </trkpt>
      <trkpt lat="43.058844" lon="0.535865">
        <ele>515.8</ele>
        <time>1970-01-01T00:17:37.000Z</time>
      </trkpt>
      <trkpt lat="43.058907" lon="0.53593">
        <ele>517</ele>
        <time>1970-01-01T00:17:41.000Z</time>
      </trkpt>
      <trkpt lat="43.058976" lon="0.536003">
        <ele>518.2</ele>
        <time>1970-01-01T00:17:46.000Z</time>
      </trkpt>
      <trkpt lat="43.059069" lon="0.536061">
        <ele>519.4</ele>
        <time>1970-01-01T00:17:51.000Z</time>
      </trkpt>
      <trkpt lat="43.059137" lon="0.536138">
        <ele>520.6</ele>
        <time>1970-01-01T00:17:56.000Z</time>
      </trkpt>
      <trkpt lat="43.059088" lon="0.536207">
        <ele>521.6</ele>
        <time>1970-01-01T00:18:02.000Z</time>
      </trkpt>
      <trkpt lat="43.05906" lon="0.536236">
        <ele>521.8</ele>
        <time>1970-01-01T00:18:04.000Z</time>
      </trkpt>
      <trkpt lat="43.05897" lon="0.536334">
        <ele>522.8</ele>
        <time>1970-01-01T00:18:11.000Z</time>
      </trkpt>
      <trkpt lat="43.058826" lon="0.536526">
        <ele>522</ele>
        <time>1970-01-01T00:18:21.000Z</time>
      </trkpt>
      <trkpt lat="43.058813" lon="0.536545">
        <ele>524.4</ele>
        <time>1970-01-01T00:18:22.000Z</time>
      </trkpt>
      <trkpt lat="43.058803" lon="0.536569">
        <ele>525.8</ele>
        <time>1970-01-01T00:18:23.000Z</time>
      </trkpt>
      <trkpt lat="43.058572" lon="0.536826">
        <ele>527</ele>
        <time>1970-01-01T00:18:35.000Z</time>
      </trkpt>
      <trkpt lat="43.058446" lon="0.536979">
        <ele>528.2</ele>
        <time>1970-01-01T00:18:42.000Z</time>
      </trkpt>
      <trkpt lat="43.058351" lon="0.537116">
        <ele>529.4</ele>
        <time>1970-01-01T00:18:48.000Z</time>
      </trkpt>
      <trkpt lat="43.058202" lon="0.537285">
        <ele>530.4</ele>
        <time>1970-01-01T00:18:56.000Z</time>
      </trkpt>
      <trkpt lat="43.058044" lon="0.537437">
        <ele>531.4</ele>
        <time>1970-01-01T00:19:04.000Z</time>
      </trkpt>
      <trkpt lat="43.057919" lon="0.537509">
        <ele>532.6</ele>
        <time>1970-01-01T00:19:10.000Z</time>
      </trkpt>
      <trkpt lat="43.057828" lon="0.537526">
        <ele>533.6</ele>
        <time>1970-01-01T00:19:15.000Z</time>
      </trkpt>
      <trkpt lat="43.057722" lon="0.537518">
        <ele>534.6</ele>
        <time>1970-01-01T00:19:20.000Z</time>
      </trkpt>
      <trkpt lat="43.057627" lon="0.537482">
        <ele>535.6</ele>
        <time>1970-01-01T00:19:24.000Z</time>
      </trkpt>
      <trkpt lat="43.057486" lon="0.537413">
        <ele>536.8</ele>
        <time>1970-01-01T00:19:30.000Z</time>
      </trkpt>
      <trkpt lat="43.057372" lon="0.537333">
        <ele>538</ele>
        <time>1970-01-01T00:19:36.000Z</time>
      </trkpt>
      <trkpt lat="43.057264" lon="0.537247">
        <ele>539</ele>
        <time>1970-01-01T00:19:42.000Z</time>
      </trkpt>
      <trkpt lat="43.057249" lon="0.537226">
        <ele>539.2</ele>
        <time>1970-01-01T00:19:43.000Z</time>
      </trkpt>
      <trkpt lat="43.057163" lon="0.5371">
        <ele>540.2</ele>
        <time>1970-01-01T00:19:48.000Z</time>
      </trkpt>
      <trkpt lat="43.057037" lon="0.536933">
        <ele>541.4</ele>
        <time>1970-01-01T00:19:55.000Z</time>
      </trkpt>
      <trkpt lat="43.056926" lon="0.536803">
        <ele>542.4</ele>
        <time>1970-01-01T00:20:01.000Z</time>
      </trkpt>
      <trkpt lat="43.05679" lon="0.536659">
        <ele>543.6</ele>
        <time>1970-01-01T00:20:09.000Z</time>
      </trkpt>
      <trkpt lat="43.056691" lon="0.536559">
        <ele>544.6</ele>
        <time>1970-01-01T00:20:15.000Z</time>
      </trkpt>
      <trkpt lat="43.056562" lon="0.536473">
        <ele>545.6</ele>
        <time>1970-01-01T00:20:21.000Z</time>
      </trkpt>
      <trkpt lat="43.056422" lon="0.536372">
        <ele>546.8</ele>
        <time>1970-01-01T00:20:27.000Z</time>
      </trkpt>
      <trkpt lat="43.056289" lon="0.536322">
        <ele>548</ele>
        <time>1970-01-01T00:20:33.000Z</time>
      </trkpt>
      <trkpt lat="43.056164" lon="0.536305">
        <ele>549.2</ele>
        <time>1970-01-01T00:20:39.000Z</time>
      </trkpt>
      <trkpt lat="43.056018" lon="0.536284">
        <ele>550.4</ele>
        <time>1970-01-01T00:20:47.000Z</time>
      </trkpt>
      <trkpt lat="43.055887" lon="0.536232">
        <ele>551.4</ele>
        <time>1970-01-01T00:20:54.000Z</time>
      </trkpt>
      <trkpt lat="43.055721" lon="0.536208">
        <ele>552.6</ele>
        <time>1970-01-01T00:21:02.000Z</time>
      </trkpt>
      <trkpt lat="43.05559" lon="0.53622">
        <ele>553.6</ele>
        <time>1970-01-01T00:21:09.000Z</time>
      </trkpt>
      <trkpt lat="43.055412" lon="0.536258">
        <ele>554.8</ele>
        <time>1970-01-01T00:21:23.000Z</time>
      </trkpt>
      <trkpt lat="43.055405" lon="0.536263">
        <ele>555.2</ele>
        <time>1970-01-01T00:21:25.000Z</time>
      </trkpt>
      <trkpt lat="43.054718" lon="0.53726">
        <ele>570.8</ele>
        <time>1970-01-01T00:27:29.000Z</time>
      </trkpt>
      <trkpt lat="43.054688" lon="0.537336">
        <ele>571</ele>
        <time>1970-01-01T00:27:33.000Z</time>
      </trkpt>
      <trkpt lat="43.054608" lon="0.537563">
        <ele>572</ele>
        <time>1970-01-01T00:27:45.000Z</time>
      </trkpt>
      <trkpt lat="43.054574" lon="0.53773">
        <ele>573</ele>
        <time>1970-01-01T00:27:54.000Z</time>
      </trkpt>
      <trkpt lat="43.054572" lon="0.537954">
        <ele>574.4</ele>
        <time>1970-01-01T00:28:07.000Z</time>
      </trkpt>
      <trkpt lat="43.054558" lon="0.538027">
        <ele>574.6</ele>
        <time>1970-01-01T00:28:14.000Z</time>
      </trkpt>
      <trkpt lat="43.054559" lon="0.538218">
        <ele>573.6</ele>
        <time>1970-01-01T00:29:57.000Z</time>
      </trkpt>
      <trkpt lat="43.054578" lon="0.538445">
        <ele>568.8</ele>
        <time>1970-01-01T00:30:06.000Z</time>
      </trkpt>
      <trkpt lat="43.054572" lon="0.538565">
        <ele>571.4</ele>
        <time>1970-01-01T00:30:10.000Z</time>
      </trkpt>
      <trkpt lat="43.054572" lon="0.538666">
        <ele>570.4</ele>
        <time>1970-01-01T00:30:14.000Z</time>
      </trkpt>
      <trkpt lat="43.054561" lon="0.538757">
        <ele>569.6</ele>
        <time>1970-01-01T00:30:17.000Z</time>
      </trkpt>
      <trkpt lat="43.054552" lon="0.538783">
        <ele>569.2</ele>
        <time>1970-01-01T00:30:18.000Z</time>
      </trkpt>
      <trkpt lat="43.054516" lon="0.538905">
        <ele>567.8</ele>
        <time>1970-01-01T00:30:21.000Z</time>
      </trkpt>
      <trkpt lat="43.054506" lon="0.539098">
        <ele>566.6</ele>
        <time>1970-01-01T00:30:25.000Z</time>
      </trkpt>
      <trkpt lat="43.054529" lon="0.539191">
        <ele>565.6</ele>
        <time>1970-01-01T00:30:28.000Z</time>
      </trkpt>
      <trkpt lat="43.054538" lon="0.539255">
        <ele>564.6</ele>
        <time>1970-01-01T00:30:31.000Z</time>
      </trkpt>
      <trkpt lat="43.054523" lon="0.539372">
        <ele>563.2</ele>
        <time>1970-01-01T00:30:35.000Z</time>
      </trkpt>
      <trkpt lat="43.054504" lon="0.539415">
        <ele>562.8</ele>
        <time>1970-01-01T00:30:37.000Z</time>
      </trkpt>
      <trkpt lat="43.054482" lon="0.539458">
        <ele>562.2</ele>
        <time>1970-01-01T00:30:39.000Z</time>
      </trkpt>
      <trkpt lat="43.054464" lon="0.539561">
        <ele>561</ele>
        <time>1970-01-01T00:30:42.000Z</time>
      </trkpt>
      <trkpt lat="43.054451" lon="0.539649">
        <ele>559.8</ele>
        <time>1970-01-01T00:30:44.000Z</time>
      </trkpt>
      <trkpt lat="43.054445" lon="0.539783">
        <ele>558.4</ele>
        <time>1970-01-01T00:30:47.000Z</time>
      </trkpt>
      <trkpt lat="43.054451" lon="0.539879">
        <ele>556.4</ele>
        <time>1970-01-01T00:30:49.000Z</time>
      </trkpt>
      <trkpt lat="43.054452" lon="0.53998">
        <ele>555</ele>
        <time>1970-01-01T00:30:51.000Z</time>
      </trkpt>
      <trkpt lat="43.054436" lon="0.540078">
        <ele>553.2</ele>
        <time>1970-01-01T00:30:53.000Z</time>
      </trkpt>
      <trkpt lat="43.05442" lon="0.540132">
        <ele>552.2</ele>
        <time>1970-01-01T00:30:54.000Z</time>
      </trkpt>
      <trkpt lat="43.054375" lon="0.540266">
        <ele>550.4</ele>
        <time>1970-01-01T00:30:56.000Z</time>
      </trkpt>
      <trkpt lat="43.054345" lon="0.540338">
        <ele>549.6</ele>
        <time>1970-01-01T00:30:57.000Z</time>
      </trkpt>
      <trkpt lat="43.054308" lon="0.540411">
        <ele>549</ele>
        <time>1970-01-01T00:30:58.000Z</time>
      </trkpt>
      <trkpt lat="43.054211" lon="0.540621">
        <ele>547.6</ele>
        <time>1970-01-01T00:31:01.000Z</time>
      </trkpt>
      <trkpt lat="43.054174" lon="0.540723">
        <ele>546.2</ele>
        <time>1970-01-01T00:31:03.000Z</time>
      </trkpt>
      <trkpt lat="43.054164" lon="0.540778">
        <ele>544.6</ele>
        <time>1970-01-01T00:31:05.000Z</time>
      </trkpt>
      <trkpt lat="43.054178" lon="0.540816">
        <ele>543.6</ele>
        <time>1970-01-01T00:31:09.000Z</time>
      </trkpt>
      <trkpt lat="43.054191" lon="0.5409">
        <ele>542.4</ele>
        <time>1970-01-01T00:31:42.000Z</time>
      </trkpt>
      <trkpt lat="43.054208" lon="0.540945">
        <ele>541.8</ele>
        <time>1970-01-01T00:31:44.000Z</time>
      </trkpt>
      <trkpt lat="43.054158" lon="0.541032">
        <ele>541.8</ele>
        <time>1970-01-01T00:31:49.000Z</time>
      </trkpt>
      <trkpt lat="43.054021" lon="0.541138">
        <ele>540.6</ele>
        <time>1970-01-01T00:31:55.000Z</time>
      </trkpt>
      <trkpt lat="43.053933" lon="0.54125">
        <ele>539.2</ele>
        <time>1970-01-01T00:31:58.000Z</time>
      </trkpt>
      <trkpt lat="43.053859" lon="0.54135">
        <ele>537.8</ele>
        <time>1970-01-01T00:32:00.000Z</time>
      </trkpt>
      <trkpt lat="43.053776" lon="0.541452">
        <ele>536.6</ele>
        <time>1970-01-01T00:32:02.000Z</time>
      </trkpt>
      <trkpt lat="43.053685" lon="0.541561">
        <ele>535.6</ele>
        <time>1970-01-01T00:32:04.000Z</time>
      </trkpt>
      <trkpt lat="43.053647" lon="0.541625">
        <ele>535</ele>
        <time>1970-01-01T00:32:05.000Z</time>
      </trkpt>
      <trkpt lat="43.053592" lon="0.541736">
        <ele>533.6</ele>
        <time>1970-01-01T00:32:07.000Z</time>
      </trkpt>
      <trkpt lat="43.053544" lon="0.541806">
        <ele>532.4</ele>
        <time>1970-01-01T00:32:09.000Z</time>
      </trkpt>
      <trkpt lat="43.05351" lon="0.541807">
        <ele>531</ele>
        <time>1970-01-01T00:32:11.000Z</time>
      </trkpt>
      <trkpt lat="43.053514" lon="0.541749">
        <ele>529.8</ele>
        <time>1970-01-01T00:32:14.000Z</time>
      </trkpt>
      <trkpt lat="43.053516" lon="0.541697">
        <ele>528.2</ele>
        <time>1970-01-01T00:32:16.000Z</time>
      </trkpt>
      <trkpt lat="43.05348" lon="0.541677">
        <ele>527</ele>
        <time>1970-01-01T00:32:18.000Z</time>
      </trkpt>
      <trkpt lat="43.053438" lon="0.541678">
        <ele>526.2</ele>
        <time>1970-01-01T00:32:20.000Z</time>
      </trkpt>
      <trkpt lat="43.05341" lon="0.541679">
        <ele>526</ele>
        <time>1970-01-01T00:32:21.000Z</time>
      </trkpt>
      <trkpt lat="43.053351" lon="0.541666">
        <ele>525</ele>
        <time>1970-01-01T00:32:23.000Z</time>
      </trkpt>
      <trkpt lat="43.053322" lon="0.541641">
        <ele>524.6</ele>
        <time>1970-01-01T00:32:24.000Z</time>
      </trkpt>
      <trkpt lat="43.053224" lon="0.541537">
        <ele>523.2</ele>
        <time>1970-01-01T00:32:27.000Z</time>
      </trkpt>
      <trkpt lat="43.053189" lon="0.541512">
        <ele>522.8</ele>
        <time>1970-01-01T00:32:28.000Z</time>
      </trkpt>
      <trkpt lat="43.053144" lon="0.5415">
        <ele>522.2</ele>
        <time>1970-01-01T00:32:29.000Z</time>
      </trkpt>
      <trkpt lat="43.052999" lon="0.541492">
        <ele>521.2</ele>
        <time>1970-01-01T00:32:32.000Z</time>
      </trkpt>
      <trkpt lat="43.052882" lon="0.541547">
        <ele>520</ele>
        <time>1970-01-01T00:32:35.000Z</time>
      </trkpt>
      <trkpt lat="43.052836" lon="0.541573">
        <ele>519.2</ele>
        <time>1970-01-01T00:32:36.000Z</time>
      </trkpt>
      <trkpt lat="43.052734" lon="0.541639">
        <ele>518.6</ele>
        <time>1970-01-01T00:32:38.000Z</time>
      </trkpt>
      <trkpt lat="43.052573" lon="0.541739">
        <ele>517.2</ele>
        <time>1970-01-01T00:32:41.000Z</time>
      </trkpt>
      <trkpt lat="43.05252" lon="0.541764">
        <ele>516.8</ele>
        <time>1970-01-01T00:32:42.000Z</time>
      </trkpt>
      <trkpt lat="43.052435" lon="0.541798">
        <ele>516</ele>
        <time>1970-01-01T00:32:44.000Z</time>
      </trkpt>
      <trkpt lat="43.052318" lon="0.541832">
        <ele>514.8</ele>
        <time>1970-01-01T00:32:47.000Z</time>
      </trkpt>
      <trkpt lat="43.052249" lon="0.541834">
        <ele>513.8</ele>
        <time>1970-01-01T00:32:49.000Z</time>
      </trkpt>
      <trkpt lat="43.052184" lon="0.541831">
        <ele>512.8</ele>
        <time>1970-01-01T00:32:51.000Z</time>
      </trkpt>
      <trkpt lat="43.052044" lon="0.541801">
        <ele>511.4</ele>
        <time>1970-01-01T00:32:55.000Z</time>
      </trkpt>
      <trkpt lat="43.052003" lon="0.541794">
        <ele>511.2</ele>
        <time>1970-01-01T00:32:56.000Z</time>
      </trkpt>
      <trkpt lat="43.051917" lon="0.541776">
        <ele>510.4</ele>
        <time>1970-01-01T00:32:58.000Z</time>
      </trkpt>
      <trkpt lat="43.051835" lon="0.541757">
        <ele>509</ele>
        <time>1970-01-01T00:33:00.000Z</time>
      </trkpt>
      <trkpt lat="43.051698" lon="0.541732">
        <ele>507.4</ele>
        <time>1970-01-01T00:33:03.000Z</time>
      </trkpt>
      <trkpt lat="43.051605" lon="0.541747">
        <ele>506.2</ele>
        <time>1970-01-01T00:33:05.000Z</time>
      </trkpt>
      <trkpt lat="43.05155" lon="0.541751">
        <ele>505.8</ele>
        <time>1970-01-01T00:33:06.000Z</time>
      </trkpt>
      <trkpt lat="43.051498" lon="0.541754">
        <ele>504.8</ele>
        <time>1970-01-01T00:33:07.000Z</time>
      </trkpt>
      <trkpt lat="43.051416" lon="0.541765">
        <ele>503.4</ele>
        <time>1970-01-01T00:33:09.000Z</time>
      </trkpt>
      <trkpt lat="43.05135" lon="0.541814">
        <ele>502.2</ele>
        <time>1970-01-01T00:33:11.000Z</time>
      </trkpt>
      <trkpt lat="43.051272" lon="0.541884">
        <ele>501</ele>
        <time>1970-01-01T00:33:13.000Z</time>
      </trkpt>
      <trkpt lat="43.051172" lon="0.541928">
        <ele>499.8</ele>
        <time>1970-01-01T00:33:15.000Z</time>
      </trkpt>
      <trkpt lat="43.051055" lon="0.541948">
        <ele>498.6</ele>
        <time>1970-01-01T00:33:17.000Z</time>
      </trkpt>
      <trkpt lat="43.051005" lon="0.54196">
        <ele>498</ele>
        <time>1970-01-01T00:33:18.000Z</time>
      </trkpt>
      <trkpt lat="43.050962" lon="0.541983">
        <ele>497.4</ele>
        <time>1970-01-01T00:33:19.000Z</time>
      </trkpt>
      <trkpt lat="43.050887" lon="0.54207">
        <ele>496.2</ele>
        <time>1970-01-01T00:33:21.000Z</time>
      </trkpt>
      <trkpt lat="43.050796" lon="0.542181">
        <ele>494.6</ele>
        <time>1970-01-01T00:33:23.000Z</time>
      </trkpt>
      <trkpt lat="43.050692" lon="0.542276">
        <ele>493.2</ele>
        <time>1970-01-01T00:33:25.000Z</time>
      </trkpt>
      <trkpt lat="43.050592" lon="0.542366">
        <ele>491.8</ele>
        <time>1970-01-01T00:33:27.000Z</time>
      </trkpt>
      <trkpt lat="43.05048" lon="0.542452">
        <ele>490.6</ele>
        <time>1970-01-01T00:33:30.000Z</time>
      </trkpt>
      <trkpt lat="43.050321" lon="0.542606">
        <ele>489.6</ele>
        <time>1970-01-01T00:33:36.000Z</time>
      </trkpt>
      <trkpt lat="43.050252" lon="0.542674">
        <ele>489.4</ele>
        <time>1970-01-01T00:33:38.000Z</time>
      </trkpt>
      <trkpt lat="43.050133" lon="0.542825">
        <ele>488.6</ele>
        <time>1970-01-01T00:33:42.000Z</time>
      </trkpt>
      <trkpt lat="43.050015" lon="0.54287">
        <ele>488.6</ele>
        <time>1970-01-01T00:33:47.000Z</time>
      </trkpt>
      <trkpt lat="43.049982" lon="0.542842">
        <ele>488.8</ele>
        <time>1970-01-01T00:33:51.000Z</time>
      </trkpt>
      <trkpt lat="43.050025" lon="0.542868">
        <ele>488.8</ele>
        <time>1970-01-01T00:34:01.000Z</time>
      </trkpt>
      <trkpt lat="43.050298" lon="0.543057">
        <ele>487.4</ele>
        <time>1970-01-01T00:34:10.000Z</time>
      </trkpt>
      <trkpt lat="43.050449" lon="0.543188">
        <ele>486.4</ele>
        <time>1970-01-01T00:34:14.000Z</time>
      </trkpt>
      <trkpt lat="43.050598" lon="0.54335">
        <ele>485.4</ele>
        <time>1970-01-01T00:34:19.000Z</time>
      </trkpt>
      <trkpt lat="43.050666" lon="0.543419">
        <ele>484.6</ele>
        <time>1970-01-01T00:34:24.000Z</time>
      </trkpt>
      <trkpt lat="43.050637" lon="0.543358">
        <ele>484.6</ele>
        <time>1970-01-01T00:34:29.000Z</time>
      </trkpt>
      <trkpt lat="43.050364" lon="0.54307">
        <ele>486.4</ele>
        <time>1970-01-01T00:34:44.000Z</time>
      </trkpt>
      <trkpt lat="43.050223" lon="0.542954">
        <ele>487.4</ele>
        <time>1970-01-01T00:34:51.000Z</time>
      </trkpt>
      <trkpt lat="43.050012" lon="0.542834">
        <ele>488.4</ele>
        <time>1970-01-01T00:35:00.000Z</time>
      </trkpt>
      <trkpt lat="43.04977" lon="0.54281">
        <ele>489.6</ele>
        <time>1970-01-01T00:35:09.000Z</time>
      </trkpt>
      <trkpt lat="43.049449" lon="0.542835">
        <ele>490.8</ele>
        <time>1970-01-01T00:35:21.000Z</time>
      </trkpt>
      <trkpt lat="43.049124" lon="0.542874">
        <ele>491.8</ele>
        <time>1970-01-01T00:35:33.000Z</time>
      </trkpt>
      <trkpt lat="43.048855" lon="0.542917">
        <ele>493</ele>
        <time>1970-01-01T00:35:43.000Z</time>
      </trkpt>
      <trkpt lat="43.048534" lon="0.542948">
        <ele>494.2</ele>
        <time>1970-01-01T00:35:54.000Z</time>
      </trkpt>
      <trkpt lat="43.048143" lon="0.543001">
        <ele>495.2</ele>
        <time>1970-01-01T00:36:08.000Z</time>
      </trkpt>
      <trkpt lat="43.047961" lon="0.543002">
        <ele>496.4</ele>
        <time>1970-01-01T00:36:17.000Z</time>
      </trkpt>
      <trkpt lat="43.047954" lon="0.542997">
        <ele>496.6</ele>
        <time>1970-01-01T00:36:19.000Z</time>
      </trkpt>
      <trkpt lat="43.047869" lon="0.54305">
        <ele>497.4</ele>
        <time>1970-01-01T00:37:52.000Z</time>
      </trkpt>
      <trkpt lat="43.047819" lon="0.543188">
        <ele>497.2</ele>
        <time>1970-01-01T00:37:57.000Z</time>
      </trkpt>
      <trkpt lat="43.047646" lon="0.543468">
        <ele>496.6</ele>
        <time>1970-01-01T00:38:05.000Z</time>
      </trkpt>
      <trkpt lat="43.047617" lon="0.54351">
        <ele>496.4</ele>
        <time>1970-01-01T00:38:06.000Z</time>
      </trkpt>
      <trkpt lat="43.047591" lon="0.543554">
        <ele>496.2</ele>
        <time>1970-01-01T00:38:07.000Z</time>
      </trkpt>
      <trkpt lat="43.04747" lon="0.543759">
        <ele>495.2</ele>
        <time>1970-01-01T00:38:11.000Z</time>
      </trkpt>
      <trkpt lat="43.047285" lon="0.544114">
        <ele>494</ele>
        <time>1970-01-01T00:38:17.000Z</time>
      </trkpt>
      <trkpt lat="43.047124" lon="0.544486">
        <ele>493</ele>
        <time>1970-01-01T00:38:22.000Z</time>
      </trkpt>
      <trkpt lat="43.047085" lon="0.544555">
        <ele>492.6</ele>
        <time>1970-01-01T00:38:23.000Z</time>
      </trkpt>
      <trkpt lat="43.046905" lon="0.54474">
        <ele>491.8</ele>
        <time>1970-01-01T00:38:27.000Z</time>
      </trkpt>
      <trkpt lat="43.046769" lon="0.544801">
        <ele>491.6</ele>
        <time>1970-01-01T00:38:30.000Z</time>
      </trkpt>
      <trkpt lat="43.046646" lon="0.544871">
        <ele>491.8</ele>
        <time>1970-01-01T00:38:33.000Z</time>
      </trkpt>
      <trkpt lat="43.046164" lon="0.545305">
        <ele>492.4</ele>
        <time>1970-01-01T00:38:46.000Z</time>
      </trkpt>
      <trkpt lat="43.045894" lon="0.545575">
        <ele>493.2</ele>
        <time>1970-01-01T00:38:54.000Z</time>
      </trkpt>
      <trkpt lat="43.045667" lon="0.545989">
        <ele>493.4</ele>
        <time>1970-01-01T00:39:03.000Z</time>
      </trkpt>
      <trkpt lat="43.045624" lon="0.546255">
        <ele>493</ele>
        <time>1970-01-01T00:39:07.000Z</time>
      </trkpt>
      <trkpt lat="43.045611" lon="0.546326">
        <ele>492.8</ele>
        <time>1970-01-01T00:39:08.000Z</time>
      </trkpt>
      <trkpt lat="43.045468" lon="0.546555">
        <ele>492</ele>
        <time>1970-01-01T00:39:12.000Z</time>
      </trkpt>
      <trkpt lat="43.04542" lon="0.546599">
        <ele>491.8</ele>
        <time>1970-01-01T00:39:13.000Z</time>
      </trkpt>
      <trkpt lat="43.045245" lon="0.546777">
        <ele>491.4</ele>
        <time>1970-01-01T00:39:17.000Z</time>
      </trkpt>
      <trkpt lat="43.045018" lon="0.547066">
        <ele>491</ele>
        <time>1970-01-01T00:39:23.000Z</time>
      </trkpt>
      <trkpt lat="43.044845" lon="0.547241">
        <ele>490.8</ele>
        <time>1970-01-01T00:39:27.000Z</time>
      </trkpt>
      <trkpt lat="43.04435" lon="0.547293">
        <ele>492.2</ele>
        <time>1970-01-01T00:39:39.000Z</time>
      </trkpt>
      <trkpt lat="43.044132" lon="0.547314">
        <ele>493.2</ele>
        <time>1970-01-01T00:39:46.000Z</time>
      </trkpt>
      <trkpt lat="43.043658" lon="0.547316">
        <ele>492.2</ele>
        <time>1970-01-01T00:39:56.000Z</time>
      </trkpt>
      <trkpt lat="43.043486" lon="0.547354">
        <ele>491.4</ele>
        <time>1970-01-01T00:39:59.000Z</time>
      </trkpt>
      <trkpt lat="43.043429" lon="0.547374">
        <ele>491</ele>
        <time>1970-01-01T00:40:00.000Z</time>
      </trkpt>
      <trkpt lat="43.04337" lon="0.547415">
        <ele>490.8</ele>
        <time>1970-01-01T00:40:01.000Z</time>
      </trkpt>
      <trkpt lat="43.043166" lon="0.547614">
        <ele>490</ele>
        <time>1970-01-01T00:40:05.000Z</time>
      </trkpt>
      <trkpt lat="43.043112" lon="0.547656">
        <ele>490</ele>
        <time>1970-01-01T00:40:06.000Z</time>
      </trkpt>
      <trkpt lat="43.042958" lon="0.547745">
        <ele>489.6</ele>
        <time>1970-01-01T00:40:09.000Z</time>
      </trkpt>
      <trkpt lat="43.042773" lon="0.547849">
        <ele>490</ele>
        <time>1970-01-01T00:40:13.000Z</time>
      </trkpt>
      <trkpt lat="43.042222" lon="0.547988">
        <ele>491</ele>
        <time>1970-01-01T00:40:25.000Z</time>
      </trkpt>
      <trkpt lat="43.041793" lon="0.547945">
        <ele>492.2</ele>
        <time>1970-01-01T00:40:35.000Z</time>
      </trkpt>
      <trkpt lat="43.041577" lon="0.547893">
        <ele>493.2</ele>
        <time>1970-01-01T00:40:41.000Z</time>
      </trkpt>
      <trkpt lat="43.041404" lon="0.547848">
        <ele>494.4</ele>
        <time>1970-01-01T00:40:46.000Z</time>
      </trkpt>
      <trkpt lat="43.041202" lon="0.547792">
        <ele>495.4</ele>
        <time>1970-01-01T00:40:52.000Z</time>
      </trkpt>
      <trkpt lat="43.040976" lon="0.547731">
        <ele>496.6</ele>
        <time>1970-01-01T00:40:59.000Z</time>
      </trkpt>
      <trkpt lat="43.040755" lon="0.547676">
        <ele>497.6</ele>
        <time>1970-01-01T00:41:06.000Z</time>
      </trkpt>
      <trkpt lat="43.04056" lon="0.547505">
        <ele>498.6</ele>
        <time>1970-01-01T00:41:14.000Z</time>
      </trkpt>
      <trkpt lat="43.040178" lon="0.546933">
        <ele>499.6</ele>
        <time>1970-01-01T00:41:31.000Z</time>
      </trkpt>
      <trkpt lat="43.040109" lon="0.546827">
        <ele>499.8</ele>
        <time>1970-01-01T00:41:34.000Z</time>
      </trkpt>
      <trkpt lat="43.039844" lon="0.546509">
        <ele>500.8</ele>
        <time>1970-01-01T00:41:44.000Z</time>
      </trkpt>
      <trkpt lat="43.039599" lon="0.546516">
        <ele>502.2</ele>
        <time>1970-01-01T00:41:51.000Z</time>
      </trkpt>
      <trkpt lat="43.03943" lon="0.546556">
        <ele>503.4</ele>
        <time>1970-01-01T00:41:56.000Z</time>
      </trkpt>
      <trkpt lat="43.039091" lon="0.546663">
        <ele>504.4</ele>
        <time>1970-01-01T00:42:06.000Z</time>
      </trkpt>
      <trkpt lat="43.038595" lon="0.547005">
        <ele>504</ele>
        <time>1970-01-01T00:42:19.000Z</time>
      </trkpt>
      <trkpt lat="43.038098" lon="0.547383">
        <ele>504.2</ele>
        <time>1970-01-01T00:42:32.000Z</time>
      </trkpt>
      <trkpt lat="43.037692" lon="0.5476">
        <ele>503.6</ele>
        <time>1970-01-01T00:42:41.000Z</time>
      </trkpt>
      <trkpt lat="43.037541" lon="0.547632">
        <ele>503.4</ele>
        <time>1970-01-01T00:42:44.000Z</time>
      </trkpt>
      <trkpt lat="43.036978" lon="0.547612">
        <ele>503.2</ele>
        <time>1970-01-01T00:42:56.000Z</time>
      </trkpt>
      <trkpt lat="43.036476" lon="0.547532">
        <ele>504.6</ele>
        <time>1970-01-01T00:43:08.000Z</time>
      </trkpt>
      <trkpt lat="43.036272" lon="0.547525">
        <ele>505.8</ele>
        <time>1970-01-01T00:43:14.000Z</time>
      </trkpt>
      <trkpt lat="43.035739" lon="0.547344">
        <ele>505.6</ele>
        <time>1970-01-01T00:43:29.000Z</time>
      </trkpt>
      <trkpt lat="43.035479" lon="0.547254">
        <ele>504.6</ele>
        <time>1970-01-01T00:43:34.000Z</time>
      </trkpt>
      <trkpt lat="43.035347" lon="0.547194">
        <ele>504.6</ele>
        <time>1970-01-01T00:43:37.000Z</time>
      </trkpt>
      <trkpt lat="43.035139" lon="0.547107">
        <ele>504.6</ele>
        <time>1970-01-01T00:43:42.000Z</time>
      </trkpt>
      <trkpt lat="43.034801" lon="0.547015">
        <ele>504.4</ele>
        <time>1970-01-01T00:43:49.000Z</time>
      </trkpt>
      <trkpt lat="43.034721" lon="0.547251">
        <ele>505.6</ele>
        <time>1970-01-01T00:43:57.000Z</time>
      </trkpt>
      <trkpt lat="43.03473" lon="0.547284">
        <ele>506.4</ele>
        <time>1970-01-01T00:43:58.000Z</time>
      </trkpt>
      <trkpt lat="43.034742" lon="0.547347">
        <ele>506.8</ele>
        <time>1970-01-01T00:44:00.000Z</time>
      </trkpt>
      <trkpt lat="43.034717" lon="0.547493">
        <ele>508</ele>
        <time>1970-01-01T00:44:06.000Z</time>
      </trkpt>
      <trkpt lat="43.034654" lon="0.547545">
        <ele>509</ele>
        <time>1970-01-01T00:44:12.000Z</time>
      </trkpt>
      <trkpt lat="43.034591" lon="0.547563">
        <ele>510.2</ele>
        <time>1970-01-01T00:44:17.000Z</time>
      </trkpt>
      <trkpt lat="43.034521" lon="0.547597">
        <ele>511.2</ele>
        <time>1970-01-01T00:44:23.000Z</time>
      </trkpt>
      <trkpt lat="43.034493" lon="0.547655">
        <ele>512.4</ele>
        <time>1970-01-01T00:44:27.000Z</time>
      </trkpt>
      <trkpt lat="43.034491" lon="0.547674">
        <ele>512.8</ele>
        <time>1970-01-01T00:44:30.000Z</time>
      </trkpt>
      <trkpt lat="43.034596" lon="0.547745">
        <ele>514.8</ele>
        <time>1970-01-01T00:45:04.000Z</time>
      </trkpt>
      <trkpt lat="43.034629" lon="0.547778">
        <ele>515.6</ele>
        <time>1970-01-01T00:45:08.000Z</time>
      </trkpt>
      <trkpt lat="43.034635" lon="0.547794">
        <ele>516</ele>
        <time>1970-01-01T00:45:09.000Z</time>
      </trkpt>
      <trkpt lat="43.03463" lon="0.547829">
        <ele>516.4</ele>
        <time>1970-01-01T00:45:11.000Z</time>
      </trkpt>
      <trkpt lat="43.034596" lon="0.547864">
        <ele>517.2</ele>
        <time>1970-01-01T00:45:14.000Z</time>
      </trkpt>
      <trkpt lat="43.034554" lon="0.547884">
        <ele>518.2</ele>
        <time>1970-01-01T00:45:17.000Z</time>
      </trkpt>
      <trkpt lat="43.03454" lon="0.547887">
        <ele>518.4</ele>
        <time>1970-01-01T00:45:18.000Z</time>
      </trkpt>
      <trkpt lat="43.034462" lon="0.547913">
        <ele>519.8</ele>
        <time>1970-01-01T00:45:23.000Z</time>
      </trkpt>
      <trkpt lat="43.034388" lon="0.547981">
        <ele>520.8</ele>
        <time>1970-01-01T00:45:28.000Z</time>
      </trkpt>
      <trkpt lat="43.034355" lon="0.548072">
        <ele>522</ele>
        <time>1970-01-01T00:45:33.000Z</time>
      </trkpt>
      <trkpt lat="43.034296" lon="0.548253">
        <ele>522.8</ele>
        <time>1970-01-01T00:45:41.000Z</time>
      </trkpt>
      <trkpt lat="43.034292" lon="0.548703">
        <ele>524</ele>
        <time>1970-01-01T00:45:57.000Z</time>
      </trkpt>
      <trkpt lat="43.034311" lon="0.549374">
        <ele>522.8</ele>
        <time>1970-01-01T00:46:14.000Z</time>
      </trkpt>
      <trkpt lat="43.034185" lon="0.550125">
        <ele>523.2</ele>
        <time>1970-01-01T00:46:28.000Z</time>
      </trkpt>
      <trkpt lat="43.034047" lon="0.550618">
        <ele>524</ele>
        <time>1970-01-01T00:46:39.000Z</time>
      </trkpt>
      <trkpt lat="43.033852" lon="0.55133">
        <ele>523.8</ele>
        <time>1970-01-01T00:46:53.000Z</time>
      </trkpt>
      <trkpt lat="43.033757" lon="0.551597">
        <ele>523.6</ele>
        <time>1970-01-01T00:47:02.000Z</time>
      </trkpt>
      <trkpt lat="43.033752" lon="0.55162">
        <ele>523.4</ele>
        <time>1970-01-01T00:50:46.000Z</time>
      </trkpt>
      <trkpt lat="43.033744" lon="0.55164">
        <ele>523.4</ele>
        <time>1970-01-01T00:50:47.000Z</time>
      </trkpt>
      <trkpt lat="43.033654" lon="0.551658">
        <ele>523.8</ele>
        <time>1970-01-01T00:50:51.000Z</time>
      </trkpt>
      <trkpt lat="43.033514" lon="0.551653">
        <ele>525</ele>
        <time>1970-01-01T00:50:57.000Z</time>
      </trkpt>
      <trkpt lat="43.03342" lon="0.551643">
        <ele>526</ele>
        <time>1970-01-01T00:51:01.000Z</time>
      </trkpt>
      <trkpt lat="43.0333" lon="0.551655">
        <ele>527</ele>
        <time>1970-01-01T00:51:06.000Z</time>
      </trkpt>
      <trkpt lat="43.033164" lon="0.551636">
        <ele>528.2</ele>
        <time>1970-01-01T00:51:12.000Z</time>
      </trkpt>
      <trkpt lat="43.033027" lon="0.551637">
        <ele>529.4</ele>
        <time>1970-01-01T00:51:18.000Z</time>
      </trkpt>
      <trkpt lat="43.032893" lon="0.551631">
        <ele>530.6</ele>
        <time>1970-01-01T00:51:24.000Z</time>
      </trkpt>
      <trkpt lat="43.032772" lon="0.551605">
        <ele>531.6</ele>
        <time>1970-01-01T00:51:29.000Z</time>
      </trkpt>
      <trkpt lat="43.032541" lon="0.551528">
        <ele>531.4</ele>
        <time>1970-01-01T00:51:36.000Z</time>
      </trkpt>
      <trkpt lat="43.032473" lon="0.551754">
        <ele>531.8</ele>
        <time>1970-01-01T00:51:44.000Z</time>
      </trkpt>
      <trkpt lat="43.032507" lon="0.55191">
        <ele>532.6</ele>
        <time>1970-01-01T00:51:49.000Z</time>
      </trkpt>
      <trkpt lat="43.032631" lon="0.552688">
        <ele>532</ele>
        <time>1970-01-01T00:52:07.000Z</time>
      </trkpt>
      <trkpt lat="43.032667" lon="0.552936">
        <ele>531.4</ele>
        <time>1970-01-01T00:52:11.000Z</time>
      </trkpt>
      <trkpt lat="43.032707" lon="0.553346">
        <ele>530.4</ele>
        <time>1970-01-01T00:52:20.000Z</time>
      </trkpt>
      <trkpt lat="43.032846" lon="0.55408">
        <ele>529.6</ele>
        <time>1970-01-01T00:52:38.000Z</time>
      </trkpt>
      <trkpt lat="43.032871" lon="0.55419">
        <ele>529.4</ele>
        <time>1970-01-01T00:52:40.000Z</time>
      </trkpt>
      <trkpt lat="43.032962" lon="0.554475">
        <ele>528.4</ele>
        <time>1970-01-01T00:52:45.000Z</time>
      </trkpt>
      <trkpt lat="43.033048" lon="0.554662">
        <ele>527.4</ele>
        <time>1970-01-01T00:52:48.000Z</time>
      </trkpt>
      <trkpt lat="43.033104" lon="0.554795">
        <ele>525.8</ele>
        <time>1970-01-01T00:52:51.000Z</time>
      </trkpt>
      <trkpt lat="43.033144" lon="0.554872">
        <ele>524.4</ele>
        <time>1970-01-01T00:52:53.000Z</time>
      </trkpt>
      <trkpt lat="43.033192" lon="0.554968">
        <ele>523</ele>
        <time>1970-01-01T00:52:55.000Z</time>
      </trkpt>
      <trkpt lat="43.033231" lon="0.555065">
        <ele>521.8</ele>
        <time>1970-01-01T00:52:57.000Z</time>
      </trkpt>
      <trkpt lat="43.033262" lon="0.555156">
        <ele>520.8</ele>
        <time>1970-01-01T00:52:59.000Z</time>
      </trkpt>
      <trkpt lat="43.033282" lon="0.555254">
        <ele>519.6</ele>
        <time>1970-01-01T00:53:01.000Z</time>
      </trkpt>
      <trkpt lat="43.033305" lon="0.555356">
        <ele>518.6</ele>
        <time>1970-01-01T00:53:03.000Z</time>
      </trkpt>
      <trkpt lat="43.033319" lon="0.555469">
        <ele>517.2</ele>
        <time>1970-01-01T00:53:05.000Z</time>
      </trkpt>
      <trkpt lat="43.03331" lon="0.55559">
        <ele>516.2</ele>
        <time>1970-01-01T00:53:07.000Z</time>
      </trkpt>
      <trkpt lat="43.033296" lon="0.555709">
        <ele>515.4</ele>
        <time>1970-01-01T00:53:09.000Z</time>
      </trkpt>
      <trkpt lat="43.033299" lon="0.555834">
        <ele>514.8</ele>
        <time>1970-01-01T00:53:11.000Z</time>
      </trkpt>
      <trkpt lat="43.033329" lon="0.556084">
        <ele>514.4</ele>
        <time>1970-01-01T00:53:15.000Z</time>
      </trkpt>
      <trkpt lat="43.033338" lon="0.556148">
        <ele>514.2</ele>
        <time>1970-01-01T00:53:16.000Z</time>
      </trkpt>
      <trkpt lat="43.033354" lon="0.556341">
        <ele>513.8</ele>
        <time>1970-01-01T00:53:19.000Z</time>
      </trkpt>
      <trkpt lat="43.033359" lon="0.556484">
        <ele>513.4</ele>
        <time>1970-01-01T00:53:21.000Z</time>
      </trkpt>
      <trkpt lat="43.0334" lon="0.556699">
        <ele>512.6</ele>
        <time>1970-01-01T00:53:24.000Z</time>
      </trkpt>
      <trkpt lat="43.033446" lon="0.556951">
        <ele>510.8</ele>
        <time>1970-01-01T00:53:27.000Z</time>
      </trkpt>
      <trkpt lat="43.033467" lon="0.557133">
        <ele>509.6</ele>
        <time>1970-01-01T00:53:29.000Z</time>
      </trkpt>
      <trkpt lat="43.033481" lon="0.557318">
        <ele>508.4</ele>
        <time>1970-01-01T00:53:31.000Z</time>
      </trkpt>
      <trkpt lat="43.033492" lon="0.557508">
        <ele>507.4</ele>
        <time>1970-01-01T00:53:33.000Z</time>
      </trkpt>
      <trkpt lat="43.03349" lon="0.55759">
        <ele>507.2</ele>
        <time>1970-01-01T00:53:34.000Z</time>
      </trkpt>
      <trkpt lat="43.033455" lon="0.558332">
        <ele>508</ele>
        <time>1970-01-01T00:53:51.000Z</time>
      </trkpt>
      <trkpt lat="43.033668" lon="0.558845">
        <ele>506</ele>
        <time>1970-01-01T00:54:02.000Z</time>
      </trkpt>
      <trkpt lat="43.033709" lon="0.558963">
        <ele>504.8</ele>
        <time>1970-01-01T00:54:05.000Z</time>
      </trkpt>
      <trkpt lat="43.033698" lon="0.559069">
        <ele>505</ele>
        <time>1970-01-01T00:54:08.000Z</time>
      </trkpt>
      <trkpt lat="43.033682" lon="0.559162">
        <ele>506</ele>
        <time>1970-01-01T00:54:11.000Z</time>
      </trkpt>
      <trkpt lat="43.033486" lon="0.559857">
        <ele>506.6</ele>
        <time>1970-01-01T00:54:27.000Z</time>
      </trkpt>
      <trkpt lat="43.033454" lon="0.559928">
        <ele>507</ele>
        <time>1970-01-01T00:54:29.000Z</time>
      </trkpt>
      <trkpt lat="43.033411" lon="0.56006">
        <ele>508</ele>
        <time>1970-01-01T00:54:33.000Z</time>
      </trkpt>
      <trkpt lat="43.033368" lon="0.560137">
        <ele>509</ele>
        <time>1970-01-01T00:54:36.000Z</time>
      </trkpt>
      <trkpt lat="43.033347" lon="0.560203">
        <ele>510.4</ele>
        <time>1970-01-01T00:54:39.000Z</time>
      </trkpt>
      <trkpt lat="43.033215" lon="0.560645">
        <ele>511.4</ele>
        <time>1970-01-01T00:54:52.000Z</time>
      </trkpt>
      <trkpt lat="43.033123" lon="0.560937">
        <ele>512.6</ele>
        <time>1970-01-01T00:55:02.000Z</time>
      </trkpt>
      <trkpt lat="43.033062" lon="0.56104">
        <ele>513.6</ele>
        <time>1970-01-01T00:55:06.000Z</time>
      </trkpt>
      <trkpt lat="43.032955" lon="0.561262">
        <ele>514.8</ele>
        <time>1970-01-01T00:55:15.000Z</time>
      </trkpt>
      <trkpt lat="43.032902" lon="0.561406">
        <ele>515.8</ele>
        <time>1970-01-01T00:55:20.000Z</time>
      </trkpt>
      <trkpt lat="43.032722" lon="0.561627">
        <ele>515.2</ele>
        <time>1970-01-01T00:55:32.000Z</time>
      </trkpt>
      <trkpt lat="43.032472" lon="0.561937">
        <ele>520.4</ele>
        <time>1970-01-01T00:56:10.000Z</time>
      </trkpt>
      <trkpt lat="43.032269" lon="0.562303">
        <ele>521.2</ele>
        <time>1970-01-01T00:56:27.000Z</time>
      </trkpt>
      <trkpt lat="43.032148" lon="0.562488">
        <ele>519.2</ele>
        <time>1970-01-01T00:56:33.000Z</time>
      </trkpt>
      <trkpt lat="43.032126" lon="0.562519">
        <ele>518.6</ele>
        <time>1970-01-01T00:56:34.000Z</time>
      </trkpt>
      <trkpt lat="43.032076" lon="0.562584">
        <ele>517.6</ele>
        <time>1970-01-01T00:56:36.000Z</time>
      </trkpt>
      <trkpt lat="43.031981" lon="0.562679">
        <ele>516.6</ele>
        <time>1970-01-01T00:56:39.000Z</time>
      </trkpt>
      <trkpt lat="43.031743" lon="0.562923">
        <ele>515.6</ele>
        <time>1970-01-01T00:56:49.000Z</time>
      </trkpt>
      <trkpt lat="43.031746" lon="0.563039">
        <ele>515.2</ele>
        <time>1970-01-01T00:56:53.000Z</time>
      </trkpt>
      <trkpt lat="43.031766" lon="0.563092">
        <ele>515.2</ele>
        <time>1970-01-01T00:56:55.000Z</time>
      </trkpt>
      <trkpt lat="43.031803" lon="0.563183">
        <ele>515</ele>
        <time>1970-01-01T00:57:01.000Z</time>
      </trkpt>
      <trkpt lat="43.031816" lon="0.563223">
        <ele>514.6</ele>
        <time>1970-01-01T00:57:39.000Z</time>
      </trkpt>
      <trkpt lat="43.031947" lon="0.5634">
        <ele>516</ele>
        <time>1970-01-01T00:57:51.000Z</time>
      </trkpt>
      <trkpt lat="43.031912" lon="0.563523">
        <ele>516</ele>
        <time>1970-01-01T01:00:10.000Z</time>
      </trkpt>
      <trkpt lat="43.031808" lon="0.563641">
        <ele>514.6</ele>
        <time>1970-01-01T01:00:13.000Z</time>
      </trkpt>
      <trkpt lat="43.031653" lon="0.56381">
        <ele>514</ele>
        <time>1970-01-01T01:00:17.000Z</time>
      </trkpt>
      <trkpt lat="43.031402" lon="0.564083">
        <ele>515.8</ele>
        <time>1970-01-01T01:00:32.000Z</time>
      </trkpt>
      <trkpt lat="43.031394" lon="0.564097">
        <ele>516.4</ele>
        <time>1970-01-01T01:00:33.000Z</time>
      </trkpt>
      <trkpt lat="43.031371" lon="0.564125">
        <ele>517</ele>
        <time>1970-01-01T01:00:35.000Z</time>
      </trkpt>
      <trkpt lat="43.031292" lon="0.564197">
        <ele>518</ele>
        <time>1970-01-01T01:00:41.000Z</time>
      </trkpt>
      <trkpt lat="43.031141" lon="0.564358">
        <ele>519.2</ele>
        <time>1970-01-01T01:00:52.000Z</time>
      </trkpt>
      <trkpt lat="43.03089" lon="0.564315">
        <ele>520.4</ele>
        <time>1970-01-01T01:01:04.000Z</time>
      </trkpt>
      <trkpt lat="43.030835" lon="0.564311">
        <ele>521.6</ele>
        <time>1970-01-01T01:01:07.000Z</time>
      </trkpt>
      <trkpt lat="43.030754" lon="0.564295">
        <ele>522.6</ele>
        <time>1970-01-01T01:01:11.000Z</time>
      </trkpt>
      <trkpt lat="43.03071" lon="0.564298">
        <ele>523.6</ele>
        <time>1970-01-01T01:01:14.000Z</time>
      </trkpt>
      <trkpt lat="43.030697" lon="0.564302">
        <ele>523.8</ele>
        <time>1970-01-01T01:01:15.000Z</time>
      </trkpt>
      <trkpt lat="43.030639" lon="0.564314">
        <ele>525</ele>
        <time>1970-01-01T01:01:19.000Z</time>
      </trkpt>
      <trkpt lat="43.030586" lon="0.564331">
        <ele>526.2</ele>
        <time>1970-01-01T01:01:23.000Z</time>
      </trkpt>
      <trkpt lat="43.030517" lon="0.564349">
        <ele>527.2</ele>
        <time>1970-01-01T01:01:28.000Z</time>
      </trkpt>
      <trkpt lat="43.030449" lon="0.564387">
        <ele>528.4</ele>
        <time>1970-01-01T01:01:33.000Z</time>
      </trkpt>
      <trkpt lat="43.03039" lon="0.564416">
        <ele>529.6</ele>
        <time>1970-01-01T01:01:38.000Z</time>
      </trkpt>
      <trkpt lat="43.030342" lon="0.564459">
        <ele>530.6</ele>
        <time>1970-01-01T01:01:42.000Z</time>
      </trkpt>
      <trkpt lat="43.030278" lon="0.564512">
        <ele>531.8</ele>
        <time>1970-01-01T01:01:47.000Z</time>
      </trkpt>
      <trkpt lat="43.030213" lon="0.564601">
        <ele>532.6</ele>
        <time>1970-01-01T01:01:53.000Z</time>
      </trkpt>
      <trkpt lat="43.030204" lon="0.564615">
        <ele>532.8</ele>
        <time>1970-01-01T01:01:54.000Z</time>
      </trkpt>
      <trkpt lat="43.03015" lon="0.564699">
        <ele>533.8</ele>
        <time>1970-01-01T01:02:00.000Z</time>
      </trkpt>
      <trkpt lat="43.030115" lon="0.564747">
        <ele>534.8</ele>
        <time>1970-01-01T01:02:03.000Z</time>
      </trkpt>
      <trkpt lat="43.030031" lon="0.564831">
        <ele>535.8</ele>
        <time>1970-01-01T01:02:09.000Z</time>
      </trkpt>
      <trkpt lat="43.029936" lon="0.564917">
        <ele>536.8</ele>
        <time>1970-01-01T01:02:17.000Z</time>
      </trkpt>
      <trkpt lat="43.029788" lon="0.565067">
        <ele>538</ele>
        <time>1970-01-01T01:02:29.000Z</time>
      </trkpt>
      <trkpt lat="43.029676" lon="0.565163">
        <ele>538.4</ele>
        <time>1970-01-01T01:02:37.000Z</time>
      </trkpt>
      <trkpt lat="43.029596" lon="0.565209">
        <ele>539</ele>
        <time>1970-01-01T01:02:42.000Z</time>
      </trkpt>
      <trkpt lat="43.029513" lon="0.565261">
        <ele>539.6</ele>
        <time>1970-01-01T01:02:48.000Z</time>
      </trkpt>
      <trkpt lat="43.02949" lon="0.565279">
        <ele>539.6</ele>
        <time>1970-01-01T01:02:50.000Z</time>
      </trkpt>
      <trkpt lat="43.029299" lon="0.565389">
        <ele>538</ele>
        <time>1970-01-01T01:03:01.000Z</time>
      </trkpt>
      <trkpt lat="43.029198" lon="0.565399">
        <ele>536.8</ele>
        <time>1970-01-01T01:03:04.000Z</time>
      </trkpt>
      <trkpt lat="43.029058" lon="0.56541">
        <ele>535.8</ele>
        <time>1970-01-01T01:03:08.000Z</time>
      </trkpt>
      <trkpt lat="43.028991" lon="0.565408">
        <ele>535.4</ele>
        <time>1970-01-01T01:03:12.000Z</time>
      </trkpt>
      <trkpt lat="43.028957" lon="0.565412">
        <ele>534.8</ele>
        <time>1970-01-01T01:03:14.000Z</time>
      </trkpt>
      <trkpt lat="43.028924" lon="0.565424">
        <ele>534.2</ele>
        <time>1970-01-01T01:03:16.000Z</time>
      </trkpt>
      <trkpt lat="43.028863" lon="0.565443">
        <ele>533.4</ele>
        <time>1970-01-01T01:03:19.000Z</time>
      </trkpt>
      <trkpt lat="43.028809" lon="0.565453">
        <ele>532.4</ele>
        <time>1970-01-01T01:03:21.000Z</time>
      </trkpt>
      <trkpt lat="43.028757" lon="0.565463">
        <ele>531.4</ele>
        <time>1970-01-01T01:03:23.000Z</time>
      </trkpt>
      <trkpt lat="43.028659" lon="0.565476">
        <ele>530</ele>
        <time>1970-01-01T01:03:26.000Z</time>
      </trkpt>
      <trkpt lat="43.028516" lon="0.565494">
        <ele>528.4</ele>
        <time>1970-01-01T01:03:29.000Z</time>
      </trkpt>
      <trkpt lat="43.02822" lon="0.565502">
        <ele>527.4</ele>
        <time>1970-01-01T01:03:35.000Z</time>
      </trkpt>
      <trkpt lat="43.028189" lon="0.565494">
        <ele>527.4</ele>
        <time>1970-01-01T01:03:36.000Z</time>
      </trkpt>
      <trkpt lat="43.028148" lon="0.565471">
        <ele>526.8</ele>
        <time>1970-01-01T01:03:40.000Z</time>
      </trkpt>
      <trkpt lat="43.028095" lon="0.565407">
        <ele>526.6</ele>
        <time>1970-01-01T01:03:57.000Z</time>
      </trkpt>
      <trkpt lat="43.028079" lon="0.565395">
        <ele>526.4</ele>
        <time>1970-01-01T01:03:58.000Z</time>
      </trkpt>
      <trkpt lat="43.027569" lon="0.565111">
        <ele>528.2</ele>
        <time>1970-01-01T01:04:16.000Z</time>
      </trkpt>
      <trkpt lat="43.027417" lon="0.565174">
        <ele>527.6</ele>
        <time>1970-01-01T01:04:21.000Z</time>
      </trkpt>
      <trkpt lat="43.027351" lon="0.56529">
        <ele>526.6</ele>
        <time>1970-01-01T01:04:23.000Z</time>
      </trkpt>
      <trkpt lat="43.027208" lon="0.565559">
        <ele>526</ele>
        <time>1970-01-01T01:04:27.000Z</time>
      </trkpt>
      <trkpt lat="43.027011" lon="0.565646">
        <ele>525.6</ele>
        <time>1970-01-01T01:04:31.000Z</time>
      </trkpt>
      <trkpt lat="43.026501" lon="0.565818">
        <ele>526.4</ele>
        <time>1970-01-01T01:04:48.000Z</time>
      </trkpt>
      <trkpt lat="43.026478" lon="0.56587">
        <ele>526</ele>
        <time>1970-01-01T01:05:27.000Z</time>
      </trkpt>
      <trkpt lat="43.026324" lon="0.566205">
        <ele>524.4</ele>
        <time>1970-01-01T01:05:35.000Z</time>
      </trkpt>
      <trkpt lat="43.026254" lon="0.566301">
        <ele>524.2</ele>
        <time>1970-01-01T01:05:37.000Z</time>
      </trkpt>
      <trkpt lat="43.02605" lon="0.566522">
        <ele>523.4</ele>
        <time>1970-01-01T01:05:42.000Z</time>
      </trkpt>
      <trkpt lat="43.025948" lon="0.566815">
        <ele>522.4</ele>
        <time>1970-01-01T01:05:46.000Z</time>
      </trkpt>
      <trkpt lat="43.025961" lon="0.567085">
        <ele>521</ele>
        <time>1970-01-01T01:05:49.000Z</time>
      </trkpt>
      <trkpt lat="43.025977" lon="0.567175">
        <ele>520.4</ele>
        <time>1970-01-01T01:05:50.000Z</time>
      </trkpt>
      <trkpt lat="43.025987" lon="0.567255">
        <ele>519.6</ele>
        <time>1970-01-01T01:05:51.000Z</time>
      </trkpt>
      <trkpt lat="43.025961" lon="0.567346">
        <ele>518.4</ele>
        <time>1970-01-01T01:05:53.000Z</time>
      </trkpt>
      <trkpt lat="43.025909" lon="0.567313">
        <ele>517.2</ele>
        <time>1970-01-01T01:05:55.000Z</time>
      </trkpt>
      <trkpt lat="43.025888" lon="0.567261">
        <ele>516.6</ele>
        <time>1970-01-01T01:05:56.000Z</time>
      </trkpt>
      <trkpt lat="43.025871" lon="0.567199">
        <ele>515.8</ele>
        <time>1970-01-01T01:05:57.000Z</time>
      </trkpt>
      <trkpt lat="43.025853" lon="0.567046">
        <ele>514.4</ele>
        <time>1970-01-01T01:05:59.000Z</time>
      </trkpt>
      <trkpt lat="43.025839" lon="0.566864">
        <ele>513</ele>
        <time>1970-01-01T01:06:01.000Z</time>
      </trkpt>
      <trkpt lat="43.02583" lon="0.566787">
        <ele>511.8</ele>
        <time>1970-01-01T01:06:02.000Z</time>
      </trkpt>
      <trkpt lat="43.02582" lon="0.566723">
        <ele>510.2</ele>
        <time>1970-01-01T01:06:03.000Z</time>
      </trkpt>
      <trkpt lat="43.025809" lon="0.566692">
        <ele>509</ele>
        <time>1970-01-01T01:06:04.000Z</time>
      </trkpt>
      <trkpt lat="43.025783" lon="0.566665">
        <ele>507.4</ele>
        <time>1970-01-01T01:06:06.000Z</time>
      </trkpt>
      <trkpt lat="43.025766" lon="0.566725">
        <ele>506.2</ele>
        <time>1970-01-01T01:06:08.000Z</time>
      </trkpt>
      <trkpt lat="43.02573" lon="0.566884">
        <ele>504</ele>
        <time>1970-01-01T01:06:10.000Z</time>
      </trkpt>
      <trkpt lat="43.025701" lon="0.566996">
        <ele>502.2</ele>
        <time>1970-01-01T01:06:11.000Z</time>
      </trkpt>
      <trkpt lat="43.025672" lon="0.567094">
        <ele>500.6</ele>
        <time>1970-01-01T01:06:12.000Z</time>
      </trkpt>
      <trkpt lat="43.025626" lon="0.567195">
        <ele>499.2</ele>
        <time>1970-01-01T01:06:13.000Z</time>
      </trkpt>
      <trkpt lat="43.025587" lon="0.567294">
        <ele>497.8</ele>
        <time>1970-01-01T01:06:14.000Z</time>
      </trkpt>
      <trkpt lat="43.025557" lon="0.567406">
        <ele>496.6</ele>
        <time>1970-01-01T01:06:15.000Z</time>
      </trkpt>
      <trkpt lat="43.025543" lon="0.567507">
        <ele>495.4</ele>
        <time>1970-01-01T01:06:16.000Z</time>
      </trkpt>
      <trkpt lat="43.02557" lon="0.567711">
        <ele>494</ele>
        <time>1970-01-01T01:06:18.000Z</time>
      </trkpt>
      <trkpt lat="43.025653" lon="0.567874">
        <ele>492.8</ele>
        <time>1970-01-01T01:06:20.000Z</time>
      </trkpt>
      <trkpt lat="43.025708" lon="0.567948">
        <ele>492.4</ele>
        <time>1970-01-01T01:06:21.000Z</time>
      </trkpt>
      <trkpt lat="43.025767" lon="0.568022">
        <ele>491.8</ele>
        <time>1970-01-01T01:06:22.000Z</time>
      </trkpt>
      <trkpt lat="43.025822" lon="0.568107">
        <ele>491.2</ele>
        <time>1970-01-01T01:06:23.000Z</time>
      </trkpt>
      <trkpt lat="43.025855" lon="0.568209">
        <ele>490.6</ele>
        <time>1970-01-01T01:06:24.000Z</time>
      </trkpt>
      <trkpt lat="43.02585" lon="0.568424">
        <ele>489.4</ele>
        <time>1970-01-01T01:06:26.000Z</time>
      </trkpt>
      <trkpt lat="43.025816" lon="0.568629">
        <ele>488.8</ele>
        <time>1970-01-01T01:06:28.000Z</time>
      </trkpt>
      <trkpt lat="43.025806" lon="0.568871">
        <ele>488.2</ele>
        <time>1970-01-01T01:06:32.000Z</time>
      </trkpt>
      <trkpt lat="43.025901" lon="0.568847">
        <ele>487.8</ele>
        <time>1970-01-01T01:06:36.000Z</time>
      </trkpt>
      <trkpt lat="43.026206" lon="0.568658">
        <ele>487.8</ele>
        <time>1970-01-01T01:06:46.000Z</time>
      </trkpt>
      <trkpt lat="43.02619" lon="0.568617">
        <ele>487.4</ele>
        <time>1970-01-01T01:06:50.000Z</time>
      </trkpt>
      <trkpt lat="43.026181" lon="0.568621">
        <ele>487.4</ele>
        <time>1970-01-01T01:06:51.000Z</time>
      </trkpt>
      <trkpt lat="43.025712" lon="0.56899">
        <ele>488.2</ele>
        <time>1970-01-01T01:07:11.000Z</time>
      </trkpt>
      <trkpt lat="43.025712" lon="0.569155">
        <ele>489.4</ele>
        <time>1970-01-01T01:07:17.000Z</time>
      </trkpt>
      <trkpt lat="43.02572" lon="0.56925">
        <ele>490.4</ele>
        <time>1970-01-01T01:07:22.000Z</time>
      </trkpt>
      <trkpt lat="43.025736" lon="0.569314">
        <ele>491.6</ele>
        <time>1970-01-01T01:07:25.000Z</time>
      </trkpt>
      <trkpt lat="43.025751" lon="0.569371">
        <ele>492.6</ele>
        <time>1970-01-01T01:07:28.000Z</time>
      </trkpt>
      <trkpt lat="43.025782" lon="0.56943">
        <ele>493.6</ele>
        <time>1970-01-01T01:07:31.000Z</time>
      </trkpt>
      <trkpt lat="43.025806" lon="0.56948">
        <ele>494.8</ele>
        <time>1970-01-01T01:07:34.000Z</time>
      </trkpt>
      <trkpt lat="43.025837" lon="0.569528">
        <ele>495.8</ele>
        <time>1970-01-01T01:07:37.000Z</time>
      </trkpt>
      <trkpt lat="43.025861" lon="0.569564">
        <ele>497</ele>
        <time>1970-01-01T01:07:40.000Z</time>
      </trkpt>
      <trkpt lat="43.02588" lon="0.569599">
        <ele>498.2</ele>
        <time>1970-01-01T01:07:43.000Z</time>
      </trkpt>
      <trkpt lat="43.025913" lon="0.569636">
        <ele>499.4</ele>
        <time>1970-01-01T01:07:47.000Z</time>
      </trkpt>
      <trkpt lat="43.025955" lon="0.56969">
        <ele>500.8</ele>
        <time>1970-01-01T01:07:51.000Z</time>
      </trkpt>
      <trkpt lat="43.025987" lon="0.569727">
        <ele>501.8</ele>
        <time>1970-01-01T01:07:54.000Z</time>
      </trkpt>
      <trkpt lat="43.025999" lon="0.569742">
        <ele>502</ele>
        <time>1970-01-01T01:07:55.000Z</time>
      </trkpt>
      <trkpt lat="43.026034" lon="0.569784">
        <ele>503</ele>
        <time>1970-01-01T01:07:58.000Z</time>
      </trkpt>
      <trkpt lat="43.026043" lon="0.569797">
        <ele>503.2</ele>
        <time>1970-01-01T01:07:59.000Z</time>
      </trkpt>
      <trkpt lat="43.026076" lon="0.569835">
        <ele>504.4</ele>
        <time>1970-01-01T01:08:02.000Z</time>
      </trkpt>
      <trkpt lat="43.026114" lon="0.569878">
        <ele>505.4</ele>
        <time>1970-01-01T01:08:06.000Z</time>
      </trkpt>
      <trkpt lat="43.026155" lon="0.569921">
        <ele>506.8</ele>
        <time>1970-01-01T01:08:10.000Z</time>
      </trkpt>
      <trkpt lat="43.026199" lon="0.569977">
        <ele>508</ele>
        <time>1970-01-01T01:08:15.000Z</time>
      </trkpt>
      <trkpt lat="43.026226" lon="0.570027">
        <ele>509</ele>
        <time>1970-01-01T01:08:19.000Z</time>
      </trkpt>
      <trkpt lat="43.026229" lon="0.570115">
        <ele>510</ele>
        <time>1970-01-01T01:08:24.000Z</time>
      </trkpt>
      <trkpt lat="43.026234" lon="0.570127">
        <ele>510.2</ele>
        <time>1970-01-01T01:08:25.000Z</time>
      </trkpt>
      <trkpt lat="43.026259" lon="0.570149">
        <ele>511.2</ele>
        <time>1970-01-01T01:08:28.000Z</time>
      </trkpt>
      <trkpt lat="43.02628" lon="0.570164">
        <ele>511.8</ele>
        <time>1970-01-01T01:08:31.000Z</time>
      </trkpt>
      <trkpt lat="43.026301" lon="0.570154">
        <ele>512</ele>
        <time>1970-01-01T01:08:34.000Z</time>
      </trkpt>
      <trkpt lat="43.026311" lon="0.570128">
        <ele>512.2</ele>
        <time>1970-01-01T01:08:36.000Z</time>
      </trkpt>
      <trkpt lat="43.026297" lon="0.570064">
        <ele>512.2</ele>
        <time>1970-01-01T01:08:40.000Z</time>
      </trkpt>
      <trkpt lat="43.026235" lon="0.569754">
        <ele>513.2</ele>
        <time>1970-01-01T01:08:54.000Z</time>
      </trkpt>
      <trkpt lat="43.026186" lon="0.569599">
        <ele>514.2</ele>
        <time>1970-01-01T01:09:02.000Z</time>
      </trkpt>
      <trkpt lat="43.026226" lon="0.569539">
        <ele>515</ele>
        <time>1970-01-01T01:09:07.000Z</time>
      </trkpt>
      <trkpt lat="43.026249" lon="0.569505">
        <ele>515.2</ele>
        <time>1970-01-01T01:09:13.000Z</time>
      </trkpt>
      <trkpt lat="43.026257" lon="0.569543">
        <ele>514.6</ele>
        <time>1970-01-01T01:09:22.000Z</time>
      </trkpt>
      <trkpt lat="43.026325" lon="0.569575">
        <ele>516</ele>
        <time>1970-01-01T01:09:29.000Z</time>
      </trkpt>
      <trkpt lat="43.026331" lon="0.569544">
        <ele>515.8</ele>
        <time>1970-01-01T01:09:32.000Z</time>
      </trkpt>
      <trkpt lat="43.026338" lon="0.569111">
        <ele>514.8</ele>
        <time>1970-01-01T01:09:57.000Z</time>
      </trkpt>
      <trkpt lat="43.026248" lon="0.569186">
        <ele>514.8</ele>
        <time>1970-01-01T01:10:03.000Z</time>
      </trkpt>
      <trkpt lat="43.02647" lon="0.56964">
        <ele>516.4</ele>
        <time>1970-01-01T01:10:26.000Z</time>
      </trkpt>
      <trkpt lat="43.026742" lon="0.569846">
        <ele>517.4</ele>
        <time>1970-01-01T01:10:40.000Z</time>
      </trkpt>
      <trkpt lat="43.026836" lon="0.569943">
        <ele>519</ele>
        <time>1970-01-01T01:10:46.000Z</time>
      </trkpt>
      <trkpt lat="43.026897" lon="0.570005">
        <ele>520.2</ele>
        <time>1970-01-01T01:10:50.000Z</time>
      </trkpt>
      <trkpt lat="43.026956" lon="0.570061">
        <ele>521.4</ele>
        <time>1970-01-01T01:10:54.000Z</time>
      </trkpt>
      <trkpt lat="43.027028" lon="0.570095">
        <ele>522.4</ele>
        <time>1970-01-01T01:10:58.000Z</time>
      </trkpt>
      <trkpt lat="43.027082" lon="0.570099">
        <ele>523</ele>
        <time>1970-01-01T01:11:02.000Z</time>
      </trkpt>
      <trkpt lat="43.027096" lon="0.570068">
        <ele>523.2</ele>
        <time>1970-01-01T01:11:05.000Z</time>
      </trkpt>
      <trkpt lat="43.027125" lon="0.570147">
        <ele>523.2</ele>
        <time>1970-01-01T01:11:26.000Z</time>
      </trkpt>
      <trkpt lat="43.027158" lon="0.570208">
        <ele>523.4</ele>
        <time>1970-01-01T01:11:29.000Z</time>
      </trkpt>
      <trkpt lat="43.027194" lon="0.570241">
        <ele>523.8</ele>
        <time>1970-01-01T01:11:33.000Z</time>
      </trkpt>
      <trkpt lat="43.027208" lon="0.570294">
        <ele>523.8</ele>
        <time>1970-01-01T01:11:52.000Z</time>
      </trkpt>
      <trkpt lat="43.027269" lon="0.570512">
        <ele>523.8</ele>
        <time>1970-01-01T01:12:04.000Z</time>
      </trkpt>
      <trkpt lat="43.027223" lon="0.570536">
        <ele>524.6</ele>
        <time>1970-01-01T01:12:07.000Z</time>
      </trkpt>
      <trkpt lat="43.027209" lon="0.570541">
        <ele>524.8</ele>
        <time>1970-01-01T01:12:08.000Z</time>
      </trkpt>
      <trkpt lat="43.027143" lon="0.570593">
        <ele>525.8</ele>
        <time>1970-01-01T01:12:15.000Z</time>
      </trkpt>
      <trkpt lat="43.027119" lon="0.570643">
        <ele>526.2</ele>
        <time>1970-01-01T01:12:18.000Z</time>
      </trkpt>
      <trkpt lat="43.027039" lon="0.570684">
        <ele>527</ele>
        <time>1970-01-01T01:12:25.000Z</time>
      </trkpt>
      <trkpt lat="43.026999" lon="0.570662">
        <ele>527.2</ele>
        <time>1970-01-01T01:12:29.000Z</time>
      </trkpt>
      <trkpt lat="43.02699" lon="0.570716">
        <ele>528.2</ele>
        <time>1970-01-01T01:20:38.000Z</time>
      </trkpt>
      <trkpt lat="43.027097" lon="0.570847">
        <ele>527.6</ele>
        <time>1970-01-01T01:20:44.000Z</time>
      </trkpt>
      <trkpt lat="43.027134" lon="0.57109">
        <ele>526.4</ele>
        <time>1970-01-01T01:20:49.000Z</time>
      </trkpt>
      <trkpt lat="43.027058" lon="0.571391">
        <ele>525.4</ele>
        <time>1970-01-01T01:20:55.000Z</time>
      </trkpt>
      <trkpt lat="43.027005" lon="0.571593">
        <ele>524.4</ele>
        <time>1970-01-01T01:21:00.000Z</time>
      </trkpt>
      <trkpt lat="43.027029" lon="0.571624">
        <ele>524</ele>
        <time>1970-01-01T01:21:01.000Z</time>
      </trkpt>
      <trkpt lat="43.027093" lon="0.571723">
        <ele>523</ele>
        <time>1970-01-01T01:21:04.000Z</time>
      </trkpt>
      <trkpt lat="43.027094" lon="0.571763">
        <ele>522.8</ele>
        <time>1970-01-01T01:21:05.000Z</time>
      </trkpt>
      <trkpt lat="43.027042" lon="0.571917">
        <ele>522.4</ele>
        <time>1970-01-01T01:21:09.000Z</time>
      </trkpt>
      <trkpt lat="43.02682" lon="0.572554">
        <ele>521.6</ele>
        <time>1970-01-01T01:21:27.000Z</time>
      </trkpt>
      <trkpt lat="43.026801" lon="0.572662">
        <ele>520.6</ele>
        <time>1970-01-01T01:21:29.000Z</time>
      </trkpt>
      <trkpt lat="43.026761" lon="0.572817">
        <ele>519.4</ele>
        <time>1970-01-01T01:21:32.000Z</time>
      </trkpt>
      <trkpt lat="43.02671" lon="0.572942">
        <ele>518.2</ele>
        <time>1970-01-01T01:21:35.000Z</time>
      </trkpt>
      <trkpt lat="43.026693" lon="0.572961">
        <ele>518</ele>
        <time>1970-01-01T01:21:36.000Z</time>
      </trkpt>
      <trkpt lat="43.026604" lon="0.572886">
        <ele>517.6</ele>
        <time>1970-01-01T01:21:41.000Z</time>
      </trkpt>
      <trkpt lat="43.026472" lon="0.572418">
        <ele>519.4</ele>
        <time>1970-01-01T01:21:56.000Z</time>
      </trkpt>
      <trkpt lat="43.026424" lon="0.572275">
        <ele>520.4</ele>
        <time>1970-01-01T01:22:01.000Z</time>
      </trkpt>
      <trkpt lat="43.026377" lon="0.572003">
        <ele>521.4</ele>
        <time>1970-01-01T01:22:10.000Z</time>
      </trkpt>
      <trkpt lat="43.0264" lon="0.571209">
        <ele>520</ele>
        <time>1970-01-01T01:22:25.000Z</time>
      </trkpt>
      <trkpt lat="43.026418" lon="0.570902">
        <ele>518.4</ele>
        <time>1970-01-01T01:22:28.000Z</time>
      </trkpt>
      <trkpt lat="43.0264" lon="0.57067">
        <ele>517.2</ele>
        <time>1970-01-01T01:22:30.000Z</time>
      </trkpt>
      <trkpt lat="43.026373" lon="0.570458">
        <ele>515.8</ele>
        <time>1970-01-01T01:22:32.000Z</time>
      </trkpt>
      <trkpt lat="43.026341" lon="0.570286">
        <ele>514.6</ele>
        <time>1970-01-01T01:22:34.000Z</time>
      </trkpt>
      <trkpt lat="43.026322" lon="0.570224">
        <ele>514.2</ele>
        <time>1970-01-01T01:22:35.000Z</time>
      </trkpt>
      <trkpt lat="43.026288" lon="0.570152">
        <ele>513.6</ele>
        <time>1970-01-01T01:22:37.000Z</time>
      </trkpt>
      <trkpt lat="43.026237" lon="0.570045">
        <ele>512.8</ele>
        <time>1970-01-01T01:22:40.000Z</time>
      </trkpt>
      <trkpt lat="43.026219" lon="0.570006">
        <ele>512.2</ele>
        <time>1970-01-01T01:22:41.000Z</time>
      </trkpt>
      <trkpt lat="43.026172" lon="0.569927">
        <ele>510.6</ele>
        <time>1970-01-01T01:22:43.000Z</time>
      </trkpt>
      <trkpt lat="43.026143" lon="0.569889">
        <ele>509.6</ele>
        <time>1970-01-01T01:22:44.000Z</time>
      </trkpt>
      <trkpt lat="43.026083" lon="0.569813">
        <ele>508</ele>
        <time>1970-01-01T01:22:46.000Z</time>
      </trkpt>
      <trkpt lat="43.026048" lon="0.56977">
        <ele>506.8</ele>
        <time>1970-01-01T01:22:47.000Z</time>
      </trkpt>
      <trkpt lat="43.025974" lon="0.569687">
        <ele>504.6</ele>
        <time>1970-01-01T01:22:49.000Z</time>
      </trkpt>
      <trkpt lat="43.025937" lon="0.569647">
        <ele>502.8</ele>
        <time>1970-01-01T01:22:50.000Z</time>
      </trkpt>
      <trkpt lat="43.0259" lon="0.569602">
        <ele>501.8</ele>
        <time>1970-01-01T01:22:51.000Z</time>
      </trkpt>
      <trkpt lat="43.025864" lon="0.569552">
        <ele>500.4</ele>
        <time>1970-01-01T01:22:52.000Z</time>
      </trkpt>
      <trkpt lat="43.025829" lon="0.569499">
        <ele>499.2</ele>
        <time>1970-01-01T01:22:53.000Z</time>
      </trkpt>
      <trkpt lat="43.025798" lon="0.569442">
        <ele>498</ele>
        <time>1970-01-01T01:22:54.000Z</time>
      </trkpt>
      <trkpt lat="43.025771" lon="0.569382">
        <ele>497</ele>
        <time>1970-01-01T01:22:55.000Z</time>
      </trkpt>
      <trkpt lat="43.025753" lon="0.569319">
        <ele>496</ele>
        <time>1970-01-01T01:22:56.000Z</time>
      </trkpt>
      <trkpt lat="43.025738" lon="0.569189">
        <ele>494</ele>
        <time>1970-01-01T01:22:58.000Z</time>
      </trkpt>
      <trkpt lat="43.025738" lon="0.569127">
        <ele>492.8</ele>
        <time>1970-01-01T01:22:59.000Z</time>
      </trkpt>
      <trkpt lat="43.025731" lon="0.569076">
        <ele>491.8</ele>
        <time>1970-01-01T01:23:00.000Z</time>
      </trkpt>
      <trkpt lat="43.025704" lon="0.569036">
        <ele>490.6</ele>
        <time>1970-01-01T01:23:02.000Z</time>
      </trkpt>
      <trkpt lat="43.02565" lon="0.569102">
        <ele>489.4</ele>
        <time>1970-01-01T01:23:05.000Z</time>
      </trkpt>
      <trkpt lat="43.025619" lon="0.569199">
        <ele>488.2</ele>
        <time>1970-01-01T01:23:07.000Z</time>
      </trkpt>
      <trkpt lat="43.025588" lon="0.56932">
        <ele>487</ele>
        <time>1970-01-01T01:23:09.000Z</time>
      </trkpt>
      <trkpt lat="43.025531" lon="0.569535">
        <ele>485.8</ele>
        <time>1970-01-01T01:23:12.000Z</time>
      </trkpt>
      <trkpt lat="43.025512" lon="0.56961">
        <ele>485.4</ele>
        <time>1970-01-01T01:23:13.000Z</time>
      </trkpt>
      <trkpt lat="43.025431" lon="0.569841">
        <ele>485</ele>
        <time>1970-01-01T01:23:16.000Z</time>
      </trkpt>
      <trkpt lat="43.025405" lon="0.569998">
        <ele>484.6</ele>
        <time>1970-01-01T01:23:18.000Z</time>
      </trkpt>
      <trkpt lat="43.025421" lon="0.570312">
        <ele>483.6</ele>
        <time>1970-01-01T01:23:22.000Z</time>
      </trkpt>
      <trkpt lat="43.025443" lon="0.570405">
        <ele>482.6</ele>
        <time>1970-01-01T01:23:26.000Z</time>
      </trkpt>
      <trkpt lat="43.025449" lon="0.57046">
        <ele>482.4</ele>
        <time>1970-01-01T01:23:49.000Z</time>
      </trkpt>
      <trkpt lat="43.025493" lon="0.57085">
        <ele>482</ele>
        <time>1970-01-01T01:23:57.000Z</time>
      </trkpt>
      <trkpt lat="43.02545" lon="0.571113">
        <ele>481.4</ele>
        <time>1970-01-01T01:24:01.000Z</time>
      </trkpt>
      <trkpt lat="43.025445" lon="0.571185">
        <ele>481.2</ele>
        <time>1970-01-01T01:24:02.000Z</time>
      </trkpt>
      <trkpt lat="43.025445" lon="0.571664">
        <ele>480.2</ele>
        <time>1970-01-01T01:24:09.000Z</time>
      </trkpt>
      <trkpt lat="43.025472" lon="0.571937">
        <ele>480.2</ele>
        <time>1970-01-01T01:24:13.000Z</time>
      </trkpt>
      <trkpt lat="43.025538" lon="0.572279">
        <ele>480</ele>
        <time>1970-01-01T01:24:18.000Z</time>
      </trkpt>
      <trkpt lat="43.025599" lon="0.572484">
        <ele>479.6</ele>
        <time>1970-01-01T01:24:21.000Z</time>
      </trkpt>
      <trkpt lat="43.025616" lon="0.57267">
        <ele>479</ele>
        <time>1970-01-01T01:24:24.000Z</time>
      </trkpt>
      <trkpt lat="43.025612" lon="0.572725">
        <ele>478.8</ele>
        <time>1970-01-01T01:24:25.000Z</time>
      </trkpt>
      <trkpt lat="43.025667" lon="0.572891">
        <ele>478.8</ele>
        <time>1970-01-01T01:24:30.000Z</time>
      </trkpt>
      <trkpt lat="43.026006" lon="0.573474">
        <ele>478.6</ele>
        <time>1970-01-01T01:24:47.000Z</time>
      </trkpt>
      <trkpt lat="43.026015" lon="0.573664">
        <ele>478.4</ele>
        <time>1970-01-01T01:24:51.000Z</time>
      </trkpt>
      <trkpt lat="43.026125" lon="0.573841">
        <ele>478.2</ele>
        <time>1970-01-01T01:24:55.000Z</time>
      </trkpt>
      <trkpt lat="43.026162" lon="0.573876">
        <ele>478.2</ele>
        <time>1970-01-01T01:24:56.000Z</time>
      </trkpt>
      <trkpt lat="43.026311" lon="0.574007">
        <ele>478</ele>
        <time>1970-01-01T01:25:00.000Z</time>
      </trkpt>
      <trkpt lat="43.02656" lon="0.5742">
        <ele>478</ele>
        <time>1970-01-01T01:25:08.000Z</time>
      </trkpt>
      <trkpt lat="43.026608" lon="0.574345">
        <ele>477.6</ele>
        <time>1970-01-01T01:25:13.000Z</time>
      </trkpt>
      <trkpt lat="43.026662" lon="0.574561">
        <ele>477.4</ele>
        <time>1970-01-01T01:25:20.000Z</time>
      </trkpt>
      <trkpt lat="43.026666" lon="0.574599">
        <ele>477.2</ele>
        <time>1970-01-01T01:25:22.000Z</time>
      </trkpt>
      <trkpt lat="43.026727" lon="0.574764">
        <ele>477</ele>
        <time>1970-01-01T01:25:31.000Z</time>
      </trkpt>
      <trkpt lat="43.026825" lon="0.57481">
        <ele>476.8</ele>
        <time>1970-01-01T01:25:36.000Z</time>
      </trkpt>
      <trkpt lat="43.027119" lon="0.575439">
        <ele>476.6</ele>
        <time>1970-01-01T01:25:56.000Z</time>
      </trkpt>
      <trkpt lat="43.027377" lon="0.576111">
        <ele>476.8</ele>
        <time>1970-01-01T01:26:12.000Z</time>
      </trkpt>
      <trkpt lat="43.02737" lon="0.576273">
        <ele>477</ele>
        <time>1970-01-01T01:26:16.000Z</time>
      </trkpt>
      <trkpt lat="43.027393" lon="0.57664">
        <ele>476.4</ele>
        <time>1970-01-01T01:26:24.000Z</time>
      </trkpt>
      <trkpt lat="43.027433" lon="0.57675">
        <ele>476.2</ele>
        <time>1970-01-01T01:26:26.000Z</time>
      </trkpt>
      <trkpt lat="43.02748" lon="0.576848">
        <ele>476</ele>
        <time>1970-01-01T01:26:28.000Z</time>
      </trkpt>
      <trkpt lat="43.027871" lon="0.57737">
        <ele>475.4</ele>
        <time>1970-01-01T01:26:40.000Z</time>
      </trkpt>
      <trkpt lat="43.027968" lon="0.57748">
        <ele>475.4</ele>
        <time>1970-01-01T01:26:43.000Z</time>
      </trkpt>
      <trkpt lat="43.028205" lon="0.57805">
        <ele>475.2</ele>
        <time>1970-01-01T01:26:58.000Z</time>
      </trkpt>
      <trkpt lat="43.028183" lon="0.578155">
        <ele>475</ele>
        <time>1970-01-01T01:27:00.000Z</time>
      </trkpt>
      <trkpt lat="43.028122" lon="0.578525">
        <ele>475</ele>
        <time>1970-01-01T01:27:07.000Z</time>
      </trkpt>
      <trkpt lat="43.028137" lon="0.579126">
        <ele>475</ele>
        <time>1970-01-01T01:27:17.000Z</time>
      </trkpt>
      <trkpt lat="43.028301" lon="0.579847">
        <ele>474.8</ele>
        <time>1970-01-01T01:27:29.000Z</time>
      </trkpt>
      <trkpt lat="43.028461" lon="0.580583">
        <ele>474.6</ele>
        <time>1970-01-01T01:27:40.000Z</time>
      </trkpt>
      <trkpt lat="43.028537" lon="0.581012">
        <ele>474</ele>
        <time>1970-01-01T01:27:46.000Z</time>
      </trkpt>
      <trkpt lat="43.02865" lon="0.58179">
        <ele>473.6</ele>
        <time>1970-01-01T01:27:57.000Z</time>
      </trkpt>
      <trkpt lat="43.028791" lon="0.58237">
        <ele>473.8</ele>
        <time>1970-01-01T01:28:06.000Z</time>
      </trkpt>
      <trkpt lat="43.028956" lon="0.583072">
        <ele>474</ele>
        <time>1970-01-01T01:28:18.000Z</time>
      </trkpt>
      <trkpt lat="43.029128" lon="0.583772">
        <ele>473.8</ele>
        <time>1970-01-01T01:28:30.000Z</time>
      </trkpt>
      <trkpt lat="43.029216" lon="0.584522">
        <ele>473.8</ele>
        <time>1970-01-01T01:28:43.000Z</time>
      </trkpt>
      <trkpt lat="43.029158" lon="0.585296">
        <ele>473.8</ele>
        <time>1970-01-01T01:28:59.000Z</time>
      </trkpt>
      <trkpt lat="43.029029" lon="0.58604">
        <ele>473.6</ele>
        <time>1970-01-01T01:29:10.000Z</time>
      </trkpt>
      <trkpt lat="43.029017" lon="0.586113">
        <ele>473.4</ele>
        <time>1970-01-01T01:29:11.000Z</time>
      </trkpt>
      <trkpt lat="43.028891" lon="0.58685">
        <ele>474.4</ele>
        <time>1970-01-01T01:29:21.000Z</time>
      </trkpt>
      <trkpt lat="43.028879" lon="0.586923">
        <ele>474.4</ele>
        <time>1970-01-01T01:29:22.000Z</time>
      </trkpt>
      <trkpt lat="43.028812" lon="0.587345">
        <ele>475.4</ele>
        <time>1970-01-01T01:29:28.000Z</time>
      </trkpt>
      <trkpt lat="43.028755" lon="0.587659">
        <ele>477.2</ele>
        <time>1970-01-01T01:29:33.000Z</time>
      </trkpt>
      <trkpt lat="43.0287" lon="0.587954">
        <ele>478.2</ele>
        <time>1970-01-01T01:29:38.000Z</time>
      </trkpt>
      <trkpt lat="43.028528" lon="0.588722">
        <ele>477.6</ele>
        <time>1970-01-01T01:29:51.000Z</time>
      </trkpt>
      <trkpt lat="43.028491" lon="0.588877">
        <ele>477.2</ele>
        <time>1970-01-01T01:29:53.000Z</time>
      </trkpt>
      <trkpt lat="43.02827" lon="0.589468">
        <ele>476</ele>
        <time>1970-01-01T01:30:00.000Z</time>
      </trkpt>
      <trkpt lat="43.027974" lon="0.59011">
        <ele>475.4</ele>
        <time>1970-01-01T01:30:08.000Z</time>
      </trkpt>
      <trkpt lat="43.027711" lon="0.590826">
        <ele>475.4</ele>
        <time>1970-01-01T01:30:17.000Z</time>
      </trkpt>
      <trkpt lat="43.02763" lon="0.591129">
        <ele>475.4</ele>
        <time>1970-01-01T01:30:21.000Z</time>
      </trkpt>
      <trkpt lat="43.027624" lon="0.591515">
        <ele>477.2</ele>
        <time>1970-01-01T01:30:30.000Z</time>
      </trkpt>
      <trkpt lat="43.027659" lon="0.591635">
        <ele>477.2</ele>
        <time>1970-01-01T01:30:34.000Z</time>
      </trkpt>
      <trkpt lat="43.027856" lon="0.591833">
        <ele>478.2</ele>
        <time>1970-01-01T01:30:42.000Z</time>
      </trkpt>
      <trkpt lat="43.028094" lon="0.592151">
        <ele>479.4</ele>
        <time>1970-01-01T01:30:52.000Z</time>
      </trkpt>
      <trkpt lat="43.028311" lon="0.592409">
        <ele>480.4</ele>
        <time>1970-01-01T01:31:01.000Z</time>
      </trkpt>
      <trkpt lat="43.028466" lon="0.592615">
        <ele>481.2</ele>
        <time>1970-01-01T01:31:10.000Z</time>
      </trkpt>
      <trkpt lat="43.028489" lon="0.592659">
        <ele>481.2</ele>
        <time>1970-01-01T01:31:17.000Z</time>
      </trkpt>
      <trkpt lat="43.028634" lon="0.592863">
        <ele>481.6</ele>
        <time>1970-01-01T01:31:24.000Z</time>
      </trkpt>
      <trkpt lat="43.029034" lon="0.593443">
        <ele>481.8</ele>
        <time>1970-01-01T01:31:38.000Z</time>
      </trkpt>
      <trkpt lat="43.029344" lon="0.59407">
        <ele>481</ele>
        <time>1970-01-01T01:31:49.000Z</time>
      </trkpt>
      <trkpt lat="43.029426" lon="0.594281">
        <ele>480.6</ele>
        <time>1970-01-01T01:31:52.000Z</time>
      </trkpt>
      <trkpt lat="43.029509" lon="0.594498">
        <ele>480.2</ele>
        <time>1970-01-01T01:31:55.000Z</time>
      </trkpt>
      <trkpt lat="43.029556" lon="0.59471">
        <ele>479.8</ele>
        <time>1970-01-01T01:31:58.000Z</time>
      </trkpt>
      <trkpt lat="43.029705" lon="0.594914">
        <ele>479.4</ele>
        <time>1970-01-01T01:32:02.000Z</time>
      </trkpt>
      <trkpt lat="43.029875" lon="0.594978">
        <ele>478.6</ele>
        <time>1970-01-01T01:32:05.000Z</time>
      </trkpt>
      <trkpt lat="43.02994" lon="0.59499">
        <ele>478.2</ele>
        <time>1970-01-01T01:32:06.000Z</time>
      </trkpt>
      <trkpt lat="43.030224" lon="0.594961">
        <ele>476.8</ele>
        <time>1970-01-01T01:32:10.000Z</time>
      </trkpt>
      <trkpt lat="43.030347" lon="0.594939">
        <ele>475.6</ele>
        <time>1970-01-01T01:32:12.000Z</time>
      </trkpt>
      <trkpt lat="43.030421" lon="0.59497">
        <ele>474.8</ele>
        <time>1970-01-01T01:32:14.000Z</time>
      </trkpt>
      <trkpt lat="43.030423" lon="0.59501">
        <ele>474.4</ele>
        <time>1970-01-01T01:32:15.000Z</time>
      </trkpt>
      <trkpt lat="43.030326" lon="0.595058">
        <ele>473.8</ele>
        <time>1970-01-01T01:32:18.000Z</time>
      </trkpt>
      <trkpt lat="43.030241" lon="0.595085">
        <ele>473.6</ele>
        <time>1970-01-01T01:32:20.000Z</time>
      </trkpt>
      <trkpt lat="43.030022" lon="0.595132">
        <ele>472.8</ele>
        <time>1970-01-01T01:32:24.000Z</time>
      </trkpt>
      <trkpt lat="43.029963" lon="0.595151">
        <ele>472.6</ele>
        <time>1970-01-01T01:32:25.000Z</time>
      </trkpt>
      <trkpt lat="43.029702" lon="0.595189">
        <ele>471.6</ele>
        <time>1970-01-01T01:32:29.000Z</time>
      </trkpt>
      <trkpt lat="43.029566" lon="0.595198">
        <ele>470.8</ele>
        <time>1970-01-01T01:32:31.000Z</time>
      </trkpt>
      <trkpt lat="43.0295" lon="0.595224">
        <ele>470.4</ele>
        <time>1970-01-01T01:32:32.000Z</time>
      </trkpt>
      <trkpt lat="43.029345" lon="0.595402">
        <ele>470</ele>
        <time>1970-01-01T01:32:35.000Z</time>
      </trkpt>
      <trkpt lat="43.029177" lon="0.595651">
        <ele>470</ele>
        <time>1970-01-01T01:32:39.000Z</time>
      </trkpt>
      <trkpt lat="43.028909" lon="0.596335">
        <ele>470.6</ele>
        <time>1970-01-01T01:32:50.000Z</time>
      </trkpt>
      <trkpt lat="43.028723" lon="0.596375">
        <ele>471</ele>
        <time>1970-01-01T01:32:54.000Z</time>
      </trkpt>
      <trkpt lat="43.028231" lon="0.596307">
        <ele>471.6</ele>
        <time>1970-01-01T01:33:04.000Z</time>
      </trkpt>
      <trkpt lat="43.027651" lon="0.596321">
        <ele>472</ele>
        <time>1970-01-01T01:33:15.000Z</time>
      </trkpt>
      <trkpt lat="43.027105" lon="0.596335">
        <ele>472.2</ele>
        <time>1970-01-01T01:33:25.000Z</time>
      </trkpt>
      <trkpt lat="43.02656" lon="0.596248">
        <ele>472.2</ele>
        <time>1970-01-01T01:33:35.000Z</time>
      </trkpt>
      <trkpt lat="43.026013" lon="0.59612">
        <ele>472</ele>
        <time>1970-01-01T01:33:45.000Z</time>
      </trkpt>
      <trkpt lat="43.025852" lon="0.596082">
        <ele>471.6</ele>
        <time>1970-01-01T01:33:48.000Z</time>
      </trkpt>
      <trkpt lat="43.025738" lon="0.596198">
        <ele>470.4</ele>
        <time>1970-01-01T01:33:51.000Z</time>
      </trkpt>
      <trkpt lat="43.025723" lon="0.596268">
        <ele>469.6</ele>
        <time>1970-01-01T01:33:52.000Z</time>
      </trkpt>
      <trkpt lat="43.025708" lon="0.596337">
        <ele>469</ele>
        <time>1970-01-01T01:33:53.000Z</time>
      </trkpt>
      <trkpt lat="43.025678" lon="0.596473">
        <ele>467.4</ele>
        <time>1970-01-01T01:33:55.000Z</time>
      </trkpt>
      <trkpt lat="43.025645" lon="0.59661">
        <ele>465.8</ele>
        <time>1970-01-01T01:33:57.000Z</time>
      </trkpt>
      <trkpt lat="43.025611" lon="0.596769">
        <ele>464.6</ele>
        <time>1970-01-01T01:33:59.000Z</time>
      </trkpt>
      <trkpt lat="43.025548" lon="0.597057">
        <ele>463</ele>
        <time>1970-01-01T01:34:02.000Z</time>
      </trkpt>
      <trkpt lat="43.025507" lon="0.597268">
        <ele>461.8</ele>
        <time>1970-01-01T01:34:04.000Z</time>
      </trkpt>
      <trkpt lat="43.02544" lon="0.597577">
        <ele>460.6</ele>
        <time>1970-01-01T01:34:07.000Z</time>
      </trkpt>
      <trkpt lat="43.025348" lon="0.598052">
        <ele>459.8</ele>
        <time>1970-01-01T01:34:12.000Z</time>
      </trkpt>
      <trkpt lat="43.025327" lon="0.598142">
        <ele>459.4</ele>
        <time>1970-01-01T01:34:13.000Z</time>
      </trkpt>
      <trkpt lat="43.025205" lon="0.598946">
        <ele>458.6</ele>
        <time>1970-01-01T01:34:22.000Z</time>
      </trkpt>
      <trkpt lat="43.02521" lon="0.599295">
        <ele>458.8</ele>
        <time>1970-01-01T01:34:26.000Z</time>
      </trkpt>
      <trkpt lat="43.025123" lon="0.599601">
        <ele>458.8</ele>
        <time>1970-01-01T01:34:30.000Z</time>
      </trkpt>
      <trkpt lat="43.024881" lon="0.600308">
        <ele>458.8</ele>
        <time>1970-01-01T01:34:40.000Z</time>
      </trkpt>
      <trkpt lat="43.024643" lon="0.600984">
        <ele>459</ele>
        <time>1970-01-01T01:34:50.000Z</time>
      </trkpt>
      <trkpt lat="43.024379" lon="0.601691">
        <ele>459.2</ele>
        <time>1970-01-01T01:35:01.000Z</time>
      </trkpt>
      <trkpt lat="43.024093" lon="0.602394">
        <ele>459.4</ele>
        <time>1970-01-01T01:35:12.000Z</time>
      </trkpt>
      <trkpt lat="43.023977" lon="0.602704">
        <ele>459.6</ele>
        <time>1970-01-01T01:35:17.000Z</time>
      </trkpt>
      <trkpt lat="43.023834" lon="0.603383">
        <ele>460</ele>
        <time>1970-01-01T01:35:33.000Z</time>
      </trkpt>
      <trkpt lat="43.023905" lon="0.60416">
        <ele>460.2</ele>
        <time>1970-01-01T01:35:47.000Z</time>
      </trkpt>
      <trkpt lat="43.023988" lon="0.604492">
        <ele>460.2</ele>
        <time>1970-01-01T01:35:53.000Z</time>
      </trkpt>
      <trkpt lat="43.024192" lon="0.604969">
        <ele>460.8</ele>
        <time>1970-01-01T01:36:07.000Z</time>
      </trkpt>
      <trkpt lat="43.024273" lon="0.604953">
        <ele>460.6</ele>
        <time>1970-01-01T01:36:26.000Z</time>
      </trkpt>
      <trkpt lat="43.0244" lon="0.604814">
        <ele>460.4</ele>
        <time>1970-01-01T01:36:34.000Z</time>
      </trkpt>
      <trkpt lat="43.024439" lon="0.604721">
        <ele>460.4</ele>
        <time>1970-01-01T01:36:39.000Z</time>
      </trkpt>
      <trkpt lat="43.024435" lon="0.604711">
        <ele>460.2</ele>
        <time>1970-01-01T01:36:41.000Z</time>
      </trkpt>
      <trkpt lat="43.024402" lon="0.604733">
        <ele>460.6</ele>
        <time>1970-01-01T01:36:49.000Z</time>
      </trkpt>
      <trkpt lat="43.024391" lon="0.604754">
        <ele>460.4</ele>
        <time>1970-01-01T01:36:53.000Z</time>
      </trkpt>
      <trkpt lat="43.024788" lon="0.604857">
        <ele>460.4</ele>
        <time>1970-01-01T01:52:43.000Z</time>
      </trkpt>
      <trkpt lat="43.024872" lon="0.604988">
        <ele>461</ele>
        <time>1970-01-01T01:52:48.000Z</time>
      </trkpt>
      <trkpt lat="43.025095" lon="0.605367">
        <ele>461.2</ele>
        <time>1970-01-01T01:52:58.000Z</time>
      </trkpt>
      <trkpt lat="43.025302" lon="0.605829">
        <ele>461</ele>
        <time>1970-01-01T01:53:08.000Z</time>
      </trkpt>
      <trkpt lat="43.025437" lon="0.606083">
        <ele>460.2</ele>
        <time>1970-01-01T01:53:13.000Z</time>
      </trkpt>
      <trkpt lat="43.025716" lon="0.606605">
        <ele>459.2</ele>
        <time>1970-01-01T01:53:22.000Z</time>
      </trkpt>
      <trkpt lat="43.026066" lon="0.607175">
        <ele>458.6</ele>
        <time>1970-01-01T01:53:37.000Z</time>
      </trkpt>
      <trkpt lat="43.02645" lon="0.607733">
        <ele>458.4</ele>
        <time>1970-01-01T01:53:51.000Z</time>
      </trkpt>
      <trkpt lat="43.026829" lon="0.608263">
        <ele>458.8</ele>
        <time>1970-01-01T01:54:02.000Z</time>
      </trkpt>
      <trkpt lat="43.027237" lon="0.608843">
        <ele>458.6</ele>
        <time>1970-01-01T01:54:13.000Z</time>
      </trkpt>
      <trkpt lat="43.027622" lon="0.609429">
        <ele>458.6</ele>
        <time>1970-01-01T01:54:23.000Z</time>
      </trkpt>
      <trkpt lat="43.027955" lon="0.610026">
        <ele>459.8</ele>
        <time>1970-01-01T01:54:34.000Z</time>
      </trkpt>
      <trkpt lat="43.028149" lon="0.610722">
        <ele>460.4</ele>
        <time>1970-01-01T01:54:47.000Z</time>
      </trkpt>
      <trkpt lat="43.028138" lon="0.611016">
        <ele>460.2</ele>
        <time>1970-01-01T01:54:53.000Z</time>
      </trkpt>
      <trkpt lat="43.028262" lon="0.61121">
        <ele>460</ele>
        <time>1970-01-01T01:54:57.000Z</time>
      </trkpt>
      <trkpt lat="43.028424" lon="0.611618">
        <ele>458.8</ele>
        <time>1970-01-01T01:55:03.000Z</time>
      </trkpt>
      <trkpt lat="43.028455" lon="0.61177">
        <ele>458.4</ele>
        <time>1970-01-01T01:55:05.000Z</time>
      </trkpt>
      <trkpt lat="43.028459" lon="0.612552">
        <ele>457.8</ele>
        <time>1970-01-01T01:55:15.000Z</time>
      </trkpt>
      <trkpt lat="43.028369" lon="0.613317">
        <ele>457.4</ele>
        <time>1970-01-01T01:55:25.000Z</time>
      </trkpt>
      <trkpt lat="43.028311" lon="0.613956">
        <ele>457.8</ele>
        <time>1970-01-01T01:55:34.000Z</time>
      </trkpt>
      <trkpt lat="43.028237" lon="0.614417">
        <ele>457.6</ele>
        <time>1970-01-01T01:55:41.000Z</time>
      </trkpt>
      <trkpt lat="43.028289" lon="0.614741">
        <ele>457.8</ele>
        <time>1970-01-01T01:55:46.000Z</time>
      </trkpt>
      <trkpt lat="43.028501" lon="0.615432">
        <ele>458.2</ele>
        <time>1970-01-01T01:55:57.000Z</time>
      </trkpt>
      <trkpt lat="43.028686" lon="0.616136">
        <ele>458.6</ele>
        <time>1970-01-01T01:56:08.000Z</time>
      </trkpt>
      <trkpt lat="43.02893" lon="0.6168">
        <ele>458.8</ele>
        <time>1970-01-01T01:56:19.000Z</time>
      </trkpt>
      <trkpt lat="43.029185" lon="0.617444">
        <ele>459.6</ele>
        <time>1970-01-01T01:56:31.000Z</time>
      </trkpt>
      <trkpt lat="43.029172" lon="0.617331">
        <ele>459.4</ele>
        <time>1970-01-01T01:56:35.000Z</time>
      </trkpt>
      <trkpt lat="43.029107" lon="0.617006">
        <ele>458.8</ele>
        <time>1970-01-01T01:56:42.000Z</time>
      </trkpt>
      <trkpt lat="43.02955" lon="0.616578">
        <ele>458.4</ele>
        <time>1970-01-01T01:56:53.000Z</time>
      </trkpt>
      <trkpt lat="43.029636" lon="0.616493">
        <ele>458.4</ele>
        <time>1970-01-01T01:56:55.000Z</time>
      </trkpt>
      <trkpt lat="43.029787" lon="0.616327">
        <ele>458</ele>
        <time>1970-01-01T01:56:59.000Z</time>
      </trkpt>
      <trkpt lat="43.029954" lon="0.616086">
        <ele>458</ele>
        <time>1970-01-01T01:57:04.000Z</time>
      </trkpt>
      <trkpt lat="43.030006" lon="0.615972">
        <ele>458.2</ele>
        <time>1970-01-01T01:57:06.000Z</time>
      </trkpt>
      <trkpt lat="43.029955" lon="0.615576">
        <ele>458.2</ele>
        <time>1970-01-01T01:57:12.000Z</time>
      </trkpt>
      <trkpt lat="43.029804" lon="0.615196">
        <ele>458.2</ele>
        <time>1970-01-01T01:57:18.000Z</time>
      </trkpt>
      <trkpt lat="43.02989" lon="0.614977">
        <ele>457.8</ele>
        <time>1970-01-01T01:57:23.000Z</time>
      </trkpt>
      <trkpt lat="43.030372" lon="0.614635">
        <ele>457.8</ele>
        <time>1970-01-01T01:57:34.000Z</time>
      </trkpt>
      <trkpt lat="43.030547" lon="0.614527">
        <ele>458</ele>
        <time>1970-01-01T01:57:38.000Z</time>
      </trkpt>
      <trkpt lat="43.030877" lon="0.614343">
        <ele>457.8</ele>
        <time>1970-01-01T01:57:45.000Z</time>
      </trkpt>
      <trkpt lat="43.031069" lon="0.614257">
        <ele>457.8</ele>
        <time>1970-01-01T01:57:49.000Z</time>
      </trkpt>
      <trkpt lat="43.031117" lon="0.61425">
        <ele>457.4</ele>
        <time>1970-01-01T01:57:52.000Z</time>
      </trkpt>
      <trkpt lat="43.031199" lon="0.614288">
        <ele>457.4</ele>
        <time>1970-01-01T02:01:37.000Z</time>
      </trkpt>
      <trkpt lat="43.031232" lon="0.614285">
        <ele>457.4</ele>
        <time>1970-01-01T02:01:42.000Z</time>
      </trkpt>
      <trkpt lat="43.031135" lon="0.614277">
        <ele>457.2</ele>
        <time>1970-01-01T02:02:39.000Z</time>
      </trkpt>
      <trkpt lat="43.030897" lon="0.614343">
        <ele>457</ele>
        <time>1970-01-01T02:02:53.000Z</time>
      </trkpt>
      <trkpt lat="43.031127" lon="0.614255">
        <ele>457.2</ele>
        <time>1970-01-01T02:03:02.000Z</time>
      </trkpt>
      <trkpt lat="43.031232" lon="0.614265">
        <ele>457.2</ele>
        <time>1970-01-01T02:03:08.000Z</time>
      </trkpt>
      <trkpt lat="43.031257" lon="0.614262">
        <ele>457.2</ele>
        <time>1970-01-01T02:03:24.000Z</time>
      </trkpt>
      <trkpt lat="43.03179" lon="0.613972">
        <ele>457.6</ele>
        <time>1970-01-01T02:03:41.000Z</time>
      </trkpt>
      <trkpt lat="43.032281" lon="0.613636">
        <ele>458.8</ele>
        <time>1970-01-01T02:04:00.000Z</time>
      </trkpt>
      <trkpt lat="43.032322" lon="0.613629">
        <ele>459.4</ele>
        <time>1970-01-01T02:04:02.000Z</time>
      </trkpt>
      <trkpt lat="43.032403" lon="0.613653">
        <ele>460.4</ele>
        <time>1970-01-01T02:04:07.000Z</time>
      </trkpt>
      <trkpt lat="43.03249" lon="0.613698">
        <ele>461.6</ele>
        <time>1970-01-01T02:04:12.000Z</time>
      </trkpt>
      <trkpt lat="43.032622" lon="0.613715">
        <ele>462.8</ele>
        <time>1970-01-01T02:04:18.000Z</time>
      </trkpt>
      <trkpt lat="43.032835" lon="0.613776">
        <ele>463.8</ele>
        <time>1970-01-01T02:04:28.000Z</time>
      </trkpt>
      <trkpt lat="43.033038" lon="0.614218">
        <ele>464.8</ele>
        <time>1970-01-01T02:04:42.000Z</time>
      </trkpt>
      <trkpt lat="43.033071" lon="0.614342">
        <ele>466.2</ele>
        <time>1970-01-01T02:04:46.000Z</time>
      </trkpt>
      <trkpt lat="43.033061" lon="0.614471">
        <ele>467.2</ele>
        <time>1970-01-01T02:04:51.000Z</time>
      </trkpt>
      <trkpt lat="43.033045" lon="0.614686">
        <ele>468.2</ele>
        <time>1970-01-01T02:04:59.000Z</time>
      </trkpt>
      <trkpt lat="43.033019" lon="0.614875">
        <ele>469.4</ele>
        <time>1970-01-01T02:05:06.000Z</time>
      </trkpt>
      <trkpt lat="43.032974" lon="0.615033">
        <ele>470.4</ele>
        <time>1970-01-01T02:05:12.000Z</time>
      </trkpt>
      <trkpt lat="43.032905" lon="0.61527">
        <ele>471.4</ele>
        <time>1970-01-01T02:05:19.000Z</time>
      </trkpt>
      <trkpt lat="43.032843" lon="0.615638">
        <ele>472.6</ele>
        <time>1970-01-01T02:05:29.000Z</time>
      </trkpt>
      <trkpt lat="43.032817" lon="0.615891">
        <ele>473.8</ele>
        <time>1970-01-01T02:05:36.000Z</time>
      </trkpt>
      <trkpt lat="43.032708" lon="0.616407">
        <ele>475</ele>
        <time>1970-01-01T02:05:48.000Z</time>
      </trkpt>
      <trkpt lat="43.032716" lon="0.616663">
        <ele>476.2</ele>
        <time>1970-01-01T02:05:54.000Z</time>
      </trkpt>
      <trkpt lat="43.032695" lon="0.616858">
        <ele>477.4</ele>
        <time>1970-01-01T02:05:59.000Z</time>
      </trkpt>
      <trkpt lat="43.032681" lon="0.617007">
        <ele>478.4</ele>
        <time>1970-01-01T02:06:03.000Z</time>
      </trkpt>
      <trkpt lat="43.032828" lon="0.617721">
        <ele>478.4</ele>
        <time>1970-01-01T02:06:18.000Z</time>
      </trkpt>
      <trkpt lat="43.032903" lon="0.617981">
        <ele>479.6</ele>
        <time>1970-01-01T02:06:24.000Z</time>
      </trkpt>
      <trkpt lat="43.032956" lon="0.618234">
        <ele>480.6</ele>
        <time>1970-01-01T02:06:30.000Z</time>
      </trkpt>
      <trkpt lat="43.032954" lon="0.618414">
        <ele>480</ele>
        <time>1970-01-01T02:06:33.000Z</time>
      </trkpt>
      <trkpt lat="43.032857" lon="0.618525">
        <ele>479.4</ele>
        <time>1970-01-01T02:06:36.000Z</time>
      </trkpt>
      <trkpt lat="43.032759" lon="0.618869">
        <ele>478.6</ele>
        <time>1970-01-01T02:06:47.000Z</time>
      </trkpt>
      <trkpt lat="43.032786" lon="0.618911">
        <ele>478.8</ele>
        <time>1970-01-01T02:06:48.000Z</time>
      </trkpt>
      <trkpt lat="43.032845" lon="0.61922">
        <ele>479</ele>
        <time>1970-01-01T02:06:54.000Z</time>
      </trkpt>
      <trkpt lat="43.032824" lon="0.619971">
        <ele>479.4</ele>
        <time>1970-01-01T02:07:08.000Z</time>
      </trkpt>
      <trkpt lat="43.032804" lon="0.620652">
        <ele>480.4</ele>
        <time>1970-01-01T02:07:21.000Z</time>
      </trkpt>
      <trkpt lat="43.032808" lon="0.620938">
        <ele>481.6</ele>
        <time>1970-01-01T02:07:27.000Z</time>
      </trkpt>
      <trkpt lat="43.032812" lon="0.621161">
        <ele>482.6</ele>
        <time>1970-01-01T02:07:32.000Z</time>
      </trkpt>
      <trkpt lat="43.032816" lon="0.621276">
        <ele>483.8</ele>
        <time>1970-01-01T02:07:35.000Z</time>
      </trkpt>
      <trkpt lat="43.032784" lon="0.621393">
        <ele>485</ele>
        <time>1970-01-01T02:07:39.000Z</time>
      </trkpt>
      <trkpt lat="43.032734" lon="0.621483">
        <ele>486.2</ele>
        <time>1970-01-01T02:07:43.000Z</time>
      </trkpt>
      <trkpt lat="43.03266" lon="0.62157">
        <ele>487.4</ele>
        <time>1970-01-01T02:07:47.000Z</time>
      </trkpt>
      <trkpt lat="43.032598" lon="0.621664">
        <ele>488.4</ele>
        <time>1970-01-01T02:07:51.000Z</time>
      </trkpt>
      <trkpt lat="43.032589" lon="0.621706">
        <ele>488.8</ele>
        <time>1970-01-01T02:07:53.000Z</time>
      </trkpt>
      <trkpt lat="43.032643" lon="0.621745">
        <ele>489.6</ele>
        <time>1970-01-01T02:07:57.000Z</time>
      </trkpt>
      <trkpt lat="43.032686" lon="0.621721">
        <ele>489.6</ele>
        <time>1970-01-01T02:07:59.000Z</time>
      </trkpt>
      <trkpt lat="43.033116" lon="0.621416">
        <ele>488.4</ele>
        <time>1970-01-01T02:08:14.000Z</time>
      </trkpt>
      <trkpt lat="43.033443" lon="0.621168">
        <ele>487.4</ele>
        <time>1970-01-01T02:08:26.000Z</time>
      </trkpt>
      <trkpt lat="43.033474" lon="0.621124">
        <ele>487.6</ele>
        <time>1970-01-01T02:08:27.000Z</time>
      </trkpt>
      <trkpt lat="43.033616" lon="0.620846">
        <ele>487</ele>
        <time>1970-01-01T02:08:32.000Z</time>
      </trkpt>
      <trkpt lat="43.033832" lon="0.62061">
        <ele>486.4</ele>
        <time>1970-01-01T02:08:37.000Z</time>
      </trkpt>
      <trkpt lat="43.034046" lon="0.620386">
        <ele>485</ele>
        <time>1970-01-01T02:08:41.000Z</time>
      </trkpt>
      <trkpt lat="43.034221" lon="0.620166">
        <ele>483.8</ele>
        <time>1970-01-01T02:08:44.000Z</time>
      </trkpt>
      <trkpt lat="43.034341" lon="0.619999">
        <ele>482.4</ele>
        <time>1970-01-01T02:08:46.000Z</time>
      </trkpt>
      <trkpt lat="43.034452" lon="0.619814">
        <ele>481.4</ele>
        <time>1970-01-01T02:08:48.000Z</time>
      </trkpt>
      <trkpt lat="43.034589" lon="0.619494">
        <ele>480</ele>
        <time>1970-01-01T02:08:51.000Z</time>
      </trkpt>
      <trkpt lat="43.03469" lon="0.619163">
        <ele>478.8</ele>
        <time>1970-01-01T02:08:54.000Z</time>
      </trkpt>
      <trkpt lat="43.034906" lon="0.618581">
        <ele>477.8</ele>
        <time>1970-01-01T02:09:00.000Z</time>
      </trkpt>
      <trkpt lat="43.03507" lon="0.618103">
        <ele>477</ele>
        <time>1970-01-01T02:09:05.000Z</time>
      </trkpt>
      <trkpt lat="43.035155" lon="0.617923">
        <ele>476.4</ele>
        <time>1970-01-01T02:09:07.000Z</time>
      </trkpt>
      <trkpt lat="43.035429" lon="0.617275">
        <ele>475.8</ele>
        <time>1970-01-01T02:09:14.000Z</time>
      </trkpt>
      <trkpt lat="43.035486" lon="0.616877">
        <ele>475.6</ele>
        <time>1970-01-01T02:09:18.000Z</time>
      </trkpt>
      <trkpt lat="43.035488" lon="0.616797">
        <ele>475.4</ele>
        <time>1970-01-01T02:09:19.000Z</time>
      </trkpt>
      <trkpt lat="43.035501" lon="0.616599">
        <ele>475</ele>
        <time>1970-01-01T02:09:22.000Z</time>
      </trkpt>
      <trkpt lat="43.035502" lon="0.616452">
        <ele>474.4</ele>
        <time>1970-01-01T02:09:24.000Z</time>
      </trkpt>
      <trkpt lat="43.035523" lon="0.615924">
        <ele>473.2</ele>
        <time>1970-01-01T02:09:30.000Z</time>
      </trkpt>
      <trkpt lat="43.035551" lon="0.615645">
        <ele>472.8</ele>
        <time>1970-01-01T02:09:33.000Z</time>
      </trkpt>
      <trkpt lat="43.035992" lon="0.615637">
        <ele>472</ele>
        <time>1970-01-01T02:09:41.000Z</time>
      </trkpt>
      <trkpt lat="43.036359" lon="0.615576">
        <ele>471.4</ele>
        <time>1970-01-01T02:09:47.000Z</time>
      </trkpt>
      <trkpt lat="43.036636" lon="0.615398">
        <ele>471</ele>
        <time>1970-01-01T02:09:52.000Z</time>
      </trkpt>
      <trkpt lat="43.03712" lon="0.615067">
        <ele>470.6</ele>
        <time>1970-01-01T02:10:01.000Z</time>
      </trkpt>
      <trkpt lat="43.037622" lon="0.614719">
        <ele>470.8</ele>
        <time>1970-01-01T02:10:11.000Z</time>
      </trkpt>
      <trkpt lat="43.038138" lon="0.614341">
        <ele>470.8</ele>
        <time>1970-01-01T02:10:22.000Z</time>
      </trkpt>
      <trkpt lat="43.038221" lon="0.614279">
        <ele>470.6</ele>
        <time>1970-01-01T02:10:24.000Z</time>
      </trkpt>
      <trkpt lat="43.038623" lon="0.614004">
        <ele>472.2</ele>
        <time>1970-01-01T02:10:35.000Z</time>
      </trkpt>
      <trkpt lat="43.038764" lon="0.613913">
        <ele>473.4</ele>
        <time>1970-01-01T02:10:40.000Z</time>
      </trkpt>
      <trkpt lat="43.038893" lon="0.613846">
        <ele>474.4</ele>
        <time>1970-01-01T02:10:45.000Z</time>
      </trkpt>
      <trkpt lat="43.03893" lon="0.613859">
        <ele>475.4</ele>
        <time>1970-01-01T02:10:47.000Z</time>
      </trkpt>
      <trkpt lat="43.038936" lon="0.613876">
        <ele>475.8</ele>
        <time>1970-01-01T02:10:48.000Z</time>
      </trkpt>
      <trkpt lat="43.039048" lon="0.614248">
        <ele>476.4</ele>
        <time>1970-01-01T02:11:00.000Z</time>
      </trkpt>
      <trkpt lat="43.039109" lon="0.61441">
        <ele>476.8</ele>
        <time>1970-01-01T02:11:04.000Z</time>
      </trkpt>
      <trkpt lat="43.039233" lon="0.614712">
        <ele>478</ele>
        <time>1970-01-01T02:11:12.000Z</time>
      </trkpt>
      <trkpt lat="43.039383" lon="0.615293">
        <ele>479</ele>
        <time>1970-01-01T02:11:27.000Z</time>
      </trkpt>
      <trkpt lat="43.039407" lon="0.615482">
        <ele>480</ele>
        <time>1970-01-01T02:11:32.000Z</time>
      </trkpt>
      <trkpt lat="43.039413" lon="0.61585">
        <ele>481.2</ele>
        <time>1970-01-01T02:11:41.000Z</time>
      </trkpt>
      <trkpt lat="43.039426" lon="0.61607">
        <ele>482.4</ele>
        <time>1970-01-01T02:11:46.000Z</time>
      </trkpt>
      <trkpt lat="43.039462" lon="0.616448">
        <ele>483.6</ele>
        <time>1970-01-01T02:11:54.000Z</time>
      </trkpt>
      <trkpt lat="43.039485" lon="0.616745">
        <ele>484.4</ele>
        <time>1970-01-01T02:12:01.000Z</time>
      </trkpt>
      <trkpt lat="43.039532" lon="0.616964">
        <ele>485.6</ele>
        <time>1970-01-01T02:12:07.000Z</time>
      </trkpt>
      <trkpt lat="43.03955" lon="0.617061">
        <ele>486.8</ele>
        <time>1970-01-01T02:12:10.000Z</time>
      </trkpt>
      <trkpt lat="43.039594" lon="0.617264">
        <ele>488</ele>
        <time>1970-01-01T02:12:16.000Z</time>
      </trkpt>
      <trkpt lat="43.039621" lon="0.617398">
        <ele>489</ele>
        <time>1970-01-01T02:12:20.000Z</time>
      </trkpt>
      <trkpt lat="43.039649" lon="0.617519">
        <ele>490.2</ele>
        <time>1970-01-01T02:12:24.000Z</time>
      </trkpt>
      <trkpt lat="43.039707" lon="0.617744">
        <ele>491.2</ele>
        <time>1970-01-01T02:12:31.000Z</time>
      </trkpt>
      <trkpt lat="43.039764" lon="0.617911">
        <ele>492.4</ele>
        <time>1970-01-01T02:12:37.000Z</time>
      </trkpt>
      <trkpt lat="43.039935" lon="0.618642">
        <ele>491.4</ele>
        <time>1970-01-01T02:12:54.000Z</time>
      </trkpt>
      <trkpt lat="43.040118" lon="0.619207">
        <ele>491.4</ele>
        <time>1970-01-01T02:13:05.000Z</time>
      </trkpt>
      <trkpt lat="43.040212" lon="0.619447">
        <ele>491.4</ele>
        <time>1970-01-01T02:13:10.000Z</time>
      </trkpt>
      <trkpt lat="43.040536" lon="0.62009">
        <ele>491.8</ele>
        <time>1970-01-01T02:13:24.000Z</time>
      </trkpt>
      <trkpt lat="43.040828" lon="0.620508">
        <ele>491.8</ele>
        <time>1970-01-01T02:13:34.000Z</time>
      </trkpt>
      <trkpt lat="43.040903" lon="0.620792">
        <ele>491.8</ele>
        <time>1970-01-01T02:13:39.000Z</time>
      </trkpt>
      <trkpt lat="43.040927" lon="0.621068">
        <ele>491.8</ele>
        <time>1970-01-01T02:13:46.000Z</time>
      </trkpt>
      <trkpt lat="43.040929" lon="0.621024">
        <ele>492</ele>
        <time>1970-01-01T02:14:00.000Z</time>
      </trkpt>
      <trkpt lat="43.040916" lon="0.620943">
        <ele>492</ele>
        <time>1970-01-01T02:14:06.000Z</time>
      </trkpt>
      <trkpt lat="43.0409" lon="0.620842">
        <ele>492</ele>
        <time>1970-01-01T02:14:27.000Z</time>
      </trkpt>
      <trkpt lat="43.040622" lon="0.62019">
        <ele>492.2</ele>
        <time>1970-01-01T02:14:44.000Z</time>
      </trkpt>
      <trkpt lat="43.040475" lon="0.619971">
        <ele>492</ele>
        <time>1970-01-01T02:14:49.000Z</time>
      </trkpt>
      <trkpt lat="43.040171" lon="0.619342">
        <ele>491.4</ele>
        <time>1970-01-01T02:15:02.000Z</time>
      </trkpt>
      <trkpt lat="43.040151" lon="0.619304">
        <ele>491</ele>
        <time>1970-01-01T02:15:06.000Z</time>
      </trkpt>
      <trkpt lat="43.040174" lon="0.619348">
        <ele>491</ele>
        <time>1970-01-01T02:15:29.000Z</time>
      </trkpt>
      <trkpt lat="43.040435" lon="0.619989">
        <ele>491.8</ele>
        <time>1970-01-01T02:15:46.000Z</time>
      </trkpt>
      <trkpt lat="43.040293" lon="0.620261">
        <ele>490.8</ele>
        <time>1970-01-01T02:15:53.000Z</time>
      </trkpt>
      <trkpt lat="43.040257" lon="0.620296">
        <ele>490.8</ele>
        <time>1970-01-01T02:15:54.000Z</time>
      </trkpt>
      <trkpt lat="43.040033" lon="0.620447">
        <ele>489.4</ele>
        <time>1970-01-01T02:15:59.000Z</time>
      </trkpt>
      <trkpt lat="43.039546" lon="0.620721">
        <ele>490.6</ele>
        <time>1970-01-01T02:16:16.000Z</time>
      </trkpt>
      <trkpt lat="43.039494" lon="0.620833">
        <ele>492.2</ele>
        <time>1970-01-01T02:16:20.000Z</time>
      </trkpt>
      <trkpt lat="43.039461" lon="0.621439">
        <ele>493.4</ele>
        <time>1970-01-01T02:16:35.000Z</time>
      </trkpt>
      <trkpt lat="43.039437" lon="0.621881">
        <ele>494.4</ele>
        <time>1970-01-01T02:16:45.000Z</time>
      </trkpt>
      <trkpt lat="43.039424" lon="0.622229">
        <ele>495.2</ele>
        <time>1970-01-01T02:16:55.000Z</time>
      </trkpt>
      <trkpt lat="43.039504" lon="0.622272">
        <ele>495.4</ele>
        <time>1970-01-01T02:16:58.000Z</time>
      </trkpt>
      <trkpt lat="43.039536" lon="0.622275">
        <ele>495.6</ele>
        <time>1970-01-01T02:16:59.000Z</time>
      </trkpt>
      <trkpt lat="43.039562" lon="0.622284">
        <ele>495.6</ele>
        <time>1970-01-01T02:17:00.000Z</time>
      </trkpt>
      <trkpt lat="43.039543" lon="0.622353">
        <ele>495.8</ele>
        <time>1970-01-01T02:17:05.000Z</time>
      </trkpt>
      <trkpt lat="43.039495" lon="0.622374">
        <ele>496.8</ele>
        <time>1970-01-01T02:17:08.000Z</time>
      </trkpt>
      <trkpt lat="43.039451" lon="0.622401">
        <ele>497.8</ele>
        <time>1970-01-01T02:17:11.000Z</time>
      </trkpt>
      <trkpt lat="43.039424" lon="0.622446">
        <ele>499</ele>
        <time>1970-01-01T02:17:14.000Z</time>
      </trkpt>
      <trkpt lat="43.039349" lon="0.622449">
        <ele>499.8</ele>
        <time>1970-01-01T02:17:18.000Z</time>
      </trkpt>
      <trkpt lat="43.039311" lon="0.622448">
        <ele>500.2</ele>
        <time>1970-01-01T02:17:20.000Z</time>
      </trkpt>
      <trkpt lat="43.039078" lon="0.622467">
        <ele>501.2</ele>
        <time>1970-01-01T02:17:31.000Z</time>
      </trkpt>
      <trkpt lat="43.038852" lon="0.62253">
        <ele>502.2</ele>
        <time>1970-01-01T02:17:41.000Z</time>
      </trkpt>
      <trkpt lat="43.038621" lon="0.622636">
        <ele>503.2</ele>
        <time>1970-01-01T02:17:49.000Z</time>
      </trkpt>
      <trkpt lat="43.038393" lon="0.622824">
        <ele>504.4</ele>
        <time>1970-01-01T02:17:58.000Z</time>
      </trkpt>
      <trkpt lat="43.037997" lon="0.623123">
        <ele>505.4</ele>
        <time>1970-01-01T02:18:12.000Z</time>
      </trkpt>
      <trkpt lat="43.037684" lon="0.623423">
        <ele>506.4</ele>
        <time>1970-01-01T02:18:24.000Z</time>
      </trkpt>
      <trkpt lat="43.037296" lon="0.623937">
        <ele>507.4</ele>
        <time>1970-01-01T02:18:40.000Z</time>
      </trkpt>
      <trkpt lat="43.037014" lon="0.624081">
        <ele>508.6</ele>
        <time>1970-01-01T02:18:49.000Z</time>
      </trkpt>
      <trkpt lat="43.036872" lon="0.624123">
        <ele>509.6</ele>
        <time>1970-01-01T02:18:54.000Z</time>
      </trkpt>
      <trkpt lat="43.036733" lon="0.62415">
        <ele>510.8</ele>
        <time>1970-01-01T02:18:59.000Z</time>
      </trkpt>
      <trkpt lat="43.036604" lon="0.624191">
        <ele>511.8</ele>
        <time>1970-01-01T02:19:04.000Z</time>
      </trkpt>
      <trkpt lat="43.036513" lon="0.624248">
        <ele>512.8</ele>
        <time>1970-01-01T02:19:08.000Z</time>
      </trkpt>
      <trkpt lat="43.036452" lon="0.624306">
        <ele>513.2</ele>
        <time>1970-01-01T02:19:11.000Z</time>
      </trkpt>
      <trkpt lat="43.036396" lon="0.62438">
        <ele>513.8</ele>
        <time>1970-01-01T02:19:14.000Z</time>
      </trkpt>
      <trkpt lat="43.036304" lon="0.624509">
        <ele>515</ele>
        <time>1970-01-01T02:19:19.000Z</time>
      </trkpt>
      <trkpt lat="43.036168" lon="0.624808">
        <ele>516</ele>
        <time>1970-01-01T02:19:28.000Z</time>
      </trkpt>
      <trkpt lat="43.035875" lon="0.625305">
        <ele>517</ele>
        <time>1970-01-01T02:19:43.000Z</time>
      </trkpt>
      <trkpt lat="43.03554" lon="0.625423">
        <ele>518.2</ele>
        <time>1970-01-01T02:19:54.000Z</time>
      </trkpt>
      <trkpt lat="43.03496" lon="0.625504">
        <ele>517.2</ele>
        <time>1970-01-01T02:20:07.000Z</time>
      </trkpt>
      <trkpt lat="43.034909" lon="0.625512">
        <ele>517.2</ele>
        <time>1970-01-01T02:20:08.000Z</time>
      </trkpt>
      <trkpt lat="43.034507" lon="0.625567">
        <ele>516</ele>
        <time>1970-01-01T02:20:16.000Z</time>
      </trkpt>
      <trkpt lat="43.03396" lon="0.625642">
        <ele>515.2</ele>
        <time>1970-01-01T02:20:27.000Z</time>
      </trkpt>
      <trkpt lat="43.033963" lon="0.625808">
        <ele>515.8</ele>
        <time>1970-01-01T02:20:32.000Z</time>
      </trkpt>
      <trkpt lat="43.034033" lon="0.625955">
        <ele>517.2</ele>
        <time>1970-01-01T02:20:37.000Z</time>
      </trkpt>
      <trkpt lat="43.034087" lon="0.626069">
        <ele>518.4</ele>
        <time>1970-01-01T02:20:41.000Z</time>
      </trkpt>
      <trkpt lat="43.034137" lon="0.626181">
        <ele>519.4</ele>
        <time>1970-01-01T02:20:45.000Z</time>
      </trkpt>
      <trkpt lat="43.034227" lon="0.626383">
        <ele>520.4</ele>
        <time>1970-01-01T02:20:52.000Z</time>
      </trkpt>
      <trkpt lat="43.034288" lon="0.626542">
        <ele>521.6</ele>
        <time>1970-01-01T02:20:57.000Z</time>
      </trkpt>
      <trkpt lat="43.034371" lon="0.626854">
        <ele>522.8</ele>
        <time>1970-01-01T02:21:06.000Z</time>
      </trkpt>
      <trkpt lat="43.034412" lon="0.627027">
        <ele>523.8</ele>
        <time>1970-01-01T02:21:11.000Z</time>
      </trkpt>
      <trkpt lat="43.034453" lon="0.627274">
        <ele>524.8</ele>
        <time>1970-01-01T02:21:18.000Z</time>
      </trkpt>
      <trkpt lat="43.034524" lon="0.627495">
        <ele>525.8</ele>
        <time>1970-01-01T02:21:25.000Z</time>
      </trkpt>
      <trkpt lat="43.034619" lon="0.62766">
        <ele>527</ele>
        <time>1970-01-01T02:21:33.000Z</time>
      </trkpt>
      <trkpt lat="43.034664" lon="0.627751">
        <ele>528.2</ele>
        <time>1970-01-01T02:21:37.000Z</time>
      </trkpt>
      <trkpt lat="43.034726" lon="0.627861">
        <ele>529.4</ele>
        <time>1970-01-01T02:21:42.000Z</time>
      </trkpt>
      <trkpt lat="43.0348" lon="0.62797">
        <ele>530.6</ele>
        <time>1970-01-01T02:21:47.000Z</time>
      </trkpt>
      <trkpt lat="43.034866" lon="0.628136">
        <ele>531.8</ele>
        <time>1970-01-01T02:21:53.000Z</time>
      </trkpt>
      <trkpt lat="43.034888" lon="0.628223">
        <ele>532.6</ele>
        <time>1970-01-01T02:21:56.000Z</time>
      </trkpt>
      <trkpt lat="43.034884" lon="0.628252">
        <ele>532.8</ele>
        <time>1970-01-01T02:21:57.000Z</time>
      </trkpt>
      <trkpt lat="43.034824" lon="0.62832">
        <ele>534</ele>
        <time>1970-01-01T02:22:02.000Z</time>
      </trkpt>
      <trkpt lat="43.034775" lon="0.628299">
        <ele>534.6</ele>
        <time>1970-01-01T02:22:05.000Z</time>
      </trkpt>
      <trkpt lat="43.034709" lon="0.628246">
        <ele>535</ele>
        <time>1970-01-01T02:22:09.000Z</time>
      </trkpt>
      <trkpt lat="43.034597" lon="0.628175">
        <ele>536</ele>
        <time>1970-01-01T02:22:17.000Z</time>
      </trkpt>
      <trkpt lat="43.034539" lon="0.628137">
        <ele>536.2</ele>
        <time>1970-01-01T02:22:30.000Z</time>
      </trkpt>
      <trkpt lat="43.034454" lon="0.628074">
        <ele>537</ele>
        <time>1970-01-01T02:22:35.000Z</time>
      </trkpt>
      <trkpt lat="43.034287" lon="0.627968">
        <ele>538.2</ele>
        <time>1970-01-01T02:22:44.000Z</time>
      </trkpt>
      <trkpt lat="43.034157" lon="0.627899">
        <ele>539.4</ele>
        <time>1970-01-01T02:22:50.000Z</time>
      </trkpt>
      <trkpt lat="43.034018" lon="0.627835">
        <ele>540.8</ele>
        <time>1970-01-01T02:22:56.000Z</time>
      </trkpt>
      <trkpt lat="43.033885" lon="0.627725">
        <ele>541.8</ele>
        <time>1970-01-01T02:23:02.000Z</time>
      </trkpt>
      <trkpt lat="43.03374" lon="0.62764">
        <ele>543</ele>
        <time>1970-01-01T02:23:08.000Z</time>
      </trkpt>
      <trkpt lat="43.033596" lon="0.627557">
        <ele>544</ele>
        <time>1970-01-01T02:23:14.000Z</time>
      </trkpt>
      <trkpt lat="43.033436" lon="0.627543">
        <ele>545.2</ele>
        <time>1970-01-01T02:23:21.000Z</time>
      </trkpt>
      <trkpt lat="43.033308" lon="0.627685">
        <ele>546.2</ele>
        <time>1970-01-01T02:23:28.000Z</time>
      </trkpt>
      <trkpt lat="43.033255" lon="0.627819">
        <ele>547.2</ele>
        <time>1970-01-01T02:23:33.000Z</time>
      </trkpt>
      <trkpt lat="43.033202" lon="0.627917">
        <ele>548.2</ele>
        <time>1970-01-01T02:23:37.000Z</time>
      </trkpt>
      <trkpt lat="43.033152" lon="0.628011">
        <ele>549.4</ele>
        <time>1970-01-01T02:23:41.000Z</time>
      </trkpt>
      <trkpt lat="43.033106" lon="0.62812">
        <ele>550.4</ele>
        <time>1970-01-01T02:23:46.000Z</time>
      </trkpt>
      <trkpt lat="43.033031" lon="0.628271">
        <ele>551.6</ele>
        <time>1970-01-01T02:23:53.000Z</time>
      </trkpt>
      <trkpt lat="43.032981" lon="0.628375">
        <ele>552.8</ele>
        <time>1970-01-01T02:23:57.000Z</time>
      </trkpt>
      <trkpt lat="43.032906" lon="0.628531">
        <ele>553.8</ele>
        <time>1970-01-01T02:24:03.000Z</time>
      </trkpt>
      <trkpt lat="43.032835" lon="0.628704">
        <ele>555</ele>
        <time>1970-01-01T02:24:09.000Z</time>
      </trkpt>
      <trkpt lat="43.032792" lon="0.628857">
        <ele>556</ele>
        <time>1970-01-01T02:24:14.000Z</time>
      </trkpt>
      <trkpt lat="43.032759" lon="0.628969">
        <ele>557</ele>
        <time>1970-01-01T02:24:18.000Z</time>
      </trkpt>
      <trkpt lat="43.032755" lon="0.629009">
        <ele>557.4</ele>
        <time>1970-01-01T02:24:20.000Z</time>
      </trkpt>
      <trkpt lat="43.032764" lon="0.629017">
        <ele>557.6</ele>
        <time>1970-01-01T02:24:22.000Z</time>
      </trkpt>
      <trkpt lat="43.032738" lon="0.629075">
        <ele>558</ele>
        <time>1970-01-01T02:24:34.000Z</time>
      </trkpt>
      <trkpt lat="43.032732" lon="0.629096">
        <ele>558.2</ele>
        <time>1970-01-01T02:24:35.000Z</time>
      </trkpt>
      <trkpt lat="43.03268" lon="0.629239">
        <ele>559.4</ele>
        <time>1970-01-01T02:24:41.000Z</time>
      </trkpt>
      <trkpt lat="43.032615" lon="0.629431">
        <ele>560.6</ele>
        <time>1970-01-01T02:24:48.000Z</time>
      </trkpt>
      <trkpt lat="43.032585" lon="0.629569">
        <ele>561.6</ele>
        <time>1970-01-01T02:24:54.000Z</time>
      </trkpt>
      <trkpt lat="43.03256" lon="0.629696">
        <ele>562.6</ele>
        <time>1970-01-01T02:24:59.000Z</time>
      </trkpt>
      <trkpt lat="43.032555" lon="0.629815">
        <ele>563.8</ele>
        <time>1970-01-01T02:25:04.000Z</time>
      </trkpt>
      <trkpt lat="43.032492" lon="0.630041">
        <ele>565.2</ele>
        <time>1970-01-01T02:25:14.000Z</time>
      </trkpt>
      <trkpt lat="43.032407" lon="0.630237">
        <ele>566.2</ele>
        <time>1970-01-01T02:25:21.000Z</time>
      </trkpt>
      <trkpt lat="43.032311" lon="0.630403">
        <ele>567</ele>
        <time>1970-01-01T02:25:27.000Z</time>
      </trkpt>
      <trkpt lat="43.032232" lon="0.630512">
        <ele>568</ele>
        <time>1970-01-01T02:25:34.000Z</time>
      </trkpt>
      <trkpt lat="43.032148" lon="0.630588">
        <ele>569.2</ele>
        <time>1970-01-01T02:25:40.000Z</time>
      </trkpt>
      <trkpt lat="43.032077" lon="0.630655">
        <ele>570.2</ele>
        <time>1970-01-01T02:25:45.000Z</time>
      </trkpt>
      <trkpt lat="43.032008" lon="0.630725">
        <ele>571.4</ele>
        <time>1970-01-01T02:25:49.000Z</time>
      </trkpt>
      <trkpt lat="43.031949" lon="0.630759">
        <ele>572.6</ele>
        <time>1970-01-01T02:25:52.000Z</time>
      </trkpt>
      <trkpt lat="43.031879" lon="0.630787">
        <ele>574</ele>
        <time>1970-01-01T02:25:56.000Z</time>
      </trkpt>
      <trkpt lat="43.031847" lon="0.630801">
        <ele>575</ele>
        <time>1970-01-01T02:25:58.000Z</time>
      </trkpt>
      <trkpt lat="43.031798" lon="0.630806">
        <ele>576.4</ele>
        <time>1970-01-01T02:26:02.000Z</time>
      </trkpt>
      <trkpt lat="43.031753" lon="0.630795">
        <ele>577.4</ele>
        <time>1970-01-01T02:26:06.000Z</time>
      </trkpt>
      <trkpt lat="43.031713" lon="0.630784">
        <ele>578.6</ele>
        <time>1970-01-01T02:26:09.000Z</time>
      </trkpt>
      <trkpt lat="43.031617" lon="0.630763">
        <ele>579.8</ele>
        <time>1970-01-01T02:26:15.000Z</time>
      </trkpt>
      <trkpt lat="43.031459" lon="0.630756">
        <ele>581</ele>
        <time>1970-01-01T02:26:23.000Z</time>
      </trkpt>
      <trkpt lat="43.031255" lon="0.6308">
        <ele>582</ele>
        <time>1970-01-01T02:26:34.000Z</time>
      </trkpt>
      <trkpt lat="43.031168" lon="0.630794">
        <ele>583.4</ele>
        <time>1970-01-01T02:26:40.000Z</time>
      </trkpt>
      <trkpt lat="43.031114" lon="0.630784">
        <ele>584.6</ele>
        <time>1970-01-01T02:26:45.000Z</time>
      </trkpt>
      <trkpt lat="43.031082" lon="0.630787">
        <ele>585.6</ele>
        <time>1970-01-01T02:26:48.000Z</time>
      </trkpt>
      <trkpt lat="43.031034" lon="0.630796">
        <ele>586.6</ele>
        <time>1970-01-01T02:26:52.000Z</time>
      </trkpt>
      <trkpt lat="43.031018" lon="0.630801">
        <ele>586.8</ele>
        <time>1970-01-01T02:26:53.000Z</time>
      </trkpt>
      <trkpt lat="43.030982" lon="0.63081">
        <ele>587.8</ele>
        <time>1970-01-01T02:26:56.000Z</time>
      </trkpt>
      <trkpt lat="43.030932" lon="0.63081">
        <ele>589</ele>
        <time>1970-01-01T02:27:00.000Z</time>
      </trkpt>
      <trkpt lat="43.030856" lon="0.630797">
        <ele>590.2</ele>
        <time>1970-01-01T02:27:05.000Z</time>
      </trkpt>
      <trkpt lat="43.030794" lon="0.630768">
        <ele>591</ele>
        <time>1970-01-01T02:27:10.000Z</time>
      </trkpt>
      <trkpt lat="43.030687" lon="0.630729">
        <ele>592.2</ele>
        <time>1970-01-01T02:27:16.000Z</time>
      </trkpt>
      <trkpt lat="43.030547" lon="0.630633">
        <ele>593.2</ele>
        <time>1970-01-01T02:27:24.000Z</time>
      </trkpt>
      <trkpt lat="43.030501" lon="0.630585">
        <ele>593.8</ele>
        <time>1970-01-01T02:27:28.000Z</time>
      </trkpt>
      <trkpt lat="43.030446" lon="0.630523">
        <ele>594.4</ele>
        <time>1970-01-01T02:27:33.000Z</time>
      </trkpt>
      <trkpt lat="43.030396" lon="0.630482">
        <ele>595.2</ele>
        <time>1970-01-01T02:27:37.000Z</time>
      </trkpt>
      <trkpt lat="43.030328" lon="0.630393">
        <ele>596</ele>
        <time>1970-01-01T02:27:43.000Z</time>
      </trkpt>
      <trkpt lat="43.030305" lon="0.63036">
        <ele>596.4</ele>
        <time>1970-01-01T02:27:45.000Z</time>
      </trkpt>
      <trkpt lat="43.030226" lon="0.6303">
        <ele>597.4</ele>
        <time>1970-01-01T02:27:50.000Z</time>
      </trkpt>
      <trkpt lat="43.030131" lon="0.630199">
        <ele>598.8</ele>
        <time>1970-01-01T02:27:58.000Z</time>
      </trkpt>
      <trkpt lat="43.030073" lon="0.630123">
        <ele>599.8</ele>
        <time>1970-01-01T02:28:03.000Z</time>
      </trkpt>
      <trkpt lat="43.030004" lon="0.630059">
        <ele>600.8</ele>
        <time>1970-01-01T02:28:08.000Z</time>
      </trkpt>
      <trkpt lat="43.029942" lon="0.629961">
        <ele>601.8</ele>
        <time>1970-01-01T02:28:15.000Z</time>
      </trkpt>
      <trkpt lat="43.02982" lon="0.629781">
        <ele>602.8</ele>
        <time>1970-01-01T02:28:25.000Z</time>
      </trkpt>
      <trkpt lat="43.02973" lon="0.629669">
        <ele>603.8</ele>
        <time>1970-01-01T02:28:33.000Z</time>
      </trkpt>
      <trkpt lat="43.029647" lon="0.629567">
        <ele>605</ele>
        <time>1970-01-01T02:28:41.000Z</time>
      </trkpt>
      <trkpt lat="43.029579" lon="0.629467">
        <ele>606</ele>
        <time>1970-01-01T02:28:47.000Z</time>
      </trkpt>
      <trkpt lat="43.029509" lon="0.629351">
        <ele>607</ele>
        <time>1970-01-01T02:28:54.000Z</time>
      </trkpt>
      <trkpt lat="43.029438" lon="0.629258">
        <ele>608.2</ele>
        <time>1970-01-01T02:28:59.000Z</time>
      </trkpt>
      <trkpt lat="43.029369" lon="0.629137">
        <ele>609.4</ele>
        <time>1970-01-01T02:29:05.000Z</time>
      </trkpt>
      <trkpt lat="43.029295" lon="0.629018">
        <ele>610.4</ele>
        <time>1970-01-01T02:29:11.000Z</time>
      </trkpt>
      <trkpt lat="43.029219" lon="0.628879">
        <ele>611.4</ele>
        <time>1970-01-01T02:29:18.000Z</time>
      </trkpt>
      <trkpt lat="43.029168" lon="0.628791">
        <ele>612.4</ele>
        <time>1970-01-01T02:29:23.000Z</time>
      </trkpt>
      <trkpt lat="43.029105" lon="0.628713">
        <ele>613.2</ele>
        <time>1970-01-01T02:29:28.000Z</time>
      </trkpt>
      <trkpt lat="43.029088" lon="0.628699">
        <ele>613.4</ele>
        <time>1970-01-01T02:29:29.000Z</time>
      </trkpt>
      <trkpt lat="43.029006" lon="0.628569">
        <ele>614.6</ele>
        <time>1970-01-01T02:29:36.000Z</time>
      </trkpt>
      <trkpt lat="43.028977" lon="0.628517">
        <ele>615.6</ele>
        <time>1970-01-01T02:29:39.000Z</time>
      </trkpt>
      <trkpt lat="43.028902" lon="0.628409">
        <ele>616.8</ele>
        <time>1970-01-01T02:29:44.000Z</time>
      </trkpt>
      <trkpt lat="43.028874" lon="0.628341">
        <ele>617.8</ele>
        <time>1970-01-01T02:29:47.000Z</time>
      </trkpt>
      <trkpt lat="43.028801" lon="0.628229">
        <ele>619</ele>
        <time>1970-01-01T02:29:52.000Z</time>
      </trkpt>
      <trkpt lat="43.028694" lon="0.628075">
        <ele>620</ele>
        <time>1970-01-01T02:29:58.000Z</time>
      </trkpt>
      <trkpt lat="43.02862" lon="0.627976">
        <ele>621.4</ele>
        <time>1970-01-01T02:30:04.000Z</time>
      </trkpt>
      <trkpt lat="43.028582" lon="0.627914">
        <ele>622.2</ele>
        <time>1970-01-01T02:30:07.000Z</time>
      </trkpt>
      <trkpt lat="43.028567" lon="0.627895">
        <ele>622.4</ele>
        <time>1970-01-01T02:30:08.000Z</time>
      </trkpt>
      <trkpt lat="43.028511" lon="0.627759">
        <ele>623.4</ele>
        <time>1970-01-01T02:30:13.000Z</time>
      </trkpt>
      <trkpt lat="43.028495" lon="0.627716">
        <ele>624</ele>
        <time>1970-01-01T02:30:15.000Z</time>
      </trkpt>
      <trkpt lat="43.028447" lon="0.627644">
        <ele>624.6</ele>
        <time>1970-01-01T02:30:18.000Z</time>
      </trkpt>
      <trkpt lat="43.028405" lon="0.627557">
        <ele>625.2</ele>
        <time>1970-01-01T02:30:22.000Z</time>
      </trkpt>
      <trkpt lat="43.028388" lon="0.627506">
        <ele>625.8</ele>
        <time>1970-01-01T02:30:24.000Z</time>
      </trkpt>
      <trkpt lat="43.028338" lon="0.627382">
        <ele>626.8</ele>
        <time>1970-01-01T02:30:33.000Z</time>
      </trkpt>
      <trkpt lat="43.028199" lon="0.627271">
        <ele>627.6</ele>
        <time>1970-01-01T02:31:59.000Z</time>
      </trkpt>
      <trkpt lat="43.02813" lon="0.627161">
        <ele>628.8</ele>
        <time>1970-01-01T02:32:05.000Z</time>
      </trkpt>
      <trkpt lat="43.028077" lon="0.627087">
        <ele>630</ele>
        <time>1970-01-01T02:32:09.000Z</time>
      </trkpt>
      <trkpt lat="43.028029" lon="0.627022">
        <ele>631</ele>
        <time>1970-01-01T02:32:14.000Z</time>
      </trkpt>
      <trkpt lat="43.02798" lon="0.62694">
        <ele>632</ele>
        <time>1970-01-01T02:32:19.000Z</time>
      </trkpt>
      <trkpt lat="43.027902" lon="0.626828">
        <ele>633.2</ele>
        <time>1970-01-01T02:32:25.000Z</time>
      </trkpt>
      <trkpt lat="43.027858" lon="0.626767">
        <ele>634.4</ele>
        <time>1970-01-01T02:32:29.000Z</time>
      </trkpt>
      <trkpt lat="43.027818" lon="0.626678">
        <ele>635.4</ele>
        <time>1970-01-01T02:32:34.000Z</time>
      </trkpt>
      <trkpt lat="43.027768" lon="0.626582">
        <ele>636.8</ele>
        <time>1970-01-01T02:32:39.000Z</time>
      </trkpt>
      <trkpt lat="43.027729" lon="0.626517">
        <ele>638</ele>
        <time>1970-01-01T02:32:43.000Z</time>
      </trkpt>
      <trkpt lat="43.027688" lon="0.626399">
        <ele>639.2</ele>
        <time>1970-01-01T02:32:49.000Z</time>
      </trkpt>
      <trkpt lat="43.027633" lon="0.62632">
        <ele>640.4</ele>
        <time>1970-01-01T02:32:54.000Z</time>
      </trkpt>
      <trkpt lat="43.02759" lon="0.626265">
        <ele>641</ele>
        <time>1970-01-01T02:32:57.000Z</time>
      </trkpt>
      <trkpt lat="43.027577" lon="0.626248">
        <ele>641.6</ele>
        <time>1970-01-01T02:32:58.000Z</time>
      </trkpt>
      <trkpt lat="43.027523" lon="0.626158">
        <ele>642.6</ele>
        <time>1970-01-01T02:33:03.000Z</time>
      </trkpt>
      <trkpt lat="43.027444" lon="0.626078">
        <ele>643.8</ele>
        <time>1970-01-01T02:33:08.000Z</time>
      </trkpt>
      <trkpt lat="43.02737" lon="0.62596">
        <ele>644.8</ele>
        <time>1970-01-01T02:33:14.000Z</time>
      </trkpt>
      <trkpt lat="43.027321" lon="0.625897">
        <ele>645.8</ele>
        <time>1970-01-01T02:33:18.000Z</time>
      </trkpt>
      <trkpt lat="43.027277" lon="0.625826">
        <ele>647</ele>
        <time>1970-01-01T02:33:22.000Z</time>
      </trkpt>
      <trkpt lat="43.027212" lon="0.625722">
        <ele>648.2</ele>
        <time>1970-01-01T02:33:28.000Z</time>
      </trkpt>
      <trkpt lat="43.027081" lon="0.625588">
        <ele>649.2</ele>
        <time>1970-01-01T02:33:36.000Z</time>
      </trkpt>
      <trkpt lat="43.026981" lon="0.625487">
        <ele>650.4</ele>
        <time>1970-01-01T02:33:43.000Z</time>
      </trkpt>
      <trkpt lat="43.026917" lon="0.625395">
        <ele>651.4</ele>
        <time>1970-01-01T02:33:50.000Z</time>
      </trkpt>
      <trkpt lat="43.02679" lon="0.625219">
        <ele>653.2</ele>
        <time>1970-01-01T02:34:01.000Z</time>
      </trkpt>
      <trkpt lat="43.026715" lon="0.625138">
        <ele>654.4</ele>
        <time>1970-01-01T02:34:07.000Z</time>
      </trkpt>
      <trkpt lat="43.026646" lon="0.625077">
        <ele>655.4</ele>
        <time>1970-01-01T02:34:14.000Z</time>
      </trkpt>
      <trkpt lat="43.026591" lon="0.625028">
        <ele>656.6</ele>
        <time>1970-01-01T02:34:19.000Z</time>
      </trkpt>
      <trkpt lat="43.026532" lon="0.62498">
        <ele>657.6</ele>
        <time>1970-01-01T02:34:25.000Z</time>
      </trkpt>
      <trkpt lat="43.026485" lon="0.624936">
        <ele>658.8</ele>
        <time>1970-01-01T02:34:31.000Z</time>
      </trkpt>
      <trkpt lat="43.026397" lon="0.624855">
        <ele>659.8</ele>
        <time>1970-01-01T02:34:38.000Z</time>
      </trkpt>
      <trkpt lat="43.026355" lon="0.624806">
        <ele>660.8</ele>
        <time>1970-01-01T02:34:42.000Z</time>
      </trkpt>
      <trkpt lat="43.026258" lon="0.624712">
        <ele>662</ele>
        <time>1970-01-01T02:34:51.000Z</time>
      </trkpt>
      <trkpt lat="43.02619" lon="0.624653">
        <ele>663.2</ele>
        <time>1970-01-01T02:34:57.000Z</time>
      </trkpt>
      <trkpt lat="43.026119" lon="0.62461">
        <ele>664.2</ele>
        <time>1970-01-01T02:35:02.000Z</time>
      </trkpt>
      <trkpt lat="43.026058" lon="0.624564">
        <ele>665.4</ele>
        <time>1970-01-01T02:35:08.000Z</time>
      </trkpt>
      <trkpt lat="43.026022" lon="0.624527">
        <ele>666.4</ele>
        <time>1970-01-01T02:35:13.000Z</time>
      </trkpt>
      <trkpt lat="43.025938" lon="0.624463">
        <ele>667.4</ele>
        <time>1970-01-01T02:35:20.000Z</time>
      </trkpt>
      <trkpt lat="43.02584" lon="0.624415">
        <ele>668.6</ele>
        <time>1970-01-01T02:35:27.000Z</time>
      </trkpt>
      <trkpt lat="43.025769" lon="0.624408">
        <ele>669.6</ele>
        <time>1970-01-01T02:35:33.000Z</time>
      </trkpt>
      <trkpt lat="43.025701" lon="0.624399">
        <ele>671</ele>
        <time>1970-01-01T02:35:39.000Z</time>
      </trkpt>
      <trkpt lat="43.025633" lon="0.62439">
        <ele>672</ele>
        <time>1970-01-01T02:35:44.000Z</time>
      </trkpt>
      <trkpt lat="43.025571" lon="0.624369">
        <ele>673.2</ele>
        <time>1970-01-01T02:35:49.000Z</time>
      </trkpt>
      <trkpt lat="43.025473" lon="0.624333">
        <ele>674.2</ele>
        <time>1970-01-01T02:35:57.000Z</time>
      </trkpt>
      <trkpt lat="43.025408" lon="0.624301">
        <ele>675.4</ele>
        <time>1970-01-01T02:36:03.000Z</time>
      </trkpt>
      <trkpt lat="43.025331" lon="0.624271">
        <ele>676.8</ele>
        <time>1970-01-01T02:36:10.000Z</time>
      </trkpt>
      <trkpt lat="43.025289" lon="0.624236">
        <ele>677.8</ele>
        <time>1970-01-01T02:36:15.000Z</time>
      </trkpt>
      <trkpt lat="43.025199" lon="0.624184">
        <ele>678.8</ele>
        <time>1970-01-01T02:36:22.000Z</time>
      </trkpt>
      <trkpt lat="43.025115" lon="0.624119">
        <ele>680</ele>
        <time>1970-01-01T02:36:31.000Z</time>
      </trkpt>
      <trkpt lat="43.025026" lon="0.624056">
        <ele>681.2</ele>
        <time>1970-01-01T02:36:38.000Z</time>
      </trkpt>
      <trkpt lat="43.024927" lon="0.623986">
        <ele>682.4</ele>
        <time>1970-01-01T02:36:46.000Z</time>
      </trkpt>
      <trkpt lat="43.024857" lon="0.623936">
        <ele>683.4</ele>
        <time>1970-01-01T02:36:51.000Z</time>
      </trkpt>
      <trkpt lat="43.024757" lon="0.623858">
        <ele>684.6</ele>
        <time>1970-01-01T02:36:58.000Z</time>
      </trkpt>
      <trkpt lat="43.024699" lon="0.623812">
        <ele>685.8</ele>
        <time>1970-01-01T02:37:02.000Z</time>
      </trkpt>
      <trkpt lat="43.024578" lon="0.623694">
        <ele>686.8</ele>
        <time>1970-01-01T02:37:12.000Z</time>
      </trkpt>
      <trkpt lat="43.024464" lon="0.623576">
        <ele>688</ele>
        <time>1970-01-01T02:37:22.000Z</time>
      </trkpt>
      <trkpt lat="43.024314" lon="0.62351">
        <ele>689</ele>
        <time>1970-01-01T02:37:31.000Z</time>
      </trkpt>
      <trkpt lat="43.024179" lon="0.623475">
        <ele>690.2</ele>
        <time>1970-01-01T02:37:40.000Z</time>
      </trkpt>
      <trkpt lat="43.024161" lon="0.623461">
        <ele>690.8</ele>
        <time>1970-01-01T02:37:44.000Z</time>
      </trkpt>
      <trkpt lat="43.023221" lon="0.623118">
        <ele>703.6</ele>
        <time>1970-01-01T02:39:03.000Z</time>
      </trkpt>
      <trkpt lat="43.02292" lon="0.622982">
        <ele>704.8</ele>
        <time>1970-01-01T02:39:20.000Z</time>
      </trkpt>
      <trkpt lat="43.022746" lon="0.622999">
        <ele>706</ele>
        <time>1970-01-01T02:39:29.000Z</time>
      </trkpt>
      <trkpt lat="43.022664" lon="0.623014">
        <ele>707</ele>
        <time>1970-01-01T02:39:34.000Z</time>
      </trkpt>
      <trkpt lat="43.022203" lon="0.623287">
        <ele>708</ele>
        <time>1970-01-01T02:40:01.000Z</time>
      </trkpt>
      <trkpt lat="43.022121" lon="0.623427">
        <ele>709</ele>
        <time>1970-01-01T02:40:09.000Z</time>
      </trkpt>
      <trkpt lat="43.022104" lon="0.623555">
        <ele>710.2</ele>
        <time>1970-01-01T02:40:15.000Z</time>
      </trkpt>
      <trkpt lat="43.022102" lon="0.62362">
        <ele>711.2</ele>
        <time>1970-01-01T02:40:18.000Z</time>
      </trkpt>
      <trkpt lat="43.022101" lon="0.623679">
        <ele>712.2</ele>
        <time>1970-01-01T02:40:21.000Z</time>
      </trkpt>
      <trkpt lat="43.022101" lon="0.62373">
        <ele>713.2</ele>
        <time>1970-01-01T02:40:24.000Z</time>
      </trkpt>
      <trkpt lat="43.022102" lon="0.623798">
        <ele>714.2</ele>
        <time>1970-01-01T02:40:28.000Z</time>
      </trkpt>
      <trkpt lat="43.022094" lon="0.6239">
        <ele>715.2</ele>
        <time>1970-01-01T02:40:33.000Z</time>
      </trkpt>
      <trkpt lat="43.022069" lon="0.624056">
        <ele>716.4</ele>
        <time>1970-01-01T02:40:40.000Z</time>
      </trkpt>
      <trkpt lat="43.021999" lon="0.624799">
        <ele>717</ele>
        <time>1970-01-01T02:41:01.000Z</time>
      </trkpt>
      <trkpt lat="43.02181" lon="0.625507">
        <ele>715.4</ele>
        <time>1970-01-01T02:41:15.000Z</time>
      </trkpt>
      <trkpt lat="43.021748" lon="0.62603">
        <ele>715.4</ele>
        <time>1970-01-01T02:41:27.000Z</time>
      </trkpt>
      <trkpt lat="43.021841" lon="0.626661">
        <ele>715</ele>
        <time>1970-01-01T02:41:46.000Z</time>
      </trkpt>
      <trkpt lat="43.021757" lon="0.626742">
        <ele>715</ele>
        <time>1970-01-01T02:42:08.000Z</time>
      </trkpt>
      <trkpt lat="43.021648" lon="0.626637">
        <ele>714.8</ele>
        <time>1970-01-01T02:42:16.000Z</time>
      </trkpt>
      <trkpt lat="43.021629" lon="0.626612">
        <ele>714.6</ele>
        <time>1970-01-01T02:42:18.000Z</time>
      </trkpt>
      <trkpt lat="43.021508" lon="0.626749">
        <ele>714.6</ele>
        <time>1970-01-01T02:42:26.000Z</time>
      </trkpt>
      <trkpt lat="43.021447" lon="0.626849">
        <ele>714.8</ele>
        <time>1970-01-01T02:42:33.000Z</time>
      </trkpt>
      <trkpt lat="43.021435" lon="0.626877">
        <ele>715</ele>
        <time>1970-01-01T02:42:59.000Z</time>
      </trkpt>
      <trkpt lat="43.021421" lon="0.626904">
        <ele>715</ele>
        <time>1970-01-01T02:43:03.000Z</time>
      </trkpt>
      <trkpt lat="43.021377" lon="0.626936">
        <ele>715.8</ele>
        <time>1970-01-01T02:48:48.000Z</time>
      </trkpt>
      <trkpt lat="43.021158" lon="0.627256">
        <ele>717</ele>
        <time>1970-01-01T02:49:03.000Z</time>
      </trkpt>
      <trkpt lat="43.021079" lon="0.627402">
        <ele>717.8</ele>
        <time>1970-01-01T02:49:11.000Z</time>
      </trkpt>
      <trkpt lat="43.021051" lon="0.627435">
        <ele>718</ele>
        <time>1970-01-01T02:49:13.000Z</time>
      </trkpt>
      <trkpt lat="43.020914" lon="0.627627">
        <ele>719</ele>
        <time>1970-01-01T02:49:23.000Z</time>
      </trkpt>
      <trkpt lat="43.02079" lon="0.627806">
        <ele>720</ele>
        <time>1970-01-01T02:49:33.000Z</time>
      </trkpt>
      <trkpt lat="43.020686" lon="0.627933">
        <ele>721.2</ele>
        <time>1970-01-01T02:49:41.000Z</time>
      </trkpt>
      <trkpt lat="43.020628" lon="0.628">
        <ele>722.2</ele>
        <time>1970-01-01T02:49:47.000Z</time>
      </trkpt>
      <trkpt lat="43.020627" lon="0.628004">
        <ele>722.8</ele>
        <time>1970-01-01T02:49:50.000Z</time>
      </trkpt>
      <trkpt lat="43.020118" lon="0.628358">
        <ele>731.6</ele>
        <time>1970-01-01T02:50:57.000Z</time>
      </trkpt>
      <trkpt lat="43.020005" lon="0.6284">
        <ele>732.8</ele>
        <time>1970-01-01T02:51:04.000Z</time>
      </trkpt>
      <trkpt lat="43.019918" lon="0.628439">
        <ele>734</ele>
        <time>1970-01-01T02:51:12.000Z</time>
      </trkpt>
      <trkpt lat="43.019843" lon="0.628482">
        <ele>735</ele>
        <time>1970-01-01T02:51:19.000Z</time>
      </trkpt>
      <trkpt lat="43.019775" lon="0.628524">
        <ele>736</ele>
        <time>1970-01-01T02:51:25.000Z</time>
      </trkpt>
      <trkpt lat="43.019727" lon="0.62855">
        <ele>736.8</ele>
        <time>1970-01-01T02:51:29.000Z</time>
      </trkpt>
      <trkpt lat="43.019586" lon="0.628589">
        <ele>738</ele>
        <time>1970-01-01T02:51:36.000Z</time>
      </trkpt>
      <trkpt lat="43.019444" lon="0.628642">
        <ele>739.2</ele>
        <time>1970-01-01T02:51:45.000Z</time>
      </trkpt>
      <trkpt lat="43.019354" lon="0.628713">
        <ele>740.2</ele>
        <time>1970-01-01T02:51:52.000Z</time>
      </trkpt>
      <trkpt lat="43.019255" lon="0.62882">
        <ele>741.4</ele>
        <time>1970-01-01T02:52:00.000Z</time>
      </trkpt>
      <trkpt lat="43.019211" lon="0.628855">
        <ele>742.4</ele>
        <time>1970-01-01T02:52:04.000Z</time>
      </trkpt>
      <trkpt lat="43.019167" lon="0.628918">
        <ele>743.4</ele>
        <time>1970-01-01T02:52:10.000Z</time>
      </trkpt>
      <trkpt lat="43.019135" lon="0.629017">
        <ele>744.4</ele>
        <time>1970-01-01T02:52:17.000Z</time>
      </trkpt>
      <trkpt lat="43.019088" lon="0.629116">
        <ele>745.6</ele>
        <time>1970-01-01T02:52:24.000Z</time>
      </trkpt>
      <trkpt lat="43.019061" lon="0.629146">
        <ele>746</ele>
        <time>1970-01-01T02:52:26.000Z</time>
      </trkpt>
      <trkpt lat="43.019012" lon="0.629234">
        <ele>746.8</ele>
        <time>1970-01-01T02:52:31.000Z</time>
      </trkpt>
      <trkpt lat="43.018815" lon="0.629861">
        <ele>747.8</ele>
        <time>1970-01-01T02:52:50.000Z</time>
      </trkpt>
      <trkpt lat="43.018733" lon="0.630273">
        <ele>748.8</ele>
        <time>1970-01-01T02:53:02.000Z</time>
      </trkpt>
      <trkpt lat="43.018607" lon="0.630864">
        <ele>750</ele>
        <time>1970-01-01T02:53:18.000Z</time>
      </trkpt>
      <trkpt lat="43.018546" lon="0.631182">
        <ele>751</ele>
        <time>1970-01-01T02:53:27.000Z</time>
      </trkpt>
      <trkpt lat="43.018518" lon="0.631344">
        <ele>752</ele>
        <time>1970-01-01T02:53:33.000Z</time>
      </trkpt>
      <trkpt lat="43.018515" lon="0.631398">
        <ele>752</ele>
        <time>1970-01-01T02:53:35.000Z</time>
      </trkpt>
      <trkpt lat="43.018505" lon="0.631442">
        <ele>752.8</ele>
        <time>1970-01-01T02:53:37.000Z</time>
      </trkpt>
      <trkpt lat="43.018487" lon="0.631502">
        <ele>753.2</ele>
        <time>1970-01-01T02:53:40.000Z</time>
      </trkpt>
      <trkpt lat="43.018447" lon="0.631582">
        <ele>754.6</ele>
        <time>1970-01-01T02:53:46.000Z</time>
      </trkpt>
      <trkpt lat="43.018429" lon="0.631649">
        <ele>756</ele>
        <time>1970-01-01T02:53:51.000Z</time>
      </trkpt>
      <trkpt lat="43.018411" lon="0.631697">
        <ele>757.2</ele>
        <time>1970-01-01T02:53:55.000Z</time>
      </trkpt>
      <trkpt lat="43.018386" lon="0.631753">
        <ele>758.2</ele>
        <time>1970-01-01T02:53:59.000Z</time>
      </trkpt>
      <trkpt lat="43.01834" lon="0.631848">
        <ele>759</ele>
        <time>1970-01-01T02:54:05.000Z</time>
      </trkpt>
      <trkpt lat="43.018327" lon="0.631904">
        <ele>760</ele>
        <time>1970-01-01T02:54:08.000Z</time>
      </trkpt>
      <trkpt lat="43.018314" lon="0.63198">
        <ele>761.4</ele>
        <time>1970-01-01T02:54:12.000Z</time>
      </trkpt>
      <trkpt lat="43.018283" lon="0.63205">
        <ele>762.8</ele>
        <time>1970-01-01T02:54:16.000Z</time>
      </trkpt>
      <trkpt lat="43.018251" lon="0.632111">
        <ele>763.8</ele>
        <time>1970-01-01T02:54:20.000Z</time>
      </trkpt>
      <trkpt lat="43.018245" lon="0.632119">
        <ele>764</ele>
        <time>1970-01-01T02:54:21.000Z</time>
      </trkpt>
      <trkpt lat="43.01824" lon="0.632741">
        <ele>771.4</ele>
        <time>1970-01-01T02:55:47.000Z</time>
      </trkpt>
      <trkpt lat="43.018241" lon="0.632912">
        <ele>772.2</ele>
        <time>1970-01-01T02:55:54.000Z</time>
      </trkpt>
      <trkpt lat="43.018237" lon="0.632934">
        <ele>772.2</ele>
        <time>1970-01-01T02:55:55.000Z</time>
      </trkpt>
      <trkpt lat="43.018246" lon="0.633095">
        <ele>773.4</ele>
        <time>1970-01-01T02:56:03.000Z</time>
      </trkpt>
      <trkpt lat="43.018253" lon="0.633233">
        <ele>774.6</ele>
        <time>1970-01-01T02:56:12.000Z</time>
      </trkpt>
      <trkpt lat="43.018257" lon="0.63332">
        <ele>775.6</ele>
        <time>1970-01-01T02:56:17.000Z</time>
      </trkpt>
      <trkpt lat="43.018247" lon="0.633395">
        <ele>776.8</ele>
        <time>1970-01-01T02:56:22.000Z</time>
      </trkpt>
      <trkpt lat="43.018222" lon="0.633499">
        <ele>778.2</ele>
        <time>1970-01-01T02:56:27.000Z</time>
      </trkpt>
      <trkpt lat="43.018218" lon="0.633599">
        <ele>779.4</ele>
        <time>1970-01-01T02:56:32.000Z</time>
      </trkpt>
      <trkpt lat="43.018206" lon="0.633693">
        <ele>780.6</ele>
        <time>1970-01-01T02:56:37.000Z</time>
      </trkpt>
      <trkpt lat="43.018199" lon="0.633775">
        <ele>781.6</ele>
        <time>1970-01-01T02:56:42.000Z</time>
      </trkpt>
      <trkpt lat="43.018191" lon="0.633855">
        <ele>782.6</ele>
        <time>1970-01-01T02:56:48.000Z</time>
      </trkpt>
      <trkpt lat="43.018186" lon="0.633864">
        <ele>782.8</ele>
        <time>1970-01-01T02:56:49.000Z</time>
      </trkpt>
      <trkpt lat="43.017918" lon="0.63686">
        <ele>813.6</ele>
        <time>1970-01-01T03:01:16.000Z</time>
      </trkpt>
      <trkpt lat="43.017914" lon="0.636903">
        <ele>813.6</ele>
        <time>1970-01-01T03:01:18.000Z</time>
      </trkpt>
      <trkpt lat="43.017904" lon="0.63715">
        <ele>814</ele>
        <time>1970-01-01T03:01:29.000Z</time>
      </trkpt>
      <trkpt lat="43.017899" lon="0.637246">
        <ele>814.6</ele>
        <time>1970-01-01T03:01:34.000Z</time>
      </trkpt>
      <trkpt lat="43.01785" lon="0.63761">
        <ele>815.6</ele>
        <time>1970-01-01T03:01:52.000Z</time>
      </trkpt>
      <trkpt lat="43.017835" lon="0.637906">
        <ele>816.6</ele>
        <time>1970-01-01T03:02:04.000Z</time>
      </trkpt>
      <trkpt lat="43.017803" lon="0.638278">
        <ele>817.8</ele>
        <time>1970-01-01T03:02:21.000Z</time>
      </trkpt>
      <trkpt lat="43.017811" lon="0.638559">
        <ele>818.8</ele>
        <time>1970-01-01T03:02:34.000Z</time>
      </trkpt>
      <trkpt lat="43.017811" lon="0.638684">
        <ele>819.4</ele>
        <time>1970-01-01T03:02:40.000Z</time>
      </trkpt>
      <trkpt lat="43.017791" lon="0.638855">
        <ele>819.6</ele>
        <time>1970-01-01T03:02:48.000Z</time>
      </trkpt>
      <trkpt lat="43.01778" lon="0.638923">
        <ele>819.6</ele>
        <time>1970-01-01T03:02:51.000Z</time>
      </trkpt>
      <trkpt lat="43.017773" lon="0.639094">
        <ele>820.8</ele>
        <time>1970-01-01T03:02:59.000Z</time>
      </trkpt>
      <trkpt lat="43.01774" lon="0.63933">
        <ele>821.8</ele>
        <time>1970-01-01T03:03:11.000Z</time>
      </trkpt>
      <trkpt lat="43.017705" lon="0.639632">
        <ele>822.8</ele>
        <time>1970-01-01T03:03:25.000Z</time>
      </trkpt>
      <trkpt lat="43.017701" lon="0.639675">
        <ele>822.8</ele>
        <time>1970-01-01T03:03:27.000Z</time>
      </trkpt>
      <trkpt lat="43.017687" lon="0.639767">
        <ele>823.2</ele>
        <time>1970-01-01T03:03:31.000Z</time>
      </trkpt>
      <trkpt lat="43.017677" lon="0.639893">
        <ele>823.8</ele>
        <time>1970-01-01T03:03:36.000Z</time>
      </trkpt>
      <trkpt lat="43.017651" lon="0.640058">
        <ele>824</ele>
        <time>1970-01-01T03:03:43.000Z</time>
      </trkpt>
      <trkpt lat="43.017539" lon="0.640774">
        <ele>824.8</ele>
        <time>1970-01-01T03:04:15.000Z</time>
      </trkpt>
      <trkpt lat="43.017353" lon="0.641318">
        <ele>825.4</ele>
        <time>1970-01-01T03:04:42.000Z</time>
      </trkpt>
      <trkpt lat="43.017311" lon="0.641409">
        <ele>826</ele>
        <time>1970-01-01T03:04:47.000Z</time>
      </trkpt>
      <trkpt lat="43.017295" lon="0.641449">
        <ele>826.2</ele>
        <time>1970-01-01T03:04:49.000Z</time>
      </trkpt>
      <trkpt lat="43.017137" lon="0.641682">
        <ele>827</ele>
        <time>1970-01-01T03:05:02.000Z</time>
      </trkpt>
      <trkpt lat="43.016654" lon="0.642026">
        <ele>827.8</ele>
        <time>1970-01-01T03:05:29.000Z</time>
      </trkpt>
      <trkpt lat="43.01656" lon="0.642139">
        <ele>828</ele>
        <time>1970-01-01T03:05:35.000Z</time>
      </trkpt>
      <trkpt lat="43.016185" lon="0.642303">
        <ele>829.2</ele>
        <time>1970-01-01T03:05:52.000Z</time>
      </trkpt>
      <trkpt lat="43.016011" lon="0.642307">
        <ele>830.2</ele>
        <time>1970-01-01T03:06:01.000Z</time>
      </trkpt>
      <trkpt lat="43.015741" lon="0.642444">
        <ele>831.4</ele>
        <time>1970-01-01T03:06:15.000Z</time>
      </trkpt>
      <trkpt lat="43.015557" lon="0.642361">
        <ele>832.4</ele>
        <time>1970-01-01T03:06:25.000Z</time>
      </trkpt>
      <trkpt lat="43.015374" lon="0.642264">
        <ele>833.4</ele>
        <time>1970-01-01T03:06:34.000Z</time>
      </trkpt>
      <trkpt lat="43.015177" lon="0.642189">
        <ele>834.6</ele>
        <time>1970-01-01T03:06:44.000Z</time>
      </trkpt>
      <trkpt lat="43.015029" lon="0.642149">
        <ele>835.6</ele>
        <time>1970-01-01T03:06:52.000Z</time>
      </trkpt>
      <trkpt lat="43.01495" lon="0.642183">
        <ele>836.2</ele>
        <time>1970-01-01T03:06:57.000Z</time>
      </trkpt>
      <trkpt lat="43.014905" lon="0.642371">
        <ele>836.8</ele>
        <time>1970-01-01T03:07:05.000Z</time>
      </trkpt>
      <trkpt lat="43.014902" lon="0.64239">
        <ele>836.8</ele>
        <time>1970-01-01T03:07:06.000Z</time>
      </trkpt>
      <trkpt lat="43.014885" lon="0.642463">
        <ele>836.6</ele>
        <time>1970-01-01T03:07:13.000Z</time>
      </trkpt>
      <trkpt lat="43.014668" lon="0.642922">
        <ele>839</ele>
        <time>1970-01-01T03:08:19.000Z</time>
      </trkpt>
      <trkpt lat="43.014626" lon="0.642968">
        <ele>839.6</ele>
        <time>1970-01-01T03:08:23.000Z</time>
      </trkpt>
      <trkpt lat="43.01456" lon="0.643043">
        <ele>840</ele>
        <time>1970-01-01T03:08:29.000Z</time>
      </trkpt>
      <trkpt lat="43.014477" lon="0.643335">
        <ele>840.2</ele>
        <time>1970-01-01T03:08:52.000Z</time>
      </trkpt>
      <trkpt lat="43.014755" lon="0.64664">
        <ele>846.8</ele>
        <time>1970-01-01T03:23:40.000Z</time>
      </trkpt>
      <trkpt lat="43.014692" lon="0.646921">
        <ele>848</ele>
        <time>1970-01-01T03:23:56.000Z</time>
      </trkpt>
      <trkpt lat="43.01467" lon="0.64708">
        <ele>848.2</ele>
        <time>1970-01-01T03:24:07.000Z</time>
      </trkpt>
      <trkpt lat="43.014662" lon="0.647161">
        <ele>848</ele>
        <time>1970-01-01T03:25:39.000Z</time>
      </trkpt>
      <trkpt lat="43.014523" lon="0.647677">
        <ele>848.8</ele>
        <time>1970-01-01T03:26:00.000Z</time>
      </trkpt>
      <trkpt lat="43.014448" lon="0.648059">
        <ele>849.8</ele>
        <time>1970-01-01T03:26:14.000Z</time>
      </trkpt>
      <trkpt lat="43.014362" lon="0.648501">
        <ele>850.8</ele>
        <time>1970-01-01T03:26:30.000Z</time>
      </trkpt>
      <trkpt lat="43.014335" lon="0.648767">
        <ele>852</ele>
        <time>1970-01-01T03:26:40.000Z</time>
      </trkpt>
      <trkpt lat="43.01429" lon="0.649063">
        <ele>853</ele>
        <time>1970-01-01T03:26:53.000Z</time>
      </trkpt>
      <trkpt lat="43.014279" lon="0.649201">
        <ele>853.6</ele>
        <time>1970-01-01T03:26:59.000Z</time>
      </trkpt>
      <trkpt lat="43.014241" lon="0.649449">
        <ele>854</ele>
        <time>1970-01-01T03:27:07.000Z</time>
      </trkpt>
      <trkpt lat="43.014205" lon="0.649574">
        <ele>854</ele>
        <time>1970-01-01T03:27:11.000Z</time>
      </trkpt>
      <trkpt lat="43.014036" lon="0.650138">
        <ele>854.8</ele>
        <time>1970-01-01T03:27:30.000Z</time>
      </trkpt>
      <trkpt lat="43.014019" lon="0.650231">
        <ele>854.6</ele>
        <time>1970-01-01T03:27:34.000Z</time>
      </trkpt>
      <trkpt lat="43.013981" lon="0.650357">
        <ele>855.2</ele>
        <time>1970-01-01T03:27:39.000Z</time>
      </trkpt>
      <trkpt lat="43.013816" lon="0.651037">
        <ele>856.2</ele>
        <time>1970-01-01T03:28:02.000Z</time>
      </trkpt>
      <trkpt lat="43.013639" lon="0.651733">
        <ele>856</ele>
        <time>1970-01-01T03:28:25.000Z</time>
      </trkpt>
      <trkpt lat="43.013526" lon="0.652241">
        <ele>857</ele>
        <time>1970-01-01T03:28:40.000Z</time>
      </trkpt>
      <trkpt lat="43.01336" lon="0.652509">
        <ele>858</ele>
        <time>1970-01-01T03:28:49.000Z</time>
      </trkpt>
      <trkpt lat="43.013179" lon="0.652715">
        <ele>859.2</ele>
        <time>1970-01-01T03:28:59.000Z</time>
      </trkpt>
      <trkpt lat="43.013143" lon="0.652771">
        <ele>859.2</ele>
        <time>1970-01-01T03:29:02.000Z</time>
      </trkpt>
      <trkpt lat="43.013128" lon="0.652801">
        <ele>859.2</ele>
        <time>1970-01-01T03:29:06.000Z</time>
      </trkpt>
      <trkpt lat="43.012983" lon="0.652934">
        <ele>859.8</ele>
        <time>1970-01-01T03:29:35.000Z</time>
      </trkpt>
      <trkpt lat="43.012888" lon="0.652895">
        <ele>860.2</ele>
        <time>1970-01-01T03:29:40.000Z</time>
      </trkpt>
      <trkpt lat="43.012724" lon="0.652854">
        <ele>861.4</ele>
        <time>1970-01-01T03:29:48.000Z</time>
      </trkpt>
      <trkpt lat="43.012575" lon="0.652903">
        <ele>862.4</ele>
        <time>1970-01-01T03:29:55.000Z</time>
      </trkpt>
      <trkpt lat="43.012428" lon="0.652976">
        <ele>863.4</ele>
        <time>1970-01-01T03:30:01.000Z</time>
      </trkpt>
      <trkpt lat="43.012274" lon="0.653016">
        <ele>864.6</ele>
        <time>1970-01-01T03:30:08.000Z</time>
      </trkpt>
      <trkpt lat="43.012171" lon="0.652988">
        <ele>865.6</ele>
        <time>1970-01-01T03:30:13.000Z</time>
      </trkpt>
      <trkpt lat="43.012027" lon="0.652903">
        <ele>866.6</ele>
        <time>1970-01-01T03:30:20.000Z</time>
      </trkpt>
      <trkpt lat="43.011898" lon="0.65276">
        <ele>867.6</ele>
        <time>1970-01-01T03:30:27.000Z</time>
      </trkpt>
      <trkpt lat="43.011767" lon="0.652626">
        <ele>868.8</ele>
        <time>1970-01-01T03:30:34.000Z</time>
      </trkpt>
      <trkpt lat="43.011633" lon="0.652441">
        <ele>869.8</ele>
        <time>1970-01-01T03:30:42.000Z</time>
      </trkpt>
      <trkpt lat="43.011475" lon="0.652183">
        <ele>870.8</ele>
        <time>1970-01-01T03:30:51.000Z</time>
      </trkpt>
      <trkpt lat="43.011362" lon="0.651978">
        <ele>872</ele>
        <time>1970-01-01T03:30:59.000Z</time>
      </trkpt>
      <trkpt lat="43.011212" lon="0.65178">
        <ele>873</ele>
        <time>1970-01-01T03:31:07.000Z</time>
      </trkpt>
      <trkpt lat="43.010789" lon="0.651242">
        <ele>873</ele>
        <time>1970-01-01T03:31:27.000Z</time>
      </trkpt>
      <trkpt lat="43.010692" lon="0.651177">
        <ele>872</ele>
        <time>1970-01-01T03:31:29.000Z</time>
      </trkpt>
      <trkpt lat="43.010566" lon="0.651099">
        <ele>870.6</ele>
        <time>1970-01-01T03:31:31.000Z</time>
      </trkpt>
      <trkpt lat="43.010421" lon="0.651026">
        <ele>869.2</ele>
        <time>1970-01-01T03:31:33.000Z</time>
      </trkpt>
      <trkpt lat="43.010289" lon="0.650955">
        <ele>867.4</ele>
        <time>1970-01-01T03:31:35.000Z</time>
      </trkpt>
      <trkpt lat="43.010173" lon="0.650894">
        <ele>865.8</ele>
        <time>1970-01-01T03:31:37.000Z</time>
      </trkpt>
      <trkpt lat="43.010118" lon="0.650864">
        <ele>864.8</ele>
        <time>1970-01-01T03:31:38.000Z</time>
      </trkpt>
      <trkpt lat="43.010072" lon="0.650837">
        <ele>863.8</ele>
        <time>1970-01-01T03:31:39.000Z</time>
      </trkpt>
      <trkpt lat="43.010022" lon="0.650817">
        <ele>862.6</ele>
        <time>1970-01-01T03:31:41.000Z</time>
      </trkpt>
      <trkpt lat="43.010014" lon="0.650798">
        <ele>862.2</ele>
        <time>1970-01-01T03:31:44.000Z</time>
      </trkpt>
      <trkpt lat="43.00999" lon="0.650781">
        <ele>861.6</ele>
        <time>1970-01-01T03:31:58.000Z</time>
      </trkpt>
      <trkpt lat="43.009972" lon="0.650777">
        <ele>861.6</ele>
        <time>1970-01-01T03:31:59.000Z</time>
      </trkpt>
      <trkpt lat="43.009773" lon="0.650761">
        <ele>860.4</ele>
        <time>1970-01-01T03:32:05.000Z</time>
      </trkpt>
      <trkpt lat="43.009685" lon="0.650743">
        <ele>859.2</ele>
        <time>1970-01-01T03:32:07.000Z</time>
      </trkpt>
      <trkpt lat="43.009634" lon="0.650728">
        <ele>858.6</ele>
        <time>1970-01-01T03:32:08.000Z</time>
      </trkpt>
      <trkpt lat="43.009512" lon="0.650696">
        <ele>857.6</ele>
        <time>1970-01-01T03:32:10.000Z</time>
      </trkpt>
      <trkpt lat="43.009387" lon="0.650638">
        <ele>856</ele>
        <time>1970-01-01T03:32:12.000Z</time>
      </trkpt>
      <trkpt lat="43.009324" lon="0.650594">
        <ele>855</ele>
        <time>1970-01-01T03:32:13.000Z</time>
      </trkpt>
      <trkpt lat="43.009259" lon="0.650538">
        <ele>854.2</ele>
        <time>1970-01-01T03:32:14.000Z</time>
      </trkpt>
      <trkpt lat="43.009043" lon="0.6503">
        <ele>853.4</ele>
        <time>1970-01-01T03:32:18.000Z</time>
      </trkpt>
      <trkpt lat="43.009" lon="0.65025">
        <ele>853.2</ele>
        <time>1970-01-01T03:32:19.000Z</time>
      </trkpt>
      <trkpt lat="43.008968" lon="0.650199">
        <ele>853.2</ele>
        <time>1970-01-01T03:32:20.000Z</time>
      </trkpt>
      <trkpt lat="43.008839" lon="0.649982">
        <ele>854.4</ele>
        <time>1970-01-01T03:32:26.000Z</time>
      </trkpt>
      <trkpt lat="43.008765" lon="0.649737">
        <ele>855.6</ele>
        <time>1970-01-01T03:32:33.000Z</time>
      </trkpt>
      <trkpt lat="43.008739" lon="0.649592">
        <ele>856.8</ele>
        <time>1970-01-01T03:32:37.000Z</time>
      </trkpt>
      <trkpt lat="43.00871" lon="0.649446">
        <ele>857.8</ele>
        <time>1970-01-01T03:32:42.000Z</time>
      </trkpt>
      <trkpt lat="43.008669" lon="0.64924">
        <ele>858.8</ele>
        <time>1970-01-01T03:32:48.000Z</time>
      </trkpt>
      <trkpt lat="43.008624" lon="0.648987">
        <ele>859</ele>
        <time>1970-01-01T03:32:55.000Z</time>
      </trkpt>
      <trkpt lat="43.008475" lon="0.648617">
        <ele>860.2</ele>
        <time>1970-01-01T03:33:05.000Z</time>
      </trkpt>
      <trkpt lat="43.008286" lon="0.648388">
        <ele>861.2</ele>
        <time>1970-01-01T03:33:12.000Z</time>
      </trkpt>
      <trkpt lat="43.008192" lon="0.648281">
        <ele>861.6</ele>
        <time>1970-01-01T03:33:16.000Z</time>
      </trkpt>
      <trkpt lat="43.007994" lon="0.64791">
        <ele>860.6</ele>
        <time>1970-01-01T03:33:25.000Z</time>
      </trkpt>
      <trkpt lat="43.0079" lon="0.647728">
        <ele>860</ele>
        <time>1970-01-01T03:33:28.000Z</time>
      </trkpt>
      <trkpt lat="43.007851" lon="0.647662">
        <ele>859.6</ele>
        <time>1970-01-01T03:33:29.000Z</time>
      </trkpt>
      <trkpt lat="43.007755" lon="0.647528">
        <ele>858.6</ele>
        <time>1970-01-01T03:33:31.000Z</time>
      </trkpt>
      <trkpt lat="43.007652" lon="0.647399">
        <ele>857.4</ele>
        <time>1970-01-01T03:33:33.000Z</time>
      </trkpt>
      <trkpt lat="43.0076" lon="0.647345">
        <ele>857</ele>
        <time>1970-01-01T03:33:34.000Z</time>
      </trkpt>
      <trkpt lat="43.00754" lon="0.6473">
        <ele>856.2</ele>
        <time>1970-01-01T03:33:35.000Z</time>
      </trkpt>
      <trkpt lat="43.007424" lon="0.647199">
        <ele>854.8</ele>
        <time>1970-01-01T03:33:37.000Z</time>
      </trkpt>
      <trkpt lat="43.007366" lon="0.647159">
        <ele>853.4</ele>
        <time>1970-01-01T03:33:38.000Z</time>
      </trkpt>
      <trkpt lat="43.007313" lon="0.647129">
        <ele>852.2</ele>
        <time>1970-01-01T03:33:39.000Z</time>
      </trkpt>
      <trkpt lat="43.007269" lon="0.647118">
        <ele>851.4</ele>
        <time>1970-01-01T03:33:40.000Z</time>
      </trkpt>
      <trkpt lat="43.007248" lon="0.647111">
        <ele>850.2</ele>
        <time>1970-01-01T03:33:41.000Z</time>
      </trkpt>
      <trkpt lat="43.007238" lon="0.647127">
        <ele>849.2</ele>
        <time>1970-01-01T03:33:42.000Z</time>
      </trkpt>
      <trkpt lat="43.007248" lon="0.647161">
        <ele>848</ele>
        <time>1970-01-01T03:33:44.000Z</time>
      </trkpt>
      <trkpt lat="43.007283" lon="0.647216">
        <ele>847.4</ele>
        <time>1970-01-01T03:33:46.000Z</time>
      </trkpt>
      <trkpt lat="43.007303" lon="0.647254">
        <ele>846.4</ele>
        <time>1970-01-01T03:33:47.000Z</time>
      </trkpt>
      <trkpt lat="43.007332" lon="0.647293">
        <ele>846</ele>
        <time>1970-01-01T03:33:48.000Z</time>
      </trkpt>
      <trkpt lat="43.007393" lon="0.647393">
        <ele>845.2</ele>
        <time>1970-01-01T03:33:50.000Z</time>
      </trkpt>
      <trkpt lat="43.007453" lon="0.647504">
        <ele>844</ele>
        <time>1970-01-01T03:33:52.000Z</time>
      </trkpt>
      <trkpt lat="43.007508" lon="0.647629">
        <ele>843.4</ele>
        <time>1970-01-01T03:33:54.000Z</time>
      </trkpt>
      <trkpt lat="43.007538" lon="0.647694">
        <ele>842.6</ele>
        <time>1970-01-01T03:33:55.000Z</time>
      </trkpt>
      <trkpt lat="43.007559" lon="0.64776">
        <ele>842</ele>
        <time>1970-01-01T03:33:56.000Z</time>
      </trkpt>
      <trkpt lat="43.007579" lon="0.647833">
        <ele>841.6</ele>
        <time>1970-01-01T03:33:57.000Z</time>
      </trkpt>
      <trkpt lat="43.00761" lon="0.647992">
        <ele>839.6</ele>
        <time>1970-01-01T03:33:59.000Z</time>
      </trkpt>
      <trkpt lat="43.007639" lon="0.64814">
        <ele>838.2</ele>
        <time>1970-01-01T03:34:01.000Z</time>
      </trkpt>
      <trkpt lat="43.00767" lon="0.648299">
        <ele>836.6</ele>
        <time>1970-01-01T03:34:03.000Z</time>
      </trkpt>
      <trkpt lat="43.007682" lon="0.648379">
        <ele>835.4</ele>
        <time>1970-01-01T03:34:04.000Z</time>
      </trkpt>
      <trkpt lat="43.007704" lon="0.648562">
        <ele>833.8</ele>
        <time>1970-01-01T03:34:06.000Z</time>
      </trkpt>
      <trkpt lat="43.007713" lon="0.648644">
        <ele>832.4</ele>
        <time>1970-01-01T03:34:07.000Z</time>
      </trkpt>
      <trkpt lat="43.007726" lon="0.648728">
        <ele>831.4</ele>
        <time>1970-01-01T03:34:08.000Z</time>
      </trkpt>
      <trkpt lat="43.007738" lon="0.64881">
        <ele>830.4</ele>
        <time>1970-01-01T03:34:09.000Z</time>
      </trkpt>
      <trkpt lat="43.007763" lon="0.648985">
        <ele>828.6</ele>
        <time>1970-01-01T03:34:11.000Z</time>
      </trkpt>
      <trkpt lat="43.007772" lon="0.649073">
        <ele>827.4</ele>
        <time>1970-01-01T03:34:12.000Z</time>
      </trkpt>
      <trkpt lat="43.007787" lon="0.649168">
        <ele>826.6</ele>
        <time>1970-01-01T03:34:13.000Z</time>
      </trkpt>
      <trkpt lat="43.007811" lon="0.649266">
        <ele>825.4</ele>
        <time>1970-01-01T03:34:14.000Z</time>
      </trkpt>
      <trkpt lat="43.007839" lon="0.649362">
        <ele>824</ele>
        <time>1970-01-01T03:34:15.000Z</time>
      </trkpt>
      <trkpt lat="43.007877" lon="0.649557">
        <ele>822</ele>
        <time>1970-01-01T03:34:17.000Z</time>
      </trkpt>
      <trkpt lat="43.007912" lon="0.649648">
        <ele>820.8</ele>
        <time>1970-01-01T03:34:18.000Z</time>
      </trkpt>
      <trkpt lat="43.007931" lon="0.649742">
        <ele>819.4</ele>
        <time>1970-01-01T03:34:19.000Z</time>
      </trkpt>
      <trkpt lat="43.007956" lon="0.649831">
        <ele>818.2</ele>
        <time>1970-01-01T03:34:20.000Z</time>
      </trkpt>
      <trkpt lat="43.007981" lon="0.649919">
        <ele>816.6</ele>
        <time>1970-01-01T03:34:21.000Z</time>
      </trkpt>
      <trkpt lat="43.00801" lon="0.650009">
        <ele>815.6</ele>
        <time>1970-01-01T03:34:22.000Z</time>
      </trkpt>
      <trkpt lat="43.008074" lon="0.650174">
        <ele>813.8</ele>
        <time>1970-01-01T03:34:24.000Z</time>
      </trkpt>
      <trkpt lat="43.008107" lon="0.650251">
        <ele>812.6</ele>
        <time>1970-01-01T03:34:25.000Z</time>
      </trkpt>
      <trkpt lat="43.008134" lon="0.650325">
        <ele>811.8</ele>
        <time>1970-01-01T03:34:26.000Z</time>
      </trkpt>
      <trkpt lat="43.008163" lon="0.650402">
        <ele>810.2</ele>
        <time>1970-01-01T03:34:27.000Z</time>
      </trkpt>
      <trkpt lat="43.008184" lon="0.650473">
        <ele>809</ele>
        <time>1970-01-01T03:34:28.000Z</time>
      </trkpt>
      <trkpt lat="43.008235" lon="0.650623">
        <ele>807</ele>
        <time>1970-01-01T03:34:30.000Z</time>
      </trkpt>
      <trkpt lat="43.008281" lon="0.650741">
        <ele>805</ele>
        <time>1970-01-01T03:34:32.000Z</time>
      </trkpt>
      <trkpt lat="43.008297" lon="0.650777">
        <ele>804</ele>
        <time>1970-01-01T03:34:33.000Z</time>
      </trkpt>
      <trkpt lat="43.008303" lon="0.650815">
        <ele>802.6</ele>
        <time>1970-01-01T03:34:35.000Z</time>
      </trkpt>
      <trkpt lat="43.00831" lon="0.650818">
        <ele>802.2</ele>
        <time>1970-01-01T03:34:36.000Z</time>
      </trkpt>
      <trkpt lat="43.008365" lon="0.650877">
        <ele>801.6</ele>
        <time>1970-01-01T03:34:42.000Z</time>
      </trkpt>
      <trkpt lat="43.008416" lon="0.651002">
        <ele>800.4</ele>
        <time>1970-01-01T03:34:45.000Z</time>
      </trkpt>
      <trkpt lat="43.008446" lon="0.6511">
        <ele>799</ele>
        <time>1970-01-01T03:34:47.000Z</time>
      </trkpt>
      <trkpt lat="43.00849" lon="0.651212">
        <ele>797.4</ele>
        <time>1970-01-01T03:34:49.000Z</time>
      </trkpt>
      <trkpt lat="43.008545" lon="0.651341">
        <ele>795.8</ele>
        <time>1970-01-01T03:34:51.000Z</time>
      </trkpt>
      <trkpt lat="43.008594" lon="0.651455">
        <ele>793.8</ele>
        <time>1970-01-01T03:34:53.000Z</time>
      </trkpt>
      <trkpt lat="43.008642" lon="0.651555">
        <ele>792.4</ele>
        <time>1970-01-01T03:34:55.000Z</time>
      </trkpt>
      <trkpt lat="43.008665" lon="0.651601">
        <ele>791.2</ele>
        <time>1970-01-01T03:34:56.000Z</time>
      </trkpt>
      <trkpt lat="43.008688" lon="0.651683">
        <ele>790</ele>
        <time>1970-01-01T03:34:58.000Z</time>
      </trkpt>
      <trkpt lat="43.008662" lon="0.651721">
        <ele>788.8</ele>
        <time>1970-01-01T03:35:01.000Z</time>
      </trkpt>
      <trkpt lat="43.00859" lon="0.651634">
        <ele>788.8</ele>
        <time>1970-01-01T03:35:06.000Z</time>
      </trkpt>
      <trkpt lat="43.008511" lon="0.651512">
        <ele>788.8</ele>
        <time>1970-01-01T03:35:14.000Z</time>
      </trkpt>
      <trkpt lat="43.008482" lon="0.651442">
        <ele>788.8</ele>
        <time>1970-01-01T03:35:22.000Z</time>
      </trkpt>
      <trkpt lat="43.008141" lon="0.650987">
        <ele>790</ele>
        <time>1970-01-01T03:35:39.000Z</time>
      </trkpt>
      <trkpt lat="43.007903" lon="0.650705">
        <ele>791</ele>
        <time>1970-01-01T03:35:49.000Z</time>
      </trkpt>
      <trkpt lat="43.007637" lon="0.650373">
        <ele>792</ele>
        <time>1970-01-01T03:36:00.000Z</time>
      </trkpt>
      <trkpt lat="43.007534" lon="0.650194">
        <ele>793</ele>
        <time>1970-01-01T03:36:05.000Z</time>
      </trkpt>
      <trkpt lat="43.007412" lon="0.649706">
        <ele>794.2</ele>
        <time>1970-01-01T03:36:17.000Z</time>
      </trkpt>
      <trkpt lat="43.007335" lon="0.649408">
        <ele>795</ele>
        <time>1970-01-01T03:36:26.000Z</time>
      </trkpt>
      <trkpt lat="43.007245" lon="0.649155">
        <ele>796.2</ele>
        <time>1970-01-01T03:36:33.000Z</time>
      </trkpt>
      <trkpt lat="43.006859" lon="0.648902">
        <ele>797.4</ele>
        <time>1970-01-01T03:36:46.000Z</time>
      </trkpt>
      <trkpt lat="43.006404" lon="0.648989">
        <ele>798.6</ele>
        <time>1970-01-01T03:37:00.000Z</time>
      </trkpt>
      <trkpt lat="43.005945" lon="0.649087">
        <ele>799.8</ele>
        <time>1970-01-01T03:37:16.000Z</time>
      </trkpt>
      <trkpt lat="43.00537" lon="0.649133">
        <ele>800.8</ele>
        <time>1970-01-01T03:37:31.000Z</time>
      </trkpt>
      <trkpt lat="43.005193" lon="0.649067">
        <ele>800.6</ele>
        <time>1970-01-01T03:37:35.000Z</time>
      </trkpt>
      <trkpt lat="43.00494" lon="0.648925">
        <ele>800.6</ele>
        <time>1970-01-01T03:37:41.000Z</time>
      </trkpt>
      <trkpt lat="43.004676" lon="0.648932">
        <ele>799.4</ele>
        <time>1970-01-01T03:37:46.000Z</time>
      </trkpt>
      <trkpt lat="43.004368" lon="0.64893">
        <ele>798.4</ele>
        <time>1970-01-01T03:37:51.000Z</time>
      </trkpt>
      <trkpt lat="43.004239" lon="0.648933">
        <ele>797</ele>
        <time>1970-01-01T03:37:53.000Z</time>
      </trkpt>
      <trkpt lat="43.004018" lon="0.648963">
        <ele>795.6</ele>
        <time>1970-01-01T03:37:56.000Z</time>
      </trkpt>
      <trkpt lat="43.003939" lon="0.648965">
        <ele>795.2</ele>
        <time>1970-01-01T03:37:57.000Z</time>
      </trkpt>
      <trkpt lat="43.00378" lon="0.648941">
        <ele>794.4</ele>
        <time>1970-01-01T03:37:59.000Z</time>
      </trkpt>
      <trkpt lat="43.003671" lon="0.648918">
        <ele>793</ele>
        <time>1970-01-01T03:38:01.000Z</time>
      </trkpt>
      <trkpt lat="43.003622" lon="0.648915">
        <ele>792</ele>
        <time>1970-01-01T03:38:03.000Z</time>
      </trkpt>
      <trkpt lat="43.003554" lon="0.648942">
        <ele>791.8</ele>
        <time>1970-01-01T03:38:06.000Z</time>
      </trkpt>
      <trkpt lat="43.0035" lon="0.648965">
        <ele>791.2</ele>
        <time>1970-01-01T03:38:19.000Z</time>
      </trkpt>
      <trkpt lat="43.003447" lon="0.648988">
        <ele>791</ele>
        <time>1970-01-01T03:38:20.000Z</time>
      </trkpt>
      <trkpt lat="43.003287" lon="0.649097">
        <ele>789.8</ele>
        <time>1970-01-01T03:38:25.000Z</time>
      </trkpt>
      <trkpt lat="43.003251" lon="0.649134">
        <ele>789.6</ele>
        <time>1970-01-01T03:38:26.000Z</time>
      </trkpt>
      <trkpt lat="43.003167" lon="0.649293">
        <ele>788.4</ele>
        <time>1970-01-01T03:38:29.000Z</time>
      </trkpt>
      <trkpt lat="43.003125" lon="0.649508">
        <ele>787.2</ele>
        <time>1970-01-01T03:38:32.000Z</time>
      </trkpt>
      <trkpt lat="43.003081" lon="0.649746">
        <ele>785.6</ele>
        <time>1970-01-01T03:38:35.000Z</time>
      </trkpt>
      <trkpt lat="43.003065" lon="0.64984">
        <ele>785.2</ele>
        <time>1970-01-01T03:38:36.000Z</time>
      </trkpt>
      <trkpt lat="43.00306" lon="0.64993">
        <ele>784.4</ele>
        <time>1970-01-01T03:38:37.000Z</time>
      </trkpt>
      <trkpt lat="43.003064" lon="0.650117">
        <ele>783.6</ele>
        <time>1970-01-01T03:38:39.000Z</time>
      </trkpt>
      <trkpt lat="43.003075" lon="0.650294">
        <ele>782.2</ele>
        <time>1970-01-01T03:38:41.000Z</time>
      </trkpt>
      <trkpt lat="43.003096" lon="0.650471">
        <ele>780.8</ele>
        <time>1970-01-01T03:38:43.000Z</time>
      </trkpt>
      <trkpt lat="43.003118" lon="0.65061">
        <ele>779.2</ele>
        <time>1970-01-01T03:38:45.000Z</time>
      </trkpt>
      <trkpt lat="43.003128" lon="0.650691">
        <ele>778</ele>
        <time>1970-01-01T03:38:47.000Z</time>
      </trkpt>
      <trkpt lat="43.003152" lon="0.650766">
        <ele>777</ele>
        <time>1970-01-01T03:38:53.000Z</time>
      </trkpt>
      <trkpt lat="43.003109" lon="0.650858">
        <ele>776.4</ele>
        <time>1970-01-01T03:39:23.000Z</time>
      </trkpt>
      <trkpt lat="43.003151" lon="0.651115">
        <ele>775.2</ele>
        <time>1970-01-01T03:39:27.000Z</time>
      </trkpt>
      <trkpt lat="43.003197" lon="0.651284">
        <ele>773.6</ele>
        <time>1970-01-01T03:39:29.000Z</time>
      </trkpt>
      <trkpt lat="43.003272" lon="0.651602">
        <ele>772</ele>
        <time>1970-01-01T03:39:32.000Z</time>
      </trkpt>
      <trkpt lat="43.003394" lon="0.65194">
        <ele>770.4</ele>
        <time>1970-01-01T03:39:35.000Z</time>
      </trkpt>
      <trkpt lat="43.003486" lon="0.652179">
        <ele>768.8</ele>
        <time>1970-01-01T03:39:37.000Z</time>
      </trkpt>
      <trkpt lat="43.003574" lon="0.652435">
        <ele>767.4</ele>
        <time>1970-01-01T03:39:39.000Z</time>
      </trkpt>
      <trkpt lat="43.003678" lon="0.652698">
        <ele>766</ele>
        <time>1970-01-01T03:39:41.000Z</time>
      </trkpt>
      <trkpt lat="43.003781" lon="0.652957">
        <ele>764.4</ele>
        <time>1970-01-01T03:39:43.000Z</time>
      </trkpt>
      <trkpt lat="43.003908" lon="0.653217">
        <ele>762.8</ele>
        <time>1970-01-01T03:39:45.000Z</time>
      </trkpt>
      <trkpt lat="43.003999" lon="0.65349">
        <ele>760.6</ele>
        <time>1970-01-01T03:39:47.000Z</time>
      </trkpt>
      <trkpt lat="43.004034" lon="0.65362">
        <ele>759.6</ele>
        <time>1970-01-01T03:39:48.000Z</time>
      </trkpt>
      <trkpt lat="43.004058" lon="0.653739">
        <ele>758.6</ele>
        <time>1970-01-01T03:39:49.000Z</time>
      </trkpt>
      <trkpt lat="43.004104" lon="0.653937">
        <ele>756.6</ele>
        <time>1970-01-01T03:39:51.000Z</time>
      </trkpt>
      <trkpt lat="43.004159" lon="0.654092">
        <ele>755.4</ele>
        <time>1970-01-01T03:39:53.000Z</time>
      </trkpt>
      <trkpt lat="43.004183" lon="0.654172">
        <ele>754</ele>
        <time>1970-01-01T03:39:55.000Z</time>
      </trkpt>
      <trkpt lat="43.004195" lon="0.65419">
        <ele>753.4</ele>
        <time>1970-01-01T03:39:57.000Z</time>
      </trkpt>
      <trkpt lat="43.004196" lon="0.654221">
        <ele>753</ele>
        <time>1970-01-01T03:40:45.000Z</time>
      </trkpt>
      <trkpt lat="43.004216" lon="0.654295">
        <ele>752.8</ele>
        <time>1970-01-01T03:40:47.000Z</time>
      </trkpt>
      <trkpt lat="43.004303" lon="0.654577">
        <ele>751.6</ele>
        <time>1970-01-01T03:40:54.000Z</time>
      </trkpt>
      <trkpt lat="43.004329" lon="0.65474">
        <ele>750.6</ele>
        <time>1970-01-01T03:40:58.000Z</time>
      </trkpt>
      <trkpt lat="43.004393" lon="0.654972">
        <ele>749.4</ele>
        <time>1970-01-01T03:41:03.000Z</time>
      </trkpt>
      <trkpt lat="43.004419" lon="0.655094">
        <ele>748.2</ele>
        <time>1970-01-01T03:41:06.000Z</time>
      </trkpt>
      <trkpt lat="43.004504" lon="0.655277">
        <ele>747.2</ele>
        <time>1970-01-01T03:41:11.000Z</time>
      </trkpt>
      <trkpt lat="43.004608" lon="0.655478">
        <ele>746</ele>
        <time>1970-01-01T03:41:16.000Z</time>
      </trkpt>
      <trkpt lat="43.004728" lon="0.65576">
        <ele>744.8</ele>
        <time>1970-01-01T03:41:23.000Z</time>
      </trkpt>
      <trkpt lat="43.00478" lon="0.655894">
        <ele>743.6</ele>
        <time>1970-01-01T03:41:27.000Z</time>
      </trkpt>
      <trkpt lat="43.004894" lon="0.65614">
        <ele>742.6</ele>
        <time>1970-01-01T03:41:34.000Z</time>
      </trkpt>
      <trkpt lat="43.004921" lon="0.656192">
        <ele>742</ele>
        <time>1970-01-01T03:41:37.000Z</time>
      </trkpt>
      <trkpt lat="43.00488" lon="0.656148">
        <ele>741.8</ele>
        <time>1970-01-01T03:41:52.000Z</time>
      </trkpt>
      <trkpt lat="43.004808" lon="0.655882">
        <ele>743.6</ele>
        <time>1970-01-01T03:42:04.000Z</time>
      </trkpt>
      <trkpt lat="43.004801" lon="0.655811">
        <ele>744.2</ele>
        <time>1970-01-01T03:42:07.000Z</time>
      </trkpt>
      <trkpt lat="43.00475" lon="0.655676">
        <ele>744.8</ele>
        <time>1970-01-01T03:42:12.000Z</time>
      </trkpt>
      <trkpt lat="43.004663" lon="0.655507">
        <ele>746</ele>
        <time>1970-01-01T03:42:18.000Z</time>
      </trkpt>
      <trkpt lat="43.004586" lon="0.655311">
        <ele>747</ele>
        <time>1970-01-01T03:42:25.000Z</time>
      </trkpt>
      <trkpt lat="43.004572" lon="0.655171">
        <ele>748.2</ele>
        <time>1970-01-01T03:42:31.000Z</time>
      </trkpt>
      <trkpt lat="43.004519" lon="0.655006">
        <ele>749.2</ele>
        <time>1970-01-01T03:42:37.000Z</time>
      </trkpt>
      <trkpt lat="43.004428" lon="0.654794">
        <ele>750.4</ele>
        <time>1970-01-01T03:42:45.000Z</time>
      </trkpt>
      <trkpt lat="43.004356" lon="0.654615">
        <ele>751.4</ele>
        <time>1970-01-01T03:42:51.000Z</time>
      </trkpt>
      <trkpt lat="43.00427" lon="0.654395">
        <ele>752.4</ele>
        <time>1970-01-01T03:42:59.000Z</time>
      </trkpt>
      <trkpt lat="43.004204" lon="0.654208">
        <ele>753.4</ele>
        <time>1970-01-01T03:43:05.000Z</time>
      </trkpt>
      <trkpt lat="43.00413" lon="0.653962">
        <ele>754.6</ele>
        <time>1970-01-01T03:43:12.000Z</time>
      </trkpt>
      <trkpt lat="43.00408" lon="0.653759">
        <ele>755.8</ele>
        <time>1970-01-01T03:43:18.000Z</time>
      </trkpt>
      <trkpt lat="43.004014" lon="0.653519">
        <ele>757.2</ele>
        <time>1970-01-01T03:43:26.000Z</time>
      </trkpt>
      <trkpt lat="43.003954" lon="0.653372">
        <ele>758.4</ele>
        <time>1970-01-01T03:43:32.000Z</time>
      </trkpt>
      <trkpt lat="43.00391" lon="0.653236">
        <ele>759.4</ele>
        <time>1970-01-01T03:43:38.000Z</time>
      </trkpt>
      <trkpt lat="43.003853" lon="0.653081">
        <ele>760.6</ele>
        <time>1970-01-01T03:43:45.000Z</time>
      </trkpt>
      <trkpt lat="43.003785" lon="0.652943">
        <ele>761.8</ele>
        <time>1970-01-01T03:43:51.000Z</time>
      </trkpt>
      <trkpt lat="43.003697" lon="0.652774">
        <ele>762.8</ele>
        <time>1970-01-01T03:43:58.000Z</time>
      </trkpt>
      <trkpt lat="43.003644" lon="0.652632">
        <ele>764</ele>
        <time>1970-01-01T03:44:05.000Z</time>
      </trkpt>
      <trkpt lat="43.003593" lon="0.652504">
        <ele>765.2</ele>
        <time>1970-01-01T03:44:11.000Z</time>
      </trkpt>
      <trkpt lat="43.003544" lon="0.652332">
        <ele>766.4</ele>
        <time>1970-01-01T03:44:19.000Z</time>
      </trkpt>
      <trkpt lat="43.003502" lon="0.652205">
        <ele>767.4</ele>
        <time>1970-01-01T03:44:24.000Z</time>
      </trkpt>
      <trkpt lat="43.003446" lon="0.652039">
        <ele>768.6</ele>
        <time>1970-01-01T03:44:30.000Z</time>
      </trkpt>
      <trkpt lat="43.00337" lon="0.651848">
        <ele>769.8</ele>
        <time>1970-01-01T03:44:37.000Z</time>
      </trkpt>
      <trkpt lat="43.003339" lon="0.651671">
        <ele>770.6</ele>
        <time>1970-01-01T03:44:44.000Z</time>
      </trkpt>
      <trkpt lat="43.003299" lon="0.651561">
        <ele>771.8</ele>
        <time>1970-01-01T03:44:49.000Z</time>
      </trkpt>
      <trkpt lat="43.003228" lon="0.651411">
        <ele>773</ele>
        <time>1970-01-01T03:44:55.000Z</time>
      </trkpt>
      <trkpt lat="43.003171" lon="0.651256">
        <ele>774</ele>
        <time>1970-01-01T03:45:02.000Z</time>
      </trkpt>
      <trkpt lat="43.003177" lon="0.651108">
        <ele>775.4</ele>
        <time>1970-01-01T03:45:08.000Z</time>
      </trkpt>
      <trkpt lat="43.003167" lon="0.651">
        <ele>776.2</ele>
        <time>1970-01-01T03:45:13.000Z</time>
      </trkpt>
      <trkpt lat="43.003174" lon="0.650973">
        <ele>776.4</ele>
        <time>1970-01-01T03:45:14.000Z</time>
      </trkpt>
      <trkpt lat="43.003187" lon="0.650891">
        <ele>777</ele>
        <time>1970-01-01T03:45:17.000Z</time>
      </trkpt>
      <trkpt lat="43.003164" lon="0.650799">
        <ele>777.6</ele>
        <time>1970-01-01T03:45:21.000Z</time>
      </trkpt>
      <trkpt lat="43.003121" lon="0.650662">
        <ele>778.8</ele>
        <time>1970-01-01T03:45:27.000Z</time>
      </trkpt>
      <trkpt lat="43.003117" lon="0.650547">
        <ele>779.8</ele>
        <time>1970-01-01T03:45:32.000Z</time>
      </trkpt>
      <trkpt lat="43.003093" lon="0.650391">
        <ele>781</ele>
        <time>1970-01-01T03:45:39.000Z</time>
      </trkpt>
      <trkpt lat="43.003105" lon="0.650249">
        <ele>782</ele>
        <time>1970-01-01T03:45:45.000Z</time>
      </trkpt>
      <trkpt lat="43.003098" lon="0.650096">
        <ele>783.2</ele>
        <time>1970-01-01T03:45:52.000Z</time>
      </trkpt>
      <trkpt lat="43.003124" lon="0.649892">
        <ele>784.2</ele>
        <time>1970-01-01T03:45:59.000Z</time>
      </trkpt>
      <trkpt lat="43.003141" lon="0.649767">
        <ele>785.4</ele>
        <time>1970-01-01T03:46:04.000Z</time>
      </trkpt>
      <trkpt lat="43.003158" lon="0.649705">
        <ele>786</ele>
        <time>1970-01-01T03:46:07.000Z</time>
      </trkpt>
      <trkpt lat="43.003177" lon="0.649635">
        <ele>786.4</ele>
        <time>1970-01-01T03:46:10.000Z</time>
      </trkpt>
      <trkpt lat="43.003178" lon="0.649605">
        <ele>786.6</ele>
        <time>1970-01-01T03:46:11.000Z</time>
      </trkpt>
      <trkpt lat="43.00318" lon="0.64958">
        <ele>786.8</ele>
        <time>1970-01-01T03:46:12.000Z</time>
      </trkpt>
      <trkpt lat="43.003208" lon="0.649452">
        <ele>787.6</ele>
        <time>1970-01-01T03:46:17.000Z</time>
      </trkpt>
      <trkpt lat="43.003249" lon="0.649251">
        <ele>788.6</ele>
        <time>1970-01-01T03:46:25.000Z</time>
      </trkpt>
      <trkpt lat="43.003281" lon="0.649146">
        <ele>789.6</ele>
        <time>1970-01-01T03:46:30.000Z</time>
      </trkpt>
      <trkpt lat="43.003399" lon="0.649076">
        <ele>790.8</ele>
        <time>1970-01-01T03:46:37.000Z</time>
      </trkpt>
      <trkpt lat="43.00342" lon="0.649067">
        <ele>791</ele>
        <time>1970-01-01T03:46:39.000Z</time>
      </trkpt>
      <trkpt lat="43.003513" lon="0.648987">
        <ele>791.6</ele>
        <time>1970-01-01T03:46:46.000Z</time>
      </trkpt>
      <trkpt lat="43.003517" lon="0.64898">
        <ele>791.8</ele>
        <time>1970-01-01T03:46:47.000Z</time>
      </trkpt>
      <trkpt lat="43.003524" lon="0.648986">
        <ele>792.4</ele>
        <time>1970-01-01T03:46:50.000Z</time>
      </trkpt>
      <trkpt lat="43.003437" lon="0.648955">
        <ele>793.6</ele>
        <time>1970-01-01T03:47:01.000Z</time>
      </trkpt>
      <trkpt lat="43.003336" lon="0.648967">
        <ele>794.8</ele>
        <time>1970-01-01T03:47:07.000Z</time>
      </trkpt>
      <trkpt lat="43.003255" lon="0.648951">
        <ele>795.8</ele>
        <time>1970-01-01T03:47:12.000Z</time>
      </trkpt>
      <trkpt lat="43.003186" lon="0.64897">
        <ele>797</ele>
        <time>1970-01-01T03:47:17.000Z</time>
      </trkpt>
      <trkpt lat="43.003081" lon="0.649028">
        <ele>798</ele>
        <time>1970-01-01T03:47:24.000Z</time>
      </trkpt>
      <trkpt lat="43.003076" lon="0.649039">
        <ele>798.2</ele>
        <time>1970-01-01T03:47:25.000Z</time>
      </trkpt>
      <trkpt lat="43.003022" lon="0.649104">
        <ele>799.2</ele>
        <time>1970-01-01T03:47:30.000Z</time>
      </trkpt>
      <trkpt lat="43.002977" lon="0.649172">
        <ele>800</ele>
        <time>1970-01-01T03:47:35.000Z</time>
      </trkpt>
      <trkpt lat="43.002958" lon="0.649216">
        <ele>800.4</ele>
        <time>1970-01-01T03:47:37.000Z</time>
      </trkpt>
      <trkpt lat="43.002886" lon="0.649323">
        <ele>801.6</ele>
        <time>1970-01-01T03:47:42.000Z</time>
      </trkpt>
      <trkpt lat="43.00283" lon="0.649452">
        <ele>802.6</ele>
        <time>1970-01-01T03:47:48.000Z</time>
      </trkpt>
      <trkpt lat="43.002765" lon="0.649613">
        <ele>803.6</ele>
        <time>1970-01-01T03:47:55.000Z</time>
      </trkpt>
      <trkpt lat="43.002728" lon="0.649813">
        <ele>804.6</ele>
        <time>1970-01-01T03:48:03.000Z</time>
      </trkpt>
      <trkpt lat="43.002695" lon="0.649961">
        <ele>805.8</ele>
        <time>1970-01-01T03:48:09.000Z</time>
      </trkpt>
      <trkpt lat="43.002668" lon="0.650166">
        <ele>807</ele>
        <time>1970-01-01T03:48:17.000Z</time>
      </trkpt>
      <trkpt lat="43.002685" lon="0.650301">
        <ele>808.2</ele>
        <time>1970-01-01T03:48:23.000Z</time>
      </trkpt>
      <trkpt lat="43.002654" lon="0.650428">
        <ele>809.4</ele>
        <time>1970-01-01T03:48:29.000Z</time>
      </trkpt>
      <trkpt lat="43.00263" lon="0.650551">
        <ele>810.6</ele>
        <time>1970-01-01T03:48:35.000Z</time>
      </trkpt>
      <trkpt lat="43.002629" lon="0.650682">
        <ele>811.8</ele>
        <time>1970-01-01T03:48:41.000Z</time>
      </trkpt>
      <trkpt lat="43.002619" lon="0.650726">
        <ele>812</ele>
        <time>1970-01-01T03:48:43.000Z</time>
      </trkpt>
      <trkpt lat="43.002611" lon="0.650769">
        <ele>812.4</ele>
        <time>1970-01-01T03:48:45.000Z</time>
      </trkpt>
      <trkpt lat="43.0026" lon="0.650815">
        <ele>812.6</ele>
        <time>1970-01-01T03:48:47.000Z</time>
      </trkpt>
      <trkpt lat="43.002596" lon="0.650944">
        <ele>814</ele>
        <time>1970-01-01T03:48:53.000Z</time>
      </trkpt>
      <trkpt lat="43.002594" lon="0.651014">
        <ele>814.4</ele>
        <time>1970-01-01T03:48:56.000Z</time>
      </trkpt>
      <trkpt lat="43.002582" lon="0.651082">
        <ele>814.8</ele>
        <time>1970-01-01T03:48:59.000Z</time>
      </trkpt>
      <trkpt lat="43.002553" lon="0.651213">
        <ele>816</ele>
        <time>1970-01-01T03:49:05.000Z</time>
      </trkpt>
      <trkpt lat="43.002476" lon="0.651356">
        <ele>817.2</ele>
        <time>1970-01-01T03:49:12.000Z</time>
      </trkpt>
      <trkpt lat="43.002442" lon="0.651431">
        <ele>817.8</ele>
        <time>1970-01-01T03:49:17.000Z</time>
      </trkpt>
      <trkpt lat="43.002433" lon="0.651484">
        <ele>818.2</ele>
        <time>1970-01-01T03:49:19.000Z</time>
      </trkpt>
      <trkpt lat="43.002425" lon="0.651532">
        <ele>819</ele>
        <time>1970-01-01T03:49:21.000Z</time>
      </trkpt>
      <trkpt lat="43.002408" lon="0.651603">
        <ele>819.4</ele>
        <time>1970-01-01T03:49:24.000Z</time>
      </trkpt>
      <trkpt lat="43.002389" lon="0.651726">
        <ele>820.6</ele>
        <time>1970-01-01T03:49:29.000Z</time>
      </trkpt>
      <trkpt lat="43.002362" lon="0.651864">
        <ele>821.8</ele>
        <time>1970-01-01T03:49:35.000Z</time>
      </trkpt>
      <trkpt lat="43.002343" lon="0.651929">
        <ele>822</ele>
        <time>1970-01-01T03:49:38.000Z</time>
      </trkpt>
      <trkpt lat="43.002302" lon="0.652003">
        <ele>823</ele>
        <time>1970-01-01T03:49:42.000Z</time>
      </trkpt>
      <trkpt lat="43.002301" lon="0.652025">
        <ele>823.2</ele>
        <time>1970-01-01T03:49:43.000Z</time>
      </trkpt>
      <trkpt lat="43.002319" lon="0.652182">
        <ele>824</ele>
        <time>1970-01-01T03:49:48.000Z</time>
      </trkpt>
      <trkpt lat="43.002364" lon="0.65238">
        <ele>825.2</ele>
        <time>1970-01-01T03:49:55.000Z</time>
      </trkpt>
      <trkpt lat="43.002442" lon="0.652528">
        <ele>826.2</ele>
        <time>1970-01-01T03:50:02.000Z</time>
      </trkpt>
      <trkpt lat="43.00254" lon="0.652678">
        <ele>827.2</ele>
        <time>1970-01-01T03:50:10.000Z</time>
      </trkpt>
      <trkpt lat="43.002605" lon="0.652787">
        <ele>828.4</ele>
        <time>1970-01-01T03:50:16.000Z</time>
      </trkpt>
      <trkpt lat="43.002648" lon="0.652888">
        <ele>829.6</ele>
        <time>1970-01-01T03:50:21.000Z</time>
      </trkpt>
      <trkpt lat="43.002726" lon="0.653065">
        <ele>830.8</ele>
        <time>1970-01-01T03:50:29.000Z</time>
      </trkpt>
      <trkpt lat="43.002768" lon="0.653187">
        <ele>831.8</ele>
        <time>1970-01-01T03:50:34.000Z</time>
      </trkpt>
      <trkpt lat="43.002814" lon="0.653319">
        <ele>833</ele>
        <time>1970-01-01T03:50:40.000Z</time>
      </trkpt>
      <trkpt lat="43.002848" lon="0.653476">
        <ele>834.2</ele>
        <time>1970-01-01T03:50:47.000Z</time>
      </trkpt>
      <trkpt lat="43.002823" lon="0.653558">
        <ele>835.2</ele>
        <time>1970-01-01T03:50:52.000Z</time>
      </trkpt>
      <trkpt lat="43.00281" lon="0.653566">
        <ele>835.4</ele>
        <time>1970-01-01T03:50:53.000Z</time>
      </trkpt>
      <trkpt lat="43.002721" lon="0.653532">
        <ele>836.2</ele>
        <time>1970-01-01T03:50:59.000Z</time>
      </trkpt>
      <trkpt lat="43.00263" lon="0.65339">
        <ele>837.4</ele>
        <time>1970-01-01T03:51:07.000Z</time>
      </trkpt>
      <trkpt lat="43.002595" lon="0.65334">
        <ele>838</ele>
        <time>1970-01-01T03:51:10.000Z</time>
      </trkpt>
      <trkpt lat="43.002567" lon="0.653308">
        <ele>838.6</ele>
        <time>1970-01-01T03:51:12.000Z</time>
      </trkpt>
      <trkpt lat="43.002448" lon="0.653221">
        <ele>839.6</ele>
        <time>1970-01-01T03:51:19.000Z</time>
      </trkpt>
      <trkpt lat="43.002274" lon="0.653171">
        <ele>840.6</ele>
        <time>1970-01-01T03:51:28.000Z</time>
      </trkpt>
      <trkpt lat="43.002124" lon="0.653126">
        <ele>841.6</ele>
        <time>1970-01-01T03:51:36.000Z</time>
      </trkpt>
      <trkpt lat="43.001978" lon="0.653093">
        <ele>842.8</ele>
        <time>1970-01-01T03:51:45.000Z</time>
      </trkpt>
      <trkpt lat="43.001882" lon="0.653048">
        <ele>843.8</ele>
        <time>1970-01-01T03:51:51.000Z</time>
      </trkpt>
      <trkpt lat="43.001765" lon="0.652967">
        <ele>845</ele>
        <time>1970-01-01T03:51:58.000Z</time>
      </trkpt>
      <trkpt lat="43.001666" lon="0.652872">
        <ele>846</ele>
        <time>1970-01-01T03:52:05.000Z</time>
      </trkpt>
      <trkpt lat="43.001561" lon="0.652707">
        <ele>847</ele>
        <time>1970-01-01T03:52:13.000Z</time>
      </trkpt>
      <trkpt lat="43.001489" lon="0.652585">
        <ele>848</ele>
        <time>1970-01-01T03:52:19.000Z</time>
      </trkpt>
      <trkpt lat="43.001409" lon="0.652437">
        <ele>849.2</ele>
        <time>1970-01-01T03:52:27.000Z</time>
      </trkpt>
      <trkpt lat="43.001312" lon="0.652308">
        <ele>850.2</ele>
        <time>1970-01-01T03:52:34.000Z</time>
      </trkpt>
      <trkpt lat="43.001167" lon="0.652144">
        <ele>851</ele>
        <time>1970-01-01T03:52:42.000Z</time>
      </trkpt>
      <trkpt lat="43.001068" lon="0.651986">
        <ele>852.2</ele>
        <time>1970-01-01T03:52:49.000Z</time>
      </trkpt>
      <trkpt lat="43.000994" lon="0.651835">
        <ele>853.4</ele>
        <time>1970-01-01T03:52:55.000Z</time>
      </trkpt>
      <trkpt lat="43.000945" lon="0.651689">
        <ele>854.2</ele>
        <time>1970-01-01T03:53:01.000Z</time>
      </trkpt>
      <trkpt lat="43.000889" lon="0.651504">
        <ele>855</ele>
        <time>1970-01-01T03:53:07.000Z</time>
      </trkpt>
      <trkpt lat="43.000849" lon="0.651392">
        <ele>855.4</ele>
        <time>1970-01-01T03:53:11.000Z</time>
      </trkpt>
      <trkpt lat="43.000782" lon="0.651164">
        <ele>856.4</ele>
        <time>1970-01-01T03:53:18.000Z</time>
      </trkpt>
      <trkpt lat="43.000779" lon="0.650935">
        <ele>857.4</ele>
        <time>1970-01-01T03:53:25.000Z</time>
      </trkpt>
      <trkpt lat="43.000783" lon="0.650783">
        <ele>858.4</ele>
        <time>1970-01-01T03:53:30.000Z</time>
      </trkpt>
      <trkpt lat="43.000832" lon="0.650553">
        <ele>859.4</ele>
        <time>1970-01-01T03:53:37.000Z</time>
      </trkpt>
      <trkpt lat="43.000871" lon="0.650347">
        <ele>860.4</ele>
        <time>1970-01-01T03:53:44.000Z</time>
      </trkpt>
      <trkpt lat="43.000896" lon="0.650144">
        <ele>861.4</ele>
        <time>1970-01-01T03:53:51.000Z</time>
      </trkpt>
      <trkpt lat="43.00093" lon="0.649991">
        <ele>862.6</ele>
        <time>1970-01-01T03:53:57.000Z</time>
      </trkpt>
      <trkpt lat="43.000959" lon="0.649873">
        <ele>863.4</ele>
        <time>1970-01-01T03:54:02.000Z</time>
      </trkpt>
      <trkpt lat="43.001014" lon="0.649773">
        <ele>864.6</ele>
        <time>1970-01-01T03:54:07.000Z</time>
      </trkpt>
      <trkpt lat="43.001052" lon="0.649693">
        <ele>865.8</ele>
        <time>1970-01-01T03:54:11.000Z</time>
      </trkpt>
      <trkpt lat="43.001127" lon="0.649531">
        <ele>866.8</ele>
        <time>1970-01-01T03:54:18.000Z</time>
      </trkpt>
      <trkpt lat="43.001136" lon="0.649406">
        <ele>867.8</ele>
        <time>1970-01-01T03:54:23.000Z</time>
      </trkpt>
      <trkpt lat="43.001133" lon="0.649278">
        <ele>869</ele>
        <time>1970-01-01T03:54:29.000Z</time>
      </trkpt>
      <trkpt lat="43.001127" lon="0.649259">
        <ele>869.2</ele>
        <time>1970-01-01T03:54:30.000Z</time>
      </trkpt>
      <trkpt lat="43.001099" lon="0.649201">
        <ele>870</ele>
        <time>1970-01-01T03:54:33.000Z</time>
      </trkpt>
      <trkpt lat="43.00108" lon="0.649164">
        <ele>870.4</ele>
        <time>1970-01-01T03:54:35.000Z</time>
      </trkpt>
      <trkpt lat="43.001044" lon="0.649082">
        <ele>871</ele>
        <time>1970-01-01T03:54:40.000Z</time>
      </trkpt>
      <trkpt lat="43.000984" lon="0.648906">
        <ele>872</ele>
        <time>1970-01-01T03:54:48.000Z</time>
      </trkpt>
      <trkpt lat="43.000978" lon="0.648862">
        <ele>872.6</ele>
        <time>1970-01-01T03:54:50.000Z</time>
      </trkpt>
      <trkpt lat="43.000968" lon="0.648812">
        <ele>873.2</ele>
        <time>1970-01-01T03:54:52.000Z</time>
      </trkpt>
      <trkpt lat="43.000935" lon="0.648687">
        <ele>874.4</ele>
        <time>1970-01-01T03:54:57.000Z</time>
      </trkpt>
      <trkpt lat="43.000918" lon="0.648542">
        <ele>875.4</ele>
        <time>1970-01-01T03:55:02.000Z</time>
      </trkpt>
      <trkpt lat="43.000886" lon="0.64839">
        <ele>876.4</ele>
        <time>1970-01-01T03:55:08.000Z</time>
      </trkpt>
      <trkpt lat="43.000873" lon="0.648256">
        <ele>877.8</ele>
        <time>1970-01-01T03:55:13.000Z</time>
      </trkpt>
      <trkpt lat="43.000862" lon="0.64809">
        <ele>879.2</ele>
        <time>1970-01-01T03:55:19.000Z</time>
      </trkpt>
      <trkpt lat="43.000838" lon="0.647961">
        <ele>880.4</ele>
        <time>1970-01-01T03:55:24.000Z</time>
      </trkpt>
      <trkpt lat="43.000838" lon="0.647808">
        <ele>881.6</ele>
        <time>1970-01-01T03:55:29.000Z</time>
      </trkpt>
      <trkpt lat="43.000807" lon="0.64767">
        <ele>882.8</ele>
        <time>1970-01-01T03:55:34.000Z</time>
      </trkpt>
      <trkpt lat="43.000779" lon="0.647544">
        <ele>883.8</ele>
        <time>1970-01-01T03:55:39.000Z</time>
      </trkpt>
      <trkpt lat="43.000751" lon="0.647487">
        <ele>884.6</ele>
        <time>1970-01-01T03:55:42.000Z</time>
      </trkpt>
      <trkpt lat="43.000735" lon="0.647449">
        <ele>884.8</ele>
        <time>1970-01-01T03:55:44.000Z</time>
      </trkpt>
      <trkpt lat="43.000706" lon="0.64741">
        <ele>885.2</ele>
        <time>1970-01-01T03:55:46.000Z</time>
      </trkpt>
      <trkpt lat="43.000641" lon="0.647347">
        <ele>886</ele>
        <time>1970-01-01T03:55:50.000Z</time>
      </trkpt>
      <trkpt lat="43.000528" lon="0.647255">
        <ele>887</ele>
        <time>1970-01-01T03:55:56.000Z</time>
      </trkpt>
      <trkpt lat="43.000399" lon="0.647162">
        <ele>888</ele>
        <time>1970-01-01T03:56:03.000Z</time>
      </trkpt>
      <trkpt lat="43.000317" lon="0.647079">
        <ele>889.2</ele>
        <time>1970-01-01T03:56:08.000Z</time>
      </trkpt>
      <trkpt lat="43.000235" lon="0.646952">
        <ele>890.2</ele>
        <time>1970-01-01T03:56:14.000Z</time>
      </trkpt>
      <trkpt lat="43.00014" lon="0.646807">
        <ele>891.4</ele>
        <time>1970-01-01T03:56:20.000Z</time>
      </trkpt>
      <trkpt lat="43.000059" lon="0.646652">
        <ele>892.4</ele>
        <time>1970-01-01T03:56:27.000Z</time>
      </trkpt>
      <trkpt lat="43.00001" lon="0.646525">
        <ele>893.4</ele>
        <time>1970-01-01T03:56:33.000Z</time>
      </trkpt>
      <trkpt lat="42.99988" lon="0.645769">
        <ele>892.6</ele>
        <time>1970-01-01T03:56:53.000Z</time>
      </trkpt>
      <trkpt lat="42.999652" lon="0.645082">
        <ele>894.2</ele>
        <time>1970-01-01T03:57:15.000Z</time>
      </trkpt>
      <trkpt lat="42.999553" lon="0.644332">
        <ele>893</ele>
        <time>1970-01-01T03:57:30.000Z</time>
      </trkpt>
      <trkpt lat="42.999538" lon="0.644269">
        <ele>893</ele>
        <time>1970-01-01T03:57:31.000Z</time>
      </trkpt>
      <trkpt lat="42.999444" lon="0.643747">
        <ele>894.4</ele>
        <time>1970-01-01T03:57:40.000Z</time>
      </trkpt>
      <trkpt lat="42.999452" lon="0.643557">
        <ele>895.8</ele>
        <time>1970-01-01T03:57:45.000Z</time>
      </trkpt>
      <trkpt lat="42.999428" lon="0.643365">
        <ele>897</ele>
        <time>1970-01-01T03:57:50.000Z</time>
      </trkpt>
      <trkpt lat="42.999459" lon="0.643186">
        <ele>898.8</ele>
        <time>1970-01-01T03:57:55.000Z</time>
      </trkpt>
      <trkpt lat="42.999449" lon="0.642864">
        <ele>899.8</ele>
        <time>1970-01-01T03:58:04.000Z</time>
      </trkpt>
      <trkpt lat="42.999368" lon="0.642618">
        <ele>901</ele>
        <time>1970-01-01T03:58:12.000Z</time>
      </trkpt>
      <trkpt lat="42.999298" lon="0.642214">
        <ele>902</ele>
        <time>1970-01-01T03:58:23.000Z</time>
      </trkpt>
      <trkpt lat="42.999293" lon="0.642101">
        <ele>902</ele>
        <time>1970-01-01T03:58:26.000Z</time>
      </trkpt>
      <trkpt lat="42.999285" lon="0.641947">
        <ele>902.6</ele>
        <time>1970-01-01T03:58:30.000Z</time>
      </trkpt>
      <trkpt lat="42.999279" lon="0.641833">
        <ele>903</ele>
        <time>1970-01-01T03:58:33.000Z</time>
      </trkpt>
      <trkpt lat="42.999199" lon="0.641463">
        <ele>904</ele>
        <time>1970-01-01T03:58:44.000Z</time>
      </trkpt>
      <trkpt lat="42.999142" lon="0.641298">
        <ele>905.4</ele>
        <time>1970-01-01T03:58:51.000Z</time>
      </trkpt>
      <trkpt lat="42.999134" lon="0.641136">
        <ele>906.4</ele>
        <time>1970-01-01T03:58:56.000Z</time>
      </trkpt>
      <trkpt lat="42.999172" lon="0.640987">
        <ele>907.6</ele>
        <time>1970-01-01T03:59:01.000Z</time>
      </trkpt>
      <trkpt lat="42.999192" lon="0.640749">
        <ele>908.8</ele>
        <time>1970-01-01T03:59:08.000Z</time>
      </trkpt>
      <trkpt lat="42.999239" lon="0.640573">
        <ele>910</ele>
        <time>1970-01-01T03:59:14.000Z</time>
      </trkpt>
      <trkpt lat="42.999326" lon="0.640433">
        <ele>911</ele>
        <time>1970-01-01T03:59:20.000Z</time>
      </trkpt>
      <trkpt lat="42.999588" lon="0.640064">
        <ele>912</ele>
        <time>1970-01-01T03:59:35.000Z</time>
      </trkpt>
      <trkpt lat="42.999662" lon="0.639555">
        <ele>913.2</ele>
        <time>1970-01-01T03:59:48.000Z</time>
      </trkpt>
      <trkpt lat="42.999694" lon="0.639088">
        <ele>914.4</ele>
        <time>1970-01-01T04:00:00.000Z</time>
      </trkpt>
      <trkpt lat="42.999773" lon="0.638917">
        <ele>915.6</ele>
        <time>1970-01-01T04:00:06.000Z</time>
      </trkpt>
      <trkpt lat="42.999935" lon="0.638645">
        <ele>916.2</ele>
        <time>1970-01-01T04:00:15.000Z</time>
      </trkpt>
      <trkpt lat="43.000125" lon="0.638415">
        <ele>915</ele>
        <time>1970-01-01T04:00:20.000Z</time>
      </trkpt>
      <trkpt lat="43.00017" lon="0.638368">
        <ele>914.6</ele>
        <time>1970-01-01T04:00:21.000Z</time>
      </trkpt>
      <trkpt lat="43.000208" lon="0.63817">
        <ele>913.6</ele>
        <time>1970-01-01T04:00:26.000Z</time>
      </trkpt>
      <trkpt lat="43.000108" lon="0.638205">
        <ele>912</ele>
        <time>1970-01-01T04:00:28.000Z</time>
      </trkpt>
      <trkpt lat="43.000044" lon="0.638237">
        <ele>911.2</ele>
        <time>1970-01-01T04:00:29.000Z</time>
      </trkpt>
      <trkpt lat="42.999974" lon="0.638269">
        <ele>910.6</ele>
        <time>1970-01-01T04:00:30.000Z</time>
      </trkpt>
      <trkpt lat="42.999828" lon="0.63834">
        <ele>909.2</ele>
        <time>1970-01-01T04:00:32.000Z</time>
      </trkpt>
      <trkpt lat="42.999664" lon="0.638418">
        <ele>908</ele>
        <time>1970-01-01T04:00:34.000Z</time>
      </trkpt>
      <trkpt lat="42.999401" lon="0.638518">
        <ele>906.6</ele>
        <time>1970-01-01T04:00:37.000Z</time>
      </trkpt>
      <trkpt lat="42.999138" lon="0.638598">
        <ele>905.6</ele>
        <time>1970-01-01T04:00:40.000Z</time>
      </trkpt>
      <trkpt lat="42.998961" lon="0.638654">
        <ele>904.2</ele>
        <time>1970-01-01T04:00:42.000Z</time>
      </trkpt>
      <trkpt lat="42.99888" lon="0.638665">
        <ele>904</ele>
        <time>1970-01-01T04:00:43.000Z</time>
      </trkpt>
      <trkpt lat="42.998517" lon="0.638479">
        <ele>903.2</ele>
        <time>1970-01-01T04:00:49.000Z</time>
      </trkpt>
      <trkpt lat="42.998478" lon="0.638442">
        <ele>903.4</ele>
        <time>1970-01-01T04:00:50.000Z</time>
      </trkpt>
      <trkpt lat="42.998086" lon="0.638385">
        <ele>903.6</ele>
        <time>1970-01-01T04:00:59.000Z</time>
      </trkpt>
      <trkpt lat="42.997972" lon="0.638519">
        <ele>902</ele>
        <time>1970-01-01T04:01:01.000Z</time>
      </trkpt>
      <trkpt lat="42.997906" lon="0.638595">
        <ele>900.8</ele>
        <time>1970-01-01T04:01:02.000Z</time>
      </trkpt>
      <trkpt lat="42.997756" lon="0.638757">
        <ele>899.4</ele>
        <time>1970-01-01T04:01:04.000Z</time>
      </trkpt>
      <trkpt lat="42.997678" lon="0.63883">
        <ele>898.2</ele>
        <time>1970-01-01T04:01:05.000Z</time>
      </trkpt>
      <trkpt lat="42.997595" lon="0.638891">
        <ele>897</ele>
        <time>1970-01-01T04:01:06.000Z</time>
      </trkpt>
      <trkpt lat="42.99751" lon="0.638947">
        <ele>896</ele>
        <time>1970-01-01T04:01:07.000Z</time>
      </trkpt>
      <trkpt lat="42.997411" lon="0.638984">
        <ele>895.2</ele>
        <time>1970-01-01T04:01:08.000Z</time>
      </trkpt>
      <trkpt lat="42.997311" lon="0.639021">
        <ele>894.8</ele>
        <time>1970-01-01T04:01:09.000Z</time>
      </trkpt>
      <trkpt lat="42.997123" lon="0.639096">
        <ele>893.8</ele>
        <time>1970-01-01T04:01:11.000Z</time>
      </trkpt>
      <trkpt lat="42.996844" lon="0.639229">
        <ele>892.4</ele>
        <time>1970-01-01T04:01:14.000Z</time>
      </trkpt>
      <trkpt lat="42.996584" lon="0.639528">
        <ele>891.4</ele>
        <time>1970-01-01T04:01:18.000Z</time>
      </trkpt>
      <trkpt lat="42.996531" lon="0.639622">
        <ele>890.6</ele>
        <time>1970-01-01T04:01:19.000Z</time>
      </trkpt>
      <trkpt lat="42.996477" lon="0.639703">
        <ele>890.4</ele>
        <time>1970-01-01T04:01:20.000Z</time>
      </trkpt>
      <trkpt lat="42.996237" lon="0.639903">
        <ele>890</ele>
        <time>1970-01-01T04:01:24.000Z</time>
      </trkpt>
      <trkpt lat="42.995887" lon="0.640123">
        <ele>889.2</ele>
        <time>1970-01-01T04:01:29.000Z</time>
      </trkpt>
      <trkpt lat="42.995787" lon="0.640174">
        <ele>887.8</ele>
        <time>1970-01-01T04:01:30.000Z</time>
      </trkpt>
      <trkpt lat="42.9957" lon="0.640234">
        <ele>886.2</ele>
        <time>1970-01-01T04:01:31.000Z</time>
      </trkpt>
      <trkpt lat="42.995619" lon="0.640296">
        <ele>885</ele>
        <time>1970-01-01T04:01:32.000Z</time>
      </trkpt>
      <trkpt lat="42.995558" lon="0.640361">
        <ele>883.8</ele>
        <time>1970-01-01T04:01:33.000Z</time>
      </trkpt>
      <trkpt lat="42.995505" lon="0.640429">
        <ele>882.2</ele>
        <time>1970-01-01T04:01:34.000Z</time>
      </trkpt>
      <trkpt lat="42.99546" lon="0.640495">
        <ele>880.4</ele>
        <time>1970-01-01T04:01:35.000Z</time>
      </trkpt>
      <trkpt lat="42.995414" lon="0.640559">
        <ele>879.2</ele>
        <time>1970-01-01T04:01:36.000Z</time>
      </trkpt>
      <trkpt lat="42.99536" lon="0.640626">
        <ele>877.8</ele>
        <time>1970-01-01T04:01:37.000Z</time>
      </trkpt>
      <trkpt lat="42.995305" lon="0.640693">
        <ele>876.4</ele>
        <time>1970-01-01T04:01:38.000Z</time>
      </trkpt>
      <trkpt lat="42.995244" lon="0.640765">
        <ele>875</ele>
        <time>1970-01-01T04:01:39.000Z</time>
      </trkpt>
      <trkpt lat="42.995176" lon="0.640834">
        <ele>873.8</ele>
        <time>1970-01-01T04:01:40.000Z</time>
      </trkpt>
      <trkpt lat="42.995104" lon="0.640901">
        <ele>872.6</ele>
        <time>1970-01-01T04:01:41.000Z</time>
      </trkpt>
      <trkpt lat="42.995024" lon="0.640964">
        <ele>871</ele>
        <time>1970-01-01T04:01:42.000Z</time>
      </trkpt>
      <trkpt lat="42.99494" lon="0.641024">
        <ele>869.8</ele>
        <time>1970-01-01T04:01:43.000Z</time>
      </trkpt>
      <trkpt lat="42.994866" lon="0.641094">
        <ele>868.2</ele>
        <time>1970-01-01T04:01:44.000Z</time>
      </trkpt>
      <trkpt lat="42.994788" lon="0.641164">
        <ele>866</ele>
        <time>1970-01-01T04:01:45.000Z</time>
      </trkpt>
      <trkpt lat="42.994709" lon="0.641229">
        <ele>863.4</ele>
        <time>1970-01-01T04:01:46.000Z</time>
      </trkpt>
      <trkpt lat="42.994629" lon="0.641299">
        <ele>862.2</ele>
        <time>1970-01-01T04:01:47.000Z</time>
      </trkpt>
      <trkpt lat="42.994536" lon="0.641366">
        <ele>860.6</ele>
        <time>1970-01-01T04:01:48.000Z</time>
      </trkpt>
      <trkpt lat="42.994447" lon="0.641424">
        <ele>858.4</ele>
        <time>1970-01-01T04:01:49.000Z</time>
      </trkpt>
      <trkpt lat="42.994366" lon="0.641479">
        <ele>856.6</ele>
        <time>1970-01-01T04:01:50.000Z</time>
      </trkpt>
      <trkpt lat="42.994282" lon="0.641531">
        <ele>855</ele>
        <time>1970-01-01T04:01:51.000Z</time>
      </trkpt>
      <trkpt lat="42.994202" lon="0.641588">
        <ele>853.6</ele>
        <time>1970-01-01T04:01:52.000Z</time>
      </trkpt>
      <trkpt lat="42.994121" lon="0.64164">
        <ele>851.8</ele>
        <time>1970-01-01T04:01:53.000Z</time>
      </trkpt>
      <trkpt lat="42.994037" lon="0.64169">
        <ele>850.4</ele>
        <time>1970-01-01T04:01:54.000Z</time>
      </trkpt>
      <trkpt lat="42.993959" lon="0.641749">
        <ele>848.6</ele>
        <time>1970-01-01T04:01:55.000Z</time>
      </trkpt>
      <trkpt lat="42.99389" lon="0.641814">
        <ele>847.2</ele>
        <time>1970-01-01T04:01:56.000Z</time>
      </trkpt>
      <trkpt lat="42.993824" lon="0.641882">
        <ele>845.2</ele>
        <time>1970-01-01T04:01:57.000Z</time>
      </trkpt>
      <trkpt lat="42.993762" lon="0.641946">
        <ele>843.8</ele>
        <time>1970-01-01T04:01:58.000Z</time>
      </trkpt>
      <trkpt lat="42.993699" lon="0.642004">
        <ele>842.4</ele>
        <time>1970-01-01T04:01:59.000Z</time>
      </trkpt>
      <trkpt lat="42.993643" lon="0.642056">
        <ele>841</ele>
        <time>1970-01-01T04:02:00.000Z</time>
      </trkpt>
      <trkpt lat="42.993604" lon="0.642106">
        <ele>839.8</ele>
        <time>1970-01-01T04:02:01.000Z</time>
      </trkpt>
      <trkpt lat="42.993523" lon="0.64223">
        <ele>837.8</ele>
        <time>1970-01-01T04:02:03.000Z</time>
      </trkpt>
      <trkpt lat="42.993478" lon="0.6423">
        <ele>836.4</ele>
        <time>1970-01-01T04:02:04.000Z</time>
      </trkpt>
      <trkpt lat="42.993439" lon="0.642371">
        <ele>835.4</ele>
        <time>1970-01-01T04:02:05.000Z</time>
      </trkpt>
      <trkpt lat="42.993377" lon="0.642501">
        <ele>833.8</ele>
        <time>1970-01-01T04:02:07.000Z</time>
      </trkpt>
      <trkpt lat="42.993315" lon="0.642649">
        <ele>832.8</ele>
        <time>1970-01-01T04:02:09.000Z</time>
      </trkpt>
      <trkpt lat="42.993247" lon="0.642826">
        <ele>831.6</ele>
        <time>1970-01-01T04:02:11.000Z</time>
      </trkpt>
      <trkpt lat="42.993153" lon="0.642996">
        <ele>830.2</ele>
        <time>1970-01-01T04:02:13.000Z</time>
      </trkpt>
      <trkpt lat="42.993099" lon="0.64307">
        <ele>829.4</ele>
        <time>1970-01-01T04:02:14.000Z</time>
      </trkpt>
      <trkpt lat="42.993036" lon="0.64313">
        <ele>828.4</ele>
        <time>1970-01-01T04:02:15.000Z</time>
      </trkpt>
      <trkpt lat="42.992891" lon="0.643202">
        <ele>826.8</ele>
        <time>1970-01-01T04:02:17.000Z</time>
      </trkpt>
      <trkpt lat="42.99276" lon="0.643267">
        <ele>825.2</ele>
        <time>1970-01-01T04:02:19.000Z</time>
      </trkpt>
      <trkpt lat="42.992592" lon="0.643338">
        <ele>824.2</ele>
        <time>1970-01-01T04:02:21.000Z</time>
      </trkpt>
      <trkpt lat="42.992435" lon="0.643409">
        <ele>822.8</ele>
        <time>1970-01-01T04:02:23.000Z</time>
      </trkpt>
      <trkpt lat="42.992302" lon="0.643451">
        <ele>821.8</ele>
        <time>1970-01-01T04:02:25.000Z</time>
      </trkpt>
      <trkpt lat="42.992243" lon="0.643447">
        <ele>821.6</ele>
        <time>1970-01-01T04:02:26.000Z</time>
      </trkpt>
      <trkpt lat="42.991692" lon="0.643411">
        <ele>820.4</ele>
        <time>1970-01-01T04:02:36.000Z</time>
      </trkpt>
      <trkpt lat="42.991553" lon="0.643521">
        <ele>820.2</ele>
        <time>1970-01-01T04:02:40.000Z</time>
      </trkpt>
      <trkpt lat="42.991495" lon="0.643585">
        <ele>820</ele>
        <time>1970-01-01T04:02:42.000Z</time>
      </trkpt>
      <trkpt lat="42.991275" lon="0.643796">
        <ele>819.2</ele>
        <time>1970-01-01T04:02:48.000Z</time>
      </trkpt>
      <trkpt lat="42.991068" lon="0.643924">
        <ele>818.4</ele>
        <time>1970-01-01T04:02:52.000Z</time>
      </trkpt>
      <trkpt lat="42.990998" lon="0.64393">
        <ele>818</ele>
        <time>1970-01-01T04:02:53.000Z</time>
      </trkpt>
      <trkpt lat="42.990773" lon="0.643895">
        <ele>817</ele>
        <time>1970-01-01T04:02:56.000Z</time>
      </trkpt>
      <trkpt lat="42.990691" lon="0.643869">
        <ele>816.4</ele>
        <time>1970-01-01T04:02:57.000Z</time>
      </trkpt>
      <trkpt lat="42.990606" lon="0.643834">
        <ele>815.8</ele>
        <time>1970-01-01T04:02:58.000Z</time>
      </trkpt>
      <trkpt lat="42.99052" lon="0.643807">
        <ele>815</ele>
        <time>1970-01-01T04:02:59.000Z</time>
      </trkpt>
      <trkpt lat="42.990435" lon="0.643787">
        <ele>814.4</ele>
        <time>1970-01-01T04:03:00.000Z</time>
      </trkpt>
      <trkpt lat="42.990301" lon="0.643746">
        <ele>813</ele>
        <time>1970-01-01T04:03:02.000Z</time>
      </trkpt>
      <trkpt lat="42.990257" lon="0.643716">
        <ele>812.4</ele>
        <time>1970-01-01T04:03:03.000Z</time>
      </trkpt>
      <trkpt lat="42.990232" lon="0.643676">
        <ele>811.8</ele>
        <time>1970-01-01T04:03:04.000Z</time>
      </trkpt>
      <trkpt lat="42.990199" lon="0.643583">
        <ele>810.8</ele>
        <time>1970-01-01T04:03:07.000Z</time>
      </trkpt>
      <trkpt lat="42.990192" lon="0.643548">
        <ele>810.6</ele>
        <time>1970-01-01T04:03:08.000Z</time>
      </trkpt>
      <trkpt lat="42.990184" lon="0.643513">
        <ele>810.2</ele>
        <time>1970-01-01T04:04:00.000Z</time>
      </trkpt>
      <trkpt lat="42.990176" lon="0.643478">
        <ele>809.8</ele>
        <time>1970-01-01T04:04:01.000Z</time>
      </trkpt>
      <trkpt lat="42.990118" lon="0.643291">
        <ele>808.2</ele>
        <time>1970-01-01T04:04:04.000Z</time>
      </trkpt>
      <trkpt lat="42.990078" lon="0.643167">
        <ele>807</ele>
        <time>1970-01-01T04:04:06.000Z</time>
      </trkpt>
      <trkpt lat="42.990045" lon="0.643007">
        <ele>805.8</ele>
        <time>1970-01-01T04:04:08.000Z</time>
      </trkpt>
      <trkpt lat="42.990025" lon="0.642813">
        <ele>804.6</ele>
        <time>1970-01-01T04:04:10.000Z</time>
      </trkpt>
      <trkpt lat="42.990033" lon="0.64259">
        <ele>803</ele>
        <time>1970-01-01T04:04:12.000Z</time>
      </trkpt>
      <trkpt lat="42.990066" lon="0.642332">
        <ele>801.2</ele>
        <time>1970-01-01T04:04:14.000Z</time>
      </trkpt>
      <trkpt lat="42.990091" lon="0.642197">
        <ele>799.8</ele>
        <time>1970-01-01T04:04:15.000Z</time>
      </trkpt>
      <trkpt lat="42.990115" lon="0.642072">
        <ele>798</ele>
        <time>1970-01-01T04:04:16.000Z</time>
      </trkpt>
      <trkpt lat="42.990135" lon="0.641973">
        <ele>796.6</ele>
        <time>1970-01-01T04:04:17.000Z</time>
      </trkpt>
      <trkpt lat="42.990152" lon="0.641887">
        <ele>795.2</ele>
        <time>1970-01-01T04:04:18.000Z</time>
      </trkpt>
      <trkpt lat="42.99017" lon="0.641805">
        <ele>793.4</ele>
        <time>1970-01-01T04:04:19.000Z</time>
      </trkpt>
      <trkpt lat="42.990176" lon="0.64172">
        <ele>791.8</ele>
        <time>1970-01-01T04:04:20.000Z</time>
      </trkpt>
      <trkpt lat="42.990166" lon="0.641641">
        <ele>790.8</ele>
        <time>1970-01-01T04:04:21.000Z</time>
      </trkpt>
      <trkpt lat="42.990119" lon="0.641576">
        <ele>789.6</ele>
        <time>1970-01-01T04:04:22.000Z</time>
      </trkpt>
      <trkpt lat="42.990059" lon="0.641525">
        <ele>788.2</ele>
        <time>1970-01-01T04:04:23.000Z</time>
      </trkpt>
      <trkpt lat="42.989984" lon="0.641492">
        <ele>787.2</ele>
        <time>1970-01-01T04:04:24.000Z</time>
      </trkpt>
      <trkpt lat="42.989912" lon="0.641488">
        <ele>785.8</ele>
        <time>1970-01-01T04:04:25.000Z</time>
      </trkpt>
      <trkpt lat="42.989845" lon="0.641517">
        <ele>784.4</ele>
        <time>1970-01-01T04:04:26.000Z</time>
      </trkpt>
      <trkpt lat="42.989787" lon="0.641568">
        <ele>783.4</ele>
        <time>1970-01-01T04:04:27.000Z</time>
      </trkpt>
      <trkpt lat="42.989684" lon="0.64169">
        <ele>781.6</ele>
        <time>1970-01-01T04:04:29.000Z</time>
      </trkpt>
      <trkpt lat="42.98963" lon="0.641748">
        <ele>780.6</ele>
        <time>1970-01-01T04:04:30.000Z</time>
      </trkpt>
      <trkpt lat="42.989573" lon="0.641804">
        <ele>779.2</ele>
        <time>1970-01-01T04:04:31.000Z</time>
      </trkpt>
      <trkpt lat="42.989516" lon="0.641851">
        <ele>778</ele>
        <time>1970-01-01T04:04:32.000Z</time>
      </trkpt>
      <trkpt lat="42.989461" lon="0.641893">
        <ele>777</ele>
        <time>1970-01-01T04:04:33.000Z</time>
      </trkpt>
      <trkpt lat="42.989405" lon="0.641943">
        <ele>776</ele>
        <time>1970-01-01T04:04:34.000Z</time>
      </trkpt>
      <trkpt lat="42.989355" lon="0.642001">
        <ele>775</ele>
        <time>1970-01-01T04:04:35.000Z</time>
      </trkpt>
      <trkpt lat="42.98927" lon="0.642153">
        <ele>773.2</ele>
        <time>1970-01-01T04:04:37.000Z</time>
      </trkpt>
      <trkpt lat="42.989231" lon="0.642336">
        <ele>771</ele>
        <time>1970-01-01T04:04:39.000Z</time>
      </trkpt>
      <trkpt lat="42.989221" lon="0.642434">
        <ele>770.2</ele>
        <time>1970-01-01T04:04:40.000Z</time>
      </trkpt>
      <trkpt lat="42.989209" lon="0.642535">
        <ele>769.2</ele>
        <time>1970-01-01T04:04:41.000Z</time>
      </trkpt>
      <trkpt lat="42.989198" lon="0.642635">
        <ele>768</ele>
        <time>1970-01-01T04:04:42.000Z</time>
      </trkpt>
      <trkpt lat="42.989183" lon="0.642741">
        <ele>766.8</ele>
        <time>1970-01-01T04:04:43.000Z</time>
      </trkpt>
      <trkpt lat="42.989165" lon="0.642854">
        <ele>765.8</ele>
        <time>1970-01-01T04:04:44.000Z</time>
      </trkpt>
      <trkpt lat="42.989137" lon="0.643075">
        <ele>763.8</ele>
        <time>1970-01-01T04:04:46.000Z</time>
      </trkpt>
      <trkpt lat="42.989127" lon="0.643182">
        <ele>762.4</ele>
        <time>1970-01-01T04:04:47.000Z</time>
      </trkpt>
      <trkpt lat="42.989117" lon="0.643299">
        <ele>761</ele>
        <time>1970-01-01T04:04:48.000Z</time>
      </trkpt>
      <trkpt lat="42.9891" lon="0.64342">
        <ele>759.6</ele>
        <time>1970-01-01T04:04:49.000Z</time>
      </trkpt>
      <trkpt lat="42.989071" lon="0.643539">
        <ele>758.2</ele>
        <time>1970-01-01T04:04:50.000Z</time>
      </trkpt>
      <trkpt lat="42.989044" lon="0.643654">
        <ele>756.8</ele>
        <time>1970-01-01T04:04:51.000Z</time>
      </trkpt>
      <trkpt lat="42.989029" lon="0.643769">
        <ele>755.2</ele>
        <time>1970-01-01T04:04:52.000Z</time>
      </trkpt>
      <trkpt lat="42.989016" lon="0.643877">
        <ele>753.6</ele>
        <time>1970-01-01T04:04:53.000Z</time>
      </trkpt>
      <trkpt lat="42.988993" lon="0.643974">
        <ele>752</ele>
        <time>1970-01-01T04:04:54.000Z</time>
      </trkpt>
      <trkpt lat="42.988969" lon="0.644075">
        <ele>750.6</ele>
        <time>1970-01-01T04:04:55.000Z</time>
      </trkpt>
      <trkpt lat="42.988941" lon="0.644182">
        <ele>749.4</ele>
        <time>1970-01-01T04:04:56.000Z</time>
      </trkpt>
      <trkpt lat="42.98891" lon="0.6443">
        <ele>748.4</ele>
        <time>1970-01-01T04:04:57.000Z</time>
      </trkpt>
      <trkpt lat="42.988854" lon="0.644566">
        <ele>746</ele>
        <time>1970-01-01T04:04:59.000Z</time>
      </trkpt>
      <trkpt lat="42.988831" lon="0.644702">
        <ele>744.6</ele>
        <time>1970-01-01T04:05:00.000Z</time>
      </trkpt>
      <trkpt lat="42.98881" lon="0.644829">
        <ele>742.8</ele>
        <time>1970-01-01T04:05:01.000Z</time>
      </trkpt>
      <trkpt lat="42.988786" lon="0.644949">
        <ele>741.2</ele>
        <time>1970-01-01T04:05:02.000Z</time>
      </trkpt>
      <trkpt lat="42.988752" lon="0.645071">
        <ele>739.4</ele>
        <time>1970-01-01T04:05:03.000Z</time>
      </trkpt>
      <trkpt lat="42.988721" lon="0.645188">
        <ele>737.8</ele>
        <time>1970-01-01T04:05:04.000Z</time>
      </trkpt>
      <trkpt lat="42.988692" lon="0.645285">
        <ele>736.4</ele>
        <time>1970-01-01T04:05:05.000Z</time>
      </trkpt>
      <trkpt lat="42.988669" lon="0.645375">
        <ele>734.8</ele>
        <time>1970-01-01T04:05:06.000Z</time>
      </trkpt>
      <trkpt lat="42.988646" lon="0.645472">
        <ele>733.2</ele>
        <time>1970-01-01T04:05:07.000Z</time>
      </trkpt>
      <trkpt lat="42.988623" lon="0.645569">
        <ele>731.6</ele>
        <time>1970-01-01T04:05:08.000Z</time>
      </trkpt>
      <trkpt lat="42.9886" lon="0.645663">
        <ele>730.6</ele>
        <time>1970-01-01T04:05:09.000Z</time>
      </trkpt>
      <trkpt lat="42.988574" lon="0.645761">
        <ele>729.2</ele>
        <time>1970-01-01T04:05:10.000Z</time>
      </trkpt>
      <trkpt lat="42.988545" lon="0.645863">
        <ele>728</ele>
        <time>1970-01-01T04:05:11.000Z</time>
      </trkpt>
      <trkpt lat="42.988514" lon="0.645971">
        <ele>726.6</ele>
        <time>1970-01-01T04:05:12.000Z</time>
      </trkpt>
      <trkpt lat="42.988452" lon="0.6462">
        <ele>724.6</ele>
        <time>1970-01-01T04:05:14.000Z</time>
      </trkpt>
      <trkpt lat="42.988425" lon="0.646313">
        <ele>723.6</ele>
        <time>1970-01-01T04:05:15.000Z</time>
      </trkpt>
      <trkpt lat="42.988404" lon="0.646418">
        <ele>722.6</ele>
        <time>1970-01-01T04:05:16.000Z</time>
      </trkpt>
      <trkpt lat="42.988388" lon="0.646514">
        <ele>721.4</ele>
        <time>1970-01-01T04:05:17.000Z</time>
      </trkpt>
      <trkpt lat="42.988388" lon="0.64669">
        <ele>720.2</ele>
        <time>1970-01-01T04:05:19.000Z</time>
      </trkpt>
      <trkpt lat="42.988412" lon="0.646834">
        <ele>719.2</ele>
        <time>1970-01-01T04:05:21.000Z</time>
      </trkpt>
      <trkpt lat="42.988495" lon="0.646982">
        <ele>718</ele>
        <time>1970-01-01T04:05:24.000Z</time>
      </trkpt>
      <trkpt lat="42.988567" lon="0.647044">
        <ele>717.6</ele>
        <time>1970-01-01T04:05:26.000Z</time>
      </trkpt>
      <trkpt lat="42.988611" lon="0.64707">
        <ele>717.4</ele>
        <time>1970-01-01T04:05:27.000Z</time>
      </trkpt>
      <trkpt lat="42.988769" lon="0.647088">
        <ele>717</ele>
        <time>1970-01-01T04:05:30.000Z</time>
      </trkpt>
      <trkpt lat="42.988861" lon="0.647076">
        <ele>716.8</ele>
        <time>1970-01-01T04:05:32.000Z</time>
      </trkpt>
      <trkpt lat="42.989065" lon="0.647049">
        <ele>718.2</ele>
        <time>1970-01-01T04:05:42.000Z</time>
      </trkpt>
      <trkpt lat="42.989169" lon="0.647012">
        <ele>719.2</ele>
        <time>1970-01-01T04:05:47.000Z</time>
      </trkpt>
      <trkpt lat="42.989239" lon="0.646967">
        <ele>720.4</ele>
        <time>1970-01-01T04:05:51.000Z</time>
      </trkpt>
      <trkpt lat="42.989326" lon="0.646911">
        <ele>721.6</ele>
        <time>1970-01-01T04:05:55.000Z</time>
      </trkpt>
      <trkpt lat="42.989402" lon="0.646869">
        <ele>722.6</ele>
        <time>1970-01-01T04:05:59.000Z</time>
      </trkpt>
      <trkpt lat="42.989479" lon="0.646864">
        <ele>723.8</ele>
        <time>1970-01-01T04:06:03.000Z</time>
      </trkpt>
      <trkpt lat="42.989518" lon="0.646904">
        <ele>724</ele>
        <time>1970-01-01T04:06:05.000Z</time>
      </trkpt>
      <trkpt lat="42.989632" lon="0.647137">
        <ele>722.8</ele>
        <time>1970-01-01T04:06:11.000Z</time>
      </trkpt>
      <trkpt lat="42.989747" lon="0.64745">
        <ele>721.6</ele>
        <time>1970-01-01T04:06:21.000Z</time>
      </trkpt>
      <trkpt lat="42.989804" lon="0.647647">
        <ele>720.8</ele>
        <time>1970-01-01T04:06:24.000Z</time>
      </trkpt>
      <trkpt lat="42.989833" lon="0.647808">
        <ele>720.2</ele>
        <time>1970-01-01T04:06:26.000Z</time>
      </trkpt>
      <trkpt lat="42.989859" lon="0.648074">
        <ele>719.6</ele>
        <time>1970-01-01T04:06:29.000Z</time>
      </trkpt>
      <trkpt lat="42.989863" lon="0.648179">
        <ele>719.2</ele>
        <time>1970-01-01T04:06:30.000Z</time>
      </trkpt>
      <trkpt lat="42.989866" lon="0.648407">
        <ele>717.8</ele>
        <time>1970-01-01T04:06:32.000Z</time>
      </trkpt>
      <trkpt lat="42.989901" lon="0.648739">
        <ele>716.4</ele>
        <time>1970-01-01T04:06:35.000Z</time>
      </trkpt>
      <trkpt lat="42.989942" lon="0.648837">
        <ele>715.2</ele>
        <time>1970-01-01T04:06:36.000Z</time>
      </trkpt>
      <trkpt lat="42.990074" lon="0.648995">
        <ele>714</ele>
        <time>1970-01-01T04:06:38.000Z</time>
      </trkpt>
      <trkpt lat="42.990137" lon="0.649057">
        <ele>713.4</ele>
        <time>1970-01-01T04:06:39.000Z</time>
      </trkpt>
      <trkpt lat="42.990189" lon="0.64911">
        <ele>712.6</ele>
        <time>1970-01-01T04:06:40.000Z</time>
      </trkpt>
      <trkpt lat="42.990295" lon="0.649224">
        <ele>711.2</ele>
        <time>1970-01-01T04:06:42.000Z</time>
      </trkpt>
      <trkpt lat="42.990424" lon="0.649361">
        <ele>709.8</ele>
        <time>1970-01-01T04:06:44.000Z</time>
      </trkpt>
      <trkpt lat="42.99056" lon="0.649507">
        <ele>708.6</ele>
        <time>1970-01-01T04:06:46.000Z</time>
      </trkpt>
      <trkpt lat="42.990704" lon="0.649666">
        <ele>707.4</ele>
        <time>1970-01-01T04:06:48.000Z</time>
      </trkpt>
      <trkpt lat="42.990857" lon="0.649831">
        <ele>706.2</ele>
        <time>1970-01-01T04:06:50.000Z</time>
      </trkpt>
      <trkpt lat="42.991101" lon="0.650076">
        <ele>704.2</ele>
        <time>1970-01-01T04:06:53.000Z</time>
      </trkpt>
      <trkpt lat="42.991182" lon="0.650159">
        <ele>703</ele>
        <time>1970-01-01T04:06:54.000Z</time>
      </trkpt>
      <trkpt lat="42.99134" lon="0.650318">
        <ele>702</ele>
        <time>1970-01-01T04:06:56.000Z</time>
      </trkpt>
      <trkpt lat="42.991471" lon="0.650436">
        <ele>700.8</ele>
        <time>1970-01-01T04:06:58.000Z</time>
      </trkpt>
      <trkpt lat="42.991513" lon="0.650484">
        <ele>700.2</ele>
        <time>1970-01-01T04:06:59.000Z</time>
      </trkpt>
      <trkpt lat="42.991519" lon="0.650592">
        <ele>699.6</ele>
        <time>1970-01-01T04:07:01.000Z</time>
      </trkpt>
      <trkpt lat="42.991368" lon="0.650615">
        <ele>698</ele>
        <time>1970-01-01T04:07:04.000Z</time>
      </trkpt>
      <trkpt lat="42.991213" lon="0.650543">
        <ele>696.6</ele>
        <time>1970-01-01T04:07:06.000Z</time>
      </trkpt>
      <trkpt lat="42.991047" lon="0.650488">
        <ele>695.6</ele>
        <time>1970-01-01T04:07:08.000Z</time>
      </trkpt>
      <trkpt lat="42.990756" lon="0.650441">
        <ele>694</ele>
        <time>1970-01-01T04:07:11.000Z</time>
      </trkpt>
      <trkpt lat="42.990657" lon="0.650433">
        <ele>693</ele>
        <time>1970-01-01T04:07:12.000Z</time>
      </trkpt>
      <trkpt lat="42.990454" lon="0.650414">
        <ele>691.8</ele>
        <time>1970-01-01T04:07:14.000Z</time>
      </trkpt>
      <trkpt lat="42.990238" lon="0.6504">
        <ele>690.4</ele>
        <time>1970-01-01T04:07:16.000Z</time>
      </trkpt>
      <trkpt lat="42.990011" lon="0.650411">
        <ele>688.6</ele>
        <time>1970-01-01T04:07:18.000Z</time>
      </trkpt>
      <trkpt lat="42.989776" lon="0.650454">
        <ele>686.6</ele>
        <time>1970-01-01T04:07:20.000Z</time>
      </trkpt>
      <trkpt lat="42.989655" lon="0.650487">
        <ele>685.4</ele>
        <time>1970-01-01T04:07:21.000Z</time>
      </trkpt>
      <trkpt lat="42.989533" lon="0.650522">
        <ele>684.2</ele>
        <time>1970-01-01T04:07:22.000Z</time>
      </trkpt>
      <trkpt lat="42.989411" lon="0.650557">
        <ele>683.2</ele>
        <time>1970-01-01T04:07:23.000Z</time>
      </trkpt>
      <trkpt lat="42.989181" lon="0.650636">
        <ele>681.8</ele>
        <time>1970-01-01T04:07:25.000Z</time>
      </trkpt>
      <trkpt lat="42.988864" lon="0.650722">
        <ele>680.6</ele>
        <time>1970-01-01T04:07:28.000Z</time>
      </trkpt>
      <trkpt lat="42.988559" lon="0.650753">
        <ele>679.4</ele>
        <time>1970-01-01T04:07:31.000Z</time>
      </trkpt>
      <trkpt lat="42.988359" lon="0.650782">
        <ele>678</ele>
        <time>1970-01-01T04:07:33.000Z</time>
      </trkpt>
      <trkpt lat="42.988187" lon="0.650828">
        <ele>676.2</ele>
        <time>1970-01-01T04:07:35.000Z</time>
      </trkpt>
      <trkpt lat="42.988058" lon="0.650974">
        <ele>674.4</ele>
        <time>1970-01-01T04:07:37.000Z</time>
      </trkpt>
      <trkpt lat="42.988011" lon="0.651074">
        <ele>673.2</ele>
        <time>1970-01-01T04:07:38.000Z</time>
      </trkpt>
      <trkpt lat="42.987981" lon="0.651193">
        <ele>672</ele>
        <time>1970-01-01T04:07:39.000Z</time>
      </trkpt>
      <trkpt lat="42.98793" lon="0.651445">
        <ele>670.8</ele>
        <time>1970-01-01T04:07:41.000Z</time>
      </trkpt>
      <trkpt lat="42.987811" lon="0.651797">
        <ele>669.4</ele>
        <time>1970-01-01T04:07:44.000Z</time>
      </trkpt>
      <trkpt lat="42.987664" lon="0.652154">
        <ele>668.2</ele>
        <time>1970-01-01T04:07:47.000Z</time>
      </trkpt>
      <trkpt lat="42.987616" lon="0.652289">
        <ele>667.4</ele>
        <time>1970-01-01T04:07:48.000Z</time>
      </trkpt>
      <trkpt lat="42.987562" lon="0.652426">
        <ele>666.4</ele>
        <time>1970-01-01T04:07:49.000Z</time>
      </trkpt>
      <trkpt lat="42.987448" lon="0.652705">
        <ele>664.8</ele>
        <time>1970-01-01T04:07:51.000Z</time>
      </trkpt>
      <trkpt lat="42.987411" lon="0.652852">
        <ele>663.6</ele>
        <time>1970-01-01T04:07:52.000Z</time>
      </trkpt>
      <trkpt lat="42.987404" lon="0.653013">
        <ele>662.4</ele>
        <time>1970-01-01T04:07:53.000Z</time>
      </trkpt>
      <trkpt lat="42.987421" lon="0.65317">
        <ele>661.2</ele>
        <time>1970-01-01T04:07:54.000Z</time>
      </trkpt>
      <trkpt lat="42.987445" lon="0.653318">
        <ele>659.8</ele>
        <time>1970-01-01T04:07:55.000Z</time>
      </trkpt>
      <trkpt lat="42.987459" lon="0.65345">
        <ele>658.8</ele>
        <time>1970-01-01T04:07:56.000Z</time>
      </trkpt>
      <trkpt lat="42.98746" lon="0.653573">
        <ele>658.2</ele>
        <time>1970-01-01T04:07:57.000Z</time>
      </trkpt>
      <trkpt lat="42.987397" lon="0.653934">
        <ele>656.6</ele>
        <time>1970-01-01T04:08:00.000Z</time>
      </trkpt>
      <trkpt lat="42.987338" lon="0.654175">
        <ele>655.4</ele>
        <time>1970-01-01T04:08:02.000Z</time>
      </trkpt>
      <trkpt lat="42.987286" lon="0.65442">
        <ele>654.2</ele>
        <time>1970-01-01T04:08:04.000Z</time>
      </trkpt>
      <trkpt lat="42.98724" lon="0.654777">
        <ele>653</ele>
        <time>1970-01-01T04:08:07.000Z</time>
      </trkpt>
      <trkpt lat="42.987174" lon="0.655344">
        <ele>652</ele>
        <time>1970-01-01T04:08:12.000Z</time>
      </trkpt>
      <trkpt lat="42.987121" lon="0.655572">
        <ele>650.6</ele>
        <time>1970-01-01T04:08:14.000Z</time>
      </trkpt>
      <trkpt lat="42.987042" lon="0.655785">
        <ele>649.4</ele>
        <time>1970-01-01T04:08:16.000Z</time>
      </trkpt>
      <trkpt lat="42.986956" lon="0.655991">
        <ele>648.4</ele>
        <time>1970-01-01T04:08:18.000Z</time>
      </trkpt>
      <trkpt lat="42.98687" lon="0.65619">
        <ele>647.2</ele>
        <time>1970-01-01T04:08:20.000Z</time>
      </trkpt>
      <trkpt lat="42.986759" lon="0.656513">
        <ele>646</ele>
        <time>1970-01-01T04:08:23.000Z</time>
      </trkpt>
      <trkpt lat="42.986684" lon="0.656754">
        <ele>644.8</ele>
        <time>1970-01-01T04:08:25.000Z</time>
      </trkpt>
      <trkpt lat="42.986587" lon="0.656997">
        <ele>643</ele>
        <time>1970-01-01T04:08:27.000Z</time>
      </trkpt>
      <trkpt lat="42.986497" lon="0.657212">
        <ele>641</ele>
        <time>1970-01-01T04:08:29.000Z</time>
      </trkpt>
      <trkpt lat="42.986461" lon="0.657309">
        <ele>640</ele>
        <time>1970-01-01T04:08:30.000Z</time>
      </trkpt>
      <trkpt lat="42.98643" lon="0.657401">
        <ele>638.8</ele>
        <time>1970-01-01T04:08:31.000Z</time>
      </trkpt>
      <trkpt lat="42.986363" lon="0.657588">
        <ele>637</ele>
        <time>1970-01-01T04:08:33.000Z</time>
      </trkpt>
      <trkpt lat="42.986289" lon="0.657797">
        <ele>635.6</ele>
        <time>1970-01-01T04:08:35.000Z</time>
      </trkpt>
      <trkpt lat="42.986214" lon="0.658012">
        <ele>634</ele>
        <time>1970-01-01T04:08:37.000Z</time>
      </trkpt>
      <trkpt lat="42.98612" lon="0.658219">
        <ele>632</ele>
        <time>1970-01-01T04:08:39.000Z</time>
      </trkpt>
      <trkpt lat="42.986064" lon="0.65833">
        <ele>631</ele>
        <time>1970-01-01T04:08:40.000Z</time>
      </trkpt>
      <trkpt lat="42.986015" lon="0.658447">
        <ele>629.6</ele>
        <time>1970-01-01T04:08:41.000Z</time>
      </trkpt>
      <trkpt lat="42.985978" lon="0.658567">
        <ele>628.2</ele>
        <time>1970-01-01T04:08:42.000Z</time>
      </trkpt>
      <trkpt lat="42.985954" lon="0.658697">
        <ele>626.8</ele>
        <time>1970-01-01T04:08:43.000Z</time>
      </trkpt>
      <trkpt lat="42.985932" lon="0.658833">
        <ele>625.8</ele>
        <time>1970-01-01T04:08:44.000Z</time>
      </trkpt>
      <trkpt lat="42.985911" lon="0.658967">
        <ele>624.8</ele>
        <time>1970-01-01T04:08:45.000Z</time>
      </trkpt>
      <trkpt lat="42.985893" lon="0.659099">
        <ele>623.4</ele>
        <time>1970-01-01T04:08:46.000Z</time>
      </trkpt>
      <trkpt lat="42.985862" lon="0.659339">
        <ele>622.2</ele>
        <time>1970-01-01T04:08:48.000Z</time>
      </trkpt>
      <trkpt lat="42.985727" lon="0.660099">
        <ele>622.4</ele>
        <time>1970-01-01T04:08:57.000Z</time>
      </trkpt>
      <trkpt lat="42.985663" lon="0.660366">
        <ele>622.8</ele>
        <time>1970-01-01T04:09:01.000Z</time>
      </trkpt>
      <trkpt lat="42.985526" lon="0.660665">
        <ele>623</ele>
        <time>1970-01-01T04:09:06.000Z</time>
      </trkpt>
      <trkpt lat="42.985278" lon="0.660897">
        <ele>622</ele>
        <time>1970-01-01T04:09:11.000Z</time>
      </trkpt>
      <trkpt lat="42.985151" lon="0.66097">
        <ele>621.4</ele>
        <time>1970-01-01T04:09:13.000Z</time>
      </trkpt>
      <trkpt lat="42.98502" lon="0.660998">
        <ele>620.2</ele>
        <time>1970-01-01T04:09:15.000Z</time>
      </trkpt>
      <trkpt lat="42.98491" lon="0.66101">
        <ele>618.8</ele>
        <time>1970-01-01T04:09:17.000Z</time>
      </trkpt>
      <trkpt lat="42.984823" lon="0.661004">
        <ele>617.2</ele>
        <time>1970-01-01T04:09:19.000Z</time>
      </trkpt>
      <trkpt lat="42.98476" lon="0.660898">
        <ele>615.8</ele>
        <time>1970-01-01T04:09:21.000Z</time>
      </trkpt>
      <trkpt lat="42.984709" lon="0.660744">
        <ele>613.8</ele>
        <time>1970-01-01T04:09:23.000Z</time>
      </trkpt>
      <trkpt lat="42.984617" lon="0.660597">
        <ele>612.2</ele>
        <time>1970-01-01T04:09:25.000Z</time>
      </trkpt>
      <trkpt lat="42.984561" lon="0.660527">
        <ele>611.2</ele>
        <time>1970-01-01T04:09:26.000Z</time>
      </trkpt>
      <trkpt lat="42.984507" lon="0.66046">
        <ele>610.2</ele>
        <time>1970-01-01T04:09:27.000Z</time>
      </trkpt>
      <trkpt lat="42.98441" lon="0.660343">
        <ele>608.4</ele>
        <time>1970-01-01T04:09:29.000Z</time>
      </trkpt>
      <trkpt lat="42.984367" lon="0.660296">
        <ele>607.6</ele>
        <time>1970-01-01T04:09:30.000Z</time>
      </trkpt>
      <trkpt lat="42.984325" lon="0.660265">
        <ele>607</ele>
        <time>1970-01-01T04:09:31.000Z</time>
      </trkpt>
      <trkpt lat="42.984196" lon="0.660328">
        <ele>606</ele>
        <time>1970-01-01T04:09:34.000Z</time>
      </trkpt>
      <trkpt lat="42.984082" lon="0.660614">
        <ele>606</ele>
        <time>1970-01-01T04:09:40.000Z</time>
      </trkpt>
      <trkpt lat="42.984059" lon="0.660796">
        <ele>606.4</ele>
        <time>1970-01-01T04:09:46.000Z</time>
      </trkpt>
      <trkpt lat="42.984052" lon="0.660844">
        <ele>607</ele>
        <time>1970-01-01T04:12:54.000Z</time>
      </trkpt>
      <trkpt lat="42.984018" lon="0.660972">
        <ele>606.4</ele>
        <time>1970-01-01T04:12:57.000Z</time>
      </trkpt>
      <trkpt lat="42.983999" lon="0.661029">
        <ele>606.2</ele>
        <time>1970-01-01T04:12:58.000Z</time>
      </trkpt>
      <trkpt lat="42.983899" lon="0.661323">
        <ele>605.2</ele>
        <time>1970-01-01T04:13:02.000Z</time>
      </trkpt>
      <trkpt lat="42.983882" lon="0.661405">
        <ele>604</ele>
        <time>1970-01-01T04:13:03.000Z</time>
      </trkpt>
      <trkpt lat="42.983902" lon="0.661571">
        <ele>602.8</ele>
        <time>1970-01-01T04:13:05.000Z</time>
      </trkpt>
      <trkpt lat="42.983963" lon="0.661829">
        <ele>601.8</ele>
        <time>1970-01-01T04:13:08.000Z</time>
      </trkpt>
      <trkpt lat="42.983977" lon="0.661918">
        <ele>601.6</ele>
        <time>1970-01-01T04:13:09.000Z</time>
      </trkpt>
      <trkpt lat="42.983951" lon="0.662268">
        <ele>600.6</ele>
        <time>1970-01-01T04:13:13.000Z</time>
      </trkpt>
      <trkpt lat="42.983854" lon="0.662465">
        <ele>600.4</ele>
        <time>1970-01-01T04:13:16.000Z</time>
      </trkpt>
      <trkpt lat="42.983738" lon="0.662695">
        <ele>601</ele>
        <time>1970-01-01T04:13:20.000Z</time>
      </trkpt>
      <trkpt lat="42.983707" lon="0.66293">
        <ele>602</ele>
        <time>1970-01-01T04:13:24.000Z</time>
      </trkpt>
      <trkpt lat="42.983714" lon="0.663188">
        <ele>603</ele>
        <time>1970-01-01T04:13:29.000Z</time>
      </trkpt>
      <trkpt lat="42.983826" lon="0.663504">
        <ele>604.2</ele>
        <time>1970-01-01T04:13:36.000Z</time>
      </trkpt>
      <trkpt lat="42.983973" lon="0.664246">
        <ele>604.6</ele>
        <time>1970-01-01T04:13:54.000Z</time>
      </trkpt>
      <trkpt lat="42.984018" lon="0.665028">
        <ele>604.4</ele>
        <time>1970-01-01T04:14:07.000Z</time>
      </trkpt>
      <trkpt lat="42.984094" lon="0.665611">
        <ele>603.2</ele>
        <time>1970-01-01T04:14:15.000Z</time>
      </trkpt>
      <trkpt lat="42.984176" lon="0.666115">
        <ele>603.4</ele>
        <time>1970-01-01T04:14:23.000Z</time>
      </trkpt>
      <trkpt lat="42.984129" lon="0.666605">
        <ele>604</ele>
        <time>1970-01-01T04:14:31.000Z</time>
      </trkpt>
      <trkpt lat="42.984159" lon="0.666849">
        <ele>604.2</ele>
        <time>1970-01-01T04:14:35.000Z</time>
      </trkpt>
      <trkpt lat="42.984275" lon="0.667471">
        <ele>604.2</ele>
        <time>1970-01-01T04:14:45.000Z</time>
      </trkpt>
      <trkpt lat="42.984248" lon="0.667734">
        <ele>604.2</ele>
        <time>1970-01-01T04:14:49.000Z</time>
      </trkpt>
      <trkpt lat="42.984196" lon="0.667909">
        <ele>604.4</ele>
        <time>1970-01-01T04:14:52.000Z</time>
      </trkpt>
      <trkpt lat="42.983843" lon="0.668085">
        <ele>603.4</ele>
        <time>1970-01-01T04:15:00.000Z</time>
      </trkpt>
      <trkpt lat="42.983798" lon="0.668121">
        <ele>603.4</ele>
        <time>1970-01-01T04:15:01.000Z</time>
      </trkpt>
      <trkpt lat="42.983707" lon="0.668181">
        <ele>603.6</ele>
        <time>1970-01-01T04:15:03.000Z</time>
      </trkpt>
      <trkpt lat="42.983561" lon="0.668251">
        <ele>603.4</ele>
        <time>1970-01-01T04:15:06.000Z</time>
      </trkpt>
      <trkpt lat="42.983411" lon="0.668433">
        <ele>603</ele>
        <time>1970-01-01T04:15:10.000Z</time>
      </trkpt>
      <trkpt lat="42.983235" lon="0.668747">
        <ele>602.4</ele>
        <time>1970-01-01T04:15:16.000Z</time>
      </trkpt>
      <trkpt lat="42.983118" lon="0.669034">
        <ele>602</ele>
        <time>1970-01-01T04:15:21.000Z</time>
      </trkpt>
      <trkpt lat="42.983077" lon="0.669283">
        <ele>601.8</ele>
        <time>1970-01-01T04:15:27.000Z</time>
      </trkpt>
      <trkpt lat="42.983248" lon="0.66965">
        <ele>603.8</ele>
        <time>1970-01-01T04:15:39.000Z</time>
      </trkpt>
      <trkpt lat="42.98329" lon="0.669777">
        <ele>604.8</ele>
        <time>1970-01-01T04:15:43.000Z</time>
      </trkpt>
      <trkpt lat="42.983345" lon="0.669961">
        <ele>605.8</ele>
        <time>1970-01-01T04:15:49.000Z</time>
      </trkpt>
      <trkpt lat="42.983406" lon="0.670187">
        <ele>607.2</ele>
        <time>1970-01-01T04:15:56.000Z</time>
      </trkpt>
      <trkpt lat="42.98345" lon="0.670315">
        <ele>608.2</ele>
        <time>1970-01-01T04:16:00.000Z</time>
      </trkpt>
      <trkpt lat="42.983488" lon="0.670442">
        <ele>609.2</ele>
        <time>1970-01-01T04:16:04.000Z</time>
      </trkpt>
      <trkpt lat="42.983532" lon="0.670536">
        <ele>610.4</ele>
        <time>1970-01-01T04:16:07.000Z</time>
      </trkpt>
      <trkpt lat="42.983614" lon="0.670625">
        <ele>611.6</ele>
        <time>1970-01-01T04:16:12.000Z</time>
      </trkpt>
      <trkpt lat="42.98371" lon="0.670722">
        <ele>612.6</ele>
        <time>1970-01-01T04:16:18.000Z</time>
      </trkpt>
      <trkpt lat="42.983791" lon="0.670801">
        <ele>613.6</ele>
        <time>1970-01-01T04:16:24.000Z</time>
      </trkpt>
      <trkpt lat="42.983802" lon="0.67082">
        <ele>613.8</ele>
        <time>1970-01-01T04:16:25.000Z</time>
      </trkpt>
      <trkpt lat="42.983833" lon="0.670866">
        <ele>614</ele>
        <time>1970-01-01T04:16:28.000Z</time>
      </trkpt>
      <trkpt lat="42.983841" lon="0.670947">
        <ele>614</ele>
        <time>1970-01-01T04:16:33.000Z</time>
      </trkpt>
      <trkpt lat="42.983882" lon="0.670902">
        <ele>614.2</ele>
        <time>1970-01-01T04:16:37.000Z</time>
      </trkpt>
      <trkpt lat="42.983836" lon="0.670847">
        <ele>614.4</ele>
        <time>1970-01-01T04:16:42.000Z</time>
      </trkpt>
      <trkpt lat="42.983707" lon="0.670781">
        <ele>613.8</ele>
        <time>1970-01-01T04:16:52.000Z</time>
      </trkpt>
      <trkpt lat="42.984054" lon="0.671098">
        <ele>617</ele>
        <time>1970-01-01T04:56:08.000Z</time>
      </trkpt>
      <trkpt lat="42.984178" lon="0.671232">
        <ele>616.6</ele>
        <time>1970-01-01T04:56:13.000Z</time>
      </trkpt>
      <trkpt lat="42.984433" lon="0.671506">
        <ele>616</ele>
        <time>1970-01-01T04:56:21.000Z</time>
      </trkpt>
      <trkpt lat="42.984488" lon="0.671587">
        <ele>615.8</ele>
        <time>1970-01-01T04:56:23.000Z</time>
      </trkpt>
      <trkpt lat="42.984622" lon="0.671995">
        <ele>615.2</ele>
        <time>1970-01-01T04:56:33.000Z</time>
      </trkpt>
      <trkpt lat="42.984618" lon="0.672164">
        <ele>615.8</ele>
        <time>1970-01-01T04:56:39.000Z</time>
      </trkpt>
      <trkpt lat="42.984622" lon="0.672197">
        <ele>616</ele>
        <time>1970-01-01T04:56:40.000Z</time>
      </trkpt>
      <trkpt lat="42.984597" lon="0.672328">
        <ele>616.2</ele>
        <time>1970-01-01T04:56:44.000Z</time>
      </trkpt>
      <trkpt lat="42.984543" lon="0.67258">
        <ele>617</ele>
        <time>1970-01-01T04:56:51.000Z</time>
      </trkpt>
      <trkpt lat="42.984497" lon="0.67283">
        <ele>618</ele>
        <time>1970-01-01T04:56:58.000Z</time>
      </trkpt>
      <trkpt lat="42.984471" lon="0.673181">
        <ele>619.2</ele>
        <time>1970-01-01T04:57:08.000Z</time>
      </trkpt>
      <trkpt lat="42.984461" lon="0.673372">
        <ele>620.4</ele>
        <time>1970-01-01T04:57:14.000Z</time>
      </trkpt>
      <trkpt lat="42.984448" lon="0.673602">
        <ele>621.4</ele>
        <time>1970-01-01T04:57:22.000Z</time>
      </trkpt>
      <trkpt lat="42.984437" lon="0.673801">
        <ele>622.6</ele>
        <time>1970-01-01T04:57:29.000Z</time>
      </trkpt>
      <trkpt lat="42.984407" lon="0.674006">
        <ele>623.8</ele>
        <time>1970-01-01T04:57:37.000Z</time>
      </trkpt>
      <trkpt lat="42.984385" lon="0.674172">
        <ele>625.2</ele>
        <time>1970-01-01T04:57:43.000Z</time>
      </trkpt>
      <trkpt lat="42.984374" lon="0.674355">
        <ele>626.4</ele>
        <time>1970-01-01T04:57:50.000Z</time>
      </trkpt>
      <trkpt lat="42.984377" lon="0.674488">
        <ele>627.6</ele>
        <time>1970-01-01T04:57:55.000Z</time>
      </trkpt>
      <trkpt lat="42.984375" lon="0.67463">
        <ele>628.6</ele>
        <time>1970-01-01T04:58:01.000Z</time>
      </trkpt>
      <trkpt lat="42.984381" lon="0.67472">
        <ele>630</ele>
        <time>1970-01-01T04:58:05.000Z</time>
      </trkpt>
      <trkpt lat="42.98438" lon="0.674831">
        <ele>631</ele>
        <time>1970-01-01T04:58:10.000Z</time>
      </trkpt>
      <trkpt lat="42.984376" lon="0.674963">
        <ele>632</ele>
        <time>1970-01-01T04:58:16.000Z</time>
      </trkpt>
      <trkpt lat="42.984371" lon="0.675052">
        <ele>633</ele>
        <time>1970-01-01T04:58:20.000Z</time>
      </trkpt>
      <trkpt lat="42.984342" lon="0.675188">
        <ele>634.2</ele>
        <time>1970-01-01T04:58:27.000Z</time>
      </trkpt>
      <trkpt lat="42.984308" lon="0.675288">
        <ele>635.4</ele>
        <time>1970-01-01T04:58:33.000Z</time>
      </trkpt>
      <trkpt lat="42.984278" lon="0.675386">
        <ele>636.6</ele>
        <time>1970-01-01T04:58:39.000Z</time>
      </trkpt>
      <trkpt lat="42.984255" lon="0.675471">
        <ele>637.8</ele>
        <time>1970-01-01T04:58:45.000Z</time>
      </trkpt>
      <trkpt lat="42.984231" lon="0.675553">
        <ele>638.8</ele>
        <time>1970-01-01T04:58:51.000Z</time>
      </trkpt>
      <trkpt lat="42.984209" lon="0.675643">
        <ele>639.8</ele>
        <time>1970-01-01T04:58:58.000Z</time>
      </trkpt>
      <trkpt lat="42.984194" lon="0.675722">
        <ele>641</ele>
        <time>1970-01-01T04:59:04.000Z</time>
      </trkpt>
      <trkpt lat="42.984192" lon="0.675731">
        <ele>641.4</ele>
        <time>1970-01-01T04:59:06.000Z</time>
      </trkpt>
      <trkpt lat="42.984063" lon="0.678176">
        <ele>670.2</ele>
        <time>1970-01-01T05:03:58.000Z</time>
      </trkpt>
      <trkpt lat="42.984194" lon="0.678376">
        <ele>671.4</ele>
        <time>1970-01-01T05:04:07.000Z</time>
      </trkpt>
      <trkpt lat="42.984271" lon="0.678499">
        <ele>672.6</ele>
        <time>1970-01-01T05:04:13.000Z</time>
      </trkpt>
      <trkpt lat="42.984333" lon="0.678565">
        <ele>673.6</ele>
        <time>1970-01-01T05:04:17.000Z</time>
      </trkpt>
      <trkpt lat="42.984435" lon="0.678702">
        <ele>674.6</ele>
        <time>1970-01-01T05:04:24.000Z</time>
      </trkpt>
      <trkpt lat="42.984571" lon="0.678855">
        <ele>676.2</ele>
        <time>1970-01-01T05:04:32.000Z</time>
      </trkpt>
      <trkpt lat="42.984637" lon="0.678925">
        <ele>677.4</ele>
        <time>1970-01-01T05:04:37.000Z</time>
      </trkpt>
      <trkpt lat="42.984739" lon="0.67903">
        <ele>678.4</ele>
        <time>1970-01-01T05:04:43.000Z</time>
      </trkpt>
      <trkpt lat="42.984901" lon="0.679261">
        <ele>679.4</ele>
        <time>1970-01-01T05:04:53.000Z</time>
      </trkpt>
      <trkpt lat="42.984959" lon="0.679357">
        <ele>680.4</ele>
        <time>1970-01-01T05:04:58.000Z</time>
      </trkpt>
      <trkpt lat="42.985009" lon="0.679428">
        <ele>681.6</ele>
        <time>1970-01-01T05:05:03.000Z</time>
      </trkpt>
      <trkpt lat="42.985077" lon="0.679551">
        <ele>682.6</ele>
        <time>1970-01-01T05:05:09.000Z</time>
      </trkpt>
      <trkpt lat="42.985146" lon="0.679706">
        <ele>683.8</ele>
        <time>1970-01-01T05:05:16.000Z</time>
      </trkpt>
      <trkpt lat="42.985196" lon="0.679771">
        <ele>684.6</ele>
        <time>1970-01-01T05:05:21.000Z</time>
      </trkpt>
      <trkpt lat="42.985226" lon="0.679837">
        <ele>685.8</ele>
        <time>1970-01-01T05:05:25.000Z</time>
      </trkpt>
      <trkpt lat="42.98532" lon="0.679961">
        <ele>687</ele>
        <time>1970-01-01T05:05:33.000Z</time>
      </trkpt>
      <trkpt lat="42.985427" lon="0.680111">
        <ele>687.8</ele>
        <time>1970-01-01T05:05:40.000Z</time>
      </trkpt>
      <trkpt lat="42.985527" lon="0.680283">
        <ele>689</ele>
        <time>1970-01-01T05:05:46.000Z</time>
      </trkpt>
      <trkpt lat="42.985618" lon="0.68039">
        <ele>690</ele>
        <time>1970-01-01T05:05:53.000Z</time>
      </trkpt>
      <trkpt lat="42.985725" lon="0.68053">
        <ele>691</ele>
        <time>1970-01-01T05:05:59.000Z</time>
      </trkpt>
      <trkpt lat="42.985851" lon="0.680633">
        <ele>692</ele>
        <time>1970-01-01T05:06:07.000Z</time>
      </trkpt>
      <trkpt lat="42.985976" lon="0.68074">
        <ele>692.8</ele>
        <time>1970-01-01T05:06:14.000Z</time>
      </trkpt>
      <trkpt lat="42.986146" lon="0.680952">
        <ele>693.8</ele>
        <time>1970-01-01T05:06:24.000Z</time>
      </trkpt>
      <trkpt lat="42.986209" lon="0.681039">
        <ele>695</ele>
        <time>1970-01-01T05:06:29.000Z</time>
      </trkpt>
      <trkpt lat="42.986269" lon="0.681144">
        <ele>696.2</ele>
        <time>1970-01-01T05:06:35.000Z</time>
      </trkpt>
      <trkpt lat="42.986329" lon="0.681293">
        <ele>697.2</ele>
        <time>1970-01-01T05:06:42.000Z</time>
      </trkpt>
      <trkpt lat="42.986372" lon="0.681408">
        <ele>698.2</ele>
        <time>1970-01-01T05:06:47.000Z</time>
      </trkpt>
      <trkpt lat="42.986445" lon="0.681583">
        <ele>699.4</ele>
        <time>1970-01-01T05:06:55.000Z</time>
      </trkpt>
      <trkpt lat="42.986474" lon="0.68169">
        <ele>700.4</ele>
        <time>1970-01-01T05:07:00.000Z</time>
      </trkpt>
      <trkpt lat="42.98653" lon="0.681852">
        <ele>701.6</ele>
        <time>1970-01-01T05:07:07.000Z</time>
      </trkpt>
      <trkpt lat="42.986566" lon="0.68201">
        <ele>702.8</ele>
        <time>1970-01-01T05:07:14.000Z</time>
      </trkpt>
      <trkpt lat="42.986609" lon="0.682176">
        <ele>703.8</ele>
        <time>1970-01-01T05:07:21.000Z</time>
      </trkpt>
      <trkpt lat="42.986627" lon="0.682295">
        <ele>704.8</ele>
        <time>1970-01-01T05:07:27.000Z</time>
      </trkpt>
      <trkpt lat="42.986673" lon="0.682444">
        <ele>706.2</ele>
        <time>1970-01-01T05:07:34.000Z</time>
      </trkpt>
      <trkpt lat="42.986705" lon="0.682559">
        <ele>707.2</ele>
        <time>1970-01-01T05:07:39.000Z</time>
      </trkpt>
      <trkpt lat="42.98671" lon="0.682598">
        <ele>707.6</ele>
        <time>1970-01-01T05:07:41.000Z</time>
      </trkpt>
      <trkpt lat="42.986737" lon="0.682653">
        <ele>708.2</ele>
        <time>1970-01-01T05:07:44.000Z</time>
      </trkpt>
      <trkpt lat="42.986753" lon="0.682684">
        <ele>708.6</ele>
        <time>1970-01-01T05:07:46.000Z</time>
      </trkpt>
      <trkpt lat="42.986763" lon="0.682718">
        <ele>709</ele>
        <time>1970-01-01T05:07:48.000Z</time>
      </trkpt>
      <trkpt lat="42.986775" lon="0.682749">
        <ele>709.4</ele>
        <time>1970-01-01T05:07:50.000Z</time>
      </trkpt>
      <trkpt lat="42.986784" lon="0.682766">
        <ele>709.4</ele>
        <time>1970-01-01T05:07:51.000Z</time>
      </trkpt>
      <trkpt lat="42.986836" lon="0.682856">
        <ele>710.6</ele>
        <time>1970-01-01T05:07:56.000Z</time>
      </trkpt>
      <trkpt lat="42.986863" lon="0.682913">
        <ele>711</ele>
        <time>1970-01-01T05:07:59.000Z</time>
      </trkpt>
      <trkpt lat="42.98688" lon="0.682994">
        <ele>711.8</ele>
        <time>1970-01-01T05:08:03.000Z</time>
      </trkpt>
      <trkpt lat="42.986886" lon="0.683012">
        <ele>712</ele>
        <time>1970-01-01T05:08:04.000Z</time>
      </trkpt>
      <trkpt lat="42.986904" lon="0.683088">
        <ele>712.8</ele>
        <time>1970-01-01T05:08:08.000Z</time>
      </trkpt>
      <trkpt lat="42.986933" lon="0.68321">
        <ele>714</ele>
        <time>1970-01-01T05:08:14.000Z</time>
      </trkpt>
      <trkpt lat="42.986956" lon="0.683332">
        <ele>715.2</ele>
        <time>1970-01-01T05:08:20.000Z</time>
      </trkpt>
      <trkpt lat="42.986999" lon="0.683485">
        <ele>716.2</ele>
        <time>1970-01-01T05:08:27.000Z</time>
      </trkpt>
      <trkpt lat="42.987002" lon="0.683508">
        <ele>716.4</ele>
        <time>1970-01-01T05:08:28.000Z</time>
      </trkpt>
      <trkpt lat="42.987008" lon="0.683564">
        <ele>717.2</ele>
        <time>1970-01-01T05:08:31.000Z</time>
      </trkpt>
      <trkpt lat="42.98704" lon="0.68373">
        <ele>718.2</ele>
        <time>1970-01-01T05:08:39.000Z</time>
      </trkpt>
      <trkpt lat="42.987074" lon="0.683849">
        <ele>719.4</ele>
        <time>1970-01-01T05:08:46.000Z</time>
      </trkpt>
      <trkpt lat="42.987117" lon="0.683999">
        <ele>720.4</ele>
        <time>1970-01-01T05:08:53.000Z</time>
      </trkpt>
      <trkpt lat="42.987146" lon="0.6841">
        <ele>721.4</ele>
        <time>1970-01-01T05:08:58.000Z</time>
      </trkpt>
      <trkpt lat="42.987169" lon="0.684238">
        <ele>722.8</ele>
        <time>1970-01-01T05:09:04.000Z</time>
      </trkpt>
      <trkpt lat="42.987184" lon="0.684315">
        <ele>723.4</ele>
        <time>1970-01-01T05:09:08.000Z</time>
      </trkpt>
      <trkpt lat="42.9872" lon="0.684376">
        <ele>723.8</ele>
        <time>1970-01-01T05:09:11.000Z</time>
      </trkpt>
      <trkpt lat="42.987207" lon="0.684399">
        <ele>724</ele>
        <time>1970-01-01T05:09:12.000Z</time>
      </trkpt>
      <trkpt lat="42.987221" lon="0.684458">
        <ele>724.8</ele>
        <time>1970-01-01T05:09:15.000Z</time>
      </trkpt>
      <trkpt lat="42.987223" lon="0.684479">
        <ele>724.8</ele>
        <time>1970-01-01T05:09:16.000Z</time>
      </trkpt>
      <trkpt lat="42.987251" lon="0.684606">
        <ele>725.8</ele>
        <time>1970-01-01T05:09:22.000Z</time>
      </trkpt>
      <trkpt lat="42.987275" lon="0.684726">
        <ele>726.8</ele>
        <time>1970-01-01T05:09:28.000Z</time>
      </trkpt>
      <trkpt lat="42.987297" lon="0.684841">
        <ele>728.2</ele>
        <time>1970-01-01T05:09:35.000Z</time>
      </trkpt>
      <trkpt lat="42.987332" lon="0.685014">
        <ele>729.2</ele>
        <time>1970-01-01T05:09:42.000Z</time>
      </trkpt>
      <trkpt lat="42.987355" lon="0.685146">
        <ele>730.4</ele>
        <time>1970-01-01T05:09:48.000Z</time>
      </trkpt>
      <trkpt lat="42.98738" lon="0.685249">
        <ele>731.4</ele>
        <time>1970-01-01T05:09:53.000Z</time>
      </trkpt>
      <trkpt lat="42.987387" lon="0.685313">
        <ele>732.6</ele>
        <time>1970-01-01T05:09:56.000Z</time>
      </trkpt>
      <trkpt lat="42.987418" lon="0.685471">
        <ele>733.6</ele>
        <time>1970-01-01T05:10:03.000Z</time>
      </trkpt>
      <trkpt lat="42.987434" lon="0.685572">
        <ele>734.6</ele>
        <time>1970-01-01T05:10:08.000Z</time>
      </trkpt>
      <trkpt lat="42.987458" lon="0.685666">
        <ele>735.8</ele>
        <time>1970-01-01T05:10:14.000Z</time>
      </trkpt>
      <trkpt lat="42.987474" lon="0.685746">
        <ele>736.6</ele>
        <time>1970-01-01T05:10:18.000Z</time>
      </trkpt>
      <trkpt lat="42.987499" lon="0.685837">
        <ele>737.6</ele>
        <time>1970-01-01T05:10:23.000Z</time>
      </trkpt>
      <trkpt lat="42.98753" lon="0.685938">
        <ele>738.2</ele>
        <time>1970-01-01T05:10:29.000Z</time>
      </trkpt>
      <trkpt lat="42.987539" lon="0.685968">
        <ele>738.6</ele>
        <time>1970-01-01T05:10:31.000Z</time>
      </trkpt>
      <trkpt lat="42.987551" lon="0.686076">
        <ele>739.6</ele>
        <time>1970-01-01T05:10:37.000Z</time>
      </trkpt>
      <trkpt lat="42.987555" lon="0.686114">
        <ele>739.8</ele>
        <time>1970-01-01T05:10:39.000Z</time>
      </trkpt>
      <trkpt lat="42.987587" lon="0.686214">
        <ele>740.8</ele>
        <time>1970-01-01T05:10:44.000Z</time>
      </trkpt>
      <trkpt lat="42.987597" lon="0.686253">
        <ele>741</ele>
        <time>1970-01-01T05:10:46.000Z</time>
      </trkpt>
      <trkpt lat="42.987608" lon="0.686319">
        <ele>741.8</ele>
        <time>1970-01-01T05:10:50.000Z</time>
      </trkpt>
      <trkpt lat="42.987637" lon="0.686451">
        <ele>743</ele>
        <time>1970-01-01T05:10:56.000Z</time>
      </trkpt>
      <trkpt lat="42.987669" lon="0.686581">
        <ele>744.2</ele>
        <time>1970-01-01T05:11:02.000Z</time>
      </trkpt>
      <trkpt lat="42.987696" lon="0.686699">
        <ele>745.2</ele>
        <time>1970-01-01T05:11:08.000Z</time>
      </trkpt>
      <trkpt lat="42.987719" lon="0.686808">
        <ele>746.2</ele>
        <time>1970-01-01T05:11:14.000Z</time>
      </trkpt>
      <trkpt lat="42.987758" lon="0.686944">
        <ele>747.2</ele>
        <time>1970-01-01T05:11:20.000Z</time>
      </trkpt>
      <trkpt lat="42.987794" lon="0.687168">
        <ele>748.2</ele>
        <time>1970-01-01T05:11:29.000Z</time>
      </trkpt>
      <trkpt lat="42.987819" lon="0.687289">
        <ele>749.2</ele>
        <time>1970-01-01T05:11:35.000Z</time>
      </trkpt>
      <trkpt lat="42.98783" lon="0.687426">
        <ele>750.4</ele>
        <time>1970-01-01T05:11:42.000Z</time>
      </trkpt>
      <trkpt lat="42.987846" lon="0.687588">
        <ele>751.6</ele>
        <time>1970-01-01T05:11:49.000Z</time>
      </trkpt>
      <trkpt lat="42.987883" lon="0.687794">
        <ele>752.8</ele>
        <time>1970-01-01T05:11:57.000Z</time>
      </trkpt>
      <trkpt lat="42.987905" lon="0.68789">
        <ele>753.8</ele>
        <time>1970-01-01T05:12:01.000Z</time>
      </trkpt>
      <trkpt lat="42.987956" lon="0.688058">
        <ele>755</ele>
        <time>1970-01-01T05:12:09.000Z</time>
      </trkpt>
      <trkpt lat="42.987957" lon="0.688089">
        <ele>755.2</ele>
        <time>1970-01-01T05:12:11.000Z</time>
      </trkpt>
      <trkpt lat="42.987983" lon="0.688167">
        <ele>756</ele>
        <time>1970-01-01T05:12:15.000Z</time>
      </trkpt>
      <trkpt lat="42.988045" lon="0.688315">
        <ele>757.2</ele>
        <time>1970-01-01T05:12:21.000Z</time>
      </trkpt>
      <trkpt lat="42.988129" lon="0.688475">
        <ele>758.2</ele>
        <time>1970-01-01T05:12:29.000Z</time>
      </trkpt>
      <trkpt lat="42.98815" lon="0.688501">
        <ele>758.4</ele>
        <time>1970-01-01T05:12:31.000Z</time>
      </trkpt>
      <trkpt lat="42.988189" lon="0.688554">
        <ele>759.2</ele>
        <time>1970-01-01T05:12:35.000Z</time>
      </trkpt>
      <trkpt lat="42.988245" lon="0.688638">
        <ele>759.8</ele>
        <time>1970-01-01T05:12:40.000Z</time>
      </trkpt>
      <trkpt lat="42.98826" lon="0.688672">
        <ele>760.2</ele>
        <time>1970-01-01T05:12:42.000Z</time>
      </trkpt>
      <trkpt lat="42.988302" lon="0.688739">
        <ele>761.2</ele>
        <time>1970-01-01T05:12:46.000Z</time>
      </trkpt>
      <trkpt lat="42.988383" lon="0.688842">
        <ele>762.2</ele>
        <time>1970-01-01T05:12:53.000Z</time>
      </trkpt>
      <trkpt lat="42.988424" lon="0.688896">
        <ele>763.4</ele>
        <time>1970-01-01T05:12:57.000Z</time>
      </trkpt>
      <trkpt lat="42.98847" lon="0.688941">
        <ele>764.4</ele>
        <time>1970-01-01T05:13:01.000Z</time>
      </trkpt>
      <trkpt lat="42.988531" lon="0.68902">
        <ele>765.6</ele>
        <time>1970-01-01T05:13:06.000Z</time>
      </trkpt>
      <trkpt lat="42.98859" lon="0.689111">
        <ele>766.8</ele>
        <time>1970-01-01T05:13:11.000Z</time>
      </trkpt>
      <trkpt lat="42.988596" lon="0.689129">
        <ele>766.8</ele>
        <time>1970-01-01T05:13:12.000Z</time>
      </trkpt>
      <trkpt lat="42.98864" lon="0.689199">
        <ele>767.8</ele>
        <time>1970-01-01T05:13:16.000Z</time>
      </trkpt>
      <trkpt lat="42.988686" lon="0.689284">
        <ele>768.8</ele>
        <time>1970-01-01T05:13:20.000Z</time>
      </trkpt>
      <trkpt lat="42.988733" lon="0.689387">
        <ele>770</ele>
        <time>1970-01-01T05:13:26.000Z</time>
      </trkpt>
      <trkpt lat="42.988797" lon="0.689516">
        <ele>771.2</ele>
        <time>1970-01-01T05:13:32.000Z</time>
      </trkpt>
      <trkpt lat="42.98882" lon="0.689659">
        <ele>772.2</ele>
        <time>1970-01-01T05:13:38.000Z</time>
      </trkpt>
      <trkpt lat="42.98883" lon="0.689724">
        <ele>772.6</ele>
        <time>1970-01-01T05:13:41.000Z</time>
      </trkpt>
      <trkpt lat="42.98883" lon="0.689816">
        <ele>773.2</ele>
        <time>1970-01-01T05:13:45.000Z</time>
      </trkpt>
      <trkpt lat="42.988906" lon="0.690118">
        <ele>774.2</ele>
        <time>1970-01-01T05:13:56.000Z</time>
      </trkpt>
      <trkpt lat="42.988966" lon="0.690322">
        <ele>775.4</ele>
        <time>1970-01-01T05:14:05.000Z</time>
      </trkpt>
      <trkpt lat="42.989023" lon="0.69058">
        <ele>776.4</ele>
        <time>1970-01-01T05:14:14.000Z</time>
      </trkpt>
      <trkpt lat="42.989062" lon="0.690739">
        <ele>777.6</ele>
        <time>1970-01-01T05:14:21.000Z</time>
      </trkpt>
      <trkpt lat="42.989118" lon="0.690892">
        <ele>778.6</ele>
        <time>1970-01-01T05:14:28.000Z</time>
      </trkpt>
      <trkpt lat="42.989134" lon="0.690961">
        <ele>779.2</ele>
        <time>1970-01-01T05:14:32.000Z</time>
      </trkpt>
      <trkpt lat="42.989145" lon="0.691037">
        <ele>779.6</ele>
        <time>1970-01-01T05:14:35.000Z</time>
      </trkpt>
      <trkpt lat="42.989167" lon="0.691105">
        <ele>780.2</ele>
        <time>1970-01-01T05:14:38.000Z</time>
      </trkpt>
      <trkpt lat="42.98917" lon="0.691128">
        <ele>780.2</ele>
        <time>1970-01-01T05:14:39.000Z</time>
      </trkpt>
      <trkpt lat="42.989176" lon="0.691179">
        <ele>780.4</ele>
        <time>1970-01-01T05:14:41.000Z</time>
      </trkpt>
      <trkpt lat="42.989201" lon="0.691361">
        <ele>781.6</ele>
        <time>1970-01-01T05:14:47.000Z</time>
      </trkpt>
      <trkpt lat="42.989263" lon="0.691616">
        <ele>782.6</ele>
        <time>1970-01-01T05:14:56.000Z</time>
      </trkpt>
      <trkpt lat="42.989316" lon="0.691819">
        <ele>783.4</ele>
        <time>1970-01-01T05:15:04.000Z</time>
      </trkpt>
      <trkpt lat="42.98934" lon="0.691894">
        <ele>783.6</ele>
        <time>1970-01-01T05:15:07.000Z</time>
      </trkpt>
      <trkpt lat="42.989527" lon="0.692299">
        <ele>784.8</ele>
        <time>1970-01-01T05:15:24.000Z</time>
      </trkpt>
      <trkpt lat="42.989741" lon="0.692439">
        <ele>785.8</ele>
        <time>1970-01-01T05:15:35.000Z</time>
      </trkpt>
      <trkpt lat="42.989873" lon="0.692473">
        <ele>787</ele>
        <time>1970-01-01T05:15:42.000Z</time>
      </trkpt>
      <trkpt lat="42.989998" lon="0.69251">
        <ele>788.2</ele>
        <time>1970-01-01T05:15:49.000Z</time>
      </trkpt>
      <trkpt lat="42.990098" lon="0.692553">
        <ele>789.2</ele>
        <time>1970-01-01T05:15:55.000Z</time>
      </trkpt>
      <trkpt lat="42.99018" lon="0.692574">
        <ele>790.2</ele>
        <time>1970-01-01T05:16:00.000Z</time>
      </trkpt>
      <trkpt lat="42.990243" lon="0.692589">
        <ele>791.4</ele>
        <time>1970-01-01T05:16:04.000Z</time>
      </trkpt>
      <trkpt lat="42.990313" lon="0.692615">
        <ele>792.6</ele>
        <time>1970-01-01T05:16:09.000Z</time>
      </trkpt>
      <trkpt lat="42.990352" lon="0.692637">
        <ele>793.4</ele>
        <time>1970-01-01T05:16:12.000Z</time>
      </trkpt>
      <trkpt lat="42.990364" lon="0.692647">
        <ele>793.6</ele>
        <time>1970-01-01T05:16:13.000Z</time>
      </trkpt>
      <trkpt lat="42.990389" lon="0.692689">
        <ele>794.4</ele>
        <time>1970-01-01T05:16:16.000Z</time>
      </trkpt>
      <trkpt lat="42.990393" lon="0.692703">
        <ele>794.8</ele>
        <time>1970-01-01T05:16:17.000Z</time>
      </trkpt>
      <trkpt lat="42.990417" lon="0.692767">
        <ele>796</ele>
        <time>1970-01-01T05:16:21.000Z</time>
      </trkpt>
      <trkpt lat="42.990431" lon="0.692833">
        <ele>797.2</ele>
        <time>1970-01-01T05:16:25.000Z</time>
      </trkpt>
      <trkpt lat="42.990445" lon="0.692944">
        <ele>798.2</ele>
        <time>1970-01-01T05:16:31.000Z</time>
      </trkpt>
      <trkpt lat="42.990427" lon="0.693057">
        <ele>799.4</ele>
        <time>1970-01-01T05:16:37.000Z</time>
      </trkpt>
      <trkpt lat="42.990412" lon="0.693087">
        <ele>800.2</ele>
        <time>1970-01-01T05:16:39.000Z</time>
      </trkpt>
      <trkpt lat="42.990403" lon="0.693098">
        <ele>800.6</ele>
        <time>1970-01-01T05:16:40.000Z</time>
      </trkpt>
      <trkpt lat="42.990346" lon="0.693107">
        <ele>801.6</ele>
        <time>1970-01-01T05:16:44.000Z</time>
      </trkpt>
      <trkpt lat="42.990285" lon="0.693104">
        <ele>802.4</ele>
        <time>1970-01-01T05:16:48.000Z</time>
      </trkpt>
      <trkpt lat="42.990233" lon="0.693109">
        <ele>802.6</ele>
        <time>1970-01-01T05:16:51.000Z</time>
      </trkpt>
      <trkpt lat="42.990042" lon="0.69324">
        <ele>803.6</ele>
        <time>1970-01-01T05:17:04.000Z</time>
      </trkpt>
      <trkpt lat="42.990035" lon="0.693259">
        <ele>803.6</ele>
        <time>1970-01-01T05:17:05.000Z</time>
      </trkpt>
      <trkpt lat="42.990084" lon="0.693313">
        <ele>803.8</ele>
        <time>1970-01-01T05:17:10.000Z</time>
      </trkpt>
      <trkpt lat="42.990129" lon="0.693293">
        <ele>803.8</ele>
        <time>1970-01-01T05:17:16.000Z</time>
      </trkpt>
      <trkpt lat="42.990171" lon="0.693269">
        <ele>804.2</ele>
        <time>1970-01-01T05:17:33.000Z</time>
      </trkpt>
      <trkpt lat="42.990329" lon="0.693285">
        <ele>804.8</ele>
        <time>1970-01-01T05:17:41.000Z</time>
      </trkpt>
      <trkpt lat="42.990436" lon="0.693338">
        <ele>805.8</ele>
        <time>1970-01-01T05:17:46.000Z</time>
      </trkpt>
      <trkpt lat="42.990637" lon="0.693532">
        <ele>807</ele>
        <time>1970-01-01T05:17:57.000Z</time>
      </trkpt>
      <trkpt lat="42.991005" lon="0.694077">
        <ele>807.4</ele>
        <time>1970-01-01T05:18:16.000Z</time>
      </trkpt>
      <trkpt lat="42.991076" lon="0.69439">
        <ele>805.8</ele>
        <time>1970-01-01T05:18:25.000Z</time>
      </trkpt>
      <trkpt lat="42.99132" lon="0.694468">
        <ele>807</ele>
        <time>1970-01-01T05:18:35.000Z</time>
      </trkpt>
      <trkpt lat="42.991415" lon="0.694436">
        <ele>808</ele>
        <time>1970-01-01T05:18:39.000Z</time>
      </trkpt>
      <trkpt lat="42.991535" lon="0.694435">
        <ele>809.2</ele>
        <time>1970-01-01T05:18:45.000Z</time>
      </trkpt>
      <trkpt lat="42.991605" lon="0.694452">
        <ele>810.2</ele>
        <time>1970-01-01T05:18:49.000Z</time>
      </trkpt>
      <trkpt lat="42.992166" lon="0.694489">
        <ele>810.2</ele>
        <time>1970-01-01T05:19:06.000Z</time>
      </trkpt>
      <trkpt lat="42.992249" lon="0.694513">
        <ele>810.2</ele>
        <time>1970-01-01T05:19:08.000Z</time>
      </trkpt>
      <trkpt lat="42.992589" lon="0.695073">
        <ele>809.4</ele>
        <time>1970-01-01T05:19:20.000Z</time>
      </trkpt>
      <trkpt lat="42.992653" lon="0.695161">
        <ele>809.4</ele>
        <time>1970-01-01T05:19:22.000Z</time>
      </trkpt>
      <trkpt lat="42.99305" lon="0.695727">
        <ele>810</ele>
        <time>1970-01-01T05:19:35.000Z</time>
      </trkpt>
      <trkpt lat="42.993411" lon="0.696295">
        <ele>810</ele>
        <time>1970-01-01T05:19:47.000Z</time>
      </trkpt>
      <trkpt lat="42.993494" lon="0.696432">
        <ele>810.8</ele>
        <time>1970-01-01T05:19:51.000Z</time>
      </trkpt>
      <trkpt lat="42.993602" lon="0.6966">
        <ele>812</ele>
        <time>1970-01-01T05:19:56.000Z</time>
      </trkpt>
      <trkpt lat="42.993687" lon="0.696758">
        <ele>813</ele>
        <time>1970-01-01T05:20:01.000Z</time>
      </trkpt>
      <trkpt lat="42.993734" lon="0.696841">
        <ele>814</ele>
        <time>1970-01-01T05:20:04.000Z</time>
      </trkpt>
      <trkpt lat="42.993786" lon="0.696939">
        <ele>815.2</ele>
        <time>1970-01-01T05:20:07.000Z</time>
      </trkpt>
      <trkpt lat="42.993825" lon="0.69706">
        <ele>816.2</ele>
        <time>1970-01-01T05:20:11.000Z</time>
      </trkpt>
      <trkpt lat="42.993963" lon="0.69755">
        <ele>817</ele>
        <time>1970-01-01T05:20:25.000Z</time>
      </trkpt>
      <trkpt lat="42.994166" lon="0.698026">
        <ele>817.8</ele>
        <time>1970-01-01T05:20:40.000Z</time>
      </trkpt>
      <trkpt lat="42.99452" lon="0.69863">
        <ele>816.6</ele>
        <time>1970-01-01T05:20:53.000Z</time>
      </trkpt>
      <trkpt lat="42.99489" lon="0.699233">
        <ele>817.6</ele>
        <time>1970-01-01T05:21:06.000Z</time>
      </trkpt>
      <trkpt lat="42.995082" lon="0.699518">
        <ele>818.4</ele>
        <time>1970-01-01T05:21:16.000Z</time>
      </trkpt>
      <trkpt lat="42.995209" lon="0.699672">
        <ele>819.2</ele>
        <time>1970-01-01T05:21:24.000Z</time>
      </trkpt>
      <trkpt lat="42.99533" lon="0.699868">
        <ele>820.4</ele>
        <time>1970-01-01T05:21:32.000Z</time>
      </trkpt>
      <trkpt lat="42.995432" lon="0.700014">
        <ele>821.6</ele>
        <time>1970-01-01T05:21:38.000Z</time>
      </trkpt>
      <trkpt lat="42.995623" lon="0.70041">
        <ele>822.4</ele>
        <time>1970-01-01T05:21:52.000Z</time>
      </trkpt>
      <trkpt lat="42.995987" lon="0.700955">
        <ele>823.2</ele>
        <time>1970-01-01T05:22:09.000Z</time>
      </trkpt>
      <trkpt lat="42.99614" lon="0.701112">
        <ele>824.2</ele>
        <time>1970-01-01T05:22:17.000Z</time>
      </trkpt>
      <trkpt lat="42.996199" lon="0.701182">
        <ele>825.2</ele>
        <time>1970-01-01T05:22:20.000Z</time>
      </trkpt>
      <trkpt lat="42.996262" lon="0.701228">
        <ele>826.2</ele>
        <time>1970-01-01T05:22:23.000Z</time>
      </trkpt>
      <trkpt lat="42.996287" lon="0.701246">
        <ele>826.2</ele>
        <time>1970-01-01T05:22:24.000Z</time>
      </trkpt>
      <trkpt lat="42.996349" lon="0.701312">
        <ele>826.8</ele>
        <time>1970-01-01T05:22:27.000Z</time>
      </trkpt>
      <trkpt lat="42.996373" lon="0.701342">
        <ele>827.4</ele>
        <time>1970-01-01T05:22:29.000Z</time>
      </trkpt>
      <trkpt lat="42.996439" lon="0.701419">
        <ele>828.6</ele>
        <time>1970-01-01T05:22:33.000Z</time>
      </trkpt>
      <trkpt lat="42.99653" lon="0.701576">
        <ele>829.8</ele>
        <time>1970-01-01T05:22:39.000Z</time>
      </trkpt>
      <trkpt lat="42.996606" lon="0.701886">
        <ele>830.8</ele>
        <time>1970-01-01T05:22:50.000Z</time>
      </trkpt>
      <trkpt lat="42.996658" lon="0.702058">
        <ele>831.6</ele>
        <time>1970-01-01T05:22:57.000Z</time>
      </trkpt>
      <trkpt lat="42.996691" lon="0.702289">
        <ele>832.6</ele>
        <time>1970-01-01T05:23:05.000Z</time>
      </trkpt>
      <trkpt lat="42.99671" lon="0.702474">
        <ele>833.6</ele>
        <time>1970-01-01T05:23:11.000Z</time>
      </trkpt>
      <trkpt lat="42.996719" lon="0.702627">
        <ele>834.8</ele>
        <time>1970-01-01T05:23:17.000Z</time>
      </trkpt>
      <trkpt lat="42.996734" lon="0.702702">
        <ele>835.8</ele>
        <time>1970-01-01T05:23:21.000Z</time>
      </trkpt>
      <trkpt lat="42.996747" lon="0.70276">
        <ele>837</ele>
        <time>1970-01-01T05:23:27.000Z</time>
      </trkpt>
      <trkpt lat="42.996895" lon="0.703537">
        <ele>846.4</ele>
        <time>1970-01-01T05:24:05.000Z</time>
      </trkpt>
      <trkpt lat="42.996933" lon="0.703652">
        <ele>847.4</ele>
        <time>1970-01-01T05:24:10.000Z</time>
      </trkpt>
      <trkpt lat="42.99701" lon="0.703796">
        <ele>848.4</ele>
        <time>1970-01-01T05:24:18.000Z</time>
      </trkpt>
      <trkpt lat="42.997059" lon="0.703861">
        <ele>849.4</ele>
        <time>1970-01-01T05:24:24.000Z</time>
      </trkpt>
      <trkpt lat="42.997119" lon="0.703924">
        <ele>850.4</ele>
        <time>1970-01-01T05:24:30.000Z</time>
      </trkpt>
      <trkpt lat="42.997169" lon="0.703992">
        <ele>851.4</ele>
        <time>1970-01-01T05:24:34.000Z</time>
      </trkpt>
      <trkpt lat="42.997179" lon="0.704009">
        <ele>851.6</ele>
        <time>1970-01-01T05:24:35.000Z</time>
      </trkpt>
      <trkpt lat="42.997208" lon="0.704092">
        <ele>852.8</ele>
        <time>1970-01-01T05:24:41.000Z</time>
      </trkpt>
      <trkpt lat="42.997205" lon="0.704118">
        <ele>853.2</ele>
        <time>1970-01-01T05:24:43.000Z</time>
      </trkpt>
      <trkpt lat="42.997193" lon="0.704184">
        <ele>853.8</ele>
        <time>1970-01-01T05:24:47.000Z</time>
      </trkpt>
      <trkpt lat="42.997178" lon="0.704209">
        <ele>854.2</ele>
        <time>1970-01-01T05:24:49.000Z</time>
      </trkpt>
      <trkpt lat="42.997155" lon="0.704259">
        <ele>854.6</ele>
        <time>1970-01-01T05:24:52.000Z</time>
      </trkpt>
      <trkpt lat="42.997126" lon="0.704318">
        <ele>854.8</ele>
        <time>1970-01-01T05:24:55.000Z</time>
      </trkpt>
      <trkpt lat="42.997107" lon="0.704358">
        <ele>854.8</ele>
        <time>1970-01-01T05:24:57.000Z</time>
      </trkpt>
      <trkpt lat="42.997065" lon="0.704513">
        <ele>855</ele>
        <time>1970-01-01T05:25:04.000Z</time>
      </trkpt>
      <trkpt lat="42.996991" lon="0.704816">
        <ele>855.2</ele>
        <time>1970-01-01T05:25:19.000Z</time>
      </trkpt>
      <trkpt lat="42.996968" lon="0.704951">
        <ele>855.8</ele>
        <time>1970-01-01T05:25:24.000Z</time>
      </trkpt>
      <trkpt lat="42.996897" lon="0.705194">
        <ele>856.8</ele>
        <time>1970-01-01T05:25:36.000Z</time>
      </trkpt>
      <trkpt lat="42.996895" lon="0.705278">
        <ele>857</ele>
        <time>1970-01-01T05:25:40.000Z</time>
      </trkpt>
      <trkpt lat="42.996885" lon="0.705419">
        <ele>857.6</ele>
        <time>1970-01-01T05:25:49.000Z</time>
      </trkpt>
      <trkpt lat="42.996885" lon="0.705578">
        <ele>857.8</ele>
        <time>1970-01-01T05:26:37.000Z</time>
      </trkpt>
      <trkpt lat="42.996889" lon="0.705625">
        <ele>857.8</ele>
        <time>1970-01-01T05:26:39.000Z</time>
      </trkpt>
      <trkpt lat="42.996896" lon="0.705836">
        <ele>858.8</ele>
        <time>1970-01-01T05:26:47.000Z</time>
      </trkpt>
      <trkpt lat="42.996913" lon="0.706089">
        <ele>860</ele>
        <time>1970-01-01T05:26:57.000Z</time>
      </trkpt>
      <trkpt lat="42.996925" lon="0.7062">
        <ele>861.2</ele>
        <time>1970-01-01T05:27:02.000Z</time>
      </trkpt>
      <trkpt lat="42.996927" lon="0.706286">
        <ele>862.4</ele>
        <time>1970-01-01T05:27:07.000Z</time>
      </trkpt>
      <trkpt lat="42.996945" lon="0.70637">
        <ele>863.6</ele>
        <time>1970-01-01T05:27:11.000Z</time>
      </trkpt>
      <trkpt lat="42.997" lon="0.706548">
        <ele>864.8</ele>
        <time>1970-01-01T05:27:17.000Z</time>
      </trkpt>
      <trkpt lat="42.997028" lon="0.70663">
        <ele>865.8</ele>
        <time>1970-01-01T05:27:21.000Z</time>
      </trkpt>
      <trkpt lat="42.997068" lon="0.706738">
        <ele>867</ele>
        <time>1970-01-01T05:27:26.000Z</time>
      </trkpt>
      <trkpt lat="42.997124" lon="0.706887">
        <ele>868</ele>
        <time>1970-01-01T05:27:32.000Z</time>
      </trkpt>
      <trkpt lat="42.997167" lon="0.70706">
        <ele>869.2</ele>
        <time>1970-01-01T05:27:41.000Z</time>
      </trkpt>
      <trkpt lat="42.997172" lon="0.707084">
        <ele>869.4</ele>
        <time>1970-01-01T05:27:42.000Z</time>
      </trkpt>
      <trkpt lat="42.997186" lon="0.707181">
        <ele>870.6</ele>
        <time>1970-01-01T05:27:47.000Z</time>
      </trkpt>
      <trkpt lat="42.99722" lon="0.70724">
        <ele>871.4</ele>
        <time>1970-01-01T05:27:51.000Z</time>
      </trkpt>
      <trkpt lat="42.997232" lon="0.70725">
        <ele>871.8</ele>
        <time>1970-01-01T05:27:52.000Z</time>
      </trkpt>
      <trkpt lat="42.997282" lon="0.707325">
        <ele>872.8</ele>
        <time>1970-01-01T05:27:56.000Z</time>
      </trkpt>
      <trkpt lat="42.9973" lon="0.707469">
        <ele>873.8</ele>
        <time>1970-01-01T05:28:02.000Z</time>
      </trkpt>
      <trkpt lat="42.997417" lon="0.707748">
        <ele>875</ele>
        <time>1970-01-01T05:28:14.000Z</time>
      </trkpt>
      <trkpt lat="42.997452" lon="0.707792">
        <ele>875.2</ele>
        <time>1970-01-01T05:28:18.000Z</time>
      </trkpt>
      <trkpt lat="42.997483" lon="0.707827">
        <ele>875.4</ele>
        <time>1970-01-01T05:28:25.000Z</time>
      </trkpt>
      <trkpt lat="42.997572" lon="0.707908">
        <ele>875.6</ele>
        <time>1970-01-01T05:31:19.000Z</time>
      </trkpt>
      <trkpt lat="42.997756" lon="0.708055">
        <ele>876.2</ele>
        <time>1970-01-01T05:31:34.000Z</time>
      </trkpt>
      <trkpt lat="42.997875" lon="0.708095">
        <ele>876.8</ele>
        <time>1970-01-01T05:31:42.000Z</time>
      </trkpt>
      <trkpt lat="42.997914" lon="0.708111">
        <ele>877.4</ele>
        <time>1970-01-01T05:31:47.000Z</time>
      </trkpt>
      <trkpt lat="42.997867" lon="0.708095">
        <ele>877.2</ele>
        <time>1970-01-01T05:31:53.000Z</time>
      </trkpt>
      <trkpt lat="42.997616" lon="0.707994">
        <ele>875.4</ele>
        <time>1970-01-01T05:32:03.000Z</time>
      </trkpt>
      <trkpt lat="42.997511" lon="0.708033">
        <ele>875</ele>
        <time>1970-01-01T05:32:18.000Z</time>
      </trkpt>
      <trkpt lat="42.99755" lon="0.708165">
        <ele>874.6</ele>
        <time>1970-01-01T05:32:53.000Z</time>
      </trkpt>
      <trkpt lat="42.997571" lon="0.708226">
        <ele>874.2</ele>
        <time>1970-01-01T05:32:55.000Z</time>
      </trkpt>
      <trkpt lat="42.997611" lon="0.708455">
        <ele>873</ele>
        <time>1970-01-01T05:33:01.000Z</time>
      </trkpt>
      <trkpt lat="42.997588" lon="0.70888">
        <ele>872</ele>
        <time>1970-01-01T05:33:11.000Z</time>
      </trkpt>
      <trkpt lat="42.997617" lon="0.709359">
        <ele>871</ele>
        <time>1970-01-01T05:33:27.000Z</time>
      </trkpt>
      <trkpt lat="42.997728" lon="0.709701">
        <ele>869.8</ele>
        <time>1970-01-01T05:33:34.000Z</time>
      </trkpt>
      <trkpt lat="42.997778" lon="0.709926">
        <ele>868.8</ele>
        <time>1970-01-01T05:33:39.000Z</time>
      </trkpt>
      <trkpt lat="42.997853" lon="0.710257">
        <ele>867.8</ele>
        <time>1970-01-01T05:33:49.000Z</time>
      </trkpt>
      <trkpt lat="42.997858" lon="0.710299">
        <ele>867.8</ele>
        <time>1970-01-01T05:33:51.000Z</time>
      </trkpt>
      <trkpt lat="42.997864" lon="0.710454">
        <ele>867.6</ele>
        <time>1970-01-01T05:34:21.000Z</time>
      </trkpt>
      <trkpt lat="42.997848" lon="0.710786">
        <ele>867.4</ele>
        <time>1970-01-01T05:34:30.000Z</time>
      </trkpt>
      <trkpt lat="42.997866" lon="0.710841">
        <ele>867</ele>
        <time>1970-01-01T05:34:32.000Z</time>
      </trkpt>
      <trkpt lat="42.998009" lon="0.711554">
        <ele>867</ele>
        <time>1970-01-01T05:34:51.000Z</time>
      </trkpt>
      <trkpt lat="42.998018" lon="0.711795">
        <ele>866.4</ele>
        <time>1970-01-01T05:34:55.000Z</time>
      </trkpt>
      <trkpt lat="42.998017" lon="0.711981">
        <ele>865.4</ele>
        <time>1970-01-01T05:34:58.000Z</time>
      </trkpt>
      <trkpt lat="42.997985" lon="0.712109">
        <ele>864.4</ele>
        <time>1970-01-01T05:35:02.000Z</time>
      </trkpt>
      <trkpt lat="42.99803" lon="0.712215">
        <ele>864.2</ele>
        <time>1970-01-01T05:35:07.000Z</time>
      </trkpt>
      <trkpt lat="42.998041" lon="0.712667">
        <ele>865.4</ele>
        <time>1970-01-01T05:35:18.000Z</time>
      </trkpt>
      <trkpt lat="42.998055" lon="0.713339">
        <ele>866.6</ele>
        <time>1970-01-01T05:35:33.000Z</time>
      </trkpt>
      <trkpt lat="42.99794" lon="0.714059">
        <ele>867</ele>
        <time>1970-01-01T05:35:48.000Z</time>
      </trkpt>
      <trkpt lat="42.99792" lon="0.714127">
        <ele>866.6</ele>
        <time>1970-01-01T05:35:49.000Z</time>
      </trkpt>
      <trkpt lat="42.997881" lon="0.71429">
        <ele>865.6</ele>
        <time>1970-01-01T05:35:51.000Z</time>
      </trkpt>
      <trkpt lat="42.997869" lon="0.714374">
        <ele>865.2</ele>
        <time>1970-01-01T05:35:52.000Z</time>
      </trkpt>
      <trkpt lat="42.99787" lon="0.714521">
        <ele>863.8</ele>
        <time>1970-01-01T05:35:54.000Z</time>
      </trkpt>
      <trkpt lat="42.997904" lon="0.714723">
        <ele>862.4</ele>
        <time>1970-01-01T05:35:57.000Z</time>
      </trkpt>
      <trkpt lat="42.997924" lon="0.714873">
        <ele>861.4</ele>
        <time>1970-01-01T05:36:00.000Z</time>
      </trkpt>
      <trkpt lat="42.997897" lon="0.714972">
        <ele>860.2</ele>
        <time>1970-01-01T05:36:03.000Z</time>
      </trkpt>
      <trkpt lat="42.99785" lon="0.715055">
        <ele>859</ele>
        <time>1970-01-01T05:36:06.000Z</time>
      </trkpt>
      <trkpt lat="42.997784" lon="0.715185">
        <ele>858.2</ele>
        <time>1970-01-01T05:36:11.000Z</time>
      </trkpt>
      <trkpt lat="42.997721" lon="0.715331">
        <ele>857.4</ele>
        <time>1970-01-01T05:36:19.000Z</time>
      </trkpt>
      <trkpt lat="42.997647" lon="0.715555">
        <ele>856.4</ele>
        <time>1970-01-01T05:36:24.000Z</time>
      </trkpt>
      <trkpt lat="42.997653" lon="0.715976">
        <ele>855.2</ele>
        <time>1970-01-01T05:36:30.000Z</time>
      </trkpt>
      <trkpt lat="42.997669" lon="0.716105">
        <ele>853.8</ele>
        <time>1970-01-01T05:36:32.000Z</time>
      </trkpt>
      <trkpt lat="42.997695" lon="0.716199">
        <ele>852.4</ele>
        <time>1970-01-01T05:36:34.000Z</time>
      </trkpt>
      <trkpt lat="42.997712" lon="0.716221">
        <ele>852</ele>
        <time>1970-01-01T05:36:35.000Z</time>
      </trkpt>
      <trkpt lat="42.997741" lon="0.716235">
        <ele>851.2</ele>
        <time>1970-01-01T05:36:36.000Z</time>
      </trkpt>
      <trkpt lat="42.997819" lon="0.716224">
        <ele>849.8</ele>
        <time>1970-01-01T05:36:39.000Z</time>
      </trkpt>
      <trkpt lat="42.997851" lon="0.716219">
        <ele>849.2</ele>
        <time>1970-01-01T05:36:40.000Z</time>
      </trkpt>
      <trkpt lat="42.997884" lon="0.7162">
        <ele>848.4</ele>
        <time>1970-01-01T05:36:41.000Z</time>
      </trkpt>
      <trkpt lat="42.997951" lon="0.716156">
        <ele>846.6</ele>
        <time>1970-01-01T05:36:43.000Z</time>
      </trkpt>
      <trkpt lat="42.998024" lon="0.716101">
        <ele>845.6</ele>
        <time>1970-01-01T05:36:45.000Z</time>
      </trkpt>
      <trkpt lat="42.998091" lon="0.716043">
        <ele>844.4</ele>
        <time>1970-01-01T05:36:47.000Z</time>
      </trkpt>
      <trkpt lat="42.998182" lon="0.715974">
        <ele>843.4</ele>
        <time>1970-01-01T05:36:50.000Z</time>
      </trkpt>
      <trkpt lat="42.998254" lon="0.71592">
        <ele>842.2</ele>
        <time>1970-01-01T05:36:52.000Z</time>
      </trkpt>
      <trkpt lat="42.998336" lon="0.715833">
        <ele>840.8</ele>
        <time>1970-01-01T05:36:54.000Z</time>
      </trkpt>
      <trkpt lat="42.998431" lon="0.715715">
        <ele>839.6</ele>
        <time>1970-01-01T05:36:56.000Z</time>
      </trkpt>
      <trkpt lat="42.998514" lon="0.715639">
        <ele>838.4</ele>
        <time>1970-01-01T05:36:58.000Z</time>
      </trkpt>
      <trkpt lat="42.998578" lon="0.715597">
        <ele>836.8</ele>
        <time>1970-01-01T05:37:00.000Z</time>
      </trkpt>
      <trkpt lat="42.998682" lon="0.71557">
        <ele>835.4</ele>
        <time>1970-01-01T05:37:04.000Z</time>
      </trkpt>
      <trkpt lat="42.999056" lon="0.716105">
        <ele>835.4</ele>
        <time>1970-01-01T05:37:22.000Z</time>
      </trkpt>
      <trkpt lat="42.999254" lon="0.716471">
        <ele>834.8</ele>
        <time>1970-01-01T05:37:30.000Z</time>
      </trkpt>
      <trkpt lat="42.999326" lon="0.716571">
        <ele>834.4</ele>
        <time>1970-01-01T05:37:32.000Z</time>
      </trkpt>
      <trkpt lat="42.999386" lon="0.716679">
        <ele>834.2</ele>
        <time>1970-01-01T05:37:34.000Z</time>
      </trkpt>
      <trkpt lat="42.999436" lon="0.716806">
        <ele>834</ele>
        <time>1970-01-01T05:37:36.000Z</time>
      </trkpt>
      <trkpt lat="42.999505" lon="0.717022">
        <ele>833.2</ele>
        <time>1970-01-01T05:37:40.000Z</time>
      </trkpt>
      <trkpt lat="42.999553" lon="0.717452">
        <ele>832.2</ele>
        <time>1970-01-01T05:37:49.000Z</time>
      </trkpt>
      <trkpt lat="42.999546" lon="0.717563">
        <ele>832</ele>
        <time>1970-01-01T05:37:51.000Z</time>
      </trkpt>
      <trkpt lat="42.999566" lon="0.718301">
        <ele>831.2</ele>
        <time>1970-01-01T05:38:03.000Z</time>
      </trkpt>
      <trkpt lat="42.999689" lon="0.718647">
        <ele>833.2</ele>
        <time>1970-01-01T05:38:12.000Z</time>
      </trkpt>
      <trkpt lat="42.999728" lon="0.71877">
        <ele>834.4</ele>
        <time>1970-01-01T05:38:16.000Z</time>
      </trkpt>
      <trkpt lat="42.999776" lon="0.718884">
        <ele>835.6</ele>
        <time>1970-01-01T05:38:20.000Z</time>
      </trkpt>
      <trkpt lat="42.999791" lon="0.718915">
        <ele>835.8</ele>
        <time>1970-01-01T05:38:21.000Z</time>
      </trkpt>
      <trkpt lat="42.999867" lon="0.71904">
        <ele>836.8</ele>
        <time>1970-01-01T05:38:25.000Z</time>
      </trkpt>
      <trkpt lat="43.000072" lon="0.71936">
        <ele>836.2</ele>
        <time>1970-01-01T05:38:34.000Z</time>
      </trkpt>
      <trkpt lat="43.000093" lon="0.719417">
        <ele>835.8</ele>
        <time>1970-01-01T05:38:35.000Z</time>
      </trkpt>
      <trkpt lat="43.000179" lon="0.719698">
        <ele>834.8</ele>
        <time>1970-01-01T05:38:41.000Z</time>
      </trkpt>
      <trkpt lat="43.000294" lon="0.720454">
        <ele>834.2</ele>
        <time>1970-01-01T05:38:58.000Z</time>
      </trkpt>
      <trkpt lat="43.000332" lon="0.721233">
        <ele>834.6</ele>
        <time>1970-01-01T05:39:13.000Z</time>
      </trkpt>
      <trkpt lat="43.00015" lon="0.721739">
        <ele>835.8</ele>
        <time>1970-01-01T05:39:24.000Z</time>
      </trkpt>
      <trkpt lat="42.999904" lon="0.721997">
        <ele>835.8</ele>
        <time>1970-01-01T05:39:31.000Z</time>
      </trkpt>
      <trkpt lat="42.999823" lon="0.722247">
        <ele>835.4</ele>
        <time>1970-01-01T05:39:36.000Z</time>
      </trkpt>
      <trkpt lat="42.999788" lon="0.722514">
        <ele>834.8</ele>
        <time>1970-01-01T05:39:40.000Z</time>
      </trkpt>
      <trkpt lat="42.999841" lon="0.722794">
        <ele>833</ele>
        <time>1970-01-01T05:39:43.000Z</time>
      </trkpt>
      <trkpt lat="42.99996" lon="0.723111">
        <ele>831.6</ele>
        <time>1970-01-01T05:39:46.000Z</time>
      </trkpt>
      <trkpt lat="43.000013" lon="0.72322">
        <ele>830.4</ele>
        <time>1970-01-01T05:39:47.000Z</time>
      </trkpt>
      <trkpt lat="43.000135" lon="0.723445">
        <ele>828.6</ele>
        <time>1970-01-01T05:39:49.000Z</time>
      </trkpt>
      <trkpt lat="43.000259" lon="0.72368">
        <ele>827</ele>
        <time>1970-01-01T05:39:51.000Z</time>
      </trkpt>
      <trkpt lat="43.000377" lon="0.72389">
        <ele>825</ele>
        <time>1970-01-01T05:39:53.000Z</time>
      </trkpt>
      <trkpt lat="43.000509" lon="0.724">
        <ele>823.6</ele>
        <time>1970-01-01T05:39:55.000Z</time>
      </trkpt>
      <trkpt lat="43.000668" lon="0.724022">
        <ele>822.2</ele>
        <time>1970-01-01T05:39:57.000Z</time>
      </trkpt>
      <trkpt lat="43.000793" lon="0.724089">
        <ele>820.8</ele>
        <time>1970-01-01T05:39:59.000Z</time>
      </trkpt>
      <trkpt lat="43.000876" lon="0.724315">
        <ele>819.6</ele>
        <time>1970-01-01T05:40:02.000Z</time>
      </trkpt>
      <trkpt lat="43.000948" lon="0.724524">
        <ele>819</ele>
        <time>1970-01-01T05:40:05.000Z</time>
      </trkpt>
      <trkpt lat="43.001062" lon="0.724796">
        <ele>820.8</ele>
        <time>1970-01-01T05:40:11.000Z</time>
      </trkpt>
      <trkpt lat="43.001068" lon="0.724852">
        <ele>821</ele>
        <time>1970-01-01T05:40:12.000Z</time>
      </trkpt>
      <trkpt lat="43.001067" lon="0.724908">
        <ele>821.4</ele>
        <time>1970-01-01T05:40:13.000Z</time>
      </trkpt>
      <trkpt lat="43.001063" lon="0.725003">
        <ele>821.8</ele>
        <time>1970-01-01T05:40:15.000Z</time>
      </trkpt>
      <trkpt lat="43.001037" lon="0.725207">
        <ele>822.8</ele>
        <time>1970-01-01T05:40:20.000Z</time>
      </trkpt>
      <trkpt lat="43.000954" lon="0.725449">
        <ele>824.2</ele>
        <time>1970-01-01T05:40:26.000Z</time>
      </trkpt>
      <trkpt lat="43.000944" lon="0.725696">
        <ele>825.4</ele>
        <time>1970-01-01T05:40:31.000Z</time>
      </trkpt>
      <trkpt lat="43.000975" lon="0.725861">
        <ele>825.6</ele>
        <time>1970-01-01T05:40:34.000Z</time>
      </trkpt>
      <trkpt lat="43.001177" lon="0.726594">
        <ele>824.4</ele>
        <time>1970-01-01T05:40:45.000Z</time>
      </trkpt>
      <trkpt lat="43.00123" lon="0.726783">
        <ele>823.2</ele>
        <time>1970-01-01T05:40:47.000Z</time>
      </trkpt>
      <trkpt lat="43.001248" lon="0.726875">
        <ele>822.6</ele>
        <time>1970-01-01T05:40:48.000Z</time>
      </trkpt>
      <trkpt lat="43.001276" lon="0.727071">
        <ele>822.2</ele>
        <time>1970-01-01T05:40:50.000Z</time>
      </trkpt>
      <trkpt lat="43.001322" lon="0.727685">
        <ele>822</ele>
        <time>1970-01-01T05:40:57.000Z</time>
      </trkpt>
      <trkpt lat="43.001319" lon="0.72789">
        <ele>822.2</ele>
        <time>1970-01-01T05:41:00.000Z</time>
      </trkpt>
      <trkpt lat="43.001408" lon="0.728286">
        <ele>823.4</ele>
        <time>1970-01-01T05:41:07.000Z</time>
      </trkpt>
      <trkpt lat="43.001469" lon="0.728462">
        <ele>824.6</ele>
        <time>1970-01-01T05:41:11.000Z</time>
      </trkpt>
      <trkpt lat="43.001493" lon="0.728557">
        <ele>825.6</ele>
        <time>1970-01-01T05:41:13.000Z</time>
      </trkpt>
      <trkpt lat="43.001505" lon="0.728663">
        <ele>826</ele>
        <time>1970-01-01T05:41:15.000Z</time>
      </trkpt>
      <trkpt lat="43.001541" lon="0.728823">
        <ele>826.8</ele>
        <time>1970-01-01T05:41:18.000Z</time>
      </trkpt>
      <trkpt lat="43.001574" lon="0.728921">
        <ele>827.2</ele>
        <time>1970-01-01T05:41:20.000Z</time>
      </trkpt>
      <trkpt lat="43.001635" lon="0.729054">
        <ele>827.8</ele>
        <time>1970-01-01T05:41:23.000Z</time>
      </trkpt>
      <trkpt lat="43.001684" lon="0.729341">
        <ele>828.8</ele>
        <time>1970-01-01T05:41:29.000Z</time>
      </trkpt>
      <trkpt lat="43.001738" lon="0.729562">
        <ele>829.2</ele>
        <time>1970-01-01T05:41:33.000Z</time>
      </trkpt>
      <trkpt lat="43.001793" lon="0.729678">
        <ele>828.8</ele>
        <time>1970-01-01T05:41:35.000Z</time>
      </trkpt>
      <trkpt lat="43.002002" lon="0.729843">
        <ele>827.8</ele>
        <time>1970-01-01T05:41:39.000Z</time>
      </trkpt>
      <trkpt lat="43.002151" lon="0.729891">
        <ele>826.8</ele>
        <time>1970-01-01T05:41:41.000Z</time>
      </trkpt>
      <trkpt lat="43.002237" lon="0.729908">
        <ele>826.2</ele>
        <time>1970-01-01T05:41:42.000Z</time>
      </trkpt>
      <trkpt lat="43.00233" lon="0.729911">
        <ele>825.4</ele>
        <time>1970-01-01T05:41:43.000Z</time>
      </trkpt>
      <trkpt lat="43.002425" lon="0.729905">
        <ele>824.6</ele>
        <time>1970-01-01T05:41:44.000Z</time>
      </trkpt>
      <trkpt lat="43.002518" lon="0.729903">
        <ele>824</ele>
        <time>1970-01-01T05:41:45.000Z</time>
      </trkpt>
      <trkpt lat="43.002607" lon="0.729916">
        <ele>823.4</ele>
        <time>1970-01-01T05:41:46.000Z</time>
      </trkpt>
      <trkpt lat="43.002838" lon="0.729993">
        <ele>822.8</ele>
        <time>1970-01-01T05:41:49.000Z</time>
      </trkpt>
      <trkpt lat="43.003115" lon="0.730377">
        <ele>822.8</ele>
        <time>1970-01-01T05:41:55.000Z</time>
      </trkpt>
      <trkpt lat="43.00318" lon="0.730563">
        <ele>822.8</ele>
        <time>1970-01-01T05:41:58.000Z</time>
      </trkpt>
      <trkpt lat="43.003239" lon="0.730842">
        <ele>822.8</ele>
        <time>1970-01-01T05:42:02.000Z</time>
      </trkpt>
      <trkpt lat="43.003328" lon="0.731135">
        <ele>822</ele>
        <time>1970-01-01T05:42:06.000Z</time>
      </trkpt>
      <trkpt lat="43.003309" lon="0.731313">
        <ele>820.6</ele>
        <time>1970-01-01T05:42:08.000Z</time>
      </trkpt>
      <trkpt lat="43.003254" lon="0.731527">
        <ele>819.4</ele>
        <time>1970-01-01T05:42:10.000Z</time>
      </trkpt>
      <trkpt lat="43.003224" lon="0.731641">
        <ele>818.6</ele>
        <time>1970-01-01T05:42:11.000Z</time>
      </trkpt>
      <trkpt lat="43.003184" lon="0.731743">
        <ele>818</ele>
        <time>1970-01-01T05:42:12.000Z</time>
      </trkpt>
      <trkpt lat="43.003097" lon="0.731892">
        <ele>815.6</ele>
        <time>1970-01-01T05:42:14.000Z</time>
      </trkpt>
      <trkpt lat="43.003065" lon="0.731943">
        <ele>813.8</ele>
        <time>1970-01-01T05:42:15.000Z</time>
      </trkpt>
      <trkpt lat="43.003039" lon="0.731977">
        <ele>812.8</ele>
        <time>1970-01-01T05:42:16.000Z</time>
      </trkpt>
      <trkpt lat="43.002998" lon="0.732048">
        <ele>811.6</ele>
        <time>1970-01-01T05:42:18.000Z</time>
      </trkpt>
      <trkpt lat="43.00293" lon="0.732156">
        <ele>810.2</ele>
        <time>1970-01-01T05:42:21.000Z</time>
      </trkpt>
      <trkpt lat="43.002896" lon="0.732188">
        <ele>809.8</ele>
        <time>1970-01-01T05:42:22.000Z</time>
      </trkpt>
      <trkpt lat="43.002861" lon="0.732232">
        <ele>809</ele>
        <time>1970-01-01T05:42:23.000Z</time>
      </trkpt>
      <trkpt lat="43.002778" lon="0.732422">
        <ele>807.6</ele>
        <time>1970-01-01T05:42:26.000Z</time>
      </trkpt>
      <trkpt lat="43.002733" lon="0.732548">
        <ele>805.8</ele>
        <time>1970-01-01T05:42:28.000Z</time>
      </trkpt>
      <trkpt lat="43.002708" lon="0.732598">
        <ele>805</ele>
        <time>1970-01-01T05:42:29.000Z</time>
      </trkpt>
      <trkpt lat="43.002684" lon="0.732642">
        <ele>804.6</ele>
        <time>1970-01-01T05:42:30.000Z</time>
      </trkpt>
      <trkpt lat="43.002644" lon="0.732713">
        <ele>803.4</ele>
        <time>1970-01-01T05:42:32.000Z</time>
      </trkpt>
      <trkpt lat="43.002621" lon="0.732765">
        <ele>802.4</ele>
        <time>1970-01-01T05:42:34.000Z</time>
      </trkpt>
      <trkpt lat="43.002622" lon="0.732803">
        <ele>801.6</ele>
        <time>1970-01-01T05:42:36.000Z</time>
      </trkpt>
      <trkpt lat="43.002622" lon="0.732829">
        <ele>801.4</ele>
        <time>1970-01-01T05:42:37.000Z</time>
      </trkpt>
      <trkpt lat="43.002593" lon="0.732996">
        <ele>800.2</ele>
        <time>1970-01-01T05:42:42.000Z</time>
      </trkpt>
      <trkpt lat="43.002539" lon="0.733101">
        <ele>798.8</ele>
        <time>1970-01-01T05:42:45.000Z</time>
      </trkpt>
      <trkpt lat="43.002496" lon="0.733154">
        <ele>797.4</ele>
        <time>1970-01-01T05:42:47.000Z</time>
      </trkpt>
      <trkpt lat="43.002444" lon="0.733201">
        <ele>795.8</ele>
        <time>1970-01-01T05:42:49.000Z</time>
      </trkpt>
      <trkpt lat="43.002395" lon="0.733267">
        <ele>794.2</ele>
        <time>1970-01-01T05:42:51.000Z</time>
      </trkpt>
      <trkpt lat="43.002368" lon="0.733352">
        <ele>792.8</ele>
        <time>1970-01-01T05:42:53.000Z</time>
      </trkpt>
      <trkpt lat="43.002347" lon="0.733405">
        <ele>791.6</ele>
        <time>1970-01-01T05:42:55.000Z</time>
      </trkpt>
      <trkpt lat="43.002333" lon="0.733424">
        <ele>791.2</ele>
        <time>1970-01-01T05:42:56.000Z</time>
      </trkpt>
      <trkpt lat="43.002321" lon="0.73346">
        <ele>790.4</ele>
        <time>1970-01-01T05:42:58.000Z</time>
      </trkpt>
      <trkpt lat="43.002349" lon="0.733492">
        <ele>789.4</ele>
        <time>1970-01-01T05:43:00.000Z</time>
      </trkpt>
      <trkpt lat="43.002369" lon="0.733509">
        <ele>789</ele>
        <time>1970-01-01T05:43:01.000Z</time>
      </trkpt>
      <trkpt lat="43.002397" lon="0.733538">
        <ele>788</ele>
        <time>1970-01-01T05:43:03.000Z</time>
      </trkpt>
      <trkpt lat="43.002437" lon="0.733599">
        <ele>786.8</ele>
        <time>1970-01-01T05:43:06.000Z</time>
      </trkpt>
      <trkpt lat="43.002443" lon="0.733624">
        <ele>786.2</ele>
        <time>1970-01-01T05:43:07.000Z</time>
      </trkpt>
      <trkpt lat="43.002431" lon="0.733675">
        <ele>785.4</ele>
        <time>1970-01-01T05:43:09.000Z</time>
      </trkpt>
      <trkpt lat="43.002374" lon="0.733755">
        <ele>784.4</ele>
        <time>1970-01-01T05:43:13.000Z</time>
      </trkpt>
      <trkpt lat="43.002346" lon="0.7338">
        <ele>783</ele>
        <time>1970-01-01T05:43:16.000Z</time>
      </trkpt>
      <trkpt lat="43.002327" lon="0.733838">
        <ele>782</ele>
        <time>1970-01-01T05:43:18.000Z</time>
      </trkpt>
      <trkpt lat="43.002303" lon="0.733878">
        <ele>780.8</ele>
        <time>1970-01-01T05:43:20.000Z</time>
      </trkpt>
      <trkpt lat="43.002274" lon="0.733911">
        <ele>780</ele>
        <time>1970-01-01T05:43:22.000Z</time>
      </trkpt>
      <trkpt lat="43.002252" lon="0.733941">
        <ele>779.6</ele>
        <time>1970-01-01T05:43:23.000Z</time>
      </trkpt>
      <trkpt lat="43.002218" lon="0.734006">
        <ele>778.6</ele>
        <time>1970-01-01T05:43:25.000Z</time>
      </trkpt>
      <trkpt lat="43.002205" lon="0.734061">
        <ele>777.4</ele>
        <time>1970-01-01T05:43:27.000Z</time>
      </trkpt>
      <trkpt lat="43.002208" lon="0.734091">
        <ele>777</ele>
        <time>1970-01-01T05:43:28.000Z</time>
      </trkpt>
      <trkpt lat="43.002225" lon="0.734151">
        <ele>776.4</ele>
        <time>1970-01-01T05:43:30.000Z</time>
      </trkpt>
      <trkpt lat="43.002252" lon="0.734273">
        <ele>775.2</ele>
        <time>1970-01-01T05:43:33.000Z</time>
      </trkpt>
      <trkpt lat="43.002261" lon="0.734312">
        <ele>774.6</ele>
        <time>1970-01-01T05:43:34.000Z</time>
      </trkpt>
      <trkpt lat="43.002277" lon="0.734355">
        <ele>773.8</ele>
        <time>1970-01-01T05:43:36.000Z</time>
      </trkpt>
      <trkpt lat="43.002277" lon="0.734364">
        <ele>773.6</ele>
        <time>1970-01-01T05:43:37.000Z</time>
      </trkpt>
      <trkpt lat="43.002271" lon="0.734454">
        <ele>772.8</ele>
        <time>1970-01-01T05:43:50.000Z</time>
      </trkpt>
      <trkpt lat="43.002274" lon="0.734619">
        <ele>771.4</ele>
        <time>1970-01-01T05:43:53.000Z</time>
      </trkpt>
      <trkpt lat="43.002246" lon="0.734774">
        <ele>770.4</ele>
        <time>1970-01-01T05:43:55.000Z</time>
      </trkpt>
      <trkpt lat="43.00218" lon="0.734923">
        <ele>768.8</ele>
        <time>1970-01-01T05:43:57.000Z</time>
      </trkpt>
      <trkpt lat="43.002141" lon="0.735004">
        <ele>768.2</ele>
        <time>1970-01-01T05:43:58.000Z</time>
      </trkpt>
      <trkpt lat="43.002097" lon="0.735097">
        <ele>767.4</ele>
        <time>1970-01-01T05:43:59.000Z</time>
      </trkpt>
      <trkpt lat="43.001996" lon="0.735305">
        <ele>766.2</ele>
        <time>1970-01-01T05:44:01.000Z</time>
      </trkpt>
      <trkpt lat="43.001881" lon="0.735545">
        <ele>764.6</ele>
        <time>1970-01-01T05:44:03.000Z</time>
      </trkpt>
      <trkpt lat="43.001778" lon="0.735783">
        <ele>762.4</ele>
        <time>1970-01-01T05:44:05.000Z</time>
      </trkpt>
      <trkpt lat="43.001682" lon="0.73601">
        <ele>760</ele>
        <time>1970-01-01T05:44:07.000Z</time>
      </trkpt>
      <trkpt lat="43.001634" lon="0.73612">
        <ele>758.6</ele>
        <time>1970-01-01T05:44:08.000Z</time>
      </trkpt>
      <trkpt lat="43.001587" lon="0.73623">
        <ele>757.4</ele>
        <time>1970-01-01T05:44:09.000Z</time>
      </trkpt>
      <trkpt lat="43.001482" lon="0.736448">
        <ele>755.8</ele>
        <time>1970-01-01T05:44:11.000Z</time>
      </trkpt>
      <trkpt lat="43.001363" lon="0.736627">
        <ele>754</ele>
        <time>1970-01-01T05:44:13.000Z</time>
      </trkpt>
      <trkpt lat="43.00132" lon="0.73668">
        <ele>752.4</ele>
        <time>1970-01-01T05:44:14.000Z</time>
      </trkpt>
      <trkpt lat="43.001295" lon="0.736717">
        <ele>751</ele>
        <time>1970-01-01T05:44:15.000Z</time>
      </trkpt>
      <trkpt lat="43.001268" lon="0.73681">
        <ele>749.4</ele>
        <time>1970-01-01T05:44:17.000Z</time>
      </trkpt>
      <trkpt lat="43.001238" lon="0.736916">
        <ele>748.2</ele>
        <time>1970-01-01T05:44:19.000Z</time>
      </trkpt>
      <trkpt lat="43.001206" lon="0.73702">
        <ele>746.6</ele>
        <time>1970-01-01T05:44:21.000Z</time>
      </trkpt>
      <trkpt lat="43.001192" lon="0.737114">
        <ele>745.6</ele>
        <time>1970-01-01T05:44:23.000Z</time>
      </trkpt>
      <trkpt lat="43.00119" lon="0.7372">
        <ele>744</ele>
        <time>1970-01-01T05:44:25.000Z</time>
      </trkpt>
      <trkpt lat="43.001186" lon="0.737286">
        <ele>742.6</ele>
        <time>1970-01-01T05:44:27.000Z</time>
      </trkpt>
      <trkpt lat="43.001174" lon="0.737413">
        <ele>741.4</ele>
        <time>1970-01-01T05:44:30.000Z</time>
      </trkpt>
      <trkpt lat="43.001179" lon="0.737448">
        <ele>740.6</ele>
        <time>1970-01-01T05:44:31.000Z</time>
      </trkpt>
      <trkpt lat="43.001189" lon="0.737476">
        <ele>740</ele>
        <time>1970-01-01T05:44:32.000Z</time>
      </trkpt>
      <trkpt lat="43.001211" lon="0.737536">
        <ele>738.8</ele>
        <time>1970-01-01T05:44:34.000Z</time>
      </trkpt>
      <trkpt lat="43.001232" lon="0.737594">
        <ele>737.6</ele>
        <time>1970-01-01T05:44:36.000Z</time>
      </trkpt>
      <trkpt lat="43.001247" lon="0.737622">
        <ele>736.8</ele>
        <time>1970-01-01T05:44:37.000Z</time>
      </trkpt>
      <trkpt lat="43.001267" lon="0.737643">
        <ele>736.2</ele>
        <time>1970-01-01T05:44:38.000Z</time>
      </trkpt>
      <trkpt lat="43.001347" lon="0.737696">
        <ele>734.6</ele>
        <time>1970-01-01T05:44:41.000Z</time>
      </trkpt>
      <trkpt lat="43.001382" lon="0.737745">
        <ele>733.2</ele>
        <time>1970-01-01T05:44:43.000Z</time>
      </trkpt>
      <trkpt lat="43.001391" lon="0.73777">
        <ele>732.4</ele>
        <time>1970-01-01T05:44:44.000Z</time>
      </trkpt>
      <trkpt lat="43.001389" lon="0.737798">
        <ele>731.6</ele>
        <time>1970-01-01T05:44:45.000Z</time>
      </trkpt>
      <trkpt lat="43.001366" lon="0.737844">
        <ele>730.4</ele>
        <time>1970-01-01T05:44:47.000Z</time>
      </trkpt>
      <trkpt lat="43.001314" lon="0.737894">
        <ele>728.6</ele>
        <time>1970-01-01T05:44:49.000Z</time>
      </trkpt>
      <trkpt lat="43.00126" lon="0.737954">
        <ele>726.8</ele>
        <time>1970-01-01T05:44:51.000Z</time>
      </trkpt>
      <trkpt lat="43.001234" lon="0.737984">
        <ele>725.6</ele>
        <time>1970-01-01T05:44:52.000Z</time>
      </trkpt>
      <trkpt lat="43.001185" lon="0.73806">
        <ele>724.4</ele>
        <time>1970-01-01T05:44:54.000Z</time>
      </trkpt>
      <trkpt lat="43.001128" lon="0.738154">
        <ele>723</ele>
        <time>1970-01-01T05:44:56.000Z</time>
      </trkpt>
      <trkpt lat="43.001092" lon="0.738278">
        <ele>721</ele>
        <time>1970-01-01T05:44:58.000Z</time>
      </trkpt>
      <trkpt lat="43.001045" lon="0.738411">
        <ele>719.4</ele>
        <time>1970-01-01T05:45:00.000Z</time>
      </trkpt>
      <trkpt lat="43.001022" lon="0.738477">
        <ele>718</ele>
        <time>1970-01-01T05:45:01.000Z</time>
      </trkpt>
      <trkpt lat="43.000991" lon="0.738594">
        <ele>716.8</ele>
        <time>1970-01-01T05:45:03.000Z</time>
      </trkpt>
      <trkpt lat="43.000964" lon="0.738696">
        <ele>715.6</ele>
        <time>1970-01-01T05:45:06.000Z</time>
      </trkpt>
      <trkpt lat="43.000948" lon="0.738741">
        <ele>715.2</ele>
        <time>1970-01-01T05:45:38.000Z</time>
      </trkpt>
      <trkpt lat="43.000933" lon="0.738786">
        <ele>714.8</ele>
        <time>1970-01-01T05:45:39.000Z</time>
      </trkpt>
      <trkpt lat="43.000847" lon="0.738998">
        <ele>713.6</ele>
        <time>1970-01-01T05:45:42.000Z</time>
      </trkpt>
      <trkpt lat="43.000743" lon="0.739247">
        <ele>712</ele>
        <time>1970-01-01T05:45:45.000Z</time>
      </trkpt>
      <trkpt lat="43.000647" lon="0.739463">
        <ele>710.4</ele>
        <time>1970-01-01T05:45:48.000Z</time>
      </trkpt>
      <trkpt lat="43.000531" lon="0.739683">
        <ele>709.2</ele>
        <time>1970-01-01T05:45:52.000Z</time>
      </trkpt>
      <trkpt lat="43.000501" lon="0.739731">
        <ele>709.2</ele>
        <time>1970-01-01T05:45:53.000Z</time>
      </trkpt>
      <trkpt lat="43.000201" lon="0.740059">
        <ele>709.8</ele>
        <time>1970-01-01T05:46:01.000Z</time>
      </trkpt>
      <trkpt lat="43.000154" lon="0.740147">
        <ele>710.2</ele>
        <time>1970-01-01T05:46:03.000Z</time>
      </trkpt>
      <trkpt lat="43.000093" lon="0.740291">
        <ele>710.8</ele>
        <time>1970-01-01T05:46:06.000Z</time>
      </trkpt>
      <trkpt lat="43.000045" lon="0.740388">
        <ele>711.4</ele>
        <time>1970-01-01T05:46:08.000Z</time>
      </trkpt>
      <trkpt lat="42.999809" lon="0.740673">
        <ele>712.4</ele>
        <time>1970-01-01T05:46:18.000Z</time>
      </trkpt>
      <trkpt lat="42.999566" lon="0.740742">
        <ele>713.8</ele>
        <time>1970-01-01T05:46:29.000Z</time>
      </trkpt>
      <trkpt lat="42.999544" lon="0.740758">
        <ele>714</ele>
        <time>1970-01-01T05:46:39.000Z</time>
      </trkpt>
      <trkpt lat="42.999604" lon="0.740762">
        <ele>713.8</ele>
        <time>1970-01-01T05:46:45.000Z</time>
      </trkpt>
      <trkpt lat="42.999786" lon="0.740689">
        <ele>713</ele>
        <time>1970-01-01T05:46:50.000Z</time>
      </trkpt>
      <trkpt lat="42.999841" lon="0.740625">
        <ele>712.8</ele>
        <time>1970-01-01T05:46:52.000Z</time>
      </trkpt>
      <trkpt lat="43.000014" lon="0.740482">
        <ele>712</ele>
        <time>1970-01-01T05:46:58.000Z</time>
      </trkpt>
      <trkpt lat="43.000035" lon="0.740494">
        <ele>711.8</ele>
        <time>1970-01-01T05:46:59.000Z</time>
      </trkpt>
      <trkpt lat="43.000063" lon="0.740548">
        <ele>710.8</ele>
        <time>1970-01-01T05:47:01.000Z</time>
      </trkpt>
      <trkpt lat="43.000065" lon="0.74064">
        <ele>709.2</ele>
        <time>1970-01-01T05:47:04.000Z</time>
      </trkpt>
      <trkpt lat="43.000068" lon="0.740684">
        <ele>709</ele>
        <time>1970-01-01T05:47:05.000Z</time>
      </trkpt>
      <trkpt lat="43.000074" lon="0.740726">
        <ele>708.4</ele>
        <time>1970-01-01T05:47:06.000Z</time>
      </trkpt>
      <trkpt lat="43.000091" lon="0.740763">
        <ele>707.8</ele>
        <time>1970-01-01T05:47:07.000Z</time>
      </trkpt>
      <trkpt lat="43.000144" lon="0.740826">
        <ele>706</ele>
        <time>1970-01-01T05:47:09.000Z</time>
      </trkpt>
      <trkpt lat="43.000177" lon="0.74086">
        <ele>705.6</ele>
        <time>1970-01-01T05:47:10.000Z</time>
      </trkpt>
      <trkpt lat="43.000211" lon="0.740899">
        <ele>704.8</ele>
        <time>1970-01-01T05:47:11.000Z</time>
      </trkpt>
      <trkpt lat="43.000287" lon="0.740988">
        <ele>703.2</ele>
        <time>1970-01-01T05:47:13.000Z</time>
      </trkpt>
      <trkpt lat="43.000336" lon="0.74103">
        <ele>702</ele>
        <time>1970-01-01T05:47:14.000Z</time>
      </trkpt>
      <trkpt lat="43.000386" lon="0.741065">
        <ele>701.2</ele>
        <time>1970-01-01T05:47:15.000Z</time>
      </trkpt>
      <trkpt lat="43.000439" lon="0.741085">
        <ele>700.2</ele>
        <time>1970-01-01T05:47:16.000Z</time>
      </trkpt>
      <trkpt lat="43.000481" lon="0.741099">
        <ele>698.8</ele>
        <time>1970-01-01T05:47:17.000Z</time>
      </trkpt>
      <trkpt lat="43.000522" lon="0.741102">
        <ele>697.6</ele>
        <time>1970-01-01T05:47:18.000Z</time>
      </trkpt>
      <trkpt lat="43.000602" lon="0.741071">
        <ele>695.8</ele>
        <time>1970-01-01T05:47:20.000Z</time>
      </trkpt>
      <trkpt lat="43.000639" lon="0.741041">
        <ele>694.4</ele>
        <time>1970-01-01T05:47:21.000Z</time>
      </trkpt>
      <trkpt lat="43.000715" lon="0.740991">
        <ele>692.4</ele>
        <time>1970-01-01T05:47:23.000Z</time>
      </trkpt>
      <trkpt lat="43.000755" lon="0.740961">
        <ele>691.2</ele>
        <time>1970-01-01T05:47:24.000Z</time>
      </trkpt>
      <trkpt lat="43.000823" lon="0.740882">
        <ele>689.6</ele>
        <time>1970-01-01T05:47:26.000Z</time>
      </trkpt>
      <trkpt lat="43.000876" lon="0.740796">
        <ele>688.2</ele>
        <time>1970-01-01T05:47:28.000Z</time>
      </trkpt>
      <trkpt lat="43.000915" lon="0.740747">
        <ele>686.2</ele>
        <time>1970-01-01T05:47:30.000Z</time>
      </trkpt>
      <trkpt lat="43.000934" lon="0.74075">
        <ele>685.2</ele>
        <time>1970-01-01T05:47:31.000Z</time>
      </trkpt>
      <trkpt lat="43.000956" lon="0.740769">
        <ele>684.6</ele>
        <time>1970-01-01T05:47:32.000Z</time>
      </trkpt>
      <trkpt lat="43.00099" lon="0.740858">
        <ele>683.4</ele>
        <time>1970-01-01T05:47:34.000Z</time>
      </trkpt>
      <trkpt lat="43.001009" lon="0.740916">
        <ele>682.6</ele>
        <time>1970-01-01T05:47:35.000Z</time>
      </trkpt>
      <trkpt lat="43.001033" lon="0.740971">
        <ele>681.8</ele>
        <time>1970-01-01T05:47:36.000Z</time>
      </trkpt>
      <trkpt lat="43.001076" lon="0.741096">
        <ele>680.6</ele>
        <time>1970-01-01T05:47:38.000Z</time>
      </trkpt>
      <trkpt lat="43.001107" lon="0.741155">
        <ele>679.6</ele>
        <time>1970-01-01T05:47:39.000Z</time>
      </trkpt>
      <trkpt lat="43.001147" lon="0.741206">
        <ele>678.4</ele>
        <time>1970-01-01T05:47:40.000Z</time>
      </trkpt>
      <trkpt lat="43.001264" lon="0.741281">
        <ele>677</ele>
        <time>1970-01-01T05:47:42.000Z</time>
      </trkpt>
      <trkpt lat="43.00141" lon="0.741305">
        <ele>675.6</ele>
        <time>1970-01-01T05:47:44.000Z</time>
      </trkpt>
      <trkpt lat="43.00154" lon="0.741334">
        <ele>673.8</ele>
        <time>1970-01-01T05:47:46.000Z</time>
      </trkpt>
      <trkpt lat="43.001594" lon="0.741369">
        <ele>672.6</ele>
        <time>1970-01-01T05:47:47.000Z</time>
      </trkpt>
      <trkpt lat="43.001689" lon="0.74146">
        <ele>671.2</ele>
        <time>1970-01-01T05:47:49.000Z</time>
      </trkpt>
      <trkpt lat="43.001759" lon="0.741573">
        <ele>669.6</ele>
        <time>1970-01-01T05:47:51.000Z</time>
      </trkpt>
      <trkpt lat="43.001787" lon="0.741635">
        <ele>668.4</ele>
        <time>1970-01-01T05:47:52.000Z</time>
      </trkpt>
      <trkpt lat="43.001815" lon="0.741697">
        <ele>667.2</ele>
        <time>1970-01-01T05:47:53.000Z</time>
      </trkpt>
      <trkpt lat="43.00185" lon="0.74175">
        <ele>666.4</ele>
        <time>1970-01-01T05:47:54.000Z</time>
      </trkpt>
      <trkpt lat="43.001886" lon="0.741793">
        <ele>665.6</ele>
        <time>1970-01-01T05:47:55.000Z</time>
      </trkpt>
      <trkpt lat="43.001917" lon="0.741842">
        <ele>664.6</ele>
        <time>1970-01-01T05:47:56.000Z</time>
      </trkpt>
      <trkpt lat="43.001949" lon="0.741964">
        <ele>663</ele>
        <time>1970-01-01T05:47:58.000Z</time>
      </trkpt>
      <trkpt lat="43.00199" lon="0.742096">
        <ele>661.2</ele>
        <time>1970-01-01T05:48:00.000Z</time>
      </trkpt>
      <trkpt lat="43.002018" lon="0.742145">
        <ele>659.8</ele>
        <time>1970-01-01T05:48:01.000Z</time>
      </trkpt>
      <trkpt lat="43.002052" lon="0.742179">
        <ele>658.6</ele>
        <time>1970-01-01T05:48:02.000Z</time>
      </trkpt>
      <trkpt lat="43.00215" lon="0.742223">
        <ele>657.2</ele>
        <time>1970-01-01T05:48:04.000Z</time>
      </trkpt>
      <trkpt lat="43.002204" lon="0.742254">
        <ele>656</ele>
        <time>1970-01-01T05:48:05.000Z</time>
      </trkpt>
      <trkpt lat="43.002261" lon="0.742306">
        <ele>655</ele>
        <time>1970-01-01T05:48:06.000Z</time>
      </trkpt>
      <trkpt lat="43.002309" lon="0.742363">
        <ele>654.4</ele>
        <time>1970-01-01T05:48:07.000Z</time>
      </trkpt>
      <trkpt lat="43.002382" lon="0.742494">
        <ele>652.8</ele>
        <time>1970-01-01T05:48:09.000Z</time>
      </trkpt>
      <trkpt lat="43.002414" lon="0.742565">
        <ele>651.8</ele>
        <time>1970-01-01T05:48:10.000Z</time>
      </trkpt>
      <trkpt lat="43.002481" lon="0.742719">
        <ele>650.6</ele>
        <time>1970-01-01T05:48:12.000Z</time>
      </trkpt>
      <trkpt lat="43.002565" lon="0.742854">
        <ele>649.4</ele>
        <time>1970-01-01T05:48:14.000Z</time>
      </trkpt>
      <trkpt lat="43.00269" lon="0.742979">
        <ele>648.4</ele>
        <time>1970-01-01T05:48:17.000Z</time>
      </trkpt>
      <trkpt lat="43.002723" lon="0.743016">
        <ele>648.2</ele>
        <time>1970-01-01T05:48:18.000Z</time>
      </trkpt>
      <trkpt lat="43.002773" lon="0.743105">
        <ele>647.2</ele>
        <time>1970-01-01T05:48:22.000Z</time>
      </trkpt>
      <trkpt lat="43.002893" lon="0.743277">
        <ele>646.2</ele>
        <time>1970-01-01T05:48:29.000Z</time>
      </trkpt>
      <trkpt lat="43.003003" lon="0.743347">
        <ele>645.2</ele>
        <time>1970-01-01T05:48:36.000Z</time>
      </trkpt>
      <trkpt lat="43.003005" lon="0.743347">
        <ele>645.2</ele>
        <time>1970-01-01T05:48:37.000Z</time>
      </trkpt>
      <trkpt lat="43.003027" lon="0.743374">
        <ele>644.8</ele>
        <time>1970-01-01T05:49:08.000Z</time>
      </trkpt>
      <trkpt lat="43.003179" lon="0.743518">
        <ele>644.4</ele>
        <time>1970-01-01T05:49:15.000Z</time>
      </trkpt>
      <trkpt lat="43.003243" lon="0.743725">
        <ele>643.8</ele>
        <time>1970-01-01T05:49:19.000Z</time>
      </trkpt>
      <trkpt lat="43.003266" lon="0.74393">
        <ele>643</ele>
        <time>1970-01-01T05:49:22.000Z</time>
      </trkpt>
      <trkpt lat="43.003269" lon="0.744003">
        <ele>642.8</ele>
        <time>1970-01-01T05:49:23.000Z</time>
      </trkpt>
      <trkpt lat="43.003246" lon="0.744147">
        <ele>641.8</ele>
        <time>1970-01-01T05:49:25.000Z</time>
      </trkpt>
      <trkpt lat="43.003179" lon="0.744264">
        <ele>640.6</ele>
        <time>1970-01-01T05:49:27.000Z</time>
      </trkpt>
      <trkpt lat="43.003083" lon="0.744345">
        <ele>639.4</ele>
        <time>1970-01-01T05:49:29.000Z</time>
      </trkpt>
      <trkpt lat="43.003057" lon="0.744444">
        <ele>638.2</ele>
        <time>1970-01-01T05:49:31.000Z</time>
      </trkpt>
      <trkpt lat="43.003131" lon="0.744525">
        <ele>636.2</ele>
        <time>1970-01-01T05:49:33.000Z</time>
      </trkpt>
      <trkpt lat="43.003177" lon="0.744558">
        <ele>635.4</ele>
        <time>1970-01-01T05:49:34.000Z</time>
      </trkpt>
      <trkpt lat="43.003225" lon="0.744593">
        <ele>634.8</ele>
        <time>1970-01-01T05:49:35.000Z</time>
      </trkpt>
      <trkpt lat="43.003327" lon="0.744653">
        <ele>633.4</ele>
        <time>1970-01-01T05:49:37.000Z</time>
      </trkpt>
      <trkpt lat="43.00343" lon="0.74471">
        <ele>632.6</ele>
        <time>1970-01-01T05:49:39.000Z</time>
      </trkpt>
      <trkpt lat="43.003482" lon="0.744752">
        <ele>632.2</ele>
        <time>1970-01-01T05:49:40.000Z</time>
      </trkpt>
      <trkpt lat="43.003595" lon="0.744863">
        <ele>631.2</ele>
        <time>1970-01-01T05:49:42.000Z</time>
      </trkpt>
      <trkpt lat="43.003656" lon="0.744914">
        <ele>630.4</ele>
        <time>1970-01-01T05:49:43.000Z</time>
      </trkpt>
      <trkpt lat="43.003716" lon="0.744957">
        <ele>629.4</ele>
        <time>1970-01-01T05:49:44.000Z</time>
      </trkpt>
      <trkpt lat="43.003847" lon="0.745022">
        <ele>627.8</ele>
        <time>1970-01-01T05:49:46.000Z</time>
      </trkpt>
      <trkpt lat="43.00391" lon="0.745043">
        <ele>626.6</ele>
        <time>1970-01-01T05:49:47.000Z</time>
      </trkpt>
      <trkpt lat="43.003969" lon="0.745065">
        <ele>625.6</ele>
        <time>1970-01-01T05:49:48.000Z</time>
      </trkpt>
      <trkpt lat="43.004081" lon="0.745095">
        <ele>623</ele>
        <time>1970-01-01T05:49:50.000Z</time>
      </trkpt>
      <trkpt lat="43.004131" lon="0.745082">
        <ele>622</ele>
        <time>1970-01-01T05:49:51.000Z</time>
      </trkpt>
      <trkpt lat="43.004187" lon="0.745051">
        <ele>621.2</ele>
        <time>1970-01-01T05:49:52.000Z</time>
      </trkpt>
      <trkpt lat="43.004317" lon="0.744989">
        <ele>620.2</ele>
        <time>1970-01-01T05:49:54.000Z</time>
      </trkpt>
      <trkpt lat="43.004469" lon="0.744908">
        <ele>618</ele>
        <time>1970-01-01T05:49:56.000Z</time>
      </trkpt>
      <trkpt lat="43.004539" lon="0.744858">
        <ele>617</ele>
        <time>1970-01-01T05:49:57.000Z</time>
      </trkpt>
      <trkpt lat="43.004609" lon="0.744806">
        <ele>616</ele>
        <time>1970-01-01T05:49:58.000Z</time>
      </trkpt>
      <trkpt lat="43.004753" lon="0.744711">
        <ele>614.6</ele>
        <time>1970-01-01T05:50:00.000Z</time>
      </trkpt>
      <trkpt lat="43.004904" lon="0.744623">
        <ele>613.4</ele>
        <time>1970-01-01T05:50:02.000Z</time>
      </trkpt>
      <trkpt lat="43.004977" lon="0.744568">
        <ele>612.4</ele>
        <time>1970-01-01T05:50:03.000Z</time>
      </trkpt>
      <trkpt lat="43.00505" lon="0.744508">
        <ele>611.8</ele>
        <time>1970-01-01T05:50:04.000Z</time>
      </trkpt>
      <trkpt lat="43.005183" lon="0.744398">
        <ele>610.6</ele>
        <time>1970-01-01T05:50:06.000Z</time>
      </trkpt>
      <trkpt lat="43.005273" lon="0.744313">
        <ele>609.2</ele>
        <time>1970-01-01T05:50:08.000Z</time>
      </trkpt>
      <trkpt lat="43.005322" lon="0.744295">
        <ele>607.6</ele>
        <time>1970-01-01T05:50:10.000Z</time>
      </trkpt>
      <trkpt lat="43.005365" lon="0.744314">
        <ele>606.6</ele>
        <time>1970-01-01T05:50:12.000Z</time>
      </trkpt>
      <trkpt lat="43.005405" lon="0.74433">
        <ele>605.4</ele>
        <time>1970-01-01T05:50:14.000Z</time>
      </trkpt>
      <trkpt lat="43.005466" lon="0.744318">
        <ele>604.2</ele>
        <time>1970-01-01T05:50:17.000Z</time>
      </trkpt>
      <trkpt lat="43.005552" lon="0.744297">
        <ele>603</ele>
        <time>1970-01-01T05:50:20.000Z</time>
      </trkpt>
      <trkpt lat="43.005623" lon="0.744311">
        <ele>601.8</ele>
        <time>1970-01-01T05:50:23.000Z</time>
      </trkpt>
      <trkpt lat="43.005712" lon="0.744343">
        <ele>600.4</ele>
        <time>1970-01-01T05:50:26.000Z</time>
      </trkpt>
      <trkpt lat="43.005775" lon="0.744368">
        <ele>599.2</ele>
        <time>1970-01-01T05:50:28.000Z</time>
      </trkpt>
      <trkpt lat="43.005834" lon="0.744405">
        <ele>598</ele>
        <time>1970-01-01T05:50:31.000Z</time>
      </trkpt>
      <trkpt lat="43.005872" lon="0.744511">
        <ele>596.6</ele>
        <time>1970-01-01T05:50:34.000Z</time>
      </trkpt>
      <trkpt lat="43.005882" lon="0.744544">
        <ele>596</ele>
        <time>1970-01-01T05:50:35.000Z</time>
      </trkpt>
      <trkpt lat="43.005892" lon="0.744576">
        <ele>595.4</ele>
        <time>1970-01-01T05:50:36.000Z</time>
      </trkpt>
      <trkpt lat="43.005934" lon="0.74465">
        <ele>594</ele>
        <time>1970-01-01T05:50:39.000Z</time>
      </trkpt>
      <trkpt lat="43.005955" lon="0.744708">
        <ele>592.8</ele>
        <time>1970-01-01T05:50:41.000Z</time>
      </trkpt>
      <trkpt lat="43.005945" lon="0.744778">
        <ele>591.6</ele>
        <time>1970-01-01T05:50:43.000Z</time>
      </trkpt>
      <trkpt lat="43.005928" lon="0.744828">
        <ele>590.4</ele>
        <time>1970-01-01T05:50:45.000Z</time>
      </trkpt>
      <trkpt lat="43.005898" lon="0.74488">
        <ele>589.4</ele>
        <time>1970-01-01T05:50:48.000Z</time>
      </trkpt>
      <trkpt lat="43.005887" lon="0.744912">
        <ele>588.4</ele>
        <time>1970-01-01T05:50:50.000Z</time>
      </trkpt>
      <trkpt lat="43.005858" lon="0.744949">
        <ele>587.4</ele>
        <time>1970-01-01T05:50:52.000Z</time>
      </trkpt>
      <trkpt lat="43.005842" lon="0.745005">
        <ele>586.8</ele>
        <time>1970-01-01T05:50:54.000Z</time>
      </trkpt>
      <trkpt lat="43.005834" lon="0.745057">
        <ele>586.2</ele>
        <time>1970-01-01T05:50:56.000Z</time>
      </trkpt>
      <trkpt lat="43.005831" lon="0.745082">
        <ele>585.8</ele>
        <time>1970-01-01T05:50:58.000Z</time>
      </trkpt>
      <trkpt lat="43.005858" lon="0.745175">
        <ele>584.6</ele>
        <time>1970-01-01T05:51:12.000Z</time>
      </trkpt>
      <trkpt lat="43.005946" lon="0.745226">
        <ele>583.4</ele>
        <time>1970-01-01T05:51:16.000Z</time>
      </trkpt>
      <trkpt lat="43.005996" lon="0.745258">
        <ele>582</ele>
        <time>1970-01-01T05:51:18.000Z</time>
      </trkpt>
      <trkpt lat="43.006031" lon="0.745296">
        <ele>580.6</ele>
        <time>1970-01-01T05:51:20.000Z</time>
      </trkpt>
      <trkpt lat="43.006045" lon="0.745321">
        <ele>579.6</ele>
        <time>1970-01-01T05:51:23.000Z</time>
      </trkpt>
      <trkpt lat="43.005895" lon="0.745273">
        <ele>584.4</ele>
        <time>1970-01-01T05:52:48.000Z</time>
      </trkpt>
      <trkpt lat="43.005948" lon="0.745297">
        <ele>583.2</ele>
        <time>1970-01-01T05:52:50.000Z</time>
      </trkpt>
      <trkpt lat="43.006018" lon="0.745354">
        <ele>581.8</ele>
        <time>1970-01-01T05:52:53.000Z</time>
      </trkpt>
      <trkpt lat="43.006034" lon="0.745369">
        <ele>580.2</ele>
        <time>1970-01-01T05:52:55.000Z</time>
      </trkpt>
      <trkpt lat="43.006037" lon="0.745371">
        <ele>580</ele>
        <time>1970-01-01T05:52:56.000Z</time>
      </trkpt>
      <trkpt lat="43.006175" lon="0.745473">
        <ele>576.4</ele>
        <time>1970-01-01T05:53:38.000Z</time>
      </trkpt>
      <trkpt lat="43.00622" lon="0.745464">
        <ele>575.4</ele>
        <time>1970-01-01T05:53:40.000Z</time>
      </trkpt>
      <trkpt lat="43.006302" lon="0.745416">
        <ele>574</ele>
        <time>1970-01-01T05:53:43.000Z</time>
      </trkpt>
      <trkpt lat="43.006344" lon="0.745416">
        <ele>573.2</ele>
        <time>1970-01-01T05:53:45.000Z</time>
      </trkpt>
      <trkpt lat="43.006363" lon="0.745419">
        <ele>572.8</ele>
        <time>1970-01-01T05:53:46.000Z</time>
      </trkpt>
      <trkpt lat="43.006442" lon="0.745415">
        <ele>571.6</ele>
        <time>1970-01-01T05:53:49.000Z</time>
      </trkpt>
      <trkpt lat="43.00648" lon="0.745417">
        <ele>570.6</ele>
        <time>1970-01-01T05:53:52.000Z</time>
      </trkpt>
      <trkpt lat="43.006552" lon="0.745428">
        <ele>570.4</ele>
        <time>1970-01-01T05:54:17.000Z</time>
      </trkpt>
      <trkpt lat="43.006641" lon="0.745474">
        <ele>569.2</ele>
        <time>1970-01-01T05:54:22.000Z</time>
      </trkpt>
      <trkpt lat="43.006688" lon="0.745494">
        <ele>568.4</ele>
        <time>1970-01-01T05:54:26.000Z</time>
      </trkpt>
      <trkpt lat="43.006802" lon="0.7457">
        <ele>565.6</ele>
        <time>1970-01-01T05:54:42.000Z</time>
      </trkpt>
      <trkpt lat="43.00681" lon="0.745761">
        <ele>565.4</ele>
        <time>1970-01-01T05:54:46.000Z</time>
      </trkpt>
      <trkpt lat="43.006735" lon="0.745786">
        <ele>565.2</ele>
        <time>1970-01-01T05:54:56.000Z</time>
      </trkpt>
      <trkpt lat="43.006616" lon="0.745827">
        <ele>564.6</ele>
        <time>1970-01-01T05:55:05.000Z</time>
      </trkpt>
      <trkpt lat="43.006442" lon="0.746149">
        <ele>558.2</ele>
        <time>1970-01-01T05:56:18.000Z</time>
      </trkpt>
      <trkpt lat="43.006419" lon="0.746199">
        <ele>557.2</ele>
        <time>1970-01-01T05:56:21.000Z</time>
      </trkpt>
      <trkpt lat="43.006378" lon="0.746257">
        <ele>556</ele>
        <time>1970-01-01T05:56:25.000Z</time>
      </trkpt>
      <trkpt lat="43.006365" lon="0.746302">
        <ele>554.6</ele>
        <time>1970-01-01T05:56:27.000Z</time>
      </trkpt>
      <trkpt lat="43.006339" lon="0.746407">
        <ele>553.6</ele>
        <time>1970-01-01T05:56:30.000Z</time>
      </trkpt>
      <trkpt lat="43.006327" lon="0.746481">
        <ele>552.4</ele>
        <time>1970-01-01T05:56:32.000Z</time>
      </trkpt>
      <trkpt lat="43.006323" lon="0.746535">
        <ele>551.4</ele>
        <time>1970-01-01T05:56:34.000Z</time>
      </trkpt>
      <trkpt lat="43.00632" lon="0.746554">
        <ele>550.8</ele>
        <time>1970-01-01T05:56:36.000Z</time>
      </trkpt>
      <trkpt lat="43.00623" lon="0.746619">
        <ele>551.2</ele>
        <time>1970-01-01T05:57:30.000Z</time>
      </trkpt>
      <trkpt lat="43.00602" lon="0.746682">
        <ele>552</ele>
        <time>1970-01-01T05:57:39.000Z</time>
      </trkpt>
      <trkpt lat="43.005889" lon="0.746707">
        <ele>553.2</ele>
        <time>1970-01-01T05:57:44.000Z</time>
      </trkpt>
      <trkpt lat="43.005751" lon="0.746723">
        <ele>554.2</ele>
        <time>1970-01-01T05:57:52.000Z</time>
      </trkpt>
      <trkpt lat="43.005618" lon="0.746725">
        <ele>555.4</ele>
        <time>1970-01-01T05:57:59.000Z</time>
      </trkpt>
      <trkpt lat="43.005511" lon="0.746732">
        <ele>556.4</ele>
        <time>1970-01-01T05:58:04.000Z</time>
      </trkpt>
      <trkpt lat="43.005444" lon="0.746735">
        <ele>557</ele>
        <time>1970-01-01T05:58:08.000Z</time>
      </trkpt>
      <trkpt lat="43.005466" lon="0.746758">
        <ele>557.4</ele>
        <time>1970-01-01T05:58:12.000Z</time>
      </trkpt>
      <trkpt lat="43.005491" lon="0.746758">
        <ele>557.2</ele>
        <time>1970-01-01T05:58:17.000Z</time>
      </trkpt>
      <trkpt lat="43.005527" lon="0.746754">
        <ele>557.2</ele>
        <time>1970-01-01T05:58:46.000Z</time>
      </trkpt>
      <trkpt lat="43.005797" lon="0.746774">
        <ele>555.4</ele>
        <time>1970-01-01T05:58:52.000Z</time>
      </trkpt>
      <trkpt lat="43.005933" lon="0.746756">
        <ele>554.2</ele>
        <time>1970-01-01T05:58:54.000Z</time>
      </trkpt>
      <trkpt lat="43.005998" lon="0.746739">
        <ele>553.8</ele>
        <time>1970-01-01T05:58:55.000Z</time>
      </trkpt>
      <trkpt lat="43.006115" lon="0.746703">
        <ele>553</ele>
        <time>1970-01-01T05:58:57.000Z</time>
      </trkpt>
      <trkpt lat="43.006286" lon="0.74663">
        <ele>552</ele>
        <time>1970-01-01T05:59:01.000Z</time>
      </trkpt>
      <trkpt lat="43.006397" lon="0.74659">
        <ele>550.8</ele>
        <time>1970-01-01T05:59:06.000Z</time>
      </trkpt>
      <trkpt lat="43.0064" lon="0.746595">
        <ele>550.8</ele>
        <time>1970-01-01T05:59:07.000Z</time>
      </trkpt>
      <trkpt lat="43.006341" lon="0.746645">
        <ele>550</ele>
        <time>1970-01-01T05:59:12.000Z</time>
      </trkpt>
      <trkpt lat="43.006318" lon="0.746656">
        <ele>549.4</ele>
        <time>1970-01-01T05:59:13.000Z</time>
      </trkpt>
      <trkpt lat="43.006254" lon="0.746671">
        <ele>548.4</ele>
        <time>1970-01-01T05:59:16.000Z</time>
      </trkpt>
      <trkpt lat="43.006195" lon="0.746677">
        <ele>548.2</ele>
        <time>1970-01-01T05:59:22.000Z</time>
      </trkpt>
      <trkpt lat="43.006085" lon="0.74674">
        <ele>546.4</ele>
        <time>1970-01-01T05:59:57.000Z</time>
      </trkpt>
      <trkpt lat="43.006057" lon="0.746793">
        <ele>545.6</ele>
        <time>1970-01-01T06:00:01.000Z</time>
      </trkpt>
      <trkpt lat="43.005978" lon="0.746872">
        <ele>544.6</ele>
        <time>1970-01-01T06:00:11.000Z</time>
      </trkpt>
      <trkpt lat="43.00592" lon="0.746959">
        <ele>543</ele>
        <time>1970-01-01T06:00:14.000Z</time>
      </trkpt>
      <trkpt lat="43.005903" lon="0.747013">
        <ele>542.2</ele>
        <time>1970-01-01T06:00:17.000Z</time>
      </trkpt>
      <trkpt lat="43.005841" lon="0.747096">
        <ele>541.8</ele>
        <time>1970-01-01T06:00:57.000Z</time>
      </trkpt>
      <trkpt lat="43.005581" lon="0.747301">
        <ele>540.6</ele>
        <time>1970-01-01T06:01:07.000Z</time>
      </trkpt>
      <trkpt lat="43.005533" lon="0.747416">
        <ele>539.2</ele>
        <time>1970-01-01T06:01:10.000Z</time>
      </trkpt>
      <trkpt lat="43.005504" lon="0.747489">
        <ele>538.2</ele>
        <time>1970-01-01T06:01:12.000Z</time>
      </trkpt>
      <trkpt lat="43.005447" lon="0.74762">
        <ele>537</ele>
        <time>1970-01-01T06:01:16.000Z</time>
      </trkpt>
      <trkpt lat="43.005266" lon="0.747958">
        <ele>535.8</ele>
        <time>1970-01-01T06:01:26.000Z</time>
      </trkpt>
      <trkpt lat="43.005232" lon="0.748025">
        <ele>535.4</ele>
        <time>1970-01-01T06:01:28.000Z</time>
      </trkpt>
      <trkpt lat="43.005061" lon="0.748323">
        <ele>534.8</ele>
        <time>1970-01-01T06:01:40.000Z</time>
      </trkpt>
      <trkpt lat="43.005043" lon="0.74836">
        <ele>534.2</ele>
        <time>1970-01-01T06:01:44.000Z</time>
      </trkpt>
      <trkpt lat="43.004988" lon="0.74847">
        <ele>533</ele>
        <time>1970-01-01T06:01:50.000Z</time>
      </trkpt>
      <trkpt lat="43.004928" lon="0.748604">
        <ele>532</ele>
        <time>1970-01-01T06:01:54.000Z</time>
      </trkpt>
      <trkpt lat="43.004868" lon="0.748761">
        <ele>530.8</ele>
        <time>1970-01-01T06:01:57.000Z</time>
      </trkpt>
      <trkpt lat="43.004852" lon="0.748831">
        <ele>530.2</ele>
        <time>1970-01-01T06:01:59.000Z</time>
      </trkpt>
      <trkpt lat="43.004853" lon="0.748864">
        <ele>529.6</ele>
        <time>1970-01-01T06:02:00.000Z</time>
      </trkpt>
      <trkpt lat="43.004845" lon="0.748942">
        <ele>528.6</ele>
        <time>1970-01-01T06:02:02.000Z</time>
      </trkpt>
      <trkpt lat="43.004836" lon="0.749092">
        <ele>527.2</ele>
        <time>1970-01-01T06:02:05.000Z</time>
      </trkpt>
      <trkpt lat="43.00483" lon="0.749188">
        <ele>525.6</ele>
        <time>1970-01-01T06:02:07.000Z</time>
      </trkpt>
      <trkpt lat="43.00482" lon="0.749275">
        <ele>524</ele>
        <time>1970-01-01T06:02:09.000Z</time>
      </trkpt>
      <trkpt lat="43.00481" lon="0.74936">
        <ele>523</ele>
        <time>1970-01-01T06:02:11.000Z</time>
      </trkpt>
      <trkpt lat="43.004799" lon="0.749477">
        <ele>521.6</ele>
        <time>1970-01-01T06:02:14.000Z</time>
      </trkpt>
      <trkpt lat="43.004799" lon="0.749545">
        <ele>519.8</ele>
        <time>1970-01-01T06:02:16.000Z</time>
      </trkpt>
      <trkpt lat="43.00481" lon="0.749596">
        <ele>518.4</ele>
        <time>1970-01-01T06:02:18.000Z</time>
      </trkpt>
      <trkpt lat="43.004843" lon="0.749595">
        <ele>517.2</ele>
        <time>1970-01-01T06:02:20.000Z</time>
      </trkpt>
      <trkpt lat="43.004858" lon="0.749581">
        <ele>516.8</ele>
        <time>1970-01-01T06:02:22.000Z</time>
      </trkpt>
      <trkpt lat="43.004872" lon="0.749568">
        <ele>516.2</ele>
        <time>1970-01-01T06:03:05.000Z</time>
      </trkpt>
      <trkpt lat="43.004887" lon="0.749554">
        <ele>515.6</ele>
        <time>1970-01-01T06:03:06.000Z</time>
      </trkpt>
      <trkpt lat="43.004949" lon="0.749496">
        <ele>514</ele>
        <time>1970-01-01T06:03:08.000Z</time>
      </trkpt>
      <trkpt lat="43.004983" lon="0.749462">
        <ele>512.4</ele>
        <time>1970-01-01T06:03:09.000Z</time>
      </trkpt>
      <trkpt lat="43.005021" lon="0.749424">
        <ele>511</ele>
        <time>1970-01-01T06:03:10.000Z</time>
      </trkpt>
      <trkpt lat="43.005058" lon="0.749397">
        <ele>509.8</ele>
        <time>1970-01-01T06:03:11.000Z</time>
      </trkpt>
      <trkpt lat="43.005101" lon="0.74937">
        <ele>508.6</ele>
        <time>1970-01-01T06:03:12.000Z</time>
      </trkpt>
      <trkpt lat="43.005142" lon="0.74934">
        <ele>507.2</ele>
        <time>1970-01-01T06:03:13.000Z</time>
      </trkpt>
      <trkpt lat="43.005178" lon="0.749308">
        <ele>506.2</ele>
        <time>1970-01-01T06:03:14.000Z</time>
      </trkpt>
      <trkpt lat="43.005226" lon="0.749265">
        <ele>504.6</ele>
        <time>1970-01-01T06:03:16.000Z</time>
      </trkpt>
      <trkpt lat="43.005246" lon="0.749252">
        <ele>503.2</ele>
        <time>1970-01-01T06:03:18.000Z</time>
      </trkpt>
      <trkpt lat="43.005251" lon="0.749255">
        <ele>502.8</ele>
        <time>1970-01-01T06:03:19.000Z</time>
      </trkpt>
      <trkpt lat="43.005376" lon="0.749145">
        <ele>500.4</ele>
        <time>1970-01-01T06:04:22.000Z</time>
      </trkpt>
      <trkpt lat="43.005457" lon="0.749032">
        <ele>499.4</ele>
        <time>1970-01-01T06:04:25.000Z</time>
      </trkpt>
      <trkpt lat="43.005555" lon="0.748918">
        <ele>497.6</ele>
        <time>1970-01-01T06:04:29.000Z</time>
      </trkpt>
      <trkpt lat="43.005622" lon="0.748867">
        <ele>496.4</ele>
        <time>1970-01-01T06:04:31.000Z</time>
      </trkpt>
      <trkpt lat="43.005691" lon="0.748838">
        <ele>494.8</ele>
        <time>1970-01-01T06:04:33.000Z</time>
      </trkpt>
      <trkpt lat="43.005767" lon="0.748763">
        <ele>493.6</ele>
        <time>1970-01-01T06:04:35.000Z</time>
      </trkpt>
      <trkpt lat="43.005827" lon="0.748743">
        <ele>492.4</ele>
        <time>1970-01-01T06:04:37.000Z</time>
      </trkpt>
      <trkpt lat="43.005874" lon="0.7487">
        <ele>491.4</ele>
        <time>1970-01-01T06:04:38.000Z</time>
      </trkpt>
      <trkpt lat="43.005935" lon="0.748671">
        <ele>489.6</ele>
        <time>1970-01-01T06:04:40.000Z</time>
      </trkpt>
      <trkpt lat="43.005982" lon="0.748684">
        <ele>488</ele>
        <time>1970-01-01T06:04:42.000Z</time>
      </trkpt>
      <trkpt lat="43.006054" lon="0.748775">
        <ele>486.4</ele>
        <time>1970-01-01T06:04:45.000Z</time>
      </trkpt>
      <trkpt lat="43.006081" lon="0.748805">
        <ele>485.8</ele>
        <time>1970-01-01T06:04:46.000Z</time>
      </trkpt>
      <trkpt lat="43.006109" lon="0.748808">
        <ele>485</ele>
        <time>1970-01-01T06:04:47.000Z</time>
      </trkpt>
      <trkpt lat="43.006163" lon="0.748838">
        <ele>483.6</ele>
        <time>1970-01-01T06:04:49.000Z</time>
      </trkpt>
      <trkpt lat="43.00627" lon="0.748939">
        <ele>482.4</ele>
        <time>1970-01-01T06:04:53.000Z</time>
      </trkpt>
      <trkpt lat="43.006397" lon="0.749128">
        <ele>480.8</ele>
        <time>1970-01-01T06:04:56.000Z</time>
      </trkpt>
      <trkpt lat="43.006534" lon="0.749329">
        <ele>479.6</ele>
        <time>1970-01-01T06:04:59.000Z</time>
      </trkpt>
      <trkpt lat="43.00658" lon="0.749387">
        <ele>479.4</ele>
        <time>1970-01-01T06:05:00.000Z</time>
      </trkpt>
      <trkpt lat="43.006735" lon="0.749587">
        <ele>478.6</ele>
        <time>1970-01-01T06:05:04.000Z</time>
      </trkpt>
      <trkpt lat="43.007043" lon="0.74997">
        <ele>477.2</ele>
        <time>1970-01-01T06:05:14.000Z</time>
      </trkpt>
      <trkpt lat="43.007472" lon="0.750315">
        <ele>476.2</ele>
        <time>1970-01-01T06:05:25.000Z</time>
      </trkpt>
      <trkpt lat="43.007537" lon="0.750372">
        <ele>476</ele>
        <time>1970-01-01T06:05:29.000Z</time>
      </trkpt>
      <trkpt lat="43.007592" lon="0.750405">
        <ele>475.8</ele>
        <time>1970-01-01T06:05:41.000Z</time>
      </trkpt>
      <trkpt lat="43.007794" lon="0.750607">
        <ele>475.2</ele>
        <time>1970-01-01T06:05:48.000Z</time>
      </trkpt>
      <trkpt lat="43.007934" lon="0.750729">
        <ele>474.4</ele>
        <time>1970-01-01T06:05:52.000Z</time>
      </trkpt>
      <trkpt lat="43.008094" lon="0.750832">
        <ele>474</ele>
        <time>1970-01-01T06:05:55.000Z</time>
      </trkpt>
      <trkpt lat="43.008202" lon="0.750904">
        <ele>473.8</ele>
        <time>1970-01-01T06:05:57.000Z</time>
      </trkpt>
      <trkpt lat="43.008362" lon="0.751019">
        <ele>472.8</ele>
        <time>1970-01-01T06:06:00.000Z</time>
      </trkpt>
      <trkpt lat="43.008616" lon="0.751186">
        <ele>471.6</ele>
        <time>1970-01-01T06:06:04.000Z</time>
      </trkpt>
      <trkpt lat="43.008831" lon="0.751316">
        <ele>470.4</ele>
        <time>1970-01-01T06:06:07.000Z</time>
      </trkpt>
      <trkpt lat="43.008905" lon="0.751353">
        <ele>470.2</ele>
        <time>1970-01-01T06:06:08.000Z</time>
      </trkpt>
      <trkpt lat="43.009126" lon="0.751412">
        <ele>469.4</ele>
        <time>1970-01-01T06:06:11.000Z</time>
      </trkpt>
      <trkpt lat="43.009356" lon="0.751449">
        <ele>468.2</ele>
        <time>1970-01-01T06:06:14.000Z</time>
      </trkpt>
      <trkpt lat="43.009583" lon="0.751458">
        <ele>467.2</ele>
        <time>1970-01-01T06:06:17.000Z</time>
      </trkpt>
      <trkpt lat="43.009887" lon="0.751472">
        <ele>466.2</ele>
        <time>1970-01-01T06:06:21.000Z</time>
      </trkpt>
      <trkpt lat="43.010137" lon="0.751488">
        <ele>465</ele>
        <time>1970-01-01T06:06:24.000Z</time>
      </trkpt>
      <trkpt lat="43.010391" lon="0.751438">
        <ele>464</ele>
        <time>1970-01-01T06:06:27.000Z</time>
      </trkpt>
      <trkpt lat="43.010567" lon="0.751411">
        <ele>463.2</ele>
        <time>1970-01-01T06:06:29.000Z</time>
      </trkpt>
      <trkpt lat="43.010651" lon="0.751418">
        <ele>463</ele>
        <time>1970-01-01T06:06:30.000Z</time>
      </trkpt>
      <trkpt lat="43.010904" lon="0.751509">
        <ele>461.8</ele>
        <time>1970-01-01T06:06:33.000Z</time>
      </trkpt>
      <trkpt lat="43.011073" lon="0.751617">
        <ele>460.8</ele>
        <time>1970-01-01T06:06:35.000Z</time>
      </trkpt>
      <trkpt lat="43.011232" lon="0.751761">
        <ele>459.6</ele>
        <time>1970-01-01T06:06:37.000Z</time>
      </trkpt>
      <trkpt lat="43.011399" lon="0.752049">
        <ele>458.2</ele>
        <time>1970-01-01T06:06:40.000Z</time>
      </trkpt>
      <trkpt lat="43.011442" lon="0.752152">
        <ele>457.8</ele>
        <time>1970-01-01T06:06:41.000Z</time>
      </trkpt>
      <trkpt lat="43.011531" lon="0.752342">
        <ele>457</ele>
        <time>1970-01-01T06:06:43.000Z</time>
      </trkpt>
      <trkpt lat="43.011579" lon="0.752428">
        <ele>456.8</ele>
        <time>1970-01-01T06:06:44.000Z</time>
      </trkpt>
      <trkpt lat="43.011872" lon="0.752764">
        <ele>456</ele>
        <time>1970-01-01T06:06:49.000Z</time>
      </trkpt>
      <trkpt lat="43.011934" lon="0.752811">
        <ele>456</ele>
        <time>1970-01-01T06:06:50.000Z</time>
      </trkpt>
      <trkpt lat="43.012307" lon="0.753078">
        <ele>455.2</ele>
        <time>1970-01-01T06:06:56.000Z</time>
      </trkpt>
      <trkpt lat="43.01236" lon="0.753135">
        <ele>455</ele>
        <time>1970-01-01T06:06:57.000Z</time>
      </trkpt>
      <trkpt lat="43.012551" lon="0.753405">
        <ele>454</ele>
        <time>1970-01-01T06:07:01.000Z</time>
      </trkpt>
      <trkpt lat="43.012605" lon="0.753458">
        <ele>454</ele>
        <time>1970-01-01T06:07:02.000Z</time>
      </trkpt>
      <trkpt lat="43.012921" lon="0.7537">
        <ele>452.8</ele>
        <time>1970-01-01T06:07:07.000Z</time>
      </trkpt>
      <trkpt lat="43.013061" lon="0.753833">
        <ele>451.8</ele>
        <time>1970-01-01T06:07:09.000Z</time>
      </trkpt>
      <trkpt lat="43.01321" lon="0.753957">
        <ele>450.8</ele>
        <time>1970-01-01T06:07:11.000Z</time>
      </trkpt>
      <trkpt lat="43.013371" lon="0.754042">
        <ele>449.4</ele>
        <time>1970-01-01T06:07:13.000Z</time>
      </trkpt>
      <trkpt lat="43.013531" lon="0.754175">
        <ele>447.8</ele>
        <time>1970-01-01T06:07:16.000Z</time>
      </trkpt>
      <trkpt lat="43.01354" lon="0.754348">
        <ele>446.4</ele>
        <time>1970-01-01T06:07:19.000Z</time>
      </trkpt>
      <trkpt lat="43.013514" lon="0.754444">
        <ele>446.2</ele>
        <time>1970-01-01T06:07:21.000Z</time>
      </trkpt>
      <trkpt lat="43.013469" lon="0.754787">
        <ele>446.6</ele>
        <time>1970-01-01T06:07:30.000Z</time>
      </trkpt>
      <trkpt lat="43.013668" lon="0.754937">
        <ele>446</ele>
        <time>1970-01-01T06:07:37.000Z</time>
      </trkpt>
      <trkpt lat="43.013944" lon="0.75502">
        <ele>445.8</ele>
        <time>1970-01-01T06:07:44.000Z</time>
      </trkpt>
      <trkpt lat="43.014262" lon="0.755066">
        <ele>445.4</ele>
        <time>1970-01-01T06:07:51.000Z</time>
      </trkpt>
      <trkpt lat="43.014437" lon="0.755063">
        <ele>445.4</ele>
        <time>1970-01-01T06:07:55.000Z</time>
      </trkpt>
      <trkpt lat="43.014662" lon="0.755033">
        <ele>445</ele>
        <time>1970-01-01T06:08:00.000Z</time>
      </trkpt>
      <trkpt lat="43.015031" lon="0.754954">
        <ele>444.6</ele>
        <time>1970-01-01T06:08:08.000Z</time>
      </trkpt>
      <trkpt lat="43.015368" lon="0.754709">
        <ele>444.2</ele>
        <time>1970-01-01T06:08:17.000Z</time>
      </trkpt>
      <trkpt lat="43.015403" lon="0.754685">
        <ele>444.2</ele>
        <time>1970-01-01T06:08:18.000Z</time>
      </trkpt>
      <trkpt lat="43.015782" lon="0.754133">
        <ele>443.8</ele>
        <time>1970-01-01T06:08:36.000Z</time>
      </trkpt>
      <trkpt lat="43.015908" lon="0.754">
        <ele>443.4</ele>
        <time>1970-01-01T06:08:41.000Z</time>
      </trkpt>
      <trkpt lat="43.015962" lon="0.753949">
        <ele>443.4</ele>
        <time>1970-01-01T06:08:43.000Z</time>
      </trkpt>
      <trkpt lat="43.016089" lon="0.753851">
        <ele>443.4</ele>
        <time>1970-01-01T06:08:48.000Z</time>
      </trkpt>
      <trkpt lat="43.016114" lon="0.753685">
        <ele>443.2</ele>
        <time>1970-01-01T06:08:53.000Z</time>
      </trkpt>
      <trkpt lat="43.016185" lon="0.753641">
        <ele>443</ele>
        <time>1970-01-01T06:08:58.000Z</time>
      </trkpt>
      <trkpt lat="43.016153" lon="0.75374">
        <ele>443.2</ele>
        <time>1970-01-01T06:09:03.000Z</time>
      </trkpt>
      <trkpt lat="43.01598" lon="0.753871">
        <ele>443.4</ele>
        <time>1970-01-01T06:09:10.000Z</time>
      </trkpt>
      <trkpt lat="43.015948" lon="0.753754">
        <ele>443.4</ele>
        <time>1970-01-01T06:09:17.000Z</time>
      </trkpt>
      <trkpt lat="43.015944" lon="0.75382">
        <ele>443.6</ele>
        <time>1970-01-01T06:10:31.000Z</time>
      </trkpt>
      <trkpt lat="43.015929" lon="0.753843">
        <ele>443.6</ele>
        <time>1970-01-01T06:10:32.000Z</time>
      </trkpt>
      <trkpt lat="43.015555" lon="0.754233">
        <ele>444.4</ele>
        <time>1970-01-01T06:10:54.000Z</time>
      </trkpt>
      <trkpt lat="43.015504" lon="0.75446">
        <ele>444.6</ele>
        <time>1970-01-01T06:11:00.000Z</time>
      </trkpt>
      <trkpt lat="43.015576" lon="0.755226">
        <ele>444.6</ele>
        <time>1970-01-01T06:11:15.000Z</time>
      </trkpt>
      <trkpt lat="43.015555" lon="0.75548">
        <ele>445.2</ele>
        <time>1970-01-01T06:11:22.000Z</time>
      </trkpt>
      <trkpt lat="43.015622" lon="0.755537">
        <ele>445.2</ele>
        <time>1970-01-01T06:11:26.000Z</time>
      </trkpt>
      <trkpt lat="43.015844" lon="0.755576">
        <ele>445</ele>
        <time>1970-01-01T06:11:32.000Z</time>
      </trkpt>
      <trkpt lat="43.016329" lon="0.75563">
        <ele>444.4</ele>
        <time>1970-01-01T06:11:43.000Z</time>
      </trkpt>
      <trkpt lat="43.016521" lon="0.755687">
        <ele>444</ele>
        <time>1970-01-01T06:11:47.000Z</time>
      </trkpt>
      <trkpt lat="43.016915" lon="0.755787">
        <ele>444.2</ele>
        <time>1970-01-01T06:11:55.000Z</time>
      </trkpt>
      <trkpt lat="43.017076" lon="0.755901">
        <ele>444.2</ele>
        <time>1970-01-01T06:11:59.000Z</time>
      </trkpt>
      <trkpt lat="43.01725" lon="0.75608">
        <ele>444.8</ele>
        <time>1970-01-01T06:12:04.000Z</time>
      </trkpt>
      <trkpt lat="43.017413" lon="0.75613">
        <ele>445.2</ele>
        <time>1970-01-01T06:12:08.000Z</time>
      </trkpt>
      <trkpt lat="43.017447" lon="0.756132">
        <ele>445.4</ele>
        <time>1970-01-01T06:12:09.000Z</time>
      </trkpt>
      <trkpt lat="43.017598" lon="0.756139">
        <ele>446.4</ele>
        <time>1970-01-01T06:12:14.000Z</time>
      </trkpt>
      <trkpt lat="43.017814" lon="0.756106">
        <ele>447.4</ele>
        <time>1970-01-01T06:12:21.000Z</time>
      </trkpt>
      <trkpt lat="43.018124" lon="0.756239">
        <ele>448.6</ele>
        <time>1970-01-01T06:12:31.000Z</time>
      </trkpt>
      <trkpt lat="43.018229" lon="0.756362">
        <ele>449.8</ele>
        <time>1970-01-01T06:12:36.000Z</time>
      </trkpt>
      <trkpt lat="43.018289" lon="0.756473">
        <ele>451</ele>
        <time>1970-01-01T06:12:40.000Z</time>
      </trkpt>
      <trkpt lat="43.018357" lon="0.756723">
        <ele>452.4</ele>
        <time>1970-01-01T06:12:48.000Z</time>
      </trkpt>
      <trkpt lat="43.018389" lon="0.756876">
        <ele>453.4</ele>
        <time>1970-01-01T06:12:53.000Z</time>
      </trkpt>
      <trkpt lat="43.018412" lon="0.757015">
        <ele>454.8</ele>
        <time>1970-01-01T06:12:58.000Z</time>
      </trkpt>
      <trkpt lat="43.01842" lon="0.757138">
        <ele>456</ele>
        <time>1970-01-01T06:13:02.000Z</time>
      </trkpt>
      <trkpt lat="43.018337" lon="0.757869">
        <ele>456.6</ele>
        <time>1970-01-01T06:13:21.000Z</time>
      </trkpt>
      <trkpt lat="43.018451" lon="0.758626">
        <ele>457.2</ele>
        <time>1970-01-01T06:13:36.000Z</time>
      </trkpt>
      <trkpt lat="43.018525" lon="0.758908">
        <ele>457.4</ele>
        <time>1970-01-01T06:13:41.000Z</time>
      </trkpt>
      <trkpt lat="43.018726" lon="0.759648">
        <ele>458</ele>
        <time>1970-01-01T06:13:54.000Z</time>
      </trkpt>
      <trkpt lat="43.01881" lon="0.760062">
        <ele>458.4</ele>
        <time>1970-01-01T06:14:01.000Z</time>
      </trkpt>
      <trkpt lat="43.018876" lon="0.760443">
        <ele>459.2</ele>
        <time>1970-01-01T06:14:08.000Z</time>
      </trkpt>
      <trkpt lat="43.018893" lon="0.760607">
        <ele>459.6</ele>
        <time>1970-01-01T06:14:11.000Z</time>
      </trkpt>
      <trkpt lat="43.018907" lon="0.76093">
        <ele>461</ele>
        <time>1970-01-01T06:14:19.000Z</time>
      </trkpt>
      <trkpt lat="43.018921" lon="0.761033">
        <ele>462.2</ele>
        <time>1970-01-01T06:14:22.000Z</time>
      </trkpt>
      <trkpt lat="43.01894" lon="0.761179">
        <ele>463.4</ele>
        <time>1970-01-01T06:14:26.000Z</time>
      </trkpt>
      <trkpt lat="43.018969" lon="0.761317">
        <ele>464.6</ele>
        <time>1970-01-01T06:14:30.000Z</time>
      </trkpt>
      <trkpt lat="43.018995" lon="0.761488">
        <ele>465.8</ele>
        <time>1970-01-01T06:14:35.000Z</time>
      </trkpt>
      <trkpt lat="43.019019" lon="0.761634">
        <ele>466.8</ele>
        <time>1970-01-01T06:14:39.000Z</time>
      </trkpt>
      <trkpt lat="43.019036" lon="0.761793">
        <ele>468.2</ele>
        <time>1970-01-01T06:14:44.000Z</time>
      </trkpt>
      <trkpt lat="43.01911" lon="0.762142">
        <ele>469.2</ele>
        <time>1970-01-01T06:14:53.000Z</time>
      </trkpt>
      <trkpt lat="43.019286" lon="0.762593">
        <ele>470.4</ele>
        <time>1970-01-01T06:15:06.000Z</time>
      </trkpt>
      <trkpt lat="43.019446" lon="0.762977">
        <ele>471.4</ele>
        <time>1970-01-01T06:15:17.000Z</time>
      </trkpt>
      <trkpt lat="43.019625" lon="0.763485">
        <ele>472.8</ele>
        <time>1970-01-01T06:15:28.000Z</time>
      </trkpt>
      <trkpt lat="43.019761" lon="0.763953">
        <ele>473.8</ele>
        <time>1970-01-01T06:15:38.000Z</time>
      </trkpt>
      <trkpt lat="43.02009" lon="0.764541">
        <ele>473.6</ele>
        <time>1970-01-01T06:15:50.000Z</time>
      </trkpt>
      <trkpt lat="43.020448" lon="0.764996">
        <ele>473</ele>
        <time>1970-01-01T06:15:59.000Z</time>
      </trkpt>
      <trkpt lat="43.020853" lon="0.765563">
        <ele>472.6</ele>
        <time>1970-01-01T06:16:09.000Z</time>
      </trkpt>
      <trkpt lat="43.021256" lon="0.766151">
        <ele>472.4</ele>
        <time>1970-01-01T06:16:19.000Z</time>
      </trkpt>
      <trkpt lat="43.021662" lon="0.766693">
        <ele>473</ele>
        <time>1970-01-01T06:16:29.000Z</time>
      </trkpt>
      <trkpt lat="43.021788" lon="0.766816">
        <ele>473.4</ele>
        <time>1970-01-01T06:16:32.000Z</time>
      </trkpt>
      <trkpt lat="43.021993" lon="0.766927">
        <ele>473.6</ele>
        <time>1970-01-01T06:16:36.000Z</time>
      </trkpt>
      <trkpt lat="43.022435" lon="0.767061">
        <ele>472.2</ele>
        <time>1970-01-01T06:16:43.000Z</time>
      </trkpt>
      <trkpt lat="43.022971" lon="0.767352">
        <ele>471.4</ele>
        <time>1970-01-01T06:16:52.000Z</time>
      </trkpt>
      <trkpt lat="43.023216" lon="0.767566">
        <ele>471.6</ele>
        <time>1970-01-01T06:16:57.000Z</time>
      </trkpt>
      <trkpt lat="43.023647" lon="0.767986">
        <ele>473.2</ele>
        <time>1970-01-01T06:17:07.000Z</time>
      </trkpt>
      <trkpt lat="43.023832" lon="0.768143">
        <ele>474.6</ele>
        <time>1970-01-01T06:17:12.000Z</time>
      </trkpt>
      <trkpt lat="43.024033" lon="0.768327">
        <ele>475.8</ele>
        <time>1970-01-01T06:17:18.000Z</time>
      </trkpt>
      <trkpt lat="43.024212" lon="0.768492">
        <ele>477</ele>
        <time>1970-01-01T06:17:23.000Z</time>
      </trkpt>
      <trkpt lat="43.024461" lon="0.768657">
        <ele>477.8</ele>
        <time>1970-01-01T06:17:32.000Z</time>
      </trkpt>
      <trkpt lat="43.02451" lon="0.768654">
        <ele>477.8</ele>
        <time>1970-01-01T06:17:37.000Z</time>
      </trkpt>
      <trkpt lat="43.024717" lon="0.768274">
        <ele>478.2</ele>
        <time>1970-01-01T06:17:48.000Z</time>
      </trkpt>
      <trkpt lat="43.024971" lon="0.767859">
        <ele>479.6</ele>
        <time>1970-01-01T06:17:59.000Z</time>
      </trkpt>
      <trkpt lat="43.025091" lon="0.767666">
        <ele>480.6</ele>
        <time>1970-01-01T06:18:04.000Z</time>
      </trkpt>
      <trkpt lat="43.025281" lon="0.767392">
        <ele>481.8</ele>
        <time>1970-01-01T06:18:12.000Z</time>
      </trkpt>
      <trkpt lat="43.025398" lon="0.76722">
        <ele>482.8</ele>
        <time>1970-01-01T06:18:17.000Z</time>
      </trkpt>
      <trkpt lat="43.025516" lon="0.767048">
        <ele>484.2</ele>
        <time>1970-01-01T06:18:22.000Z</time>
      </trkpt>
      <trkpt lat="43.025668" lon="0.766799">
        <ele>485.2</ele>
        <time>1970-01-01T06:18:29.000Z</time>
      </trkpt>
      <trkpt lat="43.025745" lon="0.766538">
        <ele>486.2</ele>
        <time>1970-01-01T06:18:35.000Z</time>
      </trkpt>
      <trkpt lat="43.025762" lon="0.766153">
        <ele>487.6</ele>
        <time>1970-01-01T06:18:43.000Z</time>
      </trkpt>
      <trkpt lat="43.025746" lon="0.765982">
        <ele>488.8</ele>
        <time>1970-01-01T06:18:47.000Z</time>
      </trkpt>
      <trkpt lat="43.0258" lon="0.765674">
        <ele>489.8</ele>
        <time>1970-01-01T06:18:55.000Z</time>
      </trkpt>
      <trkpt lat="43.025921" lon="0.765411">
        <ele>491</ele>
        <time>1970-01-01T06:19:04.000Z</time>
      </trkpt>
      <trkpt lat="43.025976" lon="0.765244">
        <ele>492</ele>
        <time>1970-01-01T06:19:10.000Z</time>
      </trkpt>
      <trkpt lat="43.026041" lon="0.76506">
        <ele>493.4</ele>
        <time>1970-01-01T06:19:17.000Z</time>
      </trkpt>
      <trkpt lat="43.026082" lon="0.764893">
        <ele>494.4</ele>
        <time>1970-01-01T06:19:22.000Z</time>
      </trkpt>
      <trkpt lat="43.026166" lon="0.764779">
        <ele>495.6</ele>
        <time>1970-01-01T06:19:26.000Z</time>
      </trkpt>
      <trkpt lat="43.0263" lon="0.764672">
        <ele>496.8</ele>
        <time>1970-01-01T06:19:32.000Z</time>
      </trkpt>
      <trkpt lat="43.026374" lon="0.764626">
        <ele>498</ele>
        <time>1970-01-01T06:19:36.000Z</time>
      </trkpt>
      <trkpt lat="43.026462" lon="0.764585">
        <ele>499.2</ele>
        <time>1970-01-01T06:19:40.000Z</time>
      </trkpt>
      <trkpt lat="43.026488" lon="0.764591">
        <ele>499.4</ele>
        <time>1970-01-01T06:19:41.000Z</time>
      </trkpt>
      <trkpt lat="43.02652" lon="0.764699">
        <ele>500.4</ele>
        <time>1970-01-01T06:19:45.000Z</time>
      </trkpt>
      <trkpt lat="43.026532" lon="0.764761">
        <ele>500.6</ele>
        <time>1970-01-01T06:19:47.000Z</time>
      </trkpt>
      <trkpt lat="43.026566" lon="0.764897">
        <ele>500.8</ele>
        <time>1970-01-01T06:19:51.000Z</time>
      </trkpt>
      <trkpt lat="43.026961" lon="0.765427">
        <ele>501.2</ele>
        <time>1970-01-01T06:20:09.000Z</time>
      </trkpt>
      <trkpt lat="43.027097" lon="0.7656">
        <ele>501.6</ele>
        <time>1970-01-01T06:20:15.000Z</time>
      </trkpt>
      <trkpt lat="43.027331" lon="0.766303">
        <ele>502.4</ele>
        <time>1970-01-01T06:20:32.000Z</time>
      </trkpt>
      <trkpt lat="43.027526" lon="0.767012">
        <ele>502.2</ele>
        <time>1970-01-01T06:20:47.000Z</time>
      </trkpt>
      <trkpt lat="43.027738" lon="0.767737">
        <ele>501.4</ele>
        <time>1970-01-01T06:21:01.000Z</time>
      </trkpt>
      <trkpt lat="43.027792" lon="0.767865">
        <ele>500.8</ele>
        <time>1970-01-01T06:21:03.000Z</time>
      </trkpt>
      <trkpt lat="43.027944" lon="0.768159">
        <ele>499.4</ele>
        <time>1970-01-01T06:21:07.000Z</time>
      </trkpt>
      <trkpt lat="43.027995" lon="0.768228">
        <ele>499</ele>
        <time>1970-01-01T06:21:08.000Z</time>
      </trkpt>
      <trkpt lat="43.028054" lon="0.768294">
        <ele>498.4</ele>
        <time>1970-01-01T06:21:09.000Z</time>
      </trkpt>
      <trkpt lat="43.028177" lon="0.768402">
        <ele>497.2</ele>
        <time>1970-01-01T06:21:11.000Z</time>
      </trkpt>
      <trkpt lat="43.028234" lon="0.768467">
        <ele>496.8</ele>
        <time>1970-01-01T06:21:12.000Z</time>
      </trkpt>
      <trkpt lat="43.028314" lon="0.768605">
        <ele>496</ele>
        <time>1970-01-01T06:21:14.000Z</time>
      </trkpt>
      <trkpt lat="43.028365" lon="0.768863">
        <ele>495.2</ele>
        <time>1970-01-01T06:21:17.000Z</time>
      </trkpt>
      <trkpt lat="43.028376" lon="0.768942">
        <ele>494.8</ele>
        <time>1970-01-01T06:21:18.000Z</time>
      </trkpt>
      <trkpt lat="43.028447" lon="0.769703">
        <ele>495.4</ele>
        <time>1970-01-01T06:21:29.000Z</time>
      </trkpt>
      <trkpt lat="43.028529" lon="0.770103">
        <ele>495.6</ele>
        <time>1970-01-01T06:21:35.000Z</time>
      </trkpt>
      <trkpt lat="43.028597" lon="0.770312">
        <ele>495.6</ele>
        <time>1970-01-01T06:21:38.000Z</time>
      </trkpt>
      <trkpt lat="43.028687" lon="0.770533">
        <ele>495.4</ele>
        <time>1970-01-01T06:21:41.000Z</time>
      </trkpt>
      <trkpt lat="43.028834" lon="0.770826">
        <ele>493.6</ele>
        <time>1970-01-01T06:21:45.000Z</time>
      </trkpt>
      <trkpt lat="43.028887" lon="0.771063">
        <ele>492.4</ele>
        <time>1970-01-01T06:21:48.000Z</time>
      </trkpt>
      <trkpt lat="43.028878" lon="0.771282">
        <ele>491</ele>
        <time>1970-01-01T06:21:50.000Z</time>
      </trkpt>
      <trkpt lat="43.028847" lon="0.771517">
        <ele>489.8</ele>
        <time>1970-01-01T06:21:52.000Z</time>
      </trkpt>
      <trkpt lat="43.02879" lon="0.772103">
        <ele>489.4</ele>
        <time>1970-01-01T06:22:00.000Z</time>
      </trkpt>
      <trkpt lat="43.028801" lon="0.772108">
        <ele>489.2</ele>
        <time>1970-01-01T06:22:02.000Z</time>
      </trkpt>
      <trkpt lat="43.028807" lon="0.77199">
        <ele>489.2</ele>
        <time>1970-01-01T06:22:19.000Z</time>
      </trkpt>
      <trkpt lat="43.028822" lon="0.771853">
        <ele>489</ele>
        <time>1970-01-01T06:22:22.000Z</time>
      </trkpt>
      <trkpt lat="43.028859" lon="0.771671">
        <ele>488.6</ele>
        <time>1970-01-01T06:22:26.000Z</time>
      </trkpt>
      <trkpt lat="43.029071" lon="0.771663">
        <ele>487.8</ele>
        <time>1970-01-01T06:22:31.000Z</time>
      </trkpt>
      <trkpt lat="43.029128" lon="0.77166">
        <ele>487.4</ele>
        <time>1970-01-01T06:22:32.000Z</time>
      </trkpt>
      <trkpt lat="43.029247" lon="0.771645">
        <ele>486.6</ele>
        <time>1970-01-01T06:22:34.000Z</time>
      </trkpt>
      <trkpt lat="43.029369" lon="0.771627">
        <ele>485.2</ele>
        <time>1970-01-01T06:22:36.000Z</time>
      </trkpt>
      <trkpt lat="43.029566" lon="0.771609">
        <ele>483.6</ele>
        <time>1970-01-01T06:22:39.000Z</time>
      </trkpt>
      <trkpt lat="43.029702" lon="0.771607">
        <ele>482.4</ele>
        <time>1970-01-01T06:22:41.000Z</time>
      </trkpt>
      <trkpt lat="43.0299" lon="0.771572">
        <ele>481.6</ele>
        <time>1970-01-01T06:22:44.000Z</time>
      </trkpt>
      <trkpt lat="43.030013" lon="0.771511">
        <ele>479.8</ele>
        <time>1970-01-01T06:22:46.000Z</time>
      </trkpt>
      <trkpt lat="43.030073" lon="0.771489">
        <ele>479</ele>
        <time>1970-01-01T06:22:47.000Z</time>
      </trkpt>
      <trkpt lat="43.030131" lon="0.771463">
        <ele>478.4</ele>
        <time>1970-01-01T06:22:48.000Z</time>
      </trkpt>
      <trkpt lat="43.030191" lon="0.771433">
        <ele>477.8</ele>
        <time>1970-01-01T06:22:49.000Z</time>
      </trkpt>
      <trkpt lat="43.030249" lon="0.771405">
        <ele>477</ele>
        <time>1970-01-01T06:22:50.000Z</time>
      </trkpt>
      <trkpt lat="43.030368" lon="0.77136">
        <ele>475.4</ele>
        <time>1970-01-01T06:22:52.000Z</time>
      </trkpt>
      <trkpt lat="43.030431" lon="0.771337">
        <ele>474.2</ele>
        <time>1970-01-01T06:22:53.000Z</time>
      </trkpt>
      <trkpt lat="43.030633" lon="0.771255">
        <ele>473.2</ele>
        <time>1970-01-01T06:22:56.000Z</time>
      </trkpt>
      <trkpt lat="43.030683" lon="0.77123">
        <ele>472.6</ele>
        <time>1970-01-01T06:22:57.000Z</time>
      </trkpt>
      <trkpt lat="43.030723" lon="0.771215">
        <ele>472</ele>
        <time>1970-01-01T06:22:58.000Z</time>
      </trkpt>
      <trkpt lat="43.030837" lon="0.771157">
        <ele>471</ele>
        <time>1970-01-01T06:23:02.000Z</time>
      </trkpt>
      <trkpt lat="43.031054" lon="0.771118">
        <ele>470</ele>
        <time>1970-01-01T06:23:11.000Z</time>
      </trkpt>
      <trkpt lat="43.03156" lon="0.770836">
        <ele>470.6</ele>
        <time>1970-01-01T06:23:28.000Z</time>
      </trkpt>
      <trkpt lat="43.031636" lon="0.77082">
        <ele>471.4</ele>
        <time>1970-01-01T06:23:31.000Z</time>
      </trkpt>
      <trkpt lat="43.03171" lon="0.770826">
        <ele>472.4</ele>
        <time>1970-01-01T06:23:35.000Z</time>
      </trkpt>
      <trkpt lat="43.032202" lon="0.770842">
        <ele>471.6</ele>
        <time>1970-01-01T06:23:52.000Z</time>
      </trkpt>
      <trkpt lat="43.032691" lon="0.770462">
        <ele>471.2</ele>
        <time>1970-01-01T06:24:10.000Z</time>
      </trkpt>
      <trkpt lat="43.033009" lon="0.770515">
        <ele>472.6</ele>
        <time>1970-01-01T06:24:20.000Z</time>
      </trkpt>
      <trkpt lat="43.033567" lon="0.770642">
        <ele>471.6</ele>
        <time>1970-01-01T06:24:31.000Z</time>
      </trkpt>
      <trkpt lat="43.033619" lon="0.770652">
        <ele>471.4</ele>
        <time>1970-01-01T06:24:32.000Z</time>
      </trkpt>
      <trkpt lat="43.033674" lon="0.770675">
        <ele>471</ele>
        <time>1970-01-01T06:24:33.000Z</time>
      </trkpt>
      <trkpt lat="43.033847" lon="0.770739">
        <ele>470</ele>
        <time>1970-01-01T06:24:36.000Z</time>
      </trkpt>
      <trkpt lat="43.033894" lon="0.770762">
        <ele>469.6</ele>
        <time>1970-01-01T06:24:37.000Z</time>
      </trkpt>
      <trkpt lat="43.033957" lon="0.770797">
        <ele>468.8</ele>
        <time>1970-01-01T06:24:39.000Z</time>
      </trkpt>
      <trkpt lat="43.034039" lon="0.77088">
        <ele>468</ele>
        <time>1970-01-01T06:24:44.000Z</time>
      </trkpt>
      <trkpt lat="43.03376" lon="0.771033">
        <ele>472</ele>
        <time>1970-01-01T06:25:23.000Z</time>
      </trkpt>
      <trkpt lat="43.033667" lon="0.771011">
        <ele>473</ele>
        <time>1970-01-01T06:25:29.000Z</time>
      </trkpt>
      <trkpt lat="43.033661" lon="0.771017">
        <ele>473</ele>
        <time>1970-01-01T06:25:31.000Z</time>
      </trkpt>
      <trkpt lat="43.033704" lon="0.770995">
        <ele>472.4</ele>
        <time>1970-01-01T06:26:06.000Z</time>
      </trkpt>
      <trkpt lat="43.03388" lon="0.770947">
        <ele>471.4</ele>
        <time>1970-01-01T06:26:12.000Z</time>
      </trkpt>
      <trkpt lat="43.034046" lon="0.770973">
        <ele>470.4</ele>
        <time>1970-01-01T06:26:16.000Z</time>
      </trkpt>
      <trkpt lat="43.034144" lon="0.770989">
        <ele>469.2</ele>
        <time>1970-01-01T06:26:19.000Z</time>
      </trkpt>
      <trkpt lat="43.034166" lon="0.771012">
        <ele>468.2</ele>
        <time>1970-01-01T06:26:22.000Z</time>
      </trkpt>
      <trkpt lat="43.034238" lon="0.771036">
        <ele>467.8</ele>
        <time>1970-01-01T06:26:32.000Z</time>
      </trkpt>
      <trkpt lat="43.034458" lon="0.771079">
        <ele>466.8</ele>
        <time>1970-01-01T06:26:38.000Z</time>
      </trkpt>
      <trkpt lat="43.034772" lon="0.771184">
        <ele>465.6</ele>
        <time>1970-01-01T06:26:44.000Z</time>
      </trkpt>
      <trkpt lat="43.035094" lon="0.77132">
        <ele>464.4</ele>
        <time>1970-01-01T06:26:50.000Z</time>
      </trkpt>
      <trkpt lat="43.035228" lon="0.771391">
        <ele>464.2</ele>
        <time>1970-01-01T06:26:52.000Z</time>
      </trkpt>
      <trkpt lat="43.035533" lon="0.771537">
        <ele>463.4</ele>
        <time>1970-01-01T06:26:57.000Z</time>
      </trkpt>
      <trkpt lat="43.035818" lon="0.771698">
        <ele>462.2</ele>
        <time>1970-01-01T06:27:01.000Z</time>
      </trkpt>
      <trkpt lat="43.03615" lon="0.771869">
        <ele>461</ele>
        <time>1970-01-01T06:27:06.000Z</time>
      </trkpt>
      <trkpt lat="43.036503" lon="0.772104">
        <ele>460</ele>
        <time>1970-01-01T06:27:11.000Z</time>
      </trkpt>
      <trkpt lat="43.036809" lon="0.772288">
        <ele>458.8</ele>
        <time>1970-01-01T06:27:15.000Z</time>
      </trkpt>
      <trkpt lat="43.036943" lon="0.772356">
        <ele>458.4</ele>
        <time>1970-01-01T06:27:17.000Z</time>
      </trkpt>
      <trkpt lat="43.03727" lon="0.772472">
        <ele>457.8</ele>
        <time>1970-01-01T06:27:22.000Z</time>
      </trkpt>
      <trkpt lat="43.03783" lon="0.772489">
        <ele>457.8</ele>
        <time>1970-01-01T06:27:32.000Z</time>
      </trkpt>
      <trkpt lat="43.038231" lon="0.772557">
        <ele>457.8</ele>
        <time>1970-01-01T06:27:39.000Z</time>
      </trkpt>
      <trkpt lat="43.038328" lon="0.772566">
        <ele>457.8</ele>
        <time>1970-01-01T06:27:41.000Z</time>
      </trkpt>
      <trkpt lat="43.038588" lon="0.772573">
        <ele>459.2</ele>
        <time>1970-01-01T06:27:46.000Z</time>
      </trkpt>
      <trkpt lat="43.038836" lon="0.772616">
        <ele>460.2</ele>
        <time>1970-01-01T06:27:51.000Z</time>
      </trkpt>
      <trkpt lat="43.039222" lon="0.772762">
        <ele>460.6</ele>
        <time>1970-01-01T06:28:00.000Z</time>
      </trkpt>
      <trkpt lat="43.039368" lon="0.772902">
        <ele>460</ele>
        <time>1970-01-01T06:28:03.000Z</time>
      </trkpt>
      <trkpt lat="43.03954" lon="0.7732">
        <ele>459.2</ele>
        <time>1970-01-01T06:28:07.000Z</time>
      </trkpt>
      <trkpt lat="43.039633" lon="0.773665">
        <ele>458.4</ele>
        <time>1970-01-01T06:28:13.000Z</time>
      </trkpt>
      <trkpt lat="43.039647" lon="0.773806">
        <ele>458.2</ele>
        <time>1970-01-01T06:28:15.000Z</time>
      </trkpt>
      <trkpt lat="43.039739" lon="0.774099">
        <ele>458</ele>
        <time>1970-01-01T06:28:20.000Z</time>
      </trkpt>
      <trkpt lat="43.039764" lon="0.774173">
        <ele>457.8</ele>
        <time>1970-01-01T06:28:24.000Z</time>
      </trkpt>
      <trkpt lat="43.039649" lon="0.774203">
        <ele>459</ele>
        <time>1970-01-01T06:28:35.000Z</time>
      </trkpt>
      <trkpt lat="43.039634" lon="0.774209">
        <ele>459.4</ele>
        <time>1970-01-01T06:28:36.000Z</time>
      </trkpt>
      <trkpt lat="43.039553" lon="0.774235">
        <ele>460.4</ele>
        <time>1970-01-01T06:28:41.000Z</time>
      </trkpt>
      <trkpt lat="43.039525" lon="0.774261">
        <ele>460.8</ele>
        <time>1970-01-01T06:28:43.000Z</time>
      </trkpt>
      <trkpt lat="43.039497" lon="0.774289">
        <ele>461.4</ele>
        <time>1970-01-01T06:28:45.000Z</time>
      </trkpt>
      <trkpt lat="43.039467" lon="0.774371">
        <ele>462.4</ele>
        <time>1970-01-01T06:28:49.000Z</time>
      </trkpt>
      <trkpt lat="43.039447" lon="0.774487">
        <ele>463.6</ele>
        <time>1970-01-01T06:28:54.000Z</time>
      </trkpt>
      <trkpt lat="43.039348" lon="0.774708">
        <ele>464.8</ele>
        <time>1970-01-01T06:29:03.000Z</time>
      </trkpt>
      <trkpt lat="43.03918" lon="0.775143">
        <ele>466</ele>
        <time>1970-01-01T06:29:18.000Z</time>
      </trkpt>
      <trkpt lat="43.039059" lon="0.775195">
        <ele>467</ele>
        <time>1970-01-01T06:29:23.000Z</time>
      </trkpt>
      <trkpt lat="43.038958" lon="0.775238">
        <ele>468.4</ele>
        <time>1970-01-01T06:29:27.000Z</time>
      </trkpt>
      <trkpt lat="43.038763" lon="0.775362">
        <ele>469.4</ele>
        <time>1970-01-01T06:29:34.000Z</time>
      </trkpt>
      <trkpt lat="43.038501" lon="0.775541">
        <ele>468.4</ele>
        <time>1970-01-01T06:29:41.000Z</time>
      </trkpt>
      <trkpt lat="43.038331" lon="0.775692">
        <ele>468.4</ele>
        <time>1970-01-01T06:29:46.000Z</time>
      </trkpt>
      <trkpt lat="43.038116" lon="0.776105">
        <ele>468.2</ele>
        <time>1970-01-01T06:29:58.000Z</time>
      </trkpt>
      <trkpt lat="43.037829" lon="0.776317">
        <ele>469.6</ele>
        <time>1970-01-01T06:30:09.000Z</time>
      </trkpt>
      <trkpt lat="43.037406" lon="0.776652">
        <ele>470.8</ele>
        <time>1970-01-01T06:30:25.000Z</time>
      </trkpt>
      <trkpt lat="43.037337" lon="0.776685">
        <ele>472</ele>
        <time>1970-01-01T06:30:29.000Z</time>
      </trkpt>
      <trkpt lat="43.037268" lon="0.776747">
        <ele>473.2</ele>
        <time>1970-01-01T06:30:33.000Z</time>
      </trkpt>
      <trkpt lat="43.037174" lon="0.776805">
        <ele>474.2</ele>
        <time>1970-01-01T06:30:37.000Z</time>
      </trkpt>
      <trkpt lat="43.037071" lon="0.776895">
        <ele>475.4</ele>
        <time>1970-01-01T06:30:43.000Z</time>
      </trkpt>
      <trkpt lat="43.03699" lon="0.776995">
        <ele>476.6</ele>
        <time>1970-01-01T06:30:48.000Z</time>
      </trkpt>
      <trkpt lat="43.036928" lon="0.777041">
        <ele>477.8</ele>
        <time>1970-01-01T06:30:53.000Z</time>
      </trkpt>
      <trkpt lat="43.036845" lon="0.777114">
        <ele>479</ele>
        <time>1970-01-01T06:30:58.000Z</time>
      </trkpt>
      <trkpt lat="43.036753" lon="0.77715">
        <ele>480.4</ele>
        <time>1970-01-01T06:31:04.000Z</time>
      </trkpt>
      <trkpt lat="43.036695" lon="0.777152">
        <ele>481.6</ele>
        <time>1970-01-01T06:31:09.000Z</time>
      </trkpt>
      <trkpt lat="43.036624" lon="0.777166">
        <ele>482.8</ele>
        <time>1970-01-01T06:31:15.000Z</time>
      </trkpt>
      <trkpt lat="43.036591" lon="0.777171">
        <ele>484</ele>
        <time>1970-01-01T06:31:19.000Z</time>
      </trkpt>
      <trkpt lat="43.036218" lon="0.777361">
        <ele>490.2</ele>
        <time>1970-01-01T06:31:52.000Z</time>
      </trkpt>
      <trkpt lat="43.036031" lon="0.77762">
        <ele>489</ele>
        <time>1970-01-01T06:32:06.000Z</time>
      </trkpt>
      <trkpt lat="43.035906" lon="0.777811">
        <ele>487.8</ele>
        <time>1970-01-01T06:32:11.000Z</time>
      </trkpt>
      <trkpt lat="43.035869" lon="0.777845">
        <ele>487.4</ele>
        <time>1970-01-01T06:32:12.000Z</time>
      </trkpt>
      <trkpt lat="43.035796" lon="0.777926">
        <ele>486.8</ele>
        <time>1970-01-01T06:32:14.000Z</time>
      </trkpt>
      <trkpt lat="43.035759" lon="0.777965">
        <ele>486.4</ele>
        <time>1970-01-01T06:32:15.000Z</time>
      </trkpt>
      <trkpt lat="43.035656" lon="0.778069">
        <ele>485.4</ele>
        <time>1970-01-01T06:32:18.000Z</time>
      </trkpt>
      <trkpt lat="43.03561" lon="0.778133">
        <ele>484.4</ele>
        <time>1970-01-01T06:32:21.000Z</time>
      </trkpt>
      <trkpt lat="43.035606" lon="0.778159">
        <ele>484</ele>
        <time>1970-01-01T06:32:22.000Z</time>
      </trkpt>
      <trkpt lat="43.035546" lon="0.77826">
        <ele>483.4</ele>
        <time>1970-01-01T06:32:25.000Z</time>
      </trkpt>
      <trkpt lat="43.035509" lon="0.778308">
        <ele>482.8</ele>
        <time>1970-01-01T06:32:26.000Z</time>
      </trkpt>
      <trkpt lat="43.035452" lon="0.778408">
        <ele>481.6</ele>
        <time>1970-01-01T06:32:28.000Z</time>
      </trkpt>
      <trkpt lat="43.035431" lon="0.778526">
        <ele>480.4</ele>
        <time>1970-01-01T06:32:30.000Z</time>
      </trkpt>
      <trkpt lat="43.035404" lon="0.778755">
        <ele>479.4</ele>
        <time>1970-01-01T06:32:33.000Z</time>
      </trkpt>
      <trkpt lat="43.035403" lon="0.779021">
        <ele>478.6</ele>
        <time>1970-01-01T06:32:36.000Z</time>
      </trkpt>
      <trkpt lat="43.035413" lon="0.779104">
        <ele>478.4</ele>
        <time>1970-01-01T06:32:37.000Z</time>
      </trkpt>
      <trkpt lat="43.035656" lon="0.779343">
        <ele>477.4</ele>
        <time>1970-01-01T06:32:44.000Z</time>
      </trkpt>
      <trkpt lat="43.035812" lon="0.779318">
        <ele>476.6</ele>
        <time>1970-01-01T06:32:47.000Z</time>
      </trkpt>
      <trkpt lat="43.035919" lon="0.779296">
        <ele>476</ele>
        <time>1970-01-01T06:32:49.000Z</time>
      </trkpt>
      <trkpt lat="43.036104" lon="0.779264">
        <ele>474.6</ele>
        <time>1970-01-01T06:32:52.000Z</time>
      </trkpt>
      <trkpt lat="43.036243" lon="0.779236">
        <ele>473.6</ele>
        <time>1970-01-01T06:32:54.000Z</time>
      </trkpt>
      <trkpt lat="43.036396" lon="0.779199">
        <ele>472.6</ele>
        <time>1970-01-01T06:32:56.000Z</time>
      </trkpt>
      <trkpt lat="43.03648" lon="0.779181">
        <ele>471.6</ele>
        <time>1970-01-01T06:32:57.000Z</time>
      </trkpt>
      <trkpt lat="43.036664" lon="0.779145">
        <ele>469.4</ele>
        <time>1970-01-01T06:32:59.000Z</time>
      </trkpt>
      <trkpt lat="43.03675" lon="0.779122">
        <ele>468.4</ele>
        <time>1970-01-01T06:33:00.000Z</time>
      </trkpt>
      <trkpt lat="43.036828" lon="0.779098">
        <ele>467.2</ele>
        <time>1970-01-01T06:33:01.000Z</time>
      </trkpt>
      <trkpt lat="43.036897" lon="0.779082">
        <ele>466</ele>
        <time>1970-01-01T06:33:02.000Z</time>
      </trkpt>
      <trkpt lat="43.036952" lon="0.779084">
        <ele>465</ele>
        <time>1970-01-01T06:33:03.000Z</time>
      </trkpt>
      <trkpt lat="43.037022" lon="0.779154">
        <ele>463.6</ele>
        <time>1970-01-01T06:33:05.000Z</time>
      </trkpt>
      <trkpt lat="43.037069" lon="0.77925">
        <ele>462.4</ele>
        <time>1970-01-01T06:33:07.000Z</time>
      </trkpt>
      <trkpt lat="43.037083" lon="0.779438">
        <ele>461.8</ele>
        <time>1970-01-01T06:33:12.000Z</time>
      </trkpt>
      <trkpt lat="43.037057" lon="0.779449">
        <ele>462.2</ele>
        <time>1970-01-01T06:33:14.000Z</time>
      </trkpt>
      <trkpt lat="43.036988" lon="0.779494">
        <ele>463.6</ele>
        <time>1970-01-01T06:33:19.000Z</time>
      </trkpt>
      <trkpt lat="43.036984" lon="0.779511">
        <ele>463.8</ele>
        <time>1970-01-01T06:33:21.000Z</time>
      </trkpt>
      <trkpt lat="43.037052" lon="0.779493">
        <ele>463</ele>
        <time>1970-01-01T06:33:29.000Z</time>
      </trkpt>
      <trkpt lat="43.037119" lon="0.779519">
        <ele>462.6</ele>
        <time>1970-01-01T06:33:32.000Z</time>
      </trkpt>
      <trkpt lat="43.037174" lon="0.77956">
        <ele>461.8</ele>
        <time>1970-01-01T06:33:34.000Z</time>
      </trkpt>
      <trkpt lat="43.037196" lon="0.779602">
        <ele>461.4</ele>
        <time>1970-01-01T06:33:35.000Z</time>
      </trkpt>
      <trkpt lat="43.037275" lon="0.779745">
        <ele>460.6</ele>
        <time>1970-01-01T06:33:38.000Z</time>
      </trkpt>
      <trkpt lat="43.037306" lon="0.779785">
        <ele>460.4</ele>
        <time>1970-01-01T06:33:39.000Z</time>
      </trkpt>
      <trkpt lat="43.037376" lon="0.779857">
        <ele>459.8</ele>
        <time>1970-01-01T06:33:41.000Z</time>
      </trkpt>
      <trkpt lat="43.037467" lon="0.779893">
        <ele>459.2</ele>
        <time>1970-01-01T06:33:43.000Z</time>
      </trkpt>
      <trkpt lat="43.037579" lon="0.779914">
        <ele>458</ele>
        <time>1970-01-01T06:33:45.000Z</time>
      </trkpt>
      <trkpt lat="43.037727" lon="0.779905">
        <ele>456.4</ele>
        <time>1970-01-01T06:33:47.000Z</time>
      </trkpt>
      <trkpt lat="43.037898" lon="0.779869">
        <ele>454.8</ele>
        <time>1970-01-01T06:33:49.000Z</time>
      </trkpt>
      <trkpt lat="43.038001" lon="0.779836">
        <ele>454</ele>
        <time>1970-01-01T06:33:50.000Z</time>
      </trkpt>
      <trkpt lat="43.038104" lon="0.779792">
        <ele>452.8</ele>
        <time>1970-01-01T06:33:51.000Z</time>
      </trkpt>
      <trkpt lat="43.038208" lon="0.779748">
        <ele>451.4</ele>
        <time>1970-01-01T06:33:52.000Z</time>
      </trkpt>
      <trkpt lat="43.03831" lon="0.779698">
        <ele>450.4</ele>
        <time>1970-01-01T06:33:53.000Z</time>
      </trkpt>
      <trkpt lat="43.038518" lon="0.779598">
        <ele>448.4</ele>
        <time>1970-01-01T06:33:55.000Z</time>
      </trkpt>
      <trkpt lat="43.038732" lon="0.779516">
        <ele>446.6</ele>
        <time>1970-01-01T06:33:57.000Z</time>
      </trkpt>
      <trkpt lat="43.038842" lon="0.779504">
        <ele>445.6</ele>
        <time>1970-01-01T06:33:58.000Z</time>
      </trkpt>
      <trkpt lat="43.038944" lon="0.779499">
        <ele>444.8</ele>
        <time>1970-01-01T06:33:59.000Z</time>
      </trkpt>
      <trkpt lat="43.039125" lon="0.779532">
        <ele>443</ele>
        <time>1970-01-01T06:34:01.000Z</time>
      </trkpt>
      <trkpt lat="43.0392" lon="0.779557">
        <ele>442</ele>
        <time>1970-01-01T06:34:02.000Z</time>
      </trkpt>
      <trkpt lat="43.03926" lon="0.779594">
        <ele>441.2</ele>
        <time>1970-01-01T06:34:03.000Z</time>
      </trkpt>
      <trkpt lat="43.03931" lon="0.779645">
        <ele>440.2</ele>
        <time>1970-01-01T06:34:04.000Z</time>
      </trkpt>
      <trkpt lat="43.039332" lon="0.779728">
        <ele>439.2</ele>
        <time>1970-01-01T06:34:05.000Z</time>
      </trkpt>
      <trkpt lat="43.039342" lon="0.779911">
        <ele>437.4</ele>
        <time>1970-01-01T06:34:07.000Z</time>
      </trkpt>
      <trkpt lat="43.039347" lon="0.780005">
        <ele>436.8</ele>
        <time>1970-01-01T06:34:08.000Z</time>
      </trkpt>
      <trkpt lat="43.03936" lon="0.780104">
        <ele>436</ele>
        <time>1970-01-01T06:34:09.000Z</time>
      </trkpt>
      <trkpt lat="43.039424" lon="0.780324">
        <ele>434.8</ele>
        <time>1970-01-01T06:34:11.000Z</time>
      </trkpt>
      <trkpt lat="43.039463" lon="0.780435">
        <ele>434.2</ele>
        <time>1970-01-01T06:34:12.000Z</time>
      </trkpt>
      <trkpt lat="43.039506" lon="0.780548">
        <ele>433.4</ele>
        <time>1970-01-01T06:34:13.000Z</time>
      </trkpt>
      <trkpt lat="43.039594" lon="0.780747">
        <ele>432</ele>
        <time>1970-01-01T06:34:15.000Z</time>
      </trkpt>
      <trkpt lat="43.039703" lon="0.780879">
        <ele>430.6</ele>
        <time>1970-01-01T06:34:18.000Z</time>
      </trkpt>
      <trkpt lat="43.039689" lon="0.780948">
        <ele>429.8</ele>
        <time>1970-01-01T06:34:21.000Z</time>
      </trkpt>
      <trkpt lat="43.039684" lon="0.780951">
        <ele>429.6</ele>
        <time>1970-01-01T06:34:23.000Z</time>
      </trkpt>
      <trkpt lat="43.039631" lon="0.78099">
        <ele>429.6</ele>
        <time>1970-01-01T06:34:28.000Z</time>
      </trkpt>
      <trkpt lat="43.039433" lon="0.78117">
        <ele>429.6</ele>
        <time>1970-01-01T06:34:38.000Z</time>
      </trkpt>
      <trkpt lat="43.039399" lon="0.78119">
        <ele>429.6</ele>
        <time>1970-01-01T06:34:48.000Z</time>
      </trkpt>
      <trkpt lat="43.038913" lon="0.781614">
        <ele>429.8</ele>
        <time>1970-01-01T06:35:03.000Z</time>
      </trkpt>
      <trkpt lat="43.038439" lon="0.782039">
        <ele>430.4</ele>
        <time>1970-01-01T06:35:15.000Z</time>
      </trkpt>
      <trkpt lat="43.038262" lon="0.782199">
        <ele>431</ele>
        <time>1970-01-01T06:35:20.000Z</time>
      </trkpt>
      <trkpt lat="43.037979" lon="0.782435">
        <ele>432.6</ele>
        <time>1970-01-01T06:35:28.000Z</time>
      </trkpt>
      <trkpt lat="43.037702" lon="0.7826">
        <ele>433.4</ele>
        <time>1970-01-01T06:35:35.000Z</time>
      </trkpt>
      <trkpt lat="43.03762" lon="0.782653">
        <ele>433.6</ele>
        <time>1970-01-01T06:35:37.000Z</time>
      </trkpt>
      <trkpt lat="43.03736" lon="0.782798">
        <ele>434.4</ele>
        <time>1970-01-01T06:35:43.000Z</time>
      </trkpt>
      <trkpt lat="43.037262" lon="0.782847">
        <ele>434.4</ele>
        <time>1970-01-01T06:35:45.000Z</time>
      </trkpt>
      <trkpt lat="43.037175" lon="0.782909">
        <ele>434.4</ele>
        <time>1970-01-01T06:35:47.000Z</time>
      </trkpt>
      <trkpt lat="43.037021" lon="0.783007">
        <ele>434.8</ele>
        <time>1970-01-01T06:35:51.000Z</time>
      </trkpt>
      <trkpt lat="43.036948" lon="0.78305">
        <ele>434.8</ele>
        <time>1970-01-01T06:35:53.000Z</time>
      </trkpt>
      <trkpt lat="43.036584" lon="0.783271">
        <ele>436</ele>
        <time>1970-01-01T06:36:03.000Z</time>
      </trkpt>
      <trkpt lat="43.036148" lon="0.783514">
        <ele>437.4</ele>
        <time>1970-01-01T06:36:15.000Z</time>
      </trkpt>
      <trkpt lat="43.035606" lon="0.783644">
        <ele>437.6</ele>
        <time>1970-01-01T06:36:27.000Z</time>
      </trkpt>
      <trkpt lat="43.035102" lon="0.783784">
        <ele>437.4</ele>
        <time>1970-01-01T06:36:37.000Z</time>
      </trkpt>
      <trkpt lat="43.034571" lon="0.784054">
        <ele>437.6</ele>
        <time>1970-01-01T06:36:48.000Z</time>
      </trkpt>
      <trkpt lat="43.034087" lon="0.784402">
        <ele>439</ele>
        <time>1970-01-01T06:36:59.000Z</time>
      </trkpt>
      <trkpt lat="43.03404" lon="0.784434">
        <ele>439.2</ele>
        <time>1970-01-01T06:37:00.000Z</time>
      </trkpt>
      <trkpt lat="43.033721" lon="0.784648">
        <ele>440.2</ele>
        <time>1970-01-01T06:37:07.000Z</time>
      </trkpt>
      <trkpt lat="43.033234" lon="0.784977">
        <ele>441</ele>
        <time>1970-01-01T06:37:18.000Z</time>
      </trkpt>
      <trkpt lat="43.033145" lon="0.785042">
        <ele>441.4</ele>
        <time>1970-01-01T06:37:20.000Z</time>
      </trkpt>
      <trkpt lat="43.032619" lon="0.785381">
        <ele>442.4</ele>
        <time>1970-01-01T06:37:31.000Z</time>
      </trkpt>
      <trkpt lat="43.032523" lon="0.785447">
        <ele>442.6</ele>
        <time>1970-01-01T06:37:33.000Z</time>
      </trkpt>
      <trkpt lat="43.032006" lon="0.785784">
        <ele>443.2</ele>
        <time>1970-01-01T06:37:44.000Z</time>
      </trkpt>
      <trkpt lat="43.03147" lon="0.786124">
        <ele>443.6</ele>
        <time>1970-01-01T06:37:55.000Z</time>
      </trkpt>
      <trkpt lat="43.030981" lon="0.786453">
        <ele>443.6</ele>
        <time>1970-01-01T06:38:05.000Z</time>
      </trkpt>
      <trkpt lat="43.030491" lon="0.786773">
        <ele>443.6</ele>
        <time>1970-01-01T06:38:15.000Z</time>
      </trkpt>
      <trkpt lat="43.030047" lon="0.787212">
        <ele>443.6</ele>
        <time>1970-01-01T06:38:25.000Z</time>
      </trkpt>
      <trkpt lat="43.029631" lon="0.787767">
        <ele>443.4</ele>
        <time>1970-01-01T06:38:35.000Z</time>
      </trkpt>
      <trkpt lat="43.029236" lon="0.788273">
        <ele>443.6</ele>
        <time>1970-01-01T06:38:44.000Z</time>
      </trkpt>
      <trkpt lat="43.028815" lon="0.788701">
        <ele>444.2</ele>
        <time>1970-01-01T06:38:53.000Z</time>
      </trkpt>
      <trkpt lat="43.028305" lon="0.789074">
        <ele>444.4</ele>
        <time>1970-01-01T06:39:03.000Z</time>
      </trkpt>
      <trkpt lat="43.027753" lon="0.789331">
        <ele>445</ele>
        <time>1970-01-01T06:39:13.000Z</time>
      </trkpt>
      <trkpt lat="43.027643" lon="0.789375">
        <ele>445.2</ele>
        <time>1970-01-01T06:39:15.000Z</time>
      </trkpt>
      <trkpt lat="43.027086" lon="0.789604">
        <ele>445.8</ele>
        <time>1970-01-01T06:39:25.000Z</time>
      </trkpt>
      <trkpt lat="43.026561" lon="0.789817">
        <ele>446.6</ele>
        <time>1970-01-01T06:39:34.000Z</time>
      </trkpt>
      <trkpt lat="43.025993" lon="0.790055">
        <ele>447.4</ele>
        <time>1970-01-01T06:39:44.000Z</time>
      </trkpt>
      <trkpt lat="43.025824" lon="0.790126">
        <ele>447.6</ele>
        <time>1970-01-01T06:39:47.000Z</time>
      </trkpt>
      <trkpt lat="43.025282" lon="0.790457">
        <ele>448.4</ele>
        <time>1970-01-01T06:39:57.000Z</time>
      </trkpt>
      <trkpt lat="43.025083" lon="0.790629">
        <ele>448.8</ele>
        <time>1970-01-01T06:40:01.000Z</time>
      </trkpt>
      <trkpt lat="43.024858" lon="0.790872">
        <ele>449.2</ele>
        <time>1970-01-01T06:40:06.000Z</time>
      </trkpt>
      <trkpt lat="43.024549" lon="0.79132">
        <ele>449.8</ele>
        <time>1970-01-01T06:40:14.000Z</time>
      </trkpt>
      <trkpt lat="43.024222" lon="0.791934">
        <ele>450.4</ele>
        <time>1970-01-01T06:40:25.000Z</time>
      </trkpt>
      <trkpt lat="43.023916" lon="0.792558">
        <ele>450.8</ele>
        <time>1970-01-01T06:40:36.000Z</time>
      </trkpt>
      <trkpt lat="43.023833" lon="0.792717">
        <ele>451.2</ele>
        <time>1970-01-01T06:40:39.000Z</time>
      </trkpt>
      <trkpt lat="43.023498" lon="0.793313">
        <ele>452.4</ele>
        <time>1970-01-01T06:40:54.000Z</time>
      </trkpt>
      <trkpt lat="43.023136" lon="0.793862">
        <ele>453</ele>
        <time>1970-01-01T06:41:11.000Z</time>
      </trkpt>
      <trkpt lat="43.0231" lon="0.793936">
        <ele>453.2</ele>
        <time>1970-01-01T06:41:16.000Z</time>
      </trkpt>
      <trkpt lat="43.023143" lon="0.794127">
        <ele>453.4</ele>
        <time>1970-01-01T06:41:26.000Z</time>
      </trkpt>
      <trkpt lat="43.023109" lon="0.79411">
        <ele>453.8</ele>
        <time>1970-01-01T06:43:17.000Z</time>
      </trkpt>
      <trkpt lat="43.023055" lon="0.794127">
        <ele>453.8</ele>
        <time>1970-01-01T06:43:21.000Z</time>
      </trkpt>
      <trkpt lat="43.022867" lon="0.794249">
        <ele>454</ele>
        <time>1970-01-01T06:43:28.000Z</time>
      </trkpt>
      <trkpt lat="43.022565" lon="0.794654">
        <ele>454</ele>
        <time>1970-01-01T06:43:38.000Z</time>
      </trkpt>
      <trkpt lat="43.022117" lon="0.795088">
        <ele>454.2</ele>
        <time>1970-01-01T06:43:49.000Z</time>
      </trkpt>
      <trkpt lat="43.02165" lon="0.795465">
        <ele>454.4</ele>
        <time>1970-01-01T06:43:59.000Z</time>
      </trkpt>
      <trkpt lat="43.021561" lon="0.795531">
        <ele>454.6</ele>
        <time>1970-01-01T06:44:01.000Z</time>
      </trkpt>
      <trkpt lat="43.021395" lon="0.795633">
        <ele>455.2</ele>
        <time>1970-01-01T06:44:05.000Z</time>
      </trkpt>
      <trkpt lat="43.021157" lon="0.795811">
        <ele>455.4</ele>
        <time>1970-01-01T06:44:15.000Z</time>
      </trkpt>
      <trkpt lat="43.020788" lon="0.796407">
        <ele>455.4</ele>
        <time>1970-01-01T06:44:29.000Z</time>
      </trkpt>
      <trkpt lat="43.020563" lon="0.796761">
        <ele>455.6</ele>
        <time>1970-01-01T06:44:36.000Z</time>
      </trkpt>
      <trkpt lat="43.020101" lon="0.797165">
        <ele>456</ele>
        <time>1970-01-01T06:44:47.000Z</time>
      </trkpt>
      <trkpt lat="43.020022" lon="0.797227">
        <ele>456</ele>
        <time>1970-01-01T06:44:49.000Z</time>
      </trkpt>
      <trkpt lat="43.019535" lon="0.797616">
        <ele>456.8</ele>
        <time>1970-01-01T06:45:05.000Z</time>
      </trkpt>
      <trkpt lat="43.019351" lon="0.797732">
        <ele>457.2</ele>
        <time>1970-01-01T06:45:10.000Z</time>
      </trkpt>
      <trkpt lat="43.018882" lon="0.797989">
        <ele>458</ele>
        <time>1970-01-01T06:45:23.000Z</time>
      </trkpt>
      <trkpt lat="43.018736" lon="0.79809">
        <ele>458.2</ele>
        <time>1970-01-01T06:45:27.000Z</time>
      </trkpt>
      <trkpt lat="43.01866" lon="0.798131">
        <ele>458.4</ele>
        <time>1970-01-01T06:45:29.000Z</time>
      </trkpt>
      <trkpt lat="43.018583" lon="0.79817">
        <ele>458.8</ele>
        <time>1970-01-01T06:45:31.000Z</time>
      </trkpt>
      <trkpt lat="43.018211" lon="0.798384">
        <ele>459.2</ele>
        <time>1970-01-01T06:45:45.000Z</time>
      </trkpt>
      <trkpt lat="43.018178" lon="0.798384">
        <ele>459.4</ele>
        <time>1970-01-01T06:48:47.000Z</time>
      </trkpt>
      <trkpt lat="43.017715" lon="0.797957">
        <ele>460.2</ele>
        <time>1970-01-01T06:49:07.000Z</time>
      </trkpt>
      <trkpt lat="43.017616" lon="0.797841">
        <ele>460.8</ele>
        <time>1970-01-01T06:49:11.000Z</time>
      </trkpt>
      <trkpt lat="43.017207" lon="0.797579">
        <ele>460.6</ele>
        <time>1970-01-01T06:49:27.000Z</time>
      </trkpt>
      <trkpt lat="43.01671" lon="0.797848">
        <ele>461.4</ele>
        <time>1970-01-01T06:49:45.000Z</time>
      </trkpt>
      <trkpt lat="43.01653" lon="0.798206">
        <ele>462</ele>
        <time>1970-01-01T06:49:54.000Z</time>
      </trkpt>
      <trkpt lat="43.016232" lon="0.798678">
        <ele>463</ele>
        <time>1970-01-01T06:50:07.000Z</time>
      </trkpt>
      <trkpt lat="43.015877" lon="0.798777">
        <ele>464.4</ele>
        <time>1970-01-01T06:50:17.000Z</time>
      </trkpt>
      <trkpt lat="43.015469" lon="0.7987">
        <ele>465.4</ele>
        <time>1970-01-01T06:50:29.000Z</time>
      </trkpt>
      <trkpt lat="43.015247" lon="0.798615">
        <ele>466.6</ele>
        <time>1970-01-01T06:50:36.000Z</time>
      </trkpt>
      <trkpt lat="43.0148" lon="0.7982">
        <ele>467.4</ele>
        <time>1970-01-01T06:50:47.000Z</time>
      </trkpt>
      <trkpt lat="43.014733" lon="0.798122">
        <ele>467.6</ele>
        <time>1970-01-01T06:50:49.000Z</time>
      </trkpt>
      <trkpt lat="43.014269" lon="0.797774">
        <ele>468.8</ele>
        <time>1970-01-01T06:51:01.000Z</time>
      </trkpt>
      <trkpt lat="43.014226" lon="0.797751">
        <ele>468.8</ele>
        <time>1970-01-01T06:51:02.000Z</time>
      </trkpt>
      <trkpt lat="43.013932" lon="0.797689">
        <ele>469</ele>
        <time>1970-01-01T06:51:09.000Z</time>
      </trkpt>
      <trkpt lat="43.013847" lon="0.797704">
        <ele>469</ele>
        <time>1970-01-01T06:51:11.000Z</time>
      </trkpt>
      <trkpt lat="43.013593" lon="0.79789">
        <ele>469.8</ele>
        <time>1970-01-01T06:51:18.000Z</time>
      </trkpt>
      <trkpt lat="43.013495" lon="0.798002">
        <ele>471.2</ele>
        <time>1970-01-01T06:51:22.000Z</time>
      </trkpt>
      <trkpt lat="43.013404" lon="0.798117">
        <ele>472.2</ele>
        <time>1970-01-01T06:51:27.000Z</time>
      </trkpt>
      <trkpt lat="43.01292" lon="0.798499">
        <ele>471.4</ele>
        <time>1970-01-01T06:51:42.000Z</time>
      </trkpt>
      <trkpt lat="43.0125" lon="0.798483">
        <ele>471.2</ele>
        <time>1970-01-01T06:51:54.000Z</time>
      </trkpt>
      <trkpt lat="43.012134" lon="0.798425">
        <ele>471</ele>
        <time>1970-01-01T06:52:02.000Z</time>
      </trkpt>
      <trkpt lat="43.011577" lon="0.798333">
        <ele>472</ele>
        <time>1970-01-01T06:52:15.000Z</time>
      </trkpt>
      <trkpt lat="43.011452" lon="0.798339">
        <ele>472.4</ele>
        <time>1970-01-01T06:52:18.000Z</time>
      </trkpt>
      <trkpt lat="43.01121" lon="0.798367">
        <ele>473.6</ele>
        <time>1970-01-01T06:52:24.000Z</time>
      </trkpt>
      <trkpt lat="43.011018" lon="0.798405">
        <ele>474.8</ele>
        <time>1970-01-01T06:52:29.000Z</time>
      </trkpt>
      <trkpt lat="43.010834" lon="0.798474">
        <ele>475.8</ele>
        <time>1970-01-01T06:52:34.000Z</time>
      </trkpt>
      <trkpt lat="43.010284" lon="0.79874">
        <ele>476.2</ele>
        <time>1970-01-01T06:52:47.000Z</time>
      </trkpt>
      <trkpt lat="43.009904" lon="0.798926">
        <ele>476.2</ele>
        <time>1970-01-01T06:52:55.000Z</time>
      </trkpt>
      <trkpt lat="43.00976" lon="0.798933">
        <ele>476.4</ele>
        <time>1970-01-01T06:52:58.000Z</time>
      </trkpt>
      <trkpt lat="43.009444" lon="0.799031">
        <ele>477</ele>
        <time>1970-01-01T06:53:06.000Z</time>
      </trkpt>
      <trkpt lat="43.00923" lon="0.7991">
        <ele>478</ele>
        <time>1970-01-01T06:53:14.000Z</time>
      </trkpt>
      <trkpt lat="43.009058" lon="0.799125">
        <ele>479</ele>
        <time>1970-01-01T06:53:25.000Z</time>
      </trkpt>
      <trkpt lat="43.009135" lon="0.799096">
        <ele>479.2</ele>
        <time>1970-01-01T06:59:02.000Z</time>
      </trkpt>
      <trkpt lat="43.009334" lon="0.799095">
        <ele>478.8</ele>
        <time>1970-01-01T06:59:08.000Z</time>
      </trkpt>
      <trkpt lat="43.009379" lon="0.799082">
        <ele>478.6</ele>
        <time>1970-01-01T06:59:09.000Z</time>
      </trkpt>
      <trkpt lat="43.009626" lon="0.799001">
        <ele>477.6</ele>
        <time>1970-01-01T06:59:14.000Z</time>
      </trkpt>
      <trkpt lat="43.009893" lon="0.798929">
        <ele>476.6</ele>
        <time>1970-01-01T06:59:19.000Z</time>
      </trkpt>
      <trkpt lat="43.010419" lon="0.798723">
        <ele>476.6</ele>
        <time>1970-01-01T06:59:31.000Z</time>
      </trkpt>
      <trkpt lat="43.010943" lon="0.798475">
        <ele>476.4</ele>
        <time>1970-01-01T06:59:44.000Z</time>
      </trkpt>
      <trkpt lat="43.011162" lon="0.798417">
        <ele>475.6</ele>
        <time>1970-01-01T06:59:48.000Z</time>
      </trkpt>
      <trkpt lat="43.011496" lon="0.798395">
        <ele>474.4</ele>
        <time>1970-01-01T06:59:53.000Z</time>
      </trkpt>
      <trkpt lat="43.011777" lon="0.79841">
        <ele>473.2</ele>
        <time>1970-01-01T06:59:57.000Z</time>
      </trkpt>
      <trkpt lat="43.011972" lon="0.798431">
        <ele>472.2</ele>
        <time>1970-01-01T07:00:00.000Z</time>
      </trkpt>
      <trkpt lat="43.012542" lon="0.798522">
        <ele>471.8</ele>
        <time>1970-01-01T07:00:10.000Z</time>
      </trkpt>
      <trkpt lat="43.01287" lon="0.798586">
        <ele>471.6</ele>
        <time>1970-01-01T07:00:17.000Z</time>
      </trkpt>
      <trkpt lat="43.013096" lon="0.798802">
        <ele>473.4</ele>
        <time>1970-01-01T07:00:25.000Z</time>
      </trkpt>
      <trkpt lat="43.013122" lon="0.798901">
        <ele>474.6</ele>
        <time>1970-01-01T07:00:28.000Z</time>
      </trkpt>
      <trkpt lat="43.013158" lon="0.799108">
        <ele>475.8</ele>
        <time>1970-01-01T07:00:34.000Z</time>
      </trkpt>
      <trkpt lat="43.013168" lon="0.799273">
        <ele>477.2</ele>
        <time>1970-01-01T07:00:40.000Z</time>
      </trkpt>
      <trkpt lat="43.013176" lon="0.799466">
        <ele>478.2</ele>
        <time>1970-01-01T07:00:48.000Z</time>
      </trkpt>
      <trkpt lat="43.013178" lon="0.79965">
        <ele>479.2</ele>
        <time>1970-01-01T07:00:54.000Z</time>
      </trkpt>
      <trkpt lat="43.013194" lon="0.799862">
        <ele>480.4</ele>
        <time>1970-01-01T07:01:01.000Z</time>
      </trkpt>
      <trkpt lat="43.013185" lon="0.800052">
        <ele>481.6</ele>
        <time>1970-01-01T07:01:07.000Z</time>
      </trkpt>
      <trkpt lat="43.013196" lon="0.800244">
        <ele>482.6</ele>
        <time>1970-01-01T07:01:13.000Z</time>
      </trkpt>
      <trkpt lat="43.013204" lon="0.800435">
        <ele>483.6</ele>
        <time>1970-01-01T07:01:19.000Z</time>
      </trkpt>
      <trkpt lat="43.013206" lon="0.800599">
        <ele>485</ele>
        <time>1970-01-01T07:01:24.000Z</time>
      </trkpt>
      <trkpt lat="43.013215" lon="0.800797">
        <ele>486</ele>
        <time>1970-01-01T07:01:30.000Z</time>
      </trkpt>
      <trkpt lat="43.01322" lon="0.800993">
        <ele>487.2</ele>
        <time>1970-01-01T07:01:36.000Z</time>
      </trkpt>
      <trkpt lat="43.013229" lon="0.801189">
        <ele>488.4</ele>
        <time>1970-01-01T07:01:42.000Z</time>
      </trkpt>
      <trkpt lat="43.013231" lon="0.801352">
        <ele>489.4</ele>
        <time>1970-01-01T07:01:47.000Z</time>
      </trkpt>
      <trkpt lat="43.013233" lon="0.80153">
        <ele>490.6</ele>
        <time>1970-01-01T07:01:53.000Z</time>
      </trkpt>
      <trkpt lat="43.013237" lon="0.80155">
        <ele>490.6</ele>
        <time>1970-01-01T07:01:55.000Z</time>
      </trkpt>
      <trkpt lat="43.013244" lon="0.80162">
        <ele>491.4</ele>
        <time>1970-01-01T07:02:10.000Z</time>
      </trkpt>
      <trkpt lat="43.01324" lon="0.801651">
        <ele>491.6</ele>
        <time>1970-01-01T07:02:11.000Z</time>
      </trkpt>
      <trkpt lat="43.01325" lon="0.801907">
        <ele>492.6</ele>
        <time>1970-01-01T07:02:19.000Z</time>
      </trkpt>
      <trkpt lat="43.013252" lon="0.802073">
        <ele>493.8</ele>
        <time>1970-01-01T07:02:24.000Z</time>
      </trkpt>
      <trkpt lat="43.013267" lon="0.802282">
        <ele>495</ele>
        <time>1970-01-01T07:02:30.000Z</time>
      </trkpt>
      <trkpt lat="43.013278" lon="0.802478">
        <ele>496</ele>
        <time>1970-01-01T07:02:36.000Z</time>
      </trkpt>
      <trkpt lat="43.013297" lon="0.802646">
        <ele>497.2</ele>
        <time>1970-01-01T07:02:41.000Z</time>
      </trkpt>
      <trkpt lat="43.01335" lon="0.802876">
        <ele>498.4</ele>
        <time>1970-01-01T07:02:48.000Z</time>
      </trkpt>
      <trkpt lat="43.013381" lon="0.802995">
        <ele>499.4</ele>
        <time>1970-01-01T07:02:52.000Z</time>
      </trkpt>
      <trkpt lat="43.013445" lon="0.80317">
        <ele>500.6</ele>
        <time>1970-01-01T07:02:58.000Z</time>
      </trkpt>
      <trkpt lat="43.013522" lon="0.803344">
        <ele>502</ele>
        <time>1970-01-01T07:03:04.000Z</time>
      </trkpt>
      <trkpt lat="43.013642" lon="0.803446">
        <ele>503</ele>
        <time>1970-01-01T07:03:10.000Z</time>
      </trkpt>
      <trkpt lat="43.013898" lon="0.803352">
        <ele>504</ele>
        <time>1970-01-01T07:03:22.000Z</time>
      </trkpt>
      <trkpt lat="43.014065" lon="0.803028">
        <ele>504.8</ele>
        <time>1970-01-01T07:03:41.000Z</time>
      </trkpt>
      <trkpt lat="43.014056" lon="0.803009">
        <ele>504.8</ele>
        <time>1970-01-01T07:03:44.000Z</time>
      </trkpt>
      <trkpt lat="43.014129" lon="0.803147">
        <ele>505</ele>
        <time>1970-01-01T07:04:28.000Z</time>
      </trkpt>
      <trkpt lat="43.01464" lon="0.803435">
        <ele>504.8</ele>
        <time>1970-01-01T07:04:49.000Z</time>
      </trkpt>
      <trkpt lat="43.014873" lon="0.803542">
        <ele>505.2</ele>
        <time>1970-01-01T07:05:00.000Z</time>
      </trkpt>
      <trkpt lat="43.01489" lon="0.803535">
        <ele>505.2</ele>
        <time>1970-01-01T07:05:03.000Z</time>
      </trkpt>
      <trkpt lat="43.014785" lon="0.80346">
        <ele>505.4</ele>
        <time>1970-01-01T07:05:37.000Z</time>
      </trkpt>
      <trkpt lat="43.014695" lon="0.803383">
        <ele>505</ele>
        <time>1970-01-01T07:05:46.000Z</time>
      </trkpt>
      <trkpt lat="43.014618" lon="0.803341">
        <ele>505</ele>
        <time>1970-01-01T07:05:59.000Z</time>
      </trkpt>
      <trkpt lat="43.0147" lon="0.803423">
        <ele>505.6</ele>
        <time>1970-01-01T07:10:38.000Z</time>
      </trkpt>
      <trkpt lat="43.014977" lon="0.803527">
        <ele>505.8</ele>
        <time>1970-01-01T07:11:05.000Z</time>
      </trkpt>
      <trkpt lat="43.015039" lon="0.803449">
        <ele>505.6</ele>
        <time>1970-01-01T07:11:15.000Z</time>
      </trkpt>
      <trkpt lat="43.015105" lon="0.803415">
        <ele>505.6</ele>
        <time>1970-01-01T07:11:28.000Z</time>
      </trkpt>
      <trkpt lat="43.01524" lon="0.803476">
        <ele>505.2</ele>
        <time>1970-01-01T07:33:42.000Z</time>
      </trkpt>
      <trkpt lat="43.015219" lon="0.803548">
        <ele>505.4</ele>
        <time>1970-01-01T07:33:47.000Z</time>
      </trkpt>
      <trkpt lat="43.01523" lon="0.803555">
        <ele>505.6</ele>
        <time>1970-01-01T07:33:50.000Z</time>
      </trkpt>
      <trkpt lat="43.015268" lon="0.803593">
        <ele>505.4</ele>
        <time>1970-01-01T07:33:55.000Z</time>
      </trkpt>
      <trkpt lat="43.015364" lon="0.803626">
        <ele>505</ele>
        <time>1970-01-01T07:33:59.000Z</time>
      </trkpt>
      <trkpt lat="43.015487" lon="0.803687">
        <ele>503.8</ele>
        <time>1970-01-01T07:34:04.000Z</time>
      </trkpt>
      <trkpt lat="43.015552" lon="0.803706">
        <ele>502.8</ele>
        <time>1970-01-01T07:34:06.000Z</time>
      </trkpt>
      <trkpt lat="43.015679" lon="0.803736">
        <ele>501.8</ele>
        <time>1970-01-01T07:34:10.000Z</time>
      </trkpt>
      <trkpt lat="43.01572" lon="0.803603">
        <ele>500.6</ele>
        <time>1970-01-01T07:34:14.000Z</time>
      </trkpt>
      <trkpt lat="43.015753" lon="0.803453">
        <ele>499.6</ele>
        <time>1970-01-01T07:34:17.000Z</time>
      </trkpt>
      <trkpt lat="43.015731" lon="0.803193">
        <ele>498.6</ele>
        <time>1970-01-01T07:34:21.000Z</time>
      </trkpt>
      <trkpt lat="43.015734" lon="0.803133">
        <ele>498.4</ele>
        <time>1970-01-01T07:34:22.000Z</time>
      </trkpt>
      <trkpt lat="43.015741" lon="0.80239">
        <ele>499</ele>
        <time>1970-01-01T07:34:36.000Z</time>
      </trkpt>
      <trkpt lat="43.015755" lon="0.801604">
        <ele>498</ele>
        <time>1970-01-01T07:34:50.000Z</time>
      </trkpt>
      <trkpt lat="43.015788" lon="0.801574">
        <ele>497.6</ele>
        <time>1970-01-01T07:34:51.000Z</time>
      </trkpt>
      <trkpt lat="43.015814" lon="0.801558">
        <ele>497.2</ele>
        <time>1970-01-01T07:34:52.000Z</time>
      </trkpt>
      <trkpt lat="43.015903" lon="0.801646">
        <ele>496.4</ele>
        <time>1970-01-01T07:34:55.000Z</time>
      </trkpt>
      <trkpt lat="43.015941" lon="0.801805">
        <ele>495.2</ele>
        <time>1970-01-01T07:34:59.000Z</time>
      </trkpt>
      <trkpt lat="43.015948" lon="0.801847">
        <ele>495</ele>
        <time>1970-01-01T07:35:00.000Z</time>
      </trkpt>
      <trkpt lat="43.015959" lon="0.801974">
        <ele>494</ele>
        <time>1970-01-01T07:35:03.000Z</time>
      </trkpt>
      <trkpt lat="43.015965" lon="0.802091">
        <ele>493</ele>
        <time>1970-01-01T07:35:06.000Z</time>
      </trkpt>
      <trkpt lat="43.015977" lon="0.802108">
        <ele>492.8</ele>
        <time>1970-01-01T07:35:08.000Z</time>
      </trkpt>
      <trkpt lat="43.015984" lon="0.802149">
        <ele>492.6</ele>
        <time>1970-01-01T07:35:21.000Z</time>
      </trkpt>
      <trkpt lat="43.015992" lon="0.802247">
        <ele>492</ele>
        <time>1970-01-01T07:35:24.000Z</time>
      </trkpt>
      <trkpt lat="43.016005" lon="0.802268">
        <ele>491.8</ele>
        <time>1970-01-01T07:35:25.000Z</time>
      </trkpt>
      <trkpt lat="43.016081" lon="0.802244">
        <ele>490.8</ele>
        <time>1970-01-01T07:35:28.000Z</time>
      </trkpt>
      <trkpt lat="43.016148" lon="0.802095">
        <ele>490</ele>
        <time>1970-01-01T07:35:31.000Z</time>
      </trkpt>
      <trkpt lat="43.016164" lon="0.802039">
        <ele>489.6</ele>
        <time>1970-01-01T07:35:32.000Z</time>
      </trkpt>
      <trkpt lat="43.016217" lon="0.801856">
        <ele>488</ele>
        <time>1970-01-01T07:35:35.000Z</time>
      </trkpt>
      <trkpt lat="43.016267" lon="0.801711">
        <ele>486.6</ele>
        <time>1970-01-01T07:35:37.000Z</time>
      </trkpt>
      <trkpt lat="43.016348" lon="0.801464">
        <ele>485.2</ele>
        <time>1970-01-01T07:35:40.000Z</time>
      </trkpt>
      <trkpt lat="43.016407" lon="0.801273">
        <ele>484</ele>
        <time>1970-01-01T07:35:42.000Z</time>
      </trkpt>
      <trkpt lat="43.016474" lon="0.801065">
        <ele>482.8</ele>
        <time>1970-01-01T07:35:44.000Z</time>
      </trkpt>
      <trkpt lat="43.016549" lon="0.800844">
        <ele>481.4</ele>
        <time>1970-01-01T07:35:46.000Z</time>
      </trkpt>
      <trkpt lat="43.016624" lon="0.800607">
        <ele>480</ele>
        <time>1970-01-01T07:35:48.000Z</time>
      </trkpt>
      <trkpt lat="43.016699" lon="0.800373">
        <ele>478.6</ele>
        <time>1970-01-01T07:35:50.000Z</time>
      </trkpt>
      <trkpt lat="43.016784" lon="0.80014">
        <ele>476.8</ele>
        <time>1970-01-01T07:35:52.000Z</time>
      </trkpt>
      <trkpt lat="43.016893" lon="0.799933">
        <ele>475</ele>
        <time>1970-01-01T07:35:54.000Z</time>
      </trkpt>
      <trkpt lat="43.016958" lon="0.79984">
        <ele>473.8</ele>
        <time>1970-01-01T07:35:55.000Z</time>
      </trkpt>
      <trkpt lat="43.017028" lon="0.799751">
        <ele>473.2</ele>
        <time>1970-01-01T07:35:56.000Z</time>
      </trkpt>
      <trkpt lat="43.017103" lon="0.799665">
        <ele>472.6</ele>
        <time>1970-01-01T07:35:57.000Z</time>
      </trkpt>
      <trkpt lat="43.017255" lon="0.799493">
        <ele>471.2</ele>
        <time>1970-01-01T07:35:59.000Z</time>
      </trkpt>
      <trkpt lat="43.017411" lon="0.799321">
        <ele>470.2</ele>
        <time>1970-01-01T07:36:01.000Z</time>
      </trkpt>
      <trkpt lat="43.017554" lon="0.799161">
        <ele>468.4</ele>
        <time>1970-01-01T07:36:03.000Z</time>
      </trkpt>
      <trkpt lat="43.01761" lon="0.79908">
        <ele>468</ele>
        <time>1970-01-01T07:36:04.000Z</time>
      </trkpt>
      <trkpt lat="43.017658" lon="0.799001">
        <ele>467.4</ele>
        <time>1970-01-01T07:36:05.000Z</time>
      </trkpt>
      <trkpt lat="43.017703" lon="0.79893">
        <ele>466.2</ele>
        <time>1970-01-01T07:36:06.000Z</time>
      </trkpt>
      <trkpt lat="43.017747" lon="0.798868">
        <ele>465.6</ele>
        <time>1970-01-01T07:36:07.000Z</time>
      </trkpt>
      <trkpt lat="43.017829" lon="0.79877">
        <ele>465</ele>
        <time>1970-01-01T07:36:09.000Z</time>
      </trkpt>
      <trkpt lat="43.017941" lon="0.798669">
        <ele>463.8</ele>
        <time>1970-01-01T07:36:13.000Z</time>
      </trkpt>
      <trkpt lat="43.01796" lon="0.798646">
        <ele>463.4</ele>
        <time>1970-01-01T07:36:16.000Z</time>
      </trkpt>
      <trkpt lat="43.017982" lon="0.798626">
        <ele>463.2</ele>
        <time>1970-01-01T07:36:30.000Z</time>
      </trkpt>
      <trkpt lat="43.018076" lon="0.798554">
        <ele>462.8</ele>
        <time>1970-01-01T07:36:34.000Z</time>
      </trkpt>
      <trkpt lat="43.018174" lon="0.798447">
        <ele>462.6</ele>
        <time>1970-01-01T07:36:38.000Z</time>
      </trkpt>
      <trkpt lat="43.018125" lon="0.798307">
        <ele>462.2</ele>
        <time>1970-01-01T07:36:42.000Z</time>
      </trkpt>
      <trkpt lat="43.018096" lon="0.798287">
        <ele>462.2</ele>
        <time>1970-01-01T07:36:43.000Z</time>
      </trkpt>
      <trkpt lat="43.017647" lon="0.797844">
        <ele>462.8</ele>
        <time>1970-01-01T07:36:59.000Z</time>
      </trkpt>
      <trkpt lat="43.01723" lon="0.797552">
        <ele>463.4</ele>
        <time>1970-01-01T07:37:11.000Z</time>
      </trkpt>
      <trkpt lat="43.01739" lon="0.797042">
        <ele>463.8</ele>
        <time>1970-01-01T07:37:24.000Z</time>
      </trkpt>
      <trkpt lat="43.017633" lon="0.796919">
        <ele>464.4</ele>
        <time>1970-01-01T07:37:33.000Z</time>
      </trkpt>
      <trkpt lat="43.017741" lon="0.796843">
        <ele>465.2</ele>
        <time>1970-01-01T07:37:39.000Z</time>
      </trkpt>
      <trkpt lat="43.017859" lon="0.796749">
        <ele>466.4</ele>
        <time>1970-01-01T07:37:46.000Z</time>
      </trkpt>
      <trkpt lat="43.017968" lon="0.796681">
        <ele>467.8</ele>
        <time>1970-01-01T07:37:52.000Z</time>
      </trkpt>
      <trkpt lat="43.018103" lon="0.796578">
        <ele>469</ele>
        <time>1970-01-01T07:38:00.000Z</time>
      </trkpt>
      <trkpt lat="43.018208" lon="0.796509">
        <ele>470.2</ele>
        <time>1970-01-01T07:38:06.000Z</time>
      </trkpt>
      <trkpt lat="43.018294" lon="0.796442">
        <ele>471.2</ele>
        <time>1970-01-01T07:38:11.000Z</time>
      </trkpt>
      <trkpt lat="43.018371" lon="0.796355">
        <ele>472.2</ele>
        <time>1970-01-01T07:38:16.000Z</time>
      </trkpt>
      <trkpt lat="43.018458" lon="0.796264">
        <ele>473.2</ele>
        <time>1970-01-01T07:38:22.000Z</time>
      </trkpt>
      <trkpt lat="43.018536" lon="0.796155">
        <ele>474.4</ele>
        <time>1970-01-01T07:38:28.000Z</time>
      </trkpt>
      <trkpt lat="43.018604" lon="0.796066">
        <ele>475.4</ele>
        <time>1970-01-01T07:38:33.000Z</time>
      </trkpt>
      <trkpt lat="43.01868" lon="0.795931">
        <ele>476.6</ele>
        <time>1970-01-01T07:38:39.000Z</time>
      </trkpt>
      <trkpt lat="43.018701" lon="0.795881">
        <ele>477</ele>
        <time>1970-01-01T07:38:41.000Z</time>
      </trkpt>
      <trkpt lat="43.018757" lon="0.795765">
        <ele>477.8</ele>
        <time>1970-01-01T07:38:46.000Z</time>
      </trkpt>
      <trkpt lat="43.018823" lon="0.795619">
        <ele>478.8</ele>
        <time>1970-01-01T07:38:52.000Z</time>
      </trkpt>
      <trkpt lat="43.018884" lon="0.795504">
        <ele>480</ele>
        <time>1970-01-01T07:38:57.000Z</time>
      </trkpt>
      <trkpt lat="43.018922" lon="0.795349">
        <ele>481.2</ele>
        <time>1970-01-01T07:39:03.000Z</time>
      </trkpt>
      <trkpt lat="43.018923" lon="0.795206">
        <ele>482.2</ele>
        <time>1970-01-01T07:39:08.000Z</time>
      </trkpt>
      <trkpt lat="43.018776" lon="0.794775">
        <ele>483.2</ele>
        <time>1970-01-01T07:39:22.000Z</time>
      </trkpt>
      <trkpt lat="43.018671" lon="0.794533">
        <ele>484</ele>
        <time>1970-01-01T07:39:30.000Z</time>
      </trkpt>
      <trkpt lat="43.018367" lon="0.794289">
        <ele>485</ele>
        <time>1970-01-01T07:39:45.000Z</time>
      </trkpt>
      <trkpt lat="43.018251" lon="0.794217">
        <ele>486.4</ele>
        <time>1970-01-01T07:39:51.000Z</time>
      </trkpt>
      <trkpt lat="43.01813" lon="0.794125">
        <ele>487.4</ele>
        <time>1970-01-01T07:39:58.000Z</time>
      </trkpt>
      <trkpt lat="43.017965" lon="0.793999">
        <ele>488.4</ele>
        <time>1970-01-01T07:40:07.000Z</time>
      </trkpt>
      <trkpt lat="43.017783" lon="0.793846">
        <ele>489.4</ele>
        <time>1970-01-01T07:40:17.000Z</time>
      </trkpt>
      <trkpt lat="43.017551" lon="0.793687">
        <ele>490.6</ele>
        <time>1970-01-01T07:40:27.000Z</time>
      </trkpt>
      <trkpt lat="43.017405" lon="0.793556">
        <ele>491.8</ele>
        <time>1970-01-01T07:40:34.000Z</time>
      </trkpt>
      <trkpt lat="43.017319" lon="0.793359">
        <ele>492.8</ele>
        <time>1970-01-01T07:40:41.000Z</time>
      </trkpt>
      <trkpt lat="43.017271" lon="0.793118">
        <ele>494</ele>
        <time>1970-01-01T07:40:50.000Z</time>
      </trkpt>
      <trkpt lat="43.017258" lon="0.792981">
        <ele>495.2</ele>
        <time>1970-01-01T07:40:57.000Z</time>
      </trkpt>
      <trkpt lat="43.017251" lon="0.792838">
        <ele>496.2</ele>
        <time>1970-01-01T07:41:03.000Z</time>
      </trkpt>
      <trkpt lat="43.017247" lon="0.792736">
        <ele>497.4</ele>
        <time>1970-01-01T07:41:08.000Z</time>
      </trkpt>
      <trkpt lat="43.017241" lon="0.792506">
        <ele>498.6</ele>
        <time>1970-01-01T07:41:18.000Z</time>
      </trkpt>
      <trkpt lat="43.017279" lon="0.792354">
        <ele>499.6</ele>
        <time>1970-01-01T07:41:26.000Z</time>
      </trkpt>
      <trkpt lat="43.017342" lon="0.792194">
        <ele>500.8</ele>
        <time>1970-01-01T07:41:35.000Z</time>
      </trkpt>
      <trkpt lat="43.017428" lon="0.792004">
        <ele>501</ele>
        <time>1970-01-01T07:44:45.000Z</time>
      </trkpt>
      <trkpt lat="43.017456" lon="0.791953">
        <ele>501.2</ele>
        <time>1970-01-01T07:44:48.000Z</time>
      </trkpt>
      <trkpt lat="43.017512" lon="0.791824">
        <ele>502.2</ele>
        <time>1970-01-01T07:44:54.000Z</time>
      </trkpt>
      <trkpt lat="43.017557" lon="0.791701">
        <ele>502.8</ele>
        <time>1970-01-01T07:44:59.000Z</time>
      </trkpt>
      <trkpt lat="43.017615" lon="0.791533">
        <ele>504</ele>
        <time>1970-01-01T07:45:07.000Z</time>
      </trkpt>
      <trkpt lat="43.017654" lon="0.791395">
        <ele>505.2</ele>
        <time>1970-01-01T07:45:13.000Z</time>
      </trkpt>
      <trkpt lat="43.017691" lon="0.791265">
        <ele>506.2</ele>
        <time>1970-01-01T07:45:19.000Z</time>
      </trkpt>
      <trkpt lat="43.017708" lon="0.79115">
        <ele>507.4</ele>
        <time>1970-01-01T07:45:24.000Z</time>
      </trkpt>
      <trkpt lat="43.017706" lon="0.791131">
        <ele>507.6</ele>
        <time>1970-01-01T07:45:25.000Z</time>
      </trkpt>
      <trkpt lat="43.017706" lon="0.790996">
        <ele>508.6</ele>
        <time>1970-01-01T07:45:31.000Z</time>
      </trkpt>
      <trkpt lat="43.017703" lon="0.790944">
        <ele>509</ele>
        <time>1970-01-01T07:45:33.000Z</time>
      </trkpt>
      <trkpt lat="43.017695" lon="0.790817">
        <ele>509.8</ele>
        <time>1970-01-01T07:45:38.000Z</time>
      </trkpt>
      <trkpt lat="43.017787" lon="0.790508">
        <ele>511</ele>
        <time>1970-01-01T07:45:51.000Z</time>
      </trkpt>
      <trkpt lat="43.017878" lon="0.790329">
        <ele>512.2</ele>
        <time>1970-01-01T07:46:00.000Z</time>
      </trkpt>
      <trkpt lat="43.017968" lon="0.790157">
        <ele>513.4</ele>
        <time>1970-01-01T07:46:08.000Z</time>
      </trkpt>
      <trkpt lat="43.018016" lon="0.790048">
        <ele>514.4</ele>
        <time>1970-01-01T07:46:14.000Z</time>
      </trkpt>
      <trkpt lat="43.018029" lon="0.789928">
        <ele>515.4</ele>
        <time>1970-01-01T07:46:19.000Z</time>
      </trkpt>
      <trkpt lat="43.018038" lon="0.789834">
        <ele>516.4</ele>
        <time>1970-01-01T07:46:23.000Z</time>
      </trkpt>
      <trkpt lat="43.018059" lon="0.789674">
        <ele>517.4</ele>
        <time>1970-01-01T07:46:31.000Z</time>
      </trkpt>
      <trkpt lat="43.018063" lon="0.789658">
        <ele>517.8</ele>
        <time>1970-01-01T07:46:32.000Z</time>
      </trkpt>
      <trkpt lat="43.018064" lon="0.789634">
        <ele>518.2</ele>
        <time>1970-01-01T07:46:33.000Z</time>
      </trkpt>
      <trkpt lat="43.01805" lon="0.789511">
        <ele>518.8</ele>
        <time>1970-01-01T07:46:38.000Z</time>
      </trkpt>
      <trkpt lat="43.018027" lon="0.78928">
        <ele>519.8</ele>
        <time>1970-01-01T07:46:47.000Z</time>
      </trkpt>
      <trkpt lat="43.017987" lon="0.789053">
        <ele>520.8</ele>
        <time>1970-01-01T07:46:57.000Z</time>
      </trkpt>
      <trkpt lat="43.017907" lon="0.788756">
        <ele>521.8</ele>
        <time>1970-01-01T07:47:10.000Z</time>
      </trkpt>
      <trkpt lat="43.017858" lon="0.788591">
        <ele>522.4</ele>
        <time>1970-01-01T07:47:17.000Z</time>
      </trkpt>
      <trkpt lat="43.017835" lon="0.788466">
        <ele>522.8</ele>
        <time>1970-01-01T07:47:22.000Z</time>
      </trkpt>
      <trkpt lat="43.017831" lon="0.788441">
        <ele>522.8</ele>
        <time>1970-01-01T07:47:23.000Z</time>
      </trkpt>
      <trkpt lat="43.017769" lon="0.788105">
        <ele>524</ele>
        <time>1970-01-01T07:47:36.000Z</time>
      </trkpt>
      <trkpt lat="43.017751" lon="0.788072">
        <ele>524.2</ele>
        <time>1970-01-01T07:47:39.000Z</time>
      </trkpt>
      <trkpt lat="43.017728" lon="0.787979">
        <ele>524.6</ele>
        <time>1970-01-01T07:47:50.000Z</time>
      </trkpt>
      <trkpt lat="43.017717" lon="0.78794">
        <ele>525</ele>
        <time>1970-01-01T07:47:52.000Z</time>
      </trkpt>
      <trkpt lat="43.017707" lon="0.787788">
        <ele>526</ele>
        <time>1970-01-01T07:47:59.000Z</time>
      </trkpt>
      <trkpt lat="43.017602" lon="0.787066">
        <ele>525</ele>
        <time>1970-01-01T07:48:19.000Z</time>
      </trkpt>
      <trkpt lat="43.01758" lon="0.786968">
        <ele>524.8</ele>
        <time>1970-01-01T07:48:21.000Z</time>
      </trkpt>
      <trkpt lat="43.017523" lon="0.786684">
        <ele>524</ele>
        <time>1970-01-01T07:48:26.000Z</time>
      </trkpt>
      <trkpt lat="43.01748" lon="0.785948">
        <ele>525.2</ele>
        <time>1970-01-01T07:48:40.000Z</time>
      </trkpt>
      <trkpt lat="43.017442" lon="0.785794">
        <ele>525.8</ele>
        <time>1970-01-01T07:48:44.000Z</time>
      </trkpt>
      <trkpt lat="43.017073" lon="0.785251">
        <ele>526.4</ele>
        <time>1970-01-01T07:49:02.000Z</time>
      </trkpt>
      <trkpt lat="43.01703" lon="0.785167">
        <ele>526.8</ele>
        <time>1970-01-01T07:49:05.000Z</time>
      </trkpt>
      <trkpt lat="43.016646" lon="0.784632">
        <ele>527.4</ele>
        <time>1970-01-01T07:49:23.000Z</time>
      </trkpt>
      <trkpt lat="43.016385" lon="0.784195">
        <ele>527.8</ele>
        <time>1970-01-01T07:49:36.000Z</time>
      </trkpt>
      <trkpt lat="43.016004" lon="0.783634">
        <ele>529</ele>
        <time>1970-01-01T07:49:53.000Z</time>
      </trkpt>
      <trkpt lat="43.015603" lon="0.783105">
        <ele>529.8</ele>
        <time>1970-01-01T07:50:10.000Z</time>
      </trkpt>
      <trkpt lat="43.0153" lon="0.782688">
        <ele>529.2</ele>
        <time>1970-01-01T07:50:20.000Z</time>
      </trkpt>
      <trkpt lat="43.015179" lon="0.782453">
        <ele>528.6</ele>
        <time>1970-01-01T07:50:24.000Z</time>
      </trkpt>
      <trkpt lat="43.014761" lon="0.781994">
        <ele>530</ele>
        <time>1970-01-01T07:50:39.000Z</time>
      </trkpt>
      <trkpt lat="43.0146" lon="0.7819">
        <ele>529.8</ele>
        <time>1970-01-01T07:50:44.000Z</time>
      </trkpt>
      <trkpt lat="43.014536" lon="0.781536">
        <ele>528.2</ele>
        <time>1970-01-01T07:50:50.000Z</time>
      </trkpt>
      <trkpt lat="43.014505" lon="0.781406">
        <ele>527.6</ele>
        <time>1970-01-01T07:50:52.000Z</time>
      </trkpt>
      <trkpt lat="43.014496" lon="0.781311">
        <ele>526.8</ele>
        <time>1970-01-01T07:50:54.000Z</time>
      </trkpt>
      <trkpt lat="43.014575" lon="0.78118">
        <ele>525.4</ele>
        <time>1970-01-01T07:50:57.000Z</time>
      </trkpt>
      <trkpt lat="43.014616" lon="0.781131">
        <ele>525</ele>
        <time>1970-01-01T07:50:58.000Z</time>
      </trkpt>
      <trkpt lat="43.014712" lon="0.781034">
        <ele>524.2</ele>
        <time>1970-01-01T07:51:00.000Z</time>
      </trkpt>
      <trkpt lat="43.014858" lon="0.780856">
        <ele>523.6</ele>
        <time>1970-01-01T07:51:03.000Z</time>
      </trkpt>
      <trkpt lat="43.014979" lon="0.780642">
        <ele>523</ele>
        <time>1970-01-01T07:51:06.000Z</time>
      </trkpt>
      <trkpt lat="43.015079" lon="0.780376">
        <ele>522</ele>
        <time>1970-01-01T07:51:12.000Z</time>
      </trkpt>
      <trkpt lat="43.01505" lon="0.780425">
        <ele>521.8</ele>
        <time>1970-01-01T07:51:15.000Z</time>
      </trkpt>
      <trkpt lat="43.014946" lon="0.780348">
        <ele>521.6</ele>
        <time>1970-01-01T07:51:21.000Z</time>
      </trkpt>
      <trkpt lat="43.014878" lon="0.780184">
        <ele>520.8</ele>
        <time>1970-01-01T07:51:25.000Z</time>
      </trkpt>
      <trkpt lat="43.014851" lon="0.780112">
        <ele>520.4</ele>
        <time>1970-01-01T07:51:27.000Z</time>
      </trkpt>
      <trkpt lat="43.014797" lon="0.780065">
        <ele>519.8</ele>
        <time>1970-01-01T07:51:29.000Z</time>
      </trkpt>
      <trkpt lat="43.014671" lon="0.779972">
        <ele>518.8</ele>
        <time>1970-01-01T07:51:32.000Z</time>
      </trkpt>
      <trkpt lat="43.014638" lon="0.779922">
        <ele>518</ele>
        <time>1970-01-01T07:51:33.000Z</time>
      </trkpt>
      <trkpt lat="43.014606" lon="0.779785">
        <ele>516.8</ele>
        <time>1970-01-01T07:51:35.000Z</time>
      </trkpt>
      <trkpt lat="43.014627" lon="0.779531">
        <ele>515.4</ele>
        <time>1970-01-01T07:51:38.000Z</time>
      </trkpt>
      <trkpt lat="43.014647" lon="0.779379">
        <ele>514.4</ele>
        <time>1970-01-01T07:51:40.000Z</time>
      </trkpt>
      <trkpt lat="43.01466" lon="0.779254">
        <ele>513</ele>
        <time>1970-01-01T07:51:42.000Z</time>
      </trkpt>
      <trkpt lat="43.014667" lon="0.77916">
        <ele>512</ele>
        <time>1970-01-01T07:51:44.000Z</time>
      </trkpt>
      <trkpt lat="43.014649" lon="0.779082">
        <ele>511</ele>
        <time>1970-01-01T07:51:46.000Z</time>
      </trkpt>
      <trkpt lat="43.01454" lon="0.778972">
        <ele>509.8</ele>
        <time>1970-01-01T07:51:49.000Z</time>
      </trkpt>
      <trkpt lat="43.014434" lon="0.77889">
        <ele>508.6</ele>
        <time>1970-01-01T07:51:51.000Z</time>
      </trkpt>
      <trkpt lat="43.014191" lon="0.778716">
        <ele>507.6</ele>
        <time>1970-01-01T07:51:55.000Z</time>
      </trkpt>
      <trkpt lat="43.013881" lon="0.778518">
        <ele>507.4</ele>
        <time>1970-01-01T07:52:01.000Z</time>
      </trkpt>
      <trkpt lat="43.013611" lon="0.778384">
        <ele>508</ele>
        <time>1970-01-01T07:52:07.000Z</time>
      </trkpt>
      <trkpt lat="43.013386" lon="0.778306">
        <ele>508.8</ele>
        <time>1970-01-01T07:52:12.000Z</time>
      </trkpt>
      <trkpt lat="43.013233" lon="0.778245">
        <ele>509.8</ele>
        <time>1970-01-01T07:52:16.000Z</time>
      </trkpt>
      <trkpt lat="43.013037" lon="0.778125">
        <ele>511</ele>
        <time>1970-01-01T07:52:22.000Z</time>
      </trkpt>
      <trkpt lat="43.012744" lon="0.77761">
        <ele>510.6</ele>
        <time>1970-01-01T07:52:33.000Z</time>
      </trkpt>
      <trkpt lat="43.012561" lon="0.777499">
        <ele>512</ele>
        <time>1970-01-01T07:52:40.000Z</time>
      </trkpt>
      <trkpt lat="43.012544" lon="0.777491">
        <ele>512.2</ele>
        <time>1970-01-01T07:52:41.000Z</time>
      </trkpt>
      <trkpt lat="43.012214" lon="0.777395">
        <ele>511.2</ele>
        <time>1970-01-01T07:52:51.000Z</time>
      </trkpt>
      <trkpt lat="43.011654" lon="0.7773">
        <ele>511.8</ele>
        <time>1970-01-01T07:53:05.000Z</time>
      </trkpt>
      <trkpt lat="43.011581" lon="0.777291">
        <ele>512.2</ele>
        <time>1970-01-01T07:53:07.000Z</time>
      </trkpt>
      <trkpt lat="43.011465" lon="0.777273">
        <ele>513.2</ele>
        <time>1970-01-01T07:53:11.000Z</time>
      </trkpt>
      <trkpt lat="43.011389" lon="0.777261">
        <ele>514.6</ele>
        <time>1970-01-01T07:53:14.000Z</time>
      </trkpt>
      <trkpt lat="43.01125" lon="0.777244">
        <ele>516</ele>
        <time>1970-01-01T07:53:19.000Z</time>
      </trkpt>
      <trkpt lat="43.011094" lon="0.777228">
        <ele>517</ele>
        <time>1970-01-01T07:53:24.000Z</time>
      </trkpt>
      <trkpt lat="43.010891" lon="0.777273">
        <ele>518.2</ele>
        <time>1970-01-01T07:53:31.000Z</time>
      </trkpt>
      <trkpt lat="43.010653" lon="0.77733">
        <ele>519.4</ele>
        <time>1970-01-01T07:53:39.000Z</time>
      </trkpt>
      <trkpt lat="43.010465" lon="0.777373">
        <ele>520.4</ele>
        <time>1970-01-01T07:53:46.000Z</time>
      </trkpt>
      <trkpt lat="43.010442" lon="0.777376">
        <ele>520.6</ele>
        <time>1970-01-01T07:53:47.000Z</time>
      </trkpt>
      <trkpt lat="43.010363" lon="0.777394">
        <ele>521.6</ele>
        <time>1970-01-01T07:53:51.000Z</time>
      </trkpt>
      <trkpt lat="43.010308" lon="0.777401">
        <ele>522.8</ele>
        <time>1970-01-01T07:53:54.000Z</time>
      </trkpt>
      <trkpt lat="43.010212" lon="0.777407">
        <ele>524</ele>
        <time>1970-01-01T07:53:59.000Z</time>
      </trkpt>
      <trkpt lat="43.010131" lon="0.777419">
        <ele>525</ele>
        <time>1970-01-01T07:54:03.000Z</time>
      </trkpt>
      <trkpt lat="43.010011" lon="0.777451">
        <ele>526</ele>
        <time>1970-01-01T07:54:09.000Z</time>
      </trkpt>
      <trkpt lat="43.009914" lon="0.777481">
        <ele>527.2</ele>
        <time>1970-01-01T07:54:14.000Z</time>
      </trkpt>
      <trkpt lat="43.009848" lon="0.777511">
        <ele>528.2</ele>
        <time>1970-01-01T07:54:18.000Z</time>
      </trkpt>
      <trkpt lat="43.009799" lon="0.777552">
        <ele>529.6</ele>
        <time>1970-01-01T07:54:22.000Z</time>
      </trkpt>
      <trkpt lat="43.009768" lon="0.777602">
        <ele>530.6</ele>
        <time>1970-01-01T07:54:25.000Z</time>
      </trkpt>
      <trkpt lat="43.009744" lon="0.777676">
        <ele>531.8</ele>
        <time>1970-01-01T07:54:29.000Z</time>
      </trkpt>
      <trkpt lat="43.009737" lon="0.777712">
        <ele>532.4</ele>
        <time>1970-01-01T07:54:31.000Z</time>
      </trkpt>
      <trkpt lat="43.00974" lon="0.777742">
        <ele>533</ele>
        <time>1970-01-01T07:54:33.000Z</time>
      </trkpt>
      <trkpt lat="43.009757" lon="0.777789">
        <ele>534</ele>
        <time>1970-01-01T07:54:36.000Z</time>
      </trkpt>
      <trkpt lat="43.009777" lon="0.777816">
        <ele>534.8</ele>
        <time>1970-01-01T07:54:38.000Z</time>
      </trkpt>
      <trkpt lat="43.009793" lon="0.777825">
        <ele>535</ele>
        <time>1970-01-01T07:54:39.000Z</time>
      </trkpt>
      <trkpt lat="43.009856" lon="0.777869">
        <ele>536</ele>
        <time>1970-01-01T07:54:43.000Z</time>
      </trkpt>
      <trkpt lat="43.009872" lon="0.777875">
        <ele>536.4</ele>
        <time>1970-01-01T07:54:44.000Z</time>
      </trkpt>
      <trkpt lat="43.009917" lon="0.777877">
        <ele>537.2</ele>
        <time>1970-01-01T07:54:47.000Z</time>
      </trkpt>
      <trkpt lat="43.009981" lon="0.777899">
        <ele>538.2</ele>
        <time>1970-01-01T07:54:52.000Z</time>
      </trkpt>
      <trkpt lat="43.010037" lon="0.777923">
        <ele>539.4</ele>
        <time>1970-01-01T07:54:56.000Z</time>
      </trkpt>
      <trkpt lat="43.010121" lon="0.77796">
        <ele>540.4</ele>
        <time>1970-01-01T07:55:02.000Z</time>
      </trkpt>
      <trkpt lat="43.010191" lon="0.778003">
        <ele>541.6</ele>
        <time>1970-01-01T07:55:07.000Z</time>
      </trkpt>
      <trkpt lat="43.010248" lon="0.778033">
        <ele>542.8</ele>
        <time>1970-01-01T07:55:11.000Z</time>
      </trkpt>
      <trkpt lat="43.010311" lon="0.778076">
        <ele>543.8</ele>
        <time>1970-01-01T07:55:16.000Z</time>
      </trkpt>
      <trkpt lat="43.010363" lon="0.778132">
        <ele>544.8</ele>
        <time>1970-01-01T07:55:21.000Z</time>
      </trkpt>
      <trkpt lat="43.010373" lon="0.778147">
        <ele>544.8</ele>
        <time>1970-01-01T07:55:22.000Z</time>
      </trkpt>
      <trkpt lat="43.010417" lon="0.778185">
        <ele>546</ele>
        <time>1970-01-01T07:55:26.000Z</time>
      </trkpt>
      <trkpt lat="43.01043" lon="0.778216">
        <ele>546.4</ele>
        <time>1970-01-01T07:55:28.000Z</time>
      </trkpt>
      <trkpt lat="43.01037" lon="0.778271">
        <ele>547.2</ele>
        <time>1970-01-01T07:55:35.000Z</time>
      </trkpt>
      <trkpt lat="43.01032" lon="0.778322">
        <ele>548.2</ele>
        <time>1970-01-01T07:55:41.000Z</time>
      </trkpt>
      <trkpt lat="43.010253" lon="0.778347">
        <ele>549.4</ele>
        <time>1970-01-01T07:55:47.000Z</time>
      </trkpt>
      <trkpt lat="43.010208" lon="0.778369">
        <ele>550.2</ele>
        <time>1970-01-01T07:55:51.000Z</time>
      </trkpt>
      <trkpt lat="43.010197" lon="0.778374">
        <ele>550.4</ele>
        <time>1970-01-01T07:55:52.000Z</time>
      </trkpt>
      <trkpt lat="43.010151" lon="0.778397">
        <ele>551.6</ele>
        <time>1970-01-01T07:55:56.000Z</time>
      </trkpt>
      <trkpt lat="43.010071" lon="0.778443">
        <ele>552.8</ele>
        <time>1970-01-01T07:56:03.000Z</time>
      </trkpt>
      <trkpt lat="43.010028" lon="0.778479">
        <ele>553.8</ele>
        <time>1970-01-01T07:56:07.000Z</time>
      </trkpt>
      <trkpt lat="43.009951" lon="0.778534">
        <ele>555</ele>
        <time>1970-01-01T07:56:14.000Z</time>
      </trkpt>
      <trkpt lat="43.009902" lon="0.778574">
        <ele>556.2</ele>
        <time>1970-01-01T07:56:19.000Z</time>
      </trkpt>
      <trkpt lat="43.009844" lon="0.778628">
        <ele>557.2</ele>
        <time>1970-01-01T07:56:25.000Z</time>
      </trkpt>
      <trkpt lat="43.009798" lon="0.778671">
        <ele>558.2</ele>
        <time>1970-01-01T07:56:30.000Z</time>
      </trkpt>
      <trkpt lat="43.00976" lon="0.778709">
        <ele>559.4</ele>
        <time>1970-01-01T07:56:34.000Z</time>
      </trkpt>
      <trkpt lat="43.00971" lon="0.778752">
        <ele>560.6</ele>
        <time>1970-01-01T07:56:39.000Z</time>
      </trkpt>
      <trkpt lat="43.009671" lon="0.778779">
        <ele>561.6</ele>
        <time>1970-01-01T07:56:43.000Z</time>
      </trkpt>
      <trkpt lat="43.009626" lon="0.778822">
        <ele>562.8</ele>
        <time>1970-01-01T07:56:48.000Z</time>
      </trkpt>
      <trkpt lat="43.009591" lon="0.778851">
        <ele>564</ele>
        <time>1970-01-01T07:56:52.000Z</time>
      </trkpt>
      <trkpt lat="43.009534" lon="0.778899">
        <ele>565</ele>
        <time>1970-01-01T07:56:57.000Z</time>
      </trkpt>
      <trkpt lat="43.009463" lon="0.778953">
        <ele>566</ele>
        <time>1970-01-01T07:57:03.000Z</time>
      </trkpt>
      <trkpt lat="43.009392" lon="0.778982">
        <ele>567</ele>
        <time>1970-01-01T07:57:09.000Z</time>
      </trkpt>
      <trkpt lat="43.009308" lon="0.779013">
        <ele>567.8</ele>
        <time>1970-01-01T07:57:15.000Z</time>
      </trkpt>
      <trkpt lat="43.009258" lon="0.779015">
        <ele>568.2</ele>
        <time>1970-01-01T07:57:18.000Z</time>
      </trkpt>
      <trkpt lat="43.009003" lon="0.779015">
        <ele>569.2</ele>
        <time>1970-01-01T07:57:32.000Z</time>
      </trkpt>
      <trkpt lat="43.008849" lon="0.77897">
        <ele>570.4</ele>
        <time>1970-01-01T07:57:40.000Z</time>
      </trkpt>
      <trkpt lat="43.008722" lon="0.778911">
        <ele>571.4</ele>
        <time>1970-01-01T07:57:48.000Z</time>
      </trkpt>
      <trkpt lat="43.008708" lon="0.778897">
        <ele>571.4</ele>
        <time>1970-01-01T07:57:49.000Z</time>
      </trkpt>
      <trkpt lat="43.008608" lon="0.778814">
        <ele>572.4</ele>
        <time>1970-01-01T07:57:57.000Z</time>
      </trkpt>
      <trkpt lat="43.008462" lon="0.778613">
        <ele>573.4</ele>
        <time>1970-01-01T07:58:08.000Z</time>
      </trkpt>
      <trkpt lat="43.008295" lon="0.778415">
        <ele>574.4</ele>
        <time>1970-01-01T07:58:18.000Z</time>
      </trkpt>
      <trkpt lat="43.008036" lon="0.778329">
        <ele>575.4</ele>
        <time>1970-01-01T07:58:32.000Z</time>
      </trkpt>
      <trkpt lat="43.007862" lon="0.778332">
        <ele>576.4</ele>
        <time>1970-01-01T07:58:42.000Z</time>
      </trkpt>
      <trkpt lat="43.007721" lon="0.778361">
        <ele>577.4</ele>
        <time>1970-01-01T07:58:51.000Z</time>
      </trkpt>
      <trkpt lat="43.007631" lon="0.778401">
        <ele>578.6</ele>
        <time>1970-01-01T07:58:57.000Z</time>
      </trkpt>
      <trkpt lat="43.007542" lon="0.778451">
        <ele>579.6</ele>
        <time>1970-01-01T07:59:03.000Z</time>
      </trkpt>
      <trkpt lat="43.00752" lon="0.778463">
        <ele>580</ele>
        <time>1970-01-01T07:59:05.000Z</time>
      </trkpt>
      <trkpt lat="43.00748" lon="0.778505">
        <ele>580.6</ele>
        <time>1970-01-01T07:59:09.000Z</time>
      </trkpt>
      <trkpt lat="43.007421" lon="0.778556">
        <ele>581.8</ele>
        <time>1970-01-01T07:59:14.000Z</time>
      </trkpt>
      <trkpt lat="43.007383" lon="0.778602">
        <ele>582.8</ele>
        <time>1970-01-01T07:59:18.000Z</time>
      </trkpt>
      <trkpt lat="43.007312" lon="0.778675">
        <ele>583.8</ele>
        <time>1970-01-01T07:59:23.000Z</time>
      </trkpt>
      <trkpt lat="43.007241" lon="0.778722">
        <ele>585</ele>
        <time>1970-01-01T07:59:28.000Z</time>
      </trkpt>
      <trkpt lat="43.007183" lon="0.778792">
        <ele>585.6</ele>
        <time>1970-01-01T07:59:33.000Z</time>
      </trkpt>
      <trkpt lat="43.007148" lon="0.778829">
        <ele>586</ele>
        <time>1970-01-01T07:59:36.000Z</time>
      </trkpt>
      <trkpt lat="43.007115" lon="0.778879">
        <ele>586.4</ele>
        <time>1970-01-01T07:59:39.000Z</time>
      </trkpt>
      <trkpt lat="43.007075" lon="0.778962">
        <ele>587</ele>
        <time>1970-01-01T07:59:44.000Z</time>
      </trkpt>
      <trkpt lat="43.007069" lon="0.778982">
        <ele>587.2</ele>
        <time>1970-01-01T07:59:45.000Z</time>
      </trkpt>
      <trkpt lat="43.007005" lon="0.779215">
        <ele>588.2</ele>
        <time>1970-01-01T07:59:55.000Z</time>
      </trkpt>
      <trkpt lat="43.006943" lon="0.779372">
        <ele>588.8</ele>
        <time>1970-01-01T08:00:03.000Z</time>
      </trkpt>
      <trkpt lat="43.00684" lon="0.779533">
        <ele>589</ele>
        <time>1970-01-01T08:00:11.000Z</time>
      </trkpt>
      <trkpt lat="43.006801" lon="0.779583">
        <ele>589</ele>
        <time>1970-01-01T08:00:14.000Z</time>
      </trkpt>
      <trkpt lat="43.006703" lon="0.77971">
        <ele>590</ele>
        <time>1970-01-01T08:00:22.000Z</time>
      </trkpt>
      <trkpt lat="43.006685" lon="0.779751">
        <ele>590</ele>
        <time>1970-01-01T08:00:24.000Z</time>
      </trkpt>
      <trkpt lat="43.006641" lon="0.779822">
        <ele>590.6</ele>
        <time>1970-01-01T08:00:28.000Z</time>
      </trkpt>
      <trkpt lat="43.006589" lon="0.779886">
        <ele>591.2</ele>
        <time>1970-01-01T08:00:33.000Z</time>
      </trkpt>
      <trkpt lat="43.006518" lon="0.779939">
        <ele>592.2</ele>
        <time>1970-01-01T08:00:39.000Z</time>
      </trkpt>
      <trkpt lat="43.006456" lon="0.779973">
        <ele>593.2</ele>
        <time>1970-01-01T08:00:45.000Z</time>
      </trkpt>
      <trkpt lat="43.006394" lon="0.779996">
        <ele>594</ele>
        <time>1970-01-01T08:00:50.000Z</time>
      </trkpt>
      <trkpt lat="43.006345" lon="0.780013">
        <ele>594.8</ele>
        <time>1970-01-01T08:00:54.000Z</time>
      </trkpt>
      <trkpt lat="43.006333" lon="0.78002">
        <ele>595.2</ele>
        <time>1970-01-01T08:00:55.000Z</time>
      </trkpt>
      <trkpt lat="43.006312" lon="0.780018">
        <ele>595.8</ele>
        <time>1970-01-01T08:00:57.000Z</time>
      </trkpt>
      <trkpt lat="43.006297" lon="0.780008">
        <ele>596.2</ele>
        <time>1970-01-01T08:00:58.000Z</time>
      </trkpt>
      <trkpt lat="43.00625" lon="0.779988">
        <ele>597</ele>
        <time>1970-01-01T08:01:02.000Z</time>
      </trkpt>
      <trkpt lat="43.006242" lon="0.779981">
        <ele>597.2</ele>
        <time>1970-01-01T08:01:03.000Z</time>
      </trkpt>
      <trkpt lat="43.00618" lon="0.77991">
        <ele>598.4</ele>
        <time>1970-01-01T08:01:07.000Z</time>
      </trkpt>
      <trkpt lat="43.006126" lon="0.779866">
        <ele>599.4</ele>
        <time>1970-01-01T08:01:11.000Z</time>
      </trkpt>
      <trkpt lat="43.006073" lon="0.779843">
        <ele>600.4</ele>
        <time>1970-01-01T08:01:15.000Z</time>
      </trkpt>
      <trkpt lat="43.006015" lon="0.779854">
        <ele>601.4</ele>
        <time>1970-01-01T08:01:19.000Z</time>
      </trkpt>
      <trkpt lat="43.005962" lon="0.779862">
        <ele>602.2</ele>
        <time>1970-01-01T08:01:23.000Z</time>
      </trkpt>
      <trkpt lat="43.005952" lon="0.779868">
        <ele>602.6</ele>
        <time>1970-01-01T08:01:24.000Z</time>
      </trkpt>
      <trkpt lat="43.005908" lon="0.779899">
        <ele>603.2</ele>
        <time>1970-01-01T08:01:28.000Z</time>
      </trkpt>
      <trkpt lat="43.005835" lon="0.779949">
        <ele>604</ele>
        <time>1970-01-01T08:01:33.000Z</time>
      </trkpt>
      <trkpt lat="43.005777" lon="0.780015">
        <ele>605.2</ele>
        <time>1970-01-01T08:01:38.000Z</time>
      </trkpt>
      <trkpt lat="43.005755" lon="0.780036">
        <ele>605.4</ele>
        <time>1970-01-01T08:01:40.000Z</time>
      </trkpt>
      <trkpt lat="43.005713" lon="0.780063">
        <ele>606</ele>
        <time>1970-01-01T08:01:44.000Z</time>
      </trkpt>
      <trkpt lat="43.005639" lon="0.78015">
        <ele>606.6</ele>
        <time>1970-01-01T08:01:49.000Z</time>
      </trkpt>
      <trkpt lat="43.005607" lon="0.780187">
        <ele>607</ele>
        <time>1970-01-01T08:01:51.000Z</time>
      </trkpt>
      <trkpt lat="43.005499" lon="0.780279">
        <ele>607.8</ele>
        <time>1970-01-01T08:01:58.000Z</time>
      </trkpt>
      <trkpt lat="43.00542" lon="0.780343">
        <ele>608</ele>
        <time>1970-01-01T08:02:04.000Z</time>
      </trkpt>
      <trkpt lat="43.005366" lon="0.780409">
        <ele>608.4</ele>
        <time>1970-01-01T08:02:10.000Z</time>
      </trkpt>
      <trkpt lat="43.005297" lon="0.780459">
        <ele>608.2</ele>
        <time>1970-01-01T08:02:17.000Z</time>
      </trkpt>
      <trkpt lat="43.005278" lon="0.780463">
        <ele>608.4</ele>
        <time>1970-01-01T08:02:18.000Z</time>
      </trkpt>
      <trkpt lat="43.004957" lon="0.780059">
        <ele>608.6</ele>
        <time>1970-01-01T08:02:48.000Z</time>
      </trkpt>
      <trkpt lat="43.004896" lon="0.77997">
        <ele>609.6</ele>
        <time>1970-01-01T08:02:55.000Z</time>
      </trkpt>
      <trkpt lat="43.004861" lon="0.779873">
        <ele>610.6</ele>
        <time>1970-01-01T08:03:01.000Z</time>
      </trkpt>
      <trkpt lat="43.004827" lon="0.779793">
        <ele>611.4</ele>
        <time>1970-01-01T08:03:06.000Z</time>
      </trkpt>
      <trkpt lat="43.004787" lon="0.779735">
        <ele>612.6</ele>
        <time>1970-01-01T08:03:10.000Z</time>
      </trkpt>
      <trkpt lat="43.00475" lon="0.779676">
        <ele>613.8</ele>
        <time>1970-01-01T08:03:15.000Z</time>
      </trkpt>
      <trkpt lat="43.004721" lon="0.779632">
        <ele>615</ele>
        <time>1970-01-01T08:03:19.000Z</time>
      </trkpt>
      <trkpt lat="43.00471" lon="0.779629">
        <ele>615.2</ele>
        <time>1970-01-01T08:03:20.000Z</time>
      </trkpt>
      <trkpt lat="43.004665" lon="0.779633">
        <ele>616</ele>
        <time>1970-01-01T08:03:23.000Z</time>
      </trkpt>
      <trkpt lat="43.004601" lon="0.779679">
        <ele>617</ele>
        <time>1970-01-01T08:03:28.000Z</time>
      </trkpt>
      <trkpt lat="43.004566" lon="0.779751">
        <ele>617.8</ele>
        <time>1970-01-01T08:03:33.000Z</time>
      </trkpt>
      <trkpt lat="43.004566" lon="0.779765">
        <ele>618.2</ele>
        <time>1970-01-01T08:03:34.000Z</time>
      </trkpt>
      <trkpt lat="43.004567" lon="0.779824">
        <ele>619.4</ele>
        <time>1970-01-01T08:03:38.000Z</time>
      </trkpt>
      <trkpt lat="43.004571" lon="0.779888">
        <ele>620.4</ele>
        <time>1970-01-01T08:03:42.000Z</time>
      </trkpt>
      <trkpt lat="43.004585" lon="0.779984">
        <ele>621.4</ele>
        <time>1970-01-01T08:03:48.000Z</time>
      </trkpt>
      <trkpt lat="43.004586" lon="0.780052">
        <ele>622.4</ele>
        <time>1970-01-01T08:03:53.000Z</time>
      </trkpt>
      <trkpt lat="43.004579" lon="0.780114">
        <ele>623.6</ele>
        <time>1970-01-01T08:03:58.000Z</time>
      </trkpt>
      <trkpt lat="43.004581" lon="0.780191">
        <ele>624.8</ele>
        <time>1970-01-01T08:04:04.000Z</time>
      </trkpt>
      <trkpt lat="43.00458" lon="0.780259">
        <ele>625.8</ele>
        <time>1970-01-01T08:04:08.000Z</time>
      </trkpt>
      <trkpt lat="43.004576" lon="0.780347">
        <ele>626.6</ele>
        <time>1970-01-01T08:04:13.000Z</time>
      </trkpt>
      <trkpt lat="43.004583" lon="0.780426">
        <ele>627.6</ele>
        <time>1970-01-01T08:04:17.000Z</time>
      </trkpt>
      <trkpt lat="43.004575" lon="0.78046">
        <ele>628.2</ele>
        <time>1970-01-01T08:04:19.000Z</time>
      </trkpt>
      <trkpt lat="43.004567" lon="0.780488">
        <ele>628.8</ele>
        <time>1970-01-01T08:04:21.000Z</time>
      </trkpt>
      <trkpt lat="43.004559" lon="0.780543">
        <ele>629.4</ele>
        <time>1970-01-01T08:04:24.000Z</time>
      </trkpt>
      <trkpt lat="43.004552" lon="0.780575">
        <ele>630</ele>
        <time>1970-01-01T08:04:26.000Z</time>
      </trkpt>
      <trkpt lat="43.004543" lon="0.780655">
        <ele>631</ele>
        <time>1970-01-01T08:04:31.000Z</time>
      </trkpt>
      <trkpt lat="43.00453" lon="0.780721">
        <ele>632.4</ele>
        <time>1970-01-01T08:04:36.000Z</time>
      </trkpt>
      <trkpt lat="43.004532" lon="0.780787">
        <ele>633.4</ele>
        <time>1970-01-01T08:04:40.000Z</time>
      </trkpt>
      <trkpt lat="43.004536" lon="0.78084">
        <ele>634.6</ele>
        <time>1970-01-01T08:04:44.000Z</time>
      </trkpt>
      <trkpt lat="43.004531" lon="0.780903">
        <ele>635.6</ele>
        <time>1970-01-01T08:04:48.000Z</time>
      </trkpt>
      <trkpt lat="43.004512" lon="0.78098">
        <ele>637</ele>
        <time>1970-01-01T08:04:53.000Z</time>
      </trkpt>
      <trkpt lat="43.004503" lon="0.781046">
        <ele>638.2</ele>
        <time>1970-01-01T08:04:57.000Z</time>
      </trkpt>
      <trkpt lat="43.004509" lon="0.781143">
        <ele>639.4</ele>
        <time>1970-01-01T08:05:02.000Z</time>
      </trkpt>
      <trkpt lat="43.004503" lon="0.781214">
        <ele>640.8</ele>
        <time>1970-01-01T08:05:06.000Z</time>
      </trkpt>
      <trkpt lat="43.004514" lon="0.781275">
        <ele>641.8</ele>
        <time>1970-01-01T08:05:10.000Z</time>
      </trkpt>
      <trkpt lat="43.00453" lon="0.781351">
        <ele>642.8</ele>
        <time>1970-01-01T08:05:15.000Z</time>
      </trkpt>
      <trkpt lat="43.004535" lon="0.781396">
        <ele>643.8</ele>
        <time>1970-01-01T08:05:18.000Z</time>
      </trkpt>
      <trkpt lat="43.004538" lon="0.78148">
        <ele>645</ele>
        <time>1970-01-01T08:05:23.000Z</time>
      </trkpt>
      <trkpt lat="43.004553" lon="0.781548">
        <ele>646.2</ele>
        <time>1970-01-01T08:05:28.000Z</time>
      </trkpt>
      <trkpt lat="43.004555" lon="0.78158">
        <ele>646.6</ele>
        <time>1970-01-01T08:05:30.000Z</time>
      </trkpt>
      <trkpt lat="43.004553" lon="0.781626">
        <ele>647.4</ele>
        <time>1970-01-01T08:05:33.000Z</time>
      </trkpt>
      <trkpt lat="43.004563" lon="0.781723">
        <ele>648.6</ele>
        <time>1970-01-01T08:05:39.000Z</time>
      </trkpt>
      <trkpt lat="43.004569" lon="0.781778">
        <ele>649.8</ele>
        <time>1970-01-01T08:05:43.000Z</time>
      </trkpt>
      <trkpt lat="43.004582" lon="0.781836">
        <ele>651</ele>
        <time>1970-01-01T08:05:47.000Z</time>
      </trkpt>
      <trkpt lat="43.004589" lon="0.781919">
        <ele>652.2</ele>
        <time>1970-01-01T08:05:53.000Z</time>
      </trkpt>
      <trkpt lat="43.004599" lon="0.782007">
        <ele>653.4</ele>
        <time>1970-01-01T08:05:59.000Z</time>
      </trkpt>
      <trkpt lat="43.004634" lon="0.782077">
        <ele>654.4</ele>
        <time>1970-01-01T08:06:04.000Z</time>
      </trkpt>
      <trkpt lat="43.004689" lon="0.782155">
        <ele>655.6</ele>
        <time>1970-01-01T08:06:10.000Z</time>
      </trkpt>
      <trkpt lat="43.004741" lon="0.782235">
        <ele>656.6</ele>
        <time>1970-01-01T08:06:16.000Z</time>
      </trkpt>
      <trkpt lat="43.004784" lon="0.782274">
        <ele>658</ele>
        <time>1970-01-01T08:06:20.000Z</time>
      </trkpt>
      <trkpt lat="43.004917" lon="0.782317">
        <ele>658.8</ele>
        <time>1970-01-01T08:06:29.000Z</time>
      </trkpt>
      <trkpt lat="43.005038" lon="0.782367">
        <ele>660.2</ele>
        <time>1970-01-01T08:06:37.000Z</time>
      </trkpt>
      <trkpt lat="43.005154" lon="0.782394">
        <ele>661.2</ele>
        <time>1970-01-01T08:06:44.000Z</time>
      </trkpt>
      <trkpt lat="43.005256" lon="0.78238">
        <ele>662.2</ele>
        <time>1970-01-01T08:06:50.000Z</time>
      </trkpt>
      <trkpt lat="43.005336" lon="0.782375">
        <ele>663.4</ele>
        <time>1970-01-01T08:06:55.000Z</time>
      </trkpt>
      <trkpt lat="43.005412" lon="0.782363">
        <ele>664.6</ele>
        <time>1970-01-01T08:07:00.000Z</time>
      </trkpt>
      <trkpt lat="43.005495" lon="0.782381">
        <ele>665.6</ele>
        <time>1970-01-01T08:07:06.000Z</time>
      </trkpt>
      <trkpt lat="43.005577" lon="0.782366">
        <ele>666.6</ele>
        <time>1970-01-01T08:07:11.000Z</time>
      </trkpt>
      <trkpt lat="43.005751" lon="0.782345">
        <ele>667.8</ele>
        <time>1970-01-01T08:07:21.000Z</time>
      </trkpt>
      <trkpt lat="43.006311" lon="0.782318">
        <ele>668</ele>
        <time>1970-01-01T08:07:44.000Z</time>
      </trkpt>
      <trkpt lat="43.006557" lon="0.782289">
        <ele>668.6</ele>
        <time>1970-01-01T08:07:55.000Z</time>
      </trkpt>
      <trkpt lat="43.006605" lon="0.782309">
        <ele>669</ele>
        <time>1970-01-01T08:07:58.000Z</time>
      </trkpt>
      <trkpt lat="43.006643" lon="0.782376">
        <ele>669.6</ele>
        <time>1970-01-01T08:08:03.000Z</time>
      </trkpt>
      <trkpt lat="43.006662" lon="0.782324">
        <ele>669.6</ele>
        <time>1970-01-01T08:08:16.000Z</time>
      </trkpt>
      <trkpt lat="43.006646" lon="0.78236">
        <ele>669.2</ele>
        <time>1970-01-01T08:08:39.000Z</time>
      </trkpt>
      <trkpt lat="43.006594" lon="0.782471">
        <ele>670.6</ele>
        <time>1970-01-01T08:08:47.000Z</time>
      </trkpt>
      <trkpt lat="43.006518" lon="0.782546">
        <ele>671.8</ele>
        <time>1970-01-01T08:08:54.000Z</time>
      </trkpt>
      <trkpt lat="43.006499" lon="0.782594">
        <ele>672.8</ele>
        <time>1970-01-01T08:08:58.000Z</time>
      </trkpt>
      <trkpt lat="43.006462" lon="0.782655">
        <ele>673.8</ele>
        <time>1970-01-01T08:09:04.000Z</time>
      </trkpt>
      <trkpt lat="43.006437" lon="0.782683">
        <ele>674.2</ele>
        <time>1970-01-01T08:09:07.000Z</time>
      </trkpt>
      <trkpt lat="43.006416" lon="0.782723">
        <ele>674.8</ele>
        <time>1970-01-01T08:09:11.000Z</time>
      </trkpt>
      <trkpt lat="43.006366" lon="0.782795">
        <ele>676</ele>
        <time>1970-01-01T08:09:17.000Z</time>
      </trkpt>
      <trkpt lat="43.006328" lon="0.782845">
        <ele>677</ele>
        <time>1970-01-01T08:09:22.000Z</time>
      </trkpt>
      <trkpt lat="43.006278" lon="0.78289">
        <ele>678</ele>
        <time>1970-01-01T08:09:29.000Z</time>
      </trkpt>
      <trkpt lat="43.006241" lon="0.782935">
        <ele>679.2</ele>
        <time>1970-01-01T08:09:35.000Z</time>
      </trkpt>
      <trkpt lat="43.0062" lon="0.782972">
        <ele>680.2</ele>
        <time>1970-01-01T08:09:39.000Z</time>
      </trkpt>
      <trkpt lat="43.00619" lon="0.782981">
        <ele>680.6</ele>
        <time>1970-01-01T08:09:41.000Z</time>
      </trkpt>
      <trkpt lat="43.005319" lon="0.784625">
        <ele>707.4</ele>
        <time>1970-01-01T08:12:11.000Z</time>
      </trkpt>
      <trkpt lat="43.00522" lon="0.784667">
        <ele>708.6</ele>
        <time>1970-01-01T08:12:20.000Z</time>
      </trkpt>
      <trkpt lat="43.005112" lon="0.784694">
        <ele>709.6</ele>
        <time>1970-01-01T08:12:29.000Z</time>
      </trkpt>
      <trkpt lat="43.005024" lon="0.784695">
        <ele>710.6</ele>
        <time>1970-01-01T08:12:37.000Z</time>
      </trkpt>
      <trkpt lat="43.004956" lon="0.784696">
        <ele>711.8</ele>
        <time>1970-01-01T08:12:43.000Z</time>
      </trkpt>
      <trkpt lat="43.004878" lon="0.784656">
        <ele>713</ele>
        <time>1970-01-01T08:12:50.000Z</time>
      </trkpt>
      <trkpt lat="43.004838" lon="0.784636">
        <ele>713.6</ele>
        <time>1970-01-01T08:12:53.000Z</time>
      </trkpt>
      <trkpt lat="43.004806" lon="0.784608">
        <ele>714</ele>
        <time>1970-01-01T08:12:56.000Z</time>
      </trkpt>
      <trkpt lat="43.004723" lon="0.784581">
        <ele>715.2</ele>
        <time>1970-01-01T08:13:03.000Z</time>
      </trkpt>
      <trkpt lat="43.004655" lon="0.784552">
        <ele>716</ele>
        <time>1970-01-01T08:13:09.000Z</time>
      </trkpt>
      <trkpt lat="43.004628" lon="0.784544">
        <ele>716.4</ele>
        <time>1970-01-01T08:13:11.000Z</time>
      </trkpt>
      <trkpt lat="43.004501" lon="0.784499">
        <ele>717.4</ele>
        <time>1970-01-01T08:13:20.000Z</time>
      </trkpt>
      <trkpt lat="43.004395" lon="0.784443">
        <ele>718.4</ele>
        <time>1970-01-01T08:13:28.000Z</time>
      </trkpt>
      <trkpt lat="43.004325" lon="0.784417">
        <ele>719.4</ele>
        <time>1970-01-01T08:13:35.000Z</time>
      </trkpt>
      <trkpt lat="43.004236" lon="0.784411">
        <ele>720.6</ele>
        <time>1970-01-01T08:13:41.000Z</time>
      </trkpt>
      <trkpt lat="43.004133" lon="0.784388">
        <ele>721.6</ele>
        <time>1970-01-01T08:13:49.000Z</time>
      </trkpt>
      <trkpt lat="43.004051" lon="0.784356">
        <ele>722.8</ele>
        <time>1970-01-01T08:13:55.000Z</time>
      </trkpt>
      <trkpt lat="43.003977" lon="0.784334">
        <ele>724</ele>
        <time>1970-01-01T08:14:01.000Z</time>
      </trkpt>
      <trkpt lat="43.003892" lon="0.784296">
        <ele>725</ele>
        <time>1970-01-01T08:14:07.000Z</time>
      </trkpt>
      <trkpt lat="43.003781" lon="0.784195">
        <ele>725.8</ele>
        <time>1970-01-01T08:14:17.000Z</time>
      </trkpt>
      <trkpt lat="43.003708" lon="0.784141">
        <ele>727</ele>
        <time>1970-01-01T08:14:23.000Z</time>
      </trkpt>
      <trkpt lat="43.003619" lon="0.784099">
        <ele>728</ele>
        <time>1970-01-01T08:14:30.000Z</time>
      </trkpt>
      <trkpt lat="43.003555" lon="0.784071">
        <ele>729</ele>
        <time>1970-01-01T08:14:35.000Z</time>
      </trkpt>
      <trkpt lat="43.003492" lon="0.784052">
        <ele>730</ele>
        <time>1970-01-01T08:14:40.000Z</time>
      </trkpt>
      <trkpt lat="43.003429" lon="0.784037">
        <ele>731</ele>
        <time>1970-01-01T08:14:45.000Z</time>
      </trkpt>
      <trkpt lat="43.003347" lon="0.784027">
        <ele>732.2</ele>
        <time>1970-01-01T08:14:51.000Z</time>
      </trkpt>
      <trkpt lat="43.003219" lon="0.78397">
        <ele>733.4</ele>
        <time>1970-01-01T08:15:00.000Z</time>
      </trkpt>
      <trkpt lat="43.00312" lon="0.78387">
        <ele>734.4</ele>
        <time>1970-01-01T08:15:09.000Z</time>
      </trkpt>
      <trkpt lat="43.003004" lon="0.783807">
        <ele>735.6</ele>
        <time>1970-01-01T08:15:18.000Z</time>
      </trkpt>
      <trkpt lat="43.002949" lon="0.783764">
        <ele>736.6</ele>
        <time>1970-01-01T08:15:23.000Z</time>
      </trkpt>
      <trkpt lat="43.002872" lon="0.783694">
        <ele>737.6</ele>
        <time>1970-01-01T08:15:30.000Z</time>
      </trkpt>
      <trkpt lat="43.002775" lon="0.783641">
        <ele>738.8</ele>
        <time>1970-01-01T08:15:37.000Z</time>
      </trkpt>
      <trkpt lat="43.002702" lon="0.783595">
        <ele>739.8</ele>
        <time>1970-01-01T08:15:43.000Z</time>
      </trkpt>
      <trkpt lat="43.002654" lon="0.783538">
        <ele>740.6</ele>
        <time>1970-01-01T08:15:48.000Z</time>
      </trkpt>
      <trkpt lat="43.002641" lon="0.783531">
        <ele>740.8</ele>
        <time>1970-01-01T08:15:49.000Z</time>
      </trkpt>
      <trkpt lat="43.002631" lon="0.783519">
        <ele>741</ele>
        <time>1970-01-01T08:15:50.000Z</time>
      </trkpt>
      <trkpt lat="43.002585" lon="0.783473">
        <ele>741.4</ele>
        <time>1970-01-01T08:15:54.000Z</time>
      </trkpt>
      <trkpt lat="43.002565" lon="0.783458">
        <ele>741.6</ele>
        <time>1970-01-01T08:15:56.000Z</time>
      </trkpt>
      <trkpt lat="43.00255" lon="0.783439">
        <ele>741.8</ele>
        <time>1970-01-01T08:15:58.000Z</time>
      </trkpt>
      <trkpt lat="43.002516" lon="0.783391">
        <ele>742.6</ele>
        <time>1970-01-01T08:16:02.000Z</time>
      </trkpt>
      <trkpt lat="43.002509" lon="0.783375">
        <ele>743</ele>
        <time>1970-01-01T08:16:03.000Z</time>
      </trkpt>
      <trkpt lat="43.002462" lon="0.783322">
        <ele>743.6</ele>
        <time>1970-01-01T08:16:07.000Z</time>
      </trkpt>
      <trkpt lat="43.002431" lon="0.783292">
        <ele>744</ele>
        <time>1970-01-01T08:16:10.000Z</time>
      </trkpt>
      <trkpt lat="43.002402" lon="0.783248">
        <ele>744.8</ele>
        <time>1970-01-01T08:16:13.000Z</time>
      </trkpt>
      <trkpt lat="43.002377" lon="0.783225">
        <ele>745</ele>
        <time>1970-01-01T08:16:15.000Z</time>
      </trkpt>
      <trkpt lat="43.002316" lon="0.783174">
        <ele>745.8</ele>
        <time>1970-01-01T08:16:22.000Z</time>
      </trkpt>
      <trkpt lat="43.002295" lon="0.783164">
        <ele>746.2</ele>
        <time>1970-01-01T08:16:24.000Z</time>
      </trkpt>
      <trkpt lat="43.002233" lon="0.783141">
        <ele>747.4</ele>
        <time>1970-01-01T08:16:29.000Z</time>
      </trkpt>
      <trkpt lat="43.002144" lon="0.783089">
        <ele>748.4</ele>
        <time>1970-01-01T08:16:35.000Z</time>
      </trkpt>
      <trkpt lat="43.002059" lon="0.783016">
        <ele>749.4</ele>
        <time>1970-01-01T08:16:42.000Z</time>
      </trkpt>
      <trkpt lat="43.001998" lon="0.782981">
        <ele>750</ele>
        <time>1970-01-01T08:16:47.000Z</time>
      </trkpt>
      <trkpt lat="43.001973" lon="0.782941">
        <ele>750.8</ele>
        <time>1970-01-01T08:16:50.000Z</time>
      </trkpt>
      <trkpt lat="43.001948" lon="0.782919">
        <ele>751</ele>
        <time>1970-01-01T08:16:52.000Z</time>
      </trkpt>
      <trkpt lat="43.001866" lon="0.782858">
        <ele>751.8</ele>
        <time>1970-01-01T08:17:00.000Z</time>
      </trkpt>
      <trkpt lat="43.001801" lon="0.782771">
        <ele>753</ele>
        <time>1970-01-01T08:17:08.000Z</time>
      </trkpt>
      <trkpt lat="43.001706" lon="0.782686">
        <ele>754.2</ele>
        <time>1970-01-01T08:17:16.000Z</time>
      </trkpt>
      <trkpt lat="43.001649" lon="0.782626">
        <ele>755</ele>
        <time>1970-01-01T08:17:22.000Z</time>
      </trkpt>
      <trkpt lat="43.00163" lon="0.782602">
        <ele>755.4</ele>
        <time>1970-01-01T08:17:24.000Z</time>
      </trkpt>
      <trkpt lat="43.00162" lon="0.782591">
        <ele>755.6</ele>
        <time>1970-01-01T08:17:25.000Z</time>
      </trkpt>
      <trkpt lat="43.001543" lon="0.782519">
        <ele>756.6</ele>
        <time>1970-01-01T08:17:32.000Z</time>
      </trkpt>
      <trkpt lat="43.001466" lon="0.782419">
        <ele>757.6</ele>
        <time>1970-01-01T08:17:41.000Z</time>
      </trkpt>
      <trkpt lat="43.001402" lon="0.782353">
        <ele>759</ele>
        <time>1970-01-01T08:17:48.000Z</time>
      </trkpt>
      <trkpt lat="43.001352" lon="0.782268">
        <ele>760</ele>
        <time>1970-01-01T08:17:54.000Z</time>
      </trkpt>
      <trkpt lat="43.001305" lon="0.782171">
        <ele>761.2</ele>
        <time>1970-01-01T08:18:00.000Z</time>
      </trkpt>
      <trkpt lat="43.001273" lon="0.782123">
        <ele>762.2</ele>
        <time>1970-01-01T08:18:04.000Z</time>
      </trkpt>
      <trkpt lat="43.00121" lon="0.782046">
        <ele>763.4</ele>
        <time>1970-01-01T08:18:10.000Z</time>
      </trkpt>
      <trkpt lat="43.001136" lon="0.781994">
        <ele>764.6</ele>
        <time>1970-01-01T08:18:16.000Z</time>
      </trkpt>
      <trkpt lat="43.001063" lon="0.781998">
        <ele>765.6</ele>
        <time>1970-01-01T08:18:23.000Z</time>
      </trkpt>
      <trkpt lat="43.000928" lon="0.781968">
        <ele>766.6</ele>
        <time>1970-01-01T08:18:36.000Z</time>
      </trkpt>
      <trkpt lat="43.000801" lon="0.781954">
        <ele>767.8</ele>
        <time>1970-01-01T08:18:46.000Z</time>
      </trkpt>
      <trkpt lat="43.000728" lon="0.781925">
        <ele>768.8</ele>
        <time>1970-01-01T08:18:52.000Z</time>
      </trkpt>
      <trkpt lat="43.000655" lon="0.781909">
        <ele>769.8</ele>
        <time>1970-01-01T08:18:58.000Z</time>
      </trkpt>
      <trkpt lat="43.000569" lon="0.781894">
        <ele>771</ele>
        <time>1970-01-01T08:19:05.000Z</time>
      </trkpt>
      <trkpt lat="43.000483" lon="0.781892">
        <ele>772</ele>
        <time>1970-01-01T08:19:11.000Z</time>
      </trkpt>
      <trkpt lat="43.000468" lon="0.781899">
        <ele>772</ele>
        <time>1970-01-01T08:19:12.000Z</time>
      </trkpt>
      <trkpt lat="43.000455" lon="0.781899">
        <ele>772.2</ele>
        <time>1970-01-01T08:19:13.000Z</time>
      </trkpt>
      <trkpt lat="43.000397" lon="0.781907">
        <ele>772.6</ele>
        <time>1970-01-01T08:19:17.000Z</time>
      </trkpt>
      <trkpt lat="42.999838" lon="0.781839">
        <ele>771.6</ele>
        <time>1970-01-01T08:19:44.000Z</time>
      </trkpt>
      <trkpt lat="42.999658" lon="0.781841">
        <ele>771</ele>
        <time>1970-01-01T08:19:51.000Z</time>
      </trkpt>
      <trkpt lat="42.99913" lon="0.781595">
        <ele>770.8</ele>
        <time>1970-01-01T08:20:20.000Z</time>
      </trkpt>
      <trkpt lat="42.998985" lon="0.781537">
        <ele>772</ele>
        <time>1970-01-01T08:20:28.000Z</time>
      </trkpt>
      <trkpt lat="42.998956" lon="0.781527">
        <ele>772.4</ele>
        <time>1970-01-01T08:20:30.000Z</time>
      </trkpt>
      <trkpt lat="42.998903" lon="0.781521">
        <ele>773</ele>
        <time>1970-01-01T08:20:34.000Z</time>
      </trkpt>
      <trkpt lat="42.998843" lon="0.781533">
        <ele>773.8</ele>
        <time>1970-01-01T08:20:38.000Z</time>
      </trkpt>
      <trkpt lat="42.998828" lon="0.781534">
        <ele>774</ele>
        <time>1970-01-01T08:20:39.000Z</time>
      </trkpt>
      <trkpt lat="42.998732" lon="0.781536">
        <ele>775</ele>
        <time>1970-01-01T08:20:45.000Z</time>
      </trkpt>
      <trkpt lat="42.998653" lon="0.781552">
        <ele>776.2</ele>
        <time>1970-01-01T08:20:50.000Z</time>
      </trkpt>
      <trkpt lat="42.998326" lon="0.781549">
        <ele>776.2</ele>
        <time>1970-01-01T08:21:15.000Z</time>
      </trkpt>
      <trkpt lat="42.998408" lon="0.781573">
        <ele>776.6</ele>
        <time>1970-01-01T08:21:29.000Z</time>
      </trkpt>
      <trkpt lat="42.998522" lon="0.781563">
        <ele>777</ele>
        <time>1970-01-01T08:21:35.000Z</time>
      </trkpt>
      <trkpt lat="42.998568" lon="0.78154">
        <ele>776.8</ele>
        <time>1970-01-01T08:21:41.000Z</time>
      </trkpt>
      <trkpt lat="42.998315" lon="0.781395">
        <ele>780.4</ele>
        <time>1970-01-01T08:22:55.000Z</time>
      </trkpt>
      <trkpt lat="42.998221" lon="0.781314">
        <ele>781.2</ele>
        <time>1970-01-01T08:23:02.000Z</time>
      </trkpt>
      <trkpt lat="42.998191" lon="0.781273">
        <ele>781.4</ele>
        <time>1970-01-01T08:23:06.000Z</time>
      </trkpt>
      <trkpt lat="42.998021" lon="0.781003">
        <ele>781.8</ele>
        <time>1970-01-01T08:23:21.000Z</time>
      </trkpt>
      <trkpt lat="42.99796" lon="0.780902">
        <ele>782.4</ele>
        <time>1970-01-01T08:23:27.000Z</time>
      </trkpt>
      <trkpt lat="42.997785" lon="0.780702">
        <ele>783.6</ele>
        <time>1970-01-01T08:23:40.000Z</time>
      </trkpt>
      <trkpt lat="42.997774" lon="0.780693">
        <ele>783.8</ele>
        <time>1970-01-01T08:23:41.000Z</time>
      </trkpt>
      <trkpt lat="42.997731" lon="0.780674">
        <ele>784</ele>
        <time>1970-01-01T08:23:45.000Z</time>
      </trkpt>
      <trkpt lat="42.996823" lon="0.780629">
        <ele>803</ele>
        <time>1970-01-01T08:28:52.000Z</time>
      </trkpt>
      <trkpt lat="42.996671" lon="0.780746">
        <ele>804.2</ele>
        <time>1970-01-01T08:29:03.000Z</time>
      </trkpt>
      <trkpt lat="42.996347" lon="0.78062">
        <ele>803.2</ele>
        <time>1970-01-01T08:29:15.000Z</time>
      </trkpt>
      <trkpt lat="42.996099" lon="0.780433">
        <ele>802</ele>
        <time>1970-01-01T08:29:22.000Z</time>
      </trkpt>
      <trkpt lat="42.995652" lon="0.779968">
        <ele>802</ele>
        <time>1970-01-01T08:29:42.000Z</time>
      </trkpt>
      <trkpt lat="42.995475" lon="0.779764">
        <ele>801.4</ele>
        <time>1970-01-01T08:29:48.000Z</time>
      </trkpt>
      <trkpt lat="42.995141" lon="0.779538">
        <ele>800.2</ele>
        <time>1970-01-01T08:30:01.000Z</time>
      </trkpt>
      <trkpt lat="42.994899" lon="0.779398">
        <ele>801.4</ele>
        <time>1970-01-01T08:30:11.000Z</time>
      </trkpt>
      <trkpt lat="42.994379" lon="0.779171">
        <ele>802.2</ele>
        <time>1970-01-01T08:30:28.000Z</time>
      </trkpt>
      <trkpt lat="42.994276" lon="0.779115">
        <ele>802.6</ele>
        <time>1970-01-01T08:30:32.000Z</time>
      </trkpt>
      <trkpt lat="42.993994" lon="0.778936">
        <ele>803.2</ele>
        <time>1970-01-01T08:30:43.000Z</time>
      </trkpt>
      <trkpt lat="42.993807" lon="0.778763">
        <ele>803.6</ele>
        <time>1970-01-01T08:30:51.000Z</time>
      </trkpt>
      <trkpt lat="42.993492" lon="0.778374">
        <ele>803.8</ele>
        <time>1970-01-01T08:31:04.000Z</time>
      </trkpt>
      <trkpt lat="42.993377" lon="0.778224">
        <ele>804.8</ele>
        <time>1970-01-01T08:31:09.000Z</time>
      </trkpt>
      <trkpt lat="42.993092" lon="0.777791">
        <ele>805.8</ele>
        <time>1970-01-01T08:31:24.000Z</time>
      </trkpt>
      <trkpt lat="42.992819" lon="0.777175">
        <ele>804.8</ele>
        <time>1970-01-01T08:31:41.000Z</time>
      </trkpt>
      <trkpt lat="42.992662" lon="0.777049">
        <ele>803.2</ele>
        <time>1970-01-01T08:31:46.000Z</time>
      </trkpt>
      <trkpt lat="42.992574" lon="0.776989">
        <ele>802</ele>
        <time>1970-01-01T08:31:48.000Z</time>
      </trkpt>
      <trkpt lat="42.992444" lon="0.776885">
        <ele>800.8</ele>
        <time>1970-01-01T08:31:51.000Z</time>
      </trkpt>
      <trkpt lat="42.992365" lon="0.776817">
        <ele>798.8</ele>
        <time>1970-01-01T08:31:53.000Z</time>
      </trkpt>
      <trkpt lat="42.992276" lon="0.776749">
        <ele>797</ele>
        <time>1970-01-01T08:31:55.000Z</time>
      </trkpt>
      <trkpt lat="42.992169" lon="0.776688">
        <ele>795</ele>
        <time>1970-01-01T08:31:57.000Z</time>
      </trkpt>
      <trkpt lat="42.992036" lon="0.776624">
        <ele>793.4</ele>
        <time>1970-01-01T08:31:59.000Z</time>
      </trkpt>
      <trkpt lat="42.991907" lon="0.776575">
        <ele>792</ele>
        <time>1970-01-01T08:32:01.000Z</time>
      </trkpt>
      <trkpt lat="42.991787" lon="0.776523">
        <ele>790.8</ele>
        <time>1970-01-01T08:32:03.000Z</time>
      </trkpt>
      <trkpt lat="42.991673" lon="0.776478">
        <ele>789.8</ele>
        <time>1970-01-01T08:32:05.000Z</time>
      </trkpt>
      <trkpt lat="42.991505" lon="0.776492">
        <ele>790.6</ele>
        <time>1970-01-01T08:32:10.000Z</time>
      </trkpt>
      <trkpt lat="42.991424" lon="0.776554">
        <ele>791.6</ele>
        <time>1970-01-01T08:32:14.000Z</time>
      </trkpt>
      <trkpt lat="42.991358" lon="0.776614">
        <ele>792.6</ele>
        <time>1970-01-01T08:32:18.000Z</time>
      </trkpt>
      <trkpt lat="42.99134" lon="0.776614">
        <ele>792.8</ele>
        <time>1970-01-01T08:32:19.000Z</time>
      </trkpt>
      <trkpt lat="42.991315" lon="0.776481">
        <ele>793.6</ele>
        <time>1970-01-01T08:32:28.000Z</time>
      </trkpt>
      <trkpt lat="42.991317" lon="0.776461">
        <ele>793.8</ele>
        <time>1970-01-01T08:32:29.000Z</time>
      </trkpt>
      <trkpt lat="42.991328" lon="0.776401">
        <ele>794.8</ele>
        <time>1970-01-01T08:32:32.000Z</time>
      </trkpt>
      <trkpt lat="42.991325" lon="0.776347">
        <ele>795.6</ele>
        <time>1970-01-01T08:32:35.000Z</time>
      </trkpt>
      <trkpt lat="42.99132" lon="0.776322">
        <ele>796</ele>
        <time>1970-01-01T08:32:36.000Z</time>
      </trkpt>
      <trkpt lat="42.991299" lon="0.776">
        <ele>796.8</ele>
        <time>1970-01-01T08:32:50.000Z</time>
      </trkpt>
      <trkpt lat="42.991303" lon="0.775864">
        <ele>798</ele>
        <time>1970-01-01T08:32:57.000Z</time>
      </trkpt>
      <trkpt lat="42.991284" lon="0.775576">
        <ele>798.8</ele>
        <time>1970-01-01T08:33:11.000Z</time>
      </trkpt>
      <trkpt lat="42.991271" lon="0.77544">
        <ele>799.8</ele>
        <time>1970-01-01T08:33:18.000Z</time>
      </trkpt>
      <trkpt lat="42.991258" lon="0.775349">
        <ele>800.8</ele>
        <time>1970-01-01T08:33:23.000Z</time>
      </trkpt>
      <trkpt lat="42.991244" lon="0.775285">
        <ele>801</ele>
        <time>1970-01-01T08:33:26.000Z</time>
      </trkpt>
      <trkpt lat="42.991224" lon="0.775223">
        <ele>801.8</ele>
        <time>1970-01-01T08:33:29.000Z</time>
      </trkpt>
      <trkpt lat="42.99121" lon="0.775131">
        <ele>803</ele>
        <time>1970-01-01T08:33:34.000Z</time>
      </trkpt>
      <trkpt lat="42.991211" lon="0.775107">
        <ele>803</ele>
        <time>1970-01-01T08:33:35.000Z</time>
      </trkpt>
      <trkpt lat="42.991183" lon="0.774991">
        <ele>804</ele>
        <time>1970-01-01T08:33:41.000Z</time>
      </trkpt>
      <trkpt lat="42.99091" lon="0.774658">
        <ele>804.6</ele>
        <time>1970-01-01T08:33:59.000Z</time>
      </trkpt>
      <trkpt lat="42.99084" lon="0.774589">
        <ele>804.2</ele>
        <time>1970-01-01T08:34:01.000Z</time>
      </trkpt>
      <trkpt lat="42.99072" lon="0.774502">
        <ele>803.4</ele>
        <time>1970-01-01T08:34:04.000Z</time>
      </trkpt>
      <trkpt lat="42.990653" lon="0.774474">
        <ele>802.8</ele>
        <time>1970-01-01T08:34:06.000Z</time>
      </trkpt>
      <trkpt lat="42.9906" lon="0.774452">
        <ele>802.2</ele>
        <time>1970-01-01T08:34:09.000Z</time>
      </trkpt>
      <trkpt lat="42.990568" lon="0.774433">
        <ele>802</ele>
        <time>1970-01-01T08:34:13.000Z</time>
      </trkpt>
      <trkpt lat="42.990479" lon="0.774352">
        <ele>801.6</ele>
        <time>1970-01-01T08:34:43.000Z</time>
      </trkpt>
      <trkpt lat="42.990441" lon="0.774301">
        <ele>801.4</ele>
        <time>1970-01-01T08:34:45.000Z</time>
      </trkpt>
      <trkpt lat="42.990232" lon="0.774097">
        <ele>800.4</ele>
        <time>1970-01-01T08:34:51.000Z</time>
      </trkpt>
      <trkpt lat="42.989944" lon="0.773884">
        <ele>798.8</ele>
        <time>1970-01-01T08:34:57.000Z</time>
      </trkpt>
      <trkpt lat="42.989838" lon="0.7738">
        <ele>797.8</ele>
        <time>1970-01-01T08:34:59.000Z</time>
      </trkpt>
      <trkpt lat="42.989789" lon="0.773751">
        <ele>797.4</ele>
        <time>1970-01-01T08:35:00.000Z</time>
      </trkpt>
      <trkpt lat="42.989637" lon="0.773564">
        <ele>796.2</ele>
        <time>1970-01-01T08:35:04.000Z</time>
      </trkpt>
      <trkpt lat="42.989521" lon="0.77346">
        <ele>796.8</ele>
        <time>1970-01-01T08:35:09.000Z</time>
      </trkpt>
      <trkpt lat="42.989491" lon="0.773306">
        <ele>796.8</ele>
        <time>1970-01-01T08:35:14.000Z</time>
      </trkpt>
      <trkpt lat="42.989485" lon="0.773105">
        <ele>795.8</ele>
        <time>1970-01-01T08:35:21.000Z</time>
      </trkpt>
      <trkpt lat="42.989439" lon="0.772997">
        <ele>795.6</ele>
        <time>1970-01-01T08:35:25.000Z</time>
      </trkpt>
      <trkpt lat="42.989388" lon="0.772777">
        <ele>797.2</ele>
        <time>1970-01-01T08:35:35.000Z</time>
      </trkpt>
      <trkpt lat="42.989338" lon="0.772688">
        <ele>798.4</ele>
        <time>1970-01-01T08:35:40.000Z</time>
      </trkpt>
      <trkpt lat="42.989312" lon="0.772617">
        <ele>799.6</ele>
        <time>1970-01-01T08:35:44.000Z</time>
      </trkpt>
      <trkpt lat="42.989289" lon="0.772507">
        <ele>800.2</ele>
        <time>1970-01-01T08:35:49.000Z</time>
      </trkpt>
      <trkpt lat="42.989285" lon="0.772458">
        <ele>800.8</ele>
        <time>1970-01-01T08:35:51.000Z</time>
      </trkpt>
      <trkpt lat="42.989276" lon="0.772405">
        <ele>801</ele>
        <time>1970-01-01T08:35:53.000Z</time>
      </trkpt>
      <trkpt lat="42.989244" lon="0.772321">
        <ele>801.8</ele>
        <time>1970-01-01T08:35:57.000Z</time>
      </trkpt>
      <trkpt lat="42.989214" lon="0.772213">
        <ele>802.8</ele>
        <time>1970-01-01T08:36:02.000Z</time>
      </trkpt>
      <trkpt lat="42.989177" lon="0.772101">
        <ele>804</ele>
        <time>1970-01-01T08:36:07.000Z</time>
      </trkpt>
      <trkpt lat="42.989162" lon="0.772001">
        <ele>805.2</ele>
        <time>1970-01-01T08:36:11.000Z</time>
      </trkpt>
      <trkpt lat="42.989122" lon="0.7718">
        <ele>806.4</ele>
        <time>1970-01-01T08:36:20.000Z</time>
      </trkpt>
      <trkpt lat="42.989064" lon="0.771713">
        <ele>807.2</ele>
        <time>1970-01-01T08:36:26.000Z</time>
      </trkpt>
      <trkpt lat="42.989011" lon="0.771673">
        <ele>807.6</ele>
        <time>1970-01-01T08:36:30.000Z</time>
      </trkpt>
      <trkpt lat="42.988775" lon="0.771667">
        <ele>808.2</ele>
        <time>1970-01-01T08:36:42.000Z</time>
      </trkpt>
      <trkpt lat="42.988648" lon="0.77162">
        <ele>808.8</ele>
        <time>1970-01-01T08:36:50.000Z</time>
      </trkpt>
      <trkpt lat="42.988607" lon="0.771542">
        <ele>809.2</ele>
        <time>1970-01-01T08:36:54.000Z</time>
      </trkpt>
      <trkpt lat="42.98846" lon="0.771226">
        <ele>810.4</ele>
        <time>1970-01-01T08:37:09.000Z</time>
      </trkpt>
      <trkpt lat="42.988429" lon="0.77115">
        <ele>811.4</ele>
        <time>1970-01-01T08:37:14.000Z</time>
      </trkpt>
      <trkpt lat="42.98842" lon="0.771049">
        <ele>812.2</ele>
        <time>1970-01-01T08:37:19.000Z</time>
      </trkpt>
      <trkpt lat="42.988404" lon="0.770881">
        <ele>813.4</ele>
        <time>1970-01-01T08:37:26.000Z</time>
      </trkpt>
      <trkpt lat="42.988369" lon="0.770657">
        <ele>814.4</ele>
        <time>1970-01-01T08:37:34.000Z</time>
      </trkpt>
      <trkpt lat="42.988362" lon="0.770531">
        <ele>815.6</ele>
        <time>1970-01-01T08:37:40.000Z</time>
      </trkpt>
      <trkpt lat="42.988374" lon="0.770391">
        <ele>816.6</ele>
        <time>1970-01-01T08:37:46.000Z</time>
      </trkpt>
      <trkpt lat="42.988389" lon="0.770193">
        <ele>817.6</ele>
        <time>1970-01-01T08:37:55.000Z</time>
      </trkpt>
      <trkpt lat="42.988399" lon="0.770083">
        <ele>818.8</ele>
        <time>1970-01-01T08:38:01.000Z</time>
      </trkpt>
      <trkpt lat="42.988433" lon="0.769964">
        <ele>819.8</ele>
        <time>1970-01-01T08:38:07.000Z</time>
      </trkpt>
      <trkpt lat="42.988449" lon="0.769887">
        <ele>820.6</ele>
        <time>1970-01-01T08:38:11.000Z</time>
      </trkpt>
      <trkpt lat="42.988445" lon="0.76984">
        <ele>821</ele>
        <time>1970-01-01T08:38:13.000Z</time>
      </trkpt>
      <trkpt lat="42.988448" lon="0.769709">
        <ele>822</ele>
        <time>1970-01-01T08:38:19.000Z</time>
      </trkpt>
      <trkpt lat="42.988439" lon="0.7695">
        <ele>823</ele>
        <time>1970-01-01T08:38:28.000Z</time>
      </trkpt>
      <trkpt lat="42.988396" lon="0.769319">
        <ele>824</ele>
        <time>1970-01-01T08:38:36.000Z</time>
      </trkpt>
      <trkpt lat="42.988401" lon="0.768566">
        <ele>824</ele>
        <time>1970-01-01T08:39:00.000Z</time>
      </trkpt>
      <trkpt lat="42.988408" lon="0.768447">
        <ele>823.4</ele>
        <time>1970-01-01T08:39:02.000Z</time>
      </trkpt>
      <trkpt lat="42.988408" lon="0.768321">
        <ele>823</ele>
        <time>1970-01-01T08:39:04.000Z</time>
      </trkpt>
      <trkpt lat="42.988398" lon="0.76826">
        <ele>822.8</ele>
        <time>1970-01-01T08:39:05.000Z</time>
      </trkpt>
      <trkpt lat="42.988318" lon="0.768011">
        <ele>821.8</ele>
        <time>1970-01-01T08:39:09.000Z</time>
      </trkpt>
      <trkpt lat="42.988291" lon="0.767946">
        <ele>821.4</ele>
        <time>1970-01-01T08:39:10.000Z</time>
      </trkpt>
      <trkpt lat="42.988182" lon="0.767653">
        <ele>820.4</ele>
        <time>1970-01-01T08:39:14.000Z</time>
      </trkpt>
      <trkpt lat="42.988141" lon="0.767469">
        <ele>819.2</ele>
        <time>1970-01-01T08:39:16.000Z</time>
      </trkpt>
      <trkpt lat="42.988105" lon="0.767305">
        <ele>818</ele>
        <time>1970-01-01T08:39:18.000Z</time>
      </trkpt>
      <trkpt lat="42.988066" lon="0.767158">
        <ele>817</ele>
        <time>1970-01-01T08:39:20.000Z</time>
      </trkpt>
      <trkpt lat="42.988039" lon="0.767092">
        <ele>816.4</ele>
        <time>1970-01-01T08:39:21.000Z</time>
      </trkpt>
      <trkpt lat="42.987966" lon="0.76695">
        <ele>814.6</ele>
        <time>1970-01-01T08:39:24.000Z</time>
      </trkpt>
      <trkpt lat="42.987881" lon="0.766851">
        <ele>813.6</ele>
        <time>1970-01-01T08:39:27.000Z</time>
      </trkpt>
      <trkpt lat="42.987764" lon="0.766708">
        <ele>812.6</ele>
        <time>1970-01-01T08:39:33.000Z</time>
      </trkpt>
      <trkpt lat="42.987664" lon="0.766614">
        <ele>812</ele>
        <time>1970-01-01T08:40:28.000Z</time>
      </trkpt>
      <trkpt lat="42.987573" lon="0.766492">
        <ele>810.6</ele>
        <time>1970-01-01T08:40:33.000Z</time>
      </trkpt>
      <trkpt lat="42.987477" lon="0.766385">
        <ele>809</ele>
        <time>1970-01-01T08:40:36.000Z</time>
      </trkpt>
      <trkpt lat="42.987406" lon="0.766265">
        <ele>807.6</ele>
        <time>1970-01-01T08:40:38.000Z</time>
      </trkpt>
      <trkpt lat="42.987353" lon="0.766111">
        <ele>806</ele>
        <time>1970-01-01T08:40:40.000Z</time>
      </trkpt>
      <trkpt lat="42.987311" lon="0.765962">
        <ele>804</ele>
        <time>1970-01-01T08:40:42.000Z</time>
      </trkpt>
      <trkpt lat="42.987292" lon="0.765876">
        <ele>802.8</ele>
        <time>1970-01-01T08:40:43.000Z</time>
      </trkpt>
      <trkpt lat="42.987283" lon="0.765789">
        <ele>801.8</ele>
        <time>1970-01-01T08:40:44.000Z</time>
      </trkpt>
      <trkpt lat="42.98727" lon="0.765711">
        <ele>800.8</ele>
        <time>1970-01-01T08:40:45.000Z</time>
      </trkpt>
      <trkpt lat="42.987249" lon="0.765627">
        <ele>800</ele>
        <time>1970-01-01T08:40:46.000Z</time>
      </trkpt>
      <trkpt lat="42.987224" lon="0.765532">
        <ele>799</ele>
        <time>1970-01-01T08:40:47.000Z</time>
      </trkpt>
      <trkpt lat="42.987206" lon="0.765426">
        <ele>797.8</ele>
        <time>1970-01-01T08:40:48.000Z</time>
      </trkpt>
      <trkpt lat="42.987187" lon="0.765331">
        <ele>796.8</ele>
        <time>1970-01-01T08:40:49.000Z</time>
      </trkpt>
      <trkpt lat="42.987138" lon="0.765154">
        <ele>794.4</ele>
        <time>1970-01-01T08:40:51.000Z</time>
      </trkpt>
      <trkpt lat="42.987107" lon="0.765075">
        <ele>793.4</ele>
        <time>1970-01-01T08:40:52.000Z</time>
      </trkpt>
      <trkpt lat="42.98708" lon="0.765">
        <ele>792.4</ele>
        <time>1970-01-01T08:40:53.000Z</time>
      </trkpt>
      <trkpt lat="42.987058" lon="0.764933">
        <ele>791.2</ele>
        <time>1970-01-01T08:40:54.000Z</time>
      </trkpt>
      <trkpt lat="42.987024" lon="0.764829">
        <ele>789.8</ele>
        <time>1970-01-01T08:40:56.000Z</time>
      </trkpt>
      <trkpt lat="42.987004" lon="0.764747">
        <ele>787.8</ele>
        <time>1970-01-01T08:40:58.000Z</time>
      </trkpt>
      <trkpt lat="42.986988" lon="0.764621">
        <ele>786.6</ele>
        <time>1970-01-01T08:41:00.000Z</time>
      </trkpt>
      <trkpt lat="42.986977" lon="0.764545">
        <ele>786.2</ele>
        <time>1970-01-01T08:41:01.000Z</time>
      </trkpt>
      <trkpt lat="42.986943" lon="0.764372">
        <ele>785.4</ele>
        <time>1970-01-01T08:41:03.000Z</time>
      </trkpt>
      <trkpt lat="42.986919" lon="0.764297">
        <ele>784.6</ele>
        <time>1970-01-01T08:41:04.000Z</time>
      </trkpt>
      <trkpt lat="42.986886" lon="0.764208">
        <ele>783.6</ele>
        <time>1970-01-01T08:41:05.000Z</time>
      </trkpt>
      <trkpt lat="42.986852" lon="0.764096">
        <ele>782.2</ele>
        <time>1970-01-01T08:41:07.000Z</time>
      </trkpt>
      <trkpt lat="42.986816" lon="0.763942">
        <ele>780.4</ele>
        <time>1970-01-01T08:41:10.000Z</time>
      </trkpt>
      <trkpt lat="42.986806" lon="0.763892">
        <ele>779.6</ele>
        <time>1970-01-01T08:41:11.000Z</time>
      </trkpt>
      <trkpt lat="42.986799" lon="0.763846">
        <ele>779</ele>
        <time>1970-01-01T08:41:12.000Z</time>
      </trkpt>
      <trkpt lat="42.986783" lon="0.763777">
        <ele>777.6</ele>
        <time>1970-01-01T08:41:14.000Z</time>
      </trkpt>
      <trkpt lat="42.986776" lon="0.763676">
        <ele>776.2</ele>
        <time>1970-01-01T08:41:16.000Z</time>
      </trkpt>
      <trkpt lat="42.986777" lon="0.763573">
        <ele>774.2</ele>
        <time>1970-01-01T08:41:18.000Z</time>
      </trkpt>
      <trkpt lat="42.986771" lon="0.763535">
        <ele>773</ele>
        <time>1970-01-01T08:41:19.000Z</time>
      </trkpt>
      <trkpt lat="42.986752" lon="0.763505">
        <ele>772</ele>
        <time>1970-01-01T08:41:20.000Z</time>
      </trkpt>
      <trkpt lat="42.986704" lon="0.763479">
        <ele>770.8</ele>
        <time>1970-01-01T08:41:22.000Z</time>
      </trkpt>
      <trkpt lat="42.986628" lon="0.763439">
        <ele>769.4</ele>
        <time>1970-01-01T08:41:24.000Z</time>
      </trkpt>
      <trkpt lat="42.986564" lon="0.763412">
        <ele>768.2</ele>
        <time>1970-01-01T08:41:26.000Z</time>
      </trkpt>
      <trkpt lat="42.986484" lon="0.763404">
        <ele>766.6</ele>
        <time>1970-01-01T08:41:28.000Z</time>
      </trkpt>
      <trkpt lat="42.986406" lon="0.763395">
        <ele>765.2</ele>
        <time>1970-01-01T08:41:30.000Z</time>
      </trkpt>
      <trkpt lat="42.986291" lon="0.763406">
        <ele>763.6</ele>
        <time>1970-01-01T08:41:33.000Z</time>
      </trkpt>
      <trkpt lat="42.986231" lon="0.763397">
        <ele>761.6</ele>
        <time>1970-01-01T08:41:35.000Z</time>
      </trkpt>
      <trkpt lat="42.986133" lon="0.763393">
        <ele>760.4</ele>
        <time>1970-01-01T08:41:38.000Z</time>
      </trkpt>
      <trkpt lat="42.986071" lon="0.763395">
        <ele>759.2</ele>
        <time>1970-01-01T08:41:40.000Z</time>
      </trkpt>
      <trkpt lat="42.985984" lon="0.763378">
        <ele>757.8</ele>
        <time>1970-01-01T08:41:43.000Z</time>
      </trkpt>
      <trkpt lat="42.985879" lon="0.763396">
        <ele>756.4</ele>
        <time>1970-01-01T08:41:46.000Z</time>
      </trkpt>
      <trkpt lat="42.985803" lon="0.763423">
        <ele>755.2</ele>
        <time>1970-01-01T08:41:48.000Z</time>
      </trkpt>
      <trkpt lat="42.98573" lon="0.763468">
        <ele>754</ele>
        <time>1970-01-01T08:41:51.000Z</time>
      </trkpt>
      <trkpt lat="42.985671" lon="0.7635">
        <ele>752.6</ele>
        <time>1970-01-01T08:41:53.000Z</time>
      </trkpt>
      <trkpt lat="42.985599" lon="0.763576">
        <ele>751.8</ele>
        <time>1970-01-01T08:41:56.000Z</time>
      </trkpt>
      <trkpt lat="42.985563" lon="0.763596">
        <ele>751.4</ele>
        <time>1970-01-01T08:41:57.000Z</time>
      </trkpt>
      <trkpt lat="42.985458" lon="0.763623">
        <ele>749.8</ele>
        <time>1970-01-01T08:42:00.000Z</time>
      </trkpt>
      <trkpt lat="42.985423" lon="0.763628">
        <ele>749</ele>
        <time>1970-01-01T08:42:01.000Z</time>
      </trkpt>
      <trkpt lat="42.985397" lon="0.763632">
        <ele>748.2</ele>
        <time>1970-01-01T08:42:02.000Z</time>
      </trkpt>
      <trkpt lat="42.985342" lon="0.763645">
        <ele>747</ele>
        <time>1970-01-01T08:42:04.000Z</time>
      </trkpt>
      <trkpt lat="42.985255" lon="0.763648">
        <ele>745.6</ele>
        <time>1970-01-01T08:42:07.000Z</time>
      </trkpt>
      <trkpt lat="42.985227" lon="0.763645">
        <ele>744.2</ele>
        <time>1970-01-01T08:42:09.000Z</time>
      </trkpt>
      <trkpt lat="42.985179" lon="0.763649">
        <ele>743</ele>
        <time>1970-01-01T08:42:11.000Z</time>
      </trkpt>
      <trkpt lat="42.985066" lon="0.763696">
        <ele>741.8</ele>
        <time>1970-01-01T08:42:15.000Z</time>
      </trkpt>
      <trkpt lat="42.985" lon="0.763706">
        <ele>740.8</ele>
        <time>1970-01-01T08:42:18.000Z</time>
      </trkpt>
      <trkpt lat="42.984919" lon="0.763718">
        <ele>739.6</ele>
        <time>1970-01-01T08:42:21.000Z</time>
      </trkpt>
      <trkpt lat="42.984851" lon="0.763731">
        <ele>738.4</ele>
        <time>1970-01-01T08:42:25.000Z</time>
      </trkpt>
      <trkpt lat="42.984792" lon="0.76375">
        <ele>737.4</ele>
        <time>1970-01-01T08:42:28.000Z</time>
      </trkpt>
      <trkpt lat="42.98477" lon="0.763756">
        <ele>737</ele>
        <time>1970-01-01T08:42:29.000Z</time>
      </trkpt>
      <trkpt lat="42.984694" lon="0.763778">
        <ele>735.6</ele>
        <time>1970-01-01T08:42:32.000Z</time>
      </trkpt>
      <trkpt lat="42.984656" lon="0.763798">
        <ele>734.6</ele>
        <time>1970-01-01T08:42:34.000Z</time>
      </trkpt>
      <trkpt lat="42.984574" lon="0.763833">
        <ele>733.4</ele>
        <time>1970-01-01T08:42:37.000Z</time>
      </trkpt>
      <trkpt lat="42.984495" lon="0.763881">
        <ele>732.2</ele>
        <time>1970-01-01T08:42:40.000Z</time>
      </trkpt>
      <trkpt lat="42.984429" lon="0.763927">
        <ele>731</ele>
        <time>1970-01-01T08:42:43.000Z</time>
      </trkpt>
      <trkpt lat="42.984359" lon="0.763961">
        <ele>729.6</ele>
        <time>1970-01-01T08:42:46.000Z</time>
      </trkpt>
      <trkpt lat="42.98429" lon="0.763998">
        <ele>728.4</ele>
        <time>1970-01-01T08:42:48.000Z</time>
      </trkpt>
      <trkpt lat="42.984198" lon="0.76406">
        <ele>727</ele>
        <time>1970-01-01T08:42:51.000Z</time>
      </trkpt>
      <trkpt lat="42.984169" lon="0.764077">
        <ele>726.2</ele>
        <time>1970-01-01T08:42:54.000Z</time>
      </trkpt>
      <trkpt lat="42.984108" lon="0.764102">
        <ele>725</ele>
        <time>1970-01-01T08:46:46.000Z</time>
      </trkpt>
      <trkpt lat="42.984084" lon="0.764116">
        <ele>724.6</ele>
        <time>1970-01-01T08:46:47.000Z</time>
      </trkpt>
      <trkpt lat="42.98401" lon="0.764131">
        <ele>723.6</ele>
        <time>1970-01-01T08:46:50.000Z</time>
      </trkpt>
      <trkpt lat="42.983883" lon="0.764165">
        <ele>722.2</ele>
        <time>1970-01-01T08:46:54.000Z</time>
      </trkpt>
      <trkpt lat="42.983813" lon="0.764185">
        <ele>720.8</ele>
        <time>1970-01-01T08:46:56.000Z</time>
      </trkpt>
      <trkpt lat="42.983696" lon="0.764208">
        <ele>719.2</ele>
        <time>1970-01-01T08:46:59.000Z</time>
      </trkpt>
      <trkpt lat="42.983614" lon="0.764235">
        <ele>718</ele>
        <time>1970-01-01T08:47:01.000Z</time>
      </trkpt>
      <trkpt lat="42.983542" lon="0.76425">
        <ele>716.8</ele>
        <time>1970-01-01T08:47:03.000Z</time>
      </trkpt>
      <trkpt lat="42.983463" lon="0.764279">
        <ele>715.8</ele>
        <time>1970-01-01T08:47:05.000Z</time>
      </trkpt>
      <trkpt lat="42.983419" lon="0.764291">
        <ele>714.8</ele>
        <time>1970-01-01T08:47:06.000Z</time>
      </trkpt>
      <trkpt lat="42.983335" lon="0.764329">
        <ele>713.6</ele>
        <time>1970-01-01T08:47:08.000Z</time>
      </trkpt>
      <trkpt lat="42.983253" lon="0.764353">
        <ele>712.2</ele>
        <time>1970-01-01T08:47:10.000Z</time>
      </trkpt>
      <trkpt lat="42.983176" lon="0.764385">
        <ele>711</ele>
        <time>1970-01-01T08:47:12.000Z</time>
      </trkpt>
      <trkpt lat="42.983105" lon="0.764422">
        <ele>709.8</ele>
        <time>1970-01-01T08:47:14.000Z</time>
      </trkpt>
      <trkpt lat="42.983044" lon="0.764441">
        <ele>708.6</ele>
        <time>1970-01-01T08:47:16.000Z</time>
      </trkpt>
      <trkpt lat="42.983" lon="0.764455">
        <ele>707.6</ele>
        <time>1970-01-01T08:47:18.000Z</time>
      </trkpt>
      <trkpt lat="42.982946" lon="0.764461">
        <ele>706.4</ele>
        <time>1970-01-01T08:47:21.000Z</time>
      </trkpt>
      <trkpt lat="42.982887" lon="0.764477">
        <ele>705.4</ele>
        <time>1970-01-01T08:47:24.000Z</time>
      </trkpt>
      <trkpt lat="42.982798" lon="0.764525">
        <ele>703.8</ele>
        <time>1970-01-01T08:47:27.000Z</time>
      </trkpt>
      <trkpt lat="42.982709" lon="0.764561">
        <ele>702.6</ele>
        <time>1970-01-01T08:47:30.000Z</time>
      </trkpt>
      <trkpt lat="42.982655" lon="0.764572">
        <ele>701.6</ele>
        <time>1970-01-01T08:47:32.000Z</time>
      </trkpt>
      <trkpt lat="42.982602" lon="0.764593">
        <ele>700.4</ele>
        <time>1970-01-01T08:47:34.000Z</time>
      </trkpt>
      <trkpt lat="42.982524" lon="0.764642">
        <ele>699.2</ele>
        <time>1970-01-01T08:47:37.000Z</time>
      </trkpt>
      <trkpt lat="42.982451" lon="0.764704">
        <ele>698</ele>
        <time>1970-01-01T08:47:40.000Z</time>
      </trkpt>
      <trkpt lat="42.98241" lon="0.764736">
        <ele>696.6</ele>
        <time>1970-01-01T08:47:43.000Z</time>
      </trkpt>
      <trkpt lat="42.982373" lon="0.764754">
        <ele>695.8</ele>
        <time>1970-01-01T08:48:09.000Z</time>
      </trkpt>
      <trkpt lat="42.982323" lon="0.764788">
        <ele>695.2</ele>
        <time>1970-01-01T08:48:11.000Z</time>
      </trkpt>
      <trkpt lat="42.98223" lon="0.764825">
        <ele>694</ele>
        <time>1970-01-01T08:48:14.000Z</time>
      </trkpt>
      <trkpt lat="42.98217" lon="0.764844">
        <ele>692.8</ele>
        <time>1970-01-01T08:48:16.000Z</time>
      </trkpt>
      <trkpt lat="42.982084" lon="0.764889">
        <ele>691</ele>
        <time>1970-01-01T08:48:19.000Z</time>
      </trkpt>
      <trkpt lat="42.98202" lon="0.764919">
        <ele>689.8</ele>
        <time>1970-01-01T08:48:21.000Z</time>
      </trkpt>
      <trkpt lat="42.981907" lon="0.76497">
        <ele>688.6</ele>
        <time>1970-01-01T08:48:24.000Z</time>
      </trkpt>
      <trkpt lat="42.981839" lon="0.765018">
        <ele>687.6</ele>
        <time>1970-01-01T08:48:26.000Z</time>
      </trkpt>
      <trkpt lat="42.981763" lon="0.76507">
        <ele>685.8</ele>
        <time>1970-01-01T08:48:28.000Z</time>
      </trkpt>
      <trkpt lat="42.98164" lon="0.765148">
        <ele>684.4</ele>
        <time>1970-01-01T08:48:31.000Z</time>
      </trkpt>
      <trkpt lat="42.981568" lon="0.765179">
        <ele>683</ele>
        <time>1970-01-01T08:48:33.000Z</time>
      </trkpt>
      <trkpt lat="42.981512" lon="0.765209">
        <ele>681.8</ele>
        <time>1970-01-01T08:48:35.000Z</time>
      </trkpt>
      <trkpt lat="42.981442" lon="0.765231">
        <ele>680.6</ele>
        <time>1970-01-01T08:48:38.000Z</time>
      </trkpt>
      <trkpt lat="42.981368" lon="0.765266">
        <ele>679</ele>
        <time>1970-01-01T08:48:41.000Z</time>
      </trkpt>
      <trkpt lat="42.981279" lon="0.765309">
        <ele>677.8</ele>
        <time>1970-01-01T08:48:44.000Z</time>
      </trkpt>
      <trkpt lat="42.981196" lon="0.76534">
        <ele>676.6</ele>
        <time>1970-01-01T08:48:47.000Z</time>
      </trkpt>
      <trkpt lat="42.981144" lon="0.765364">
        <ele>675.4</ele>
        <time>1970-01-01T08:48:49.000Z</time>
      </trkpt>
      <trkpt lat="42.98109" lon="0.765401">
        <ele>674</ele>
        <time>1970-01-01T08:48:51.000Z</time>
      </trkpt>
      <trkpt lat="42.981022" lon="0.765455">
        <ele>672.6</ele>
        <time>1970-01-01T08:48:53.000Z</time>
      </trkpt>
      <trkpt lat="42.980965" lon="0.765504">
        <ele>671.4</ele>
        <time>1970-01-01T08:48:55.000Z</time>
      </trkpt>
      <trkpt lat="42.980867" lon="0.765574">
        <ele>670</ele>
        <time>1970-01-01T08:48:58.000Z</time>
      </trkpt>
      <trkpt lat="42.980807" lon="0.765639">
        <ele>668.8</ele>
        <time>1970-01-01T08:49:00.000Z</time>
      </trkpt>
      <trkpt lat="42.980734" lon="0.765707">
        <ele>667.8</ele>
        <time>1970-01-01T08:49:02.000Z</time>
      </trkpt>
      <trkpt lat="42.980672" lon="0.765775">
        <ele>665.8</ele>
        <time>1970-01-01T08:49:04.000Z</time>
      </trkpt>
      <trkpt lat="42.980615" lon="0.765831">
        <ele>664.8</ele>
        <time>1970-01-01T08:49:06.000Z</time>
      </trkpt>
      <trkpt lat="42.980533" lon="0.76591">
        <ele>663.4</ele>
        <time>1970-01-01T08:49:09.000Z</time>
      </trkpt>
      <trkpt lat="42.980469" lon="0.765967">
        <ele>662</ele>
        <time>1970-01-01T08:49:11.000Z</time>
      </trkpt>
      <trkpt lat="42.98043" lon="0.765998">
        <ele>661.6</ele>
        <time>1970-01-01T08:49:12.000Z</time>
      </trkpt>
      <trkpt lat="42.980344" lon="0.766054">
        <ele>660.8</ele>
        <time>1970-01-01T08:49:14.000Z</time>
      </trkpt>
      <trkpt lat="42.980254" lon="0.766107">
        <ele>659.8</ele>
        <time>1970-01-01T08:49:16.000Z</time>
      </trkpt>
      <trkpt lat="42.980099" lon="0.766217">
        <ele>658.6</ele>
        <time>1970-01-01T08:49:19.000Z</time>
      </trkpt>
      <trkpt lat="42.979946" lon="0.766383">
        <ele>657.6</ele>
        <time>1970-01-01T08:49:24.000Z</time>
      </trkpt>
      <trkpt lat="42.979827" lon="0.766533">
        <ele>656.4</ele>
        <time>1970-01-01T08:49:29.000Z</time>
      </trkpt>
      <trkpt lat="42.979762" lon="0.766613">
        <ele>655.8</ele>
        <time>1970-01-01T08:49:31.000Z</time>
      </trkpt>
      <trkpt lat="42.979686" lon="0.766737">
        <ele>655.4</ele>
        <time>1970-01-01T08:49:33.000Z</time>
      </trkpt>
      <trkpt lat="42.979616" lon="0.766871">
        <ele>654.8</ele>
        <time>1970-01-01T08:49:35.000Z</time>
      </trkpt>
      <trkpt lat="42.97958" lon="0.766932">
        <ele>654.8</ele>
        <time>1970-01-01T08:49:36.000Z</time>
      </trkpt>
      <trkpt lat="42.979508" lon="0.767061">
        <ele>654.2</ele>
        <time>1970-01-01T08:49:38.000Z</time>
      </trkpt>
      <trkpt lat="42.979406" lon="0.767254">
        <ele>653.2</ele>
        <time>1970-01-01T08:49:41.000Z</time>
      </trkpt>
      <trkpt lat="42.979374" lon="0.767326">
        <ele>653</ele>
        <time>1970-01-01T08:49:42.000Z</time>
      </trkpt>
      <trkpt lat="42.979308" lon="0.767464">
        <ele>652</ele>
        <time>1970-01-01T08:49:44.000Z</time>
      </trkpt>
      <trkpt lat="42.979239" lon="0.767622">
        <ele>651.2</ele>
        <time>1970-01-01T08:49:46.000Z</time>
      </trkpt>
      <trkpt lat="42.979207" lon="0.767707">
        <ele>650.8</ele>
        <time>1970-01-01T08:49:47.000Z</time>
      </trkpt>
      <trkpt lat="42.979139" lon="0.767898">
        <ele>649.8</ele>
        <time>1970-01-01T08:49:50.000Z</time>
      </trkpt>
      <trkpt lat="42.979121" lon="0.767945">
        <ele>649.2</ele>
        <time>1970-01-01T08:49:51.000Z</time>
      </trkpt>
      <trkpt lat="42.979081" lon="0.768017">
        <ele>648.4</ele>
        <time>1970-01-01T08:49:54.000Z</time>
      </trkpt>
      <trkpt lat="42.97908" lon="0.76802">
        <ele>648</ele>
        <time>1970-01-01T08:49:55.000Z</time>
      </trkpt>
      <trkpt lat="42.979063" lon="0.768043">
        <ele>647.4</ele>
        <time>1970-01-01T08:50:24.000Z</time>
      </trkpt>
      <trkpt lat="42.978943" lon="0.768336">
        <ele>646.6</ele>
        <time>1970-01-01T08:50:31.000Z</time>
      </trkpt>
      <trkpt lat="42.978899" lon="0.768482">
        <ele>645.6</ele>
        <time>1970-01-01T08:50:33.000Z</time>
      </trkpt>
      <trkpt lat="42.978781" lon="0.768824">
        <ele>644.4</ele>
        <time>1970-01-01T08:50:37.000Z</time>
      </trkpt>
      <trkpt lat="42.978728" lon="0.769009">
        <ele>643.6</ele>
        <time>1970-01-01T08:50:39.000Z</time>
      </trkpt>
      <trkpt lat="42.978711" lon="0.769102">
        <ele>643.2</ele>
        <time>1970-01-01T08:50:40.000Z</time>
      </trkpt>
      <trkpt lat="42.978661" lon="0.769399">
        <ele>642.2</ele>
        <time>1970-01-01T08:50:43.000Z</time>
      </trkpt>
      <trkpt lat="42.978645" lon="0.769716">
        <ele>640.4</ele>
        <time>1970-01-01T08:50:46.000Z</time>
      </trkpt>
      <trkpt lat="42.978636" lon="0.769848">
        <ele>638.6</ele>
        <time>1970-01-01T08:50:48.000Z</time>
      </trkpt>
      <trkpt lat="42.978626" lon="0.769929">
        <ele>637.2</ele>
        <time>1970-01-01T08:50:50.000Z</time>
      </trkpt>
      <trkpt lat="42.978613" lon="0.770151">
        <ele>636</ele>
        <time>1970-01-01T08:50:54.000Z</time>
      </trkpt>
      <trkpt lat="42.978593" lon="0.770274">
        <ele>635.2</ele>
        <time>1970-01-01T08:50:56.000Z</time>
      </trkpt>
      <trkpt lat="42.978568" lon="0.770327">
        <ele>634.6</ele>
        <time>1970-01-01T08:50:57.000Z</time>
      </trkpt>
      <trkpt lat="42.978478" lon="0.770385">
        <ele>633.2</ele>
        <time>1970-01-01T08:50:59.000Z</time>
      </trkpt>
      <trkpt lat="42.978422" lon="0.770393">
        <ele>633</ele>
        <time>1970-01-01T08:51:00.000Z</time>
      </trkpt>
      <trkpt lat="42.978272" lon="0.770427">
        <ele>632</ele>
        <time>1970-01-01T08:51:03.000Z</time>
      </trkpt>
      <trkpt lat="42.978194" lon="0.770432">
        <ele>630.8</ele>
        <time>1970-01-01T08:51:07.000Z</time>
      </trkpt>
      <trkpt lat="42.978181" lon="0.770438">
        <ele>630.8</ele>
        <time>1970-01-01T08:51:09.000Z</time>
      </trkpt>
      <trkpt lat="42.978164" lon="0.770445">
        <ele>630.6</ele>
        <time>1970-01-01T08:51:29.000Z</time>
      </trkpt>
      <trkpt lat="42.978147" lon="0.770438">
        <ele>630.6</ele>
        <time>1970-01-01T08:51:30.000Z</time>
      </trkpt>
      <trkpt lat="42.97794" lon="0.77039">
        <ele>632</ele>
        <time>1970-01-01T08:51:40.000Z</time>
      </trkpt>
      <trkpt lat="42.977864" lon="0.770375">
        <ele>633</ele>
        <time>1970-01-01T08:51:44.000Z</time>
      </trkpt>
      <trkpt lat="42.977794" lon="0.770421">
        <ele>634.2</ele>
        <time>1970-01-01T08:51:49.000Z</time>
      </trkpt>
      <trkpt lat="42.977754" lon="0.770568">
        <ele>635.4</ele>
        <time>1970-01-01T08:51:56.000Z</time>
      </trkpt>
      <trkpt lat="42.977745" lon="0.770668">
        <ele>636.2</ele>
        <time>1970-01-01T08:52:01.000Z</time>
      </trkpt>
      <trkpt lat="42.977743" lon="0.770682">
        <ele>636.4</ele>
        <time>1970-01-01T08:52:02.000Z</time>
      </trkpt>
      <trkpt lat="42.977742" lon="0.770691">
        <ele>636.6</ele>
        <time>1970-01-01T08:52:03.000Z</time>
      </trkpt>
      <trkpt lat="42.977736" lon="0.770836">
        <ele>637.4</ele>
        <time>1970-01-01T08:52:09.000Z</time>
      </trkpt>
      <trkpt lat="42.977715" lon="0.771049">
        <ele>638.4</ele>
        <time>1970-01-01T08:52:17.000Z</time>
      </trkpt>
      <trkpt lat="42.977647" lon="0.771197">
        <ele>639.8</ele>
        <time>1970-01-01T08:52:24.000Z</time>
      </trkpt>
      <trkpt lat="42.977618" lon="0.771217">
        <ele>640.2</ele>
        <time>1970-01-01T08:52:26.000Z</time>
      </trkpt>
      <trkpt lat="42.977489" lon="0.771158">
        <ele>640.8</ele>
        <time>1970-01-01T08:52:33.000Z</time>
      </trkpt>
      <trkpt lat="42.977428" lon="0.771061">
        <ele>641.8</ele>
        <time>1970-01-01T08:52:38.000Z</time>
      </trkpt>
      <trkpt lat="42.977349" lon="0.770785">
        <ele>642.8</ele>
        <time>1970-01-01T08:52:49.000Z</time>
      </trkpt>
      <trkpt lat="42.977307" lon="0.770597">
        <ele>644</ele>
        <time>1970-01-01T08:52:56.000Z</time>
      </trkpt>
      <trkpt lat="42.977259" lon="0.770415">
        <ele>645</ele>
        <time>1970-01-01T08:53:03.000Z</time>
      </trkpt>
      <trkpt lat="42.977226" lon="0.7703">
        <ele>645.8</ele>
        <time>1970-01-01T08:53:08.000Z</time>
      </trkpt>
      <trkpt lat="42.977215" lon="0.77028">
        <ele>646</ele>
        <time>1970-01-01T08:53:09.000Z</time>
      </trkpt>
      <trkpt lat="42.977207" lon="0.770257">
        <ele>646</ele>
        <time>1970-01-01T08:53:10.000Z</time>
      </trkpt>
      <trkpt lat="42.977146" lon="0.770067">
        <ele>647.2</ele>
        <time>1970-01-01T08:53:18.000Z</time>
      </trkpt>
      <trkpt lat="42.977082" lon="0.769862">
        <ele>648.2</ele>
        <time>1970-01-01T08:53:26.000Z</time>
      </trkpt>
      <trkpt lat="42.977021" lon="0.769623">
        <ele>649.4</ele>
        <time>1970-01-01T08:53:36.000Z</time>
      </trkpt>
      <trkpt lat="42.976971" lon="0.769442">
        <ele>650.4</ele>
        <time>1970-01-01T08:53:44.000Z</time>
      </trkpt>
      <trkpt lat="42.976965" lon="0.769441">
        <ele>650.8</ele>
        <time>1970-01-01T08:53:46.000Z</time>
      </trkpt>
      <trkpt lat="42.976932" lon="0.769315">
        <ele>651.4</ele>
        <time>1970-01-01T09:01:41.000Z</time>
      </trkpt>
      <trkpt lat="42.976922" lon="0.769277">
        <ele>651.6</ele>
        <time>1970-01-01T09:01:43.000Z</time>
      </trkpt>
      <trkpt lat="42.976893" lon="0.76915">
        <ele>652.6</ele>
        <time>1970-01-01T09:01:49.000Z</time>
      </trkpt>
      <trkpt lat="42.976876" lon="0.769083">
        <ele>653.2</ele>
        <time>1970-01-01T09:01:52.000Z</time>
      </trkpt>
      <trkpt lat="42.976835" lon="0.768921">
        <ele>654.2</ele>
        <time>1970-01-01T09:01:59.000Z</time>
      </trkpt>
      <trkpt lat="42.976799" lon="0.768776">
        <ele>655.4</ele>
        <time>1970-01-01T09:02:06.000Z</time>
      </trkpt>
      <trkpt lat="42.97677" lon="0.768656">
        <ele>656.4</ele>
        <time>1970-01-01T09:02:12.000Z</time>
      </trkpt>
      <trkpt lat="42.976748" lon="0.768554">
        <ele>657.2</ele>
        <time>1970-01-01T09:02:17.000Z</time>
      </trkpt>
      <trkpt lat="42.976755" lon="0.76851">
        <ele>657.6</ele>
        <time>1970-01-01T09:02:19.000Z</time>
      </trkpt>
      <trkpt lat="42.976739" lon="0.768373">
        <ele>658.6</ele>
        <time>1970-01-01T09:02:25.000Z</time>
      </trkpt>
      <trkpt lat="42.976726" lon="0.76824">
        <ele>659.6</ele>
        <time>1970-01-01T09:02:31.000Z</time>
      </trkpt>
      <trkpt lat="42.976729" lon="0.768217">
        <ele>659.8</ele>
        <time>1970-01-01T09:02:32.000Z</time>
      </trkpt>
      <trkpt lat="42.976741" lon="0.768066">
        <ele>660.8</ele>
        <time>1970-01-01T09:02:39.000Z</time>
      </trkpt>
      <trkpt lat="42.97673" lon="0.76793">
        <ele>661.8</ele>
        <time>1970-01-01T09:02:45.000Z</time>
      </trkpt>
      <trkpt lat="42.976722" lon="0.767887">
        <ele>662.2</ele>
        <time>1970-01-01T09:02:47.000Z</time>
      </trkpt>
      <trkpt lat="42.976717" lon="0.767822">
        <ele>662.8</ele>
        <time>1970-01-01T09:02:50.000Z</time>
      </trkpt>
      <trkpt lat="42.97672" lon="0.7678">
        <ele>662.8</ele>
        <time>1970-01-01T09:02:51.000Z</time>
      </trkpt>
      <trkpt lat="42.976711" lon="0.767698">
        <ele>663.6</ele>
        <time>1970-01-01T09:02:56.000Z</time>
      </trkpt>
      <trkpt lat="42.976708" lon="0.767677">
        <ele>664</ele>
        <time>1970-01-01T09:02:57.000Z</time>
      </trkpt>
      <trkpt lat="42.976683" lon="0.767621">
        <ele>664.4</ele>
        <time>1970-01-01T09:03:00.000Z</time>
      </trkpt>
      <trkpt lat="42.976654" lon="0.767557">
        <ele>665</ele>
        <time>1970-01-01T09:03:03.000Z</time>
      </trkpt>
      <trkpt lat="42.976611" lon="0.767421">
        <ele>666.2</ele>
        <time>1970-01-01T09:03:09.000Z</time>
      </trkpt>
      <trkpt lat="42.976585" lon="0.767314">
        <ele>667.2</ele>
        <time>1970-01-01T09:03:14.000Z</time>
      </trkpt>
      <trkpt lat="42.97655" lon="0.767187">
        <ele>668.2</ele>
        <time>1970-01-01T09:03:20.000Z</time>
      </trkpt>
      <trkpt lat="42.976499" lon="0.76706">
        <ele>669.4</ele>
        <time>1970-01-01T09:03:26.000Z</time>
      </trkpt>
      <trkpt lat="42.976452" lon="0.766957">
        <ele>670.4</ele>
        <time>1970-01-01T09:03:31.000Z</time>
      </trkpt>
      <trkpt lat="42.976377" lon="0.766835">
        <ele>671.6</ele>
        <time>1970-01-01T09:03:38.000Z</time>
      </trkpt>
      <trkpt lat="42.976309" lon="0.766732">
        <ele>672.6</ele>
        <time>1970-01-01T09:03:44.000Z</time>
      </trkpt>
      <trkpt lat="42.976234" lon="0.766609">
        <ele>673.6</ele>
        <time>1970-01-01T09:03:51.000Z</time>
      </trkpt>
      <trkpt lat="42.97618" lon="0.766521">
        <ele>674.6</ele>
        <time>1970-01-01T09:03:56.000Z</time>
      </trkpt>
      <trkpt lat="42.97609" lon="0.766414">
        <ele>676</ele>
        <time>1970-01-01T09:04:03.000Z</time>
      </trkpt>
      <trkpt lat="42.976008" lon="0.766327">
        <ele>677</ele>
        <time>1970-01-01T09:04:09.000Z</time>
      </trkpt>
      <trkpt lat="42.975931" lon="0.766276">
        <ele>678</ele>
        <time>1970-01-01T09:04:14.000Z</time>
      </trkpt>
      <trkpt lat="42.975844" lon="0.766191">
        <ele>679.2</ele>
        <time>1970-01-01T09:04:21.000Z</time>
      </trkpt>
      <trkpt lat="42.975739" lon="0.766131">
        <ele>680.2</ele>
        <time>1970-01-01T09:04:29.000Z</time>
      </trkpt>
      <trkpt lat="42.975727" lon="0.766123">
        <ele>680.4</ele>
        <time>1970-01-01T09:04:30.000Z</time>
      </trkpt>
      <trkpt lat="42.975667" lon="0.766097">
        <ele>681.2</ele>
        <time>1970-01-01T09:04:35.000Z</time>
      </trkpt>
      <trkpt lat="42.975556" lon="0.766041">
        <ele>682.6</ele>
        <time>1970-01-01T09:04:43.000Z</time>
      </trkpt>
      <trkpt lat="42.975441" lon="0.766006">
        <ele>683.8</ele>
        <time>1970-01-01T09:04:50.000Z</time>
      </trkpt>
      <trkpt lat="42.975339" lon="0.765969">
        <ele>684.8</ele>
        <time>1970-01-01T09:04:58.000Z</time>
      </trkpt>
      <trkpt lat="42.975245" lon="0.765951">
        <ele>685.8</ele>
        <time>1970-01-01T09:05:05.000Z</time>
      </trkpt>
      <trkpt lat="42.97522" lon="0.765956">
        <ele>686</ele>
        <time>1970-01-01T09:05:07.000Z</time>
      </trkpt>
      <trkpt lat="42.975153" lon="0.765954">
        <ele>686.8</ele>
        <time>1970-01-01T09:05:12.000Z</time>
      </trkpt>
      <trkpt lat="42.975093" lon="0.76595">
        <ele>687.2</ele>
        <time>1970-01-01T09:05:16.000Z</time>
      </trkpt>
      <trkpt lat="42.975034" lon="0.765935">
        <ele>688</ele>
        <time>1970-01-01T09:05:20.000Z</time>
      </trkpt>
      <trkpt lat="42.974894" lon="0.765926">
        <ele>689.2</ele>
        <time>1970-01-01T09:05:29.000Z</time>
      </trkpt>
      <trkpt lat="42.974786" lon="0.765932">
        <ele>690.4</ele>
        <time>1970-01-01T09:05:36.000Z</time>
      </trkpt>
      <trkpt lat="42.974677" lon="0.765942">
        <ele>691.6</ele>
        <time>1970-01-01T09:05:43.000Z</time>
      </trkpt>
      <trkpt lat="42.974563" lon="0.765958">
        <ele>692.6</ele>
        <time>1970-01-01T09:05:50.000Z</time>
      </trkpt>
      <trkpt lat="42.974488" lon="0.765979">
        <ele>693.6</ele>
        <time>1970-01-01T09:05:55.000Z</time>
      </trkpt>
      <trkpt lat="42.974369" lon="0.766">
        <ele>694.8</ele>
        <time>1970-01-01T09:06:03.000Z</time>
      </trkpt>
      <trkpt lat="42.974286" lon="0.766008">
        <ele>695.8</ele>
        <time>1970-01-01T09:06:09.000Z</time>
      </trkpt>
      <trkpt lat="42.974183" lon="0.766031">
        <ele>696.8</ele>
        <time>1970-01-01T09:06:16.000Z</time>
      </trkpt>
      <trkpt lat="42.974078" lon="0.766055">
        <ele>698.2</ele>
        <time>1970-01-01T09:06:24.000Z</time>
      </trkpt>
      <trkpt lat="42.97398" lon="0.766083">
        <ele>699.2</ele>
        <time>1970-01-01T09:06:31.000Z</time>
      </trkpt>
      <trkpt lat="42.973885" lon="0.766129">
        <ele>700.4</ele>
        <time>1970-01-01T09:06:38.000Z</time>
      </trkpt>
      <trkpt lat="42.973787" lon="0.766164">
        <ele>701.4</ele>
        <time>1970-01-01T09:06:45.000Z</time>
      </trkpt>
      <trkpt lat="42.973691" lon="0.766205">
        <ele>702.4</ele>
        <time>1970-01-01T09:06:52.000Z</time>
      </trkpt>
      <trkpt lat="42.973594" lon="0.766242">
        <ele>703.6</ele>
        <time>1970-01-01T09:06:59.000Z</time>
      </trkpt>
      <trkpt lat="42.973524" lon="0.766261">
        <ele>704.6</ele>
        <time>1970-01-01T09:07:04.000Z</time>
      </trkpt>
      <trkpt lat="42.973433" lon="0.766282">
        <ele>705.8</ele>
        <time>1970-01-01T09:07:10.000Z</time>
      </trkpt>
      <trkpt lat="42.973343" lon="0.766319">
        <ele>706.8</ele>
        <time>1970-01-01T09:07:16.000Z</time>
      </trkpt>
      <trkpt lat="42.973266" lon="0.766334">
        <ele>707.8</ele>
        <time>1970-01-01T09:07:22.000Z</time>
      </trkpt>
      <trkpt lat="42.973175" lon="0.766343">
        <ele>709</ele>
        <time>1970-01-01T09:07:29.000Z</time>
      </trkpt>
      <trkpt lat="42.973104" lon="0.76636">
        <ele>710</ele>
        <time>1970-01-01T09:07:34.000Z</time>
      </trkpt>
      <trkpt lat="42.973086" lon="0.766353">
        <ele>710.2</ele>
        <time>1970-01-01T09:07:35.000Z</time>
      </trkpt>
      <trkpt lat="42.973031" lon="0.766357">
        <ele>711</ele>
        <time>1970-01-01T09:07:39.000Z</time>
      </trkpt>
      <trkpt lat="42.973009" lon="0.766364">
        <ele>711.4</ele>
        <time>1970-01-01T09:07:41.000Z</time>
      </trkpt>
      <trkpt lat="42.972906" lon="0.766413">
        <ele>712.4</ele>
        <time>1970-01-01T09:07:50.000Z</time>
      </trkpt>
      <trkpt lat="42.972819" lon="0.766452">
        <ele>713.6</ele>
        <time>1970-01-01T09:07:56.000Z</time>
      </trkpt>
      <trkpt lat="42.972741" lon="0.766488">
        <ele>714.8</ele>
        <time>1970-01-01T09:08:02.000Z</time>
      </trkpt>
      <trkpt lat="42.972636" lon="0.766536">
        <ele>716</ele>
        <time>1970-01-01T09:08:09.000Z</time>
      </trkpt>
      <trkpt lat="42.972565" lon="0.766568">
        <ele>716.8</ele>
        <time>1970-01-01T09:08:14.000Z</time>
      </trkpt>
      <trkpt lat="42.972532" lon="0.766577">
        <ele>717</ele>
        <time>1970-01-01T09:08:16.000Z</time>
      </trkpt>
      <trkpt lat="42.972465" lon="0.766595">
        <ele>718.2</ele>
        <time>1970-01-01T09:08:21.000Z</time>
      </trkpt>
      <trkpt lat="42.9724" lon="0.766607">
        <ele>719.4</ele>
        <time>1970-01-01T09:08:26.000Z</time>
      </trkpt>
      <trkpt lat="42.972311" lon="0.766639">
        <ele>720.6</ele>
        <time>1970-01-01T09:08:33.000Z</time>
      </trkpt>
      <trkpt lat="42.972251" lon="0.766687">
        <ele>721.6</ele>
        <time>1970-01-01T09:08:38.000Z</time>
      </trkpt>
      <trkpt lat="42.972167" lon="0.766711">
        <ele>722.6</ele>
        <time>1970-01-01T09:08:44.000Z</time>
      </trkpt>
      <trkpt lat="42.972155" lon="0.766715">
        <ele>722.8</ele>
        <time>1970-01-01T09:08:45.000Z</time>
      </trkpt>
      <trkpt lat="42.972092" lon="0.76674">
        <ele>723.6</ele>
        <time>1970-01-01T09:08:49.000Z</time>
      </trkpt>
      <trkpt lat="42.972031" lon="0.766777">
        <ele>724.8</ele>
        <time>1970-01-01T09:08:54.000Z</time>
      </trkpt>
      <trkpt lat="42.971949" lon="0.766816">
        <ele>726</ele>
        <time>1970-01-01T09:09:01.000Z</time>
      </trkpt>
      <trkpt lat="42.97187" lon="0.766835">
        <ele>727</ele>
        <time>1970-01-01T09:09:07.000Z</time>
      </trkpt>
      <trkpt lat="42.971795" lon="0.766837">
        <ele>728.2</ele>
        <time>1970-01-01T09:09:12.000Z</time>
      </trkpt>
      <trkpt lat="42.971728" lon="0.766861">
        <ele>729</ele>
        <time>1970-01-01T09:09:17.000Z</time>
      </trkpt>
      <trkpt lat="42.971713" lon="0.76687">
        <ele>729.2</ele>
        <time>1970-01-01T09:09:18.000Z</time>
      </trkpt>
      <trkpt lat="42.971639" lon="0.766907">
        <ele>730.2</ele>
        <time>1970-01-01T09:09:23.000Z</time>
      </trkpt>
      <trkpt lat="42.971588" lon="0.766944">
        <ele>731.2</ele>
        <time>1970-01-01T09:09:27.000Z</time>
      </trkpt>
      <trkpt lat="42.971505" lon="0.76698">
        <ele>732.4</ele>
        <time>1970-01-01T09:09:33.000Z</time>
      </trkpt>
      <trkpt lat="42.971415" lon="0.767028">
        <ele>733.4</ele>
        <time>1970-01-01T09:09:39.000Z</time>
      </trkpt>
      <trkpt lat="42.971324" lon="0.767054">
        <ele>734.6</ele>
        <time>1970-01-01T09:09:45.000Z</time>
      </trkpt>
      <trkpt lat="42.971246" lon="0.767093">
        <ele>735.6</ele>
        <time>1970-01-01T09:09:50.000Z</time>
      </trkpt>
      <trkpt lat="42.97117" lon="0.767117">
        <ele>736.6</ele>
        <time>1970-01-01T09:09:55.000Z</time>
      </trkpt>
      <trkpt lat="42.971079" lon="0.767107">
        <ele>737.6</ele>
        <time>1970-01-01T09:10:01.000Z</time>
      </trkpt>
      <trkpt lat="42.971016" lon="0.767101">
        <ele>738.8</ele>
        <time>1970-01-01T09:10:06.000Z</time>
      </trkpt>
      <trkpt lat="42.970945" lon="0.7671">
        <ele>739.8</ele>
        <time>1970-01-01T09:10:11.000Z</time>
      </trkpt>
      <trkpt lat="42.970858" lon="0.76711">
        <ele>740.8</ele>
        <time>1970-01-01T09:10:17.000Z</time>
      </trkpt>
      <trkpt lat="42.970761" lon="0.767131">
        <ele>742.2</ele>
        <time>1970-01-01T09:10:24.000Z</time>
      </trkpt>
      <trkpt lat="42.970688" lon="0.767136">
        <ele>743.2</ele>
        <time>1970-01-01T09:10:29.000Z</time>
      </trkpt>
      <trkpt lat="42.970607" lon="0.767161">
        <ele>744.4</ele>
        <time>1970-01-01T09:10:35.000Z</time>
      </trkpt>
      <trkpt lat="42.970514" lon="0.767176">
        <ele>745.6</ele>
        <time>1970-01-01T09:10:42.000Z</time>
      </trkpt>
      <trkpt lat="42.970443" lon="0.767199">
        <ele>746.6</ele>
        <time>1970-01-01T09:10:47.000Z</time>
      </trkpt>
      <trkpt lat="42.970373" lon="0.767221">
        <ele>747.6</ele>
        <time>1970-01-01T09:10:52.000Z</time>
      </trkpt>
      <trkpt lat="42.970293" lon="0.767254">
        <ele>748.8</ele>
        <time>1970-01-01T09:10:58.000Z</time>
      </trkpt>
      <trkpt lat="42.970207" lon="0.767258">
        <ele>749.8</ele>
        <time>1970-01-01T09:11:04.000Z</time>
      </trkpt>
      <trkpt lat="42.970137" lon="0.767269">
        <ele>751</ele>
        <time>1970-01-01T09:11:09.000Z</time>
      </trkpt>
      <trkpt lat="42.970061" lon="0.767282">
        <ele>752</ele>
        <time>1970-01-01T09:11:14.000Z</time>
      </trkpt>
      <trkpt lat="42.969959" lon="0.767283">
        <ele>753.2</ele>
        <time>1970-01-01T09:11:21.000Z</time>
      </trkpt>
      <trkpt lat="42.969889" lon="0.767306">
        <ele>754.4</ele>
        <time>1970-01-01T09:11:26.000Z</time>
      </trkpt>
      <trkpt lat="42.969818" lon="0.76732">
        <ele>755.4</ele>
        <time>1970-01-01T09:11:31.000Z</time>
      </trkpt>
      <trkpt lat="42.969732" lon="0.767353">
        <ele>756.6</ele>
        <time>1970-01-01T09:11:37.000Z</time>
      </trkpt>
      <trkpt lat="42.969666" lon="0.767375">
        <ele>757.8</ele>
        <time>1970-01-01T09:11:42.000Z</time>
      </trkpt>
      <trkpt lat="42.969583" lon="0.76739">
        <ele>759</ele>
        <time>1970-01-01T09:11:48.000Z</time>
      </trkpt>
      <trkpt lat="42.969495" lon="0.767413">
        <ele>760</ele>
        <time>1970-01-01T09:11:55.000Z</time>
      </trkpt>
      <trkpt lat="42.969433" lon="0.767416">
        <ele>761.2</ele>
        <time>1970-01-01T09:12:00.000Z</time>
      </trkpt>
      <trkpt lat="42.969369" lon="0.767394">
        <ele>762.2</ele>
        <time>1970-01-01T09:12:05.000Z</time>
      </trkpt>
      <trkpt lat="42.969302" lon="0.767382">
        <ele>763.2</ele>
        <time>1970-01-01T09:12:10.000Z</time>
      </trkpt>
      <trkpt lat="42.969234" lon="0.767347">
        <ele>764.4</ele>
        <time>1970-01-01T09:12:15.000Z</time>
      </trkpt>
      <trkpt lat="42.969207" lon="0.767328">
        <ele>765</ele>
        <time>1970-01-01T09:12:17.000Z</time>
      </trkpt>
      <trkpt lat="42.969143" lon="0.767324">
        <ele>765.6</ele>
        <time>1970-01-01T09:12:21.000Z</time>
      </trkpt>
      <trkpt lat="42.96906" lon="0.767333">
        <ele>767</ele>
        <time>1970-01-01T09:12:27.000Z</time>
      </trkpt>
      <trkpt lat="42.968985" lon="0.767318">
        <ele>768</ele>
        <time>1970-01-01T09:12:32.000Z</time>
      </trkpt>
      <trkpt lat="42.968933" lon="0.767312">
        <ele>769</ele>
        <time>1970-01-01T09:12:36.000Z</time>
      </trkpt>
      <trkpt lat="42.968852" lon="0.767287">
        <ele>770.2</ele>
        <time>1970-01-01T09:12:42.000Z</time>
      </trkpt>
      <trkpt lat="42.968798" lon="0.767285">
        <ele>771.2</ele>
        <time>1970-01-01T09:12:46.000Z</time>
      </trkpt>
      <trkpt lat="42.968731" lon="0.76727">
        <ele>772.2</ele>
        <time>1970-01-01T09:12:51.000Z</time>
      </trkpt>
      <trkpt lat="42.968636" lon="0.767258">
        <ele>773.4</ele>
        <time>1970-01-01T09:12:57.000Z</time>
      </trkpt>
      <trkpt lat="42.968562" lon="0.767264">
        <ele>774.6</ele>
        <time>1970-01-01T09:13:02.000Z</time>
      </trkpt>
      <trkpt lat="42.968481" lon="0.76726">
        <ele>775.6</ele>
        <time>1970-01-01T09:13:07.000Z</time>
      </trkpt>
      <trkpt lat="42.968408" lon="0.76725">
        <ele>776.8</ele>
        <time>1970-01-01T09:13:12.000Z</time>
      </trkpt>
      <trkpt lat="42.968332" lon="0.767246">
        <ele>778</ele>
        <time>1970-01-01T09:13:17.000Z</time>
      </trkpt>
      <trkpt lat="42.968245" lon="0.767255">
        <ele>779</ele>
        <time>1970-01-01T09:13:23.000Z</time>
      </trkpt>
      <trkpt lat="42.968188" lon="0.767251">
        <ele>780.2</ele>
        <time>1970-01-01T09:13:27.000Z</time>
      </trkpt>
      <trkpt lat="42.968117" lon="0.767254">
        <ele>781.2</ele>
        <time>1970-01-01T09:13:33.000Z</time>
      </trkpt>
      <trkpt lat="42.968062" lon="0.767257">
        <ele>782.4</ele>
        <time>1970-01-01T09:13:38.000Z</time>
      </trkpt>
      <trkpt lat="42.968017" lon="0.767256">
        <ele>783.4</ele>
        <time>1970-01-01T09:13:42.000Z</time>
      </trkpt>
      <trkpt lat="42.967954" lon="0.767279">
        <ele>784.6</ele>
        <time>1970-01-01T09:13:47.000Z</time>
      </trkpt>
      <trkpt lat="42.967866" lon="0.767329">
        <ele>785.6</ele>
        <time>1970-01-01T09:13:53.000Z</time>
      </trkpt>
      <trkpt lat="42.967816" lon="0.767366">
        <ele>786.6</ele>
        <time>1970-01-01T09:13:57.000Z</time>
      </trkpt>
      <trkpt lat="42.967753" lon="0.767425">
        <ele>787.8</ele>
        <time>1970-01-01T09:14:02.000Z</time>
      </trkpt>
      <trkpt lat="42.967698" lon="0.767485">
        <ele>789</ele>
        <time>1970-01-01T09:14:07.000Z</time>
      </trkpt>
      <trkpt lat="42.967645" lon="0.76757">
        <ele>790.2</ele>
        <time>1970-01-01T09:14:13.000Z</time>
      </trkpt>
      <trkpt lat="42.967563" lon="0.767656">
        <ele>791</ele>
        <time>1970-01-01T09:14:19.000Z</time>
      </trkpt>
      <trkpt lat="42.967358" lon="0.767618">
        <ele>792.2</ele>
        <time>1970-01-01T09:14:32.000Z</time>
      </trkpt>
      <trkpt lat="42.967349" lon="0.767593">
        <ele>792.2</ele>
        <time>1970-01-01T09:14:33.000Z</time>
      </trkpt>
      <trkpt lat="42.967339" lon="0.767508">
        <ele>792.6</ele>
        <time>1970-01-01T09:14:37.000Z</time>
      </trkpt>
      <trkpt lat="42.967326" lon="0.76741">
        <ele>793.2</ele>
        <time>1970-01-01T09:14:42.000Z</time>
      </trkpt>
      <trkpt lat="42.967293" lon="0.767368">
        <ele>793.8</ele>
        <time>1970-01-01T09:14:48.000Z</time>
      </trkpt>
      <trkpt lat="42.967281" lon="0.767326">
        <ele>793.6</ele>
        <time>1970-01-01T09:15:57.000Z</time>
      </trkpt>
      <trkpt lat="42.967042" lon="0.767144">
        <ele>794.6</ele>
        <time>1970-01-01T09:16:08.000Z</time>
      </trkpt>
      <trkpt lat="42.966897" lon="0.766925">
        <ele>795.6</ele>
        <time>1970-01-01T09:16:17.000Z</time>
      </trkpt>
      <trkpt lat="42.966814" lon="0.766734">
        <ele>796.6</ele>
        <time>1970-01-01T09:16:23.000Z</time>
      </trkpt>
      <trkpt lat="42.966709" lon="0.766497">
        <ele>797.8</ele>
        <time>1970-01-01T09:16:31.000Z</time>
      </trkpt>
      <trkpt lat="42.966673" lon="0.766322">
        <ele>798.8</ele>
        <time>1970-01-01T09:16:38.000Z</time>
      </trkpt>
      <trkpt lat="42.966653" lon="0.766126">
        <ele>800</ele>
        <time>1970-01-01T09:16:46.000Z</time>
      </trkpt>
      <trkpt lat="42.966647" lon="0.76596">
        <ele>801</ele>
        <time>1970-01-01T09:16:53.000Z</time>
      </trkpt>
      <trkpt lat="42.966628" lon="0.765913">
        <ele>801.6</ele>
        <time>1970-01-01T09:16:56.000Z</time>
      </trkpt>
      <trkpt lat="42.966599" lon="0.765863">
        <ele>802.2</ele>
        <time>1970-01-01T09:16:59.000Z</time>
      </trkpt>
      <trkpt lat="42.966512" lon="0.765734">
        <ele>803.2</ele>
        <time>1970-01-01T09:17:07.000Z</time>
      </trkpt>
      <trkpt lat="42.966464" lon="0.765623">
        <ele>804.2</ele>
        <time>1970-01-01T09:17:13.000Z</time>
      </trkpt>
      <trkpt lat="42.966432" lon="0.765486">
        <ele>805.4</ele>
        <time>1970-01-01T09:17:20.000Z</time>
      </trkpt>
      <trkpt lat="42.966437" lon="0.76543">
        <ele>805.6</ele>
        <time>1970-01-01T09:17:22.000Z</time>
      </trkpt>
      <trkpt lat="42.966462" lon="0.76532">
        <ele>806</ele>
        <time>1970-01-01T09:17:26.000Z</time>
      </trkpt>
      <trkpt lat="42.966491" lon="0.765234">
        <ele>806.4</ele>
        <time>1970-01-01T09:17:30.000Z</time>
      </trkpt>
      <trkpt lat="42.966529" lon="0.765096">
        <ele>807.4</ele>
        <time>1970-01-01T09:17:36.000Z</time>
      </trkpt>
      <trkpt lat="42.966536" lon="0.765071">
        <ele>807.6</ele>
        <time>1970-01-01T09:17:37.000Z</time>
      </trkpt>
      <trkpt lat="42.966557" lon="0.764927">
        <ele>808.6</ele>
        <time>1970-01-01T09:17:43.000Z</time>
      </trkpt>
      <trkpt lat="42.966518" lon="0.764722">
        <ele>809.8</ele>
        <time>1970-01-01T09:17:52.000Z</time>
      </trkpt>
      <trkpt lat="42.966542" lon="0.764544">
        <ele>810.6</ele>
        <time>1970-01-01T09:18:00.000Z</time>
      </trkpt>
      <trkpt lat="42.966573" lon="0.764379">
        <ele>811.6</ele>
        <time>1970-01-01T09:18:07.000Z</time>
      </trkpt>
      <trkpt lat="42.96656" lon="0.764237">
        <ele>812.8</ele>
        <time>1970-01-01T09:18:15.000Z</time>
      </trkpt>
      <trkpt lat="42.9666" lon="0.764055">
        <ele>813.6</ele>
        <time>1970-01-01T09:18:23.000Z</time>
      </trkpt>
      <trkpt lat="42.966598" lon="0.763899">
        <ele>814.4</ele>
        <time>1970-01-01T09:18:30.000Z</time>
      </trkpt>
      <trkpt lat="42.966617" lon="0.763766">
        <ele>815.6</ele>
        <time>1970-01-01T09:18:36.000Z</time>
      </trkpt>
      <trkpt lat="42.966613" lon="0.763567">
        <ele>816.6</ele>
        <time>1970-01-01T09:18:44.000Z</time>
      </trkpt>
      <trkpt lat="42.966635" lon="0.763414">
        <ele>817.6</ele>
        <time>1970-01-01T09:18:51.000Z</time>
      </trkpt>
      <trkpt lat="42.966652" lon="0.763235">
        <ele>818.6</ele>
        <time>1970-01-01T09:18:58.000Z</time>
      </trkpt>
      <trkpt lat="42.966677" lon="0.763072">
        <ele>819.6</ele>
        <time>1970-01-01T09:19:05.000Z</time>
      </trkpt>
      <trkpt lat="42.966704" lon="0.762961">
        <ele>820.8</ele>
        <time>1970-01-01T09:19:11.000Z</time>
      </trkpt>
      <trkpt lat="42.966729" lon="0.762819">
        <ele>821.8</ele>
        <time>1970-01-01T09:19:19.000Z</time>
      </trkpt>
      <trkpt lat="42.966772" lon="0.762636">
        <ele>822.8</ele>
        <time>1970-01-01T09:19:29.000Z</time>
      </trkpt>
      <trkpt lat="42.966797" lon="0.762457">
        <ele>824</ele>
        <time>1970-01-01T09:19:37.000Z</time>
      </trkpt>
      <trkpt lat="42.966817" lon="0.762321">
        <ele>825</ele>
        <time>1970-01-01T09:19:44.000Z</time>
      </trkpt>
      <trkpt lat="42.966846" lon="0.762142">
        <ele>825.8</ele>
        <time>1970-01-01T09:19:52.000Z</time>
      </trkpt>
      <trkpt lat="42.966851" lon="0.762118">
        <ele>826</ele>
        <time>1970-01-01T09:19:53.000Z</time>
      </trkpt>
      <trkpt lat="42.966865" lon="0.762037">
        <ele>826.8</ele>
        <time>1970-01-01T09:19:57.000Z</time>
      </trkpt>
      <trkpt lat="42.966868" lon="0.762017">
        <ele>827</ele>
        <time>1970-01-01T09:19:58.000Z</time>
      </trkpt>
      <trkpt lat="42.966871" lon="0.761892">
        <ele>828</ele>
        <time>1970-01-01T09:20:04.000Z</time>
      </trkpt>
      <trkpt lat="42.966834" lon="0.76173">
        <ele>829.2</ele>
        <time>1970-01-01T09:20:11.000Z</time>
      </trkpt>
      <trkpt lat="42.966746" lon="0.761564">
        <ele>830.2</ele>
        <time>1970-01-01T09:20:19.000Z</time>
      </trkpt>
      <trkpt lat="42.966666" lon="0.761436">
        <ele>831</ele>
        <time>1970-01-01T09:20:26.000Z</time>
      </trkpt>
      <trkpt lat="42.966581" lon="0.761364">
        <ele>832</ele>
        <time>1970-01-01T09:20:32.000Z</time>
      </trkpt>
      <trkpt lat="42.966538" lon="0.761329">
        <ele>832.6</ele>
        <time>1970-01-01T09:20:35.000Z</time>
      </trkpt>
      <trkpt lat="42.966475" lon="0.761294">
        <ele>833.2</ele>
        <time>1970-01-01T09:20:39.000Z</time>
      </trkpt>
      <trkpt lat="42.966447" lon="0.76128">
        <ele>833.4</ele>
        <time>1970-01-01T09:20:41.000Z</time>
      </trkpt>
      <trkpt lat="42.966333" lon="0.761257">
        <ele>834.2</ele>
        <time>1970-01-01T09:20:48.000Z</time>
      </trkpt>
      <trkpt lat="42.966254" lon="0.761215">
        <ele>835.4</ele>
        <time>1970-01-01T09:20:54.000Z</time>
      </trkpt>
      <trkpt lat="42.966148" lon="0.761179">
        <ele>836.6</ele>
        <time>1970-01-01T09:21:01.000Z</time>
      </trkpt>
      <trkpt lat="42.966042" lon="0.761163">
        <ele>837.6</ele>
        <time>1970-01-01T09:21:08.000Z</time>
      </trkpt>
      <trkpt lat="42.965969" lon="0.761155">
        <ele>838.8</ele>
        <time>1970-01-01T09:21:14.000Z</time>
      </trkpt>
      <trkpt lat="42.965867" lon="0.761115">
        <ele>839.8</ele>
        <time>1970-01-01T09:21:21.000Z</time>
      </trkpt>
      <trkpt lat="42.965824" lon="0.761108">
        <ele>840</ele>
        <time>1970-01-01T09:21:24.000Z</time>
      </trkpt>
      <trkpt lat="42.965746" lon="0.761081">
        <ele>840.6</ele>
        <time>1970-01-01T09:21:29.000Z</time>
      </trkpt>
      <trkpt lat="42.965667" lon="0.761064">
        <ele>841.8</ele>
        <time>1970-01-01T09:21:35.000Z</time>
      </trkpt>
      <trkpt lat="42.965579" lon="0.761052">
        <ele>842.6</ele>
        <time>1970-01-01T09:21:42.000Z</time>
      </trkpt>
      <trkpt lat="42.965461" lon="0.761053">
        <ele>843.6</ele>
        <time>1970-01-01T09:21:50.000Z</time>
      </trkpt>
      <trkpt lat="42.965357" lon="0.761023">
        <ele>844.8</ele>
        <time>1970-01-01T09:21:57.000Z</time>
      </trkpt>
      <trkpt lat="42.965277" lon="0.761021">
        <ele>846</ele>
        <time>1970-01-01T09:22:03.000Z</time>
      </trkpt>
      <trkpt lat="42.965169" lon="0.760986">
        <ele>847</ele>
        <time>1970-01-01T09:22:12.000Z</time>
      </trkpt>
      <trkpt lat="42.965086" lon="0.760992">
        <ele>848.2</ele>
        <time>1970-01-01T09:22:18.000Z</time>
      </trkpt>
      <trkpt lat="42.964996" lon="0.760961">
        <ele>849.4</ele>
        <time>1970-01-01T09:22:24.000Z</time>
      </trkpt>
      <trkpt lat="42.964888" lon="0.760929">
        <ele>850.4</ele>
        <time>1970-01-01T09:22:31.000Z</time>
      </trkpt>
      <trkpt lat="42.964842" lon="0.760886">
        <ele>851</ele>
        <time>1970-01-01T09:22:36.000Z</time>
      </trkpt>
      <trkpt lat="42.964813" lon="0.760867">
        <ele>851.4</ele>
        <time>1970-01-01T09:22:38.000Z</time>
      </trkpt>
      <trkpt lat="42.964729" lon="0.760814">
        <ele>852.4</ele>
        <time>1970-01-01T09:22:44.000Z</time>
      </trkpt>
      <trkpt lat="42.964624" lon="0.76076">
        <ele>853.6</ele>
        <time>1970-01-01T09:22:51.000Z</time>
      </trkpt>
      <trkpt lat="42.964538" lon="0.76072">
        <ele>854.6</ele>
        <time>1970-01-01T09:22:58.000Z</time>
      </trkpt>
      <trkpt lat="42.964455" lon="0.760663">
        <ele>855.8</ele>
        <time>1970-01-01T09:23:04.000Z</time>
      </trkpt>
      <trkpt lat="42.96436" lon="0.760601">
        <ele>857</ele>
        <time>1970-01-01T09:23:12.000Z</time>
      </trkpt>
      <trkpt lat="42.964288" lon="0.760565">
        <ele>858</ele>
        <time>1970-01-01T09:23:18.000Z</time>
      </trkpt>
      <trkpt lat="42.964199" lon="0.760506">
        <ele>859.2</ele>
        <time>1970-01-01T09:23:25.000Z</time>
      </trkpt>
      <trkpt lat="42.96412" lon="0.760451">
        <ele>860.2</ele>
        <time>1970-01-01T09:23:32.000Z</time>
      </trkpt>
      <trkpt lat="42.964045" lon="0.760415">
        <ele>861.4</ele>
        <time>1970-01-01T09:23:37.000Z</time>
      </trkpt>
      <trkpt lat="42.963987" lon="0.760414">
        <ele>862.4</ele>
        <time>1970-01-01T09:23:42.000Z</time>
      </trkpt>
      <trkpt lat="42.963879" lon="0.760343">
        <ele>863.6</ele>
        <time>1970-01-01T09:23:50.000Z</time>
      </trkpt>
      <trkpt lat="42.963806" lon="0.760304">
        <ele>864.6</ele>
        <time>1970-01-01T09:23:56.000Z</time>
      </trkpt>
      <trkpt lat="42.963723" lon="0.760277">
        <ele>865.8</ele>
        <time>1970-01-01T09:24:03.000Z</time>
      </trkpt>
      <trkpt lat="42.963645" lon="0.760241">
        <ele>866.8</ele>
        <time>1970-01-01T09:24:09.000Z</time>
      </trkpt>
      <trkpt lat="42.963567" lon="0.760192">
        <ele>867.8</ele>
        <time>1970-01-01T09:24:16.000Z</time>
      </trkpt>
      <trkpt lat="42.96352" lon="0.760171">
        <ele>868.6</ele>
        <time>1970-01-01T09:24:20.000Z</time>
      </trkpt>
      <trkpt lat="42.963508" lon="0.760168">
        <ele>868.8</ele>
        <time>1970-01-01T09:24:21.000Z</time>
      </trkpt>
      <trkpt lat="42.963432" lon="0.760142">
        <ele>870</ele>
        <time>1970-01-01T09:24:27.000Z</time>
      </trkpt>
      <trkpt lat="42.963358" lon="0.760125">
        <ele>870.8</ele>
        <time>1970-01-01T09:24:33.000Z</time>
      </trkpt>
      <trkpt lat="42.963307" lon="0.760126">
        <ele>871.8</ele>
        <time>1970-01-01T09:24:38.000Z</time>
      </trkpt>
      <trkpt lat="42.963246" lon="0.760118">
        <ele>873</ele>
        <time>1970-01-01T09:24:44.000Z</time>
      </trkpt>
      <trkpt lat="42.963155" lon="0.760106">
        <ele>873.8</ele>
        <time>1970-01-01T09:24:52.000Z</time>
      </trkpt>
      <trkpt lat="42.963083" lon="0.760079">
        <ele>875</ele>
        <time>1970-01-01T09:24:57.000Z</time>
      </trkpt>
      <trkpt lat="42.963024" lon="0.760035">
        <ele>875.8</ele>
        <time>1970-01-01T09:25:03.000Z</time>
      </trkpt>
      <trkpt lat="42.962934" lon="0.760003">
        <ele>876.8</ele>
        <time>1970-01-01T09:25:11.000Z</time>
      </trkpt>
      <trkpt lat="42.962851" lon="0.759969">
        <ele>877.8</ele>
        <time>1970-01-01T09:25:17.000Z</time>
      </trkpt>
      <trkpt lat="42.962758" lon="0.759913">
        <ele>878.6</ele>
        <time>1970-01-01T09:25:24.000Z</time>
      </trkpt>
      <trkpt lat="42.962749" lon="0.759892">
        <ele>878.8</ele>
        <time>1970-01-01T09:25:25.000Z</time>
      </trkpt>
      <trkpt lat="42.962727" lon="0.759846">
        <ele>879</ele>
        <time>1970-01-01T09:25:28.000Z</time>
      </trkpt>
      <trkpt lat="42.962701" lon="0.759732">
        <ele>879.8</ele>
        <time>1970-01-01T09:25:34.000Z</time>
      </trkpt>
      <trkpt lat="42.962705" lon="0.759686">
        <ele>880.2</ele>
        <time>1970-01-01T09:25:36.000Z</time>
      </trkpt>
      <trkpt lat="42.96273" lon="0.759607">
        <ele>880.6</ele>
        <time>1970-01-01T09:25:40.000Z</time>
      </trkpt>
      <trkpt lat="42.962748" lon="0.759583">
        <ele>880.8</ele>
        <time>1970-01-01T09:25:42.000Z</time>
      </trkpt>
      <trkpt lat="42.9628" lon="0.759544">
        <ele>881.2</ele>
        <time>1970-01-01T09:25:47.000Z</time>
      </trkpt>
      <trkpt lat="42.962834" lon="0.759525">
        <ele>881.6</ele>
        <time>1970-01-01T09:25:50.000Z</time>
      </trkpt>
      <trkpt lat="42.9629" lon="0.759496">
        <ele>882.6</ele>
        <time>1970-01-01T09:25:55.000Z</time>
      </trkpt>
      <trkpt lat="42.962991" lon="0.75946">
        <ele>883.8</ele>
        <time>1970-01-01T09:26:01.000Z</time>
      </trkpt>
      <trkpt lat="42.963073" lon="0.759426">
        <ele>884.6</ele>
        <time>1970-01-01T09:26:06.000Z</time>
      </trkpt>
      <trkpt lat="42.963194" lon="0.759338">
        <ele>885.6</ele>
        <time>1970-01-01T09:26:12.000Z</time>
      </trkpt>
      <trkpt lat="42.963263" lon="0.759265">
        <ele>886.6</ele>
        <time>1970-01-01T09:26:17.000Z</time>
      </trkpt>
      <trkpt lat="42.963294" lon="0.759202">
        <ele>887.4</ele>
        <time>1970-01-01T09:26:22.000Z</time>
      </trkpt>
      <trkpt lat="42.963328" lon="0.759101">
        <ele>888.4</ele>
        <time>1970-01-01T09:26:29.000Z</time>
      </trkpt>
      <trkpt lat="42.963362" lon="0.759045">
        <ele>889.4</ele>
        <time>1970-01-01T09:26:33.000Z</time>
      </trkpt>
      <trkpt lat="42.963432" lon="0.758929">
        <ele>890.2</ele>
        <time>1970-01-01T09:26:42.000Z</time>
      </trkpt>
      <trkpt lat="42.963481" lon="0.758874">
        <ele>891</ele>
        <time>1970-01-01T09:26:47.000Z</time>
      </trkpt>
      <trkpt lat="42.963572" lon="0.758812">
        <ele>892.2</ele>
        <time>1970-01-01T09:26:54.000Z</time>
      </trkpt>
      <trkpt lat="42.96364" lon="0.758772">
        <ele>893.2</ele>
        <time>1970-01-01T09:26:59.000Z</time>
      </trkpt>
      <trkpt lat="42.963748" lon="0.758708">
        <ele>894</ele>
        <time>1970-01-01T09:27:05.000Z</time>
      </trkpt>
      <trkpt lat="42.963859" lon="0.75861">
        <ele>895.2</ele>
        <time>1970-01-01T09:27:12.000Z</time>
      </trkpt>
      <trkpt lat="42.963906" lon="0.758515">
        <ele>896</ele>
        <time>1970-01-01T09:27:17.000Z</time>
      </trkpt>
      <trkpt lat="42.963951" lon="0.758389">
        <ele>897</ele>
        <time>1970-01-01T09:27:23.000Z</time>
      </trkpt>
      <trkpt lat="42.963998" lon="0.758277">
        <ele>898</ele>
        <time>1970-01-01T09:27:29.000Z</time>
      </trkpt>
      <trkpt lat="42.964051" lon="0.758175">
        <ele>899</ele>
        <time>1970-01-01T09:27:35.000Z</time>
      </trkpt>
      <trkpt lat="42.964098" lon="0.758085">
        <ele>900</ele>
        <time>1970-01-01T09:27:41.000Z</time>
      </trkpt>
      <trkpt lat="42.964175" lon="0.758033">
        <ele>901.2</ele>
        <time>1970-01-01T09:27:46.000Z</time>
      </trkpt>
      <trkpt lat="42.964254" lon="0.757931">
        <ele>902.2</ele>
        <time>1970-01-01T09:27:53.000Z</time>
      </trkpt>
      <trkpt lat="42.964266" lon="0.757873">
        <ele>902.2</ele>
        <time>1970-01-01T09:27:55.000Z</time>
      </trkpt>
      <trkpt lat="42.964248" lon="0.757675">
        <ele>903</ele>
        <time>1970-01-01T09:28:03.000Z</time>
      </trkpt>
      <trkpt lat="42.964104" lon="0.75753">
        <ele>904.2</ele>
        <time>1970-01-01T09:28:13.000Z</time>
      </trkpt>
      <trkpt lat="42.963989" lon="0.757424">
        <ele>905.2</ele>
        <time>1970-01-01T09:28:21.000Z</time>
      </trkpt>
      <trkpt lat="42.963871" lon="0.75726">
        <ele>906.2</ele>
        <time>1970-01-01T09:28:31.000Z</time>
      </trkpt>
      <trkpt lat="42.963808" lon="0.757151">
        <ele>907.4</ele>
        <time>1970-01-01T09:28:37.000Z</time>
      </trkpt>
      <trkpt lat="42.963793" lon="0.757119">
        <ele>907.6</ele>
        <time>1970-01-01T09:28:39.000Z</time>
      </trkpt>
      <trkpt lat="42.963741" lon="0.756985">
        <ele>908.6</ele>
        <time>1970-01-01T09:28:46.000Z</time>
      </trkpt>
      <trkpt lat="42.963669" lon="0.756851">
        <ele>909.6</ele>
        <time>1970-01-01T09:28:53.000Z</time>
      </trkpt>
      <trkpt lat="42.963634" lon="0.756742">
        <ele>910.6</ele>
        <time>1970-01-01T09:28:59.000Z</time>
      </trkpt>
      <trkpt lat="42.963613" lon="0.756619">
        <ele>911.8</ele>
        <time>1970-01-01T09:29:05.000Z</time>
      </trkpt>
      <trkpt lat="42.963605" lon="0.756483">
        <ele>912.8</ele>
        <time>1970-01-01T09:29:12.000Z</time>
      </trkpt>
      <trkpt lat="42.963601" lon="0.756465">
        <ele>913</ele>
        <time>1970-01-01T09:29:13.000Z</time>
      </trkpt>
      <trkpt lat="42.963585" lon="0.756412">
        <ele>914</ele>
        <time>1970-01-01T09:29:16.000Z</time>
      </trkpt>
      <trkpt lat="42.963568" lon="0.756382">
        <ele>914.4</ele>
        <time>1970-01-01T09:29:18.000Z</time>
      </trkpt>
      <trkpt lat="42.96356" lon="0.756345">
        <ele>914.6</ele>
        <time>1970-01-01T09:29:20.000Z</time>
      </trkpt>
      <trkpt lat="42.963554" lon="0.756297">
        <ele>915</ele>
        <time>1970-01-01T09:29:22.000Z</time>
      </trkpt>
      <trkpt lat="42.96355" lon="0.756262">
        <ele>915.2</ele>
        <time>1970-01-01T09:29:24.000Z</time>
      </trkpt>
      <trkpt lat="42.963542" lon="0.756177">
        <ele>915.8</ele>
        <time>1970-01-01T09:29:28.000Z</time>
      </trkpt>
      <trkpt lat="42.963539" lon="0.756137">
        <ele>916.2</ele>
        <time>1970-01-01T09:29:30.000Z</time>
      </trkpt>
      <trkpt lat="42.963522" lon="0.756053">
        <ele>917.4</ele>
        <time>1970-01-01T09:29:35.000Z</time>
      </trkpt>
      <trkpt lat="42.963487" lon="0.755963">
        <ele>918.4</ele>
        <time>1970-01-01T09:29:40.000Z</time>
      </trkpt>
      <trkpt lat="42.963487" lon="0.755846">
        <ele>919.4</ele>
        <time>1970-01-01T09:29:46.000Z</time>
      </trkpt>
      <trkpt lat="42.963486" lon="0.755729">
        <ele>920.4</ele>
        <time>1970-01-01T09:29:52.000Z</time>
      </trkpt>
      <trkpt lat="42.963467" lon="0.75563">
        <ele>921.4</ele>
        <time>1970-01-01T09:29:57.000Z</time>
      </trkpt>
      <trkpt lat="42.963467" lon="0.755529">
        <ele>922.2</ele>
        <time>1970-01-01T09:30:02.000Z</time>
      </trkpt>
      <trkpt lat="42.963483" lon="0.755487">
        <ele>922.4</ele>
        <time>1970-01-01T09:30:04.000Z</time>
      </trkpt>
      <trkpt lat="42.963558" lon="0.755375">
        <ele>923</ele>
        <time>1970-01-01T09:30:09.000Z</time>
      </trkpt>
      <trkpt lat="42.963636" lon="0.755273">
        <ele>923.6</ele>
        <time>1970-01-01T09:30:15.000Z</time>
      </trkpt>
      <trkpt lat="42.963704" lon="0.755179">
        <ele>924.6</ele>
        <time>1970-01-01T09:30:21.000Z</time>
      </trkpt>
      <trkpt lat="42.963804" lon="0.755088">
        <ele>925.6</ele>
        <time>1970-01-01T09:30:28.000Z</time>
      </trkpt>
      <trkpt lat="42.963896" lon="0.755005">
        <ele>926.6</ele>
        <time>1970-01-01T09:30:35.000Z</time>
      </trkpt>
      <trkpt lat="42.963946" lon="0.754952">
        <ele>927.8</ele>
        <time>1970-01-01T09:30:41.000Z</time>
      </trkpt>
      <trkpt lat="42.964003" lon="0.754882">
        <ele>928.8</ele>
        <time>1970-01-01T09:30:48.000Z</time>
      </trkpt>
      <trkpt lat="42.964024" lon="0.754784">
        <ele>930</ele>
        <time>1970-01-01T09:30:53.000Z</time>
      </trkpt>
      <trkpt lat="42.964048" lon="0.754652">
        <ele>931</ele>
        <time>1970-01-01T09:31:00.000Z</time>
      </trkpt>
      <trkpt lat="42.96409" lon="0.754537">
        <ele>931.8</ele>
        <time>1970-01-01T09:31:06.000Z</time>
      </trkpt>
      <trkpt lat="42.964132" lon="0.754359">
        <ele>932.8</ele>
        <time>1970-01-01T09:31:14.000Z</time>
      </trkpt>
      <trkpt lat="42.964159" lon="0.754275">
        <ele>934</ele>
        <time>1970-01-01T09:31:18.000Z</time>
      </trkpt>
      <trkpt lat="42.964217" lon="0.754181">
        <ele>934.8</ele>
        <time>1970-01-01T09:31:24.000Z</time>
      </trkpt>
      <trkpt lat="42.964248" lon="0.754086">
        <ele>936</ele>
        <time>1970-01-01T09:31:29.000Z</time>
      </trkpt>
      <trkpt lat="42.964312" lon="0.753955">
        <ele>937</ele>
        <time>1970-01-01T09:31:37.000Z</time>
      </trkpt>
      <trkpt lat="42.964337" lon="0.753872">
        <ele>938.2</ele>
        <time>1970-01-01T09:31:42.000Z</time>
      </trkpt>
      <trkpt lat="42.964368" lon="0.753801">
        <ele>939.2</ele>
        <time>1970-01-01T09:31:46.000Z</time>
      </trkpt>
      <trkpt lat="42.964388" lon="0.753661">
        <ele>940</ele>
        <time>1970-01-01T09:31:53.000Z</time>
      </trkpt>
      <trkpt lat="42.964408" lon="0.753587">
        <ele>941</ele>
        <time>1970-01-01T09:31:57.000Z</time>
      </trkpt>
      <trkpt lat="42.964446" lon="0.753466">
        <ele>942</ele>
        <time>1970-01-01T09:32:03.000Z</time>
      </trkpt>
      <trkpt lat="42.964457" lon="0.753428">
        <ele>942.4</ele>
        <time>1970-01-01T09:32:05.000Z</time>
      </trkpt>
      <trkpt lat="42.964505" lon="0.75335">
        <ele>942.8</ele>
        <time>1970-01-01T09:32:09.000Z</time>
      </trkpt>
      <trkpt lat="42.964548" lon="0.75325">
        <ele>943.8</ele>
        <time>1970-01-01T09:32:14.000Z</time>
      </trkpt>
      <trkpt lat="42.964604" lon="0.753115">
        <ele>945</ele>
        <time>1970-01-01T09:32:21.000Z</time>
      </trkpt>
      <trkpt lat="42.964612" lon="0.753062">
        <ele>945.4</ele>
        <time>1970-01-01T09:32:24.000Z</time>
      </trkpt>
      <trkpt lat="42.964627" lon="0.75301">
        <ele>946</ele>
        <time>1970-01-01T09:32:27.000Z</time>
      </trkpt>
      <trkpt lat="42.964653" lon="0.75296">
        <ele>946.6</ele>
        <time>1970-01-01T09:32:30.000Z</time>
      </trkpt>
      <trkpt lat="42.964674" lon="0.752891">
        <ele>947.2</ele>
        <time>1970-01-01T09:32:34.000Z</time>
      </trkpt>
      <trkpt lat="42.964707" lon="0.752801">
        <ele>948.2</ele>
        <time>1970-01-01T09:32:39.000Z</time>
      </trkpt>
      <trkpt lat="42.964769" lon="0.752666">
        <ele>949.4</ele>
        <time>1970-01-01T09:32:46.000Z</time>
      </trkpt>
      <trkpt lat="42.96485" lon="0.752492">
        <ele>950.4</ele>
        <time>1970-01-01T09:32:53.000Z</time>
      </trkpt>
      <trkpt lat="42.964915" lon="0.752393">
        <ele>951.4</ele>
        <time>1970-01-01T09:32:59.000Z</time>
      </trkpt>
      <trkpt lat="42.964985" lon="0.752293">
        <ele>952.4</ele>
        <time>1970-01-01T09:33:06.000Z</time>
      </trkpt>
      <trkpt lat="42.965056" lon="0.752139">
        <ele>953.4</ele>
        <time>1970-01-01T09:33:14.000Z</time>
      </trkpt>
      <trkpt lat="42.965089" lon="0.752075">
        <ele>954.4</ele>
        <time>1970-01-01T09:33:18.000Z</time>
      </trkpt>
      <trkpt lat="42.965148" lon="0.75197">
        <ele>955.6</ele>
        <time>1970-01-01T09:33:25.000Z</time>
      </trkpt>
      <trkpt lat="42.965217" lon="0.751888">
        <ele>956.6</ele>
        <time>1970-01-01T09:33:32.000Z</time>
      </trkpt>
      <trkpt lat="42.965277" lon="0.751812">
        <ele>957.6</ele>
        <time>1970-01-01T09:33:37.000Z</time>
      </trkpt>
      <trkpt lat="42.965338" lon="0.751718">
        <ele>958.6</ele>
        <time>1970-01-01T09:33:44.000Z</time>
      </trkpt>
      <trkpt lat="42.965394" lon="0.751587">
        <ele>959.8</ele>
        <time>1970-01-01T09:33:50.000Z</time>
      </trkpt>
      <trkpt lat="42.965464" lon="0.751398">
        <ele>961</ele>
        <time>1970-01-01T09:33:58.000Z</time>
      </trkpt>
      <trkpt lat="42.96549" lon="0.751264">
        <ele>962</ele>
        <time>1970-01-01T09:34:04.000Z</time>
      </trkpt>
      <trkpt lat="42.965492" lon="0.751136">
        <ele>963</ele>
        <time>1970-01-01T09:34:09.000Z</time>
      </trkpt>
      <trkpt lat="42.965497" lon="0.751038">
        <ele>964</ele>
        <time>1970-01-01T09:34:14.000Z</time>
      </trkpt>
      <trkpt lat="42.9655" lon="0.750898">
        <ele>965</ele>
        <time>1970-01-01T09:34:20.000Z</time>
      </trkpt>
      <trkpt lat="42.965515" lon="0.750775">
        <ele>966.2</ele>
        <time>1970-01-01T09:34:25.000Z</time>
      </trkpt>
      <trkpt lat="42.96551" lon="0.750658">
        <ele>967</ele>
        <time>1970-01-01T09:34:30.000Z</time>
      </trkpt>
      <trkpt lat="42.965504" lon="0.750615">
        <ele>967.4</ele>
        <time>1970-01-01T09:34:32.000Z</time>
      </trkpt>
      <trkpt lat="42.965491" lon="0.750509">
        <ele>968.2</ele>
        <time>1970-01-01T09:34:36.000Z</time>
      </trkpt>
      <trkpt lat="42.965459" lon="0.750362">
        <ele>969.4</ele>
        <time>1970-01-01T09:34:42.000Z</time>
      </trkpt>
      <trkpt lat="42.965419" lon="0.750222">
        <ele>970.6</ele>
        <time>1970-01-01T09:34:48.000Z</time>
      </trkpt>
      <trkpt lat="42.965381" lon="0.750085">
        <ele>971.6</ele>
        <time>1970-01-01T09:34:54.000Z</time>
      </trkpt>
      <trkpt lat="42.965322" lon="0.749908">
        <ele>972.6</ele>
        <time>1970-01-01T09:35:01.000Z</time>
      </trkpt>
      <trkpt lat="42.965259" lon="0.749773">
        <ele>973.6</ele>
        <time>1970-01-01T09:35:07.000Z</time>
      </trkpt>
      <trkpt lat="42.965188" lon="0.749673">
        <ele>974.6</ele>
        <time>1970-01-01T09:35:13.000Z</time>
      </trkpt>
      <trkpt lat="42.965128" lon="0.749628">
        <ele>975.6</ele>
        <time>1970-01-01T09:35:17.000Z</time>
      </trkpt>
      <trkpt lat="42.965099" lon="0.749608">
        <ele>976</ele>
        <time>1970-01-01T09:35:19.000Z</time>
      </trkpt>
      <trkpt lat="42.965003" lon="0.749635">
        <ele>976.6</ele>
        <time>1970-01-01T09:35:26.000Z</time>
      </trkpt>
      <trkpt lat="42.964989" lon="0.749652">
        <ele>976.6</ele>
        <time>1970-01-01T09:35:27.000Z</time>
      </trkpt>
      <trkpt lat="42.964967" lon="0.749685">
        <ele>976.8</ele>
        <time>1970-01-01T09:35:29.000Z</time>
      </trkpt>
      <trkpt lat="42.964957" lon="0.749798">
        <ele>977.2</ele>
        <time>1970-01-01T09:35:34.000Z</time>
      </trkpt>
      <trkpt lat="42.964972" lon="0.74991">
        <ele>977.8</ele>
        <time>1970-01-01T09:35:39.000Z</time>
      </trkpt>
      <trkpt lat="42.965029" lon="0.75022">
        <ele>978.4</ele>
        <time>1970-01-01T09:35:54.000Z</time>
      </trkpt>
      <trkpt lat="42.965037" lon="0.750267">
        <ele>978.6</ele>
        <time>1970-01-01T09:35:56.000Z</time>
      </trkpt>
      <trkpt lat="42.965046" lon="0.750364">
        <ele>979.2</ele>
        <time>1970-01-01T09:36:00.000Z</time>
      </trkpt>
      <trkpt lat="42.965031" lon="0.750532">
        <ele>979.6</ele>
        <time>1970-01-01T09:36:06.000Z</time>
      </trkpt>
      <trkpt lat="42.964986" lon="0.750893">
        <ele>980.6</ele>
        <time>1970-01-01T09:36:18.000Z</time>
      </trkpt>
      <trkpt lat="42.964689" lon="0.751508">
        <ele>981.4</ele>
        <time>1970-01-01T09:36:40.000Z</time>
      </trkpt>
      <trkpt lat="42.964253" lon="0.751988">
        <ele>980.8</ele>
        <time>1970-01-01T09:36:59.000Z</time>
      </trkpt>
      <trkpt lat="42.964072" lon="0.752284">
        <ele>981</ele>
        <time>1970-01-01T09:37:05.000Z</time>
      </trkpt>
      <trkpt lat="42.963813" lon="0.752936">
        <ele>981.2</ele>
        <time>1970-01-01T09:37:16.000Z</time>
      </trkpt>
      <trkpt lat="42.963734" lon="0.753102">
        <ele>981.4</ele>
        <time>1970-01-01T09:37:19.000Z</time>
      </trkpt>
      <trkpt lat="42.963385" lon="0.753743">
        <ele>981.4</ele>
        <time>1970-01-01T09:37:31.000Z</time>
      </trkpt>
      <trkpt lat="42.963173" lon="0.754053">
        <ele>981.8</ele>
        <time>1970-01-01T09:37:37.000Z</time>
      </trkpt>
      <trkpt lat="42.963098" lon="0.75414">
        <ele>981.8</ele>
        <time>1970-01-01T09:37:39.000Z</time>
      </trkpt>
      <trkpt lat="42.962918" lon="0.754293">
        <ele>981.6</ele>
        <time>1970-01-01T09:37:44.000Z</time>
      </trkpt>
      <trkpt lat="42.962766" lon="0.754435">
        <ele>981.8</ele>
        <time>1970-01-01T09:37:48.000Z</time>
      </trkpt>
      <trkpt lat="42.962353" lon="0.754927">
        <ele>982</ele>
        <time>1970-01-01T09:37:59.000Z</time>
      </trkpt>
      <trkpt lat="42.962251" lon="0.755064">
        <ele>981.8</ele>
        <time>1970-01-01T09:38:02.000Z</time>
      </trkpt>
      <trkpt lat="42.962278" lon="0.755379">
        <ele>982</ele>
        <time>1970-01-01T09:38:07.000Z</time>
      </trkpt>
      <trkpt lat="42.962483" lon="0.755985">
        <ele>981.6</ele>
        <time>1970-01-01T09:38:17.000Z</time>
      </trkpt>
      <trkpt lat="42.962542" lon="0.756325">
        <ele>981.8</ele>
        <time>1970-01-01T09:38:22.000Z</time>
      </trkpt>
      <trkpt lat="42.962601" lon="0.756704">
        <ele>982</ele>
        <time>1970-01-01T09:38:28.000Z</time>
      </trkpt>
      <trkpt lat="42.96262" lon="0.756837">
        <ele>982</ele>
        <time>1970-01-01T09:38:30.000Z</time>
      </trkpt>
      <trkpt lat="42.962609" lon="0.757123">
        <ele>982</ele>
        <time>1970-01-01T09:38:34.000Z</time>
      </trkpt>
      <trkpt lat="42.962555" lon="0.757386">
        <ele>981.4</ele>
        <time>1970-01-01T09:38:38.000Z</time>
      </trkpt>
      <trkpt lat="42.962436" lon="0.757613">
        <ele>981.6</ele>
        <time>1970-01-01T09:38:42.000Z</time>
      </trkpt>
      <trkpt lat="42.962329" lon="0.757749">
        <ele>981.6</ele>
        <time>1970-01-01T09:38:45.000Z</time>
      </trkpt>
      <trkpt lat="42.96182" lon="0.758057">
        <ele>981.6</ele>
        <time>1970-01-01T09:38:57.000Z</time>
      </trkpt>
      <trkpt lat="42.961575" lon="0.758185">
        <ele>981.6</ele>
        <time>1970-01-01T09:39:02.000Z</time>
      </trkpt>
      <trkpt lat="42.961221" lon="0.758739">
        <ele>981.4</ele>
        <time>1970-01-01T09:39:12.000Z</time>
      </trkpt>
      <trkpt lat="42.960969" lon="0.759081">
        <ele>981.6</ele>
        <time>1970-01-01T09:39:20.000Z</time>
      </trkpt>
      <trkpt lat="42.960812" lon="0.759196">
        <ele>981.6</ele>
        <time>1970-01-01T09:39:24.000Z</time>
      </trkpt>
      <trkpt lat="42.96044" lon="0.759688">
        <ele>981.8</ele>
        <time>1970-01-01T09:39:38.000Z</time>
      </trkpt>
      <trkpt lat="42.960662" lon="0.760144">
        <ele>981.2</ele>
        <time>1970-01-01T09:39:46.000Z</time>
      </trkpt>
      <trkpt lat="42.96081" lon="0.760417">
        <ele>981.2</ele>
        <time>1970-01-01T09:39:51.000Z</time>
      </trkpt>
      <trkpt lat="42.961013" lon="0.760645">
        <ele>980.8</ele>
        <time>1970-01-01T09:39:57.000Z</time>
      </trkpt>
      <trkpt lat="42.961219" lon="0.76081">
        <ele>981</ele>
        <time>1970-01-01T09:40:02.000Z</time>
      </trkpt>
      <trkpt lat="42.96137" lon="0.76091">
        <ele>981</ele>
        <time>1970-01-01T09:40:06.000Z</time>
      </trkpt>
      <trkpt lat="42.961609" lon="0.761134">
        <ele>981.2</ele>
        <time>1970-01-01T09:40:12.000Z</time>
      </trkpt>
      <trkpt lat="42.961924" lon="0.761476">
        <ele>980.8</ele>
        <time>1970-01-01T09:40:20.000Z</time>
      </trkpt>
      <trkpt lat="42.962174" lon="0.761776">
        <ele>981.2</ele>
        <time>1970-01-01T09:40:26.000Z</time>
      </trkpt>
      <trkpt lat="42.962626" lon="0.762232">
        <ele>980.4</ele>
        <time>1970-01-01T09:40:36.000Z</time>
      </trkpt>
      <trkpt lat="42.962719" lon="0.762316">
        <ele>980.4</ele>
        <time>1970-01-01T09:40:38.000Z</time>
      </trkpt>
      <trkpt lat="42.962978" lon="0.762398">
        <ele>980.6</ele>
        <time>1970-01-01T09:40:43.000Z</time>
      </trkpt>
      <trkpt lat="42.963347" lon="0.762482">
        <ele>980.4</ele>
        <time>1970-01-01T09:40:50.000Z</time>
      </trkpt>
      <trkpt lat="42.963868" lon="0.762797">
        <ele>980.8</ele>
        <time>1970-01-01T09:41:04.000Z</time>
      </trkpt>
      <trkpt lat="42.96421" lon="0.763261">
        <ele>980.8</ele>
        <time>1970-01-01T09:41:16.000Z</time>
      </trkpt>
      <trkpt lat="42.964231" lon="0.763736">
        <ele>980.8</ele>
        <time>1970-01-01T09:41:26.000Z</time>
      </trkpt>
      <trkpt lat="42.964185" lon="0.763978">
        <ele>982</ele>
        <time>1970-01-01T09:41:35.000Z</time>
      </trkpt>
      <trkpt lat="42.964151" lon="0.764179">
        <ele>983</ele>
        <time>1970-01-01T09:41:43.000Z</time>
      </trkpt>
      <trkpt lat="42.964109" lon="0.764411">
        <ele>984.4</ele>
        <time>1970-01-01T09:41:51.000Z</time>
      </trkpt>
      <trkpt lat="42.964002" lon="0.764664">
        <ele>985.4</ele>
        <time>1970-01-01T09:41:59.000Z</time>
      </trkpt>
      <trkpt lat="42.963968" lon="0.764807">
        <ele>986.4</ele>
        <time>1970-01-01T09:42:04.000Z</time>
      </trkpt>
      <trkpt lat="42.963961" lon="0.764918">
        <ele>987.4</ele>
        <time>1970-01-01T09:42:08.000Z</time>
      </trkpt>
      <trkpt lat="42.963934" lon="0.765071">
        <ele>988.6</ele>
        <time>1970-01-01T09:42:14.000Z</time>
      </trkpt>
      <trkpt lat="42.96387" lon="0.765202">
        <ele>989.6</ele>
        <time>1970-01-01T09:42:19.000Z</time>
      </trkpt>
      <trkpt lat="42.963824" lon="0.76536">
        <ele>990.6</ele>
        <time>1970-01-01T09:42:25.000Z</time>
      </trkpt>
      <trkpt lat="42.963792" lon="0.765511">
        <ele>991.6</ele>
        <time>1970-01-01T09:42:30.000Z</time>
      </trkpt>
      <trkpt lat="42.963752" lon="0.765754">
        <ele>992.8</ele>
        <time>1970-01-01T09:42:39.000Z</time>
      </trkpt>
      <trkpt lat="42.963754" lon="0.765865">
        <ele>993.8</ele>
        <time>1970-01-01T09:42:43.000Z</time>
      </trkpt>
      <trkpt lat="42.96376" lon="0.766103">
        <ele>995.2</ele>
        <time>1970-01-01T09:42:51.000Z</time>
      </trkpt>
      <trkpt lat="42.963761" lon="0.76635">
        <ele>996.2</ele>
        <time>1970-01-01T09:43:00.000Z</time>
      </trkpt>
      <trkpt lat="42.963771" lon="0.76654">
        <ele>997.4</ele>
        <time>1970-01-01T09:43:07.000Z</time>
      </trkpt>
      <trkpt lat="42.963768" lon="0.766728">
        <ele>998.6</ele>
        <time>1970-01-01T09:43:13.000Z</time>
      </trkpt>
      <trkpt lat="42.963768" lon="0.766918">
        <ele>999.6</ele>
        <time>1970-01-01T09:43:19.000Z</time>
      </trkpt>
      <trkpt lat="42.96375" lon="0.767059">
        <ele>1000.6</ele>
        <time>1970-01-01T09:43:24.000Z</time>
      </trkpt>
      <trkpt lat="42.963721" lon="0.76719">
        <ele>1001.6</ele>
        <time>1970-01-01T09:43:29.000Z</time>
      </trkpt>
      <trkpt lat="42.96369" lon="0.767375">
        <ele>1002.6</ele>
        <time>1970-01-01T09:43:36.000Z</time>
      </trkpt>
      <trkpt lat="42.963642" lon="0.767544">
        <ele>1003.8</ele>
        <time>1970-01-01T09:43:43.000Z</time>
      </trkpt>
      <trkpt lat="42.9636" lon="0.767685">
        <ele>1005</ele>
        <time>1970-01-01T09:43:49.000Z</time>
      </trkpt>
      <trkpt lat="42.963535" lon="0.767842">
        <ele>1006</ele>
        <time>1970-01-01T09:43:56.000Z</time>
      </trkpt>
      <trkpt lat="42.963477" lon="0.767992">
        <ele>1007.2</ele>
        <time>1970-01-01T09:44:03.000Z</time>
      </trkpt>
      <trkpt lat="42.963424" lon="0.768124">
        <ele>1008.2</ele>
        <time>1970-01-01T09:44:09.000Z</time>
      </trkpt>
      <trkpt lat="42.963369" lon="0.768315">
        <ele>1009.4</ele>
        <time>1970-01-01T09:44:16.000Z</time>
      </trkpt>
      <trkpt lat="42.963319" lon="0.768472">
        <ele>1010.2</ele>
        <time>1970-01-01T09:44:22.000Z</time>
      </trkpt>
      <trkpt lat="42.963267" lon="0.768634">
        <ele>1011.6</ele>
        <time>1970-01-01T09:44:28.000Z</time>
      </trkpt>
      <trkpt lat="42.963227" lon="0.768787">
        <ele>1012.4</ele>
        <time>1970-01-01T09:44:34.000Z</time>
      </trkpt>
      <trkpt lat="42.963206" lon="0.768839">
        <ele>1013</ele>
        <time>1970-01-01T09:44:36.000Z</time>
      </trkpt>
      <trkpt lat="42.96319" lon="0.768899">
        <ele>1013.6</ele>
        <time>1970-01-01T09:44:38.000Z</time>
      </trkpt>
      <trkpt lat="42.96316" lon="0.769083">
        <ele>1014.8</ele>
        <time>1970-01-01T09:44:44.000Z</time>
      </trkpt>
      <trkpt lat="42.96313" lon="0.769245">
        <ele>1015.6</ele>
        <time>1970-01-01T09:44:49.000Z</time>
      </trkpt>
      <trkpt lat="42.963087" lon="0.76943">
        <ele>1016.6</ele>
        <time>1970-01-01T09:44:56.000Z</time>
      </trkpt>
      <trkpt lat="42.963086" lon="0.769566">
        <ele>1017.6</ele>
        <time>1970-01-01T09:45:01.000Z</time>
      </trkpt>
      <trkpt lat="42.963108" lon="0.769731">
        <ele>1018.6</ele>
        <time>1970-01-01T09:45:07.000Z</time>
      </trkpt>
      <trkpt lat="42.963136" lon="0.769865">
        <ele>1019.6</ele>
        <time>1970-01-01T09:45:13.000Z</time>
      </trkpt>
      <trkpt lat="42.963205" lon="0.77003">
        <ele>1020.8</ele>
        <time>1970-01-01T09:45:19.000Z</time>
      </trkpt>
      <trkpt lat="42.963232" lon="0.770187">
        <ele>1021.8</ele>
        <time>1970-01-01T09:45:25.000Z</time>
      </trkpt>
      <trkpt lat="42.963236" lon="0.770424">
        <ele>1023</ele>
        <time>1970-01-01T09:45:31.000Z</time>
      </trkpt>
      <trkpt lat="42.963211" lon="0.77062">
        <ele>1024</ele>
        <time>1970-01-01T09:45:38.000Z</time>
      </trkpt>
      <trkpt lat="42.96319" lon="0.77072">
        <ele>1024.8</ele>
        <time>1970-01-01T09:45:42.000Z</time>
      </trkpt>
      <trkpt lat="42.963176" lon="0.770864">
        <ele>1026</ele>
        <time>1970-01-01T09:45:47.000Z</time>
      </trkpt>
      <trkpt lat="42.963144" lon="0.771093">
        <ele>1027</ele>
        <time>1970-01-01T09:45:55.000Z</time>
      </trkpt>
      <trkpt lat="42.963124" lon="0.771285">
        <ele>1028.2</ele>
        <time>1970-01-01T09:46:02.000Z</time>
      </trkpt>
      <trkpt lat="42.963088" lon="0.771481">
        <ele>1029.2</ele>
        <time>1970-01-01T09:46:09.000Z</time>
      </trkpt>
      <trkpt lat="42.963042" lon="0.771612">
        <ele>1030.4</ele>
        <time>1970-01-01T09:46:15.000Z</time>
      </trkpt>
      <trkpt lat="42.962968" lon="0.771753">
        <ele>1031.4</ele>
        <time>1970-01-01T09:46:21.000Z</time>
      </trkpt>
      <trkpt lat="42.962901" lon="0.77194">
        <ele>1032.4</ele>
        <time>1970-01-01T09:46:27.000Z</time>
      </trkpt>
      <trkpt lat="42.962928" lon="0.772196">
        <ele>1033.4</ele>
        <time>1970-01-01T09:46:34.000Z</time>
      </trkpt>
      <trkpt lat="42.962805" lon="0.772814">
        <ele>1034.4</ele>
        <time>1970-01-01T09:46:53.000Z</time>
      </trkpt>
      <trkpt lat="42.962744" lon="0.773106">
        <ele>1035.4</ele>
        <time>1970-01-01T09:47:01.000Z</time>
      </trkpt>
      <trkpt lat="42.962677" lon="0.773463">
        <ele>1036.4</ele>
        <time>1970-01-01T09:47:12.000Z</time>
      </trkpt>
      <trkpt lat="42.962624" lon="0.773825">
        <ele>1037.6</ele>
        <time>1970-01-01T09:47:23.000Z</time>
      </trkpt>
      <trkpt lat="42.962571" lon="0.774038">
        <ele>1038.4</ele>
        <time>1970-01-01T09:47:29.000Z</time>
      </trkpt>
      <trkpt lat="42.96258" lon="0.774285">
        <ele>1039.6</ele>
        <time>1970-01-01T09:47:36.000Z</time>
      </trkpt>
      <trkpt lat="42.962622" lon="0.774483">
        <ele>1040.6</ele>
        <time>1970-01-01T09:47:42.000Z</time>
      </trkpt>
      <trkpt lat="42.962639" lon="0.774703">
        <ele>1041.6</ele>
        <time>1970-01-01T09:47:49.000Z</time>
      </trkpt>
      <trkpt lat="42.96259" lon="0.774928">
        <ele>1042.8</ele>
        <time>1970-01-01T09:47:56.000Z</time>
      </trkpt>
      <trkpt lat="42.962515" lon="0.775158">
        <ele>1043.8</ele>
        <time>1970-01-01T09:48:03.000Z</time>
      </trkpt>
      <trkpt lat="42.962411" lon="0.775313">
        <ele>1044.8</ele>
        <time>1970-01-01T09:48:10.000Z</time>
      </trkpt>
      <trkpt lat="42.962334" lon="0.775437">
        <ele>1046</ele>
        <time>1970-01-01T09:48:15.000Z</time>
      </trkpt>
      <trkpt lat="42.962237" lon="0.775563">
        <ele>1047</ele>
        <time>1970-01-01T09:48:22.000Z</time>
      </trkpt>
      <trkpt lat="42.962138" lon="0.775722">
        <ele>1048</ele>
        <time>1970-01-01T09:48:28.000Z</time>
      </trkpt>
      <trkpt lat="42.962137" lon="0.775742">
        <ele>1048.2</ele>
        <time>1970-01-01T09:48:29.000Z</time>
      </trkpt>
      <trkpt lat="42.962075" lon="0.775823">
        <ele>1048.8</ele>
        <time>1970-01-01T09:48:33.000Z</time>
      </trkpt>
      <trkpt lat="42.96206" lon="0.775853">
        <ele>1049</ele>
        <time>1970-01-01T09:48:34.000Z</time>
      </trkpt>
      <trkpt lat="42.96194" lon="0.776004">
        <ele>1050.2</ele>
        <time>1970-01-01T09:48:40.000Z</time>
      </trkpt>
      <trkpt lat="42.961831" lon="0.776071">
        <ele>1051.2</ele>
        <time>1970-01-01T09:48:45.000Z</time>
      </trkpt>
      <trkpt lat="42.96168" lon="0.776103">
        <ele>1052.4</ele>
        <time>1970-01-01T09:48:52.000Z</time>
      </trkpt>
      <trkpt lat="42.961536" lon="0.776177">
        <ele>1053.2</ele>
        <time>1970-01-01T09:49:00.000Z</time>
      </trkpt>
      <trkpt lat="42.961461" lon="0.776252">
        <ele>1054.4</ele>
        <time>1970-01-01T09:49:05.000Z</time>
      </trkpt>
      <trkpt lat="42.961383" lon="0.776331">
        <ele>1055.4</ele>
        <time>1970-01-01T09:49:10.000Z</time>
      </trkpt>
      <trkpt lat="42.961337" lon="0.776506">
        <ele>1056.4</ele>
        <time>1970-01-01T09:49:16.000Z</time>
      </trkpt>
      <trkpt lat="42.961285" lon="0.776701">
        <ele>1057.4</ele>
        <time>1970-01-01T09:49:23.000Z</time>
      </trkpt>
      <trkpt lat="42.96124" lon="0.776828">
        <ele>1058.4</ele>
        <time>1970-01-01T09:49:28.000Z</time>
      </trkpt>
      <trkpt lat="42.96121" lon="0.776972">
        <ele>1059.6</ele>
        <time>1970-01-01T09:49:33.000Z</time>
      </trkpt>
      <trkpt lat="42.961176" lon="0.777173">
        <ele>1060.6</ele>
        <time>1970-01-01T09:49:40.000Z</time>
      </trkpt>
      <trkpt lat="42.961157" lon="0.777305">
        <ele>1061.6</ele>
        <time>1970-01-01T09:49:45.000Z</time>
      </trkpt>
      <trkpt lat="42.961127" lon="0.777503">
        <ele>1062.8</ele>
        <time>1970-01-01T09:49:52.000Z</time>
      </trkpt>
      <trkpt lat="42.961098" lon="0.777684">
        <ele>1063.6</ele>
        <time>1970-01-01T09:49:59.000Z</time>
      </trkpt>
      <trkpt lat="42.961062" lon="0.777804">
        <ele>1064.8</ele>
        <time>1970-01-01T09:50:04.000Z</time>
      </trkpt>
      <trkpt lat="42.961014" lon="0.777915">
        <ele>1066</ele>
        <time>1970-01-01T09:50:09.000Z</time>
      </trkpt>
      <trkpt lat="42.960958" lon="0.778078">
        <ele>1067.2</ele>
        <time>1970-01-01T09:50:16.000Z</time>
      </trkpt>
      <trkpt lat="42.960894" lon="0.778227">
        <ele>1068.2</ele>
        <time>1970-01-01T09:50:22.000Z</time>
      </trkpt>
      <trkpt lat="42.960827" lon="0.778374">
        <ele>1069.2</ele>
        <time>1970-01-01T09:50:28.000Z</time>
      </trkpt>
      <trkpt lat="42.960769" lon="0.778506">
        <ele>1070.2</ele>
        <time>1970-01-01T09:50:34.000Z</time>
      </trkpt>
      <trkpt lat="42.960708" lon="0.778617">
        <ele>1071</ele>
        <time>1970-01-01T09:50:40.000Z</time>
      </trkpt>
      <trkpt lat="42.960658" lon="0.778736">
        <ele>1072.2</ele>
        <time>1970-01-01T09:50:46.000Z</time>
      </trkpt>
      <trkpt lat="42.960598" lon="0.77885">
        <ele>1073.2</ele>
        <time>1970-01-01T09:50:53.000Z</time>
      </trkpt>
      <trkpt lat="42.960565" lon="0.778955">
        <ele>1074.2</ele>
        <time>1970-01-01T09:50:59.000Z</time>
      </trkpt>
      <trkpt lat="42.960523" lon="0.779087">
        <ele>1075.4</ele>
        <time>1970-01-01T09:51:06.000Z</time>
      </trkpt>
      <trkpt lat="42.96047" lon="0.779222">
        <ele>1076.4</ele>
        <time>1970-01-01T09:51:12.000Z</time>
      </trkpt>
      <trkpt lat="42.960382" lon="0.779381">
        <ele>1077.4</ele>
        <time>1970-01-01T09:51:19.000Z</time>
      </trkpt>
      <trkpt lat="42.96032" lon="0.779457">
        <ele>1078.6</ele>
        <time>1970-01-01T09:51:24.000Z</time>
      </trkpt>
      <trkpt lat="42.96028" lon="0.779584">
        <ele>1079.4</ele>
        <time>1970-01-01T09:51:29.000Z</time>
      </trkpt>
      <trkpt lat="42.960202" lon="0.779732">
        <ele>1080.4</ele>
        <time>1970-01-01T09:51:36.000Z</time>
      </trkpt>
      <trkpt lat="42.960115" lon="0.779835">
        <ele>1081.4</ele>
        <time>1970-01-01T09:51:41.000Z</time>
      </trkpt>
      <trkpt lat="42.960045" lon="0.779906">
        <ele>1082.4</ele>
        <time>1970-01-01T09:51:46.000Z</time>
      </trkpt>
      <trkpt lat="42.95995" lon="0.779978">
        <ele>1083.4</ele>
        <time>1970-01-01T09:51:54.000Z</time>
      </trkpt>
      <trkpt lat="42.959822" lon="0.780069">
        <ele>1084.6</ele>
        <time>1970-01-01T09:52:01.000Z</time>
      </trkpt>
      <trkpt lat="42.959734" lon="0.780158">
        <ele>1085.6</ele>
        <time>1970-01-01T09:52:06.000Z</time>
      </trkpt>
      <trkpt lat="42.959667" lon="0.780278">
        <ele>1086.6</ele>
        <time>1970-01-01T09:52:12.000Z</time>
      </trkpt>
      <trkpt lat="42.959597" lon="0.780383">
        <ele>1087.6</ele>
        <time>1970-01-01T09:52:17.000Z</time>
      </trkpt>
      <trkpt lat="42.9595" lon="0.780598">
        <ele>1088.6</ele>
        <time>1970-01-01T09:52:25.000Z</time>
      </trkpt>
      <trkpt lat="42.959445" lon="0.780707">
        <ele>1089.8</ele>
        <time>1970-01-01T09:52:30.000Z</time>
      </trkpt>
      <trkpt lat="42.959356" lon="0.780832">
        <ele>1090.6</ele>
        <time>1970-01-01T09:52:36.000Z</time>
      </trkpt>
      <trkpt lat="42.959266" lon="0.780962">
        <ele>1091.6</ele>
        <time>1970-01-01T09:52:42.000Z</time>
      </trkpt>
      <trkpt lat="42.9592" lon="0.781057">
        <ele>1092.8</ele>
        <time>1970-01-01T09:52:47.000Z</time>
      </trkpt>
      <trkpt lat="42.959131" lon="0.781208">
        <ele>1093.8</ele>
        <time>1970-01-01T09:52:53.000Z</time>
      </trkpt>
      <trkpt lat="42.95904" lon="0.781337">
        <ele>1094.6</ele>
        <time>1970-01-01T09:52:59.000Z</time>
      </trkpt>
      <trkpt lat="42.958966" lon="0.781455">
        <ele>1095.8</ele>
        <time>1970-01-01T09:53:05.000Z</time>
      </trkpt>
      <trkpt lat="42.958892" lon="0.781601">
        <ele>1097</ele>
        <time>1970-01-01T09:53:13.000Z</time>
      </trkpt>
      <trkpt lat="42.958824" lon="0.781749">
        <ele>1097.8</ele>
        <time>1970-01-01T09:53:21.000Z</time>
      </trkpt>
      <trkpt lat="42.958756" lon="0.781956">
        <ele>1098.8</ele>
        <time>1970-01-01T09:53:28.000Z</time>
      </trkpt>
      <trkpt lat="42.958641" lon="0.782171">
        <ele>1099.8</ele>
        <time>1970-01-01T09:53:36.000Z</time>
      </trkpt>
      <trkpt lat="42.958544" lon="0.782353">
        <ele>1100.6</ele>
        <time>1970-01-01T09:53:44.000Z</time>
      </trkpt>
      <trkpt lat="42.958532" lon="0.782397">
        <ele>1101.2</ele>
        <time>1970-01-01T09:53:47.000Z</time>
      </trkpt>
      <trkpt lat="42.958494" lon="0.782496">
        <ele>1101.6</ele>
        <time>1970-01-01T09:53:51.000Z</time>
      </trkpt>
      <trkpt lat="42.958406" lon="0.782666">
        <ele>1102.8</ele>
        <time>1970-01-01T09:53:58.000Z</time>
      </trkpt>
      <trkpt lat="42.958265" lon="0.782953">
        <ele>1103.6</ele>
        <time>1970-01-01T09:54:08.000Z</time>
      </trkpt>
      <trkpt lat="42.958211" lon="0.783036">
        <ele>1104.6</ele>
        <time>1970-01-01T09:54:12.000Z</time>
      </trkpt>
      <trkpt lat="42.958109" lon="0.783202">
        <ele>1105.6</ele>
        <time>1970-01-01T09:54:20.000Z</time>
      </trkpt>
      <trkpt lat="42.958016" lon="0.783341">
        <ele>1106.6</ele>
        <time>1970-01-01T09:54:26.000Z</time>
      </trkpt>
      <trkpt lat="42.957869" lon="0.783516">
        <ele>1107.6</ele>
        <time>1970-01-01T09:54:34.000Z</time>
      </trkpt>
      <trkpt lat="42.957707" lon="0.78364">
        <ele>1108.6</ele>
        <time>1970-01-01T09:54:42.000Z</time>
      </trkpt>
      <trkpt lat="42.957497" lon="0.783769">
        <ele>1109.6</ele>
        <time>1970-01-01T09:54:52.000Z</time>
      </trkpt>
      <trkpt lat="42.957154" lon="0.783884">
        <ele>1110.6</ele>
        <time>1970-01-01T09:55:07.000Z</time>
      </trkpt>
      <trkpt lat="42.956721" lon="0.783779">
        <ele>1111.6</ele>
        <time>1970-01-01T09:55:25.000Z</time>
      </trkpt>
      <trkpt lat="42.956182" lon="0.783686">
        <ele>1111.6</ele>
        <time>1970-01-01T09:55:44.000Z</time>
      </trkpt>
      <trkpt lat="42.95569" lon="0.783365">
        <ele>1111</ele>
        <time>1970-01-01T09:56:00.000Z</time>
      </trkpt>
      <trkpt lat="42.95522" lon="0.782934">
        <ele>1111.4</ele>
        <time>1970-01-01T09:56:17.000Z</time>
      </trkpt>
      <trkpt lat="42.954772" lon="0.782524">
        <ele>1111.6</ele>
        <time>1970-01-01T09:56:33.000Z</time>
      </trkpt>
      <trkpt lat="42.954278" lon="0.782169">
        <ele>1112</ele>
        <time>1970-01-01T09:56:52.000Z</time>
      </trkpt>
      <trkpt lat="42.953739" lon="0.781916">
        <ele>1111.8</ele>
        <time>1970-01-01T09:57:07.000Z</time>
      </trkpt>
      <trkpt lat="42.953658" lon="0.781877">
        <ele>1112</ele>
        <time>1970-01-01T09:57:09.000Z</time>
      </trkpt>
      <trkpt lat="42.953167" lon="0.781549">
        <ele>1111.4</ele>
        <time>1970-01-01T09:57:22.000Z</time>
      </trkpt>
      <trkpt lat="42.952672" lon="0.781613">
        <ele>1111.2</ele>
        <time>1970-01-01T09:57:36.000Z</time>
      </trkpt>
      <trkpt lat="42.952482" lon="0.781725">
        <ele>1111.2</ele>
        <time>1970-01-01T09:57:41.000Z</time>
      </trkpt>
      <trkpt lat="42.952174" lon="0.781614">
        <ele>1111</ele>
        <time>1970-01-01T09:57:48.000Z</time>
      </trkpt>
      <trkpt lat="42.951658" lon="0.781371">
        <ele>1111.2</ele>
        <time>1970-01-01T09:58:04.000Z</time>
      </trkpt>
      <trkpt lat="42.951492" lon="0.781441">
        <ele>1111.2</ele>
        <time>1970-01-01T09:58:08.000Z</time>
      </trkpt>
      <trkpt lat="42.95138" lon="0.781614">
        <ele>1111</ele>
        <time>1970-01-01T09:58:12.000Z</time>
      </trkpt>
      <trkpt lat="42.951305" lon="0.781829">
        <ele>1110.8</ele>
        <time>1970-01-01T09:58:16.000Z</time>
      </trkpt>
      <trkpt lat="42.951222" lon="0.781971">
        <ele>1110.6</ele>
        <time>1970-01-01T09:58:19.000Z</time>
      </trkpt>
      <trkpt lat="42.950792" lon="0.7825">
        <ele>1110.6</ele>
        <time>1970-01-01T09:58:31.000Z</time>
      </trkpt>
      <trkpt lat="42.950592" lon="0.782787">
        <ele>1110.6</ele>
        <time>1970-01-01T09:58:37.000Z</time>
      </trkpt>
      <trkpt lat="42.95009" lon="0.783061">
        <ele>1110.2</ele>
        <time>1970-01-01T09:58:48.000Z</time>
      </trkpt>
      <trkpt lat="42.949999" lon="0.783104">
        <ele>1110.2</ele>
        <time>1970-01-01T09:58:50.000Z</time>
      </trkpt>
      <trkpt lat="42.949447" lon="0.783281">
        <ele>1110.8</ele>
        <time>1970-01-01T09:59:03.000Z</time>
      </trkpt>
      <trkpt lat="42.948949" lon="0.783538">
        <ele>1110.6</ele>
        <time>1970-01-01T09:59:12.000Z</time>
      </trkpt>
      <trkpt lat="42.948844" lon="0.783573">
        <ele>1110.6</ele>
        <time>1970-01-01T09:59:14.000Z</time>
      </trkpt>
      <trkpt lat="42.94836" lon="0.783902">
        <ele>1111</ele>
        <time>1970-01-01T09:59:27.000Z</time>
      </trkpt>
      <trkpt lat="42.948199" lon="0.784047">
        <ele>1111.6</ele>
        <time>1970-01-01T09:59:31.000Z</time>
      </trkpt>
      <trkpt lat="42.948104" lon="0.78411">
        <ele>1111.6</ele>
        <time>1970-01-01T09:59:33.000Z</time>
      </trkpt>
      <trkpt lat="42.94806" lon="0.784134">
        <ele>1111.6</ele>
        <time>1970-01-01T09:59:34.000Z</time>
      </trkpt>
      <trkpt lat="42.947823" lon="0.78423">
        <ele>1112</ele>
        <time>1970-01-01T09:59:39.000Z</time>
      </trkpt>
      <trkpt lat="42.94762" lon="0.784263">
        <ele>1112</ele>
        <time>1970-01-01T09:59:43.000Z</time>
      </trkpt>
      <trkpt lat="42.947432" lon="0.784315">
        <ele>1112.4</ele>
        <time>1970-01-01T09:59:47.000Z</time>
      </trkpt>
      <trkpt lat="42.947292" lon="0.784376">
        <ele>1112.6</ele>
        <time>1970-01-01T09:59:50.000Z</time>
      </trkpt>
      <trkpt lat="42.947244" lon="0.78439">
        <ele>1112.8</ele>
        <time>1970-01-01T09:59:51.000Z</time>
      </trkpt>
      <trkpt lat="42.947006" lon="0.784442">
        <ele>1113</ele>
        <time>1970-01-01T09:59:56.000Z</time>
      </trkpt>
      <trkpt lat="42.94681" lon="0.784397">
        <ele>1112.8</ele>
        <time>1970-01-01T10:00:00.000Z</time>
      </trkpt>
      <trkpt lat="42.946635" lon="0.784253">
        <ele>1113.4</ele>
        <time>1970-01-01T10:00:04.000Z</time>
      </trkpt>
      <trkpt lat="42.94642" lon="0.78396">
        <ele>1113.8</ele>
        <time>1970-01-01T10:00:10.000Z</time>
      </trkpt>
      <trkpt lat="42.94619" lon="0.783632">
        <ele>1114.2</ele>
        <time>1970-01-01T10:00:17.000Z</time>
      </trkpt>
      <trkpt lat="42.946069" lon="0.783432">
        <ele>1114.4</ele>
        <time>1970-01-01T10:00:21.000Z</time>
      </trkpt>
      <trkpt lat="42.945905" lon="0.783037">
        <ele>1114.8</ele>
        <time>1970-01-01T10:00:28.000Z</time>
      </trkpt>
      <trkpt lat="42.945646" lon="0.782501">
        <ele>1115.4</ele>
        <time>1970-01-01T10:00:38.000Z</time>
      </trkpt>
      <trkpt lat="42.945523" lon="0.782153">
        <ele>1116</ele>
        <time>1970-01-01T10:00:45.000Z</time>
      </trkpt>
      <trkpt lat="42.945325" lon="0.781868">
        <ele>1116.2</ele>
        <time>1970-01-01T10:00:52.000Z</time>
      </trkpt>
      <trkpt lat="42.945144" lon="0.781788">
        <ele>1116.2</ele>
        <time>1970-01-01T10:00:56.000Z</time>
      </trkpt>
      <trkpt lat="42.945102" lon="0.781779">
        <ele>1116.2</ele>
        <time>1970-01-01T10:00:57.000Z</time>
      </trkpt>
      <trkpt lat="42.944906" lon="0.781786">
        <ele>1116.8</ele>
        <time>1970-01-01T10:01:02.000Z</time>
      </trkpt>
      <trkpt lat="42.944692" lon="0.781819">
        <ele>1118</ele>
        <time>1970-01-01T10:01:08.000Z</time>
      </trkpt>
      <trkpt lat="42.944525" lon="0.781854">
        <ele>1119</ele>
        <time>1970-01-01T10:01:13.000Z</time>
      </trkpt>
      <trkpt lat="42.944327" lon="0.781971">
        <ele>1120</ele>
        <time>1970-01-01T10:01:21.000Z</time>
      </trkpt>
      <trkpt lat="42.944228" lon="0.782169">
        <ele>1121.4</ele>
        <time>1970-01-01T10:01:29.000Z</time>
      </trkpt>
      <trkpt lat="42.944118" lon="0.782429">
        <ele>1122.2</ele>
        <time>1970-01-01T10:01:35.000Z</time>
      </trkpt>
      <trkpt lat="42.943905" lon="0.782607">
        <ele>1123.4</ele>
        <time>1970-01-01T10:01:41.000Z</time>
      </trkpt>
      <trkpt lat="42.94371" lon="0.782534">
        <ele>1124.6</ele>
        <time>1970-01-01T10:01:47.000Z</time>
      </trkpt>
      <trkpt lat="42.943423" lon="0.782475">
        <ele>1125.8</ele>
        <time>1970-01-01T10:01:56.000Z</time>
      </trkpt>
      <trkpt lat="42.943198" lon="0.782497">
        <ele>1126.6</ele>
        <time>1970-01-01T10:02:03.000Z</time>
      </trkpt>
      <trkpt lat="42.943032" lon="0.782468">
        <ele>1127.8</ele>
        <time>1970-01-01T10:02:08.000Z</time>
      </trkpt>
      <trkpt lat="42.942767" lon="0.782419">
        <ele>1128.8</ele>
        <time>1970-01-01T10:02:16.000Z</time>
      </trkpt>
      <trkpt lat="42.942479" lon="0.782428">
        <ele>1130</ele>
        <time>1970-01-01T10:02:26.000Z</time>
      </trkpt>
      <trkpt lat="42.942372" lon="0.782526">
        <ele>1131</ele>
        <time>1970-01-01T10:02:31.000Z</time>
      </trkpt>
      <trkpt lat="42.942201" lon="0.782726">
        <ele>1131.8</ele>
        <time>1970-01-01T10:02:39.000Z</time>
      </trkpt>
      <trkpt lat="42.941924" lon="0.783403">
        <ele>1132.6</ele>
        <time>1970-01-01T10:02:54.000Z</time>
      </trkpt>
      <trkpt lat="42.941884" lon="0.78365">
        <ele>1132.6</ele>
        <time>1970-01-01T10:02:58.000Z</time>
      </trkpt>
      <trkpt lat="42.94183" lon="0.783874">
        <ele>1132.4</ele>
        <time>1970-01-01T10:03:02.000Z</time>
      </trkpt>
      <trkpt lat="42.94168" lon="0.784035">
        <ele>1132.6</ele>
        <time>1970-01-01T10:03:06.000Z</time>
      </trkpt>
      <trkpt lat="42.941616" lon="0.784067">
        <ele>1132.6</ele>
        <time>1970-01-01T10:03:08.000Z</time>
      </trkpt>
      <trkpt lat="42.941117" lon="0.784496">
        <ele>1133.2</ele>
        <time>1970-01-01T10:03:23.000Z</time>
      </trkpt>
      <trkpt lat="42.94061" lon="0.784927">
        <ele>1133</ele>
        <time>1970-01-01T10:03:32.000Z</time>
      </trkpt>
      <trkpt lat="42.940551" lon="0.784971">
        <ele>1133</ele>
        <time>1970-01-01T10:03:33.000Z</time>
      </trkpt>
      <trkpt lat="42.940053" lon="0.785254">
        <ele>1132.8</ele>
        <time>1970-01-01T10:03:42.000Z</time>
      </trkpt>
      <trkpt lat="42.939803" lon="0.785401">
        <ele>1133</ele>
        <time>1970-01-01T10:03:47.000Z</time>
      </trkpt>
      <trkpt lat="42.939641" lon="0.785601">
        <ele>1133</ele>
        <time>1970-01-01T10:03:51.000Z</time>
      </trkpt>
      <trkpt lat="42.939488" lon="0.78584">
        <ele>1132.8</ele>
        <time>1970-01-01T10:03:55.000Z</time>
      </trkpt>
      <trkpt lat="42.939122" lon="0.786088">
        <ele>1132.8</ele>
        <time>1970-01-01T10:04:02.000Z</time>
      </trkpt>
      <trkpt lat="42.938923" lon="0.786218">
        <ele>1132.8</ele>
        <time>1970-01-01T10:04:06.000Z</time>
      </trkpt>
      <trkpt lat="42.938454" lon="0.786636">
        <ele>1132.8</ele>
        <time>1970-01-01T10:04:16.000Z</time>
      </trkpt>
      <trkpt lat="42.938226" lon="0.786815">
        <ele>1132.4</ele>
        <time>1970-01-01T10:04:20.000Z</time>
      </trkpt>
      <trkpt lat="42.937726" lon="0.787167">
        <ele>1132.2</ele>
        <time>1970-01-01T10:04:29.000Z</time>
      </trkpt>
      <trkpt lat="42.937678" lon="0.787219">
        <ele>1132.2</ele>
        <time>1970-01-01T10:04:30.000Z</time>
      </trkpt>
      <trkpt lat="42.937496" lon="0.787523">
        <ele>1132</ele>
        <time>1970-01-01T10:04:35.000Z</time>
      </trkpt>
      <trkpt lat="42.937208" lon="0.788109">
        <ele>1131.6</ele>
        <time>1970-01-01T10:04:44.000Z</time>
      </trkpt>
      <trkpt lat="42.937014" lon="0.788459">
        <ele>1132</ele>
        <time>1970-01-01T10:04:50.000Z</time>
      </trkpt>
      <trkpt lat="42.936562" lon="0.7885">
        <ele>1131.8</ele>
        <time>1970-01-01T10:04:58.000Z</time>
      </trkpt>
      <trkpt lat="42.936507" lon="0.788481">
        <ele>1132</ele>
        <time>1970-01-01T10:04:59.000Z</time>
      </trkpt>
      <trkpt lat="42.936378" lon="0.788461">
        <ele>1132.6</ele>
        <time>1970-01-01T10:05:02.000Z</time>
      </trkpt>
      <trkpt lat="42.93625" lon="0.788462">
        <ele>1133.6</ele>
        <time>1970-01-01T10:05:06.000Z</time>
      </trkpt>
      <trkpt lat="42.936156" lon="0.788457">
        <ele>1134.6</ele>
        <time>1970-01-01T10:05:09.000Z</time>
      </trkpt>
      <trkpt lat="42.935989" lon="0.788451">
        <ele>1135.8</ele>
        <time>1970-01-01T10:05:14.000Z</time>
      </trkpt>
      <trkpt lat="42.93583" lon="0.788402">
        <ele>1137.2</ele>
        <time>1970-01-01T10:05:19.000Z</time>
      </trkpt>
      <trkpt lat="42.93568" lon="0.788199">
        <ele>1138.2</ele>
        <time>1970-01-01T10:05:25.000Z</time>
      </trkpt>
      <trkpt lat="42.935594" lon="0.788035">
        <ele>1139.6</ele>
        <time>1970-01-01T10:05:30.000Z</time>
      </trkpt>
      <trkpt lat="42.935535" lon="0.787874">
        <ele>1140.6</ele>
        <time>1970-01-01T10:05:35.000Z</time>
      </trkpt>
      <trkpt lat="42.935475" lon="0.787722">
        <ele>1141.8</ele>
        <time>1970-01-01T10:05:40.000Z</time>
      </trkpt>
      <trkpt lat="42.935428" lon="0.787569">
        <ele>1142.8</ele>
        <time>1970-01-01T10:05:45.000Z</time>
      </trkpt>
      <trkpt lat="42.935379" lon="0.787416">
        <ele>1143.8</ele>
        <time>1970-01-01T10:05:50.000Z</time>
      </trkpt>
      <trkpt lat="42.935338" lon="0.787263">
        <ele>1144.8</ele>
        <time>1970-01-01T10:05:55.000Z</time>
      </trkpt>
      <trkpt lat="42.935277" lon="0.787063">
        <ele>1145.8</ele>
        <time>1970-01-01T10:06:02.000Z</time>
      </trkpt>
      <trkpt lat="42.935226" lon="0.786953">
        <ele>1146.8</ele>
        <time>1970-01-01T10:06:07.000Z</time>
      </trkpt>
      <trkpt lat="42.935138" lon="0.786715">
        <ele>1148</ele>
        <time>1970-01-01T10:06:16.000Z</time>
      </trkpt>
      <trkpt lat="42.935105" lon="0.786572">
        <ele>1149.2</ele>
        <time>1970-01-01T10:06:21.000Z</time>
      </trkpt>
      <trkpt lat="42.935037" lon="0.786381">
        <ele>1150.2</ele>
        <time>1970-01-01T10:06:28.000Z</time>
      </trkpt>
      <trkpt lat="42.934966" lon="0.786244">
        <ele>1151.2</ele>
        <time>1970-01-01T10:06:34.000Z</time>
      </trkpt>
      <trkpt lat="42.934826" lon="0.786151">
        <ele>1152.2</ele>
        <time>1970-01-01T10:06:43.000Z</time>
      </trkpt>
      <trkpt lat="42.934633" lon="0.786052">
        <ele>1153.4</ele>
        <time>1970-01-01T10:06:53.000Z</time>
      </trkpt>
      <trkpt lat="42.934578" lon="0.785952">
        <ele>1154.4</ele>
        <time>1970-01-01T10:06:58.000Z</time>
      </trkpt>
      <trkpt lat="42.934552" lon="0.785769">
        <ele>1155.4</ele>
        <time>1970-01-01T10:07:06.000Z</time>
      </trkpt>
      <trkpt lat="42.93454" lon="0.785669">
        <ele>1156.6</ele>
        <time>1970-01-01T10:07:10.000Z</time>
      </trkpt>
      <trkpt lat="42.934532" lon="0.78546">
        <ele>1157.6</ele>
        <time>1970-01-01T10:07:18.000Z</time>
      </trkpt>
      <trkpt lat="42.934529" lon="0.785233">
        <ele>1158.4</ele>
        <time>1970-01-01T10:07:26.000Z</time>
      </trkpt>
      <trkpt lat="42.934525" lon="0.785067">
        <ele>1159.4</ele>
        <time>1970-01-01T10:07:32.000Z</time>
      </trkpt>
      <trkpt lat="42.934518" lon="0.784867">
        <ele>1160.4</ele>
        <time>1970-01-01T10:07:40.000Z</time>
      </trkpt>
      <trkpt lat="42.934514" lon="0.784707">
        <ele>1161.4</ele>
        <time>1970-01-01T10:07:47.000Z</time>
      </trkpt>
      <trkpt lat="42.934526" lon="0.784528">
        <ele>1162.4</ele>
        <time>1970-01-01T10:07:54.000Z</time>
      </trkpt>
      <trkpt lat="42.934533" lon="0.784275">
        <ele>1163.4</ele>
        <time>1970-01-01T10:08:04.000Z</time>
      </trkpt>
      <trkpt lat="42.934528" lon="0.784097">
        <ele>1164.6</ele>
        <time>1970-01-01T10:08:11.000Z</time>
      </trkpt>
      <trkpt lat="42.934523" lon="0.783925">
        <ele>1165.6</ele>
        <time>1970-01-01T10:08:18.000Z</time>
      </trkpt>
      <trkpt lat="42.934527" lon="0.783714">
        <ele>1166.8</ele>
        <time>1970-01-01T10:08:26.000Z</time>
      </trkpt>
      <trkpt lat="42.934536" lon="0.783554">
        <ele>1167.8</ele>
        <time>1970-01-01T10:08:32.000Z</time>
      </trkpt>
      <trkpt lat="42.934541" lon="0.783393">
        <ele>1169</ele>
        <time>1970-01-01T10:08:38.000Z</time>
      </trkpt>
      <trkpt lat="42.934553" lon="0.783263">
        <ele>1169.8</ele>
        <time>1970-01-01T10:08:43.000Z</time>
      </trkpt>
      <trkpt lat="42.934566" lon="0.783104">
        <ele>1170.8</ele>
        <time>1970-01-01T10:08:49.000Z</time>
      </trkpt>
      <trkpt lat="42.93457" lon="0.78298">
        <ele>1172</ele>
        <time>1970-01-01T10:08:54.000Z</time>
      </trkpt>
      <trkpt lat="42.934592" lon="0.782709">
        <ele>1173</ele>
        <time>1970-01-01T10:09:04.000Z</time>
      </trkpt>
      <trkpt lat="42.934588" lon="0.782465">
        <ele>1174.2</ele>
        <time>1970-01-01T10:09:12.000Z</time>
      </trkpt>
      <trkpt lat="42.934588" lon="0.782199">
        <ele>1175.2</ele>
        <time>1970-01-01T10:09:21.000Z</time>
      </trkpt>
      <trkpt lat="42.934551" lon="0.781926">
        <ele>1176.4</ele>
        <time>1970-01-01T10:09:30.000Z</time>
      </trkpt>
      <trkpt lat="42.934534" lon="0.781681">
        <ele>1177.4</ele>
        <time>1970-01-01T10:09:38.000Z</time>
      </trkpt>
      <trkpt lat="42.93455" lon="0.781497">
        <ele>1178.4</ele>
        <time>1970-01-01T10:09:44.000Z</time>
      </trkpt>
      <trkpt lat="42.934569" lon="0.781266">
        <ele>1179.4</ele>
        <time>1970-01-01T10:09:52.000Z</time>
      </trkpt>
      <trkpt lat="42.934586" lon="0.781063">
        <ele>1180.4</ele>
        <time>1970-01-01T10:09:59.000Z</time>
      </trkpt>
      <trkpt lat="42.934594" lon="0.780858">
        <ele>1181.4</ele>
        <time>1970-01-01T10:10:06.000Z</time>
      </trkpt>
      <trkpt lat="42.93459" lon="0.78059">
        <ele>1182.6</ele>
        <time>1970-01-01T10:10:15.000Z</time>
      </trkpt>
      <trkpt lat="42.934577" lon="0.780214">
        <ele>1183.8</ele>
        <time>1970-01-01T10:10:27.000Z</time>
      </trkpt>
      <trkpt lat="42.934592" lon="0.779992">
        <ele>1184.8</ele>
        <time>1970-01-01T10:10:34.000Z</time>
      </trkpt>
      <trkpt lat="42.934614" lon="0.779753">
        <ele>1185.6</ele>
        <time>1970-01-01T10:10:42.000Z</time>
      </trkpt>
      <trkpt lat="42.934604" lon="0.779434">
        <ele>1186.8</ele>
        <time>1970-01-01T10:10:52.000Z</time>
      </trkpt>
      <trkpt lat="42.934578" lon="0.7792">
        <ele>1187.8</ele>
        <time>1970-01-01T10:10:59.000Z</time>
      </trkpt>
      <trkpt lat="42.934547" lon="0.778859">
        <ele>1188.8</ele>
        <time>1970-01-01T10:11:09.000Z</time>
      </trkpt>
      <trkpt lat="42.93451" lon="0.778667">
        <ele>1190</ele>
        <time>1970-01-01T10:11:15.000Z</time>
      </trkpt>
      <trkpt lat="42.934463" lon="0.778455">
        <ele>1190.8</ele>
        <time>1970-01-01T10:11:23.000Z</time>
      </trkpt>
      <trkpt lat="42.934419" lon="0.778275">
        <ele>1191.8</ele>
        <time>1970-01-01T10:11:30.000Z</time>
      </trkpt>
      <trkpt lat="42.934359" lon="0.778073">
        <ele>1192.6</ele>
        <time>1970-01-01T10:11:37.000Z</time>
      </trkpt>
      <trkpt lat="42.934265" lon="0.777792">
        <ele>1193.8</ele>
        <time>1970-01-01T10:11:47.000Z</time>
      </trkpt>
      <trkpt lat="42.934203" lon="0.777612">
        <ele>1194.8</ele>
        <time>1970-01-01T10:11:54.000Z</time>
      </trkpt>
      <trkpt lat="42.934138" lon="0.777429">
        <ele>1195.6</ele>
        <time>1970-01-01T10:12:01.000Z</time>
      </trkpt>
      <trkpt lat="42.934044" lon="0.777121">
        <ele>1196.6</ele>
        <time>1970-01-01T10:12:12.000Z</time>
      </trkpt>
      <trkpt lat="42.933969" lon="0.776919">
        <ele>1197.6</ele>
        <time>1970-01-01T10:12:19.000Z</time>
      </trkpt>
      <trkpt lat="42.933834" lon="0.77663">
        <ele>1198.6</ele>
        <time>1970-01-01T10:12:30.000Z</time>
      </trkpt>
      <trkpt lat="42.933781" lon="0.776455">
        <ele>1199.4</ele>
        <time>1970-01-01T10:12:37.000Z</time>
      </trkpt>
      <trkpt lat="42.933737" lon="0.776278">
        <ele>1200.2</ele>
        <time>1970-01-01T10:12:45.000Z</time>
      </trkpt>
      <trkpt lat="42.933686" lon="0.77608">
        <ele>1201.2</ele>
        <time>1970-01-01T10:12:52.000Z</time>
      </trkpt>
      <trkpt lat="42.933653" lon="0.775901">
        <ele>1202.2</ele>
        <time>1970-01-01T10:12:58.000Z</time>
      </trkpt>
      <trkpt lat="42.933614" lon="0.77566">
        <ele>1203.2</ele>
        <time>1970-01-01T10:13:06.000Z</time>
      </trkpt>
      <trkpt lat="42.933598" lon="0.775458">
        <ele>1204</ele>
        <time>1970-01-01T10:13:13.000Z</time>
      </trkpt>
      <trkpt lat="42.933585" lon="0.775264">
        <ele>1205</ele>
        <time>1970-01-01T10:13:21.000Z</time>
      </trkpt>
      <trkpt lat="42.933558" lon="0.775109">
        <ele>1206</ele>
        <time>1970-01-01T10:13:27.000Z</time>
      </trkpt>
      <trkpt lat="42.930307" lon="0.774106">
        <ele>1270.4</ele>
        <time>1970-01-01T10:19:21.000Z</time>
      </trkpt>
      <trkpt lat="42.930303" lon="0.774107">
        <ele>1270.4</ele>
        <time>1970-01-01T10:19:22.000Z</time>
      </trkpt>
      <trkpt lat="42.930269" lon="0.774216">
        <ele>1271</ele>
        <time>1970-01-01T10:19:30.000Z</time>
      </trkpt>
      <trkpt lat="42.930261" lon="0.774244">
        <ele>1271</ele>
        <time>1970-01-01T10:19:31.000Z</time>
      </trkpt>
      <trkpt lat="42.930258" lon="0.774333">
        <ele>1271.4</ele>
        <time>1970-01-01T10:19:34.000Z</time>
      </trkpt>
      <trkpt lat="42.93025" lon="0.77439">
        <ele>1271.8</ele>
        <time>1970-01-01T10:19:36.000Z</time>
      </trkpt>
      <trkpt lat="42.930238" lon="0.774497">
        <ele>1272.4</ele>
        <time>1970-01-01T10:19:40.000Z</time>
      </trkpt>
      <trkpt lat="42.930236" lon="0.77464">
        <ele>1273.4</ele>
        <time>1970-01-01T10:19:45.000Z</time>
      </trkpt>
      <trkpt lat="42.93024" lon="0.77483">
        <ele>1274.6</ele>
        <time>1970-01-01T10:19:52.000Z</time>
      </trkpt>
      <trkpt lat="42.930262" lon="0.775039">
        <ele>1275.8</ele>
        <time>1970-01-01T10:20:00.000Z</time>
      </trkpt>
      <trkpt lat="42.930267" lon="0.775229">
        <ele>1277</ele>
        <time>1970-01-01T10:20:07.000Z</time>
      </trkpt>
      <trkpt lat="42.930283" lon="0.775501">
        <ele>1278.2</ele>
        <time>1970-01-01T10:20:17.000Z</time>
      </trkpt>
      <trkpt lat="42.930255" lon="0.775637">
        <ele>1278.6</ele>
        <time>1970-01-01T10:20:23.000Z</time>
      </trkpt>
      <trkpt lat="42.930235" lon="0.775722">
        <ele>1279.4</ele>
        <time>1970-01-01T10:20:27.000Z</time>
      </trkpt>
      <trkpt lat="42.930238" lon="0.775777">
        <ele>1279.4</ele>
        <time>1970-01-01T10:20:29.000Z</time>
      </trkpt>
      <trkpt lat="42.930247" lon="0.776003">
        <ele>1280.6</ele>
        <time>1970-01-01T10:20:38.000Z</time>
      </trkpt>
      <trkpt lat="42.930278" lon="0.776251">
        <ele>1281.8</ele>
        <time>1970-01-01T10:20:48.000Z</time>
      </trkpt>
      <trkpt lat="42.930313" lon="0.776401">
        <ele>1282.8</ele>
        <time>1970-01-01T10:20:55.000Z</time>
      </trkpt>
      <trkpt lat="42.930345" lon="0.776561">
        <ele>1284</ele>
        <time>1970-01-01T10:21:02.000Z</time>
      </trkpt>
      <trkpt lat="42.930363" lon="0.776676">
        <ele>1285</ele>
        <time>1970-01-01T10:21:07.000Z</time>
      </trkpt>
      <trkpt lat="42.930416" lon="0.776894">
        <ele>1286.2</ele>
        <time>1970-01-01T10:21:17.000Z</time>
      </trkpt>
      <trkpt lat="42.930436" lon="0.777077">
        <ele>1287.4</ele>
        <time>1970-01-01T10:21:25.000Z</time>
      </trkpt>
      <trkpt lat="42.930442" lon="0.777284">
        <ele>1288.8</ele>
        <time>1970-01-01T10:21:35.000Z</time>
      </trkpt>
      <trkpt lat="42.930446" lon="0.777303">
        <ele>1289</ele>
        <time>1970-01-01T10:21:36.000Z</time>
      </trkpt>
      <trkpt lat="42.930465" lon="0.777402">
        <ele>1290</ele>
        <time>1970-01-01T10:21:41.000Z</time>
      </trkpt>
      <trkpt lat="42.930537" lon="0.7777">
        <ele>1291</ele>
        <time>1970-01-01T10:21:54.000Z</time>
      </trkpt>
      <trkpt lat="42.93056" lon="0.77793">
        <ele>1292</ele>
        <time>1970-01-01T10:22:03.000Z</time>
      </trkpt>
      <trkpt lat="42.930438" lon="0.778106">
        <ele>1293.4</ele>
        <time>1970-01-01T10:22:12.000Z</time>
      </trkpt>
      <trkpt lat="42.930138" lon="0.777735">
        <ele>1292.4</ele>
        <time>1970-01-01T10:22:34.000Z</time>
      </trkpt>
      <trkpt lat="42.929996" lon="0.777491">
        <ele>1291.4</ele>
        <time>1970-01-01T10:22:42.000Z</time>
      </trkpt>
      <trkpt lat="42.929926" lon="0.777358">
        <ele>1290.2</ele>
        <time>1970-01-01T10:22:45.000Z</time>
      </trkpt>
      <trkpt lat="42.929827" lon="0.777157">
        <ele>1289.2</ele>
        <time>1970-01-01T10:22:49.000Z</time>
      </trkpt>
      <trkpt lat="42.929768" lon="0.777054">
        <ele>1289</ele>
        <time>1970-01-01T10:22:51.000Z</time>
      </trkpt>
      <trkpt lat="42.92962" lon="0.776774">
        <ele>1287.8</ele>
        <time>1970-01-01T10:22:56.000Z</time>
      </trkpt>
      <trkpt lat="42.929484" lon="0.776495">
        <ele>1287</ele>
        <time>1970-01-01T10:23:01.000Z</time>
      </trkpt>
      <trkpt lat="42.929423" lon="0.776382">
        <ele>1286.6</ele>
        <time>1970-01-01T10:23:03.000Z</time>
      </trkpt>
      <trkpt lat="42.929307" lon="0.776142">
        <ele>1285.6</ele>
        <time>1970-01-01T10:23:08.000Z</time>
      </trkpt>
      <trkpt lat="42.929183" lon="0.775829">
        <ele>1284.6</ele>
        <time>1970-01-01T10:23:15.000Z</time>
      </trkpt>
      <trkpt lat="42.928943" lon="0.775252">
        <ele>1285.6</ele>
        <time>1970-01-01T10:23:33.000Z</time>
      </trkpt>
      <trkpt lat="42.928859" lon="0.775054">
        <ele>1286.6</ele>
        <time>1970-01-01T10:23:44.000Z</time>
      </trkpt>
      <trkpt lat="42.928793" lon="0.774885">
        <ele>1287.6</ele>
        <time>1970-01-01T10:23:53.000Z</time>
      </trkpt>
      <trkpt lat="42.928727" lon="0.774787">
        <ele>1288.6</ele>
        <time>1970-01-01T10:24:00.000Z</time>
      </trkpt>
      <trkpt lat="42.928647" lon="0.774685">
        <ele>1289.6</ele>
        <time>1970-01-01T10:24:06.000Z</time>
      </trkpt>
      <trkpt lat="42.928532" lon="0.774553">
        <ele>1290.8</ele>
        <time>1970-01-01T10:24:14.000Z</time>
      </trkpt>
      <trkpt lat="42.928386" lon="0.774439">
        <ele>1291.8</ele>
        <time>1970-01-01T10:24:23.000Z</time>
      </trkpt>
      <trkpt lat="42.928283" lon="0.774347">
        <ele>1292.8</ele>
        <time>1970-01-01T10:24:30.000Z</time>
      </trkpt>
      <trkpt lat="42.928189" lon="0.774225">
        <ele>1293.8</ele>
        <time>1970-01-01T10:24:37.000Z</time>
      </trkpt>
      <trkpt lat="42.928115" lon="0.774135">
        <ele>1295</ele>
        <time>1970-01-01T10:24:43.000Z</time>
      </trkpt>
      <trkpt lat="42.927964" lon="0.773972">
        <ele>1296</ele>
        <time>1970-01-01T10:24:53.000Z</time>
      </trkpt>
      <trkpt lat="42.927842" lon="0.773825">
        <ele>1297.2</ele>
        <time>1970-01-01T10:25:01.000Z</time>
      </trkpt>
      <trkpt lat="42.927635" lon="0.773705">
        <ele>1298.2</ele>
        <time>1970-01-01T10:25:13.000Z</time>
      </trkpt>
      <trkpt lat="42.927484" lon="0.773611">
        <ele>1299.2</ele>
        <time>1970-01-01T10:25:22.000Z</time>
      </trkpt>
      <trkpt lat="42.927316" lon="0.77349">
        <ele>1300.4</ele>
        <time>1970-01-01T10:25:31.000Z</time>
      </trkpt>
      <trkpt lat="42.927157" lon="0.77339">
        <ele>1301.4</ele>
        <time>1970-01-01T10:25:40.000Z</time>
      </trkpt>
      <trkpt lat="42.926948" lon="0.773286">
        <ele>1302.4</ele>
        <time>1970-01-01T10:25:51.000Z</time>
      </trkpt>
      <trkpt lat="42.92666" lon="0.773031">
        <ele>1303.6</ele>
        <time>1970-01-01T10:26:06.000Z</time>
      </trkpt>
      <trkpt lat="42.926451" lon="0.772866">
        <ele>1304.6</ele>
        <time>1970-01-01T10:26:17.000Z</time>
      </trkpt>
      <trkpt lat="42.926316" lon="0.772761">
        <ele>1305.8</ele>
        <time>1970-01-01T10:26:25.000Z</time>
      </trkpt>
      <trkpt lat="42.92617" lon="0.772659">
        <ele>1306.8</ele>
        <time>1970-01-01T10:26:34.000Z</time>
      </trkpt>
      <trkpt lat="42.926163" lon="0.772657">
        <ele>1307.4</ele>
        <time>1970-01-01T10:26:37.000Z</time>
      </trkpt>
      <trkpt lat="42.926136" lon="0.772616">
        <ele>1307.2</ele>
        <time>1970-01-01T10:28:41.000Z</time>
      </trkpt>
      <trkpt lat="42.926032" lon="0.772487">
        <ele>1308.4</ele>
        <time>1970-01-01T10:28:53.000Z</time>
      </trkpt>
      <trkpt lat="42.926022" lon="0.772466">
        <ele>1308.6</ele>
        <time>1970-01-01T10:28:55.000Z</time>
      </trkpt>
      <trkpt lat="42.925942" lon="0.772337">
        <ele>1309.4</ele>
        <time>1970-01-01T10:29:07.000Z</time>
      </trkpt>
      <trkpt lat="42.92582" lon="0.772212">
        <ele>1310.6</ele>
        <time>1970-01-01T10:29:21.000Z</time>
      </trkpt>
      <trkpt lat="42.925701" lon="0.772074">
        <ele>1311</ele>
        <time>1970-01-01T10:29:37.000Z</time>
      </trkpt>
      <trkpt lat="42.925669" lon="0.771969">
        <ele>1311.8</ele>
        <time>1970-01-01T10:30:31.000Z</time>
      </trkpt>
      <trkpt lat="42.925604" lon="0.771847">
        <ele>1312.4</ele>
        <time>1970-01-01T10:30:37.000Z</time>
      </trkpt>
      <trkpt lat="42.925559" lon="0.771752">
        <ele>1313.2</ele>
        <time>1970-01-01T10:30:41.000Z</time>
      </trkpt>
      <trkpt lat="42.925471" lon="0.771562">
        <ele>1314.2</ele>
        <time>1970-01-01T10:30:50.000Z</time>
      </trkpt>
      <trkpt lat="42.925302" lon="0.771314">
        <ele>1315.4</ele>
        <time>1970-01-01T10:31:02.000Z</time>
      </trkpt>
      <trkpt lat="42.925189" lon="0.771202">
        <ele>1316.6</ele>
        <time>1970-01-01T10:31:09.000Z</time>
      </trkpt>
      <trkpt lat="42.925052" lon="0.77112">
        <ele>1317.4</ele>
        <time>1970-01-01T10:31:20.000Z</time>
      </trkpt>
      <trkpt lat="42.925005" lon="0.771084">
        <ele>1317.8</ele>
        <time>1970-01-01T10:31:26.000Z</time>
      </trkpt>
      <trkpt lat="42.924804" lon="0.770939">
        <ele>1319</ele>
        <time>1970-01-01T10:31:39.000Z</time>
      </trkpt>
      <trkpt lat="42.924649" lon="0.770804">
        <ele>1320</ele>
        <time>1970-01-01T10:31:49.000Z</time>
      </trkpt>
      <trkpt lat="42.924522" lon="0.770727">
        <ele>1321</ele>
        <time>1970-01-01T10:31:56.000Z</time>
      </trkpt>
      <trkpt lat="42.924397" lon="0.770645">
        <ele>1322.4</ele>
        <time>1970-01-01T10:32:03.000Z</time>
      </trkpt>
      <trkpt lat="42.924192" lon="0.770549">
        <ele>1323.4</ele>
        <time>1970-01-01T10:32:13.000Z</time>
      </trkpt>
      <trkpt lat="42.924043" lon="0.770516">
        <ele>1324.6</ele>
        <time>1970-01-01T10:32:20.000Z</time>
      </trkpt>
      <trkpt lat="42.923839" lon="0.770495">
        <ele>1325.6</ele>
        <time>1970-01-01T10:32:29.000Z</time>
      </trkpt>
      <trkpt lat="42.923609" lon="0.770477">
        <ele>1327</ele>
        <time>1970-01-01T10:32:40.000Z</time>
      </trkpt>
      <trkpt lat="42.923425" lon="0.770512">
        <ele>1328</ele>
        <time>1970-01-01T10:32:48.000Z</time>
      </trkpt>
      <trkpt lat="42.923027" lon="0.770354">
        <ele>1329</ele>
        <time>1970-01-01T10:33:05.000Z</time>
      </trkpt>
      <trkpt lat="42.922764" lon="0.77">
        <ele>1330</ele>
        <time>1970-01-01T10:33:18.000Z</time>
      </trkpt>
      <trkpt lat="42.92266" lon="0.769797">
        <ele>1331.2</ele>
        <time>1970-01-01T10:33:25.000Z</time>
      </trkpt>
      <trkpt lat="42.922568" lon="0.769526">
        <ele>1332.2</ele>
        <time>1970-01-01T10:33:34.000Z</time>
      </trkpt>
      <trkpt lat="42.922431" lon="0.769094">
        <ele>1333.2</ele>
        <time>1970-01-01T10:33:49.000Z</time>
      </trkpt>
      <trkpt lat="42.92237" lon="0.768855">
        <ele>1334.4</ele>
        <time>1970-01-01T10:33:57.000Z</time>
      </trkpt>
      <trkpt lat="42.922282" lon="0.768546">
        <ele>1335.4</ele>
        <time>1970-01-01T10:34:07.000Z</time>
      </trkpt>
      <trkpt lat="42.9222" lon="0.768296">
        <ele>1336.2</ele>
        <time>1970-01-01T10:34:15.000Z</time>
      </trkpt>
      <trkpt lat="42.922126" lon="0.767972">
        <ele>1337.4</ele>
        <time>1970-01-01T10:34:25.000Z</time>
      </trkpt>
      <trkpt lat="42.922098" lon="0.767742">
        <ele>1338.4</ele>
        <time>1970-01-01T10:34:32.000Z</time>
      </trkpt>
      <trkpt lat="42.922089" lon="0.767479">
        <ele>1339.4</ele>
        <time>1970-01-01T10:34:40.000Z</time>
      </trkpt>
      <trkpt lat="42.922087" lon="0.76724">
        <ele>1340.4</ele>
        <time>1970-01-01T10:34:48.000Z</time>
      </trkpt>
      <trkpt lat="42.922044" lon="0.766922">
        <ele>1341.4</ele>
        <time>1970-01-01T10:34:59.000Z</time>
      </trkpt>
      <trkpt lat="42.922042" lon="0.766512">
        <ele>1342.4</ele>
        <time>1970-01-01T10:35:11.000Z</time>
      </trkpt>
      <trkpt lat="42.922033" lon="0.766276">
        <ele>1343.4</ele>
        <time>1970-01-01T10:35:18.000Z</time>
      </trkpt>
      <trkpt lat="42.922032" lon="0.766057">
        <ele>1344.6</ele>
        <time>1970-01-01T10:35:25.000Z</time>
      </trkpt>
      <trkpt lat="42.922003" lon="0.765789">
        <ele>1345.6</ele>
        <time>1970-01-01T10:35:34.000Z</time>
      </trkpt>
      <trkpt lat="42.921934" lon="0.765494">
        <ele>1346.8</ele>
        <time>1970-01-01T10:35:44.000Z</time>
      </trkpt>
      <trkpt lat="42.921791" lon="0.765051">
        <ele>1348</ele>
        <time>1970-01-01T10:35:59.000Z</time>
      </trkpt>
      <trkpt lat="42.92161" lon="0.76487">
        <ele>1349</ele>
        <time>1970-01-01T10:36:09.000Z</time>
      </trkpt>
      <trkpt lat="42.921455" lon="0.764573">
        <ele>1349.8</ele>
        <time>1970-01-01T10:36:20.000Z</time>
      </trkpt>
      <trkpt lat="42.921302" lon="0.764196">
        <ele>1351</ele>
        <time>1970-01-01T10:36:32.000Z</time>
      </trkpt>
      <trkpt lat="42.921219" lon="0.763996">
        <ele>1352.2</ele>
        <time>1970-01-01T10:36:38.000Z</time>
      </trkpt>
      <trkpt lat="42.92116" lon="0.763816">
        <ele>1352.8</ele>
        <time>1970-01-01T10:36:43.000Z</time>
      </trkpt>
      <trkpt lat="42.92113" lon="0.763715">
        <ele>1353</ele>
        <time>1970-01-01T10:36:46.000Z</time>
      </trkpt>
      <trkpt lat="42.921015" lon="0.763392">
        <ele>1354</ele>
        <time>1970-01-01T10:36:55.000Z</time>
      </trkpt>
      <trkpt lat="42.920967" lon="0.763171">
        <ele>1355</ele>
        <time>1970-01-01T10:37:01.000Z</time>
      </trkpt>
      <trkpt lat="42.920874" lon="0.762869">
        <ele>1355.8</ele>
        <time>1970-01-01T10:37:10.000Z</time>
      </trkpt>
      <trkpt lat="42.92069" lon="0.762604">
        <ele>1357</ele>
        <time>1970-01-01T10:37:21.000Z</time>
      </trkpt>
      <trkpt lat="42.920383" lon="0.762357">
        <ele>1358</ele>
        <time>1970-01-01T10:37:35.000Z</time>
      </trkpt>
      <trkpt lat="42.920148" lon="0.762113">
        <ele>1359.2</ele>
        <time>1970-01-01T10:37:45.000Z</time>
      </trkpt>
      <trkpt lat="42.919897" lon="0.761929">
        <ele>1360.4</ele>
        <time>1970-01-01T10:37:55.000Z</time>
      </trkpt>
      <trkpt lat="42.919725" lon="0.761848">
        <ele>1362</ele>
        <time>1970-01-01T10:38:03.000Z</time>
      </trkpt>
      <trkpt lat="42.91966" lon="0.761818">
        <ele>1363</ele>
        <time>1970-01-01T10:38:06.000Z</time>
      </trkpt>
      <trkpt lat="42.919382" lon="0.761787">
        <ele>1363.4</ele>
        <time>1970-01-01T10:38:18.000Z</time>
      </trkpt>
      <trkpt lat="42.919237" lon="0.761778">
        <ele>1363.2</ele>
        <time>1970-01-01T10:38:28.000Z</time>
      </trkpt>
      <trkpt lat="42.919213" lon="0.761793">
        <ele>1363.4</ele>
        <time>1970-01-01T10:38:42.000Z</time>
      </trkpt>
      <trkpt lat="42.919017" lon="0.761896">
        <ele>1364</ele>
        <time>1970-01-01T10:38:53.000Z</time>
      </trkpt>
      <trkpt lat="42.918952" lon="0.761939">
        <ele>1364.4</ele>
        <time>1970-01-01T10:38:58.000Z</time>
      </trkpt>
      <trkpt lat="42.918942" lon="0.761951">
        <ele>1364.6</ele>
        <time>1970-01-01T10:39:01.000Z</time>
      </trkpt>
      <trkpt lat="42.919163" lon="0.761691">
        <ele>1354.4</ele>
        <time>1970-01-01T00:00:00.000Z</time>
      </trkpt>
      <trkpt lat="42.919163" lon="0.761692">
        <ele>1353.8</ele>
        <time>1970-01-01T00:00:01.000Z</time>
      </trkpt>
      <trkpt lat="42.919126" lon="0.761749">
        <ele>1353.2</ele>
        <time>1970-01-01T00:00:14.000Z</time>
      </trkpt>
      <trkpt lat="42.919012" lon="0.761979">
        <ele>1354.2</ele>
        <time>1970-01-01T00:00:25.000Z</time>
      </trkpt>
      <trkpt lat="42.918958" lon="0.762129">
        <ele>1355.2</ele>
        <time>1970-01-01T00:00:32.000Z</time>
      </trkpt>
      <trkpt lat="42.918929" lon="0.762273">
        <ele>1356.4</ele>
        <time>1970-01-01T00:00:38.000Z</time>
      </trkpt>
      <trkpt lat="42.918888" lon="0.762433">
        <ele>1357.4</ele>
        <time>1970-01-01T00:00:46.000Z</time>
      </trkpt>
      <trkpt lat="42.918854" lon="0.762545">
        <ele>1358.4</ele>
        <time>1970-01-01T00:00:51.000Z</time>
      </trkpt>
      <trkpt lat="42.918798" lon="0.762703">
        <ele>1359.4</ele>
        <time>1970-01-01T00:00:59.000Z</time>
      </trkpt>
      <trkpt lat="42.918753" lon="0.762882">
        <ele>1360.4</ele>
        <time>1970-01-01T00:01:07.000Z</time>
      </trkpt>
      <trkpt lat="42.918695" lon="0.763005">
        <ele>1361.4</ele>
        <time>1970-01-01T00:01:13.000Z</time>
      </trkpt>
      <trkpt lat="42.918616" lon="0.763216">
        <ele>1362.6</ele>
        <time>1970-01-01T00:01:22.000Z</time>
      </trkpt>
      <trkpt lat="42.918558" lon="0.76332">
        <ele>1363.6</ele>
        <time>1970-01-01T00:01:27.000Z</time>
      </trkpt>
      <trkpt lat="42.918444" lon="0.763492">
        <ele>1364.6</ele>
        <time>1970-01-01T00:01:36.000Z</time>
      </trkpt>
      <trkpt lat="42.918373" lon="0.763595">
        <ele>1365.8</ele>
        <time>1970-01-01T00:01:41.000Z</time>
      </trkpt>
      <trkpt lat="42.918289" lon="0.763753">
        <ele>1366.8</ele>
        <time>1970-01-01T00:01:48.000Z</time>
      </trkpt>
      <trkpt lat="42.918241" lon="0.763857">
        <ele>1368</ele>
        <time>1970-01-01T00:01:53.000Z</time>
      </trkpt>
      <trkpt lat="42.918202" lon="0.763945">
        <ele>1368.4</ele>
        <time>1970-01-01T00:01:57.000Z</time>
      </trkpt>
      <trkpt lat="42.918161" lon="0.764029">
        <ele>1369.2</ele>
        <time>1970-01-01T00:02:01.000Z</time>
      </trkpt>
      <trkpt lat="42.918103" lon="0.76412">
        <ele>1370.2</ele>
        <time>1970-01-01T00:02:06.000Z</time>
      </trkpt>
      <trkpt lat="42.918027" lon="0.764306">
        <ele>1371.2</ele>
        <time>1970-01-01T00:02:16.000Z</time>
      </trkpt>
      <trkpt lat="42.917956" lon="0.764437">
        <ele>1372.2</ele>
        <time>1970-01-01T00:02:23.000Z</time>
      </trkpt>
      <trkpt lat="42.917907" lon="0.764527">
        <ele>1373.2</ele>
        <time>1970-01-01T00:02:28.000Z</time>
      </trkpt>
      <trkpt lat="42.91789" lon="0.764565">
        <ele>1373.4</ele>
        <time>1970-01-01T00:02:30.000Z</time>
      </trkpt>
      <trkpt lat="42.91783" lon="0.764718">
        <ele>1374.2</ele>
        <time>1970-01-01T00:02:38.000Z</time>
      </trkpt>
      <trkpt lat="42.917771" lon="0.764841">
        <ele>1375.2</ele>
        <time>1970-01-01T00:02:46.000Z</time>
      </trkpt>
      <trkpt lat="42.917706" lon="0.764995">
        <ele>1376.2</ele>
        <time>1970-01-01T00:02:54.000Z</time>
      </trkpt>
      <trkpt lat="42.917644" lon="0.765142">
        <ele>1377.4</ele>
        <time>1970-01-01T00:03:01.000Z</time>
      </trkpt>
      <trkpt lat="42.917637" lon="0.765162">
        <ele>1377.6</ele>
        <time>1970-01-01T00:03:02.000Z</time>
      </trkpt>
      <trkpt lat="42.917575" lon="0.765283">
        <ele>1378.4</ele>
        <time>1970-01-01T00:03:09.000Z</time>
      </trkpt>
      <trkpt lat="42.917498" lon="0.765469">
        <ele>1379.6</ele>
        <time>1970-01-01T00:03:18.000Z</time>
      </trkpt>
      <trkpt lat="42.917458" lon="0.76561">
        <ele>1380.6</ele>
        <time>1970-01-01T00:03:24.000Z</time>
      </trkpt>
      <trkpt lat="42.917403" lon="0.76579">
        <ele>1381.6</ele>
        <time>1970-01-01T00:03:31.000Z</time>
      </trkpt>
      <trkpt lat="42.91733" lon="0.765956">
        <ele>1382.4</ele>
        <time>1970-01-01T00:03:39.000Z</time>
      </trkpt>
      <trkpt lat="42.917284" lon="0.766064">
        <ele>1383.6</ele>
        <time>1970-01-01T00:03:44.000Z</time>
      </trkpt>
      <trkpt lat="42.917222" lon="0.766193">
        <ele>1384.6</ele>
        <time>1970-01-01T00:03:50.000Z</time>
      </trkpt>
      <trkpt lat="42.917122" lon="0.7664">
        <ele>1385.4</ele>
        <time>1970-01-01T00:03:59.000Z</time>
      </trkpt>
      <trkpt lat="42.917066" lon="0.766508">
        <ele>1386.6</ele>
        <time>1970-01-01T00:04:04.000Z</time>
      </trkpt>
      <trkpt lat="42.916994" lon="0.766636">
        <ele>1387.6</ele>
        <time>1970-01-01T00:04:11.000Z</time>
      </trkpt>
      <trkpt lat="42.916916" lon="0.766735">
        <ele>1388.8</ele>
        <time>1970-01-01T00:04:17.000Z</time>
      </trkpt>
      <trkpt lat="42.916813" lon="0.766883">
        <ele>1389.8</ele>
        <time>1970-01-01T00:04:25.000Z</time>
      </trkpt>
      <trkpt lat="42.916763" lon="0.766947">
        <ele>1390.8</ele>
        <time>1970-01-01T00:04:30.000Z</time>
      </trkpt>
      <trkpt lat="42.91671" lon="0.766997">
        <ele>1391.2</ele>
        <time>1970-01-01T00:04:34.000Z</time>
      </trkpt>
      <trkpt lat="42.916648" lon="0.767065">
        <ele>1391.6</ele>
        <time>1970-01-01T00:04:38.000Z</time>
      </trkpt>
      <trkpt lat="42.916573" lon="0.767138">
        <ele>1392.8</ele>
        <time>1970-01-01T00:04:43.000Z</time>
      </trkpt>
      <trkpt lat="42.916444" lon="0.767193">
        <ele>1393.8</ele>
        <time>1970-01-01T00:04:50.000Z</time>
      </trkpt>
      <trkpt lat="42.916311" lon="0.767261">
        <ele>1394.6</ele>
        <time>1970-01-01T00:04:57.000Z</time>
      </trkpt>
      <trkpt lat="42.916214" lon="0.767289">
        <ele>1395.8</ele>
        <time>1970-01-01T00:05:02.000Z</time>
      </trkpt>
      <trkpt lat="42.916096" lon="0.767294">
        <ele>1396.8</ele>
        <time>1970-01-01T00:05:08.000Z</time>
      </trkpt>
      <trkpt lat="42.915943" lon="0.767299">
        <ele>1397.8</ele>
        <time>1970-01-01T00:05:15.000Z</time>
      </trkpt>
      <trkpt lat="42.915811" lon="0.767253">
        <ele>1399</ele>
        <time>1970-01-01T00:05:21.000Z</time>
      </trkpt>
      <trkpt lat="42.915683" lon="0.767217">
        <ele>1400</ele>
        <time>1970-01-01T00:05:27.000Z</time>
      </trkpt>
      <trkpt lat="42.915542" lon="0.767172">
        <ele>1401</ele>
        <time>1970-01-01T00:05:34.000Z</time>
      </trkpt>
      <trkpt lat="42.915425" lon="0.767121">
        <ele>1402</ele>
        <time>1970-01-01T00:05:40.000Z</time>
      </trkpt>
      <trkpt lat="42.915291" lon="0.76707">
        <ele>1403</ele>
        <time>1970-01-01T00:05:47.000Z</time>
      </trkpt>
      <trkpt lat="42.915198" lon="0.766942">
        <ele>1404</ele>
        <time>1970-01-01T00:05:54.000Z</time>
      </trkpt>
      <trkpt lat="42.91504" lon="0.76685">
        <ele>1405.4</ele>
        <time>1970-01-01T00:06:02.000Z</time>
      </trkpt>
      <trkpt lat="42.914936" lon="0.766847">
        <ele>1406.4</ele>
        <time>1970-01-01T00:06:07.000Z</time>
      </trkpt>
      <trkpt lat="42.914794" lon="0.76682">
        <ele>1407.6</ele>
        <time>1970-01-01T00:06:14.000Z</time>
      </trkpt>
      <trkpt lat="42.914648" lon="0.766798">
        <ele>1408.6</ele>
        <time>1970-01-01T00:06:21.000Z</time>
      </trkpt>
      <trkpt lat="42.914509" lon="0.766764">
        <ele>1409.8</ele>
        <time>1970-01-01T00:06:28.000Z</time>
      </trkpt>
      <trkpt lat="42.914381" lon="0.76671">
        <ele>1410.6</ele>
        <time>1970-01-01T00:06:35.000Z</time>
      </trkpt>
      <trkpt lat="42.914332" lon="0.76675">
        <ele>1410.8</ele>
        <time>1970-01-01T00:06:38.000Z</time>
      </trkpt>
      <trkpt lat="42.914307" lon="0.766792">
        <ele>1411</ele>
        <time>1970-01-01T00:06:40.000Z</time>
      </trkpt>
      <trkpt lat="42.914223" lon="0.766909">
        <ele>1411.8</ele>
        <time>1970-01-01T00:06:46.000Z</time>
      </trkpt>
      <trkpt lat="42.914095" lon="0.766933">
        <ele>1413</ele>
        <time>1970-01-01T00:06:53.000Z</time>
      </trkpt>
      <trkpt lat="42.913984" lon="0.766873">
        <ele>1414</ele>
        <time>1970-01-01T00:06:59.000Z</time>
      </trkpt>
      <trkpt lat="42.913862" lon="0.766942">
        <ele>1415</ele>
        <time>1970-01-01T00:07:06.000Z</time>
      </trkpt>
      <trkpt lat="42.913723" lon="0.767012">
        <ele>1416</ele>
        <time>1970-01-01T00:07:14.000Z</time>
      </trkpt>
      <trkpt lat="42.913666" lon="0.767052">
        <ele>1416.6</ele>
        <time>1970-01-01T00:07:18.000Z</time>
      </trkpt>
      <trkpt lat="42.913599" lon="0.767086">
        <ele>1417.2</ele>
        <time>1970-01-01T00:07:23.000Z</time>
      </trkpt>
      <trkpt lat="42.913515" lon="0.767113">
        <ele>1418.2</ele>
        <time>1970-01-01T00:07:28.000Z</time>
      </trkpt>
      <trkpt lat="42.9135" lon="0.767124">
        <ele>1418.4</ele>
        <time>1970-01-01T00:07:29.000Z</time>
      </trkpt>
      <trkpt lat="42.913391" lon="0.76724">
        <ele>1419.4</ele>
        <time>1970-01-01T00:07:37.000Z</time>
      </trkpt>
      <trkpt lat="42.913304" lon="0.767367">
        <ele>1420.6</ele>
        <time>1970-01-01T00:07:44.000Z</time>
      </trkpt>
      <trkpt lat="42.913265" lon="0.767475">
        <ele>1421.6</ele>
        <time>1970-01-01T00:07:49.000Z</time>
      </trkpt>
      <trkpt lat="42.913228" lon="0.767632">
        <ele>1422.8</ele>
        <time>1970-01-01T00:07:56.000Z</time>
      </trkpt>
      <trkpt lat="42.913213" lon="0.767834">
        <ele>1424</ele>
        <time>1970-01-01T00:08:04.000Z</time>
      </trkpt>
      <trkpt lat="42.913209" lon="0.767965">
        <ele>1425</ele>
        <time>1970-01-01T00:08:09.000Z</time>
      </trkpt>
      <trkpt lat="42.913217" lon="0.768073">
        <ele>1426</ele>
        <time>1970-01-01T00:08:14.000Z</time>
      </trkpt>
      <trkpt lat="42.913218" lon="0.768092">
        <ele>1426</ele>
        <time>1970-01-01T00:08:15.000Z</time>
      </trkpt>
      <trkpt lat="42.913202" lon="0.768195">
        <ele>1427</ele>
        <time>1970-01-01T00:08:20.000Z</time>
      </trkpt>
      <trkpt lat="42.913159" lon="0.768343">
        <ele>1428</ele>
        <time>1970-01-01T00:08:27.000Z</time>
      </trkpt>
      <trkpt lat="42.913125" lon="0.768468">
        <ele>1429</ele>
        <time>1970-01-01T00:08:33.000Z</time>
      </trkpt>
      <trkpt lat="42.913066" lon="0.768616">
        <ele>1430.2</ele>
        <time>1970-01-01T00:08:40.000Z</time>
      </trkpt>
      <trkpt lat="42.913032" lon="0.76873">
        <ele>1431.2</ele>
        <time>1970-01-01T00:08:45.000Z</time>
      </trkpt>
      <trkpt lat="42.912972" lon="0.768908">
        <ele>1432.4</ele>
        <time>1970-01-01T00:08:53.000Z</time>
      </trkpt>
      <trkpt lat="42.912903" lon="0.769019">
        <ele>1433.4</ele>
        <time>1970-01-01T00:09:00.000Z</time>
      </trkpt>
      <trkpt lat="42.912847" lon="0.769142">
        <ele>1434.6</ele>
        <time>1970-01-01T00:09:06.000Z</time>
      </trkpt>
      <trkpt lat="42.912802" lon="0.769282">
        <ele>1435.8</ele>
        <time>1970-01-01T00:09:12.000Z</time>
      </trkpt>
      <trkpt lat="42.912754" lon="0.769382">
        <ele>1436.8</ele>
        <time>1970-01-01T00:09:17.000Z</time>
      </trkpt>
      <trkpt lat="42.912668" lon="0.769501">
        <ele>1437.8</ele>
        <time>1970-01-01T00:09:24.000Z</time>
      </trkpt>
      <trkpt lat="42.912551" lon="0.769615">
        <ele>1438.8</ele>
        <time>1970-01-01T00:09:32.000Z</time>
      </trkpt>
      <trkpt lat="42.912415" lon="0.769585">
        <ele>1439.8</ele>
        <time>1970-01-01T00:09:40.000Z</time>
      </trkpt>
      <trkpt lat="42.91239" lon="0.769496">
        <ele>1441</ele>
        <time>1970-01-01T00:09:44.000Z</time>
      </trkpt>
      <trkpt lat="42.912455" lon="0.769102">
        <ele>1441.8</ele>
        <time>1970-01-01T00:09:59.000Z</time>
      </trkpt>
      <trkpt lat="42.912427" lon="0.76885">
        <ele>1442.8</ele>
        <time>1970-01-01T00:10:11.000Z</time>
      </trkpt>
      <trkpt lat="42.912358" lon="0.768616">
        <ele>1444</ele>
        <time>1970-01-01T00:10:23.000Z</time>
      </trkpt>
      <trkpt lat="42.912272" lon="0.768408">
        <ele>1445</ele>
        <time>1970-01-01T00:10:32.000Z</time>
      </trkpt>
      <trkpt lat="42.912157" lon="0.768189">
        <ele>1446.2</ele>
        <time>1970-01-01T00:10:42.000Z</time>
      </trkpt>
      <trkpt lat="42.91211" lon="0.768039">
        <ele>1447.4</ele>
        <time>1970-01-01T00:10:48.000Z</time>
      </trkpt>
      <trkpt lat="42.912035" lon="0.767845">
        <ele>1448.2</ele>
        <time>1970-01-01T00:10:56.000Z</time>
      </trkpt>
      <trkpt lat="42.911975" lon="0.767628">
        <ele>1449.2</ele>
        <time>1970-01-01T00:11:04.000Z</time>
      </trkpt>
      <trkpt lat="42.911929" lon="0.767396">
        <ele>1450.4</ele>
        <time>1970-01-01T00:11:12.000Z</time>
      </trkpt>
      <trkpt lat="42.911908" lon="0.767309">
        <ele>1450.6</ele>
        <time>1970-01-01T00:11:15.000Z</time>
      </trkpt>
      <trkpt lat="42.911841" lon="0.767042">
        <ele>1451.4</ele>
        <time>1970-01-01T00:11:24.000Z</time>
      </trkpt>
      <trkpt lat="42.911771" lon="0.76672">
        <ele>1452.2</ele>
        <time>1970-01-01T00:11:35.000Z</time>
      </trkpt>
      <trkpt lat="42.911726" lon="0.766443">
        <ele>1453.2</ele>
        <time>1970-01-01T00:11:43.000Z</time>
      </trkpt>
      <trkpt lat="42.911723" lon="0.766128">
        <ele>1454.4</ele>
        <time>1970-01-01T00:11:52.000Z</time>
      </trkpt>
      <trkpt lat="42.91151" lon="0.765493">
        <ele>1455.2</ele>
        <time>1970-01-01T00:12:13.000Z</time>
      </trkpt>
      <trkpt lat="42.911241" lon="0.765276">
        <ele>1455</ele>
        <time>1970-01-01T00:12:24.000Z</time>
      </trkpt>
      <trkpt lat="42.911237" lon="0.765276">
        <ele>1455</ele>
        <time>1970-01-01T00:12:26.000Z</time>
      </trkpt>
      <trkpt lat="42.911239" lon="0.765331">
        <ele>1455</ele>
        <time>1970-01-01T00:12:32.000Z</time>
      </trkpt>
      <trkpt lat="42.911299" lon="0.765512">
        <ele>1455.2</ele>
        <time>1970-01-01T00:12:38.000Z</time>
      </trkpt>
      <trkpt lat="42.911254" lon="0.765567">
        <ele>1455.2</ele>
        <time>1970-01-01T00:12:42.000Z</time>
      </trkpt>
      <trkpt lat="42.911249" lon="0.765575">
        <ele>1454.8</ele>
        <time>1970-01-01T00:12:44.000Z</time>
      </trkpt>
      <trkpt lat="42.911226" lon="0.765576">
        <ele>1454.6</ele>
        <time>1970-01-01T00:13:03.000Z</time>
      </trkpt>
      <trkpt lat="42.911017" lon="0.765556">
        <ele>1453</ele>
        <time>1970-01-01T00:13:07.000Z</time>
      </trkpt>
      <trkpt lat="42.910866" lon="0.765545">
        <ele>1451.2</ele>
        <time>1970-01-01T00:13:09.000Z</time>
      </trkpt>
      <trkpt lat="42.910712" lon="0.765527">
        <ele>1449.6</ele>
        <time>1970-01-01T00:13:11.000Z</time>
      </trkpt>
      <trkpt lat="42.910639" lon="0.765515">
        <ele>1448.2</ele>
        <time>1970-01-01T00:13:12.000Z</time>
      </trkpt>
      <trkpt lat="42.910567" lon="0.765505">
        <ele>1447.2</ele>
        <time>1970-01-01T00:13:13.000Z</time>
      </trkpt>
      <trkpt lat="42.910427" lon="0.765486">
        <ele>1445.8</ele>
        <time>1970-01-01T00:13:15.000Z</time>
      </trkpt>
      <trkpt lat="42.910279" lon="0.765478">
        <ele>1444.8</ele>
        <time>1970-01-01T00:13:17.000Z</time>
      </trkpt>
      <trkpt lat="42.910125" lon="0.765469">
        <ele>1443.2</ele>
        <time>1970-01-01T00:13:19.000Z</time>
      </trkpt>
      <trkpt lat="42.910048" lon="0.765452">
        <ele>1442.4</ele>
        <time>1970-01-01T00:13:20.000Z</time>
      </trkpt>
      <trkpt lat="42.909972" lon="0.76542">
        <ele>1441.8</ele>
        <time>1970-01-01T00:13:21.000Z</time>
      </trkpt>
      <trkpt lat="42.909851" lon="0.765306">
        <ele>1440.4</ele>
        <time>1970-01-01T00:13:23.000Z</time>
      </trkpt>
      <trkpt lat="42.909776" lon="0.765142">
        <ele>1439.8</ele>
        <time>1970-01-01T00:13:25.000Z</time>
      </trkpt>
      <trkpt lat="42.909741" lon="0.765057">
        <ele>1439</ele>
        <time>1970-01-01T00:13:26.000Z</time>
      </trkpt>
      <trkpt lat="42.909672" lon="0.764927">
        <ele>1437</ele>
        <time>1970-01-01T00:13:28.000Z</time>
      </trkpt>
      <trkpt lat="42.909584" lon="0.764823">
        <ele>1435.6</ele>
        <time>1970-01-01T00:13:30.000Z</time>
      </trkpt>
      <trkpt lat="42.909487" lon="0.7647">
        <ele>1434.6</ele>
        <time>1970-01-01T00:13:32.000Z</time>
      </trkpt>
      <trkpt lat="42.909439" lon="0.764637">
        <ele>1434.2</ele>
        <time>1970-01-01T00:13:33.000Z</time>
      </trkpt>
      <trkpt lat="42.909336" lon="0.764503">
        <ele>1432.8</ele>
        <time>1970-01-01T00:13:35.000Z</time>
      </trkpt>
      <trkpt lat="42.909225" lon="0.764351">
        <ele>1431.8</ele>
        <time>1970-01-01T00:13:37.000Z</time>
      </trkpt>
      <trkpt lat="42.909105" lon="0.764186">
        <ele>1430</ele>
        <time>1970-01-01T00:13:39.000Z</time>
      </trkpt>
      <trkpt lat="42.909065" lon="0.7641">
        <ele>1429</ele>
        <time>1970-01-01T00:13:40.000Z</time>
      </trkpt>
      <trkpt lat="42.909046" lon="0.763943">
        <ele>1427.8</ele>
        <time>1970-01-01T00:13:42.000Z</time>
      </trkpt>
      <trkpt lat="42.908988" lon="0.763627">
        <ele>1426.6</ele>
        <time>1970-01-01T00:13:46.000Z</time>
      </trkpt>
      <trkpt lat="42.908963" lon="0.763459">
        <ele>1426</ele>
        <time>1970-01-01T00:13:48.000Z</time>
      </trkpt>
      <trkpt lat="42.908971" lon="0.763295">
        <ele>1425.6</ele>
        <time>1970-01-01T00:13:50.000Z</time>
      </trkpt>
      <trkpt lat="42.909044" lon="0.762568">
        <ele>1425.6</ele>
        <time>1970-01-01T00:14:08.000Z</time>
      </trkpt>
      <trkpt lat="42.908895" lon="0.76185">
        <ele>1426.2</ele>
        <time>1970-01-01T00:14:28.000Z</time>
      </trkpt>
      <trkpt lat="42.908895" lon="0.761752">
        <ele>1426.8</ele>
        <time>1970-01-01T00:14:31.000Z</time>
      </trkpt>
      <trkpt lat="42.908868" lon="0.761552">
        <ele>1428</ele>
        <time>1970-01-01T00:14:37.000Z</time>
      </trkpt>
      <trkpt lat="42.908858" lon="0.761529">
        <ele>1428.2</ele>
        <time>1970-01-01T00:14:38.000Z</time>
      </trkpt>
      <trkpt lat="42.908797" lon="0.761438">
        <ele>1429</ele>
        <time>1970-01-01T00:14:42.000Z</time>
      </trkpt>
      <trkpt lat="42.908746" lon="0.761338">
        <ele>1430.4</ele>
        <time>1970-01-01T00:14:46.000Z</time>
      </trkpt>
      <trkpt lat="42.908723" lon="0.761225">
        <ele>1431.6</ele>
        <time>1970-01-01T00:14:50.000Z</time>
      </trkpt>
      <trkpt lat="42.908713" lon="0.761148">
        <ele>1432.6</ele>
        <time>1970-01-01T00:14:53.000Z</time>
      </trkpt>
      <trkpt lat="42.908711" lon="0.761033">
        <ele>1433.6</ele>
        <time>1970-01-01T00:14:58.000Z</time>
      </trkpt>
      <trkpt lat="42.90867" lon="0.76086">
        <ele>1434.8</ele>
        <time>1970-01-01T00:15:05.000Z</time>
      </trkpt>
      <trkpt lat="42.90864" lon="0.760769">
        <ele>1435.6</ele>
        <time>1970-01-01T00:15:09.000Z</time>
      </trkpt>
      <trkpt lat="42.908614" lon="0.760685">
        <ele>1437</ele>
        <time>1970-01-01T00:15:13.000Z</time>
      </trkpt>
      <trkpt lat="42.908592" lon="0.760639">
        <ele>1437.6</ele>
        <time>1970-01-01T00:15:16.000Z</time>
      </trkpt>
      <trkpt lat="42.908579" lon="0.760605">
        <ele>1438.2</ele>
        <time>1970-01-01T00:15:18.000Z</time>
      </trkpt>
      <trkpt lat="42.908527" lon="0.760517">
        <ele>1439.4</ele>
        <time>1970-01-01T00:15:23.000Z</time>
      </trkpt>
      <trkpt lat="42.908487" lon="0.76044">
        <ele>1440.4</ele>
        <time>1970-01-01T00:15:27.000Z</time>
      </trkpt>
      <trkpt lat="42.908474" lon="0.76038">
        <ele>1440.8</ele>
        <time>1970-01-01T00:15:30.000Z</time>
      </trkpt>
      <trkpt lat="42.908469" lon="0.760337">
        <ele>1441.2</ele>
        <time>1970-01-01T00:15:32.000Z</time>
      </trkpt>
      <trkpt lat="42.90847" lon="0.760247">
        <ele>1442.4</ele>
        <time>1970-01-01T00:15:36.000Z</time>
      </trkpt>
      <trkpt lat="42.90846" lon="0.760169">
        <ele>1443.4</ele>
        <time>1970-01-01T00:15:40.000Z</time>
      </trkpt>
      <trkpt lat="42.908438" lon="0.760082">
        <ele>1443.6</ele>
        <time>1970-01-01T00:15:44.000Z</time>
      </trkpt>
      <trkpt lat="42.908344" lon="0.759928">
        <ele>1444.4</ele>
        <time>1970-01-01T00:15:52.000Z</time>
      </trkpt>
      <trkpt lat="42.908258" lon="0.759795">
        <ele>1445.4</ele>
        <time>1970-01-01T00:15:59.000Z</time>
      </trkpt>
      <trkpt lat="42.908008" lon="0.759412">
        <ele>1444</ele>
        <time>1970-01-01T00:16:19.000Z</time>
      </trkpt>
      <trkpt lat="42.907953" lon="0.75933">
        <ele>1443</ele>
        <time>1970-01-01T00:16:22.000Z</time>
      </trkpt>
      <trkpt lat="42.907885" lon="0.759239">
        <ele>1441.8</ele>
        <time>1970-01-01T00:16:25.000Z</time>
      </trkpt>
      <trkpt lat="42.90761" lon="0.758818">
        <ele>1441</ele>
        <time>1970-01-01T00:16:39.000Z</time>
      </trkpt>
      <trkpt lat="42.907526" lon="0.758778">
        <ele>1440.4</ele>
        <time>1970-01-01T00:16:41.000Z</time>
      </trkpt>
      <trkpt lat="42.907388" lon="0.758672">
        <ele>1439.8</ele>
        <time>1970-01-01T00:16:45.000Z</time>
      </trkpt>
      <trkpt lat="42.906975" lon="0.758197">
        <ele>1440.4</ele>
        <time>1970-01-01T00:17:07.000Z</time>
      </trkpt>
      <trkpt lat="42.906865" lon="0.758102">
        <ele>1440.2</ele>
        <time>1970-01-01T00:17:10.000Z</time>
      </trkpt>
      <trkpt lat="42.906761" lon="0.757916">
        <ele>1440.4</ele>
        <time>1970-01-01T00:17:15.000Z</time>
      </trkpt>
      <trkpt lat="42.906753" lon="0.757785">
        <ele>1441.4</ele>
        <time>1970-01-01T00:17:20.000Z</time>
      </trkpt>
      <trkpt lat="42.906735" lon="0.757643">
        <ele>1441.8</ele>
        <time>1970-01-01T00:17:24.000Z</time>
      </trkpt>
      <trkpt lat="42.906657" lon="0.757479">
        <ele>1442.4</ele>
        <time>1970-01-01T00:17:29.000Z</time>
      </trkpt>
      <trkpt lat="42.90649" lon="0.7573">
        <ele>1443.4</ele>
        <time>1970-01-01T00:17:37.000Z</time>
      </trkpt>
      <trkpt lat="42.906368" lon="0.757138">
        <ele>1443.2</ele>
        <time>1970-01-01T00:17:42.000Z</time>
      </trkpt>
      <trkpt lat="42.906217" lon="0.756858">
        <ele>1442</ele>
        <time>1970-01-01T00:17:47.000Z</time>
      </trkpt>
      <trkpt lat="42.906096" lon="0.756646">
        <ele>1440.8</ele>
        <time>1970-01-01T00:17:50.000Z</time>
      </trkpt>
      <trkpt lat="42.905954" lon="0.756415">
        <ele>1439.6</ele>
        <time>1970-01-01T00:17:53.000Z</time>
      </trkpt>
      <trkpt lat="42.905721" lon="0.756045">
        <ele>1438.2</ele>
        <time>1970-01-01T00:17:58.000Z</time>
      </trkpt>
      <trkpt lat="42.905539" lon="0.755755">
        <ele>1437.2</ele>
        <time>1970-01-01T00:18:02.000Z</time>
      </trkpt>
      <trkpt lat="42.905335" lon="0.755457">
        <ele>1436</ele>
        <time>1970-01-01T00:18:06.000Z</time>
      </trkpt>
      <trkpt lat="42.905163" lon="0.755198">
        <ele>1434.8</ele>
        <time>1970-01-01T00:18:09.000Z</time>
      </trkpt>
      <trkpt lat="42.905036" lon="0.755033">
        <ele>1433.8</ele>
        <time>1970-01-01T00:18:11.000Z</time>
      </trkpt>
      <trkpt lat="42.904786" lon="0.754744">
        <ele>1432.8</ele>
        <time>1970-01-01T00:18:15.000Z</time>
      </trkpt>
      <trkpt lat="42.904553" lon="0.754507">
        <ele>1432</ele>
        <time>1970-01-01T00:18:19.000Z</time>
      </trkpt>
      <trkpt lat="42.904487" lon="0.754452">
        <ele>1431.6</ele>
        <time>1970-01-01T00:18:20.000Z</time>
      </trkpt>
      <trkpt lat="42.904281" lon="0.75427">
        <ele>1430</ele>
        <time>1970-01-01T00:18:23.000Z</time>
      </trkpt>
      <trkpt lat="42.904218" lon="0.754214">
        <ele>1429</ele>
        <time>1970-01-01T00:18:24.000Z</time>
      </trkpt>
      <trkpt lat="42.90416" lon="0.754157">
        <ele>1427.8</ele>
        <time>1970-01-01T00:18:25.000Z</time>
      </trkpt>
      <trkpt lat="42.904025" lon="0.754042">
        <ele>1426.4</ele>
        <time>1970-01-01T00:18:27.000Z</time>
      </trkpt>
      <trkpt lat="42.90387" lon="0.753908">
        <ele>1424.4</ele>
        <time>1970-01-01T00:18:29.000Z</time>
      </trkpt>
      <trkpt lat="42.903785" lon="0.753838">
        <ele>1423</ele>
        <time>1970-01-01T00:18:30.000Z</time>
      </trkpt>
      <trkpt lat="42.903645" lon="0.753695">
        <ele>1421</ele>
        <time>1970-01-01T00:18:32.000Z</time>
      </trkpt>
      <trkpt lat="42.903596" lon="0.753626">
        <ele>1419.4</ele>
        <time>1970-01-01T00:18:33.000Z</time>
      </trkpt>
      <trkpt lat="42.903558" lon="0.753558">
        <ele>1418.2</ele>
        <time>1970-01-01T00:18:34.000Z</time>
      </trkpt>
      <trkpt lat="42.903505" lon="0.753457">
        <ele>1416.6</ele>
        <time>1970-01-01T00:18:36.000Z</time>
      </trkpt>
      <trkpt lat="42.903478" lon="0.753388">
        <ele>1415.6</ele>
        <time>1970-01-01T00:18:38.000Z</time>
      </trkpt>
      <trkpt lat="42.903472" lon="0.753294">
        <ele>1414.6</ele>
        <time>1970-01-01T00:18:41.000Z</time>
      </trkpt>
      <trkpt lat="42.903504" lon="0.753204">
        <ele>1414.8</ele>
        <time>1970-01-01T00:18:46.000Z</time>
      </trkpt>
      <trkpt lat="42.903533" lon="0.75319">
        <ele>1415</ele>
        <time>1970-01-01T00:19:14.000Z</time>
      </trkpt>
      <trkpt lat="42.903542" lon="0.753043">
        <ele>1415.6</ele>
        <time>1970-01-01T00:19:19.000Z</time>
      </trkpt>
      <trkpt lat="42.903559" lon="0.752923">
        <ele>1415.8</ele>
        <time>1970-01-01T00:19:23.000Z</time>
      </trkpt>
      <trkpt lat="42.90363" lon="0.752836">
        <ele>1415.6</ele>
        <time>1970-01-01T00:19:33.000Z</time>
      </trkpt>
      <trkpt lat="42.903616" lon="0.752931">
        <ele>1415.6</ele>
        <time>1970-01-01T00:19:38.000Z</time>
      </trkpt>
      <trkpt lat="42.903605" lon="0.752985">
        <ele>1415.4</ele>
        <time>1970-01-01T00:19:42.000Z</time>
      </trkpt>
      <trkpt lat="42.903575" lon="0.752969">
        <ele>1415</ele>
        <time>1970-01-01T00:21:13.000Z</time>
      </trkpt>
      <trkpt lat="42.903609" lon="0.752776">
        <ele>1415.4</ele>
        <time>1970-01-01T00:21:18.000Z</time>
      </trkpt>
      <trkpt lat="42.903693" lon="0.752381">
        <ele>1416</ele>
        <time>1970-01-01T00:21:27.000Z</time>
      </trkpt>
      <trkpt lat="42.903738" lon="0.751907">
        <ele>1417</ele>
        <time>1970-01-01T00:21:38.000Z</time>
      </trkpt>
      <trkpt lat="42.903822" lon="0.751531">
        <ele>1417.2</ele>
        <time>1970-01-01T00:21:47.000Z</time>
      </trkpt>
      <trkpt lat="42.903813" lon="0.750753">
        <ele>1416</ele>
        <time>1970-01-01T00:22:02.000Z</time>
      </trkpt>
      <trkpt lat="42.90378" lon="0.750603">
        <ele>1415.8</ele>
        <time>1970-01-01T00:22:04.000Z</time>
      </trkpt>
      <trkpt lat="42.903743" lon="0.750521">
        <ele>1415.4</ele>
        <time>1970-01-01T00:22:05.000Z</time>
      </trkpt>
      <trkpt lat="42.903652" lon="0.750253">
        <ele>1414</ele>
        <time>1970-01-01T00:22:08.000Z</time>
      </trkpt>
      <trkpt lat="42.903575" lon="0.750071">
        <ele>1412.8</ele>
        <time>1970-01-01T00:22:10.000Z</time>
      </trkpt>
      <trkpt lat="42.903495" lon="0.74989">
        <ele>1411.8</ele>
        <time>1970-01-01T00:22:12.000Z</time>
      </trkpt>
      <trkpt lat="42.903358" lon="0.74958">
        <ele>1410.6</ele>
        <time>1970-01-01T00:22:15.000Z</time>
      </trkpt>
      <trkpt lat="42.903168" lon="0.749135">
        <ele>1409.4</ele>
        <time>1970-01-01T00:22:20.000Z</time>
      </trkpt>
      <trkpt lat="42.903149" lon="0.74905">
        <ele>1409.4</ele>
        <time>1970-01-01T00:22:21.000Z</time>
      </trkpt>
      <trkpt lat="42.903057" lon="0.748495">
        <ele>1410.4</ele>
        <time>1970-01-01T00:22:31.000Z</time>
      </trkpt>
      <trkpt lat="42.903078" lon="0.748279">
        <ele>1410.4</ele>
        <time>1970-01-01T00:22:35.000Z</time>
      </trkpt>
      <trkpt lat="42.903215" lon="0.748051">
        <ele>1410</ele>
        <time>1970-01-01T00:22:40.000Z</time>
      </trkpt>
      <trkpt lat="42.903522" lon="0.747576">
        <ele>1411</ele>
        <time>1970-01-01T00:22:54.000Z</time>
      </trkpt>
      <trkpt lat="42.903591" lon="0.747478">
        <ele>1412.2</ele>
        <time>1970-01-01T00:22:59.000Z</time>
      </trkpt>
      <trkpt lat="42.903784" lon="0.746974">
        <ele>1410.8</ele>
        <time>1970-01-01T00:23:13.000Z</time>
      </trkpt>
      <trkpt lat="42.90382" lon="0.746806">
        <ele>1409.4</ele>
        <time>1970-01-01T00:23:15.000Z</time>
      </trkpt>
      <trkpt lat="42.903826" lon="0.74661">
        <ele>1408.2</ele>
        <time>1970-01-01T00:23:17.000Z</time>
      </trkpt>
      <trkpt lat="42.903823" lon="0.746396">
        <ele>1407.2</ele>
        <time>1970-01-01T00:23:19.000Z</time>
      </trkpt>
      <trkpt lat="42.903808" lon="0.746159">
        <ele>1406</ele>
        <time>1970-01-01T00:23:21.000Z</time>
      </trkpt>
      <trkpt lat="42.903791" lon="0.745915">
        <ele>1404.8</ele>
        <time>1970-01-01T00:23:23.000Z</time>
      </trkpt>
      <trkpt lat="42.903772" lon="0.745679">
        <ele>1403.4</ele>
        <time>1970-01-01T00:23:25.000Z</time>
      </trkpt>
      <trkpt lat="42.903759" lon="0.745455">
        <ele>1402.2</ele>
        <time>1970-01-01T00:23:27.000Z</time>
      </trkpt>
      <trkpt lat="42.903748" lon="0.745237">
        <ele>1401</ele>
        <time>1970-01-01T00:23:29.000Z</time>
      </trkpt>
      <trkpt lat="42.903739" lon="0.745011">
        <ele>1399.4</ele>
        <time>1970-01-01T00:23:31.000Z</time>
      </trkpt>
      <trkpt lat="42.903733" lon="0.744764">
        <ele>1398</ele>
        <time>1970-01-01T00:23:33.000Z</time>
      </trkpt>
      <trkpt lat="42.903734" lon="0.744534">
        <ele>1396.8</ele>
        <time>1970-01-01T00:23:35.000Z</time>
      </trkpt>
      <trkpt lat="42.903744" lon="0.744296">
        <ele>1394.6</ele>
        <time>1970-01-01T00:23:37.000Z</time>
      </trkpt>
      <trkpt lat="42.903747" lon="0.744184">
        <ele>1393.6</ele>
        <time>1970-01-01T00:23:38.000Z</time>
      </trkpt>
      <trkpt lat="42.903744" lon="0.743709">
        <ele>1392.4</ele>
        <time>1970-01-01T00:23:43.000Z</time>
      </trkpt>
      <trkpt lat="42.903695" lon="0.743472">
        <ele>1392.4</ele>
        <time>1970-01-01T00:23:46.000Z</time>
      </trkpt>
      <trkpt lat="42.903606" lon="0.743124">
        <ele>1390.8</ele>
        <time>1970-01-01T00:23:50.000Z</time>
      </trkpt>
      <trkpt lat="42.903504" lon="0.742839">
        <ele>1389.6</ele>
        <time>1970-01-01T00:23:53.000Z</time>
      </trkpt>
      <trkpt lat="42.903405" lon="0.742556">
        <ele>1388</ele>
        <time>1970-01-01T00:23:56.000Z</time>
      </trkpt>
      <trkpt lat="42.903313" lon="0.742278">
        <ele>1386.4</ele>
        <time>1970-01-01T00:23:59.000Z</time>
      </trkpt>
      <trkpt lat="42.903186" lon="0.741896">
        <ele>1385.2</ele>
        <time>1970-01-01T00:24:03.000Z</time>
      </trkpt>
      <trkpt lat="42.903108" lon="0.74159">
        <ele>1383.8</ele>
        <time>1970-01-01T00:24:06.000Z</time>
      </trkpt>
      <trkpt lat="42.903075" lon="0.741378">
        <ele>1382.4</ele>
        <time>1970-01-01T00:24:08.000Z</time>
      </trkpt>
      <trkpt lat="42.903039" lon="0.741041">
        <ele>1381.2</ele>
        <time>1970-01-01T00:24:11.000Z</time>
      </trkpt>
      <trkpt lat="42.90301" lon="0.740486">
        <ele>1379.8</ele>
        <time>1970-01-01T00:24:16.000Z</time>
      </trkpt>
      <trkpt lat="42.903008" lon="0.740167">
        <ele>1378.6</ele>
        <time>1970-01-01T00:24:19.000Z</time>
      </trkpt>
      <trkpt lat="42.903014" lon="0.739981">
        <ele>1377.4</ele>
        <time>1970-01-01T00:24:21.000Z</time>
      </trkpt>
      <trkpt lat="42.903012" lon="0.739903">
        <ele>1377.2</ele>
        <time>1970-01-01T00:24:22.000Z</time>
      </trkpt>
      <trkpt lat="42.903015" lon="0.739746">
        <ele>1376.4</ele>
        <time>1970-01-01T00:24:24.000Z</time>
      </trkpt>
      <trkpt lat="42.903017" lon="0.739616">
        <ele>1375</ele>
        <time>1970-01-01T00:24:26.000Z</time>
      </trkpt>
      <trkpt lat="42.903203" lon="0.738918">
        <ele>1374.2</ele>
        <time>1970-01-01T00:24:45.000Z</time>
      </trkpt>
      <trkpt lat="42.903212" lon="0.738861">
        <ele>1374</ele>
        <time>1970-01-01T00:24:46.000Z</time>
      </trkpt>
      <trkpt lat="42.903215" lon="0.738754">
        <ele>1373.6</ele>
        <time>1970-01-01T00:24:48.000Z</time>
      </trkpt>
      <trkpt lat="42.903241" lon="0.738503">
        <ele>1372.4</ele>
        <time>1970-01-01T00:24:52.000Z</time>
      </trkpt>
      <trkpt lat="42.903258" lon="0.73812">
        <ele>1371.2</ele>
        <time>1970-01-01T00:24:56.000Z</time>
      </trkpt>
      <trkpt lat="42.903265" lon="0.737877">
        <ele>1370.2</ele>
        <time>1970-01-01T00:24:58.000Z</time>
      </trkpt>
      <trkpt lat="42.90326" lon="0.737625">
        <ele>1368.6</ele>
        <time>1970-01-01T00:25:00.000Z</time>
      </trkpt>
      <trkpt lat="42.903257" lon="0.737332">
        <ele>1367.2</ele>
        <time>1970-01-01T00:25:02.000Z</time>
      </trkpt>
      <trkpt lat="42.903248" lon="0.737013">
        <ele>1365.6</ele>
        <time>1970-01-01T00:25:04.000Z</time>
      </trkpt>
      <trkpt lat="42.903246" lon="0.736712">
        <ele>1363.2</ele>
        <time>1970-01-01T00:25:06.000Z</time>
      </trkpt>
      <trkpt lat="42.903265" lon="0.736412">
        <ele>1361.2</ele>
        <time>1970-01-01T00:25:08.000Z</time>
      </trkpt>
      <trkpt lat="42.90328" lon="0.736284">
        <ele>1359.6</ele>
        <time>1970-01-01T00:25:09.000Z</time>
      </trkpt>
      <trkpt lat="42.90332" lon="0.736052">
        <ele>1357.8</ele>
        <time>1970-01-01T00:25:11.000Z</time>
      </trkpt>
      <trkpt lat="42.903336" lon="0.735958">
        <ele>1356.4</ele>
        <time>1970-01-01T00:25:12.000Z</time>
      </trkpt>
      <trkpt lat="42.903346" lon="0.735864">
        <ele>1355.2</ele>
        <time>1970-01-01T00:25:13.000Z</time>
      </trkpt>
      <trkpt lat="42.90331" lon="0.7356">
        <ele>1354</ele>
        <time>1970-01-01T00:25:16.000Z</time>
      </trkpt>
      <trkpt lat="42.903288" lon="0.735506">
        <ele>1354</ele>
        <time>1970-01-01T00:25:17.000Z</time>
      </trkpt>
      <trkpt lat="42.903226" lon="0.735316">
        <ele>1353.2</ele>
        <time>1970-01-01T00:25:19.000Z</time>
      </trkpt>
      <trkpt lat="42.903187" lon="0.73522">
        <ele>1352.8</ele>
        <time>1970-01-01T00:25:20.000Z</time>
      </trkpt>
      <trkpt lat="42.903051" lon="0.734921">
        <ele>1351.4</ele>
        <time>1970-01-01T00:25:23.000Z</time>
      </trkpt>
      <trkpt lat="42.902861" lon="0.734663">
        <ele>1350.4</ele>
        <time>1970-01-01T00:25:26.000Z</time>
      </trkpt>
      <trkpt lat="42.902637" lon="0.734358">
        <ele>1349</ele>
        <time>1970-01-01T00:25:30.000Z</time>
      </trkpt>
      <trkpt lat="42.902469" lon="0.734072">
        <ele>1347.6</ele>
        <time>1970-01-01T00:25:33.000Z</time>
      </trkpt>
      <trkpt lat="42.902333" lon="0.733886">
        <ele>1346.2</ele>
        <time>1970-01-01T00:25:35.000Z</time>
      </trkpt>
      <trkpt lat="42.902139" lon="0.733613">
        <ele>1344.8</ele>
        <time>1970-01-01T00:25:38.000Z</time>
      </trkpt>
      <trkpt lat="42.901984" lon="0.733323">
        <ele>1343.6</ele>
        <time>1970-01-01T00:25:41.000Z</time>
      </trkpt>
      <trkpt lat="42.901862" lon="0.733029">
        <ele>1342.4</ele>
        <time>1970-01-01T00:25:44.000Z</time>
      </trkpt>
      <trkpt lat="42.901831" lon="0.732925">
        <ele>1342</ele>
        <time>1970-01-01T00:25:45.000Z</time>
      </trkpt>
      <trkpt lat="42.901745" lon="0.732602">
        <ele>1341.2</ele>
        <time>1970-01-01T00:25:48.000Z</time>
      </trkpt>
      <trkpt lat="42.901629" lon="0.731967">
        <ele>1341</ele>
        <time>1970-01-01T00:25:54.000Z</time>
      </trkpt>
      <trkpt lat="42.901655" lon="0.731509">
        <ele>1339.8</ele>
        <time>1970-01-01T00:25:58.000Z</time>
      </trkpt>
      <trkpt lat="42.901687" lon="0.731161">
        <ele>1338.6</ele>
        <time>1970-01-01T00:26:01.000Z</time>
      </trkpt>
      <trkpt lat="42.90174" lon="0.730837">
        <ele>1337.8</ele>
        <time>1970-01-01T00:26:08.000Z</time>
      </trkpt>
      <trkpt lat="42.901736" lon="0.730755">
        <ele>1338.2</ele>
        <time>1970-01-01T00:26:26.000Z</time>
      </trkpt>
      <trkpt lat="42.901743" lon="0.730691">
        <ele>1338.8</ele>
        <time>1970-01-01T00:26:29.000Z</time>
      </trkpt>
      <trkpt lat="42.901764" lon="0.729946">
        <ele>1339.4</ele>
        <time>1970-01-01T00:26:48.000Z</time>
      </trkpt>
      <trkpt lat="42.901713" lon="0.729639">
        <ele>1339.2</ele>
        <time>1970-01-01T00:26:53.000Z</time>
      </trkpt>
      <trkpt lat="42.901652" lon="0.729454">
        <ele>1339.4</ele>
        <time>1970-01-01T00:26:56.000Z</time>
      </trkpt>
      <trkpt lat="42.901517" lon="0.728984">
        <ele>1337.4</ele>
        <time>1970-01-01T00:27:01.000Z</time>
      </trkpt>
      <trkpt lat="42.901453" lon="0.728775">
        <ele>1336.2</ele>
        <time>1970-01-01T00:27:03.000Z</time>
      </trkpt>
      <trkpt lat="42.901413" lon="0.728686">
        <ele>1335.6</ele>
        <time>1970-01-01T00:27:04.000Z</time>
      </trkpt>
      <trkpt lat="42.901362" lon="0.728609">
        <ele>1335.2</ele>
        <time>1970-01-01T00:27:05.000Z</time>
      </trkpt>
      <trkpt lat="42.901205" lon="0.728452">
        <ele>1334.2</ele>
        <time>1970-01-01T00:27:08.000Z</time>
      </trkpt>
      <trkpt lat="42.901056" lon="0.728399">
        <ele>1333.6</ele>
        <time>1970-01-01T00:27:11.000Z</time>
      </trkpt>
      <trkpt lat="42.90089" lon="0.728336">
        <ele>1333.2</ele>
        <time>1970-01-01T00:27:15.000Z</time>
      </trkpt>
      <trkpt lat="42.90085" lon="0.728292">
        <ele>1332</ele>
        <time>1970-01-01T00:27:17.000Z</time>
      </trkpt>
      <trkpt lat="42.900831" lon="0.728183">
        <ele>1330.2</ele>
        <time>1970-01-01T00:27:19.000Z</time>
      </trkpt>
      <trkpt lat="42.900826" lon="0.728128">
        <ele>1328.4</ele>
        <time>1970-01-01T00:27:20.000Z</time>
      </trkpt>
      <trkpt lat="42.900813" lon="0.728068">
        <ele>1327.2</ele>
        <time>1970-01-01T00:27:21.000Z</time>
      </trkpt>
      <trkpt lat="42.900803" lon="0.728015">
        <ele>1326.2</ele>
        <time>1970-01-01T00:27:22.000Z</time>
      </trkpt>
      <trkpt lat="42.900774" lon="0.727915">
        <ele>1324.4</ele>
        <time>1970-01-01T00:27:24.000Z</time>
      </trkpt>
      <trkpt lat="42.900728" lon="0.727823">
        <ele>1322</ele>
        <time>1970-01-01T00:27:26.000Z</time>
      </trkpt>
      <trkpt lat="42.900701" lon="0.72772">
        <ele>1320.6</ele>
        <time>1970-01-01T00:27:28.000Z</time>
      </trkpt>
      <trkpt lat="42.900677" lon="0.727605">
        <ele>1319.4</ele>
        <time>1970-01-01T00:27:30.000Z</time>
      </trkpt>
      <trkpt lat="42.900667" lon="0.727495">
        <ele>1318.4</ele>
        <time>1970-01-01T00:27:32.000Z</time>
      </trkpt>
      <trkpt lat="42.900658" lon="0.72738">
        <ele>1317</ele>
        <time>1970-01-01T00:27:34.000Z</time>
      </trkpt>
      <trkpt lat="42.90067" lon="0.727261">
        <ele>1315.4</ele>
        <time>1970-01-01T00:27:36.000Z</time>
      </trkpt>
      <trkpt lat="42.900718" lon="0.727129">
        <ele>1313.6</ele>
        <time>1970-01-01T00:27:38.000Z</time>
      </trkpt>
      <trkpt lat="42.900789" lon="0.727019">
        <ele>1312</ele>
        <time>1970-01-01T00:27:40.000Z</time>
      </trkpt>
      <trkpt lat="42.900827" lon="0.726972">
        <ele>1311.4</ele>
        <time>1970-01-01T00:27:41.000Z</time>
      </trkpt>
      <trkpt lat="42.900871" lon="0.726938">
        <ele>1310.6</ele>
        <time>1970-01-01T00:27:42.000Z</time>
      </trkpt>
      <trkpt lat="42.900958" lon="0.726903">
        <ele>1309.4</ele>
        <time>1970-01-01T00:27:44.000Z</time>
      </trkpt>
      <trkpt lat="42.900999" lon="0.726895">
        <ele>1308.6</ele>
        <time>1970-01-01T00:27:45.000Z</time>
      </trkpt>
      <trkpt lat="42.901032" lon="0.726888">
        <ele>1307.6</ele>
        <time>1970-01-01T00:27:46.000Z</time>
      </trkpt>
      <trkpt lat="42.901057" lon="0.726872">
        <ele>1306.4</ele>
        <time>1970-01-01T00:27:47.000Z</time>
      </trkpt>
      <trkpt lat="42.901113" lon="0.726859">
        <ele>1304.4</ele>
        <time>1970-01-01T00:27:49.000Z</time>
      </trkpt>
      <trkpt lat="42.901142" lon="0.72685">
        <ele>1303</ele>
        <time>1970-01-01T00:27:50.000Z</time>
      </trkpt>
      <trkpt lat="42.90118" lon="0.726833">
        <ele>1302</ele>
        <time>1970-01-01T00:27:51.000Z</time>
      </trkpt>
      <trkpt lat="42.901223" lon="0.726802">
        <ele>1300.8</ele>
        <time>1970-01-01T00:27:52.000Z</time>
      </trkpt>
      <trkpt lat="42.901262" lon="0.726758">
        <ele>1300</ele>
        <time>1970-01-01T00:27:53.000Z</time>
      </trkpt>
      <trkpt lat="42.901294" lon="0.726717">
        <ele>1299</ele>
        <time>1970-01-01T00:27:54.000Z</time>
      </trkpt>
      <trkpt lat="42.901325" lon="0.726673">
        <ele>1297.6</ele>
        <time>1970-01-01T00:27:55.000Z</time>
      </trkpt>
      <trkpt lat="42.901351" lon="0.726635">
        <ele>1296.4</ele>
        <time>1970-01-01T00:27:56.000Z</time>
      </trkpt>
      <trkpt lat="42.901378" lon="0.726602">
        <ele>1295.4</ele>
        <time>1970-01-01T00:27:57.000Z</time>
      </trkpt>
      <trkpt lat="42.901411" lon="0.726568">
        <ele>1294</ele>
        <time>1970-01-01T00:27:58.000Z</time>
      </trkpt>
      <trkpt lat="42.901437" lon="0.726535">
        <ele>1292.8</ele>
        <time>1970-01-01T00:27:59.000Z</time>
      </trkpt>
      <trkpt lat="42.901461" lon="0.726497">
        <ele>1291.8</ele>
        <time>1970-01-01T00:28:00.000Z</time>
      </trkpt>
      <trkpt lat="42.901484" lon="0.72646">
        <ele>1290.4</ele>
        <time>1970-01-01T00:28:01.000Z</time>
      </trkpt>
      <trkpt lat="42.901512" lon="0.726414">
        <ele>1289.2</ele>
        <time>1970-01-01T00:28:02.000Z</time>
      </trkpt>
      <trkpt lat="42.901571" lon="0.726324">
        <ele>1286.4</ele>
        <time>1970-01-01T00:28:04.000Z</time>
      </trkpt>
      <trkpt lat="42.901602" lon="0.726275">
        <ele>1285.2</ele>
        <time>1970-01-01T00:28:05.000Z</time>
      </trkpt>
      <trkpt lat="42.901625" lon="0.726225">
        <ele>1283.8</ele>
        <time>1970-01-01T00:28:06.000Z</time>
      </trkpt>
      <trkpt lat="42.901647" lon="0.72617">
        <ele>1282.4</ele>
        <time>1970-01-01T00:28:07.000Z</time>
      </trkpt>
      <trkpt lat="42.901666" lon="0.726102">
        <ele>1280.8</ele>
        <time>1970-01-01T00:28:08.000Z</time>
      </trkpt>
      <trkpt lat="42.90168" lon="0.726035">
        <ele>1279.2</ele>
        <time>1970-01-01T00:28:09.000Z</time>
      </trkpt>
      <trkpt lat="42.901699" lon="0.725964">
        <ele>1278</ele>
        <time>1970-01-01T00:28:10.000Z</time>
      </trkpt>
      <trkpt lat="42.901723" lon="0.725903">
        <ele>1276.6</ele>
        <time>1970-01-01T00:28:11.000Z</time>
      </trkpt>
      <trkpt lat="42.901746" lon="0.725841">
        <ele>1275.6</ele>
        <time>1970-01-01T00:28:12.000Z</time>
      </trkpt>
      <trkpt lat="42.901768" lon="0.725777">
        <ele>1274.2</ele>
        <time>1970-01-01T00:28:13.000Z</time>
      </trkpt>
      <trkpt lat="42.901793" lon="0.72568">
        <ele>1272.4</ele>
        <time>1970-01-01T00:28:15.000Z</time>
      </trkpt>
      <trkpt lat="42.901794" lon="0.725626">
        <ele>1271.2</ele>
        <time>1970-01-01T00:28:17.000Z</time>
      </trkpt>
      <trkpt lat="42.901801" lon="0.725606">
        <ele>1270.8</ele>
        <time>1970-01-01T00:28:19.000Z</time>
      </trkpt>
      <trkpt lat="42.901815" lon="0.725482">
        <ele>1268.4</ele>
        <time>1970-01-01T00:29:16.000Z</time>
      </trkpt>
      <trkpt lat="42.901823" lon="0.725423">
        <ele>1266.8</ele>
        <time>1970-01-01T00:29:18.000Z</time>
      </trkpt>
      <trkpt lat="42.901823" lon="0.725363">
        <ele>1264.8</ele>
        <time>1970-01-01T00:29:20.000Z</time>
      </trkpt>
      <trkpt lat="42.901818" lon="0.725295">
        <ele>1263.2</ele>
        <time>1970-01-01T00:29:22.000Z</time>
      </trkpt>
      <trkpt lat="42.90181" lon="0.725229">
        <ele>1261.6</ele>
        <time>1970-01-01T00:29:24.000Z</time>
      </trkpt>
      <trkpt lat="42.901815" lon="0.725157">
        <ele>1260.6</ele>
        <time>1970-01-01T00:29:26.000Z</time>
      </trkpt>
      <trkpt lat="42.901832" lon="0.725075">
        <ele>1259.2</ele>
        <time>1970-01-01T00:29:28.000Z</time>
      </trkpt>
      <trkpt lat="42.90184" lon="0.72504">
        <ele>1258.2</ele>
        <time>1970-01-01T00:29:29.000Z</time>
      </trkpt>
      <trkpt lat="42.901845" lon="0.72496">
        <ele>1256.4</ele>
        <time>1970-01-01T00:29:31.000Z</time>
      </trkpt>
      <trkpt lat="42.901843" lon="0.724853">
        <ele>1254.8</ele>
        <time>1970-01-01T00:29:33.000Z</time>
      </trkpt>
      <trkpt lat="42.901834" lon="0.724789">
        <ele>1254.2</ele>
        <time>1970-01-01T00:29:34.000Z</time>
      </trkpt>
      <trkpt lat="42.901816" lon="0.724731">
        <ele>1253.4</ele>
        <time>1970-01-01T00:29:35.000Z</time>
      </trkpt>
      <trkpt lat="42.901795" lon="0.724664">
        <ele>1252.4</ele>
        <time>1970-01-01T00:29:36.000Z</time>
      </trkpt>
      <trkpt lat="42.901757" lon="0.724523">
        <ele>1250</ele>
        <time>1970-01-01T00:29:38.000Z</time>
      </trkpt>
      <trkpt lat="42.901735" lon="0.724451">
        <ele>1249</ele>
        <time>1970-01-01T00:29:39.000Z</time>
      </trkpt>
      <trkpt lat="42.901675" lon="0.724293">
        <ele>1247.4</ele>
        <time>1970-01-01T00:29:41.000Z</time>
      </trkpt>
      <trkpt lat="42.901645" lon="0.724217">
        <ele>1246.6</ele>
        <time>1970-01-01T00:29:42.000Z</time>
      </trkpt>
      <trkpt lat="42.901622" lon="0.724134">
        <ele>1245.6</ele>
        <time>1970-01-01T00:29:43.000Z</time>
      </trkpt>
      <trkpt lat="42.901563" lon="0.723981">
        <ele>1243.6</ele>
        <time>1970-01-01T00:29:45.000Z</time>
      </trkpt>
      <trkpt lat="42.901504" lon="0.723882">
        <ele>1242</ele>
        <time>1970-01-01T00:29:47.000Z</time>
      </trkpt>
      <trkpt lat="42.901464" lon="0.723835">
        <ele>1240.4</ele>
        <time>1970-01-01T00:29:49.000Z</time>
      </trkpt>
      <trkpt lat="42.901457" lon="0.723813">
        <ele>1239.6</ele>
        <time>1970-01-01T00:29:50.000Z</time>
      </trkpt>
      <trkpt lat="42.901453" lon="0.723793">
        <ele>1239.2</ele>
        <time>1970-01-01T00:29:51.000Z</time>
      </trkpt>
      <trkpt lat="42.901442" lon="0.723736">
        <ele>1238.6</ele>
        <time>1970-01-01T00:29:53.000Z</time>
      </trkpt>
      <trkpt lat="42.901432" lon="0.7237">
        <ele>1238.2</ele>
        <time>1970-01-01T00:29:54.000Z</time>
      </trkpt>
      <trkpt lat="42.901407" lon="0.723576">
        <ele>1237</ele>
        <time>1970-01-01T00:29:56.000Z</time>
      </trkpt>
      <trkpt lat="42.901373" lon="0.723426">
        <ele>1235.2</ele>
        <time>1970-01-01T00:29:58.000Z</time>
      </trkpt>
      <trkpt lat="42.901349" lon="0.723353">
        <ele>1234</ele>
        <time>1970-01-01T00:29:59.000Z</time>
      </trkpt>
      <trkpt lat="42.901331" lon="0.723281">
        <ele>1233</ele>
        <time>1970-01-01T00:30:00.000Z</time>
      </trkpt>
      <trkpt lat="42.901302" lon="0.723147">
        <ele>1231.4</ele>
        <time>1970-01-01T00:30:02.000Z</time>
      </trkpt>
      <trkpt lat="42.901258" lon="0.723054">
        <ele>1229.4</ele>
        <time>1970-01-01T00:30:04.000Z</time>
      </trkpt>
      <trkpt lat="42.901205" lon="0.723019">
        <ele>1228.2</ele>
        <time>1970-01-01T00:30:06.000Z</time>
      </trkpt>
      <trkpt lat="42.901135" lon="0.723039">
        <ele>1227</ele>
        <time>1970-01-01T00:30:09.000Z</time>
      </trkpt>
      <trkpt lat="42.90112" lon="0.723047">
        <ele>1226.8</ele>
        <time>1970-01-01T00:30:10.000Z</time>
      </trkpt>
      <trkpt lat="42.901102" lon="0.723054">
        <ele>1226.8</ele>
        <time>1970-01-01T00:30:11.000Z</time>
      </trkpt>
      <trkpt lat="42.901062" lon="0.723056">
        <ele>1226.6</ele>
        <time>1970-01-01T00:30:13.000Z</time>
      </trkpt>
      <trkpt lat="42.901053" lon="0.723119">
        <ele>1226.6</ele>
        <time>1970-01-01T00:30:17.000Z</time>
      </trkpt>
      <trkpt lat="42.900979" lon="0.723153">
        <ele>1226.8</ele>
        <time>1970-01-01T00:30:21.000Z</time>
      </trkpt>
      <trkpt lat="42.900485" lon="0.723476">
        <ele>1226.6</ele>
        <time>1970-01-01T00:30:44.000Z</time>
      </trkpt>
      <trkpt lat="42.900108" lon="0.723809">
        <ele>1226</ele>
        <time>1970-01-01T00:30:53.000Z</time>
      </trkpt>
      <trkpt lat="42.899994" lon="0.723941">
        <ele>1226</ele>
        <time>1970-01-01T00:30:56.000Z</time>
      </trkpt>
      <trkpt lat="42.899611" lon="0.724328">
        <ele>1225.6</ele>
        <time>1970-01-01T00:31:05.000Z</time>
      </trkpt>
      <trkpt lat="42.899343" lon="0.724638">
        <ele>1225.2</ele>
        <time>1970-01-01T00:31:11.000Z</time>
      </trkpt>
      <trkpt lat="42.89914" lon="0.724901">
        <ele>1225</ele>
        <time>1970-01-01T00:31:16.000Z</time>
      </trkpt>
      <trkpt lat="42.898789" lon="0.725466">
        <ele>1225</ele>
        <time>1970-01-01T00:31:27.000Z</time>
      </trkpt>
      <trkpt lat="42.898749" lon="0.72559">
        <ele>1224.4</ele>
        <time>1970-01-01T00:31:32.000Z</time>
      </trkpt>
      <trkpt lat="42.898727" lon="0.72562">
        <ele>1224.2</ele>
        <time>1970-01-01T00:32:01.000Z</time>
      </trkpt>
      <trkpt lat="42.898719" lon="0.725972">
        <ele>1224.6</ele>
        <time>1970-01-01T00:32:08.000Z</time>
      </trkpt>
      <trkpt lat="42.898655" lon="0.726699">
        <ele>1225.2</ele>
        <time>1970-01-01T00:32:27.000Z</time>
      </trkpt>
      <trkpt lat="42.89865" lon="0.726936">
        <ele>1225.6</ele>
        <time>1970-01-01T00:32:32.000Z</time>
      </trkpt>
      <trkpt lat="42.898656" lon="0.727551">
        <ele>1227</ele>
        <time>1970-01-01T00:32:46.000Z</time>
      </trkpt>
      <trkpt lat="42.898567" lon="0.728284">
        <ele>1227.4</ele>
        <time>1970-01-01T00:33:01.000Z</time>
      </trkpt>
      <trkpt lat="42.898561" lon="0.728449">
        <ele>1228.2</ele>
        <time>1970-01-01T00:33:05.000Z</time>
      </trkpt>
      <trkpt lat="42.898554" lon="0.728597">
        <ele>1229.4</ele>
        <time>1970-01-01T00:33:10.000Z</time>
      </trkpt>
      <trkpt lat="42.898554" lon="0.728743">
        <ele>1230.6</ele>
        <time>1970-01-01T00:33:15.000Z</time>
      </trkpt>
      <trkpt lat="42.898552" lon="0.728856">
        <ele>1231.8</ele>
        <time>1970-01-01T00:33:19.000Z</time>
      </trkpt>
      <trkpt lat="42.898538" lon="0.729013">
        <ele>1233</ele>
        <time>1970-01-01T00:33:24.000Z</time>
      </trkpt>
      <trkpt lat="42.898537" lon="0.729087">
        <ele>1234.4</ele>
        <time>1970-01-01T00:33:28.000Z</time>
      </trkpt>
      <trkpt lat="42.898527" lon="0.729154">
        <ele>1235.6</ele>
        <time>1970-01-01T00:33:32.000Z</time>
      </trkpt>
      <trkpt lat="42.898525" lon="0.729284">
        <ele>1236.6</ele>
        <time>1970-01-01T00:33:37.000Z</time>
      </trkpt>
      <trkpt lat="42.898509" lon="0.729455">
        <ele>1237.6</ele>
        <time>1970-01-01T00:33:43.000Z</time>
      </trkpt>
      <trkpt lat="42.898446" lon="0.729752">
        <ele>1239</ele>
        <time>1970-01-01T00:33:54.000Z</time>
      </trkpt>
      <trkpt lat="42.898257" lon="0.730383">
        <ele>1240.2</ele>
        <time>1970-01-01T00:34:12.000Z</time>
      </trkpt>
      <trkpt lat="42.898156" lon="0.730734">
        <ele>1241.4</ele>
        <time>1970-01-01T00:34:22.000Z</time>
      </trkpt>
      <trkpt lat="42.898064" lon="0.730947">
        <ele>1242.4</ele>
        <time>1970-01-01T00:34:29.000Z</time>
      </trkpt>
      <trkpt lat="42.898053" lon="0.730978">
        <ele>1242.6</ele>
        <time>1970-01-01T00:34:30.000Z</time>
      </trkpt>
      <trkpt lat="42.897946" lon="0.731305">
        <ele>1243.8</ele>
        <time>1970-01-01T00:34:40.000Z</time>
      </trkpt>
      <trkpt lat="42.897866" lon="0.731554">
        <ele>1245</ele>
        <time>1970-01-01T00:34:48.000Z</time>
      </trkpt>
      <trkpt lat="42.897758" lon="0.731841">
        <ele>1246.2</ele>
        <time>1970-01-01T00:34:57.000Z</time>
      </trkpt>
      <trkpt lat="42.897658" lon="0.732131">
        <ele>1247.4</ele>
        <time>1970-01-01T00:35:05.000Z</time>
      </trkpt>
      <trkpt lat="42.89732" lon="0.732727">
        <ele>1248.6</ele>
        <time>1970-01-01T00:35:23.000Z</time>
      </trkpt>
      <trkpt lat="42.897298" lon="0.732769">
        <ele>1248.8</ele>
        <time>1970-01-01T00:35:24.000Z</time>
      </trkpt>
      <trkpt lat="42.896997" lon="0.733396">
        <ele>1249.8</ele>
        <time>1970-01-01T00:35:41.000Z</time>
      </trkpt>
      <trkpt lat="42.896866" lon="0.733656">
        <ele>1249.6</ele>
        <time>1970-01-01T00:35:46.000Z</time>
      </trkpt>
      <trkpt lat="42.896779" lon="0.733852">
        <ele>1249</ele>
        <time>1970-01-01T00:35:49.000Z</time>
      </trkpt>
      <trkpt lat="42.896651" lon="0.734088">
        <ele>1247.8</ele>
        <time>1970-01-01T00:35:52.000Z</time>
      </trkpt>
      <trkpt lat="42.896471" lon="0.734407">
        <ele>1246.6</ele>
        <time>1970-01-01T00:35:56.000Z</time>
      </trkpt>
      <trkpt lat="42.896254" lon="0.734777">
        <ele>1245.6</ele>
        <time>1970-01-01T00:36:01.000Z</time>
      </trkpt>
      <trkpt lat="42.896117" lon="0.735059">
        <ele>1245.2</ele>
        <time>1970-01-01T00:36:05.000Z</time>
      </trkpt>
      <trkpt lat="42.895982" lon="0.735475">
        <ele>1244.2</ele>
        <time>1970-01-01T00:36:10.000Z</time>
      </trkpt>
      <trkpt lat="42.89587" lon="0.735736">
        <ele>1243</ele>
        <time>1970-01-01T00:36:13.000Z</time>
      </trkpt>
      <trkpt lat="42.89582" lon="0.735808">
        <ele>1242.8</ele>
        <time>1970-01-01T00:36:14.000Z</time>
      </trkpt>
      <trkpt lat="42.895671" lon="0.735981">
        <ele>1242.4</ele>
        <time>1970-01-01T00:36:17.000Z</time>
      </trkpt>
      <trkpt lat="42.895318" lon="0.736475">
        <ele>1244.2</ele>
        <time>1970-01-01T00:36:30.000Z</time>
      </trkpt>
      <trkpt lat="42.895277" lon="0.736695">
        <ele>1245.8</ele>
        <time>1970-01-01T00:36:36.000Z</time>
      </trkpt>
      <trkpt lat="42.895197" lon="0.737011">
        <ele>1246.8</ele>
        <time>1970-01-01T00:36:45.000Z</time>
      </trkpt>
      <trkpt lat="42.895132" lon="0.73777">
        <ele>1247</ele>
        <time>1970-01-01T00:37:02.000Z</time>
      </trkpt>
      <trkpt lat="42.89512" lon="0.738139">
        <ele>1246</ele>
        <time>1970-01-01T00:37:08.000Z</time>
      </trkpt>
      <trkpt lat="42.895094" lon="0.738529">
        <ele>1245</ele>
        <time>1970-01-01T00:37:14.000Z</time>
      </trkpt>
      <trkpt lat="42.895019" lon="0.739005">
        <ele>1244</ele>
        <time>1970-01-01T00:37:21.000Z</time>
      </trkpt>
      <trkpt lat="42.894993" lon="0.739078">
        <ele>1243.6</ele>
        <time>1970-01-01T00:37:22.000Z</time>
      </trkpt>
      <trkpt lat="42.894866" lon="0.739276">
        <ele>1242.4</ele>
        <time>1970-01-01T00:37:25.000Z</time>
      </trkpt>
      <trkpt lat="42.894761" lon="0.739383">
        <ele>1241.6</ele>
        <time>1970-01-01T00:37:27.000Z</time>
      </trkpt>
      <trkpt lat="42.89471" lon="0.739437">
        <ele>1241.2</ele>
        <time>1970-01-01T00:37:28.000Z</time>
      </trkpt>
      <trkpt lat="42.894663" lon="0.739496">
        <ele>1240.6</ele>
        <time>1970-01-01T00:37:29.000Z</time>
      </trkpt>
      <trkpt lat="42.894625" lon="0.739568">
        <ele>1240</ele>
        <time>1970-01-01T00:37:30.000Z</time>
      </trkpt>
      <trkpt lat="42.894588" lon="0.739655">
        <ele>1239</ele>
        <time>1970-01-01T00:37:31.000Z</time>
      </trkpt>
      <trkpt lat="42.894528" lon="0.739836">
        <ele>1237.4</ele>
        <time>1970-01-01T00:37:33.000Z</time>
      </trkpt>
      <trkpt lat="42.894506" lon="0.739918">
        <ele>1236.6</ele>
        <time>1970-01-01T00:37:34.000Z</time>
      </trkpt>
      <trkpt lat="42.894487" lon="0.739999">
        <ele>1235</ele>
        <time>1970-01-01T00:37:35.000Z</time>
      </trkpt>
      <trkpt lat="42.894445" lon="0.740196">
        <ele>1233.2</ele>
        <time>1970-01-01T00:37:37.000Z</time>
      </trkpt>
      <trkpt lat="42.894429" lon="0.740302">
        <ele>1231.4</ele>
        <time>1970-01-01T00:37:38.000Z</time>
      </trkpt>
      <trkpt lat="42.894418" lon="0.74041">
        <ele>1230.2</ele>
        <time>1970-01-01T00:37:39.000Z</time>
      </trkpt>
      <trkpt lat="42.894415" lon="0.740523">
        <ele>1228.8</ele>
        <time>1970-01-01T00:37:40.000Z</time>
      </trkpt>
      <trkpt lat="42.894422" lon="0.74064">
        <ele>1227.6</ele>
        <time>1970-01-01T00:37:41.000Z</time>
      </trkpt>
      <trkpt lat="42.894429" lon="0.740757">
        <ele>1226.2</ele>
        <time>1970-01-01T00:37:42.000Z</time>
      </trkpt>
      <trkpt lat="42.894437" lon="0.740866">
        <ele>1224.8</ele>
        <time>1970-01-01T00:37:43.000Z</time>
      </trkpt>
      <trkpt lat="42.894445" lon="0.740964">
        <ele>1222.8</ele>
        <time>1970-01-01T00:37:44.000Z</time>
      </trkpt>
      <trkpt lat="42.894454" lon="0.741059">
        <ele>1220.8</ele>
        <time>1970-01-01T00:37:45.000Z</time>
      </trkpt>
      <trkpt lat="42.894464" lon="0.741153">
        <ele>1219.2</ele>
        <time>1970-01-01T00:37:46.000Z</time>
      </trkpt>
      <trkpt lat="42.894478" lon="0.741251">
        <ele>1217.4</ele>
        <time>1970-01-01T00:37:47.000Z</time>
      </trkpt>
      <trkpt lat="42.894493" lon="0.741352">
        <ele>1216.4</ele>
        <time>1970-01-01T00:37:48.000Z</time>
      </trkpt>
      <trkpt lat="42.894518" lon="0.741532">
        <ele>1214.4</ele>
        <time>1970-01-01T00:37:50.000Z</time>
      </trkpt>
      <trkpt lat="42.894534" lon="0.741611">
        <ele>1213</ele>
        <time>1970-01-01T00:37:51.000Z</time>
      </trkpt>
      <trkpt lat="42.894554" lon="0.741689">
        <ele>1211.8</ele>
        <time>1970-01-01T00:37:52.000Z</time>
      </trkpt>
      <trkpt lat="42.894596" lon="0.74186">
        <ele>1210</ele>
        <time>1970-01-01T00:37:54.000Z</time>
      </trkpt>
      <trkpt lat="42.89462" lon="0.741934">
        <ele>1208</ele>
        <time>1970-01-01T00:37:55.000Z</time>
      </trkpt>
      <trkpt lat="42.89464" lon="0.74199">
        <ele>1206.8</ele>
        <time>1970-01-01T00:37:56.000Z</time>
      </trkpt>
      <trkpt lat="42.894629" lon="0.742019">
        <ele>1205.6</ele>
        <time>1970-01-01T00:37:57.000Z</time>
      </trkpt>
      <trkpt lat="42.894613" lon="0.742041">
        <ele>1204.4</ele>
        <time>1970-01-01T00:37:58.000Z</time>
      </trkpt>
      <trkpt lat="42.894574" lon="0.742052">
        <ele>1203.4</ele>
        <time>1970-01-01T00:37:59.000Z</time>
      </trkpt>
      <trkpt lat="42.894493" lon="0.74203">
        <ele>1201.8</ele>
        <time>1970-01-01T00:38:01.000Z</time>
      </trkpt>
      <trkpt lat="42.894456" lon="0.742017">
        <ele>1201</ele>
        <time>1970-01-01T00:38:02.000Z</time>
      </trkpt>
      <trkpt lat="42.894414" lon="0.741993">
        <ele>1200.2</ele>
        <time>1970-01-01T00:38:03.000Z</time>
      </trkpt>
      <trkpt lat="42.894324" lon="0.741935">
        <ele>1198.4</ele>
        <time>1970-01-01T00:38:05.000Z</time>
      </trkpt>
      <trkpt lat="42.894203" lon="0.741934">
        <ele>1196.8</ele>
        <time>1970-01-01T00:38:07.000Z</time>
      </trkpt>
      <trkpt lat="42.894076" lon="0.741964">
        <ele>1195.6</ele>
        <time>1970-01-01T00:38:09.000Z</time>
      </trkpt>
      <trkpt lat="42.893948" lon="0.741999">
        <ele>1194.4</ele>
        <time>1970-01-01T00:38:11.000Z</time>
      </trkpt>
      <trkpt lat="42.893892" lon="0.742031">
        <ele>1193.8</ele>
        <time>1970-01-01T00:38:12.000Z</time>
      </trkpt>
      <trkpt lat="42.893839" lon="0.742063">
        <ele>1193.4</ele>
        <time>1970-01-01T00:38:13.000Z</time>
      </trkpt>
      <trkpt lat="42.893483" lon="0.742283">
        <ele>1194.8</ele>
        <time>1970-01-01T00:38:26.000Z</time>
      </trkpt>
      <trkpt lat="42.893407" lon="0.742314">
        <ele>1195.8</ele>
        <time>1970-01-01T00:38:30.000Z</time>
      </trkpt>
      <trkpt lat="42.893194" lon="0.742423">
        <ele>1196.8</ele>
        <time>1970-01-01T00:38:40.000Z</time>
      </trkpt>
      <trkpt lat="42.892914" lon="0.742637">
        <ele>1195.2</ele>
        <time>1970-01-01T00:38:55.000Z</time>
      </trkpt>
      <trkpt lat="42.892776" lon="0.742848">
        <ele>1194.2</ele>
        <time>1970-01-01T00:39:03.000Z</time>
      </trkpt>
      <trkpt lat="42.892727" lon="0.743022">
        <ele>1193.4</ele>
        <time>1970-01-01T00:39:06.000Z</time>
      </trkpt>
      <trkpt lat="42.892711" lon="0.743082">
        <ele>1193</ele>
        <time>1970-01-01T00:39:07.000Z</time>
      </trkpt>
      <trkpt lat="42.892662" lon="0.743403">
        <ele>1191.8</ele>
        <time>1970-01-01T00:39:12.000Z</time>
      </trkpt>
      <trkpt lat="42.892621" lon="0.743696">
        <ele>1190.8</ele>
        <time>1970-01-01T00:39:16.000Z</time>
      </trkpt>
      <trkpt lat="42.892592" lon="0.74377">
        <ele>1190.6</ele>
        <time>1970-01-01T00:39:17.000Z</time>
      </trkpt>
      <trkpt lat="42.892468" lon="0.743987">
        <ele>1189.4</ele>
        <time>1970-01-01T00:39:20.000Z</time>
      </trkpt>
      <trkpt lat="42.892435" lon="0.744065">
        <ele>1188.8</ele>
        <time>1970-01-01T00:39:21.000Z</time>
      </trkpt>
      <trkpt lat="42.892387" lon="0.744216">
        <ele>1188.2</ele>
        <time>1970-01-01T00:39:23.000Z</time>
      </trkpt>
      <trkpt lat="42.892375" lon="0.744284">
        <ele>1188</ele>
        <time>1970-01-01T00:39:24.000Z</time>
      </trkpt>
      <trkpt lat="42.892436" lon="0.745024">
        <ele>1189.6</ele>
        <time>1970-01-01T00:39:40.000Z</time>
      </trkpt>
      <trkpt lat="42.892442" lon="0.745366">
        <ele>1190.6</ele>
        <time>1970-01-01T00:39:48.000Z</time>
      </trkpt>
      <trkpt lat="42.892403" lon="0.745388">
        <ele>1190.4</ele>
        <time>1970-01-01T00:39:55.000Z</time>
      </trkpt>
      <trkpt lat="42.892406" lon="0.745279">
        <ele>1189.6</ele>
        <time>1970-01-01T00:39:58.000Z</time>
      </trkpt>
      <trkpt lat="42.8924" lon="0.745161">
        <ele>1188.4</ele>
        <time>1970-01-01T00:40:00.000Z</time>
      </trkpt>
      <trkpt lat="42.892376" lon="0.745012">
        <ele>1187.2</ele>
        <time>1970-01-01T00:40:02.000Z</time>
      </trkpt>
      <trkpt lat="42.892334" lon="0.744862">
        <ele>1185.6</ele>
        <time>1970-01-01T00:40:04.000Z</time>
      </trkpt>
      <trkpt lat="42.892282" lon="0.744646">
        <ele>1184.2</ele>
        <time>1970-01-01T00:40:07.000Z</time>
      </trkpt>
      <trkpt lat="42.892275" lon="0.744573">
        <ele>1183.2</ele>
        <time>1970-01-01T00:40:08.000Z</time>
      </trkpt>
      <trkpt lat="42.892264" lon="0.744444">
        <ele>1181.2</ele>
        <time>1970-01-01T00:40:10.000Z</time>
      </trkpt>
      <trkpt lat="42.892262" lon="0.744327">
        <ele>1179.4</ele>
        <time>1970-01-01T00:40:12.000Z</time>
      </trkpt>
      <trkpt lat="42.892262" lon="0.744258">
        <ele>1178</ele>
        <time>1970-01-01T00:40:13.000Z</time>
      </trkpt>
      <trkpt lat="42.892269" lon="0.744103">
        <ele>1176</ele>
        <time>1970-01-01T00:40:15.000Z</time>
      </trkpt>
      <trkpt lat="42.892284" lon="0.744031">
        <ele>1174.6</ele>
        <time>1970-01-01T00:40:16.000Z</time>
      </trkpt>
      <trkpt lat="42.892314" lon="0.743904">
        <ele>1172.6</ele>
        <time>1970-01-01T00:40:18.000Z</time>
      </trkpt>
      <trkpt lat="42.892321" lon="0.743857">
        <ele>1171.4</ele>
        <time>1970-01-01T00:40:19.000Z</time>
      </trkpt>
      <trkpt lat="42.892319" lon="0.743817">
        <ele>1170.2</ele>
        <time>1970-01-01T00:40:20.000Z</time>
      </trkpt>
      <trkpt lat="42.892317" lon="0.743761">
        <ele>1168.4</ele>
        <time>1970-01-01T00:40:22.000Z</time>
      </trkpt>
      <trkpt lat="42.892314" lon="0.74369">
        <ele>1167</ele>
        <time>1970-01-01T00:40:24.000Z</time>
      </trkpt>
      <trkpt lat="42.892309" lon="0.743621">
        <ele>1165.8</ele>
        <time>1970-01-01T00:40:26.000Z</time>
      </trkpt>
      <trkpt lat="42.892304" lon="0.743569">
        <ele>1164.4</ele>
        <time>1970-01-01T00:40:28.000Z</time>
      </trkpt>
      <trkpt lat="42.892285" lon="0.74349">
        <ele>1163.4</ele>
        <time>1970-01-01T00:40:31.000Z</time>
      </trkpt>
      <trkpt lat="42.892273" lon="0.743403">
        <ele>1162</ele>
        <time>1970-01-01T00:40:34.000Z</time>
      </trkpt>
      <trkpt lat="42.892257" lon="0.743254">
        <ele>1160.6</ele>
        <time>1970-01-01T00:40:37.000Z</time>
      </trkpt>
      <trkpt lat="42.89228" lon="0.743136">
        <ele>1159</ele>
        <time>1970-01-01T00:40:39.000Z</time>
      </trkpt>
      <trkpt lat="42.892289" lon="0.742986">
        <ele>1157.4</ele>
        <time>1970-01-01T00:40:41.000Z</time>
      </trkpt>
      <trkpt lat="42.892285" lon="0.742902">
        <ele>1156.4</ele>
        <time>1970-01-01T00:40:42.000Z</time>
      </trkpt>
      <trkpt lat="42.892277" lon="0.742819">
        <ele>1155.2</ele>
        <time>1970-01-01T00:40:43.000Z</time>
      </trkpt>
      <trkpt lat="42.892256" lon="0.742655">
        <ele>1153.4</ele>
        <time>1970-01-01T00:40:45.000Z</time>
      </trkpt>
      <trkpt lat="42.892239" lon="0.742556">
        <ele>1152.4</ele>
        <time>1970-01-01T00:40:46.000Z</time>
      </trkpt>
      <trkpt lat="42.892232" lon="0.742451">
        <ele>1151.6</ele>
        <time>1970-01-01T00:40:47.000Z</time>
      </trkpt>
      <trkpt lat="42.892248" lon="0.742266">
        <ele>1150.4</ele>
        <time>1970-01-01T00:40:49.000Z</time>
      </trkpt>
      <trkpt lat="42.892282" lon="0.742108">
        <ele>1148.6</ele>
        <time>1970-01-01T00:40:51.000Z</time>
      </trkpt>
      <trkpt lat="42.892332" lon="0.741976">
        <ele>1147</ele>
        <time>1970-01-01T00:40:53.000Z</time>
      </trkpt>
      <trkpt lat="42.892388" lon="0.741886">
        <ele>1145.2</ele>
        <time>1970-01-01T00:40:55.000Z</time>
      </trkpt>
      <trkpt lat="42.892448" lon="0.741782">
        <ele>1143.6</ele>
        <time>1970-01-01T00:40:57.000Z</time>
      </trkpt>
      <trkpt lat="42.892521" lon="0.741685">
        <ele>1141.6</ele>
        <time>1970-01-01T00:40:59.000Z</time>
      </trkpt>
      <trkpt lat="42.892552" lon="0.741621">
        <ele>1139.8</ele>
        <time>1970-01-01T00:41:00.000Z</time>
      </trkpt>
      <trkpt lat="42.892586" lon="0.741565">
        <ele>1138.8</ele>
        <time>1970-01-01T00:41:01.000Z</time>
      </trkpt>
      <trkpt lat="42.892618" lon="0.741519">
        <ele>1137.4</ele>
        <time>1970-01-01T00:41:02.000Z</time>
      </trkpt>
      <trkpt lat="42.892655" lon="0.741474">
        <ele>1136.2</ele>
        <time>1970-01-01T00:41:03.000Z</time>
      </trkpt>
      <trkpt lat="42.892689" lon="0.741435">
        <ele>1135</ele>
        <time>1970-01-01T00:41:04.000Z</time>
      </trkpt>
      <trkpt lat="42.892723" lon="0.741401">
        <ele>1133.4</ele>
        <time>1970-01-01T00:41:05.000Z</time>
      </trkpt>
      <trkpt lat="42.892757" lon="0.741367">
        <ele>1132.4</ele>
        <time>1970-01-01T00:41:06.000Z</time>
      </trkpt>
      <trkpt lat="42.892825" lon="0.741279">
        <ele>1129.8</ele>
        <time>1970-01-01T00:41:08.000Z</time>
      </trkpt>
      <trkpt lat="42.892854" lon="0.741231">
        <ele>1127.4</ele>
        <time>1970-01-01T00:41:09.000Z</time>
      </trkpt>
      <trkpt lat="42.892872" lon="0.741178">
        <ele>1126</ele>
        <time>1970-01-01T00:41:10.000Z</time>
      </trkpt>
      <trkpt lat="42.892877" lon="0.74113">
        <ele>1124.6</ele>
        <time>1970-01-01T00:41:11.000Z</time>
      </trkpt>
      <trkpt lat="42.892856" lon="0.741055">
        <ele>1123</ele>
        <time>1970-01-01T00:41:13.000Z</time>
      </trkpt>
      <trkpt lat="42.892831" lon="0.741016">
        <ele>1121.8</ele>
        <time>1970-01-01T00:41:14.000Z</time>
      </trkpt>
      <trkpt lat="42.892801" lon="0.740987">
        <ele>1120.6</ele>
        <time>1970-01-01T00:41:15.000Z</time>
      </trkpt>
      <trkpt lat="42.892771" lon="0.740955">
        <ele>1119.8</ele>
        <time>1970-01-01T00:41:16.000Z</time>
      </trkpt>
      <trkpt lat="42.892735" lon="0.740914">
        <ele>1119</ele>
        <time>1970-01-01T00:41:17.000Z</time>
      </trkpt>
      <trkpt lat="42.892691" lon="0.740859">
        <ele>1118.2</ele>
        <time>1970-01-01T00:41:18.000Z</time>
      </trkpt>
      <trkpt lat="42.892649" lon="0.740812">
        <ele>1117.2</ele>
        <time>1970-01-01T00:41:19.000Z</time>
      </trkpt>
      <trkpt lat="42.892567" lon="0.740709">
        <ele>1115.4</ele>
        <time>1970-01-01T00:41:21.000Z</time>
      </trkpt>
      <trkpt lat="42.892517" lon="0.740579">
        <ele>1114</ele>
        <time>1970-01-01T00:41:23.000Z</time>
      </trkpt>
      <trkpt lat="42.892439" lon="0.740445">
        <ele>1112.8</ele>
        <time>1970-01-01T00:41:25.000Z</time>
      </trkpt>
      <trkpt lat="42.892404" lon="0.740388">
        <ele>1112.2</ele>
        <time>1970-01-01T00:41:26.000Z</time>
      </trkpt>
      <trkpt lat="42.892367" lon="0.740326">
        <ele>1111.4</ele>
        <time>1970-01-01T00:41:27.000Z</time>
      </trkpt>
      <trkpt lat="42.892322" lon="0.740257">
        <ele>1111.2</ele>
        <time>1970-01-01T00:41:28.000Z</time>
      </trkpt>
      <trkpt lat="42.892211" lon="0.740122">
        <ele>1110</ele>
        <time>1970-01-01T00:41:30.000Z</time>
      </trkpt>
      <trkpt lat="42.89209" lon="0.739955">
        <ele>1108.8</ele>
        <time>1970-01-01T00:41:32.000Z</time>
      </trkpt>
      <trkpt lat="42.892011" lon="0.739772">
        <ele>1107.4</ele>
        <time>1970-01-01T00:41:34.000Z</time>
      </trkpt>
      <trkpt lat="42.891969" lon="0.739585">
        <ele>1106</ele>
        <time>1970-01-01T00:41:36.000Z</time>
      </trkpt>
      <trkpt lat="42.891965" lon="0.739381">
        <ele>1105.2</ele>
        <time>1970-01-01T00:41:38.000Z</time>
      </trkpt>
      <trkpt lat="42.89196" lon="0.73928">
        <ele>1104.8</ele>
        <time>1970-01-01T00:41:39.000Z</time>
      </trkpt>
      <trkpt lat="42.891921" lon="0.738773">
        <ele>1103.8</ele>
        <time>1970-01-01T00:41:45.000Z</time>
      </trkpt>
      <trkpt lat="42.891903" lon="0.73856">
        <ele>1103.4</ele>
        <time>1970-01-01T00:41:47.000Z</time>
      </trkpt>
      <trkpt lat="42.891894" lon="0.738337">
        <ele>1102.6</ele>
        <time>1970-01-01T00:41:49.000Z</time>
      </trkpt>
      <trkpt lat="42.891906" lon="0.738247">
        <ele>1102.2</ele>
        <time>1970-01-01T00:41:50.000Z</time>
      </trkpt>
      <trkpt lat="42.891989" lon="0.738005">
        <ele>1101.4</ele>
        <time>1970-01-01T00:41:53.000Z</time>
      </trkpt>
      <trkpt lat="42.892024" lon="0.737938">
        <ele>1101.2</ele>
        <time>1970-01-01T00:41:54.000Z</time>
      </trkpt>
      <trkpt lat="42.892092" lon="0.737815">
        <ele>1101.4</ele>
        <time>1970-01-01T00:41:56.000Z</time>
      </trkpt>
      <trkpt lat="42.892101" lon="0.737672">
        <ele>1101.2</ele>
        <time>1970-01-01T00:42:00.000Z</time>
      </trkpt>
      <trkpt lat="42.892094" lon="0.737517">
        <ele>1100.8</ele>
        <time>1970-01-01T00:42:09.000Z</time>
      </trkpt>
      <trkpt lat="42.892088" lon="0.737423">
        <ele>1101</ele>
        <time>1970-01-01T00:42:14.000Z</time>
      </trkpt>
      <trkpt lat="42.892096" lon="0.737398">
        <ele>1101.2</ele>
        <time>1970-01-01T00:42:38.000Z</time>
      </trkpt>
      <trkpt lat="42.892176" lon="0.737169">
        <ele>1101</ele>
        <time>1970-01-01T00:42:49.000Z</time>
      </trkpt>
      <trkpt lat="42.892213" lon="0.737075">
        <ele>1100.6</ele>
        <time>1970-01-01T00:43:11.000Z</time>
      </trkpt>
      <trkpt lat="42.892129" lon="0.736535">
        <ele>1100</ele>
        <time>1970-01-01T00:43:24.000Z</time>
      </trkpt>
      <trkpt lat="42.892087" lon="0.736436">
        <ele>1098.6</ele>
        <time>1970-01-01T00:43:26.000Z</time>
      </trkpt>
      <trkpt lat="42.892071" lon="0.736382">
        <ele>1098</ele>
        <time>1970-01-01T00:43:27.000Z</time>
      </trkpt>
      <trkpt lat="42.892054" lon="0.73632">
        <ele>1097</ele>
        <time>1970-01-01T00:43:28.000Z</time>
      </trkpt>
      <trkpt lat="42.892044" lon="0.736254">
        <ele>1096.2</ele>
        <time>1970-01-01T00:43:29.000Z</time>
      </trkpt>
      <trkpt lat="42.892036" lon="0.736186">
        <ele>1095.2</ele>
        <time>1970-01-01T00:43:30.000Z</time>
      </trkpt>
      <trkpt lat="42.892014" lon="0.736032">
        <ele>1093.8</ele>
        <time>1970-01-01T00:43:32.000Z</time>
      </trkpt>
      <trkpt lat="42.891998" lon="0.735852">
        <ele>1092.4</ele>
        <time>1970-01-01T00:43:34.000Z</time>
      </trkpt>
      <trkpt lat="42.891994" lon="0.735652">
        <ele>1091.4</ele>
        <time>1970-01-01T00:43:36.000Z</time>
      </trkpt>
      <trkpt lat="42.891984" lon="0.735315">
        <ele>1090</ele>
        <time>1970-01-01T00:43:40.000Z</time>
      </trkpt>
      <trkpt lat="42.891973" lon="0.735248">
        <ele>1089.4</ele>
        <time>1970-01-01T00:43:42.000Z</time>
      </trkpt>
      <trkpt lat="42.891978" lon="0.735224">
        <ele>1089</ele>
        <time>1970-01-01T00:43:43.000Z</time>
      </trkpt>
      <trkpt lat="42.891981" lon="0.734923">
        <ele>1087.8</ele>
        <time>1970-01-01T00:43:48.000Z</time>
      </trkpt>
      <trkpt lat="42.891969" lon="0.734779">
        <ele>1086.2</ele>
        <time>1970-01-01T00:43:50.000Z</time>
      </trkpt>
      <trkpt lat="42.891909" lon="0.734648">
        <ele>1084.6</ele>
        <time>1970-01-01T00:43:52.000Z</time>
      </trkpt>
      <trkpt lat="42.891881" lon="0.734591">
        <ele>1083.6</ele>
        <time>1970-01-01T00:43:53.000Z</time>
      </trkpt>
      <trkpt lat="42.891862" lon="0.734538">
        <ele>1082.4</ele>
        <time>1970-01-01T00:43:54.000Z</time>
      </trkpt>
      <trkpt lat="42.891845" lon="0.734499">
        <ele>1081.2</ele>
        <time>1970-01-01T00:43:55.000Z</time>
      </trkpt>
      <trkpt lat="42.891829" lon="0.73447">
        <ele>1080</ele>
        <time>1970-01-01T00:43:56.000Z</time>
      </trkpt>
      <trkpt lat="42.891814" lon="0.73445">
        <ele>1079.2</ele>
        <time>1970-01-01T00:43:58.000Z</time>
      </trkpt>
      <trkpt lat="42.891799" lon="0.734408">
        <ele>1078.4</ele>
        <time>1970-01-01T00:44:38.000Z</time>
      </trkpt>
      <trkpt lat="42.891791" lon="0.734395">
        <ele>1077.8</ele>
        <time>1970-01-01T00:44:41.000Z</time>
      </trkpt>
      <trkpt lat="42.891779" lon="0.734295">
        <ele>1077.6</ele>
        <time>1970-01-01T00:48:53.000Z</time>
      </trkpt>
      <trkpt lat="42.89173" lon="0.734121">
        <ele>1076.8</ele>
        <time>1970-01-01T00:48:57.000Z</time>
      </trkpt>
      <trkpt lat="42.891716" lon="0.734066">
        <ele>1076.2</ele>
        <time>1970-01-01T00:48:58.000Z</time>
      </trkpt>
      <trkpt lat="42.891696" lon="0.733961">
        <ele>1074.4</ele>
        <time>1970-01-01T00:49:00.000Z</time>
      </trkpt>
      <trkpt lat="42.89167" lon="0.733862">
        <ele>1072.8</ele>
        <time>1970-01-01T00:49:02.000Z</time>
      </trkpt>
      <trkpt lat="42.89165" lon="0.733747">
        <ele>1070.2</ele>
        <time>1970-01-01T00:49:04.000Z</time>
      </trkpt>
      <trkpt lat="42.891642" lon="0.733682">
        <ele>1069</ele>
        <time>1970-01-01T00:49:05.000Z</time>
      </trkpt>
      <trkpt lat="42.891638" lon="0.733618">
        <ele>1068</ele>
        <time>1970-01-01T00:49:06.000Z</time>
      </trkpt>
      <trkpt lat="42.891632" lon="0.733554">
        <ele>1066.6</ele>
        <time>1970-01-01T00:49:07.000Z</time>
      </trkpt>
      <trkpt lat="42.891626" lon="0.733492">
        <ele>1065</ele>
        <time>1970-01-01T00:49:08.000Z</time>
      </trkpt>
      <trkpt lat="42.891621" lon="0.733428">
        <ele>1064</ele>
        <time>1970-01-01T00:49:09.000Z</time>
      </trkpt>
      <trkpt lat="42.891619" lon="0.733364">
        <ele>1063</ele>
        <time>1970-01-01T00:49:10.000Z</time>
      </trkpt>
      <trkpt lat="42.89162" lon="0.7333">
        <ele>1062.2</ele>
        <time>1970-01-01T00:49:11.000Z</time>
      </trkpt>
      <trkpt lat="42.891621" lon="0.733233">
        <ele>1061.2</ele>
        <time>1970-01-01T00:49:12.000Z</time>
      </trkpt>
      <trkpt lat="42.891622" lon="0.733162">
        <ele>1060.2</ele>
        <time>1970-01-01T00:49:13.000Z</time>
      </trkpt>
      <trkpt lat="42.891626" lon="0.733091">
        <ele>1059.2</ele>
        <time>1970-01-01T00:49:14.000Z</time>
      </trkpt>
      <trkpt lat="42.891629" lon="0.733013">
        <ele>1057.8</ele>
        <time>1970-01-01T00:49:15.000Z</time>
      </trkpt>
      <trkpt lat="42.891635" lon="0.732934">
        <ele>1056.2</ele>
        <time>1970-01-01T00:49:16.000Z</time>
      </trkpt>
      <trkpt lat="42.891642" lon="0.732856">
        <ele>1054.8</ele>
        <time>1970-01-01T00:49:17.000Z</time>
      </trkpt>
      <trkpt lat="42.891653" lon="0.732779">
        <ele>1053.4</ele>
        <time>1970-01-01T00:49:18.000Z</time>
      </trkpt>
      <trkpt lat="42.891666" lon="0.732704">
        <ele>1052.2</ele>
        <time>1970-01-01T00:49:19.000Z</time>
      </trkpt>
      <trkpt lat="42.89168" lon="0.732631">
        <ele>1051</ele>
        <time>1970-01-01T00:49:20.000Z</time>
      </trkpt>
      <trkpt lat="42.891695" lon="0.732561">
        <ele>1050</ele>
        <time>1970-01-01T00:49:21.000Z</time>
      </trkpt>
      <trkpt lat="42.891728" lon="0.732428">
        <ele>1048.4</ele>
        <time>1970-01-01T00:49:23.000Z</time>
      </trkpt>
      <trkpt lat="42.891754" lon="0.732361">
        <ele>1047.4</ele>
        <time>1970-01-01T00:49:24.000Z</time>
      </trkpt>
      <trkpt lat="42.891778" lon="0.73229">
        <ele>1046</ele>
        <time>1970-01-01T00:49:25.000Z</time>
      </trkpt>
      <trkpt lat="42.891814" lon="0.732143">
        <ele>1044.2</ele>
        <time>1970-01-01T00:49:27.000Z</time>
      </trkpt>
      <trkpt lat="42.891837" lon="0.732007">
        <ele>1042.6</ele>
        <time>1970-01-01T00:49:29.000Z</time>
      </trkpt>
      <trkpt lat="42.891852" lon="0.731947">
        <ele>1041.4</ele>
        <time>1970-01-01T00:49:30.000Z</time>
      </trkpt>
      <trkpt lat="42.89187" lon="0.731829">
        <ele>1039.4</ele>
        <time>1970-01-01T00:49:32.000Z</time>
      </trkpt>
      <trkpt lat="42.891885" lon="0.731766">
        <ele>1037.2</ele>
        <time>1970-01-01T00:49:33.000Z</time>
      </trkpt>
      <trkpt lat="42.891896" lon="0.73169">
        <ele>1036</ele>
        <time>1970-01-01T00:49:34.000Z</time>
      </trkpt>
      <trkpt lat="42.891917" lon="0.731611">
        <ele>1034.8</ele>
        <time>1970-01-01T00:49:35.000Z</time>
      </trkpt>
      <trkpt lat="42.891935" lon="0.731531">
        <ele>1033.8</ele>
        <time>1970-01-01T00:49:36.000Z</time>
      </trkpt>
      <trkpt lat="42.891954" lon="0.731452">
        <ele>1032</ele>
        <time>1970-01-01T00:49:37.000Z</time>
      </trkpt>
      <trkpt lat="42.891975" lon="0.731379">
        <ele>1030.6</ele>
        <time>1970-01-01T00:49:38.000Z</time>
      </trkpt>
      <trkpt lat="42.892001" lon="0.731306">
        <ele>1029.2</ele>
        <time>1970-01-01T00:49:39.000Z</time>
      </trkpt>
      <trkpt lat="42.892028" lon="0.731246">
        <ele>1027.8</ele>
        <time>1970-01-01T00:49:40.000Z</time>
      </trkpt>
      <trkpt lat="42.892055" lon="0.731188">
        <ele>1026.6</ele>
        <time>1970-01-01T00:49:41.000Z</time>
      </trkpt>
      <trkpt lat="42.892087" lon="0.73113">
        <ele>1025.4</ele>
        <time>1970-01-01T00:49:42.000Z</time>
      </trkpt>
      <trkpt lat="42.89212" lon="0.731067">
        <ele>1024.6</ele>
        <time>1970-01-01T00:49:43.000Z</time>
      </trkpt>
      <trkpt lat="42.892157" lon="0.731006">
        <ele>1023.6</ele>
        <time>1970-01-01T00:49:44.000Z</time>
      </trkpt>
      <trkpt lat="42.892188" lon="0.730947">
        <ele>1022</ele>
        <time>1970-01-01T00:49:45.000Z</time>
      </trkpt>
      <trkpt lat="42.892213" lon="0.730897">
        <ele>1020.6</ele>
        <time>1970-01-01T00:49:46.000Z</time>
      </trkpt>
      <trkpt lat="42.892228" lon="0.730857">
        <ele>1019.2</ele>
        <time>1970-01-01T00:49:47.000Z</time>
      </trkpt>
      <trkpt lat="42.892226" lon="0.730834">
        <ele>1017.6</ele>
        <time>1970-01-01T00:49:48.000Z</time>
      </trkpt>
      <trkpt lat="42.892216" lon="0.730818">
        <ele>1016.6</ele>
        <time>1970-01-01T00:49:49.000Z</time>
      </trkpt>
      <trkpt lat="42.892186" lon="0.730825">
        <ele>1015.4</ele>
        <time>1970-01-01T00:49:51.000Z</time>
      </trkpt>
      <trkpt lat="42.892113" lon="0.730834">
        <ele>1014</ele>
        <time>1970-01-01T00:49:54.000Z</time>
      </trkpt>
      <trkpt lat="42.89206" lon="0.730833">
        <ele>1012.6</ele>
        <time>1970-01-01T00:49:56.000Z</time>
      </trkpt>
      <trkpt lat="42.892009" lon="0.730839">
        <ele>1011</ele>
        <time>1970-01-01T00:49:58.000Z</time>
      </trkpt>
      <trkpt lat="42.891953" lon="0.73085">
        <ele>1009.8</ele>
        <time>1970-01-01T00:50:00.000Z</time>
      </trkpt>
      <trkpt lat="42.891889" lon="0.730876">
        <ele>1008.2</ele>
        <time>1970-01-01T00:50:02.000Z</time>
      </trkpt>
      <trkpt lat="42.891827" lon="0.730898">
        <ele>1006.8</ele>
        <time>1970-01-01T00:50:04.000Z</time>
      </trkpt>
      <trkpt lat="42.891774" lon="0.730921">
        <ele>1005.2</ele>
        <time>1970-01-01T00:50:06.000Z</time>
      </trkpt>
      <trkpt lat="42.89173" lon="0.730949">
        <ele>1003.8</ele>
        <time>1970-01-01T00:50:08.000Z</time>
      </trkpt>
      <trkpt lat="42.891685" lon="0.730985">
        <ele>1002.4</ele>
        <time>1970-01-01T00:50:10.000Z</time>
      </trkpt>
      <trkpt lat="42.891624" lon="0.73103">
        <ele>1001.2</ele>
        <time>1970-01-01T00:50:13.000Z</time>
      </trkpt>
      <trkpt lat="42.89158" lon="0.731051">
        <ele>999.8</ele>
        <time>1970-01-01T00:50:15.000Z</time>
      </trkpt>
      <trkpt lat="42.891556" lon="0.731079">
        <ele>998.6</ele>
        <time>1970-01-01T00:50:17.000Z</time>
      </trkpt>
      <trkpt lat="42.891516" lon="0.731096">
        <ele>997.4</ele>
        <time>1970-01-01T00:50:19.000Z</time>
      </trkpt>
      <trkpt lat="42.891439" lon="0.731117">
        <ele>996.2</ele>
        <time>1970-01-01T00:50:22.000Z</time>
      </trkpt>
      <trkpt lat="42.891386" lon="0.731144">
        <ele>994.8</ele>
        <time>1970-01-01T00:50:24.000Z</time>
      </trkpt>
      <trkpt lat="42.891331" lon="0.731156">
        <ele>993.4</ele>
        <time>1970-01-01T00:50:26.000Z</time>
      </trkpt>
      <trkpt lat="42.891281" lon="0.731177">
        <ele>992.2</ele>
        <time>1970-01-01T00:50:28.000Z</time>
      </trkpt>
      <trkpt lat="42.891264" lon="0.731172">
        <ele>991.6</ele>
        <time>1970-01-01T00:50:29.000Z</time>
      </trkpt>
      <trkpt lat="42.891258" lon="0.731165">
        <ele>991</ele>
        <time>1970-01-01T00:50:30.000Z</time>
      </trkpt>
      <trkpt lat="42.891257" lon="0.731192">
        <ele>990</ele>
        <time>1970-01-01T00:50:36.000Z</time>
      </trkpt>
      <trkpt lat="42.891279" lon="0.731125">
        <ele>989.2</ele>
        <time>1970-01-01T00:50:57.000Z</time>
      </trkpt>
      <trkpt lat="42.891335" lon="0.731009">
        <ele>987.4</ele>
        <time>1970-01-01T00:51:00.000Z</time>
      </trkpt>
      <trkpt lat="42.891386" lon="0.730921">
        <ele>986.4</ele>
        <time>1970-01-01T00:51:02.000Z</time>
      </trkpt>
      <trkpt lat="42.89144" lon="0.730818">
        <ele>985.2</ele>
        <time>1970-01-01T00:51:04.000Z</time>
      </trkpt>
      <trkpt lat="42.891504" lon="0.73072">
        <ele>983.6</ele>
        <time>1970-01-01T00:51:06.000Z</time>
      </trkpt>
      <trkpt lat="42.891576" lon="0.730634">
        <ele>982</ele>
        <time>1970-01-01T00:51:08.000Z</time>
      </trkpt>
      <trkpt lat="42.891641" lon="0.730555">
        <ele>980.6</ele>
        <time>1970-01-01T00:51:10.000Z</time>
      </trkpt>
      <trkpt lat="42.891673" lon="0.730507">
        <ele>980</ele>
        <time>1970-01-01T00:51:11.000Z</time>
      </trkpt>
      <trkpt lat="42.891701" lon="0.730455">
        <ele>978.8</ele>
        <time>1970-01-01T00:51:12.000Z</time>
      </trkpt>
      <trkpt lat="42.891744" lon="0.730335">
        <ele>977.4</ele>
        <time>1970-01-01T00:51:14.000Z</time>
      </trkpt>
      <trkpt lat="42.891797" lon="0.730124">
        <ele>975.6</ele>
        <time>1970-01-01T00:51:17.000Z</time>
      </trkpt>
      <trkpt lat="42.891818" lon="0.730067">
        <ele>974.8</ele>
        <time>1970-01-01T00:51:18.000Z</time>
      </trkpt>
      <trkpt lat="42.891844" lon="0.730005">
        <ele>973.6</ele>
        <time>1970-01-01T00:51:19.000Z</time>
      </trkpt>
      <trkpt lat="42.891892" lon="0.72987">
        <ele>972</ele>
        <time>1970-01-01T00:51:21.000Z</time>
      </trkpt>
      <trkpt lat="42.891941" lon="0.729775">
        <ele>970.6</ele>
        <time>1970-01-01T00:51:23.000Z</time>
      </trkpt>
      <trkpt lat="42.892005" lon="0.729669">
        <ele>969.8</ele>
        <time>1970-01-01T00:51:25.000Z</time>
      </trkpt>
      <trkpt lat="42.892037" lon="0.729628">
        <ele>969.4</ele>
        <time>1970-01-01T00:51:26.000Z</time>
      </trkpt>
      <trkpt lat="42.892061" lon="0.729546">
        <ele>968.2</ele>
        <time>1970-01-01T00:51:28.000Z</time>
      </trkpt>
      <trkpt lat="42.892002" lon="0.729515">
        <ele>967</ele>
        <time>1970-01-01T00:51:30.000Z</time>
      </trkpt>
      <trkpt lat="42.891938" lon="0.72952">
        <ele>965.8</ele>
        <time>1970-01-01T00:51:32.000Z</time>
      </trkpt>
      <trkpt lat="42.891888" lon="0.729521">
        <ele>964.6</ele>
        <time>1970-01-01T00:51:34.000Z</time>
      </trkpt>
      <trkpt lat="42.89185" lon="0.729534">
        <ele>963.4</ele>
        <time>1970-01-01T00:51:37.000Z</time>
      </trkpt>
      <trkpt lat="42.891811" lon="0.729563">
        <ele>962.2</ele>
        <time>1970-01-01T00:51:40.000Z</time>
      </trkpt>
      <trkpt lat="42.89166" lon="0.72963">
        <ele>960.6</ele>
        <time>1970-01-01T00:51:44.000Z</time>
      </trkpt>
      <trkpt lat="42.891611" lon="0.729642">
        <ele>959.6</ele>
        <time>1970-01-01T00:51:45.000Z</time>
      </trkpt>
      <trkpt lat="42.891547" lon="0.729635">
        <ele>957.4</ele>
        <time>1970-01-01T00:51:47.000Z</time>
      </trkpt>
      <trkpt lat="42.89152" lon="0.729625">
        <ele>956.4</ele>
        <time>1970-01-01T00:51:48.000Z</time>
      </trkpt>
      <trkpt lat="42.891452" lon="0.729635">
        <ele>955.2</ele>
        <time>1970-01-01T00:51:50.000Z</time>
      </trkpt>
      <trkpt lat="42.891422" lon="0.729648">
        <ele>954.6</ele>
        <time>1970-01-01T00:51:51.000Z</time>
      </trkpt>
      <trkpt lat="42.891392" lon="0.72966">
        <ele>953.8</ele>
        <time>1970-01-01T00:51:52.000Z</time>
      </trkpt>
      <trkpt lat="42.891374" lon="0.729658">
        <ele>953.2</ele>
        <time>1970-01-01T00:51:53.000Z</time>
      </trkpt>
      <trkpt lat="42.891365" lon="0.729652">
        <ele>952.6</ele>
        <time>1970-01-01T00:51:54.000Z</time>
      </trkpt>
      <trkpt lat="42.891359" lon="0.72965">
        <ele>952.2</ele>
        <time>1970-01-01T00:51:59.000Z</time>
      </trkpt>
      <trkpt lat="42.89134" lon="0.72967">
        <ele>952.2</ele>
        <time>1970-01-01T00:53:05.000Z</time>
      </trkpt>
      <trkpt lat="42.8912" lon="0.729699">
        <ele>951.6</ele>
        <time>1970-01-01T00:53:10.000Z</time>
      </trkpt>
      <trkpt lat="42.891148" lon="0.729656">
        <ele>951</ele>
        <time>1970-01-01T00:53:12.000Z</time>
      </trkpt>
      <trkpt lat="42.891111" lon="0.729599">
        <ele>949.8</ele>
        <time>1970-01-01T00:53:14.000Z</time>
      </trkpt>
      <trkpt lat="42.891069" lon="0.729525">
        <ele>948.4</ele>
        <time>1970-01-01T00:53:16.000Z</time>
      </trkpt>
      <trkpt lat="42.891037" lon="0.729442">
        <ele>947.4</ele>
        <time>1970-01-01T00:53:18.000Z</time>
      </trkpt>
      <trkpt lat="42.89102" lon="0.729308">
        <ele>946</ele>
        <time>1970-01-01T00:53:21.000Z</time>
      </trkpt>
      <trkpt lat="42.891035" lon="0.72928">
        <ele>945.6</ele>
        <time>1970-01-01T00:53:22.000Z</time>
      </trkpt>
      <trkpt lat="42.891061" lon="0.729261">
        <ele>945</ele>
        <time>1970-01-01T00:53:23.000Z</time>
      </trkpt>
      <trkpt lat="42.891253" lon="0.729152">
        <ele>943.8</ele>
        <time>1970-01-01T00:53:28.000Z</time>
      </trkpt>
      <trkpt lat="42.891286" lon="0.729086">
        <ele>943</ele>
        <time>1970-01-01T00:53:30.000Z</time>
      </trkpt>
      <trkpt lat="42.891282" lon="0.729043">
        <ele>942.6</ele>
        <time>1970-01-01T00:53:31.000Z</time>
      </trkpt>
      <trkpt lat="42.891231" lon="0.728911">
        <ele>941.4</ele>
        <time>1970-01-01T00:53:34.000Z</time>
      </trkpt>
      <trkpt lat="42.891172" lon="0.72879">
        <ele>940</ele>
        <time>1970-01-01T00:53:37.000Z</time>
      </trkpt>
      <trkpt lat="42.891156" lon="0.728745">
        <ele>939.6</ele>
        <time>1970-01-01T00:53:38.000Z</time>
      </trkpt>
      <trkpt lat="42.891161" lon="0.728706">
        <ele>939</ele>
        <time>1970-01-01T00:53:39.000Z</time>
      </trkpt>
      <trkpt lat="42.891276" lon="0.72862">
        <ele>937.8</ele>
        <time>1970-01-01T00:53:42.000Z</time>
      </trkpt>
      <trkpt lat="42.891335" lon="0.728598">
        <ele>937.4</ele>
        <time>1970-01-01T00:53:43.000Z</time>
      </trkpt>
      <trkpt lat="42.89144" lon="0.728542">
        <ele>936.8</ele>
        <time>1970-01-01T00:53:45.000Z</time>
      </trkpt>
      <trkpt lat="42.891487" lon="0.728504">
        <ele>936.6</ele>
        <time>1970-01-01T00:53:46.000Z</time>
      </trkpt>
      <trkpt lat="42.891678" lon="0.728304">
        <ele>935.8</ele>
        <time>1970-01-01T00:53:50.000Z</time>
      </trkpt>
      <trkpt lat="42.891861" lon="0.72803">
        <ele>934.4</ele>
        <time>1970-01-01T00:53:54.000Z</time>
      </trkpt>
      <trkpt lat="42.892017" lon="0.727776">
        <ele>933</ele>
        <time>1970-01-01T00:53:57.000Z</time>
      </trkpt>
      <trkpt lat="42.892132" lon="0.727582">
        <ele>931.2</ele>
        <time>1970-01-01T00:53:59.000Z</time>
      </trkpt>
      <trkpt lat="42.892243" lon="0.727385">
        <ele>930</ele>
        <time>1970-01-01T00:54:01.000Z</time>
      </trkpt>
      <trkpt lat="42.892288" lon="0.727277">
        <ele>929</ele>
        <time>1970-01-01T00:54:02.000Z</time>
      </trkpt>
      <trkpt lat="42.892327" lon="0.727169">
        <ele>928</ele>
        <time>1970-01-01T00:54:03.000Z</time>
      </trkpt>
      <trkpt lat="42.8924" lon="0.726964">
        <ele>926.6</ele>
        <time>1970-01-01T00:54:05.000Z</time>
      </trkpt>
      <trkpt lat="42.892435" lon="0.726866">
        <ele>925.2</ele>
        <time>1970-01-01T00:54:06.000Z</time>
      </trkpt>
      <trkpt lat="42.892517" lon="0.726668">
        <ele>923.6</ele>
        <time>1970-01-01T00:54:08.000Z</time>
      </trkpt>
      <trkpt lat="42.89261" lon="0.726454">
        <ele>922</ele>
        <time>1970-01-01T00:54:10.000Z</time>
      </trkpt>
      <trkpt lat="42.892688" lon="0.726279">
        <ele>920.6</ele>
        <time>1970-01-01T00:54:12.000Z</time>
      </trkpt>
      <trkpt lat="42.892725" lon="0.726168">
        <ele>919</ele>
        <time>1970-01-01T00:54:14.000Z</time>
      </trkpt>
      <trkpt lat="42.892738" lon="0.726131">
        <ele>917.6</ele>
        <time>1970-01-01T00:54:16.000Z</time>
      </trkpt>
      <trkpt lat="42.89275" lon="0.726128">
        <ele>917.2</ele>
        <time>1970-01-01T00:54:17.000Z</time>
      </trkpt>
      <trkpt lat="42.892748" lon="0.726079">
        <ele>916.6</ele>
        <time>1970-01-01T00:54:20.000Z</time>
      </trkpt>
      <trkpt lat="42.892728" lon="0.72609">
        <ele>916.4</ele>
        <time>1970-01-01T00:54:22.000Z</time>
      </trkpt>
      <trkpt lat="42.892716" lon="0.726146">
        <ele>916.8</ele>
        <time>1970-01-01T00:54:25.000Z</time>
      </trkpt>
      <trkpt lat="42.892684" lon="0.726257">
        <ele>917.6</ele>
        <time>1970-01-01T00:54:33.000Z</time>
      </trkpt>
      <trkpt lat="42.892658" lon="0.726317">
        <ele>918</ele>
        <time>1970-01-01T00:54:43.000Z</time>
      </trkpt>
      <trkpt lat="42.892603" lon="0.726465">
        <ele>919</ele>
        <time>1970-01-01T00:54:50.000Z</time>
      </trkpt>
      <trkpt lat="42.892524" lon="0.726653">
        <ele>920.4</ele>
        <time>1970-01-01T00:54:58.000Z</time>
      </trkpt>
      <trkpt lat="42.892469" lon="0.726833">
        <ele>921.4</ele>
        <time>1970-01-01T00:55:05.000Z</time>
      </trkpt>
      <trkpt lat="42.892406" lon="0.72696">
        <ele>922.6</ele>
        <time>1970-01-01T00:55:10.000Z</time>
      </trkpt>
      <trkpt lat="42.892358" lon="0.727097">
        <ele>923.8</ele>
        <time>1970-01-01T00:55:15.000Z</time>
      </trkpt>
      <trkpt lat="42.892301" lon="0.727256">
        <ele>925</ele>
        <time>1970-01-01T00:55:21.000Z</time>
      </trkpt>
      <trkpt lat="42.89227" lon="0.727366">
        <ele>926.2</ele>
        <time>1970-01-01T00:55:26.000Z</time>
      </trkpt>
      <trkpt lat="42.892182" lon="0.727527">
        <ele>927.4</ele>
        <time>1970-01-01T00:55:33.000Z</time>
      </trkpt>
      <trkpt lat="42.892087" lon="0.727685">
        <ele>928.6</ele>
        <time>1970-01-01T00:55:40.000Z</time>
      </trkpt>
      <trkpt lat="42.89204" lon="0.727788">
        <ele>929.8</ele>
        <time>1970-01-01T00:55:44.000Z</time>
      </trkpt>
      <trkpt lat="42.89198" lon="0.727853">
        <ele>930.4</ele>
        <time>1970-01-01T00:55:48.000Z</time>
      </trkpt>
      <trkpt lat="42.891981" lon="0.727769">
        <ele>930.6</ele>
        <time>1970-01-01T00:55:53.000Z</time>
      </trkpt>
      <trkpt lat="42.892023" lon="0.727671">
        <ele>928.8</ele>
        <time>1970-01-01T00:55:57.000Z</time>
      </trkpt>
      <trkpt lat="42.892039" lon="0.727616">
        <ele>928</ele>
        <time>1970-01-01T00:55:59.000Z</time>
      </trkpt>
      <trkpt lat="42.892061" lon="0.727569">
        <ele>926.6</ele>
        <time>1970-01-01T00:56:01.000Z</time>
      </trkpt>
      <trkpt lat="42.89209" lon="0.727492">
        <ele>925.2</ele>
        <time>1970-01-01T00:56:04.000Z</time>
      </trkpt>
      <trkpt lat="42.892102" lon="0.727433">
        <ele>923.8</ele>
        <time>1970-01-01T00:56:06.000Z</time>
      </trkpt>
      <trkpt lat="42.892113" lon="0.727314">
        <ele>922</ele>
        <time>1970-01-01T00:56:09.000Z</time>
      </trkpt>
      <trkpt lat="42.892125" lon="0.727214">
        <ele>920.8</ele>
        <time>1970-01-01T00:56:11.000Z</time>
      </trkpt>
      <trkpt lat="42.892135" lon="0.727089">
        <ele>919</ele>
        <time>1970-01-01T00:56:13.000Z</time>
      </trkpt>
      <trkpt lat="42.89214" lon="0.726953">
        <ele>917.2</ele>
        <time>1970-01-01T00:56:15.000Z</time>
      </trkpt>
      <trkpt lat="42.892143" lon="0.726878">
        <ele>916.2</ele>
        <time>1970-01-01T00:56:16.000Z</time>
      </trkpt>
      <trkpt lat="42.892154" lon="0.726709">
        <ele>914</ele>
        <time>1970-01-01T00:56:18.000Z</time>
      </trkpt>
      <trkpt lat="42.892158" lon="0.726623">
        <ele>912.8</ele>
        <time>1970-01-01T00:56:19.000Z</time>
      </trkpt>
      <trkpt lat="42.892159" lon="0.726539">
        <ele>911.2</ele>
        <time>1970-01-01T00:56:20.000Z</time>
      </trkpt>
      <trkpt lat="42.892159" lon="0.726463">
        <ele>909.4</ele>
        <time>1970-01-01T00:56:21.000Z</time>
      </trkpt>
      <trkpt lat="42.89215" lon="0.726384">
        <ele>908.2</ele>
        <time>1970-01-01T00:56:22.000Z</time>
      </trkpt>
      <trkpt lat="42.892141" lon="0.72631">
        <ele>906.8</ele>
        <time>1970-01-01T00:56:23.000Z</time>
      </trkpt>
      <trkpt lat="42.892133" lon="0.726238">
        <ele>905.6</ele>
        <time>1970-01-01T00:56:24.000Z</time>
      </trkpt>
      <trkpt lat="42.892111" lon="0.72609">
        <ele>903.8</ele>
        <time>1970-01-01T00:56:26.000Z</time>
      </trkpt>
      <trkpt lat="42.892105" lon="0.72602">
        <ele>902.2</ele>
        <time>1970-01-01T00:56:27.000Z</time>
      </trkpt>
      <trkpt lat="42.892095" lon="0.725953">
        <ele>900.4</ele>
        <time>1970-01-01T00:56:28.000Z</time>
      </trkpt>
      <trkpt lat="42.892081" lon="0.72589">
        <ele>898.8</ele>
        <time>1970-01-01T00:56:29.000Z</time>
      </trkpt>
      <trkpt lat="42.892065" lon="0.725821">
        <ele>897.2</ele>
        <time>1970-01-01T00:56:30.000Z</time>
      </trkpt>
      <trkpt lat="42.892046" lon="0.725751">
        <ele>896</ele>
        <time>1970-01-01T00:56:31.000Z</time>
      </trkpt>
      <trkpt lat="42.892006" lon="0.725602">
        <ele>894.2</ele>
        <time>1970-01-01T00:56:33.000Z</time>
      </trkpt>
      <trkpt lat="42.891987" lon="0.725525">
        <ele>892.8</ele>
        <time>1970-01-01T00:56:34.000Z</time>
      </trkpt>
      <trkpt lat="42.891971" lon="0.725447">
        <ele>891.2</ele>
        <time>1970-01-01T00:56:35.000Z</time>
      </trkpt>
      <trkpt lat="42.891958" lon="0.725378">
        <ele>889.2</ele>
        <time>1970-01-01T00:56:36.000Z</time>
      </trkpt>
      <trkpt lat="42.891942" lon="0.725313">
        <ele>887.6</ele>
        <time>1970-01-01T00:56:37.000Z</time>
      </trkpt>
      <trkpt lat="42.891924" lon="0.72524">
        <ele>885.8</ele>
        <time>1970-01-01T00:56:38.000Z</time>
      </trkpt>
      <trkpt lat="42.891907" lon="0.725168">
        <ele>884.2</ele>
        <time>1970-01-01T00:56:39.000Z</time>
      </trkpt>
      <trkpt lat="42.891893" lon="0.725093">
        <ele>882.8</ele>
        <time>1970-01-01T00:56:40.000Z</time>
      </trkpt>
      <trkpt lat="42.891877" lon="0.725012">
        <ele>881.8</ele>
        <time>1970-01-01T00:56:41.000Z</time>
      </trkpt>
      <trkpt lat="42.891858" lon="0.724924">
        <ele>880.6</ele>
        <time>1970-01-01T00:56:42.000Z</time>
      </trkpt>
      <trkpt lat="42.891842" lon="0.724826">
        <ele>879</ele>
        <time>1970-01-01T00:56:43.000Z</time>
      </trkpt>
      <trkpt lat="42.891826" lon="0.724724">
        <ele>877.6</ele>
        <time>1970-01-01T00:56:44.000Z</time>
      </trkpt>
      <trkpt lat="42.891807" lon="0.724629">
        <ele>876.2</ele>
        <time>1970-01-01T00:56:45.000Z</time>
      </trkpt>
      <trkpt lat="42.89179" lon="0.724543">
        <ele>875.2</ele>
        <time>1970-01-01T00:56:46.000Z</time>
      </trkpt>
      <trkpt lat="42.891775" lon="0.724459">
        <ele>873.4</ele>
        <time>1970-01-01T00:56:47.000Z</time>
      </trkpt>
      <trkpt lat="42.891756" lon="0.724374">
        <ele>871.8</ele>
        <time>1970-01-01T00:56:48.000Z</time>
      </trkpt>
      <trkpt lat="42.891739" lon="0.724286">
        <ele>870.6</ele>
        <time>1970-01-01T00:56:49.000Z</time>
      </trkpt>
      <trkpt lat="42.891724" lon="0.724208">
        <ele>869.2</ele>
        <time>1970-01-01T00:56:50.000Z</time>
      </trkpt>
      <trkpt lat="42.89171" lon="0.724135">
        <ele>868.2</ele>
        <time>1970-01-01T00:56:51.000Z</time>
      </trkpt>
      <trkpt lat="42.891694" lon="0.724041">
        <ele>866.4</ele>
        <time>1970-01-01T00:56:53.000Z</time>
      </trkpt>
      <trkpt lat="42.891689" lon="0.724024">
        <ele>865.4</ele>
        <time>1970-01-01T00:56:54.000Z</time>
      </trkpt>
      <trkpt lat="42.891681" lon="0.724015">
        <ele>864.8</ele>
        <time>1970-01-01T00:56:55.000Z</time>
      </trkpt>
      <trkpt lat="42.891656" lon="0.723904">
        <ele>863.4</ele>
        <time>1970-01-01T00:57:00.000Z</time>
      </trkpt>
      <trkpt lat="42.891628" lon="0.723693">
        <ele>862.4</ele>
        <time>1970-01-01T00:57:03.000Z</time>
      </trkpt>
      <trkpt lat="42.891621" lon="0.72354">
        <ele>860.8</ele>
        <time>1970-01-01T00:57:05.000Z</time>
      </trkpt>
      <trkpt lat="42.891644" lon="0.723411">
        <ele>859.2</ele>
        <time>1970-01-01T00:57:07.000Z</time>
      </trkpt>
      <trkpt lat="42.891667" lon="0.723339">
        <ele>857.8</ele>
        <time>1970-01-01T00:57:08.000Z</time>
      </trkpt>
      <trkpt lat="42.891701" lon="0.723262">
        <ele>857</ele>
        <time>1970-01-01T00:57:09.000Z</time>
      </trkpt>
      <trkpt lat="42.891734" lon="0.723186">
        <ele>856</ele>
        <time>1970-01-01T00:57:10.000Z</time>
      </trkpt>
      <trkpt lat="42.891761" lon="0.723117">
        <ele>854.8</ele>
        <time>1970-01-01T00:57:11.000Z</time>
      </trkpt>
      <trkpt lat="42.891789" lon="0.723046">
        <ele>853.4</ele>
        <time>1970-01-01T00:57:12.000Z</time>
      </trkpt>
      <trkpt lat="42.89182" lon="0.722971">
        <ele>852.2</ele>
        <time>1970-01-01T00:57:13.000Z</time>
      </trkpt>
      <trkpt lat="42.891846" lon="0.722897">
        <ele>850.6</ele>
        <time>1970-01-01T00:57:14.000Z</time>
      </trkpt>
      <trkpt lat="42.891862" lon="0.722828">
        <ele>849.6</ele>
        <time>1970-01-01T00:57:15.000Z</time>
      </trkpt>
      <trkpt lat="42.891868" lon="0.722758">
        <ele>848.6</ele>
        <time>1970-01-01T00:57:16.000Z</time>
      </trkpt>
      <trkpt lat="42.891862" lon="0.722686">
        <ele>847.6</ele>
        <time>1970-01-01T00:57:17.000Z</time>
      </trkpt>
      <trkpt lat="42.891841" lon="0.72252">
        <ele>846.2</ele>
        <time>1970-01-01T00:57:19.000Z</time>
      </trkpt>
      <trkpt lat="42.891816" lon="0.72235">
        <ele>845</ele>
        <time>1970-01-01T00:57:21.000Z</time>
      </trkpt>
      <trkpt lat="42.891826" lon="0.722229">
        <ele>843.8</ele>
        <time>1970-01-01T00:57:23.000Z</time>
      </trkpt>
      <trkpt lat="42.891847" lon="0.722109">
        <ele>842.8</ele>
        <time>1970-01-01T00:57:25.000Z</time>
      </trkpt>
      <trkpt lat="42.891872" lon="0.721961">
        <ele>841.6</ele>
        <time>1970-01-01T00:57:27.000Z</time>
      </trkpt>
      <trkpt lat="42.891889" lon="0.721897">
        <ele>840.6</ele>
        <time>1970-01-01T00:57:28.000Z</time>
      </trkpt>
      <trkpt lat="42.8919" lon="0.721838">
        <ele>839.6</ele>
        <time>1970-01-01T00:57:29.000Z</time>
      </trkpt>
      <trkpt lat="42.891914" lon="0.721783">
        <ele>838.6</ele>
        <time>1970-01-01T00:57:30.000Z</time>
      </trkpt>
      <trkpt lat="42.891944" lon="0.721655">
        <ele>836.8</ele>
        <time>1970-01-01T00:57:32.000Z</time>
      </trkpt>
      <trkpt lat="42.891961" lon="0.721538">
        <ele>834.8</ele>
        <time>1970-01-01T00:57:34.000Z</time>
      </trkpt>
      <trkpt lat="42.891972" lon="0.721448">
        <ele>833</ele>
        <time>1970-01-01T00:57:36.000Z</time>
      </trkpt>
      <trkpt lat="42.891983" lon="0.721411">
        <ele>831.8</ele>
        <time>1970-01-01T00:57:37.000Z</time>
      </trkpt>
      <trkpt lat="42.891991" lon="0.721325">
        <ele>831</ele>
        <time>1970-01-01T00:57:39.000Z</time>
      </trkpt>
      <trkpt lat="42.892005" lon="0.721219">
        <ele>829.2</ele>
        <time>1970-01-01T00:57:41.000Z</time>
      </trkpt>
      <trkpt lat="42.892025" lon="0.721097">
        <ele>827.8</ele>
        <time>1970-01-01T00:57:43.000Z</time>
      </trkpt>
      <trkpt lat="42.892053" lon="0.720967">
        <ele>826</ele>
        <time>1970-01-01T00:57:45.000Z</time>
      </trkpt>
      <trkpt lat="42.89207" lon="0.720897">
        <ele>824.8</ele>
        <time>1970-01-01T00:57:46.000Z</time>
      </trkpt>
      <trkpt lat="42.892086" lon="0.720746">
        <ele>822.6</ele>
        <time>1970-01-01T00:57:48.000Z</time>
      </trkpt>
      <trkpt lat="42.892092" lon="0.720673">
        <ele>821.6</ele>
        <time>1970-01-01T00:57:49.000Z</time>
      </trkpt>
      <trkpt lat="42.892098" lon="0.720595">
        <ele>820.4</ele>
        <time>1970-01-01T00:57:50.000Z</time>
      </trkpt>
      <trkpt lat="42.892102" lon="0.720518">
        <ele>819.4</ele>
        <time>1970-01-01T00:57:51.000Z</time>
      </trkpt>
      <trkpt lat="42.892101" lon="0.720437">
        <ele>818.2</ele>
        <time>1970-01-01T00:57:52.000Z</time>
      </trkpt>
      <trkpt lat="42.892106" lon="0.720258">
        <ele>815.8</ele>
        <time>1970-01-01T00:57:54.000Z</time>
      </trkpt>
      <trkpt lat="42.892109" lon="0.720156">
        <ele>814.4</ele>
        <time>1970-01-01T00:57:55.000Z</time>
      </trkpt>
      <trkpt lat="42.89211" lon="0.720059">
        <ele>813.4</ele>
        <time>1970-01-01T00:57:56.000Z</time>
      </trkpt>
      <trkpt lat="42.892104" lon="0.719977">
        <ele>812.2</ele>
        <time>1970-01-01T00:57:57.000Z</time>
      </trkpt>
      <trkpt lat="42.892083" lon="0.719845">
        <ele>810.6</ele>
        <time>1970-01-01T00:57:59.000Z</time>
      </trkpt>
      <trkpt lat="42.892046" lon="0.719719">
        <ele>809.4</ele>
        <time>1970-01-01T00:58:01.000Z</time>
      </trkpt>
      <trkpt lat="42.892027" lon="0.719652">
        <ele>809</ele>
        <time>1970-01-01T00:58:02.000Z</time>
      </trkpt>
      <trkpt lat="42.891983" lon="0.719514">
        <ele>808</ele>
        <time>1970-01-01T00:58:04.000Z</time>
      </trkpt>
      <trkpt lat="42.891967" lon="0.719435">
        <ele>807.8</ele>
        <time>1970-01-01T00:58:05.000Z</time>
      </trkpt>
      <trkpt lat="42.891999" lon="0.719114">
        <ele>807</ele>
        <time>1970-01-01T00:58:09.000Z</time>
      </trkpt>
      <trkpt lat="42.892014" lon="0.718885">
        <ele>806</ele>
        <time>1970-01-01T00:58:12.000Z</time>
      </trkpt>
      <trkpt lat="42.892031" lon="0.718716">
        <ele>804</ele>
        <time>1970-01-01T00:58:14.000Z</time>
      </trkpt>
      <trkpt lat="42.89204" lon="0.718652">
        <ele>802.8</ele>
        <time>1970-01-01T00:58:15.000Z</time>
      </trkpt>
      <trkpt lat="42.89205" lon="0.718601">
        <ele>801.8</ele>
        <time>1970-01-01T00:58:16.000Z</time>
      </trkpt>
      <trkpt lat="42.892067" lon="0.718517">
        <ele>800.2</ele>
        <time>1970-01-01T00:58:18.000Z</time>
      </trkpt>
      <trkpt lat="42.892081" lon="0.718466">
        <ele>799</ele>
        <time>1970-01-01T00:58:20.000Z</time>
      </trkpt>
      <trkpt lat="42.892085" lon="0.718438">
        <ele>798.2</ele>
        <time>1970-01-01T00:58:22.000Z</time>
      </trkpt>
      <trkpt lat="42.892111" lon="0.718371">
        <ele>797.2</ele>
        <time>1970-01-01T00:58:39.000Z</time>
      </trkpt>
      <trkpt lat="42.892129" lon="0.718295">
        <ele>796</ele>
        <time>1970-01-01T00:58:41.000Z</time>
      </trkpt>
      <trkpt lat="42.892118" lon="0.718243">
        <ele>794.6</ele>
        <time>1970-01-01T00:58:43.000Z</time>
      </trkpt>
      <trkpt lat="42.892104" lon="0.718241">
        <ele>793.8</ele>
        <time>1970-01-01T00:58:45.000Z</time>
      </trkpt>
      <trkpt lat="42.892091" lon="0.718245">
        <ele>793.6</ele>
        <time>1970-01-01T00:58:46.000Z</time>
      </trkpt>
      <trkpt lat="42.891974" lon="0.718329">
        <ele>792</ele>
        <time>1970-01-01T00:58:50.000Z</time>
      </trkpt>
      <trkpt lat="42.891928" lon="0.718345">
        <ele>791.6</ele>
        <time>1970-01-01T00:58:51.000Z</time>
      </trkpt>
      <trkpt lat="42.89184" lon="0.718401">
        <ele>791</ele>
        <time>1970-01-01T00:58:53.000Z</time>
      </trkpt>
      <trkpt lat="42.891775" lon="0.7185">
        <ele>789.6</ele>
        <time>1970-01-01T00:58:55.000Z</time>
      </trkpt>
      <trkpt lat="42.891728" lon="0.718532">
        <ele>787.8</ele>
        <time>1970-01-01T00:58:56.000Z</time>
      </trkpt>
      <trkpt lat="42.891677" lon="0.718546">
        <ele>786.6</ele>
        <time>1970-01-01T00:58:57.000Z</time>
      </trkpt>
      <trkpt lat="42.891578" lon="0.718529">
        <ele>785.2</ele>
        <time>1970-01-01T00:58:59.000Z</time>
      </trkpt>
      <trkpt lat="42.891472" lon="0.718494">
        <ele>783.6</ele>
        <time>1970-01-01T00:59:01.000Z</time>
      </trkpt>
      <trkpt lat="42.891441" lon="0.718479">
        <ele>782.6</ele>
        <time>1970-01-01T00:59:02.000Z</time>
      </trkpt>
      <trkpt lat="42.891427" lon="0.718475">
        <ele>781.8</ele>
        <time>1970-01-01T00:59:03.000Z</time>
      </trkpt>
      <trkpt lat="42.891426" lon="0.718478">
        <ele>781.2</ele>
        <time>1970-01-01T00:59:05.000Z</time>
      </trkpt>
      <trkpt lat="42.89141" lon="0.718467">
        <ele>780.8</ele>
        <time>1970-01-01T00:59:52.000Z</time>
      </trkpt>
      <trkpt lat="42.891349" lon="0.71845">
        <ele>780.6</ele>
        <time>1970-01-01T00:59:54.000Z</time>
      </trkpt>
      <trkpt lat="42.891252" lon="0.718461">
        <ele>780.2</ele>
        <time>1970-01-01T00:59:56.000Z</time>
      </trkpt>
      <trkpt lat="42.891158" lon="0.718407">
        <ele>779.2</ele>
        <time>1970-01-01T00:59:58.000Z</time>
      </trkpt>
      <trkpt lat="42.891094" lon="0.71825">
        <ele>778</ele>
        <time>1970-01-01T01:00:00.000Z</time>
      </trkpt>
      <trkpt lat="42.891106" lon="0.718056">
        <ele>776.4</ele>
        <time>1970-01-01T01:00:02.000Z</time>
      </trkpt>
      <trkpt lat="42.891118" lon="0.717972">
        <ele>775.8</ele>
        <time>1970-01-01T01:00:03.000Z</time>
      </trkpt>
      <trkpt lat="42.891126" lon="0.7179">
        <ele>775.4</ele>
        <time>1970-01-01T01:00:04.000Z</time>
      </trkpt>
      <trkpt lat="42.891138" lon="0.717839">
        <ele>774.8</ele>
        <time>1970-01-01T01:00:05.000Z</time>
      </trkpt>
      <trkpt lat="42.891155" lon="0.717779">
        <ele>774</ele>
        <time>1970-01-01T01:00:06.000Z</time>
      </trkpt>
      <trkpt lat="42.8912" lon="0.717686">
        <ele>772.4</ele>
        <time>1970-01-01T01:00:08.000Z</time>
      </trkpt>
      <trkpt lat="42.891298" lon="0.7176">
        <ele>771.2</ele>
        <time>1970-01-01T01:00:11.000Z</time>
      </trkpt>
      <trkpt lat="42.891295" lon="0.717427">
        <ele>769.8</ele>
        <time>1970-01-01T01:00:15.000Z</time>
      </trkpt>
      <trkpt lat="42.891195" lon="0.717468">
        <ele>768.6</ele>
        <time>1970-01-01T01:00:18.000Z</time>
      </trkpt>
      <trkpt lat="42.891138" lon="0.717518">
        <ele>768</ele>
        <time>1970-01-01T01:00:22.000Z</time>
      </trkpt>
      <trkpt lat="42.891169" lon="0.717445">
        <ele>767.6</ele>
        <time>1970-01-01T01:00:27.000Z</time>
      </trkpt>
      <trkpt lat="42.891174" lon="0.717406">
        <ele>767.4</ele>
        <time>1970-01-01T01:00:28.000Z</time>
      </trkpt>
      <trkpt lat="42.891173" lon="0.717297">
        <ele>766.8</ele>
        <time>1970-01-01T01:00:30.000Z</time>
      </trkpt>
      <trkpt lat="42.891171" lon="0.717227">
        <ele>766.2</ele>
        <time>1970-01-01T01:00:31.000Z</time>
      </trkpt>
      <trkpt lat="42.891157" lon="0.717089">
        <ele>764.4</ele>
        <time>1970-01-01T01:00:33.000Z</time>
      </trkpt>
      <trkpt lat="42.891144" lon="0.717025">
        <ele>763.4</ele>
        <time>1970-01-01T01:00:34.000Z</time>
      </trkpt>
      <trkpt lat="42.891128" lon="0.716965">
        <ele>762.6</ele>
        <time>1970-01-01T01:00:35.000Z</time>
      </trkpt>
      <trkpt lat="42.891111" lon="0.716909">
        <ele>762.2</ele>
        <time>1970-01-01T01:00:36.000Z</time>
      </trkpt>
      <trkpt lat="42.891085" lon="0.716854">
        <ele>761</ele>
        <time>1970-01-01T01:00:37.000Z</time>
      </trkpt>
      <trkpt lat="42.891026" lon="0.716752">
        <ele>759.2</ele>
        <time>1970-01-01T01:00:39.000Z</time>
      </trkpt>
      <trkpt lat="42.890973" lon="0.716657">
        <ele>757.8</ele>
        <time>1970-01-01T01:00:41.000Z</time>
      </trkpt>
      <trkpt lat="42.890945" lon="0.716617">
        <ele>756.4</ele>
        <time>1970-01-01T01:00:42.000Z</time>
      </trkpt>
      <trkpt lat="42.890888" lon="0.716569">
        <ele>755.2</ele>
        <time>1970-01-01T01:00:44.000Z</time>
      </trkpt>
      <trkpt lat="42.890822" lon="0.716532">
        <ele>754</ele>
        <time>1970-01-01T01:00:46.000Z</time>
      </trkpt>
      <trkpt lat="42.89075" lon="0.716518">
        <ele>752.6</ele>
        <time>1970-01-01T01:00:48.000Z</time>
      </trkpt>
      <trkpt lat="42.890701" lon="0.716521">
        <ele>752</ele>
        <time>1970-01-01T01:00:49.000Z</time>
      </trkpt>
      <trkpt lat="42.890653" lon="0.716529">
        <ele>751.2</ele>
        <time>1970-01-01T01:00:50.000Z</time>
      </trkpt>
      <trkpt lat="42.890612" lon="0.716542">
        <ele>750.2</ele>
        <time>1970-01-01T01:00:51.000Z</time>
      </trkpt>
      <trkpt lat="42.890526" lon="0.716577">
        <ele>748.6</ele>
        <time>1970-01-01T01:00:53.000Z</time>
      </trkpt>
      <trkpt lat="42.890437" lon="0.716615">
        <ele>746.8</ele>
        <time>1970-01-01T01:00:55.000Z</time>
      </trkpt>
      <trkpt lat="42.890348" lon="0.716667">
        <ele>744.8</ele>
        <time>1970-01-01T01:00:57.000Z</time>
      </trkpt>
      <trkpt lat="42.89027" lon="0.716717">
        <ele>742.6</ele>
        <time>1970-01-01T01:00:59.000Z</time>
      </trkpt>
      <trkpt lat="42.890233" lon="0.71674">
        <ele>741</ele>
        <time>1970-01-01T01:01:00.000Z</time>
      </trkpt>
      <trkpt lat="42.890201" lon="0.71677">
        <ele>740</ele>
        <time>1970-01-01T01:01:01.000Z</time>
      </trkpt>
      <trkpt lat="42.890166" lon="0.716811">
        <ele>739</ele>
        <time>1970-01-01T01:01:02.000Z</time>
      </trkpt>
      <trkpt lat="42.890131" lon="0.716864">
        <ele>738.2</ele>
        <time>1970-01-01T01:01:03.000Z</time>
      </trkpt>
      <trkpt lat="42.890052" lon="0.716975">
        <ele>736.8</ele>
        <time>1970-01-01T01:01:05.000Z</time>
      </trkpt>
      <trkpt lat="42.889999" lon="0.717025">
        <ele>736</ele>
        <time>1970-01-01T01:01:06.000Z</time>
      </trkpt>
      <trkpt lat="42.88995" lon="0.717075">
        <ele>735.6</ele>
        <time>1970-01-01T01:01:07.000Z</time>
      </trkpt>
      <trkpt lat="42.889896" lon="0.717117">
        <ele>734.8</ele>
        <time>1970-01-01T01:01:08.000Z</time>
      </trkpt>
      <trkpt lat="42.889836" lon="0.717157">
        <ele>733.6</ele>
        <time>1970-01-01T01:01:09.000Z</time>
      </trkpt>
      <trkpt lat="42.889721" lon="0.717223">
        <ele>732</ele>
        <time>1970-01-01T01:01:11.000Z</time>
      </trkpt>
      <trkpt lat="42.889673" lon="0.717253">
        <ele>731.4</ele>
        <time>1970-01-01T01:01:12.000Z</time>
      </trkpt>
      <trkpt lat="42.889632" lon="0.717279">
        <ele>731</ele>
        <time>1970-01-01T01:01:13.000Z</time>
      </trkpt>
      <trkpt lat="42.889556" lon="0.717333">
        <ele>730</ele>
        <time>1970-01-01T01:01:17.000Z</time>
      </trkpt>
      <trkpt lat="42.889547" lon="0.717352">
        <ele>729.8</ele>
        <time>1970-01-01T01:01:18.000Z</time>
      </trkpt>
      <trkpt lat="42.889336" lon="0.717638">
        <ele>730.6</ele>
        <time>1970-01-01T01:01:31.000Z</time>
      </trkpt>
      <trkpt lat="42.889263" lon="0.717565">
        <ele>730.8</ele>
        <time>1970-01-01T01:01:36.000Z</time>
      </trkpt>
      <trkpt lat="42.88921" lon="0.717526">
        <ele>731.2</ele>
        <time>1970-01-01T01:01:39.000Z</time>
      </trkpt>
      <trkpt lat="42.889193" lon="0.717527">
        <ele>731.4</ele>
        <time>1970-01-01T01:01:40.000Z</time>
      </trkpt>
      <trkpt lat="42.889024" lon="0.717748">
        <ele>732.2</ele>
        <time>1970-01-01T01:01:52.000Z</time>
      </trkpt>
      <trkpt lat="42.888798" lon="0.717967">
        <ele>732.8</ele>
        <time>1970-01-01T01:02:04.000Z</time>
      </trkpt>
      <trkpt lat="42.888739" lon="0.717948">
        <ele>733</ele>
        <time>1970-01-01T01:02:09.000Z</time>
      </trkpt>
      <trkpt lat="42.888845" lon="0.717846">
        <ele>732.6</ele>
        <time>1970-01-01T01:02:25.000Z</time>
      </trkpt>
      <trkpt lat="42.888852" lon="0.717768">
        <ele>733.2</ele>
        <time>1970-01-01T01:02:29.000Z</time>
      </trkpt>
      <trkpt lat="42.888846" lon="0.717727">
        <ele>733.8</ele>
        <time>1970-01-01T01:02:31.000Z</time>
      </trkpt>
      <trkpt lat="42.888593" lon="0.717389">
        <ele>735.2</ele>
        <time>1970-01-01T01:02:49.000Z</time>
      </trkpt>
      <trkpt lat="42.888565" lon="0.71736">
        <ele>735.6</ele>
        <time>1970-01-01T01:02:51.000Z</time>
      </trkpt>
      <trkpt lat="42.888515" lon="0.717361">
        <ele>736.2</ele>
        <time>1970-01-01T01:02:54.000Z</time>
      </trkpt>
      <trkpt lat="42.888479" lon="0.71738">
        <ele>736.8</ele>
        <time>1970-01-01T01:02:56.000Z</time>
      </trkpt>
      <trkpt lat="42.88841" lon="0.717441">
        <ele>737.4</ele>
        <time>1970-01-01T01:03:00.000Z</time>
      </trkpt>
      <trkpt lat="42.888332" lon="0.717513">
        <ele>738.8</ele>
        <time>1970-01-01T01:03:04.000Z</time>
      </trkpt>
      <trkpt lat="42.887821" lon="0.717784">
        <ele>740</ele>
        <time>1970-01-01T01:03:23.000Z</time>
      </trkpt>
      <trkpt lat="42.887726" lon="0.717866">
        <ele>741.4</ele>
        <time>1970-01-01T01:03:28.000Z</time>
      </trkpt>
      <trkpt lat="42.887539" lon="0.718022">
        <ele>742.4</ele>
        <time>1970-01-01T01:03:36.000Z</time>
      </trkpt>
      <trkpt lat="42.887276" lon="0.718243">
        <ele>743.6</ele>
        <time>1970-01-01T01:03:48.000Z</time>
      </trkpt>
      <trkpt lat="42.887098" lon="0.718344">
        <ele>744.6</ele>
        <time>1970-01-01T01:03:56.000Z</time>
      </trkpt>
      <trkpt lat="42.88676" lon="0.718607">
        <ele>746.2</ele>
        <time>1970-01-01T01:04:12.000Z</time>
      </trkpt>
      <trkpt lat="42.886609" lon="0.718702">
        <ele>747.2</ele>
        <time>1970-01-01T01:04:19.000Z</time>
      </trkpt>
      <trkpt lat="42.886552" lon="0.718765">
        <ele>748.6</ele>
        <time>1970-01-01T01:04:22.000Z</time>
      </trkpt>
      <trkpt lat="42.886443" lon="0.718892">
        <ele>749.8</ele>
        <time>1970-01-01T01:04:28.000Z</time>
      </trkpt>
      <trkpt lat="42.886353" lon="0.718979">
        <ele>751</ele>
        <time>1970-01-01T01:04:33.000Z</time>
      </trkpt>
      <trkpt lat="42.886272" lon="0.719025">
        <ele>752.2</ele>
        <time>1970-01-01T01:04:37.000Z</time>
      </trkpt>
      <trkpt lat="42.886168" lon="0.719092">
        <ele>753.2</ele>
        <time>1970-01-01T01:04:43.000Z</time>
      </trkpt>
      <trkpt lat="42.886124" lon="0.719125">
        <ele>753.6</ele>
        <time>1970-01-01T01:04:46.000Z</time>
      </trkpt>
      <trkpt lat="42.88609" lon="0.719127">
        <ele>753.8</ele>
        <time>1970-01-01T01:04:50.000Z</time>
      </trkpt>
      <trkpt lat="42.886064" lon="0.719151">
        <ele>754</ele>
        <time>1970-01-01T01:05:27.000Z</time>
      </trkpt>
      <trkpt lat="42.88575" lon="0.719437">
        <ele>755.4</ele>
        <time>1970-01-01T01:05:41.000Z</time>
      </trkpt>
      <trkpt lat="42.885701" lon="0.719501">
        <ele>756.4</ele>
        <time>1970-01-01T01:05:44.000Z</time>
      </trkpt>
      <trkpt lat="42.885651" lon="0.719573">
        <ele>757.4</ele>
        <time>1970-01-01T01:05:47.000Z</time>
      </trkpt>
      <trkpt lat="42.885576" lon="0.719671">
        <ele>758.8</ele>
        <time>1970-01-01T01:05:51.000Z</time>
      </trkpt>
      <trkpt lat="42.885344" lon="0.719915">
        <ele>760.2</ele>
        <time>1970-01-01T01:06:03.000Z</time>
      </trkpt>
      <trkpt lat="42.885158" lon="0.720111">
        <ele>761.4</ele>
        <time>1970-01-01T01:06:12.000Z</time>
      </trkpt>
      <trkpt lat="42.885013" lon="0.72041">
        <ele>762.2</ele>
        <time>1970-01-01T01:06:25.000Z</time>
      </trkpt>
      <trkpt lat="42.884969" lon="0.720416">
        <ele>762</ele>
        <time>1970-01-01T01:06:36.000Z</time>
      </trkpt>
      <trkpt lat="42.884936" lon="0.720505">
        <ele>760.8</ele>
        <time>1970-01-01T01:06:39.000Z</time>
      </trkpt>
      <trkpt lat="42.884933" lon="0.7206">
        <ele>759.8</ele>
        <time>1970-01-01T01:06:42.000Z</time>
      </trkpt>
      <trkpt lat="42.884968" lon="0.720768">
        <ele>758.4</ele>
        <time>1970-01-01T01:06:46.000Z</time>
      </trkpt>
      <trkpt lat="42.885009" lon="0.720997">
        <ele>756.8</ele>
        <time>1970-01-01T01:06:49.000Z</time>
      </trkpt>
      <trkpt lat="42.885022" lon="0.721196">
        <ele>755.8</ele>
        <time>1970-01-01T01:06:51.000Z</time>
      </trkpt>
      <trkpt lat="42.885024" lon="0.721289">
        <ele>754.6</ele>
        <time>1970-01-01T01:06:52.000Z</time>
      </trkpt>
      <trkpt lat="42.88502" lon="0.721382">
        <ele>753.2</ele>
        <time>1970-01-01T01:06:53.000Z</time>
      </trkpt>
      <trkpt lat="42.885013" lon="0.721477">
        <ele>751.4</ele>
        <time>1970-01-01T01:06:54.000Z</time>
      </trkpt>
      <trkpt lat="42.885" lon="0.721575">
        <ele>750.2</ele>
        <time>1970-01-01T01:06:55.000Z</time>
      </trkpt>
      <trkpt lat="42.884985" lon="0.721668">
        <ele>748.8</ele>
        <time>1970-01-01T01:06:56.000Z</time>
      </trkpt>
      <trkpt lat="42.884968" lon="0.721754">
        <ele>747.4</ele>
        <time>1970-01-01T01:06:57.000Z</time>
      </trkpt>
      <trkpt lat="42.884943" lon="0.721834">
        <ele>745.6</ele>
        <time>1970-01-01T01:06:58.000Z</time>
      </trkpt>
      <trkpt lat="42.884918" lon="0.721917">
        <ele>744.6</ele>
        <time>1970-01-01T01:06:59.000Z</time>
      </trkpt>
      <trkpt lat="42.884907" lon="0.722007">
        <ele>743.2</ele>
        <time>1970-01-01T01:07:00.000Z</time>
      </trkpt>
      <trkpt lat="42.884913" lon="0.722088">
        <ele>741.2</ele>
        <time>1970-01-01T01:07:01.000Z</time>
      </trkpt>
      <trkpt lat="42.884935" lon="0.722165">
        <ele>739.6</ele>
        <time>1970-01-01T01:07:02.000Z</time>
      </trkpt>
      <trkpt lat="42.884964" lon="0.722246">
        <ele>738.6</ele>
        <time>1970-01-01T01:07:03.000Z</time>
      </trkpt>
      <trkpt lat="42.884997" lon="0.72233">
        <ele>737.2</ele>
        <time>1970-01-01T01:07:04.000Z</time>
      </trkpt>
      <trkpt lat="42.885036" lon="0.722419">
        <ele>736</ele>
        <time>1970-01-01T01:07:05.000Z</time>
      </trkpt>
      <trkpt lat="42.885081" lon="0.722512">
        <ele>734.8</ele>
        <time>1970-01-01T01:07:06.000Z</time>
      </trkpt>
      <trkpt lat="42.885124" lon="0.722607">
        <ele>733.6</ele>
        <time>1970-01-01T01:07:07.000Z</time>
      </trkpt>
      <trkpt lat="42.885164" lon="0.722703">
        <ele>732</ele>
        <time>1970-01-01T01:07:08.000Z</time>
      </trkpt>
      <trkpt lat="42.885201" lon="0.722804">
        <ele>731</ele>
        <time>1970-01-01T01:07:09.000Z</time>
      </trkpt>
      <trkpt lat="42.885234" lon="0.722902">
        <ele>728.2</ele>
        <time>1970-01-01T01:07:10.000Z</time>
      </trkpt>
      <trkpt lat="42.88527" lon="0.723001">
        <ele>727</ele>
        <time>1970-01-01T01:07:11.000Z</time>
      </trkpt>
      <trkpt lat="42.885347" lon="0.723186">
        <ele>724.2</ele>
        <time>1970-01-01T01:07:13.000Z</time>
      </trkpt>
      <trkpt lat="42.88539" lon="0.723281">
        <ele>722.2</ele>
        <time>1970-01-01T01:07:14.000Z</time>
      </trkpt>
      <trkpt lat="42.885436" lon="0.723371">
        <ele>720.6</ele>
        <time>1970-01-01T01:07:15.000Z</time>
      </trkpt>
      <trkpt lat="42.885527" lon="0.723536">
        <ele>718</ele>
        <time>1970-01-01T01:07:17.000Z</time>
      </trkpt>
      <trkpt lat="42.885569" lon="0.723611">
        <ele>716</ele>
        <time>1970-01-01T01:07:18.000Z</time>
      </trkpt>
      <trkpt lat="42.885606" lon="0.723686">
        <ele>714.6</ele>
        <time>1970-01-01T01:07:19.000Z</time>
      </trkpt>
      <trkpt lat="42.885665" lon="0.723843">
        <ele>713</ele>
        <time>1970-01-01T01:07:21.000Z</time>
      </trkpt>
      <trkpt lat="42.88568" lon="0.723933">
        <ele>711.4</ele>
        <time>1970-01-01T01:07:22.000Z</time>
      </trkpt>
      <trkpt lat="42.885686" lon="0.724022">
        <ele>710.4</ele>
        <time>1970-01-01T01:07:23.000Z</time>
      </trkpt>
      <trkpt lat="42.885695" lon="0.724187">
        <ele>708.4</ele>
        <time>1970-01-01T01:07:25.000Z</time>
      </trkpt>
      <trkpt lat="42.8857" lon="0.724239">
        <ele>707.2</ele>
        <time>1970-01-01T01:07:26.000Z</time>
      </trkpt>
      <trkpt lat="42.885708" lon="0.724257">
        <ele>706.2</ele>
        <time>1970-01-01T01:07:27.000Z</time>
      </trkpt>
      <trkpt lat="42.885712" lon="0.724271">
        <ele>705</ele>
        <time>1970-01-01T01:07:29.000Z</time>
      </trkpt>
      <trkpt lat="42.885697" lon="0.724288">
        <ele>704.4</ele>
        <time>1970-01-01T01:08:37.000Z</time>
      </trkpt>
      <trkpt lat="42.885634" lon="0.724228">
        <ele>703.4</ele>
        <time>1970-01-01T01:08:42.000Z</time>
      </trkpt>
      <trkpt lat="42.885609" lon="0.724225">
        <ele>702.8</ele>
        <time>1970-01-01T01:08:45.000Z</time>
      </trkpt>
      <trkpt lat="42.885592" lon="0.724129">
        <ele>702.6</ele>
        <time>1970-01-01T01:13:10.000Z</time>
      </trkpt>
      <trkpt lat="42.88553" lon="0.723973">
        <ele>701.4</ele>
        <time>1970-01-01T01:13:14.000Z</time>
      </trkpt>
      <trkpt lat="42.88538" lon="0.723866">
        <ele>700</ele>
        <time>1970-01-01T01:13:17.000Z</time>
      </trkpt>
      <trkpt lat="42.885315" lon="0.723838">
        <ele>699.4</ele>
        <time>1970-01-01T01:13:18.000Z</time>
      </trkpt>
      <trkpt lat="42.885239" lon="0.723805">
        <ele>698.8</ele>
        <time>1970-01-01T01:13:19.000Z</time>
      </trkpt>
      <trkpt lat="42.88513" lon="0.723747">
        <ele>697.2</ele>
        <time>1970-01-01T01:13:21.000Z</time>
      </trkpt>
      <trkpt lat="42.885055" lon="0.723712">
        <ele>695.6</ele>
        <time>1970-01-01T01:13:23.000Z</time>
      </trkpt>
      <trkpt lat="42.884881" lon="0.723622">
        <ele>694.4</ele>
        <time>1970-01-01T01:13:27.000Z</time>
      </trkpt>
      <trkpt lat="42.884722" lon="0.723436">
        <ele>693.4</ele>
        <time>1970-01-01T01:13:31.000Z</time>
      </trkpt>
      <trkpt lat="42.884475" lon="0.723377">
        <ele>692.2</ele>
        <time>1970-01-01T01:13:35.000Z</time>
      </trkpt>
      <trkpt lat="42.884417" lon="0.723391">
        <ele>691.8</ele>
        <time>1970-01-01T01:13:36.000Z</time>
      </trkpt>
      <trkpt lat="42.884267" lon="0.723415">
        <ele>690.8</ele>
        <time>1970-01-01T01:13:39.000Z</time>
      </trkpt>
      <trkpt lat="42.88402" lon="0.723395">
        <ele>689.6</ele>
        <time>1970-01-01T01:13:44.000Z</time>
      </trkpt>
      <trkpt lat="42.883968" lon="0.723379">
        <ele>689.4</ele>
        <time>1970-01-01T01:13:45.000Z</time>
      </trkpt>
      <trkpt lat="42.883862" lon="0.723329">
        <ele>688.8</ele>
        <time>1970-01-01T01:13:47.000Z</time>
      </trkpt>
      <trkpt lat="42.883804" lon="0.723299">
        <ele>688.6</ele>
        <time>1970-01-01T01:13:48.000Z</time>
      </trkpt>
      <trkpt lat="42.883691" lon="0.723224">
        <ele>688</ele>
        <time>1970-01-01T01:13:50.000Z</time>
      </trkpt>
      <trkpt lat="42.883578" lon="0.723116">
        <ele>687.2</ele>
        <time>1970-01-01T01:13:52.000Z</time>
      </trkpt>
      <trkpt lat="42.883468" lon="0.723016">
        <ele>686.8</ele>
        <time>1970-01-01T01:13:54.000Z</time>
      </trkpt>
      <trkpt lat="42.883339" lon="0.722975">
        <ele>685.8</ele>
        <time>1970-01-01T01:13:56.000Z</time>
      </trkpt>
      <trkpt lat="42.883138" lon="0.722998">
        <ele>684.8</ele>
        <time>1970-01-01T01:13:59.000Z</time>
      </trkpt>
      <trkpt lat="42.882997" lon="0.723067">
        <ele>682.8</ele>
        <time>1970-01-01T01:14:01.000Z</time>
      </trkpt>
      <trkpt lat="42.882923" lon="0.723111">
        <ele>682</ele>
        <time>1970-01-01T01:14:02.000Z</time>
      </trkpt>
      <trkpt lat="42.882852" lon="0.723157">
        <ele>681</ele>
        <time>1970-01-01T01:14:03.000Z</time>
      </trkpt>
      <trkpt lat="42.882702" lon="0.723242">
        <ele>679.2</ele>
        <time>1970-01-01T01:14:05.000Z</time>
      </trkpt>
      <trkpt lat="42.882622" lon="0.723293">
        <ele>677.8</ele>
        <time>1970-01-01T01:14:06.000Z</time>
      </trkpt>
      <trkpt lat="42.882546" lon="0.723344">
        <ele>676.6</ele>
        <time>1970-01-01T01:14:07.000Z</time>
      </trkpt>
      <trkpt lat="42.882479" lon="0.72341">
        <ele>675.6</ele>
        <time>1970-01-01T01:14:08.000Z</time>
      </trkpt>
      <trkpt lat="42.882416" lon="0.723475">
        <ele>674.6</ele>
        <time>1970-01-01T01:14:09.000Z</time>
      </trkpt>
      <trkpt lat="42.882284" lon="0.723588">
        <ele>673.4</ele>
        <time>1970-01-01T01:14:11.000Z</time>
      </trkpt>
      <trkpt lat="42.882089" lon="0.723754">
        <ele>672</ele>
        <time>1970-01-01T01:14:14.000Z</time>
      </trkpt>
      <trkpt lat="42.881943" lon="0.723898">
        <ele>670.6</ele>
        <time>1970-01-01T01:14:16.000Z</time>
      </trkpt>
      <trkpt lat="42.88181" lon="0.72407">
        <ele>668.8</ele>
        <time>1970-01-01T01:14:18.000Z</time>
      </trkpt>
      <trkpt lat="42.881759" lon="0.724163">
        <ele>668.2</ele>
        <time>1970-01-01T01:14:19.000Z</time>
      </trkpt>
      <trkpt lat="42.881714" lon="0.724259">
        <ele>667.2</ele>
        <time>1970-01-01T01:14:20.000Z</time>
      </trkpt>
      <trkpt lat="42.881627" lon="0.724463">
        <ele>665.8</ele>
        <time>1970-01-01T01:14:22.000Z</time>
      </trkpt>
      <trkpt lat="42.881578" lon="0.724563">
        <ele>665.2</ele>
        <time>1970-01-01T01:14:23.000Z</time>
      </trkpt>
      <trkpt lat="42.881526" lon="0.724664">
        <ele>664.6</ele>
        <time>1970-01-01T01:14:24.000Z</time>
      </trkpt>
      <trkpt lat="42.881405" lon="0.724876">
        <ele>663</ele>
        <time>1970-01-01T01:14:26.000Z</time>
      </trkpt>
      <trkpt lat="42.881285" lon="0.725066">
        <ele>661.4</ele>
        <time>1970-01-01T01:14:28.000Z</time>
      </trkpt>
      <trkpt lat="42.881175" lon="0.72526">
        <ele>659.6</ele>
        <time>1970-01-01T01:14:30.000Z</time>
      </trkpt>
      <trkpt lat="42.881051" lon="0.725442">
        <ele>657.8</ele>
        <time>1970-01-01T01:14:32.000Z</time>
      </trkpt>
      <trkpt lat="42.881" lon="0.725542">
        <ele>657.2</ele>
        <time>1970-01-01T01:14:33.000Z</time>
      </trkpt>
      <trkpt lat="42.880918" lon="0.725749">
        <ele>656.2</ele>
        <time>1970-01-01T01:14:35.000Z</time>
      </trkpt>
      <trkpt lat="42.880816" lon="0.72593">
        <ele>655.6</ele>
        <time>1970-01-01T01:14:37.000Z</time>
      </trkpt>
      <trkpt lat="42.880705" lon="0.726067">
        <ele>655.2</ele>
        <time>1970-01-01T01:14:39.000Z</time>
      </trkpt>
      <trkpt lat="42.880585" lon="0.726156">
        <ele>654.2</ele>
        <time>1970-01-01T01:14:41.000Z</time>
      </trkpt>
      <trkpt lat="42.880532" lon="0.72621">
        <ele>654</ele>
        <time>1970-01-01T01:14:42.000Z</time>
      </trkpt>
      <trkpt lat="42.880424" lon="0.726364">
        <ele>652.8</ele>
        <time>1970-01-01T01:14:44.000Z</time>
      </trkpt>
      <trkpt lat="42.880378" lon="0.726463">
        <ele>652.2</ele>
        <time>1970-01-01T01:14:45.000Z</time>
      </trkpt>
      <trkpt lat="42.88033" lon="0.726569">
        <ele>651.4</ele>
        <time>1970-01-01T01:14:46.000Z</time>
      </trkpt>
      <trkpt lat="42.880232" lon="0.726786">
        <ele>649.8</ele>
        <time>1970-01-01T01:14:48.000Z</time>
      </trkpt>
      <trkpt lat="42.880183" lon="0.726898">
        <ele>648.6</ele>
        <time>1970-01-01T01:14:49.000Z</time>
      </trkpt>
      <trkpt lat="42.880086" lon="0.727137">
        <ele>647</ele>
        <time>1970-01-01T01:14:51.000Z</time>
      </trkpt>
      <trkpt lat="42.879978" lon="0.727381">
        <ele>645.2</ele>
        <time>1970-01-01T01:14:53.000Z</time>
      </trkpt>
      <trkpt lat="42.879867" lon="0.727624">
        <ele>642.8</ele>
        <time>1970-01-01T01:14:55.000Z</time>
      </trkpt>
      <trkpt lat="42.879819" lon="0.72774">
        <ele>641.6</ele>
        <time>1970-01-01T01:14:56.000Z</time>
      </trkpt>
      <trkpt lat="42.879765" lon="0.727842">
        <ele>640.2</ele>
        <time>1970-01-01T01:14:57.000Z</time>
      </trkpt>
      <trkpt lat="42.879703" lon="0.727932">
        <ele>639.2</ele>
        <time>1970-01-01T01:14:58.000Z</time>
      </trkpt>
      <trkpt lat="42.879574" lon="0.728114">
        <ele>637.4</ele>
        <time>1970-01-01T01:15:00.000Z</time>
      </trkpt>
      <trkpt lat="42.879526" lon="0.728211">
        <ele>636.6</ele>
        <time>1970-01-01T01:15:01.000Z</time>
      </trkpt>
      <trkpt lat="42.879477" lon="0.728309">
        <ele>636</ele>
        <time>1970-01-01T01:15:02.000Z</time>
      </trkpt>
      <trkpt lat="42.879411" lon="0.728391">
        <ele>635.6</ele>
        <time>1970-01-01T01:15:03.000Z</time>
      </trkpt>
      <trkpt lat="42.879208" lon="0.728624">
        <ele>634.6</ele>
        <time>1970-01-01T01:15:06.000Z</time>
      </trkpt>
      <trkpt lat="42.879136" lon="0.728702">
        <ele>633.6</ele>
        <time>1970-01-01T01:15:07.000Z</time>
      </trkpt>
      <trkpt lat="42.879065" lon="0.72879">
        <ele>631.8</ele>
        <time>1970-01-01T01:15:08.000Z</time>
      </trkpt>
      <trkpt lat="42.878993" lon="0.728884">
        <ele>630.8</ele>
        <time>1970-01-01T01:15:09.000Z</time>
      </trkpt>
      <trkpt lat="42.878922" lon="0.728972">
        <ele>629.4</ele>
        <time>1970-01-01T01:15:10.000Z</time>
      </trkpt>
      <trkpt lat="42.878855" lon="0.729059">
        <ele>628</ele>
        <time>1970-01-01T01:15:11.000Z</time>
      </trkpt>
      <trkpt lat="42.878785" lon="0.729136">
        <ele>627</ele>
        <time>1970-01-01T01:15:12.000Z</time>
      </trkpt>
      <trkpt lat="42.878708" lon="0.729192">
        <ele>625.6</ele>
        <time>1970-01-01T01:15:13.000Z</time>
      </trkpt>
      <trkpt lat="42.878632" lon="0.72925">
        <ele>624</ele>
        <time>1970-01-01T01:15:14.000Z</time>
      </trkpt>
      <trkpt lat="42.878561" lon="0.729321">
        <ele>621.8</ele>
        <time>1970-01-01T01:15:15.000Z</time>
      </trkpt>
      <trkpt lat="42.878494" lon="0.729405">
        <ele>620.4</ele>
        <time>1970-01-01T01:15:16.000Z</time>
      </trkpt>
      <trkpt lat="42.878426" lon="0.729484">
        <ele>619.4</ele>
        <time>1970-01-01T01:15:17.000Z</time>
      </trkpt>
      <trkpt lat="42.878299" lon="0.729649">
        <ele>617.8</ele>
        <time>1970-01-01T01:15:19.000Z</time>
      </trkpt>
      <trkpt lat="42.878239" lon="0.729713">
        <ele>617.4</ele>
        <time>1970-01-01T01:15:20.000Z</time>
      </trkpt>
      <trkpt lat="42.878145" lon="0.729796">
        <ele>617.2</ele>
        <time>1970-01-01T01:15:22.000Z</time>
      </trkpt>
      <trkpt lat="42.878123" lon="0.729815">
        <ele>618.2</ele>
        <time>1970-01-01T01:15:25.000Z</time>
      </trkpt>
      <trkpt lat="42.878061" lon="0.729813">
        <ele>618.4</ele>
        <time>1970-01-01T01:16:40.000Z</time>
      </trkpt>
      <trkpt lat="42.877925" lon="0.729819">
        <ele>617</ele>
        <time>1970-01-01T01:16:43.000Z</time>
      </trkpt>
      <trkpt lat="42.877858" lon="0.729819">
        <ele>616.4</ele>
        <time>1970-01-01T01:16:44.000Z</time>
      </trkpt>
      <trkpt lat="42.877725" lon="0.729835">
        <ele>615.6</ele>
        <time>1970-01-01T01:16:46.000Z</time>
      </trkpt>
      <trkpt lat="42.877665" lon="0.729873">
        <ele>615.2</ele>
        <time>1970-01-01T01:16:47.000Z</time>
      </trkpt>
      <trkpt lat="42.877487" lon="0.730129">
        <ele>614</ele>
        <time>1970-01-01T01:16:51.000Z</time>
      </trkpt>
      <trkpt lat="42.877467" lon="0.730194">
        <ele>613.6</ele>
        <time>1970-01-01T01:16:52.000Z</time>
      </trkpt>
      <trkpt lat="42.877079" lon="0.730636">
        <ele>614.2</ele>
        <time>1970-01-01T01:17:05.000Z</time>
      </trkpt>
      <trkpt lat="42.876805" lon="0.730767">
        <ele>613.2</ele>
        <time>1970-01-01T01:17:11.000Z</time>
      </trkpt>
      <trkpt lat="42.876679" lon="0.730747">
        <ele>612.8</ele>
        <time>1970-01-01T01:17:13.000Z</time>
      </trkpt>
      <trkpt lat="42.876546" lon="0.730714">
        <ele>612.4</ele>
        <time>1970-01-01T01:17:15.000Z</time>
      </trkpt>
      <trkpt lat="42.876486" lon="0.730698">
        <ele>612.2</ele>
        <time>1970-01-01T01:17:16.000Z</time>
      </trkpt>
      <trkpt lat="42.876421" lon="0.730674">
        <ele>611.6</ele>
        <time>1970-01-01T01:17:17.000Z</time>
      </trkpt>
      <trkpt lat="42.876316" lon="0.730591">
        <ele>610.6</ele>
        <time>1970-01-01T01:17:19.000Z</time>
      </trkpt>
      <trkpt lat="42.87622" lon="0.730374">
        <ele>609.6</ele>
        <time>1970-01-01T01:17:22.000Z</time>
      </trkpt>
      <trkpt lat="42.87615" lon="0.730216">
        <ele>608.4</ele>
        <time>1970-01-01T01:17:24.000Z</time>
      </trkpt>
      <trkpt lat="42.875927" lon="0.730055">
        <ele>607</ele>
        <time>1970-01-01T01:17:28.000Z</time>
      </trkpt>
      <trkpt lat="42.875842" lon="0.730047">
        <ele>606</ele>
        <time>1970-01-01T01:17:31.000Z</time>
      </trkpt>
      <trkpt lat="42.875805" lon="0.730087">
        <ele>605.6</ele>
        <time>1970-01-01T01:17:33.000Z</time>
      </trkpt>
      <trkpt lat="42.875724" lon="0.730249">
        <ele>605</ele>
        <time>1970-01-01T01:17:37.000Z</time>
      </trkpt>
      <trkpt lat="42.875705" lon="0.730304">
        <ele>604.8</ele>
        <time>1970-01-01T01:17:38.000Z</time>
      </trkpt>
      <trkpt lat="42.875674" lon="0.730414">
        <ele>604.4</ele>
        <time>1970-01-01T01:17:40.000Z</time>
      </trkpt>
      <trkpt lat="42.875553" lon="0.731116">
        <ele>606</ele>
        <time>1970-01-01T01:17:55.000Z</time>
      </trkpt>
      <trkpt lat="42.875355" lon="0.73176">
        <ele>605.8</ele>
        <time>1970-01-01T01:18:08.000Z</time>
      </trkpt>
      <trkpt lat="42.875263" lon="0.732058">
        <ele>605.6</ele>
        <time>1970-01-01T01:18:13.000Z</time>
      </trkpt>
      <trkpt lat="42.875195" lon="0.732155">
        <ele>605.2</ele>
        <time>1970-01-01T01:18:15.000Z</time>
      </trkpt>
      <trkpt lat="42.875094" lon="0.732341">
        <ele>604.4</ele>
        <time>1970-01-01T01:18:19.000Z</time>
      </trkpt>
      <trkpt lat="42.87504" lon="0.732486">
        <ele>604.2</ele>
        <time>1970-01-01T01:18:22.000Z</time>
      </trkpt>
      <trkpt lat="42.874851" lon="0.733173">
        <ele>604.4</ele>
        <time>1970-01-01T01:18:34.000Z</time>
      </trkpt>
      <trkpt lat="42.87478" lon="0.733357">
        <ele>605.6</ele>
        <time>1970-01-01T01:18:39.000Z</time>
      </trkpt>
      <trkpt lat="42.874621" lon="0.733771">
        <ele>604.6</ele>
        <time>1970-01-01T01:18:50.000Z</time>
      </trkpt>
      <trkpt lat="42.874379" lon="0.734456">
        <ele>604.4</ele>
        <time>1970-01-01T01:19:02.000Z</time>
      </trkpt>
      <trkpt lat="42.874295" lon="0.734746">
        <ele>606</ele>
        <time>1970-01-01T01:19:10.000Z</time>
      </trkpt>
      <trkpt lat="42.874126" lon="0.735294">
        <ele>604.8</ele>
        <time>1970-01-01T01:19:22.000Z</time>
      </trkpt>
      <trkpt lat="42.874161" lon="0.735406">
        <ele>603.8</ele>
        <time>1970-01-01T01:19:24.000Z</time>
      </trkpt>
      <trkpt lat="42.874222" lon="0.735491">
        <ele>603.2</ele>
        <time>1970-01-01T01:19:26.000Z</time>
      </trkpt>
      <trkpt lat="42.874245" lon="0.735577">
        <ele>603.2</ele>
        <time>1970-01-01T01:19:28.000Z</time>
      </trkpt>
      <trkpt lat="42.874139" lon="0.735884">
        <ele>602.8</ele>
        <time>1970-01-01T01:19:34.000Z</time>
      </trkpt>
      <trkpt lat="42.874042" lon="0.736093">
        <ele>601.6</ele>
        <time>1970-01-01T01:19:38.000Z</time>
      </trkpt>
      <trkpt lat="42.873977" lon="0.73626">
        <ele>600.8</ele>
        <time>1970-01-01T01:19:45.000Z</time>
      </trkpt>
      <trkpt lat="42.873985" lon="0.736307">
        <ele>600.6</ele>
        <time>1970-01-01T01:19:48.000Z</time>
      </trkpt>
      <trkpt lat="42.874016" lon="0.736361">
        <ele>601</ele>
        <time>1970-01-01T01:19:51.000Z</time>
      </trkpt>
      <trkpt lat="42.874044" lon="0.736455">
        <ele>601.6</ele>
        <time>1970-01-01T01:19:55.000Z</time>
      </trkpt>
      <trkpt lat="42.874085" lon="0.736517">
        <ele>602</ele>
        <time>1970-01-01T01:19:58.000Z</time>
      </trkpt>
      <trkpt lat="42.874407" lon="0.736777">
        <ele>603.2</ele>
        <time>1970-01-01T01:20:13.000Z</time>
      </trkpt>
      <trkpt lat="42.874484" lon="0.737035">
        <ele>604.6</ele>
        <time>1970-01-01T01:20:22.000Z</time>
      </trkpt>
      <trkpt lat="42.8745" lon="0.737093">
        <ele>605.2</ele>
        <time>1970-01-01T01:20:24.000Z</time>
      </trkpt>
      <trkpt lat="42.874527" lon="0.737147">
        <ele>605.6</ele>
        <time>1970-01-01T01:20:26.000Z</time>
      </trkpt>
      <trkpt lat="42.87456" lon="0.737224">
        <ele>606.6</ele>
        <time>1970-01-01T01:20:29.000Z</time>
      </trkpt>
      <trkpt lat="42.874564" lon="0.737252">
        <ele>607.2</ele>
        <time>1970-01-01T01:20:30.000Z</time>
      </trkpt>
      <trkpt lat="42.87455" lon="0.737595">
        <ele>608.2</ele>
        <time>1970-01-01T01:20:40.000Z</time>
      </trkpt>
      <trkpt lat="42.87446" lon="0.737923">
        <ele>609.6</ele>
        <time>1970-01-01T01:20:51.000Z</time>
      </trkpt>
      <trkpt lat="42.874107" lon="0.738479">
        <ele>609</ele>
        <time>1970-01-01T01:21:07.000Z</time>
      </trkpt>
      <trkpt lat="42.873973" lon="0.738765">
        <ele>610</ele>
        <time>1970-01-01T01:21:15.000Z</time>
      </trkpt>
      <trkpt lat="42.873868" lon="0.739019">
        <ele>611.2</ele>
        <time>1970-01-01T01:21:23.000Z</time>
      </trkpt>
      <trkpt lat="42.873805" lon="0.739179">
        <ele>612.6</ele>
        <time>1970-01-01T01:21:29.000Z</time>
      </trkpt>
      <trkpt lat="42.873773" lon="0.739249">
        <ele>613.4</ele>
        <time>1970-01-01T01:21:32.000Z</time>
      </trkpt>
      <trkpt lat="42.873734" lon="0.739355">
        <ele>614.8</ele>
        <time>1970-01-01T01:21:36.000Z</time>
      </trkpt>
      <trkpt lat="42.873732" lon="0.739491">
        <ele>615.8</ele>
        <time>1970-01-01T01:21:41.000Z</time>
      </trkpt>
      <trkpt lat="42.873754" lon="0.739643">
        <ele>617.2</ele>
        <time>1970-01-01T01:21:46.000Z</time>
      </trkpt>
      <trkpt lat="42.873763" lon="0.739812">
        <ele>618.4</ele>
        <time>1970-01-01T01:21:52.000Z</time>
      </trkpt>
      <trkpt lat="42.873725" lon="0.74011">
        <ele>619.6</ele>
        <time>1970-01-01T01:22:04.000Z</time>
      </trkpt>
      <trkpt lat="42.873692" lon="0.74029">
        <ele>619</ele>
        <time>1970-01-01T01:22:10.000Z</time>
      </trkpt>
      <trkpt lat="42.87356" lon="0.740521">
        <ele>618.6</ele>
        <time>1970-01-01T01:22:17.000Z</time>
      </trkpt>
      <trkpt lat="42.873505" lon="0.740619">
        <ele>617.8</ele>
        <time>1970-01-01T01:22:19.000Z</time>
      </trkpt>
      <trkpt lat="42.873478" lon="0.740683">
        <ele>617.4</ele>
        <time>1970-01-01T01:22:20.000Z</time>
      </trkpt>
      <trkpt lat="42.873351" lon="0.740842">
        <ele>616.2</ele>
        <time>1970-01-01T01:22:23.000Z</time>
      </trkpt>
      <trkpt lat="42.873235" lon="0.740901">
        <ele>615.4</ele>
        <time>1970-01-01T01:22:25.000Z</time>
      </trkpt>
      <trkpt lat="42.873179" lon="0.740937">
        <ele>615.2</ele>
        <time>1970-01-01T01:22:26.000Z</time>
      </trkpt>
      <trkpt lat="42.873131" lon="0.74098">
        <ele>615.2</ele>
        <time>1970-01-01T01:22:27.000Z</time>
      </trkpt>
      <trkpt lat="42.872926" lon="0.741237">
        <ele>615.4</ele>
        <time>1970-01-01T01:22:33.000Z</time>
      </trkpt>
      <trkpt lat="42.872777" lon="0.741517">
        <ele>614.4</ele>
        <time>1970-01-01T01:22:38.000Z</time>
      </trkpt>
      <trkpt lat="42.872729" lon="0.741554">
        <ele>613.8</ele>
        <time>1970-01-01T01:22:39.000Z</time>
      </trkpt>
      <trkpt lat="42.872648" lon="0.741595">
        <ele>611.8</ele>
        <time>1970-01-01T01:22:41.000Z</time>
      </trkpt>
      <trkpt lat="42.87262" lon="0.741605">
        <ele>611.2</ele>
        <time>1970-01-01T01:22:42.000Z</time>
      </trkpt>
      <trkpt lat="42.872595" lon="0.741616">
        <ele>610.6</ele>
        <time>1970-01-01T01:22:43.000Z</time>
      </trkpt>
      <trkpt lat="42.872518" lon="0.741649">
        <ele>609</ele>
        <time>1970-01-01T01:22:46.000Z</time>
      </trkpt>
      <trkpt lat="42.872458" lon="0.741734">
        <ele>607.8</ele>
        <time>1970-01-01T01:22:50.000Z</time>
      </trkpt>
      <trkpt lat="42.872288" lon="0.742409">
        <ele>607.6</ele>
        <time>1970-01-01T01:23:22.000Z</time>
      </trkpt>
      <trkpt lat="42.872217" lon="0.742427">
        <ele>608.2</ele>
        <time>1970-01-01T01:26:42.000Z</time>
      </trkpt>
      <trkpt lat="42.871999" lon="0.742807">
        <ele>607.2</ele>
        <time>1970-01-01T01:27:01.000Z</time>
      </trkpt>
      <trkpt lat="42.871846" lon="0.74297">
        <ele>606</ele>
        <time>1970-01-01T01:27:12.000Z</time>
      </trkpt>
      <trkpt lat="42.871683" lon="0.743095">
        <ele>605.6</ele>
        <time>1970-01-01T01:27:21.000Z</time>
      </trkpt>
      <trkpt lat="42.871666" lon="0.743124">
        <ele>605.8</ele>
        <time>1970-01-01T01:27:23.000Z</time>
      </trkpt>
      <trkpt lat="42.871541" lon="0.743438">
        <ele>606.8</ele>
        <time>1970-01-01T01:27:36.000Z</time>
      </trkpt>
      <trkpt lat="42.871602" lon="0.744119">
        <ele>607.6</ele>
        <time>1970-01-01T01:27:53.000Z</time>
      </trkpt>
      <trkpt lat="42.871632" lon="0.744331">
        <ele>608.4</ele>
        <time>1970-01-01T01:28:00.000Z</time>
      </trkpt>
      <trkpt lat="42.871533" lon="0.744585">
        <ele>608.4</ele>
        <time>1970-01-01T01:28:08.000Z</time>
      </trkpt>
      <trkpt lat="42.871348" lon="0.744785">
        <ele>608.2</ele>
        <time>1970-01-01T01:28:16.000Z</time>
      </trkpt>
      <trkpt lat="42.87129" lon="0.744806">
        <ele>608</ele>
        <time>1970-01-01T01:28:33.000Z</time>
      </trkpt>
      <trkpt lat="42.871076" lon="0.744934">
        <ele>609.2</ele>
        <time>1970-01-01T01:28:43.000Z</time>
      </trkpt>
      <trkpt lat="42.87092" lon="0.744992">
        <ele>610.2</ele>
        <time>1970-01-01T01:28:50.000Z</time>
      </trkpt>
      <trkpt lat="42.870802" lon="0.745059">
        <ele>611.2</ele>
        <time>1970-01-01T01:28:55.000Z</time>
      </trkpt>
      <trkpt lat="42.870425" lon="0.745423">
        <ele>610.6</ele>
        <time>1970-01-01T01:29:09.000Z</time>
      </trkpt>
      <trkpt lat="42.870369" lon="0.745444">
        <ele>610.4</ele>
        <time>1970-01-01T01:29:10.000Z</time>
      </trkpt>
      <trkpt lat="42.870242" lon="0.745489">
        <ele>609</ele>
        <time>1970-01-01T01:29:12.000Z</time>
      </trkpt>
      <trkpt lat="42.870169" lon="0.745512">
        <ele>607.8</ele>
        <time>1970-01-01T01:29:13.000Z</time>
      </trkpt>
      <trkpt lat="42.870007" lon="0.745557">
        <ele>606.4</ele>
        <time>1970-01-01T01:29:15.000Z</time>
      </trkpt>
      <trkpt lat="42.869842" lon="0.745653">
        <ele>605.2</ele>
        <time>1970-01-01T01:29:17.000Z</time>
      </trkpt>
      <trkpt lat="42.869603" lon="0.745784">
        <ele>603.6</ele>
        <time>1970-01-01T01:29:20.000Z</time>
      </trkpt>
      <trkpt lat="42.869479" lon="0.745876">
        <ele>602.8</ele>
        <time>1970-01-01T01:29:22.000Z</time>
      </trkpt>
      <trkpt lat="42.86943" lon="0.745934">
        <ele>602.6</ele>
        <time>1970-01-01T01:29:23.000Z</time>
      </trkpt>
      <trkpt lat="42.869091" lon="0.74637">
        <ele>602.8</ele>
        <time>1970-01-01T01:29:32.000Z</time>
      </trkpt>
      <trkpt lat="42.868958" lon="0.746467">
        <ele>602.6</ele>
        <time>1970-01-01T01:29:35.000Z</time>
      </trkpt>
      <trkpt lat="42.868817" lon="0.746532">
        <ele>602.8</ele>
        <time>1970-01-01T01:29:38.000Z</time>
      </trkpt>
      <trkpt lat="42.86866" lon="0.746674">
        <ele>603.2</ele>
        <time>1970-01-01T01:29:42.000Z</time>
      </trkpt>
      <trkpt lat="42.868551" lon="0.74681">
        <ele>603.6</ele>
        <time>1970-01-01T01:29:45.000Z</time>
      </trkpt>
      <trkpt lat="42.868135" lon="0.746997">
        <ele>604</ele>
        <time>1970-01-01T01:29:55.000Z</time>
      </trkpt>
      <trkpt lat="42.867914" lon="0.747052">
        <ele>605.2</ele>
        <time>1970-01-01T01:30:02.000Z</time>
      </trkpt>
      <trkpt lat="42.867527" lon="0.747357">
        <ele>604.8</ele>
        <time>1970-01-01T01:30:14.000Z</time>
      </trkpt>
      <trkpt lat="42.867359" lon="0.747499">
        <ele>604.2</ele>
        <time>1970-01-01T01:30:19.000Z</time>
      </trkpt>
      <trkpt lat="42.867323" lon="0.747496">
        <ele>603.8</ele>
        <time>1970-01-01T01:30:21.000Z</time>
      </trkpt>
      <trkpt lat="42.867306" lon="0.74748">
        <ele>603.8</ele>
        <time>1970-01-01T01:30:24.000Z</time>
      </trkpt>
      <trkpt lat="42.867276" lon="0.747472">
        <ele>604</ele>
        <time>1970-01-01T01:30:33.000Z</time>
      </trkpt>
      <trkpt lat="42.86695" lon="0.748038">
        <ele>604.6</ele>
        <time>1970-01-01T01:30:52.000Z</time>
      </trkpt>
      <trkpt lat="42.866614" lon="0.748491">
        <ele>605.6</ele>
        <time>1970-01-01T01:31:11.000Z</time>
      </trkpt>
      <trkpt lat="42.866593" lon="0.748531">
        <ele>606</ele>
        <time>1970-01-01T01:31:14.000Z</time>
      </trkpt>
      <trkpt lat="42.866532" lon="0.748653">
        <ele>606.2</ele>
        <time>1970-01-01T01:31:24.000Z</time>
      </trkpt>
      <trkpt lat="42.866518" lon="0.748675">
        <ele>606.2</ele>
        <time>1970-01-01T01:31:27.000Z</time>
      </trkpt>
      <trkpt lat="42.866461" lon="0.748721">
        <ele>606.2</ele>
        <time>1970-01-01T01:31:31.000Z</time>
      </trkpt>
      <trkpt lat="42.865936" lon="0.748793">
        <ele>606.6</ele>
        <time>1970-01-01T01:31:47.000Z</time>
      </trkpt>
      <trkpt lat="42.865707" lon="0.748821">
        <ele>606.2</ele>
        <time>1970-01-01T01:31:53.000Z</time>
      </trkpt>
      <trkpt lat="42.86543" lon="0.74907">
        <ele>605.4</ele>
        <time>1970-01-01T01:32:00.000Z</time>
      </trkpt>
      <trkpt lat="42.865363" lon="0.749148">
        <ele>605.4</ele>
        <time>1970-01-01T01:32:02.000Z</time>
      </trkpt>
      <trkpt lat="42.86533" lon="0.749178">
        <ele>605.2</ele>
        <time>1970-01-01T01:32:03.000Z</time>
      </trkpt>
      <trkpt lat="42.865022" lon="0.749486">
        <ele>605.2</ele>
        <time>1970-01-01T01:32:12.000Z</time>
      </trkpt>
      <trkpt lat="42.864963" lon="0.749563">
        <ele>605.2</ele>
        <time>1970-01-01T01:32:14.000Z</time>
      </trkpt>
      <trkpt lat="42.864863" lon="0.74965">
        <ele>606</ele>
        <time>1970-01-01T01:32:17.000Z</time>
      </trkpt>
      <trkpt lat="42.864627" lon="0.749635">
        <ele>606.4</ele>
        <time>1970-01-01T01:32:23.000Z</time>
      </trkpt>
      <trkpt lat="42.864208" lon="0.749533">
        <ele>607.2</ele>
        <time>1970-01-01T01:32:34.000Z</time>
      </trkpt>
      <trkpt lat="42.864054" lon="0.749459">
        <ele>607.6</ele>
        <time>1970-01-01T01:32:38.000Z</time>
      </trkpt>
      <trkpt lat="42.863946" lon="0.74938">
        <ele>607.6</ele>
        <time>1970-01-01T01:32:41.000Z</time>
      </trkpt>
      <trkpt lat="42.863524" lon="0.748881">
        <ele>608.2</ele>
        <time>1970-01-01T01:32:54.000Z</time>
      </trkpt>
      <trkpt lat="42.863432" lon="0.748766">
        <ele>608</ele>
        <time>1970-01-01T01:32:57.000Z</time>
      </trkpt>
      <trkpt lat="42.863081" lon="0.748372">
        <ele>608.4</ele>
        <time>1970-01-01T01:33:08.000Z</time>
      </trkpt>
      <trkpt lat="42.862859" lon="0.748242">
        <ele>609</ele>
        <time>1970-01-01T01:33:14.000Z</time>
      </trkpt>
      <trkpt lat="42.862517" lon="0.748117">
        <ele>610.2</ele>
        <time>1970-01-01T01:33:23.000Z</time>
      </trkpt>
      <trkpt lat="42.862228" lon="0.74804">
        <ele>611.4</ele>
        <time>1970-01-01T01:33:31.000Z</time>
      </trkpt>
      <trkpt lat="42.861948" lon="0.748046">
        <ele>612.4</ele>
        <time>1970-01-01T01:33:39.000Z</time>
      </trkpt>
      <trkpt lat="42.861436" lon="0.7481">
        <ele>613.8</ele>
        <time>1970-01-01T01:33:52.000Z</time>
      </trkpt>
      <trkpt lat="42.860868" lon="0.748161">
        <ele>613.4</ele>
        <time>1970-01-01T01:34:04.000Z</time>
      </trkpt>
      <trkpt lat="42.860331" lon="0.748119">
        <ele>612.8</ele>
        <time>1970-01-01T01:34:14.000Z</time>
      </trkpt>
      <trkpt lat="42.859794" lon="0.747892">
        <ele>612.6</ele>
        <time>1970-01-01T01:34:24.000Z</time>
      </trkpt>
      <trkpt lat="42.859302" lon="0.747459">
        <ele>612.4</ele>
        <time>1970-01-01T01:34:34.000Z</time>
      </trkpt>
      <trkpt lat="42.85887" lon="0.746906">
        <ele>612.2</ele>
        <time>1970-01-01T01:34:44.000Z</time>
      </trkpt>
      <trkpt lat="42.858508" lon="0.746289">
        <ele>612.6</ele>
        <time>1970-01-01T01:34:55.000Z</time>
      </trkpt>
      <trkpt lat="42.858366" lon="0.746033">
        <ele>613.2</ele>
        <time>1970-01-01T01:35:00.000Z</time>
      </trkpt>
      <trkpt lat="42.858067" lon="0.745348">
        <ele>614.4</ele>
        <time>1970-01-01T01:35:12.000Z</time>
      </trkpt>
      <trkpt lat="42.858021" lon="0.745217">
        <ele>614.6</ele>
        <time>1970-01-01T01:35:14.000Z</time>
      </trkpt>
      <trkpt lat="42.857783" lon="0.744625">
        <ele>615.6</ele>
        <time>1970-01-01T01:35:24.000Z</time>
      </trkpt>
      <trkpt lat="42.857503" lon="0.743994">
        <ele>616</ele>
        <time>1970-01-01T01:35:35.000Z</time>
      </trkpt>
      <trkpt lat="42.857342" lon="0.743659">
        <ele>616.8</ele>
        <time>1970-01-01T01:35:41.000Z</time>
      </trkpt>
      <trkpt lat="42.857098" lon="0.742945">
        <ele>617.8</ele>
        <time>1970-01-01T01:35:53.000Z</time>
      </trkpt>
      <trkpt lat="42.856997" lon="0.742453">
        <ele>619</ele>
        <time>1970-01-01T01:36:01.000Z</time>
      </trkpt>
      <trkpt lat="42.856965" lon="0.742221">
        <ele>620.2</ele>
        <time>1970-01-01T01:36:05.000Z</time>
      </trkpt>
      <trkpt lat="42.856902" lon="0.741784">
        <ele>621.2</ele>
        <time>1970-01-01T01:36:13.000Z</time>
      </trkpt>
      <trkpt lat="42.856861" lon="0.741507">
        <ele>622.4</ele>
        <time>1970-01-01T01:36:18.000Z</time>
      </trkpt>
      <trkpt lat="42.85681" lon="0.741123">
        <ele>623.4</ele>
        <time>1970-01-01T01:36:25.000Z</time>
      </trkpt>
      <trkpt lat="42.856767" lon="0.740784">
        <ele>624.8</ele>
        <time>1970-01-01T01:36:31.000Z</time>
      </trkpt>
      <trkpt lat="42.856756" lon="0.740431">
        <ele>625.8</ele>
        <time>1970-01-01T01:36:44.000Z</time>
      </trkpt>
      <trkpt lat="42.856748" lon="0.740405">
        <ele>626.2</ele>
        <time>1970-01-01T01:37:51.000Z</time>
      </trkpt>
      <trkpt lat="42.85666" lon="0.739914">
        <ele>627.6</ele>
        <time>1970-01-01T01:38:05.000Z</time>
      </trkpt>
      <trkpt lat="42.856591" lon="0.739339">
        <ele>628.8</ele>
        <time>1970-01-01T01:38:21.000Z</time>
      </trkpt>
      <trkpt lat="42.856585" lon="0.739298">
        <ele>628.8</ele>
        <time>1970-01-01T01:38:29.000Z</time>
      </trkpt>
      <trkpt lat="42.856483" lon="0.738536">
        <ele>630</ele>
        <time>1970-01-01T01:38:44.000Z</time>
      </trkpt>
      <trkpt lat="42.856479" lon="0.738291">
        <ele>630</ele>
        <time>1970-01-01T01:38:48.000Z</time>
      </trkpt>
      <trkpt lat="42.856463" lon="0.737516">
        <ele>630.8</ele>
        <time>1970-01-01T01:39:00.000Z</time>
      </trkpt>
      <trkpt lat="42.856252" lon="0.73682">
        <ele>630.8</ele>
        <time>1970-01-01T01:39:10.000Z</time>
      </trkpt>
      <trkpt lat="42.855864" lon="0.736304">
        <ele>630.2</ele>
        <time>1970-01-01T01:39:19.000Z</time>
      </trkpt>
      <trkpt lat="42.855536" lon="0.736084">
        <ele>630.6</ele>
        <time>1970-01-01T01:39:25.000Z</time>
      </trkpt>
      <trkpt lat="42.854976" lon="0.735824">
        <ele>630.8</ele>
        <time>1970-01-01T01:39:35.000Z</time>
      </trkpt>
      <trkpt lat="42.854424" lon="0.735705">
        <ele>631.2</ele>
        <time>1970-01-01T01:39:45.000Z</time>
      </trkpt>
      <trkpt lat="42.853871" lon="0.735736">
        <ele>630.8</ele>
        <time>1970-01-01T01:39:55.000Z</time>
      </trkpt>
      <trkpt lat="42.853296" lon="0.735779">
        <ele>631</ele>
        <time>1970-01-01T01:40:05.000Z</time>
      </trkpt>
      <trkpt lat="42.852746" lon="0.735819">
        <ele>630.6</ele>
        <time>1970-01-01T01:40:14.000Z</time>
      </trkpt>
      <trkpt lat="42.852176" lon="0.735861">
        <ele>630.4</ele>
        <time>1970-01-01T01:40:23.000Z</time>
      </trkpt>
      <trkpt lat="42.85192" lon="0.735883">
        <ele>630.6</ele>
        <time>1970-01-01T01:40:27.000Z</time>
      </trkpt>
      <trkpt lat="42.851351" lon="0.735927">
        <ele>630.4</ele>
        <time>1970-01-01T01:40:36.000Z</time>
      </trkpt>
      <trkpt lat="42.850795" lon="0.735962">
        <ele>630.4</ele>
        <time>1970-01-01T01:40:45.000Z</time>
      </trkpt>
      <trkpt lat="42.850237" lon="0.736031">
        <ele>630.2</ele>
        <time>1970-01-01T01:40:54.000Z</time>
      </trkpt>
      <trkpt lat="42.849651" lon="0.736124">
        <ele>631.4</ele>
        <time>1970-01-01T01:41:04.000Z</time>
      </trkpt>
      <trkpt lat="42.849325" lon="0.736089">
        <ele>631.6</ele>
        <time>1970-01-01T01:41:10.000Z</time>
      </trkpt>
      <trkpt lat="42.848809" lon="0.735759">
        <ele>632.2</ele>
        <time>1970-01-01T01:41:21.000Z</time>
      </trkpt>
      <trkpt lat="42.848576" lon="0.735575">
        <ele>632.6</ele>
        <time>1970-01-01T01:41:26.000Z</time>
      </trkpt>
      <trkpt lat="42.848102" lon="0.735173">
        <ele>632.8</ele>
        <time>1970-01-01T01:41:36.000Z</time>
      </trkpt>
      <trkpt lat="42.847678" lon="0.734651">
        <ele>632.8</ele>
        <time>1970-01-01T01:41:46.000Z</time>
      </trkpt>
      <trkpt lat="42.847244" lon="0.734098">
        <ele>633.4</ele>
        <time>1970-01-01T01:41:56.000Z</time>
      </trkpt>
      <trkpt lat="42.846842" lon="0.733679">
        <ele>633.8</ele>
        <time>1970-01-01T01:42:05.000Z</time>
      </trkpt>
      <trkpt lat="42.846322" lon="0.733303">
        <ele>634.8</ele>
        <time>1970-01-01T01:42:16.000Z</time>
      </trkpt>
      <trkpt lat="42.846177" lon="0.733218">
        <ele>635</ele>
        <time>1970-01-01T01:42:19.000Z</time>
      </trkpt>
      <trkpt lat="42.845647" lon="0.732902">
        <ele>636</ele>
        <time>1970-01-01T01:42:30.000Z</time>
      </trkpt>
      <trkpt lat="42.845598" lon="0.732875">
        <ele>636.2</ele>
        <time>1970-01-01T01:42:31.000Z</time>
      </trkpt>
      <trkpt lat="42.845072" lon="0.732545">
        <ele>637.2</ele>
        <time>1970-01-01T01:42:42.000Z</time>
      </trkpt>
      <trkpt lat="42.844615" lon="0.732154">
        <ele>638</ele>
        <time>1970-01-01T01:42:52.000Z</time>
      </trkpt>
      <trkpt lat="42.844211" lon="0.731734">
        <ele>638.4</ele>
        <time>1970-01-01T01:43:01.000Z</time>
      </trkpt>
      <trkpt lat="42.843717" lon="0.731429">
        <ele>638.4</ele>
        <time>1970-01-01T01:43:10.000Z</time>
      </trkpt>
      <trkpt lat="42.843151" lon="0.731354">
        <ele>638.4</ele>
        <time>1970-01-01T01:43:19.000Z</time>
      </trkpt>
      <trkpt lat="42.842581" lon="0.731217">
        <ele>639.6</ele>
        <time>1970-01-01T01:43:29.000Z</time>
      </trkpt>
      <trkpt lat="42.842534" lon="0.731192">
        <ele>639.6</ele>
        <time>1970-01-01T01:43:30.000Z</time>
      </trkpt>
      <trkpt lat="42.842176" lon="0.730942">
        <ele>640.8</ele>
        <time>1970-01-01T01:43:39.000Z</time>
      </trkpt>
      <trkpt lat="42.841996" lon="0.730812">
        <ele>642</ele>
        <time>1970-01-01T01:43:44.000Z</time>
      </trkpt>
      <trkpt lat="42.841474" lon="0.730572">
        <ele>642.8</ele>
        <time>1970-01-01T01:43:57.000Z</time>
      </trkpt>
      <trkpt lat="42.840938" lon="0.730625">
        <ele>643</ele>
        <time>1970-01-01T01:44:08.000Z</time>
      </trkpt>
      <trkpt lat="42.840429" lon="0.730884">
        <ele>643</ele>
        <time>1970-01-01T01:44:18.000Z</time>
      </trkpt>
      <trkpt lat="42.839914" lon="0.731217">
        <ele>643.2</ele>
        <time>1970-01-01T01:44:28.000Z</time>
      </trkpt>
      <trkpt lat="42.839864" lon="0.731247">
        <ele>643.4</ele>
        <time>1970-01-01T01:44:29.000Z</time>
      </trkpt>
      <trkpt lat="42.839815" lon="0.731278">
        <ele>643.4</ele>
        <time>1970-01-01T01:44:30.000Z</time>
      </trkpt>
      <trkpt lat="42.839534" lon="0.731455">
        <ele>644.4</ele>
        <time>1970-01-01T01:44:36.000Z</time>
      </trkpt>
      <trkpt lat="42.839321" lon="0.731573">
        <ele>645.4</ele>
        <time>1970-01-01T01:44:41.000Z</time>
      </trkpt>
      <trkpt lat="42.838963" lon="0.731671">
        <ele>646.8</ele>
        <time>1970-01-01T01:44:49.000Z</time>
      </trkpt>
      <trkpt lat="42.838407" lon="0.731569">
        <ele>647.8</ele>
        <time>1970-01-01T01:45:01.000Z</time>
      </trkpt>
      <trkpt lat="42.838365" lon="0.731547">
        <ele>647.8</ele>
        <time>1970-01-01T01:45:02.000Z</time>
      </trkpt>
      <trkpt lat="42.837937" lon="0.73127">
        <ele>649</ele>
        <time>1970-01-01T01:45:12.000Z</time>
      </trkpt>
      <trkpt lat="42.837615" lon="0.731041">
        <ele>650.2</ele>
        <time>1970-01-01T01:45:20.000Z</time>
      </trkpt>
      <trkpt lat="42.837397" lon="0.73089">
        <ele>651.2</ele>
        <time>1970-01-01T01:45:26.000Z</time>
      </trkpt>
      <trkpt lat="42.837253" lon="0.730797">
        <ele>652.4</ele>
        <time>1970-01-01T01:45:30.000Z</time>
      </trkpt>
      <trkpt lat="42.837057" lon="0.730665">
        <ele>653.6</ele>
        <time>1970-01-01T01:45:36.000Z</time>
      </trkpt>
      <trkpt lat="42.836929" lon="0.730578">
        <ele>654.6</ele>
        <time>1970-01-01T01:45:40.000Z</time>
      </trkpt>
      <trkpt lat="42.836772" lon="0.73047">
        <ele>655.6</ele>
        <time>1970-01-01T01:45:45.000Z</time>
      </trkpt>
      <trkpt lat="42.836549" lon="0.730342">
        <ele>657</ele>
        <time>1970-01-01T01:45:52.000Z</time>
      </trkpt>
      <trkpt lat="42.836309" lon="0.730234">
        <ele>658.2</ele>
        <time>1970-01-01T01:45:59.000Z</time>
      </trkpt>
      <trkpt lat="42.835885" lon="0.730215">
        <ele>659</ele>
        <time>1970-01-01T01:46:11.000Z</time>
      </trkpt>
      <trkpt lat="42.835846" lon="0.730209">
        <ele>659.4</ele>
        <time>1970-01-01T01:46:12.000Z</time>
      </trkpt>
      <trkpt lat="42.8353" lon="0.730191">
        <ele>660</ele>
        <time>1970-01-01T01:46:25.000Z</time>
      </trkpt>
      <trkpt lat="42.834712" lon="0.730188">
        <ele>660</ele>
        <time>1970-01-01T01:46:37.000Z</time>
      </trkpt>
      <trkpt lat="42.834149" lon="0.72998">
        <ele>659</ele>
        <time>1970-01-01T01:46:47.000Z</time>
      </trkpt>
      <trkpt lat="42.833679" lon="0.729771">
        <ele>658.6</ele>
        <time>1970-01-01T01:46:55.000Z</time>
      </trkpt>
      <trkpt lat="42.833116" lon="0.729569">
        <ele>657.6</ele>
        <time>1970-01-01T01:47:04.000Z</time>
      </trkpt>
      <trkpt lat="42.832781" lon="0.729521">
        <ele>656.6</ele>
        <time>1970-01-01T01:47:09.000Z</time>
      </trkpt>
      <trkpt lat="42.83236" lon="0.729508">
        <ele>655.6</ele>
        <time>1970-01-01T01:47:15.000Z</time>
      </trkpt>
      <trkpt lat="42.831794" lon="0.729483">
        <ele>654.8</ele>
        <time>1970-01-01T01:47:23.000Z</time>
      </trkpt>
      <trkpt lat="42.831364" lon="0.72932">
        <ele>654.6</ele>
        <time>1970-01-01T01:47:30.000Z</time>
      </trkpt>
      <trkpt lat="42.830892" lon="0.728854">
        <ele>654.8</ele>
        <time>1970-01-01T01:47:39.000Z</time>
      </trkpt>
      <trkpt lat="42.830493" lon="0.728337">
        <ele>655.4</ele>
        <time>1970-01-01T01:47:48.000Z</time>
      </trkpt>
      <trkpt lat="42.829965" lon="0.727951">
        <ele>655.6</ele>
        <time>1970-01-01T01:47:57.000Z</time>
      </trkpt>
      <trkpt lat="42.829838" lon="0.727888">
        <ele>655.8</ele>
        <time>1970-01-01T01:47:59.000Z</time>
      </trkpt>
      <trkpt lat="42.829265" lon="0.727684">
        <ele>656.2</ele>
        <time>1970-01-01T01:48:08.000Z</time>
      </trkpt>
      <trkpt lat="42.829036" lon="0.727607">
        <ele>657.2</ele>
        <time>1970-01-01T01:48:12.000Z</time>
      </trkpt>
      <trkpt lat="42.82856" lon="0.727392">
        <ele>658.4</ele>
        <time>1970-01-01T01:48:21.000Z</time>
      </trkpt>
      <trkpt lat="42.828324" lon="0.727217">
        <ele>659.4</ele>
        <time>1970-01-01T01:48:26.000Z</time>
      </trkpt>
      <trkpt lat="42.828043" lon="0.726916">
        <ele>660.6</ele>
        <time>1970-01-01T01:48:33.000Z</time>
      </trkpt>
      <trkpt lat="42.827845" lon="0.726627">
        <ele>661.6</ele>
        <time>1970-01-01T01:48:39.000Z</time>
      </trkpt>
      <trkpt lat="42.827511" lon="0.72605">
        <ele>662.6</ele>
        <time>1970-01-01T01:48:50.000Z</time>
      </trkpt>
      <trkpt lat="42.827444" lon="0.725951">
        <ele>662.8</ele>
        <time>1970-01-01T01:48:52.000Z</time>
      </trkpt>
      <trkpt lat="42.827006" lon="0.725509">
        <ele>663.4</ele>
        <time>1970-01-01T01:49:02.000Z</time>
      </trkpt>
      <trkpt lat="42.826963" lon="0.725479">
        <ele>663.4</ele>
        <time>1970-01-01T01:49:03.000Z</time>
      </trkpt>
      <trkpt lat="42.826555" lon="0.725275">
        <ele>664</ele>
        <time>1970-01-01T01:49:12.000Z</time>
      </trkpt>
      <trkpt lat="42.826149" lon="0.725135">
        <ele>665.2</ele>
        <time>1970-01-01T01:49:22.000Z</time>
      </trkpt>
      <trkpt lat="42.82599" lon="0.725079">
        <ele>666.4</ele>
        <time>1970-01-01T01:49:26.000Z</time>
      </trkpt>
      <trkpt lat="42.825742" lon="0.724983">
        <ele>667.4</ele>
        <time>1970-01-01T01:49:33.000Z</time>
      </trkpt>
      <trkpt lat="42.825451" lon="0.724794">
        <ele>668.6</ele>
        <time>1970-01-01T01:49:42.000Z</time>
      </trkpt>
      <trkpt lat="42.825055" lon="0.724252">
        <ele>669.6</ele>
        <time>1970-01-01T01:50:00.000Z</time>
      </trkpt>
      <trkpt lat="42.825017" lon="0.724171">
        <ele>669.8</ele>
        <time>1970-01-01T01:50:02.000Z</time>
      </trkpt>
      <trkpt lat="42.824954" lon="0.72409">
        <ele>670.2</ele>
        <time>1970-01-01T01:50:05.000Z</time>
      </trkpt>
      <trkpt lat="42.824956" lon="0.724236">
        <ele>670.6</ele>
        <time>1970-01-01T01:50:09.000Z</time>
      </trkpt>
      <trkpt lat="42.825237" lon="0.724815">
        <ele>670.2</ele>
        <time>1970-01-01T01:50:20.000Z</time>
      </trkpt>
      <trkpt lat="42.825136" lon="0.724876">
        <ele>670.4</ele>
        <time>1970-01-01T01:50:26.000Z</time>
      </trkpt>
      <trkpt lat="42.824772" lon="0.724734">
        <ele>670.4</ele>
        <time>1970-01-01T01:50:37.000Z</time>
      </trkpt>
      <trkpt lat="42.824676" lon="0.724903">
        <ele>670.4</ele>
        <time>1970-01-01T01:50:41.000Z</time>
      </trkpt>
      <trkpt lat="42.824646" lon="0.724954">
        <ele>670.2</ele>
        <time>1970-01-01T01:50:42.000Z</time>
      </trkpt>
      <trkpt lat="42.824497" lon="0.725062">
        <ele>669</ele>
        <time>1970-01-01T01:50:45.000Z</time>
      </trkpt>
      <trkpt lat="42.824303" lon="0.725063">
        <ele>667.6</ele>
        <time>1970-01-01T01:50:48.000Z</time>
      </trkpt>
      <trkpt lat="42.824187" lon="0.725061">
        <ele>666.4</ele>
        <time>1970-01-01T01:50:50.000Z</time>
      </trkpt>
      <trkpt lat="42.824107" lon="0.725052">
        <ele>665.2</ele>
        <time>1970-01-01T01:50:52.000Z</time>
      </trkpt>
      <trkpt lat="42.823998" lon="0.725027">
        <ele>664.2</ele>
        <time>1970-01-01T01:50:56.000Z</time>
      </trkpt>
      <trkpt lat="42.8238" lon="0.724831">
        <ele>665.4</ele>
        <time>1970-01-01T01:51:08.000Z</time>
      </trkpt>
      <trkpt lat="42.823756" lon="0.724618">
        <ele>666.6</ele>
        <time>1970-01-01T01:51:14.000Z</time>
      </trkpt>
      <trkpt lat="42.823691" lon="0.724358">
        <ele>667.2</ele>
        <time>1970-01-01T01:51:20.000Z</time>
      </trkpt>
      <trkpt lat="42.823636" lon="0.724212">
        <ele>667.4</ele>
        <time>1970-01-01T01:51:23.000Z</time>
      </trkpt>
      <trkpt lat="42.823396" lon="0.723768">
        <ele>667</ele>
        <time>1970-01-01T01:51:32.000Z</time>
      </trkpt>
      <trkpt lat="42.823291" lon="0.723566">
        <ele>667</ele>
        <time>1970-01-01T01:51:36.000Z</time>
      </trkpt>
      <trkpt lat="42.822979" lon="0.722964">
        <ele>667.6</ele>
        <time>1970-01-01T01:51:48.000Z</time>
      </trkpt>
      <trkpt lat="42.822801" lon="0.722646">
        <ele>667.6</ele>
        <time>1970-01-01T01:51:54.000Z</time>
      </trkpt>
      <trkpt lat="42.822441" lon="0.722004">
        <ele>667.2</ele>
        <time>1970-01-01T01:52:05.000Z</time>
      </trkpt>
      <trkpt lat="42.822108" lon="0.72137">
        <ele>667.4</ele>
        <time>1970-01-01T01:52:16.000Z</time>
      </trkpt>
      <trkpt lat="42.822084" lon="0.721322">
        <ele>667.6</ele>
        <time>1970-01-01T01:52:17.000Z</time>
      </trkpt>
      <trkpt lat="42.821874" lon="0.721459">
        <ele>669</ele>
        <time>1970-01-01T01:52:28.000Z</time>
      </trkpt>
      <trkpt lat="42.821805" lon="0.721643">
        <ele>670.4</ele>
        <time>1970-01-01T01:52:34.000Z</time>
      </trkpt>
      <trkpt lat="42.821736" lon="0.721865">
        <ele>671.8</ele>
        <time>1970-01-01T01:52:42.000Z</time>
      </trkpt>
      <trkpt lat="42.821719" lon="0.721994">
        <ele>672.8</ele>
        <time>1970-01-01T01:52:47.000Z</time>
      </trkpt>
      <trkpt lat="42.821697" lon="0.72213">
        <ele>673.8</ele>
        <time>1970-01-01T01:52:52.000Z</time>
      </trkpt>
      <trkpt lat="42.821677" lon="0.722243">
        <ele>674.8</ele>
        <time>1970-01-01T01:52:57.000Z</time>
      </trkpt>
      <trkpt lat="42.821654" lon="0.722356">
        <ele>676</ele>
        <time>1970-01-01T01:53:02.000Z</time>
      </trkpt>
      <trkpt lat="42.821634" lon="0.72247">
        <ele>677</ele>
        <time>1970-01-01T01:53:07.000Z</time>
      </trkpt>
      <trkpt lat="42.821601" lon="0.722603">
        <ele>678.4</ele>
        <time>1970-01-01T01:53:13.000Z</time>
      </trkpt>
      <trkpt lat="42.821568" lon="0.722701">
        <ele>679.4</ele>
        <time>1970-01-01T01:53:18.000Z</time>
      </trkpt>
      <trkpt lat="42.821544" lon="0.722826">
        <ele>680.6</ele>
        <time>1970-01-01T01:53:23.000Z</time>
      </trkpt>
      <trkpt lat="42.821522" lon="0.722936">
        <ele>681.8</ele>
        <time>1970-01-01T01:53:29.000Z</time>
      </trkpt>
      <trkpt lat="42.821515" lon="0.722956">
        <ele>682</ele>
        <time>1970-01-01T01:53:30.000Z</time>
      </trkpt>
      <trkpt lat="42.82149" lon="0.723023">
        <ele>682.8</ele>
        <time>1970-01-01T01:53:34.000Z</time>
      </trkpt>
      <trkpt lat="42.821474" lon="0.723054">
        <ele>683.2</ele>
        <time>1970-01-01T01:53:36.000Z</time>
      </trkpt>
      <trkpt lat="42.821465" lon="0.723083">
        <ele>683.8</ele>
        <time>1970-01-01T01:53:38.000Z</time>
      </trkpt>
      <trkpt lat="42.821455" lon="0.723123">
        <ele>684.4</ele>
        <time>1970-01-01T01:53:40.000Z</time>
      </trkpt>
      <trkpt lat="42.821413" lon="0.723237">
        <ele>685.4</ele>
        <time>1970-01-01T01:53:46.000Z</time>
      </trkpt>
      <trkpt lat="42.821384" lon="0.723353">
        <ele>686.4</ele>
        <time>1970-01-01T01:53:51.000Z</time>
      </trkpt>
      <trkpt lat="42.821382" lon="0.723445">
        <ele>687.6</ele>
        <time>1970-01-01T01:53:57.000Z</time>
      </trkpt>
      <trkpt lat="42.821364" lon="0.723488">
        <ele>687.8</ele>
        <time>1970-01-01T01:53:59.000Z</time>
      </trkpt>
      <trkpt lat="42.821335" lon="0.72359">
        <ele>688.8</ele>
        <time>1970-01-01T01:54:03.000Z</time>
      </trkpt>
      <trkpt lat="42.821315" lon="0.723712">
        <ele>690</ele>
        <time>1970-01-01T01:54:09.000Z</time>
      </trkpt>
      <trkpt lat="42.821269" lon="0.723857">
        <ele>691.2</ele>
        <time>1970-01-01T01:54:15.000Z</time>
      </trkpt>
      <trkpt lat="42.821281" lon="0.724057">
        <ele>692.4</ele>
        <time>1970-01-01T01:54:23.000Z</time>
      </trkpt>
      <trkpt lat="42.82131" lon="0.724238">
        <ele>693.6</ele>
        <time>1970-01-01T01:54:30.000Z</time>
      </trkpt>
      <trkpt lat="42.8213" lon="0.724363">
        <ele>694.6</ele>
        <time>1970-01-01T01:54:36.000Z</time>
      </trkpt>
      <trkpt lat="42.821207" lon="0.724447">
        <ele>695.6</ele>
        <time>1970-01-01T01:54:43.000Z</time>
      </trkpt>
      <trkpt lat="42.82119" lon="0.724438">
        <ele>695.8</ele>
        <time>1970-01-01T01:54:44.000Z</time>
      </trkpt>
      <trkpt lat="42.821131" lon="0.724397">
        <ele>696.4</ele>
        <time>1970-01-01T01:54:48.000Z</time>
      </trkpt>
      <trkpt lat="42.82109" lon="0.724351">
        <ele>697</ele>
        <time>1970-01-01T01:54:52.000Z</time>
      </trkpt>
      <trkpt lat="42.821049" lon="0.724289">
        <ele>697.8</ele>
        <time>1970-01-01T01:54:56.000Z</time>
      </trkpt>
      <trkpt lat="42.821025" lon="0.72425">
        <ele>698</ele>
        <time>1970-01-01T01:54:58.000Z</time>
      </trkpt>
      <trkpt lat="42.820943" lon="0.724104">
        <ele>699.2</ele>
        <time>1970-01-01T01:55:05.000Z</time>
      </trkpt>
      <trkpt lat="42.820889" lon="0.724018">
        <ele>700.2</ele>
        <time>1970-01-01T01:55:10.000Z</time>
      </trkpt>
      <trkpt lat="42.820821" lon="0.723941">
        <ele>701.4</ele>
        <time>1970-01-01T01:55:16.000Z</time>
      </trkpt>
      <trkpt lat="42.820789" lon="0.723876">
        <ele>702.6</ele>
        <time>1970-01-01T01:55:20.000Z</time>
      </trkpt>
      <trkpt lat="42.82073" lon="0.723811">
        <ele>704</ele>
        <time>1970-01-01T01:55:25.000Z</time>
      </trkpt>
      <trkpt lat="42.820692" lon="0.723778">
        <ele>705</ele>
        <time>1970-01-01T01:55:28.000Z</time>
      </trkpt>
      <trkpt lat="42.82059" lon="0.723736">
        <ele>706</ele>
        <time>1970-01-01T01:55:34.000Z</time>
      </trkpt>
      <trkpt lat="42.8204" lon="0.723687">
        <ele>707.2</ele>
        <time>1970-01-01T01:55:44.000Z</time>
      </trkpt>
      <trkpt lat="42.820289" lon="0.723654">
        <ele>708.2</ele>
        <time>1970-01-01T01:55:50.000Z</time>
      </trkpt>
      <trkpt lat="42.8202" lon="0.723609">
        <ele>709.2</ele>
        <time>1970-01-01T01:55:56.000Z</time>
      </trkpt>
      <trkpt lat="42.820108" lon="0.72351">
        <ele>710.4</ele>
        <time>1970-01-01T01:56:02.000Z</time>
      </trkpt>
      <trkpt lat="42.820056" lon="0.723459">
        <ele>711.4</ele>
        <time>1970-01-01T01:56:07.000Z</time>
      </trkpt>
      <trkpt lat="42.820032" lon="0.723421">
        <ele>711.8</ele>
        <time>1970-01-01T01:56:10.000Z</time>
      </trkpt>
      <trkpt lat="42.82001" lon="0.723383">
        <ele>712.4</ele>
        <time>1970-01-01T01:56:12.000Z</time>
      </trkpt>
      <trkpt lat="42.819953" lon="0.723258">
        <ele>713.6</ele>
        <time>1970-01-01T01:56:18.000Z</time>
      </trkpt>
      <trkpt lat="42.819914" lon="0.723151">
        <ele>714.6</ele>
        <time>1970-01-01T01:56:24.000Z</time>
      </trkpt>
      <trkpt lat="42.819875" lon="0.723117">
        <ele>715.2</ele>
        <time>1970-01-01T01:56:26.000Z</time>
      </trkpt>
      <trkpt lat="42.819822" lon="0.723077">
        <ele>715.8</ele>
        <time>1970-01-01T01:56:28.000Z</time>
      </trkpt>
      <trkpt lat="42.819692" lon="0.722971">
        <ele>717</ele>
        <time>1970-01-01T01:56:34.000Z</time>
      </trkpt>
      <trkpt lat="42.819588" lon="0.722889">
        <ele>718.2</ele>
        <time>1970-01-01T01:56:39.000Z</time>
      </trkpt>
      <trkpt lat="42.819463" lon="0.722802">
        <ele>719</ele>
        <time>1970-01-01T01:56:45.000Z</time>
      </trkpt>
      <trkpt lat="42.819381" lon="0.722714">
        <ele>720.2</ele>
        <time>1970-01-01T01:56:49.000Z</time>
      </trkpt>
      <trkpt lat="42.819245" lon="0.722651">
        <ele>721.2</ele>
        <time>1970-01-01T01:56:54.000Z</time>
      </trkpt>
      <trkpt lat="42.81922" lon="0.722641">
        <ele>721.4</ele>
        <time>1970-01-01T01:56:55.000Z</time>
      </trkpt>
      <trkpt lat="42.818977" lon="0.722494">
        <ele>722.4</ele>
        <time>1970-01-01T01:57:04.000Z</time>
      </trkpt>
      <trkpt lat="42.818837" lon="0.722391">
        <ele>723.2</ele>
        <time>1970-01-01T01:57:12.000Z</time>
      </trkpt>
      <trkpt lat="42.818822" lon="0.722385">
        <ele>723.2</ele>
        <time>1970-01-01T01:57:15.000Z</time>
      </trkpt>
      <trkpt lat="42.818806" lon="0.722363">
        <ele>723.4</ele>
        <time>1970-01-01T01:57:39.000Z</time>
      </trkpt>
      <trkpt lat="42.818736" lon="0.722194">
        <ele>721.6</ele>
        <time>1970-01-01T01:57:45.000Z</time>
      </trkpt>
      <trkpt lat="42.818706" lon="0.722053">
        <ele>720.6</ele>
        <time>1970-01-01T01:57:47.000Z</time>
      </trkpt>
      <trkpt lat="42.818702" lon="0.721957">
        <ele>720.2</ele>
        <time>1970-01-01T01:57:48.000Z</time>
      </trkpt>
      <trkpt lat="42.818681" lon="0.721789">
        <ele>719.8</ele>
        <time>1970-01-01T01:57:50.000Z</time>
      </trkpt>
      <trkpt lat="42.818555" lon="0.721534">
        <ele>719.8</ele>
        <time>1970-01-01T01:57:54.000Z</time>
      </trkpt>
      <trkpt lat="42.818423" lon="0.721352">
        <ele>719</ele>
        <time>1970-01-01T01:57:57.000Z</time>
      </trkpt>
      <trkpt lat="42.818365" lon="0.721286">
        <ele>718.6</ele>
        <time>1970-01-01T01:57:58.000Z</time>
      </trkpt>
      <trkpt lat="42.818217" lon="0.721159">
        <ele>717.2</ele>
        <time>1970-01-01T01:58:00.000Z</time>
      </trkpt>
      <trkpt lat="42.818051" lon="0.721033">
        <ele>715.8</ele>
        <time>1970-01-01T01:58:02.000Z</time>
      </trkpt>
      <trkpt lat="42.817971" lon="0.720965">
        <ele>714.6</ele>
        <time>1970-01-01T01:58:03.000Z</time>
      </trkpt>
      <trkpt lat="42.817757" lon="0.720711">
        <ele>713.4</ele>
        <time>1970-01-01T01:58:06.000Z</time>
      </trkpt>
      <trkpt lat="42.817589" lon="0.720532">
        <ele>712.8</ele>
        <time>1970-01-01T01:58:09.000Z</time>
      </trkpt>
      <trkpt lat="42.81721" lon="0.720366">
        <ele>712.2</ele>
        <time>1970-01-01T01:58:16.000Z</time>
      </trkpt>
      <trkpt lat="42.817148" lon="0.720339">
        <ele>712</ele>
        <time>1970-01-01T01:58:17.000Z</time>
      </trkpt>
      <trkpt lat="42.817035" lon="0.72023">
        <ele>710.8</ele>
        <time>1970-01-01T01:58:19.000Z</time>
      </trkpt>
      <trkpt lat="42.816919" lon="0.720081">
        <ele>709.6</ele>
        <time>1970-01-01T01:58:21.000Z</time>
      </trkpt>
      <trkpt lat="42.816841" lon="0.719923">
        <ele>709</ele>
        <time>1970-01-01T01:58:23.000Z</time>
      </trkpt>
      <trkpt lat="42.816785" lon="0.719813">
        <ele>708.8</ele>
        <time>1970-01-01T01:58:25.000Z</time>
      </trkpt>
      <trkpt lat="42.816651" lon="0.719703">
        <ele>709.8</ele>
        <time>1970-01-01T01:58:29.000Z</time>
      </trkpt>
      <trkpt lat="42.816591" lon="0.719647">
        <ele>710.6</ele>
        <time>1970-01-01T01:58:31.000Z</time>
      </trkpt>
      <trkpt lat="42.81654" lon="0.71958">
        <ele>711.6</ele>
        <time>1970-01-01T01:58:33.000Z</time>
      </trkpt>
      <trkpt lat="42.816474" lon="0.719435">
        <ele>712.8</ele>
        <time>1970-01-01T01:58:37.000Z</time>
      </trkpt>
      <trkpt lat="42.81643" lon="0.719313">
        <ele>713.8</ele>
        <time>1970-01-01T01:58:41.000Z</time>
      </trkpt>
      <trkpt lat="42.816374" lon="0.71902">
        <ele>714</ele>
        <time>1970-01-01T01:58:48.000Z</time>
      </trkpt>
      <trkpt lat="42.816343" lon="0.718849">
        <ele>714</ele>
        <time>1970-01-01T01:58:51.000Z</time>
      </trkpt>
      <trkpt lat="42.816197" lon="0.718222">
        <ele>713.8</ele>
        <time>1970-01-01T01:59:03.000Z</time>
      </trkpt>
      <trkpt lat="42.816108" lon="0.718011">
        <ele>712.6</ele>
        <time>1970-01-01T01:59:06.000Z</time>
      </trkpt>
      <trkpt lat="42.816014" lon="0.717854">
        <ele>711.6</ele>
        <time>1970-01-01T01:59:08.000Z</time>
      </trkpt>
      <trkpt lat="42.815911" lon="0.717681">
        <ele>710.6</ele>
        <time>1970-01-01T01:59:10.000Z</time>
      </trkpt>
      <trkpt lat="42.815815" lon="0.717496">
        <ele>709.4</ele>
        <time>1970-01-01T01:59:12.000Z</time>
      </trkpt>
      <trkpt lat="42.815653" lon="0.717259">
        <ele>707.6</ele>
        <time>1970-01-01T01:59:15.000Z</time>
      </trkpt>
      <trkpt lat="42.815538" lon="0.717116">
        <ele>706.4</ele>
        <time>1970-01-01T01:59:17.000Z</time>
      </trkpt>
      <trkpt lat="42.815367" lon="0.71692">
        <ele>705.2</ele>
        <time>1970-01-01T01:59:20.000Z</time>
      </trkpt>
      <trkpt lat="42.815038" lon="0.716602">
        <ele>704.2</ele>
        <time>1970-01-01T01:59:25.000Z</time>
      </trkpt>
      <trkpt lat="42.814979" lon="0.71656">
        <ele>704.2</ele>
        <time>1970-01-01T01:59:26.000Z</time>
      </trkpt>
      <trkpt lat="42.814751" lon="0.716445">
        <ele>704.4</ele>
        <time>1970-01-01T01:59:30.000Z</time>
      </trkpt>
      <trkpt lat="42.814527" lon="0.716279">
        <ele>704.4</ele>
        <time>1970-01-01T01:59:35.000Z</time>
      </trkpt>
      <trkpt lat="42.814168" lon="0.716017">
        <ele>703</ele>
        <time>1970-01-01T01:59:41.000Z</time>
      </trkpt>
      <trkpt lat="42.814115" lon="0.715945">
        <ele>702.6</ele>
        <time>1970-01-01T01:59:42.000Z</time>
      </trkpt>
      <trkpt lat="42.814055" lon="0.71588">
        <ele>702.2</ele>
        <time>1970-01-01T01:59:43.000Z</time>
      </trkpt>
      <trkpt lat="42.813835" lon="0.715797">
        <ele>701.4</ele>
        <time>1970-01-01T01:59:46.000Z</time>
      </trkpt>
      <trkpt lat="42.813728" lon="0.715596">
        <ele>699.8</ele>
        <time>1970-01-01T01:59:49.000Z</time>
      </trkpt>
      <trkpt lat="42.813677" lon="0.715471">
        <ele>698.2</ele>
        <time>1970-01-01T01:59:51.000Z</time>
      </trkpt>
      <trkpt lat="42.813606" lon="0.715385">
        <ele>696.8</ele>
        <time>1970-01-01T01:59:53.000Z</time>
      </trkpt>
      <trkpt lat="42.813575" lon="0.715354">
        <ele>696.2</ele>
        <time>1970-01-01T01:59:54.000Z</time>
      </trkpt>
      <trkpt lat="42.813539" lon="0.715332">
        <ele>695.8</ele>
        <time>1970-01-01T01:59:55.000Z</time>
      </trkpt>
      <trkpt lat="42.812986" lon="0.715452">
        <ele>695.6</ele>
        <time>1970-01-01T02:00:13.000Z</time>
      </trkpt>
      <trkpt lat="42.812751" lon="0.715553">
        <ele>694.6</ele>
        <time>1970-01-01T02:00:17.000Z</time>
      </trkpt>
      <trkpt lat="42.812539" lon="0.715573">
        <ele>693.6</ele>
        <time>1970-01-01T02:00:20.000Z</time>
      </trkpt>
      <trkpt lat="42.812466" lon="0.715554">
        <ele>693.2</ele>
        <time>1970-01-01T02:00:21.000Z</time>
      </trkpt>
      <trkpt lat="42.812191" lon="0.7153">
        <ele>692.6</ele>
        <time>1970-01-01T02:00:27.000Z</time>
      </trkpt>
      <trkpt lat="42.81221" lon="0.715109">
        <ele>692.8</ele>
        <time>1970-01-01T02:00:31.000Z</time>
      </trkpt>
      <trkpt lat="42.812264" lon="0.714926">
        <ele>692.2</ele>
        <time>1970-01-01T02:00:34.000Z</time>
      </trkpt>
      <trkpt lat="42.812275" lon="0.714871">
        <ele>691.8</ele>
        <time>1970-01-01T02:00:35.000Z</time>
      </trkpt>
      <trkpt lat="42.812266" lon="0.714785">
        <ele>690.8</ele>
        <time>1970-01-01T02:00:37.000Z</time>
      </trkpt>
      <trkpt lat="42.812257" lon="0.714688">
        <ele>689.6</ele>
        <time>1970-01-01T02:00:40.000Z</time>
      </trkpt>
      <trkpt lat="42.812243" lon="0.714654">
        <ele>689.4</ele>
        <time>1970-01-01T02:00:41.000Z</time>
      </trkpt>
      <trkpt lat="42.812235" lon="0.714529">
        <ele>688.6</ele>
        <time>1970-01-01T02:00:44.000Z</time>
      </trkpt>
      <trkpt lat="42.812232" lon="0.714317">
        <ele>687.4</ele>
        <time>1970-01-01T02:00:47.000Z</time>
      </trkpt>
      <trkpt lat="42.812239" lon="0.714235">
        <ele>687</ele>
        <time>1970-01-01T02:00:48.000Z</time>
      </trkpt>
      <trkpt lat="42.812239" lon="0.71407">
        <ele>686.4</ele>
        <time>1970-01-01T02:00:50.000Z</time>
      </trkpt>
      <trkpt lat="42.812236" lon="0.713793">
        <ele>685</ele>
        <time>1970-01-01T02:00:53.000Z</time>
      </trkpt>
      <trkpt lat="42.812229" lon="0.71353">
        <ele>684</ele>
        <time>1970-01-01T02:00:56.000Z</time>
      </trkpt>
      <trkpt lat="42.812214" lon="0.713382">
        <ele>683.2</ele>
        <time>1970-01-01T02:00:58.000Z</time>
      </trkpt>
      <trkpt lat="42.812209" lon="0.713334">
        <ele>682.8</ele>
        <time>1970-01-01T02:00:59.000Z</time>
      </trkpt>
      <trkpt lat="42.812201" lon="0.713308">
        <ele>682.2</ele>
        <time>1970-01-01T02:01:02.000Z</time>
      </trkpt>
      <trkpt lat="42.812186" lon="0.713276">
        <ele>682.2</ele>
        <time>1970-01-01T02:02:51.000Z</time>
      </trkpt>
      <trkpt lat="42.812156" lon="0.713161">
        <ele>682.2</ele>
        <time>1970-01-01T02:03:00.000Z</time>
      </trkpt>
      <trkpt lat="42.812129" lon="0.71313">
        <ele>682</ele>
        <time>1970-01-01T02:03:14.000Z</time>
      </trkpt>
      <trkpt lat="42.81205" lon="0.713072">
        <ele>682</ele>
        <time>1970-01-01T02:03:18.000Z</time>
      </trkpt>
      <trkpt lat="42.812073" lon="0.712767">
        <ele>681.8</ele>
        <time>1970-01-01T02:03:25.000Z</time>
      </trkpt>
      <trkpt lat="42.812094" lon="0.712619">
        <ele>681.6</ele>
        <time>1970-01-01T02:03:28.000Z</time>
      </trkpt>
      <trkpt lat="42.812052" lon="0.712498">
        <ele>681.4</ele>
        <time>1970-01-01T02:03:31.000Z</time>
      </trkpt>
      <trkpt lat="42.81192" lon="0.71242">
        <ele>681.4</ele>
        <time>1970-01-01T02:03:35.000Z</time>
      </trkpt>
      <trkpt lat="42.811748" lon="0.712369">
        <ele>681.8</ele>
        <time>1970-01-01T02:03:41.000Z</time>
      </trkpt>
      <trkpt lat="42.811242" lon="0.712104">
        <ele>682.4</ele>
        <time>1970-01-01T02:04:03.000Z</time>
      </trkpt>
      <trkpt lat="42.81076" lon="0.711689">
        <ele>683</ele>
        <time>1970-01-01T02:04:21.000Z</time>
      </trkpt>
      <trkpt lat="42.810318" lon="0.711297">
        <ele>683.8</ele>
        <time>1970-01-01T02:04:36.000Z</time>
      </trkpt>
      <trkpt lat="42.809819" lon="0.711204">
        <ele>684.8</ele>
        <time>1970-01-01T02:05:01.000Z</time>
      </trkpt>
      <trkpt lat="42.809392" lon="0.711218">
        <ele>685.4</ele>
        <time>1970-01-01T02:05:19.000Z</time>
      </trkpt>
      <trkpt lat="42.809248" lon="0.711154">
        <ele>685.6</ele>
        <time>1970-01-01T02:05:52.000Z</time>
      </trkpt>
      <trkpt lat="42.809152" lon="0.710916">
        <ele>685.4</ele>
        <time>1970-01-01T02:05:58.000Z</time>
      </trkpt>
      <trkpt lat="42.80908" lon="0.710359">
        <ele>685.4</ele>
        <time>1970-01-01T02:06:08.000Z</time>
      </trkpt>
      <trkpt lat="42.808968" lon="0.709623">
        <ele>686.2</ele>
        <time>1970-01-01T02:06:19.000Z</time>
      </trkpt>
      <trkpt lat="42.808766" lon="0.708888">
        <ele>686.2</ele>
        <time>1970-01-01T02:06:31.000Z</time>
      </trkpt>
      <trkpt lat="42.808744" lon="0.708831">
        <ele>686.4</ele>
        <time>1970-01-01T02:06:32.000Z</time>
      </trkpt>
      <trkpt lat="42.808427" lon="0.708186">
        <ele>686.8</ele>
        <time>1970-01-01T02:06:44.000Z</time>
      </trkpt>
      <trkpt lat="42.808225" lon="0.70783">
        <ele>687.2</ele>
        <time>1970-01-01T02:06:51.000Z</time>
      </trkpt>
      <trkpt lat="42.807858" lon="0.707281">
        <ele>688.2</ele>
        <time>1970-01-01T02:07:03.000Z</time>
      </trkpt>
      <trkpt lat="42.807818" lon="0.707244">
        <ele>688.2</ele>
        <time>1970-01-01T02:07:04.000Z</time>
      </trkpt>
      <trkpt lat="42.807353" lon="0.70697">
        <ele>688.8</ele>
        <time>1970-01-01T02:07:14.000Z</time>
      </trkpt>
      <trkpt lat="42.806822" lon="0.706789">
        <ele>689.6</ele>
        <time>1970-01-01T02:07:25.000Z</time>
      </trkpt>
      <trkpt lat="42.806634" lon="0.706737">
        <ele>690</ele>
        <time>1970-01-01T02:07:29.000Z</time>
      </trkpt>
      <trkpt lat="42.806406" lon="0.706666">
        <ele>691</ele>
        <time>1970-01-01T02:07:34.000Z</time>
      </trkpt>
      <trkpt lat="42.806282" lon="0.706614">
        <ele>691.6</ele>
        <time>1970-01-01T02:07:37.000Z</time>
      </trkpt>
      <trkpt lat="42.806153" lon="0.706571">
        <ele>692</ele>
        <time>1970-01-01T02:07:40.000Z</time>
      </trkpt>
      <trkpt lat="42.805944" lon="0.706481">
        <ele>692.8</ele>
        <time>1970-01-01T02:07:45.000Z</time>
      </trkpt>
      <trkpt lat="42.805863" lon="0.706424">
        <ele>693.4</ele>
        <time>1970-01-01T02:07:47.000Z</time>
      </trkpt>
      <trkpt lat="42.80562" lon="0.706264">
        <ele>694.6</ele>
        <time>1970-01-01T02:07:53.000Z</time>
      </trkpt>
      <trkpt lat="42.805142" lon="0.705816">
        <ele>695.4</ele>
        <time>1970-01-01T02:08:06.000Z</time>
      </trkpt>
      <trkpt lat="42.805035" lon="0.705713">
        <ele>695.6</ele>
        <time>1970-01-01T02:08:09.000Z</time>
      </trkpt>
      <trkpt lat="42.804716" lon="0.705442">
        <ele>696.6</ele>
        <time>1970-01-01T02:08:21.000Z</time>
      </trkpt>
      <trkpt lat="42.8047" lon="0.705456">
        <ele>696.8</ele>
        <time>1970-01-01T02:08:22.000Z</time>
      </trkpt>
      <trkpt lat="42.804604" lon="0.705625">
        <ele>697.4</ele>
        <time>1970-01-01T02:08:29.000Z</time>
      </trkpt>
      <trkpt lat="42.804514" lon="0.705832">
        <ele>697.8</ele>
        <time>1970-01-01T02:08:36.000Z</time>
      </trkpt>
      <trkpt lat="42.8045" lon="0.706095">
        <ele>698</ele>
        <time>1970-01-01T02:08:45.000Z</time>
      </trkpt>
      <trkpt lat="42.804472" lon="0.70606">
        <ele>698.2</ele>
        <time>1970-01-01T02:08:51.000Z</time>
      </trkpt>
      <trkpt lat="42.804479" lon="0.706048">
        <ele>698.2</ele>
        <time>1970-01-01T02:08:53.000Z</time>
      </trkpt>
      <trkpt lat="42.80451" lon="0.706061">
        <ele>698</ele>
        <time>1970-01-01T02:08:59.000Z</time>
      </trkpt>
      <trkpt lat="42.804506" lon="0.706219">
        <ele>698.2</ele>
        <time>1970-01-01T02:09:10.000Z</time>
      </trkpt>
      <trkpt lat="42.804475" lon="0.706222">
        <ele>698.6</ele>
        <time>1970-01-01T02:10:52.000Z</time>
      </trkpt>
      <trkpt lat="42.804438" lon="0.706332">
        <ele>699</ele>
        <time>1970-01-01T02:10:59.000Z</time>
      </trkpt>
      <trkpt lat="42.804433" lon="0.706351">
        <ele>699.2</ele>
        <time>1970-01-01T02:11:00.000Z</time>
      </trkpt>
      <trkpt lat="42.804431" lon="0.70637">
        <ele>699.2</ele>
        <time>1970-01-01T02:11:01.000Z</time>
      </trkpt>
      <trkpt lat="42.804432" lon="0.706428">
        <ele>699.2</ele>
        <time>1970-01-01T02:11:06.000Z</time>
      </trkpt>
      <trkpt lat="42.804436" lon="0.706493">
        <ele>699.2</ele>
        <time>1970-01-01T02:11:10.000Z</time>
      </trkpt>
      <trkpt lat="42.804545" lon="0.706683">
        <ele>700</ele>
        <time>1970-01-01T02:11:20.000Z</time>
      </trkpt>
      <trkpt lat="42.804695" lon="0.706827">
        <ele>701.4</ele>
        <time>1970-01-01T02:11:31.000Z</time>
      </trkpt>
      <trkpt lat="42.804875" lon="0.706931">
        <ele>702</ele>
        <time>1970-01-01T02:11:44.000Z</time>
      </trkpt>
      <trkpt lat="42.804882" lon="0.706943">
        <ele>702</ele>
        <time>1970-01-01T02:11:47.000Z</time>
      </trkpt>
      <trkpt lat="42.804787" lon="0.706859">
        <ele>704.4</ele>
        <time>1970-01-01T02:44:19.000Z</time>
      </trkpt>
      <trkpt lat="42.804637" lon="0.706763">
        <ele>704</ele>
        <time>1970-01-01T02:44:24.000Z</time>
      </trkpt>
      <trkpt lat="42.804601" lon="0.706735">
        <ele>703.8</ele>
        <time>1970-01-01T02:44:25.000Z</time>
      </trkpt>
      <trkpt lat="42.804527" lon="0.706666">
        <ele>703.6</ele>
        <time>1970-01-01T02:44:27.000Z</time>
      </trkpt>
      <trkpt lat="42.804492" lon="0.706616">
        <ele>703.2</ele>
        <time>1970-01-01T02:44:28.000Z</time>
      </trkpt>
      <trkpt lat="42.804437" lon="0.706366">
        <ele>702.4</ele>
        <time>1970-01-01T02:44:35.000Z</time>
      </trkpt>
      <trkpt lat="42.804452" lon="0.70633">
        <ele>702.2</ele>
        <time>1970-01-01T02:45:28.000Z</time>
      </trkpt>
      <trkpt lat="42.804513" lon="0.70593">
        <ele>701.6</ele>
        <time>1970-01-01T02:45:44.000Z</time>
      </trkpt>
      <trkpt lat="42.804524" lon="0.70588">
        <ele>701.6</ele>
        <time>1970-01-01T02:45:49.000Z</time>
      </trkpt>
      <trkpt lat="42.804537" lon="0.705848">
        <ele>701.6</ele>
        <time>1970-01-01T02:45:50.000Z</time>
      </trkpt>
      <trkpt lat="42.804723" lon="0.705459">
        <ele>701</ele>
        <time>1970-01-01T02:45:59.000Z</time>
      </trkpt>
      <trkpt lat="42.80472" lon="0.705381">
        <ele>701</ele>
        <time>1970-01-01T02:46:01.000Z</time>
      </trkpt>
      <trkpt lat="42.804287" lon="0.704895">
        <ele>701.4</ele>
        <time>1970-01-01T02:46:17.000Z</time>
      </trkpt>
      <trkpt lat="42.803928" lon="0.704773">
        <ele>702.4</ele>
        <time>1970-01-01T02:46:28.000Z</time>
      </trkpt>
      <trkpt lat="42.80384" lon="0.704776">
        <ele>702.8</ele>
        <time>1970-01-01T02:46:31.000Z</time>
      </trkpt>
      <trkpt lat="42.803758" lon="0.704761">
        <ele>703.6</ele>
        <time>1970-01-01T02:46:34.000Z</time>
      </trkpt>
      <trkpt lat="42.803654" lon="0.704733">
        <ele>704.6</ele>
        <time>1970-01-01T02:46:38.000Z</time>
      </trkpt>
      <trkpt lat="42.803512" lon="0.704706">
        <ele>705.8</ele>
        <time>1970-01-01T02:46:43.000Z</time>
      </trkpt>
      <trkpt lat="42.803401" lon="0.704694">
        <ele>707.2</ele>
        <time>1970-01-01T02:46:48.000Z</time>
      </trkpt>
      <trkpt lat="42.803006" lon="0.704527">
        <ele>708.2</ele>
        <time>1970-01-01T02:47:05.000Z</time>
      </trkpt>
      <trkpt lat="42.802985" lon="0.704521">
        <ele>708.4</ele>
        <time>1970-01-01T02:47:06.000Z</time>
      </trkpt>
      <trkpt lat="42.802875" lon="0.704501">
        <ele>709.6</ele>
        <time>1970-01-01T02:47:11.000Z</time>
      </trkpt>
      <trkpt lat="42.802646" lon="0.704608">
        <ele>710.6</ele>
        <time>1970-01-01T02:47:21.000Z</time>
      </trkpt>
      <trkpt lat="42.802376" lon="0.704785">
        <ele>711.6</ele>
        <time>1970-01-01T02:47:33.000Z</time>
      </trkpt>
      <trkpt lat="42.802198" lon="0.704837">
        <ele>712.6</ele>
        <time>1970-01-01T02:47:41.000Z</time>
      </trkpt>
      <trkpt lat="42.802091" lon="0.704699">
        <ele>713</ele>
        <time>1970-01-01T02:47:47.000Z</time>
      </trkpt>
      <trkpt lat="42.801982" lon="0.704494">
        <ele>713</ele>
        <time>1970-01-01T02:47:55.000Z</time>
      </trkpt>
      <trkpt lat="42.801963" lon="0.70449">
        <ele>713</ele>
        <time>1970-01-01T02:47:58.000Z</time>
      </trkpt>
      <trkpt lat="42.801939" lon="0.704481">
        <ele>712.8</ele>
        <time>1970-01-01T02:48:11.000Z</time>
      </trkpt>
      <trkpt lat="42.801867" lon="0.704483">
        <ele>712</ele>
        <time>1970-01-01T02:48:17.000Z</time>
      </trkpt>
      <trkpt lat="42.801878" lon="0.704504">
        <ele>711.4</ele>
        <time>1970-01-01T02:48:22.000Z</time>
      </trkpt>
      <trkpt lat="42.801834" lon="0.704477">
        <ele>711.4</ele>
        <time>1970-01-01T02:51:59.000Z</time>
      </trkpt>
      <trkpt lat="42.801468" lon="0.704407">
        <ele>711.2</ele>
        <time>1970-01-01T02:52:12.000Z</time>
      </trkpt>
      <trkpt lat="42.801365" lon="0.70432">
        <ele>711</ele>
        <time>1970-01-01T02:52:16.000Z</time>
      </trkpt>
      <trkpt lat="42.801289" lon="0.70428">
        <ele>710.6</ele>
        <time>1970-01-01T02:52:18.000Z</time>
      </trkpt>
      <trkpt lat="42.800949" lon="0.70384">
        <ele>709.6</ele>
        <time>1970-01-01T02:52:30.000Z</time>
      </trkpt>
      <trkpt lat="42.800835" lon="0.70372">
        <ele>709</ele>
        <time>1970-01-01T02:52:33.000Z</time>
      </trkpt>
      <trkpt lat="42.80074" lon="0.703545">
        <ele>708.6</ele>
        <time>1970-01-01T02:52:37.000Z</time>
      </trkpt>
      <trkpt lat="42.800718" lon="0.703516">
        <ele>708.4</ele>
        <time>1970-01-01T02:52:38.000Z</time>
      </trkpt>
      <trkpt lat="42.800576" lon="0.703364">
        <ele>707.6</ele>
        <time>1970-01-01T02:52:42.000Z</time>
      </trkpt>
      <trkpt lat="42.80048" lon="0.703294">
        <ele>706.6</ele>
        <time>1970-01-01T02:52:44.000Z</time>
      </trkpt>
      <trkpt lat="42.800433" lon="0.703269">
        <ele>706.4</ele>
        <time>1970-01-01T02:52:45.000Z</time>
      </trkpt>
      <trkpt lat="42.79993" lon="0.702986">
        <ele>706.6</ele>
        <time>1970-01-01T02:52:57.000Z</time>
      </trkpt>
      <trkpt lat="42.799573" lon="0.70277">
        <ele>706</ele>
        <time>1970-01-01T02:53:07.000Z</time>
      </trkpt>
      <trkpt lat="42.799545" lon="0.702775">
        <ele>706</ele>
        <time>1970-01-01T02:53:08.000Z</time>
      </trkpt>
      <trkpt lat="42.799248" lon="0.702748">
        <ele>707.4</ele>
        <time>1970-01-01T02:53:20.000Z</time>
      </trkpt>
      <trkpt lat="42.798737" lon="0.702513">
        <ele>707.2</ele>
        <time>1970-01-01T02:53:35.000Z</time>
      </trkpt>
      <trkpt lat="42.798429" lon="0.702355">
        <ele>708.4</ele>
        <time>1970-01-01T02:53:46.000Z</time>
      </trkpt>
      <trkpt lat="42.79823" lon="0.702231">
        <ele>709.4</ele>
        <time>1970-01-01T02:53:53.000Z</time>
      </trkpt>
      <trkpt lat="42.798185" lon="0.702206">
        <ele>709.8</ele>
        <time>1970-01-01T02:53:55.000Z</time>
      </trkpt>
      <trkpt lat="42.798086" lon="0.702171">
        <ele>711</ele>
        <time>1970-01-01T02:53:59.000Z</time>
      </trkpt>
      <trkpt lat="42.797786" lon="0.70198">
        <ele>711.4</ele>
        <time>1970-01-01T02:54:09.000Z</time>
      </trkpt>
      <trkpt lat="42.797457" lon="0.701887">
        <ele>711</ele>
        <time>1970-01-01T02:54:19.000Z</time>
      </trkpt>
      <trkpt lat="42.797386" lon="0.701704">
        <ele>711.8</ele>
        <time>1970-01-01T02:54:24.000Z</time>
      </trkpt>
      <trkpt lat="42.796966" lon="0.701266">
        <ele>712.4</ele>
        <time>1970-01-01T02:54:38.000Z</time>
      </trkpt>
      <trkpt lat="42.796577" lon="0.701127">
        <ele>713.2</ele>
        <time>1970-01-01T02:54:51.000Z</time>
      </trkpt>
      <trkpt lat="42.796451" lon="0.701092">
        <ele>714.2</ele>
        <time>1970-01-01T02:54:56.000Z</time>
      </trkpt>
      <trkpt lat="42.796331" lon="0.701002">
        <ele>715.2</ele>
        <time>1970-01-01T02:55:02.000Z</time>
      </trkpt>
      <trkpt lat="42.796232" lon="0.700922">
        <ele>716.6</ele>
        <time>1970-01-01T02:55:07.000Z</time>
      </trkpt>
      <trkpt lat="42.796137" lon="0.700845">
        <ele>718</ele>
        <time>1970-01-01T02:55:12.000Z</time>
      </trkpt>
      <trkpt lat="42.79608" lon="0.700805">
        <ele>719</ele>
        <time>1970-01-01T02:55:15.000Z</time>
      </trkpt>
      <trkpt lat="42.795994" lon="0.700749">
        <ele>720.2</ele>
        <time>1970-01-01T02:55:20.000Z</time>
      </trkpt>
      <trkpt lat="42.795921" lon="0.700707">
        <ele>721.4</ele>
        <time>1970-01-01T02:55:24.000Z</time>
      </trkpt>
      <trkpt lat="42.795863" lon="0.700679">
        <ele>722.4</ele>
        <time>1970-01-01T02:55:27.000Z</time>
      </trkpt>
      <trkpt lat="42.79583" lon="0.700653">
        <ele>723</ele>
        <time>1970-01-01T02:55:29.000Z</time>
      </trkpt>
      <trkpt lat="42.795801" lon="0.700623">
        <ele>723.8</ele>
        <time>1970-01-01T02:55:31.000Z</time>
      </trkpt>
      <trkpt lat="42.79576" lon="0.700587">
        <ele>724.8</ele>
        <time>1970-01-01T02:55:34.000Z</time>
      </trkpt>
      <trkpt lat="42.795696" lon="0.700557">
        <ele>725.8</ele>
        <time>1970-01-01T02:55:38.000Z</time>
      </trkpt>
      <trkpt lat="42.795624" lon="0.700536">
        <ele>727</ele>
        <time>1970-01-01T02:55:42.000Z</time>
      </trkpt>
      <trkpt lat="42.795572" lon="0.70055">
        <ele>727.8</ele>
        <time>1970-01-01T02:55:45.000Z</time>
      </trkpt>
      <trkpt lat="42.795533" lon="0.700553">
        <ele>728.2</ele>
        <time>1970-01-01T02:55:47.000Z</time>
      </trkpt>
      <trkpt lat="42.79546" lon="0.700545">
        <ele>729.8</ele>
        <time>1970-01-01T02:55:52.000Z</time>
      </trkpt>
      <trkpt lat="42.795431" lon="0.700543">
        <ele>730.4</ele>
        <time>1970-01-01T02:55:54.000Z</time>
      </trkpt>
      <trkpt lat="42.795423" lon="0.700544">
        <ele>731</ele>
        <time>1970-01-01T02:55:56.000Z</time>
      </trkpt>
      <trkpt lat="42.795343" lon="0.700509">
        <ele>731.4</ele>
        <time>1970-01-01T02:56:54.000Z</time>
      </trkpt>
      <trkpt lat="42.795175" lon="0.700446">
        <ele>732.8</ele>
        <time>1970-01-01T02:57:02.000Z</time>
      </trkpt>
      <trkpt lat="42.795144" lon="0.700432">
        <ele>733.8</ele>
        <time>1970-01-01T02:57:04.000Z</time>
      </trkpt>
      <trkpt lat="42.795086" lon="0.700383">
        <ele>735</ele>
        <time>1970-01-01T02:57:08.000Z</time>
      </trkpt>
      <trkpt lat="42.794677" lon="0.6999">
        <ele>735.2</ele>
        <time>1970-01-01T02:57:27.000Z</time>
      </trkpt>
      <trkpt lat="42.794694" lon="0.699803">
        <ele>734.4</ele>
        <time>1970-01-01T02:57:29.000Z</time>
      </trkpt>
      <trkpt lat="42.794726" lon="0.699716">
        <ele>734</ele>
        <time>1970-01-01T02:57:31.000Z</time>
      </trkpt>
      <trkpt lat="42.794689" lon="0.699607">
        <ele>733.8</ele>
        <time>1970-01-01T02:57:35.000Z</time>
      </trkpt>
      <trkpt lat="42.794432" lon="0.699078">
        <ele>734</ele>
        <time>1970-01-01T02:57:50.000Z</time>
      </trkpt>
      <trkpt lat="42.794323" lon="0.698963">
        <ele>733.6</ele>
        <time>1970-01-01T02:57:53.000Z</time>
      </trkpt>
      <trkpt lat="42.794238" lon="0.698911">
        <ele>733.2</ele>
        <time>1970-01-01T02:57:55.000Z</time>
      </trkpt>
      <trkpt lat="42.794143" lon="0.69889">
        <ele>733.2</ele>
        <time>1970-01-01T02:57:57.000Z</time>
      </trkpt>
      <trkpt lat="42.794051" lon="0.698888">
        <ele>732.8</ele>
        <time>1970-01-01T02:57:59.000Z</time>
      </trkpt>
      <trkpt lat="42.793971" lon="0.698891">
        <ele>732</ele>
        <time>1970-01-01T02:58:02.000Z</time>
      </trkpt>
      <trkpt lat="42.793978" lon="0.69894">
        <ele>731.6</ele>
        <time>1970-01-01T02:58:05.000Z</time>
      </trkpt>
      <trkpt lat="42.794077" lon="0.699068">
        <ele>732.4</ele>
        <time>1970-01-01T02:58:11.000Z</time>
      </trkpt>
      <trkpt lat="42.794101" lon="0.69912">
        <ele>733.2</ele>
        <time>1970-01-01T02:58:13.000Z</time>
      </trkpt>
      <trkpt lat="42.794084" lon="0.699268">
        <ele>734.2</ele>
        <time>1970-01-01T02:58:18.000Z</time>
      </trkpt>
      <trkpt lat="42.793997" lon="0.699442">
        <ele>735.2</ele>
        <time>1970-01-01T02:58:25.000Z</time>
      </trkpt>
      <trkpt lat="42.793824" lon="0.699711">
        <ele>736.4</ele>
        <time>1970-01-01T02:58:36.000Z</time>
      </trkpt>
      <trkpt lat="42.793757" lon="0.699789">
        <ele>737.8</ele>
        <time>1970-01-01T02:58:40.000Z</time>
      </trkpt>
      <trkpt lat="42.793664" lon="0.699861">
        <ele>738.8</ele>
        <time>1970-01-01T02:58:45.000Z</time>
      </trkpt>
      <trkpt lat="42.793585" lon="0.699897">
        <ele>739.6</ele>
        <time>1970-01-01T02:58:50.000Z</time>
      </trkpt>
      <trkpt lat="42.793583" lon="0.699897">
        <ele>739.6</ele>
        <time>1970-01-01T02:58:51.000Z</time>
      </trkpt>
      <trkpt lat="42.793615" lon="0.699885">
        <ele>742.8</ele>
        <time>1970-01-01T03:21:03.000Z</time>
      </trkpt>
      <trkpt lat="42.793789" lon="0.699777">
        <ele>742.8</ele>
        <time>1970-01-01T03:21:09.000Z</time>
      </trkpt>
      <trkpt lat="42.793863" lon="0.69969">
        <ele>741.8</ele>
        <time>1970-01-01T03:21:11.000Z</time>
      </trkpt>
      <trkpt lat="42.793978" lon="0.699522">
        <ele>740.6</ele>
        <time>1970-01-01T03:21:14.000Z</time>
      </trkpt>
      <trkpt lat="42.794014" lon="0.699463">
        <ele>740.4</ele>
        <time>1970-01-01T03:21:15.000Z</time>
      </trkpt>
      <trkpt lat="42.794096" lon="0.699265">
        <ele>739.4</ele>
        <time>1970-01-01T03:21:18.000Z</time>
      </trkpt>
      <trkpt lat="42.794108" lon="0.699126">
        <ele>738.2</ele>
        <time>1970-01-01T03:21:20.000Z</time>
      </trkpt>
      <trkpt lat="42.794074" lon="0.699009">
        <ele>737.4</ele>
        <time>1970-01-01T03:21:22.000Z</time>
      </trkpt>
      <trkpt lat="42.794065" lon="0.698963">
        <ele>737</ele>
        <time>1970-01-01T03:21:23.000Z</time>
      </trkpt>
      <trkpt lat="42.794159" lon="0.698891">
        <ele>735.8</ele>
        <time>1970-01-01T03:21:27.000Z</time>
      </trkpt>
      <trkpt lat="42.79441" lon="0.699052">
        <ele>737</ele>
        <time>1970-01-01T03:21:36.000Z</time>
      </trkpt>
      <trkpt lat="42.794557" lon="0.699314">
        <ele>738</ele>
        <time>1970-01-01T03:21:43.000Z</time>
      </trkpt>
      <trkpt lat="42.794725" lon="0.699698">
        <ele>738</ele>
        <time>1970-01-01T03:21:50.000Z</time>
      </trkpt>
      <trkpt lat="42.794777" lon="0.700083">
        <ele>739</ele>
        <time>1970-01-01T03:22:01.000Z</time>
      </trkpt>
      <trkpt lat="42.795093" lon="0.700372">
        <ele>739.6</ele>
        <time>1970-01-01T03:22:10.000Z</time>
      </trkpt>
      <trkpt lat="42.795226" lon="0.700459">
        <ele>739.6</ele>
        <time>1970-01-01T03:22:13.000Z</time>
      </trkpt>
      <trkpt lat="42.795433" lon="0.700547">
        <ele>737.8</ele>
        <time>1970-01-01T03:22:16.000Z</time>
      </trkpt>
      <trkpt lat="42.795493" lon="0.700562">
        <ele>737</ele>
        <time>1970-01-01T03:22:17.000Z</time>
      </trkpt>
      <trkpt lat="42.795556" lon="0.700561">
        <ele>736.4</ele>
        <time>1970-01-01T03:22:18.000Z</time>
      </trkpt>
      <trkpt lat="42.795679" lon="0.700562">
        <ele>734.4</ele>
        <time>1970-01-01T03:22:20.000Z</time>
      </trkpt>
      <trkpt lat="42.795784" lon="0.700602">
        <ele>733</ele>
        <time>1970-01-01T03:22:22.000Z</time>
      </trkpt>
      <trkpt lat="42.795828" lon="0.700626">
        <ele>732</ele>
        <time>1970-01-01T03:22:23.000Z</time>
      </trkpt>
      <trkpt lat="42.795864" lon="0.700648">
        <ele>730.6</ele>
        <time>1970-01-01T03:22:24.000Z</time>
      </trkpt>
      <trkpt lat="42.795889" lon="0.700668">
        <ele>729.6</ele>
        <time>1970-01-01T03:22:25.000Z</time>
      </trkpt>
      <trkpt lat="42.795904" lon="0.700682">
        <ele>728.6</ele>
        <time>1970-01-01T03:22:26.000Z</time>
      </trkpt>
      <trkpt lat="42.795911" lon="0.700684">
        <ele>727.2</ele>
        <time>1970-01-01T03:22:28.000Z</time>
      </trkpt>
      <trkpt lat="42.795812" lon="0.700628">
        <ele>727.8</ele>
        <time>1970-01-01T03:22:58.000Z</time>
      </trkpt>
      <trkpt lat="42.795795" lon="0.700617">
        <ele>728.2</ele>
        <time>1970-01-01T03:22:59.000Z</time>
      </trkpt>
      <trkpt lat="42.795731" lon="0.700599">
        <ele>729.2</ele>
        <time>1970-01-01T03:23:02.000Z</time>
      </trkpt>
      <trkpt lat="42.795673" lon="0.70058">
        <ele>730.4</ele>
        <time>1970-01-01T03:23:05.000Z</time>
      </trkpt>
      <trkpt lat="42.79561" lon="0.700558">
        <ele>731.8</ele>
        <time>1970-01-01T03:23:08.000Z</time>
      </trkpt>
      <trkpt lat="42.795484" lon="0.700577">
        <ele>733.2</ele>
        <time>1970-01-01T03:23:13.000Z</time>
      </trkpt>
      <trkpt lat="42.79544" lon="0.70058">
        <ele>734.2</ele>
        <time>1970-01-01T03:23:16.000Z</time>
      </trkpt>
      <trkpt lat="42.795427" lon="0.700572">
        <ele>734.6</ele>
        <time>1970-01-01T03:23:17.000Z</time>
      </trkpt>
      <trkpt lat="42.79539" lon="0.700552">
        <ele>735.2</ele>
        <time>1970-01-01T03:23:19.000Z</time>
      </trkpt>
      <trkpt lat="42.795205" lon="0.700479">
        <ele>736.4</ele>
        <time>1970-01-01T03:23:25.000Z</time>
      </trkpt>
      <trkpt lat="42.795135" lon="0.700442">
        <ele>737.4</ele>
        <time>1970-01-01T03:23:29.000Z</time>
      </trkpt>
      <trkpt lat="42.79507" lon="0.700394">
        <ele>738.8</ele>
        <time>1970-01-01T03:23:33.000Z</time>
      </trkpt>
      <trkpt lat="42.794997" lon="0.70032">
        <ele>739.2</ele>
        <time>1970-01-01T03:23:36.000Z</time>
      </trkpt>
      <trkpt lat="42.794884" lon="0.70022">
        <ele>739.8</ele>
        <time>1970-01-01T03:23:40.000Z</time>
      </trkpt>
      <trkpt lat="42.794715" lon="0.700068">
        <ele>739.8</ele>
        <time>1970-01-01T03:23:45.000Z</time>
      </trkpt>
      <trkpt lat="42.794705" lon="0.699771">
        <ele>738.6</ele>
        <time>1970-01-01T03:23:50.000Z</time>
      </trkpt>
      <trkpt lat="42.794689" lon="0.699632">
        <ele>737.8</ele>
        <time>1970-01-01T03:23:53.000Z</time>
      </trkpt>
      <trkpt lat="42.794566" lon="0.699346">
        <ele>738.4</ele>
        <time>1970-01-01T03:23:59.000Z</time>
      </trkpt>
      <trkpt lat="42.79452" lon="0.699255">
        <ele>738.6</ele>
        <time>1970-01-01T03:24:01.000Z</time>
      </trkpt>
      <trkpt lat="42.794392" lon="0.699048">
        <ele>738.8</ele>
        <time>1970-01-01T03:24:05.000Z</time>
      </trkpt>
      <trkpt lat="42.794301" lon="0.698948">
        <ele>738.4</ele>
        <time>1970-01-01T03:24:07.000Z</time>
      </trkpt>
      <trkpt lat="42.794086" lon="0.698892">
        <ele>737.4</ele>
        <time>1970-01-01T03:24:11.000Z</time>
      </trkpt>
      <trkpt lat="42.794033" lon="0.699336">
        <ele>738.6</ele>
        <time>1970-01-01T03:24:20.000Z</time>
      </trkpt>
      <trkpt lat="42.794015" lon="0.699378">
        <ele>738.8</ele>
        <time>1970-01-01T03:24:21.000Z</time>
      </trkpt>
      <trkpt lat="42.793855" lon="0.699639">
        <ele>740</ele>
        <time>1970-01-01T03:24:28.000Z</time>
      </trkpt>
      <trkpt lat="42.793785" lon="0.699749">
        <ele>741</ele>
        <time>1970-01-01T03:24:31.000Z</time>
      </trkpt>
      <trkpt lat="42.79371" lon="0.699833">
        <ele>742</ele>
        <time>1970-01-01T03:24:34.000Z</time>
      </trkpt>
      <trkpt lat="42.793592" lon="0.699906">
        <ele>743.2</ele>
        <time>1970-01-01T03:24:39.000Z</time>
      </trkpt>
      <trkpt lat="42.793577" lon="0.699909">
        <ele>743.6</ele>
        <time>1970-01-01T03:24:41.000Z</time>
      </trkpt>
      <trkpt lat="42.79356" lon="0.699866">
        <ele>744.4</ele>
        <time>1970-01-01T03:27:36.000Z</time>
      </trkpt>
      <trkpt lat="42.79346" lon="0.699784">
        <ele>744.8</ele>
        <time>1970-01-01T03:27:44.000Z</time>
      </trkpt>
      <trkpt lat="42.793413" lon="0.699743">
        <ele>745.2</ele>
        <time>1970-01-01T03:27:48.000Z</time>
      </trkpt>
      <trkpt lat="42.793395" lon="0.699738">
        <ele>745.4</ele>
        <time>1970-01-01T03:27:49.000Z</time>
      </trkpt>
      <trkpt lat="42.793348" lon="0.699703">
        <ele>746</ele>
        <time>1970-01-01T03:27:52.000Z</time>
      </trkpt>
      <trkpt lat="42.793316" lon="0.699679">
        <ele>746.4</ele>
        <time>1970-01-01T03:27:54.000Z</time>
      </trkpt>
      <trkpt lat="42.793218" lon="0.699611">
        <ele>747.8</ele>
        <time>1970-01-01T03:28:01.000Z</time>
      </trkpt>
      <trkpt lat="42.793195" lon="0.6996">
        <ele>748.4</ele>
        <time>1970-01-01T03:28:03.000Z</time>
      </trkpt>
      <trkpt lat="42.793162" lon="0.699586">
        <ele>748.8</ele>
        <time>1970-01-01T03:28:05.000Z</time>
      </trkpt>
      <trkpt lat="42.793089" lon="0.699546">
        <ele>750.2</ele>
        <time>1970-01-01T03:28:10.000Z</time>
      </trkpt>
      <trkpt lat="42.793011" lon="0.699503">
        <ele>751.4</ele>
        <time>1970-01-01T03:28:15.000Z</time>
      </trkpt>
      <trkpt lat="42.792943" lon="0.69949">
        <ele>752.6</ele>
        <time>1970-01-01T03:28:19.000Z</time>
      </trkpt>
      <trkpt lat="42.792852" lon="0.69949">
        <ele>753.6</ele>
        <time>1970-01-01T03:28:24.000Z</time>
      </trkpt>
      <trkpt lat="42.792809" lon="0.699473">
        <ele>754.2</ele>
        <time>1970-01-01T03:28:27.000Z</time>
      </trkpt>
      <trkpt lat="42.792728" lon="0.699475">
        <ele>754.4</ele>
        <time>1970-01-01T03:28:32.000Z</time>
      </trkpt>
      <trkpt lat="42.792726" lon="0.699486">
        <ele>754.4</ele>
        <time>1970-01-01T03:28:34.000Z</time>
      </trkpt>
      <trkpt lat="42.792704" lon="0.699498">
        <ele>754.2</ele>
        <time>1970-01-01T03:29:18.000Z</time>
      </trkpt>
      <trkpt lat="42.792483" lon="0.699393">
        <ele>755</ele>
        <time>1970-01-01T03:29:30.000Z</time>
      </trkpt>
      <trkpt lat="42.792237" lon="0.699303">
        <ele>756.2</ele>
        <time>1970-01-01T03:29:40.000Z</time>
      </trkpt>
      <trkpt lat="42.792087" lon="0.699254">
        <ele>757.6</ele>
        <time>1970-01-01T03:29:47.000Z</time>
      </trkpt>
      <trkpt lat="42.792023" lon="0.699243">
        <ele>758.6</ele>
        <time>1970-01-01T03:29:51.000Z</time>
      </trkpt>
      <trkpt lat="42.791966" lon="0.699247">
        <ele>760.2</ele>
        <time>1970-01-01T03:29:54.000Z</time>
      </trkpt>
      <trkpt lat="42.791773" lon="0.699393">
        <ele>761.2</ele>
        <time>1970-01-01T03:30:04.000Z</time>
      </trkpt>
      <trkpt lat="42.791626" lon="0.699411">
        <ele>761.2</ele>
        <time>1970-01-01T03:30:09.000Z</time>
      </trkpt>
      <trkpt lat="42.791085" lon="0.699313">
        <ele>761.6</ele>
        <time>1970-01-01T03:30:25.000Z</time>
      </trkpt>
      <trkpt lat="42.790656" lon="0.699003">
        <ele>762.4</ele>
        <time>1970-01-01T03:30:39.000Z</time>
      </trkpt>
      <trkpt lat="42.790281" lon="0.69859">
        <ele>763.4</ele>
        <time>1970-01-01T03:30:54.000Z</time>
      </trkpt>
      <trkpt lat="42.789829" lon="0.698185">
        <ele>763.6</ele>
        <time>1970-01-01T03:31:09.000Z</time>
      </trkpt>
      <trkpt lat="42.789307" lon="0.697867">
        <ele>763.8</ele>
        <time>1970-01-01T03:31:22.000Z</time>
      </trkpt>
      <trkpt lat="42.789092" lon="0.697711">
        <ele>764.6</ele>
        <time>1970-01-01T03:31:31.000Z</time>
      </trkpt>
      <trkpt lat="42.789045" lon="0.697628">
        <ele>765.4</ele>
        <time>1970-01-01T03:31:38.000Z</time>
      </trkpt>
      <trkpt lat="42.78903" lon="0.697564">
        <ele>765</ele>
        <time>1970-01-01T03:32:23.000Z</time>
      </trkpt>
      <trkpt lat="42.78896" lon="0.697062">
        <ele>764</ele>
        <time>1970-01-01T03:32:33.000Z</time>
      </trkpt>
      <trkpt lat="42.788887" lon="0.696793">
        <ele>763.2</ele>
        <time>1970-01-01T03:32:37.000Z</time>
      </trkpt>
      <trkpt lat="42.788833" lon="0.696629">
        <ele>761.8</ele>
        <time>1970-01-01T03:32:40.000Z</time>
      </trkpt>
      <trkpt lat="42.788817" lon="0.696574">
        <ele>761.4</ele>
        <time>1970-01-01T03:32:41.000Z</time>
      </trkpt>
      <trkpt lat="42.788774" lon="0.696391">
        <ele>760.8</ele>
        <time>1970-01-01T03:32:44.000Z</time>
      </trkpt>
      <trkpt lat="42.788675" lon="0.696105">
        <ele>759.4</ele>
        <time>1970-01-01T03:32:48.000Z</time>
      </trkpt>
      <trkpt lat="42.788451" lon="0.695526">
        <ele>758.6</ele>
        <time>1970-01-01T03:32:56.000Z</time>
      </trkpt>
      <trkpt lat="42.788278" lon="0.6952">
        <ele>758.6</ele>
        <time>1970-01-01T03:33:02.000Z</time>
      </trkpt>
      <trkpt lat="42.78786" lon="0.694729">
        <ele>759</ele>
        <time>1970-01-01T03:33:14.000Z</time>
      </trkpt>
      <trkpt lat="42.787377" lon="0.694333">
        <ele>760.4</ele>
        <time>1970-01-01T03:33:27.000Z</time>
      </trkpt>
      <trkpt lat="42.787199" lon="0.694303">
        <ele>761.4</ele>
        <time>1970-01-01T03:33:32.000Z</time>
      </trkpt>
      <trkpt lat="42.786763" lon="0.694298">
        <ele>762.4</ele>
        <time>1970-01-01T03:33:43.000Z</time>
      </trkpt>
      <trkpt lat="42.786353" lon="0.694215">
        <ele>763.6</ele>
        <time>1970-01-01T03:33:53.000Z</time>
      </trkpt>
      <trkpt lat="42.785811" lon="0.694059">
        <ele>763.8</ele>
        <time>1970-01-01T03:34:06.000Z</time>
      </trkpt>
      <trkpt lat="42.785797" lon="0.694054">
        <ele>764</ele>
        <time>1970-01-01T03:34:08.000Z</time>
      </trkpt>
      <trkpt lat="42.785783" lon="0.694018">
        <ele>764</ele>
        <time>1970-01-01T03:34:28.000Z</time>
      </trkpt>
      <trkpt lat="42.785708" lon="0.693881">
        <ele>763.8</ele>
        <time>1970-01-01T03:34:37.000Z</time>
      </trkpt>
      <trkpt lat="42.785686" lon="0.693853">
        <ele>764</ele>
        <time>1970-01-01T03:36:36.000Z</time>
      </trkpt>
      <trkpt lat="42.785197" lon="0.693469">
        <ele>764.6</ele>
        <time>1970-01-01T03:36:55.000Z</time>
      </trkpt>
      <trkpt lat="42.785057" lon="0.693374">
        <ele>764.8</ele>
        <time>1970-01-01T03:37:00.000Z</time>
      </trkpt>
      <trkpt lat="42.784516" lon="0.693164">
        <ele>764.6</ele>
        <time>1970-01-01T03:37:14.000Z</time>
      </trkpt>
      <trkpt lat="42.784318" lon="0.693053">
        <ele>764.8</ele>
        <time>1970-01-01T03:37:19.000Z</time>
      </trkpt>
      <trkpt lat="42.78377" lon="0.692791">
        <ele>765.2</ele>
        <time>1970-01-01T03:37:33.000Z</time>
      </trkpt>
      <trkpt lat="42.783578" lon="0.692688">
        <ele>765.6</ele>
        <time>1970-01-01T03:37:38.000Z</time>
      </trkpt>
      <trkpt lat="42.78342" lon="0.692607">
        <ele>765.8</ele>
        <time>1970-01-01T03:37:42.000Z</time>
      </trkpt>
      <trkpt lat="42.783266" lon="0.692502">
        <ele>765.8</ele>
        <time>1970-01-01T03:37:46.000Z</time>
      </trkpt>
      <trkpt lat="42.782795" lon="0.692113">
        <ele>766</ele>
        <time>1970-01-01T03:37:59.000Z</time>
      </trkpt>
      <trkpt lat="42.782385" lon="0.691724">
        <ele>766.8</ele>
        <time>1970-01-01T03:38:11.000Z</time>
      </trkpt>
      <trkpt lat="42.781945" lon="0.691371">
        <ele>767.2</ele>
        <time>1970-01-01T03:38:23.000Z</time>
      </trkpt>
      <trkpt lat="42.781608" lon="0.691285">
        <ele>767.8</ele>
        <time>1970-01-01T03:38:31.000Z</time>
      </trkpt>
      <trkpt lat="42.781051" lon="0.691261">
        <ele>767.8</ele>
        <time>1970-01-01T03:38:44.000Z</time>
      </trkpt>
      <trkpt lat="42.78048" lon="0.691312">
        <ele>768.8</ele>
        <time>1970-01-01T03:38:58.000Z</time>
      </trkpt>
      <trkpt lat="42.780407" lon="0.691345">
        <ele>768.8</ele>
        <time>1970-01-01T03:39:00.000Z</time>
      </trkpt>
      <trkpt lat="42.780282" lon="0.69145">
        <ele>769.4</ele>
        <time>1970-01-01T03:39:04.000Z</time>
      </trkpt>
      <trkpt lat="42.780132" lon="0.691407">
        <ele>769.8</ele>
        <time>1970-01-01T03:39:08.000Z</time>
      </trkpt>
      <trkpt lat="42.780095" lon="0.691394">
        <ele>770</ele>
        <time>1970-01-01T03:39:09.000Z</time>
      </trkpt>
      <trkpt lat="42.779939" lon="0.691352">
        <ele>770.4</ele>
        <time>1970-01-01T03:39:13.000Z</time>
      </trkpt>
      <trkpt lat="42.779366" lon="0.691314">
        <ele>770.8</ele>
        <time>1970-01-01T03:39:27.000Z</time>
      </trkpt>
      <trkpt lat="42.779245" lon="0.691318">
        <ele>771.2</ele>
        <time>1970-01-01T03:39:30.000Z</time>
      </trkpt>
      <trkpt lat="42.778722" lon="0.691514">
        <ele>772.2</ele>
        <time>1970-01-01T03:39:44.000Z</time>
      </trkpt>
      <trkpt lat="42.778526" lon="0.691706">
        <ele>773.2</ele>
        <time>1970-01-01T03:39:51.000Z</time>
      </trkpt>
      <trkpt lat="42.778346" lon="0.691655">
        <ele>774.4</ele>
        <time>1970-01-01T03:39:57.000Z</time>
      </trkpt>
      <trkpt lat="42.778217" lon="0.69154">
        <ele>775.4</ele>
        <time>1970-01-01T03:40:02.000Z</time>
      </trkpt>
      <trkpt lat="42.777777" lon="0.691089">
        <ele>776.4</ele>
        <time>1970-01-01T03:40:17.000Z</time>
      </trkpt>
      <trkpt lat="42.77757" lon="0.69091">
        <ele>776.6</ele>
        <time>1970-01-01T03:40:23.000Z</time>
      </trkpt>
      <trkpt lat="42.777418" lon="0.690766">
        <ele>776.6</ele>
        <time>1970-01-01T03:40:27.000Z</time>
      </trkpt>
      <trkpt lat="42.777327" lon="0.690715">
        <ele>776.6</ele>
        <time>1970-01-01T03:40:29.000Z</time>
      </trkpt>
      <trkpt lat="42.777193" lon="0.690701">
        <ele>776.6</ele>
        <time>1970-01-01T03:40:32.000Z</time>
      </trkpt>
      <trkpt lat="42.776841" lon="0.690678">
        <ele>777.2</ele>
        <time>1970-01-01T03:40:40.000Z</time>
      </trkpt>
      <trkpt lat="42.776617" lon="0.690059">
        <ele>777.4</ele>
        <time>1970-01-01T03:40:51.000Z</time>
      </trkpt>
      <trkpt lat="42.776587" lon="0.690005">
        <ele>777.4</ele>
        <time>1970-01-01T03:40:52.000Z</time>
      </trkpt>
      <trkpt lat="42.776402" lon="0.689688">
        <ele>777.8</ele>
        <time>1970-01-01T03:40:58.000Z</time>
      </trkpt>
      <trkpt lat="42.776133" lon="0.689232">
        <ele>778</ele>
        <time>1970-01-01T03:41:07.000Z</time>
      </trkpt>
      <trkpt lat="42.775884" lon="0.689205">
        <ele>778.4</ele>
        <time>1970-01-01T03:41:13.000Z</time>
      </trkpt>
      <trkpt lat="42.775802" lon="0.689235">
        <ele>778.8</ele>
        <time>1970-01-01T03:41:15.000Z</time>
      </trkpt>
      <trkpt lat="42.775763" lon="0.689259">
        <ele>779</ele>
        <time>1970-01-01T03:41:16.000Z</time>
      </trkpt>
      <trkpt lat="42.775601" lon="0.689383">
        <ele>780</ele>
        <time>1970-01-01T03:41:21.000Z</time>
      </trkpt>
      <trkpt lat="42.775501" lon="0.689577">
        <ele>781</ele>
        <time>1970-01-01T03:41:26.000Z</time>
      </trkpt>
      <trkpt lat="42.775237" lon="0.690077">
        <ele>782.2</ele>
        <time>1970-01-01T03:41:39.000Z</time>
      </trkpt>
      <trkpt lat="42.775111" lon="0.690216">
        <ele>783.4</ele>
        <time>1970-01-01T03:41:44.000Z</time>
      </trkpt>
      <trkpt lat="42.774967" lon="0.690244">
        <ele>784.6</ele>
        <time>1970-01-01T03:41:49.000Z</time>
      </trkpt>
      <trkpt lat="42.774821" lon="0.690195">
        <ele>785.8</ele>
        <time>1970-01-01T03:41:55.000Z</time>
      </trkpt>
      <trkpt lat="42.774723" lon="0.690145">
        <ele>786.8</ele>
        <time>1970-01-01T03:42:00.000Z</time>
      </trkpt>
      <trkpt lat="42.774624" lon="0.690097">
        <ele>788</ele>
        <time>1970-01-01T03:42:04.000Z</time>
      </trkpt>
      <trkpt lat="42.774391" lon="0.689994">
        <ele>789</ele>
        <time>1970-01-01T03:42:12.000Z</time>
      </trkpt>
      <trkpt lat="42.774363" lon="0.689988">
        <ele>789</ele>
        <time>1970-01-01T03:42:13.000Z</time>
      </trkpt>
      <trkpt lat="42.773951" lon="0.689793">
        <ele>790</ele>
        <time>1970-01-01T03:42:27.000Z</time>
      </trkpt>
      <trkpt lat="42.773736" lon="0.689497">
        <ele>791.2</ele>
        <time>1970-01-01T03:42:38.000Z</time>
      </trkpt>
      <trkpt lat="42.773426" lon="0.689232">
        <ele>792.2</ele>
        <time>1970-01-01T03:42:49.000Z</time>
      </trkpt>
      <trkpt lat="42.773137" lon="0.688755">
        <ele>793.4</ele>
        <time>1970-01-01T03:43:07.000Z</time>
      </trkpt>
      <trkpt lat="42.773045" lon="0.68861">
        <ele>794.4</ele>
        <time>1970-01-01T03:43:12.000Z</time>
      </trkpt>
      <trkpt lat="42.772608" lon="0.688159">
        <ele>795</ele>
        <time>1970-01-01T03:43:27.000Z</time>
      </trkpt>
      <trkpt lat="42.772486" lon="0.68804">
        <ele>794.2</ele>
        <time>1970-01-01T03:43:30.000Z</time>
      </trkpt>
      <trkpt lat="42.772299" lon="0.687846">
        <ele>793.2</ele>
        <time>1970-01-01T03:43:34.000Z</time>
      </trkpt>
      <trkpt lat="42.77226" lon="0.6878">
        <ele>792.8</ele>
        <time>1970-01-01T03:43:35.000Z</time>
      </trkpt>
      <trkpt lat="42.772218" lon="0.687694">
        <ele>792</ele>
        <time>1970-01-01T03:43:37.000Z</time>
      </trkpt>
      <trkpt lat="42.772262" lon="0.687472">
        <ele>790.6</ele>
        <time>1970-01-01T03:43:41.000Z</time>
      </trkpt>
      <trkpt lat="42.772259" lon="0.687279">
        <ele>789.6</ele>
        <time>1970-01-01T03:43:46.000Z</time>
      </trkpt>
      <trkpt lat="42.77189" lon="0.68684">
        <ele>788.8</ele>
        <time>1970-01-01T03:43:57.000Z</time>
      </trkpt>
      <trkpt lat="42.77183" lon="0.686713">
        <ele>788.8</ele>
        <time>1970-01-01T03:43:59.000Z</time>
      </trkpt>
      <trkpt lat="42.771773" lon="0.686591">
        <ele>788.6</ele>
        <time>1970-01-01T03:44:01.000Z</time>
      </trkpt>
      <trkpt lat="42.771701" lon="0.686484">
        <ele>788.4</ele>
        <time>1970-01-01T03:44:03.000Z</time>
      </trkpt>
      <trkpt lat="42.771292" lon="0.686127">
        <ele>789.6</ele>
        <time>1970-01-01T03:44:13.000Z</time>
      </trkpt>
      <trkpt lat="42.77105" lon="0.686044">
        <ele>790.6</ele>
        <time>1970-01-01T03:44:19.000Z</time>
      </trkpt>
      <trkpt lat="42.77076" lon="0.685995">
        <ele>791.8</ele>
        <time>1970-01-01T03:44:26.000Z</time>
      </trkpt>
      <trkpt lat="42.770441" lon="0.685993">
        <ele>793</ele>
        <time>1970-01-01T03:44:34.000Z</time>
      </trkpt>
      <trkpt lat="42.77" lon="0.686058">
        <ele>794</ele>
        <time>1970-01-01T03:44:46.000Z</time>
      </trkpt>
      <trkpt lat="42.769751" lon="0.686101">
        <ele>795</ele>
        <time>1970-01-01T03:44:53.000Z</time>
      </trkpt>
      <trkpt lat="42.769311" lon="0.686175">
        <ele>796</ele>
        <time>1970-01-01T03:45:04.000Z</time>
      </trkpt>
      <trkpt lat="42.769033" lon="0.686212">
        <ele>797.2</ele>
        <time>1970-01-01T03:45:11.000Z</time>
      </trkpt>
      <trkpt lat="42.768775" lon="0.686249">
        <ele>798.4</ele>
        <time>1970-01-01T03:45:18.000Z</time>
      </trkpt>
      <trkpt lat="42.768562" lon="0.686272">
        <ele>799.4</ele>
        <time>1970-01-01T03:45:24.000Z</time>
      </trkpt>
      <trkpt lat="42.768354" lon="0.686273">
        <ele>800.4</ele>
        <time>1970-01-01T03:45:30.000Z</time>
      </trkpt>
      <trkpt lat="42.768085" lon="0.686266">
        <ele>801.6</ele>
        <time>1970-01-01T03:45:38.000Z</time>
      </trkpt>
      <trkpt lat="42.767754" lon="0.686168">
        <ele>802.6</ele>
        <time>1970-01-01T03:45:50.000Z</time>
      </trkpt>
      <trkpt lat="42.767187" lon="0.686287">
        <ele>803.4</ele>
        <time>1970-01-01T03:46:05.000Z</time>
      </trkpt>
      <trkpt lat="42.766632" lon="0.68642">
        <ele>803.4</ele>
        <time>1970-01-01T03:46:16.000Z</time>
      </trkpt>
      <trkpt lat="42.766108" lon="0.68662">
        <ele>803</ele>
        <time>1970-01-01T03:46:25.000Z</time>
      </trkpt>
      <trkpt lat="42.765579" lon="0.686929">
        <ele>802.2</ele>
        <time>1970-01-01T03:46:34.000Z</time>
      </trkpt>
      <trkpt lat="42.765305" lon="0.687171">
        <ele>801.6</ele>
        <time>1970-01-01T03:46:39.000Z</time>
      </trkpt>
      <trkpt lat="42.7652" lon="0.68728">
        <ele>801.4</ele>
        <time>1970-01-01T03:46:41.000Z</time>
      </trkpt>
      <trkpt lat="42.764768" lon="0.687822">
        <ele>800.8</ele>
        <time>1970-01-01T03:46:51.000Z</time>
      </trkpt>
      <trkpt lat="42.764382" lon="0.688365">
        <ele>801.2</ele>
        <time>1970-01-01T03:47:02.000Z</time>
      </trkpt>
      <trkpt lat="42.76399" lon="0.688891">
        <ele>802.4</ele>
        <time>1970-01-01T03:47:14.000Z</time>
      </trkpt>
      <trkpt lat="42.763919" lon="0.688976">
        <ele>802.6</ele>
        <time>1970-01-01T03:47:16.000Z</time>
      </trkpt>
      <trkpt lat="42.763884" lon="0.689022">
        <ele>802.6</ele>
        <time>1970-01-01T03:47:17.000Z</time>
      </trkpt>
      <trkpt lat="42.763557" lon="0.689423">
        <ele>803.4</ele>
        <time>1970-01-01T03:47:26.000Z</time>
      </trkpt>
      <trkpt lat="42.763122" lon="0.689907">
        <ele>803.8</ele>
        <time>1970-01-01T03:47:37.000Z</time>
      </trkpt>
      <trkpt lat="42.762675" lon="0.690389">
        <ele>804.6</ele>
        <time>1970-01-01T03:47:48.000Z</time>
      </trkpt>
      <trkpt lat="42.762225" lon="0.690839">
        <ele>805.6</ele>
        <time>1970-01-01T03:47:59.000Z</time>
      </trkpt>
      <trkpt lat="42.761804" lon="0.691259">
        <ele>806.6</ele>
        <time>1970-01-01T03:48:09.000Z</time>
      </trkpt>
      <trkpt lat="42.761285" lon="0.69164">
        <ele>807.4</ele>
        <time>1970-01-01T03:48:20.000Z</time>
      </trkpt>
      <trkpt lat="42.760918" lon="0.691777">
        <ele>807.6</ele>
        <time>1970-01-01T03:48:27.000Z</time>
      </trkpt>
      <trkpt lat="42.760484" lon="0.691895">
        <ele>807.8</ele>
        <time>1970-01-01T03:48:35.000Z</time>
      </trkpt>
      <trkpt lat="42.75994" lon="0.69211">
        <ele>808.6</ele>
        <time>1970-01-01T03:48:45.000Z</time>
      </trkpt>
      <trkpt lat="42.759418" lon="0.692458">
        <ele>809.6</ele>
        <time>1970-01-01T03:48:55.000Z</time>
      </trkpt>
      <trkpt lat="42.759276" lon="0.692584">
        <ele>809.8</ele>
        <time>1970-01-01T03:48:58.000Z</time>
      </trkpt>
      <trkpt lat="42.759054" lon="0.692799">
        <ele>810.6</ele>
        <time>1970-01-01T03:49:03.000Z</time>
      </trkpt>
      <trkpt lat="42.759008" lon="0.692821">
        <ele>810.8</ele>
        <time>1970-01-01T03:49:04.000Z</time>
      </trkpt>
      <trkpt lat="42.758908" lon="0.692868">
        <ele>812</ele>
        <time>1970-01-01T03:49:07.000Z</time>
      </trkpt>
      <trkpt lat="42.758835" lon="0.69292">
        <ele>813.4</ele>
        <time>1970-01-01T03:49:11.000Z</time>
      </trkpt>
      <trkpt lat="42.758745" lon="0.692941">
        <ele>814.4</ele>
        <time>1970-01-01T03:49:16.000Z</time>
      </trkpt>
      <trkpt lat="42.758644" lon="0.692993">
        <ele>815.4</ele>
        <time>1970-01-01T03:49:21.000Z</time>
      </trkpt>
      <trkpt lat="42.758447" lon="0.693055">
        <ele>816.6</ele>
        <time>1970-01-01T03:49:28.000Z</time>
      </trkpt>
      <trkpt lat="42.757924" lon="0.693347">
        <ele>817</ele>
        <time>1970-01-01T03:49:45.000Z</time>
      </trkpt>
      <trkpt lat="42.757579" lon="0.6936">
        <ele>817.6</ele>
        <time>1970-01-01T03:49:57.000Z</time>
      </trkpt>
      <trkpt lat="42.757373" lon="0.693745">
        <ele>818.8</ele>
        <time>1970-01-01T03:50:04.000Z</time>
      </trkpt>
      <trkpt lat="42.757051" lon="0.693786">
        <ele>819.8</ele>
        <time>1970-01-01T03:50:14.000Z</time>
      </trkpt>
      <trkpt lat="42.756943" lon="0.69379">
        <ele>821</ele>
        <time>1970-01-01T03:50:18.000Z</time>
      </trkpt>
      <trkpt lat="42.756788" lon="0.693787">
        <ele>822</ele>
        <time>1970-01-01T03:50:23.000Z</time>
      </trkpt>
      <trkpt lat="42.756606" lon="0.693828">
        <ele>822.2</ele>
        <time>1970-01-01T03:50:28.000Z</time>
      </trkpt>
      <trkpt lat="42.756077" lon="0.694023">
        <ele>822.4</ele>
        <time>1970-01-01T03:50:42.000Z</time>
      </trkpt>
      <trkpt lat="42.75599" lon="0.694024">
        <ele>823</ele>
        <time>1970-01-01T03:50:45.000Z</time>
      </trkpt>
      <trkpt lat="42.75583" lon="0.694022">
        <ele>824.2</ele>
        <time>1970-01-01T03:50:50.000Z</time>
      </trkpt>
      <trkpt lat="42.755653" lon="0.694025">
        <ele>825.4</ele>
        <time>1970-01-01T03:50:56.000Z</time>
      </trkpt>
      <trkpt lat="42.755379" lon="0.694013">
        <ele>826.4</ele>
        <time>1970-01-01T03:51:04.000Z</time>
      </trkpt>
      <trkpt lat="42.755313" lon="0.694006">
        <ele>826.8</ele>
        <time>1970-01-01T03:51:06.000Z</time>
      </trkpt>
      <trkpt lat="42.755223" lon="0.69402">
        <ele>827.4</ele>
        <time>1970-01-01T03:51:09.000Z</time>
      </trkpt>
      <trkpt lat="42.754877" lon="0.694026">
        <ele>828.6</ele>
        <time>1970-01-01T03:51:19.000Z</time>
      </trkpt>
      <trkpt lat="42.754408" lon="0.694116">
        <ele>829.6</ele>
        <time>1970-01-01T03:51:33.000Z</time>
      </trkpt>
      <trkpt lat="42.754287" lon="0.694261">
        <ele>830.6</ele>
        <time>1970-01-01T03:51:39.000Z</time>
      </trkpt>
      <trkpt lat="42.754204" lon="0.694384">
        <ele>831.6</ele>
        <time>1970-01-01T03:51:44.000Z</time>
      </trkpt>
      <trkpt lat="42.754134" lon="0.69449">
        <ele>832.6</ele>
        <time>1970-01-01T03:51:48.000Z</time>
      </trkpt>
      <trkpt lat="42.754065" lon="0.694569">
        <ele>833.6</ele>
        <time>1970-01-01T03:51:52.000Z</time>
      </trkpt>
      <trkpt lat="42.753977" lon="0.694672">
        <ele>834.8</ele>
        <time>1970-01-01T03:51:57.000Z</time>
      </trkpt>
      <trkpt lat="42.753868" lon="0.694825">
        <ele>836</ele>
        <time>1970-01-01T03:52:03.000Z</time>
      </trkpt>
      <trkpt lat="42.753774" lon="0.694909">
        <ele>837</ele>
        <time>1970-01-01T03:52:07.000Z</time>
      </trkpt>
      <trkpt lat="42.753679" lon="0.69498">
        <ele>838</ele>
        <time>1970-01-01T03:52:11.000Z</time>
      </trkpt>
      <trkpt lat="42.75358" lon="0.695076">
        <ele>839</ele>
        <time>1970-01-01T03:52:15.000Z</time>
      </trkpt>
      <trkpt lat="42.753399" lon="0.695207">
        <ele>840.2</ele>
        <time>1970-01-01T03:52:22.000Z</time>
      </trkpt>
      <trkpt lat="42.75328" lon="0.695331">
        <ele>840.6</ele>
        <time>1970-01-01T03:52:27.000Z</time>
      </trkpt>
      <trkpt lat="42.753223" lon="0.695423">
        <ele>841</ele>
        <time>1970-01-01T03:52:30.000Z</time>
      </trkpt>
      <trkpt lat="42.75298" lon="0.695721">
        <ele>841.8</ele>
        <time>1970-01-01T03:52:41.000Z</time>
      </trkpt>
      <trkpt lat="42.752977" lon="0.695723">
        <ele>842</ele>
        <time>1970-01-01T03:52:42.000Z</time>
      </trkpt>
      <trkpt lat="42.752948" lon="0.69576">
        <ele>842.4</ele>
        <time>1970-01-01T03:55:15.000Z</time>
      </trkpt>
      <trkpt lat="42.752892" lon="0.695869">
        <ele>843.4</ele>
        <time>1970-01-01T03:55:20.000Z</time>
      </trkpt>
      <trkpt lat="42.752853" lon="0.695993">
        <ele>844.6</ele>
        <time>1970-01-01T03:55:25.000Z</time>
      </trkpt>
      <trkpt lat="42.752806" lon="0.696144">
        <ele>845.8</ele>
        <time>1970-01-01T03:55:31.000Z</time>
      </trkpt>
      <trkpt lat="42.752769" lon="0.696179">
        <ele>846.2</ele>
        <time>1970-01-01T03:55:33.000Z</time>
      </trkpt>
      <trkpt lat="42.752678" lon="0.696311">
        <ele>846.8</ele>
        <time>1970-01-01T03:55:39.000Z</time>
      </trkpt>
      <trkpt lat="42.752465" lon="0.696555">
        <ele>846.2</ele>
        <time>1970-01-01T03:55:49.000Z</time>
      </trkpt>
      <trkpt lat="42.752375" lon="0.6966">
        <ele>845.6</ele>
        <time>1970-01-01T03:55:51.000Z</time>
      </trkpt>
      <trkpt lat="42.752158" lon="0.696757">
        <ele>844.4</ele>
        <time>1970-01-01T03:55:55.000Z</time>
      </trkpt>
      <trkpt lat="42.75206" lon="0.696908">
        <ele>843.4</ele>
        <time>1970-01-01T03:55:57.000Z</time>
      </trkpt>
      <trkpt lat="42.751979" lon="0.697095">
        <ele>842.6</ele>
        <time>1970-01-01T03:55:59.000Z</time>
      </trkpt>
      <trkpt lat="42.751939" lon="0.697188">
        <ele>841.4</ele>
        <time>1970-01-01T03:56:00.000Z</time>
      </trkpt>
      <trkpt lat="42.751851" lon="0.697368">
        <ele>840.2</ele>
        <time>1970-01-01T03:56:02.000Z</time>
      </trkpt>
      <trkpt lat="42.751607" lon="0.697766">
        <ele>839</ele>
        <time>1970-01-01T03:56:07.000Z</time>
      </trkpt>
      <trkpt lat="42.751483" lon="0.697928">
        <ele>838.4</ele>
        <time>1970-01-01T03:56:09.000Z</time>
      </trkpt>
      <trkpt lat="42.751409" lon="0.698008">
        <ele>837.8</ele>
        <time>1970-01-01T03:56:10.000Z</time>
      </trkpt>
      <trkpt lat="42.751333" lon="0.698082">
        <ele>836.6</ele>
        <time>1970-01-01T03:56:11.000Z</time>
      </trkpt>
      <trkpt lat="42.751204" lon="0.69819">
        <ele>834.8</ele>
        <time>1970-01-01T03:56:13.000Z</time>
      </trkpt>
      <trkpt lat="42.751133" lon="0.698288">
        <ele>832.8</ele>
        <time>1970-01-01T03:56:15.000Z</time>
      </trkpt>
      <trkpt lat="42.751129" lon="0.698358">
        <ele>831.4</ele>
        <time>1970-01-01T03:56:16.000Z</time>
      </trkpt>
      <trkpt lat="42.751172" lon="0.69852">
        <ele>830.2</ele>
        <time>1970-01-01T03:56:18.000Z</time>
      </trkpt>
      <trkpt lat="42.751203" lon="0.698602">
        <ele>829.6</ele>
        <time>1970-01-01T03:56:19.000Z</time>
      </trkpt>
      <trkpt lat="42.751267" lon="0.698778">
        <ele>829</ele>
        <time>1970-01-01T03:56:21.000Z</time>
      </trkpt>
      <trkpt lat="42.751333" lon="0.698918">
        <ele>828.4</ele>
        <time>1970-01-01T03:56:23.000Z</time>
      </trkpt>
      <trkpt lat="42.75131" lon="0.699113">
        <ele>828</ele>
        <time>1970-01-01T03:56:27.000Z</time>
      </trkpt>
      <trkpt lat="42.751122" lon="0.699339">
        <ele>828</ele>
        <time>1970-01-01T03:56:34.000Z</time>
      </trkpt>
      <trkpt lat="42.75103" lon="0.699453">
        <ele>828</ele>
        <time>1970-01-01T03:56:37.000Z</time>
      </trkpt>
      <trkpt lat="42.75063" lon="0.69996">
        <ele>827.8</ele>
        <time>1970-01-01T03:56:49.000Z</time>
      </trkpt>
      <trkpt lat="42.750558" lon="0.700053">
        <ele>827.6</ele>
        <time>1970-01-01T03:56:51.000Z</time>
      </trkpt>
      <trkpt lat="42.750064" lon="0.700439">
        <ele>828.2</ele>
        <time>1970-01-01T03:57:03.000Z</time>
      </trkpt>
      <trkpt lat="42.749884" lon="0.700505">
        <ele>828.6</ele>
        <time>1970-01-01T03:57:07.000Z</time>
      </trkpt>
      <trkpt lat="42.74979" lon="0.700528">
        <ele>829</ele>
        <time>1970-01-01T03:57:09.000Z</time>
      </trkpt>
      <trkpt lat="42.749528" lon="0.700621">
        <ele>829.4</ele>
        <time>1970-01-01T03:57:15.000Z</time>
      </trkpt>
      <trkpt lat="42.749243" lon="0.700706">
        <ele>830</ele>
        <time>1970-01-01T03:57:22.000Z</time>
      </trkpt>
      <trkpt lat="42.748896" lon="0.70086">
        <ele>831</ele>
        <time>1970-01-01T03:57:31.000Z</time>
      </trkpt>
      <trkpt lat="42.748564" lon="0.701135">
        <ele>832</ele>
        <time>1970-01-01T03:57:41.000Z</time>
      </trkpt>
      <trkpt lat="42.748373" lon="0.701395">
        <ele>833.2</ele>
        <time>1970-01-01T03:57:48.000Z</time>
      </trkpt>
      <trkpt lat="42.748227" lon="0.701629">
        <ele>834.2</ele>
        <time>1970-01-01T03:57:54.000Z</time>
      </trkpt>
      <trkpt lat="42.748051" lon="0.701888">
        <ele>835.4</ele>
        <time>1970-01-01T03:58:01.000Z</time>
      </trkpt>
      <trkpt lat="42.747949" lon="0.702031">
        <ele>836.4</ele>
        <time>1970-01-01T03:58:05.000Z</time>
      </trkpt>
      <trkpt lat="42.747786" lon="0.702227">
        <ele>837.6</ele>
        <time>1970-01-01T03:58:11.000Z</time>
      </trkpt>
      <trkpt lat="42.74756" lon="0.70249">
        <ele>838.8</ele>
        <time>1970-01-01T03:58:19.000Z</time>
      </trkpt>
      <trkpt lat="42.747359" lon="0.702702">
        <ele>839.8</ele>
        <time>1970-01-01T03:58:26.000Z</time>
      </trkpt>
      <trkpt lat="42.747177" lon="0.702876">
        <ele>841</ele>
        <time>1970-01-01T03:58:32.000Z</time>
      </trkpt>
      <trkpt lat="42.746945" lon="0.703163">
        <ele>842</ele>
        <time>1970-01-01T03:58:40.000Z</time>
      </trkpt>
      <trkpt lat="42.746573" lon="0.703735">
        <ele>842.8</ele>
        <time>1970-01-01T03:58:53.000Z</time>
      </trkpt>
      <trkpt lat="42.746243" lon="0.704358">
        <ele>842</ele>
        <time>1970-01-01T03:59:04.000Z</time>
      </trkpt>
      <trkpt lat="42.745877" lon="0.704922">
        <ele>841.4</ele>
        <time>1970-01-01T03:59:14.000Z</time>
      </trkpt>
      <trkpt lat="42.745771" lon="0.705068">
        <ele>841.2</ele>
        <time>1970-01-01T03:59:17.000Z</time>
      </trkpt>
      <trkpt lat="42.745698" lon="0.705161">
        <ele>841.2</ele>
        <time>1970-01-01T03:59:19.000Z</time>
      </trkpt>
      <trkpt lat="42.745542" lon="0.705337">
        <ele>841</ele>
        <time>1970-01-01T03:59:23.000Z</time>
      </trkpt>
      <trkpt lat="42.745096" lon="0.705838">
        <ele>840.2</ele>
        <time>1970-01-01T03:59:34.000Z</time>
      </trkpt>
      <trkpt lat="42.744738" lon="0.706244">
        <ele>840.4</ele>
        <time>1970-01-01T03:59:43.000Z</time>
      </trkpt>
      <trkpt lat="42.744297" lon="0.706766">
        <ele>840.6</ele>
        <time>1970-01-01T03:59:55.000Z</time>
      </trkpt>
      <trkpt lat="42.743852" lon="0.707283">
        <ele>841.6</ele>
        <time>1970-01-01T04:00:07.000Z</time>
      </trkpt>
      <trkpt lat="42.743738" lon="0.707414">
        <ele>842.2</ele>
        <time>1970-01-01T04:00:10.000Z</time>
      </trkpt>
      <trkpt lat="42.743407" lon="0.707806">
        <ele>843.2</ele>
        <time>1970-01-01T04:00:19.000Z</time>
      </trkpt>
      <trkpt lat="42.743072" lon="0.708189">
        <ele>844.4</ele>
        <time>1970-01-01T04:00:28.000Z</time>
      </trkpt>
      <trkpt lat="42.742879" lon="0.70838">
        <ele>845.2</ele>
        <time>1970-01-01T04:00:33.000Z</time>
      </trkpt>
      <trkpt lat="42.742835" lon="0.708394">
        <ele>845.2</ele>
        <time>1970-01-01T04:00:34.000Z</time>
      </trkpt>
      <trkpt lat="42.742749" lon="0.708152">
        <ele>845.2</ele>
        <time>1970-01-01T04:00:40.000Z</time>
      </trkpt>
      <trkpt lat="42.742752" lon="0.707978">
        <ele>844.8</ele>
        <time>1970-01-01T04:00:43.000Z</time>
      </trkpt>
      <trkpt lat="42.742757" lon="0.70778">
        <ele>844.4</ele>
        <time>1970-01-01T04:00:46.000Z</time>
      </trkpt>
      <trkpt lat="42.742587" lon="0.707568">
        <ele>843.4</ele>
        <time>1970-01-01T04:00:51.000Z</time>
      </trkpt>
      <trkpt lat="42.742413" lon="0.707756">
        <ele>843</ele>
        <time>1970-01-01T04:00:56.000Z</time>
      </trkpt>
      <trkpt lat="42.742" lon="0.707885">
        <ele>844.2</ele>
        <time>1970-01-01T04:01:13.000Z</time>
      </trkpt>
      <trkpt lat="42.741885" lon="0.70799">
        <ele>844.6</ele>
        <time>1970-01-01T04:01:18.000Z</time>
      </trkpt>
      <trkpt lat="42.741864" lon="0.708014">
        <ele>844.8</ele>
        <time>1970-01-01T04:01:19.000Z</time>
      </trkpt>
      <trkpt lat="42.741802" lon="0.708073">
        <ele>845.6</ele>
        <time>1970-01-01T04:01:22.000Z</time>
      </trkpt>
      <trkpt lat="42.741721" lon="0.708188">
        <ele>846.6</ele>
        <time>1970-01-01T04:01:27.000Z</time>
      </trkpt>
      <trkpt lat="42.741362" lon="0.708685">
        <ele>845.6</ele>
        <time>1970-01-01T04:01:41.000Z</time>
      </trkpt>
      <trkpt lat="42.741052" lon="0.709288">
        <ele>846.6</ele>
        <time>1970-01-01T04:01:55.000Z</time>
      </trkpt>
      <trkpt lat="42.740995" lon="0.709353">
        <ele>846.8</ele>
        <time>1970-01-01T04:01:57.000Z</time>
      </trkpt>
      <trkpt lat="42.740776" lon="0.709699">
        <ele>847.8</ele>
        <time>1970-01-01T04:02:06.000Z</time>
      </trkpt>
      <trkpt lat="42.740634" lon="0.710164">
        <ele>849</ele>
        <time>1970-01-01T04:02:17.000Z</time>
      </trkpt>
      <trkpt lat="42.740616" lon="0.710267">
        <ele>849.8</ele>
        <time>1970-01-01T04:02:20.000Z</time>
      </trkpt>
      <trkpt lat="42.740595" lon="0.710354">
        <ele>851</ele>
        <time>1970-01-01T04:02:23.000Z</time>
      </trkpt>
      <trkpt lat="42.740574" lon="0.710477">
        <ele>852</ele>
        <time>1970-01-01T04:02:27.000Z</time>
      </trkpt>
      <trkpt lat="42.740513" lon="0.710617">
        <ele>853.2</ele>
        <time>1970-01-01T04:02:32.000Z</time>
      </trkpt>
      <trkpt lat="42.740439" lon="0.710758">
        <ele>854.4</ele>
        <time>1970-01-01T04:02:37.000Z</time>
      </trkpt>
      <trkpt lat="42.740086" lon="0.711115">
        <ele>854.4</ele>
        <time>1970-01-01T04:02:50.000Z</time>
      </trkpt>
      <trkpt lat="42.739848" lon="0.711171">
        <ele>853.6</ele>
        <time>1970-01-01T04:02:55.000Z</time>
      </trkpt>
      <trkpt lat="42.739296" lon="0.711332">
        <ele>853.6</ele>
        <time>1970-01-01T04:03:11.000Z</time>
      </trkpt>
      <trkpt lat="42.739178" lon="0.711366">
        <ele>854</ele>
        <time>1970-01-01T04:03:15.000Z</time>
      </trkpt>
      <trkpt lat="42.738987" lon="0.711479">
        <ele>855.4</ele>
        <time>1970-01-01T04:03:22.000Z</time>
      </trkpt>
      <trkpt lat="42.738908" lon="0.711571">
        <ele>856.6</ele>
        <time>1970-01-01T04:03:26.000Z</time>
      </trkpt>
      <trkpt lat="42.738779" lon="0.711675">
        <ele>857.4</ele>
        <time>1970-01-01T04:03:32.000Z</time>
      </trkpt>
      <trkpt lat="42.73869" lon="0.711728">
        <ele>858.6</ele>
        <time>1970-01-01T04:03:36.000Z</time>
      </trkpt>
      <trkpt lat="42.738602" lon="0.711839">
        <ele>859.8</ele>
        <time>1970-01-01T04:03:41.000Z</time>
      </trkpt>
      <trkpt lat="42.738498" lon="0.712017">
        <ele>860.8</ele>
        <time>1970-01-01T04:03:48.000Z</time>
      </trkpt>
      <trkpt lat="42.738108" lon="0.712589">
        <ele>861.4</ele>
        <time>1970-01-01T04:04:06.000Z</time>
      </trkpt>
      <trkpt lat="42.737708" lon="0.713089">
        <ele>861.4</ele>
        <time>1970-01-01T04:04:20.000Z</time>
      </trkpt>
      <trkpt lat="42.737565" lon="0.713217">
        <ele>861.8</ele>
        <time>1970-01-01T04:04:25.000Z</time>
      </trkpt>
      <trkpt lat="42.737358" lon="0.713783">
        <ele>863</ele>
        <time>1970-01-01T04:04:41.000Z</time>
      </trkpt>
      <trkpt lat="42.737307" lon="0.714073">
        <ele>864</ele>
        <time>1970-01-01T04:04:49.000Z</time>
      </trkpt>
      <trkpt lat="42.737248" lon="0.714527">
        <ele>865</ele>
        <time>1970-01-01T04:05:01.000Z</time>
      </trkpt>
      <trkpt lat="42.737221" lon="0.714721">
        <ele>866.2</ele>
        <time>1970-01-01T04:05:07.000Z</time>
      </trkpt>
      <trkpt lat="42.737192" lon="0.714976">
        <ele>867.4</ele>
        <time>1970-01-01T04:05:14.000Z</time>
      </trkpt>
      <trkpt lat="42.737154" lon="0.71525">
        <ele>868.2</ele>
        <time>1970-01-01T04:05:22.000Z</time>
      </trkpt>
      <trkpt lat="42.73714" lon="0.715323">
        <ele>868.4</ele>
        <time>1970-01-01T04:05:24.000Z</time>
      </trkpt>
      <trkpt lat="42.737108" lon="0.715601">
        <ele>869.4</ele>
        <time>1970-01-01T04:05:31.000Z</time>
      </trkpt>
      <trkpt lat="42.737055" lon="0.715852">
        <ele>870.2</ele>
        <time>1970-01-01T04:05:38.000Z</time>
      </trkpt>
      <trkpt lat="42.737023" lon="0.716153">
        <ele>871.4</ele>
        <time>1970-01-01T04:05:46.000Z</time>
      </trkpt>
      <trkpt lat="42.736988" lon="0.716397">
        <ele>872.6</ele>
        <time>1970-01-01T04:05:53.000Z</time>
      </trkpt>
      <trkpt lat="42.737011" lon="0.716633">
        <ele>873.8</ele>
        <time>1970-01-01T04:06:00.000Z</time>
      </trkpt>
      <trkpt lat="42.737007" lon="0.7167">
        <ele>874.4</ele>
        <time>1970-01-01T04:06:03.000Z</time>
      </trkpt>
      <trkpt lat="42.736963" lon="0.716744">
        <ele>875</ele>
        <time>1970-01-01T04:06:06.000Z</time>
      </trkpt>
      <trkpt lat="42.736947" lon="0.716757">
        <ele>875.4</ele>
        <time>1970-01-01T04:06:07.000Z</time>
      </trkpt>
      <trkpt lat="42.736914" lon="0.716778">
        <ele>876.2</ele>
        <time>1970-01-01T04:06:09.000Z</time>
      </trkpt>
      <trkpt lat="42.736879" lon="0.716853">
        <ele>877.6</ele>
        <time>1970-01-01T04:06:13.000Z</time>
      </trkpt>
      <trkpt lat="42.736853" lon="0.716883">
        <ele>878.2</ele>
        <time>1970-01-01T04:06:15.000Z</time>
      </trkpt>
      <trkpt lat="42.736824" lon="0.716917">
        <ele>878.8</ele>
        <time>1970-01-01T04:06:17.000Z</time>
      </trkpt>
      <trkpt lat="42.73681" lon="0.716967">
        <ele>879.2</ele>
        <time>1970-01-01T04:06:19.000Z</time>
      </trkpt>
      <trkpt lat="42.736837" lon="0.717006">
        <ele>879.8</ele>
        <time>1970-01-01T04:06:21.000Z</time>
      </trkpt>
      <trkpt lat="42.736854" lon="0.717003">
        <ele>880.2</ele>
        <time>1970-01-01T04:06:22.000Z</time>
      </trkpt>
      <trkpt lat="42.736913" lon="0.716989">
        <ele>881.2</ele>
        <time>1970-01-01T04:06:26.000Z</time>
      </trkpt>
      <trkpt lat="42.737021" lon="0.716942">
        <ele>882.4</ele>
        <time>1970-01-01T04:06:32.000Z</time>
      </trkpt>
      <trkpt lat="42.737103" lon="0.716912">
        <ele>883.6</ele>
        <time>1970-01-01T04:06:36.000Z</time>
      </trkpt>
      <trkpt lat="42.737167" lon="0.716901">
        <ele>884.8</ele>
        <time>1970-01-01T04:06:40.000Z</time>
      </trkpt>
      <trkpt lat="42.737257" lon="0.716883">
        <ele>886</ele>
        <time>1970-01-01T04:06:45.000Z</time>
      </trkpt>
      <trkpt lat="42.73734" lon="0.716869">
        <ele>887.2</ele>
        <time>1970-01-01T04:06:49.000Z</time>
      </trkpt>
      <trkpt lat="42.737412" lon="0.716861">
        <ele>888.4</ele>
        <time>1970-01-01T04:06:53.000Z</time>
      </trkpt>
      <trkpt lat="42.73746" lon="0.716849">
        <ele>889.8</ele>
        <time>1970-01-01T04:06:56.000Z</time>
      </trkpt>
      <trkpt lat="42.737565" lon="0.716893">
        <ele>890.8</ele>
        <time>1970-01-01T04:07:01.000Z</time>
      </trkpt>
      <trkpt lat="42.737655" lon="0.716931">
        <ele>892.2</ele>
        <time>1970-01-01T04:07:06.000Z</time>
      </trkpt>
      <trkpt lat="42.737704" lon="0.717013">
        <ele>893.2</ele>
        <time>1970-01-01T04:07:10.000Z</time>
      </trkpt>
      <trkpt lat="42.737734" lon="0.717108">
        <ele>894.4</ele>
        <time>1970-01-01T04:07:14.000Z</time>
      </trkpt>
      <trkpt lat="42.73776" lon="0.717202">
        <ele>895.4</ele>
        <time>1970-01-01T04:07:18.000Z</time>
      </trkpt>
      <trkpt lat="42.737774" lon="0.717266">
        <ele>896.6</ele>
        <time>1970-01-01T04:07:21.000Z</time>
      </trkpt>
      <trkpt lat="42.737808" lon="0.717373">
        <ele>897.6</ele>
        <time>1970-01-01T04:07:26.000Z</time>
      </trkpt>
      <trkpt lat="42.737845" lon="0.717498">
        <ele>898.6</ele>
        <time>1970-01-01T04:07:31.000Z</time>
      </trkpt>
      <trkpt lat="42.737867" lon="0.717678">
        <ele>899.6</ele>
        <time>1970-01-01T04:07:39.000Z</time>
      </trkpt>
      <trkpt lat="42.737934" lon="0.718049">
        <ele>900.6</ele>
        <time>1970-01-01T04:07:53.000Z</time>
      </trkpt>
      <trkpt lat="42.737955" lon="0.71878">
        <ele>901</ele>
        <time>1970-01-01T04:08:16.000Z</time>
      </trkpt>
      <trkpt lat="42.737953" lon="0.718994">
        <ele>899.4</ele>
        <time>1970-01-01T04:08:22.000Z</time>
      </trkpt>
      <trkpt lat="42.737925" lon="0.719034">
        <ele>898.4</ele>
        <time>1970-01-01T04:08:26.000Z</time>
      </trkpt>
      <trkpt lat="42.737945" lon="0.719068">
        <ele>898</ele>
        <time>1970-01-01T04:08:38.000Z</time>
      </trkpt>
      <trkpt lat="42.73803" lon="0.71919">
        <ele>897.6</ele>
        <time>1970-01-01T04:08:42.000Z</time>
      </trkpt>
      <trkpt lat="42.738035" lon="0.719353">
        <ele>896.8</ele>
        <time>1970-01-01T04:08:45.000Z</time>
      </trkpt>
      <trkpt lat="42.738032" lon="0.719521">
        <ele>895.6</ele>
        <time>1970-01-01T04:08:48.000Z</time>
      </trkpt>
      <trkpt lat="42.738037" lon="0.719584">
        <ele>895.2</ele>
        <time>1970-01-01T04:08:49.000Z</time>
      </trkpt>
      <trkpt lat="42.738043" lon="0.719727">
        <ele>894.4</ele>
        <time>1970-01-01T04:08:51.000Z</time>
      </trkpt>
      <trkpt lat="42.73804" lon="0.719876">
        <ele>893.4</ele>
        <time>1970-01-01T04:08:53.000Z</time>
      </trkpt>
      <trkpt lat="42.738033" lon="0.71995">
        <ele>891.8</ele>
        <time>1970-01-01T04:08:55.000Z</time>
      </trkpt>
      <trkpt lat="42.738019" lon="0.720004">
        <ele>890.8</ele>
        <time>1970-01-01T04:08:58.000Z</time>
      </trkpt>
      <trkpt lat="42.738001" lon="0.720078">
        <ele>890.4</ele>
        <time>1970-01-01T04:09:00.000Z</time>
      </trkpt>
      <trkpt lat="42.737957" lon="0.720186">
        <ele>889.6</ele>
        <time>1970-01-01T04:09:03.000Z</time>
      </trkpt>
      <trkpt lat="42.73788" lon="0.720158">
        <ele>889.6</ele>
        <time>1970-01-01T04:09:07.000Z</time>
      </trkpt>
      <trkpt lat="42.737821" lon="0.720125">
        <ele>890.8</ele>
        <time>1970-01-01T04:09:11.000Z</time>
      </trkpt>
      <trkpt lat="42.737756" lon="0.72013">
        <ele>892</ele>
        <time>1970-01-01T04:09:14.000Z</time>
      </trkpt>
      <trkpt lat="42.73767" lon="0.720143">
        <ele>893.2</ele>
        <time>1970-01-01T04:09:18.000Z</time>
      </trkpt>
      <trkpt lat="42.737608" lon="0.720145">
        <ele>894</ele>
        <time>1970-01-01T04:09:21.000Z</time>
      </trkpt>
      <trkpt lat="42.737582" lon="0.720166">
        <ele>894.2</ele>
        <time>1970-01-01T04:09:22.000Z</time>
      </trkpt>
      <trkpt lat="42.737484" lon="0.720319">
        <ele>894.2</ele>
        <time>1970-01-01T04:09:27.000Z</time>
      </trkpt>
      <trkpt lat="42.737345" lon="0.720587">
        <ele>894</ele>
        <time>1970-01-01T04:09:36.000Z</time>
      </trkpt>
      <trkpt lat="42.737295" lon="0.721222">
        <ele>895.4</ele>
        <time>1970-01-01T04:09:50.000Z</time>
      </trkpt>
      <trkpt lat="42.737299" lon="0.721997">
        <ele>896.4</ele>
        <time>1970-01-01T04:10:06.000Z</time>
      </trkpt>
      <trkpt lat="42.737298" lon="0.722101">
        <ele>896.4</ele>
        <time>1970-01-01T04:10:08.000Z</time>
      </trkpt>
      <trkpt lat="42.737286" lon="0.722852">
        <ele>896.8</ele>
        <time>1970-01-01T04:10:22.000Z</time>
      </trkpt>
      <trkpt lat="42.737301" lon="0.723099">
        <ele>897.6</ele>
        <time>1970-01-01T04:10:27.000Z</time>
      </trkpt>
      <trkpt lat="42.737327" lon="0.723358">
        <ele>898.4</ele>
        <time>1970-01-01T04:10:33.000Z</time>
      </trkpt>
      <trkpt lat="42.737328" lon="0.723516">
        <ele>899.4</ele>
        <time>1970-01-01T04:10:37.000Z</time>
      </trkpt>
      <trkpt lat="42.737333" lon="0.723758">
        <ele>900.4</ele>
        <time>1970-01-01T04:10:43.000Z</time>
      </trkpt>
      <trkpt lat="42.737316" lon="0.723887">
        <ele>900.6</ele>
        <time>1970-01-01T04:10:46.000Z</time>
      </trkpt>
      <trkpt lat="42.737291" lon="0.724487">
        <ele>900.8</ele>
        <time>1970-01-01T04:10:57.000Z</time>
      </trkpt>
      <trkpt lat="42.737333" lon="0.725049">
        <ele>901.4</ele>
        <time>1970-01-01T04:11:07.000Z</time>
      </trkpt>
      <trkpt lat="42.737327" lon="0.725106">
        <ele>901.6</ele>
        <time>1970-01-01T04:11:08.000Z</time>
      </trkpt>
      <trkpt lat="42.737289" lon="0.725355">
        <ele>901.4</ele>
        <time>1970-01-01T04:11:12.000Z</time>
      </trkpt>
      <trkpt lat="42.737238" lon="0.725729">
        <ele>900.4</ele>
        <time>1970-01-01T04:11:17.000Z</time>
      </trkpt>
      <trkpt lat="42.737213" lon="0.725902">
        <ele>899.6</ele>
        <time>1970-01-01T04:11:19.000Z</time>
      </trkpt>
      <trkpt lat="42.737195" lon="0.725991">
        <ele>899.2</ele>
        <time>1970-01-01T04:11:20.000Z</time>
      </trkpt>
      <trkpt lat="42.737183" lon="0.726083">
        <ele>898.8</ele>
        <time>1970-01-01T04:11:21.000Z</time>
      </trkpt>
      <trkpt lat="42.737159" lon="0.726272">
        <ele>897.6</ele>
        <time>1970-01-01T04:11:23.000Z</time>
      </trkpt>
      <trkpt lat="42.737136" lon="0.726364">
        <ele>897</ele>
        <time>1970-01-01T04:11:24.000Z</time>
      </trkpt>
      <trkpt lat="42.737069" lon="0.726541">
        <ele>896.4</ele>
        <time>1970-01-01T04:11:26.000Z</time>
      </trkpt>
      <trkpt lat="42.737023" lon="0.726739">
        <ele>895.6</ele>
        <time>1970-01-01T04:11:28.000Z</time>
      </trkpt>
      <trkpt lat="42.736995" lon="0.72684">
        <ele>895.2</ele>
        <time>1970-01-01T04:11:29.000Z</time>
      </trkpt>
      <trkpt lat="42.736907" lon="0.727132">
        <ele>894</ele>
        <time>1970-01-01T04:11:32.000Z</time>
      </trkpt>
      <trkpt lat="42.736842" lon="0.727405">
        <ele>892.4</ele>
        <time>1970-01-01T04:11:35.000Z</time>
      </trkpt>
      <trkpt lat="42.736829" lon="0.727479">
        <ele>891.4</ele>
        <time>1970-01-01T04:11:36.000Z</time>
      </trkpt>
      <trkpt lat="42.73682" lon="0.727544">
        <ele>890.8</ele>
        <time>1970-01-01T04:11:37.000Z</time>
      </trkpt>
      <trkpt lat="42.736801" lon="0.727745">
        <ele>889.4</ele>
        <time>1970-01-01T04:11:40.000Z</time>
      </trkpt>
      <trkpt lat="42.736787" lon="0.727867">
        <ele>888.6</ele>
        <time>1970-01-01T04:11:42.000Z</time>
      </trkpt>
      <trkpt lat="42.736777" lon="0.727933">
        <ele>888</ele>
        <time>1970-01-01T04:11:43.000Z</time>
      </trkpt>
      <trkpt lat="42.736773" lon="0.728002">
        <ele>887.6</ele>
        <time>1970-01-01T04:11:44.000Z</time>
      </trkpt>
      <trkpt lat="42.73678" lon="0.728147">
        <ele>886.8</ele>
        <time>1970-01-01T04:11:46.000Z</time>
      </trkpt>
      <trkpt lat="42.736804" lon="0.728447">
        <ele>885.8</ele>
        <time>1970-01-01T04:11:51.000Z</time>
      </trkpt>
      <trkpt lat="42.736855" lon="0.728777">
        <ele>885</ele>
        <time>1970-01-01T04:11:57.000Z</time>
      </trkpt>
      <trkpt lat="42.736886" lon="0.728905">
        <ele>884.8</ele>
        <time>1970-01-01T04:11:59.000Z</time>
      </trkpt>
      <trkpt lat="42.73691" lon="0.729205">
        <ele>884.8</ele>
        <time>1970-01-01T04:12:03.000Z</time>
      </trkpt>
      <trkpt lat="42.736906" lon="0.729285">
        <ele>884.4</ele>
        <time>1970-01-01T04:12:04.000Z</time>
      </trkpt>
      <trkpt lat="42.7369" lon="0.729429">
        <ele>883.8</ele>
        <time>1970-01-01T04:12:06.000Z</time>
      </trkpt>
      <trkpt lat="42.736848" lon="0.729932">
        <ele>882.8</ele>
        <time>1970-01-01T04:12:14.000Z</time>
      </trkpt>
      <trkpt lat="42.736863" lon="0.730381">
        <ele>885</ele>
        <time>1970-01-01T04:12:23.000Z</time>
      </trkpt>
      <trkpt lat="42.736893" lon="0.730528">
        <ele>885.2</ele>
        <time>1970-01-01T04:12:26.000Z</time>
      </trkpt>
      <trkpt lat="42.736994" lon="0.730848">
        <ele>884.8</ele>
        <time>1970-01-01T04:12:31.000Z</time>
      </trkpt>
      <trkpt lat="42.737119" lon="0.731111">
        <ele>883.8</ele>
        <time>1970-01-01T04:12:35.000Z</time>
      </trkpt>
      <trkpt lat="42.737196" lon="0.731219">
        <ele>883.6</ele>
        <time>1970-01-01T04:12:37.000Z</time>
      </trkpt>
      <trkpt lat="42.737268" lon="0.731325">
        <ele>883.4</ele>
        <time>1970-01-01T04:12:39.000Z</time>
      </trkpt>
      <trkpt lat="42.737433" lon="0.73157">
        <ele>882.4</ele>
        <time>1970-01-01T04:12:43.000Z</time>
      </trkpt>
      <trkpt lat="42.737547" lon="0.731761">
        <ele>881.6</ele>
        <time>1970-01-01T04:12:46.000Z</time>
      </trkpt>
      <trkpt lat="42.73759" lon="0.731972">
        <ele>881.4</ele>
        <time>1970-01-01T04:12:49.000Z</time>
      </trkpt>
      <trkpt lat="42.737587" lon="0.732103">
        <ele>880.8</ele>
        <time>1970-01-01T04:12:51.000Z</time>
      </trkpt>
      <trkpt lat="42.737555" lon="0.732604">
        <ele>881</ele>
        <time>1970-01-01T04:12:59.000Z</time>
      </trkpt>
      <trkpt lat="42.737508" lon="0.732861">
        <ele>880.8</ele>
        <time>1970-01-01T04:13:03.000Z</time>
      </trkpt>
      <trkpt lat="42.737262" lon="0.733545">
        <ele>880.6</ele>
        <time>1970-01-01T04:13:14.000Z</time>
      </trkpt>
      <trkpt lat="42.737206" lon="0.733727">
        <ele>880.6</ele>
        <time>1970-01-01T04:13:17.000Z</time>
      </trkpt>
      <trkpt lat="42.737048" lon="0.734226">
        <ele>880.6</ele>
        <time>1970-01-01T04:13:25.000Z</time>
      </trkpt>
      <trkpt lat="42.736993" lon="0.734838">
        <ele>879.6</ele>
        <time>1970-01-01T04:13:34.000Z</time>
      </trkpt>
      <trkpt lat="42.736995" lon="0.734935">
        <ele>878.4</ele>
        <time>1970-01-01T04:13:37.000Z</time>
      </trkpt>
      <trkpt lat="42.736995" lon="0.735203">
        <ele>877.2</ele>
        <time>1970-01-01T04:13:45.000Z</time>
      </trkpt>
      <trkpt lat="42.73702" lon="0.735656">
        <ele>876.2</ele>
        <time>1970-01-01T04:13:52.000Z</time>
      </trkpt>
      <trkpt lat="42.73709" lon="0.73625">
        <ele>875.6</ele>
        <time>1970-01-01T04:14:01.000Z</time>
      </trkpt>
      <trkpt lat="42.737086" lon="0.736417">
        <ele>876.2</ele>
        <time>1970-01-01T04:14:04.000Z</time>
      </trkpt>
      <trkpt lat="42.737097" lon="0.736638">
        <ele>876.4</ele>
        <time>1970-01-01T04:14:08.000Z</time>
      </trkpt>
      <trkpt lat="42.737105" lon="0.73688">
        <ele>877</ele>
        <time>1970-01-01T04:14:13.000Z</time>
      </trkpt>
      <trkpt lat="42.737101" lon="0.736924">
        <ele>877</ele>
        <time>1970-01-01T04:14:14.000Z</time>
      </trkpt>
      <trkpt lat="42.737111" lon="0.737288">
        <ele>878</ele>
        <time>1970-01-01T04:14:23.000Z</time>
      </trkpt>
      <trkpt lat="42.737022" lon="0.737519">
        <ele>879.2</ele>
        <time>1970-01-01T04:14:29.000Z</time>
      </trkpt>
      <trkpt lat="42.736957" lon="0.737882">
        <ele>880.4</ele>
        <time>1970-01-01T04:14:38.000Z</time>
      </trkpt>
      <trkpt lat="42.737007" lon="0.738623">
        <ele>881.2</ele>
        <time>1970-01-01T04:14:53.000Z</time>
      </trkpt>
      <trkpt lat="42.737021" lon="0.739399">
        <ele>880.8</ele>
        <time>1970-01-01T04:15:06.000Z</time>
      </trkpt>
      <trkpt lat="42.737018" lon="0.73952">
        <ele>880.6</ele>
        <time>1970-01-01T04:15:08.000Z</time>
      </trkpt>
      <trkpt lat="42.736921" lon="0.74014">
        <ele>882.2</ele>
        <time>1970-01-01T04:15:20.000Z</time>
      </trkpt>
      <trkpt lat="42.736911" lon="0.740193">
        <ele>882.2</ele>
        <time>1970-01-01T04:15:21.000Z</time>
      </trkpt>
      <trkpt lat="42.736863" lon="0.740431">
        <ele>881.8</ele>
        <time>1970-01-01T04:15:25.000Z</time>
      </trkpt>
      <trkpt lat="42.736538" lon="0.741058">
        <ele>883</ele>
        <time>1970-01-01T04:15:41.000Z</time>
      </trkpt>
      <trkpt lat="42.736427" lon="0.741412">
        <ele>884</ele>
        <time>1970-01-01T04:15:49.000Z</time>
      </trkpt>
      <trkpt lat="42.736391" lon="0.741609">
        <ele>885.2</ele>
        <time>1970-01-01T04:15:54.000Z</time>
      </trkpt>
      <trkpt lat="42.736302" lon="0.74195">
        <ele>886.4</ele>
        <time>1970-01-01T04:16:03.000Z</time>
      </trkpt>
      <trkpt lat="42.736237" lon="0.742163">
        <ele>887.4</ele>
        <time>1970-01-01T04:16:09.000Z</time>
      </trkpt>
      <trkpt lat="42.73622" lon="0.742191">
        <ele>887.4</ele>
        <time>1970-01-01T04:16:10.000Z</time>
      </trkpt>
      <trkpt lat="42.73609" lon="0.742559">
        <ele>888.4</ele>
        <time>1970-01-01T04:16:20.000Z</time>
      </trkpt>
      <trkpt lat="42.736003" lon="0.743182">
        <ele>889.4</ele>
        <time>1970-01-01T04:16:34.000Z</time>
      </trkpt>
      <trkpt lat="42.735976" lon="0.743403">
        <ele>890</ele>
        <time>1970-01-01T04:16:40.000Z</time>
      </trkpt>
      <trkpt lat="42.735968" lon="0.743535">
        <ele>890.4</ele>
        <time>1970-01-01T04:16:46.000Z</time>
      </trkpt>
      <trkpt lat="42.735948" lon="0.74389">
        <ele>891.2</ele>
        <time>1970-01-01T04:16:55.000Z</time>
      </trkpt>
      <trkpt lat="42.735948" lon="0.744167">
        <ele>892.4</ele>
        <time>1970-01-01T04:17:02.000Z</time>
      </trkpt>
      <trkpt lat="42.735959" lon="0.744271">
        <ele>892</ele>
        <time>1970-01-01T04:17:04.000Z</time>
      </trkpt>
      <trkpt lat="42.735968" lon="0.744386">
        <ele>892.2</ele>
        <time>1970-01-01T04:17:06.000Z</time>
      </trkpt>
      <trkpt lat="42.735971" lon="0.744682">
        <ele>892.4</ele>
        <time>1970-01-01T04:17:12.000Z</time>
      </trkpt>
      <trkpt lat="42.735953" lon="0.745151">
        <ele>893</ele>
        <time>1970-01-01T04:17:22.000Z</time>
      </trkpt>
      <trkpt lat="42.736057" lon="0.745879">
        <ele>893.6</ele>
        <time>1970-01-01T04:17:37.000Z</time>
      </trkpt>
      <trkpt lat="42.736064" lon="0.745928">
        <ele>893.8</ele>
        <time>1970-01-01T04:17:38.000Z</time>
      </trkpt>
      <trkpt lat="42.736063" lon="0.746247">
        <ele>895</ele>
        <time>1970-01-01T04:17:45.000Z</time>
      </trkpt>
      <trkpt lat="42.736077" lon="0.746404">
        <ele>896.2</ele>
        <time>1970-01-01T04:17:49.000Z</time>
      </trkpt>
      <trkpt lat="42.736062" lon="0.746609">
        <ele>897.2</ele>
        <time>1970-01-01T04:17:54.000Z</time>
      </trkpt>
      <trkpt lat="42.736113" lon="0.74684">
        <ele>898.4</ele>
        <time>1970-01-01T04:17:59.000Z</time>
      </trkpt>
      <trkpt lat="42.736183" lon="0.747072">
        <ele>899.2</ele>
        <time>1970-01-01T04:18:04.000Z</time>
      </trkpt>
      <trkpt lat="42.736189" lon="0.747117">
        <ele>899.4</ele>
        <time>1970-01-01T04:18:05.000Z</time>
      </trkpt>
      <trkpt lat="42.736397" lon="0.747839">
        <ele>900</ele>
        <time>1970-01-01T04:18:20.000Z</time>
      </trkpt>
      <trkpt lat="42.736416" lon="0.747892">
        <ele>900</ele>
        <time>1970-01-01T04:18:21.000Z</time>
      </trkpt>
      <trkpt lat="42.736515" lon="0.748144">
        <ele>901.2</ele>
        <time>1970-01-01T04:18:28.000Z</time>
      </trkpt>
      <trkpt lat="42.736549" lon="0.748264">
        <ele>902.4</ele>
        <time>1970-01-01T04:18:31.000Z</time>
      </trkpt>
      <trkpt lat="42.736789" lon="0.748947">
        <ele>902.6</ele>
        <time>1970-01-01T04:18:46.000Z</time>
      </trkpt>
      <trkpt lat="42.736803" lon="0.749003">
        <ele>902.6</ele>
        <time>1970-01-01T04:18:47.000Z</time>
      </trkpt>
      <trkpt lat="42.736857" lon="0.749293">
        <ele>902.2</ele>
        <time>1970-01-01T04:18:51.000Z</time>
      </trkpt>
      <trkpt lat="42.736864" lon="0.749578">
        <ele>901.4</ele>
        <time>1970-01-01T04:18:54.000Z</time>
      </trkpt>
      <trkpt lat="42.736849" lon="0.749679">
        <ele>900.8</ele>
        <time>1970-01-01T04:18:55.000Z</time>
      </trkpt>
      <trkpt lat="42.736814" lon="0.749872">
        <ele>899.2</ele>
        <time>1970-01-01T04:18:57.000Z</time>
      </trkpt>
      <trkpt lat="42.736788" lon="0.750059">
        <ele>898.4</ele>
        <time>1970-01-01T04:18:59.000Z</time>
      </trkpt>
      <trkpt lat="42.736784" lon="0.750406">
        <ele>898</ele>
        <time>1970-01-01T04:19:03.000Z</time>
      </trkpt>
      <trkpt lat="42.736787" lon="0.75063">
        <ele>897.8</ele>
        <time>1970-01-01T04:19:06.000Z</time>
      </trkpt>
      <trkpt lat="42.736789" lon="0.750965">
        <ele>898.2</ele>
        <time>1970-01-01T04:19:11.000Z</time>
      </trkpt>
      <trkpt lat="42.736792" lon="0.751083">
        <ele>899</ele>
        <time>1970-01-01T04:19:13.000Z</time>
      </trkpt>
      <trkpt lat="42.736788" lon="0.751251">
        <ele>899.6</ele>
        <time>1970-01-01T04:19:16.000Z</time>
      </trkpt>
      <trkpt lat="42.736747" lon="0.751994">
        <ele>899.8</ele>
        <time>1970-01-01T04:19:29.000Z</time>
      </trkpt>
      <trkpt lat="42.736743" lon="0.752108">
        <ele>900</ele>
        <time>1970-01-01T04:19:31.000Z</time>
      </trkpt>
      <trkpt lat="42.736747" lon="0.752879">
        <ele>899.6</ele>
        <time>1970-01-01T04:19:43.000Z</time>
      </trkpt>
      <trkpt lat="42.736753" lon="0.753432">
        <ele>900</ele>
        <time>1970-01-01T04:19:52.000Z</time>
      </trkpt>
      <trkpt lat="42.736728" lon="0.753887">
        <ele>900.4</ele>
        <time>1970-01-01T04:19:59.000Z</time>
      </trkpt>
      <trkpt lat="42.736738" lon="0.754053">
        <ele>900.8</ele>
        <time>1970-01-01T04:20:02.000Z</time>
      </trkpt>
      <trkpt lat="42.736748" lon="0.754329">
        <ele>902.2</ele>
        <time>1970-01-01T04:20:08.000Z</time>
      </trkpt>
      <trkpt lat="42.736756" lon="0.754425">
        <ele>903.4</ele>
        <time>1970-01-01T04:20:11.000Z</time>
      </trkpt>
      <trkpt lat="42.736756" lon="0.754628">
        <ele>904.4</ele>
        <time>1970-01-01T04:20:17.000Z</time>
      </trkpt>
      <trkpt lat="42.736734" lon="0.754896">
        <ele>905.6</ele>
        <time>1970-01-01T04:20:25.000Z</time>
      </trkpt>
      <trkpt lat="42.736733" lon="0.755105">
        <ele>906.6</ele>
        <time>1970-01-01T04:20:30.000Z</time>
      </trkpt>
      <trkpt lat="42.736665" lon="0.755862">
        <ele>907.2</ele>
        <time>1970-01-01T04:20:48.000Z</time>
      </trkpt>
      <trkpt lat="42.736627" lon="0.756466">
        <ele>907.8</ele>
        <time>1970-01-01T04:21:01.000Z</time>
      </trkpt>
      <trkpt lat="42.736607" lon="0.756689">
        <ele>908.8</ele>
        <time>1970-01-01T04:21:07.000Z</time>
      </trkpt>
      <trkpt lat="42.736571" lon="0.75693">
        <ele>910</ele>
        <time>1970-01-01T04:21:13.000Z</time>
      </trkpt>
      <trkpt lat="42.73652" lon="0.757292">
        <ele>911</ele>
        <time>1970-01-01T04:21:22.000Z</time>
      </trkpt>
      <trkpt lat="42.736314" lon="0.758016">
        <ele>911.2</ele>
        <time>1970-01-01T04:21:37.000Z</time>
      </trkpt>
      <trkpt lat="42.736084" lon="0.758502">
        <ele>911.6</ele>
        <time>1970-01-01T04:21:48.000Z</time>
      </trkpt>
      <trkpt lat="42.735888" lon="0.758865">
        <ele>910.4</ele>
        <time>1970-01-01T04:21:55.000Z</time>
      </trkpt>
      <trkpt lat="42.735695" lon="0.759164">
        <ele>910</ele>
        <time>1970-01-01T04:22:01.000Z</time>
      </trkpt>
      <trkpt lat="42.7355" lon="0.759439">
        <ele>910</ele>
        <time>1970-01-01T04:22:07.000Z</time>
      </trkpt>
      <trkpt lat="42.735384" lon="0.759645">
        <ele>910</ele>
        <time>1970-01-01T04:22:11.000Z</time>
      </trkpt>
      <trkpt lat="42.73526" lon="0.760201">
        <ele>909.2</ele>
        <time>1970-01-01T04:22:20.000Z</time>
      </trkpt>
      <trkpt lat="42.735175" lon="0.760965">
        <ele>909.8</ele>
        <time>1970-01-01T04:22:36.000Z</time>
      </trkpt>
      <trkpt lat="42.735177" lon="0.761146">
        <ele>910.8</ele>
        <time>1970-01-01T04:22:40.000Z</time>
      </trkpt>
      <trkpt lat="42.735173" lon="0.761388">
        <ele>911.8</ele>
        <time>1970-01-01T04:22:46.000Z</time>
      </trkpt>
      <trkpt lat="42.735182" lon="0.761706">
        <ele>912.8</ele>
        <time>1970-01-01T04:22:54.000Z</time>
      </trkpt>
      <trkpt lat="42.73524" lon="0.76197">
        <ele>914</ele>
        <time>1970-01-01T04:23:01.000Z</time>
      </trkpt>
      <trkpt lat="42.735266" lon="0.762217">
        <ele>915</ele>
        <time>1970-01-01T04:23:08.000Z</time>
      </trkpt>
      <trkpt lat="42.735292" lon="0.762467">
        <ele>916.2</ele>
        <time>1970-01-01T04:23:14.000Z</time>
      </trkpt>
      <trkpt lat="42.735306" lon="0.762688">
        <ele>917</ele>
        <time>1970-01-01T04:23:20.000Z</time>
      </trkpt>
      <trkpt lat="42.735317" lon="0.762925">
        <ele>918</ele>
        <time>1970-01-01T04:23:27.000Z</time>
      </trkpt>
      <trkpt lat="42.735311" lon="0.763238">
        <ele>919</ele>
        <time>1970-01-01T04:23:37.000Z</time>
      </trkpt>
      <trkpt lat="42.735259" lon="0.763756">
        <ele>920</ele>
        <time>1970-01-01T04:23:51.000Z</time>
      </trkpt>
      <trkpt lat="42.735136" lon="0.764316">
        <ele>920.8</ele>
        <time>1970-01-01T04:24:06.000Z</time>
      </trkpt>
      <trkpt lat="42.734849" lon="0.764948">
        <ele>921</ele>
        <time>1970-01-01T04:24:22.000Z</time>
      </trkpt>
      <trkpt lat="42.734494" lon="0.765509">
        <ele>921.6</ele>
        <time>1970-01-01T04:24:38.000Z</time>
      </trkpt>
      <trkpt lat="42.734155" lon="0.766085">
        <ele>920.8</ele>
        <time>1970-01-01T04:24:53.000Z</time>
      </trkpt>
      <trkpt lat="42.733721" lon="0.766543">
        <ele>921.2</ele>
        <time>1970-01-01T04:25:10.000Z</time>
      </trkpt>
      <trkpt lat="42.733336" lon="0.767065">
        <ele>921.2</ele>
        <time>1970-01-01T04:25:27.000Z</time>
      </trkpt>
      <trkpt lat="42.733168" lon="0.767488">
        <ele>921.8</ele>
        <time>1970-01-01T04:25:37.000Z</time>
      </trkpt>
      <trkpt lat="42.733053" lon="0.768221">
        <ele>922.8</ele>
        <time>1970-01-01T04:25:53.000Z</time>
      </trkpt>
      <trkpt lat="42.733048" lon="0.768261">
        <ele>922.8</ele>
        <time>1970-01-01T04:25:54.000Z</time>
      </trkpt>
      <trkpt lat="42.733001" lon="0.768583">
        <ele>924</ele>
        <time>1970-01-01T04:26:02.000Z</time>
      </trkpt>
      <trkpt lat="42.732981" lon="0.768862">
        <ele>925.2</ele>
        <time>1970-01-01T04:26:09.000Z</time>
      </trkpt>
      <trkpt lat="42.732936" lon="0.769155">
        <ele>926.2</ele>
        <time>1970-01-01T04:26:16.000Z</time>
      </trkpt>
      <trkpt lat="42.732758" lon="0.769893">
        <ele>926.8</ele>
        <time>1970-01-01T04:26:31.000Z</time>
      </trkpt>
      <trkpt lat="42.732688" lon="0.770195">
        <ele>927</ele>
        <time>1970-01-01T04:26:37.000Z</time>
      </trkpt>
      <trkpt lat="42.73246" lon="0.770896">
        <ele>927.6</ele>
        <time>1970-01-01T04:26:51.000Z</time>
      </trkpt>
      <trkpt lat="42.732331" lon="0.77115">
        <ele>928.2</ele>
        <time>1970-01-01T04:26:57.000Z</time>
      </trkpt>
      <trkpt lat="42.732213" lon="0.771558">
        <ele>929</ele>
        <time>1970-01-01T04:27:06.000Z</time>
      </trkpt>
      <trkpt lat="42.732048" lon="0.772273">
        <ele>929.8</ele>
        <time>1970-01-01T04:27:20.000Z</time>
      </trkpt>
      <trkpt lat="42.732007" lon="0.772445">
        <ele>930</ele>
        <time>1970-01-01T04:27:23.000Z</time>
      </trkpt>
      <trkpt lat="42.73198" lon="0.772563">
        <ele>930</ele>
        <time>1970-01-01T04:27:25.000Z</time>
      </trkpt>
      <trkpt lat="42.731868" lon="0.773319">
        <ele>930.6</ele>
        <time>1970-01-01T04:27:39.000Z</time>
      </trkpt>
      <trkpt lat="42.731775" lon="0.773647">
        <ele>930.2</ele>
        <time>1970-01-01T04:27:48.000Z</time>
      </trkpt>
      <trkpt lat="42.731752" lon="0.773708">
        <ele>929.2</ele>
        <time>1970-01-01T04:34:37.000Z</time>
      </trkpt>
      <trkpt lat="42.731567" lon="0.774409">
        <ele>930</ele>
        <time>1970-01-01T04:34:57.000Z</time>
      </trkpt>
      <trkpt lat="42.731368" lon="0.774848">
        <ele>929</ele>
        <time>1970-01-01T04:35:12.000Z</time>
      </trkpt>
      <trkpt lat="42.731349" lon="0.774868">
        <ele>928.8</ele>
        <time>1970-01-01T04:35:38.000Z</time>
      </trkpt>
      <trkpt lat="42.73101" lon="0.775115">
        <ele>928.4</ele>
        <time>1970-01-01T04:35:50.000Z</time>
      </trkpt>
      <trkpt lat="42.730912" lon="0.775229">
        <ele>928.2</ele>
        <time>1970-01-01T04:35:53.000Z</time>
      </trkpt>
      <trkpt lat="42.730532" lon="0.775819">
        <ele>929.6</ele>
        <time>1970-01-01T04:36:08.000Z</time>
      </trkpt>
      <trkpt lat="42.730503" lon="0.775865">
        <ele>929.8</ele>
        <time>1970-01-01T04:36:09.000Z</time>
      </trkpt>
      <trkpt lat="42.73017" lon="0.776351">
        <ele>930.8</ele>
        <time>1970-01-01T04:36:24.000Z</time>
      </trkpt>
      <trkpt lat="42.730168" lon="0.776356">
        <ele>931</ele>
        <time>1970-01-01T04:36:25.000Z</time>
      </trkpt>
      <trkpt lat="42.730123" lon="0.776436">
        <ele>931.6</ele>
        <time>1970-01-01T04:39:24.000Z</time>
      </trkpt>
      <trkpt lat="42.730061" lon="0.776678">
        <ele>932.6</ele>
        <time>1970-01-01T04:39:32.000Z</time>
      </trkpt>
      <trkpt lat="42.730112" lon="0.776951">
        <ele>933.6</ele>
        <time>1970-01-01T04:39:43.000Z</time>
      </trkpt>
      <trkpt lat="42.730244" lon="0.777059">
        <ele>934.8</ele>
        <time>1970-01-01T04:39:51.000Z</time>
      </trkpt>
      <trkpt lat="42.730463" lon="0.777183">
        <ele>935.4</ele>
        <time>1970-01-01T04:40:00.000Z</time>
      </trkpt>
      <trkpt lat="42.730561" lon="0.777033">
        <ele>935.8</ele>
        <time>1970-01-01T04:40:06.000Z</time>
      </trkpt>
      <trkpt lat="42.730713" lon="0.77674">
        <ele>936.8</ele>
        <time>1970-01-01T04:40:16.000Z</time>
      </trkpt>
      <trkpt lat="42.730825" lon="0.776662">
        <ele>938</ele>
        <time>1970-01-01T04:40:21.000Z</time>
      </trkpt>
      <trkpt lat="42.730933" lon="0.776619">
        <ele>939</ele>
        <time>1970-01-01T04:40:26.000Z</time>
      </trkpt>
      <trkpt lat="42.73089" lon="0.776848">
        <ele>940.2</ele>
        <time>1970-01-01T04:40:34.000Z</time>
      </trkpt>
      <trkpt lat="42.730844" lon="0.776966">
        <ele>941.4</ele>
        <time>1970-01-01T04:40:38.000Z</time>
      </trkpt>
      <trkpt lat="42.730643" lon="0.777287">
        <ele>941.8</ele>
        <time>1970-01-01T04:40:48.000Z</time>
      </trkpt>
      <trkpt lat="42.730439" lon="0.777601">
        <ele>942.4</ele>
        <time>1970-01-01T04:40:57.000Z</time>
      </trkpt>
      <trkpt lat="42.730199" lon="0.777896">
        <ele>943.2</ele>
        <time>1970-01-01T04:41:07.000Z</time>
      </trkpt>
      <trkpt lat="42.730033" lon="0.778371">
        <ele>944.4</ele>
        <time>1970-01-01T04:41:18.000Z</time>
      </trkpt>
      <trkpt lat="42.729907" lon="0.778864">
        <ele>945.4</ele>
        <time>1970-01-01T04:41:28.000Z</time>
      </trkpt>
      <trkpt lat="42.729756" lon="0.779402">
        <ele>946.4</ele>
        <time>1970-01-01T04:41:39.000Z</time>
      </trkpt>
      <trkpt lat="42.729592" lon="0.779891">
        <ele>946.6</ele>
        <time>1970-01-01T04:41:49.000Z</time>
      </trkpt>
      <trkpt lat="42.729384" lon="0.780288">
        <ele>947.4</ele>
        <time>1970-01-01T04:41:58.000Z</time>
      </trkpt>
      <trkpt lat="42.729059" lon="0.780747">
        <ele>947.6</ele>
        <time>1970-01-01T04:42:09.000Z</time>
      </trkpt>
      <trkpt lat="42.728689" lon="0.781294">
        <ele>947.8</ele>
        <time>1970-01-01T04:42:22.000Z</time>
      </trkpt>
      <trkpt lat="42.728283" lon="0.781862">
        <ele>947.8</ele>
        <time>1970-01-01T04:42:35.000Z</time>
      </trkpt>
      <trkpt lat="42.727903" lon="0.782384">
        <ele>947.8</ele>
        <time>1970-01-01T04:42:47.000Z</time>
      </trkpt>
      <trkpt lat="42.727812" lon="0.782516">
        <ele>948.2</ele>
        <time>1970-01-01T04:42:50.000Z</time>
      </trkpt>
      <trkpt lat="42.727553" lon="0.782866">
        <ele>949.4</ele>
        <time>1970-01-01T04:42:59.000Z</time>
      </trkpt>
      <trkpt lat="42.727365" lon="0.783129">
        <ele>950.6</ele>
        <time>1970-01-01T04:43:06.000Z</time>
      </trkpt>
      <trkpt lat="42.72725" lon="0.783273">
        <ele>951.6</ele>
        <time>1970-01-01T04:43:10.000Z</time>
      </trkpt>
      <trkpt lat="42.727063" lon="0.783458">
        <ele>952.8</ele>
        <time>1970-01-01T04:43:16.000Z</time>
      </trkpt>
      <trkpt lat="42.72687" lon="0.783605">
        <ele>954</ele>
        <time>1970-01-01T04:43:22.000Z</time>
      </trkpt>
      <trkpt lat="42.726631" lon="0.78375">
        <ele>954.8</ele>
        <time>1970-01-01T04:43:29.000Z</time>
      </trkpt>
      <trkpt lat="42.726261" lon="0.783981">
        <ele>955.8</ele>
        <time>1970-01-01T04:43:40.000Z</time>
      </trkpt>
      <trkpt lat="42.726025" lon="0.784243">
        <ele>957</ele>
        <time>1970-01-01T04:43:48.000Z</time>
      </trkpt>
      <trkpt lat="42.72576" lon="0.784679">
        <ele>957.4</ele>
        <time>1970-01-01T04:44:04.000Z</time>
      </trkpt>
      <trkpt lat="42.725782" lon="0.784738">
        <ele>957.6</ele>
        <time>1970-01-01T04:44:09.000Z</time>
      </trkpt>
      <trkpt lat="42.725826" lon="0.784782">
        <ele>957.8</ele>
        <time>1970-01-01T04:44:11.000Z</time>
      </trkpt>
      <trkpt lat="42.725895" lon="0.784819">
        <ele>958</ele>
        <time>1970-01-01T04:44:14.000Z</time>
      </trkpt>
      <trkpt lat="42.725987" lon="0.784798">
        <ele>959</ele>
        <time>1970-01-01T04:44:18.000Z</time>
      </trkpt>
      <trkpt lat="42.726143" lon="0.784648">
        <ele>960</ele>
        <time>1970-01-01T04:44:25.000Z</time>
      </trkpt>
      <trkpt lat="42.726356" lon="0.78446">
        <ele>961.2</ele>
        <time>1970-01-01T04:44:34.000Z</time>
      </trkpt>
      <trkpt lat="42.726468" lon="0.784532">
        <ele>962.2</ele>
        <time>1970-01-01T04:44:39.000Z</time>
      </trkpt>
      <trkpt lat="42.726482" lon="0.784589">
        <ele>962.6</ele>
        <time>1970-01-01T04:44:41.000Z</time>
      </trkpt>
      <trkpt lat="42.726466" lon="0.784698">
        <ele>963.4</ele>
        <time>1970-01-01T04:44:45.000Z</time>
      </trkpt>
      <trkpt lat="42.726413" lon="0.784815">
        <ele>964.4</ele>
        <time>1970-01-01T04:44:50.000Z</time>
      </trkpt>
      <trkpt lat="42.726343" lon="0.784961">
        <ele>965.6</ele>
        <time>1970-01-01T04:44:56.000Z</time>
      </trkpt>
      <trkpt lat="42.726304" lon="0.785065">
        <ele>966.6</ele>
        <time>1970-01-01T04:45:00.000Z</time>
      </trkpt>
      <trkpt lat="42.726252" lon="0.785225">
        <ele>967.8</ele>
        <time>1970-01-01T04:45:06.000Z</time>
      </trkpt>
      <trkpt lat="42.726201" lon="0.78537">
        <ele>968.8</ele>
        <time>1970-01-01T04:45:11.000Z</time>
      </trkpt>
      <trkpt lat="42.72615" lon="0.785512">
        <ele>970</ele>
        <time>1970-01-01T04:45:16.000Z</time>
      </trkpt>
      <trkpt lat="42.72609" lon="0.785658">
        <ele>971.2</ele>
        <time>1970-01-01T04:45:21.000Z</time>
      </trkpt>
      <trkpt lat="42.726011" lon="0.785807">
        <ele>972.2</ele>
        <time>1970-01-01T04:45:27.000Z</time>
      </trkpt>
      <trkpt lat="42.725952" lon="0.785898">
        <ele>973.4</ele>
        <time>1970-01-01T04:45:31.000Z</time>
      </trkpt>
      <trkpt lat="42.725897" lon="0.786001">
        <ele>974.4</ele>
        <time>1970-01-01T04:45:35.000Z</time>
      </trkpt>
      <trkpt lat="42.72586" lon="0.786087">
        <ele>975.4</ele>
        <time>1970-01-01T04:45:38.000Z</time>
      </trkpt>
      <trkpt lat="42.725801" lon="0.786196">
        <ele>976.8</ele>
        <time>1970-01-01T04:45:43.000Z</time>
      </trkpt>
      <trkpt lat="42.725732" lon="0.786311">
        <ele>978</ele>
        <time>1970-01-01T04:45:49.000Z</time>
      </trkpt>
      <trkpt lat="42.725695" lon="0.786396">
        <ele>979.2</ele>
        <time>1970-01-01T04:45:53.000Z</time>
      </trkpt>
      <trkpt lat="42.725669" lon="0.786457">
        <ele>980.2</ele>
        <time>1970-01-01T04:45:56.000Z</time>
      </trkpt>
      <trkpt lat="42.725607" lon="0.786583">
        <ele>981.4</ele>
        <time>1970-01-01T04:46:02.000Z</time>
      </trkpt>
      <trkpt lat="42.725532" lon="0.786732">
        <ele>982.4</ele>
        <time>1970-01-01T04:46:09.000Z</time>
      </trkpt>
      <trkpt lat="42.725499" lon="0.786802">
        <ele>983.6</ele>
        <time>1970-01-01T04:46:12.000Z</time>
      </trkpt>
      <trkpt lat="42.72543" lon="0.786946">
        <ele>984.6</ele>
        <time>1970-01-01T04:46:18.000Z</time>
      </trkpt>
      <trkpt lat="42.72537" lon="0.787064">
        <ele>985.8</ele>
        <time>1970-01-01T04:46:23.000Z</time>
      </trkpt>
      <trkpt lat="42.72532" lon="0.787209">
        <ele>987.2</ele>
        <time>1970-01-01T04:46:29.000Z</time>
      </trkpt>
      <trkpt lat="42.725277" lon="0.787323">
        <ele>988.2</ele>
        <time>1970-01-01T04:46:34.000Z</time>
      </trkpt>
      <trkpt lat="42.725242" lon="0.787434">
        <ele>989.4</ele>
        <time>1970-01-01T04:46:39.000Z</time>
      </trkpt>
      <trkpt lat="42.725214" lon="0.787535">
        <ele>990.6</ele>
        <time>1970-01-01T04:46:43.000Z</time>
      </trkpt>
      <trkpt lat="42.725184" lon="0.787636">
        <ele>991.8</ele>
        <time>1970-01-01T04:46:47.000Z</time>
      </trkpt>
      <trkpt lat="42.725151" lon="0.787736">
        <ele>992.6</ele>
        <time>1970-01-01T04:46:51.000Z</time>
      </trkpt>
      <trkpt lat="42.725072" lon="0.787909">
        <ele>993.6</ele>
        <time>1970-01-01T04:46:58.000Z</time>
      </trkpt>
      <trkpt lat="42.724953" lon="0.788164">
        <ele>994.6</ele>
        <time>1970-01-01T04:47:07.000Z</time>
      </trkpt>
      <trkpt lat="42.72477" lon="0.788759">
        <ele>995.4</ele>
        <time>1970-01-01T04:47:26.000Z</time>
      </trkpt>
      <trkpt lat="42.724702" lon="0.789038">
        <ele>996.4</ele>
        <time>1970-01-01T04:47:37.000Z</time>
      </trkpt>
      <trkpt lat="42.724677" lon="0.789107">
        <ele>996.2</ele>
        <time>1970-01-01T04:47:42.000Z</time>
      </trkpt>
      <trkpt lat="42.724602" lon="0.789199">
        <ele>995.2</ele>
        <time>1970-01-01T04:47:48.000Z</time>
      </trkpt>
      <trkpt lat="42.724599" lon="0.789201">
        <ele>995</ele>
        <time>1970-01-01T04:47:50.000Z</time>
      </trkpt>
      <trkpt lat="42.724594" lon="0.789219">
        <ele>995.4</ele>
        <time>1970-01-01T04:48:16.000Z</time>
      </trkpt>
      <trkpt lat="42.724233" lon="0.789797">
        <ele>995.6</ele>
        <time>1970-01-01T04:48:32.000Z</time>
      </trkpt>
      <trkpt lat="42.723981" lon="0.790067">
        <ele>996</ele>
        <time>1970-01-01T04:48:41.000Z</time>
      </trkpt>
      <trkpt lat="42.723701" lon="0.790547">
        <ele>993.8</ele>
        <time>1970-01-01T04:48:48.000Z</time>
      </trkpt>
      <trkpt lat="42.723602" lon="0.790737">
        <ele>992</ele>
        <time>1970-01-01T04:48:50.000Z</time>
      </trkpt>
      <trkpt lat="42.723544" lon="0.790828">
        <ele>991.2</ele>
        <time>1970-01-01T04:48:51.000Z</time>
      </trkpt>
      <trkpt lat="42.723485" lon="0.79092">
        <ele>990.8</ele>
        <time>1970-01-01T04:48:52.000Z</time>
      </trkpt>
      <trkpt lat="42.723322" lon="0.791174">
        <ele>989.6</ele>
        <time>1970-01-01T04:48:55.000Z</time>
      </trkpt>
      <trkpt lat="42.722944" lon="0.791608">
        <ele>990.6</ele>
        <time>1970-01-01T04:49:04.000Z</time>
      </trkpt>
      <trkpt lat="42.722797" lon="0.791748">
        <ele>992</ele>
        <time>1970-01-01T04:49:09.000Z</time>
      </trkpt>
      <trkpt lat="42.722733" lon="0.791819">
        <ele>993.2</ele>
        <time>1970-01-01T04:49:12.000Z</time>
      </trkpt>
      <trkpt lat="42.722648" lon="0.791926">
        <ele>994.4</ele>
        <time>1970-01-01T04:49:16.000Z</time>
      </trkpt>
      <trkpt lat="42.722563" lon="0.792022">
        <ele>995.6</ele>
        <time>1970-01-01T04:49:20.000Z</time>
      </trkpt>
      <trkpt lat="42.722471" lon="0.792156">
        <ele>996.8</ele>
        <time>1970-01-01T04:49:25.000Z</time>
      </trkpt>
      <trkpt lat="42.722412" lon="0.792264">
        <ele>997.8</ele>
        <time>1970-01-01T04:49:29.000Z</time>
      </trkpt>
      <trkpt lat="42.722334" lon="0.792393">
        <ele>999</ele>
        <time>1970-01-01T04:49:34.000Z</time>
      </trkpt>
      <trkpt lat="42.722221" lon="0.792585">
        <ele>1000.2</ele>
        <time>1970-01-01T04:49:41.000Z</time>
      </trkpt>
      <trkpt lat="42.722123" lon="0.792747">
        <ele>1001</ele>
        <time>1970-01-01T04:49:47.000Z</time>
      </trkpt>
      <trkpt lat="42.722062" lon="0.792863">
        <ele>1002.4</ele>
        <time>1970-01-01T04:49:52.000Z</time>
      </trkpt>
      <trkpt lat="42.722003" lon="0.792975">
        <ele>1003.6</ele>
        <time>1970-01-01T04:49:57.000Z</time>
      </trkpt>
      <trkpt lat="42.72195" lon="0.793057">
        <ele>1004.4</ele>
        <time>1970-01-01T04:50:01.000Z</time>
      </trkpt>
      <trkpt lat="42.721934" lon="0.793077">
        <ele>1004.8</ele>
        <time>1970-01-01T04:50:02.000Z</time>
      </trkpt>
      <trkpt lat="42.72187" lon="0.793152">
        <ele>1005.8</ele>
        <time>1970-01-01T04:50:06.000Z</time>
      </trkpt>
      <trkpt lat="42.721803" lon="0.793208">
        <ele>1006.8</ele>
        <time>1970-01-01T04:50:10.000Z</time>
      </trkpt>
      <trkpt lat="42.721754" lon="0.793258">
        <ele>1007.8</ele>
        <time>1970-01-01T04:50:13.000Z</time>
      </trkpt>
      <trkpt lat="42.721738" lon="0.793307">
        <ele>1008.2</ele>
        <time>1970-01-01T04:50:15.000Z</time>
      </trkpt>
      <trkpt lat="42.721903" lon="0.793309">
        <ele>1008.6</ele>
        <time>1970-01-01T04:50:24.000Z</time>
      </trkpt>
      <trkpt lat="42.722078" lon="0.793273">
        <ele>1008.6</ele>
        <time>1970-01-01T04:50:31.000Z</time>
      </trkpt>
      <trkpt lat="42.722249" lon="0.793689">
        <ele>1009.8</ele>
        <time>1970-01-01T04:50:47.000Z</time>
      </trkpt>
      <trkpt lat="42.722167" lon="0.79406">
        <ele>1010.8</ele>
        <time>1970-01-01T04:50:58.000Z</time>
      </trkpt>
      <trkpt lat="42.722095" lon="0.794346">
        <ele>1011.8</ele>
        <time>1970-01-01T04:51:06.000Z</time>
      </trkpt>
      <trkpt lat="42.722047" lon="0.794513">
        <ele>1013</ele>
        <time>1970-01-01T04:51:11.000Z</time>
      </trkpt>
      <trkpt lat="42.721964" lon="0.794757">
        <ele>1014</ele>
        <time>1970-01-01T04:51:19.000Z</time>
      </trkpt>
      <trkpt lat="42.721898" lon="0.794901">
        <ele>1015.2</ele>
        <time>1970-01-01T04:51:24.000Z</time>
      </trkpt>
      <trkpt lat="42.721827" lon="0.795034">
        <ele>1016.2</ele>
        <time>1970-01-01T04:51:29.000Z</time>
      </trkpt>
      <trkpt lat="42.721752" lon="0.795164">
        <ele>1017.4</ele>
        <time>1970-01-01T04:51:34.000Z</time>
      </trkpt>
      <trkpt lat="42.721691" lon="0.795268">
        <ele>1018.4</ele>
        <time>1970-01-01T04:51:38.000Z</time>
      </trkpt>
      <trkpt lat="42.721608" lon="0.795391">
        <ele>1019.4</ele>
        <time>1970-01-01T04:51:43.000Z</time>
      </trkpt>
      <trkpt lat="42.721513" lon="0.795547">
        <ele>1020.4</ele>
        <time>1970-01-01T04:51:49.000Z</time>
      </trkpt>
      <trkpt lat="42.721449" lon="0.795642">
        <ele>1021.6</ele>
        <time>1970-01-01T04:51:53.000Z</time>
      </trkpt>
      <trkpt lat="42.721389" lon="0.79574">
        <ele>1022.8</ele>
        <time>1970-01-01T04:51:57.000Z</time>
      </trkpt>
      <trkpt lat="42.721307" lon="0.795865">
        <ele>1023.8</ele>
        <time>1970-01-01T04:52:02.000Z</time>
      </trkpt>
      <trkpt lat="42.721194" lon="0.795993">
        <ele>1025</ele>
        <time>1970-01-01T04:52:08.000Z</time>
      </trkpt>
      <trkpt lat="42.721119" lon="0.796063">
        <ele>1025.8</ele>
        <time>1970-01-01T04:52:12.000Z</time>
      </trkpt>
      <trkpt lat="42.720967" lon="0.796145">
        <ele>1027</ele>
        <time>1970-01-01T04:52:19.000Z</time>
      </trkpt>
      <trkpt lat="42.720841" lon="0.796179">
        <ele>1028</ele>
        <time>1970-01-01T04:52:25.000Z</time>
      </trkpt>
      <trkpt lat="42.72065" lon="0.796157">
        <ele>1029</ele>
        <time>1970-01-01T04:52:34.000Z</time>
      </trkpt>
      <trkpt lat="42.720541" lon="0.796124">
        <ele>1030</ele>
        <time>1970-01-01T04:52:40.000Z</time>
      </trkpt>
      <trkpt lat="42.720434" lon="0.796076">
        <ele>1031.2</ele>
        <time>1970-01-01T04:52:46.000Z</time>
      </trkpt>
      <trkpt lat="42.720298" lon="0.796029">
        <ele>1032</ele>
        <time>1970-01-01T04:52:53.000Z</time>
      </trkpt>
      <trkpt lat="42.720184" lon="0.796097">
        <ele>1033</ele>
        <time>1970-01-01T04:53:00.000Z</time>
      </trkpt>
      <trkpt lat="42.72017" lon="0.796113">
        <ele>1033.2</ele>
        <time>1970-01-01T04:53:01.000Z</time>
      </trkpt>
      <trkpt lat="42.720158" lon="0.796294">
        <ele>1034</ele>
        <time>1970-01-01T04:53:09.000Z</time>
      </trkpt>
      <trkpt lat="42.720183" lon="0.796376">
        <ele>1035</ele>
        <time>1970-01-01T04:53:13.000Z</time>
      </trkpt>
      <trkpt lat="42.720196" lon="0.796391">
        <ele>1035.2</ele>
        <time>1970-01-01T04:53:14.000Z</time>
      </trkpt>
      <trkpt lat="42.720289" lon="0.796498">
        <ele>1036</ele>
        <time>1970-01-01T04:53:21.000Z</time>
      </trkpt>
      <trkpt lat="42.720376" lon="0.796595">
        <ele>1037</ele>
        <time>1970-01-01T04:53:28.000Z</time>
      </trkpt>
      <trkpt lat="42.720438" lon="0.796693">
        <ele>1038.2</ele>
        <time>1970-01-01T04:53:34.000Z</time>
      </trkpt>
      <trkpt lat="42.720485" lon="0.796826">
        <ele>1039</ele>
        <time>1970-01-01T04:53:41.000Z</time>
      </trkpt>
      <trkpt lat="42.720486" lon="0.796846">
        <ele>1039.2</ele>
        <time>1970-01-01T04:53:42.000Z</time>
      </trkpt>
      <trkpt lat="42.72049" lon="0.796866">
        <ele>1039.2</ele>
        <time>1970-01-01T04:53:43.000Z</time>
      </trkpt>
      <trkpt lat="42.720508" lon="0.796941">
        <ele>1040</ele>
        <time>1970-01-01T04:53:47.000Z</time>
      </trkpt>
      <trkpt lat="42.720511" lon="0.796961">
        <ele>1040.2</ele>
        <time>1970-01-01T04:53:48.000Z</time>
      </trkpt>
      <trkpt lat="42.720566" lon="0.797125">
        <ele>1041.2</ele>
        <time>1970-01-01T04:53:56.000Z</time>
      </trkpt>
      <trkpt lat="42.72062" lon="0.797255">
        <ele>1042.2</ele>
        <time>1970-01-01T04:54:03.000Z</time>
      </trkpt>
      <trkpt lat="42.720654" lon="0.7973">
        <ele>1042.6</ele>
        <time>1970-01-01T04:54:06.000Z</time>
      </trkpt>
      <trkpt lat="42.720688" lon="0.797349">
        <ele>1043</ele>
        <time>1970-01-01T04:54:09.000Z</time>
      </trkpt>
      <trkpt lat="42.72069" lon="0.797393">
        <ele>1043.2</ele>
        <time>1970-01-01T04:54:11.000Z</time>
      </trkpt>
      <trkpt lat="42.720662" lon="0.797492">
        <ele>1043.6</ele>
        <time>1970-01-01T04:54:16.000Z</time>
      </trkpt>
      <trkpt lat="42.720651" lon="0.7976">
        <ele>1044.2</ele>
        <time>1970-01-01T04:54:20.000Z</time>
      </trkpt>
      <trkpt lat="42.720489" lon="0.798326">
        <ele>1044.4</ele>
        <time>1970-01-01T04:54:39.000Z</time>
      </trkpt>
      <trkpt lat="42.720744" lon="0.799011">
        <ele>1044.4</ele>
        <time>1970-01-01T04:54:55.000Z</time>
      </trkpt>
      <trkpt lat="42.720877" lon="0.799519">
        <ele>1045</ele>
        <time>1970-01-01T04:55:08.000Z</time>
      </trkpt>
      <trkpt lat="42.72091" lon="0.800147">
        <ele>1046</ele>
        <time>1970-01-01T04:55:21.000Z</time>
      </trkpt>
      <trkpt lat="42.720876" lon="0.800742">
        <ele>1047</ele>
        <time>1970-01-01T04:55:33.000Z</time>
      </trkpt>
      <trkpt lat="42.720815" lon="0.801195">
        <ele>1047.8</ele>
        <time>1970-01-01T04:55:43.000Z</time>
      </trkpt>
      <trkpt lat="42.720672" lon="0.801599">
        <ele>1048.8</ele>
        <time>1970-01-01T04:55:53.000Z</time>
      </trkpt>
      <trkpt lat="42.72026" lon="0.802117">
        <ele>1047.6</ele>
        <time>1970-01-01T04:56:04.000Z</time>
      </trkpt>
      <trkpt lat="42.719845" lon="0.802655">
        <ele>1047.6</ele>
        <time>1970-01-01T04:56:16.000Z</time>
      </trkpt>
      <trkpt lat="42.71982" lon="0.802711">
        <ele>1047.6</ele>
        <time>1970-01-01T04:56:17.000Z</time>
      </trkpt>
      <trkpt lat="42.719792" lon="0.803112">
        <ele>1047.4</ele>
        <time>1970-01-01T04:56:23.000Z</time>
      </trkpt>
      <trkpt lat="42.719808" lon="0.803241">
        <ele>1047</ele>
        <time>1970-01-01T04:56:25.000Z</time>
      </trkpt>
      <trkpt lat="42.719906" lon="0.80348">
        <ele>1046.8</ele>
        <time>1970-01-01T04:56:29.000Z</time>
      </trkpt>
      <trkpt lat="42.719959" lon="0.803596">
        <ele>1046.8</ele>
        <time>1970-01-01T04:56:31.000Z</time>
      </trkpt>
      <trkpt lat="42.719912" lon="0.803829">
        <ele>1047.8</ele>
        <time>1970-01-01T04:56:37.000Z</time>
      </trkpt>
      <trkpt lat="42.719879" lon="0.803883">
        <ele>1048.2</ele>
        <time>1970-01-01T04:56:39.000Z</time>
      </trkpt>
      <trkpt lat="42.719815" lon="0.803965">
        <ele>1049.2</ele>
        <time>1970-01-01T04:56:43.000Z</time>
      </trkpt>
      <trkpt lat="42.719721" lon="0.804013">
        <ele>1050.4</ele>
        <time>1970-01-01T04:56:47.000Z</time>
      </trkpt>
      <trkpt lat="42.719596" lon="0.804015">
        <ele>1051.6</ele>
        <time>1970-01-01T04:56:52.000Z</time>
      </trkpt>
      <trkpt lat="42.719524" lon="0.803949">
        <ele>1052.6</ele>
        <time>1970-01-01T04:56:55.000Z</time>
      </trkpt>
      <trkpt lat="42.719361" lon="0.80385">
        <ele>1053.8</ele>
        <time>1970-01-01T04:57:01.000Z</time>
      </trkpt>
      <trkpt lat="42.719097" lon="0.8037">
        <ele>1054.8</ele>
        <time>1970-01-01T04:57:12.000Z</time>
      </trkpt>
      <trkpt lat="42.718767" lon="0.803101">
        <ele>1054.6</ele>
        <time>1970-01-01T04:57:29.000Z</time>
      </trkpt>
      <trkpt lat="42.718847" lon="0.802357">
        <ele>1056</ele>
        <time>1970-01-01T04:57:44.000Z</time>
      </trkpt>
      <trkpt lat="42.718832" lon="0.802283">
        <ele>1056.4</ele>
        <time>1970-01-01T04:57:46.000Z</time>
      </trkpt>
      <trkpt lat="42.718775" lon="0.801968">
        <ele>1057.4</ele>
        <time>1970-01-01T04:57:55.000Z</time>
      </trkpt>
      <trkpt lat="42.718735" lon="0.801784">
        <ele>1058.4</ele>
        <time>1970-01-01T04:58:00.000Z</time>
      </trkpt>
      <trkpt lat="42.718709" lon="0.801589">
        <ele>1059.6</ele>
        <time>1970-01-01T04:58:05.000Z</time>
      </trkpt>
      <trkpt lat="42.718641" lon="0.801432">
        <ele>1060.6</ele>
        <time>1970-01-01T04:58:11.000Z</time>
      </trkpt>
      <trkpt lat="42.718517" lon="0.801163">
        <ele>1061.4</ele>
        <time>1970-01-01T04:58:19.000Z</time>
      </trkpt>
      <trkpt lat="42.718333" lon="0.800811">
        <ele>1062.4</ele>
        <time>1970-01-01T04:58:28.000Z</time>
      </trkpt>
      <trkpt lat="42.718124" lon="0.800297">
        <ele>1063.4</ele>
        <time>1970-01-01T04:58:40.000Z</time>
      </trkpt>
      <trkpt lat="42.718119" lon="0.800208">
        <ele>1063.8</ele>
        <time>1970-01-01T04:58:42.000Z</time>
      </trkpt>
      <trkpt lat="42.718117" lon="0.799992">
        <ele>1064.6</ele>
        <time>1970-01-01T04:58:47.000Z</time>
      </trkpt>
      <trkpt lat="42.718014" lon="0.799769">
        <ele>1065.4</ele>
        <time>1970-01-01T04:58:54.000Z</time>
      </trkpt>
      <trkpt lat="42.717912" lon="0.799777">
        <ele>1066.6</ele>
        <time>1970-01-01T04:58:58.000Z</time>
      </trkpt>
      <trkpt lat="42.717797" lon="0.799849">
        <ele>1067.6</ele>
        <time>1970-01-01T04:59:04.000Z</time>
      </trkpt>
      <trkpt lat="42.717773" lon="0.799883">
        <ele>1067.8</ele>
        <time>1970-01-01T04:59:06.000Z</time>
      </trkpt>
      <trkpt lat="42.717794" lon="0.799896">
        <ele>1068.2</ele>
        <time>1970-01-01T04:59:10.000Z</time>
      </trkpt>
      <trkpt lat="42.718001" lon="0.7997">
        <ele>1066.2</ele>
        <time>1970-01-01T04:59:21.000Z</time>
      </trkpt>
      <trkpt lat="42.717929" lon="0.799616">
        <ele>1065.2</ele>
        <time>1970-01-01T04:59:26.000Z</time>
      </trkpt>
      <trkpt lat="42.717869" lon="0.799558">
        <ele>1064.8</ele>
        <time>1970-01-01T04:59:28.000Z</time>
      </trkpt>
      <trkpt lat="42.717829" lon="0.79953">
        <ele>1064.4</ele>
        <time>1970-01-01T04:59:29.000Z</time>
      </trkpt>
      <trkpt lat="42.717732" lon="0.799537">
        <ele>1064</ele>
        <time>1970-01-01T04:59:31.000Z</time>
      </trkpt>
      <trkpt lat="42.717567" lon="0.799657">
        <ele>1062.8</ele>
        <time>1970-01-01T04:59:34.000Z</time>
      </trkpt>
      <trkpt lat="42.71738" lon="0.79972">
        <ele>1061.4</ele>
        <time>1970-01-01T04:59:37.000Z</time>
      </trkpt>
      <trkpt lat="42.717318" lon="0.799724">
        <ele>1061.4</ele>
        <time>1970-01-01T04:59:38.000Z</time>
      </trkpt>
      <trkpt lat="42.717083" lon="0.799723">
        <ele>1060.6</ele>
        <time>1970-01-01T04:59:42.000Z</time>
      </trkpt>
      <trkpt lat="42.71699" lon="0.799674">
        <ele>1060.4</ele>
        <time>1970-01-01T04:59:44.000Z</time>
      </trkpt>
      <trkpt lat="42.716896" lon="0.799601">
        <ele>1060.2</ele>
        <time>1970-01-01T04:59:46.000Z</time>
      </trkpt>
      <trkpt lat="42.716746" lon="0.799261">
        <ele>1059.2</ele>
        <time>1970-01-01T04:59:51.000Z</time>
      </trkpt>
      <trkpt lat="42.716691" lon="0.79919">
        <ele>1058.2</ele>
        <time>1970-01-01T04:59:53.000Z</time>
      </trkpt>
      <trkpt lat="42.716654" lon="0.799185">
        <ele>1058</ele>
        <time>1970-01-01T04:59:54.000Z</time>
      </trkpt>
      <trkpt lat="42.716395" lon="0.799316">
        <ele>1056.8</ele>
        <time>1970-01-01T05:00:01.000Z</time>
      </trkpt>
      <trkpt lat="42.716231" lon="0.799526">
        <ele>1055.8</ele>
        <time>1970-01-01T05:00:05.000Z</time>
      </trkpt>
      <trkpt lat="42.716186" lon="0.799578">
        <ele>1055.6</ele>
        <time>1970-01-01T05:00:06.000Z</time>
      </trkpt>
      <trkpt lat="42.715951" lon="0.799687">
        <ele>1054.4</ele>
        <time>1970-01-01T05:00:10.000Z</time>
      </trkpt>
      <trkpt lat="42.715813" lon="0.799752">
        <ele>1052.8</ele>
        <time>1970-01-01T05:00:12.000Z</time>
      </trkpt>
      <trkpt lat="42.715662" lon="0.799801">
        <ele>1051.8</ele>
        <time>1970-01-01T05:00:14.000Z</time>
      </trkpt>
      <trkpt lat="42.715583" lon="0.79982">
        <ele>1051.4</ele>
        <time>1970-01-01T05:00:15.000Z</time>
      </trkpt>
      <trkpt lat="42.715415" lon="0.799871">
        <ele>1049.8</ele>
        <time>1970-01-01T05:00:17.000Z</time>
      </trkpt>
      <trkpt lat="42.715247" lon="0.799925">
        <ele>1048.8</ele>
        <time>1970-01-01T05:00:19.000Z</time>
      </trkpt>
      <trkpt lat="42.714937" lon="0.800004">
        <ele>1047.8</ele>
        <time>1970-01-01T05:00:23.000Z</time>
      </trkpt>
      <trkpt lat="42.714865" lon="0.800036">
        <ele>1047.6</ele>
        <time>1970-01-01T05:00:24.000Z</time>
      </trkpt>
      <trkpt lat="42.714574" lon="0.8002">
        <ele>1047.2</ele>
        <time>1970-01-01T05:00:29.000Z</time>
      </trkpt>
      <trkpt lat="42.714424" lon="0.800292">
        <ele>1046.6</ele>
        <time>1970-01-01T05:00:32.000Z</time>
      </trkpt>
      <trkpt lat="42.71422" lon="0.800452">
        <ele>1045.6</ele>
        <time>1970-01-01T05:00:38.000Z</time>
      </trkpt>
      <trkpt lat="42.714161" lon="0.800477">
        <ele>1045.4</ele>
        <time>1970-01-01T05:00:41.000Z</time>
      </trkpt>
      <trkpt lat="42.714113" lon="0.800464">
        <ele>1045</ele>
        <time>1970-01-01T05:00:44.000Z</time>
      </trkpt>
      <trkpt lat="42.714081" lon="0.800469">
        <ele>1044.6</ele>
        <time>1970-01-01T05:00:46.000Z</time>
      </trkpt>
      <trkpt lat="42.714049" lon="0.800451">
        <ele>1044.4</ele>
        <time>1970-01-01T05:00:47.000Z</time>
      </trkpt>
      <trkpt lat="42.713904" lon="0.800387">
        <ele>1043.2</ele>
        <time>1970-01-01T05:00:50.000Z</time>
      </trkpt>
      <trkpt lat="42.713833" lon="0.800353">
        <ele>1042</ele>
        <time>1970-01-01T05:00:51.000Z</time>
      </trkpt>
      <trkpt lat="42.713744" lon="0.800323">
        <ele>1040.8</ele>
        <time>1970-01-01T05:00:52.000Z</time>
      </trkpt>
      <trkpt lat="42.713556" lon="0.800267">
        <ele>1039.6</ele>
        <time>1970-01-01T05:00:54.000Z</time>
      </trkpt>
      <trkpt lat="42.71337" lon="0.800199">
        <ele>1038.4</ele>
        <time>1970-01-01T05:00:56.000Z</time>
      </trkpt>
      <trkpt lat="42.713209" lon="0.80016">
        <ele>1037.8</ele>
        <time>1970-01-01T05:00:58.000Z</time>
      </trkpt>
      <trkpt lat="42.713161" lon="0.800157">
        <ele>1037.2</ele>
        <time>1970-01-01T05:00:59.000Z</time>
      </trkpt>
      <trkpt lat="42.713018" lon="0.800113">
        <ele>1036</ele>
        <time>1970-01-01T05:01:02.000Z</time>
      </trkpt>
      <trkpt lat="42.712809" lon="0.800043">
        <ele>1034.6</ele>
        <time>1970-01-01T05:01:05.000Z</time>
      </trkpt>
      <trkpt lat="42.712655" lon="0.799996">
        <ele>1033.6</ele>
        <time>1970-01-01T05:01:07.000Z</time>
      </trkpt>
      <trkpt lat="42.71226" lon="0.799861">
        <ele>1032.6</ele>
        <time>1970-01-01T05:01:13.000Z</time>
      </trkpt>
      <trkpt lat="42.712114" lon="0.79982">
        <ele>1032.4</ele>
        <time>1970-01-01T05:01:16.000Z</time>
      </trkpt>
      <trkpt lat="42.711889" lon="0.799805">
        <ele>1031.4</ele>
        <time>1970-01-01T05:01:20.000Z</time>
      </trkpt>
      <trkpt lat="42.711827" lon="0.799793">
        <ele>1031</ele>
        <time>1970-01-01T05:01:21.000Z</time>
      </trkpt>
      <trkpt lat="42.711729" lon="0.799765">
        <ele>1030.4</ele>
        <time>1970-01-01T05:01:24.000Z</time>
      </trkpt>
      <trkpt lat="42.711726" lon="0.799766">
        <ele>1030.2</ele>
        <time>1970-01-01T05:01:26.000Z</time>
      </trkpt>
      <trkpt lat="42.711704" lon="0.799745">
        <ele>1029.6</ele>
        <time>1970-01-01T05:02:00.000Z</time>
      </trkpt>
      <trkpt lat="42.711636" lon="0.799709">
        <ele>1029</ele>
        <time>1970-01-01T05:02:02.000Z</time>
      </trkpt>
      <trkpt lat="42.711542" lon="0.799636">
        <ele>1027.4</ele>
        <time>1970-01-01T05:02:04.000Z</time>
      </trkpt>
      <trkpt lat="42.711498" lon="0.799609">
        <ele>1026.4</ele>
        <time>1970-01-01T05:02:05.000Z</time>
      </trkpt>
      <trkpt lat="42.711454" lon="0.799589">
        <ele>1025.4</ele>
        <time>1970-01-01T05:02:06.000Z</time>
      </trkpt>
      <trkpt lat="42.71135" lon="0.79956">
        <ele>1023.8</ele>
        <time>1970-01-01T05:02:08.000Z</time>
      </trkpt>
      <trkpt lat="42.711189" lon="0.799527">
        <ele>1022</ele>
        <time>1970-01-01T05:02:10.000Z</time>
      </trkpt>
      <trkpt lat="42.711018" lon="0.79948">
        <ele>1019.6</ele>
        <time>1970-01-01T05:02:12.000Z</time>
      </trkpt>
      <trkpt lat="42.710935" lon="0.799451">
        <ele>1018.2</ele>
        <time>1970-01-01T05:02:13.000Z</time>
      </trkpt>
      <trkpt lat="42.710854" lon="0.799432">
        <ele>1017.2</ele>
        <time>1970-01-01T05:02:14.000Z</time>
      </trkpt>
      <trkpt lat="42.710767" lon="0.799418">
        <ele>1016.4</ele>
        <time>1970-01-01T05:02:15.000Z</time>
      </trkpt>
      <trkpt lat="42.710505" lon="0.799345">
        <ele>1015</ele>
        <time>1970-01-01T05:02:18.000Z</time>
      </trkpt>
      <trkpt lat="42.710332" lon="0.799259">
        <ele>1013.8</ele>
        <time>1970-01-01T05:02:20.000Z</time>
      </trkpt>
      <trkpt lat="42.710195" lon="0.799187">
        <ele>1013.4</ele>
        <time>1970-01-01T05:02:22.000Z</time>
      </trkpt>
      <trkpt lat="42.709868" lon="0.798989">
        <ele>1012.6</ele>
        <time>1970-01-01T05:02:27.000Z</time>
      </trkpt>
      <trkpt lat="42.709737" lon="0.798962">
        <ele>1012.2</ele>
        <time>1970-01-01T05:02:30.000Z</time>
      </trkpt>
      <trkpt lat="42.709614" lon="0.798876">
        <ele>1011.4</ele>
        <time>1970-01-01T05:02:33.000Z</time>
      </trkpt>
      <trkpt lat="42.709481" lon="0.798839">
        <ele>1010</ele>
        <time>1970-01-01T05:02:35.000Z</time>
      </trkpt>
      <trkpt lat="42.709408" lon="0.798819">
        <ele>1009.6</ele>
        <time>1970-01-01T05:02:36.000Z</time>
      </trkpt>
      <trkpt lat="42.709265" lon="0.798761">
        <ele>1008.8</ele>
        <time>1970-01-01T05:02:38.000Z</time>
      </trkpt>
      <trkpt lat="42.70914" lon="0.798717">
        <ele>1008.6</ele>
        <time>1970-01-01T05:02:40.000Z</time>
      </trkpt>
      <trkpt lat="42.709008" lon="0.79867">
        <ele>1010</ele>
        <time>1970-01-01T05:02:45.000Z</time>
      </trkpt>
      <trkpt lat="42.709" lon="0.798668">
        <ele>1010.2</ele>
        <time>1970-01-01T05:02:47.000Z</time>
      </trkpt>
      <trkpt lat="42.708967" lon="0.798648">
        <ele>1010.2</ele>
        <time>1970-01-01T05:03:01.000Z</time>
      </trkpt>
      <trkpt lat="42.708859" lon="0.798574">
        <ele>1009.6</ele>
        <time>1970-01-01T05:03:04.000Z</time>
      </trkpt>
      <trkpt lat="42.708694" lon="0.798432">
        <ele>1009</ele>
        <time>1970-01-01T05:03:08.000Z</time>
      </trkpt>
      <trkpt lat="42.708612" lon="0.798432">
        <ele>1008</ele>
        <time>1970-01-01T05:03:10.000Z</time>
      </trkpt>
      <trkpt lat="42.708569" lon="0.798442">
        <ele>1007.2</ele>
        <time>1970-01-01T05:03:12.000Z</time>
      </trkpt>
      <trkpt lat="42.708555" lon="0.798441">
        <ele>1006.8</ele>
        <time>1970-01-01T05:03:13.000Z</time>
      </trkpt>
      <trkpt lat="42.708494" lon="0.798446">
        <ele>1005.6</ele>
        <time>1970-01-01T05:03:16.000Z</time>
      </trkpt>
      <trkpt lat="42.70813" lon="0.798343">
        <ele>1004.4</ele>
        <time>1970-01-01T05:03:28.000Z</time>
      </trkpt>
      <trkpt lat="42.708016" lon="0.798234">
        <ele>1004.4</ele>
        <time>1970-01-01T05:03:31.000Z</time>
      </trkpt>
      <trkpt lat="42.707878" lon="0.798049">
        <ele>1003</ele>
        <time>1970-01-01T05:03:35.000Z</time>
      </trkpt>
      <trkpt lat="42.7078" lon="0.79797">
        <ele>1001.6</ele>
        <time>1970-01-01T05:03:37.000Z</time>
      </trkpt>
      <trkpt lat="42.707429" lon="0.797472">
        <ele>1000.4</ele>
        <time>1970-01-01T05:03:55.000Z</time>
      </trkpt>
      <trkpt lat="42.707424" lon="0.797208">
        <ele>1000</ele>
        <time>1970-01-01T05:04:00.000Z</time>
      </trkpt>
      <trkpt lat="42.707418" lon="0.797026">
        <ele>999.2</ele>
        <time>1970-01-01T05:04:03.000Z</time>
      </trkpt>
      <trkpt lat="42.707428" lon="0.796895">
        <ele>998.2</ele>
        <time>1970-01-01T05:04:06.000Z</time>
      </trkpt>
      <trkpt lat="42.707438" lon="0.796817">
        <ele>996.8</ele>
        <time>1970-01-01T05:04:08.000Z</time>
      </trkpt>
      <trkpt lat="42.707441" lon="0.796776">
        <ele>995</ele>
        <time>1970-01-01T05:04:10.000Z</time>
      </trkpt>
      <trkpt lat="42.70747" lon="0.796717">
        <ele>993.8</ele>
        <time>1970-01-01T05:04:13.000Z</time>
      </trkpt>
      <trkpt lat="42.707478" lon="0.796709">
        <ele>993.2</ele>
        <time>1970-01-01T05:04:15.000Z</time>
      </trkpt>
      <trkpt lat="42.707483" lon="0.796582">
        <ele>992.4</ele>
        <time>1970-01-01T05:05:02.000Z</time>
      </trkpt>
      <trkpt lat="42.707467" lon="0.796403">
        <ele>991.6</ele>
        <time>1970-01-01T05:05:09.000Z</time>
      </trkpt>
      <trkpt lat="42.707399" lon="0.796366">
        <ele>991.6</ele>
        <time>1970-01-01T05:05:13.000Z</time>
      </trkpt>
      <trkpt lat="42.70686" lon="0.796251">
        <ele>993.2</ele>
        <time>1970-01-01T05:05:33.000Z</time>
      </trkpt>
      <trkpt lat="42.706742" lon="0.796216">
        <ele>993.6</ele>
        <time>1970-01-01T05:05:37.000Z</time>
      </trkpt>
      <trkpt lat="42.706422" lon="0.796108">
        <ele>994.6</ele>
        <time>1970-01-01T05:05:46.000Z</time>
      </trkpt>
      <trkpt lat="42.706236" lon="0.796018">
        <ele>995.6</ele>
        <time>1970-01-01T05:05:55.000Z</time>
      </trkpt>
      <trkpt lat="42.706128" lon="0.796039">
        <ele>995.8</ele>
        <time>1970-01-01T05:06:03.000Z</time>
      </trkpt>
      <trkpt lat="42.706092" lon="0.796004">
        <ele>995.6</ele>
        <time>1970-01-01T05:06:24.000Z</time>
      </trkpt>
      <trkpt lat="42.705965" lon="0.796097">
        <ele>995.6</ele>
        <time>1970-01-01T05:06:28.000Z</time>
      </trkpt>
      <trkpt lat="42.705697" lon="0.796369">
        <ele>995.6</ele>
        <time>1970-01-01T05:06:35.000Z</time>
      </trkpt>
      <trkpt lat="42.70555" lon="0.796522">
        <ele>995.8</ele>
        <time>1970-01-01T05:06:39.000Z</time>
      </trkpt>
      <trkpt lat="42.705256" lon="0.79681">
        <ele>996.2</ele>
        <time>1970-01-01T05:06:48.000Z</time>
      </trkpt>
      <trkpt lat="42.704941" lon="0.797102">
        <ele>997.4</ele>
        <time>1970-01-01T05:06:58.000Z</time>
      </trkpt>
      <trkpt lat="42.704607" lon="0.797331">
        <ele>998.4</ele>
        <time>1970-01-01T05:07:08.000Z</time>
      </trkpt>
      <trkpt lat="42.70436" lon="0.797465">
        <ele>999.4</ele>
        <time>1970-01-01T05:07:15.000Z</time>
      </trkpt>
      <trkpt lat="42.704148" lon="0.797545">
        <ele>999.6</ele>
        <time>1970-01-01T05:07:20.000Z</time>
      </trkpt>
      <trkpt lat="42.703878" lon="0.797655">
        <ele>1000</ele>
        <time>1970-01-01T05:07:27.000Z</time>
      </trkpt>
      <trkpt lat="42.70372" lon="0.797724">
        <ele>1000.2</ele>
        <time>1970-01-01T05:07:31.000Z</time>
      </trkpt>
      <trkpt lat="42.703643" lon="0.797772">
        <ele>1000.4</ele>
        <time>1970-01-01T05:07:33.000Z</time>
      </trkpt>
      <trkpt lat="42.703561" lon="0.798006">
        <ele>1001.2</ele>
        <time>1970-01-01T05:07:38.000Z</time>
      </trkpt>
      <trkpt lat="42.703557" lon="0.798055">
        <ele>1001.4</ele>
        <time>1970-01-01T05:07:39.000Z</time>
      </trkpt>
      <trkpt lat="42.703387" lon="0.798785">
        <ele>1001.8</ele>
        <time>1970-01-01T05:07:55.000Z</time>
      </trkpt>
      <trkpt lat="42.70316" lon="0.799146">
        <ele>1002.6</ele>
        <time>1970-01-01T05:08:05.000Z</time>
      </trkpt>
      <trkpt lat="42.702978" lon="0.799374">
        <ele>1003</ele>
        <time>1970-01-01T05:08:14.000Z</time>
      </trkpt>
      <trkpt lat="42.703088" lon="0.799462">
        <ele>1003.2</ele>
        <time>1970-01-01T05:08:23.000Z</time>
      </trkpt>
      <trkpt lat="42.703105" lon="0.799498">
        <ele>1003.4</ele>
        <time>1970-01-01T05:08:26.000Z</time>
      </trkpt>
    </trkseg>
  </trk>
</gpx>
